<?xml version="1.0" encoding="UTF-8" standalone="no" ?>
<gpx xmlns="http://www.topografix.com/GPX/1/1" xmlns:xsi="http://www.w3.org/2001/XMLSchema-instance" xsi:schemaLocation="http://www.topografix.com/GPX/1/1 http://www.topografix.com/GPX/1/1/gpx.xsd" version="1.1" creator="VisuGPX - https://www.visugpx.com">
  <metadata>
    <name>voyage total </name>
  </metadata>
  <trk>
    <name><![CDATA[T29]]></name>
    <trkseg>
      <trkpt lat="47.67167" lon="1.52613">
        <ele>75.9</ele>
        <time>2020-07-03T06:53:20Z</time>
      </trkpt>
      <trkpt lat="47.6718" lon="1.52621">
        <ele>76</ele>
        <time>2020-07-03T06:53:22Z</time>
      </trkpt>
      <trkpt lat="47.67186" lon="1.52623">
        <ele>76.1</ele>
        <time>2020-07-03T06:53:23Z</time>
      </trkpt>
      <trkpt lat="47.67192" lon="1.5262">
        <ele>76.1</ele>
        <time>2020-07-03T06:53:24Z</time>
      </trkpt>
      <trkpt lat="47.67197" lon="1.52621">
        <ele>76.1</ele>
        <time>2020-07-03T06:53:25Z</time>
      </trkpt>
      <trkpt lat="47.67204" lon="1.52623">
        <ele>76.1</ele>
        <time>2020-07-03T06:53:26Z</time>
      </trkpt>
      <trkpt lat="47.6721" lon="1.52623">
        <ele>76.2</ele>
        <time>2020-07-03T06:53:27Z</time>
      </trkpt>
      <trkpt lat="47.67213" lon="1.52624">
        <ele>76.2</ele>
        <time>2020-07-03T06:53:28Z</time>
      </trkpt>
      <trkpt lat="47.67216" lon="1.52627">
        <ele>76.2</ele>
        <time>2020-07-03T06:53:29Z</time>
      </trkpt>
      <trkpt lat="47.67217" lon="1.52629">
        <ele>76.2</ele>
        <time>2020-07-03T06:53:30Z</time>
      </trkpt>
      <trkpt lat="47.67221" lon="1.52631">
        <ele>76.2</ele>
        <time>2020-07-03T06:53:31Z</time>
      </trkpt>
      <trkpt lat="47.67223" lon="1.52634">
        <ele>76.2</ele>
        <time>2020-07-03T06:53:32Z</time>
      </trkpt>
      <trkpt lat="47.67224" lon="1.52635">
        <ele>76.2</ele>
        <time>2020-07-03T06:53:33Z</time>
      </trkpt>
      <trkpt lat="47.67227" lon="1.52637">
        <ele>76.2</ele>
        <time>2020-07-03T06:53:34Z</time>
      </trkpt>
      <trkpt lat="47.67228" lon="1.5264">
        <ele>76.2</ele>
        <time>2020-07-03T06:53:35Z</time>
      </trkpt>
      <trkpt lat="47.67229" lon="1.5264">
        <ele>76.2</ele>
        <time>2020-07-03T06:53:36Z</time>
      </trkpt>
      <trkpt lat="47.67232" lon="1.52642">
        <ele>76.2</ele>
        <time>2020-07-03T06:53:37Z</time>
      </trkpt>
      <trkpt lat="47.67234" lon="1.52643">
        <ele>76.2</ele>
        <time>2020-07-03T06:53:38Z</time>
      </trkpt>
      <trkpt lat="47.67237" lon="1.52646">
        <ele>76.2</ele>
        <time>2020-07-03T06:53:39Z</time>
      </trkpt>
      <trkpt lat="47.6724" lon="1.52648">
        <ele>76.2</ele>
        <time>2020-07-03T06:53:40Z</time>
      </trkpt>
      <trkpt lat="47.67244" lon="1.52651">
        <ele>76.2</ele>
        <time>2020-07-03T06:53:41Z</time>
      </trkpt>
      <trkpt lat="47.67247" lon="1.52654">
        <ele>76.2</ele>
        <time>2020-07-03T06:53:42Z</time>
      </trkpt>
      <trkpt lat="47.67251" lon="1.52657">
        <ele>76.2</ele>
        <time>2020-07-03T06:53:43Z</time>
      </trkpt>
      <trkpt lat="47.67255" lon="1.5266">
        <ele>76.2</ele>
        <time>2020-07-03T06:53:44Z</time>
      </trkpt>
      <trkpt lat="47.67258" lon="1.52664">
        <ele>76.1</ele>
        <time>2020-07-03T06:53:45Z</time>
      </trkpt>
      <trkpt lat="47.67262" lon="1.52667">
        <ele>76.1</ele>
        <time>2020-07-03T06:53:46Z</time>
      </trkpt>
      <trkpt lat="47.67265" lon="1.5267">
        <ele>76.1</ele>
        <time>2020-07-03T06:53:47Z</time>
      </trkpt>
      <trkpt lat="47.67268" lon="1.52674">
        <ele>76.1</ele>
        <time>2020-07-03T06:53:48Z</time>
      </trkpt>
      <trkpt lat="47.67271" lon="1.52678">
        <ele>76.1</ele>
        <time>2020-07-03T06:53:49Z</time>
      </trkpt>
      <trkpt lat="47.67275" lon="1.52681">
        <ele>76</ele>
        <time>2020-07-03T06:53:50Z</time>
      </trkpt>
      <trkpt lat="47.67278" lon="1.52683">
        <ele>76</ele>
        <time>2020-07-03T06:53:51Z</time>
      </trkpt>
      <trkpt lat="47.67281" lon="1.52686">
        <ele>76</ele>
        <time>2020-07-03T06:53:52Z</time>
      </trkpt>
      <trkpt lat="47.67284" lon="1.52688">
        <ele>76</ele>
        <time>2020-07-03T06:53:53Z</time>
      </trkpt>
      <trkpt lat="47.67287" lon="1.52692">
        <ele>75.9</ele>
        <time>2020-07-03T06:53:54Z</time>
      </trkpt>
      <trkpt lat="47.67291" lon="1.52696">
        <ele>75.9</ele>
        <time>2020-07-03T06:53:55Z</time>
      </trkpt>
      <trkpt lat="47.67295" lon="1.52699">
        <ele>75.9</ele>
        <time>2020-07-03T06:53:56Z</time>
      </trkpt>
      <trkpt lat="47.67299" lon="1.52703">
        <ele>75.9</ele>
        <time>2020-07-03T06:53:57Z</time>
      </trkpt>
      <trkpt lat="47.67302" lon="1.52707">
        <ele>75.9</ele>
        <time>2020-07-03T06:53:58Z</time>
      </trkpt>
      <trkpt lat="47.67304" lon="1.5271">
        <ele>75.9</ele>
        <time>2020-07-03T06:53:59Z</time>
      </trkpt>
      <trkpt lat="47.67307" lon="1.52713">
        <ele>75.9</ele>
        <time>2020-07-03T06:54:00Z</time>
      </trkpt>
      <trkpt lat="47.6731" lon="1.52716">
        <ele>75.9</ele>
        <time>2020-07-03T06:54:01Z</time>
      </trkpt>
      <trkpt lat="47.67313" lon="1.52719">
        <ele>75.9</ele>
        <time>2020-07-03T06:54:02Z</time>
      </trkpt>
      <trkpt lat="47.67315" lon="1.52722">
        <ele>75.9</ele>
        <time>2020-07-03T06:54:03Z</time>
      </trkpt>
      <trkpt lat="47.67317" lon="1.52726">
        <ele>75.9</ele>
        <time>2020-07-03T06:54:04Z</time>
      </trkpt>
      <trkpt lat="47.6732" lon="1.5273">
        <ele>75.9</ele>
        <time>2020-07-03T06:54:05Z</time>
      </trkpt>
      <trkpt lat="47.67322" lon="1.52735">
        <ele>75.9</ele>
        <time>2020-07-03T06:54:06Z</time>
      </trkpt>
      <trkpt lat="47.67325" lon="1.52739">
        <ele>75.9</ele>
        <time>2020-07-03T06:54:07Z</time>
      </trkpt>
      <trkpt lat="47.67328" lon="1.52744">
        <ele>75.9</ele>
        <time>2020-07-03T06:54:08Z</time>
      </trkpt>
      <trkpt lat="47.67331" lon="1.52749">
        <ele>75.9</ele>
        <time>2020-07-03T06:54:09Z</time>
      </trkpt>
      <trkpt lat="47.67332" lon="1.52755">
        <ele>75.9</ele>
        <time>2020-07-03T06:54:10Z</time>
      </trkpt>
      <trkpt lat="47.67333" lon="1.52762">
        <ele>75.9</ele>
        <time>2020-07-03T06:54:11Z</time>
      </trkpt>
      <trkpt lat="47.67333" lon="1.52769">
        <ele>75.9</ele>
        <time>2020-07-03T06:54:12Z</time>
      </trkpt>
      <trkpt lat="47.67332" lon="1.52775">
        <ele>75.9</ele>
        <time>2020-07-03T06:54:13Z</time>
      </trkpt>
      <trkpt lat="47.6733" lon="1.5278">
        <ele>76</ele>
        <time>2020-07-03T06:54:14Z</time>
      </trkpt>
      <trkpt lat="47.67326" lon="1.52787">
        <ele>76.3</ele>
        <time>2020-07-03T06:54:15Z</time>
      </trkpt>
      <trkpt lat="47.67321" lon="1.52792">
        <ele>76.6</ele>
        <time>2020-07-03T06:54:16Z</time>
      </trkpt>
      <trkpt lat="47.67316" lon="1.52797">
        <ele>76.9</ele>
        <time>2020-07-03T06:54:17Z</time>
      </trkpt>
      <trkpt lat="47.67311" lon="1.52802">
        <ele>77.2</ele>
        <time>2020-07-03T06:54:18Z</time>
      </trkpt>
      <trkpt lat="47.67307" lon="1.52807">
        <ele>77.6</ele>
        <time>2020-07-03T06:54:19Z</time>
      </trkpt>
      <trkpt lat="47.67303" lon="1.52812">
        <ele>78</ele>
        <time>2020-07-03T06:54:20Z</time>
      </trkpt>
      <trkpt lat="47.67299" lon="1.52816">
        <ele>78.4</ele>
        <time>2020-07-03T06:54:21Z</time>
      </trkpt>
      <trkpt lat="47.67295" lon="1.52819">
        <ele>78.8</ele>
        <time>2020-07-03T06:54:22Z</time>
      </trkpt>
      <trkpt lat="47.67292" lon="1.52823">
        <ele>79.2</ele>
        <time>2020-07-03T06:54:23Z</time>
      </trkpt>
      <trkpt lat="47.67289" lon="1.52828">
        <ele>79.6</ele>
        <time>2020-07-03T06:54:24Z</time>
      </trkpt>
      <trkpt lat="47.67286" lon="1.52831">
        <ele>79.9</ele>
        <time>2020-07-03T06:54:25Z</time>
      </trkpt>
      <trkpt lat="47.67283" lon="1.52833">
        <ele>80.2</ele>
        <time>2020-07-03T06:54:26Z</time>
      </trkpt>
      <trkpt lat="47.67281" lon="1.52836">
        <ele>80.5</ele>
        <time>2020-07-03T06:54:27Z</time>
      </trkpt>
      <trkpt lat="47.67279" lon="1.52839">
        <ele>80.8</ele>
        <time>2020-07-03T06:54:28Z</time>
      </trkpt>
      <trkpt lat="47.67276" lon="1.52842">
        <ele>81.1</ele>
        <time>2020-07-03T06:54:29Z</time>
      </trkpt>
      <trkpt lat="47.67275" lon="1.52843">
        <ele>81.3</ele>
        <time>2020-07-03T06:54:30Z</time>
      </trkpt>
      <trkpt lat="47.67272" lon="1.52844">
        <ele>81.5</ele>
        <time>2020-07-03T06:54:31Z</time>
      </trkpt>
      <trkpt lat="47.67271" lon="1.52844">
        <ele>81.6</ele>
        <time>2020-07-03T06:54:32Z</time>
      </trkpt>
      <trkpt lat="47.67268" lon="1.52847">
        <ele>81.9</ele>
        <time>2020-07-03T06:54:33Z</time>
      </trkpt>
      <trkpt lat="47.67267" lon="1.52849">
        <ele>82</ele>
        <time>2020-07-03T06:54:34Z</time>
      </trkpt>
      <trkpt lat="47.67267" lon="1.52852">
        <ele>82.2</ele>
        <time>2020-07-03T06:54:35Z</time>
      </trkpt>
      <trkpt lat="47.67266" lon="1.52854">
        <ele>82.2</ele>
        <time>2020-07-03T06:54:36Z</time>
      </trkpt>
      <trkpt lat="47.67266" lon="1.52855">
        <ele>82.2</ele>
        <time>2020-07-03T06:54:37Z</time>
      </trkpt>
      <trkpt lat="47.67265" lon="1.52857">
        <ele>82.2</ele>
        <time>2020-07-03T06:54:38Z</time>
      </trkpt>
      <trkpt lat="47.67264" lon="1.52858">
        <ele>82.2</ele>
        <time>2020-07-03T06:54:39Z</time>
      </trkpt>
      <trkpt lat="47.67264" lon="1.52858">
        <ele>82.2</ele>
        <time>2020-07-03T06:54:40Z</time>
      </trkpt>
      <trkpt lat="47.67263" lon="1.52859">
        <ele>82.2</ele>
        <time>2020-07-03T06:54:41Z</time>
      </trkpt>
      <trkpt lat="47.67263" lon="1.5286">
        <ele>82.2</ele>
        <time>2020-07-03T06:54:42Z</time>
      </trkpt>
      <trkpt lat="47.67263" lon="1.52861">
        <ele>82.3</ele>
        <time>2020-07-03T06:54:43Z</time>
      </trkpt>
      <trkpt lat="47.67261" lon="1.52861">
        <ele>82.3</ele>
        <time>2020-07-03T06:54:44Z</time>
      </trkpt>
      <trkpt lat="47.67259" lon="1.52862">
        <ele>82.3</ele>
        <time>2020-07-03T06:54:45Z</time>
      </trkpt>
      <trkpt lat="47.67255" lon="1.52864">
        <ele>82.4</ele>
        <time>2020-07-03T06:54:46Z</time>
      </trkpt>
      <trkpt lat="47.67252" lon="1.52866">
        <ele>82.4</ele>
        <time>2020-07-03T06:54:47Z</time>
      </trkpt>
      <trkpt lat="47.67248" lon="1.52869">
        <ele>82.5</ele>
        <time>2020-07-03T06:54:48Z</time>
      </trkpt>
      <trkpt lat="47.67245" lon="1.52873">
        <ele>82.5</ele>
        <time>2020-07-03T06:54:49Z</time>
      </trkpt>
      <trkpt lat="47.67241" lon="1.52875">
        <ele>82.6</ele>
        <time>2020-07-03T06:54:50Z</time>
      </trkpt>
      <trkpt lat="47.67238" lon="1.52878">
        <ele>82.6</ele>
        <time>2020-07-03T06:54:51Z</time>
      </trkpt>
      <trkpt lat="47.67234" lon="1.52882">
        <ele>82.7</ele>
        <time>2020-07-03T06:54:52Z</time>
      </trkpt>
      <trkpt lat="47.6723" lon="1.52887">
        <ele>82.8</ele>
        <time>2020-07-03T06:54:53Z</time>
      </trkpt>
      <trkpt lat="47.67226" lon="1.52891">
        <ele>82.8</ele>
        <time>2020-07-03T06:54:54Z</time>
      </trkpt>
      <trkpt lat="47.67222" lon="1.52894">
        <ele>82.9</ele>
        <time>2020-07-03T06:54:55Z</time>
      </trkpt>
      <trkpt lat="47.67217" lon="1.52898">
        <ele>83</ele>
        <time>2020-07-03T06:54:56Z</time>
      </trkpt>
      <trkpt lat="47.67214" lon="1.52902">
        <ele>83.1</ele>
        <time>2020-07-03T06:54:57Z</time>
      </trkpt>
      <trkpt lat="47.67209" lon="1.52905">
        <ele>83.2</ele>
        <time>2020-07-03T06:54:58Z</time>
      </trkpt>
      <trkpt lat="47.67206" lon="1.52909">
        <ele>83.3</ele>
        <time>2020-07-03T06:54:59Z</time>
      </trkpt>
      <trkpt lat="47.67202" lon="1.52912">
        <ele>83.3</ele>
        <time>2020-07-03T06:55:00Z</time>
      </trkpt>
      <trkpt lat="47.67197" lon="1.52916">
        <ele>83.4</ele>
        <time>2020-07-03T06:55:01Z</time>
      </trkpt>
      <trkpt lat="47.67193" lon="1.5292">
        <ele>83.4</ele>
        <time>2020-07-03T06:55:02Z</time>
      </trkpt>
      <trkpt lat="47.67188" lon="1.52924">
        <ele>83.5</ele>
        <time>2020-07-03T06:55:03Z</time>
      </trkpt>
      <trkpt lat="47.67183" lon="1.52928">
        <ele>83.5</ele>
        <time>2020-07-03T06:55:04Z</time>
      </trkpt>
      <trkpt lat="47.67178" lon="1.52932">
        <ele>83.6</ele>
        <time>2020-07-03T06:55:05Z</time>
      </trkpt>
      <trkpt lat="47.67174" lon="1.52937">
        <ele>83.6</ele>
        <time>2020-07-03T06:55:06Z</time>
      </trkpt>
      <trkpt lat="47.67169" lon="1.52941">
        <ele>83.7</ele>
        <time>2020-07-03T06:55:07Z</time>
      </trkpt>
      <trkpt lat="47.67163" lon="1.52945">
        <ele>83.8</ele>
        <time>2020-07-03T06:55:08Z</time>
      </trkpt>
      <trkpt lat="47.67158" lon="1.5295">
        <ele>83.9</ele>
        <time>2020-07-03T06:55:09Z</time>
      </trkpt>
      <trkpt lat="47.67152" lon="1.52954">
        <ele>84</ele>
        <time>2020-07-03T06:55:10Z</time>
      </trkpt>
      <trkpt lat="47.67148" lon="1.5296">
        <ele>84.2</ele>
        <time>2020-07-03T06:55:11Z</time>
      </trkpt>
      <trkpt lat="47.67143" lon="1.52964">
        <ele>84.3</ele>
        <time>2020-07-03T06:55:12Z</time>
      </trkpt>
      <trkpt lat="47.67138" lon="1.52968">
        <ele>84.4</ele>
        <time>2020-07-03T06:55:13Z</time>
      </trkpt>
      <trkpt lat="47.67134" lon="1.52971">
        <ele>84.5</ele>
        <time>2020-07-03T06:55:14Z</time>
      </trkpt>
      <trkpt lat="47.6713" lon="1.52974">
        <ele>84.6</ele>
        <time>2020-07-03T06:55:15Z</time>
      </trkpt>
      <trkpt lat="47.67126" lon="1.52978">
        <ele>84.6</ele>
        <time>2020-07-03T06:55:16Z</time>
      </trkpt>
      <trkpt lat="47.67122" lon="1.52981">
        <ele>84.7</ele>
        <time>2020-07-03T06:55:17Z</time>
      </trkpt>
      <trkpt lat="47.67119" lon="1.52985">
        <ele>84.8</ele>
        <time>2020-07-03T06:55:18Z</time>
      </trkpt>
      <trkpt lat="47.67115" lon="1.52987">
        <ele>84.9</ele>
        <time>2020-07-03T06:55:19Z</time>
      </trkpt>
      <trkpt lat="47.67112" lon="1.52989">
        <ele>85</ele>
        <time>2020-07-03T06:55:20Z</time>
      </trkpt>
      <trkpt lat="47.67109" lon="1.52992">
        <ele>85</ele>
        <time>2020-07-03T06:55:21Z</time>
      </trkpt>
      <trkpt lat="47.67105" lon="1.52994">
        <ele>85.1</ele>
        <time>2020-07-03T06:55:22Z</time>
      </trkpt>
      <trkpt lat="47.67102" lon="1.52997">
        <ele>85.2</ele>
        <time>2020-07-03T06:55:23Z</time>
      </trkpt>
      <trkpt lat="47.67099" lon="1.53">
        <ele>85.2</ele>
        <time>2020-07-03T06:55:24Z</time>
      </trkpt>
      <trkpt lat="47.67095" lon="1.53003">
        <ele>85.3</ele>
        <time>2020-07-03T06:55:25Z</time>
      </trkpt>
      <trkpt lat="47.67091" lon="1.53006">
        <ele>85.3</ele>
        <time>2020-07-03T06:55:26Z</time>
      </trkpt>
      <trkpt lat="47.67088" lon="1.53009">
        <ele>85.4</ele>
        <time>2020-07-03T06:55:27Z</time>
      </trkpt>
      <trkpt lat="47.67084" lon="1.53012">
        <ele>85.4</ele>
        <time>2020-07-03T06:55:28Z</time>
      </trkpt>
      <trkpt lat="47.67081" lon="1.53013">
        <ele>85.4</ele>
        <time>2020-07-03T06:55:29Z</time>
      </trkpt>
      <trkpt lat="47.67077" lon="1.53016">
        <ele>85.5</ele>
        <time>2020-07-03T06:55:30Z</time>
      </trkpt>
      <trkpt lat="47.67073" lon="1.53019">
        <ele>85.6</ele>
        <time>2020-07-03T06:55:31Z</time>
      </trkpt>
      <trkpt lat="47.67069" lon="1.53022">
        <ele>85.6</ele>
        <time>2020-07-03T06:55:32Z</time>
      </trkpt>
      <trkpt lat="47.67063" lon="1.53024">
        <ele>85.7</ele>
        <time>2020-07-03T06:55:33Z</time>
      </trkpt>
      <trkpt lat="47.6706" lon="1.53027">
        <ele>85.8</ele>
        <time>2020-07-03T06:55:34Z</time>
      </trkpt>
      <trkpt lat="47.67056" lon="1.5303">
        <ele>85.9</ele>
        <time>2020-07-03T06:55:35Z</time>
      </trkpt>
      <trkpt lat="47.67052" lon="1.53032">
        <ele>86</ele>
        <time>2020-07-03T06:55:36Z</time>
      </trkpt>
      <trkpt lat="47.67047" lon="1.53035">
        <ele>86.2</ele>
        <time>2020-07-03T06:55:37Z</time>
      </trkpt>
      <trkpt lat="47.67043" lon="1.53039">
        <ele>86.3</ele>
        <time>2020-07-03T06:55:38Z</time>
      </trkpt>
      <trkpt lat="47.6704" lon="1.53044">
        <ele>86.4</ele>
        <time>2020-07-03T06:55:39Z</time>
      </trkpt>
      <trkpt lat="47.67036" lon="1.53047">
        <ele>86.5</ele>
        <time>2020-07-03T06:55:40Z</time>
      </trkpt>
      <trkpt lat="47.67032" lon="1.5305">
        <ele>86.7</ele>
        <time>2020-07-03T06:55:41Z</time>
      </trkpt>
      <trkpt lat="47.67028" lon="1.53054">
        <ele>86.8</ele>
        <time>2020-07-03T06:55:42Z</time>
      </trkpt>
      <trkpt lat="47.67025" lon="1.53058">
        <ele>86.9</ele>
        <time>2020-07-03T06:55:43Z</time>
      </trkpt>
      <trkpt lat="47.67021" lon="1.53061">
        <ele>87.1</ele>
        <time>2020-07-03T06:55:44Z</time>
      </trkpt>
      <trkpt lat="47.67017" lon="1.53065">
        <ele>87.2</ele>
        <time>2020-07-03T06:55:45Z</time>
      </trkpt>
      <trkpt lat="47.67014" lon="1.53069">
        <ele>87.3</ele>
        <time>2020-07-03T06:55:46Z</time>
      </trkpt>
      <trkpt lat="47.67008" lon="1.53066">
        <ele>87.5</ele>
        <time>2020-07-03T06:55:47Z</time>
      </trkpt>
      <trkpt lat="47.67004" lon="1.53066">
        <ele>87.6</ele>
        <time>2020-07-03T06:55:48Z</time>
      </trkpt>
      <trkpt lat="47.67" lon="1.53062">
        <ele>87.5</ele>
        <time>2020-07-03T06:55:49Z</time>
      </trkpt>
      <trkpt lat="47.66997" lon="1.53057">
        <ele>87.5</ele>
        <time>2020-07-03T06:55:50Z</time>
      </trkpt>
      <trkpt lat="47.66994" lon="1.5305">
        <ele>87.4</ele>
        <time>2020-07-03T06:55:51Z</time>
      </trkpt>
      <trkpt lat="47.66991" lon="1.53044">
        <ele>87.3</ele>
        <time>2020-07-03T06:55:52Z</time>
      </trkpt>
      <trkpt lat="47.66988" lon="1.53038">
        <ele>87.3</ele>
        <time>2020-07-03T06:55:53Z</time>
      </trkpt>
      <trkpt lat="47.66985" lon="1.53031">
        <ele>87.2</ele>
        <time>2020-07-03T06:55:54Z</time>
      </trkpt>
      <trkpt lat="47.66982" lon="1.53024">
        <ele>87.1</ele>
        <time>2020-07-03T06:55:55Z</time>
      </trkpt>
      <trkpt lat="47.66979" lon="1.53017">
        <ele>87</ele>
        <time>2020-07-03T06:55:56Z</time>
      </trkpt>
      <trkpt lat="47.66975" lon="1.5301">
        <ele>86.9</ele>
        <time>2020-07-03T06:55:57Z</time>
      </trkpt>
      <trkpt lat="47.66972" lon="1.53003">
        <ele>86.8</ele>
        <time>2020-07-03T06:55:58Z</time>
      </trkpt>
      <trkpt lat="47.66969" lon="1.52996">
        <ele>86.7</ele>
        <time>2020-07-03T06:55:59Z</time>
      </trkpt>
      <trkpt lat="47.66966" lon="1.52989">
        <ele>86.6</ele>
        <time>2020-07-03T06:56:00Z</time>
      </trkpt>
      <trkpt lat="47.66963" lon="1.52982">
        <ele>86.5</ele>
        <time>2020-07-03T06:56:01Z</time>
      </trkpt>
      <trkpt lat="47.6696" lon="1.52974">
        <ele>86.4</ele>
        <time>2020-07-03T06:56:02Z</time>
      </trkpt>
      <trkpt lat="47.66957" lon="1.52966">
        <ele>86.2</ele>
        <time>2020-07-03T06:56:03Z</time>
      </trkpt>
      <trkpt lat="47.66953" lon="1.52958">
        <ele>86.1</ele>
        <time>2020-07-03T06:56:04Z</time>
      </trkpt>
      <trkpt lat="47.6695" lon="1.52951">
        <ele>86</ele>
        <time>2020-07-03T06:56:05Z</time>
      </trkpt>
      <trkpt lat="47.66947" lon="1.52943">
        <ele>85.9</ele>
        <time>2020-07-03T06:56:06Z</time>
      </trkpt>
      <trkpt lat="47.66944" lon="1.52936">
        <ele>85.8</ele>
        <time>2020-07-03T06:56:07Z</time>
      </trkpt>
      <trkpt lat="47.6694" lon="1.52929">
        <ele>85.7</ele>
        <time>2020-07-03T06:56:08Z</time>
      </trkpt>
      <trkpt lat="47.66936" lon="1.52922">
        <ele>85.6</ele>
        <time>2020-07-03T06:56:09Z</time>
      </trkpt>
      <trkpt lat="47.66932" lon="1.52915">
        <ele>85.4</ele>
        <time>2020-07-03T06:56:10Z</time>
      </trkpt>
      <trkpt lat="47.66929" lon="1.52906">
        <ele>85.2</ele>
        <time>2020-07-03T06:56:11Z</time>
      </trkpt>
      <trkpt lat="47.66927" lon="1.52899">
        <ele>85.1</ele>
        <time>2020-07-03T06:56:12Z</time>
      </trkpt>
      <trkpt lat="47.66923" lon="1.52892">
        <ele>85</ele>
        <time>2020-07-03T06:56:13Z</time>
      </trkpt>
      <trkpt lat="47.66919" lon="1.52884">
        <ele>84.9</ele>
        <time>2020-07-03T06:56:14Z</time>
      </trkpt>
      <trkpt lat="47.66914" lon="1.52877">
        <ele>84.8</ele>
        <time>2020-07-03T06:56:15Z</time>
      </trkpt>
      <trkpt lat="47.66909" lon="1.52871">
        <ele>84.6</ele>
        <time>2020-07-03T06:56:16Z</time>
      </trkpt>
      <trkpt lat="47.66905" lon="1.52862">
        <ele>84.4</ele>
        <time>2020-07-03T06:56:17Z</time>
      </trkpt>
      <trkpt lat="47.669" lon="1.52854">
        <ele>84.1</ele>
        <time>2020-07-03T06:56:18Z</time>
      </trkpt>
      <trkpt lat="47.66896" lon="1.52845">
        <ele>83.9</ele>
        <time>2020-07-03T06:56:19Z</time>
      </trkpt>
      <trkpt lat="47.66891" lon="1.52836">
        <ele>83.6</ele>
        <time>2020-07-03T06:56:20Z</time>
      </trkpt>
      <trkpt lat="47.66888" lon="1.52826">
        <ele>83.3</ele>
        <time>2020-07-03T06:56:21Z</time>
      </trkpt>
      <trkpt lat="47.66884" lon="1.52818">
        <ele>83.1</ele>
        <time>2020-07-03T06:56:22Z</time>
      </trkpt>
      <trkpt lat="47.6688" lon="1.52809">
        <ele>82.7</ele>
        <time>2020-07-03T06:56:23Z</time>
      </trkpt>
      <trkpt lat="47.66875" lon="1.528">
        <ele>82.4</ele>
        <time>2020-07-03T06:56:24Z</time>
      </trkpt>
      <trkpt lat="47.66871" lon="1.52791">
        <ele>82</ele>
        <time>2020-07-03T06:56:25Z</time>
      </trkpt>
      <trkpt lat="47.66867" lon="1.52781">
        <ele>81.6</ele>
        <time>2020-07-03T06:56:26Z</time>
      </trkpt>
      <trkpt lat="47.66863" lon="1.52771">
        <ele>81.1</ele>
        <time>2020-07-03T06:56:27Z</time>
      </trkpt>
      <trkpt lat="47.66859" lon="1.52761">
        <ele>80.8</ele>
        <time>2020-07-03T06:56:28Z</time>
      </trkpt>
      <trkpt lat="47.66854" lon="1.52751">
        <ele>80.5</ele>
        <time>2020-07-03T06:56:29Z</time>
      </trkpt>
      <trkpt lat="47.6685" lon="1.5274">
        <ele>80.2</ele>
        <time>2020-07-03T06:56:30Z</time>
      </trkpt>
      <trkpt lat="47.66846" lon="1.52729">
        <ele>79.8</ele>
        <time>2020-07-03T06:56:31Z</time>
      </trkpt>
      <trkpt lat="47.66841" lon="1.52719">
        <ele>79.6</ele>
        <time>2020-07-03T06:56:32Z</time>
      </trkpt>
      <trkpt lat="47.66837" lon="1.5271">
        <ele>79.4</ele>
        <time>2020-07-03T06:56:33Z</time>
      </trkpt>
      <trkpt lat="47.66833" lon="1.52699">
        <ele>79.3</ele>
        <time>2020-07-03T06:56:34Z</time>
      </trkpt>
      <trkpt lat="47.66827" lon="1.5269">
        <ele>79.1</ele>
        <time>2020-07-03T06:56:35Z</time>
      </trkpt>
      <trkpt lat="47.66823" lon="1.5268">
        <ele>79</ele>
        <time>2020-07-03T06:56:36Z</time>
      </trkpt>
      <trkpt lat="47.66818" lon="1.5267">
        <ele>78.8</ele>
        <time>2020-07-03T06:56:37Z</time>
      </trkpt>
      <trkpt lat="47.66813" lon="1.52661">
        <ele>78.7</ele>
        <time>2020-07-03T06:56:38Z</time>
      </trkpt>
      <trkpt lat="47.66808" lon="1.52652">
        <ele>78.6</ele>
        <time>2020-07-03T06:56:39Z</time>
      </trkpt>
      <trkpt lat="47.66803" lon="1.52643">
        <ele>78.6</ele>
        <time>2020-07-03T06:56:40Z</time>
      </trkpt>
      <trkpt lat="47.66797" lon="1.52635">
        <ele>78.6</ele>
        <time>2020-07-03T06:56:41Z</time>
      </trkpt>
      <trkpt lat="47.66793" lon="1.52626">
        <ele>78.8</ele>
        <time>2020-07-03T06:56:42Z</time>
      </trkpt>
      <trkpt lat="47.66788" lon="1.52617">
        <ele>78.9</ele>
        <time>2020-07-03T06:56:43Z</time>
      </trkpt>
      <trkpt lat="47.66784" lon="1.52607">
        <ele>79.1</ele>
        <time>2020-07-03T06:56:44Z</time>
      </trkpt>
      <trkpt lat="47.66781" lon="1.52598">
        <ele>79.2</ele>
        <time>2020-07-03T06:56:45Z</time>
      </trkpt>
      <trkpt lat="47.66778" lon="1.52588">
        <ele>79.3</ele>
        <time>2020-07-03T06:56:46Z</time>
      </trkpt>
      <trkpt lat="47.66774" lon="1.5258">
        <ele>79.5</ele>
        <time>2020-07-03T06:56:47Z</time>
      </trkpt>
      <trkpt lat="47.66771" lon="1.52571">
        <ele>79.6</ele>
        <time>2020-07-03T06:56:48Z</time>
      </trkpt>
      <trkpt lat="47.66768" lon="1.52562">
        <ele>79.5</ele>
        <time>2020-07-03T06:56:49Z</time>
      </trkpt>
      <trkpt lat="47.66765" lon="1.52553">
        <ele>79.6</ele>
        <time>2020-07-03T06:56:50Z</time>
      </trkpt>
      <trkpt lat="47.66761" lon="1.52545">
        <ele>79.6</ele>
        <time>2020-07-03T06:56:51Z</time>
      </trkpt>
      <trkpt lat="47.66758" lon="1.52536">
        <ele>79.7</ele>
        <time>2020-07-03T06:56:52Z</time>
      </trkpt>
      <trkpt lat="47.66755" lon="1.52528">
        <ele>79.7</ele>
        <time>2020-07-03T06:56:53Z</time>
      </trkpt>
      <trkpt lat="47.66751" lon="1.5252">
        <ele>79.8</ele>
        <time>2020-07-03T06:56:54Z</time>
      </trkpt>
      <trkpt lat="47.66746" lon="1.52513">
        <ele>79.9</ele>
        <time>2020-07-03T06:56:55Z</time>
      </trkpt>
      <trkpt lat="47.66742" lon="1.52506">
        <ele>80</ele>
        <time>2020-07-03T06:56:56Z</time>
      </trkpt>
      <trkpt lat="47.66738" lon="1.52499">
        <ele>80.1</ele>
        <time>2020-07-03T06:56:57Z</time>
      </trkpt>
      <trkpt lat="47.66733" lon="1.52493">
        <ele>80.2</ele>
        <time>2020-07-03T06:56:58Z</time>
      </trkpt>
      <trkpt lat="47.66729" lon="1.52487">
        <ele>80.3</ele>
        <time>2020-07-03T06:56:59Z</time>
      </trkpt>
      <trkpt lat="47.66724" lon="1.52481">
        <ele>80.4</ele>
        <time>2020-07-03T06:57:00Z</time>
      </trkpt>
      <trkpt lat="47.6672" lon="1.52476">
        <ele>80.4</ele>
        <time>2020-07-03T06:57:01Z</time>
      </trkpt>
      <trkpt lat="47.66716" lon="1.5247">
        <ele>80.5</ele>
        <time>2020-07-03T06:57:02Z</time>
      </trkpt>
      <trkpt lat="47.66711" lon="1.52465">
        <ele>80.5</ele>
        <time>2020-07-03T06:57:03Z</time>
      </trkpt>
      <trkpt lat="47.66707" lon="1.52459">
        <ele>80.6</ele>
        <time>2020-07-03T06:57:04Z</time>
      </trkpt>
      <trkpt lat="47.66703" lon="1.52452">
        <ele>80.6</ele>
        <time>2020-07-03T06:57:05Z</time>
      </trkpt>
      <trkpt lat="47.66699" lon="1.52447">
        <ele>80.7</ele>
        <time>2020-07-03T06:57:06Z</time>
      </trkpt>
      <trkpt lat="47.66695" lon="1.5244">
        <ele>80.8</ele>
        <time>2020-07-03T06:57:07Z</time>
      </trkpt>
      <trkpt lat="47.66692" lon="1.52434">
        <ele>80.8</ele>
        <time>2020-07-03T06:57:08Z</time>
      </trkpt>
      <trkpt lat="47.66688" lon="1.52428">
        <ele>80.9</ele>
        <time>2020-07-03T06:57:09Z</time>
      </trkpt>
      <trkpt lat="47.66685" lon="1.52421">
        <ele>81</ele>
        <time>2020-07-03T06:57:10Z</time>
      </trkpt>
      <trkpt lat="47.66682" lon="1.52415">
        <ele>81</ele>
        <time>2020-07-03T06:57:11Z</time>
      </trkpt>
      <trkpt lat="47.66678" lon="1.52409">
        <ele>81.2</ele>
        <time>2020-07-03T06:57:12Z</time>
      </trkpt>
      <trkpt lat="47.66675" lon="1.52404">
        <ele>81.3</ele>
        <time>2020-07-03T06:57:13Z</time>
      </trkpt>
      <trkpt lat="47.66671" lon="1.52399">
        <ele>81.5</ele>
        <time>2020-07-03T06:57:14Z</time>
      </trkpt>
      <trkpt lat="47.66668" lon="1.52394">
        <ele>81.7</ele>
        <time>2020-07-03T06:57:15Z</time>
      </trkpt>
      <trkpt lat="47.66665" lon="1.52388">
        <ele>81.8</ele>
        <time>2020-07-03T06:57:16Z</time>
      </trkpt>
      <trkpt lat="47.66662" lon="1.52383">
        <ele>82</ele>
        <time>2020-07-03T06:57:17Z</time>
      </trkpt>
      <trkpt lat="47.66658" lon="1.52378">
        <ele>82.1</ele>
        <time>2020-07-03T06:57:18Z</time>
      </trkpt>
      <trkpt lat="47.66655" lon="1.52373">
        <ele>82.3</ele>
        <time>2020-07-03T06:57:19Z</time>
      </trkpt>
      <trkpt lat="47.66652" lon="1.52367">
        <ele>82.5</ele>
        <time>2020-07-03T06:57:20Z</time>
      </trkpt>
      <trkpt lat="47.66649" lon="1.52361">
        <ele>82.7</ele>
        <time>2020-07-03T06:57:21Z</time>
      </trkpt>
      <trkpt lat="47.66645" lon="1.52356">
        <ele>82.9</ele>
        <time>2020-07-03T06:57:22Z</time>
      </trkpt>
      <trkpt lat="47.66642" lon="1.52351">
        <ele>83.1</ele>
        <time>2020-07-03T06:57:23Z</time>
      </trkpt>
      <trkpt lat="47.66638" lon="1.52346">
        <ele>83.3</ele>
        <time>2020-07-03T06:57:24Z</time>
      </trkpt>
      <trkpt lat="47.66635" lon="1.52341">
        <ele>83.4</ele>
        <time>2020-07-03T06:57:25Z</time>
      </trkpt>
      <trkpt lat="47.66632" lon="1.52336">
        <ele>83.5</ele>
        <time>2020-07-03T06:57:26Z</time>
      </trkpt>
      <trkpt lat="47.66629" lon="1.5233">
        <ele>83.6</ele>
        <time>2020-07-03T06:57:27Z</time>
      </trkpt>
      <trkpt lat="47.66625" lon="1.52325">
        <ele>83.7</ele>
        <time>2020-07-03T06:57:28Z</time>
      </trkpt>
      <trkpt lat="47.66622" lon="1.52319">
        <ele>83.8</ele>
        <time>2020-07-03T06:57:29Z</time>
      </trkpt>
      <trkpt lat="47.66619" lon="1.52314">
        <ele>83.9</ele>
        <time>2020-07-03T06:57:30Z</time>
      </trkpt>
      <trkpt lat="47.66616" lon="1.52308">
        <ele>84</ele>
        <time>2020-07-03T06:57:31Z</time>
      </trkpt>
      <trkpt lat="47.66612" lon="1.52302">
        <ele>84.2</ele>
        <time>2020-07-03T06:57:32Z</time>
      </trkpt>
      <trkpt lat="47.66609" lon="1.52296">
        <ele>84.3</ele>
        <time>2020-07-03T06:57:33Z</time>
      </trkpt>
      <trkpt lat="47.66605" lon="1.52291">
        <ele>84.4</ele>
        <time>2020-07-03T06:57:34Z</time>
      </trkpt>
      <trkpt lat="47.66603" lon="1.52284">
        <ele>84.5</ele>
        <time>2020-07-03T06:57:35Z</time>
      </trkpt>
      <trkpt lat="47.666" lon="1.52278">
        <ele>84.6</ele>
        <time>2020-07-03T06:57:36Z</time>
      </trkpt>
      <trkpt lat="47.66596" lon="1.52272">
        <ele>84.6</ele>
        <time>2020-07-03T06:57:37Z</time>
      </trkpt>
      <trkpt lat="47.66594" lon="1.52265">
        <ele>84.7</ele>
        <time>2020-07-03T06:57:38Z</time>
      </trkpt>
      <trkpt lat="47.66591" lon="1.52259">
        <ele>84.8</ele>
        <time>2020-07-03T06:57:39Z</time>
      </trkpt>
      <trkpt lat="47.66588" lon="1.52253">
        <ele>84.8</ele>
        <time>2020-07-03T06:57:40Z</time>
      </trkpt>
      <trkpt lat="47.66584" lon="1.52247">
        <ele>84.9</ele>
        <time>2020-07-03T06:57:41Z</time>
      </trkpt>
      <trkpt lat="47.66581" lon="1.52242">
        <ele>84.9</ele>
        <time>2020-07-03T06:57:42Z</time>
      </trkpt>
      <trkpt lat="47.66577" lon="1.52235">
        <ele>85</ele>
        <time>2020-07-03T06:57:43Z</time>
      </trkpt>
      <trkpt lat="47.66573" lon="1.5223">
        <ele>85</ele>
        <time>2020-07-03T06:57:44Z</time>
      </trkpt>
      <trkpt lat="47.66569" lon="1.52224">
        <ele>85.1</ele>
        <time>2020-07-03T06:57:45Z</time>
      </trkpt>
      <trkpt lat="47.66566" lon="1.52218">
        <ele>85.2</ele>
        <time>2020-07-03T06:57:46Z</time>
      </trkpt>
      <trkpt lat="47.66564" lon="1.52212">
        <ele>85.3</ele>
        <time>2020-07-03T06:57:47Z</time>
      </trkpt>
      <trkpt lat="47.6656" lon="1.52205">
        <ele>85.3</ele>
        <time>2020-07-03T06:57:48Z</time>
      </trkpt>
      <trkpt lat="47.66557" lon="1.52199">
        <ele>85.4</ele>
        <time>2020-07-03T06:57:49Z</time>
      </trkpt>
      <trkpt lat="47.66554" lon="1.52193">
        <ele>85.5</ele>
        <time>2020-07-03T06:57:50Z</time>
      </trkpt>
      <trkpt lat="47.66551" lon="1.52185">
        <ele>85.6</ele>
        <time>2020-07-03T06:57:51Z</time>
      </trkpt>
      <trkpt lat="47.66547" lon="1.52179">
        <ele>85.6</ele>
        <time>2020-07-03T06:57:52Z</time>
      </trkpt>
      <trkpt lat="47.66544" lon="1.52172">
        <ele>85.7</ele>
        <time>2020-07-03T06:57:53Z</time>
      </trkpt>
      <trkpt lat="47.66541" lon="1.52164">
        <ele>85.9</ele>
        <time>2020-07-03T06:57:54Z</time>
      </trkpt>
      <trkpt lat="47.66537" lon="1.52157">
        <ele>86.1</ele>
        <time>2020-07-03T06:57:55Z</time>
      </trkpt>
      <trkpt lat="47.66534" lon="1.5215">
        <ele>86.2</ele>
        <time>2020-07-03T06:57:56Z</time>
      </trkpt>
      <trkpt lat="47.66531" lon="1.52143">
        <ele>86.3</ele>
        <time>2020-07-03T06:57:57Z</time>
      </trkpt>
      <trkpt lat="47.66528" lon="1.52136">
        <ele>86.4</ele>
        <time>2020-07-03T06:57:58Z</time>
      </trkpt>
      <trkpt lat="47.66524" lon="1.52129">
        <ele>86.6</ele>
        <time>2020-07-03T06:57:59Z</time>
      </trkpt>
      <trkpt lat="47.66522" lon="1.52122">
        <ele>86.6</ele>
        <time>2020-07-03T06:58:00Z</time>
      </trkpt>
      <trkpt lat="47.66519" lon="1.52115">
        <ele>86.7</ele>
        <time>2020-07-03T06:58:01Z</time>
      </trkpt>
      <trkpt lat="47.66516" lon="1.52108">
        <ele>86.8</ele>
        <time>2020-07-03T06:58:02Z</time>
      </trkpt>
      <trkpt lat="47.66513" lon="1.521">
        <ele>86.9</ele>
        <time>2020-07-03T06:58:03Z</time>
      </trkpt>
      <trkpt lat="47.6651" lon="1.52093">
        <ele>87</ele>
        <time>2020-07-03T06:58:04Z</time>
      </trkpt>
      <trkpt lat="47.66508" lon="1.52086">
        <ele>87.3</ele>
        <time>2020-07-03T06:58:05Z</time>
      </trkpt>
      <trkpt lat="47.66505" lon="1.52079">
        <ele>87.6</ele>
        <time>2020-07-03T06:58:06Z</time>
      </trkpt>
      <trkpt lat="47.66502" lon="1.52073">
        <ele>87.7</ele>
        <time>2020-07-03T06:58:07Z</time>
      </trkpt>
      <trkpt lat="47.66499" lon="1.52066">
        <ele>87.8</ele>
        <time>2020-07-03T06:58:08Z</time>
      </trkpt>
      <trkpt lat="47.66496" lon="1.52059">
        <ele>87.8</ele>
        <time>2020-07-03T06:58:09Z</time>
      </trkpt>
      <trkpt lat="47.66493" lon="1.52052">
        <ele>87.9</ele>
        <time>2020-07-03T06:58:10Z</time>
      </trkpt>
      <trkpt lat="47.6649" lon="1.52045">
        <ele>87.9</ele>
        <time>2020-07-03T06:58:11Z</time>
      </trkpt>
      <trkpt lat="47.66487" lon="1.52037">
        <ele>88</ele>
        <time>2020-07-03T06:58:12Z</time>
      </trkpt>
      <trkpt lat="47.66484" lon="1.52029">
        <ele>88.1</ele>
        <time>2020-07-03T06:58:13Z</time>
      </trkpt>
      <trkpt lat="47.66483" lon="1.5202">
        <ele>88.1</ele>
        <time>2020-07-03T06:58:14Z</time>
      </trkpt>
      <trkpt lat="47.6648" lon="1.52012">
        <ele>88.1</ele>
        <time>2020-07-03T06:58:15Z</time>
      </trkpt>
      <trkpt lat="47.66478" lon="1.52006">
        <ele>88.1</ele>
        <time>2020-07-03T06:58:16Z</time>
      </trkpt>
      <trkpt lat="47.66476" lon="1.51998">
        <ele>88.1</ele>
        <time>2020-07-03T06:58:17Z</time>
      </trkpt>
      <trkpt lat="47.66474" lon="1.51991">
        <ele>88.1</ele>
        <time>2020-07-03T06:58:18Z</time>
      </trkpt>
      <trkpt lat="47.6647" lon="1.51982">
        <ele>88.1</ele>
        <time>2020-07-03T06:58:19Z</time>
      </trkpt>
      <trkpt lat="47.66467" lon="1.51975">
        <ele>88.1</ele>
        <time>2020-07-03T06:58:20Z</time>
      </trkpt>
      <trkpt lat="47.66464" lon="1.51967">
        <ele>88.1</ele>
        <time>2020-07-03T06:58:21Z</time>
      </trkpt>
      <trkpt lat="47.66462" lon="1.51959">
        <ele>88.1</ele>
        <time>2020-07-03T06:58:22Z</time>
      </trkpt>
      <trkpt lat="47.66459" lon="1.51951">
        <ele>88.2</ele>
        <time>2020-07-03T06:58:23Z</time>
      </trkpt>
      <trkpt lat="47.66456" lon="1.51945">
        <ele>88.2</ele>
        <time>2020-07-03T06:58:24Z</time>
      </trkpt>
      <trkpt lat="47.66454" lon="1.51937">
        <ele>88.2</ele>
        <time>2020-07-03T06:58:25Z</time>
      </trkpt>
      <trkpt lat="47.66451" lon="1.5193">
        <ele>88.2</ele>
        <time>2020-07-03T06:58:26Z</time>
      </trkpt>
      <trkpt lat="47.66447" lon="1.51923">
        <ele>88.2</ele>
        <time>2020-07-03T06:58:27Z</time>
      </trkpt>
      <trkpt lat="47.66444" lon="1.51915">
        <ele>88.2</ele>
        <time>2020-07-03T06:58:28Z</time>
      </trkpt>
      <trkpt lat="47.66441" lon="1.51907">
        <ele>88.2</ele>
        <time>2020-07-03T06:58:29Z</time>
      </trkpt>
      <trkpt lat="47.66438" lon="1.51899">
        <ele>88.2</ele>
        <time>2020-07-03T06:58:30Z</time>
      </trkpt>
      <trkpt lat="47.66436" lon="1.51892">
        <ele>88.2</ele>
        <time>2020-07-03T06:58:31Z</time>
      </trkpt>
      <trkpt lat="47.66433" lon="1.51884">
        <ele>88.2</ele>
        <time>2020-07-03T06:58:32Z</time>
      </trkpt>
      <trkpt lat="47.66431" lon="1.51877">
        <ele>88.2</ele>
        <time>2020-07-03T06:58:33Z</time>
      </trkpt>
      <trkpt lat="47.66428" lon="1.51871">
        <ele>88.2</ele>
        <time>2020-07-03T06:58:34Z</time>
      </trkpt>
      <trkpt lat="47.66425" lon="1.51863">
        <ele>88.2</ele>
        <time>2020-07-03T06:58:35Z</time>
      </trkpt>
      <trkpt lat="47.66422" lon="1.51855">
        <ele>88.1</ele>
        <time>2020-07-03T06:58:36Z</time>
      </trkpt>
      <trkpt lat="47.6642" lon="1.51845">
        <ele>88.1</ele>
        <time>2020-07-03T06:58:37Z</time>
      </trkpt>
      <trkpt lat="47.66416" lon="1.51837">
        <ele>88.1</ele>
        <time>2020-07-03T06:58:38Z</time>
      </trkpt>
      <trkpt lat="47.66413" lon="1.51829">
        <ele>88.2</ele>
        <time>2020-07-03T06:58:39Z</time>
      </trkpt>
      <trkpt lat="47.6641" lon="1.51821">
        <ele>88.2</ele>
        <time>2020-07-03T06:58:40Z</time>
      </trkpt>
      <trkpt lat="47.66407" lon="1.51812">
        <ele>88.2</ele>
        <time>2020-07-03T06:58:41Z</time>
      </trkpt>
      <trkpt lat="47.66403" lon="1.51803">
        <ele>88.2</ele>
        <time>2020-07-03T06:58:42Z</time>
      </trkpt>
      <trkpt lat="47.664" lon="1.51797">
        <ele>88.2</ele>
        <time>2020-07-03T06:58:43Z</time>
      </trkpt>
      <trkpt lat="47.66397" lon="1.51789">
        <ele>88.2</ele>
        <time>2020-07-03T06:58:44Z</time>
      </trkpt>
      <trkpt lat="47.66394" lon="1.51781">
        <ele>88.1</ele>
        <time>2020-07-03T06:58:45Z</time>
      </trkpt>
      <trkpt lat="47.66391" lon="1.51772">
        <ele>88.1</ele>
        <time>2020-07-03T06:58:46Z</time>
      </trkpt>
      <trkpt lat="47.66388" lon="1.51764">
        <ele>88</ele>
        <time>2020-07-03T06:58:47Z</time>
      </trkpt>
      <trkpt lat="47.66384" lon="1.51756">
        <ele>88</ele>
        <time>2020-07-03T06:58:48Z</time>
      </trkpt>
      <trkpt lat="47.6638" lon="1.51749">
        <ele>88</ele>
        <time>2020-07-03T06:58:49Z</time>
      </trkpt>
      <trkpt lat="47.66377" lon="1.51742">
        <ele>87.9</ele>
        <time>2020-07-03T06:58:50Z</time>
      </trkpt>
      <trkpt lat="47.66374" lon="1.51734">
        <ele>87.9</ele>
        <time>2020-07-03T06:58:51Z</time>
      </trkpt>
      <trkpt lat="47.66371" lon="1.51726">
        <ele>87.9</ele>
        <time>2020-07-03T06:58:52Z</time>
      </trkpt>
      <trkpt lat="47.66368" lon="1.51719">
        <ele>87.9</ele>
        <time>2020-07-03T06:58:53Z</time>
      </trkpt>
      <trkpt lat="47.66365" lon="1.51712">
        <ele>87.8</ele>
        <time>2020-07-03T06:58:54Z</time>
      </trkpt>
      <trkpt lat="47.66362" lon="1.51705">
        <ele>87.8</ele>
        <time>2020-07-03T06:58:55Z</time>
      </trkpt>
      <trkpt lat="47.66359" lon="1.51697">
        <ele>87.9</ele>
        <time>2020-07-03T06:58:56Z</time>
      </trkpt>
      <trkpt lat="47.66355" lon="1.51688">
        <ele>87.9</ele>
        <time>2020-07-03T06:58:57Z</time>
      </trkpt>
      <trkpt lat="47.66354" lon="1.51683">
        <ele>87.8</ele>
        <time>2020-07-03T06:58:58Z</time>
      </trkpt>
      <trkpt lat="47.66355" lon="1.51677">
        <ele>87.8</ele>
        <time>2020-07-03T06:58:59Z</time>
      </trkpt>
      <trkpt lat="47.66353" lon="1.51672">
        <ele>87.8</ele>
        <time>2020-07-03T06:59:00Z</time>
      </trkpt>
      <trkpt lat="47.66352" lon="1.51665">
        <ele>87.7</ele>
        <time>2020-07-03T06:59:01Z</time>
      </trkpt>
      <trkpt lat="47.6635" lon="1.51657">
        <ele>87.7</ele>
        <time>2020-07-03T06:59:02Z</time>
      </trkpt>
      <trkpt lat="47.66348" lon="1.51648">
        <ele>87.7</ele>
        <time>2020-07-03T06:59:03Z</time>
      </trkpt>
      <trkpt lat="47.66346" lon="1.51639">
        <ele>87.6</ele>
        <time>2020-07-03T06:59:04Z</time>
      </trkpt>
      <trkpt lat="47.66344" lon="1.51632">
        <ele>87.6</ele>
        <time>2020-07-03T06:59:05Z</time>
      </trkpt>
      <trkpt lat="47.66342" lon="1.51624">
        <ele>87.6</ele>
        <time>2020-07-03T06:59:06Z</time>
      </trkpt>
      <trkpt lat="47.66339" lon="1.51614">
        <ele>87.6</ele>
        <time>2020-07-03T06:59:07Z</time>
      </trkpt>
      <trkpt lat="47.66336" lon="1.51605">
        <ele>87.6</ele>
        <time>2020-07-03T06:59:08Z</time>
      </trkpt>
      <trkpt lat="47.66334" lon="1.51597">
        <ele>87.6</ele>
        <time>2020-07-03T06:59:09Z</time>
      </trkpt>
      <trkpt lat="47.66332" lon="1.51588">
        <ele>87.6</ele>
        <time>2020-07-03T06:59:10Z</time>
      </trkpt>
      <trkpt lat="47.66328" lon="1.51581">
        <ele>87.5</ele>
        <time>2020-07-03T06:59:11Z</time>
      </trkpt>
      <trkpt lat="47.66325" lon="1.51573">
        <ele>87.5</ele>
        <time>2020-07-03T06:59:12Z</time>
      </trkpt>
      <trkpt lat="47.66322" lon="1.51563">
        <ele>87.4</ele>
        <time>2020-07-03T06:59:13Z</time>
      </trkpt>
      <trkpt lat="47.6632" lon="1.51555">
        <ele>87.4</ele>
        <time>2020-07-03T06:59:14Z</time>
      </trkpt>
      <trkpt lat="47.66317" lon="1.51546">
        <ele>87.4</ele>
        <time>2020-07-03T06:59:15Z</time>
      </trkpt>
      <trkpt lat="47.66315" lon="1.51539">
        <ele>87.3</ele>
        <time>2020-07-03T06:59:16Z</time>
      </trkpt>
      <trkpt lat="47.66311" lon="1.5153">
        <ele>87.3</ele>
        <time>2020-07-03T06:59:17Z</time>
      </trkpt>
      <trkpt lat="47.66308" lon="1.51522">
        <ele>87.3</ele>
        <time>2020-07-03T06:59:18Z</time>
      </trkpt>
      <trkpt lat="47.66304" lon="1.51515">
        <ele>87.3</ele>
        <time>2020-07-03T06:59:19Z</time>
      </trkpt>
      <trkpt lat="47.66302" lon="1.51508">
        <ele>87.2</ele>
        <time>2020-07-03T06:59:20Z</time>
      </trkpt>
      <trkpt lat="47.663" lon="1.51498">
        <ele>87.2</ele>
        <time>2020-07-03T06:59:21Z</time>
      </trkpt>
      <trkpt lat="47.66297" lon="1.51489">
        <ele>87.1</ele>
        <time>2020-07-03T06:59:22Z</time>
      </trkpt>
      <trkpt lat="47.66294" lon="1.51479">
        <ele>87.1</ele>
        <time>2020-07-03T06:59:23Z</time>
      </trkpt>
      <trkpt lat="47.66292" lon="1.51471">
        <ele>87</ele>
        <time>2020-07-03T06:59:24Z</time>
      </trkpt>
      <trkpt lat="47.66289" lon="1.51462">
        <ele>87</ele>
        <time>2020-07-03T06:59:25Z</time>
      </trkpt>
      <trkpt lat="47.66286" lon="1.51454">
        <ele>86.9</ele>
        <time>2020-07-03T06:59:26Z</time>
      </trkpt>
      <trkpt lat="47.66284" lon="1.51446">
        <ele>86.9</ele>
        <time>2020-07-03T06:59:27Z</time>
      </trkpt>
      <trkpt lat="47.66281" lon="1.51436">
        <ele>86.8</ele>
        <time>2020-07-03T06:59:28Z</time>
      </trkpt>
      <trkpt lat="47.66277" lon="1.51426">
        <ele>86.8</ele>
        <time>2020-07-03T06:59:29Z</time>
      </trkpt>
      <trkpt lat="47.66273" lon="1.51417">
        <ele>86.8</ele>
        <time>2020-07-03T06:59:30Z</time>
      </trkpt>
      <trkpt lat="47.6627" lon="1.51408">
        <ele>86.8</ele>
        <time>2020-07-03T06:59:31Z</time>
      </trkpt>
      <trkpt lat="47.66267" lon="1.51399">
        <ele>86.8</ele>
        <time>2020-07-03T06:59:32Z</time>
      </trkpt>
      <trkpt lat="47.66264" lon="1.51391">
        <ele>86.8</ele>
        <time>2020-07-03T06:59:33Z</time>
      </trkpt>
      <trkpt lat="47.66261" lon="1.51383">
        <ele>86.8</ele>
        <time>2020-07-03T06:59:34Z</time>
      </trkpt>
      <trkpt lat="47.66258" lon="1.51375">
        <ele>86.9</ele>
        <time>2020-07-03T06:59:35Z</time>
      </trkpt>
      <trkpt lat="47.66256" lon="1.51366">
        <ele>86.9</ele>
        <time>2020-07-03T06:59:36Z</time>
      </trkpt>
      <trkpt lat="47.66253" lon="1.51358">
        <ele>86.9</ele>
        <time>2020-07-03T06:59:37Z</time>
      </trkpt>
      <trkpt lat="47.66249" lon="1.5135">
        <ele>86.9</ele>
        <time>2020-07-03T06:59:38Z</time>
      </trkpt>
      <trkpt lat="47.66245" lon="1.51343">
        <ele>86.9</ele>
        <time>2020-07-03T06:59:39Z</time>
      </trkpt>
      <trkpt lat="47.66241" lon="1.51335">
        <ele>86.9</ele>
        <time>2020-07-03T06:59:40Z</time>
      </trkpt>
      <trkpt lat="47.66239" lon="1.51327">
        <ele>86.9</ele>
        <time>2020-07-03T06:59:41Z</time>
      </trkpt>
      <trkpt lat="47.66236" lon="1.5132">
        <ele>86.9</ele>
        <time>2020-07-03T06:59:42Z</time>
      </trkpt>
      <trkpt lat="47.66234" lon="1.51313">
        <ele>86.9</ele>
        <time>2020-07-03T06:59:43Z</time>
      </trkpt>
      <trkpt lat="47.66232" lon="1.51304">
        <ele>86.9</ele>
        <time>2020-07-03T06:59:44Z</time>
      </trkpt>
      <trkpt lat="47.66231" lon="1.51296">
        <ele>86.8</ele>
        <time>2020-07-03T06:59:45Z</time>
      </trkpt>
      <trkpt lat="47.66229" lon="1.51287">
        <ele>86.7</ele>
        <time>2020-07-03T06:59:46Z</time>
      </trkpt>
      <trkpt lat="47.66226" lon="1.51279">
        <ele>86.7</ele>
        <time>2020-07-03T06:59:47Z</time>
      </trkpt>
      <trkpt lat="47.66222" lon="1.51269">
        <ele>86.6</ele>
        <time>2020-07-03T06:59:48Z</time>
      </trkpt>
      <trkpt lat="47.6622" lon="1.51261">
        <ele>86.6</ele>
        <time>2020-07-03T06:59:49Z</time>
      </trkpt>
      <trkpt lat="47.66217" lon="1.51254">
        <ele>86.5</ele>
        <time>2020-07-03T06:59:50Z</time>
      </trkpt>
      <trkpt lat="47.66215" lon="1.51247">
        <ele>86.5</ele>
        <time>2020-07-03T06:59:51Z</time>
      </trkpt>
      <trkpt lat="47.66213" lon="1.5124">
        <ele>86.4</ele>
        <time>2020-07-03T06:59:52Z</time>
      </trkpt>
      <trkpt lat="47.66212" lon="1.51234">
        <ele>86.4</ele>
        <time>2020-07-03T06:59:53Z</time>
      </trkpt>
      <trkpt lat="47.6621" lon="1.51227">
        <ele>86.4</ele>
        <time>2020-07-03T06:59:54Z</time>
      </trkpt>
      <trkpt lat="47.66208" lon="1.5122">
        <ele>86.3</ele>
        <time>2020-07-03T06:59:55Z</time>
      </trkpt>
      <trkpt lat="47.66206" lon="1.51211">
        <ele>86.3</ele>
        <time>2020-07-03T06:59:56Z</time>
      </trkpt>
      <trkpt lat="47.66203" lon="1.51203">
        <ele>86.3</ele>
        <time>2020-07-03T06:59:57Z</time>
      </trkpt>
      <trkpt lat="47.66201" lon="1.51197">
        <ele>86.3</ele>
        <time>2020-07-03T06:59:58Z</time>
      </trkpt>
      <trkpt lat="47.66199" lon="1.5119">
        <ele>86.3</ele>
        <time>2020-07-03T06:59:59Z</time>
      </trkpt>
      <trkpt lat="47.66196" lon="1.51184">
        <ele>86.3</ele>
        <time>2020-07-03T07:00:00Z</time>
      </trkpt>
      <trkpt lat="47.66194" lon="1.51179">
        <ele>86.3</ele>
        <time>2020-07-03T07:00:01Z</time>
      </trkpt>
      <trkpt lat="47.6619" lon="1.51172">
        <ele>86.3</ele>
        <time>2020-07-03T07:00:02Z</time>
      </trkpt>
      <trkpt lat="47.66187" lon="1.51166">
        <ele>86.3</ele>
        <time>2020-07-03T07:00:03Z</time>
      </trkpt>
      <trkpt lat="47.66185" lon="1.5116">
        <ele>86.3</ele>
        <time>2020-07-03T07:00:04Z</time>
      </trkpt>
      <trkpt lat="47.66185" lon="1.51153">
        <ele>86.3</ele>
        <time>2020-07-03T07:00:05Z</time>
      </trkpt>
      <trkpt lat="47.66184" lon="1.51148">
        <ele>86.3</ele>
        <time>2020-07-03T07:00:06Z</time>
      </trkpt>
      <trkpt lat="47.66182" lon="1.51142">
        <ele>86.2</ele>
        <time>2020-07-03T07:00:07Z</time>
      </trkpt>
      <trkpt lat="47.6618" lon="1.51137">
        <ele>86.2</ele>
        <time>2020-07-03T07:00:08Z</time>
      </trkpt>
      <trkpt lat="47.66178" lon="1.5113">
        <ele>86.3</ele>
        <time>2020-07-03T07:00:09Z</time>
      </trkpt>
      <trkpt lat="47.66176" lon="1.51123">
        <ele>86.3</ele>
        <time>2020-07-03T07:00:10Z</time>
      </trkpt>
      <trkpt lat="47.66173" lon="1.51116">
        <ele>86.3</ele>
        <time>2020-07-03T07:00:11Z</time>
      </trkpt>
      <trkpt lat="47.6617" lon="1.51107">
        <ele>86.4</ele>
        <time>2020-07-03T07:00:12Z</time>
      </trkpt>
      <trkpt lat="47.66167" lon="1.51101">
        <ele>86.5</ele>
        <time>2020-07-03T07:00:13Z</time>
      </trkpt>
      <trkpt lat="47.66165" lon="1.51095">
        <ele>86.6</ele>
        <time>2020-07-03T07:00:14Z</time>
      </trkpt>
      <trkpt lat="47.66163" lon="1.5109">
        <ele>86.6</ele>
        <time>2020-07-03T07:00:15Z</time>
      </trkpt>
      <trkpt lat="47.66161" lon="1.51085">
        <ele>86.7</ele>
        <time>2020-07-03T07:00:16Z</time>
      </trkpt>
      <trkpt lat="47.6616" lon="1.51081">
        <ele>86.8</ele>
        <time>2020-07-03T07:00:17Z</time>
      </trkpt>
      <trkpt lat="47.66158" lon="1.51077">
        <ele>86.9</ele>
        <time>2020-07-03T07:00:18Z</time>
      </trkpt>
      <trkpt lat="47.66158" lon="1.51076">
        <ele>86.9</ele>
        <time>2020-07-03T07:00:19Z</time>
      </trkpt>
      <trkpt lat="47.66157" lon="1.51071">
        <ele>87.1</ele>
        <time>2020-07-03T07:00:20Z</time>
      </trkpt>
      <trkpt lat="47.66156" lon="1.5107">
        <ele>87.1</ele>
        <time>2020-07-03T07:00:21Z</time>
      </trkpt>
      <trkpt lat="47.66153" lon="1.51066">
        <ele>87.2</ele>
        <time>2020-07-03T07:00:22Z</time>
      </trkpt>
      <trkpt lat="47.66152" lon="1.51064">
        <ele>87.3</ele>
        <time>2020-07-03T07:00:23Z</time>
      </trkpt>
      <trkpt lat="47.6615" lon="1.51061">
        <ele>87.3</ele>
        <time>2020-07-03T07:00:24Z</time>
      </trkpt>
      <trkpt lat="47.66149" lon="1.51057">
        <ele>87.4</ele>
        <time>2020-07-03T07:00:25Z</time>
      </trkpt>
      <trkpt lat="47.66148" lon="1.51052">
        <ele>87.4</ele>
        <time>2020-07-03T07:00:26Z</time>
      </trkpt>
      <trkpt lat="47.66146" lon="1.51047">
        <ele>87.4</ele>
        <time>2020-07-03T07:00:27Z</time>
      </trkpt>
      <trkpt lat="47.66144" lon="1.5104">
        <ele>87.4</ele>
        <time>2020-07-03T07:00:28Z</time>
      </trkpt>
      <trkpt lat="47.66142" lon="1.51035">
        <ele>87.4</ele>
        <time>2020-07-03T07:00:29Z</time>
      </trkpt>
      <trkpt lat="47.6614" lon="1.51029">
        <ele>87.4</ele>
        <time>2020-07-03T07:00:30Z</time>
      </trkpt>
      <trkpt lat="47.66138" lon="1.51024">
        <ele>87.4</ele>
        <time>2020-07-03T07:00:31Z</time>
      </trkpt>
      <trkpt lat="47.66136" lon="1.51016">
        <ele>87.4</ele>
        <time>2020-07-03T07:00:32Z</time>
      </trkpt>
      <trkpt lat="47.66134" lon="1.51008">
        <ele>87.5</ele>
        <time>2020-07-03T07:00:33Z</time>
      </trkpt>
      <trkpt lat="47.66132" lon="1.51">
        <ele>87.5</ele>
        <time>2020-07-03T07:00:34Z</time>
      </trkpt>
      <trkpt lat="47.6613" lon="1.50993">
        <ele>87.6</ele>
        <time>2020-07-03T07:00:35Z</time>
      </trkpt>
      <trkpt lat="47.66128" lon="1.50985">
        <ele>87.7</ele>
        <time>2020-07-03T07:00:36Z</time>
      </trkpt>
      <trkpt lat="47.66125" lon="1.50978">
        <ele>87.8</ele>
        <time>2020-07-03T07:00:37Z</time>
      </trkpt>
      <trkpt lat="47.66123" lon="1.50971">
        <ele>87.8</ele>
        <time>2020-07-03T07:00:38Z</time>
      </trkpt>
      <trkpt lat="47.6612" lon="1.50964">
        <ele>87.8</ele>
        <time>2020-07-03T07:00:39Z</time>
      </trkpt>
      <trkpt lat="47.66118" lon="1.50956">
        <ele>87.9</ele>
        <time>2020-07-03T07:00:40Z</time>
      </trkpt>
      <trkpt lat="47.66115" lon="1.50948">
        <ele>87.9</ele>
        <time>2020-07-03T07:00:41Z</time>
      </trkpt>
      <trkpt lat="47.66113" lon="1.5094">
        <ele>87.9</ele>
        <time>2020-07-03T07:00:42Z</time>
      </trkpt>
      <trkpt lat="47.66111" lon="1.50932">
        <ele>87.9</ele>
        <time>2020-07-03T07:00:43Z</time>
      </trkpt>
      <trkpt lat="47.66109" lon="1.50924">
        <ele>88</ele>
        <time>2020-07-03T07:00:44Z</time>
      </trkpt>
      <trkpt lat="47.66107" lon="1.50916">
        <ele>88</ele>
        <time>2020-07-03T07:00:45Z</time>
      </trkpt>
      <trkpt lat="47.66105" lon="1.50907">
        <ele>88</ele>
        <time>2020-07-03T07:00:46Z</time>
      </trkpt>
      <trkpt lat="47.66103" lon="1.50898">
        <ele>88</ele>
        <time>2020-07-03T07:00:47Z</time>
      </trkpt>
      <trkpt lat="47.661" lon="1.5089">
        <ele>88</ele>
        <time>2020-07-03T07:00:48Z</time>
      </trkpt>
      <trkpt lat="47.66098" lon="1.50881">
        <ele>88</ele>
        <time>2020-07-03T07:00:49Z</time>
      </trkpt>
      <trkpt lat="47.66095" lon="1.50872">
        <ele>88</ele>
        <time>2020-07-03T07:00:50Z</time>
      </trkpt>
      <trkpt lat="47.66092" lon="1.50863">
        <ele>88</ele>
        <time>2020-07-03T07:00:51Z</time>
      </trkpt>
      <trkpt lat="47.66089" lon="1.50853">
        <ele>88</ele>
        <time>2020-07-03T07:00:52Z</time>
      </trkpt>
      <trkpt lat="47.66086" lon="1.50845">
        <ele>88</ele>
        <time>2020-07-03T07:00:53Z</time>
      </trkpt>
      <trkpt lat="47.66083" lon="1.50837">
        <ele>88</ele>
        <time>2020-07-03T07:00:54Z</time>
      </trkpt>
      <trkpt lat="47.66081" lon="1.50829">
        <ele>87.9</ele>
        <time>2020-07-03T07:00:55Z</time>
      </trkpt>
      <trkpt lat="47.66078" lon="1.50819">
        <ele>87.9</ele>
        <time>2020-07-03T07:00:56Z</time>
      </trkpt>
      <trkpt lat="47.66076" lon="1.5081">
        <ele>87.9</ele>
        <time>2020-07-03T07:00:57Z</time>
      </trkpt>
      <trkpt lat="47.66074" lon="1.50801">
        <ele>87.9</ele>
        <time>2020-07-03T07:00:58Z</time>
      </trkpt>
      <trkpt lat="47.66072" lon="1.50791">
        <ele>87.9</ele>
        <time>2020-07-03T07:00:59Z</time>
      </trkpt>
      <trkpt lat="47.66069" lon="1.50782">
        <ele>87.9</ele>
        <time>2020-07-03T07:01:00Z</time>
      </trkpt>
      <trkpt lat="47.66066" lon="1.50772">
        <ele>88</ele>
        <time>2020-07-03T07:01:01Z</time>
      </trkpt>
      <trkpt lat="47.66063" lon="1.50762">
        <ele>88</ele>
        <time>2020-07-03T07:01:02Z</time>
      </trkpt>
      <trkpt lat="47.6606" lon="1.50753">
        <ele>88</ele>
        <time>2020-07-03T07:01:03Z</time>
      </trkpt>
      <trkpt lat="47.66057" lon="1.50742">
        <ele>88</ele>
        <time>2020-07-03T07:01:04Z</time>
      </trkpt>
      <trkpt lat="47.66054" lon="1.50733">
        <ele>88</ele>
        <time>2020-07-03T07:01:05Z</time>
      </trkpt>
      <trkpt lat="47.66052" lon="1.50724">
        <ele>88</ele>
        <time>2020-07-03T07:01:06Z</time>
      </trkpt>
      <trkpt lat="47.66049" lon="1.50713">
        <ele>88</ele>
        <time>2020-07-03T07:01:07Z</time>
      </trkpt>
      <trkpt lat="47.66046" lon="1.50703">
        <ele>88</ele>
        <time>2020-07-03T07:01:08Z</time>
      </trkpt>
      <trkpt lat="47.66044" lon="1.50693">
        <ele>88.1</ele>
        <time>2020-07-03T07:01:09Z</time>
      </trkpt>
      <trkpt lat="47.66042" lon="1.50683">
        <ele>88.1</ele>
        <time>2020-07-03T07:01:10Z</time>
      </trkpt>
      <trkpt lat="47.66039" lon="1.50673">
        <ele>88.1</ele>
        <time>2020-07-03T07:01:11Z</time>
      </trkpt>
      <trkpt lat="47.66037" lon="1.50663">
        <ele>88.1</ele>
        <time>2020-07-03T07:01:12Z</time>
      </trkpt>
      <trkpt lat="47.66035" lon="1.50654">
        <ele>88.1</ele>
        <time>2020-07-03T07:01:13Z</time>
      </trkpt>
      <trkpt lat="47.66033" lon="1.50644">
        <ele>88.1</ele>
        <time>2020-07-03T07:01:14Z</time>
      </trkpt>
      <trkpt lat="47.66031" lon="1.50634">
        <ele>88.1</ele>
        <time>2020-07-03T07:01:15Z</time>
      </trkpt>
      <trkpt lat="47.66028" lon="1.50624">
        <ele>88</ele>
        <time>2020-07-03T07:01:16Z</time>
      </trkpt>
      <trkpt lat="47.66025" lon="1.50614">
        <ele>88</ele>
        <time>2020-07-03T07:01:17Z</time>
      </trkpt>
      <trkpt lat="47.66022" lon="1.50604">
        <ele>88</ele>
        <time>2020-07-03T07:01:18Z</time>
      </trkpt>
      <trkpt lat="47.66019" lon="1.50594">
        <ele>88</ele>
        <time>2020-07-03T07:01:19Z</time>
      </trkpt>
      <trkpt lat="47.66017" lon="1.50584">
        <ele>88</ele>
        <time>2020-07-03T07:01:20Z</time>
      </trkpt>
      <trkpt lat="47.66014" lon="1.50574">
        <ele>88</ele>
        <time>2020-07-03T07:01:21Z</time>
      </trkpt>
      <trkpt lat="47.66012" lon="1.50564">
        <ele>88.1</ele>
        <time>2020-07-03T07:01:22Z</time>
      </trkpt>
      <trkpt lat="47.66009" lon="1.50554">
        <ele>88.1</ele>
        <time>2020-07-03T07:01:23Z</time>
      </trkpt>
      <trkpt lat="47.66007" lon="1.50544">
        <ele>88.1</ele>
        <time>2020-07-03T07:01:24Z</time>
      </trkpt>
      <trkpt lat="47.66004" lon="1.50533">
        <ele>88.1</ele>
        <time>2020-07-03T07:01:25Z</time>
      </trkpt>
      <trkpt lat="47.66001" lon="1.50522">
        <ele>88.1</ele>
        <time>2020-07-03T07:01:26Z</time>
      </trkpt>
      <trkpt lat="47.65999" lon="1.50511">
        <ele>88.2</ele>
        <time>2020-07-03T07:01:27Z</time>
      </trkpt>
      <trkpt lat="47.65996" lon="1.505">
        <ele>88.2</ele>
        <time>2020-07-03T07:01:28Z</time>
      </trkpt>
      <trkpt lat="47.65993" lon="1.5049">
        <ele>88.2</ele>
        <time>2020-07-03T07:01:29Z</time>
      </trkpt>
      <trkpt lat="47.65989" lon="1.50479">
        <ele>88.2</ele>
        <time>2020-07-03T07:01:30Z</time>
      </trkpt>
      <trkpt lat="47.65986" lon="1.50468">
        <ele>88.2</ele>
        <time>2020-07-03T07:01:31Z</time>
      </trkpt>
      <trkpt lat="47.65984" lon="1.50457">
        <ele>88.2</ele>
        <time>2020-07-03T07:01:32Z</time>
      </trkpt>
      <trkpt lat="47.65981" lon="1.50447">
        <ele>88.2</ele>
        <time>2020-07-03T07:01:33Z</time>
      </trkpt>
      <trkpt lat="47.65978" lon="1.50437">
        <ele>88.2</ele>
        <time>2020-07-03T07:01:34Z</time>
      </trkpt>
      <trkpt lat="47.65976" lon="1.50426">
        <ele>88.2</ele>
        <time>2020-07-03T07:01:35Z</time>
      </trkpt>
      <trkpt lat="47.65973" lon="1.50416">
        <ele>88.1</ele>
        <time>2020-07-03T07:01:36Z</time>
      </trkpt>
      <trkpt lat="47.6597" lon="1.50405">
        <ele>88.1</ele>
        <time>2020-07-03T07:01:37Z</time>
      </trkpt>
      <trkpt lat="47.65968" lon="1.50394">
        <ele>88.1</ele>
        <time>2020-07-03T07:01:38Z</time>
      </trkpt>
      <trkpt lat="47.65966" lon="1.50384">
        <ele>88.1</ele>
        <time>2020-07-03T07:01:39Z</time>
      </trkpt>
      <trkpt lat="47.65963" lon="1.50374">
        <ele>88.1</ele>
        <time>2020-07-03T07:01:40Z</time>
      </trkpt>
      <trkpt lat="47.65961" lon="1.50364">
        <ele>88.2</ele>
        <time>2020-07-03T07:01:41Z</time>
      </trkpt>
      <trkpt lat="47.65958" lon="1.50355">
        <ele>88.2</ele>
        <time>2020-07-03T07:01:42Z</time>
      </trkpt>
      <trkpt lat="47.65956" lon="1.50345">
        <ele>88.2</ele>
        <time>2020-07-03T07:01:43Z</time>
      </trkpt>
      <trkpt lat="47.65953" lon="1.50336">
        <ele>88.3</ele>
        <time>2020-07-03T07:01:44Z</time>
      </trkpt>
      <trkpt lat="47.65951" lon="1.50326">
        <ele>88.3</ele>
        <time>2020-07-03T07:01:45Z</time>
      </trkpt>
      <trkpt lat="47.65948" lon="1.50317">
        <ele>88.2</ele>
        <time>2020-07-03T07:01:46Z</time>
      </trkpt>
      <trkpt lat="47.65945" lon="1.50307">
        <ele>88.2</ele>
        <time>2020-07-03T07:01:47Z</time>
      </trkpt>
      <trkpt lat="47.65943" lon="1.50298">
        <ele>88.1</ele>
        <time>2020-07-03T07:01:48Z</time>
      </trkpt>
      <trkpt lat="47.6594" lon="1.50288">
        <ele>88.1</ele>
        <time>2020-07-03T07:01:49Z</time>
      </trkpt>
      <trkpt lat="47.65937" lon="1.50279">
        <ele>88</ele>
        <time>2020-07-03T07:01:50Z</time>
      </trkpt>
      <trkpt lat="47.65935" lon="1.50269">
        <ele>88</ele>
        <time>2020-07-03T07:01:51Z</time>
      </trkpt>
      <trkpt lat="47.65932" lon="1.50259">
        <ele>88</ele>
        <time>2020-07-03T07:01:52Z</time>
      </trkpt>
      <trkpt lat="47.6593" lon="1.50248">
        <ele>87.9</ele>
        <time>2020-07-03T07:01:53Z</time>
      </trkpt>
      <trkpt lat="47.65927" lon="1.50238">
        <ele>87.9</ele>
        <time>2020-07-03T07:01:54Z</time>
      </trkpt>
      <trkpt lat="47.65925" lon="1.50227">
        <ele>87.9</ele>
        <time>2020-07-03T07:01:55Z</time>
      </trkpt>
      <trkpt lat="47.65922" lon="1.50217">
        <ele>87.9</ele>
        <time>2020-07-03T07:01:56Z</time>
      </trkpt>
      <trkpt lat="47.6592" lon="1.50207">
        <ele>87.9</ele>
        <time>2020-07-03T07:01:57Z</time>
      </trkpt>
      <trkpt lat="47.65918" lon="1.50196">
        <ele>87.9</ele>
        <time>2020-07-03T07:01:58Z</time>
      </trkpt>
      <trkpt lat="47.65916" lon="1.50187">
        <ele>87.8</ele>
        <time>2020-07-03T07:01:59Z</time>
      </trkpt>
      <trkpt lat="47.65913" lon="1.50178">
        <ele>87.8</ele>
        <time>2020-07-03T07:02:00Z</time>
      </trkpt>
      <trkpt lat="47.65911" lon="1.50168">
        <ele>87.8</ele>
        <time>2020-07-03T07:02:01Z</time>
      </trkpt>
      <trkpt lat="47.65908" lon="1.50159">
        <ele>87.8</ele>
        <time>2020-07-03T07:02:02Z</time>
      </trkpt>
      <trkpt lat="47.65905" lon="1.50149">
        <ele>87.7</ele>
        <time>2020-07-03T07:02:03Z</time>
      </trkpt>
      <trkpt lat="47.65903" lon="1.50139">
        <ele>87.7</ele>
        <time>2020-07-03T07:02:04Z</time>
      </trkpt>
      <trkpt lat="47.659" lon="1.50129">
        <ele>87.7</ele>
        <time>2020-07-03T07:02:05Z</time>
      </trkpt>
      <trkpt lat="47.65898" lon="1.50119">
        <ele>87.7</ele>
        <time>2020-07-03T07:02:06Z</time>
      </trkpt>
      <trkpt lat="47.65896" lon="1.5011">
        <ele>87.6</ele>
        <time>2020-07-03T07:02:07Z</time>
      </trkpt>
      <trkpt lat="47.65893" lon="1.501">
        <ele>87.6</ele>
        <time>2020-07-03T07:02:08Z</time>
      </trkpt>
      <trkpt lat="47.65891" lon="1.5009">
        <ele>87.6</ele>
        <time>2020-07-03T07:02:09Z</time>
      </trkpt>
      <trkpt lat="47.65888" lon="1.50081">
        <ele>87.5</ele>
        <time>2020-07-03T07:02:10Z</time>
      </trkpt>
      <trkpt lat="47.65885" lon="1.50071">
        <ele>87.5</ele>
        <time>2020-07-03T07:02:11Z</time>
      </trkpt>
      <trkpt lat="47.65882" lon="1.50062">
        <ele>87.5</ele>
        <time>2020-07-03T07:02:12Z</time>
      </trkpt>
      <trkpt lat="47.65879" lon="1.50052">
        <ele>87.5</ele>
        <time>2020-07-03T07:02:13Z</time>
      </trkpt>
      <trkpt lat="47.65876" lon="1.50043">
        <ele>87.5</ele>
        <time>2020-07-03T07:02:14Z</time>
      </trkpt>
      <trkpt lat="47.65874" lon="1.50033">
        <ele>87.5</ele>
        <time>2020-07-03T07:02:15Z</time>
      </trkpt>
      <trkpt lat="47.65872" lon="1.50024">
        <ele>87.5</ele>
        <time>2020-07-03T07:02:16Z</time>
      </trkpt>
      <trkpt lat="47.65869" lon="1.50014">
        <ele>87.5</ele>
        <time>2020-07-03T07:02:17Z</time>
      </trkpt>
      <trkpt lat="47.65866" lon="1.50004">
        <ele>87.5</ele>
        <time>2020-07-03T07:02:18Z</time>
      </trkpt>
      <trkpt lat="47.65863" lon="1.49994">
        <ele>87.4</ele>
        <time>2020-07-03T07:02:19Z</time>
      </trkpt>
      <trkpt lat="47.6586" lon="1.49985">
        <ele>87.4</ele>
        <time>2020-07-03T07:02:20Z</time>
      </trkpt>
      <trkpt lat="47.65856" lon="1.49975">
        <ele>87.4</ele>
        <time>2020-07-03T07:02:21Z</time>
      </trkpt>
      <trkpt lat="47.65854" lon="1.49965">
        <ele>87.4</ele>
        <time>2020-07-03T07:02:22Z</time>
      </trkpt>
      <trkpt lat="47.65851" lon="1.49955">
        <ele>87.4</ele>
        <time>2020-07-03T07:02:23Z</time>
      </trkpt>
      <trkpt lat="47.65849" lon="1.49945">
        <ele>87.3</ele>
        <time>2020-07-03T07:02:24Z</time>
      </trkpt>
      <trkpt lat="47.65847" lon="1.49935">
        <ele>87.3</ele>
        <time>2020-07-03T07:02:25Z</time>
      </trkpt>
      <trkpt lat="47.65845" lon="1.49925">
        <ele>87.3</ele>
        <time>2020-07-03T07:02:26Z</time>
      </trkpt>
      <trkpt lat="47.65842" lon="1.49915">
        <ele>87.3</ele>
        <time>2020-07-03T07:02:27Z</time>
      </trkpt>
      <trkpt lat="47.65839" lon="1.49905">
        <ele>87.3</ele>
        <time>2020-07-03T07:02:28Z</time>
      </trkpt>
      <trkpt lat="47.65837" lon="1.49894">
        <ele>87.4</ele>
        <time>2020-07-03T07:02:29Z</time>
      </trkpt>
      <trkpt lat="47.65834" lon="1.49884">
        <ele>87.4</ele>
        <time>2020-07-03T07:02:30Z</time>
      </trkpt>
      <trkpt lat="47.65831" lon="1.49874">
        <ele>87.5</ele>
        <time>2020-07-03T07:02:31Z</time>
      </trkpt>
      <trkpt lat="47.65828" lon="1.49864">
        <ele>87.6</ele>
        <time>2020-07-03T07:02:32Z</time>
      </trkpt>
      <trkpt lat="47.65825" lon="1.49853">
        <ele>87.6</ele>
        <time>2020-07-03T07:02:33Z</time>
      </trkpt>
      <trkpt lat="47.65823" lon="1.49842">
        <ele>87.5</ele>
        <time>2020-07-03T07:02:34Z</time>
      </trkpt>
      <trkpt lat="47.6582" lon="1.49832">
        <ele>87.5</ele>
        <time>2020-07-03T07:02:35Z</time>
      </trkpt>
      <trkpt lat="47.65817" lon="1.49822">
        <ele>87.5</ele>
        <time>2020-07-03T07:02:36Z</time>
      </trkpt>
      <trkpt lat="47.65813" lon="1.49813">
        <ele>87.5</ele>
        <time>2020-07-03T07:02:37Z</time>
      </trkpt>
      <trkpt lat="47.65811" lon="1.49803">
        <ele>87.5</ele>
        <time>2020-07-03T07:02:38Z</time>
      </trkpt>
      <trkpt lat="47.65808" lon="1.49794">
        <ele>87.5</ele>
        <time>2020-07-03T07:02:39Z</time>
      </trkpt>
      <trkpt lat="47.65806" lon="1.49784">
        <ele>87.5</ele>
        <time>2020-07-03T07:02:40Z</time>
      </trkpt>
      <trkpt lat="47.65804" lon="1.49774">
        <ele>87.6</ele>
        <time>2020-07-03T07:02:41Z</time>
      </trkpt>
      <trkpt lat="47.65801" lon="1.49764">
        <ele>87.6</ele>
        <time>2020-07-03T07:02:42Z</time>
      </trkpt>
      <trkpt lat="47.65798" lon="1.49754">
        <ele>87.7</ele>
        <time>2020-07-03T07:02:43Z</time>
      </trkpt>
      <trkpt lat="47.65797" lon="1.49745">
        <ele>87.7</ele>
        <time>2020-07-03T07:02:44Z</time>
      </trkpt>
      <trkpt lat="47.65795" lon="1.49735">
        <ele>87.8</ele>
        <time>2020-07-03T07:02:45Z</time>
      </trkpt>
      <trkpt lat="47.65793" lon="1.49727">
        <ele>87.8</ele>
        <time>2020-07-03T07:02:46Z</time>
      </trkpt>
      <trkpt lat="47.65791" lon="1.49718">
        <ele>87.9</ele>
        <time>2020-07-03T07:02:47Z</time>
      </trkpt>
      <trkpt lat="47.65789" lon="1.49709">
        <ele>88</ele>
        <time>2020-07-03T07:02:48Z</time>
      </trkpt>
      <trkpt lat="47.65787" lon="1.497">
        <ele>88.1</ele>
        <time>2020-07-03T07:02:49Z</time>
      </trkpt>
      <trkpt lat="47.65784" lon="1.49692">
        <ele>88.2</ele>
        <time>2020-07-03T07:02:50Z</time>
      </trkpt>
      <trkpt lat="47.65782" lon="1.49683">
        <ele>88.2</ele>
        <time>2020-07-03T07:02:51Z</time>
      </trkpt>
      <trkpt lat="47.65779" lon="1.49674">
        <ele>88.3</ele>
        <time>2020-07-03T07:02:52Z</time>
      </trkpt>
      <trkpt lat="47.65776" lon="1.49665">
        <ele>88.4</ele>
        <time>2020-07-03T07:02:53Z</time>
      </trkpt>
      <trkpt lat="47.65774" lon="1.49655">
        <ele>88.5</ele>
        <time>2020-07-03T07:02:54Z</time>
      </trkpt>
      <trkpt lat="47.65772" lon="1.49646">
        <ele>88.5</ele>
        <time>2020-07-03T07:02:55Z</time>
      </trkpt>
      <trkpt lat="47.65769" lon="1.49636">
        <ele>88.5</ele>
        <time>2020-07-03T07:02:56Z</time>
      </trkpt>
      <trkpt lat="47.65766" lon="1.49627">
        <ele>88.5</ele>
        <time>2020-07-03T07:02:57Z</time>
      </trkpt>
      <trkpt lat="47.65764" lon="1.49617">
        <ele>88.5</ele>
        <time>2020-07-03T07:02:58Z</time>
      </trkpt>
      <trkpt lat="47.65762" lon="1.49607">
        <ele>88.5</ele>
        <time>2020-07-03T07:02:59Z</time>
      </trkpt>
      <trkpt lat="47.65759" lon="1.49597">
        <ele>88.5</ele>
        <time>2020-07-03T07:03:00Z</time>
      </trkpt>
      <trkpt lat="47.65757" lon="1.49588">
        <ele>88.5</ele>
        <time>2020-07-03T07:03:01Z</time>
      </trkpt>
      <trkpt lat="47.65755" lon="1.49578">
        <ele>88.5</ele>
        <time>2020-07-03T07:03:02Z</time>
      </trkpt>
      <trkpt lat="47.65752" lon="1.49569">
        <ele>88.5</ele>
        <time>2020-07-03T07:03:03Z</time>
      </trkpt>
      <trkpt lat="47.65749" lon="1.4956">
        <ele>88.5</ele>
        <time>2020-07-03T07:03:04Z</time>
      </trkpt>
      <trkpt lat="47.65747" lon="1.49551">
        <ele>88.5</ele>
        <time>2020-07-03T07:03:05Z</time>
      </trkpt>
      <trkpt lat="47.65746" lon="1.49541">
        <ele>88.4</ele>
        <time>2020-07-03T07:03:06Z</time>
      </trkpt>
      <trkpt lat="47.65743" lon="1.49532">
        <ele>88.4</ele>
        <time>2020-07-03T07:03:07Z</time>
      </trkpt>
      <trkpt lat="47.6574" lon="1.49523">
        <ele>88.4</ele>
        <time>2020-07-03T07:03:08Z</time>
      </trkpt>
      <trkpt lat="47.65737" lon="1.49513">
        <ele>88.4</ele>
        <time>2020-07-03T07:03:09Z</time>
      </trkpt>
      <trkpt lat="47.65734" lon="1.49504">
        <ele>88.4</ele>
        <time>2020-07-03T07:03:10Z</time>
      </trkpt>
      <trkpt lat="47.65731" lon="1.49494">
        <ele>88.4</ele>
        <time>2020-07-03T07:03:11Z</time>
      </trkpt>
      <trkpt lat="47.65729" lon="1.49484">
        <ele>88.3</ele>
        <time>2020-07-03T07:03:12Z</time>
      </trkpt>
      <trkpt lat="47.65726" lon="1.49475">
        <ele>88.2</ele>
        <time>2020-07-03T07:03:13Z</time>
      </trkpt>
      <trkpt lat="47.65723" lon="1.49465">
        <ele>88.1</ele>
        <time>2020-07-03T07:03:14Z</time>
      </trkpt>
      <trkpt lat="47.6572" lon="1.49456">
        <ele>88</ele>
        <time>2020-07-03T07:03:15Z</time>
      </trkpt>
      <trkpt lat="47.65718" lon="1.49446">
        <ele>88</ele>
        <time>2020-07-03T07:03:16Z</time>
      </trkpt>
      <trkpt lat="47.65716" lon="1.49436">
        <ele>87.9</ele>
        <time>2020-07-03T07:03:17Z</time>
      </trkpt>
      <trkpt lat="47.65714" lon="1.49426">
        <ele>87.8</ele>
        <time>2020-07-03T07:03:18Z</time>
      </trkpt>
      <trkpt lat="47.65711" lon="1.49416">
        <ele>87.8</ele>
        <time>2020-07-03T07:03:19Z</time>
      </trkpt>
      <trkpt lat="47.65709" lon="1.49406">
        <ele>87.7</ele>
        <time>2020-07-03T07:03:20Z</time>
      </trkpt>
      <trkpt lat="47.65707" lon="1.49396">
        <ele>87.7</ele>
        <time>2020-07-03T07:03:21Z</time>
      </trkpt>
      <trkpt lat="47.65704" lon="1.49386">
        <ele>87.6</ele>
        <time>2020-07-03T07:03:22Z</time>
      </trkpt>
      <trkpt lat="47.65702" lon="1.49376">
        <ele>87.6</ele>
        <time>2020-07-03T07:03:23Z</time>
      </trkpt>
      <trkpt lat="47.657" lon="1.49365">
        <ele>87.6</ele>
        <time>2020-07-03T07:03:24Z</time>
      </trkpt>
      <trkpt lat="47.65698" lon="1.49355">
        <ele>87.6</ele>
        <time>2020-07-03T07:03:25Z</time>
      </trkpt>
      <trkpt lat="47.65695" lon="1.49346">
        <ele>87.6</ele>
        <time>2020-07-03T07:03:26Z</time>
      </trkpt>
      <trkpt lat="47.65692" lon="1.49337">
        <ele>87.6</ele>
        <time>2020-07-03T07:03:27Z</time>
      </trkpt>
      <trkpt lat="47.6569" lon="1.49328">
        <ele>87.5</ele>
        <time>2020-07-03T07:03:28Z</time>
      </trkpt>
      <trkpt lat="47.65688" lon="1.49318">
        <ele>87.5</ele>
        <time>2020-07-03T07:03:29Z</time>
      </trkpt>
      <trkpt lat="47.65685" lon="1.49309">
        <ele>87.5</ele>
        <time>2020-07-03T07:03:30Z</time>
      </trkpt>
      <trkpt lat="47.65682" lon="1.49299">
        <ele>87.5</ele>
        <time>2020-07-03T07:03:31Z</time>
      </trkpt>
      <trkpt lat="47.65679" lon="1.49289">
        <ele>87.4</ele>
        <time>2020-07-03T07:03:32Z</time>
      </trkpt>
      <trkpt lat="47.65677" lon="1.4928">
        <ele>87.4</ele>
        <time>2020-07-03T07:03:33Z</time>
      </trkpt>
      <trkpt lat="47.65674" lon="1.4927">
        <ele>87.4</ele>
        <time>2020-07-03T07:03:34Z</time>
      </trkpt>
      <trkpt lat="47.65672" lon="1.4926">
        <ele>87.3</ele>
        <time>2020-07-03T07:03:35Z</time>
      </trkpt>
      <trkpt lat="47.6567" lon="1.49251">
        <ele>87.3</ele>
        <time>2020-07-03T07:03:36Z</time>
      </trkpt>
      <trkpt lat="47.65666" lon="1.49242">
        <ele>87.2</ele>
        <time>2020-07-03T07:03:37Z</time>
      </trkpt>
      <trkpt lat="47.65663" lon="1.49232">
        <ele>87.2</ele>
        <time>2020-07-03T07:03:38Z</time>
      </trkpt>
      <trkpt lat="47.6566" lon="1.49223">
        <ele>87.1</ele>
        <time>2020-07-03T07:03:39Z</time>
      </trkpt>
      <trkpt lat="47.65658" lon="1.49213">
        <ele>87</ele>
        <time>2020-07-03T07:03:40Z</time>
      </trkpt>
      <trkpt lat="47.65656" lon="1.49204">
        <ele>87</ele>
        <time>2020-07-03T07:03:41Z</time>
      </trkpt>
      <trkpt lat="47.65654" lon="1.49194">
        <ele>86.9</ele>
        <time>2020-07-03T07:03:42Z</time>
      </trkpt>
      <trkpt lat="47.65651" lon="1.49185">
        <ele>86.9</ele>
        <time>2020-07-03T07:03:43Z</time>
      </trkpt>
      <trkpt lat="47.65649" lon="1.49176">
        <ele>86.9</ele>
        <time>2020-07-03T07:03:44Z</time>
      </trkpt>
      <trkpt lat="47.65647" lon="1.49166">
        <ele>86.9</ele>
        <time>2020-07-03T07:03:45Z</time>
      </trkpt>
      <trkpt lat="47.65644" lon="1.49157">
        <ele>86.9</ele>
        <time>2020-07-03T07:03:46Z</time>
      </trkpt>
      <trkpt lat="47.65641" lon="1.49147">
        <ele>86.9</ele>
        <time>2020-07-03T07:03:47Z</time>
      </trkpt>
      <trkpt lat="47.65639" lon="1.49138">
        <ele>86.9</ele>
        <time>2020-07-03T07:03:48Z</time>
      </trkpt>
      <trkpt lat="47.65637" lon="1.49129">
        <ele>86.8</ele>
        <time>2020-07-03T07:03:49Z</time>
      </trkpt>
      <trkpt lat="47.65635" lon="1.4912">
        <ele>86.8</ele>
        <time>2020-07-03T07:03:50Z</time>
      </trkpt>
      <trkpt lat="47.65633" lon="1.49112">
        <ele>86.8</ele>
        <time>2020-07-03T07:03:51Z</time>
      </trkpt>
      <trkpt lat="47.65631" lon="1.49105">
        <ele>86.8</ele>
        <time>2020-07-03T07:03:52Z</time>
      </trkpt>
      <trkpt lat="47.65629" lon="1.49098">
        <ele>86.9</ele>
        <time>2020-07-03T07:03:53Z</time>
      </trkpt>
      <trkpt lat="47.65627" lon="1.49091">
        <ele>86.8</ele>
        <time>2020-07-03T07:03:54Z</time>
      </trkpt>
      <trkpt lat="47.65625" lon="1.49085">
        <ele>86.8</ele>
        <time>2020-07-03T07:03:55Z</time>
      </trkpt>
      <trkpt lat="47.65624" lon="1.4908">
        <ele>86.8</ele>
        <time>2020-07-03T07:03:56Z</time>
      </trkpt>
      <trkpt lat="47.65623" lon="1.49074">
        <ele>86.7</ele>
        <time>2020-07-03T07:03:57Z</time>
      </trkpt>
      <trkpt lat="47.65621" lon="1.49069">
        <ele>86.7</ele>
        <time>2020-07-03T07:03:58Z</time>
      </trkpt>
      <trkpt lat="47.65619" lon="1.49065">
        <ele>86.7</ele>
        <time>2020-07-03T07:03:59Z</time>
      </trkpt>
      <trkpt lat="47.65618" lon="1.4906">
        <ele>86.7</ele>
        <time>2020-07-03T07:04:00Z</time>
      </trkpt>
      <trkpt lat="47.65617" lon="1.49059">
        <ele>86.7</ele>
        <time>2020-07-03T07:04:01Z</time>
      </trkpt>
      <trkpt lat="47.65617" lon="1.49055">
        <ele>86.7</ele>
        <time>2020-07-03T07:04:02Z</time>
      </trkpt>
      <trkpt lat="47.65617" lon="1.49053">
        <ele>86.7</ele>
        <time>2020-07-03T07:04:03Z</time>
      </trkpt>
      <trkpt lat="47.65616" lon="1.49051">
        <ele>86.7</ele>
        <time>2020-07-03T07:04:04Z</time>
      </trkpt>
      <trkpt lat="47.65616" lon="1.49048">
        <ele>86.7</ele>
        <time>2020-07-03T07:04:05Z</time>
      </trkpt>
      <trkpt lat="47.65615" lon="1.49043">
        <ele>86.6</ele>
        <time>2020-07-03T07:04:06Z</time>
      </trkpt>
      <trkpt lat="47.65615" lon="1.49042">
        <ele>86.6</ele>
        <time>2020-07-03T07:04:07Z</time>
      </trkpt>
      <trkpt lat="47.65614" lon="1.49036">
        <ele>86.6</ele>
        <time>2020-07-03T07:04:08Z</time>
      </trkpt>
      <trkpt lat="47.65614" lon="1.49035">
        <ele>86.6</ele>
        <time>2020-07-03T07:04:09Z</time>
      </trkpt>
      <trkpt lat="47.65613" lon="1.4903">
        <ele>86.6</ele>
        <time>2020-07-03T07:04:10Z</time>
      </trkpt>
      <trkpt lat="47.6561" lon="1.49024">
        <ele>86.6</ele>
        <time>2020-07-03T07:04:11Z</time>
      </trkpt>
      <trkpt lat="47.65608" lon="1.49018">
        <ele>86.6</ele>
        <time>2020-07-03T07:04:12Z</time>
      </trkpt>
      <trkpt lat="47.65605" lon="1.49012">
        <ele>86.6</ele>
        <time>2020-07-03T07:04:13Z</time>
      </trkpt>
      <trkpt lat="47.65603" lon="1.49006">
        <ele>86.5</ele>
        <time>2020-07-03T07:04:14Z</time>
      </trkpt>
      <trkpt lat="47.656" lon="1.48998">
        <ele>86.5</ele>
        <time>2020-07-03T07:04:15Z</time>
      </trkpt>
      <trkpt lat="47.65598" lon="1.4899">
        <ele>86.5</ele>
        <time>2020-07-03T07:04:16Z</time>
      </trkpt>
      <trkpt lat="47.65596" lon="1.48981">
        <ele>86.5</ele>
        <time>2020-07-03T07:04:17Z</time>
      </trkpt>
      <trkpt lat="47.65593" lon="1.48972">
        <ele>86.5</ele>
        <time>2020-07-03T07:04:18Z</time>
      </trkpt>
      <trkpt lat="47.65591" lon="1.48963">
        <ele>86.6</ele>
        <time>2020-07-03T07:04:19Z</time>
      </trkpt>
      <trkpt lat="47.65589" lon="1.48953">
        <ele>86.6</ele>
        <time>2020-07-03T07:04:20Z</time>
      </trkpt>
      <trkpt lat="47.65587" lon="1.48943">
        <ele>86.7</ele>
        <time>2020-07-03T07:04:21Z</time>
      </trkpt>
      <trkpt lat="47.65586" lon="1.48934">
        <ele>86.7</ele>
        <time>2020-07-03T07:04:22Z</time>
      </trkpt>
      <trkpt lat="47.65585" lon="1.48925">
        <ele>86.8</ele>
        <time>2020-07-03T07:04:23Z</time>
      </trkpt>
      <trkpt lat="47.65585" lon="1.48915">
        <ele>86.8</ele>
        <time>2020-07-03T07:04:24Z</time>
      </trkpt>
      <trkpt lat="47.65584" lon="1.48906">
        <ele>86.9</ele>
        <time>2020-07-03T07:04:25Z</time>
      </trkpt>
      <trkpt lat="47.65584" lon="1.48898">
        <ele>86.9</ele>
        <time>2020-07-03T07:04:26Z</time>
      </trkpt>
      <trkpt lat="47.65583" lon="1.4889">
        <ele>86.9</ele>
        <time>2020-07-03T07:04:27Z</time>
      </trkpt>
      <trkpt lat="47.65583" lon="1.48881">
        <ele>87</ele>
        <time>2020-07-03T07:04:28Z</time>
      </trkpt>
      <trkpt lat="47.65583" lon="1.48873">
        <ele>87</ele>
        <time>2020-07-03T07:04:29Z</time>
      </trkpt>
      <trkpt lat="47.65584" lon="1.48864">
        <ele>87</ele>
        <time>2020-07-03T07:04:30Z</time>
      </trkpt>
      <trkpt lat="47.65583" lon="1.48856">
        <ele>86.9</ele>
        <time>2020-07-03T07:04:31Z</time>
      </trkpt>
      <trkpt lat="47.65582" lon="1.48848">
        <ele>86.9</ele>
        <time>2020-07-03T07:04:32Z</time>
      </trkpt>
      <trkpt lat="47.65582" lon="1.48841">
        <ele>86.8</ele>
        <time>2020-07-03T07:04:33Z</time>
      </trkpt>
      <trkpt lat="47.65582" lon="1.48834">
        <ele>86.8</ele>
        <time>2020-07-03T07:04:34Z</time>
      </trkpt>
      <trkpt lat="47.65582" lon="1.48826">
        <ele>86.8</ele>
        <time>2020-07-03T07:04:35Z</time>
      </trkpt>
      <trkpt lat="47.65582" lon="1.48819">
        <ele>86.7</ele>
        <time>2020-07-03T07:04:36Z</time>
      </trkpt>
      <trkpt lat="47.65582" lon="1.48812">
        <ele>86.7</ele>
        <time>2020-07-03T07:04:37Z</time>
      </trkpt>
      <trkpt lat="47.6558" lon="1.48806">
        <ele>86.7</ele>
        <time>2020-07-03T07:04:38Z</time>
      </trkpt>
      <trkpt lat="47.65578" lon="1.48801">
        <ele>86.7</ele>
        <time>2020-07-03T07:04:39Z</time>
      </trkpt>
      <trkpt lat="47.65576" lon="1.48797">
        <ele>86.7</ele>
        <time>2020-07-03T07:04:40Z</time>
      </trkpt>
      <trkpt lat="47.65574" lon="1.48792">
        <ele>86.7</ele>
        <time>2020-07-03T07:04:41Z</time>
      </trkpt>
      <trkpt lat="47.65573" lon="1.48786">
        <ele>86.6</ele>
        <time>2020-07-03T07:04:42Z</time>
      </trkpt>
      <trkpt lat="47.65572" lon="1.4878">
        <ele>86.5</ele>
        <time>2020-07-03T07:04:43Z</time>
      </trkpt>
      <trkpt lat="47.65571" lon="1.48775">
        <ele>86.4</ele>
        <time>2020-07-03T07:04:44Z</time>
      </trkpt>
      <trkpt lat="47.65569" lon="1.48769">
        <ele>86.4</ele>
        <time>2020-07-03T07:04:45Z</time>
      </trkpt>
      <trkpt lat="47.65566" lon="1.48764">
        <ele>86.4</ele>
        <time>2020-07-03T07:04:46Z</time>
      </trkpt>
      <trkpt lat="47.65564" lon="1.4876">
        <ele>86.3</ele>
        <time>2020-07-03T07:04:47Z</time>
      </trkpt>
      <trkpt lat="47.65562" lon="1.48756">
        <ele>86.3</ele>
        <time>2020-07-03T07:04:48Z</time>
      </trkpt>
      <trkpt lat="47.65559" lon="1.48752">
        <ele>86.3</ele>
        <time>2020-07-03T07:04:49Z</time>
      </trkpt>
      <trkpt lat="47.65556" lon="1.48748">
        <ele>86.3</ele>
        <time>2020-07-03T07:04:50Z</time>
      </trkpt>
      <trkpt lat="47.65555" lon="1.48744">
        <ele>86.2</ele>
        <time>2020-07-03T07:04:51Z</time>
      </trkpt>
      <trkpt lat="47.65553" lon="1.4874">
        <ele>86.2</ele>
        <time>2020-07-03T07:04:52Z</time>
      </trkpt>
      <trkpt lat="47.65552" lon="1.48736">
        <ele>86.2</ele>
        <time>2020-07-03T07:04:53Z</time>
      </trkpt>
      <trkpt lat="47.65551" lon="1.48734">
        <ele>86.2</ele>
        <time>2020-07-03T07:04:54Z</time>
      </trkpt>
      <trkpt lat="47.6555" lon="1.48733">
        <ele>86.2</ele>
        <time>2020-07-03T07:04:55Z</time>
      </trkpt>
      <trkpt lat="47.65548" lon="1.48734">
        <ele>86.2</ele>
        <time>2020-07-03T07:04:56Z</time>
      </trkpt>
      <trkpt lat="47.65547" lon="1.48734">
        <ele>86.2</ele>
        <time>2020-07-03T07:04:57Z</time>
      </trkpt>
      <trkpt lat="47.65547" lon="1.48734">
        <ele>86.2</ele>
        <time>2020-07-03T07:04:58Z</time>
      </trkpt>
      <trkpt lat="47.65547" lon="1.48733">
        <ele>86.2</ele>
        <time>2020-07-03T07:04:59Z</time>
      </trkpt>
      <trkpt lat="47.65547" lon="1.48733">
        <ele>86.2</ele>
        <time>2020-07-03T07:05:00Z</time>
      </trkpt>
      <trkpt lat="47.65547" lon="1.48733">
        <ele>86.2</ele>
        <time>2020-07-03T07:05:01Z</time>
      </trkpt>
      <trkpt lat="47.65547" lon="1.48732">
        <ele>86.2</ele>
        <time>2020-07-03T07:05:02Z</time>
      </trkpt>
      <trkpt lat="47.65546" lon="1.48732">
        <ele>86.2</ele>
        <time>2020-07-03T07:05:03Z</time>
      </trkpt>
      <trkpt lat="47.65546" lon="1.48731">
        <ele>86.1</ele>
        <time>2020-07-03T07:05:04Z</time>
      </trkpt>
      <trkpt lat="47.65546" lon="1.48731">
        <ele>86.1</ele>
        <time>2020-07-03T07:05:05Z</time>
      </trkpt>
      <trkpt lat="47.65546" lon="1.48731">
        <ele>86.1</ele>
        <time>2020-07-03T07:05:06Z</time>
      </trkpt>
      <trkpt lat="47.65546" lon="1.4873">
        <ele>86.1</ele>
        <time>2020-07-03T07:05:07Z</time>
      </trkpt>
      <trkpt lat="47.65546" lon="1.4873">
        <ele>86.1</ele>
        <time>2020-07-03T07:05:08Z</time>
      </trkpt>
      <trkpt lat="47.65546" lon="1.48729">
        <ele>86.1</ele>
        <time>2020-07-03T07:05:09Z</time>
      </trkpt>
      <trkpt lat="47.65545" lon="1.48729">
        <ele>86.1</ele>
        <time>2020-07-03T07:05:10Z</time>
      </trkpt>
      <trkpt lat="47.65545" lon="1.48729">
        <ele>86.1</ele>
        <time>2020-07-03T07:05:11Z</time>
      </trkpt>
      <trkpt lat="47.65545" lon="1.48728">
        <ele>86.1</ele>
        <time>2020-07-03T07:05:12Z</time>
      </trkpt>
      <trkpt lat="47.65545" lon="1.48728">
        <ele>86.1</ele>
        <time>2020-07-03T07:05:13Z</time>
      </trkpt>
      <trkpt lat="47.65545" lon="1.48727">
        <ele>86.1</ele>
        <time>2020-07-03T07:05:14Z</time>
      </trkpt>
      <trkpt lat="47.65545" lon="1.48727">
        <ele>86.1</ele>
        <time>2020-07-03T07:05:15Z</time>
      </trkpt>
      <trkpt lat="47.65545" lon="1.48727">
        <ele>86.1</ele>
        <time>2020-07-03T07:05:16Z</time>
      </trkpt>
      <trkpt lat="47.65544" lon="1.48726">
        <ele>86.1</ele>
        <time>2020-07-03T07:05:17Z</time>
      </trkpt>
      <trkpt lat="47.65544" lon="1.48726">
        <ele>86.1</ele>
        <time>2020-07-03T07:06:08Z</time>
      </trkpt>
      <trkpt lat="47.65544" lon="1.48725">
        <ele>86.1</ele>
        <time>2020-07-03T07:06:09Z</time>
      </trkpt>
      <trkpt lat="47.65541" lon="1.48722">
        <ele>86</ele>
        <time>2020-07-03T07:06:10Z</time>
      </trkpt>
      <trkpt lat="47.6554" lon="1.48718">
        <ele>86</ele>
        <time>2020-07-03T07:06:11Z</time>
      </trkpt>
      <trkpt lat="47.6554" lon="1.48716">
        <ele>86</ele>
        <time>2020-07-03T07:06:12Z</time>
      </trkpt>
      <trkpt lat="47.65538" lon="1.48713">
        <ele>85.9</ele>
        <time>2020-07-03T07:06:13Z</time>
      </trkpt>
      <trkpt lat="47.65537" lon="1.48708">
        <ele>85.9</ele>
        <time>2020-07-03T07:06:14Z</time>
      </trkpt>
      <trkpt lat="47.65536" lon="1.48704">
        <ele>85.8</ele>
        <time>2020-07-03T07:06:15Z</time>
      </trkpt>
      <trkpt lat="47.65535" lon="1.48699">
        <ele>85.8</ele>
        <time>2020-07-03T07:06:16Z</time>
      </trkpt>
      <trkpt lat="47.65533" lon="1.48694">
        <ele>85.7</ele>
        <time>2020-07-03T07:06:17Z</time>
      </trkpt>
      <trkpt lat="47.65532" lon="1.48688">
        <ele>85.6</ele>
        <time>2020-07-03T07:06:18Z</time>
      </trkpt>
      <trkpt lat="47.65531" lon="1.48682">
        <ele>85.6</ele>
        <time>2020-07-03T07:06:19Z</time>
      </trkpt>
      <trkpt lat="47.65529" lon="1.48677">
        <ele>85.6</ele>
        <time>2020-07-03T07:06:20Z</time>
      </trkpt>
      <trkpt lat="47.65528" lon="1.48672">
        <ele>85.5</ele>
        <time>2020-07-03T07:06:21Z</time>
      </trkpt>
      <trkpt lat="47.65527" lon="1.48667">
        <ele>85.5</ele>
        <time>2020-07-03T07:06:22Z</time>
      </trkpt>
      <trkpt lat="47.65525" lon="1.48662">
        <ele>85.4</ele>
        <time>2020-07-03T07:06:23Z</time>
      </trkpt>
      <trkpt lat="47.65524" lon="1.48656">
        <ele>85.3</ele>
        <time>2020-07-03T07:06:24Z</time>
      </trkpt>
      <trkpt lat="47.65521" lon="1.48651">
        <ele>85.2</ele>
        <time>2020-07-03T07:06:25Z</time>
      </trkpt>
      <trkpt lat="47.65519" lon="1.48645">
        <ele>85.1</ele>
        <time>2020-07-03T07:06:26Z</time>
      </trkpt>
      <trkpt lat="47.65516" lon="1.48639">
        <ele>85.1</ele>
        <time>2020-07-03T07:06:27Z</time>
      </trkpt>
      <trkpt lat="47.65513" lon="1.48632">
        <ele>85</ele>
        <time>2020-07-03T07:06:28Z</time>
      </trkpt>
      <trkpt lat="47.6551" lon="1.48625">
        <ele>84.9</ele>
        <time>2020-07-03T07:06:29Z</time>
      </trkpt>
      <trkpt lat="47.65507" lon="1.48618">
        <ele>84.8</ele>
        <time>2020-07-03T07:06:30Z</time>
      </trkpt>
      <trkpt lat="47.65505" lon="1.48611">
        <ele>84.7</ele>
        <time>2020-07-03T07:06:31Z</time>
      </trkpt>
      <trkpt lat="47.65503" lon="1.48603">
        <ele>84.6</ele>
        <time>2020-07-03T07:06:32Z</time>
      </trkpt>
      <trkpt lat="47.655" lon="1.48596">
        <ele>84.5</ele>
        <time>2020-07-03T07:06:33Z</time>
      </trkpt>
      <trkpt lat="47.65496" lon="1.48589">
        <ele>84.4</ele>
        <time>2020-07-03T07:06:34Z</time>
      </trkpt>
      <trkpt lat="47.65494" lon="1.48582">
        <ele>84.3</ele>
        <time>2020-07-03T07:06:35Z</time>
      </trkpt>
      <trkpt lat="47.65491" lon="1.48574">
        <ele>84.3</ele>
        <time>2020-07-03T07:06:36Z</time>
      </trkpt>
      <trkpt lat="47.65488" lon="1.48567">
        <ele>84.2</ele>
        <time>2020-07-03T07:06:37Z</time>
      </trkpt>
      <trkpt lat="47.65485" lon="1.48559">
        <ele>84.1</ele>
        <time>2020-07-03T07:06:38Z</time>
      </trkpt>
      <trkpt lat="47.65481" lon="1.48551">
        <ele>84.1</ele>
        <time>2020-07-03T07:06:39Z</time>
      </trkpt>
      <trkpt lat="47.65477" lon="1.48544">
        <ele>84.1</ele>
        <time>2020-07-03T07:06:40Z</time>
      </trkpt>
      <trkpt lat="47.65473" lon="1.48537">
        <ele>84.1</ele>
        <time>2020-07-03T07:06:41Z</time>
      </trkpt>
      <trkpt lat="47.6547" lon="1.48529">
        <ele>84.2</ele>
        <time>2020-07-03T07:06:42Z</time>
      </trkpt>
      <trkpt lat="47.65467" lon="1.48521">
        <ele>84.3</ele>
        <time>2020-07-03T07:06:43Z</time>
      </trkpt>
      <trkpt lat="47.65463" lon="1.48513">
        <ele>84.3</ele>
        <time>2020-07-03T07:06:44Z</time>
      </trkpt>
      <trkpt lat="47.6546" lon="1.48506">
        <ele>84.3</ele>
        <time>2020-07-03T07:06:45Z</time>
      </trkpt>
      <trkpt lat="47.65457" lon="1.48498">
        <ele>84.2</ele>
        <time>2020-07-03T07:06:46Z</time>
      </trkpt>
      <trkpt lat="47.65455" lon="1.4849">
        <ele>84.1</ele>
        <time>2020-07-03T07:06:47Z</time>
      </trkpt>
      <trkpt lat="47.65452" lon="1.48483">
        <ele>84</ele>
        <time>2020-07-03T07:06:48Z</time>
      </trkpt>
      <trkpt lat="47.65449" lon="1.48476">
        <ele>83.9</ele>
        <time>2020-07-03T07:06:49Z</time>
      </trkpt>
      <trkpt lat="47.65447" lon="1.48468">
        <ele>83.8</ele>
        <time>2020-07-03T07:06:50Z</time>
      </trkpt>
      <trkpt lat="47.65444" lon="1.48461">
        <ele>83.8</ele>
        <time>2020-07-03T07:06:51Z</time>
      </trkpt>
      <trkpt lat="47.65442" lon="1.48453">
        <ele>83.7</ele>
        <time>2020-07-03T07:06:52Z</time>
      </trkpt>
      <trkpt lat="47.6544" lon="1.48447">
        <ele>83.6</ele>
        <time>2020-07-03T07:06:53Z</time>
      </trkpt>
      <trkpt lat="47.65437" lon="1.4844">
        <ele>83.5</ele>
        <time>2020-07-03T07:06:54Z</time>
      </trkpt>
      <trkpt lat="47.65435" lon="1.48433">
        <ele>83.5</ele>
        <time>2020-07-03T07:06:55Z</time>
      </trkpt>
      <trkpt lat="47.65432" lon="1.48426">
        <ele>83.4</ele>
        <time>2020-07-03T07:06:56Z</time>
      </trkpt>
      <trkpt lat="47.65431" lon="1.4842">
        <ele>83.4</ele>
        <time>2020-07-03T07:06:57Z</time>
      </trkpt>
      <trkpt lat="47.65429" lon="1.48413">
        <ele>83.3</ele>
        <time>2020-07-03T07:06:58Z</time>
      </trkpt>
      <trkpt lat="47.65427" lon="1.48406">
        <ele>83.3</ele>
        <time>2020-07-03T07:06:59Z</time>
      </trkpt>
      <trkpt lat="47.65425" lon="1.48399">
        <ele>83.3</ele>
        <time>2020-07-03T07:07:00Z</time>
      </trkpt>
      <trkpt lat="47.65423" lon="1.48393">
        <ele>83.3</ele>
        <time>2020-07-03T07:07:01Z</time>
      </trkpt>
      <trkpt lat="47.6542" lon="1.48386">
        <ele>83.3</ele>
        <time>2020-07-03T07:07:02Z</time>
      </trkpt>
      <trkpt lat="47.65418" lon="1.48379">
        <ele>83.3</ele>
        <time>2020-07-03T07:07:03Z</time>
      </trkpt>
      <trkpt lat="47.65415" lon="1.48372">
        <ele>83.3</ele>
        <time>2020-07-03T07:07:04Z</time>
      </trkpt>
      <trkpt lat="47.65414" lon="1.48364">
        <ele>83.3</ele>
        <time>2020-07-03T07:07:05Z</time>
      </trkpt>
      <trkpt lat="47.65412" lon="1.48357">
        <ele>83.3</ele>
        <time>2020-07-03T07:07:06Z</time>
      </trkpt>
      <trkpt lat="47.6541" lon="1.48349">
        <ele>83.3</ele>
        <time>2020-07-03T07:07:07Z</time>
      </trkpt>
      <trkpt lat="47.65409" lon="1.48341">
        <ele>83.3</ele>
        <time>2020-07-03T07:07:08Z</time>
      </trkpt>
      <trkpt lat="47.65408" lon="1.48333">
        <ele>83.4</ele>
        <time>2020-07-03T07:07:09Z</time>
      </trkpt>
      <trkpt lat="47.65407" lon="1.48325">
        <ele>83.4</ele>
        <time>2020-07-03T07:07:10Z</time>
      </trkpt>
      <trkpt lat="47.65408" lon="1.48318">
        <ele>83.4</ele>
        <time>2020-07-03T07:07:11Z</time>
      </trkpt>
      <trkpt lat="47.65406" lon="1.4831">
        <ele>83.4</ele>
        <time>2020-07-03T07:07:12Z</time>
      </trkpt>
      <trkpt lat="47.65405" lon="1.48303">
        <ele>83.4</ele>
        <time>2020-07-03T07:07:13Z</time>
      </trkpt>
      <trkpt lat="47.65404" lon="1.48295">
        <ele>83.4</ele>
        <time>2020-07-03T07:07:14Z</time>
      </trkpt>
      <trkpt lat="47.65403" lon="1.48287">
        <ele>83.5</ele>
        <time>2020-07-03T07:07:15Z</time>
      </trkpt>
      <trkpt lat="47.65403" lon="1.48278">
        <ele>83.5</ele>
        <time>2020-07-03T07:07:16Z</time>
      </trkpt>
      <trkpt lat="47.65403" lon="1.4827">
        <ele>83.5</ele>
        <time>2020-07-03T07:07:17Z</time>
      </trkpt>
      <trkpt lat="47.65403" lon="1.48263">
        <ele>83.5</ele>
        <time>2020-07-03T07:07:18Z</time>
      </trkpt>
      <trkpt lat="47.65402" lon="1.48254">
        <ele>83.4</ele>
        <time>2020-07-03T07:07:19Z</time>
      </trkpt>
      <trkpt lat="47.65401" lon="1.48246">
        <ele>83.4</ele>
        <time>2020-07-03T07:07:20Z</time>
      </trkpt>
      <trkpt lat="47.65401" lon="1.48237">
        <ele>83.4</ele>
        <time>2020-07-03T07:07:21Z</time>
      </trkpt>
      <trkpt lat="47.65399" lon="1.48228">
        <ele>83.4</ele>
        <time>2020-07-03T07:07:22Z</time>
      </trkpt>
      <trkpt lat="47.65398" lon="1.48219">
        <ele>83.3</ele>
        <time>2020-07-03T07:07:23Z</time>
      </trkpt>
      <trkpt lat="47.65396" lon="1.48209">
        <ele>83.3</ele>
        <time>2020-07-03T07:07:24Z</time>
      </trkpt>
      <trkpt lat="47.65395" lon="1.48199">
        <ele>83.3</ele>
        <time>2020-07-03T07:07:25Z</time>
      </trkpt>
      <trkpt lat="47.65394" lon="1.4819">
        <ele>83.2</ele>
        <time>2020-07-03T07:07:26Z</time>
      </trkpt>
      <trkpt lat="47.65393" lon="1.48182">
        <ele>83.1</ele>
        <time>2020-07-03T07:07:27Z</time>
      </trkpt>
      <trkpt lat="47.65391" lon="1.48171">
        <ele>83</ele>
        <time>2020-07-03T07:07:28Z</time>
      </trkpt>
      <trkpt lat="47.6539" lon="1.48164">
        <ele>83</ele>
        <time>2020-07-03T07:07:29Z</time>
      </trkpt>
      <trkpt lat="47.65389" lon="1.48154">
        <ele>82.9</ele>
        <time>2020-07-03T07:07:30Z</time>
      </trkpt>
      <trkpt lat="47.65387" lon="1.48144">
        <ele>82.8</ele>
        <time>2020-07-03T07:07:31Z</time>
      </trkpt>
      <trkpt lat="47.65384" lon="1.48134">
        <ele>82.7</ele>
        <time>2020-07-03T07:07:32Z</time>
      </trkpt>
      <trkpt lat="47.65382" lon="1.48126">
        <ele>82.6</ele>
        <time>2020-07-03T07:07:33Z</time>
      </trkpt>
      <trkpt lat="47.65379" lon="1.48116">
        <ele>82.4</ele>
        <time>2020-07-03T07:07:34Z</time>
      </trkpt>
      <trkpt lat="47.65376" lon="1.48107">
        <ele>82.3</ele>
        <time>2020-07-03T07:07:35Z</time>
      </trkpt>
      <trkpt lat="47.65373" lon="1.48099">
        <ele>82.1</ele>
        <time>2020-07-03T07:07:36Z</time>
      </trkpt>
      <trkpt lat="47.6537" lon="1.48091">
        <ele>82</ele>
        <time>2020-07-03T07:07:37Z</time>
      </trkpt>
      <trkpt lat="47.65366" lon="1.48081">
        <ele>81.8</ele>
        <time>2020-07-03T07:07:38Z</time>
      </trkpt>
      <trkpt lat="47.65362" lon="1.48073">
        <ele>81.6</ele>
        <time>2020-07-03T07:07:39Z</time>
      </trkpt>
      <trkpt lat="47.65359" lon="1.48066">
        <ele>81.4</ele>
        <time>2020-07-03T07:07:40Z</time>
      </trkpt>
      <trkpt lat="47.65355" lon="1.48058">
        <ele>81.2</ele>
        <time>2020-07-03T07:07:41Z</time>
      </trkpt>
      <trkpt lat="47.6535" lon="1.48051">
        <ele>81</ele>
        <time>2020-07-03T07:07:42Z</time>
      </trkpt>
      <trkpt lat="47.65347" lon="1.48043">
        <ele>80.8</ele>
        <time>2020-07-03T07:07:43Z</time>
      </trkpt>
      <trkpt lat="47.65343" lon="1.48035">
        <ele>80.7</ele>
        <time>2020-07-03T07:07:44Z</time>
      </trkpt>
      <trkpt lat="47.6534" lon="1.48027">
        <ele>80.6</ele>
        <time>2020-07-03T07:07:45Z</time>
      </trkpt>
      <trkpt lat="47.65336" lon="1.4802">
        <ele>80.5</ele>
        <time>2020-07-03T07:07:46Z</time>
      </trkpt>
      <trkpt lat="47.65333" lon="1.48013">
        <ele>80.4</ele>
        <time>2020-07-03T07:07:47Z</time>
      </trkpt>
      <trkpt lat="47.65331" lon="1.48007">
        <ele>80.3</ele>
        <time>2020-07-03T07:07:48Z</time>
      </trkpt>
      <trkpt lat="47.65329" lon="1.48001">
        <ele>80.2</ele>
        <time>2020-07-03T07:07:49Z</time>
      </trkpt>
      <trkpt lat="47.65326" lon="1.47995">
        <ele>80.2</ele>
        <time>2020-07-03T07:07:50Z</time>
      </trkpt>
      <trkpt lat="47.65324" lon="1.47989">
        <ele>80.1</ele>
        <time>2020-07-03T07:07:51Z</time>
      </trkpt>
      <trkpt lat="47.65322" lon="1.47984">
        <ele>80.1</ele>
        <time>2020-07-03T07:07:52Z</time>
      </trkpt>
      <trkpt lat="47.6532" lon="1.47981">
        <ele>80.1</ele>
        <time>2020-07-03T07:07:53Z</time>
      </trkpt>
      <trkpt lat="47.65317" lon="1.47976">
        <ele>80.1</ele>
        <time>2020-07-03T07:07:54Z</time>
      </trkpt>
      <trkpt lat="47.65314" lon="1.4797">
        <ele>80</ele>
        <time>2020-07-03T07:07:55Z</time>
      </trkpt>
      <trkpt lat="47.65311" lon="1.47964">
        <ele>80</ele>
        <time>2020-07-03T07:07:56Z</time>
      </trkpt>
      <trkpt lat="47.65309" lon="1.4796">
        <ele>80.1</ele>
        <time>2020-07-03T07:07:57Z</time>
      </trkpt>
      <trkpt lat="47.65306" lon="1.47956">
        <ele>80.1</ele>
        <time>2020-07-03T07:07:58Z</time>
      </trkpt>
      <trkpt lat="47.65305" lon="1.47952">
        <ele>80.1</ele>
        <time>2020-07-03T07:07:59Z</time>
      </trkpt>
      <trkpt lat="47.65305" lon="1.47948">
        <ele>80.1</ele>
        <time>2020-07-03T07:08:00Z</time>
      </trkpt>
      <trkpt lat="47.65305" lon="1.47946">
        <ele>80.1</ele>
        <time>2020-07-03T07:08:01Z</time>
      </trkpt>
      <trkpt lat="47.65305" lon="1.47946">
        <ele>80.1</ele>
        <time>2020-07-03T07:08:02Z</time>
      </trkpt>
      <trkpt lat="47.65305" lon="1.47945">
        <ele>80.1</ele>
        <time>2020-07-03T07:08:03Z</time>
      </trkpt>
      <trkpt lat="47.65305" lon="1.47944">
        <ele>80.1</ele>
        <time>2020-07-03T07:08:04Z</time>
      </trkpt>
      <trkpt lat="47.65305" lon="1.47944">
        <ele>80.1</ele>
        <time>2020-07-03T07:08:05Z</time>
      </trkpt>
      <trkpt lat="47.65304" lon="1.47943">
        <ele>80.1</ele>
        <time>2020-07-03T07:08:06Z</time>
      </trkpt>
      <trkpt lat="47.65304" lon="1.47943">
        <ele>80.1</ele>
        <time>2020-07-03T07:08:07Z</time>
      </trkpt>
      <trkpt lat="47.65304" lon="1.47942">
        <ele>80.1</ele>
        <time>2020-07-03T07:08:08Z</time>
      </trkpt>
      <trkpt lat="47.65305" lon="1.47943">
        <ele>80</ele>
        <time>2020-07-03T07:08:09Z</time>
      </trkpt>
      <trkpt lat="47.65305" lon="1.47944">
        <ele>80</ele>
        <time>2020-07-03T07:08:10Z</time>
      </trkpt>
      <trkpt lat="47.65306" lon="1.47943">
        <ele>80</ele>
        <time>2020-07-03T07:08:11Z</time>
      </trkpt>
      <trkpt lat="47.65306" lon="1.47942">
        <ele>80</ele>
        <time>2020-07-03T07:08:12Z</time>
      </trkpt>
      <trkpt lat="47.65306" lon="1.47943">
        <ele>80</ele>
        <time>2020-07-03T07:08:13Z</time>
      </trkpt>
      <trkpt lat="47.65306" lon="1.47944">
        <ele>80</ele>
        <time>2020-07-03T07:08:14Z</time>
      </trkpt>
      <trkpt lat="47.65306" lon="1.47944">
        <ele>80</ele>
        <time>2020-07-03T07:08:15Z</time>
      </trkpt>
      <trkpt lat="47.65306" lon="1.47944">
        <ele>80</ele>
        <time>2020-07-03T07:08:16Z</time>
      </trkpt>
      <trkpt lat="47.65306" lon="1.47944">
        <ele>80</ele>
        <time>2020-07-03T07:08:18Z</time>
      </trkpt>
      <trkpt lat="47.65303" lon="1.47939">
        <ele>79.9</ele>
        <time>2020-07-03T07:10:59Z</time>
      </trkpt>
      <trkpt lat="47.65301" lon="1.47936">
        <ele>79.8</ele>
        <time>2020-07-03T07:11:00Z</time>
      </trkpt>
      <trkpt lat="47.65299" lon="1.47932">
        <ele>79.7</ele>
        <time>2020-07-03T07:11:01Z</time>
      </trkpt>
      <trkpt lat="47.65297" lon="1.47927">
        <ele>79.7</ele>
        <time>2020-07-03T07:11:02Z</time>
      </trkpt>
      <trkpt lat="47.65294" lon="1.47922">
        <ele>79.6</ele>
        <time>2020-07-03T07:11:03Z</time>
      </trkpt>
      <trkpt lat="47.65291" lon="1.47917">
        <ele>79.5</ele>
        <time>2020-07-03T07:11:04Z</time>
      </trkpt>
      <trkpt lat="47.6529" lon="1.47911">
        <ele>79.5</ele>
        <time>2020-07-03T07:11:05Z</time>
      </trkpt>
      <trkpt lat="47.65288" lon="1.47908">
        <ele>79.4</ele>
        <time>2020-07-03T07:11:06Z</time>
      </trkpt>
      <trkpt lat="47.65288" lon="1.47905">
        <ele>79.4</ele>
        <time>2020-07-03T07:11:07Z</time>
      </trkpt>
      <trkpt lat="47.65288" lon="1.47904">
        <ele>79.4</ele>
        <time>2020-07-03T07:11:08Z</time>
      </trkpt>
      <trkpt lat="47.65288" lon="1.47904">
        <ele>79.4</ele>
        <time>2020-07-03T07:11:09Z</time>
      </trkpt>
      <trkpt lat="47.65289" lon="1.47905">
        <ele>79.4</ele>
        <time>2020-07-03T07:11:10Z</time>
      </trkpt>
      <trkpt lat="47.65289" lon="1.47905">
        <ele>79.4</ele>
        <time>2020-07-03T07:11:11Z</time>
      </trkpt>
      <trkpt lat="47.65289" lon="1.47904">
        <ele>79.4</ele>
        <time>2020-07-03T07:11:12Z</time>
      </trkpt>
      <trkpt lat="47.65289" lon="1.47905">
        <ele>79.4</ele>
        <time>2020-07-03T07:11:13Z</time>
      </trkpt>
      <trkpt lat="47.65289" lon="1.47906">
        <ele>79.4</ele>
        <time>2020-07-03T07:11:14Z</time>
      </trkpt>
      <trkpt lat="47.65289" lon="1.47906">
        <ele>79.4</ele>
        <time>2020-07-03T07:11:15Z</time>
      </trkpt>
      <trkpt lat="47.65289" lon="1.47906">
        <ele>79.4</ele>
        <time>2020-07-03T07:11:16Z</time>
      </trkpt>
      <trkpt lat="47.6529" lon="1.47906">
        <ele>79.4</ele>
        <time>2020-07-03T07:11:17Z</time>
      </trkpt>
      <trkpt lat="47.65289" lon="1.47906">
        <ele>79.4</ele>
        <time>2020-07-03T07:11:18Z</time>
      </trkpt>
      <trkpt lat="47.65289" lon="1.47905">
        <ele>79.4</ele>
        <time>2020-07-03T07:11:19Z</time>
      </trkpt>
      <trkpt lat="47.65286" lon="1.47898">
        <ele>79.3</ele>
        <time>2020-07-03T07:11:32Z</time>
      </trkpt>
      <trkpt lat="47.65285" lon="1.47895">
        <ele>79.3</ele>
        <time>2020-07-03T07:11:33Z</time>
      </trkpt>
      <trkpt lat="47.65283" lon="1.47889">
        <ele>79.3</ele>
        <time>2020-07-03T07:11:34Z</time>
      </trkpt>
      <trkpt lat="47.65282" lon="1.47886">
        <ele>79.3</ele>
        <time>2020-07-03T07:11:35Z</time>
      </trkpt>
      <trkpt lat="47.6528" lon="1.47881">
        <ele>79.3</ele>
        <time>2020-07-03T07:11:36Z</time>
      </trkpt>
      <trkpt lat="47.65279" lon="1.47876">
        <ele>79.2</ele>
        <time>2020-07-03T07:11:37Z</time>
      </trkpt>
      <trkpt lat="47.65276" lon="1.4787">
        <ele>79.2</ele>
        <time>2020-07-03T07:11:38Z</time>
      </trkpt>
      <trkpt lat="47.65274" lon="1.47866">
        <ele>79.2</ele>
        <time>2020-07-03T07:11:39Z</time>
      </trkpt>
      <trkpt lat="47.65272" lon="1.47861">
        <ele>79.2</ele>
        <time>2020-07-03T07:11:40Z</time>
      </trkpt>
      <trkpt lat="47.6527" lon="1.47857">
        <ele>79.2</ele>
        <time>2020-07-03T07:11:41Z</time>
      </trkpt>
      <trkpt lat="47.65268" lon="1.47852">
        <ele>79.2</ele>
        <time>2020-07-03T07:11:42Z</time>
      </trkpt>
      <trkpt lat="47.65267" lon="1.4785">
        <ele>79.2</ele>
        <time>2020-07-03T07:11:43Z</time>
      </trkpt>
      <trkpt lat="47.65266" lon="1.47848">
        <ele>79.2</ele>
        <time>2020-07-03T07:11:44Z</time>
      </trkpt>
      <trkpt lat="47.65266" lon="1.47846">
        <ele>79.2</ele>
        <time>2020-07-03T07:11:45Z</time>
      </trkpt>
      <trkpt lat="47.65266" lon="1.47846">
        <ele>79.2</ele>
        <time>2020-07-03T07:11:46Z</time>
      </trkpt>
      <trkpt lat="47.65267" lon="1.47847">
        <ele>79.2</ele>
        <time>2020-07-03T07:11:47Z</time>
      </trkpt>
      <trkpt lat="47.65267" lon="1.47848">
        <ele>79.2</ele>
        <time>2020-07-03T07:11:48Z</time>
      </trkpt>
      <trkpt lat="47.65267" lon="1.47849">
        <ele>79.2</ele>
        <time>2020-07-03T07:11:49Z</time>
      </trkpt>
      <trkpt lat="47.65268" lon="1.47849">
        <ele>79.2</ele>
        <time>2020-07-03T07:11:50Z</time>
      </trkpt>
      <trkpt lat="47.65268" lon="1.4785">
        <ele>79.2</ele>
        <time>2020-07-03T07:11:51Z</time>
      </trkpt>
      <trkpt lat="47.65268" lon="1.4785">
        <ele>79.2</ele>
        <time>2020-07-03T07:11:52Z</time>
      </trkpt>
      <trkpt lat="47.65268" lon="1.4785">
        <ele>79.2</ele>
        <time>2020-07-03T07:11:53Z</time>
      </trkpt>
      <trkpt lat="47.65269" lon="1.4785">
        <ele>79.2</ele>
        <time>2020-07-03T07:11:54Z</time>
      </trkpt>
      <trkpt lat="47.65269" lon="1.4785">
        <ele>79.2</ele>
        <time>2020-07-03T07:11:55Z</time>
      </trkpt>
      <trkpt lat="47.65267" lon="1.47845">
        <ele>79.1</ele>
        <time>2020-07-03T07:12:02Z</time>
      </trkpt>
      <trkpt lat="47.65266" lon="1.47843">
        <ele>79.1</ele>
        <time>2020-07-03T07:12:03Z</time>
      </trkpt>
      <trkpt lat="47.65265" lon="1.47839">
        <ele>79.1</ele>
        <time>2020-07-03T07:12:04Z</time>
      </trkpt>
      <trkpt lat="47.65264" lon="1.47837">
        <ele>79.1</ele>
        <time>2020-07-03T07:12:05Z</time>
      </trkpt>
      <trkpt lat="47.65263" lon="1.47832">
        <ele>79.1</ele>
        <time>2020-07-03T07:12:06Z</time>
      </trkpt>
      <trkpt lat="47.65262" lon="1.4783">
        <ele>79.1</ele>
        <time>2020-07-03T07:12:07Z</time>
      </trkpt>
      <trkpt lat="47.6526" lon="1.47826">
        <ele>79.1</ele>
        <time>2020-07-03T07:12:08Z</time>
      </trkpt>
      <trkpt lat="47.65257" lon="1.47819">
        <ele>79.1</ele>
        <time>2020-07-03T07:12:09Z</time>
      </trkpt>
      <trkpt lat="47.65255" lon="1.47812">
        <ele>79.1</ele>
        <time>2020-07-03T07:12:10Z</time>
      </trkpt>
      <trkpt lat="47.65253" lon="1.47804">
        <ele>79.1</ele>
        <time>2020-07-03T07:12:11Z</time>
      </trkpt>
      <trkpt lat="47.6525" lon="1.47797">
        <ele>79.1</ele>
        <time>2020-07-03T07:12:12Z</time>
      </trkpt>
      <trkpt lat="47.65246" lon="1.4779">
        <ele>79.1</ele>
        <time>2020-07-03T07:12:13Z</time>
      </trkpt>
      <trkpt lat="47.65244" lon="1.47782">
        <ele>79.2</ele>
        <time>2020-07-03T07:12:14Z</time>
      </trkpt>
      <trkpt lat="47.65241" lon="1.47776">
        <ele>79.2</ele>
        <time>2020-07-03T07:12:15Z</time>
      </trkpt>
      <trkpt lat="47.65238" lon="1.47769">
        <ele>79.2</ele>
        <time>2020-07-03T07:12:16Z</time>
      </trkpt>
      <trkpt lat="47.65235" lon="1.47761">
        <ele>79.3</ele>
        <time>2020-07-03T07:12:17Z</time>
      </trkpt>
      <trkpt lat="47.65232" lon="1.47754">
        <ele>79.4</ele>
        <time>2020-07-03T07:12:18Z</time>
      </trkpt>
      <trkpt lat="47.6523" lon="1.47745">
        <ele>79.5</ele>
        <time>2020-07-03T07:12:19Z</time>
      </trkpt>
      <trkpt lat="47.65228" lon="1.47736">
        <ele>79.5</ele>
        <time>2020-07-03T07:12:20Z</time>
      </trkpt>
      <trkpt lat="47.65226" lon="1.47727">
        <ele>79.6</ele>
        <time>2020-07-03T07:12:21Z</time>
      </trkpt>
      <trkpt lat="47.65225" lon="1.47718">
        <ele>79.7</ele>
        <time>2020-07-03T07:12:22Z</time>
      </trkpt>
      <trkpt lat="47.65224" lon="1.4771">
        <ele>79.7</ele>
        <time>2020-07-03T07:12:23Z</time>
      </trkpt>
      <trkpt lat="47.65222" lon="1.477">
        <ele>79.8</ele>
        <time>2020-07-03T07:12:24Z</time>
      </trkpt>
      <trkpt lat="47.65221" lon="1.47691">
        <ele>79.9</ele>
        <time>2020-07-03T07:12:25Z</time>
      </trkpt>
      <trkpt lat="47.65219" lon="1.47682">
        <ele>79.9</ele>
        <time>2020-07-03T07:12:26Z</time>
      </trkpt>
      <trkpt lat="47.65217" lon="1.47673">
        <ele>80</ele>
        <time>2020-07-03T07:12:27Z</time>
      </trkpt>
      <trkpt lat="47.65217" lon="1.47665">
        <ele>80</ele>
        <time>2020-07-03T07:12:28Z</time>
      </trkpt>
      <trkpt lat="47.65216" lon="1.47655">
        <ele>80.1</ele>
        <time>2020-07-03T07:12:29Z</time>
      </trkpt>
      <trkpt lat="47.65215" lon="1.47646">
        <ele>80.1</ele>
        <time>2020-07-03T07:12:30Z</time>
      </trkpt>
      <trkpt lat="47.65215" lon="1.47638">
        <ele>80.2</ele>
        <time>2020-07-03T07:12:31Z</time>
      </trkpt>
      <trkpt lat="47.65214" lon="1.4763">
        <ele>80.2</ele>
        <time>2020-07-03T07:12:32Z</time>
      </trkpt>
      <trkpt lat="47.65213" lon="1.47621">
        <ele>80.2</ele>
        <time>2020-07-03T07:12:33Z</time>
      </trkpt>
      <trkpt lat="47.65212" lon="1.47613">
        <ele>80.2</ele>
        <time>2020-07-03T07:12:34Z</time>
      </trkpt>
      <trkpt lat="47.65212" lon="1.47605">
        <ele>80.2</ele>
        <time>2020-07-03T07:12:35Z</time>
      </trkpt>
      <trkpt lat="47.65211" lon="1.47596">
        <ele>80.2</ele>
        <time>2020-07-03T07:12:36Z</time>
      </trkpt>
      <trkpt lat="47.6521" lon="1.47588">
        <ele>80.2</ele>
        <time>2020-07-03T07:12:37Z</time>
      </trkpt>
      <trkpt lat="47.65209" lon="1.47578">
        <ele>80.2</ele>
        <time>2020-07-03T07:12:38Z</time>
      </trkpt>
      <trkpt lat="47.65209" lon="1.47569">
        <ele>80.2</ele>
        <time>2020-07-03T07:12:39Z</time>
      </trkpt>
      <trkpt lat="47.65209" lon="1.4756">
        <ele>80.2</ele>
        <time>2020-07-03T07:12:40Z</time>
      </trkpt>
      <trkpt lat="47.65208" lon="1.4755">
        <ele>80.2</ele>
        <time>2020-07-03T07:12:41Z</time>
      </trkpt>
      <trkpt lat="47.65208" lon="1.47542">
        <ele>80.2</ele>
        <time>2020-07-03T07:12:42Z</time>
      </trkpt>
      <trkpt lat="47.65207" lon="1.47532">
        <ele>80.2</ele>
        <time>2020-07-03T07:12:43Z</time>
      </trkpt>
      <trkpt lat="47.65207" lon="1.47521">
        <ele>80.1</ele>
        <time>2020-07-03T07:12:44Z</time>
      </trkpt>
      <trkpt lat="47.65207" lon="1.47511">
        <ele>80.1</ele>
        <time>2020-07-03T07:12:45Z</time>
      </trkpt>
      <trkpt lat="47.65207" lon="1.47501">
        <ele>80.1</ele>
        <time>2020-07-03T07:12:46Z</time>
      </trkpt>
      <trkpt lat="47.65207" lon="1.47492">
        <ele>80.1</ele>
        <time>2020-07-03T07:12:47Z</time>
      </trkpt>
      <trkpt lat="47.65207" lon="1.47483">
        <ele>80</ele>
        <time>2020-07-03T07:12:48Z</time>
      </trkpt>
      <trkpt lat="47.65207" lon="1.47473">
        <ele>80</ele>
        <time>2020-07-03T07:12:49Z</time>
      </trkpt>
      <trkpt lat="47.65207" lon="1.47464">
        <ele>80</ele>
        <time>2020-07-03T07:12:50Z</time>
      </trkpt>
      <trkpt lat="47.65207" lon="1.47455">
        <ele>80</ele>
        <time>2020-07-03T07:12:51Z</time>
      </trkpt>
      <trkpt lat="47.65206" lon="1.47446">
        <ele>80</ele>
        <time>2020-07-03T07:12:52Z</time>
      </trkpt>
      <trkpt lat="47.65205" lon="1.47436">
        <ele>80.1</ele>
        <time>2020-07-03T07:12:53Z</time>
      </trkpt>
      <trkpt lat="47.65203" lon="1.47427">
        <ele>80</ele>
        <time>2020-07-03T07:12:54Z</time>
      </trkpt>
      <trkpt lat="47.65202" lon="1.47418">
        <ele>80</ele>
        <time>2020-07-03T07:12:55Z</time>
      </trkpt>
      <trkpt lat="47.652" lon="1.47409">
        <ele>80</ele>
        <time>2020-07-03T07:12:56Z</time>
      </trkpt>
      <trkpt lat="47.65198" lon="1.47399">
        <ele>80</ele>
        <time>2020-07-03T07:12:57Z</time>
      </trkpt>
      <trkpt lat="47.65196" lon="1.4739">
        <ele>80</ele>
        <time>2020-07-03T07:12:58Z</time>
      </trkpt>
      <trkpt lat="47.65193" lon="1.47381">
        <ele>80</ele>
        <time>2020-07-03T07:12:59Z</time>
      </trkpt>
      <trkpt lat="47.65191" lon="1.47372">
        <ele>80</ele>
        <time>2020-07-03T07:13:00Z</time>
      </trkpt>
      <trkpt lat="47.65188" lon="1.47363">
        <ele>80</ele>
        <time>2020-07-03T07:13:01Z</time>
      </trkpt>
      <trkpt lat="47.65186" lon="1.47353">
        <ele>80</ele>
        <time>2020-07-03T07:13:02Z</time>
      </trkpt>
      <trkpt lat="47.65183" lon="1.47345">
        <ele>80</ele>
        <time>2020-07-03T07:13:03Z</time>
      </trkpt>
      <trkpt lat="47.65181" lon="1.47336">
        <ele>80.1</ele>
        <time>2020-07-03T07:13:04Z</time>
      </trkpt>
      <trkpt lat="47.65178" lon="1.47327">
        <ele>80.1</ele>
        <time>2020-07-03T07:13:05Z</time>
      </trkpt>
      <trkpt lat="47.65176" lon="1.47319">
        <ele>80.2</ele>
        <time>2020-07-03T07:13:06Z</time>
      </trkpt>
      <trkpt lat="47.65174" lon="1.4731">
        <ele>80.2</ele>
        <time>2020-07-03T07:13:07Z</time>
      </trkpt>
      <trkpt lat="47.65171" lon="1.47302">
        <ele>80.4</ele>
        <time>2020-07-03T07:13:08Z</time>
      </trkpt>
      <trkpt lat="47.65169" lon="1.47294">
        <ele>80.5</ele>
        <time>2020-07-03T07:13:09Z</time>
      </trkpt>
      <trkpt lat="47.65166" lon="1.47285">
        <ele>80.6</ele>
        <time>2020-07-03T07:13:10Z</time>
      </trkpt>
      <trkpt lat="47.65164" lon="1.47277">
        <ele>80.8</ele>
        <time>2020-07-03T07:13:11Z</time>
      </trkpt>
      <trkpt lat="47.65161" lon="1.47269">
        <ele>80.9</ele>
        <time>2020-07-03T07:13:12Z</time>
      </trkpt>
      <trkpt lat="47.65159" lon="1.4726">
        <ele>81</ele>
        <time>2020-07-03T07:13:13Z</time>
      </trkpt>
      <trkpt lat="47.65156" lon="1.47252">
        <ele>81.1</ele>
        <time>2020-07-03T07:13:14Z</time>
      </trkpt>
      <trkpt lat="47.65154" lon="1.47246">
        <ele>81.2</ele>
        <time>2020-07-03T07:13:15Z</time>
      </trkpt>
      <trkpt lat="47.65151" lon="1.47239">
        <ele>81.3</ele>
        <time>2020-07-03T07:13:16Z</time>
      </trkpt>
      <trkpt lat="47.65147" lon="1.47232">
        <ele>81.4</ele>
        <time>2020-07-03T07:13:17Z</time>
      </trkpt>
      <trkpt lat="47.65146" lon="1.47228">
        <ele>81.4</ele>
        <time>2020-07-03T07:13:18Z</time>
      </trkpt>
      <trkpt lat="47.65144" lon="1.47222">
        <ele>81.5</ele>
        <time>2020-07-03T07:13:19Z</time>
      </trkpt>
      <trkpt lat="47.65141" lon="1.47217">
        <ele>81.5</ele>
        <time>2020-07-03T07:13:20Z</time>
      </trkpt>
      <trkpt lat="47.65139" lon="1.47211">
        <ele>81.5</ele>
        <time>2020-07-03T07:13:21Z</time>
      </trkpt>
      <trkpt lat="47.65137" lon="1.47205">
        <ele>81.5</ele>
        <time>2020-07-03T07:13:22Z</time>
      </trkpt>
      <trkpt lat="47.65135" lon="1.47198">
        <ele>81.5</ele>
        <time>2020-07-03T07:13:23Z</time>
      </trkpt>
      <trkpt lat="47.65133" lon="1.47191">
        <ele>81.5</ele>
        <time>2020-07-03T07:13:24Z</time>
      </trkpt>
      <trkpt lat="47.6513" lon="1.47185">
        <ele>81.5</ele>
        <time>2020-07-03T07:13:25Z</time>
      </trkpt>
      <trkpt lat="47.65128" lon="1.47179">
        <ele>81.5</ele>
        <time>2020-07-03T07:13:26Z</time>
      </trkpt>
      <trkpt lat="47.65126" lon="1.47171">
        <ele>81.5</ele>
        <time>2020-07-03T07:13:27Z</time>
      </trkpt>
      <trkpt lat="47.65123" lon="1.47163">
        <ele>81.5</ele>
        <time>2020-07-03T07:13:28Z</time>
      </trkpt>
      <trkpt lat="47.65121" lon="1.47153">
        <ele>81.5</ele>
        <time>2020-07-03T07:13:29Z</time>
      </trkpt>
      <trkpt lat="47.65119" lon="1.47145">
        <ele>81.5</ele>
        <time>2020-07-03T07:13:30Z</time>
      </trkpt>
      <trkpt lat="47.65117" lon="1.47136">
        <ele>81.4</ele>
        <time>2020-07-03T07:13:31Z</time>
      </trkpt>
      <trkpt lat="47.65115" lon="1.47129">
        <ele>81.4</ele>
        <time>2020-07-03T07:13:32Z</time>
      </trkpt>
      <trkpt lat="47.65113" lon="1.47121">
        <ele>81.3</ele>
        <time>2020-07-03T07:13:33Z</time>
      </trkpt>
      <trkpt lat="47.6511" lon="1.47113">
        <ele>81.2</ele>
        <time>2020-07-03T07:13:34Z</time>
      </trkpt>
      <trkpt lat="47.65107" lon="1.47105">
        <ele>81.2</ele>
        <time>2020-07-03T07:13:35Z</time>
      </trkpt>
      <trkpt lat="47.65104" lon="1.47099">
        <ele>81.2</ele>
        <time>2020-07-03T07:13:36Z</time>
      </trkpt>
      <trkpt lat="47.65101" lon="1.47093">
        <ele>81.1</ele>
        <time>2020-07-03T07:13:37Z</time>
      </trkpt>
      <trkpt lat="47.65098" lon="1.47086">
        <ele>81.1</ele>
        <time>2020-07-03T07:13:38Z</time>
      </trkpt>
      <trkpt lat="47.65095" lon="1.47079">
        <ele>81</ele>
        <time>2020-07-03T07:13:39Z</time>
      </trkpt>
      <trkpt lat="47.65092" lon="1.47071">
        <ele>81.2</ele>
        <time>2020-07-03T07:13:40Z</time>
      </trkpt>
      <trkpt lat="47.65088" lon="1.47064">
        <ele>81.3</ele>
        <time>2020-07-03T07:13:41Z</time>
      </trkpt>
      <trkpt lat="47.65085" lon="1.47057">
        <ele>81.4</ele>
        <time>2020-07-03T07:13:42Z</time>
      </trkpt>
      <trkpt lat="47.65082" lon="1.47052">
        <ele>81.5</ele>
        <time>2020-07-03T07:13:43Z</time>
      </trkpt>
      <trkpt lat="47.65079" lon="1.47046">
        <ele>81.6</ele>
        <time>2020-07-03T07:13:44Z</time>
      </trkpt>
      <trkpt lat="47.65076" lon="1.4704">
        <ele>81.7</ele>
        <time>2020-07-03T07:13:45Z</time>
      </trkpt>
      <trkpt lat="47.65075" lon="1.47036">
        <ele>81.7</ele>
        <time>2020-07-03T07:13:46Z</time>
      </trkpt>
      <trkpt lat="47.65073" lon="1.47032">
        <ele>81.8</ele>
        <time>2020-07-03T07:13:47Z</time>
      </trkpt>
      <trkpt lat="47.65071" lon="1.47027">
        <ele>81.8</ele>
        <time>2020-07-03T07:13:48Z</time>
      </trkpt>
      <trkpt lat="47.65069" lon="1.4702">
        <ele>81.9</ele>
        <time>2020-07-03T07:13:49Z</time>
      </trkpt>
      <trkpt lat="47.65068" lon="1.47014">
        <ele>82</ele>
        <time>2020-07-03T07:13:50Z</time>
      </trkpt>
      <trkpt lat="47.65067" lon="1.47007">
        <ele>82.1</ele>
        <time>2020-07-03T07:13:51Z</time>
      </trkpt>
      <trkpt lat="47.65065" lon="1.47001">
        <ele>82.2</ele>
        <time>2020-07-03T07:13:52Z</time>
      </trkpt>
      <trkpt lat="47.65063" lon="1.46996">
        <ele>82.2</ele>
        <time>2020-07-03T07:13:53Z</time>
      </trkpt>
      <trkpt lat="47.65061" lon="1.46991">
        <ele>82.3</ele>
        <time>2020-07-03T07:13:54Z</time>
      </trkpt>
      <trkpt lat="47.6506" lon="1.46986">
        <ele>82.4</ele>
        <time>2020-07-03T07:13:55Z</time>
      </trkpt>
      <trkpt lat="47.65058" lon="1.46982">
        <ele>82.5</ele>
        <time>2020-07-03T07:13:56Z</time>
      </trkpt>
      <trkpt lat="47.65056" lon="1.46976">
        <ele>82.5</ele>
        <time>2020-07-03T07:13:57Z</time>
      </trkpt>
      <trkpt lat="47.65055" lon="1.4697">
        <ele>82.6</ele>
        <time>2020-07-03T07:13:58Z</time>
      </trkpt>
      <trkpt lat="47.65053" lon="1.46964">
        <ele>82.6</ele>
        <time>2020-07-03T07:13:59Z</time>
      </trkpt>
      <trkpt lat="47.65051" lon="1.46959">
        <ele>82.7</ele>
        <time>2020-07-03T07:14:00Z</time>
      </trkpt>
      <trkpt lat="47.65048" lon="1.46951">
        <ele>82.8</ele>
        <time>2020-07-03T07:14:01Z</time>
      </trkpt>
      <trkpt lat="47.65045" lon="1.46946">
        <ele>82.8</ele>
        <time>2020-07-03T07:14:02Z</time>
      </trkpt>
      <trkpt lat="47.65042" lon="1.46941">
        <ele>82.9</ele>
        <time>2020-07-03T07:14:03Z</time>
      </trkpt>
      <trkpt lat="47.6504" lon="1.46935">
        <ele>83</ele>
        <time>2020-07-03T07:14:04Z</time>
      </trkpt>
      <trkpt lat="47.65038" lon="1.46928">
        <ele>83.1</ele>
        <time>2020-07-03T07:14:05Z</time>
      </trkpt>
      <trkpt lat="47.65037" lon="1.46921">
        <ele>83.2</ele>
        <time>2020-07-03T07:14:06Z</time>
      </trkpt>
      <trkpt lat="47.65035" lon="1.46914">
        <ele>83.2</ele>
        <time>2020-07-03T07:14:07Z</time>
      </trkpt>
      <trkpt lat="47.65033" lon="1.46906">
        <ele>83.3</ele>
        <time>2020-07-03T07:14:08Z</time>
      </trkpt>
      <trkpt lat="47.65031" lon="1.469">
        <ele>83.4</ele>
        <time>2020-07-03T07:14:09Z</time>
      </trkpt>
      <trkpt lat="47.6503" lon="1.46893">
        <ele>83.5</ele>
        <time>2020-07-03T07:14:10Z</time>
      </trkpt>
      <trkpt lat="47.65028" lon="1.46884">
        <ele>83.6</ele>
        <time>2020-07-03T07:14:11Z</time>
      </trkpt>
      <trkpt lat="47.65026" lon="1.46877">
        <ele>83.7</ele>
        <time>2020-07-03T07:14:12Z</time>
      </trkpt>
      <trkpt lat="47.65023" lon="1.46869">
        <ele>83.8</ele>
        <time>2020-07-03T07:14:13Z</time>
      </trkpt>
      <trkpt lat="47.65021" lon="1.46862">
        <ele>83.8</ele>
        <time>2020-07-03T07:14:14Z</time>
      </trkpt>
      <trkpt lat="47.65019" lon="1.46856">
        <ele>83.9</ele>
        <time>2020-07-03T07:14:15Z</time>
      </trkpt>
      <trkpt lat="47.65017" lon="1.4685">
        <ele>83.9</ele>
        <time>2020-07-03T07:14:16Z</time>
      </trkpt>
      <trkpt lat="47.65016" lon="1.46843">
        <ele>84</ele>
        <time>2020-07-03T07:14:17Z</time>
      </trkpt>
      <trkpt lat="47.65014" lon="1.46837">
        <ele>84</ele>
        <time>2020-07-03T07:14:18Z</time>
      </trkpt>
      <trkpt lat="47.65012" lon="1.46829">
        <ele>84.1</ele>
        <time>2020-07-03T07:14:19Z</time>
      </trkpt>
      <trkpt lat="47.65009" lon="1.46821">
        <ele>84.2</ele>
        <time>2020-07-03T07:14:20Z</time>
      </trkpt>
      <trkpt lat="47.65007" lon="1.46811">
        <ele>84.2</ele>
        <time>2020-07-03T07:14:21Z</time>
      </trkpt>
      <trkpt lat="47.65004" lon="1.46803">
        <ele>84.3</ele>
        <time>2020-07-03T07:14:22Z</time>
      </trkpt>
      <trkpt lat="47.65002" lon="1.46795">
        <ele>84.3</ele>
        <time>2020-07-03T07:14:23Z</time>
      </trkpt>
      <trkpt lat="47.64999" lon="1.46789">
        <ele>84.3</ele>
        <time>2020-07-03T07:14:24Z</time>
      </trkpt>
      <trkpt lat="47.64997" lon="1.46783">
        <ele>84.4</ele>
        <time>2020-07-03T07:14:25Z</time>
      </trkpt>
      <trkpt lat="47.64994" lon="1.46774">
        <ele>84.5</ele>
        <time>2020-07-03T07:14:26Z</time>
      </trkpt>
      <trkpt lat="47.64992" lon="1.46767">
        <ele>84.5</ele>
        <time>2020-07-03T07:14:27Z</time>
      </trkpt>
      <trkpt lat="47.64989" lon="1.4676">
        <ele>84.6</ele>
        <time>2020-07-03T07:14:28Z</time>
      </trkpt>
      <trkpt lat="47.64987" lon="1.46753">
        <ele>84.7</ele>
        <time>2020-07-03T07:14:29Z</time>
      </trkpt>
      <trkpt lat="47.64984" lon="1.46745">
        <ele>84.8</ele>
        <time>2020-07-03T07:14:30Z</time>
      </trkpt>
      <trkpt lat="47.64981" lon="1.46736">
        <ele>84.8</ele>
        <time>2020-07-03T07:14:31Z</time>
      </trkpt>
      <trkpt lat="47.64979" lon="1.46726">
        <ele>84.8</ele>
        <time>2020-07-03T07:14:32Z</time>
      </trkpt>
      <trkpt lat="47.64977" lon="1.46716">
        <ele>84.9</ele>
        <time>2020-07-03T07:14:33Z</time>
      </trkpt>
      <trkpt lat="47.64976" lon="1.46707">
        <ele>84.9</ele>
        <time>2020-07-03T07:14:34Z</time>
      </trkpt>
      <trkpt lat="47.64974" lon="1.467">
        <ele>85</ele>
        <time>2020-07-03T07:14:35Z</time>
      </trkpt>
      <trkpt lat="47.64971" lon="1.46692">
        <ele>85</ele>
        <time>2020-07-03T07:14:36Z</time>
      </trkpt>
      <trkpt lat="47.6497" lon="1.46687">
        <ele>85</ele>
        <time>2020-07-03T07:14:37Z</time>
      </trkpt>
      <trkpt lat="47.64968" lon="1.46679">
        <ele>85</ele>
        <time>2020-07-03T07:14:38Z</time>
      </trkpt>
      <trkpt lat="47.64965" lon="1.46672">
        <ele>85</ele>
        <time>2020-07-03T07:14:39Z</time>
      </trkpt>
      <trkpt lat="47.64963" lon="1.46665">
        <ele>85.1</ele>
        <time>2020-07-03T07:14:40Z</time>
      </trkpt>
      <trkpt lat="47.64962" lon="1.46655">
        <ele>85.1</ele>
        <time>2020-07-03T07:14:41Z</time>
      </trkpt>
      <trkpt lat="47.6496" lon="1.46646">
        <ele>85</ele>
        <time>2020-07-03T07:14:42Z</time>
      </trkpt>
      <trkpt lat="47.64957" lon="1.46637">
        <ele>85</ele>
        <time>2020-07-03T07:14:43Z</time>
      </trkpt>
      <trkpt lat="47.64955" lon="1.4663">
        <ele>85</ele>
        <time>2020-07-03T07:14:44Z</time>
      </trkpt>
      <trkpt lat="47.64953" lon="1.46622">
        <ele>85</ele>
        <time>2020-07-03T07:14:45Z</time>
      </trkpt>
      <trkpt lat="47.6495" lon="1.46613">
        <ele>85</ele>
        <time>2020-07-03T07:14:46Z</time>
      </trkpt>
      <trkpt lat="47.64947" lon="1.46602">
        <ele>85</ele>
        <time>2020-07-03T07:14:47Z</time>
      </trkpt>
      <trkpt lat="47.64944" lon="1.46591">
        <ele>84.9</ele>
        <time>2020-07-03T07:14:48Z</time>
      </trkpt>
      <trkpt lat="47.6494" lon="1.46579">
        <ele>84.9</ele>
        <time>2020-07-03T07:14:49Z</time>
      </trkpt>
      <trkpt lat="47.64936" lon="1.46567">
        <ele>84.8</ele>
        <time>2020-07-03T07:14:50Z</time>
      </trkpt>
      <trkpt lat="47.64933" lon="1.46557">
        <ele>84.8</ele>
        <time>2020-07-03T07:14:51Z</time>
      </trkpt>
      <trkpt lat="47.64929" lon="1.46545">
        <ele>84.8</ele>
        <time>2020-07-03T07:14:52Z</time>
      </trkpt>
      <trkpt lat="47.64926" lon="1.46535">
        <ele>84.8</ele>
        <time>2020-07-03T07:14:53Z</time>
      </trkpt>
      <trkpt lat="47.64923" lon="1.46525">
        <ele>84.8</ele>
        <time>2020-07-03T07:14:54Z</time>
      </trkpt>
      <trkpt lat="47.64919" lon="1.46515">
        <ele>84.8</ele>
        <time>2020-07-03T07:14:55Z</time>
      </trkpt>
      <trkpt lat="47.64916" lon="1.46506">
        <ele>84.8</ele>
        <time>2020-07-03T07:14:56Z</time>
      </trkpt>
      <trkpt lat="47.64913" lon="1.46498">
        <ele>84.8</ele>
        <time>2020-07-03T07:14:57Z</time>
      </trkpt>
      <trkpt lat="47.6491" lon="1.46489">
        <ele>84.8</ele>
        <time>2020-07-03T07:14:58Z</time>
      </trkpt>
      <trkpt lat="47.64906" lon="1.4648">
        <ele>84.9</ele>
        <time>2020-07-03T07:14:59Z</time>
      </trkpt>
      <trkpt lat="47.64903" lon="1.4647">
        <ele>84.9</ele>
        <time>2020-07-03T07:15:00Z</time>
      </trkpt>
      <trkpt lat="47.649" lon="1.4646">
        <ele>84.9</ele>
        <time>2020-07-03T07:15:01Z</time>
      </trkpt>
      <trkpt lat="47.64897" lon="1.46451">
        <ele>85</ele>
        <time>2020-07-03T07:15:02Z</time>
      </trkpt>
      <trkpt lat="47.64895" lon="1.46441">
        <ele>85</ele>
        <time>2020-07-03T07:15:03Z</time>
      </trkpt>
      <trkpt lat="47.64893" lon="1.46431">
        <ele>85</ele>
        <time>2020-07-03T07:15:04Z</time>
      </trkpt>
      <trkpt lat="47.64891" lon="1.46421">
        <ele>85</ele>
        <time>2020-07-03T07:15:05Z</time>
      </trkpt>
      <trkpt lat="47.64888" lon="1.46413">
        <ele>85</ele>
        <time>2020-07-03T07:15:06Z</time>
      </trkpt>
      <trkpt lat="47.64886" lon="1.46403">
        <ele>85</ele>
        <time>2020-07-03T07:15:07Z</time>
      </trkpt>
      <trkpt lat="47.64883" lon="1.46394">
        <ele>85</ele>
        <time>2020-07-03T07:15:08Z</time>
      </trkpt>
      <trkpt lat="47.64881" lon="1.46388">
        <ele>84.9</ele>
        <time>2020-07-03T07:15:09Z</time>
      </trkpt>
      <trkpt lat="47.6488" lon="1.46382">
        <ele>84.9</ele>
        <time>2020-07-03T07:15:10Z</time>
      </trkpt>
      <trkpt lat="47.64878" lon="1.46374">
        <ele>84.9</ele>
        <time>2020-07-03T07:15:11Z</time>
      </trkpt>
      <trkpt lat="47.64876" lon="1.46367">
        <ele>84.9</ele>
        <time>2020-07-03T07:15:12Z</time>
      </trkpt>
      <trkpt lat="47.64873" lon="1.46357">
        <ele>85</ele>
        <time>2020-07-03T07:15:13Z</time>
      </trkpt>
      <trkpt lat="47.64871" lon="1.46349">
        <ele>85</ele>
        <time>2020-07-03T07:15:14Z</time>
      </trkpt>
      <trkpt lat="47.64869" lon="1.46344">
        <ele>85</ele>
        <time>2020-07-03T07:15:15Z</time>
      </trkpt>
      <trkpt lat="47.64866" lon="1.46337">
        <ele>85</ele>
        <time>2020-07-03T07:15:16Z</time>
      </trkpt>
      <trkpt lat="47.64863" lon="1.46329">
        <ele>85.1</ele>
        <time>2020-07-03T07:15:17Z</time>
      </trkpt>
      <trkpt lat="47.64861" lon="1.46323">
        <ele>85.1</ele>
        <time>2020-07-03T07:15:18Z</time>
      </trkpt>
      <trkpt lat="47.64858" lon="1.46315">
        <ele>85.1</ele>
        <time>2020-07-03T07:15:19Z</time>
      </trkpt>
      <trkpt lat="47.64856" lon="1.46308">
        <ele>85.1</ele>
        <time>2020-07-03T07:15:20Z</time>
      </trkpt>
      <trkpt lat="47.64854" lon="1.46303">
        <ele>85.1</ele>
        <time>2020-07-03T07:15:21Z</time>
      </trkpt>
      <trkpt lat="47.64852" lon="1.46295">
        <ele>85</ele>
        <time>2020-07-03T07:15:22Z</time>
      </trkpt>
      <trkpt lat="47.64849" lon="1.46288">
        <ele>85</ele>
        <time>2020-07-03T07:15:24Z</time>
      </trkpt>
      <trkpt lat="47.64847" lon="1.46279">
        <ele>85</ele>
        <time>2020-07-03T07:15:25Z</time>
      </trkpt>
      <trkpt lat="47.64844" lon="1.46271">
        <ele>84.9</ele>
        <time>2020-07-03T07:15:26Z</time>
      </trkpt>
      <trkpt lat="47.64842" lon="1.46265">
        <ele>84.9</ele>
        <time>2020-07-03T07:15:27Z</time>
      </trkpt>
      <trkpt lat="47.64841" lon="1.4626">
        <ele>84.9</ele>
        <time>2020-07-03T07:15:28Z</time>
      </trkpt>
      <trkpt lat="47.64838" lon="1.46253">
        <ele>84.8</ele>
        <time>2020-07-03T07:15:29Z</time>
      </trkpt>
      <trkpt lat="47.64836" lon="1.46243">
        <ele>84.8</ele>
        <time>2020-07-03T07:15:30Z</time>
      </trkpt>
      <trkpt lat="47.64834" lon="1.46235">
        <ele>84.8</ele>
        <time>2020-07-03T07:15:31Z</time>
      </trkpt>
      <trkpt lat="47.64833" lon="1.46227">
        <ele>84.7</ele>
        <time>2020-07-03T07:15:32Z</time>
      </trkpt>
      <trkpt lat="47.6483" lon="1.46218">
        <ele>84.6</ele>
        <time>2020-07-03T07:15:33Z</time>
      </trkpt>
      <trkpt lat="47.64827" lon="1.46209">
        <ele>84.6</ele>
        <time>2020-07-03T07:15:34Z</time>
      </trkpt>
      <trkpt lat="47.64824" lon="1.46201">
        <ele>84.5</ele>
        <time>2020-07-03T07:15:35Z</time>
      </trkpt>
      <trkpt lat="47.64823" lon="1.46195">
        <ele>84.4</ele>
        <time>2020-07-03T07:15:36Z</time>
      </trkpt>
      <trkpt lat="47.64821" lon="1.46188">
        <ele>84.4</ele>
        <time>2020-07-03T07:15:37Z</time>
      </trkpt>
      <trkpt lat="47.64819" lon="1.46184">
        <ele>84.3</ele>
        <time>2020-07-03T07:15:38Z</time>
      </trkpt>
      <trkpt lat="47.64817" lon="1.46176">
        <ele>84.2</ele>
        <time>2020-07-03T07:15:39Z</time>
      </trkpt>
      <trkpt lat="47.64814" lon="1.4617">
        <ele>84.2</ele>
        <time>2020-07-03T07:15:40Z</time>
      </trkpt>
      <trkpt lat="47.64811" lon="1.46162">
        <ele>84.1</ele>
        <time>2020-07-03T07:15:41Z</time>
      </trkpt>
      <trkpt lat="47.64806" lon="1.46147">
        <ele>84.1</ele>
        <time>2020-07-03T07:15:42Z</time>
      </trkpt>
      <trkpt lat="47.64804" lon="1.4614">
        <ele>84</ele>
        <time>2020-07-03T07:15:43Z</time>
      </trkpt>
      <trkpt lat="47.64803" lon="1.46133">
        <ele>84</ele>
        <time>2020-07-03T07:15:44Z</time>
      </trkpt>
      <trkpt lat="47.64801" lon="1.46126">
        <ele>83.9</ele>
        <time>2020-07-03T07:15:45Z</time>
      </trkpt>
      <trkpt lat="47.64798" lon="1.4612">
        <ele>83.9</ele>
        <time>2020-07-03T07:15:46Z</time>
      </trkpt>
      <trkpt lat="47.64796" lon="1.46113">
        <ele>83.8</ele>
        <time>2020-07-03T07:15:47Z</time>
      </trkpt>
      <trkpt lat="47.64794" lon="1.46106">
        <ele>83.8</ele>
        <time>2020-07-03T07:15:48Z</time>
      </trkpt>
      <trkpt lat="47.64792" lon="1.461">
        <ele>83.7</ele>
        <time>2020-07-03T07:15:49Z</time>
      </trkpt>
      <trkpt lat="47.6479" lon="1.46095">
        <ele>83.7</ele>
        <time>2020-07-03T07:15:50Z</time>
      </trkpt>
      <trkpt lat="47.64788" lon="1.46088">
        <ele>83.7</ele>
        <time>2020-07-03T07:15:51Z</time>
      </trkpt>
      <trkpt lat="47.64786" lon="1.4608">
        <ele>83.6</ele>
        <time>2020-07-03T07:15:52Z</time>
      </trkpt>
      <trkpt lat="47.64784" lon="1.46073">
        <ele>83.5</ele>
        <time>2020-07-03T07:15:53Z</time>
      </trkpt>
      <trkpt lat="47.64782" lon="1.46067">
        <ele>83.4</ele>
        <time>2020-07-03T07:15:54Z</time>
      </trkpt>
      <trkpt lat="47.64779" lon="1.4606">
        <ele>83.4</ele>
        <time>2020-07-03T07:15:55Z</time>
      </trkpt>
      <trkpt lat="47.64777" lon="1.46054">
        <ele>83.3</ele>
        <time>2020-07-03T07:15:56Z</time>
      </trkpt>
      <trkpt lat="47.64774" lon="1.46048">
        <ele>83.2</ele>
        <time>2020-07-03T07:15:57Z</time>
      </trkpt>
      <trkpt lat="47.64772" lon="1.46042">
        <ele>83.2</ele>
        <time>2020-07-03T07:15:58Z</time>
      </trkpt>
      <trkpt lat="47.6477" lon="1.46036">
        <ele>83.1</ele>
        <time>2020-07-03T07:15:59Z</time>
      </trkpt>
      <trkpt lat="47.64769" lon="1.46031">
        <ele>83</ele>
        <time>2020-07-03T07:16:00Z</time>
      </trkpt>
      <trkpt lat="47.64766" lon="1.46026">
        <ele>83</ele>
        <time>2020-07-03T07:16:01Z</time>
      </trkpt>
      <trkpt lat="47.64765" lon="1.46021">
        <ele>82.9</ele>
        <time>2020-07-03T07:16:02Z</time>
      </trkpt>
      <trkpt lat="47.64763" lon="1.46015">
        <ele>82.9</ele>
        <time>2020-07-03T07:16:03Z</time>
      </trkpt>
      <trkpt lat="47.6476" lon="1.46008">
        <ele>82.8</ele>
        <time>2020-07-03T07:16:04Z</time>
      </trkpt>
      <trkpt lat="47.64758" lon="1.46001">
        <ele>82.8</ele>
        <time>2020-07-03T07:16:05Z</time>
      </trkpt>
      <trkpt lat="47.64756" lon="1.45996">
        <ele>82.7</ele>
        <time>2020-07-03T07:16:06Z</time>
      </trkpt>
      <trkpt lat="47.64754" lon="1.4599">
        <ele>82.7</ele>
        <time>2020-07-03T07:16:07Z</time>
      </trkpt>
      <trkpt lat="47.64752" lon="1.45986">
        <ele>82.6</ele>
        <time>2020-07-03T07:16:08Z</time>
      </trkpt>
      <trkpt lat="47.6475" lon="1.4598">
        <ele>82.6</ele>
        <time>2020-07-03T07:16:09Z</time>
      </trkpt>
      <trkpt lat="47.64748" lon="1.45975">
        <ele>82.5</ele>
        <time>2020-07-03T07:16:10Z</time>
      </trkpt>
      <trkpt lat="47.64746" lon="1.4597">
        <ele>82.5</ele>
        <time>2020-07-03T07:16:11Z</time>
      </trkpt>
      <trkpt lat="47.64744" lon="1.45964">
        <ele>82.4</ele>
        <time>2020-07-03T07:16:12Z</time>
      </trkpt>
      <trkpt lat="47.64742" lon="1.45957">
        <ele>82.4</ele>
        <time>2020-07-03T07:16:13Z</time>
      </trkpt>
      <trkpt lat="47.64741" lon="1.45951">
        <ele>82.3</ele>
        <time>2020-07-03T07:16:14Z</time>
      </trkpt>
      <trkpt lat="47.6474" lon="1.45944">
        <ele>82.3</ele>
        <time>2020-07-03T07:16:15Z</time>
      </trkpt>
      <trkpt lat="47.64738" lon="1.45937">
        <ele>82.2</ele>
        <time>2020-07-03T07:16:16Z</time>
      </trkpt>
      <trkpt lat="47.64737" lon="1.45931">
        <ele>82.2</ele>
        <time>2020-07-03T07:16:17Z</time>
      </trkpt>
      <trkpt lat="47.64734" lon="1.45925">
        <ele>82.2</ele>
        <time>2020-07-03T07:16:18Z</time>
      </trkpt>
      <trkpt lat="47.64732" lon="1.45919">
        <ele>82.1</ele>
        <time>2020-07-03T07:16:19Z</time>
      </trkpt>
      <trkpt lat="47.6473" lon="1.45914">
        <ele>82.1</ele>
        <time>2020-07-03T07:16:20Z</time>
      </trkpt>
      <trkpt lat="47.64728" lon="1.45908">
        <ele>82</ele>
        <time>2020-07-03T07:16:21Z</time>
      </trkpt>
      <trkpt lat="47.64726" lon="1.45902">
        <ele>82</ele>
        <time>2020-07-03T07:16:22Z</time>
      </trkpt>
      <trkpt lat="47.64724" lon="1.45897">
        <ele>82</ele>
        <time>2020-07-03T07:16:23Z</time>
      </trkpt>
      <trkpt lat="47.64722" lon="1.45891">
        <ele>82</ele>
        <time>2020-07-03T07:16:24Z</time>
      </trkpt>
      <trkpt lat="47.64719" lon="1.45884">
        <ele>81.9</ele>
        <time>2020-07-03T07:16:25Z</time>
      </trkpt>
      <trkpt lat="47.64717" lon="1.45878">
        <ele>81.9</ele>
        <time>2020-07-03T07:16:26Z</time>
      </trkpt>
      <trkpt lat="47.64714" lon="1.45873">
        <ele>81.9</ele>
        <time>2020-07-03T07:16:27Z</time>
      </trkpt>
      <trkpt lat="47.64712" lon="1.45869">
        <ele>81.9</ele>
        <time>2020-07-03T07:16:28Z</time>
      </trkpt>
      <trkpt lat="47.6471" lon="1.45865">
        <ele>81.9</ele>
        <time>2020-07-03T07:16:29Z</time>
      </trkpt>
      <trkpt lat="47.64708" lon="1.4586">
        <ele>81.9</ele>
        <time>2020-07-03T07:16:30Z</time>
      </trkpt>
      <trkpt lat="47.64706" lon="1.45855">
        <ele>81.9</ele>
        <time>2020-07-03T07:16:31Z</time>
      </trkpt>
      <trkpt lat="47.64703" lon="1.45848">
        <ele>81.9</ele>
        <time>2020-07-03T07:16:32Z</time>
      </trkpt>
      <trkpt lat="47.647" lon="1.45844">
        <ele>81.9</ele>
        <time>2020-07-03T07:16:33Z</time>
      </trkpt>
      <trkpt lat="47.64697" lon="1.45839">
        <ele>81.9</ele>
        <time>2020-07-03T07:16:34Z</time>
      </trkpt>
      <trkpt lat="47.64695" lon="1.45835">
        <ele>81.9</ele>
        <time>2020-07-03T07:16:35Z</time>
      </trkpt>
      <trkpt lat="47.64693" lon="1.45831">
        <ele>81.9</ele>
        <time>2020-07-03T07:16:36Z</time>
      </trkpt>
      <trkpt lat="47.64691" lon="1.45827">
        <ele>81.9</ele>
        <time>2020-07-03T07:16:37Z</time>
      </trkpt>
      <trkpt lat="47.64689" lon="1.45822">
        <ele>81.9</ele>
        <time>2020-07-03T07:16:38Z</time>
      </trkpt>
      <trkpt lat="47.64688" lon="1.45818">
        <ele>81.9</ele>
        <time>2020-07-03T07:16:39Z</time>
      </trkpt>
      <trkpt lat="47.64686" lon="1.45814">
        <ele>81.9</ele>
        <time>2020-07-03T07:16:40Z</time>
      </trkpt>
      <trkpt lat="47.64684" lon="1.4581">
        <ele>81.9</ele>
        <time>2020-07-03T07:16:41Z</time>
      </trkpt>
      <trkpt lat="47.64683" lon="1.45806">
        <ele>81.9</ele>
        <time>2020-07-03T07:16:42Z</time>
      </trkpt>
      <trkpt lat="47.64681" lon="1.45801">
        <ele>82</ele>
        <time>2020-07-03T07:16:43Z</time>
      </trkpt>
      <trkpt lat="47.64679" lon="1.45796">
        <ele>82</ele>
        <time>2020-07-03T07:16:44Z</time>
      </trkpt>
      <trkpt lat="47.64679" lon="1.45795">
        <ele>82</ele>
        <time>2020-07-03T07:16:45Z</time>
      </trkpt>
      <trkpt lat="47.64677" lon="1.45789">
        <ele>82</ele>
        <time>2020-07-03T07:16:46Z</time>
      </trkpt>
      <trkpt lat="47.64677" lon="1.45787">
        <ele>82</ele>
        <time>2020-07-03T07:16:47Z</time>
      </trkpt>
      <trkpt lat="47.64675" lon="1.45782">
        <ele>82</ele>
        <time>2020-07-03T07:16:48Z</time>
      </trkpt>
      <trkpt lat="47.64674" lon="1.45781">
        <ele>82.1</ele>
        <time>2020-07-03T07:16:49Z</time>
      </trkpt>
      <trkpt lat="47.64672" lon="1.45775">
        <ele>82.1</ele>
        <time>2020-07-03T07:16:50Z</time>
      </trkpt>
      <trkpt lat="47.64671" lon="1.45774">
        <ele>82.1</ele>
        <time>2020-07-03T07:16:51Z</time>
      </trkpt>
      <trkpt lat="47.6467" lon="1.45769">
        <ele>82.1</ele>
        <time>2020-07-03T07:16:52Z</time>
      </trkpt>
      <trkpt lat="47.64669" lon="1.45767">
        <ele>82.1</ele>
        <time>2020-07-03T07:16:53Z</time>
      </trkpt>
      <trkpt lat="47.64668" lon="1.45762">
        <ele>82.1</ele>
        <time>2020-07-03T07:16:54Z</time>
      </trkpt>
      <trkpt lat="47.64665" lon="1.45757">
        <ele>82.1</ele>
        <time>2020-07-03T07:16:55Z</time>
      </trkpt>
      <trkpt lat="47.64665" lon="1.45755">
        <ele>82.1</ele>
        <time>2020-07-03T07:16:56Z</time>
      </trkpt>
      <trkpt lat="47.64663" lon="1.45751">
        <ele>82.1</ele>
        <time>2020-07-03T07:16:57Z</time>
      </trkpt>
      <trkpt lat="47.64661" lon="1.45745">
        <ele>82.1</ele>
        <time>2020-07-03T07:16:58Z</time>
      </trkpt>
      <trkpt lat="47.64658" lon="1.4574">
        <ele>82.1</ele>
        <time>2020-07-03T07:16:59Z</time>
      </trkpt>
      <trkpt lat="47.64657" lon="1.45734">
        <ele>82.1</ele>
        <time>2020-07-03T07:17:00Z</time>
      </trkpt>
      <trkpt lat="47.64656" lon="1.4573">
        <ele>82.2</ele>
        <time>2020-07-03T07:17:01Z</time>
      </trkpt>
      <trkpt lat="47.64653" lon="1.45725">
        <ele>82.2</ele>
        <time>2020-07-03T07:17:02Z</time>
      </trkpt>
      <trkpt lat="47.64651" lon="1.45719">
        <ele>82.2</ele>
        <time>2020-07-03T07:17:03Z</time>
      </trkpt>
      <trkpt lat="47.64649" lon="1.45713">
        <ele>82.3</ele>
        <time>2020-07-03T07:17:04Z</time>
      </trkpt>
      <trkpt lat="47.64647" lon="1.45707">
        <ele>82.3</ele>
        <time>2020-07-03T07:17:05Z</time>
      </trkpt>
      <trkpt lat="47.64646" lon="1.45703">
        <ele>82.3</ele>
        <time>2020-07-03T07:17:06Z</time>
      </trkpt>
      <trkpt lat="47.64644" lon="1.45699">
        <ele>82.4</ele>
        <time>2020-07-03T07:17:07Z</time>
      </trkpt>
      <trkpt lat="47.64643" lon="1.45694">
        <ele>82.4</ele>
        <time>2020-07-03T07:17:08Z</time>
      </trkpt>
      <trkpt lat="47.64642" lon="1.4569">
        <ele>82.4</ele>
        <time>2020-07-03T07:17:09Z</time>
      </trkpt>
      <trkpt lat="47.6464" lon="1.45686">
        <ele>82.5</ele>
        <time>2020-07-03T07:17:10Z</time>
      </trkpt>
      <trkpt lat="47.64638" lon="1.45681">
        <ele>82.5</ele>
        <time>2020-07-03T07:17:11Z</time>
      </trkpt>
      <trkpt lat="47.64637" lon="1.45678">
        <ele>82.5</ele>
        <time>2020-07-03T07:17:12Z</time>
      </trkpt>
      <trkpt lat="47.64634" lon="1.45673">
        <ele>82.6</ele>
        <time>2020-07-03T07:17:13Z</time>
      </trkpt>
      <trkpt lat="47.64633" lon="1.45671">
        <ele>82.6</ele>
        <time>2020-07-03T07:17:14Z</time>
      </trkpt>
      <trkpt lat="47.64632" lon="1.45666">
        <ele>82.6</ele>
        <time>2020-07-03T07:17:15Z</time>
      </trkpt>
      <trkpt lat="47.6463" lon="1.45662">
        <ele>82.6</ele>
        <time>2020-07-03T07:17:16Z</time>
      </trkpt>
      <trkpt lat="47.64628" lon="1.45658">
        <ele>82.6</ele>
        <time>2020-07-03T07:17:17Z</time>
      </trkpt>
      <trkpt lat="47.64627" lon="1.45651">
        <ele>82.7</ele>
        <time>2020-07-03T07:17:18Z</time>
      </trkpt>
      <trkpt lat="47.64626" lon="1.45646">
        <ele>82.7</ele>
        <time>2020-07-03T07:17:19Z</time>
      </trkpt>
      <trkpt lat="47.64624" lon="1.45642">
        <ele>82.7</ele>
        <time>2020-07-03T07:17:20Z</time>
      </trkpt>
      <trkpt lat="47.64622" lon="1.45637">
        <ele>82.7</ele>
        <time>2020-07-03T07:17:21Z</time>
      </trkpt>
      <trkpt lat="47.64619" lon="1.45631">
        <ele>82.7</ele>
        <time>2020-07-03T07:17:22Z</time>
      </trkpt>
      <trkpt lat="47.64617" lon="1.45626">
        <ele>82.7</ele>
        <time>2020-07-03T07:17:23Z</time>
      </trkpt>
      <trkpt lat="47.64614" lon="1.4562">
        <ele>82.7</ele>
        <time>2020-07-03T07:17:24Z</time>
      </trkpt>
      <trkpt lat="47.64611" lon="1.45615">
        <ele>82.7</ele>
        <time>2020-07-03T07:17:25Z</time>
      </trkpt>
      <trkpt lat="47.6461" lon="1.4561">
        <ele>82.7</ele>
        <time>2020-07-03T07:17:26Z</time>
      </trkpt>
      <trkpt lat="47.64607" lon="1.45605">
        <ele>82.7</ele>
        <time>2020-07-03T07:17:27Z</time>
      </trkpt>
      <trkpt lat="47.64605" lon="1.45598">
        <ele>82.7</ele>
        <time>2020-07-03T07:17:28Z</time>
      </trkpt>
      <trkpt lat="47.64603" lon="1.45591">
        <ele>82.7</ele>
        <time>2020-07-03T07:17:29Z</time>
      </trkpt>
      <trkpt lat="47.64601" lon="1.45585">
        <ele>82.8</ele>
        <time>2020-07-03T07:17:30Z</time>
      </trkpt>
      <trkpt lat="47.64598" lon="1.4558">
        <ele>82.8</ele>
        <time>2020-07-03T07:17:31Z</time>
      </trkpt>
      <trkpt lat="47.64597" lon="1.45574">
        <ele>82.8</ele>
        <time>2020-07-03T07:17:32Z</time>
      </trkpt>
      <trkpt lat="47.64594" lon="1.45567">
        <ele>82.9</ele>
        <time>2020-07-03T07:17:33Z</time>
      </trkpt>
      <trkpt lat="47.64592" lon="1.4556">
        <ele>82.9</ele>
        <time>2020-07-03T07:17:34Z</time>
      </trkpt>
      <trkpt lat="47.64589" lon="1.45553">
        <ele>82.9</ele>
        <time>2020-07-03T07:17:35Z</time>
      </trkpt>
      <trkpt lat="47.64587" lon="1.45547">
        <ele>83</ele>
        <time>2020-07-03T07:17:36Z</time>
      </trkpt>
      <trkpt lat="47.64584" lon="1.4554">
        <ele>83</ele>
        <time>2020-07-03T07:17:37Z</time>
      </trkpt>
      <trkpt lat="47.64582" lon="1.45534">
        <ele>83.1</ele>
        <time>2020-07-03T07:17:38Z</time>
      </trkpt>
      <trkpt lat="47.64579" lon="1.45525">
        <ele>83.1</ele>
        <time>2020-07-03T07:17:39Z</time>
      </trkpt>
      <trkpt lat="47.64575" lon="1.45516">
        <ele>83.2</ele>
        <time>2020-07-03T07:17:40Z</time>
      </trkpt>
      <trkpt lat="47.64571" lon="1.45509">
        <ele>83.2</ele>
        <time>2020-07-03T07:17:41Z</time>
      </trkpt>
      <trkpt lat="47.64568" lon="1.45501">
        <ele>83.3</ele>
        <time>2020-07-03T07:17:42Z</time>
      </trkpt>
      <trkpt lat="47.64564" lon="1.45493">
        <ele>83.3</ele>
        <time>2020-07-03T07:17:43Z</time>
      </trkpt>
      <trkpt lat="47.6456" lon="1.45485">
        <ele>83.4</ele>
        <time>2020-07-03T07:17:44Z</time>
      </trkpt>
      <trkpt lat="47.64555" lon="1.45477">
        <ele>83.4</ele>
        <time>2020-07-03T07:17:45Z</time>
      </trkpt>
      <trkpt lat="47.6455" lon="1.45468">
        <ele>83.4</ele>
        <time>2020-07-03T07:17:46Z</time>
      </trkpt>
      <trkpt lat="47.64545" lon="1.45461">
        <ele>83.5</ele>
        <time>2020-07-03T07:17:47Z</time>
      </trkpt>
      <trkpt lat="47.64539" lon="1.45453">
        <ele>83.5</ele>
        <time>2020-07-03T07:17:48Z</time>
      </trkpt>
      <trkpt lat="47.64534" lon="1.45446">
        <ele>83.5</ele>
        <time>2020-07-03T07:17:49Z</time>
      </trkpt>
      <trkpt lat="47.64529" lon="1.4544">
        <ele>83.4</ele>
        <time>2020-07-03T07:17:50Z</time>
      </trkpt>
      <trkpt lat="47.64524" lon="1.45432">
        <ele>83.3</ele>
        <time>2020-07-03T07:17:51Z</time>
      </trkpt>
      <trkpt lat="47.64518" lon="1.45425">
        <ele>83.3</ele>
        <time>2020-07-03T07:17:52Z</time>
      </trkpt>
      <trkpt lat="47.64513" lon="1.45419">
        <ele>83.3</ele>
        <time>2020-07-03T07:17:53Z</time>
      </trkpt>
      <trkpt lat="47.64508" lon="1.45413">
        <ele>83.3</ele>
        <time>2020-07-03T07:17:54Z</time>
      </trkpt>
      <trkpt lat="47.64504" lon="1.45407">
        <ele>83.3</ele>
        <time>2020-07-03T07:17:55Z</time>
      </trkpt>
      <trkpt lat="47.64499" lon="1.454">
        <ele>83.2</ele>
        <time>2020-07-03T07:17:56Z</time>
      </trkpt>
      <trkpt lat="47.64493" lon="1.45394">
        <ele>83.2</ele>
        <time>2020-07-03T07:17:57Z</time>
      </trkpt>
      <trkpt lat="47.64486" lon="1.45389">
        <ele>83.2</ele>
        <time>2020-07-03T07:17:58Z</time>
      </trkpt>
      <trkpt lat="47.6448" lon="1.45384">
        <ele>83.2</ele>
        <time>2020-07-03T07:17:59Z</time>
      </trkpt>
      <trkpt lat="47.64474" lon="1.45379">
        <ele>83.2</ele>
        <time>2020-07-03T07:18:00Z</time>
      </trkpt>
      <trkpt lat="47.64468" lon="1.45374">
        <ele>83.2</ele>
        <time>2020-07-03T07:18:01Z</time>
      </trkpt>
      <trkpt lat="47.64462" lon="1.45369">
        <ele>83.2</ele>
        <time>2020-07-03T07:18:02Z</time>
      </trkpt>
      <trkpt lat="47.64456" lon="1.45363">
        <ele>83.2</ele>
        <time>2020-07-03T07:18:03Z</time>
      </trkpt>
      <trkpt lat="47.64449" lon="1.45358">
        <ele>83.2</ele>
        <time>2020-07-03T07:18:04Z</time>
      </trkpt>
      <trkpt lat="47.64443" lon="1.45353">
        <ele>83.2</ele>
        <time>2020-07-03T07:18:05Z</time>
      </trkpt>
      <trkpt lat="47.64436" lon="1.45348">
        <ele>83.2</ele>
        <time>2020-07-03T07:18:06Z</time>
      </trkpt>
      <trkpt lat="47.6443" lon="1.45342">
        <ele>83.2</ele>
        <time>2020-07-03T07:18:07Z</time>
      </trkpt>
      <trkpt lat="47.64424" lon="1.45337">
        <ele>83.2</ele>
        <time>2020-07-03T07:18:08Z</time>
      </trkpt>
      <trkpt lat="47.64418" lon="1.4533">
        <ele>83.2</ele>
        <time>2020-07-03T07:18:09Z</time>
      </trkpt>
      <trkpt lat="47.64412" lon="1.45324">
        <ele>83.3</ele>
        <time>2020-07-03T07:18:10Z</time>
      </trkpt>
      <trkpt lat="47.64406" lon="1.45319">
        <ele>83.4</ele>
        <time>2020-07-03T07:18:11Z</time>
      </trkpt>
      <trkpt lat="47.644" lon="1.45313">
        <ele>83.4</ele>
        <time>2020-07-03T07:18:12Z</time>
      </trkpt>
      <trkpt lat="47.64394" lon="1.45308">
        <ele>83.5</ele>
        <time>2020-07-03T07:18:13Z</time>
      </trkpt>
      <trkpt lat="47.64388" lon="1.45302">
        <ele>83.5</ele>
        <time>2020-07-03T07:18:14Z</time>
      </trkpt>
      <trkpt lat="47.64382" lon="1.45296">
        <ele>83.5</ele>
        <time>2020-07-03T07:18:15Z</time>
      </trkpt>
      <trkpt lat="47.64376" lon="1.45291">
        <ele>83.5</ele>
        <time>2020-07-03T07:18:16Z</time>
      </trkpt>
      <trkpt lat="47.6437" lon="1.45285">
        <ele>83.5</ele>
        <time>2020-07-03T07:18:17Z</time>
      </trkpt>
      <trkpt lat="47.64364" lon="1.4528">
        <ele>83.5</ele>
        <time>2020-07-03T07:18:18Z</time>
      </trkpt>
      <trkpt lat="47.64358" lon="1.45274">
        <ele>83.6</ele>
        <time>2020-07-03T07:18:19Z</time>
      </trkpt>
      <trkpt lat="47.64353" lon="1.45268">
        <ele>83.6</ele>
        <time>2020-07-03T07:18:20Z</time>
      </trkpt>
      <trkpt lat="47.64347" lon="1.45262">
        <ele>83.7</ele>
        <time>2020-07-03T07:18:21Z</time>
      </trkpt>
      <trkpt lat="47.64341" lon="1.45257">
        <ele>83.7</ele>
        <time>2020-07-03T07:18:22Z</time>
      </trkpt>
      <trkpt lat="47.64336" lon="1.45251">
        <ele>83.7</ele>
        <time>2020-07-03T07:18:23Z</time>
      </trkpt>
      <trkpt lat="47.6433" lon="1.45245">
        <ele>83.7</ele>
        <time>2020-07-03T07:18:24Z</time>
      </trkpt>
      <trkpt lat="47.64325" lon="1.45238">
        <ele>83.7</ele>
        <time>2020-07-03T07:18:25Z</time>
      </trkpt>
      <trkpt lat="47.6432" lon="1.45231">
        <ele>83.7</ele>
        <time>2020-07-03T07:18:26Z</time>
      </trkpt>
      <trkpt lat="47.64316" lon="1.45224">
        <ele>83.8</ele>
        <time>2020-07-03T07:18:27Z</time>
      </trkpt>
      <trkpt lat="47.64311" lon="1.45217">
        <ele>83.8</ele>
        <time>2020-07-03T07:18:28Z</time>
      </trkpt>
      <trkpt lat="47.64306" lon="1.4521">
        <ele>83.8</ele>
        <time>2020-07-03T07:18:29Z</time>
      </trkpt>
      <trkpt lat="47.64301" lon="1.45204">
        <ele>83.9</ele>
        <time>2020-07-03T07:18:30Z</time>
      </trkpt>
      <trkpt lat="47.64297" lon="1.45197">
        <ele>83.9</ele>
        <time>2020-07-03T07:18:31Z</time>
      </trkpt>
      <trkpt lat="47.64293" lon="1.45189">
        <ele>84</ele>
        <time>2020-07-03T07:18:32Z</time>
      </trkpt>
      <trkpt lat="47.64289" lon="1.45181">
        <ele>84</ele>
        <time>2020-07-03T07:18:33Z</time>
      </trkpt>
      <trkpt lat="47.64285" lon="1.45173">
        <ele>84</ele>
        <time>2020-07-03T07:18:34Z</time>
      </trkpt>
      <trkpt lat="47.64281" lon="1.45166">
        <ele>84</ele>
        <time>2020-07-03T07:18:35Z</time>
      </trkpt>
      <trkpt lat="47.64278" lon="1.45158">
        <ele>84.1</ele>
        <time>2020-07-03T07:18:36Z</time>
      </trkpt>
      <trkpt lat="47.64274" lon="1.4515">
        <ele>84.1</ele>
        <time>2020-07-03T07:18:37Z</time>
      </trkpt>
      <trkpt lat="47.6427" lon="1.45143">
        <ele>84.1</ele>
        <time>2020-07-03T07:18:38Z</time>
      </trkpt>
      <trkpt lat="47.64267" lon="1.45135">
        <ele>84.1</ele>
        <time>2020-07-03T07:18:39Z</time>
      </trkpt>
      <trkpt lat="47.64263" lon="1.45127">
        <ele>84.1</ele>
        <time>2020-07-03T07:18:40Z</time>
      </trkpt>
      <trkpt lat="47.6426" lon="1.4512">
        <ele>84.2</ele>
        <time>2020-07-03T07:18:41Z</time>
      </trkpt>
      <trkpt lat="47.64257" lon="1.45112">
        <ele>84.3</ele>
        <time>2020-07-03T07:18:42Z</time>
      </trkpt>
      <trkpt lat="47.64254" lon="1.45104">
        <ele>84.3</ele>
        <time>2020-07-03T07:18:43Z</time>
      </trkpt>
      <trkpt lat="47.6425" lon="1.45096">
        <ele>84.4</ele>
        <time>2020-07-03T07:18:44Z</time>
      </trkpt>
      <trkpt lat="47.64247" lon="1.45088">
        <ele>84.4</ele>
        <time>2020-07-03T07:18:45Z</time>
      </trkpt>
      <trkpt lat="47.64244" lon="1.45081">
        <ele>84.4</ele>
        <time>2020-07-03T07:18:46Z</time>
      </trkpt>
      <trkpt lat="47.64242" lon="1.45073">
        <ele>84.5</ele>
        <time>2020-07-03T07:18:47Z</time>
      </trkpt>
      <trkpt lat="47.64238" lon="1.45065">
        <ele>84.5</ele>
        <time>2020-07-03T07:18:48Z</time>
      </trkpt>
      <trkpt lat="47.64235" lon="1.45057">
        <ele>84.5</ele>
        <time>2020-07-03T07:18:49Z</time>
      </trkpt>
      <trkpt lat="47.64232" lon="1.45048">
        <ele>84.5</ele>
        <time>2020-07-03T07:18:50Z</time>
      </trkpt>
      <trkpt lat="47.64229" lon="1.45039">
        <ele>84.6</ele>
        <time>2020-07-03T07:18:51Z</time>
      </trkpt>
      <trkpt lat="47.64226" lon="1.4503">
        <ele>84.7</ele>
        <time>2020-07-03T07:18:52Z</time>
      </trkpt>
      <trkpt lat="47.64223" lon="1.45022">
        <ele>84.7</ele>
        <time>2020-07-03T07:18:53Z</time>
      </trkpt>
      <trkpt lat="47.6422" lon="1.45014">
        <ele>84.7</ele>
        <time>2020-07-03T07:18:54Z</time>
      </trkpt>
      <trkpt lat="47.64217" lon="1.45005">
        <ele>84.7</ele>
        <time>2020-07-03T07:18:55Z</time>
      </trkpt>
      <trkpt lat="47.64215" lon="1.44997">
        <ele>84.7</ele>
        <time>2020-07-03T07:18:56Z</time>
      </trkpt>
      <trkpt lat="47.64213" lon="1.44989">
        <ele>84.7</ele>
        <time>2020-07-03T07:18:57Z</time>
      </trkpt>
      <trkpt lat="47.64211" lon="1.44981">
        <ele>84.7</ele>
        <time>2020-07-03T07:18:58Z</time>
      </trkpt>
      <trkpt lat="47.64209" lon="1.44972">
        <ele>84.8</ele>
        <time>2020-07-03T07:18:59Z</time>
      </trkpt>
      <trkpt lat="47.64207" lon="1.44964">
        <ele>84.8</ele>
        <time>2020-07-03T07:19:00Z</time>
      </trkpt>
      <trkpt lat="47.64206" lon="1.44956">
        <ele>84.8</ele>
        <time>2020-07-03T07:19:01Z</time>
      </trkpt>
      <trkpt lat="47.64204" lon="1.44948">
        <ele>84.7</ele>
        <time>2020-07-03T07:19:02Z</time>
      </trkpt>
      <trkpt lat="47.64202" lon="1.44939">
        <ele>84.7</ele>
        <time>2020-07-03T07:19:03Z</time>
      </trkpt>
      <trkpt lat="47.642" lon="1.44932">
        <ele>84.8</ele>
        <time>2020-07-03T07:19:04Z</time>
      </trkpt>
      <trkpt lat="47.64198" lon="1.44923">
        <ele>84.8</ele>
        <time>2020-07-03T07:19:05Z</time>
      </trkpt>
      <trkpt lat="47.64196" lon="1.44915">
        <ele>84.8</ele>
        <time>2020-07-03T07:19:06Z</time>
      </trkpt>
      <trkpt lat="47.64195" lon="1.44906">
        <ele>84.8</ele>
        <time>2020-07-03T07:19:07Z</time>
      </trkpt>
      <trkpt lat="47.64192" lon="1.44896">
        <ele>84.8</ele>
        <time>2020-07-03T07:19:08Z</time>
      </trkpt>
      <trkpt lat="47.64191" lon="1.44887">
        <ele>84.8</ele>
        <time>2020-07-03T07:19:09Z</time>
      </trkpt>
      <trkpt lat="47.64189" lon="1.44878">
        <ele>84.8</ele>
        <time>2020-07-03T07:19:10Z</time>
      </trkpt>
      <trkpt lat="47.64187" lon="1.44871">
        <ele>84.9</ele>
        <time>2020-07-03T07:19:11Z</time>
      </trkpt>
      <trkpt lat="47.64185" lon="1.44862">
        <ele>85</ele>
        <time>2020-07-03T07:19:12Z</time>
      </trkpt>
      <trkpt lat="47.64183" lon="1.44854">
        <ele>85</ele>
        <time>2020-07-03T07:19:13Z</time>
      </trkpt>
      <trkpt lat="47.64181" lon="1.44845">
        <ele>85</ele>
        <time>2020-07-03T07:19:14Z</time>
      </trkpt>
      <trkpt lat="47.64179" lon="1.44836">
        <ele>85</ele>
        <time>2020-07-03T07:19:15Z</time>
      </trkpt>
      <trkpt lat="47.64176" lon="1.44826">
        <ele>85</ele>
        <time>2020-07-03T07:19:16Z</time>
      </trkpt>
      <trkpt lat="47.64174" lon="1.44817">
        <ele>85</ele>
        <time>2020-07-03T07:19:17Z</time>
      </trkpt>
      <trkpt lat="47.64172" lon="1.44807">
        <ele>85.1</ele>
        <time>2020-07-03T07:19:18Z</time>
      </trkpt>
      <trkpt lat="47.64169" lon="1.448">
        <ele>85.1</ele>
        <time>2020-07-03T07:19:19Z</time>
      </trkpt>
      <trkpt lat="47.64167" lon="1.44793">
        <ele>85.1</ele>
        <time>2020-07-03T07:19:20Z</time>
      </trkpt>
      <trkpt lat="47.64165" lon="1.44784">
        <ele>85.1</ele>
        <time>2020-07-03T07:19:21Z</time>
      </trkpt>
      <trkpt lat="47.64162" lon="1.44777">
        <ele>85.2</ele>
        <time>2020-07-03T07:19:22Z</time>
      </trkpt>
      <trkpt lat="47.64161" lon="1.44769">
        <ele>85.2</ele>
        <time>2020-07-03T07:19:23Z</time>
      </trkpt>
      <trkpt lat="47.64159" lon="1.44761">
        <ele>85.2</ele>
        <time>2020-07-03T07:19:24Z</time>
      </trkpt>
      <trkpt lat="47.64157" lon="1.44752">
        <ele>85.3</ele>
        <time>2020-07-03T07:19:25Z</time>
      </trkpt>
      <trkpt lat="47.64155" lon="1.44744">
        <ele>85.3</ele>
        <time>2020-07-03T07:19:26Z</time>
      </trkpt>
      <trkpt lat="47.64153" lon="1.44736">
        <ele>85.4</ele>
        <time>2020-07-03T07:19:27Z</time>
      </trkpt>
      <trkpt lat="47.64151" lon="1.44727">
        <ele>85.4</ele>
        <time>2020-07-03T07:19:28Z</time>
      </trkpt>
      <trkpt lat="47.64148" lon="1.4472">
        <ele>85.4</ele>
        <time>2020-07-03T07:19:29Z</time>
      </trkpt>
      <trkpt lat="47.64146" lon="1.44713">
        <ele>85.4</ele>
        <time>2020-07-03T07:19:30Z</time>
      </trkpt>
      <trkpt lat="47.64144" lon="1.44705">
        <ele>85.4</ele>
        <time>2020-07-03T07:19:31Z</time>
      </trkpt>
      <trkpt lat="47.6414" lon="1.44697">
        <ele>85.4</ele>
        <time>2020-07-03T07:19:32Z</time>
      </trkpt>
      <trkpt lat="47.64136" lon="1.4469">
        <ele>85.4</ele>
        <time>2020-07-03T07:19:33Z</time>
      </trkpt>
      <trkpt lat="47.64132" lon="1.44683">
        <ele>85.5</ele>
        <time>2020-07-03T07:19:34Z</time>
      </trkpt>
      <trkpt lat="47.64129" lon="1.44677">
        <ele>85.5</ele>
        <time>2020-07-03T07:19:35Z</time>
      </trkpt>
      <trkpt lat="47.64125" lon="1.4467">
        <ele>85.5</ele>
        <time>2020-07-03T07:19:36Z</time>
      </trkpt>
      <trkpt lat="47.64121" lon="1.44664">
        <ele>85.5</ele>
        <time>2020-07-03T07:19:37Z</time>
      </trkpt>
      <trkpt lat="47.64117" lon="1.44657">
        <ele>85.5</ele>
        <time>2020-07-03T07:19:38Z</time>
      </trkpt>
      <trkpt lat="47.64114" lon="1.44652">
        <ele>85.5</ele>
        <time>2020-07-03T07:19:39Z</time>
      </trkpt>
      <trkpt lat="47.64111" lon="1.44645">
        <ele>85.6</ele>
        <time>2020-07-03T07:19:40Z</time>
      </trkpt>
      <trkpt lat="47.64107" lon="1.4464">
        <ele>85.6</ele>
        <time>2020-07-03T07:19:41Z</time>
      </trkpt>
      <trkpt lat="47.64104" lon="1.44635">
        <ele>85.6</ele>
        <time>2020-07-03T07:19:42Z</time>
      </trkpt>
      <trkpt lat="47.64101" lon="1.4463">
        <ele>85.7</ele>
        <time>2020-07-03T07:19:43Z</time>
      </trkpt>
      <trkpt lat="47.64098" lon="1.44625">
        <ele>85.7</ele>
        <time>2020-07-03T07:19:44Z</time>
      </trkpt>
      <trkpt lat="47.64096" lon="1.44621">
        <ele>85.8</ele>
        <time>2020-07-03T07:19:45Z</time>
      </trkpt>
      <trkpt lat="47.64094" lon="1.44618">
        <ele>85.8</ele>
        <time>2020-07-03T07:19:46Z</time>
      </trkpt>
      <trkpt lat="47.64094" lon="1.44619">
        <ele>85.8</ele>
        <time>2020-07-03T07:19:47Z</time>
      </trkpt>
      <trkpt lat="47.6409" lon="1.44619">
        <ele>85.9</ele>
        <time>2020-07-03T07:19:48Z</time>
      </trkpt>
      <trkpt lat="47.64088" lon="1.44622">
        <ele>85.9</ele>
        <time>2020-07-03T07:19:49Z</time>
      </trkpt>
      <trkpt lat="47.64084" lon="1.44625">
        <ele>85.9</ele>
        <time>2020-07-03T07:19:50Z</time>
      </trkpt>
      <trkpt lat="47.6408" lon="1.44628">
        <ele>85.9</ele>
        <time>2020-07-03T07:19:51Z</time>
      </trkpt>
      <trkpt lat="47.64077" lon="1.44631">
        <ele>86</ele>
        <time>2020-07-03T07:19:52Z</time>
      </trkpt>
      <trkpt lat="47.64073" lon="1.44633">
        <ele>86</ele>
        <time>2020-07-03T07:19:53Z</time>
      </trkpt>
      <trkpt lat="47.6407" lon="1.44635">
        <ele>86</ele>
        <time>2020-07-03T07:19:54Z</time>
      </trkpt>
      <trkpt lat="47.64066" lon="1.44636">
        <ele>86</ele>
        <time>2020-07-03T07:19:55Z</time>
      </trkpt>
      <trkpt lat="47.64062" lon="1.44637">
        <ele>86</ele>
        <time>2020-07-03T07:19:56Z</time>
      </trkpt>
      <trkpt lat="47.64059" lon="1.44637">
        <ele>86.1</ele>
        <time>2020-07-03T07:19:57Z</time>
      </trkpt>
      <trkpt lat="47.64053" lon="1.44635">
        <ele>86</ele>
        <time>2020-07-03T07:19:58Z</time>
      </trkpt>
      <trkpt lat="47.64048" lon="1.44631">
        <ele>85.9</ele>
        <time>2020-07-03T07:19:59Z</time>
      </trkpt>
      <trkpt lat="47.64047" lon="1.44627">
        <ele>85.8</ele>
        <time>2020-07-03T07:20:00Z</time>
      </trkpt>
      <trkpt lat="47.64044" lon="1.4462">
        <ele>85.7</ele>
        <time>2020-07-03T07:20:01Z</time>
      </trkpt>
      <trkpt lat="47.64042" lon="1.44614">
        <ele>85.7</ele>
        <time>2020-07-03T07:20:02Z</time>
      </trkpt>
      <trkpt lat="47.6404" lon="1.44606">
        <ele>85.6</ele>
        <time>2020-07-03T07:20:03Z</time>
      </trkpt>
      <trkpt lat="47.64038" lon="1.446">
        <ele>85.5</ele>
        <time>2020-07-03T07:20:04Z</time>
      </trkpt>
      <trkpt lat="47.64035" lon="1.44594">
        <ele>85.5</ele>
        <time>2020-07-03T07:20:05Z</time>
      </trkpt>
      <trkpt lat="47.64031" lon="1.44588">
        <ele>85.5</ele>
        <time>2020-07-03T07:20:06Z</time>
      </trkpt>
      <trkpt lat="47.64028" lon="1.44581">
        <ele>85.5</ele>
        <time>2020-07-03T07:20:07Z</time>
      </trkpt>
      <trkpt lat="47.64024" lon="1.44574">
        <ele>85.5</ele>
        <time>2020-07-03T07:20:08Z</time>
      </trkpt>
      <trkpt lat="47.64021" lon="1.44568">
        <ele>85.5</ele>
        <time>2020-07-03T07:20:09Z</time>
      </trkpt>
      <trkpt lat="47.64018" lon="1.44562">
        <ele>85.5</ele>
        <time>2020-07-03T07:20:10Z</time>
      </trkpt>
      <trkpt lat="47.64015" lon="1.44555">
        <ele>85.5</ele>
        <time>2020-07-03T07:20:11Z</time>
      </trkpt>
      <trkpt lat="47.64011" lon="1.44549">
        <ele>85.6</ele>
        <time>2020-07-03T07:20:12Z</time>
      </trkpt>
      <trkpt lat="47.64007" lon="1.44543">
        <ele>85.6</ele>
        <time>2020-07-03T07:20:13Z</time>
      </trkpt>
      <trkpt lat="47.64003" lon="1.44538">
        <ele>85.6</ele>
        <time>2020-07-03T07:20:14Z</time>
      </trkpt>
      <trkpt lat="47.63999" lon="1.4453">
        <ele>85.6</ele>
        <time>2020-07-03T07:20:15Z</time>
      </trkpt>
      <trkpt lat="47.63995" lon="1.44525">
        <ele>85.6</ele>
        <time>2020-07-03T07:20:16Z</time>
      </trkpt>
      <trkpt lat="47.63992" lon="1.44519">
        <ele>85.6</ele>
        <time>2020-07-03T07:20:17Z</time>
      </trkpt>
      <trkpt lat="47.63988" lon="1.44513">
        <ele>85.7</ele>
        <time>2020-07-03T07:20:18Z</time>
      </trkpt>
      <trkpt lat="47.63984" lon="1.44506">
        <ele>85.7</ele>
        <time>2020-07-03T07:20:19Z</time>
      </trkpt>
      <trkpt lat="47.6398" lon="1.44498">
        <ele>85.7</ele>
        <time>2020-07-03T07:20:20Z</time>
      </trkpt>
      <trkpt lat="47.63976" lon="1.4449">
        <ele>85.7</ele>
        <time>2020-07-03T07:20:21Z</time>
      </trkpt>
      <trkpt lat="47.63972" lon="1.44483">
        <ele>85.6</ele>
        <time>2020-07-03T07:20:22Z</time>
      </trkpt>
      <trkpt lat="47.63969" lon="1.44476">
        <ele>85.6</ele>
        <time>2020-07-03T07:20:23Z</time>
      </trkpt>
      <trkpt lat="47.63966" lon="1.44469">
        <ele>85.6</ele>
        <time>2020-07-03T07:20:24Z</time>
      </trkpt>
      <trkpt lat="47.63963" lon="1.44462">
        <ele>85.6</ele>
        <time>2020-07-03T07:20:25Z</time>
      </trkpt>
      <trkpt lat="47.6396" lon="1.44454">
        <ele>85.6</ele>
        <time>2020-07-03T07:20:26Z</time>
      </trkpt>
      <trkpt lat="47.63956" lon="1.44448">
        <ele>85.7</ele>
        <time>2020-07-03T07:20:27Z</time>
      </trkpt>
      <trkpt lat="47.63951" lon="1.44442">
        <ele>85.7</ele>
        <time>2020-07-03T07:20:28Z</time>
      </trkpt>
      <trkpt lat="47.63946" lon="1.44437">
        <ele>85.7</ele>
        <time>2020-07-03T07:20:29Z</time>
      </trkpt>
      <trkpt lat="47.63941" lon="1.44431">
        <ele>85.7</ele>
        <time>2020-07-03T07:20:30Z</time>
      </trkpt>
      <trkpt lat="47.63937" lon="1.44425">
        <ele>85.6</ele>
        <time>2020-07-03T07:20:31Z</time>
      </trkpt>
      <trkpt lat="47.63932" lon="1.44418">
        <ele>85.6</ele>
        <time>2020-07-03T07:20:32Z</time>
      </trkpt>
      <trkpt lat="47.63927" lon="1.44411">
        <ele>85.5</ele>
        <time>2020-07-03T07:20:33Z</time>
      </trkpt>
      <trkpt lat="47.63922" lon="1.44404">
        <ele>85.5</ele>
        <time>2020-07-03T07:20:34Z</time>
      </trkpt>
      <trkpt lat="47.63917" lon="1.444">
        <ele>85.5</ele>
        <time>2020-07-03T07:20:35Z</time>
      </trkpt>
      <trkpt lat="47.63911" lon="1.44394">
        <ele>85.5</ele>
        <time>2020-07-03T07:20:36Z</time>
      </trkpt>
      <trkpt lat="47.63905" lon="1.44387">
        <ele>85.5</ele>
        <time>2020-07-03T07:20:37Z</time>
      </trkpt>
      <trkpt lat="47.639" lon="1.44381">
        <ele>85.5</ele>
        <time>2020-07-03T07:20:38Z</time>
      </trkpt>
      <trkpt lat="47.63895" lon="1.44374">
        <ele>85.5</ele>
        <time>2020-07-03T07:20:39Z</time>
      </trkpt>
      <trkpt lat="47.63889" lon="1.44368">
        <ele>85.5</ele>
        <time>2020-07-03T07:20:40Z</time>
      </trkpt>
      <trkpt lat="47.63883" lon="1.44362">
        <ele>85.5</ele>
        <time>2020-07-03T07:20:41Z</time>
      </trkpt>
      <trkpt lat="47.63877" lon="1.44355">
        <ele>85.5</ele>
        <time>2020-07-03T07:20:42Z</time>
      </trkpt>
      <trkpt lat="47.63872" lon="1.44347">
        <ele>85.4</ele>
        <time>2020-07-03T07:20:43Z</time>
      </trkpt>
      <trkpt lat="47.63867" lon="1.4434">
        <ele>85.4</ele>
        <time>2020-07-03T07:20:44Z</time>
      </trkpt>
      <trkpt lat="47.63863" lon="1.44331">
        <ele>85.3</ele>
        <time>2020-07-03T07:20:45Z</time>
      </trkpt>
      <trkpt lat="47.63859" lon="1.44323">
        <ele>85.3</ele>
        <time>2020-07-03T07:20:46Z</time>
      </trkpt>
      <trkpt lat="47.63855" lon="1.44315">
        <ele>85.3</ele>
        <time>2020-07-03T07:20:47Z</time>
      </trkpt>
      <trkpt lat="47.6385" lon="1.44307">
        <ele>85.2</ele>
        <time>2020-07-03T07:20:48Z</time>
      </trkpt>
      <trkpt lat="47.63846" lon="1.44299">
        <ele>85.2</ele>
        <time>2020-07-03T07:20:49Z</time>
      </trkpt>
      <trkpt lat="47.63841" lon="1.44291">
        <ele>85.2</ele>
        <time>2020-07-03T07:20:50Z</time>
      </trkpt>
      <trkpt lat="47.63837" lon="1.44283">
        <ele>85.1</ele>
        <time>2020-07-03T07:20:51Z</time>
      </trkpt>
      <trkpt lat="47.63833" lon="1.44275">
        <ele>85.1</ele>
        <time>2020-07-03T07:20:52Z</time>
      </trkpt>
      <trkpt lat="47.63829" lon="1.44267">
        <ele>85.1</ele>
        <time>2020-07-03T07:20:53Z</time>
      </trkpt>
      <trkpt lat="47.63825" lon="1.4426">
        <ele>85.1</ele>
        <time>2020-07-03T07:20:54Z</time>
      </trkpt>
      <trkpt lat="47.6382" lon="1.44252">
        <ele>85.1</ele>
        <time>2020-07-03T07:20:55Z</time>
      </trkpt>
      <trkpt lat="47.63816" lon="1.44244">
        <ele>85</ele>
        <time>2020-07-03T07:20:56Z</time>
      </trkpt>
      <trkpt lat="47.63812" lon="1.44237">
        <ele>85</ele>
        <time>2020-07-03T07:20:57Z</time>
      </trkpt>
      <trkpt lat="47.63807" lon="1.4423">
        <ele>85</ele>
        <time>2020-07-03T07:20:58Z</time>
      </trkpt>
      <trkpt lat="47.63803" lon="1.44221">
        <ele>85</ele>
        <time>2020-07-03T07:20:59Z</time>
      </trkpt>
      <trkpt lat="47.63799" lon="1.44214">
        <ele>85</ele>
        <time>2020-07-03T07:21:00Z</time>
      </trkpt>
      <trkpt lat="47.63795" lon="1.44206">
        <ele>85</ele>
        <time>2020-07-03T07:21:01Z</time>
      </trkpt>
      <trkpt lat="47.63791" lon="1.44199">
        <ele>85</ele>
        <time>2020-07-03T07:21:02Z</time>
      </trkpt>
      <trkpt lat="47.63787" lon="1.44192">
        <ele>85</ele>
        <time>2020-07-03T07:21:03Z</time>
      </trkpt>
      <trkpt lat="47.63782" lon="1.44186">
        <ele>85</ele>
        <time>2020-07-03T07:21:04Z</time>
      </trkpt>
      <trkpt lat="47.63777" lon="1.44179">
        <ele>84.9</ele>
        <time>2020-07-03T07:21:05Z</time>
      </trkpt>
      <trkpt lat="47.63773" lon="1.44172">
        <ele>84.9</ele>
        <time>2020-07-03T07:21:06Z</time>
      </trkpt>
      <trkpt lat="47.63769" lon="1.44165">
        <ele>85</ele>
        <time>2020-07-03T07:21:07Z</time>
      </trkpt>
      <trkpt lat="47.63765" lon="1.44158">
        <ele>85</ele>
        <time>2020-07-03T07:21:08Z</time>
      </trkpt>
      <trkpt lat="47.63761" lon="1.44151">
        <ele>85</ele>
        <time>2020-07-03T07:21:09Z</time>
      </trkpt>
      <trkpt lat="47.63757" lon="1.44144">
        <ele>85</ele>
        <time>2020-07-03T07:21:10Z</time>
      </trkpt>
      <trkpt lat="47.63753" lon="1.44136">
        <ele>85</ele>
        <time>2020-07-03T07:21:11Z</time>
      </trkpt>
      <trkpt lat="47.63748" lon="1.44129">
        <ele>85</ele>
        <time>2020-07-03T07:21:12Z</time>
      </trkpt>
      <trkpt lat="47.63744" lon="1.44122">
        <ele>85</ele>
        <time>2020-07-03T07:21:13Z</time>
      </trkpt>
      <trkpt lat="47.6374" lon="1.44115">
        <ele>85</ele>
        <time>2020-07-03T07:21:14Z</time>
      </trkpt>
      <trkpt lat="47.63736" lon="1.44107">
        <ele>85.1</ele>
        <time>2020-07-03T07:21:15Z</time>
      </trkpt>
      <trkpt lat="47.63732" lon="1.441">
        <ele>85.1</ele>
        <time>2020-07-03T07:21:16Z</time>
      </trkpt>
      <trkpt lat="47.63728" lon="1.44093">
        <ele>85.1</ele>
        <time>2020-07-03T07:21:17Z</time>
      </trkpt>
      <trkpt lat="47.63724" lon="1.44086">
        <ele>85.2</ele>
        <time>2020-07-03T07:21:18Z</time>
      </trkpt>
      <trkpt lat="47.63719" lon="1.44079">
        <ele>85.2</ele>
        <time>2020-07-03T07:21:19Z</time>
      </trkpt>
      <trkpt lat="47.63715" lon="1.44072">
        <ele>85.3</ele>
        <time>2020-07-03T07:21:20Z</time>
      </trkpt>
      <trkpt lat="47.6371" lon="1.44066">
        <ele>85.4</ele>
        <time>2020-07-03T07:21:21Z</time>
      </trkpt>
      <trkpt lat="47.63705" lon="1.44059">
        <ele>85.4</ele>
        <time>2020-07-03T07:21:22Z</time>
      </trkpt>
      <trkpt lat="47.63701" lon="1.44052">
        <ele>85.5</ele>
        <time>2020-07-03T07:21:23Z</time>
      </trkpt>
      <trkpt lat="47.63696" lon="1.44045">
        <ele>85.5</ele>
        <time>2020-07-03T07:21:24Z</time>
      </trkpt>
      <trkpt lat="47.63692" lon="1.44038">
        <ele>85.6</ele>
        <time>2020-07-03T07:21:25Z</time>
      </trkpt>
      <trkpt lat="47.63687" lon="1.44032">
        <ele>85.6</ele>
        <time>2020-07-03T07:21:26Z</time>
      </trkpt>
      <trkpt lat="47.63682" lon="1.44027">
        <ele>85.5</ele>
        <time>2020-07-03T07:21:27Z</time>
      </trkpt>
      <trkpt lat="47.63677" lon="1.4402">
        <ele>85.5</ele>
        <time>2020-07-03T07:21:28Z</time>
      </trkpt>
      <trkpt lat="47.63673" lon="1.44014">
        <ele>85.5</ele>
        <time>2020-07-03T07:21:29Z</time>
      </trkpt>
      <trkpt lat="47.63669" lon="1.44007">
        <ele>85.5</ele>
        <time>2020-07-03T07:21:30Z</time>
      </trkpt>
      <trkpt lat="47.63665" lon="1.44">
        <ele>85.5</ele>
        <time>2020-07-03T07:21:31Z</time>
      </trkpt>
      <trkpt lat="47.6366" lon="1.43993">
        <ele>85.5</ele>
        <time>2020-07-03T07:21:32Z</time>
      </trkpt>
      <trkpt lat="47.63655" lon="1.43987">
        <ele>85.5</ele>
        <time>2020-07-03T07:21:33Z</time>
      </trkpt>
      <trkpt lat="47.6365" lon="1.43981">
        <ele>85.5</ele>
        <time>2020-07-03T07:21:34Z</time>
      </trkpt>
      <trkpt lat="47.63646" lon="1.43975">
        <ele>85.5</ele>
        <time>2020-07-03T07:21:35Z</time>
      </trkpt>
      <trkpt lat="47.63641" lon="1.43968">
        <ele>85.6</ele>
        <time>2020-07-03T07:21:36Z</time>
      </trkpt>
      <trkpt lat="47.63637" lon="1.43962">
        <ele>85.6</ele>
        <time>2020-07-03T07:21:37Z</time>
      </trkpt>
      <trkpt lat="47.63633" lon="1.43955">
        <ele>85.6</ele>
        <time>2020-07-03T07:21:38Z</time>
      </trkpt>
      <trkpt lat="47.63629" lon="1.43948">
        <ele>85.6</ele>
        <time>2020-07-03T07:21:39Z</time>
      </trkpt>
      <trkpt lat="47.63623" lon="1.43944">
        <ele>85.6</ele>
        <time>2020-07-03T07:21:40Z</time>
      </trkpt>
      <trkpt lat="47.63618" lon="1.4394">
        <ele>85.6</ele>
        <time>2020-07-03T07:21:41Z</time>
      </trkpt>
      <trkpt lat="47.63612" lon="1.43936">
        <ele>85.7</ele>
        <time>2020-07-03T07:21:42Z</time>
      </trkpt>
      <trkpt lat="47.63607" lon="1.43931">
        <ele>85.8</ele>
        <time>2020-07-03T07:21:43Z</time>
      </trkpt>
      <trkpt lat="47.63602" lon="1.43926">
        <ele>85.9</ele>
        <time>2020-07-03T07:21:44Z</time>
      </trkpt>
      <trkpt lat="47.63596" lon="1.43922">
        <ele>86</ele>
        <time>2020-07-03T07:21:45Z</time>
      </trkpt>
      <trkpt lat="47.63591" lon="1.43918">
        <ele>86.1</ele>
        <time>2020-07-03T07:21:46Z</time>
      </trkpt>
      <trkpt lat="47.63585" lon="1.43914">
        <ele>86.1</ele>
        <time>2020-07-03T07:21:47Z</time>
      </trkpt>
      <trkpt lat="47.63579" lon="1.43911">
        <ele>86.2</ele>
        <time>2020-07-03T07:21:48Z</time>
      </trkpt>
      <trkpt lat="47.63574" lon="1.43907">
        <ele>86.3</ele>
        <time>2020-07-03T07:21:49Z</time>
      </trkpt>
      <trkpt lat="47.63569" lon="1.43906">
        <ele>86.4</ele>
        <time>2020-07-03T07:21:50Z</time>
      </trkpt>
      <trkpt lat="47.63563" lon="1.43904">
        <ele>86.4</ele>
        <time>2020-07-03T07:21:51Z</time>
      </trkpt>
      <trkpt lat="47.63557" lon="1.43902">
        <ele>86.5</ele>
        <time>2020-07-03T07:21:52Z</time>
      </trkpt>
      <trkpt lat="47.63552" lon="1.439">
        <ele>86.6</ele>
        <time>2020-07-03T07:21:53Z</time>
      </trkpt>
      <trkpt lat="47.63546" lon="1.43899">
        <ele>86.7</ele>
        <time>2020-07-03T07:21:54Z</time>
      </trkpt>
      <trkpt lat="47.6354" lon="1.43897">
        <ele>86.7</ele>
        <time>2020-07-03T07:21:55Z</time>
      </trkpt>
      <trkpt lat="47.63534" lon="1.43896">
        <ele>86.8</ele>
        <time>2020-07-03T07:21:56Z</time>
      </trkpt>
      <trkpt lat="47.63529" lon="1.43894">
        <ele>86.8</ele>
        <time>2020-07-03T07:21:57Z</time>
      </trkpt>
      <trkpt lat="47.63523" lon="1.43892">
        <ele>86.8</ele>
        <time>2020-07-03T07:21:58Z</time>
      </trkpt>
      <trkpt lat="47.63516" lon="1.4389">
        <ele>86.8</ele>
        <time>2020-07-03T07:21:59Z</time>
      </trkpt>
      <trkpt lat="47.63509" lon="1.43887">
        <ele>86.8</ele>
        <time>2020-07-03T07:22:00Z</time>
      </trkpt>
      <trkpt lat="47.63504" lon="1.43886">
        <ele>86.8</ele>
        <time>2020-07-03T07:22:01Z</time>
      </trkpt>
      <trkpt lat="47.63498" lon="1.43883">
        <ele>86.8</ele>
        <time>2020-07-03T07:22:02Z</time>
      </trkpt>
      <trkpt lat="47.63492" lon="1.43881">
        <ele>86.8</ele>
        <time>2020-07-03T07:22:03Z</time>
      </trkpt>
      <trkpt lat="47.63485" lon="1.43877">
        <ele>86.7</ele>
        <time>2020-07-03T07:22:04Z</time>
      </trkpt>
      <trkpt lat="47.63478" lon="1.43876">
        <ele>86.6</ele>
        <time>2020-07-03T07:22:05Z</time>
      </trkpt>
      <trkpt lat="47.63472" lon="1.43875">
        <ele>86.6</ele>
        <time>2020-07-03T07:22:06Z</time>
      </trkpt>
      <trkpt lat="47.63465" lon="1.43874">
        <ele>86.6</ele>
        <time>2020-07-03T07:22:07Z</time>
      </trkpt>
      <trkpt lat="47.63459" lon="1.43876">
        <ele>86.6</ele>
        <time>2020-07-03T07:22:08Z</time>
      </trkpt>
      <trkpt lat="47.63452" lon="1.43876">
        <ele>86.5</ele>
        <time>2020-07-03T07:22:09Z</time>
      </trkpt>
      <trkpt lat="47.63444" lon="1.43877">
        <ele>86.5</ele>
        <time>2020-07-03T07:22:10Z</time>
      </trkpt>
      <trkpt lat="47.63437" lon="1.43878">
        <ele>86.5</ele>
        <time>2020-07-03T07:22:11Z</time>
      </trkpt>
      <trkpt lat="47.6343" lon="1.43879">
        <ele>86.5</ele>
        <time>2020-07-03T07:22:12Z</time>
      </trkpt>
      <trkpt lat="47.63423" lon="1.4388">
        <ele>86.5</ele>
        <time>2020-07-03T07:22:13Z</time>
      </trkpt>
      <trkpt lat="47.63416" lon="1.4388">
        <ele>86.6</ele>
        <time>2020-07-03T07:22:14Z</time>
      </trkpt>
      <trkpt lat="47.63408" lon="1.43881">
        <ele>86.6</ele>
        <time>2020-07-03T07:22:15Z</time>
      </trkpt>
      <trkpt lat="47.63402" lon="1.43881">
        <ele>86.6</ele>
        <time>2020-07-03T07:22:16Z</time>
      </trkpt>
      <trkpt lat="47.63395" lon="1.43881">
        <ele>86.7</ele>
        <time>2020-07-03T07:22:17Z</time>
      </trkpt>
      <trkpt lat="47.63388" lon="1.43882">
        <ele>86.7</ele>
        <time>2020-07-03T07:22:18Z</time>
      </trkpt>
      <trkpt lat="47.63381" lon="1.43882">
        <ele>86.7</ele>
        <time>2020-07-03T07:22:19Z</time>
      </trkpt>
      <trkpt lat="47.63374" lon="1.43882">
        <ele>86.7</ele>
        <time>2020-07-03T07:22:20Z</time>
      </trkpt>
      <trkpt lat="47.63367" lon="1.43882">
        <ele>86.7</ele>
        <time>2020-07-03T07:22:21Z</time>
      </trkpt>
      <trkpt lat="47.63359" lon="1.43882">
        <ele>86.6</ele>
        <time>2020-07-03T07:22:22Z</time>
      </trkpt>
      <trkpt lat="47.63352" lon="1.43882">
        <ele>86.6</ele>
        <time>2020-07-03T07:22:23Z</time>
      </trkpt>
      <trkpt lat="47.63345" lon="1.43882">
        <ele>86.5</ele>
        <time>2020-07-03T07:22:24Z</time>
      </trkpt>
      <trkpt lat="47.63338" lon="1.43883">
        <ele>86.5</ele>
        <time>2020-07-03T07:22:25Z</time>
      </trkpt>
      <trkpt lat="47.63332" lon="1.43883">
        <ele>86.4</ele>
        <time>2020-07-03T07:22:26Z</time>
      </trkpt>
      <trkpt lat="47.63325" lon="1.43883">
        <ele>86.4</ele>
        <time>2020-07-03T07:22:27Z</time>
      </trkpt>
      <trkpt lat="47.63318" lon="1.43884">
        <ele>86.4</ele>
        <time>2020-07-03T07:22:28Z</time>
      </trkpt>
      <trkpt lat="47.63311" lon="1.43883">
        <ele>86.4</ele>
        <time>2020-07-03T07:22:29Z</time>
      </trkpt>
      <trkpt lat="47.63304" lon="1.43883">
        <ele>86.4</ele>
        <time>2020-07-03T07:22:30Z</time>
      </trkpt>
      <trkpt lat="47.63297" lon="1.43882">
        <ele>86.4</ele>
        <time>2020-07-03T07:22:31Z</time>
      </trkpt>
      <trkpt lat="47.63289" lon="1.43882">
        <ele>86.4</ele>
        <time>2020-07-03T07:22:32Z</time>
      </trkpt>
      <trkpt lat="47.63282" lon="1.43881">
        <ele>86.4</ele>
        <time>2020-07-03T07:22:33Z</time>
      </trkpt>
      <trkpt lat="47.63275" lon="1.43881">
        <ele>86.4</ele>
        <time>2020-07-03T07:22:34Z</time>
      </trkpt>
      <trkpt lat="47.63268" lon="1.43879">
        <ele>86.4</ele>
        <time>2020-07-03T07:22:35Z</time>
      </trkpt>
      <trkpt lat="47.63261" lon="1.43878">
        <ele>86.4</ele>
        <time>2020-07-03T07:22:36Z</time>
      </trkpt>
      <trkpt lat="47.63253" lon="1.43877">
        <ele>86.5</ele>
        <time>2020-07-03T07:22:37Z</time>
      </trkpt>
      <trkpt lat="47.63246" lon="1.43876">
        <ele>86.5</ele>
        <time>2020-07-03T07:22:38Z</time>
      </trkpt>
      <trkpt lat="47.63239" lon="1.43874">
        <ele>86.6</ele>
        <time>2020-07-03T07:22:39Z</time>
      </trkpt>
      <trkpt lat="47.63232" lon="1.43872">
        <ele>86.6</ele>
        <time>2020-07-03T07:22:40Z</time>
      </trkpt>
      <trkpt lat="47.63225" lon="1.4387">
        <ele>86.7</ele>
        <time>2020-07-03T07:22:41Z</time>
      </trkpt>
      <trkpt lat="47.63218" lon="1.4387">
        <ele>86.8</ele>
        <time>2020-07-03T07:22:42Z</time>
      </trkpt>
      <trkpt lat="47.63211" lon="1.43868">
        <ele>86.8</ele>
        <time>2020-07-03T07:22:43Z</time>
      </trkpt>
      <trkpt lat="47.63204" lon="1.43866">
        <ele>86.9</ele>
        <time>2020-07-03T07:22:44Z</time>
      </trkpt>
      <trkpt lat="47.63197" lon="1.43864">
        <ele>86.8</ele>
        <time>2020-07-03T07:22:45Z</time>
      </trkpt>
      <trkpt lat="47.63191" lon="1.43861">
        <ele>86.7</ele>
        <time>2020-07-03T07:22:46Z</time>
      </trkpt>
      <trkpt lat="47.63184" lon="1.4386">
        <ele>86.5</ele>
        <time>2020-07-03T07:22:47Z</time>
      </trkpt>
      <trkpt lat="47.63177" lon="1.43858">
        <ele>86.5</ele>
        <time>2020-07-03T07:22:48Z</time>
      </trkpt>
      <trkpt lat="47.6317" lon="1.43856">
        <ele>86.4</ele>
        <time>2020-07-03T07:22:49Z</time>
      </trkpt>
      <trkpt lat="47.63164" lon="1.43854">
        <ele>86.3</ele>
        <time>2020-07-03T07:22:50Z</time>
      </trkpt>
      <trkpt lat="47.63157" lon="1.43852">
        <ele>86.2</ele>
        <time>2020-07-03T07:22:51Z</time>
      </trkpt>
      <trkpt lat="47.6315" lon="1.43851">
        <ele>86.1</ele>
        <time>2020-07-03T07:22:52Z</time>
      </trkpt>
      <trkpt lat="47.63143" lon="1.43849">
        <ele>86</ele>
        <time>2020-07-03T07:22:53Z</time>
      </trkpt>
      <trkpt lat="47.63136" lon="1.43847">
        <ele>86</ele>
        <time>2020-07-03T07:22:54Z</time>
      </trkpt>
      <trkpt lat="47.63128" lon="1.43846">
        <ele>86</ele>
        <time>2020-07-03T07:22:55Z</time>
      </trkpt>
      <trkpt lat="47.63121" lon="1.43844">
        <ele>86</ele>
        <time>2020-07-03T07:22:56Z</time>
      </trkpt>
      <trkpt lat="47.63113" lon="1.43842">
        <ele>85.9</ele>
        <time>2020-07-03T07:22:57Z</time>
      </trkpt>
      <trkpt lat="47.63106" lon="1.43839">
        <ele>85.8</ele>
        <time>2020-07-03T07:22:58Z</time>
      </trkpt>
      <trkpt lat="47.63099" lon="1.43836">
        <ele>85.7</ele>
        <time>2020-07-03T07:22:59Z</time>
      </trkpt>
      <trkpt lat="47.63091" lon="1.43833">
        <ele>85.6</ele>
        <time>2020-07-03T07:23:00Z</time>
      </trkpt>
      <trkpt lat="47.63084" lon="1.43831">
        <ele>85.6</ele>
        <time>2020-07-03T07:23:01Z</time>
      </trkpt>
      <trkpt lat="47.63077" lon="1.43828">
        <ele>85.5</ele>
        <time>2020-07-03T07:23:02Z</time>
      </trkpt>
      <trkpt lat="47.6307" lon="1.43824">
        <ele>85.4</ele>
        <time>2020-07-03T07:23:03Z</time>
      </trkpt>
      <trkpt lat="47.63063" lon="1.4382">
        <ele>85.3</ele>
        <time>2020-07-03T07:23:04Z</time>
      </trkpt>
      <trkpt lat="47.63056" lon="1.43816">
        <ele>85.3</ele>
        <time>2020-07-03T07:23:05Z</time>
      </trkpt>
      <trkpt lat="47.6305" lon="1.43812">
        <ele>85.3</ele>
        <time>2020-07-03T07:23:06Z</time>
      </trkpt>
      <trkpt lat="47.63043" lon="1.43808">
        <ele>85.3</ele>
        <time>2020-07-03T07:23:07Z</time>
      </trkpt>
      <trkpt lat="47.63036" lon="1.43803">
        <ele>85.3</ele>
        <time>2020-07-03T07:23:08Z</time>
      </trkpt>
      <trkpt lat="47.6303" lon="1.43798">
        <ele>85.2</ele>
        <time>2020-07-03T07:23:09Z</time>
      </trkpt>
      <trkpt lat="47.63023" lon="1.43793">
        <ele>85.1</ele>
        <time>2020-07-03T07:23:10Z</time>
      </trkpt>
      <trkpt lat="47.63016" lon="1.43788">
        <ele>84.9</ele>
        <time>2020-07-03T07:23:11Z</time>
      </trkpt>
      <trkpt lat="47.6301" lon="1.43784">
        <ele>84.8</ele>
        <time>2020-07-03T07:23:12Z</time>
      </trkpt>
      <trkpt lat="47.63003" lon="1.43779">
        <ele>84.6</ele>
        <time>2020-07-03T07:23:13Z</time>
      </trkpt>
      <trkpt lat="47.62997" lon="1.43774">
        <ele>84.6</ele>
        <time>2020-07-03T07:23:14Z</time>
      </trkpt>
      <trkpt lat="47.62991" lon="1.4377">
        <ele>84.5</ele>
        <time>2020-07-03T07:23:15Z</time>
      </trkpt>
      <trkpt lat="47.62984" lon="1.43765">
        <ele>84.5</ele>
        <time>2020-07-03T07:23:16Z</time>
      </trkpt>
      <trkpt lat="47.62978" lon="1.4376">
        <ele>84.5</ele>
        <time>2020-07-03T07:23:17Z</time>
      </trkpt>
      <trkpt lat="47.62972" lon="1.43756">
        <ele>84.5</ele>
        <time>2020-07-03T07:23:18Z</time>
      </trkpt>
      <trkpt lat="47.62966" lon="1.43751">
        <ele>84.4</ele>
        <time>2020-07-03T07:23:19Z</time>
      </trkpt>
      <trkpt lat="47.62959" lon="1.43748">
        <ele>84.4</ele>
        <time>2020-07-03T07:23:20Z</time>
      </trkpt>
      <trkpt lat="47.62954" lon="1.43744">
        <ele>84.4</ele>
        <time>2020-07-03T07:23:21Z</time>
      </trkpt>
      <trkpt lat="47.62948" lon="1.4374">
        <ele>84.3</ele>
        <time>2020-07-03T07:23:22Z</time>
      </trkpt>
      <trkpt lat="47.62943" lon="1.43736">
        <ele>84.3</ele>
        <time>2020-07-03T07:23:23Z</time>
      </trkpt>
      <trkpt lat="47.62937" lon="1.43732">
        <ele>84.3</ele>
        <time>2020-07-03T07:23:24Z</time>
      </trkpt>
      <trkpt lat="47.62932" lon="1.43728">
        <ele>84.3</ele>
        <time>2020-07-03T07:23:25Z</time>
      </trkpt>
      <trkpt lat="47.62927" lon="1.43724">
        <ele>84.4</ele>
        <time>2020-07-03T07:23:26Z</time>
      </trkpt>
      <trkpt lat="47.62922" lon="1.4372">
        <ele>84.5</ele>
        <time>2020-07-03T07:23:27Z</time>
      </trkpt>
      <trkpt lat="47.62917" lon="1.43717">
        <ele>84.5</ele>
        <time>2020-07-03T07:23:28Z</time>
      </trkpt>
      <trkpt lat="47.62912" lon="1.43714">
        <ele>84.6</ele>
        <time>2020-07-03T07:23:29Z</time>
      </trkpt>
      <trkpt lat="47.62907" lon="1.4371">
        <ele>84.7</ele>
        <time>2020-07-03T07:23:30Z</time>
      </trkpt>
      <trkpt lat="47.62902" lon="1.43706">
        <ele>84.7</ele>
        <time>2020-07-03T07:23:31Z</time>
      </trkpt>
      <trkpt lat="47.62897" lon="1.43702">
        <ele>84.7</ele>
        <time>2020-07-03T07:23:32Z</time>
      </trkpt>
      <trkpt lat="47.62893" lon="1.43698">
        <ele>84.8</ele>
        <time>2020-07-03T07:23:33Z</time>
      </trkpt>
      <trkpt lat="47.62888" lon="1.43694">
        <ele>84.9</ele>
        <time>2020-07-03T07:23:34Z</time>
      </trkpt>
      <trkpt lat="47.62883" lon="1.43691">
        <ele>84.9</ele>
        <time>2020-07-03T07:23:35Z</time>
      </trkpt>
      <trkpt lat="47.62878" lon="1.43688">
        <ele>85</ele>
        <time>2020-07-03T07:23:36Z</time>
      </trkpt>
      <trkpt lat="47.62873" lon="1.43684">
        <ele>85.1</ele>
        <time>2020-07-03T07:23:37Z</time>
      </trkpt>
      <trkpt lat="47.62868" lon="1.43682">
        <ele>85.2</ele>
        <time>2020-07-03T07:23:38Z</time>
      </trkpt>
      <trkpt lat="47.62864" lon="1.43679">
        <ele>85.2</ele>
        <time>2020-07-03T07:23:39Z</time>
      </trkpt>
      <trkpt lat="47.62859" lon="1.43676">
        <ele>85.2</ele>
        <time>2020-07-03T07:23:40Z</time>
      </trkpt>
      <trkpt lat="47.62854" lon="1.43673">
        <ele>85.3</ele>
        <time>2020-07-03T07:23:41Z</time>
      </trkpt>
      <trkpt lat="47.62849" lon="1.43669">
        <ele>85.3</ele>
        <time>2020-07-03T07:23:42Z</time>
      </trkpt>
      <trkpt lat="47.62844" lon="1.43667">
        <ele>85.3</ele>
        <time>2020-07-03T07:23:43Z</time>
      </trkpt>
      <trkpt lat="47.6284" lon="1.43663">
        <ele>85.3</ele>
        <time>2020-07-03T07:23:44Z</time>
      </trkpt>
      <trkpt lat="47.62835" lon="1.4366">
        <ele>85.3</ele>
        <time>2020-07-03T07:23:45Z</time>
      </trkpt>
      <trkpt lat="47.62831" lon="1.43657">
        <ele>85.2</ele>
        <time>2020-07-03T07:23:46Z</time>
      </trkpt>
      <trkpt lat="47.62826" lon="1.43654">
        <ele>85.2</ele>
        <time>2020-07-03T07:23:47Z</time>
      </trkpt>
      <trkpt lat="47.62821" lon="1.43651">
        <ele>85.2</ele>
        <time>2020-07-03T07:23:48Z</time>
      </trkpt>
      <trkpt lat="47.62815" lon="1.43648">
        <ele>85.1</ele>
        <time>2020-07-03T07:23:49Z</time>
      </trkpt>
      <trkpt lat="47.6281" lon="1.43645">
        <ele>85</ele>
        <time>2020-07-03T07:23:50Z</time>
      </trkpt>
      <trkpt lat="47.62804" lon="1.43642">
        <ele>84.9</ele>
        <time>2020-07-03T07:23:51Z</time>
      </trkpt>
      <trkpt lat="47.62799" lon="1.4364">
        <ele>84.9</ele>
        <time>2020-07-03T07:23:52Z</time>
      </trkpt>
      <trkpt lat="47.62794" lon="1.43637">
        <ele>84.9</ele>
        <time>2020-07-03T07:23:53Z</time>
      </trkpt>
      <trkpt lat="47.62788" lon="1.43634">
        <ele>84.9</ele>
        <time>2020-07-03T07:23:54Z</time>
      </trkpt>
      <trkpt lat="47.62782" lon="1.43631">
        <ele>84.9</ele>
        <time>2020-07-03T07:23:55Z</time>
      </trkpt>
      <trkpt lat="47.62777" lon="1.43629">
        <ele>84.9</ele>
        <time>2020-07-03T07:23:56Z</time>
      </trkpt>
      <trkpt lat="47.62772" lon="1.43627">
        <ele>84.9</ele>
        <time>2020-07-03T07:23:57Z</time>
      </trkpt>
      <trkpt lat="47.62767" lon="1.43625">
        <ele>84.8</ele>
        <time>2020-07-03T07:23:58Z</time>
      </trkpt>
      <trkpt lat="47.62762" lon="1.43623">
        <ele>84.8</ele>
        <time>2020-07-03T07:23:59Z</time>
      </trkpt>
      <trkpt lat="47.62757" lon="1.43621">
        <ele>84.7</ele>
        <time>2020-07-03T07:24:00Z</time>
      </trkpt>
      <trkpt lat="47.62753" lon="1.43618">
        <ele>84.6</ele>
        <time>2020-07-03T07:24:01Z</time>
      </trkpt>
      <trkpt lat="47.62748" lon="1.43615">
        <ele>84.5</ele>
        <time>2020-07-03T07:24:02Z</time>
      </trkpt>
      <trkpt lat="47.62742" lon="1.43612">
        <ele>84.4</ele>
        <time>2020-07-03T07:24:03Z</time>
      </trkpt>
      <trkpt lat="47.62736" lon="1.43609">
        <ele>84.4</ele>
        <time>2020-07-03T07:24:04Z</time>
      </trkpt>
      <trkpt lat="47.62731" lon="1.43607">
        <ele>84.3</ele>
        <time>2020-07-03T07:24:05Z</time>
      </trkpt>
      <trkpt lat="47.62725" lon="1.43604">
        <ele>84.3</ele>
        <time>2020-07-03T07:24:06Z</time>
      </trkpt>
      <trkpt lat="47.62719" lon="1.436">
        <ele>84.3</ele>
        <time>2020-07-03T07:24:07Z</time>
      </trkpt>
      <trkpt lat="47.62714" lon="1.43597">
        <ele>84.2</ele>
        <time>2020-07-03T07:24:08Z</time>
      </trkpt>
      <trkpt lat="47.62708" lon="1.43594">
        <ele>84.2</ele>
        <time>2020-07-03T07:24:09Z</time>
      </trkpt>
      <trkpt lat="47.62703" lon="1.43592">
        <ele>84.1</ele>
        <time>2020-07-03T07:24:10Z</time>
      </trkpt>
      <trkpt lat="47.62698" lon="1.43588">
        <ele>84.1</ele>
        <time>2020-07-03T07:24:11Z</time>
      </trkpt>
      <trkpt lat="47.62692" lon="1.43585">
        <ele>84</ele>
        <time>2020-07-03T07:24:12Z</time>
      </trkpt>
      <trkpt lat="47.62688" lon="1.43583">
        <ele>83.9</ele>
        <time>2020-07-03T07:24:13Z</time>
      </trkpt>
      <trkpt lat="47.62683" lon="1.43579">
        <ele>83.9</ele>
        <time>2020-07-03T07:24:14Z</time>
      </trkpt>
      <trkpt lat="47.62678" lon="1.43575">
        <ele>83.8</ele>
        <time>2020-07-03T07:24:15Z</time>
      </trkpt>
      <trkpt lat="47.62673" lon="1.43572">
        <ele>83.7</ele>
        <time>2020-07-03T07:24:16Z</time>
      </trkpt>
      <trkpt lat="47.62669" lon="1.43568">
        <ele>83.6</ele>
        <time>2020-07-03T07:24:17Z</time>
      </trkpt>
      <trkpt lat="47.62663" lon="1.43565">
        <ele>83.6</ele>
        <time>2020-07-03T07:24:18Z</time>
      </trkpt>
      <trkpt lat="47.62656" lon="1.43561">
        <ele>83.5</ele>
        <time>2020-07-03T07:24:19Z</time>
      </trkpt>
      <trkpt lat="47.6265" lon="1.43557">
        <ele>83.4</ele>
        <time>2020-07-03T07:24:20Z</time>
      </trkpt>
      <trkpt lat="47.62645" lon="1.43552">
        <ele>83.4</ele>
        <time>2020-07-03T07:24:21Z</time>
      </trkpt>
      <trkpt lat="47.6264" lon="1.43547">
        <ele>83.3</ele>
        <time>2020-07-03T07:24:22Z</time>
      </trkpt>
      <trkpt lat="47.62635" lon="1.43542">
        <ele>83.3</ele>
        <time>2020-07-03T07:24:23Z</time>
      </trkpt>
      <trkpt lat="47.62629" lon="1.43534">
        <ele>83.3</ele>
        <time>2020-07-03T07:24:24Z</time>
      </trkpt>
      <trkpt lat="47.62624" lon="1.43529">
        <ele>83.2</ele>
        <time>2020-07-03T07:24:25Z</time>
      </trkpt>
      <trkpt lat="47.62619" lon="1.43524">
        <ele>83.2</ele>
        <time>2020-07-03T07:24:26Z</time>
      </trkpt>
      <trkpt lat="47.62613" lon="1.43517">
        <ele>83.2</ele>
        <time>2020-07-03T07:24:27Z</time>
      </trkpt>
      <trkpt lat="47.62609" lon="1.4351">
        <ele>83.2</ele>
        <time>2020-07-03T07:24:28Z</time>
      </trkpt>
      <trkpt lat="47.62604" lon="1.43502">
        <ele>83.2</ele>
        <time>2020-07-03T07:24:29Z</time>
      </trkpt>
      <trkpt lat="47.626" lon="1.43492">
        <ele>83.2</ele>
        <time>2020-07-03T07:24:30Z</time>
      </trkpt>
      <trkpt lat="47.62596" lon="1.43484">
        <ele>83.2</ele>
        <time>2020-07-03T07:24:31Z</time>
      </trkpt>
      <trkpt lat="47.62591" lon="1.43476">
        <ele>83.2</ele>
        <time>2020-07-03T07:24:32Z</time>
      </trkpt>
      <trkpt lat="47.62587" lon="1.43468">
        <ele>83.2</ele>
        <time>2020-07-03T07:24:33Z</time>
      </trkpt>
      <trkpt lat="47.62584" lon="1.43461">
        <ele>83.2</ele>
        <time>2020-07-03T07:24:34Z</time>
      </trkpt>
      <trkpt lat="47.62581" lon="1.43453">
        <ele>83.2</ele>
        <time>2020-07-03T07:24:35Z</time>
      </trkpt>
      <trkpt lat="47.62577" lon="1.43446">
        <ele>83.2</ele>
        <time>2020-07-03T07:24:36Z</time>
      </trkpt>
      <trkpt lat="47.62573" lon="1.43437">
        <ele>83.2</ele>
        <time>2020-07-03T07:24:37Z</time>
      </trkpt>
      <trkpt lat="47.62569" lon="1.4343">
        <ele>83.2</ele>
        <time>2020-07-03T07:24:38Z</time>
      </trkpt>
      <trkpt lat="47.62566" lon="1.43422">
        <ele>83.2</ele>
        <time>2020-07-03T07:24:39Z</time>
      </trkpt>
      <trkpt lat="47.62562" lon="1.43415">
        <ele>83.1</ele>
        <time>2020-07-03T07:24:40Z</time>
      </trkpt>
      <trkpt lat="47.62559" lon="1.43407">
        <ele>83.1</ele>
        <time>2020-07-03T07:24:41Z</time>
      </trkpt>
      <trkpt lat="47.62555" lon="1.43398">
        <ele>83</ele>
        <time>2020-07-03T07:24:42Z</time>
      </trkpt>
      <trkpt lat="47.62551" lon="1.43391">
        <ele>82.9</ele>
        <time>2020-07-03T07:24:43Z</time>
      </trkpt>
      <trkpt lat="47.62547" lon="1.43384">
        <ele>82.8</ele>
        <time>2020-07-03T07:24:44Z</time>
      </trkpt>
      <trkpt lat="47.62544" lon="1.43375">
        <ele>82.8</ele>
        <time>2020-07-03T07:24:45Z</time>
      </trkpt>
      <trkpt lat="47.6254" lon="1.43367">
        <ele>82.7</ele>
        <time>2020-07-03T07:24:46Z</time>
      </trkpt>
      <trkpt lat="47.62536" lon="1.43359">
        <ele>82.7</ele>
        <time>2020-07-03T07:24:47Z</time>
      </trkpt>
      <trkpt lat="47.62532" lon="1.43352">
        <ele>82.7</ele>
        <time>2020-07-03T07:24:48Z</time>
      </trkpt>
      <trkpt lat="47.62528" lon="1.43344">
        <ele>82.7</ele>
        <time>2020-07-03T07:24:49Z</time>
      </trkpt>
      <trkpt lat="47.62524" lon="1.43336">
        <ele>82.7</ele>
        <time>2020-07-03T07:24:50Z</time>
      </trkpt>
      <trkpt lat="47.6252" lon="1.43328">
        <ele>82.8</ele>
        <time>2020-07-03T07:24:51Z</time>
      </trkpt>
      <trkpt lat="47.62516" lon="1.4332">
        <ele>82.8</ele>
        <time>2020-07-03T07:24:52Z</time>
      </trkpt>
      <trkpt lat="47.62513" lon="1.43312">
        <ele>82.8</ele>
        <time>2020-07-03T07:24:53Z</time>
      </trkpt>
      <trkpt lat="47.62509" lon="1.43305">
        <ele>82.9</ele>
        <time>2020-07-03T07:24:54Z</time>
      </trkpt>
      <trkpt lat="47.62505" lon="1.43297">
        <ele>82.9</ele>
        <time>2020-07-03T07:24:55Z</time>
      </trkpt>
      <trkpt lat="47.62502" lon="1.43289">
        <ele>82.9</ele>
        <time>2020-07-03T07:24:56Z</time>
      </trkpt>
      <trkpt lat="47.62498" lon="1.43282">
        <ele>82.9</ele>
        <time>2020-07-03T07:24:57Z</time>
      </trkpt>
      <trkpt lat="47.62494" lon="1.43274">
        <ele>82.9</ele>
        <time>2020-07-03T07:24:58Z</time>
      </trkpt>
      <trkpt lat="47.62491" lon="1.43266">
        <ele>82.9</ele>
        <time>2020-07-03T07:24:59Z</time>
      </trkpt>
      <trkpt lat="47.62487" lon="1.43259">
        <ele>82.9</ele>
        <time>2020-07-03T07:25:00Z</time>
      </trkpt>
      <trkpt lat="47.62483" lon="1.43251">
        <ele>82.9</ele>
        <time>2020-07-03T07:25:01Z</time>
      </trkpt>
      <trkpt lat="47.62479" lon="1.43243">
        <ele>83</ele>
        <time>2020-07-03T07:25:02Z</time>
      </trkpt>
      <trkpt lat="47.62474" lon="1.43236">
        <ele>83</ele>
        <time>2020-07-03T07:25:03Z</time>
      </trkpt>
      <trkpt lat="47.6247" lon="1.43228">
        <ele>83</ele>
        <time>2020-07-03T07:25:04Z</time>
      </trkpt>
      <trkpt lat="47.62466" lon="1.4322">
        <ele>83</ele>
        <time>2020-07-03T07:25:05Z</time>
      </trkpt>
      <trkpt lat="47.62462" lon="1.43212">
        <ele>83</ele>
        <time>2020-07-03T07:25:06Z</time>
      </trkpt>
      <trkpt lat="47.62458" lon="1.43204">
        <ele>82.9</ele>
        <time>2020-07-03T07:25:07Z</time>
      </trkpt>
      <trkpt lat="47.62454" lon="1.43196">
        <ele>82.9</ele>
        <time>2020-07-03T07:25:08Z</time>
      </trkpt>
      <trkpt lat="47.6245" lon="1.43188">
        <ele>82.9</ele>
        <time>2020-07-03T07:25:09Z</time>
      </trkpt>
      <trkpt lat="47.62447" lon="1.4318">
        <ele>82.9</ele>
        <time>2020-07-03T07:25:10Z</time>
      </trkpt>
      <trkpt lat="47.62443" lon="1.43172">
        <ele>82.9</ele>
        <time>2020-07-03T07:25:11Z</time>
      </trkpt>
      <trkpt lat="47.62438" lon="1.43164">
        <ele>82.9</ele>
        <time>2020-07-03T07:25:12Z</time>
      </trkpt>
      <trkpt lat="47.62434" lon="1.43157">
        <ele>82.9</ele>
        <time>2020-07-03T07:25:13Z</time>
      </trkpt>
      <trkpt lat="47.6243" lon="1.43148">
        <ele>82.8</ele>
        <time>2020-07-03T07:25:14Z</time>
      </trkpt>
      <trkpt lat="47.62426" lon="1.4314">
        <ele>82.8</ele>
        <time>2020-07-03T07:25:15Z</time>
      </trkpt>
      <trkpt lat="47.62422" lon="1.43132">
        <ele>82.7</ele>
        <time>2020-07-03T07:25:16Z</time>
      </trkpt>
      <trkpt lat="47.62418" lon="1.43124">
        <ele>82.6</ele>
        <time>2020-07-03T07:25:17Z</time>
      </trkpt>
      <trkpt lat="47.62414" lon="1.43116">
        <ele>82.3</ele>
        <time>2020-07-03T07:25:18Z</time>
      </trkpt>
      <trkpt lat="47.6241" lon="1.43108">
        <ele>82.1</ele>
        <time>2020-07-03T07:25:19Z</time>
      </trkpt>
      <trkpt lat="47.62406" lon="1.43101">
        <ele>82</ele>
        <time>2020-07-03T07:25:20Z</time>
      </trkpt>
      <trkpt lat="47.62402" lon="1.43092">
        <ele>81.9</ele>
        <time>2020-07-03T07:25:21Z</time>
      </trkpt>
      <trkpt lat="47.62398" lon="1.43084">
        <ele>81.9</ele>
        <time>2020-07-03T07:25:22Z</time>
      </trkpt>
      <trkpt lat="47.62394" lon="1.43076">
        <ele>81.9</ele>
        <time>2020-07-03T07:25:23Z</time>
      </trkpt>
      <trkpt lat="47.6239" lon="1.43069">
        <ele>81.9</ele>
        <time>2020-07-03T07:25:24Z</time>
      </trkpt>
      <trkpt lat="47.62386" lon="1.43061">
        <ele>81.9</ele>
        <time>2020-07-03T07:25:25Z</time>
      </trkpt>
      <trkpt lat="47.62382" lon="1.43053">
        <ele>82</ele>
        <time>2020-07-03T07:25:26Z</time>
      </trkpt>
      <trkpt lat="47.62378" lon="1.43045">
        <ele>82.1</ele>
        <time>2020-07-03T07:25:27Z</time>
      </trkpt>
      <trkpt lat="47.62374" lon="1.43038">
        <ele>82.3</ele>
        <time>2020-07-03T07:25:28Z</time>
      </trkpt>
      <trkpt lat="47.6237" lon="1.43031">
        <ele>82.5</ele>
        <time>2020-07-03T07:25:29Z</time>
      </trkpt>
      <trkpt lat="47.62367" lon="1.43024">
        <ele>82.6</ele>
        <time>2020-07-03T07:25:30Z</time>
      </trkpt>
      <trkpt lat="47.62363" lon="1.43017">
        <ele>82.7</ele>
        <time>2020-07-03T07:25:31Z</time>
      </trkpt>
      <trkpt lat="47.62359" lon="1.4301">
        <ele>82.7</ele>
        <time>2020-07-03T07:25:32Z</time>
      </trkpt>
      <trkpt lat="47.62356" lon="1.43003">
        <ele>82.8</ele>
        <time>2020-07-03T07:25:33Z</time>
      </trkpt>
      <trkpt lat="47.62352" lon="1.42996">
        <ele>82.9</ele>
        <time>2020-07-03T07:25:34Z</time>
      </trkpt>
      <trkpt lat="47.62348" lon="1.42988">
        <ele>83</ele>
        <time>2020-07-03T07:25:35Z</time>
      </trkpt>
      <trkpt lat="47.62345" lon="1.42984">
        <ele>83</ele>
        <time>2020-07-03T07:25:36Z</time>
      </trkpt>
      <trkpt lat="47.62342" lon="1.42977">
        <ele>83.1</ele>
        <time>2020-07-03T07:25:37Z</time>
      </trkpt>
      <trkpt lat="47.62337" lon="1.42969">
        <ele>83.2</ele>
        <time>2020-07-03T07:25:38Z</time>
      </trkpt>
      <trkpt lat="47.62333" lon="1.42961">
        <ele>83.2</ele>
        <time>2020-07-03T07:25:39Z</time>
      </trkpt>
      <trkpt lat="47.62329" lon="1.42955">
        <ele>83.2</ele>
        <time>2020-07-03T07:25:40Z</time>
      </trkpt>
      <trkpt lat="47.62324" lon="1.42945">
        <ele>83.1</ele>
        <time>2020-07-03T07:25:41Z</time>
      </trkpt>
      <trkpt lat="47.6232" lon="1.4294">
        <ele>83.1</ele>
        <time>2020-07-03T07:25:42Z</time>
      </trkpt>
      <trkpt lat="47.62316" lon="1.42934">
        <ele>83.1</ele>
        <time>2020-07-03T07:25:43Z</time>
      </trkpt>
      <trkpt lat="47.62311" lon="1.42927">
        <ele>83</ele>
        <time>2020-07-03T07:25:44Z</time>
      </trkpt>
      <trkpt lat="47.62307" lon="1.42919">
        <ele>83</ele>
        <time>2020-07-03T07:25:45Z</time>
      </trkpt>
      <trkpt lat="47.62302" lon="1.42912">
        <ele>83</ele>
        <time>2020-07-03T07:25:46Z</time>
      </trkpt>
      <trkpt lat="47.62298" lon="1.42905">
        <ele>83</ele>
        <time>2020-07-03T07:25:47Z</time>
      </trkpt>
      <trkpt lat="47.62293" lon="1.42897">
        <ele>83</ele>
        <time>2020-07-03T07:25:48Z</time>
      </trkpt>
      <trkpt lat="47.62289" lon="1.42891">
        <ele>83</ele>
        <time>2020-07-03T07:25:49Z</time>
      </trkpt>
      <trkpt lat="47.62284" lon="1.42883">
        <ele>83</ele>
        <time>2020-07-03T07:25:50Z</time>
      </trkpt>
      <trkpt lat="47.62279" lon="1.42875">
        <ele>83</ele>
        <time>2020-07-03T07:25:51Z</time>
      </trkpt>
      <trkpt lat="47.62275" lon="1.42868">
        <ele>83</ele>
        <time>2020-07-03T07:25:52Z</time>
      </trkpt>
      <trkpt lat="47.6227" lon="1.4286">
        <ele>83</ele>
        <time>2020-07-03T07:25:53Z</time>
      </trkpt>
      <trkpt lat="47.62265" lon="1.42853">
        <ele>83</ele>
        <time>2020-07-03T07:25:54Z</time>
      </trkpt>
      <trkpt lat="47.6226" lon="1.42846">
        <ele>83</ele>
        <time>2020-07-03T07:25:55Z</time>
      </trkpt>
      <trkpt lat="47.62255" lon="1.42839">
        <ele>83</ele>
        <time>2020-07-03T07:25:56Z</time>
      </trkpt>
      <trkpt lat="47.62251" lon="1.42832">
        <ele>83.1</ele>
        <time>2020-07-03T07:25:57Z</time>
      </trkpt>
      <trkpt lat="47.62246" lon="1.42825">
        <ele>83.1</ele>
        <time>2020-07-03T07:25:58Z</time>
      </trkpt>
      <trkpt lat="47.62242" lon="1.42818">
        <ele>83.2</ele>
        <time>2020-07-03T07:25:59Z</time>
      </trkpt>
      <trkpt lat="47.62238" lon="1.42811">
        <ele>83.2</ele>
        <time>2020-07-03T07:26:00Z</time>
      </trkpt>
      <trkpt lat="47.62233" lon="1.42804">
        <ele>83.2</ele>
        <time>2020-07-03T07:26:01Z</time>
      </trkpt>
      <trkpt lat="47.62229" lon="1.42797">
        <ele>83.2</ele>
        <time>2020-07-03T07:26:02Z</time>
      </trkpt>
      <trkpt lat="47.62225" lon="1.4279">
        <ele>83.2</ele>
        <time>2020-07-03T07:26:03Z</time>
      </trkpt>
      <trkpt lat="47.6222" lon="1.42783">
        <ele>83.2</ele>
        <time>2020-07-03T07:26:04Z</time>
      </trkpt>
      <trkpt lat="47.62216" lon="1.42775">
        <ele>83.1</ele>
        <time>2020-07-03T07:26:05Z</time>
      </trkpt>
      <trkpt lat="47.62212" lon="1.42768">
        <ele>83.1</ele>
        <time>2020-07-03T07:26:06Z</time>
      </trkpt>
      <trkpt lat="47.62208" lon="1.42761">
        <ele>83.1</ele>
        <time>2020-07-03T07:26:07Z</time>
      </trkpt>
      <trkpt lat="47.62204" lon="1.42753">
        <ele>83.1</ele>
        <time>2020-07-03T07:26:08Z</time>
      </trkpt>
      <trkpt lat="47.622" lon="1.42746">
        <ele>83.2</ele>
        <time>2020-07-03T07:26:09Z</time>
      </trkpt>
      <trkpt lat="47.62196" lon="1.42738">
        <ele>83.2</ele>
        <time>2020-07-03T07:26:10Z</time>
      </trkpt>
      <trkpt lat="47.62193" lon="1.4273">
        <ele>83.2</ele>
        <time>2020-07-03T07:26:11Z</time>
      </trkpt>
      <trkpt lat="47.62189" lon="1.42723">
        <ele>83.1</ele>
        <time>2020-07-03T07:26:12Z</time>
      </trkpt>
      <trkpt lat="47.62185" lon="1.42715">
        <ele>83.1</ele>
        <time>2020-07-03T07:26:13Z</time>
      </trkpt>
      <trkpt lat="47.62182" lon="1.42707">
        <ele>83.1</ele>
        <time>2020-07-03T07:26:14Z</time>
      </trkpt>
      <trkpt lat="47.62178" lon="1.42699">
        <ele>83.1</ele>
        <time>2020-07-03T07:26:15Z</time>
      </trkpt>
      <trkpt lat="47.62175" lon="1.42691">
        <ele>83.2</ele>
        <time>2020-07-03T07:26:16Z</time>
      </trkpt>
      <trkpt lat="47.62172" lon="1.42683">
        <ele>83.2</ele>
        <time>2020-07-03T07:26:17Z</time>
      </trkpt>
      <trkpt lat="47.62169" lon="1.42675">
        <ele>83.2</ele>
        <time>2020-07-03T07:26:18Z</time>
      </trkpt>
      <trkpt lat="47.62166" lon="1.42667">
        <ele>83.2</ele>
        <time>2020-07-03T07:26:19Z</time>
      </trkpt>
      <trkpt lat="47.62162" lon="1.4266">
        <ele>83.2</ele>
        <time>2020-07-03T07:26:20Z</time>
      </trkpt>
      <trkpt lat="47.62159" lon="1.42653">
        <ele>83.2</ele>
        <time>2020-07-03T07:26:21Z</time>
      </trkpt>
      <trkpt lat="47.62156" lon="1.42645">
        <ele>83.2</ele>
        <time>2020-07-03T07:26:22Z</time>
      </trkpt>
      <trkpt lat="47.62152" lon="1.42637">
        <ele>83.2</ele>
        <time>2020-07-03T07:26:23Z</time>
      </trkpt>
      <trkpt lat="47.62149" lon="1.42631">
        <ele>83.2</ele>
        <time>2020-07-03T07:26:24Z</time>
      </trkpt>
      <trkpt lat="47.62146" lon="1.42624">
        <ele>83.2</ele>
        <time>2020-07-03T07:26:25Z</time>
      </trkpt>
      <trkpt lat="47.62143" lon="1.42617">
        <ele>83.1</ele>
        <time>2020-07-03T07:26:26Z</time>
      </trkpt>
      <trkpt lat="47.6214" lon="1.42611">
        <ele>83.1</ele>
        <time>2020-07-03T07:26:27Z</time>
      </trkpt>
      <trkpt lat="47.62136" lon="1.42605">
        <ele>83.1</ele>
        <time>2020-07-03T07:26:28Z</time>
      </trkpt>
      <trkpt lat="47.62132" lon="1.42597">
        <ele>83.1</ele>
        <time>2020-07-03T07:26:29Z</time>
      </trkpt>
      <trkpt lat="47.62129" lon="1.42588">
        <ele>83.1</ele>
        <time>2020-07-03T07:26:30Z</time>
      </trkpt>
      <trkpt lat="47.62126" lon="1.42581">
        <ele>83.1</ele>
        <time>2020-07-03T07:26:31Z</time>
      </trkpt>
      <trkpt lat="47.62122" lon="1.42575">
        <ele>83</ele>
        <time>2020-07-03T07:26:32Z</time>
      </trkpt>
      <trkpt lat="47.62119" lon="1.4257">
        <ele>83</ele>
        <time>2020-07-03T07:26:33Z</time>
      </trkpt>
      <trkpt lat="47.62116" lon="1.42565">
        <ele>83</ele>
        <time>2020-07-03T07:26:34Z</time>
      </trkpt>
      <trkpt lat="47.62112" lon="1.42557">
        <ele>82.9</ele>
        <time>2020-07-03T07:26:35Z</time>
      </trkpt>
      <trkpt lat="47.62107" lon="1.42551">
        <ele>82.9</ele>
        <time>2020-07-03T07:26:36Z</time>
      </trkpt>
      <trkpt lat="47.62103" lon="1.42543">
        <ele>82.9</ele>
        <time>2020-07-03T07:26:37Z</time>
      </trkpt>
      <trkpt lat="47.62099" lon="1.42536">
        <ele>82.9</ele>
        <time>2020-07-03T07:26:38Z</time>
      </trkpt>
      <trkpt lat="47.62095" lon="1.42529">
        <ele>82.9</ele>
        <time>2020-07-03T07:26:39Z</time>
      </trkpt>
      <trkpt lat="47.62092" lon="1.42522">
        <ele>82.9</ele>
        <time>2020-07-03T07:26:40Z</time>
      </trkpt>
      <trkpt lat="47.62088" lon="1.42514">
        <ele>82.9</ele>
        <time>2020-07-03T07:26:41Z</time>
      </trkpt>
      <trkpt lat="47.62084" lon="1.42507">
        <ele>82.9</ele>
        <time>2020-07-03T07:26:42Z</time>
      </trkpt>
      <trkpt lat="47.62079" lon="1.42499">
        <ele>82.9</ele>
        <time>2020-07-03T07:26:43Z</time>
      </trkpt>
      <trkpt lat="47.62075" lon="1.42492">
        <ele>83</ele>
        <time>2020-07-03T07:26:44Z</time>
      </trkpt>
      <trkpt lat="47.62071" lon="1.42485">
        <ele>83</ele>
        <time>2020-07-03T07:26:45Z</time>
      </trkpt>
      <trkpt lat="47.62067" lon="1.42477">
        <ele>83</ele>
        <time>2020-07-03T07:26:46Z</time>
      </trkpt>
      <trkpt lat="47.62062" lon="1.42469">
        <ele>83</ele>
        <time>2020-07-03T07:26:47Z</time>
      </trkpt>
      <trkpt lat="47.62059" lon="1.42462">
        <ele>83.1</ele>
        <time>2020-07-03T07:26:48Z</time>
      </trkpt>
      <trkpt lat="47.62055" lon="1.42455">
        <ele>83.1</ele>
        <time>2020-07-03T07:26:49Z</time>
      </trkpt>
      <trkpt lat="47.6205" lon="1.42446">
        <ele>83.2</ele>
        <time>2020-07-03T07:26:50Z</time>
      </trkpt>
      <trkpt lat="47.62046" lon="1.42439">
        <ele>83.3</ele>
        <time>2020-07-03T07:26:51Z</time>
      </trkpt>
      <trkpt lat="47.62043" lon="1.42432">
        <ele>83.4</ele>
        <time>2020-07-03T07:26:52Z</time>
      </trkpt>
      <trkpt lat="47.6204" lon="1.42426">
        <ele>83.4</ele>
        <time>2020-07-03T07:26:53Z</time>
      </trkpt>
      <trkpt lat="47.62037" lon="1.42419">
        <ele>83.5</ele>
        <time>2020-07-03T07:26:54Z</time>
      </trkpt>
      <trkpt lat="47.62033" lon="1.42412">
        <ele>83.6</ele>
        <time>2020-07-03T07:26:55Z</time>
      </trkpt>
      <trkpt lat="47.62029" lon="1.42405">
        <ele>83.7</ele>
        <time>2020-07-03T07:26:56Z</time>
      </trkpt>
      <trkpt lat="47.62026" lon="1.42399">
        <ele>83.8</ele>
        <time>2020-07-03T07:26:57Z</time>
      </trkpt>
      <trkpt lat="47.62023" lon="1.42393">
        <ele>83.8</ele>
        <time>2020-07-03T07:26:58Z</time>
      </trkpt>
      <trkpt lat="47.62019" lon="1.42387">
        <ele>83.9</ele>
        <time>2020-07-03T07:26:59Z</time>
      </trkpt>
      <trkpt lat="47.62017" lon="1.42381">
        <ele>83.9</ele>
        <time>2020-07-03T07:27:00Z</time>
      </trkpt>
      <trkpt lat="47.62014" lon="1.42374">
        <ele>84</ele>
        <time>2020-07-03T07:27:01Z</time>
      </trkpt>
      <trkpt lat="47.6201" lon="1.42368">
        <ele>84</ele>
        <time>2020-07-03T07:27:02Z</time>
      </trkpt>
      <trkpt lat="47.62007" lon="1.42361">
        <ele>84</ele>
        <time>2020-07-03T07:27:03Z</time>
      </trkpt>
      <trkpt lat="47.62003" lon="1.42354">
        <ele>84.1</ele>
        <time>2020-07-03T07:27:04Z</time>
      </trkpt>
      <trkpt lat="47.62" lon="1.42348">
        <ele>84.2</ele>
        <time>2020-07-03T07:27:05Z</time>
      </trkpt>
      <trkpt lat="47.61997" lon="1.42341">
        <ele>84.3</ele>
        <time>2020-07-03T07:27:06Z</time>
      </trkpt>
      <trkpt lat="47.61994" lon="1.42335">
        <ele>84.3</ele>
        <time>2020-07-03T07:27:07Z</time>
      </trkpt>
      <trkpt lat="47.6199" lon="1.4233">
        <ele>84.4</ele>
        <time>2020-07-03T07:27:08Z</time>
      </trkpt>
      <trkpt lat="47.61987" lon="1.42324">
        <ele>84.4</ele>
        <time>2020-07-03T07:27:09Z</time>
      </trkpt>
      <trkpt lat="47.61983" lon="1.42318">
        <ele>84.3</ele>
        <time>2020-07-03T07:27:10Z</time>
      </trkpt>
      <trkpt lat="47.6198" lon="1.42313">
        <ele>84.3</ele>
        <time>2020-07-03T07:27:11Z</time>
      </trkpt>
      <trkpt lat="47.61976" lon="1.42305">
        <ele>84.3</ele>
        <time>2020-07-03T07:27:12Z</time>
      </trkpt>
      <trkpt lat="47.61972" lon="1.42298">
        <ele>84.3</ele>
        <time>2020-07-03T07:27:13Z</time>
      </trkpt>
      <trkpt lat="47.61968" lon="1.42292">
        <ele>84.3</ele>
        <time>2020-07-03T07:27:14Z</time>
      </trkpt>
      <trkpt lat="47.61964" lon="1.42285">
        <ele>84.3</ele>
        <time>2020-07-03T07:27:15Z</time>
      </trkpt>
      <trkpt lat="47.6196" lon="1.42278">
        <ele>84.4</ele>
        <time>2020-07-03T07:27:16Z</time>
      </trkpt>
      <trkpt lat="47.61956" lon="1.42272">
        <ele>84.4</ele>
        <time>2020-07-03T07:27:17Z</time>
      </trkpt>
      <trkpt lat="47.61954" lon="1.42265">
        <ele>84.5</ele>
        <time>2020-07-03T07:27:18Z</time>
      </trkpt>
      <trkpt lat="47.61952" lon="1.4226">
        <ele>84.5</ele>
        <time>2020-07-03T07:27:19Z</time>
      </trkpt>
      <trkpt lat="47.61948" lon="1.42252">
        <ele>84.5</ele>
        <time>2020-07-03T07:27:20Z</time>
      </trkpt>
      <trkpt lat="47.61944" lon="1.42245">
        <ele>84.6</ele>
        <time>2020-07-03T07:27:21Z</time>
      </trkpt>
      <trkpt lat="47.61941" lon="1.42239">
        <ele>84.6</ele>
        <time>2020-07-03T07:27:22Z</time>
      </trkpt>
      <trkpt lat="47.61937" lon="1.42232">
        <ele>84.6</ele>
        <time>2020-07-03T07:27:23Z</time>
      </trkpt>
      <trkpt lat="47.61933" lon="1.42225">
        <ele>84.5</ele>
        <time>2020-07-03T07:27:24Z</time>
      </trkpt>
      <trkpt lat="47.61929" lon="1.42217">
        <ele>84.5</ele>
        <time>2020-07-03T07:27:25Z</time>
      </trkpt>
      <trkpt lat="47.61926" lon="1.42212">
        <ele>84.5</ele>
        <time>2020-07-03T07:27:26Z</time>
      </trkpt>
      <trkpt lat="47.61922" lon="1.42205">
        <ele>84.4</ele>
        <time>2020-07-03T07:27:27Z</time>
      </trkpt>
      <trkpt lat="47.61919" lon="1.42199">
        <ele>84.3</ele>
        <time>2020-07-03T07:27:28Z</time>
      </trkpt>
      <trkpt lat="47.61914" lon="1.4219">
        <ele>84.2</ele>
        <time>2020-07-03T07:27:29Z</time>
      </trkpt>
      <trkpt lat="47.61909" lon="1.42182">
        <ele>84.2</ele>
        <time>2020-07-03T07:27:30Z</time>
      </trkpt>
      <trkpt lat="47.61905" lon="1.42176">
        <ele>84.1</ele>
        <time>2020-07-03T07:27:31Z</time>
      </trkpt>
      <trkpt lat="47.61902" lon="1.4217">
        <ele>84.1</ele>
        <time>2020-07-03T07:27:32Z</time>
      </trkpt>
      <trkpt lat="47.61898" lon="1.42163">
        <ele>84.1</ele>
        <time>2020-07-03T07:27:33Z</time>
      </trkpt>
      <trkpt lat="47.61893" lon="1.42154">
        <ele>84.1</ele>
        <time>2020-07-03T07:27:34Z</time>
      </trkpt>
      <trkpt lat="47.61888" lon="1.42147">
        <ele>84.1</ele>
        <time>2020-07-03T07:27:35Z</time>
      </trkpt>
      <trkpt lat="47.61885" lon="1.4214">
        <ele>84</ele>
        <time>2020-07-03T07:27:36Z</time>
      </trkpt>
      <trkpt lat="47.6188" lon="1.42133">
        <ele>84</ele>
        <time>2020-07-03T07:27:37Z</time>
      </trkpt>
      <trkpt lat="47.61877" lon="1.42127">
        <ele>84</ele>
        <time>2020-07-03T07:27:38Z</time>
      </trkpt>
      <trkpt lat="47.61874" lon="1.42121">
        <ele>83.9</ele>
        <time>2020-07-03T07:27:39Z</time>
      </trkpt>
      <trkpt lat="47.61871" lon="1.42115">
        <ele>83.9</ele>
        <time>2020-07-03T07:27:40Z</time>
      </trkpt>
      <trkpt lat="47.61867" lon="1.42107">
        <ele>83.9</ele>
        <time>2020-07-03T07:27:41Z</time>
      </trkpt>
      <trkpt lat="47.61864" lon="1.421">
        <ele>83.9</ele>
        <time>2020-07-03T07:27:42Z</time>
      </trkpt>
      <trkpt lat="47.61861" lon="1.42094">
        <ele>83.9</ele>
        <time>2020-07-03T07:27:43Z</time>
      </trkpt>
      <trkpt lat="47.61857" lon="1.42087">
        <ele>83.9</ele>
        <time>2020-07-03T07:27:44Z</time>
      </trkpt>
      <trkpt lat="47.61853" lon="1.42081">
        <ele>83.9</ele>
        <time>2020-07-03T07:27:45Z</time>
      </trkpt>
      <trkpt lat="47.61848" lon="1.42074">
        <ele>83.9</ele>
        <time>2020-07-03T07:27:46Z</time>
      </trkpt>
      <trkpt lat="47.61843" lon="1.42067">
        <ele>84</ele>
        <time>2020-07-03T07:27:47Z</time>
      </trkpt>
      <trkpt lat="47.61839" lon="1.4206">
        <ele>84</ele>
        <time>2020-07-03T07:27:48Z</time>
      </trkpt>
      <trkpt lat="47.61835" lon="1.42054">
        <ele>84.1</ele>
        <time>2020-07-03T07:27:49Z</time>
      </trkpt>
      <trkpt lat="47.61831" lon="1.42048">
        <ele>84.1</ele>
        <time>2020-07-03T07:27:50Z</time>
      </trkpt>
      <trkpt lat="47.61827" lon="1.42041">
        <ele>84.1</ele>
        <time>2020-07-03T07:27:51Z</time>
      </trkpt>
      <trkpt lat="47.61824" lon="1.42034">
        <ele>84.1</ele>
        <time>2020-07-03T07:27:52Z</time>
      </trkpt>
      <trkpt lat="47.6182" lon="1.42029">
        <ele>84.1</ele>
        <time>2020-07-03T07:27:53Z</time>
      </trkpt>
      <trkpt lat="47.61817" lon="1.42025">
        <ele>84.1</ele>
        <time>2020-07-03T07:27:54Z</time>
      </trkpt>
      <trkpt lat="47.61813" lon="1.42018">
        <ele>84.2</ele>
        <time>2020-07-03T07:27:55Z</time>
      </trkpt>
      <trkpt lat="47.61808" lon="1.4201">
        <ele>84.2</ele>
        <time>2020-07-03T07:27:56Z</time>
      </trkpt>
      <trkpt lat="47.61803" lon="1.42003">
        <ele>84.2</ele>
        <time>2020-07-03T07:27:57Z</time>
      </trkpt>
      <trkpt lat="47.61798" lon="1.41997">
        <ele>84.3</ele>
        <time>2020-07-03T07:27:58Z</time>
      </trkpt>
      <trkpt lat="47.61794" lon="1.41991">
        <ele>84.3</ele>
        <time>2020-07-03T07:27:59Z</time>
      </trkpt>
      <trkpt lat="47.61791" lon="1.41985">
        <ele>84.4</ele>
        <time>2020-07-03T07:28:00Z</time>
      </trkpt>
      <trkpt lat="47.61787" lon="1.4198">
        <ele>84.5</ele>
        <time>2020-07-03T07:28:01Z</time>
      </trkpt>
      <trkpt lat="47.61785" lon="1.41975">
        <ele>84.5</ele>
        <time>2020-07-03T07:28:02Z</time>
      </trkpt>
      <trkpt lat="47.61781" lon="1.41969">
        <ele>84.6</ele>
        <time>2020-07-03T07:28:03Z</time>
      </trkpt>
      <trkpt lat="47.61778" lon="1.41965">
        <ele>84.7</ele>
        <time>2020-07-03T07:28:04Z</time>
      </trkpt>
      <trkpt lat="47.61775" lon="1.4196">
        <ele>84.8</ele>
        <time>2020-07-03T07:28:05Z</time>
      </trkpt>
      <trkpt lat="47.61772" lon="1.41955">
        <ele>84.8</ele>
        <time>2020-07-03T07:28:06Z</time>
      </trkpt>
      <trkpt lat="47.61768" lon="1.41948">
        <ele>84.8</ele>
        <time>2020-07-03T07:28:07Z</time>
      </trkpt>
      <trkpt lat="47.61765" lon="1.41942">
        <ele>84.7</ele>
        <time>2020-07-03T07:28:08Z</time>
      </trkpt>
      <trkpt lat="47.61761" lon="1.41936">
        <ele>84.7</ele>
        <time>2020-07-03T07:28:09Z</time>
      </trkpt>
      <trkpt lat="47.61756" lon="1.4193">
        <ele>84.7</ele>
        <time>2020-07-03T07:28:10Z</time>
      </trkpt>
      <trkpt lat="47.61752" lon="1.41923">
        <ele>84.7</ele>
        <time>2020-07-03T07:28:11Z</time>
      </trkpt>
      <trkpt lat="47.61748" lon="1.41918">
        <ele>84.7</ele>
        <time>2020-07-03T07:28:12Z</time>
      </trkpt>
      <trkpt lat="47.61743" lon="1.41914">
        <ele>84.7</ele>
        <time>2020-07-03T07:28:13Z</time>
      </trkpt>
      <trkpt lat="47.61738" lon="1.41909">
        <ele>84.7</ele>
        <time>2020-07-03T07:28:14Z</time>
      </trkpt>
      <trkpt lat="47.61733" lon="1.41903">
        <ele>84.7</ele>
        <time>2020-07-03T07:28:15Z</time>
      </trkpt>
      <trkpt lat="47.61728" lon="1.41897">
        <ele>84.7</ele>
        <time>2020-07-03T07:28:16Z</time>
      </trkpt>
      <trkpt lat="47.61722" lon="1.41891">
        <ele>84.7</ele>
        <time>2020-07-03T07:28:17Z</time>
      </trkpt>
      <trkpt lat="47.61717" lon="1.41886">
        <ele>84.7</ele>
        <time>2020-07-03T07:28:18Z</time>
      </trkpt>
      <trkpt lat="47.61711" lon="1.41881">
        <ele>84.7</ele>
        <time>2020-07-03T07:28:19Z</time>
      </trkpt>
      <trkpt lat="47.61706" lon="1.41876">
        <ele>84.8</ele>
        <time>2020-07-03T07:28:20Z</time>
      </trkpt>
      <trkpt lat="47.617" lon="1.41871">
        <ele>84.8</ele>
        <time>2020-07-03T07:28:21Z</time>
      </trkpt>
      <trkpt lat="47.61694" lon="1.41867">
        <ele>84.8</ele>
        <time>2020-07-03T07:28:22Z</time>
      </trkpt>
      <trkpt lat="47.61689" lon="1.41862">
        <ele>84.8</ele>
        <time>2020-07-03T07:28:23Z</time>
      </trkpt>
      <trkpt lat="47.61683" lon="1.41857">
        <ele>84.7</ele>
        <time>2020-07-03T07:28:24Z</time>
      </trkpt>
      <trkpt lat="47.61677" lon="1.4185">
        <ele>84.7</ele>
        <time>2020-07-03T07:28:25Z</time>
      </trkpt>
      <trkpt lat="47.61672" lon="1.41845">
        <ele>84.7</ele>
        <time>2020-07-03T07:28:26Z</time>
      </trkpt>
      <trkpt lat="47.61666" lon="1.41839">
        <ele>84.7</ele>
        <time>2020-07-03T07:28:27Z</time>
      </trkpt>
      <trkpt lat="47.61661" lon="1.41833">
        <ele>84.7</ele>
        <time>2020-07-03T07:28:28Z</time>
      </trkpt>
      <trkpt lat="47.61656" lon="1.41827">
        <ele>84.7</ele>
        <time>2020-07-03T07:28:29Z</time>
      </trkpt>
      <trkpt lat="47.61651" lon="1.41821">
        <ele>84.7</ele>
        <time>2020-07-03T07:28:30Z</time>
      </trkpt>
      <trkpt lat="47.61646" lon="1.41815">
        <ele>84.7</ele>
        <time>2020-07-03T07:28:31Z</time>
      </trkpt>
      <trkpt lat="47.61641" lon="1.41809">
        <ele>84.7</ele>
        <time>2020-07-03T07:28:32Z</time>
      </trkpt>
      <trkpt lat="47.61636" lon="1.41802">
        <ele>84.7</ele>
        <time>2020-07-03T07:28:33Z</time>
      </trkpt>
      <trkpt lat="47.61631" lon="1.41796">
        <ele>84.6</ele>
        <time>2020-07-03T07:28:34Z</time>
      </trkpt>
      <trkpt lat="47.61626" lon="1.41791">
        <ele>84.6</ele>
        <time>2020-07-03T07:28:35Z</time>
      </trkpt>
      <trkpt lat="47.61621" lon="1.41784">
        <ele>84.6</ele>
        <time>2020-07-03T07:28:36Z</time>
      </trkpt>
      <trkpt lat="47.61616" lon="1.41778">
        <ele>84.6</ele>
        <time>2020-07-03T07:28:37Z</time>
      </trkpt>
      <trkpt lat="47.61611" lon="1.41773">
        <ele>84.6</ele>
        <time>2020-07-03T07:28:38Z</time>
      </trkpt>
      <trkpt lat="47.61605" lon="1.41767">
        <ele>84.6</ele>
        <time>2020-07-03T07:28:39Z</time>
      </trkpt>
      <trkpt lat="47.616" lon="1.41761">
        <ele>84.6</ele>
        <time>2020-07-03T07:28:40Z</time>
      </trkpt>
      <trkpt lat="47.61594" lon="1.41755">
        <ele>84.7</ele>
        <time>2020-07-03T07:28:41Z</time>
      </trkpt>
      <trkpt lat="47.61589" lon="1.4175">
        <ele>84.7</ele>
        <time>2020-07-03T07:28:42Z</time>
      </trkpt>
      <trkpt lat="47.61584" lon="1.41745">
        <ele>84.7</ele>
        <time>2020-07-03T07:28:43Z</time>
      </trkpt>
      <trkpt lat="47.61579" lon="1.4174">
        <ele>84.7</ele>
        <time>2020-07-03T07:28:44Z</time>
      </trkpt>
      <trkpt lat="47.61574" lon="1.41735">
        <ele>84.7</ele>
        <time>2020-07-03T07:28:45Z</time>
      </trkpt>
      <trkpt lat="47.61568" lon="1.41729">
        <ele>84.6</ele>
        <time>2020-07-03T07:28:46Z</time>
      </trkpt>
      <trkpt lat="47.61563" lon="1.41723">
        <ele>84.6</ele>
        <time>2020-07-03T07:28:47Z</time>
      </trkpt>
      <trkpt lat="47.61558" lon="1.41717">
        <ele>84.5</ele>
        <time>2020-07-03T07:28:48Z</time>
      </trkpt>
      <trkpt lat="47.61553" lon="1.41711">
        <ele>84.5</ele>
        <time>2020-07-03T07:28:49Z</time>
      </trkpt>
      <trkpt lat="47.61549" lon="1.41704">
        <ele>84.4</ele>
        <time>2020-07-03T07:28:50Z</time>
      </trkpt>
      <trkpt lat="47.61544" lon="1.41698">
        <ele>84.4</ele>
        <time>2020-07-03T07:28:51Z</time>
      </trkpt>
      <trkpt lat="47.61539" lon="1.41692">
        <ele>84.4</ele>
        <time>2020-07-03T07:28:52Z</time>
      </trkpt>
      <trkpt lat="47.61534" lon="1.41686">
        <ele>84.4</ele>
        <time>2020-07-03T07:28:53Z</time>
      </trkpt>
      <trkpt lat="47.6153" lon="1.4168">
        <ele>84.4</ele>
        <time>2020-07-03T07:28:54Z</time>
      </trkpt>
      <trkpt lat="47.61525" lon="1.41673">
        <ele>84.4</ele>
        <time>2020-07-03T07:28:55Z</time>
      </trkpt>
      <trkpt lat="47.61521" lon="1.41667">
        <ele>84.4</ele>
        <time>2020-07-03T07:28:56Z</time>
      </trkpt>
      <trkpt lat="47.61517" lon="1.41662">
        <ele>84.4</ele>
        <time>2020-07-03T07:28:57Z</time>
      </trkpt>
      <trkpt lat="47.61513" lon="1.41657">
        <ele>84.4</ele>
        <time>2020-07-03T07:28:58Z</time>
      </trkpt>
      <trkpt lat="47.61509" lon="1.41651">
        <ele>84.4</ele>
        <time>2020-07-03T07:28:59Z</time>
      </trkpt>
      <trkpt lat="47.61505" lon="1.41646">
        <ele>84.4</ele>
        <time>2020-07-03T07:29:00Z</time>
      </trkpt>
      <trkpt lat="47.61502" lon="1.4164">
        <ele>84.4</ele>
        <time>2020-07-03T07:29:01Z</time>
      </trkpt>
      <trkpt lat="47.615" lon="1.41636">
        <ele>84.4</ele>
        <time>2020-07-03T07:29:02Z</time>
      </trkpt>
      <trkpt lat="47.61498" lon="1.41632">
        <ele>84.4</ele>
        <time>2020-07-03T07:29:03Z</time>
      </trkpt>
      <trkpt lat="47.61495" lon="1.41626">
        <ele>84.5</ele>
        <time>2020-07-03T07:29:04Z</time>
      </trkpt>
      <trkpt lat="47.61492" lon="1.41622">
        <ele>84.5</ele>
        <time>2020-07-03T07:29:05Z</time>
      </trkpt>
      <trkpt lat="47.61489" lon="1.41621">
        <ele>84.5</ele>
        <time>2020-07-03T07:29:06Z</time>
      </trkpt>
      <trkpt lat="47.61486" lon="1.41617">
        <ele>84.5</ele>
        <time>2020-07-03T07:29:07Z</time>
      </trkpt>
      <trkpt lat="47.61483" lon="1.41614">
        <ele>84.6</ele>
        <time>2020-07-03T07:29:08Z</time>
      </trkpt>
      <trkpt lat="47.6148" lon="1.41609">
        <ele>84.6</ele>
        <time>2020-07-03T07:29:09Z</time>
      </trkpt>
      <trkpt lat="47.61477" lon="1.41603">
        <ele>84.6</ele>
        <time>2020-07-03T07:29:10Z</time>
      </trkpt>
      <trkpt lat="47.61474" lon="1.41597">
        <ele>84.5</ele>
        <time>2020-07-03T07:29:11Z</time>
      </trkpt>
      <trkpt lat="47.6147" lon="1.4159">
        <ele>84.4</ele>
        <time>2020-07-03T07:29:12Z</time>
      </trkpt>
      <trkpt lat="47.61466" lon="1.41584">
        <ele>84.4</ele>
        <time>2020-07-03T07:29:13Z</time>
      </trkpt>
      <trkpt lat="47.61462" lon="1.41579">
        <ele>84.3</ele>
        <time>2020-07-03T07:29:14Z</time>
      </trkpt>
      <trkpt lat="47.61459" lon="1.41573">
        <ele>84.2</ele>
        <time>2020-07-03T07:29:15Z</time>
      </trkpt>
      <trkpt lat="47.61454" lon="1.41566">
        <ele>84.1</ele>
        <time>2020-07-03T07:29:16Z</time>
      </trkpt>
      <trkpt lat="47.6145" lon="1.41558">
        <ele>84</ele>
        <time>2020-07-03T07:29:17Z</time>
      </trkpt>
      <trkpt lat="47.61446" lon="1.41551">
        <ele>83.9</ele>
        <time>2020-07-03T07:29:18Z</time>
      </trkpt>
      <trkpt lat="47.61442" lon="1.41542">
        <ele>83.8</ele>
        <time>2020-07-03T07:29:19Z</time>
      </trkpt>
      <trkpt lat="47.61438" lon="1.41535">
        <ele>83.8</ele>
        <time>2020-07-03T07:29:20Z</time>
      </trkpt>
      <trkpt lat="47.61434" lon="1.41528">
        <ele>83.7</ele>
        <time>2020-07-03T07:29:21Z</time>
      </trkpt>
      <trkpt lat="47.6143" lon="1.41521">
        <ele>83.7</ele>
        <time>2020-07-03T07:29:22Z</time>
      </trkpt>
      <trkpt lat="47.61426" lon="1.41513">
        <ele>83.6</ele>
        <time>2020-07-03T07:29:23Z</time>
      </trkpt>
      <trkpt lat="47.61422" lon="1.41505">
        <ele>83.5</ele>
        <time>2020-07-03T07:29:24Z</time>
      </trkpt>
      <trkpt lat="47.61418" lon="1.41498">
        <ele>83.5</ele>
        <time>2020-07-03T07:29:25Z</time>
      </trkpt>
      <trkpt lat="47.61414" lon="1.41491">
        <ele>83.4</ele>
        <time>2020-07-03T07:29:26Z</time>
      </trkpt>
      <trkpt lat="47.6141" lon="1.41482">
        <ele>83.4</ele>
        <time>2020-07-03T07:29:27Z</time>
      </trkpt>
      <trkpt lat="47.61406" lon="1.41474">
        <ele>83.5</ele>
        <time>2020-07-03T07:29:28Z</time>
      </trkpt>
      <trkpt lat="47.61403" lon="1.41466">
        <ele>83.5</ele>
        <time>2020-07-03T07:29:29Z</time>
      </trkpt>
      <trkpt lat="47.61399" lon="1.41459">
        <ele>83.5</ele>
        <time>2020-07-03T07:29:30Z</time>
      </trkpt>
      <trkpt lat="47.61396" lon="1.41452">
        <ele>83.5</ele>
        <time>2020-07-03T07:29:31Z</time>
      </trkpt>
      <trkpt lat="47.61392" lon="1.41445">
        <ele>83.5</ele>
        <time>2020-07-03T07:29:32Z</time>
      </trkpt>
      <trkpt lat="47.61388" lon="1.41437">
        <ele>83.5</ele>
        <time>2020-07-03T07:29:33Z</time>
      </trkpt>
      <trkpt lat="47.61384" lon="1.4143">
        <ele>83.5</ele>
        <time>2020-07-03T07:29:34Z</time>
      </trkpt>
      <trkpt lat="47.6138" lon="1.41421">
        <ele>83.5</ele>
        <time>2020-07-03T07:29:35Z</time>
      </trkpt>
      <trkpt lat="47.61376" lon="1.41414">
        <ele>83.5</ele>
        <time>2020-07-03T07:29:36Z</time>
      </trkpt>
      <trkpt lat="47.61372" lon="1.41405">
        <ele>83.5</ele>
        <time>2020-07-03T07:29:37Z</time>
      </trkpt>
      <trkpt lat="47.61368" lon="1.41397">
        <ele>83.5</ele>
        <time>2020-07-03T07:29:38Z</time>
      </trkpt>
      <trkpt lat="47.61363" lon="1.4139">
        <ele>83.5</ele>
        <time>2020-07-03T07:29:39Z</time>
      </trkpt>
      <trkpt lat="47.61359" lon="1.41382">
        <ele>83.5</ele>
        <time>2020-07-03T07:29:40Z</time>
      </trkpt>
      <trkpt lat="47.61355" lon="1.41375">
        <ele>83.5</ele>
        <time>2020-07-03T07:29:41Z</time>
      </trkpt>
      <trkpt lat="47.61352" lon="1.41368">
        <ele>83.5</ele>
        <time>2020-07-03T07:29:42Z</time>
      </trkpt>
      <trkpt lat="47.61348" lon="1.4136">
        <ele>83.5</ele>
        <time>2020-07-03T07:29:43Z</time>
      </trkpt>
      <trkpt lat="47.61343" lon="1.41353">
        <ele>83.5</ele>
        <time>2020-07-03T07:29:44Z</time>
      </trkpt>
      <trkpt lat="47.61339" lon="1.41347">
        <ele>83.5</ele>
        <time>2020-07-03T07:29:45Z</time>
      </trkpt>
      <trkpt lat="47.61335" lon="1.4134">
        <ele>83.5</ele>
        <time>2020-07-03T07:29:46Z</time>
      </trkpt>
      <trkpt lat="47.61331" lon="1.41333">
        <ele>83.5</ele>
        <time>2020-07-03T07:29:47Z</time>
      </trkpt>
      <trkpt lat="47.61327" lon="1.41327">
        <ele>83.5</ele>
        <time>2020-07-03T07:29:48Z</time>
      </trkpt>
      <trkpt lat="47.61322" lon="1.4132">
        <ele>83.4</ele>
        <time>2020-07-03T07:29:49Z</time>
      </trkpt>
      <trkpt lat="47.61318" lon="1.41314">
        <ele>83.4</ele>
        <time>2020-07-03T07:29:50Z</time>
      </trkpt>
      <trkpt lat="47.61313" lon="1.41307">
        <ele>83.3</ele>
        <time>2020-07-03T07:29:51Z</time>
      </trkpt>
      <trkpt lat="47.61308" lon="1.41301">
        <ele>83.3</ele>
        <time>2020-07-03T07:29:52Z</time>
      </trkpt>
      <trkpt lat="47.61303" lon="1.41294">
        <ele>83.3</ele>
        <time>2020-07-03T07:29:53Z</time>
      </trkpt>
      <trkpt lat="47.61297" lon="1.41286">
        <ele>83.2</ele>
        <time>2020-07-03T07:29:54Z</time>
      </trkpt>
      <trkpt lat="47.61292" lon="1.4128">
        <ele>83.2</ele>
        <time>2020-07-03T07:29:55Z</time>
      </trkpt>
      <trkpt lat="47.61286" lon="1.41273">
        <ele>83.1</ele>
        <time>2020-07-03T07:29:56Z</time>
      </trkpt>
      <trkpt lat="47.61281" lon="1.41266">
        <ele>82.9</ele>
        <time>2020-07-03T07:29:57Z</time>
      </trkpt>
      <trkpt lat="47.61275" lon="1.41259">
        <ele>82.8</ele>
        <time>2020-07-03T07:29:58Z</time>
      </trkpt>
      <trkpt lat="47.61269" lon="1.41252">
        <ele>82.8</ele>
        <time>2020-07-03T07:29:59Z</time>
      </trkpt>
      <trkpt lat="47.61263" lon="1.41245">
        <ele>82.8</ele>
        <time>2020-07-03T07:30:00Z</time>
      </trkpt>
      <trkpt lat="47.61257" lon="1.41239">
        <ele>82.8</ele>
        <time>2020-07-03T07:30:01Z</time>
      </trkpt>
      <trkpt lat="47.61251" lon="1.41232">
        <ele>82.7</ele>
        <time>2020-07-03T07:30:02Z</time>
      </trkpt>
      <trkpt lat="47.61246" lon="1.41226">
        <ele>82.7</ele>
        <time>2020-07-03T07:30:03Z</time>
      </trkpt>
      <trkpt lat="47.6124" lon="1.4122">
        <ele>82.7</ele>
        <time>2020-07-03T07:30:04Z</time>
      </trkpt>
      <trkpt lat="47.61234" lon="1.41213">
        <ele>82.6</ele>
        <time>2020-07-03T07:30:05Z</time>
      </trkpt>
      <trkpt lat="47.61228" lon="1.41207">
        <ele>82.6</ele>
        <time>2020-07-03T07:30:06Z</time>
      </trkpt>
      <trkpt lat="47.61223" lon="1.412">
        <ele>82.6</ele>
        <time>2020-07-03T07:30:07Z</time>
      </trkpt>
      <trkpt lat="47.61217" lon="1.41194">
        <ele>82.6</ele>
        <time>2020-07-03T07:30:08Z</time>
      </trkpt>
      <trkpt lat="47.61212" lon="1.41187">
        <ele>82.6</ele>
        <time>2020-07-03T07:30:09Z</time>
      </trkpt>
      <trkpt lat="47.61206" lon="1.41181">
        <ele>82.6</ele>
        <time>2020-07-03T07:30:10Z</time>
      </trkpt>
      <trkpt lat="47.61201" lon="1.41175">
        <ele>82.6</ele>
        <time>2020-07-03T07:30:11Z</time>
      </trkpt>
      <trkpt lat="47.61195" lon="1.4117">
        <ele>82.6</ele>
        <time>2020-07-03T07:30:12Z</time>
      </trkpt>
      <trkpt lat="47.6119" lon="1.41164">
        <ele>82.6</ele>
        <time>2020-07-03T07:30:13Z</time>
      </trkpt>
      <trkpt lat="47.61184" lon="1.41158">
        <ele>82.6</ele>
        <time>2020-07-03T07:30:14Z</time>
      </trkpt>
      <trkpt lat="47.61179" lon="1.41152">
        <ele>82.6</ele>
        <time>2020-07-03T07:30:15Z</time>
      </trkpt>
      <trkpt lat="47.61173" lon="1.41146">
        <ele>82.6</ele>
        <time>2020-07-03T07:30:16Z</time>
      </trkpt>
      <trkpt lat="47.61167" lon="1.4114">
        <ele>82.6</ele>
        <time>2020-07-03T07:30:17Z</time>
      </trkpt>
      <trkpt lat="47.61161" lon="1.41135">
        <ele>82.6</ele>
        <time>2020-07-03T07:30:18Z</time>
      </trkpt>
      <trkpt lat="47.61155" lon="1.4113">
        <ele>82.6</ele>
        <time>2020-07-03T07:30:19Z</time>
      </trkpt>
      <trkpt lat="47.6115" lon="1.41125">
        <ele>82.6</ele>
        <time>2020-07-03T07:30:20Z</time>
      </trkpt>
      <trkpt lat="47.61144" lon="1.4112">
        <ele>82.6</ele>
        <time>2020-07-03T07:30:21Z</time>
      </trkpt>
      <trkpt lat="47.61138" lon="1.41114">
        <ele>82.5</ele>
        <time>2020-07-03T07:30:22Z</time>
      </trkpt>
      <trkpt lat="47.61133" lon="1.41108">
        <ele>82.5</ele>
        <time>2020-07-03T07:30:23Z</time>
      </trkpt>
      <trkpt lat="47.61128" lon="1.41103">
        <ele>82.4</ele>
        <time>2020-07-03T07:30:24Z</time>
      </trkpt>
      <trkpt lat="47.61123" lon="1.41097">
        <ele>82.4</ele>
        <time>2020-07-03T07:30:25Z</time>
      </trkpt>
      <trkpt lat="47.61118" lon="1.41092">
        <ele>82.4</ele>
        <time>2020-07-03T07:30:26Z</time>
      </trkpt>
      <trkpt lat="47.61112" lon="1.41087">
        <ele>82.3</ele>
        <time>2020-07-03T07:30:27Z</time>
      </trkpt>
      <trkpt lat="47.61107" lon="1.41082">
        <ele>82.3</ele>
        <time>2020-07-03T07:30:28Z</time>
      </trkpt>
      <trkpt lat="47.61101" lon="1.41077">
        <ele>82.3</ele>
        <time>2020-07-03T07:30:29Z</time>
      </trkpt>
      <trkpt lat="47.61095" lon="1.41072">
        <ele>82.2</ele>
        <time>2020-07-03T07:30:30Z</time>
      </trkpt>
      <trkpt lat="47.61089" lon="1.41067">
        <ele>82.2</ele>
        <time>2020-07-03T07:30:31Z</time>
      </trkpt>
      <trkpt lat="47.61084" lon="1.41062">
        <ele>82.2</ele>
        <time>2020-07-03T07:30:32Z</time>
      </trkpt>
      <trkpt lat="47.61078" lon="1.41056">
        <ele>82.2</ele>
        <time>2020-07-03T07:30:33Z</time>
      </trkpt>
      <trkpt lat="47.61072" lon="1.41051">
        <ele>82.1</ele>
        <time>2020-07-03T07:30:34Z</time>
      </trkpt>
      <trkpt lat="47.61066" lon="1.41046">
        <ele>82.1</ele>
        <time>2020-07-03T07:30:35Z</time>
      </trkpt>
      <trkpt lat="47.61059" lon="1.41041">
        <ele>82.1</ele>
        <time>2020-07-03T07:30:36Z</time>
      </trkpt>
      <trkpt lat="47.61053" lon="1.41036">
        <ele>82.1</ele>
        <time>2020-07-03T07:30:37Z</time>
      </trkpt>
      <trkpt lat="47.61047" lon="1.41031">
        <ele>82.1</ele>
        <time>2020-07-03T07:30:38Z</time>
      </trkpt>
      <trkpt lat="47.6104" lon="1.41026">
        <ele>82.1</ele>
        <time>2020-07-03T07:30:39Z</time>
      </trkpt>
      <trkpt lat="47.61034" lon="1.41021">
        <ele>82.1</ele>
        <time>2020-07-03T07:30:40Z</time>
      </trkpt>
      <trkpt lat="47.61028" lon="1.41016">
        <ele>82.1</ele>
        <time>2020-07-03T07:30:41Z</time>
      </trkpt>
      <trkpt lat="47.61022" lon="1.41011">
        <ele>82</ele>
        <time>2020-07-03T07:30:42Z</time>
      </trkpt>
      <trkpt lat="47.61016" lon="1.41006">
        <ele>82</ele>
        <time>2020-07-03T07:30:43Z</time>
      </trkpt>
      <trkpt lat="47.6101" lon="1.41">
        <ele>82</ele>
        <time>2020-07-03T07:30:44Z</time>
      </trkpt>
      <trkpt lat="47.61004" lon="1.40995">
        <ele>82</ele>
        <time>2020-07-03T07:30:45Z</time>
      </trkpt>
      <trkpt lat="47.60998" lon="1.40989">
        <ele>82</ele>
        <time>2020-07-03T07:30:46Z</time>
      </trkpt>
      <trkpt lat="47.60993" lon="1.40984">
        <ele>82</ele>
        <time>2020-07-03T07:30:47Z</time>
      </trkpt>
      <trkpt lat="47.60987" lon="1.40978">
        <ele>82</ele>
        <time>2020-07-03T07:30:48Z</time>
      </trkpt>
      <trkpt lat="47.60981" lon="1.40972">
        <ele>82</ele>
        <time>2020-07-03T07:30:49Z</time>
      </trkpt>
      <trkpt lat="47.60976" lon="1.40966">
        <ele>82</ele>
        <time>2020-07-03T07:30:50Z</time>
      </trkpt>
      <trkpt lat="47.6097" lon="1.4096">
        <ele>82.1</ele>
        <time>2020-07-03T07:30:51Z</time>
      </trkpt>
      <trkpt lat="47.60965" lon="1.40954">
        <ele>82.1</ele>
        <time>2020-07-03T07:30:52Z</time>
      </trkpt>
      <trkpt lat="47.6096" lon="1.40949">
        <ele>82.1</ele>
        <time>2020-07-03T07:30:53Z</time>
      </trkpt>
      <trkpt lat="47.60954" lon="1.40943">
        <ele>82.1</ele>
        <time>2020-07-03T07:30:54Z</time>
      </trkpt>
      <trkpt lat="47.60949" lon="1.40937">
        <ele>82.1</ele>
        <time>2020-07-03T07:30:55Z</time>
      </trkpt>
      <trkpt lat="47.60944" lon="1.4093">
        <ele>82.1</ele>
        <time>2020-07-03T07:30:56Z</time>
      </trkpt>
      <trkpt lat="47.60939" lon="1.40923">
        <ele>82.1</ele>
        <time>2020-07-03T07:30:57Z</time>
      </trkpt>
      <trkpt lat="47.60934" lon="1.40916">
        <ele>82</ele>
        <time>2020-07-03T07:30:58Z</time>
      </trkpt>
      <trkpt lat="47.60929" lon="1.4091">
        <ele>82</ele>
        <time>2020-07-03T07:30:59Z</time>
      </trkpt>
      <trkpt lat="47.60925" lon="1.40903">
        <ele>82</ele>
        <time>2020-07-03T07:31:00Z</time>
      </trkpt>
      <trkpt lat="47.6092" lon="1.40896">
        <ele>82</ele>
        <time>2020-07-03T07:31:01Z</time>
      </trkpt>
      <trkpt lat="47.60914" lon="1.40889">
        <ele>82</ele>
        <time>2020-07-03T07:31:02Z</time>
      </trkpt>
      <trkpt lat="47.60909" lon="1.40882">
        <ele>82</ele>
        <time>2020-07-03T07:31:03Z</time>
      </trkpt>
      <trkpt lat="47.60905" lon="1.40875">
        <ele>82</ele>
        <time>2020-07-03T07:31:04Z</time>
      </trkpt>
      <trkpt lat="47.609" lon="1.40868">
        <ele>82.1</ele>
        <time>2020-07-03T07:31:05Z</time>
      </trkpt>
      <trkpt lat="47.60895" lon="1.40861">
        <ele>82.1</ele>
        <time>2020-07-03T07:31:06Z</time>
      </trkpt>
      <trkpt lat="47.6089" lon="1.40854">
        <ele>82.1</ele>
        <time>2020-07-03T07:31:07Z</time>
      </trkpt>
      <trkpt lat="47.60886" lon="1.40847">
        <ele>82.1</ele>
        <time>2020-07-03T07:31:08Z</time>
      </trkpt>
      <trkpt lat="47.60881" lon="1.4084">
        <ele>82.2</ele>
        <time>2020-07-03T07:31:09Z</time>
      </trkpt>
      <trkpt lat="47.60877" lon="1.40833">
        <ele>82.2</ele>
        <time>2020-07-03T07:31:10Z</time>
      </trkpt>
      <trkpt lat="47.60872" lon="1.40827">
        <ele>82.2</ele>
        <time>2020-07-03T07:31:11Z</time>
      </trkpt>
      <trkpt lat="47.60867" lon="1.4082">
        <ele>82.2</ele>
        <time>2020-07-03T07:31:12Z</time>
      </trkpt>
      <trkpt lat="47.60862" lon="1.40813">
        <ele>82.2</ele>
        <time>2020-07-03T07:31:13Z</time>
      </trkpt>
      <trkpt lat="47.60858" lon="1.40806">
        <ele>82.1</ele>
        <time>2020-07-03T07:31:14Z</time>
      </trkpt>
      <trkpt lat="47.60853" lon="1.40799">
        <ele>82.1</ele>
        <time>2020-07-03T07:31:15Z</time>
      </trkpt>
      <trkpt lat="47.60849" lon="1.40792">
        <ele>82.1</ele>
        <time>2020-07-03T07:31:16Z</time>
      </trkpt>
      <trkpt lat="47.60844" lon="1.40784">
        <ele>82.1</ele>
        <time>2020-07-03T07:31:17Z</time>
      </trkpt>
      <trkpt lat="47.6084" lon="1.40777">
        <ele>82.1</ele>
        <time>2020-07-03T07:31:18Z</time>
      </trkpt>
      <trkpt lat="47.60835" lon="1.4077">
        <ele>82.1</ele>
        <time>2020-07-03T07:31:19Z</time>
      </trkpt>
      <trkpt lat="47.6083" lon="1.40763">
        <ele>82.1</ele>
        <time>2020-07-03T07:31:20Z</time>
      </trkpt>
      <trkpt lat="47.60825" lon="1.40756">
        <ele>82.2</ele>
        <time>2020-07-03T07:31:21Z</time>
      </trkpt>
      <trkpt lat="47.60821" lon="1.40749">
        <ele>82.3</ele>
        <time>2020-07-03T07:31:22Z</time>
      </trkpt>
      <trkpt lat="47.60816" lon="1.40742">
        <ele>82.4</ele>
        <time>2020-07-03T07:31:23Z</time>
      </trkpt>
      <trkpt lat="47.60811" lon="1.40735">
        <ele>82.4</ele>
        <time>2020-07-03T07:31:24Z</time>
      </trkpt>
      <trkpt lat="47.60806" lon="1.40728">
        <ele>82.4</ele>
        <time>2020-07-03T07:31:25Z</time>
      </trkpt>
      <trkpt lat="47.60802" lon="1.40722">
        <ele>82.4</ele>
        <time>2020-07-03T07:31:26Z</time>
      </trkpt>
      <trkpt lat="47.60797" lon="1.40715">
        <ele>82.4</ele>
        <time>2020-07-03T07:31:27Z</time>
      </trkpt>
      <trkpt lat="47.60792" lon="1.40709">
        <ele>82.4</ele>
        <time>2020-07-03T07:31:28Z</time>
      </trkpt>
      <trkpt lat="47.60787" lon="1.40702">
        <ele>82.5</ele>
        <time>2020-07-03T07:31:29Z</time>
      </trkpt>
      <trkpt lat="47.60782" lon="1.40696">
        <ele>82.5</ele>
        <time>2020-07-03T07:31:30Z</time>
      </trkpt>
      <trkpt lat="47.60777" lon="1.40689">
        <ele>82.5</ele>
        <time>2020-07-03T07:31:31Z</time>
      </trkpt>
      <trkpt lat="47.60772" lon="1.40684">
        <ele>82.6</ele>
        <time>2020-07-03T07:31:32Z</time>
      </trkpt>
      <trkpt lat="47.60767" lon="1.40678">
        <ele>82.6</ele>
        <time>2020-07-03T07:31:33Z</time>
      </trkpt>
      <trkpt lat="47.60762" lon="1.40672">
        <ele>82.6</ele>
        <time>2020-07-03T07:31:34Z</time>
      </trkpt>
      <trkpt lat="47.60757" lon="1.40667">
        <ele>82.6</ele>
        <time>2020-07-03T07:31:35Z</time>
      </trkpt>
      <trkpt lat="47.60751" lon="1.40662">
        <ele>82.6</ele>
        <time>2020-07-03T07:31:36Z</time>
      </trkpt>
      <trkpt lat="47.60746" lon="1.40657">
        <ele>82.6</ele>
        <time>2020-07-03T07:31:37Z</time>
      </trkpt>
      <trkpt lat="47.6074" lon="1.40651">
        <ele>82.7</ele>
        <time>2020-07-03T07:31:38Z</time>
      </trkpt>
      <trkpt lat="47.60735" lon="1.40646">
        <ele>82.7</ele>
        <time>2020-07-03T07:31:39Z</time>
      </trkpt>
      <trkpt lat="47.6073" lon="1.40641">
        <ele>82.7</ele>
        <time>2020-07-03T07:31:40Z</time>
      </trkpt>
      <trkpt lat="47.60725" lon="1.40635">
        <ele>82.8</ele>
        <time>2020-07-03T07:31:41Z</time>
      </trkpt>
      <trkpt lat="47.6072" lon="1.4063">
        <ele>82.8</ele>
        <time>2020-07-03T07:31:42Z</time>
      </trkpt>
      <trkpt lat="47.60715" lon="1.40625">
        <ele>82.8</ele>
        <time>2020-07-03T07:31:43Z</time>
      </trkpt>
      <trkpt lat="47.6071" lon="1.4062">
        <ele>82.8</ele>
        <time>2020-07-03T07:31:44Z</time>
      </trkpt>
      <trkpt lat="47.60705" lon="1.40613">
        <ele>82.8</ele>
        <time>2020-07-03T07:31:45Z</time>
      </trkpt>
      <trkpt lat="47.607" lon="1.40605">
        <ele>82.9</ele>
        <time>2020-07-03T07:31:46Z</time>
      </trkpt>
      <trkpt lat="47.60696" lon="1.40599">
        <ele>82.9</ele>
        <time>2020-07-03T07:31:47Z</time>
      </trkpt>
      <trkpt lat="47.60692" lon="1.40592">
        <ele>82.9</ele>
        <time>2020-07-03T07:31:48Z</time>
      </trkpt>
      <trkpt lat="47.60688" lon="1.40586">
        <ele>82.9</ele>
        <time>2020-07-03T07:31:49Z</time>
      </trkpt>
      <trkpt lat="47.60683" lon="1.40578">
        <ele>82.9</ele>
        <time>2020-07-03T07:31:50Z</time>
      </trkpt>
      <trkpt lat="47.60679" lon="1.40571">
        <ele>82.8</ele>
        <time>2020-07-03T07:31:51Z</time>
      </trkpt>
      <trkpt lat="47.60675" lon="1.40563">
        <ele>82.8</ele>
        <time>2020-07-03T07:31:52Z</time>
      </trkpt>
      <trkpt lat="47.60672" lon="1.40556">
        <ele>82.7</ele>
        <time>2020-07-03T07:31:53Z</time>
      </trkpt>
      <trkpt lat="47.60668" lon="1.40549">
        <ele>82.7</ele>
        <time>2020-07-03T07:31:54Z</time>
      </trkpt>
      <trkpt lat="47.60664" lon="1.40541">
        <ele>82.7</ele>
        <time>2020-07-03T07:31:55Z</time>
      </trkpt>
      <trkpt lat="47.6066" lon="1.40532">
        <ele>82.6</ele>
        <time>2020-07-03T07:31:56Z</time>
      </trkpt>
      <trkpt lat="47.60656" lon="1.40524">
        <ele>82.5</ele>
        <time>2020-07-03T07:31:57Z</time>
      </trkpt>
      <trkpt lat="47.60652" lon="1.40516">
        <ele>82.4</ele>
        <time>2020-07-03T07:31:58Z</time>
      </trkpt>
      <trkpt lat="47.60649" lon="1.40507">
        <ele>82.3</ele>
        <time>2020-07-03T07:31:59Z</time>
      </trkpt>
      <trkpt lat="47.60644" lon="1.40498">
        <ele>82.1</ele>
        <time>2020-07-03T07:32:00Z</time>
      </trkpt>
      <trkpt lat="47.6064" lon="1.40489">
        <ele>82</ele>
        <time>2020-07-03T07:32:01Z</time>
      </trkpt>
      <trkpt lat="47.60636" lon="1.40481">
        <ele>81.9</ele>
        <time>2020-07-03T07:32:02Z</time>
      </trkpt>
      <trkpt lat="47.60632" lon="1.40472">
        <ele>81.8</ele>
        <time>2020-07-03T07:32:03Z</time>
      </trkpt>
      <trkpt lat="47.60628" lon="1.40464">
        <ele>81.8</ele>
        <time>2020-07-03T07:32:04Z</time>
      </trkpt>
      <trkpt lat="47.60623" lon="1.40456">
        <ele>81.7</ele>
        <time>2020-07-03T07:32:05Z</time>
      </trkpt>
      <trkpt lat="47.60619" lon="1.40448">
        <ele>81.6</ele>
        <time>2020-07-03T07:32:06Z</time>
      </trkpt>
      <trkpt lat="47.60614" lon="1.4044">
        <ele>81.5</ele>
        <time>2020-07-03T07:32:07Z</time>
      </trkpt>
      <trkpt lat="47.60611" lon="1.40431">
        <ele>81.4</ele>
        <time>2020-07-03T07:32:08Z</time>
      </trkpt>
      <trkpt lat="47.60607" lon="1.40423">
        <ele>81.3</ele>
        <time>2020-07-03T07:32:09Z</time>
      </trkpt>
      <trkpt lat="47.60603" lon="1.40414">
        <ele>81.2</ele>
        <time>2020-07-03T07:32:10Z</time>
      </trkpt>
      <trkpt lat="47.60599" lon="1.40407">
        <ele>81.1</ele>
        <time>2020-07-03T07:32:11Z</time>
      </trkpt>
      <trkpt lat="47.60595" lon="1.40398">
        <ele>81</ele>
        <time>2020-07-03T07:32:12Z</time>
      </trkpt>
      <trkpt lat="47.6059" lon="1.4039">
        <ele>81</ele>
        <time>2020-07-03T07:32:13Z</time>
      </trkpt>
      <trkpt lat="47.60586" lon="1.40382">
        <ele>80.9</ele>
        <time>2020-07-03T07:32:14Z</time>
      </trkpt>
      <trkpt lat="47.60581" lon="1.40374">
        <ele>80.9</ele>
        <time>2020-07-03T07:32:15Z</time>
      </trkpt>
      <trkpt lat="47.60576" lon="1.40365">
        <ele>80.9</ele>
        <time>2020-07-03T07:32:16Z</time>
      </trkpt>
      <trkpt lat="47.60572" lon="1.40357">
        <ele>80.9</ele>
        <time>2020-07-03T07:32:17Z</time>
      </trkpt>
      <trkpt lat="47.60567" lon="1.40349">
        <ele>80.8</ele>
        <time>2020-07-03T07:32:18Z</time>
      </trkpt>
      <trkpt lat="47.60562" lon="1.40341">
        <ele>80.8</ele>
        <time>2020-07-03T07:32:19Z</time>
      </trkpt>
      <trkpt lat="47.60558" lon="1.40333">
        <ele>80.7</ele>
        <time>2020-07-03T07:32:20Z</time>
      </trkpt>
      <trkpt lat="47.60553" lon="1.40325">
        <ele>80.7</ele>
        <time>2020-07-03T07:32:21Z</time>
      </trkpt>
      <trkpt lat="47.60549" lon="1.40317">
        <ele>80.7</ele>
        <time>2020-07-03T07:32:22Z</time>
      </trkpt>
      <trkpt lat="47.60544" lon="1.40309">
        <ele>80.6</ele>
        <time>2020-07-03T07:32:23Z</time>
      </trkpt>
      <trkpt lat="47.6054" lon="1.40301">
        <ele>80.6</ele>
        <time>2020-07-03T07:32:24Z</time>
      </trkpt>
      <trkpt lat="47.60536" lon="1.40292">
        <ele>80.6</ele>
        <time>2020-07-03T07:32:25Z</time>
      </trkpt>
      <trkpt lat="47.60531" lon="1.40284">
        <ele>80.7</ele>
        <time>2020-07-03T07:32:26Z</time>
      </trkpt>
      <trkpt lat="47.60527" lon="1.40275">
        <ele>80.7</ele>
        <time>2020-07-03T07:32:27Z</time>
      </trkpt>
      <trkpt lat="47.60523" lon="1.40267">
        <ele>80.7</ele>
        <time>2020-07-03T07:32:28Z</time>
      </trkpt>
      <trkpt lat="47.60519" lon="1.40259">
        <ele>80.7</ele>
        <time>2020-07-03T07:32:29Z</time>
      </trkpt>
      <trkpt lat="47.60515" lon="1.4025">
        <ele>80.8</ele>
        <time>2020-07-03T07:32:30Z</time>
      </trkpt>
      <trkpt lat="47.60511" lon="1.40242">
        <ele>80.8</ele>
        <time>2020-07-03T07:32:31Z</time>
      </trkpt>
      <trkpt lat="47.60507" lon="1.40234">
        <ele>80.9</ele>
        <time>2020-07-03T07:32:32Z</time>
      </trkpt>
      <trkpt lat="47.60504" lon="1.40225">
        <ele>81</ele>
        <time>2020-07-03T07:32:33Z</time>
      </trkpt>
      <trkpt lat="47.605" lon="1.40217">
        <ele>81.1</ele>
        <time>2020-07-03T07:32:34Z</time>
      </trkpt>
      <trkpt lat="47.60496" lon="1.40209">
        <ele>81.2</ele>
        <time>2020-07-03T07:32:35Z</time>
      </trkpt>
      <trkpt lat="47.60491" lon="1.40201">
        <ele>81.4</ele>
        <time>2020-07-03T07:32:36Z</time>
      </trkpt>
      <trkpt lat="47.60487" lon="1.40193">
        <ele>81.5</ele>
        <time>2020-07-03T07:32:37Z</time>
      </trkpt>
      <trkpt lat="47.60482" lon="1.40185">
        <ele>81.6</ele>
        <time>2020-07-03T07:32:38Z</time>
      </trkpt>
      <trkpt lat="47.60478" lon="1.40178">
        <ele>81.7</ele>
        <time>2020-07-03T07:32:39Z</time>
      </trkpt>
      <trkpt lat="47.60474" lon="1.40171">
        <ele>81.8</ele>
        <time>2020-07-03T07:32:40Z</time>
      </trkpt>
      <trkpt lat="47.6047" lon="1.40164">
        <ele>81.9</ele>
        <time>2020-07-03T07:32:41Z</time>
      </trkpt>
      <trkpt lat="47.60466" lon="1.40157">
        <ele>81.9</ele>
        <time>2020-07-03T07:32:42Z</time>
      </trkpt>
      <trkpt lat="47.60462" lon="1.4015">
        <ele>82.2</ele>
        <time>2020-07-03T07:32:43Z</time>
      </trkpt>
      <trkpt lat="47.60457" lon="1.40144">
        <ele>82.1</ele>
        <time>2020-07-03T07:32:44Z</time>
      </trkpt>
      <trkpt lat="47.60454" lon="1.40137">
        <ele>82.1</ele>
        <time>2020-07-03T07:32:45Z</time>
      </trkpt>
      <trkpt lat="47.6045" lon="1.40129">
        <ele>82.1</ele>
        <time>2020-07-03T07:32:46Z</time>
      </trkpt>
      <trkpt lat="47.60446" lon="1.40122">
        <ele>82</ele>
        <time>2020-07-03T07:32:47Z</time>
      </trkpt>
      <trkpt lat="47.60443" lon="1.40115">
        <ele>82</ele>
        <time>2020-07-03T07:32:48Z</time>
      </trkpt>
      <trkpt lat="47.60439" lon="1.40108">
        <ele>82.1</ele>
        <time>2020-07-03T07:32:49Z</time>
      </trkpt>
      <trkpt lat="47.60435" lon="1.40102">
        <ele>82.1</ele>
        <time>2020-07-03T07:32:50Z</time>
      </trkpt>
      <trkpt lat="47.60431" lon="1.40095">
        <ele>82.1</ele>
        <time>2020-07-03T07:32:51Z</time>
      </trkpt>
      <trkpt lat="47.60427" lon="1.40088">
        <ele>82.1</ele>
        <time>2020-07-03T07:32:52Z</time>
      </trkpt>
      <trkpt lat="47.60423" lon="1.40081">
        <ele>82.2</ele>
        <time>2020-07-03T07:32:53Z</time>
      </trkpt>
      <trkpt lat="47.60419" lon="1.40074">
        <ele>82.2</ele>
        <time>2020-07-03T07:32:54Z</time>
      </trkpt>
      <trkpt lat="47.60415" lon="1.40068">
        <ele>82.3</ele>
        <time>2020-07-03T07:32:55Z</time>
      </trkpt>
      <trkpt lat="47.6041" lon="1.40062">
        <ele>82.4</ele>
        <time>2020-07-03T07:32:56Z</time>
      </trkpt>
      <trkpt lat="47.60406" lon="1.40056">
        <ele>82.4</ele>
        <time>2020-07-03T07:32:57Z</time>
      </trkpt>
      <trkpt lat="47.60402" lon="1.40049">
        <ele>82.5</ele>
        <time>2020-07-03T07:32:58Z</time>
      </trkpt>
      <trkpt lat="47.60398" lon="1.40042">
        <ele>82.6</ele>
        <time>2020-07-03T07:32:59Z</time>
      </trkpt>
      <trkpt lat="47.60394" lon="1.40035">
        <ele>82.7</ele>
        <time>2020-07-03T07:33:00Z</time>
      </trkpt>
      <trkpt lat="47.60389" lon="1.4003">
        <ele>82.7</ele>
        <time>2020-07-03T07:33:01Z</time>
      </trkpt>
      <trkpt lat="47.60385" lon="1.40023">
        <ele>82.8</ele>
        <time>2020-07-03T07:33:02Z</time>
      </trkpt>
      <trkpt lat="47.6038" lon="1.40017">
        <ele>82.9</ele>
        <time>2020-07-03T07:33:03Z</time>
      </trkpt>
      <trkpt lat="47.60376" lon="1.40011">
        <ele>83</ele>
        <time>2020-07-03T07:33:04Z</time>
      </trkpt>
      <trkpt lat="47.60371" lon="1.40004">
        <ele>83.1</ele>
        <time>2020-07-03T07:33:05Z</time>
      </trkpt>
      <trkpt lat="47.60367" lon="1.39997">
        <ele>83.2</ele>
        <time>2020-07-03T07:33:06Z</time>
      </trkpt>
      <trkpt lat="47.60363" lon="1.3999">
        <ele>83.3</ele>
        <time>2020-07-03T07:33:07Z</time>
      </trkpt>
      <trkpt lat="47.60359" lon="1.39983">
        <ele>83.3</ele>
        <time>2020-07-03T07:33:08Z</time>
      </trkpt>
      <trkpt lat="47.60354" lon="1.39976">
        <ele>83.4</ele>
        <time>2020-07-03T07:33:09Z</time>
      </trkpt>
      <trkpt lat="47.6035" lon="1.39971">
        <ele>83.5</ele>
        <time>2020-07-03T07:33:10Z</time>
      </trkpt>
      <trkpt lat="47.60345" lon="1.39965">
        <ele>83.5</ele>
        <time>2020-07-03T07:33:11Z</time>
      </trkpt>
      <trkpt lat="47.60339" lon="1.39958">
        <ele>83.6</ele>
        <time>2020-07-03T07:33:12Z</time>
      </trkpt>
      <trkpt lat="47.60335" lon="1.39952">
        <ele>83.6</ele>
        <time>2020-07-03T07:33:13Z</time>
      </trkpt>
      <trkpt lat="47.6033" lon="1.39947">
        <ele>83.7</ele>
        <time>2020-07-03T07:33:14Z</time>
      </trkpt>
      <trkpt lat="47.60326" lon="1.39942">
        <ele>83.7</ele>
        <time>2020-07-03T07:33:15Z</time>
      </trkpt>
      <trkpt lat="47.6032" lon="1.39935">
        <ele>83.8</ele>
        <time>2020-07-03T07:33:16Z</time>
      </trkpt>
      <trkpt lat="47.60315" lon="1.39929">
        <ele>83.8</ele>
        <time>2020-07-03T07:33:17Z</time>
      </trkpt>
      <trkpt lat="47.6031" lon="1.39924">
        <ele>83.8</ele>
        <time>2020-07-03T07:33:18Z</time>
      </trkpt>
      <trkpt lat="47.60305" lon="1.39919">
        <ele>83.8</ele>
        <time>2020-07-03T07:33:19Z</time>
      </trkpt>
      <trkpt lat="47.603" lon="1.39913">
        <ele>83.9</ele>
        <time>2020-07-03T07:33:20Z</time>
      </trkpt>
      <trkpt lat="47.60295" lon="1.39908">
        <ele>83.9</ele>
        <time>2020-07-03T07:33:21Z</time>
      </trkpt>
      <trkpt lat="47.6029" lon="1.39902">
        <ele>83.9</ele>
        <time>2020-07-03T07:33:22Z</time>
      </trkpt>
      <trkpt lat="47.60285" lon="1.39897">
        <ele>83.9</ele>
        <time>2020-07-03T07:33:23Z</time>
      </trkpt>
      <trkpt lat="47.60279" lon="1.39891">
        <ele>84</ele>
        <time>2020-07-03T07:33:24Z</time>
      </trkpt>
      <trkpt lat="47.60274" lon="1.39885">
        <ele>84</ele>
        <time>2020-07-03T07:33:25Z</time>
      </trkpt>
      <trkpt lat="47.60269" lon="1.3988">
        <ele>84</ele>
        <time>2020-07-03T07:33:26Z</time>
      </trkpt>
      <trkpt lat="47.60264" lon="1.39875">
        <ele>84</ele>
        <time>2020-07-03T07:33:27Z</time>
      </trkpt>
      <trkpt lat="47.6026" lon="1.39871">
        <ele>84</ele>
        <time>2020-07-03T07:33:28Z</time>
      </trkpt>
      <trkpt lat="47.60255" lon="1.39866">
        <ele>84</ele>
        <time>2020-07-03T07:33:29Z</time>
      </trkpt>
      <trkpt lat="47.6025" lon="1.3986">
        <ele>84</ele>
        <time>2020-07-03T07:33:30Z</time>
      </trkpt>
      <trkpt lat="47.60245" lon="1.39856">
        <ele>84</ele>
        <time>2020-07-03T07:33:31Z</time>
      </trkpt>
      <trkpt lat="47.60239" lon="1.39849">
        <ele>84.1</ele>
        <time>2020-07-03T07:33:32Z</time>
      </trkpt>
      <trkpt lat="47.60234" lon="1.39842">
        <ele>84.1</ele>
        <time>2020-07-03T07:33:33Z</time>
      </trkpt>
      <trkpt lat="47.60229" lon="1.39836">
        <ele>84.2</ele>
        <time>2020-07-03T07:33:34Z</time>
      </trkpt>
      <trkpt lat="47.60224" lon="1.39831">
        <ele>84.3</ele>
        <time>2020-07-03T07:33:35Z</time>
      </trkpt>
      <trkpt lat="47.6022" lon="1.39826">
        <ele>84.3</ele>
        <time>2020-07-03T07:33:36Z</time>
      </trkpt>
      <trkpt lat="47.60216" lon="1.39821">
        <ele>84.4</ele>
        <time>2020-07-03T07:33:37Z</time>
      </trkpt>
      <trkpt lat="47.60211" lon="1.39816">
        <ele>84.4</ele>
        <time>2020-07-03T07:33:38Z</time>
      </trkpt>
      <trkpt lat="47.60207" lon="1.39812">
        <ele>84.5</ele>
        <time>2020-07-03T07:33:39Z</time>
      </trkpt>
      <trkpt lat="47.60202" lon="1.39808">
        <ele>84.5</ele>
        <time>2020-07-03T07:33:40Z</time>
      </trkpt>
      <trkpt lat="47.60199" lon="1.39805">
        <ele>84.6</ele>
        <time>2020-07-03T07:33:41Z</time>
      </trkpt>
      <trkpt lat="47.60195" lon="1.39798">
        <ele>84.8</ele>
        <time>2020-07-03T07:33:42Z</time>
      </trkpt>
      <trkpt lat="47.60193" lon="1.39794">
        <ele>84.7</ele>
        <time>2020-07-03T07:33:43Z</time>
      </trkpt>
      <trkpt lat="47.60191" lon="1.39791">
        <ele>84.6</ele>
        <time>2020-07-03T07:33:44Z</time>
      </trkpt>
      <trkpt lat="47.6019" lon="1.39788">
        <ele>84.5</ele>
        <time>2020-07-03T07:33:45Z</time>
      </trkpt>
      <trkpt lat="47.6019" lon="1.39787">
        <ele>84.5</ele>
        <time>2020-07-03T07:33:46Z</time>
      </trkpt>
      <trkpt lat="47.60188" lon="1.39785">
        <ele>84.4</ele>
        <time>2020-07-03T07:33:47Z</time>
      </trkpt>
      <trkpt lat="47.60189" lon="1.39786">
        <ele>84.4</ele>
        <time>2020-07-03T07:33:48Z</time>
      </trkpt>
      <trkpt lat="47.60189" lon="1.39787">
        <ele>84.3</ele>
        <time>2020-07-03T07:33:49Z</time>
      </trkpt>
      <trkpt lat="47.6019" lon="1.39788">
        <ele>84.3</ele>
        <time>2020-07-03T07:33:50Z</time>
      </trkpt>
      <trkpt lat="47.6019" lon="1.39788">
        <ele>84.3</ele>
        <time>2020-07-03T07:33:51Z</time>
      </trkpt>
      <trkpt lat="47.60189" lon="1.39788">
        <ele>84.3</ele>
        <time>2020-07-03T07:33:52Z</time>
      </trkpt>
      <trkpt lat="47.6019" lon="1.39788">
        <ele>84.2</ele>
        <time>2020-07-03T07:33:53Z</time>
      </trkpt>
      <trkpt lat="47.60191" lon="1.39788">
        <ele>84.2</ele>
        <time>2020-07-03T07:33:54Z</time>
      </trkpt>
      <trkpt lat="47.60191" lon="1.39789">
        <ele>84.2</ele>
        <time>2020-07-03T07:33:55Z</time>
      </trkpt>
      <trkpt lat="47.60192" lon="1.39788">
        <ele>84.2</ele>
        <time>2020-07-03T07:33:56Z</time>
      </trkpt>
      <trkpt lat="47.60193" lon="1.39789">
        <ele>84.1</ele>
        <time>2020-07-03T07:33:57Z</time>
      </trkpt>
      <trkpt lat="47.60193" lon="1.39788">
        <ele>84.1</ele>
        <time>2020-07-03T07:33:58Z</time>
      </trkpt>
      <trkpt lat="47.60193" lon="1.39793">
        <ele>84</ele>
        <time>2020-07-03T07:39:26Z</time>
      </trkpt>
      <trkpt lat="47.60194" lon="1.39794">
        <ele>84</ele>
        <time>2020-07-03T07:39:27Z</time>
      </trkpt>
      <trkpt lat="47.60198" lon="1.39792">
        <ele>83.8</ele>
        <time>2020-07-03T07:39:28Z</time>
      </trkpt>
      <trkpt lat="47.60199" lon="1.39791">
        <ele>83.8</ele>
        <time>2020-07-03T07:39:29Z</time>
      </trkpt>
      <trkpt lat="47.60202" lon="1.39786">
        <ele>83.7</ele>
        <time>2020-07-03T07:39:30Z</time>
      </trkpt>
      <trkpt lat="47.60205" lon="1.39782">
        <ele>83.5</ele>
        <time>2020-07-03T07:39:31Z</time>
      </trkpt>
      <trkpt lat="47.60208" lon="1.39777">
        <ele>83.3</ele>
        <time>2020-07-03T07:39:32Z</time>
      </trkpt>
      <trkpt lat="47.60212" lon="1.3977">
        <ele>83.1</ele>
        <time>2020-07-03T07:39:33Z</time>
      </trkpt>
      <trkpt lat="47.60216" lon="1.39766">
        <ele>83</ele>
        <time>2020-07-03T07:39:34Z</time>
      </trkpt>
      <trkpt lat="47.60219" lon="1.3976">
        <ele>82.8</ele>
        <time>2020-07-03T07:39:35Z</time>
      </trkpt>
      <trkpt lat="47.60224" lon="1.39754">
        <ele>82.6</ele>
        <time>2020-07-03T07:39:36Z</time>
      </trkpt>
      <trkpt lat="47.60228" lon="1.39749">
        <ele>82.4</ele>
        <time>2020-07-03T07:39:37Z</time>
      </trkpt>
      <trkpt lat="47.60232" lon="1.39743">
        <ele>82.2</ele>
        <time>2020-07-03T07:39:38Z</time>
      </trkpt>
      <trkpt lat="47.60235" lon="1.39738">
        <ele>82</ele>
        <time>2020-07-03T07:39:39Z</time>
      </trkpt>
      <trkpt lat="47.60239" lon="1.39732">
        <ele>81.9</ele>
        <time>2020-07-03T07:39:40Z</time>
      </trkpt>
      <trkpt lat="47.60243" lon="1.39727">
        <ele>81.7</ele>
        <time>2020-07-03T07:39:41Z</time>
      </trkpt>
      <trkpt lat="47.60247" lon="1.39722">
        <ele>81.5</ele>
        <time>2020-07-03T07:39:42Z</time>
      </trkpt>
      <trkpt lat="47.60251" lon="1.39717">
        <ele>81.3</ele>
        <time>2020-07-03T07:39:43Z</time>
      </trkpt>
      <trkpt lat="47.60254" lon="1.39713">
        <ele>81.2</ele>
        <time>2020-07-03T07:39:44Z</time>
      </trkpt>
      <trkpt lat="47.60258" lon="1.39707">
        <ele>81</ele>
        <time>2020-07-03T07:39:45Z</time>
      </trkpt>
      <trkpt lat="47.60261" lon="1.397">
        <ele>80.8</ele>
        <time>2020-07-03T07:39:46Z</time>
      </trkpt>
      <trkpt lat="47.60263" lon="1.39691">
        <ele>80.6</ele>
        <time>2020-07-03T07:39:47Z</time>
      </trkpt>
      <trkpt lat="47.60265" lon="1.39683">
        <ele>80.4</ele>
        <time>2020-07-03T07:39:48Z</time>
      </trkpt>
      <trkpt lat="47.60266" lon="1.39675">
        <ele>80.2</ele>
        <time>2020-07-03T07:39:49Z</time>
      </trkpt>
      <trkpt lat="47.60268" lon="1.39669">
        <ele>80.1</ele>
        <time>2020-07-03T07:39:50Z</time>
      </trkpt>
      <trkpt lat="47.60271" lon="1.39665">
        <ele>79.9</ele>
        <time>2020-07-03T07:39:51Z</time>
      </trkpt>
      <trkpt lat="47.60275" lon="1.39661">
        <ele>79.7</ele>
        <time>2020-07-03T07:39:52Z</time>
      </trkpt>
      <trkpt lat="47.60279" lon="1.39657">
        <ele>79.6</ele>
        <time>2020-07-03T07:39:53Z</time>
      </trkpt>
      <trkpt lat="47.60282" lon="1.39655">
        <ele>79.5</ele>
        <time>2020-07-03T07:39:54Z</time>
      </trkpt>
      <trkpt lat="47.60287" lon="1.39654">
        <ele>79.3</ele>
        <time>2020-07-03T07:39:55Z</time>
      </trkpt>
      <trkpt lat="47.6029" lon="1.39657">
        <ele>79.2</ele>
        <time>2020-07-03T07:39:56Z</time>
      </trkpt>
      <trkpt lat="47.60293" lon="1.3966">
        <ele>79.6</ele>
        <time>2020-07-03T07:39:57Z</time>
      </trkpt>
      <trkpt lat="47.60295" lon="1.39664">
        <ele>79.7</ele>
        <time>2020-07-03T07:39:58Z</time>
      </trkpt>
      <trkpt lat="47.60298" lon="1.39669">
        <ele>79.7</ele>
        <time>2020-07-03T07:39:59Z</time>
      </trkpt>
      <trkpt lat="47.60299" lon="1.39671">
        <ele>79.7</ele>
        <time>2020-07-03T07:40:00Z</time>
      </trkpt>
      <trkpt lat="47.603" lon="1.39673">
        <ele>79.7</ele>
        <time>2020-07-03T07:40:01Z</time>
      </trkpt>
      <trkpt lat="47.60301" lon="1.39675">
        <ele>79.7</ele>
        <time>2020-07-03T07:40:02Z</time>
      </trkpt>
      <trkpt lat="47.60301" lon="1.39676">
        <ele>79.7</ele>
        <time>2020-07-03T07:40:03Z</time>
      </trkpt>
      <trkpt lat="47.60302" lon="1.39678">
        <ele>79.7</ele>
        <time>2020-07-03T07:40:04Z</time>
      </trkpt>
      <trkpt lat="47.60302" lon="1.39679">
        <ele>79.7</ele>
        <time>2020-07-03T07:40:05Z</time>
      </trkpt>
      <trkpt lat="47.60303" lon="1.39679">
        <ele>79.7</ele>
        <time>2020-07-03T07:40:06Z</time>
      </trkpt>
      <trkpt lat="47.60304" lon="1.39679">
        <ele>79.7</ele>
        <time>2020-07-03T07:40:07Z</time>
      </trkpt>
      <trkpt lat="47.60306" lon="1.3968">
        <ele>79.8</ele>
        <time>2020-07-03T07:40:08Z</time>
      </trkpt>
      <trkpt lat="47.60306" lon="1.39681">
        <ele>79.8</ele>
        <time>2020-07-03T07:40:09Z</time>
      </trkpt>
      <trkpt lat="47.60306" lon="1.39682">
        <ele>79.8</ele>
        <time>2020-07-03T07:40:10Z</time>
      </trkpt>
      <trkpt lat="47.60306" lon="1.39684">
        <ele>79.8</ele>
        <time>2020-07-03T07:40:11Z</time>
      </trkpt>
      <trkpt lat="47.60307" lon="1.39688">
        <ele>79.8</ele>
        <time>2020-07-03T07:40:12Z</time>
      </trkpt>
      <trkpt lat="47.60307" lon="1.39689">
        <ele>79.8</ele>
        <time>2020-07-03T07:40:13Z</time>
      </trkpt>
      <trkpt lat="47.60307" lon="1.3969">
        <ele>79.8</ele>
        <time>2020-07-03T07:40:14Z</time>
      </trkpt>
      <trkpt lat="47.60308" lon="1.39693">
        <ele>79.8</ele>
        <time>2020-07-03T07:40:15Z</time>
      </trkpt>
      <trkpt lat="47.60309" lon="1.39695">
        <ele>79.8</ele>
        <time>2020-07-03T07:40:16Z</time>
      </trkpt>
      <trkpt lat="47.60309" lon="1.39696">
        <ele>79.8</ele>
        <time>2020-07-03T07:40:17Z</time>
      </trkpt>
      <trkpt lat="47.6031" lon="1.39697">
        <ele>79.8</ele>
        <time>2020-07-03T07:40:18Z</time>
      </trkpt>
      <trkpt lat="47.6031" lon="1.39698">
        <ele>79.8</ele>
        <time>2020-07-03T07:40:19Z</time>
      </trkpt>
      <trkpt lat="47.6031" lon="1.397">
        <ele>79.8</ele>
        <time>2020-07-03T07:40:20Z</time>
      </trkpt>
      <trkpt lat="47.6031" lon="1.397">
        <ele>79.8</ele>
        <time>2020-07-03T07:40:21Z</time>
      </trkpt>
      <trkpt lat="47.60312" lon="1.39697">
        <ele>79.8</ele>
        <time>2020-07-03T07:40:22Z</time>
      </trkpt>
      <trkpt lat="47.60311" lon="1.39695">
        <ele>79.8</ele>
        <time>2020-07-03T07:40:23Z</time>
      </trkpt>
      <trkpt lat="47.60311" lon="1.39694">
        <ele>79.8</ele>
        <time>2020-07-03T07:40:24Z</time>
      </trkpt>
      <trkpt lat="47.60311" lon="1.39693">
        <ele>79.8</ele>
        <time>2020-07-03T07:40:25Z</time>
      </trkpt>
      <trkpt lat="47.6031" lon="1.39692">
        <ele>79.8</ele>
        <time>2020-07-03T07:40:26Z</time>
      </trkpt>
      <trkpt lat="47.6031" lon="1.39691">
        <ele>79.8</ele>
        <time>2020-07-03T07:40:27Z</time>
      </trkpt>
      <trkpt lat="47.60307" lon="1.39688">
        <ele>79.8</ele>
        <time>2020-07-03T07:40:28Z</time>
      </trkpt>
      <trkpt lat="47.60305" lon="1.39683">
        <ele>79.8</ele>
        <time>2020-07-03T07:40:29Z</time>
      </trkpt>
      <trkpt lat="47.60303" lon="1.39678">
        <ele>79.7</ele>
        <time>2020-07-03T07:40:30Z</time>
      </trkpt>
      <trkpt lat="47.60301" lon="1.39673">
        <ele>79.7</ele>
        <time>2020-07-03T07:40:31Z</time>
      </trkpt>
      <trkpt lat="47.60299" lon="1.3967">
        <ele>79.7</ele>
        <time>2020-07-03T07:40:32Z</time>
      </trkpt>
      <trkpt lat="47.60296" lon="1.39666">
        <ele>79.6</ele>
        <time>2020-07-03T07:40:33Z</time>
      </trkpt>
      <trkpt lat="47.60294" lon="1.39661">
        <ele>79.6</ele>
        <time>2020-07-03T07:40:34Z</time>
      </trkpt>
      <trkpt lat="47.60292" lon="1.39656">
        <ele>79.5</ele>
        <time>2020-07-03T07:40:35Z</time>
      </trkpt>
      <trkpt lat="47.60291" lon="1.39652">
        <ele>79.1</ele>
        <time>2020-07-03T07:40:36Z</time>
      </trkpt>
      <trkpt lat="47.6029" lon="1.3965">
        <ele>79.1</ele>
        <time>2020-07-03T07:40:37Z</time>
      </trkpt>
      <trkpt lat="47.60289" lon="1.39648">
        <ele>79.1</ele>
        <time>2020-07-03T07:40:38Z</time>
      </trkpt>
      <trkpt lat="47.60289" lon="1.39644">
        <ele>79.1</ele>
        <time>2020-07-03T07:40:39Z</time>
      </trkpt>
      <trkpt lat="47.60288" lon="1.39639">
        <ele>79.1</ele>
        <time>2020-07-03T07:40:40Z</time>
      </trkpt>
      <trkpt lat="47.60288" lon="1.39638">
        <ele>79.1</ele>
        <time>2020-07-03T07:40:41Z</time>
      </trkpt>
      <trkpt lat="47.60288" lon="1.39633">
        <ele>79</ele>
        <time>2020-07-03T07:40:42Z</time>
      </trkpt>
      <trkpt lat="47.60289" lon="1.3963">
        <ele>79</ele>
        <time>2020-07-03T07:40:43Z</time>
      </trkpt>
      <trkpt lat="47.60289" lon="1.39623">
        <ele>79</ele>
        <time>2020-07-03T07:40:44Z</time>
      </trkpt>
      <trkpt lat="47.60288" lon="1.39617">
        <ele>78.9</ele>
        <time>2020-07-03T07:40:45Z</time>
      </trkpt>
      <trkpt lat="47.60288" lon="1.3961">
        <ele>78.8</ele>
        <time>2020-07-03T07:40:46Z</time>
      </trkpt>
      <trkpt lat="47.60286" lon="1.39605">
        <ele>78.8</ele>
        <time>2020-07-03T07:40:47Z</time>
      </trkpt>
      <trkpt lat="47.60285" lon="1.39599">
        <ele>78.7</ele>
        <time>2020-07-03T07:40:48Z</time>
      </trkpt>
      <trkpt lat="47.60284" lon="1.39593">
        <ele>78.7</ele>
        <time>2020-07-03T07:40:49Z</time>
      </trkpt>
      <trkpt lat="47.60282" lon="1.39589">
        <ele>78.7</ele>
        <time>2020-07-03T07:40:50Z</time>
      </trkpt>
      <trkpt lat="47.60281" lon="1.39585">
        <ele>78.7</ele>
        <time>2020-07-03T07:40:51Z</time>
      </trkpt>
      <trkpt lat="47.60279" lon="1.39581">
        <ele>78.7</ele>
        <time>2020-07-03T07:40:52Z</time>
      </trkpt>
      <trkpt lat="47.60277" lon="1.39577">
        <ele>78.7</ele>
        <time>2020-07-03T07:40:53Z</time>
      </trkpt>
      <trkpt lat="47.60276" lon="1.39576">
        <ele>78.7</ele>
        <time>2020-07-03T07:40:54Z</time>
      </trkpt>
      <trkpt lat="47.60275" lon="1.39574">
        <ele>78.7</ele>
        <time>2020-07-03T07:40:55Z</time>
      </trkpt>
      <trkpt lat="47.60275" lon="1.39574">
        <ele>78.7</ele>
        <time>2020-07-03T07:40:56Z</time>
      </trkpt>
      <trkpt lat="47.60275" lon="1.39575">
        <ele>78.7</ele>
        <time>2020-07-03T07:40:57Z</time>
      </trkpt>
      <trkpt lat="47.60275" lon="1.39574">
        <ele>78.7</ele>
        <time>2020-07-03T07:40:58Z</time>
      </trkpt>
      <trkpt lat="47.60274" lon="1.39574">
        <ele>78.7</ele>
        <time>2020-07-03T07:40:59Z</time>
      </trkpt>
      <trkpt lat="47.60275" lon="1.39574">
        <ele>78.8</ele>
        <time>2020-07-03T07:41:00Z</time>
      </trkpt>
      <trkpt lat="47.60275" lon="1.39573">
        <ele>78.8</ele>
        <time>2020-07-03T07:41:01Z</time>
      </trkpt>
      <trkpt lat="47.60276" lon="1.39575">
        <ele>78.8</ele>
        <time>2020-07-03T07:41:02Z</time>
      </trkpt>
      <trkpt lat="47.60276" lon="1.39573">
        <ele>78.8</ele>
        <time>2020-07-03T07:41:03Z</time>
      </trkpt>
      <trkpt lat="47.60277" lon="1.39571">
        <ele>78.8</ele>
        <time>2020-07-03T07:41:04Z</time>
      </trkpt>
      <trkpt lat="47.60277" lon="1.39568">
        <ele>78.9</ele>
        <time>2020-07-03T07:41:05Z</time>
      </trkpt>
      <trkpt lat="47.60278" lon="1.39566">
        <ele>78.9</ele>
        <time>2020-07-03T07:41:06Z</time>
      </trkpt>
      <trkpt lat="47.60278" lon="1.39565">
        <ele>78.9</ele>
        <time>2020-07-03T07:41:07Z</time>
      </trkpt>
      <trkpt lat="47.6028" lon="1.3956">
        <ele>79</ele>
        <time>2020-07-03T07:41:08Z</time>
      </trkpt>
      <trkpt lat="47.60281" lon="1.39558">
        <ele>79.1</ele>
        <time>2020-07-03T07:41:09Z</time>
      </trkpt>
      <trkpt lat="47.60282" lon="1.39555">
        <ele>79.1</ele>
        <time>2020-07-03T07:41:10Z</time>
      </trkpt>
      <trkpt lat="47.60284" lon="1.39552">
        <ele>79.2</ele>
        <time>2020-07-03T07:41:11Z</time>
      </trkpt>
      <trkpt lat="47.60285" lon="1.39548">
        <ele>79.3</ele>
        <time>2020-07-03T07:41:12Z</time>
      </trkpt>
      <trkpt lat="47.60288" lon="1.39544">
        <ele>79.4</ele>
        <time>2020-07-03T07:41:13Z</time>
      </trkpt>
      <trkpt lat="47.60289" lon="1.39543">
        <ele>79.4</ele>
        <time>2020-07-03T07:41:14Z</time>
      </trkpt>
      <trkpt lat="47.60291" lon="1.39538">
        <ele>79.5</ele>
        <time>2020-07-03T07:41:15Z</time>
      </trkpt>
      <trkpt lat="47.60292" lon="1.39537">
        <ele>79.6</ele>
        <time>2020-07-03T07:41:16Z</time>
      </trkpt>
      <trkpt lat="47.60295" lon="1.39533">
        <ele>79.6</ele>
        <time>2020-07-03T07:41:17Z</time>
      </trkpt>
      <trkpt lat="47.60298" lon="1.3953">
        <ele>79.7</ele>
        <time>2020-07-03T07:41:18Z</time>
      </trkpt>
      <trkpt lat="47.60301" lon="1.39526">
        <ele>79.8</ele>
        <time>2020-07-03T07:41:19Z</time>
      </trkpt>
      <trkpt lat="47.60303" lon="1.39523">
        <ele>79.8</ele>
        <time>2020-07-03T07:41:20Z</time>
      </trkpt>
      <trkpt lat="47.60305" lon="1.3952">
        <ele>79.9</ele>
        <time>2020-07-03T07:41:21Z</time>
      </trkpt>
      <trkpt lat="47.60307" lon="1.39517">
        <ele>79.9</ele>
        <time>2020-07-03T07:41:22Z</time>
      </trkpt>
      <trkpt lat="47.60308" lon="1.39515">
        <ele>80</ele>
        <time>2020-07-03T07:41:23Z</time>
      </trkpt>
      <trkpt lat="47.60309" lon="1.39513">
        <ele>80</ele>
        <time>2020-07-03T07:41:24Z</time>
      </trkpt>
      <trkpt lat="47.60311" lon="1.3951">
        <ele>80</ele>
        <time>2020-07-03T07:41:25Z</time>
      </trkpt>
      <trkpt lat="47.60312" lon="1.39509">
        <ele>80.1</ele>
        <time>2020-07-03T07:41:26Z</time>
      </trkpt>
      <trkpt lat="47.60314" lon="1.39506">
        <ele>80.1</ele>
        <time>2020-07-03T07:41:27Z</time>
      </trkpt>
      <trkpt lat="47.60315" lon="1.39505">
        <ele>80.1</ele>
        <time>2020-07-03T07:41:28Z</time>
      </trkpt>
      <trkpt lat="47.60317" lon="1.39501">
        <ele>80.2</ele>
        <time>2020-07-03T07:41:29Z</time>
      </trkpt>
      <trkpt lat="47.60318" lon="1.39499">
        <ele>80.2</ele>
        <time>2020-07-03T07:41:30Z</time>
      </trkpt>
      <trkpt lat="47.6032" lon="1.39496">
        <ele>80.2</ele>
        <time>2020-07-03T07:41:31Z</time>
      </trkpt>
      <trkpt lat="47.60322" lon="1.39493">
        <ele>80.2</ele>
        <time>2020-07-03T07:41:32Z</time>
      </trkpt>
      <trkpt lat="47.60324" lon="1.3949">
        <ele>80.2</ele>
        <time>2020-07-03T07:41:33Z</time>
      </trkpt>
      <trkpt lat="47.60327" lon="1.39486">
        <ele>80.3</ele>
        <time>2020-07-03T07:41:34Z</time>
      </trkpt>
      <trkpt lat="47.60328" lon="1.39485">
        <ele>80.3</ele>
        <time>2020-07-03T07:41:35Z</time>
      </trkpt>
      <trkpt lat="47.6033" lon="1.39481">
        <ele>80.2</ele>
        <time>2020-07-03T07:41:36Z</time>
      </trkpt>
      <trkpt lat="47.60333" lon="1.39477">
        <ele>80.2</ele>
        <time>2020-07-03T07:41:37Z</time>
      </trkpt>
      <trkpt lat="47.60335" lon="1.39476">
        <ele>80.2</ele>
        <time>2020-07-03T07:41:38Z</time>
      </trkpt>
      <trkpt lat="47.60338" lon="1.39473">
        <ele>80.2</ele>
        <time>2020-07-03T07:41:39Z</time>
      </trkpt>
      <trkpt lat="47.60339" lon="1.39472">
        <ele>80.2</ele>
        <time>2020-07-03T07:41:40Z</time>
      </trkpt>
      <trkpt lat="47.60342" lon="1.39469">
        <ele>80.2</ele>
        <time>2020-07-03T07:41:41Z</time>
      </trkpt>
      <trkpt lat="47.60343" lon="1.39467">
        <ele>80.2</ele>
        <time>2020-07-03T07:41:42Z</time>
      </trkpt>
      <trkpt lat="47.60346" lon="1.39464">
        <ele>80.1</ele>
        <time>2020-07-03T07:41:43Z</time>
      </trkpt>
      <trkpt lat="47.60346" lon="1.39463">
        <ele>80.1</ele>
        <time>2020-07-03T07:41:44Z</time>
      </trkpt>
      <trkpt lat="47.60349" lon="1.3946">
        <ele>80.1</ele>
        <time>2020-07-03T07:41:45Z</time>
      </trkpt>
      <trkpt lat="47.6035" lon="1.39458">
        <ele>80.1</ele>
        <time>2020-07-03T07:41:46Z</time>
      </trkpt>
      <trkpt lat="47.60352" lon="1.39455">
        <ele>80.1</ele>
        <time>2020-07-03T07:41:47Z</time>
      </trkpt>
      <trkpt lat="47.60353" lon="1.39454">
        <ele>80.1</ele>
        <time>2020-07-03T07:41:48Z</time>
      </trkpt>
      <trkpt lat="47.60356" lon="1.3945">
        <ele>80</ele>
        <time>2020-07-03T07:41:49Z</time>
      </trkpt>
      <trkpt lat="47.60357" lon="1.39449">
        <ele>80</ele>
        <time>2020-07-03T07:41:50Z</time>
      </trkpt>
      <trkpt lat="47.60359" lon="1.39446">
        <ele>80</ele>
        <time>2020-07-03T07:41:51Z</time>
      </trkpt>
      <trkpt lat="47.6036" lon="1.39444">
        <ele>80</ele>
        <time>2020-07-03T07:41:52Z</time>
      </trkpt>
      <trkpt lat="47.60362" lon="1.39441">
        <ele>79.9</ele>
        <time>2020-07-03T07:41:53Z</time>
      </trkpt>
      <trkpt lat="47.60362" lon="1.3944">
        <ele>79.9</ele>
        <time>2020-07-03T07:41:54Z</time>
      </trkpt>
      <trkpt lat="47.60363" lon="1.39439">
        <ele>79.9</ele>
        <time>2020-07-03T07:41:55Z</time>
      </trkpt>
      <trkpt lat="47.60364" lon="1.39439">
        <ele>79.9</ele>
        <time>2020-07-03T07:41:56Z</time>
      </trkpt>
      <trkpt lat="47.60364" lon="1.39437">
        <ele>79.9</ele>
        <time>2020-07-03T07:41:57Z</time>
      </trkpt>
      <trkpt lat="47.60364" lon="1.39436">
        <ele>79.9</ele>
        <time>2020-07-03T07:41:58Z</time>
      </trkpt>
      <trkpt lat="47.60364" lon="1.39437">
        <ele>79.9</ele>
        <time>2020-07-03T07:41:59Z</time>
      </trkpt>
      <trkpt lat="47.60363" lon="1.39438">
        <ele>79.8</ele>
        <time>2020-07-03T07:42:00Z</time>
      </trkpt>
      <trkpt lat="47.60362" lon="1.39439">
        <ele>79.8</ele>
        <time>2020-07-03T07:42:01Z</time>
      </trkpt>
      <trkpt lat="47.60361" lon="1.3944">
        <ele>79.8</ele>
        <time>2020-07-03T07:42:02Z</time>
      </trkpt>
      <trkpt lat="47.60361" lon="1.39441">
        <ele>79.8</ele>
        <time>2020-07-03T07:42:03Z</time>
      </trkpt>
      <trkpt lat="47.6036" lon="1.39441">
        <ele>79.8</ele>
        <time>2020-07-03T07:42:04Z</time>
      </trkpt>
      <trkpt lat="47.60358" lon="1.39445">
        <ele>79.8</ele>
        <time>2020-07-03T07:42:05Z</time>
      </trkpt>
      <trkpt lat="47.60354" lon="1.3945">
        <ele>79.8</ele>
        <time>2020-07-03T07:42:06Z</time>
      </trkpt>
      <trkpt lat="47.60352" lon="1.39454">
        <ele>79.9</ele>
        <time>2020-07-03T07:42:07Z</time>
      </trkpt>
      <trkpt lat="47.60349" lon="1.39458">
        <ele>80</ele>
        <time>2020-07-03T07:42:08Z</time>
      </trkpt>
      <trkpt lat="47.60346" lon="1.39463">
        <ele>80</ele>
        <time>2020-07-03T07:42:09Z</time>
      </trkpt>
      <trkpt lat="47.60343" lon="1.39468">
        <ele>80.1</ele>
        <time>2020-07-03T07:42:10Z</time>
      </trkpt>
      <trkpt lat="47.6034" lon="1.39473">
        <ele>80.1</ele>
        <time>2020-07-03T07:42:11Z</time>
      </trkpt>
      <trkpt lat="47.60337" lon="1.39478">
        <ele>80.1</ele>
        <time>2020-07-03T07:42:12Z</time>
      </trkpt>
      <trkpt lat="47.60334" lon="1.39481">
        <ele>80.2</ele>
        <time>2020-07-03T07:42:13Z</time>
      </trkpt>
      <trkpt lat="47.60332" lon="1.39484">
        <ele>80.2</ele>
        <time>2020-07-03T07:42:14Z</time>
      </trkpt>
      <trkpt lat="47.60329" lon="1.39488">
        <ele>80.2</ele>
        <time>2020-07-03T07:42:15Z</time>
      </trkpt>
      <trkpt lat="47.60329" lon="1.39489">
        <ele>80.2</ele>
        <time>2020-07-03T07:42:16Z</time>
      </trkpt>
      <trkpt lat="47.60326" lon="1.39492">
        <ele>80.2</ele>
        <time>2020-07-03T07:42:17Z</time>
      </trkpt>
      <trkpt lat="47.60325" lon="1.39493">
        <ele>80.2</ele>
        <time>2020-07-03T07:42:18Z</time>
      </trkpt>
      <trkpt lat="47.60323" lon="1.39496">
        <ele>80.2</ele>
        <time>2020-07-03T07:42:19Z</time>
      </trkpt>
      <trkpt lat="47.60322" lon="1.39496">
        <ele>80.2</ele>
        <time>2020-07-03T07:42:20Z</time>
      </trkpt>
      <trkpt lat="47.60321" lon="1.39497">
        <ele>80.2</ele>
        <time>2020-07-03T07:42:21Z</time>
      </trkpt>
      <trkpt lat="47.60321" lon="1.39497">
        <ele>80.2</ele>
        <time>2020-07-03T07:42:22Z</time>
      </trkpt>
      <trkpt lat="47.60321" lon="1.39495">
        <ele>80.2</ele>
        <time>2020-07-03T07:42:23Z</time>
      </trkpt>
      <trkpt lat="47.60321" lon="1.39495">
        <ele>80.2</ele>
        <time>2020-07-03T07:42:24Z</time>
      </trkpt>
      <trkpt lat="47.60321" lon="1.39494">
        <ele>80.3</ele>
        <time>2020-07-03T07:42:25Z</time>
      </trkpt>
      <trkpt lat="47.60321" lon="1.39493">
        <ele>80.3</ele>
        <time>2020-07-03T07:42:26Z</time>
      </trkpt>
      <trkpt lat="47.60321" lon="1.39493">
        <ele>80.3</ele>
        <time>2020-07-03T07:42:27Z</time>
      </trkpt>
      <trkpt lat="47.60321" lon="1.39493">
        <ele>80.3</ele>
        <time>2020-07-03T07:42:28Z</time>
      </trkpt>
      <trkpt lat="47.60322" lon="1.39493">
        <ele>80.3</ele>
        <time>2020-07-03T07:42:29Z</time>
      </trkpt>
      <trkpt lat="47.60322" lon="1.39493">
        <ele>80.3</ele>
        <time>2020-07-03T07:42:30Z</time>
      </trkpt>
      <trkpt lat="47.60322" lon="1.39493">
        <ele>80.3</ele>
        <time>2020-07-03T07:42:31Z</time>
      </trkpt>
      <trkpt lat="47.60322" lon="1.39493">
        <ele>80.3</ele>
        <time>2020-07-03T07:42:32Z</time>
      </trkpt>
      <trkpt lat="47.60318" lon="1.39501">
        <ele>80.2</ele>
        <time>2020-07-03T07:42:38Z</time>
      </trkpt>
      <trkpt lat="47.60316" lon="1.39505">
        <ele>80.2</ele>
        <time>2020-07-03T07:42:39Z</time>
      </trkpt>
      <trkpt lat="47.60313" lon="1.39508">
        <ele>80.2</ele>
        <time>2020-07-03T07:42:40Z</time>
      </trkpt>
      <trkpt lat="47.6031" lon="1.39513">
        <ele>80.1</ele>
        <time>2020-07-03T07:42:41Z</time>
      </trkpt>
      <trkpt lat="47.60308" lon="1.39517">
        <ele>80.1</ele>
        <time>2020-07-03T07:42:42Z</time>
      </trkpt>
      <trkpt lat="47.60305" lon="1.39521">
        <ele>80</ele>
        <time>2020-07-03T07:42:43Z</time>
      </trkpt>
      <trkpt lat="47.60303" lon="1.39524">
        <ele>79.9</ele>
        <time>2020-07-03T07:42:44Z</time>
      </trkpt>
      <trkpt lat="47.60301" lon="1.39527">
        <ele>79.9</ele>
        <time>2020-07-03T07:42:45Z</time>
      </trkpt>
      <trkpt lat="47.60298" lon="1.39529">
        <ele>79.8</ele>
        <time>2020-07-03T07:42:46Z</time>
      </trkpt>
      <trkpt lat="47.60296" lon="1.39533">
        <ele>79.8</ele>
        <time>2020-07-03T07:42:47Z</time>
      </trkpt>
      <trkpt lat="47.60293" lon="1.39537">
        <ele>79.7</ele>
        <time>2020-07-03T07:42:48Z</time>
      </trkpt>
      <trkpt lat="47.6029" lon="1.39542">
        <ele>79.6</ele>
        <time>2020-07-03T07:42:49Z</time>
      </trkpt>
      <trkpt lat="47.60287" lon="1.39546">
        <ele>79.5</ele>
        <time>2020-07-03T07:42:50Z</time>
      </trkpt>
      <trkpt lat="47.60285" lon="1.39551">
        <ele>79.4</ele>
        <time>2020-07-03T07:42:51Z</time>
      </trkpt>
      <trkpt lat="47.60283" lon="1.39555">
        <ele>79.3</ele>
        <time>2020-07-03T07:42:52Z</time>
      </trkpt>
      <trkpt lat="47.6028" lon="1.39558">
        <ele>79.2</ele>
        <time>2020-07-03T07:42:53Z</time>
      </trkpt>
      <trkpt lat="47.60279" lon="1.39563">
        <ele>79.1</ele>
        <time>2020-07-03T07:42:54Z</time>
      </trkpt>
      <trkpt lat="47.60277" lon="1.39567">
        <ele>79</ele>
        <time>2020-07-03T07:42:55Z</time>
      </trkpt>
      <trkpt lat="47.60276" lon="1.39571">
        <ele>78.9</ele>
        <time>2020-07-03T07:42:56Z</time>
      </trkpt>
      <trkpt lat="47.60276" lon="1.39576">
        <ele>79.3</ele>
        <time>2020-07-03T07:42:57Z</time>
      </trkpt>
      <trkpt lat="47.60275" lon="1.39577">
        <ele>79.3</ele>
        <time>2020-07-03T07:42:58Z</time>
      </trkpt>
      <trkpt lat="47.60275" lon="1.39579">
        <ele>79.4</ele>
        <time>2020-07-03T07:42:59Z</time>
      </trkpt>
      <trkpt lat="47.60273" lon="1.3958">
        <ele>79.5</ele>
        <time>2020-07-03T07:43:00Z</time>
      </trkpt>
      <trkpt lat="47.60272" lon="1.3958">
        <ele>79.6</ele>
        <time>2020-07-03T07:43:01Z</time>
      </trkpt>
      <trkpt lat="47.60271" lon="1.3958">
        <ele>79.6</ele>
        <time>2020-07-03T07:43:02Z</time>
      </trkpt>
      <trkpt lat="47.6027" lon="1.39579">
        <ele>79.6</ele>
        <time>2020-07-03T07:43:03Z</time>
      </trkpt>
      <trkpt lat="47.6027" lon="1.39578">
        <ele>79.6</ele>
        <time>2020-07-03T07:43:04Z</time>
      </trkpt>
      <trkpt lat="47.60269" lon="1.39577">
        <ele>79.6</ele>
        <time>2020-07-03T07:43:05Z</time>
      </trkpt>
      <trkpt lat="47.60267" lon="1.39573">
        <ele>79.6</ele>
        <time>2020-07-03T07:43:06Z</time>
      </trkpt>
      <trkpt lat="47.60267" lon="1.39572">
        <ele>79.5</ele>
        <time>2020-07-03T07:43:07Z</time>
      </trkpt>
      <trkpt lat="47.60265" lon="1.39568">
        <ele>79.4</ele>
        <time>2020-07-03T07:43:08Z</time>
      </trkpt>
      <trkpt lat="47.60265" lon="1.39566">
        <ele>79.3</ele>
        <time>2020-07-03T07:43:09Z</time>
      </trkpt>
      <trkpt lat="47.60265" lon="1.39562">
        <ele>79.1</ele>
        <time>2020-07-03T07:43:10Z</time>
      </trkpt>
      <trkpt lat="47.60266" lon="1.3956">
        <ele>79.1</ele>
        <time>2020-07-03T07:43:11Z</time>
      </trkpt>
      <trkpt lat="47.60268" lon="1.39556">
        <ele>78.8</ele>
        <time>2020-07-03T07:43:12Z</time>
      </trkpt>
      <trkpt lat="47.60269" lon="1.39555">
        <ele>78.7</ele>
        <time>2020-07-03T07:43:13Z</time>
      </trkpt>
      <trkpt lat="47.6027" lon="1.39551">
        <ele>78.5</ele>
        <time>2020-07-03T07:43:14Z</time>
      </trkpt>
      <trkpt lat="47.60272" lon="1.39548">
        <ele>78.3</ele>
        <time>2020-07-03T07:43:15Z</time>
      </trkpt>
      <trkpt lat="47.60275" lon="1.39544">
        <ele>78</ele>
        <time>2020-07-03T07:43:16Z</time>
      </trkpt>
      <trkpt lat="47.60277" lon="1.39541">
        <ele>77.8</ele>
        <time>2020-07-03T07:43:17Z</time>
      </trkpt>
      <trkpt lat="47.60279" lon="1.39538">
        <ele>77.6</ele>
        <time>2020-07-03T07:43:18Z</time>
      </trkpt>
      <trkpt lat="47.60281" lon="1.39535">
        <ele>77.4</ele>
        <time>2020-07-03T07:43:19Z</time>
      </trkpt>
      <trkpt lat="47.60284" lon="1.3953">
        <ele>77.1</ele>
        <time>2020-07-03T07:43:20Z</time>
      </trkpt>
      <trkpt lat="47.60286" lon="1.39525">
        <ele>76.9</ele>
        <time>2020-07-03T07:43:21Z</time>
      </trkpt>
      <trkpt lat="47.60288" lon="1.3952">
        <ele>76.6</ele>
        <time>2020-07-03T07:43:22Z</time>
      </trkpt>
      <trkpt lat="47.60289" lon="1.39518">
        <ele>76.5</ele>
        <time>2020-07-03T07:43:23Z</time>
      </trkpt>
      <trkpt lat="47.6029" lon="1.39516">
        <ele>76.3</ele>
        <time>2020-07-03T07:43:24Z</time>
      </trkpt>
      <trkpt lat="47.60291" lon="1.39514">
        <ele>76.1</ele>
        <time>2020-07-03T07:43:25Z</time>
      </trkpt>
      <trkpt lat="47.60294" lon="1.39512">
        <ele>75.8</ele>
        <time>2020-07-03T07:43:26Z</time>
      </trkpt>
      <trkpt lat="47.60295" lon="1.3951">
        <ele>75.7</ele>
        <time>2020-07-03T07:43:27Z</time>
      </trkpt>
      <trkpt lat="47.60297" lon="1.39508">
        <ele>75.3</ele>
        <time>2020-07-03T07:43:28Z</time>
      </trkpt>
      <trkpt lat="47.603" lon="1.39505">
        <ele>74.8</ele>
        <time>2020-07-03T07:43:29Z</time>
      </trkpt>
      <trkpt lat="47.60301" lon="1.39503">
        <ele>74.6</ele>
        <time>2020-07-03T07:43:30Z</time>
      </trkpt>
      <trkpt lat="47.60303" lon="1.39501">
        <ele>74.2</ele>
        <time>2020-07-03T07:43:31Z</time>
      </trkpt>
      <trkpt lat="47.60305" lon="1.39497">
        <ele>73.9</ele>
        <time>2020-07-03T07:43:32Z</time>
      </trkpt>
      <trkpt lat="47.60306" lon="1.39496">
        <ele>73.7</ele>
        <time>2020-07-03T07:43:33Z</time>
      </trkpt>
      <trkpt lat="47.60308" lon="1.39492">
        <ele>73.5</ele>
        <time>2020-07-03T07:43:34Z</time>
      </trkpt>
      <trkpt lat="47.60311" lon="1.39489">
        <ele>73.2</ele>
        <time>2020-07-03T07:43:35Z</time>
      </trkpt>
      <trkpt lat="47.60312" lon="1.39485">
        <ele>73</ele>
        <time>2020-07-03T07:43:36Z</time>
      </trkpt>
      <trkpt lat="47.60314" lon="1.39482">
        <ele>72.8</ele>
        <time>2020-07-03T07:43:37Z</time>
      </trkpt>
      <trkpt lat="47.60316" lon="1.39478">
        <ele>72.6</ele>
        <time>2020-07-03T07:43:38Z</time>
      </trkpt>
      <trkpt lat="47.60318" lon="1.39475">
        <ele>72.4</ele>
        <time>2020-07-03T07:43:39Z</time>
      </trkpt>
      <trkpt lat="47.6032" lon="1.3947">
        <ele>72.2</ele>
        <time>2020-07-03T07:43:40Z</time>
      </trkpt>
      <trkpt lat="47.60321" lon="1.39468">
        <ele>72.1</ele>
        <time>2020-07-03T07:43:41Z</time>
      </trkpt>
      <trkpt lat="47.60323" lon="1.39465">
        <ele>72</ele>
        <time>2020-07-03T07:43:42Z</time>
      </trkpt>
      <trkpt lat="47.60325" lon="1.39461">
        <ele>71.8</ele>
        <time>2020-07-03T07:43:43Z</time>
      </trkpt>
      <trkpt lat="47.60328" lon="1.39455">
        <ele>71.7</ele>
        <time>2020-07-03T07:43:44Z</time>
      </trkpt>
      <trkpt lat="47.60331" lon="1.39451">
        <ele>71.5</ele>
        <time>2020-07-03T07:43:45Z</time>
      </trkpt>
      <trkpt lat="47.60335" lon="1.39446">
        <ele>71.5</ele>
        <time>2020-07-03T07:43:46Z</time>
      </trkpt>
      <trkpt lat="47.60338" lon="1.39443">
        <ele>71.5</ele>
        <time>2020-07-03T07:43:47Z</time>
      </trkpt>
      <trkpt lat="47.60341" lon="1.39438">
        <ele>71.5</ele>
        <time>2020-07-03T07:43:48Z</time>
      </trkpt>
      <trkpt lat="47.60345" lon="1.39436">
        <ele>71.6</ele>
        <time>2020-07-03T07:43:49Z</time>
      </trkpt>
      <trkpt lat="47.60347" lon="1.39432">
        <ele>71.6</ele>
        <time>2020-07-03T07:43:50Z</time>
      </trkpt>
      <trkpt lat="47.6035" lon="1.39429">
        <ele>71.6</ele>
        <time>2020-07-03T07:43:51Z</time>
      </trkpt>
      <trkpt lat="47.60352" lon="1.39426">
        <ele>71.6</ele>
        <time>2020-07-03T07:43:52Z</time>
      </trkpt>
      <trkpt lat="47.60354" lon="1.39423">
        <ele>71.6</ele>
        <time>2020-07-03T07:43:53Z</time>
      </trkpt>
      <trkpt lat="47.60356" lon="1.3942">
        <ele>71.5</ele>
        <time>2020-07-03T07:43:54Z</time>
      </trkpt>
      <trkpt lat="47.60358" lon="1.39418">
        <ele>71.4</ele>
        <time>2020-07-03T07:43:55Z</time>
      </trkpt>
      <trkpt lat="47.60361" lon="1.39414">
        <ele>71.3</ele>
        <time>2020-07-03T07:43:56Z</time>
      </trkpt>
      <trkpt lat="47.60361" lon="1.39413">
        <ele>71.3</ele>
        <time>2020-07-03T07:43:57Z</time>
      </trkpt>
      <trkpt lat="47.60364" lon="1.3941">
        <ele>71.2</ele>
        <time>2020-07-03T07:43:58Z</time>
      </trkpt>
      <trkpt lat="47.60366" lon="1.39407">
        <ele>70.9</ele>
        <time>2020-07-03T07:43:59Z</time>
      </trkpt>
      <trkpt lat="47.60368" lon="1.39403">
        <ele>70.9</ele>
        <time>2020-07-03T07:44:00Z</time>
      </trkpt>
      <trkpt lat="47.60368" lon="1.39402">
        <ele>70.9</ele>
        <time>2020-07-03T07:44:01Z</time>
      </trkpt>
      <trkpt lat="47.60369" lon="1.39397">
        <ele>70.8</ele>
        <time>2020-07-03T07:44:02Z</time>
      </trkpt>
      <trkpt lat="47.60369" lon="1.39395">
        <ele>70.8</ele>
        <time>2020-07-03T07:44:03Z</time>
      </trkpt>
      <trkpt lat="47.60367" lon="1.39389">
        <ele>70.8</ele>
        <time>2020-07-03T07:44:04Z</time>
      </trkpt>
      <trkpt lat="47.60364" lon="1.39383">
        <ele>70.7</ele>
        <time>2020-07-03T07:44:05Z</time>
      </trkpt>
      <trkpt lat="47.6036" lon="1.39376">
        <ele>70.7</ele>
        <time>2020-07-03T07:44:06Z</time>
      </trkpt>
      <trkpt lat="47.60357" lon="1.39369">
        <ele>70.6</ele>
        <time>2020-07-03T07:44:07Z</time>
      </trkpt>
      <trkpt lat="47.60353" lon="1.39362">
        <ele>70.6</ele>
        <time>2020-07-03T07:44:08Z</time>
      </trkpt>
      <trkpt lat="47.60349" lon="1.39353">
        <ele>70.6</ele>
        <time>2020-07-03T07:44:09Z</time>
      </trkpt>
      <trkpt lat="47.60346" lon="1.39347">
        <ele>70.6</ele>
        <time>2020-07-03T07:44:10Z</time>
      </trkpt>
      <trkpt lat="47.60342" lon="1.3934">
        <ele>70.6</ele>
        <time>2020-07-03T07:44:11Z</time>
      </trkpt>
      <trkpt lat="47.60339" lon="1.39334">
        <ele>70.6</ele>
        <time>2020-07-03T07:44:12Z</time>
      </trkpt>
      <trkpt lat="47.60335" lon="1.39326">
        <ele>70.6</ele>
        <time>2020-07-03T07:44:13Z</time>
      </trkpt>
      <trkpt lat="47.60331" lon="1.39319">
        <ele>70.7</ele>
        <time>2020-07-03T07:44:14Z</time>
      </trkpt>
      <trkpt lat="47.60328" lon="1.39312">
        <ele>70.7</ele>
        <time>2020-07-03T07:44:15Z</time>
      </trkpt>
      <trkpt lat="47.60324" lon="1.39305">
        <ele>70.7</ele>
        <time>2020-07-03T07:44:16Z</time>
      </trkpt>
      <trkpt lat="47.60321" lon="1.39299">
        <ele>70.6</ele>
        <time>2020-07-03T07:44:17Z</time>
      </trkpt>
      <trkpt lat="47.60317" lon="1.39292">
        <ele>70.6</ele>
        <time>2020-07-03T07:44:18Z</time>
      </trkpt>
      <trkpt lat="47.60314" lon="1.39286">
        <ele>70.6</ele>
        <time>2020-07-03T07:44:19Z</time>
      </trkpt>
      <trkpt lat="47.6031" lon="1.39279">
        <ele>70.6</ele>
        <time>2020-07-03T07:44:20Z</time>
      </trkpt>
      <trkpt lat="47.60306" lon="1.39272">
        <ele>70.6</ele>
        <time>2020-07-03T07:44:21Z</time>
      </trkpt>
      <trkpt lat="47.60302" lon="1.39263">
        <ele>70.6</ele>
        <time>2020-07-03T07:44:22Z</time>
      </trkpt>
      <trkpt lat="47.60298" lon="1.39255">
        <ele>70.6</ele>
        <time>2020-07-03T07:44:23Z</time>
      </trkpt>
      <trkpt lat="47.60294" lon="1.39248">
        <ele>70.7</ele>
        <time>2020-07-03T07:44:24Z</time>
      </trkpt>
      <trkpt lat="47.6029" lon="1.39241">
        <ele>70.6</ele>
        <time>2020-07-03T07:44:25Z</time>
      </trkpt>
      <trkpt lat="47.60286" lon="1.39233">
        <ele>70.6</ele>
        <time>2020-07-03T07:44:26Z</time>
      </trkpt>
      <trkpt lat="47.60282" lon="1.39226">
        <ele>70.6</ele>
        <time>2020-07-03T07:44:27Z</time>
      </trkpt>
      <trkpt lat="47.60278" lon="1.39218">
        <ele>70.6</ele>
        <time>2020-07-03T07:44:28Z</time>
      </trkpt>
      <trkpt lat="47.60274" lon="1.39209">
        <ele>70.6</ele>
        <time>2020-07-03T07:44:29Z</time>
      </trkpt>
      <trkpt lat="47.60271" lon="1.39204">
        <ele>70.6</ele>
        <time>2020-07-03T07:44:30Z</time>
      </trkpt>
      <trkpt lat="47.60267" lon="1.39196">
        <ele>70.6</ele>
        <time>2020-07-03T07:44:31Z</time>
      </trkpt>
      <trkpt lat="47.60264" lon="1.39191">
        <ele>70.6</ele>
        <time>2020-07-03T07:44:32Z</time>
      </trkpt>
      <trkpt lat="47.6026" lon="1.39184">
        <ele>70.6</ele>
        <time>2020-07-03T07:44:33Z</time>
      </trkpt>
      <trkpt lat="47.60256" lon="1.39175">
        <ele>70.6</ele>
        <time>2020-07-03T07:44:34Z</time>
      </trkpt>
      <trkpt lat="47.60252" lon="1.39168">
        <ele>70.6</ele>
        <time>2020-07-03T07:44:35Z</time>
      </trkpt>
      <trkpt lat="47.60248" lon="1.39161">
        <ele>70.6</ele>
        <time>2020-07-03T07:44:36Z</time>
      </trkpt>
      <trkpt lat="47.60244" lon="1.39153">
        <ele>70.6</ele>
        <time>2020-07-03T07:44:37Z</time>
      </trkpt>
      <trkpt lat="47.6024" lon="1.39147">
        <ele>70.6</ele>
        <time>2020-07-03T07:44:38Z</time>
      </trkpt>
      <trkpt lat="47.60236" lon="1.39139">
        <ele>70.6</ele>
        <time>2020-07-03T07:44:39Z</time>
      </trkpt>
      <trkpt lat="47.60232" lon="1.39132">
        <ele>70.6</ele>
        <time>2020-07-03T07:44:40Z</time>
      </trkpt>
      <trkpt lat="47.60229" lon="1.39125">
        <ele>70.6</ele>
        <time>2020-07-03T07:44:41Z</time>
      </trkpt>
      <trkpt lat="47.60225" lon="1.39119">
        <ele>70.6</ele>
        <time>2020-07-03T07:44:42Z</time>
      </trkpt>
      <trkpt lat="47.60221" lon="1.39112">
        <ele>70.6</ele>
        <time>2020-07-03T07:44:43Z</time>
      </trkpt>
      <trkpt lat="47.60217" lon="1.39104">
        <ele>70.6</ele>
        <time>2020-07-03T07:44:44Z</time>
      </trkpt>
      <trkpt lat="47.60213" lon="1.39096">
        <ele>70.6</ele>
        <time>2020-07-03T07:44:45Z</time>
      </trkpt>
      <trkpt lat="47.60209" lon="1.39089">
        <ele>70.6</ele>
        <time>2020-07-03T07:44:46Z</time>
      </trkpt>
      <trkpt lat="47.60205" lon="1.39082">
        <ele>70.6</ele>
        <time>2020-07-03T07:44:47Z</time>
      </trkpt>
      <trkpt lat="47.60202" lon="1.39077">
        <ele>70.6</ele>
        <time>2020-07-03T07:44:48Z</time>
      </trkpt>
      <trkpt lat="47.60198" lon="1.39071">
        <ele>70.6</ele>
        <time>2020-07-03T07:44:49Z</time>
      </trkpt>
      <trkpt lat="47.60194" lon="1.39064">
        <ele>70.5</ele>
        <time>2020-07-03T07:44:50Z</time>
      </trkpt>
      <trkpt lat="47.6019" lon="1.39057">
        <ele>70.6</ele>
        <time>2020-07-03T07:44:51Z</time>
      </trkpt>
      <trkpt lat="47.60186" lon="1.39051">
        <ele>70.6</ele>
        <time>2020-07-03T07:44:52Z</time>
      </trkpt>
      <trkpt lat="47.60182" lon="1.39043">
        <ele>70.6</ele>
        <time>2020-07-03T07:44:53Z</time>
      </trkpt>
      <trkpt lat="47.60178" lon="1.39037">
        <ele>70.6</ele>
        <time>2020-07-03T07:44:54Z</time>
      </trkpt>
      <trkpt lat="47.60174" lon="1.3903">
        <ele>70.6</ele>
        <time>2020-07-03T07:44:55Z</time>
      </trkpt>
      <trkpt lat="47.6017" lon="1.39023">
        <ele>70.7</ele>
        <time>2020-07-03T07:44:56Z</time>
      </trkpt>
      <trkpt lat="47.60166" lon="1.39015">
        <ele>70.7</ele>
        <time>2020-07-03T07:44:57Z</time>
      </trkpt>
      <trkpt lat="47.60162" lon="1.39008">
        <ele>70.7</ele>
        <time>2020-07-03T07:44:58Z</time>
      </trkpt>
      <trkpt lat="47.60157" lon="1.39">
        <ele>70.7</ele>
        <time>2020-07-03T07:44:59Z</time>
      </trkpt>
      <trkpt lat="47.60153" lon="1.38993">
        <ele>70.6</ele>
        <time>2020-07-03T07:45:00Z</time>
      </trkpt>
      <trkpt lat="47.60149" lon="1.38986">
        <ele>70.6</ele>
        <time>2020-07-03T07:45:01Z</time>
      </trkpt>
      <trkpt lat="47.60144" lon="1.38979">
        <ele>70.5</ele>
        <time>2020-07-03T07:45:02Z</time>
      </trkpt>
      <trkpt lat="47.6014" lon="1.38972">
        <ele>70.5</ele>
        <time>2020-07-03T07:45:03Z</time>
      </trkpt>
      <trkpt lat="47.60136" lon="1.38965">
        <ele>70.4</ele>
        <time>2020-07-03T07:45:04Z</time>
      </trkpt>
      <trkpt lat="47.60132" lon="1.38958">
        <ele>70.4</ele>
        <time>2020-07-03T07:45:05Z</time>
      </trkpt>
      <trkpt lat="47.60127" lon="1.38951">
        <ele>70.4</ele>
        <time>2020-07-03T07:45:06Z</time>
      </trkpt>
      <trkpt lat="47.60123" lon="1.38943">
        <ele>70.5</ele>
        <time>2020-07-03T07:45:07Z</time>
      </trkpt>
      <trkpt lat="47.60119" lon="1.38937">
        <ele>70.5</ele>
        <time>2020-07-03T07:45:08Z</time>
      </trkpt>
      <trkpt lat="47.60116" lon="1.38931">
        <ele>70.5</ele>
        <time>2020-07-03T07:45:09Z</time>
      </trkpt>
      <trkpt lat="47.60112" lon="1.38924">
        <ele>70.5</ele>
        <time>2020-07-03T07:45:10Z</time>
      </trkpt>
      <trkpt lat="47.60108" lon="1.38918">
        <ele>70.5</ele>
        <time>2020-07-03T07:45:11Z</time>
      </trkpt>
      <trkpt lat="47.60105" lon="1.38911">
        <ele>70.6</ele>
        <time>2020-07-03T07:45:12Z</time>
      </trkpt>
      <trkpt lat="47.60101" lon="1.38904">
        <ele>70.5</ele>
        <time>2020-07-03T07:45:13Z</time>
      </trkpt>
      <trkpt lat="47.60097" lon="1.38895">
        <ele>70.5</ele>
        <time>2020-07-03T07:45:14Z</time>
      </trkpt>
      <trkpt lat="47.60093" lon="1.38888">
        <ele>70.5</ele>
        <time>2020-07-03T07:45:15Z</time>
      </trkpt>
      <trkpt lat="47.6009" lon="1.38881">
        <ele>70.5</ele>
        <time>2020-07-03T07:45:16Z</time>
      </trkpt>
      <trkpt lat="47.60086" lon="1.38874">
        <ele>70.5</ele>
        <time>2020-07-03T07:45:17Z</time>
      </trkpt>
      <trkpt lat="47.60083" lon="1.38868">
        <ele>70.5</ele>
        <time>2020-07-03T07:45:18Z</time>
      </trkpt>
      <trkpt lat="47.6008" lon="1.38861">
        <ele>70.5</ele>
        <time>2020-07-03T07:45:19Z</time>
      </trkpt>
      <trkpt lat="47.60076" lon="1.38852">
        <ele>70.5</ele>
        <time>2020-07-03T07:45:20Z</time>
      </trkpt>
      <trkpt lat="47.60072" lon="1.38845">
        <ele>70.5</ele>
        <time>2020-07-03T07:45:21Z</time>
      </trkpt>
      <trkpt lat="47.60069" lon="1.38837">
        <ele>70.5</ele>
        <time>2020-07-03T07:45:22Z</time>
      </trkpt>
      <trkpt lat="47.60066" lon="1.38831">
        <ele>70.6</ele>
        <time>2020-07-03T07:45:23Z</time>
      </trkpt>
      <trkpt lat="47.60062" lon="1.38824">
        <ele>70.6</ele>
        <time>2020-07-03T07:45:24Z</time>
      </trkpt>
      <trkpt lat="47.60059" lon="1.38816">
        <ele>70.6</ele>
        <time>2020-07-03T07:45:25Z</time>
      </trkpt>
      <trkpt lat="47.60055" lon="1.38808">
        <ele>70.6</ele>
        <time>2020-07-03T07:45:26Z</time>
      </trkpt>
      <trkpt lat="47.60052" lon="1.38801">
        <ele>70.6</ele>
        <time>2020-07-03T07:45:27Z</time>
      </trkpt>
      <trkpt lat="47.60048" lon="1.38794">
        <ele>70.6</ele>
        <time>2020-07-03T07:45:28Z</time>
      </trkpt>
      <trkpt lat="47.60045" lon="1.38787">
        <ele>70.6</ele>
        <time>2020-07-03T07:45:29Z</time>
      </trkpt>
      <trkpt lat="47.60042" lon="1.3878">
        <ele>70.6</ele>
        <time>2020-07-03T07:45:30Z</time>
      </trkpt>
      <trkpt lat="47.60038" lon="1.38773">
        <ele>70.7</ele>
        <time>2020-07-03T07:45:31Z</time>
      </trkpt>
      <trkpt lat="47.60035" lon="1.38767">
        <ele>70.7</ele>
        <time>2020-07-03T07:45:32Z</time>
      </trkpt>
      <trkpt lat="47.60032" lon="1.3876">
        <ele>70.8</ele>
        <time>2020-07-03T07:45:33Z</time>
      </trkpt>
      <trkpt lat="47.60029" lon="1.38754">
        <ele>70.8</ele>
        <time>2020-07-03T07:45:34Z</time>
      </trkpt>
      <trkpt lat="47.60026" lon="1.38747">
        <ele>70.9</ele>
        <time>2020-07-03T07:45:35Z</time>
      </trkpt>
      <trkpt lat="47.60022" lon="1.3874">
        <ele>70.9</ele>
        <time>2020-07-03T07:45:36Z</time>
      </trkpt>
      <trkpt lat="47.60019" lon="1.38735">
        <ele>70.9</ele>
        <time>2020-07-03T07:45:37Z</time>
      </trkpt>
      <trkpt lat="47.60015" lon="1.38728">
        <ele>70.9</ele>
        <time>2020-07-03T07:45:38Z</time>
      </trkpt>
      <trkpt lat="47.60011" lon="1.38719">
        <ele>70.9</ele>
        <time>2020-07-03T07:45:39Z</time>
      </trkpt>
      <trkpt lat="47.60007" lon="1.38712">
        <ele>70.8</ele>
        <time>2020-07-03T07:45:40Z</time>
      </trkpt>
      <trkpt lat="47.60003" lon="1.38706">
        <ele>70.8</ele>
        <time>2020-07-03T07:45:41Z</time>
      </trkpt>
      <trkpt lat="47.59999" lon="1.38698">
        <ele>70.8</ele>
        <time>2020-07-03T07:45:42Z</time>
      </trkpt>
      <trkpt lat="47.59996" lon="1.38693">
        <ele>70.8</ele>
        <time>2020-07-03T07:45:43Z</time>
      </trkpt>
      <trkpt lat="47.59992" lon="1.38686">
        <ele>70.8</ele>
        <time>2020-07-03T07:45:44Z</time>
      </trkpt>
      <trkpt lat="47.59988" lon="1.38679">
        <ele>70.7</ele>
        <time>2020-07-03T07:45:45Z</time>
      </trkpt>
      <trkpt lat="47.59984" lon="1.38673">
        <ele>70.7</ele>
        <time>2020-07-03T07:45:46Z</time>
      </trkpt>
      <trkpt lat="47.59981" lon="1.38665">
        <ele>70.7</ele>
        <time>2020-07-03T07:45:47Z</time>
      </trkpt>
      <trkpt lat="47.59977" lon="1.38658">
        <ele>70.6</ele>
        <time>2020-07-03T07:45:48Z</time>
      </trkpt>
      <trkpt lat="47.59973" lon="1.38651">
        <ele>70.6</ele>
        <time>2020-07-03T07:45:49Z</time>
      </trkpt>
      <trkpt lat="47.5997" lon="1.38645">
        <ele>70.6</ele>
        <time>2020-07-03T07:45:50Z</time>
      </trkpt>
      <trkpt lat="47.59966" lon="1.38638">
        <ele>70.6</ele>
        <time>2020-07-03T07:45:51Z</time>
      </trkpt>
      <trkpt lat="47.59962" lon="1.3863">
        <ele>70.6</ele>
        <time>2020-07-03T07:45:52Z</time>
      </trkpt>
      <trkpt lat="47.59958" lon="1.38622">
        <ele>70.6</ele>
        <time>2020-07-03T07:45:53Z</time>
      </trkpt>
      <trkpt lat="47.59954" lon="1.38615">
        <ele>70.7</ele>
        <time>2020-07-03T07:45:54Z</time>
      </trkpt>
      <trkpt lat="47.59951" lon="1.38607">
        <ele>70.8</ele>
        <time>2020-07-03T07:45:55Z</time>
      </trkpt>
      <trkpt lat="47.59946" lon="1.38599">
        <ele>70.8</ele>
        <time>2020-07-03T07:45:56Z</time>
      </trkpt>
      <trkpt lat="47.59944" lon="1.38592">
        <ele>70.8</ele>
        <time>2020-07-03T07:45:57Z</time>
      </trkpt>
      <trkpt lat="47.5994" lon="1.38585">
        <ele>70.8</ele>
        <time>2020-07-03T07:45:58Z</time>
      </trkpt>
      <trkpt lat="47.59937" lon="1.38578">
        <ele>70.8</ele>
        <time>2020-07-03T07:45:59Z</time>
      </trkpt>
      <trkpt lat="47.59934" lon="1.38571">
        <ele>70.8</ele>
        <time>2020-07-03T07:46:00Z</time>
      </trkpt>
      <trkpt lat="47.5993" lon="1.38563">
        <ele>70.7</ele>
        <time>2020-07-03T07:46:01Z</time>
      </trkpt>
      <trkpt lat="47.59926" lon="1.38555">
        <ele>70.7</ele>
        <time>2020-07-03T07:46:02Z</time>
      </trkpt>
      <trkpt lat="47.59923" lon="1.38547">
        <ele>70.6</ele>
        <time>2020-07-03T07:46:03Z</time>
      </trkpt>
      <trkpt lat="47.59919" lon="1.38539">
        <ele>70.6</ele>
        <time>2020-07-03T07:46:04Z</time>
      </trkpt>
      <trkpt lat="47.59916" lon="1.38531">
        <ele>70.6</ele>
        <time>2020-07-03T07:46:05Z</time>
      </trkpt>
      <trkpt lat="47.59912" lon="1.38523">
        <ele>70.6</ele>
        <time>2020-07-03T07:46:06Z</time>
      </trkpt>
      <trkpt lat="47.59909" lon="1.38515">
        <ele>70.6</ele>
        <time>2020-07-03T07:46:07Z</time>
      </trkpt>
      <trkpt lat="47.59906" lon="1.38507">
        <ele>70.5</ele>
        <time>2020-07-03T07:46:08Z</time>
      </trkpt>
      <trkpt lat="47.59903" lon="1.38498">
        <ele>70.5</ele>
        <time>2020-07-03T07:46:09Z</time>
      </trkpt>
      <trkpt lat="47.59899" lon="1.3849">
        <ele>70.5</ele>
        <time>2020-07-03T07:46:10Z</time>
      </trkpt>
      <trkpt lat="47.59896" lon="1.38482">
        <ele>70.5</ele>
        <time>2020-07-03T07:46:11Z</time>
      </trkpt>
      <trkpt lat="47.59892" lon="1.38474">
        <ele>70.5</ele>
        <time>2020-07-03T07:46:12Z</time>
      </trkpt>
      <trkpt lat="47.59889" lon="1.38467">
        <ele>70.5</ele>
        <time>2020-07-03T07:46:13Z</time>
      </trkpt>
      <trkpt lat="47.59885" lon="1.38458">
        <ele>70.5</ele>
        <time>2020-07-03T07:46:14Z</time>
      </trkpt>
      <trkpt lat="47.59883" lon="1.3845">
        <ele>70.5</ele>
        <time>2020-07-03T07:46:15Z</time>
      </trkpt>
      <trkpt lat="47.5988" lon="1.38442">
        <ele>70.5</ele>
        <time>2020-07-03T07:46:16Z</time>
      </trkpt>
      <trkpt lat="47.59877" lon="1.38436">
        <ele>70.5</ele>
        <time>2020-07-03T07:46:17Z</time>
      </trkpt>
      <trkpt lat="47.59874" lon="1.3843">
        <ele>70.4</ele>
        <time>2020-07-03T07:46:18Z</time>
      </trkpt>
      <trkpt lat="47.59872" lon="1.38423">
        <ele>70.4</ele>
        <time>2020-07-03T07:46:19Z</time>
      </trkpt>
      <trkpt lat="47.59869" lon="1.38416">
        <ele>70.4</ele>
        <time>2020-07-03T07:46:20Z</time>
      </trkpt>
      <trkpt lat="47.59867" lon="1.38409">
        <ele>70.4</ele>
        <time>2020-07-03T07:46:21Z</time>
      </trkpt>
      <trkpt lat="47.59864" lon="1.384">
        <ele>70.4</ele>
        <time>2020-07-03T07:46:22Z</time>
      </trkpt>
      <trkpt lat="47.59861" lon="1.38391">
        <ele>70.3</ele>
        <time>2020-07-03T07:46:23Z</time>
      </trkpt>
      <trkpt lat="47.59858" lon="1.38381">
        <ele>70.3</ele>
        <time>2020-07-03T07:46:24Z</time>
      </trkpt>
      <trkpt lat="47.59856" lon="1.38372">
        <ele>70.2</ele>
        <time>2020-07-03T07:46:25Z</time>
      </trkpt>
      <trkpt lat="47.59854" lon="1.38364">
        <ele>70.2</ele>
        <time>2020-07-03T07:46:26Z</time>
      </trkpt>
      <trkpt lat="47.59852" lon="1.38353">
        <ele>70.2</ele>
        <time>2020-07-03T07:46:27Z</time>
      </trkpt>
      <trkpt lat="47.5985" lon="1.38345">
        <ele>70.1</ele>
        <time>2020-07-03T07:46:28Z</time>
      </trkpt>
      <trkpt lat="47.59848" lon="1.38336">
        <ele>70.1</ele>
        <time>2020-07-03T07:46:29Z</time>
      </trkpt>
      <trkpt lat="47.59845" lon="1.38327">
        <ele>70.1</ele>
        <time>2020-07-03T07:46:30Z</time>
      </trkpt>
      <trkpt lat="47.59843" lon="1.38319">
        <ele>70.1</ele>
        <time>2020-07-03T07:46:31Z</time>
      </trkpt>
      <trkpt lat="47.59841" lon="1.38309">
        <ele>70</ele>
        <time>2020-07-03T07:46:32Z</time>
      </trkpt>
      <trkpt lat="47.59838" lon="1.38299">
        <ele>70</ele>
        <time>2020-07-03T07:46:33Z</time>
      </trkpt>
      <trkpt lat="47.59836" lon="1.3829">
        <ele>70</ele>
        <time>2020-07-03T07:46:34Z</time>
      </trkpt>
      <trkpt lat="47.59834" lon="1.38283">
        <ele>70</ele>
        <time>2020-07-03T07:46:35Z</time>
      </trkpt>
      <trkpt lat="47.59831" lon="1.38274">
        <ele>70</ele>
        <time>2020-07-03T07:46:36Z</time>
      </trkpt>
      <trkpt lat="47.59829" lon="1.38265">
        <ele>70</ele>
        <time>2020-07-03T07:46:37Z</time>
      </trkpt>
      <trkpt lat="47.59826" lon="1.38256">
        <ele>69.9</ele>
        <time>2020-07-03T07:46:38Z</time>
      </trkpt>
      <trkpt lat="47.59824" lon="1.38248">
        <ele>69.9</ele>
        <time>2020-07-03T07:46:39Z</time>
      </trkpt>
      <trkpt lat="47.59821" lon="1.38239">
        <ele>69.8</ele>
        <time>2020-07-03T07:46:40Z</time>
      </trkpt>
      <trkpt lat="47.59818" lon="1.38232">
        <ele>69.8</ele>
        <time>2020-07-03T07:46:41Z</time>
      </trkpt>
      <trkpt lat="47.59816" lon="1.38224">
        <ele>69.8</ele>
        <time>2020-07-03T07:46:42Z</time>
      </trkpt>
      <trkpt lat="47.59813" lon="1.38216">
        <ele>69.7</ele>
        <time>2020-07-03T07:46:43Z</time>
      </trkpt>
      <trkpt lat="47.59811" lon="1.38208">
        <ele>69.7</ele>
        <time>2020-07-03T07:46:44Z</time>
      </trkpt>
      <trkpt lat="47.59807" lon="1.38201">
        <ele>69.7</ele>
        <time>2020-07-03T07:46:45Z</time>
      </trkpt>
      <trkpt lat="47.59804" lon="1.38193">
        <ele>69.7</ele>
        <time>2020-07-03T07:46:46Z</time>
      </trkpt>
      <trkpt lat="47.59801" lon="1.38185">
        <ele>69.7</ele>
        <time>2020-07-03T07:46:47Z</time>
      </trkpt>
      <trkpt lat="47.59798" lon="1.38176">
        <ele>69.7</ele>
        <time>2020-07-03T07:46:48Z</time>
      </trkpt>
      <trkpt lat="47.59794" lon="1.38169">
        <ele>69.7</ele>
        <time>2020-07-03T07:46:49Z</time>
      </trkpt>
      <trkpt lat="47.59791" lon="1.3816">
        <ele>69.6</ele>
        <time>2020-07-03T07:46:50Z</time>
      </trkpt>
      <trkpt lat="47.59787" lon="1.38153">
        <ele>69.6</ele>
        <time>2020-07-03T07:46:51Z</time>
      </trkpt>
      <trkpt lat="47.59783" lon="1.38144">
        <ele>69.6</ele>
        <time>2020-07-03T07:46:52Z</time>
      </trkpt>
      <trkpt lat="47.5978" lon="1.38136">
        <ele>69.6</ele>
        <time>2020-07-03T07:46:53Z</time>
      </trkpt>
      <trkpt lat="47.59776" lon="1.38127">
        <ele>69.6</ele>
        <time>2020-07-03T07:46:54Z</time>
      </trkpt>
      <trkpt lat="47.59773" lon="1.38118">
        <ele>69.6</ele>
        <time>2020-07-03T07:46:55Z</time>
      </trkpt>
      <trkpt lat="47.59769" lon="1.38111">
        <ele>69.6</ele>
        <time>2020-07-03T07:46:56Z</time>
      </trkpt>
      <trkpt lat="47.59766" lon="1.38103">
        <ele>69.6</ele>
        <time>2020-07-03T07:46:57Z</time>
      </trkpt>
      <trkpt lat="47.59762" lon="1.38095">
        <ele>69.5</ele>
        <time>2020-07-03T07:46:58Z</time>
      </trkpt>
      <trkpt lat="47.59759" lon="1.38087">
        <ele>69.5</ele>
        <time>2020-07-03T07:46:59Z</time>
      </trkpt>
      <trkpt lat="47.59755" lon="1.38079">
        <ele>69.5</ele>
        <time>2020-07-03T07:47:00Z</time>
      </trkpt>
      <trkpt lat="47.59752" lon="1.38071">
        <ele>69.6</ele>
        <time>2020-07-03T07:47:01Z</time>
      </trkpt>
      <trkpt lat="47.59748" lon="1.38063">
        <ele>69.6</ele>
        <time>2020-07-03T07:47:02Z</time>
      </trkpt>
      <trkpt lat="47.59745" lon="1.38055">
        <ele>69.6</ele>
        <time>2020-07-03T07:47:03Z</time>
      </trkpt>
      <trkpt lat="47.59741" lon="1.38047">
        <ele>69.6</ele>
        <time>2020-07-03T07:47:04Z</time>
      </trkpt>
      <trkpt lat="47.59738" lon="1.38039">
        <ele>69.6</ele>
        <time>2020-07-03T07:47:05Z</time>
      </trkpt>
      <trkpt lat="47.59734" lon="1.38032">
        <ele>69.7</ele>
        <time>2020-07-03T07:47:06Z</time>
      </trkpt>
      <trkpt lat="47.59731" lon="1.38025">
        <ele>69.7</ele>
        <time>2020-07-03T07:47:07Z</time>
      </trkpt>
      <trkpt lat="47.59727" lon="1.38016">
        <ele>69.8</ele>
        <time>2020-07-03T07:47:08Z</time>
      </trkpt>
      <trkpt lat="47.59724" lon="1.3801">
        <ele>69.8</ele>
        <time>2020-07-03T07:47:09Z</time>
      </trkpt>
      <trkpt lat="47.59721" lon="1.38002">
        <ele>69.8</ele>
        <time>2020-07-03T07:47:10Z</time>
      </trkpt>
      <trkpt lat="47.59718" lon="1.37994">
        <ele>69.8</ele>
        <time>2020-07-03T07:47:11Z</time>
      </trkpt>
      <trkpt lat="47.59715" lon="1.37986">
        <ele>69.9</ele>
        <time>2020-07-03T07:47:12Z</time>
      </trkpt>
      <trkpt lat="47.59712" lon="1.37978">
        <ele>69.9</ele>
        <time>2020-07-03T07:47:13Z</time>
      </trkpt>
      <trkpt lat="47.59709" lon="1.37969">
        <ele>69.9</ele>
        <time>2020-07-03T07:47:14Z</time>
      </trkpt>
      <trkpt lat="47.59706" lon="1.37962">
        <ele>69.9</ele>
        <time>2020-07-03T07:47:15Z</time>
      </trkpt>
      <trkpt lat="47.59703" lon="1.37954">
        <ele>70</ele>
        <time>2020-07-03T07:47:16Z</time>
      </trkpt>
      <trkpt lat="47.597" lon="1.37946">
        <ele>69.9</ele>
        <time>2020-07-03T07:47:17Z</time>
      </trkpt>
      <trkpt lat="47.59697" lon="1.37939">
        <ele>69.9</ele>
        <time>2020-07-03T07:47:18Z</time>
      </trkpt>
      <trkpt lat="47.59694" lon="1.37932">
        <ele>69.8</ele>
        <time>2020-07-03T07:47:19Z</time>
      </trkpt>
      <trkpt lat="47.59691" lon="1.37924">
        <ele>69.8</ele>
        <time>2020-07-03T07:47:20Z</time>
      </trkpt>
      <trkpt lat="47.59688" lon="1.37917">
        <ele>69.8</ele>
        <time>2020-07-03T07:47:21Z</time>
      </trkpt>
      <trkpt lat="47.59685" lon="1.37908">
        <ele>69.7</ele>
        <time>2020-07-03T07:47:22Z</time>
      </trkpt>
      <trkpt lat="47.59681" lon="1.379">
        <ele>69.7</ele>
        <time>2020-07-03T07:47:23Z</time>
      </trkpt>
      <trkpt lat="47.59678" lon="1.37892">
        <ele>69.7</ele>
        <time>2020-07-03T07:47:24Z</time>
      </trkpt>
      <trkpt lat="47.59675" lon="1.37885">
        <ele>69.7</ele>
        <time>2020-07-03T07:47:25Z</time>
      </trkpt>
      <trkpt lat="47.59673" lon="1.37878">
        <ele>69.7</ele>
        <time>2020-07-03T07:47:26Z</time>
      </trkpt>
      <trkpt lat="47.59671" lon="1.37871">
        <ele>69.8</ele>
        <time>2020-07-03T07:47:27Z</time>
      </trkpt>
      <trkpt lat="47.59669" lon="1.37864">
        <ele>69.7</ele>
        <time>2020-07-03T07:47:28Z</time>
      </trkpt>
      <trkpt lat="47.59667" lon="1.37855">
        <ele>69.7</ele>
        <time>2020-07-03T07:47:29Z</time>
      </trkpt>
      <trkpt lat="47.59665" lon="1.37845">
        <ele>69.7</ele>
        <time>2020-07-03T07:47:30Z</time>
      </trkpt>
      <trkpt lat="47.59663" lon="1.37839">
        <ele>69.7</ele>
        <time>2020-07-03T07:47:31Z</time>
      </trkpt>
      <trkpt lat="47.59662" lon="1.3783">
        <ele>69.7</ele>
        <time>2020-07-03T07:47:32Z</time>
      </trkpt>
      <trkpt lat="47.5966" lon="1.37822">
        <ele>69.7</ele>
        <time>2020-07-03T07:47:33Z</time>
      </trkpt>
      <trkpt lat="47.59658" lon="1.37813">
        <ele>69.7</ele>
        <time>2020-07-03T07:47:34Z</time>
      </trkpt>
      <trkpt lat="47.59657" lon="1.37807">
        <ele>69.7</ele>
        <time>2020-07-03T07:47:35Z</time>
      </trkpt>
      <trkpt lat="47.59655" lon="1.37799">
        <ele>69.7</ele>
        <time>2020-07-03T07:47:36Z</time>
      </trkpt>
      <trkpt lat="47.59653" lon="1.37792">
        <ele>69.7</ele>
        <time>2020-07-03T07:47:37Z</time>
      </trkpt>
      <trkpt lat="47.59652" lon="1.37783">
        <ele>69.7</ele>
        <time>2020-07-03T07:47:38Z</time>
      </trkpt>
      <trkpt lat="47.59649" lon="1.37774">
        <ele>69.7</ele>
        <time>2020-07-03T07:47:39Z</time>
      </trkpt>
      <trkpt lat="47.59648" lon="1.37765">
        <ele>69.7</ele>
        <time>2020-07-03T07:47:40Z</time>
      </trkpt>
      <trkpt lat="47.59646" lon="1.37756">
        <ele>69.7</ele>
        <time>2020-07-03T07:47:41Z</time>
      </trkpt>
      <trkpt lat="47.59644" lon="1.37747">
        <ele>69.7</ele>
        <time>2020-07-03T07:47:42Z</time>
      </trkpt>
      <trkpt lat="47.59642" lon="1.37739">
        <ele>69.7</ele>
        <time>2020-07-03T07:47:43Z</time>
      </trkpt>
      <trkpt lat="47.59639" lon="1.37731">
        <ele>69.8</ele>
        <time>2020-07-03T07:47:44Z</time>
      </trkpt>
      <trkpt lat="47.59637" lon="1.37722">
        <ele>69.8</ele>
        <time>2020-07-03T07:47:45Z</time>
      </trkpt>
      <trkpt lat="47.59635" lon="1.37711">
        <ele>69.8</ele>
        <time>2020-07-03T07:47:46Z</time>
      </trkpt>
      <trkpt lat="47.59633" lon="1.37701">
        <ele>69.8</ele>
        <time>2020-07-03T07:47:47Z</time>
      </trkpt>
      <trkpt lat="47.59631" lon="1.37692">
        <ele>69.8</ele>
        <time>2020-07-03T07:47:48Z</time>
      </trkpt>
      <trkpt lat="47.59629" lon="1.37683">
        <ele>69.8</ele>
        <time>2020-07-03T07:47:49Z</time>
      </trkpt>
      <trkpt lat="47.59627" lon="1.37676">
        <ele>69.8</ele>
        <time>2020-07-03T07:47:50Z</time>
      </trkpt>
      <trkpt lat="47.59625" lon="1.37667">
        <ele>69.8</ele>
        <time>2020-07-03T07:47:51Z</time>
      </trkpt>
      <trkpt lat="47.59623" lon="1.37658">
        <ele>69.8</ele>
        <time>2020-07-03T07:47:52Z</time>
      </trkpt>
      <trkpt lat="47.59621" lon="1.37651">
        <ele>69.8</ele>
        <time>2020-07-03T07:47:53Z</time>
      </trkpt>
      <trkpt lat="47.59619" lon="1.37643">
        <ele>69.9</ele>
        <time>2020-07-03T07:47:54Z</time>
      </trkpt>
      <trkpt lat="47.59617" lon="1.37634">
        <ele>69.9</ele>
        <time>2020-07-03T07:47:55Z</time>
      </trkpt>
      <trkpt lat="47.59616" lon="1.37625">
        <ele>69.9</ele>
        <time>2020-07-03T07:47:56Z</time>
      </trkpt>
      <trkpt lat="47.59614" lon="1.37618">
        <ele>69.9</ele>
        <time>2020-07-03T07:47:57Z</time>
      </trkpt>
      <trkpt lat="47.59612" lon="1.3761">
        <ele>69.9</ele>
        <time>2020-07-03T07:47:58Z</time>
      </trkpt>
      <trkpt lat="47.5961" lon="1.376">
        <ele>69.9</ele>
        <time>2020-07-03T07:47:59Z</time>
      </trkpt>
      <trkpt lat="47.59608" lon="1.37592">
        <ele>69.9</ele>
        <time>2020-07-03T07:48:00Z</time>
      </trkpt>
      <trkpt lat="47.59606" lon="1.37585">
        <ele>69.9</ele>
        <time>2020-07-03T07:48:01Z</time>
      </trkpt>
      <trkpt lat="47.59603" lon="1.37576">
        <ele>69.9</ele>
        <time>2020-07-03T07:48:02Z</time>
      </trkpt>
      <trkpt lat="47.59601" lon="1.37568">
        <ele>70</ele>
        <time>2020-07-03T07:48:03Z</time>
      </trkpt>
      <trkpt lat="47.59599" lon="1.3756">
        <ele>70</ele>
        <time>2020-07-03T07:48:04Z</time>
      </trkpt>
      <trkpt lat="47.59596" lon="1.37552">
        <ele>70</ele>
        <time>2020-07-03T07:48:05Z</time>
      </trkpt>
      <trkpt lat="47.59594" lon="1.37543">
        <ele>70</ele>
        <time>2020-07-03T07:48:06Z</time>
      </trkpt>
      <trkpt lat="47.59592" lon="1.37535">
        <ele>70</ele>
        <time>2020-07-03T07:48:07Z</time>
      </trkpt>
      <trkpt lat="47.5959" lon="1.37527">
        <ele>70.1</ele>
        <time>2020-07-03T07:48:08Z</time>
      </trkpt>
      <trkpt lat="47.59587" lon="1.37519">
        <ele>70.1</ele>
        <time>2020-07-03T07:48:09Z</time>
      </trkpt>
      <trkpt lat="47.59585" lon="1.37511">
        <ele>70.1</ele>
        <time>2020-07-03T07:48:10Z</time>
      </trkpt>
      <trkpt lat="47.59583" lon="1.37504">
        <ele>70.1</ele>
        <time>2020-07-03T07:48:11Z</time>
      </trkpt>
      <trkpt lat="47.5958" lon="1.37495">
        <ele>70.1</ele>
        <time>2020-07-03T07:48:12Z</time>
      </trkpt>
      <trkpt lat="47.59578" lon="1.37487">
        <ele>70.1</ele>
        <time>2020-07-03T07:48:13Z</time>
      </trkpt>
      <trkpt lat="47.59576" lon="1.3748">
        <ele>70.1</ele>
        <time>2020-07-03T07:48:14Z</time>
      </trkpt>
      <trkpt lat="47.59574" lon="1.37473">
        <ele>70.1</ele>
        <time>2020-07-03T07:48:15Z</time>
      </trkpt>
      <trkpt lat="47.59572" lon="1.37464">
        <ele>70.1</ele>
        <time>2020-07-03T07:48:16Z</time>
      </trkpt>
      <trkpt lat="47.59569" lon="1.37456">
        <ele>70.1</ele>
        <time>2020-07-03T07:48:17Z</time>
      </trkpt>
      <trkpt lat="47.59567" lon="1.37448">
        <ele>70.1</ele>
        <time>2020-07-03T07:48:18Z</time>
      </trkpt>
      <trkpt lat="47.59565" lon="1.3744">
        <ele>70.1</ele>
        <time>2020-07-03T07:48:19Z</time>
      </trkpt>
      <trkpt lat="47.59563" lon="1.37432">
        <ele>70.1</ele>
        <time>2020-07-03T07:48:20Z</time>
      </trkpt>
      <trkpt lat="47.59561" lon="1.37423">
        <ele>70</ele>
        <time>2020-07-03T07:48:21Z</time>
      </trkpt>
      <trkpt lat="47.59558" lon="1.37415">
        <ele>70</ele>
        <time>2020-07-03T07:48:22Z</time>
      </trkpt>
      <trkpt lat="47.59556" lon="1.37407">
        <ele>70.1</ele>
        <time>2020-07-03T07:48:23Z</time>
      </trkpt>
      <trkpt lat="47.59554" lon="1.37401">
        <ele>70.1</ele>
        <time>2020-07-03T07:48:24Z</time>
      </trkpt>
      <trkpt lat="47.59551" lon="1.37393">
        <ele>70.1</ele>
        <time>2020-07-03T07:48:25Z</time>
      </trkpt>
      <trkpt lat="47.59549" lon="1.37386">
        <ele>70</ele>
        <time>2020-07-03T07:48:26Z</time>
      </trkpt>
      <trkpt lat="47.59547" lon="1.37378">
        <ele>70</ele>
        <time>2020-07-03T07:48:27Z</time>
      </trkpt>
      <trkpt lat="47.59545" lon="1.37369">
        <ele>70</ele>
        <time>2020-07-03T07:48:28Z</time>
      </trkpt>
      <trkpt lat="47.59542" lon="1.3736">
        <ele>70</ele>
        <time>2020-07-03T07:48:29Z</time>
      </trkpt>
      <trkpt lat="47.59541" lon="1.37352">
        <ele>70</ele>
        <time>2020-07-03T07:48:30Z</time>
      </trkpt>
      <trkpt lat="47.59539" lon="1.37343">
        <ele>70</ele>
        <time>2020-07-03T07:48:31Z</time>
      </trkpt>
      <trkpt lat="47.59537" lon="1.37336">
        <ele>70</ele>
        <time>2020-07-03T07:48:32Z</time>
      </trkpt>
      <trkpt lat="47.59534" lon="1.37327">
        <ele>70.1</ele>
        <time>2020-07-03T07:48:33Z</time>
      </trkpt>
      <trkpt lat="47.59532" lon="1.37318">
        <ele>70.1</ele>
        <time>2020-07-03T07:48:34Z</time>
      </trkpt>
      <trkpt lat="47.5953" lon="1.37308">
        <ele>70</ele>
        <time>2020-07-03T07:48:35Z</time>
      </trkpt>
      <trkpt lat="47.59528" lon="1.37302">
        <ele>70</ele>
        <time>2020-07-03T07:48:36Z</time>
      </trkpt>
      <trkpt lat="47.59526" lon="1.37294">
        <ele>70</ele>
        <time>2020-07-03T07:48:37Z</time>
      </trkpt>
      <trkpt lat="47.59524" lon="1.37286">
        <ele>69.9</ele>
        <time>2020-07-03T07:48:38Z</time>
      </trkpt>
      <trkpt lat="47.59522" lon="1.37278">
        <ele>69.9</ele>
        <time>2020-07-03T07:48:39Z</time>
      </trkpt>
      <trkpt lat="47.5952" lon="1.37271">
        <ele>69.9</ele>
        <time>2020-07-03T07:48:40Z</time>
      </trkpt>
      <trkpt lat="47.59517" lon="1.37263">
        <ele>69.9</ele>
        <time>2020-07-03T07:48:41Z</time>
      </trkpt>
      <trkpt lat="47.59515" lon="1.37255">
        <ele>69.9</ele>
        <time>2020-07-03T07:48:42Z</time>
      </trkpt>
      <trkpt lat="47.59513" lon="1.37246">
        <ele>69.9</ele>
        <time>2020-07-03T07:48:43Z</time>
      </trkpt>
      <trkpt lat="47.5951" lon="1.37239">
        <ele>69.9</ele>
        <time>2020-07-03T07:48:44Z</time>
      </trkpt>
      <trkpt lat="47.59508" lon="1.3723">
        <ele>69.9</ele>
        <time>2020-07-03T07:48:45Z</time>
      </trkpt>
      <trkpt lat="47.59506" lon="1.37221">
        <ele>70</ele>
        <time>2020-07-03T07:48:46Z</time>
      </trkpt>
      <trkpt lat="47.59504" lon="1.37213">
        <ele>70</ele>
        <time>2020-07-03T07:48:47Z</time>
      </trkpt>
      <trkpt lat="47.59501" lon="1.37206">
        <ele>70</ele>
        <time>2020-07-03T07:48:48Z</time>
      </trkpt>
      <trkpt lat="47.59499" lon="1.37198">
        <ele>70</ele>
        <time>2020-07-03T07:48:49Z</time>
      </trkpt>
      <trkpt lat="47.59497" lon="1.3719">
        <ele>70</ele>
        <time>2020-07-03T07:48:50Z</time>
      </trkpt>
      <trkpt lat="47.59494" lon="1.37181">
        <ele>70.1</ele>
        <time>2020-07-03T07:48:51Z</time>
      </trkpt>
      <trkpt lat="47.59492" lon="1.37172">
        <ele>70.1</ele>
        <time>2020-07-03T07:48:52Z</time>
      </trkpt>
      <trkpt lat="47.59489" lon="1.37164">
        <ele>70.1</ele>
        <time>2020-07-03T07:48:53Z</time>
      </trkpt>
      <trkpt lat="47.59487" lon="1.37156">
        <ele>70.2</ele>
        <time>2020-07-03T07:48:54Z</time>
      </trkpt>
      <trkpt lat="47.59485" lon="1.37146">
        <ele>70.2</ele>
        <time>2020-07-03T07:48:55Z</time>
      </trkpt>
      <trkpt lat="47.59482" lon="1.37136">
        <ele>70.2</ele>
        <time>2020-07-03T07:48:56Z</time>
      </trkpt>
      <trkpt lat="47.5948" lon="1.37127">
        <ele>70.3</ele>
        <time>2020-07-03T07:48:57Z</time>
      </trkpt>
      <trkpt lat="47.59477" lon="1.37118">
        <ele>70.3</ele>
        <time>2020-07-03T07:48:58Z</time>
      </trkpt>
      <trkpt lat="47.59475" lon="1.3711">
        <ele>70.3</ele>
        <time>2020-07-03T07:48:59Z</time>
      </trkpt>
      <trkpt lat="47.59472" lon="1.37102">
        <ele>70.4</ele>
        <time>2020-07-03T07:49:00Z</time>
      </trkpt>
      <trkpt lat="47.5947" lon="1.37094">
        <ele>70.4</ele>
        <time>2020-07-03T07:49:01Z</time>
      </trkpt>
      <trkpt lat="47.59468" lon="1.37086">
        <ele>70.4</ele>
        <time>2020-07-03T07:49:02Z</time>
      </trkpt>
      <trkpt lat="47.59466" lon="1.37078">
        <ele>70.5</ele>
        <time>2020-07-03T07:49:03Z</time>
      </trkpt>
      <trkpt lat="47.59464" lon="1.37071">
        <ele>70.5</ele>
        <time>2020-07-03T07:49:04Z</time>
      </trkpt>
      <trkpt lat="47.59462" lon="1.37063">
        <ele>70.5</ele>
        <time>2020-07-03T07:49:05Z</time>
      </trkpt>
      <trkpt lat="47.5946" lon="1.37054">
        <ele>70.5</ele>
        <time>2020-07-03T07:49:06Z</time>
      </trkpt>
      <trkpt lat="47.59458" lon="1.37045">
        <ele>70.5</ele>
        <time>2020-07-03T07:49:07Z</time>
      </trkpt>
      <trkpt lat="47.59456" lon="1.37036">
        <ele>70.5</ele>
        <time>2020-07-03T07:49:08Z</time>
      </trkpt>
      <trkpt lat="47.59453" lon="1.37028">
        <ele>70.5</ele>
        <time>2020-07-03T07:49:09Z</time>
      </trkpt>
      <trkpt lat="47.59451" lon="1.37019">
        <ele>70.4</ele>
        <time>2020-07-03T07:49:10Z</time>
      </trkpt>
      <trkpt lat="47.59448" lon="1.37011">
        <ele>70.4</ele>
        <time>2020-07-03T07:49:11Z</time>
      </trkpt>
      <trkpt lat="47.59446" lon="1.37002">
        <ele>70.4</ele>
        <time>2020-07-03T07:49:12Z</time>
      </trkpt>
      <trkpt lat="47.59443" lon="1.36993">
        <ele>70.5</ele>
        <time>2020-07-03T07:49:13Z</time>
      </trkpt>
      <trkpt lat="47.5944" lon="1.36985">
        <ele>70.5</ele>
        <time>2020-07-03T07:49:14Z</time>
      </trkpt>
      <trkpt lat="47.59438" lon="1.36977">
        <ele>70.6</ele>
        <time>2020-07-03T07:49:15Z</time>
      </trkpt>
      <trkpt lat="47.59435" lon="1.36969">
        <ele>70.7</ele>
        <time>2020-07-03T07:49:16Z</time>
      </trkpt>
      <trkpt lat="47.59433" lon="1.36961">
        <ele>70.8</ele>
        <time>2020-07-03T07:49:17Z</time>
      </trkpt>
      <trkpt lat="47.59431" lon="1.36951">
        <ele>70.7</ele>
        <time>2020-07-03T07:49:18Z</time>
      </trkpt>
      <trkpt lat="47.59428" lon="1.36942">
        <ele>70.7</ele>
        <time>2020-07-03T07:49:19Z</time>
      </trkpt>
      <trkpt lat="47.59426" lon="1.36933">
        <ele>70.7</ele>
        <time>2020-07-03T07:49:20Z</time>
      </trkpt>
      <trkpt lat="47.59424" lon="1.36923">
        <ele>70.6</ele>
        <time>2020-07-03T07:49:21Z</time>
      </trkpt>
      <trkpt lat="47.59421" lon="1.36914">
        <ele>70.6</ele>
        <time>2020-07-03T07:49:22Z</time>
      </trkpt>
      <trkpt lat="47.59419" lon="1.36905">
        <ele>70.5</ele>
        <time>2020-07-03T07:49:23Z</time>
      </trkpt>
      <trkpt lat="47.59417" lon="1.36896">
        <ele>70.5</ele>
        <time>2020-07-03T07:49:24Z</time>
      </trkpt>
      <trkpt lat="47.59415" lon="1.36887">
        <ele>70.5</ele>
        <time>2020-07-03T07:49:25Z</time>
      </trkpt>
      <trkpt lat="47.59412" lon="1.36878">
        <ele>70.5</ele>
        <time>2020-07-03T07:49:26Z</time>
      </trkpt>
      <trkpt lat="47.5941" lon="1.36869">
        <ele>70.5</ele>
        <time>2020-07-03T07:49:27Z</time>
      </trkpt>
      <trkpt lat="47.59408" lon="1.3686">
        <ele>70.4</ele>
        <time>2020-07-03T07:49:28Z</time>
      </trkpt>
      <trkpt lat="47.59406" lon="1.36851">
        <ele>70.4</ele>
        <time>2020-07-03T07:49:29Z</time>
      </trkpt>
      <trkpt lat="47.59404" lon="1.36841">
        <ele>70.4</ele>
        <time>2020-07-03T07:49:30Z</time>
      </trkpt>
      <trkpt lat="47.59401" lon="1.36832">
        <ele>70.4</ele>
        <time>2020-07-03T07:49:31Z</time>
      </trkpt>
      <trkpt lat="47.59399" lon="1.36822">
        <ele>70.4</ele>
        <time>2020-07-03T07:49:32Z</time>
      </trkpt>
      <trkpt lat="47.59397" lon="1.36814">
        <ele>70.3</ele>
        <time>2020-07-03T07:49:33Z</time>
      </trkpt>
      <trkpt lat="47.59395" lon="1.36806">
        <ele>70.3</ele>
        <time>2020-07-03T07:49:34Z</time>
      </trkpt>
      <trkpt lat="47.59393" lon="1.36797">
        <ele>70.3</ele>
        <time>2020-07-03T07:49:35Z</time>
      </trkpt>
      <trkpt lat="47.59391" lon="1.36789">
        <ele>70.4</ele>
        <time>2020-07-03T07:49:36Z</time>
      </trkpt>
      <trkpt lat="47.5939" lon="1.3678">
        <ele>70.4</ele>
        <time>2020-07-03T07:49:37Z</time>
      </trkpt>
      <trkpt lat="47.59387" lon="1.36771">
        <ele>70.4</ele>
        <time>2020-07-03T07:49:38Z</time>
      </trkpt>
      <trkpt lat="47.59386" lon="1.36763">
        <ele>70.4</ele>
        <time>2020-07-03T07:49:39Z</time>
      </trkpt>
      <trkpt lat="47.59383" lon="1.36754">
        <ele>70.4</ele>
        <time>2020-07-03T07:49:40Z</time>
      </trkpt>
      <trkpt lat="47.59381" lon="1.36746">
        <ele>70.4</ele>
        <time>2020-07-03T07:49:41Z</time>
      </trkpt>
      <trkpt lat="47.59379" lon="1.36737">
        <ele>70.4</ele>
        <time>2020-07-03T07:49:42Z</time>
      </trkpt>
      <trkpt lat="47.59377" lon="1.36728">
        <ele>70.4</ele>
        <time>2020-07-03T07:49:43Z</time>
      </trkpt>
      <trkpt lat="47.59375" lon="1.36719">
        <ele>70.4</ele>
        <time>2020-07-03T07:49:44Z</time>
      </trkpt>
      <trkpt lat="47.59373" lon="1.3671">
        <ele>70.4</ele>
        <time>2020-07-03T07:49:45Z</time>
      </trkpt>
      <trkpt lat="47.59371" lon="1.36701">
        <ele>70.4</ele>
        <time>2020-07-03T07:49:46Z</time>
      </trkpt>
      <trkpt lat="47.59369" lon="1.36692">
        <ele>70.4</ele>
        <time>2020-07-03T07:49:47Z</time>
      </trkpt>
      <trkpt lat="47.59367" lon="1.36683">
        <ele>70.4</ele>
        <time>2020-07-03T07:49:48Z</time>
      </trkpt>
      <trkpt lat="47.59365" lon="1.36675">
        <ele>70.4</ele>
        <time>2020-07-03T07:49:49Z</time>
      </trkpt>
      <trkpt lat="47.59363" lon="1.36667">
        <ele>70.4</ele>
        <time>2020-07-03T07:49:50Z</time>
      </trkpt>
      <trkpt lat="47.59361" lon="1.36659">
        <ele>70.4</ele>
        <time>2020-07-03T07:49:51Z</time>
      </trkpt>
      <trkpt lat="47.59359" lon="1.3665">
        <ele>70.4</ele>
        <time>2020-07-03T07:49:52Z</time>
      </trkpt>
      <trkpt lat="47.59357" lon="1.36642">
        <ele>70.4</ele>
        <time>2020-07-03T07:49:53Z</time>
      </trkpt>
      <trkpt lat="47.59355" lon="1.36633">
        <ele>70.4</ele>
        <time>2020-07-03T07:49:54Z</time>
      </trkpt>
      <trkpt lat="47.59353" lon="1.36625">
        <ele>70.4</ele>
        <time>2020-07-03T07:49:55Z</time>
      </trkpt>
      <trkpt lat="47.59351" lon="1.36616">
        <ele>70.3</ele>
        <time>2020-07-03T07:49:56Z</time>
      </trkpt>
      <trkpt lat="47.5935" lon="1.36608">
        <ele>70.3</ele>
        <time>2020-07-03T07:49:57Z</time>
      </trkpt>
      <trkpt lat="47.59348" lon="1.36598">
        <ele>70.3</ele>
        <time>2020-07-03T07:49:58Z</time>
      </trkpt>
      <trkpt lat="47.59346" lon="1.36588">
        <ele>70.4</ele>
        <time>2020-07-03T07:49:59Z</time>
      </trkpt>
      <trkpt lat="47.59344" lon="1.36579">
        <ele>70.4</ele>
        <time>2020-07-03T07:50:00Z</time>
      </trkpt>
      <trkpt lat="47.59342" lon="1.3657">
        <ele>70.4</ele>
        <time>2020-07-03T07:50:01Z</time>
      </trkpt>
      <trkpt lat="47.59339" lon="1.36561">
        <ele>70.4</ele>
        <time>2020-07-03T07:50:02Z</time>
      </trkpt>
      <trkpt lat="47.59338" lon="1.36553">
        <ele>70.4</ele>
        <time>2020-07-03T07:50:03Z</time>
      </trkpt>
      <trkpt lat="47.59336" lon="1.36544">
        <ele>70.4</ele>
        <time>2020-07-03T07:50:04Z</time>
      </trkpt>
      <trkpt lat="47.59334" lon="1.36534">
        <ele>70.4</ele>
        <time>2020-07-03T07:50:05Z</time>
      </trkpt>
      <trkpt lat="47.59331" lon="1.36525">
        <ele>70.4</ele>
        <time>2020-07-03T07:50:06Z</time>
      </trkpt>
      <trkpt lat="47.59329" lon="1.36515">
        <ele>70.3</ele>
        <time>2020-07-03T07:50:07Z</time>
      </trkpt>
      <trkpt lat="47.59327" lon="1.36506">
        <ele>70.3</ele>
        <time>2020-07-03T07:50:08Z</time>
      </trkpt>
      <trkpt lat="47.59325" lon="1.36496">
        <ele>70.3</ele>
        <time>2020-07-03T07:50:09Z</time>
      </trkpt>
      <trkpt lat="47.59322" lon="1.36485">
        <ele>70.3</ele>
        <time>2020-07-03T07:50:10Z</time>
      </trkpt>
      <trkpt lat="47.5932" lon="1.36475">
        <ele>70.3</ele>
        <time>2020-07-03T07:50:11Z</time>
      </trkpt>
      <trkpt lat="47.59317" lon="1.36467">
        <ele>70.3</ele>
        <time>2020-07-03T07:50:12Z</time>
      </trkpt>
      <trkpt lat="47.59315" lon="1.36458">
        <ele>70.2</ele>
        <time>2020-07-03T07:50:13Z</time>
      </trkpt>
      <trkpt lat="47.59313" lon="1.36448">
        <ele>70.2</ele>
        <time>2020-07-03T07:50:14Z</time>
      </trkpt>
      <trkpt lat="47.59311" lon="1.36439">
        <ele>70.2</ele>
        <time>2020-07-03T07:50:15Z</time>
      </trkpt>
      <trkpt lat="47.59308" lon="1.36431">
        <ele>70.2</ele>
        <time>2020-07-03T07:50:16Z</time>
      </trkpt>
      <trkpt lat="47.59306" lon="1.36421">
        <ele>70.2</ele>
        <time>2020-07-03T07:50:17Z</time>
      </trkpt>
      <trkpt lat="47.59303" lon="1.36412">
        <ele>70.2</ele>
        <time>2020-07-03T07:50:18Z</time>
      </trkpt>
      <trkpt lat="47.59301" lon="1.36402">
        <ele>70.2</ele>
        <time>2020-07-03T07:50:19Z</time>
      </trkpt>
      <trkpt lat="47.59298" lon="1.36393">
        <ele>70.2</ele>
        <time>2020-07-03T07:50:20Z</time>
      </trkpt>
      <trkpt lat="47.59295" lon="1.36384">
        <ele>70.2</ele>
        <time>2020-07-03T07:50:21Z</time>
      </trkpt>
      <trkpt lat="47.59293" lon="1.36375">
        <ele>70.1</ele>
        <time>2020-07-03T07:50:22Z</time>
      </trkpt>
      <trkpt lat="47.59292" lon="1.36366">
        <ele>70.1</ele>
        <time>2020-07-03T07:50:23Z</time>
      </trkpt>
      <trkpt lat="47.5929" lon="1.36357">
        <ele>70</ele>
        <time>2020-07-03T07:50:24Z</time>
      </trkpt>
      <trkpt lat="47.59288" lon="1.36348">
        <ele>70</ele>
        <time>2020-07-03T07:50:25Z</time>
      </trkpt>
      <trkpt lat="47.59286" lon="1.36339">
        <ele>70</ele>
        <time>2020-07-03T07:50:26Z</time>
      </trkpt>
      <trkpt lat="47.59284" lon="1.3633">
        <ele>70</ele>
        <time>2020-07-03T07:50:27Z</time>
      </trkpt>
      <trkpt lat="47.59282" lon="1.36321">
        <ele>70</ele>
        <time>2020-07-03T07:50:28Z</time>
      </trkpt>
      <trkpt lat="47.5928" lon="1.36312">
        <ele>70.1</ele>
        <time>2020-07-03T07:50:29Z</time>
      </trkpt>
      <trkpt lat="47.59278" lon="1.36303">
        <ele>70.1</ele>
        <time>2020-07-03T07:50:30Z</time>
      </trkpt>
      <trkpt lat="47.59276" lon="1.36295">
        <ele>70.1</ele>
        <time>2020-07-03T07:50:31Z</time>
      </trkpt>
      <trkpt lat="47.59274" lon="1.36286">
        <ele>70.2</ele>
        <time>2020-07-03T07:50:32Z</time>
      </trkpt>
      <trkpt lat="47.59272" lon="1.36277">
        <ele>70.2</ele>
        <time>2020-07-03T07:50:33Z</time>
      </trkpt>
      <trkpt lat="47.59269" lon="1.36269">
        <ele>70.2</ele>
        <time>2020-07-03T07:50:34Z</time>
      </trkpt>
      <trkpt lat="47.59267" lon="1.3626">
        <ele>70.2</ele>
        <time>2020-07-03T07:50:35Z</time>
      </trkpt>
      <trkpt lat="47.59265" lon="1.36251">
        <ele>70.2</ele>
        <time>2020-07-03T07:50:36Z</time>
      </trkpt>
      <trkpt lat="47.59264" lon="1.36242">
        <ele>70.2</ele>
        <time>2020-07-03T07:50:37Z</time>
      </trkpt>
      <trkpt lat="47.59262" lon="1.36233">
        <ele>70.2</ele>
        <time>2020-07-03T07:50:38Z</time>
      </trkpt>
      <trkpt lat="47.5926" lon="1.36224">
        <ele>70.2</ele>
        <time>2020-07-03T07:50:39Z</time>
      </trkpt>
      <trkpt lat="47.59259" lon="1.36215">
        <ele>70.2</ele>
        <time>2020-07-03T07:50:40Z</time>
      </trkpt>
      <trkpt lat="47.59257" lon="1.36206">
        <ele>70.2</ele>
        <time>2020-07-03T07:50:41Z</time>
      </trkpt>
      <trkpt lat="47.59255" lon="1.36197">
        <ele>70.3</ele>
        <time>2020-07-03T07:50:42Z</time>
      </trkpt>
      <trkpt lat="47.59253" lon="1.36188">
        <ele>70.3</ele>
        <time>2020-07-03T07:50:43Z</time>
      </trkpt>
      <trkpt lat="47.59251" lon="1.3618">
        <ele>70.3</ele>
        <time>2020-07-03T07:50:44Z</time>
      </trkpt>
      <trkpt lat="47.59249" lon="1.36171">
        <ele>70.3</ele>
        <time>2020-07-03T07:50:45Z</time>
      </trkpt>
      <trkpt lat="47.59246" lon="1.36163">
        <ele>70.3</ele>
        <time>2020-07-03T07:50:46Z</time>
      </trkpt>
      <trkpt lat="47.59244" lon="1.36154">
        <ele>70.3</ele>
        <time>2020-07-03T07:50:47Z</time>
      </trkpt>
      <trkpt lat="47.59242" lon="1.36145">
        <ele>70.3</ele>
        <time>2020-07-03T07:50:48Z</time>
      </trkpt>
      <trkpt lat="47.5924" lon="1.36137">
        <ele>70.3</ele>
        <time>2020-07-03T07:50:49Z</time>
      </trkpt>
      <trkpt lat="47.59238" lon="1.36128">
        <ele>70.2</ele>
        <time>2020-07-03T07:50:50Z</time>
      </trkpt>
      <trkpt lat="47.59235" lon="1.3612">
        <ele>70.2</ele>
        <time>2020-07-03T07:50:51Z</time>
      </trkpt>
      <trkpt lat="47.59233" lon="1.36112">
        <ele>70.2</ele>
        <time>2020-07-03T07:50:52Z</time>
      </trkpt>
      <trkpt lat="47.5923" lon="1.36104">
        <ele>70.2</ele>
        <time>2020-07-03T07:50:53Z</time>
      </trkpt>
      <trkpt lat="47.59228" lon="1.36095">
        <ele>70.2</ele>
        <time>2020-07-03T07:50:54Z</time>
      </trkpt>
      <trkpt lat="47.59225" lon="1.36087">
        <ele>70.3</ele>
        <time>2020-07-03T07:50:55Z</time>
      </trkpt>
      <trkpt lat="47.59223" lon="1.36079">
        <ele>70.3</ele>
        <time>2020-07-03T07:50:56Z</time>
      </trkpt>
      <trkpt lat="47.59221" lon="1.3607">
        <ele>70.4</ele>
        <time>2020-07-03T07:50:57Z</time>
      </trkpt>
      <trkpt lat="47.59219" lon="1.36062">
        <ele>70.4</ele>
        <time>2020-07-03T07:50:58Z</time>
      </trkpt>
      <trkpt lat="47.59217" lon="1.36054">
        <ele>70.5</ele>
        <time>2020-07-03T07:50:59Z</time>
      </trkpt>
      <trkpt lat="47.59215" lon="1.36047">
        <ele>70.5</ele>
        <time>2020-07-03T07:51:00Z</time>
      </trkpt>
      <trkpt lat="47.59213" lon="1.36039">
        <ele>70.6</ele>
        <time>2020-07-03T07:51:01Z</time>
      </trkpt>
      <trkpt lat="47.59211" lon="1.36031">
        <ele>70.7</ele>
        <time>2020-07-03T07:51:02Z</time>
      </trkpt>
      <trkpt lat="47.59209" lon="1.36024">
        <ele>70.7</ele>
        <time>2020-07-03T07:51:03Z</time>
      </trkpt>
      <trkpt lat="47.59207" lon="1.36016">
        <ele>70.8</ele>
        <time>2020-07-03T07:51:04Z</time>
      </trkpt>
      <trkpt lat="47.59206" lon="1.36008">
        <ele>70.9</ele>
        <time>2020-07-03T07:51:05Z</time>
      </trkpt>
      <trkpt lat="47.59204" lon="1.36">
        <ele>71</ele>
        <time>2020-07-03T07:51:06Z</time>
      </trkpt>
      <trkpt lat="47.59202" lon="1.35992">
        <ele>71.1</ele>
        <time>2020-07-03T07:51:07Z</time>
      </trkpt>
      <trkpt lat="47.592" lon="1.35984">
        <ele>71.3</ele>
        <time>2020-07-03T07:51:08Z</time>
      </trkpt>
      <trkpt lat="47.59198" lon="1.35976">
        <ele>71.4</ele>
        <time>2020-07-03T07:51:09Z</time>
      </trkpt>
      <trkpt lat="47.59196" lon="1.35968">
        <ele>71.6</ele>
        <time>2020-07-03T07:51:10Z</time>
      </trkpt>
      <trkpt lat="47.59194" lon="1.3596">
        <ele>71.8</ele>
        <time>2020-07-03T07:51:11Z</time>
      </trkpt>
      <trkpt lat="47.59192" lon="1.35951">
        <ele>72</ele>
        <time>2020-07-03T07:51:12Z</time>
      </trkpt>
      <trkpt lat="47.5919" lon="1.35944">
        <ele>72.2</ele>
        <time>2020-07-03T07:51:13Z</time>
      </trkpt>
      <trkpt lat="47.59188" lon="1.35936">
        <ele>72.4</ele>
        <time>2020-07-03T07:51:14Z</time>
      </trkpt>
      <trkpt lat="47.59187" lon="1.35928">
        <ele>72.6</ele>
        <time>2020-07-03T07:51:15Z</time>
      </trkpt>
      <trkpt lat="47.59185" lon="1.35921">
        <ele>72.7</ele>
        <time>2020-07-03T07:51:16Z</time>
      </trkpt>
      <trkpt lat="47.59184" lon="1.35914">
        <ele>72.9</ele>
        <time>2020-07-03T07:51:17Z</time>
      </trkpt>
      <trkpt lat="47.59184" lon="1.35907">
        <ele>73.1</ele>
        <time>2020-07-03T07:51:18Z</time>
      </trkpt>
      <trkpt lat="47.59184" lon="1.35901">
        <ele>73.1</ele>
        <time>2020-07-03T07:51:19Z</time>
      </trkpt>
      <trkpt lat="47.59184" lon="1.35896">
        <ele>73.2</ele>
        <time>2020-07-03T07:51:20Z</time>
      </trkpt>
      <trkpt lat="47.59186" lon="1.35893">
        <ele>73.2</ele>
        <time>2020-07-03T07:51:21Z</time>
      </trkpt>
      <trkpt lat="47.59188" lon="1.3589">
        <ele>73.2</ele>
        <time>2020-07-03T07:51:22Z</time>
      </trkpt>
      <trkpt lat="47.59191" lon="1.35889">
        <ele>73.2</ele>
        <time>2020-07-03T07:51:23Z</time>
      </trkpt>
      <trkpt lat="47.59194" lon="1.35886">
        <ele>73.3</ele>
        <time>2020-07-03T07:51:24Z</time>
      </trkpt>
      <trkpt lat="47.59197" lon="1.35883">
        <ele>73.3</ele>
        <time>2020-07-03T07:51:25Z</time>
      </trkpt>
      <trkpt lat="47.59199" lon="1.35882">
        <ele>73.3</ele>
        <time>2020-07-03T07:51:26Z</time>
      </trkpt>
      <trkpt lat="47.59199" lon="1.35877">
        <ele>73.4</ele>
        <time>2020-07-03T07:51:27Z</time>
      </trkpt>
      <trkpt lat="47.59199" lon="1.35875">
        <ele>73.4</ele>
        <time>2020-07-03T07:51:28Z</time>
      </trkpt>
      <trkpt lat="47.59199" lon="1.3587">
        <ele>73.4</ele>
        <time>2020-07-03T07:51:29Z</time>
      </trkpt>
      <trkpt lat="47.59199" lon="1.35866">
        <ele>73.5</ele>
        <time>2020-07-03T07:51:30Z</time>
      </trkpt>
      <trkpt lat="47.59199" lon="1.35861">
        <ele>73.4</ele>
        <time>2020-07-03T07:51:31Z</time>
      </trkpt>
      <trkpt lat="47.59199" lon="1.35855">
        <ele>73.4</ele>
        <time>2020-07-03T07:51:32Z</time>
      </trkpt>
      <trkpt lat="47.59198" lon="1.35848">
        <ele>73.3</ele>
        <time>2020-07-03T07:51:33Z</time>
      </trkpt>
      <trkpt lat="47.59195" lon="1.35842">
        <ele>73.2</ele>
        <time>2020-07-03T07:51:34Z</time>
      </trkpt>
      <trkpt lat="47.5919" lon="1.35839">
        <ele>73.1</ele>
        <time>2020-07-03T07:51:35Z</time>
      </trkpt>
      <trkpt lat="47.59186" lon="1.35835">
        <ele>73.1</ele>
        <time>2020-07-03T07:51:36Z</time>
      </trkpt>
      <trkpt lat="47.59182" lon="1.35829">
        <ele>72.9</ele>
        <time>2020-07-03T07:51:37Z</time>
      </trkpt>
      <trkpt lat="47.59177" lon="1.35827">
        <ele>72.8</ele>
        <time>2020-07-03T07:51:38Z</time>
      </trkpt>
      <trkpt lat="47.59172" lon="1.35824">
        <ele>72.7</ele>
        <time>2020-07-03T07:51:39Z</time>
      </trkpt>
      <trkpt lat="47.59167" lon="1.35822">
        <ele>72.6</ele>
        <time>2020-07-03T07:51:40Z</time>
      </trkpt>
      <trkpt lat="47.59162" lon="1.35819">
        <ele>72.5</ele>
        <time>2020-07-03T07:51:41Z</time>
      </trkpt>
      <trkpt lat="47.59156" lon="1.35815">
        <ele>72.5</ele>
        <time>2020-07-03T07:51:42Z</time>
      </trkpt>
      <trkpt lat="47.59151" lon="1.3581">
        <ele>72.4</ele>
        <time>2020-07-03T07:51:43Z</time>
      </trkpt>
      <trkpt lat="47.59146" lon="1.35806">
        <ele>72.3</ele>
        <time>2020-07-03T07:51:44Z</time>
      </trkpt>
      <trkpt lat="47.59141" lon="1.358">
        <ele>72.3</ele>
        <time>2020-07-03T07:51:45Z</time>
      </trkpt>
      <trkpt lat="47.59137" lon="1.35795">
        <ele>72.2</ele>
        <time>2020-07-03T07:51:46Z</time>
      </trkpt>
      <trkpt lat="47.59132" lon="1.35789">
        <ele>72.1</ele>
        <time>2020-07-03T07:51:47Z</time>
      </trkpt>
      <trkpt lat="47.59127" lon="1.35783">
        <ele>72.1</ele>
        <time>2020-07-03T07:51:48Z</time>
      </trkpt>
      <trkpt lat="47.59123" lon="1.35776">
        <ele>72.1</ele>
        <time>2020-07-03T07:51:49Z</time>
      </trkpt>
      <trkpt lat="47.59119" lon="1.35769">
        <ele>72</ele>
        <time>2020-07-03T07:51:50Z</time>
      </trkpt>
      <trkpt lat="47.59115" lon="1.35762">
        <ele>72</ele>
        <time>2020-07-03T07:51:51Z</time>
      </trkpt>
      <trkpt lat="47.59111" lon="1.35755">
        <ele>72</ele>
        <time>2020-07-03T07:51:52Z</time>
      </trkpt>
      <trkpt lat="47.59108" lon="1.35747">
        <ele>72</ele>
        <time>2020-07-03T07:51:53Z</time>
      </trkpt>
      <trkpt lat="47.59104" lon="1.3574">
        <ele>72</ele>
        <time>2020-07-03T07:51:54Z</time>
      </trkpt>
      <trkpt lat="47.59101" lon="1.35732">
        <ele>72</ele>
        <time>2020-07-03T07:51:55Z</time>
      </trkpt>
      <trkpt lat="47.59097" lon="1.35724">
        <ele>72</ele>
        <time>2020-07-03T07:51:56Z</time>
      </trkpt>
      <trkpt lat="47.59093" lon="1.35717">
        <ele>72</ele>
        <time>2020-07-03T07:51:57Z</time>
      </trkpt>
      <trkpt lat="47.5909" lon="1.35708">
        <ele>72</ele>
        <time>2020-07-03T07:51:58Z</time>
      </trkpt>
      <trkpt lat="47.59087" lon="1.357">
        <ele>72</ele>
        <time>2020-07-03T07:51:59Z</time>
      </trkpt>
      <trkpt lat="47.59084" lon="1.35692">
        <ele>72</ele>
        <time>2020-07-03T07:52:00Z</time>
      </trkpt>
      <trkpt lat="47.59081" lon="1.35684">
        <ele>72</ele>
        <time>2020-07-03T07:52:01Z</time>
      </trkpt>
      <trkpt lat="47.59079" lon="1.35677">
        <ele>71.9</ele>
        <time>2020-07-03T07:52:02Z</time>
      </trkpt>
      <trkpt lat="47.59077" lon="1.35669">
        <ele>71.9</ele>
        <time>2020-07-03T07:52:03Z</time>
      </trkpt>
      <trkpt lat="47.59076" lon="1.35661">
        <ele>71.9</ele>
        <time>2020-07-03T07:52:04Z</time>
      </trkpt>
      <trkpt lat="47.59076" lon="1.35653">
        <ele>71.9</ele>
        <time>2020-07-03T07:52:05Z</time>
      </trkpt>
      <trkpt lat="47.59075" lon="1.35645">
        <ele>72</ele>
        <time>2020-07-03T07:52:06Z</time>
      </trkpt>
      <trkpt lat="47.59073" lon="1.35637">
        <ele>72</ele>
        <time>2020-07-03T07:52:07Z</time>
      </trkpt>
      <trkpt lat="47.5907" lon="1.3563">
        <ele>72</ele>
        <time>2020-07-03T07:52:08Z</time>
      </trkpt>
      <trkpt lat="47.59067" lon="1.35622">
        <ele>72</ele>
        <time>2020-07-03T07:52:09Z</time>
      </trkpt>
      <trkpt lat="47.59065" lon="1.35614">
        <ele>72</ele>
        <time>2020-07-03T07:52:10Z</time>
      </trkpt>
      <trkpt lat="47.59063" lon="1.35607">
        <ele>72</ele>
        <time>2020-07-03T07:52:11Z</time>
      </trkpt>
      <trkpt lat="47.5906" lon="1.356">
        <ele>72.1</ele>
        <time>2020-07-03T07:52:12Z</time>
      </trkpt>
      <trkpt lat="47.59057" lon="1.35593">
        <ele>72.1</ele>
        <time>2020-07-03T07:52:13Z</time>
      </trkpt>
      <trkpt lat="47.59056" lon="1.35584">
        <ele>72.1</ele>
        <time>2020-07-03T07:52:14Z</time>
      </trkpt>
      <trkpt lat="47.59055" lon="1.35577">
        <ele>72.1</ele>
        <time>2020-07-03T07:52:15Z</time>
      </trkpt>
      <trkpt lat="47.59053" lon="1.35569">
        <ele>72.1</ele>
        <time>2020-07-03T07:52:16Z</time>
      </trkpt>
      <trkpt lat="47.59051" lon="1.35562">
        <ele>72</ele>
        <time>2020-07-03T07:52:17Z</time>
      </trkpt>
      <trkpt lat="47.59048" lon="1.35555">
        <ele>72</ele>
        <time>2020-07-03T07:52:18Z</time>
      </trkpt>
      <trkpt lat="47.59047" lon="1.35548">
        <ele>72</ele>
        <time>2020-07-03T07:52:19Z</time>
      </trkpt>
      <trkpt lat="47.59047" lon="1.35541">
        <ele>72</ele>
        <time>2020-07-03T07:52:20Z</time>
      </trkpt>
      <trkpt lat="47.59049" lon="1.35535">
        <ele>72</ele>
        <time>2020-07-03T07:52:21Z</time>
      </trkpt>
      <trkpt lat="47.59052" lon="1.3553">
        <ele>72</ele>
        <time>2020-07-03T07:52:22Z</time>
      </trkpt>
      <trkpt lat="47.59055" lon="1.35526">
        <ele>72</ele>
        <time>2020-07-03T07:52:23Z</time>
      </trkpt>
      <trkpt lat="47.59057" lon="1.35524">
        <ele>72</ele>
        <time>2020-07-03T07:52:24Z</time>
      </trkpt>
      <trkpt lat="47.59057" lon="1.35522">
        <ele>72</ele>
        <time>2020-07-03T07:52:25Z</time>
      </trkpt>
      <trkpt lat="47.59057" lon="1.35517">
        <ele>71.9</ele>
        <time>2020-07-03T07:52:26Z</time>
      </trkpt>
      <trkpt lat="47.59056" lon="1.35517">
        <ele>71.9</ele>
        <time>2020-07-03T07:52:27Z</time>
      </trkpt>
      <trkpt lat="47.59055" lon="1.35514">
        <ele>71.9</ele>
        <time>2020-07-03T07:52:28Z</time>
      </trkpt>
      <trkpt lat="47.59054" lon="1.35513">
        <ele>71.9</ele>
        <time>2020-07-03T07:52:29Z</time>
      </trkpt>
      <trkpt lat="47.59054" lon="1.35511">
        <ele>71.9</ele>
        <time>2020-07-03T07:52:30Z</time>
      </trkpt>
      <trkpt lat="47.59053" lon="1.3551">
        <ele>71.9</ele>
        <time>2020-07-03T07:52:31Z</time>
      </trkpt>
      <trkpt lat="47.59054" lon="1.35512">
        <ele>71.9</ele>
        <time>2020-07-03T07:52:32Z</time>
      </trkpt>
      <trkpt lat="47.59054" lon="1.35513">
        <ele>71.9</ele>
        <time>2020-07-03T07:52:33Z</time>
      </trkpt>
      <trkpt lat="47.59055" lon="1.35514">
        <ele>71.9</ele>
        <time>2020-07-03T07:52:34Z</time>
      </trkpt>
      <trkpt lat="47.59055" lon="1.35515">
        <ele>71.9</ele>
        <time>2020-07-03T07:52:35Z</time>
      </trkpt>
      <trkpt lat="47.59056" lon="1.35516">
        <ele>71.9</ele>
        <time>2020-07-03T07:52:36Z</time>
      </trkpt>
      <trkpt lat="47.59059" lon="1.35516">
        <ele>71.9</ele>
        <time>2020-07-03T07:52:37Z</time>
      </trkpt>
      <trkpt lat="47.59062" lon="1.35517">
        <ele>71.8</ele>
        <time>2020-07-03T07:52:38Z</time>
      </trkpt>
      <trkpt lat="47.59063" lon="1.35517">
        <ele>71.8</ele>
        <time>2020-07-03T07:52:39Z</time>
      </trkpt>
      <trkpt lat="47.59066" lon="1.35514">
        <ele>71.8</ele>
        <time>2020-07-03T07:52:40Z</time>
      </trkpt>
      <trkpt lat="47.59067" lon="1.35513">
        <ele>71.8</ele>
        <time>2020-07-03T07:52:41Z</time>
      </trkpt>
      <trkpt lat="47.59069" lon="1.35507">
        <ele>71.6</ele>
        <time>2020-07-03T07:52:42Z</time>
      </trkpt>
      <trkpt lat="47.5907" lon="1.35505">
        <ele>71.6</ele>
        <time>2020-07-03T07:52:43Z</time>
      </trkpt>
      <trkpt lat="47.59071" lon="1.355">
        <ele>71.5</ele>
        <time>2020-07-03T07:52:44Z</time>
      </trkpt>
      <trkpt lat="47.59071" lon="1.35495">
        <ele>71.4</ele>
        <time>2020-07-03T07:52:45Z</time>
      </trkpt>
      <trkpt lat="47.59071" lon="1.35489">
        <ele>71.4</ele>
        <time>2020-07-03T07:52:46Z</time>
      </trkpt>
      <trkpt lat="47.59068" lon="1.35482">
        <ele>71.2</ele>
        <time>2020-07-03T07:52:47Z</time>
      </trkpt>
      <trkpt lat="47.59064" lon="1.35476">
        <ele>71.1</ele>
        <time>2020-07-03T07:52:48Z</time>
      </trkpt>
      <trkpt lat="47.59059" lon="1.3547">
        <ele>70.9</ele>
        <time>2020-07-03T07:52:49Z</time>
      </trkpt>
      <trkpt lat="47.59055" lon="1.35464">
        <ele>70.7</ele>
        <time>2020-07-03T07:52:50Z</time>
      </trkpt>
      <trkpt lat="47.5905" lon="1.35456">
        <ele>70.6</ele>
        <time>2020-07-03T07:52:51Z</time>
      </trkpt>
      <trkpt lat="47.59046" lon="1.35452">
        <ele>70.5</ele>
        <time>2020-07-03T07:52:52Z</time>
      </trkpt>
      <trkpt lat="47.59042" lon="1.35445">
        <ele>70.3</ele>
        <time>2020-07-03T07:52:53Z</time>
      </trkpt>
      <trkpt lat="47.59038" lon="1.35438">
        <ele>70.2</ele>
        <time>2020-07-03T07:52:54Z</time>
      </trkpt>
      <trkpt lat="47.59034" lon="1.35429">
        <ele>70.1</ele>
        <time>2020-07-03T07:52:55Z</time>
      </trkpt>
      <trkpt lat="47.5903" lon="1.35421">
        <ele>70</ele>
        <time>2020-07-03T07:52:56Z</time>
      </trkpt>
      <trkpt lat="47.59027" lon="1.35411">
        <ele>69.9</ele>
        <time>2020-07-03T07:52:57Z</time>
      </trkpt>
      <trkpt lat="47.59023" lon="1.35401">
        <ele>69.9</ele>
        <time>2020-07-03T07:52:58Z</time>
      </trkpt>
      <trkpt lat="47.5902" lon="1.35392">
        <ele>69.8</ele>
        <time>2020-07-03T07:52:59Z</time>
      </trkpt>
      <trkpt lat="47.59018" lon="1.35383">
        <ele>69.8</ele>
        <time>2020-07-03T07:53:00Z</time>
      </trkpt>
      <trkpt lat="47.59017" lon="1.35376">
        <ele>69.7</ele>
        <time>2020-07-03T07:53:01Z</time>
      </trkpt>
      <trkpt lat="47.59015" lon="1.35367">
        <ele>69.7</ele>
        <time>2020-07-03T07:53:02Z</time>
      </trkpt>
      <trkpt lat="47.59012" lon="1.35358">
        <ele>69.6</ele>
        <time>2020-07-03T07:53:03Z</time>
      </trkpt>
      <trkpt lat="47.5901" lon="1.35349">
        <ele>69.6</ele>
        <time>2020-07-03T07:53:04Z</time>
      </trkpt>
      <trkpt lat="47.59008" lon="1.35341">
        <ele>69.5</ele>
        <time>2020-07-03T07:53:05Z</time>
      </trkpt>
      <trkpt lat="47.59006" lon="1.35332">
        <ele>69.4</ele>
        <time>2020-07-03T07:53:06Z</time>
      </trkpt>
      <trkpt lat="47.59004" lon="1.35324">
        <ele>69.4</ele>
        <time>2020-07-03T07:53:07Z</time>
      </trkpt>
      <trkpt lat="47.59002" lon="1.35316">
        <ele>69.3</ele>
        <time>2020-07-03T07:53:08Z</time>
      </trkpt>
      <trkpt lat="47.59" lon="1.35307">
        <ele>69.2</ele>
        <time>2020-07-03T07:53:09Z</time>
      </trkpt>
      <trkpt lat="47.58998" lon="1.35297">
        <ele>69.1</ele>
        <time>2020-07-03T07:53:10Z</time>
      </trkpt>
      <trkpt lat="47.58996" lon="1.35288">
        <ele>69</ele>
        <time>2020-07-03T07:53:11Z</time>
      </trkpt>
      <trkpt lat="47.58995" lon="1.3528">
        <ele>69</ele>
        <time>2020-07-03T07:53:12Z</time>
      </trkpt>
      <trkpt lat="47.58994" lon="1.35271">
        <ele>68.9</ele>
        <time>2020-07-03T07:53:13Z</time>
      </trkpt>
      <trkpt lat="47.58992" lon="1.35262">
        <ele>68.9</ele>
        <time>2020-07-03T07:53:14Z</time>
      </trkpt>
      <trkpt lat="47.5899" lon="1.35253">
        <ele>68.8</ele>
        <time>2020-07-03T07:53:15Z</time>
      </trkpt>
      <trkpt lat="47.58988" lon="1.35246">
        <ele>68.7</ele>
        <time>2020-07-03T07:53:16Z</time>
      </trkpt>
      <trkpt lat="47.58986" lon="1.35237">
        <ele>68.7</ele>
        <time>2020-07-03T07:53:17Z</time>
      </trkpt>
      <trkpt lat="47.58984" lon="1.35228">
        <ele>68.6</ele>
        <time>2020-07-03T07:53:18Z</time>
      </trkpt>
      <trkpt lat="47.58981" lon="1.35219">
        <ele>68.6</ele>
        <time>2020-07-03T07:53:19Z</time>
      </trkpt>
      <trkpt lat="47.58978" lon="1.3521">
        <ele>68.6</ele>
        <time>2020-07-03T07:53:20Z</time>
      </trkpt>
      <trkpt lat="47.58977" lon="1.35202">
        <ele>68.6</ele>
        <time>2020-07-03T07:53:21Z</time>
      </trkpt>
      <trkpt lat="47.58975" lon="1.35194">
        <ele>68.6</ele>
        <time>2020-07-03T07:53:22Z</time>
      </trkpt>
      <trkpt lat="47.58973" lon="1.35184">
        <ele>68.6</ele>
        <time>2020-07-03T07:53:23Z</time>
      </trkpt>
      <trkpt lat="47.58972" lon="1.35175">
        <ele>68.6</ele>
        <time>2020-07-03T07:53:24Z</time>
      </trkpt>
      <trkpt lat="47.5897" lon="1.35167">
        <ele>68.6</ele>
        <time>2020-07-03T07:53:25Z</time>
      </trkpt>
      <trkpt lat="47.58968" lon="1.35158">
        <ele>68.6</ele>
        <time>2020-07-03T07:53:26Z</time>
      </trkpt>
      <trkpt lat="47.58966" lon="1.3515">
        <ele>68.6</ele>
        <time>2020-07-03T07:53:27Z</time>
      </trkpt>
      <trkpt lat="47.58964" lon="1.35141">
        <ele>68.6</ele>
        <time>2020-07-03T07:53:28Z</time>
      </trkpt>
      <trkpt lat="47.58963" lon="1.35133">
        <ele>68.6</ele>
        <time>2020-07-03T07:53:29Z</time>
      </trkpt>
      <trkpt lat="47.58961" lon="1.35124">
        <ele>68.6</ele>
        <time>2020-07-03T07:53:30Z</time>
      </trkpt>
      <trkpt lat="47.5896" lon="1.35116">
        <ele>68.7</ele>
        <time>2020-07-03T07:53:31Z</time>
      </trkpt>
      <trkpt lat="47.58957" lon="1.35108">
        <ele>68.7</ele>
        <time>2020-07-03T07:53:32Z</time>
      </trkpt>
      <trkpt lat="47.58955" lon="1.351">
        <ele>68.8</ele>
        <time>2020-07-03T07:53:33Z</time>
      </trkpt>
      <trkpt lat="47.58952" lon="1.35092">
        <ele>68.8</ele>
        <time>2020-07-03T07:53:34Z</time>
      </trkpt>
      <trkpt lat="47.58949" lon="1.35085">
        <ele>68.9</ele>
        <time>2020-07-03T07:53:35Z</time>
      </trkpt>
      <trkpt lat="47.58946" lon="1.35078">
        <ele>68.9</ele>
        <time>2020-07-03T07:53:36Z</time>
      </trkpt>
      <trkpt lat="47.58943" lon="1.35069">
        <ele>68.9</ele>
        <time>2020-07-03T07:53:37Z</time>
      </trkpt>
      <trkpt lat="47.5894" lon="1.3506">
        <ele>68.9</ele>
        <time>2020-07-03T07:53:38Z</time>
      </trkpt>
      <trkpt lat="47.58938" lon="1.35053">
        <ele>68.9</ele>
        <time>2020-07-03T07:53:39Z</time>
      </trkpt>
      <trkpt lat="47.58936" lon="1.35045">
        <ele>68.9</ele>
        <time>2020-07-03T07:53:40Z</time>
      </trkpt>
      <trkpt lat="47.58934" lon="1.35036">
        <ele>68.9</ele>
        <time>2020-07-03T07:53:41Z</time>
      </trkpt>
      <trkpt lat="47.58931" lon="1.35029">
        <ele>68.9</ele>
        <time>2020-07-03T07:53:42Z</time>
      </trkpt>
      <trkpt lat="47.58929" lon="1.35021">
        <ele>68.9</ele>
        <time>2020-07-03T07:53:43Z</time>
      </trkpt>
      <trkpt lat="47.58927" lon="1.35013">
        <ele>68.9</ele>
        <time>2020-07-03T07:53:44Z</time>
      </trkpt>
      <trkpt lat="47.58924" lon="1.35005">
        <ele>68.9</ele>
        <time>2020-07-03T07:53:45Z</time>
      </trkpt>
      <trkpt lat="47.58921" lon="1.34997">
        <ele>69</ele>
        <time>2020-07-03T07:53:46Z</time>
      </trkpt>
      <trkpt lat="47.58919" lon="1.3499">
        <ele>69</ele>
        <time>2020-07-03T07:53:47Z</time>
      </trkpt>
      <trkpt lat="47.58916" lon="1.34983">
        <ele>69.1</ele>
        <time>2020-07-03T07:53:48Z</time>
      </trkpt>
      <trkpt lat="47.58913" lon="1.34976">
        <ele>69.2</ele>
        <time>2020-07-03T07:53:49Z</time>
      </trkpt>
      <trkpt lat="47.5891" lon="1.3497">
        <ele>69.3</ele>
        <time>2020-07-03T07:53:50Z</time>
      </trkpt>
      <trkpt lat="47.58906" lon="1.34963">
        <ele>69.4</ele>
        <time>2020-07-03T07:53:51Z</time>
      </trkpt>
      <trkpt lat="47.58904" lon="1.34958">
        <ele>69.4</ele>
        <time>2020-07-03T07:53:52Z</time>
      </trkpt>
      <trkpt lat="47.58901" lon="1.34952">
        <ele>69.5</ele>
        <time>2020-07-03T07:53:53Z</time>
      </trkpt>
      <trkpt lat="47.58897" lon="1.34944">
        <ele>69.6</ele>
        <time>2020-07-03T07:53:54Z</time>
      </trkpt>
      <trkpt lat="47.58894" lon="1.34937">
        <ele>69.7</ele>
        <time>2020-07-03T07:53:55Z</time>
      </trkpt>
      <trkpt lat="47.58891" lon="1.34931">
        <ele>69.8</ele>
        <time>2020-07-03T07:53:56Z</time>
      </trkpt>
      <trkpt lat="47.58888" lon="1.34924">
        <ele>69.8</ele>
        <time>2020-07-03T07:53:57Z</time>
      </trkpt>
      <trkpt lat="47.58884" lon="1.34917">
        <ele>69.9</ele>
        <time>2020-07-03T07:53:58Z</time>
      </trkpt>
      <trkpt lat="47.58881" lon="1.3491">
        <ele>69.9</ele>
        <time>2020-07-03T07:53:59Z</time>
      </trkpt>
      <trkpt lat="47.58877" lon="1.34905">
        <ele>70</ele>
        <time>2020-07-03T07:54:00Z</time>
      </trkpt>
      <trkpt lat="47.58874" lon="1.34898">
        <ele>70</ele>
        <time>2020-07-03T07:54:01Z</time>
      </trkpt>
      <trkpt lat="47.5887" lon="1.34892">
        <ele>70.1</ele>
        <time>2020-07-03T07:54:02Z</time>
      </trkpt>
      <trkpt lat="47.58867" lon="1.34887">
        <ele>70.1</ele>
        <time>2020-07-03T07:54:03Z</time>
      </trkpt>
      <trkpt lat="47.58863" lon="1.34881">
        <ele>70.2</ele>
        <time>2020-07-03T07:54:04Z</time>
      </trkpt>
      <trkpt lat="47.5886" lon="1.34875">
        <ele>70.2</ele>
        <time>2020-07-03T07:54:05Z</time>
      </trkpt>
      <trkpt lat="47.58857" lon="1.34869">
        <ele>70.3</ele>
        <time>2020-07-03T07:54:06Z</time>
      </trkpt>
      <trkpt lat="47.58853" lon="1.34863">
        <ele>70.3</ele>
        <time>2020-07-03T07:54:07Z</time>
      </trkpt>
      <trkpt lat="47.5885" lon="1.34858">
        <ele>70.4</ele>
        <time>2020-07-03T07:54:08Z</time>
      </trkpt>
      <trkpt lat="47.58846" lon="1.34851">
        <ele>70.5</ele>
        <time>2020-07-03T07:54:09Z</time>
      </trkpt>
      <trkpt lat="47.58843" lon="1.34845">
        <ele>70.5</ele>
        <time>2020-07-03T07:54:10Z</time>
      </trkpt>
      <trkpt lat="47.58839" lon="1.34838">
        <ele>70.6</ele>
        <time>2020-07-03T07:54:11Z</time>
      </trkpt>
      <trkpt lat="47.58835" lon="1.34831">
        <ele>70.6</ele>
        <time>2020-07-03T07:54:12Z</time>
      </trkpt>
      <trkpt lat="47.58832" lon="1.34825">
        <ele>70.7</ele>
        <time>2020-07-03T07:54:13Z</time>
      </trkpt>
      <trkpt lat="47.58828" lon="1.34817">
        <ele>70.7</ele>
        <time>2020-07-03T07:54:14Z</time>
      </trkpt>
      <trkpt lat="47.58825" lon="1.3481">
        <ele>70.8</ele>
        <time>2020-07-03T07:54:15Z</time>
      </trkpt>
      <trkpt lat="47.58822" lon="1.34803">
        <ele>70.8</ele>
        <time>2020-07-03T07:54:16Z</time>
      </trkpt>
      <trkpt lat="47.58819" lon="1.34798">
        <ele>70.8</ele>
        <time>2020-07-03T07:54:17Z</time>
      </trkpt>
      <trkpt lat="47.58817" lon="1.34791">
        <ele>70.8</ele>
        <time>2020-07-03T07:54:18Z</time>
      </trkpt>
      <trkpt lat="47.58814" lon="1.34784">
        <ele>70.8</ele>
        <time>2020-07-03T07:54:19Z</time>
      </trkpt>
      <trkpt lat="47.58812" lon="1.34779">
        <ele>70.8</ele>
        <time>2020-07-03T07:54:20Z</time>
      </trkpt>
      <trkpt lat="47.58809" lon="1.34773">
        <ele>70.8</ele>
        <time>2020-07-03T07:54:21Z</time>
      </trkpt>
      <trkpt lat="47.58806" lon="1.34764">
        <ele>70.8</ele>
        <time>2020-07-03T07:54:22Z</time>
      </trkpt>
      <trkpt lat="47.58803" lon="1.34755">
        <ele>70.8</ele>
        <time>2020-07-03T07:54:23Z</time>
      </trkpt>
      <trkpt lat="47.588" lon="1.34749">
        <ele>70.8</ele>
        <time>2020-07-03T07:54:24Z</time>
      </trkpt>
      <trkpt lat="47.58797" lon="1.34743">
        <ele>70.9</ele>
        <time>2020-07-03T07:54:25Z</time>
      </trkpt>
      <trkpt lat="47.58793" lon="1.34733">
        <ele>70.9</ele>
        <time>2020-07-03T07:54:26Z</time>
      </trkpt>
      <trkpt lat="47.5879" lon="1.34729">
        <ele>70.9</ele>
        <time>2020-07-03T07:54:27Z</time>
      </trkpt>
      <trkpt lat="47.58787" lon="1.34721">
        <ele>70.9</ele>
        <time>2020-07-03T07:54:28Z</time>
      </trkpt>
      <trkpt lat="47.58783" lon="1.34714">
        <ele>70.9</ele>
        <time>2020-07-03T07:54:29Z</time>
      </trkpt>
      <trkpt lat="47.58779" lon="1.34707">
        <ele>70.9</ele>
        <time>2020-07-03T07:54:30Z</time>
      </trkpt>
      <trkpt lat="47.58776" lon="1.34699">
        <ele>70.9</ele>
        <time>2020-07-03T07:54:31Z</time>
      </trkpt>
      <trkpt lat="47.58771" lon="1.3469">
        <ele>70.9</ele>
        <time>2020-07-03T07:54:32Z</time>
      </trkpt>
      <trkpt lat="47.58768" lon="1.34682">
        <ele>70.9</ele>
        <time>2020-07-03T07:54:33Z</time>
      </trkpt>
      <trkpt lat="47.58765" lon="1.34674">
        <ele>70.9</ele>
        <time>2020-07-03T07:54:34Z</time>
      </trkpt>
      <trkpt lat="47.58762" lon="1.34667">
        <ele>70.9</ele>
        <time>2020-07-03T07:54:35Z</time>
      </trkpt>
      <trkpt lat="47.5876" lon="1.3466">
        <ele>70.9</ele>
        <time>2020-07-03T07:54:36Z</time>
      </trkpt>
      <trkpt lat="47.58757" lon="1.34653">
        <ele>70.9</ele>
        <time>2020-07-03T07:54:37Z</time>
      </trkpt>
      <trkpt lat="47.58754" lon="1.34645">
        <ele>70.9</ele>
        <time>2020-07-03T07:54:38Z</time>
      </trkpt>
      <trkpt lat="47.58751" lon="1.34636">
        <ele>70.9</ele>
        <time>2020-07-03T07:54:39Z</time>
      </trkpt>
      <trkpt lat="47.58748" lon="1.3463">
        <ele>70.9</ele>
        <time>2020-07-03T07:54:40Z</time>
      </trkpt>
      <trkpt lat="47.58745" lon="1.34624">
        <ele>70.9</ele>
        <time>2020-07-03T07:54:41Z</time>
      </trkpt>
      <trkpt lat="47.58742" lon="1.34618">
        <ele>70.9</ele>
        <time>2020-07-03T07:54:42Z</time>
      </trkpt>
      <trkpt lat="47.58739" lon="1.34614">
        <ele>70.9</ele>
        <time>2020-07-03T07:54:43Z</time>
      </trkpt>
      <trkpt lat="47.58736" lon="1.34607">
        <ele>70.8</ele>
        <time>2020-07-03T07:54:44Z</time>
      </trkpt>
      <trkpt lat="47.58734" lon="1.34599">
        <ele>70.8</ele>
        <time>2020-07-03T07:54:45Z</time>
      </trkpt>
      <trkpt lat="47.58732" lon="1.34592">
        <ele>70.8</ele>
        <time>2020-07-03T07:54:46Z</time>
      </trkpt>
      <trkpt lat="47.5873" lon="1.34584">
        <ele>70.7</ele>
        <time>2020-07-03T07:54:47Z</time>
      </trkpt>
      <trkpt lat="47.58728" lon="1.34575">
        <ele>70.7</ele>
        <time>2020-07-03T07:54:48Z</time>
      </trkpt>
      <trkpt lat="47.58726" lon="1.34567">
        <ele>70.6</ele>
        <time>2020-07-03T07:54:49Z</time>
      </trkpt>
      <trkpt lat="47.58723" lon="1.34559">
        <ele>70.6</ele>
        <time>2020-07-03T07:54:50Z</time>
      </trkpt>
      <trkpt lat="47.58722" lon="1.34554">
        <ele>70.5</ele>
        <time>2020-07-03T07:54:51Z</time>
      </trkpt>
      <trkpt lat="47.5872" lon="1.34548">
        <ele>70.5</ele>
        <time>2020-07-03T07:54:52Z</time>
      </trkpt>
      <trkpt lat="47.58718" lon="1.34542">
        <ele>70.5</ele>
        <time>2020-07-03T07:54:53Z</time>
      </trkpt>
      <trkpt lat="47.58715" lon="1.34535">
        <ele>70.4</ele>
        <time>2020-07-03T07:54:54Z</time>
      </trkpt>
      <trkpt lat="47.58713" lon="1.34528">
        <ele>70.4</ele>
        <time>2020-07-03T07:54:55Z</time>
      </trkpt>
      <trkpt lat="47.5871" lon="1.34519">
        <ele>70.4</ele>
        <time>2020-07-03T07:54:56Z</time>
      </trkpt>
      <trkpt lat="47.58707" lon="1.34512">
        <ele>70.3</ele>
        <time>2020-07-03T07:54:57Z</time>
      </trkpt>
      <trkpt lat="47.58704" lon="1.34504">
        <ele>70.3</ele>
        <time>2020-07-03T07:54:58Z</time>
      </trkpt>
      <trkpt lat="47.58702" lon="1.34497">
        <ele>70.3</ele>
        <time>2020-07-03T07:54:59Z</time>
      </trkpt>
      <trkpt lat="47.58701" lon="1.34491">
        <ele>70.3</ele>
        <time>2020-07-03T07:55:00Z</time>
      </trkpt>
      <trkpt lat="47.58699" lon="1.34487">
        <ele>70.2</ele>
        <time>2020-07-03T07:55:01Z</time>
      </trkpt>
      <trkpt lat="47.58697" lon="1.34482">
        <ele>70.2</ele>
        <time>2020-07-03T07:55:02Z</time>
      </trkpt>
      <trkpt lat="47.58695" lon="1.34476">
        <ele>70.2</ele>
        <time>2020-07-03T07:55:03Z</time>
      </trkpt>
      <trkpt lat="47.58693" lon="1.3447">
        <ele>70.2</ele>
        <time>2020-07-03T07:55:04Z</time>
      </trkpt>
      <trkpt lat="47.5869" lon="1.34465">
        <ele>70.2</ele>
        <time>2020-07-03T07:55:05Z</time>
      </trkpt>
      <trkpt lat="47.58688" lon="1.34459">
        <ele>70.2</ele>
        <time>2020-07-03T07:55:06Z</time>
      </trkpt>
      <trkpt lat="47.58684" lon="1.34453">
        <ele>70.1</ele>
        <time>2020-07-03T07:55:07Z</time>
      </trkpt>
      <trkpt lat="47.58682" lon="1.34449">
        <ele>70.1</ele>
        <time>2020-07-03T07:55:08Z</time>
      </trkpt>
      <trkpt lat="47.5868" lon="1.34443">
        <ele>70</ele>
        <time>2020-07-03T07:55:09Z</time>
      </trkpt>
      <trkpt lat="47.58677" lon="1.34436">
        <ele>70</ele>
        <time>2020-07-03T07:55:10Z</time>
      </trkpt>
      <trkpt lat="47.58674" lon="1.34429">
        <ele>69.9</ele>
        <time>2020-07-03T07:55:11Z</time>
      </trkpt>
      <trkpt lat="47.58671" lon="1.34422">
        <ele>69.8</ele>
        <time>2020-07-03T07:55:12Z</time>
      </trkpt>
      <trkpt lat="47.58669" lon="1.34414">
        <ele>69.7</ele>
        <time>2020-07-03T07:55:13Z</time>
      </trkpt>
      <trkpt lat="47.58666" lon="1.34406">
        <ele>69.7</ele>
        <time>2020-07-03T07:55:14Z</time>
      </trkpt>
      <trkpt lat="47.58663" lon="1.344">
        <ele>69.6</ele>
        <time>2020-07-03T07:55:15Z</time>
      </trkpt>
      <trkpt lat="47.58661" lon="1.34394">
        <ele>69.6</ele>
        <time>2020-07-03T07:55:16Z</time>
      </trkpt>
      <trkpt lat="47.58658" lon="1.34388">
        <ele>69.6</ele>
        <time>2020-07-03T07:55:17Z</time>
      </trkpt>
      <trkpt lat="47.58655" lon="1.34382">
        <ele>69.6</ele>
        <time>2020-07-03T07:55:18Z</time>
      </trkpt>
      <trkpt lat="47.58652" lon="1.34376">
        <ele>69.6</ele>
        <time>2020-07-03T07:55:19Z</time>
      </trkpt>
      <trkpt lat="47.58648" lon="1.34369">
        <ele>69.6</ele>
        <time>2020-07-03T07:55:20Z</time>
      </trkpt>
      <trkpt lat="47.58645" lon="1.34364">
        <ele>69.6</ele>
        <time>2020-07-03T07:55:21Z</time>
      </trkpt>
      <trkpt lat="47.58642" lon="1.34357">
        <ele>69.6</ele>
        <time>2020-07-03T07:55:22Z</time>
      </trkpt>
      <trkpt lat="47.58639" lon="1.34352">
        <ele>69.6</ele>
        <time>2020-07-03T07:55:23Z</time>
      </trkpt>
      <trkpt lat="47.58635" lon="1.34346">
        <ele>69.6</ele>
        <time>2020-07-03T07:55:24Z</time>
      </trkpt>
      <trkpt lat="47.58632" lon="1.34341">
        <ele>69.6</ele>
        <time>2020-07-03T07:55:25Z</time>
      </trkpt>
      <trkpt lat="47.5863" lon="1.34335">
        <ele>69.6</ele>
        <time>2020-07-03T07:55:26Z</time>
      </trkpt>
      <trkpt lat="47.58629" lon="1.34329">
        <ele>69.6</ele>
        <time>2020-07-03T07:55:27Z</time>
      </trkpt>
      <trkpt lat="47.58628" lon="1.34323">
        <ele>69.6</ele>
        <time>2020-07-03T07:55:28Z</time>
      </trkpt>
      <trkpt lat="47.58626" lon="1.34317">
        <ele>69.6</ele>
        <time>2020-07-03T07:55:29Z</time>
      </trkpt>
      <trkpt lat="47.58624" lon="1.34312">
        <ele>69.6</ele>
        <time>2020-07-03T07:55:30Z</time>
      </trkpt>
      <trkpt lat="47.58621" lon="1.34307">
        <ele>69.6</ele>
        <time>2020-07-03T07:55:31Z</time>
      </trkpt>
      <trkpt lat="47.58618" lon="1.34302">
        <ele>69.7</ele>
        <time>2020-07-03T07:55:32Z</time>
      </trkpt>
      <trkpt lat="47.58616" lon="1.34296">
        <ele>69.8</ele>
        <time>2020-07-03T07:55:33Z</time>
      </trkpt>
      <trkpt lat="47.58614" lon="1.3429">
        <ele>69.8</ele>
        <time>2020-07-03T07:55:34Z</time>
      </trkpt>
      <trkpt lat="47.58611" lon="1.34286">
        <ele>69.9</ele>
        <time>2020-07-03T07:55:35Z</time>
      </trkpt>
      <trkpt lat="47.58608" lon="1.34281">
        <ele>70</ele>
        <time>2020-07-03T07:55:36Z</time>
      </trkpt>
      <trkpt lat="47.58603" lon="1.34278">
        <ele>70.1</ele>
        <time>2020-07-03T07:55:37Z</time>
      </trkpt>
      <trkpt lat="47.58599" lon="1.34278">
        <ele>70.2</ele>
        <time>2020-07-03T07:55:38Z</time>
      </trkpt>
      <trkpt lat="47.58595" lon="1.34277">
        <ele>70.4</ele>
        <time>2020-07-03T07:55:39Z</time>
      </trkpt>
      <trkpt lat="47.5859" lon="1.34277">
        <ele>70.5</ele>
        <time>2020-07-03T07:55:40Z</time>
      </trkpt>
      <trkpt lat="47.58586" lon="1.34279">
        <ele>70.6</ele>
        <time>2020-07-03T07:55:41Z</time>
      </trkpt>
      <trkpt lat="47.58582" lon="1.34281">
        <ele>70.8</ele>
        <time>2020-07-03T07:55:42Z</time>
      </trkpt>
      <trkpt lat="47.58578" lon="1.34283">
        <ele>71</ele>
        <time>2020-07-03T07:55:43Z</time>
      </trkpt>
      <trkpt lat="47.58574" lon="1.34284">
        <ele>71.1</ele>
        <time>2020-07-03T07:55:44Z</time>
      </trkpt>
      <trkpt lat="47.5857" lon="1.3428">
        <ele>71.6</ele>
        <time>2020-07-03T07:55:45Z</time>
      </trkpt>
      <trkpt lat="47.58569" lon="1.34275">
        <ele>71.8</ele>
        <time>2020-07-03T07:55:46Z</time>
      </trkpt>
      <trkpt lat="47.58568" lon="1.3427">
        <ele>71.9</ele>
        <time>2020-07-03T07:55:47Z</time>
      </trkpt>
      <trkpt lat="47.58568" lon="1.34268">
        <ele>72</ele>
        <time>2020-07-03T07:55:48Z</time>
      </trkpt>
      <trkpt lat="47.58569" lon="1.34262">
        <ele>72.1</ele>
        <time>2020-07-03T07:55:49Z</time>
      </trkpt>
      <trkpt lat="47.58569" lon="1.3426">
        <ele>72.2</ele>
        <time>2020-07-03T07:55:50Z</time>
      </trkpt>
      <trkpt lat="47.5857" lon="1.34256">
        <ele>72.3</ele>
        <time>2020-07-03T07:55:51Z</time>
      </trkpt>
      <trkpt lat="47.58571" lon="1.34251">
        <ele>72.4</ele>
        <time>2020-07-03T07:55:52Z</time>
      </trkpt>
      <trkpt lat="47.58571" lon="1.34249">
        <ele>72.5</ele>
        <time>2020-07-03T07:55:53Z</time>
      </trkpt>
      <trkpt lat="47.5857" lon="1.34244">
        <ele>72.6</ele>
        <time>2020-07-03T07:55:54Z</time>
      </trkpt>
      <trkpt lat="47.58569" lon="1.34239">
        <ele>72.6</ele>
        <time>2020-07-03T07:55:55Z</time>
      </trkpt>
      <trkpt lat="47.58568" lon="1.34234">
        <ele>72.7</ele>
        <time>2020-07-03T07:55:56Z</time>
      </trkpt>
      <trkpt lat="47.58567" lon="1.34229">
        <ele>72.7</ele>
        <time>2020-07-03T07:55:57Z</time>
      </trkpt>
      <trkpt lat="47.58566" lon="1.34223">
        <ele>72.7</ele>
        <time>2020-07-03T07:55:58Z</time>
      </trkpt>
      <trkpt lat="47.58565" lon="1.34217">
        <ele>72.7</ele>
        <time>2020-07-03T07:55:59Z</time>
      </trkpt>
      <trkpt lat="47.58562" lon="1.34209">
        <ele>72.7</ele>
        <time>2020-07-03T07:56:00Z</time>
      </trkpt>
      <trkpt lat="47.58562" lon="1.34201">
        <ele>72.7</ele>
        <time>2020-07-03T07:56:01Z</time>
      </trkpt>
      <trkpt lat="47.58562" lon="1.34194">
        <ele>72.7</ele>
        <time>2020-07-03T07:56:02Z</time>
      </trkpt>
      <trkpt lat="47.58561" lon="1.34187">
        <ele>72.8</ele>
        <time>2020-07-03T07:56:03Z</time>
      </trkpt>
      <trkpt lat="47.58561" lon="1.3418">
        <ele>72.8</ele>
        <time>2020-07-03T07:56:04Z</time>
      </trkpt>
      <trkpt lat="47.5856" lon="1.34174">
        <ele>72.8</ele>
        <time>2020-07-03T07:56:05Z</time>
      </trkpt>
      <trkpt lat="47.5856" lon="1.34166">
        <ele>72.8</ele>
        <time>2020-07-03T07:56:06Z</time>
      </trkpt>
      <trkpt lat="47.5856" lon="1.34159">
        <ele>72.8</ele>
        <time>2020-07-03T07:56:07Z</time>
      </trkpt>
      <trkpt lat="47.5856" lon="1.34152">
        <ele>72.9</ele>
        <time>2020-07-03T07:56:08Z</time>
      </trkpt>
      <trkpt lat="47.5856" lon="1.34144">
        <ele>72.9</ele>
        <time>2020-07-03T07:56:09Z</time>
      </trkpt>
      <trkpt lat="47.58559" lon="1.34138">
        <ele>72.9</ele>
        <time>2020-07-03T07:56:10Z</time>
      </trkpt>
      <trkpt lat="47.58558" lon="1.34131">
        <ele>72.9</ele>
        <time>2020-07-03T07:56:11Z</time>
      </trkpt>
      <trkpt lat="47.58556" lon="1.34123">
        <ele>73</ele>
        <time>2020-07-03T07:56:12Z</time>
      </trkpt>
      <trkpt lat="47.58554" lon="1.34117">
        <ele>73</ele>
        <time>2020-07-03T07:56:13Z</time>
      </trkpt>
      <trkpt lat="47.58552" lon="1.34111">
        <ele>73</ele>
        <time>2020-07-03T07:56:14Z</time>
      </trkpt>
      <trkpt lat="47.5855" lon="1.34106">
        <ele>73.1</ele>
        <time>2020-07-03T07:56:15Z</time>
      </trkpt>
      <trkpt lat="47.58547" lon="1.34099">
        <ele>73.1</ele>
        <time>2020-07-03T07:56:16Z</time>
      </trkpt>
      <trkpt lat="47.58545" lon="1.34094">
        <ele>73.1</ele>
        <time>2020-07-03T07:56:17Z</time>
      </trkpt>
      <trkpt lat="47.58542" lon="1.34089">
        <ele>73.2</ele>
        <time>2020-07-03T07:56:18Z</time>
      </trkpt>
      <trkpt lat="47.58539" lon="1.34084">
        <ele>73.2</ele>
        <time>2020-07-03T07:56:19Z</time>
      </trkpt>
      <trkpt lat="47.58536" lon="1.34078">
        <ele>73.2</ele>
        <time>2020-07-03T07:56:20Z</time>
      </trkpt>
      <trkpt lat="47.58533" lon="1.34072">
        <ele>73.3</ele>
        <time>2020-07-03T07:56:21Z</time>
      </trkpt>
      <trkpt lat="47.5853" lon="1.34067">
        <ele>73.3</ele>
        <time>2020-07-03T07:56:22Z</time>
      </trkpt>
      <trkpt lat="47.58527" lon="1.34061">
        <ele>73.4</ele>
        <time>2020-07-03T07:56:23Z</time>
      </trkpt>
      <trkpt lat="47.58524" lon="1.34057">
        <ele>73.4</ele>
        <time>2020-07-03T07:56:24Z</time>
      </trkpt>
      <trkpt lat="47.5852" lon="1.3405">
        <ele>73.4</ele>
        <time>2020-07-03T07:56:25Z</time>
      </trkpt>
      <trkpt lat="47.58517" lon="1.34044">
        <ele>73.5</ele>
        <time>2020-07-03T07:56:26Z</time>
      </trkpt>
      <trkpt lat="47.58513" lon="1.34038">
        <ele>73.5</ele>
        <time>2020-07-03T07:56:27Z</time>
      </trkpt>
      <trkpt lat="47.58509" lon="1.34032">
        <ele>73.6</ele>
        <time>2020-07-03T07:56:28Z</time>
      </trkpt>
      <trkpt lat="47.58506" lon="1.34026">
        <ele>73.6</ele>
        <time>2020-07-03T07:56:29Z</time>
      </trkpt>
      <trkpt lat="47.58502" lon="1.3402">
        <ele>73.6</ele>
        <time>2020-07-03T07:56:30Z</time>
      </trkpt>
      <trkpt lat="47.58497" lon="1.34014">
        <ele>73.7</ele>
        <time>2020-07-03T07:56:31Z</time>
      </trkpt>
      <trkpt lat="47.58493" lon="1.34008">
        <ele>73.7</ele>
        <time>2020-07-03T07:56:32Z</time>
      </trkpt>
      <trkpt lat="47.5849" lon="1.34003">
        <ele>73.7</ele>
        <time>2020-07-03T07:56:33Z</time>
      </trkpt>
      <trkpt lat="47.58487" lon="1.33998">
        <ele>73.7</ele>
        <time>2020-07-03T07:56:34Z</time>
      </trkpt>
      <trkpt lat="47.58484" lon="1.33994">
        <ele>73.7</ele>
        <time>2020-07-03T07:56:35Z</time>
      </trkpt>
      <trkpt lat="47.5848" lon="1.33989">
        <ele>73.8</ele>
        <time>2020-07-03T07:56:36Z</time>
      </trkpt>
      <trkpt lat="47.58477" lon="1.33984">
        <ele>73.8</ele>
        <time>2020-07-03T07:56:37Z</time>
      </trkpt>
      <trkpt lat="47.58474" lon="1.3398">
        <ele>73.8</ele>
        <time>2020-07-03T07:56:38Z</time>
      </trkpt>
      <trkpt lat="47.58471" lon="1.33974">
        <ele>73.8</ele>
        <time>2020-07-03T07:56:39Z</time>
      </trkpt>
      <trkpt lat="47.58468" lon="1.33968">
        <ele>73.8</ele>
        <time>2020-07-03T07:56:40Z</time>
      </trkpt>
      <trkpt lat="47.58464" lon="1.33962">
        <ele>73.9</ele>
        <time>2020-07-03T07:56:41Z</time>
      </trkpt>
      <trkpt lat="47.58461" lon="1.33957">
        <ele>73.9</ele>
        <time>2020-07-03T07:56:42Z</time>
      </trkpt>
      <trkpt lat="47.58457" lon="1.33952">
        <ele>73.9</ele>
        <time>2020-07-03T07:56:43Z</time>
      </trkpt>
      <trkpt lat="47.58455" lon="1.33948">
        <ele>74</ele>
        <time>2020-07-03T07:56:44Z</time>
      </trkpt>
      <trkpt lat="47.58452" lon="1.33944">
        <ele>74</ele>
        <time>2020-07-03T07:56:45Z</time>
      </trkpt>
      <trkpt lat="47.5845" lon="1.3394">
        <ele>74</ele>
        <time>2020-07-03T07:56:46Z</time>
      </trkpt>
      <trkpt lat="47.58448" lon="1.33937">
        <ele>74.1</ele>
        <time>2020-07-03T07:56:47Z</time>
      </trkpt>
      <trkpt lat="47.58446" lon="1.33933">
        <ele>74.1</ele>
        <time>2020-07-03T07:56:48Z</time>
      </trkpt>
      <trkpt lat="47.58445" lon="1.33932">
        <ele>74.1</ele>
        <time>2020-07-03T07:56:49Z</time>
      </trkpt>
      <trkpt lat="47.58442" lon="1.33929">
        <ele>74.1</ele>
        <time>2020-07-03T07:56:50Z</time>
      </trkpt>
      <trkpt lat="47.58441" lon="1.33928">
        <ele>74.2</ele>
        <time>2020-07-03T07:56:51Z</time>
      </trkpt>
      <trkpt lat="47.58438" lon="1.33924">
        <ele>74.2</ele>
        <time>2020-07-03T07:56:52Z</time>
      </trkpt>
      <trkpt lat="47.58437" lon="1.33923">
        <ele>74.2</ele>
        <time>2020-07-03T07:56:53Z</time>
      </trkpt>
      <trkpt lat="47.58435" lon="1.33918">
        <ele>74.3</ele>
        <time>2020-07-03T07:56:54Z</time>
      </trkpt>
      <trkpt lat="47.58434" lon="1.33917">
        <ele>74.3</ele>
        <time>2020-07-03T07:56:55Z</time>
      </trkpt>
      <trkpt lat="47.58434" lon="1.33912">
        <ele>74.3</ele>
        <time>2020-07-03T07:56:56Z</time>
      </trkpt>
      <trkpt lat="47.58432" lon="1.33908">
        <ele>74.4</ele>
        <time>2020-07-03T07:56:57Z</time>
      </trkpt>
      <trkpt lat="47.5843" lon="1.33904">
        <ele>74.5</ele>
        <time>2020-07-03T07:56:58Z</time>
      </trkpt>
      <trkpt lat="47.58429" lon="1.33903">
        <ele>74.5</ele>
        <time>2020-07-03T07:56:59Z</time>
      </trkpt>
      <trkpt lat="47.58426" lon="1.33899">
        <ele>74.6</ele>
        <time>2020-07-03T07:57:00Z</time>
      </trkpt>
      <trkpt lat="47.58425" lon="1.33898">
        <ele>74.7</ele>
        <time>2020-07-03T07:57:01Z</time>
      </trkpt>
      <trkpt lat="47.58424" lon="1.33895">
        <ele>75.1</ele>
        <time>2020-07-03T07:57:02Z</time>
      </trkpt>
      <trkpt lat="47.58423" lon="1.33893">
        <ele>75.1</ele>
        <time>2020-07-03T07:57:03Z</time>
      </trkpt>
      <trkpt lat="47.58424" lon="1.3389">
        <ele>75.1</ele>
        <time>2020-07-03T07:57:04Z</time>
      </trkpt>
      <trkpt lat="47.58424" lon="1.33889">
        <ele>75.1</ele>
        <time>2020-07-03T07:57:05Z</time>
      </trkpt>
      <trkpt lat="47.58425" lon="1.33888">
        <ele>75.5</ele>
        <time>2020-07-03T07:57:06Z</time>
      </trkpt>
      <trkpt lat="47.58427" lon="1.33883">
        <ele>75.7</ele>
        <time>2020-07-03T07:57:07Z</time>
      </trkpt>
      <trkpt lat="47.58429" lon="1.33882">
        <ele>75.8</ele>
        <time>2020-07-03T07:57:08Z</time>
      </trkpt>
      <trkpt lat="47.5843" lon="1.33879">
        <ele>75.9</ele>
        <time>2020-07-03T07:57:09Z</time>
      </trkpt>
      <trkpt lat="47.58433" lon="1.33876">
        <ele>76</ele>
        <time>2020-07-03T07:57:10Z</time>
      </trkpt>
      <trkpt lat="47.58435" lon="1.33873">
        <ele>76.2</ele>
        <time>2020-07-03T07:57:11Z</time>
      </trkpt>
      <trkpt lat="47.58438" lon="1.33869">
        <ele>76.3</ele>
        <time>2020-07-03T07:57:12Z</time>
      </trkpt>
      <trkpt lat="47.58441" lon="1.33865">
        <ele>76.5</ele>
        <time>2020-07-03T07:57:13Z</time>
      </trkpt>
      <trkpt lat="47.58442" lon="1.33862">
        <ele>76.6</ele>
        <time>2020-07-03T07:57:14Z</time>
      </trkpt>
      <trkpt lat="47.58445" lon="1.33857">
        <ele>76.8</ele>
        <time>2020-07-03T07:57:15Z</time>
      </trkpt>
      <trkpt lat="47.58448" lon="1.33854">
        <ele>77</ele>
        <time>2020-07-03T07:57:16Z</time>
      </trkpt>
      <trkpt lat="47.5845" lon="1.33851">
        <ele>77.1</ele>
        <time>2020-07-03T07:57:17Z</time>
      </trkpt>
      <trkpt lat="47.58453" lon="1.33847">
        <ele>77.3</ele>
        <time>2020-07-03T07:57:18Z</time>
      </trkpt>
      <trkpt lat="47.58455" lon="1.33844">
        <ele>77.4</ele>
        <time>2020-07-03T07:57:19Z</time>
      </trkpt>
      <trkpt lat="47.58458" lon="1.33841">
        <ele>77.6</ele>
        <time>2020-07-03T07:57:20Z</time>
      </trkpt>
      <trkpt lat="47.5846" lon="1.33837">
        <ele>77.7</ele>
        <time>2020-07-03T07:57:21Z</time>
      </trkpt>
      <trkpt lat="47.58464" lon="1.33834">
        <ele>77.9</ele>
        <time>2020-07-03T07:57:22Z</time>
      </trkpt>
      <trkpt lat="47.58465" lon="1.33833">
        <ele>78</ele>
        <time>2020-07-03T07:57:23Z</time>
      </trkpt>
      <trkpt lat="47.58468" lon="1.33829">
        <ele>78.1</ele>
        <time>2020-07-03T07:57:24Z</time>
      </trkpt>
      <trkpt lat="47.58468" lon="1.33828">
        <ele>78.2</ele>
        <time>2020-07-03T07:57:25Z</time>
      </trkpt>
      <trkpt lat="47.58471" lon="1.33823">
        <ele>78.4</ele>
        <time>2020-07-03T07:57:26Z</time>
      </trkpt>
      <trkpt lat="47.58472" lon="1.33822">
        <ele>78.4</ele>
        <time>2020-07-03T07:57:27Z</time>
      </trkpt>
      <trkpt lat="47.58474" lon="1.33818">
        <ele>78.6</ele>
        <time>2020-07-03T07:57:28Z</time>
      </trkpt>
      <trkpt lat="47.58477" lon="1.33814">
        <ele>78.7</ele>
        <time>2020-07-03T07:57:29Z</time>
      </trkpt>
      <trkpt lat="47.58478" lon="1.33813">
        <ele>78.8</ele>
        <time>2020-07-03T07:57:30Z</time>
      </trkpt>
      <trkpt lat="47.5848" lon="1.33808">
        <ele>79</ele>
        <time>2020-07-03T07:57:31Z</time>
      </trkpt>
      <trkpt lat="47.58481" lon="1.33807">
        <ele>79</ele>
        <time>2020-07-03T07:57:32Z</time>
      </trkpt>
      <trkpt lat="47.58483" lon="1.33803">
        <ele>79.2</ele>
        <time>2020-07-03T07:57:33Z</time>
      </trkpt>
      <trkpt lat="47.58484" lon="1.33802">
        <ele>79.2</ele>
        <time>2020-07-03T07:57:34Z</time>
      </trkpt>
      <trkpt lat="47.58486" lon="1.33798">
        <ele>79.4</ele>
        <time>2020-07-03T07:57:35Z</time>
      </trkpt>
      <trkpt lat="47.58487" lon="1.33797">
        <ele>79.5</ele>
        <time>2020-07-03T07:57:36Z</time>
      </trkpt>
      <trkpt lat="47.5849" lon="1.33793">
        <ele>79.6</ele>
        <time>2020-07-03T07:57:37Z</time>
      </trkpt>
      <trkpt lat="47.58492" lon="1.33792">
        <ele>79.7</ele>
        <time>2020-07-03T07:57:38Z</time>
      </trkpt>
      <trkpt lat="47.58494" lon="1.33788">
        <ele>79.8</ele>
        <time>2020-07-03T07:57:39Z</time>
      </trkpt>
      <trkpt lat="47.58496" lon="1.33785">
        <ele>80</ele>
        <time>2020-07-03T07:57:40Z</time>
      </trkpt>
      <trkpt lat="47.58498" lon="1.33782">
        <ele>80.1</ele>
        <time>2020-07-03T07:57:41Z</time>
      </trkpt>
      <trkpt lat="47.58501" lon="1.33778">
        <ele>80.2</ele>
        <time>2020-07-03T07:57:42Z</time>
      </trkpt>
      <trkpt lat="47.58501" lon="1.33776">
        <ele>80.2</ele>
        <time>2020-07-03T07:57:43Z</time>
      </trkpt>
      <trkpt lat="47.58504" lon="1.33773">
        <ele>80.3</ele>
        <time>2020-07-03T07:57:44Z</time>
      </trkpt>
      <trkpt lat="47.58505" lon="1.33772">
        <ele>80.3</ele>
        <time>2020-07-03T07:57:45Z</time>
      </trkpt>
      <trkpt lat="47.58507" lon="1.33769">
        <ele>80.3</ele>
        <time>2020-07-03T07:57:46Z</time>
      </trkpt>
      <trkpt lat="47.58508" lon="1.33767">
        <ele>80.2</ele>
        <time>2020-07-03T07:57:47Z</time>
      </trkpt>
      <trkpt lat="47.58509" lon="1.33766">
        <ele>80.2</ele>
        <time>2020-07-03T07:57:48Z</time>
      </trkpt>
      <trkpt lat="47.5851" lon="1.33765">
        <ele>80.2</ele>
        <time>2020-07-03T07:57:49Z</time>
      </trkpt>
      <trkpt lat="47.58511" lon="1.33764">
        <ele>80.2</ele>
        <time>2020-07-03T07:57:50Z</time>
      </trkpt>
      <trkpt lat="47.58512" lon="1.33764">
        <ele>80.1</ele>
        <time>2020-07-03T07:57:51Z</time>
      </trkpt>
      <trkpt lat="47.58511" lon="1.33764">
        <ele>80.1</ele>
        <time>2020-07-03T07:57:52Z</time>
      </trkpt>
      <trkpt lat="47.5851" lon="1.33765">
        <ele>80.1</ele>
        <time>2020-07-03T07:57:53Z</time>
      </trkpt>
      <trkpt lat="47.5851" lon="1.33766">
        <ele>80.1</ele>
        <time>2020-07-03T07:57:54Z</time>
      </trkpt>
      <trkpt lat="47.58509" lon="1.33767">
        <ele>80</ele>
        <time>2020-07-03T07:57:55Z</time>
      </trkpt>
      <trkpt lat="47.58508" lon="1.33768">
        <ele>80</ele>
        <time>2020-07-03T07:57:56Z</time>
      </trkpt>
      <trkpt lat="47.58507" lon="1.33769">
        <ele>80</ele>
        <time>2020-07-03T07:57:57Z</time>
      </trkpt>
      <trkpt lat="47.58507" lon="1.3377">
        <ele>79.9</ele>
        <time>2020-07-03T07:57:58Z</time>
      </trkpt>
      <trkpt lat="47.58506" lon="1.33771">
        <ele>79.9</ele>
        <time>2020-07-03T07:57:59Z</time>
      </trkpt>
      <trkpt lat="47.58505" lon="1.33772">
        <ele>79.9</ele>
        <time>2020-07-03T07:58:00Z</time>
      </trkpt>
      <trkpt lat="47.58505" lon="1.33773">
        <ele>79.8</ele>
        <time>2020-07-03T07:58:01Z</time>
      </trkpt>
      <trkpt lat="47.58504" lon="1.33774">
        <ele>79.8</ele>
        <time>2020-07-03T07:58:02Z</time>
      </trkpt>
      <trkpt lat="47.58503" lon="1.33775">
        <ele>79.7</ele>
        <time>2020-07-03T07:58:03Z</time>
      </trkpt>
      <trkpt lat="47.58502" lon="1.33776">
        <ele>79.7</ele>
        <time>2020-07-03T08:00:06Z</time>
      </trkpt>
      <trkpt lat="47.58502" lon="1.33777">
        <ele>79.7</ele>
        <time>2020-07-03T08:00:07Z</time>
      </trkpt>
      <trkpt lat="47.585" lon="1.3378">
        <ele>79.6</ele>
        <time>2020-07-03T08:00:08Z</time>
      </trkpt>
      <trkpt lat="47.58498" lon="1.33784">
        <ele>79.4</ele>
        <time>2020-07-03T08:00:09Z</time>
      </trkpt>
      <trkpt lat="47.58496" lon="1.33788">
        <ele>79.3</ele>
        <time>2020-07-03T08:00:10Z</time>
      </trkpt>
      <trkpt lat="47.58493" lon="1.33792">
        <ele>79.1</ele>
        <time>2020-07-03T08:00:11Z</time>
      </trkpt>
      <trkpt lat="47.5849" lon="1.33797">
        <ele>79</ele>
        <time>2020-07-03T08:00:12Z</time>
      </trkpt>
      <trkpt lat="47.58487" lon="1.33801">
        <ele>78.8</ele>
        <time>2020-07-03T08:00:13Z</time>
      </trkpt>
      <trkpt lat="47.58484" lon="1.33806">
        <ele>78.6</ele>
        <time>2020-07-03T08:00:14Z</time>
      </trkpt>
      <trkpt lat="47.58481" lon="1.33813">
        <ele>78.4</ele>
        <time>2020-07-03T08:00:15Z</time>
      </trkpt>
      <trkpt lat="47.58477" lon="1.33819">
        <ele>78.2</ele>
        <time>2020-07-03T08:00:16Z</time>
      </trkpt>
      <trkpt lat="47.58473" lon="1.33826">
        <ele>78</ele>
        <time>2020-07-03T08:00:17Z</time>
      </trkpt>
      <trkpt lat="47.5847" lon="1.33832">
        <ele>77.8</ele>
        <time>2020-07-03T08:00:18Z</time>
      </trkpt>
      <trkpt lat="47.58466" lon="1.33838">
        <ele>77.6</ele>
        <time>2020-07-03T08:00:19Z</time>
      </trkpt>
      <trkpt lat="47.58461" lon="1.33845">
        <ele>77.3</ele>
        <time>2020-07-03T08:00:20Z</time>
      </trkpt>
      <trkpt lat="47.58457" lon="1.33852">
        <ele>77</ele>
        <time>2020-07-03T08:00:21Z</time>
      </trkpt>
      <trkpt lat="47.58453" lon="1.33859">
        <ele>76.8</ele>
        <time>2020-07-03T08:00:22Z</time>
      </trkpt>
      <trkpt lat="47.58448" lon="1.33866">
        <ele>76.5</ele>
        <time>2020-07-03T08:00:23Z</time>
      </trkpt>
      <trkpt lat="47.58445" lon="1.33872">
        <ele>76.3</ele>
        <time>2020-07-03T08:00:24Z</time>
      </trkpt>
      <trkpt lat="47.5844" lon="1.33877">
        <ele>76.1</ele>
        <time>2020-07-03T08:00:25Z</time>
      </trkpt>
      <trkpt lat="47.58437" lon="1.33881">
        <ele>75.9</ele>
        <time>2020-07-03T08:00:26Z</time>
      </trkpt>
      <trkpt lat="47.58434" lon="1.33883">
        <ele>75.8</ele>
        <time>2020-07-03T08:00:27Z</time>
      </trkpt>
      <trkpt lat="47.58432" lon="1.33886">
        <ele>75.7</ele>
        <time>2020-07-03T08:00:28Z</time>
      </trkpt>
      <trkpt lat="47.5843" lon="1.33889">
        <ele>75.6</ele>
        <time>2020-07-03T08:00:29Z</time>
      </trkpt>
      <trkpt lat="47.58429" lon="1.33891">
        <ele>75.5</ele>
        <time>2020-07-03T08:00:30Z</time>
      </trkpt>
      <trkpt lat="47.58427" lon="1.33893">
        <ele>75.4</ele>
        <time>2020-07-03T08:00:31Z</time>
      </trkpt>
      <trkpt lat="47.58427" lon="1.33894">
        <ele>75.4</ele>
        <time>2020-07-03T08:00:32Z</time>
      </trkpt>
      <trkpt lat="47.58426" lon="1.33895">
        <ele>75.3</ele>
        <time>2020-07-03T08:00:33Z</time>
      </trkpt>
      <trkpt lat="47.58424" lon="1.33898">
        <ele>75.2</ele>
        <time>2020-07-03T08:00:34Z</time>
      </trkpt>
      <trkpt lat="47.58424" lon="1.33898">
        <ele>75.2</ele>
        <time>2020-07-03T08:00:35Z</time>
      </trkpt>
      <trkpt lat="47.58423" lon="1.33899">
        <ele>75.1</ele>
        <time>2020-07-03T08:00:36Z</time>
      </trkpt>
      <trkpt lat="47.58422" lon="1.33901">
        <ele>75</ele>
        <time>2020-07-03T08:00:37Z</time>
      </trkpt>
      <trkpt lat="47.58422" lon="1.33903">
        <ele>75</ele>
        <time>2020-07-03T08:00:38Z</time>
      </trkpt>
      <trkpt lat="47.58422" lon="1.33904">
        <ele>75</ele>
        <time>2020-07-03T08:00:39Z</time>
      </trkpt>
      <trkpt lat="47.58421" lon="1.33903">
        <ele>75</ele>
        <time>2020-07-03T08:00:40Z</time>
      </trkpt>
      <trkpt lat="47.58421" lon="1.33902">
        <ele>75</ele>
        <time>2020-07-03T08:00:41Z</time>
      </trkpt>
      <trkpt lat="47.5842" lon="1.33901">
        <ele>75</ele>
        <time>2020-07-03T08:00:42Z</time>
      </trkpt>
      <trkpt lat="47.5842" lon="1.33901">
        <ele>75</ele>
        <time>2020-07-03T08:00:43Z</time>
      </trkpt>
      <trkpt lat="47.58419" lon="1.339">
        <ele>75</ele>
        <time>2020-07-03T08:00:44Z</time>
      </trkpt>
      <trkpt lat="47.58418" lon="1.33899">
        <ele>75</ele>
        <time>2020-07-03T08:00:45Z</time>
      </trkpt>
      <trkpt lat="47.58418" lon="1.33898">
        <ele>75</ele>
        <time>2020-07-03T08:00:46Z</time>
      </trkpt>
      <trkpt lat="47.58417" lon="1.33897">
        <ele>75</ele>
        <time>2020-07-03T08:00:47Z</time>
      </trkpt>
      <trkpt lat="47.58417" lon="1.33897">
        <ele>75</ele>
        <time>2020-07-03T08:00:48Z</time>
      </trkpt>
      <trkpt lat="47.58416" lon="1.33896">
        <ele>75</ele>
        <time>2020-07-03T08:00:49Z</time>
      </trkpt>
      <trkpt lat="47.58416" lon="1.33895">
        <ele>75</ele>
        <time>2020-07-03T08:00:50Z</time>
      </trkpt>
      <trkpt lat="47.58415" lon="1.33894">
        <ele>75</ele>
        <time>2020-07-03T08:00:51Z</time>
      </trkpt>
      <trkpt lat="47.58415" lon="1.33893">
        <ele>75</ele>
        <time>2020-07-03T08:00:52Z</time>
      </trkpt>
      <trkpt lat="47.58414" lon="1.33893">
        <ele>75</ele>
        <time>2020-07-03T08:01:01Z</time>
      </trkpt>
      <trkpt lat="47.58413" lon="1.33892">
        <ele>75</ele>
        <time>2020-07-03T08:01:02Z</time>
      </trkpt>
      <trkpt lat="47.58413" lon="1.33891">
        <ele>75</ele>
        <time>2020-07-03T08:01:03Z</time>
      </trkpt>
      <trkpt lat="47.58411" lon="1.33888">
        <ele>74.6</ele>
        <time>2020-07-03T08:01:04Z</time>
      </trkpt>
      <trkpt lat="47.58408" lon="1.33885">
        <ele>74.4</ele>
        <time>2020-07-03T08:01:05Z</time>
      </trkpt>
      <trkpt lat="47.58406" lon="1.3388">
        <ele>74.1</ele>
        <time>2020-07-03T08:01:06Z</time>
      </trkpt>
      <trkpt lat="47.58403" lon="1.33874">
        <ele>73.8</ele>
        <time>2020-07-03T08:01:07Z</time>
      </trkpt>
      <trkpt lat="47.58401" lon="1.3387">
        <ele>73.6</ele>
        <time>2020-07-03T08:01:08Z</time>
      </trkpt>
      <trkpt lat="47.58398" lon="1.33862">
        <ele>73.2</ele>
        <time>2020-07-03T08:01:09Z</time>
      </trkpt>
      <trkpt lat="47.58394" lon="1.33855">
        <ele>72.8</ele>
        <time>2020-07-03T08:01:10Z</time>
      </trkpt>
      <trkpt lat="47.58391" lon="1.3385">
        <ele>72.4</ele>
        <time>2020-07-03T08:01:11Z</time>
      </trkpt>
      <trkpt lat="47.58387" lon="1.33844">
        <ele>72</ele>
        <time>2020-07-03T08:01:12Z</time>
      </trkpt>
      <trkpt lat="47.58383" lon="1.33837">
        <ele>71.5</ele>
        <time>2020-07-03T08:01:13Z</time>
      </trkpt>
      <trkpt lat="47.5838" lon="1.3383">
        <ele>71</ele>
        <time>2020-07-03T08:01:14Z</time>
      </trkpt>
      <trkpt lat="47.58375" lon="1.33823">
        <ele>70.4</ele>
        <time>2020-07-03T08:01:15Z</time>
      </trkpt>
      <trkpt lat="47.5837" lon="1.33815">
        <ele>69.8</ele>
        <time>2020-07-03T08:01:16Z</time>
      </trkpt>
      <trkpt lat="47.58365" lon="1.33807">
        <ele>69.2</ele>
        <time>2020-07-03T08:01:17Z</time>
      </trkpt>
      <trkpt lat="47.58359" lon="1.33798">
        <ele>68.5</ele>
        <time>2020-07-03T08:01:18Z</time>
      </trkpt>
      <trkpt lat="47.58353" lon="1.33787">
        <ele>67.9</ele>
        <time>2020-07-03T08:01:19Z</time>
      </trkpt>
      <trkpt lat="47.58347" lon="1.33778">
        <ele>67.6</ele>
        <time>2020-07-03T08:01:20Z</time>
      </trkpt>
      <trkpt lat="47.58342" lon="1.33767">
        <ele>67.4</ele>
        <time>2020-07-03T08:01:21Z</time>
      </trkpt>
      <trkpt lat="47.58338" lon="1.33758">
        <ele>67.3</ele>
        <time>2020-07-03T08:01:22Z</time>
      </trkpt>
      <trkpt lat="47.58334" lon="1.33749">
        <ele>67.2</ele>
        <time>2020-07-03T08:01:23Z</time>
      </trkpt>
      <trkpt lat="47.5833" lon="1.33742">
        <ele>67.2</ele>
        <time>2020-07-03T08:01:24Z</time>
      </trkpt>
      <trkpt lat="47.58326" lon="1.33735">
        <ele>67.2</ele>
        <time>2020-07-03T08:01:25Z</time>
      </trkpt>
      <trkpt lat="47.58322" lon="1.33728">
        <ele>67.1</ele>
        <time>2020-07-03T08:01:26Z</time>
      </trkpt>
      <trkpt lat="47.58317" lon="1.33723">
        <ele>67.1</ele>
        <time>2020-07-03T08:01:27Z</time>
      </trkpt>
      <trkpt lat="47.58313" lon="1.33716">
        <ele>67.1</ele>
        <time>2020-07-03T08:01:28Z</time>
      </trkpt>
      <trkpt lat="47.58309" lon="1.3371">
        <ele>67.1</ele>
        <time>2020-07-03T08:01:29Z</time>
      </trkpt>
      <trkpt lat="47.58305" lon="1.33703">
        <ele>67.1</ele>
        <time>2020-07-03T08:01:30Z</time>
      </trkpt>
      <trkpt lat="47.583" lon="1.33697">
        <ele>67.1</ele>
        <time>2020-07-03T08:01:31Z</time>
      </trkpt>
      <trkpt lat="47.58296" lon="1.33692">
        <ele>67</ele>
        <time>2020-07-03T08:01:32Z</time>
      </trkpt>
      <trkpt lat="47.58292" lon="1.33686">
        <ele>67</ele>
        <time>2020-07-03T08:01:33Z</time>
      </trkpt>
      <trkpt lat="47.58288" lon="1.3368">
        <ele>67</ele>
        <time>2020-07-03T08:01:34Z</time>
      </trkpt>
      <trkpt lat="47.58284" lon="1.33674">
        <ele>67</ele>
        <time>2020-07-03T08:01:35Z</time>
      </trkpt>
      <trkpt lat="47.58281" lon="1.33667">
        <ele>67</ele>
        <time>2020-07-03T08:01:36Z</time>
      </trkpt>
      <trkpt lat="47.58276" lon="1.33661">
        <ele>67</ele>
        <time>2020-07-03T08:01:37Z</time>
      </trkpt>
      <trkpt lat="47.58273" lon="1.33654">
        <ele>67</ele>
        <time>2020-07-03T08:01:38Z</time>
      </trkpt>
      <trkpt lat="47.58268" lon="1.33648">
        <ele>67</ele>
        <time>2020-07-03T08:01:39Z</time>
      </trkpt>
      <trkpt lat="47.58264" lon="1.33641">
        <ele>67</ele>
        <time>2020-07-03T08:01:40Z</time>
      </trkpt>
      <trkpt lat="47.5826" lon="1.33635">
        <ele>67</ele>
        <time>2020-07-03T08:01:41Z</time>
      </trkpt>
      <trkpt lat="47.58256" lon="1.33629">
        <ele>67</ele>
        <time>2020-07-03T08:01:42Z</time>
      </trkpt>
      <trkpt lat="47.58252" lon="1.33623">
        <ele>67</ele>
        <time>2020-07-03T08:01:43Z</time>
      </trkpt>
      <trkpt lat="47.58248" lon="1.33615">
        <ele>67</ele>
        <time>2020-07-03T08:01:44Z</time>
      </trkpt>
      <trkpt lat="47.58244" lon="1.33609">
        <ele>66.9</ele>
        <time>2020-07-03T08:01:45Z</time>
      </trkpt>
      <trkpt lat="47.5824" lon="1.33602">
        <ele>66.9</ele>
        <time>2020-07-03T08:01:46Z</time>
      </trkpt>
      <trkpt lat="47.58236" lon="1.33595">
        <ele>66.9</ele>
        <time>2020-07-03T08:01:47Z</time>
      </trkpt>
      <trkpt lat="47.58232" lon="1.3359">
        <ele>66.9</ele>
        <time>2020-07-03T08:01:48Z</time>
      </trkpt>
      <trkpt lat="47.58228" lon="1.33584">
        <ele>66.9</ele>
        <time>2020-07-03T08:01:49Z</time>
      </trkpt>
      <trkpt lat="47.58223" lon="1.33578">
        <ele>66.9</ele>
        <time>2020-07-03T08:01:50Z</time>
      </trkpt>
      <trkpt lat="47.58219" lon="1.33571">
        <ele>66.9</ele>
        <time>2020-07-03T08:01:51Z</time>
      </trkpt>
      <trkpt lat="47.58215" lon="1.33564">
        <ele>66.9</ele>
        <time>2020-07-03T08:01:52Z</time>
      </trkpt>
      <trkpt lat="47.58211" lon="1.33557">
        <ele>66.8</ele>
        <time>2020-07-03T08:01:53Z</time>
      </trkpt>
      <trkpt lat="47.58206" lon="1.33551">
        <ele>66.8</ele>
        <time>2020-07-03T08:01:54Z</time>
      </trkpt>
      <trkpt lat="47.58202" lon="1.33545">
        <ele>66.8</ele>
        <time>2020-07-03T08:01:55Z</time>
      </trkpt>
      <trkpt lat="47.58198" lon="1.33539">
        <ele>66.8</ele>
        <time>2020-07-03T08:01:56Z</time>
      </trkpt>
      <trkpt lat="47.58194" lon="1.33532">
        <ele>66.8</ele>
        <time>2020-07-03T08:01:57Z</time>
      </trkpt>
      <trkpt lat="47.58189" lon="1.33526">
        <ele>66.8</ele>
        <time>2020-07-03T08:01:58Z</time>
      </trkpt>
      <trkpt lat="47.58185" lon="1.33519">
        <ele>66.8</ele>
        <time>2020-07-03T08:01:59Z</time>
      </trkpt>
      <trkpt lat="47.58181" lon="1.33513">
        <ele>66.8</ele>
        <time>2020-07-03T08:02:00Z</time>
      </trkpt>
      <trkpt lat="47.58176" lon="1.33507">
        <ele>66.7</ele>
        <time>2020-07-03T08:02:01Z</time>
      </trkpt>
      <trkpt lat="47.58172" lon="1.33501">
        <ele>66.7</ele>
        <time>2020-07-03T08:02:02Z</time>
      </trkpt>
      <trkpt lat="47.58169" lon="1.33494">
        <ele>66.7</ele>
        <time>2020-07-03T08:02:03Z</time>
      </trkpt>
      <trkpt lat="47.58165" lon="1.33487">
        <ele>66.7</ele>
        <time>2020-07-03T08:02:04Z</time>
      </trkpt>
      <trkpt lat="47.58161" lon="1.33481">
        <ele>66.7</ele>
        <time>2020-07-03T08:02:05Z</time>
      </trkpt>
      <trkpt lat="47.58156" lon="1.33475">
        <ele>66.7</ele>
        <time>2020-07-03T08:02:06Z</time>
      </trkpt>
      <trkpt lat="47.58153" lon="1.33469">
        <ele>66.7</ele>
        <time>2020-07-03T08:02:07Z</time>
      </trkpt>
      <trkpt lat="47.58149" lon="1.33464">
        <ele>66.7</ele>
        <time>2020-07-03T08:02:08Z</time>
      </trkpt>
      <trkpt lat="47.58145" lon="1.3346">
        <ele>66.7</ele>
        <time>2020-07-03T08:02:09Z</time>
      </trkpt>
      <trkpt lat="47.58142" lon="1.33457">
        <ele>66.7</ele>
        <time>2020-07-03T08:02:10Z</time>
      </trkpt>
      <trkpt lat="47.5814" lon="1.33456">
        <ele>66.7</ele>
        <time>2020-07-03T08:02:11Z</time>
      </trkpt>
      <trkpt lat="47.5814" lon="1.33457">
        <ele>66.7</ele>
        <time>2020-07-03T08:02:12Z</time>
      </trkpt>
      <trkpt lat="47.58141" lon="1.33457">
        <ele>66.7</ele>
        <time>2020-07-03T08:02:13Z</time>
      </trkpt>
      <trkpt lat="47.58141" lon="1.33458">
        <ele>66.6</ele>
        <time>2020-07-03T08:02:14Z</time>
      </trkpt>
      <trkpt lat="47.58141" lon="1.33459">
        <ele>66.6</ele>
        <time>2020-07-03T08:02:15Z</time>
      </trkpt>
      <trkpt lat="47.58141" lon="1.33458">
        <ele>66.6</ele>
        <time>2020-07-03T08:02:16Z</time>
      </trkpt>
      <trkpt lat="47.58141" lon="1.33457">
        <ele>66.6</ele>
        <time>2020-07-03T08:02:17Z</time>
      </trkpt>
      <trkpt lat="47.58141" lon="1.33456">
        <ele>66.6</ele>
        <time>2020-07-03T08:02:18Z</time>
      </trkpt>
      <trkpt lat="47.58141" lon="1.33456">
        <ele>66.6</ele>
        <time>2020-07-03T08:02:19Z</time>
      </trkpt>
      <trkpt lat="47.58141" lon="1.33456">
        <ele>66.6</ele>
        <time>2020-07-03T08:02:20Z</time>
      </trkpt>
      <trkpt lat="47.58141" lon="1.33456">
        <ele>66.6</ele>
        <time>2020-07-03T08:02:21Z</time>
      </trkpt>
      <trkpt lat="47.5814" lon="1.33456">
        <ele>66.6</ele>
        <time>2020-07-03T08:02:22Z</time>
      </trkpt>
      <trkpt lat="47.5814" lon="1.33456">
        <ele>66.6</ele>
        <time>2020-07-03T08:02:23Z</time>
      </trkpt>
      <trkpt lat="47.58141" lon="1.33455">
        <ele>66.6</ele>
        <time>2020-07-03T08:02:24Z</time>
      </trkpt>
      <trkpt lat="47.58141" lon="1.33456">
        <ele>66.6</ele>
        <time>2020-07-03T08:02:25Z</time>
      </trkpt>
      <trkpt lat="47.58141" lon="1.33456">
        <ele>66.6</ele>
        <time>2020-07-03T08:02:26Z</time>
      </trkpt>
      <trkpt lat="47.58141" lon="1.33455">
        <ele>66.6</ele>
        <time>2020-07-03T08:02:27Z</time>
      </trkpt>
      <trkpt lat="47.5814" lon="1.33455">
        <ele>66.6</ele>
        <time>2020-07-03T08:02:28Z</time>
      </trkpt>
      <trkpt lat="47.5814" lon="1.33454">
        <ele>66.6</ele>
        <time>2020-07-03T08:02:29Z</time>
      </trkpt>
      <trkpt lat="47.58141" lon="1.33454">
        <ele>66.6</ele>
        <time>2020-07-03T08:02:30Z</time>
      </trkpt>
      <trkpt lat="47.58141" lon="1.33454">
        <ele>66.6</ele>
        <time>2020-07-03T08:02:31Z</time>
      </trkpt>
      <trkpt lat="47.58135" lon="1.33443">
        <ele>66.5</ele>
        <time>2020-07-03T08:03:38Z</time>
      </trkpt>
      <trkpt lat="47.58132" lon="1.3344">
        <ele>66.5</ele>
        <time>2020-07-03T08:03:39Z</time>
      </trkpt>
      <trkpt lat="47.5813" lon="1.33436">
        <ele>66.5</ele>
        <time>2020-07-03T08:03:40Z</time>
      </trkpt>
      <trkpt lat="47.58128" lon="1.33432">
        <ele>66.5</ele>
        <time>2020-07-03T08:03:41Z</time>
      </trkpt>
      <trkpt lat="47.58125" lon="1.33428">
        <ele>66.5</ele>
        <time>2020-07-03T08:03:42Z</time>
      </trkpt>
      <trkpt lat="47.58122" lon="1.33424">
        <ele>66.5</ele>
        <time>2020-07-03T08:03:43Z</time>
      </trkpt>
      <trkpt lat="47.58119" lon="1.33418">
        <ele>66.5</ele>
        <time>2020-07-03T08:03:44Z</time>
      </trkpt>
      <trkpt lat="47.58115" lon="1.33414">
        <ele>66.5</ele>
        <time>2020-07-03T08:03:45Z</time>
      </trkpt>
      <trkpt lat="47.58111" lon="1.33408">
        <ele>66.5</ele>
        <time>2020-07-03T08:03:46Z</time>
      </trkpt>
      <trkpt lat="47.58107" lon="1.33402">
        <ele>66.5</ele>
        <time>2020-07-03T08:03:47Z</time>
      </trkpt>
      <trkpt lat="47.58102" lon="1.33395">
        <ele>66.4</ele>
        <time>2020-07-03T08:03:48Z</time>
      </trkpt>
      <trkpt lat="47.58098" lon="1.33389">
        <ele>66.4</ele>
        <time>2020-07-03T08:03:49Z</time>
      </trkpt>
      <trkpt lat="47.58093" lon="1.33382">
        <ele>66.4</ele>
        <time>2020-07-03T08:03:50Z</time>
      </trkpt>
      <trkpt lat="47.58089" lon="1.33376">
        <ele>66.4</ele>
        <time>2020-07-03T08:03:51Z</time>
      </trkpt>
      <trkpt lat="47.58084" lon="1.33369">
        <ele>66.3</ele>
        <time>2020-07-03T08:03:52Z</time>
      </trkpt>
      <trkpt lat="47.5808" lon="1.33362">
        <ele>66.3</ele>
        <time>2020-07-03T08:03:53Z</time>
      </trkpt>
      <trkpt lat="47.58075" lon="1.33355">
        <ele>66.3</ele>
        <time>2020-07-03T08:03:54Z</time>
      </trkpt>
      <trkpt lat="47.58071" lon="1.33348">
        <ele>66.3</ele>
        <time>2020-07-03T08:03:55Z</time>
      </trkpt>
      <trkpt lat="47.58066" lon="1.33341">
        <ele>66.3</ele>
        <time>2020-07-03T08:03:56Z</time>
      </trkpt>
      <trkpt lat="47.58062" lon="1.33335">
        <ele>66.3</ele>
        <time>2020-07-03T08:03:57Z</time>
      </trkpt>
      <trkpt lat="47.58057" lon="1.33329">
        <ele>66.3</ele>
        <time>2020-07-03T08:03:58Z</time>
      </trkpt>
      <trkpt lat="47.58052" lon="1.33323">
        <ele>66.3</ele>
        <time>2020-07-03T08:03:59Z</time>
      </trkpt>
      <trkpt lat="47.58047" lon="1.33317">
        <ele>66.3</ele>
        <time>2020-07-03T08:04:00Z</time>
      </trkpt>
      <trkpt lat="47.58043" lon="1.33311">
        <ele>66.3</ele>
        <time>2020-07-03T08:04:01Z</time>
      </trkpt>
      <trkpt lat="47.58037" lon="1.33307">
        <ele>66.3</ele>
        <time>2020-07-03T08:04:02Z</time>
      </trkpt>
      <trkpt lat="47.58032" lon="1.33301">
        <ele>66.3</ele>
        <time>2020-07-03T08:04:03Z</time>
      </trkpt>
      <trkpt lat="47.58027" lon="1.33296">
        <ele>66.3</ele>
        <time>2020-07-03T08:04:04Z</time>
      </trkpt>
      <trkpt lat="47.58022" lon="1.3329">
        <ele>66.3</ele>
        <time>2020-07-03T08:04:05Z</time>
      </trkpt>
      <trkpt lat="47.58017" lon="1.33284">
        <ele>66.3</ele>
        <time>2020-07-03T08:04:06Z</time>
      </trkpt>
      <trkpt lat="47.58013" lon="1.33278">
        <ele>66.3</ele>
        <time>2020-07-03T08:04:07Z</time>
      </trkpt>
      <trkpt lat="47.58008" lon="1.33272">
        <ele>66.3</ele>
        <time>2020-07-03T08:04:08Z</time>
      </trkpt>
      <trkpt lat="47.58003" lon="1.33266">
        <ele>66.3</ele>
        <time>2020-07-03T08:04:09Z</time>
      </trkpt>
      <trkpt lat="47.57998" lon="1.33259">
        <ele>66.4</ele>
        <time>2020-07-03T08:04:10Z</time>
      </trkpt>
      <trkpt lat="47.57994" lon="1.33253">
        <ele>66.4</ele>
        <time>2020-07-03T08:04:11Z</time>
      </trkpt>
      <trkpt lat="47.57989" lon="1.33247">
        <ele>66.4</ele>
        <time>2020-07-03T08:04:12Z</time>
      </trkpt>
      <trkpt lat="47.57984" lon="1.3324">
        <ele>66.4</ele>
        <time>2020-07-03T08:04:13Z</time>
      </trkpt>
      <trkpt lat="47.5798" lon="1.33233">
        <ele>66.4</ele>
        <time>2020-07-03T08:04:14Z</time>
      </trkpt>
      <trkpt lat="47.57975" lon="1.33227">
        <ele>66.3</ele>
        <time>2020-07-03T08:04:15Z</time>
      </trkpt>
      <trkpt lat="47.5797" lon="1.3322">
        <ele>66.3</ele>
        <time>2020-07-03T08:04:16Z</time>
      </trkpt>
      <trkpt lat="47.57965" lon="1.33214">
        <ele>66.3</ele>
        <time>2020-07-03T08:04:17Z</time>
      </trkpt>
      <trkpt lat="47.5796" lon="1.33207">
        <ele>66.2</ele>
        <time>2020-07-03T08:04:18Z</time>
      </trkpt>
      <trkpt lat="47.57955" lon="1.33201">
        <ele>66.2</ele>
        <time>2020-07-03T08:04:19Z</time>
      </trkpt>
      <trkpt lat="47.57951" lon="1.33194">
        <ele>66.2</ele>
        <time>2020-07-03T08:04:20Z</time>
      </trkpt>
      <trkpt lat="47.57946" lon="1.33187">
        <ele>66.1</ele>
        <time>2020-07-03T08:04:21Z</time>
      </trkpt>
      <trkpt lat="47.57941" lon="1.33181">
        <ele>66.1</ele>
        <time>2020-07-03T08:04:22Z</time>
      </trkpt>
      <trkpt lat="47.57936" lon="1.33174">
        <ele>66.1</ele>
        <time>2020-07-03T08:04:23Z</time>
      </trkpt>
      <trkpt lat="47.57932" lon="1.33168">
        <ele>66.1</ele>
        <time>2020-07-03T08:04:24Z</time>
      </trkpt>
      <trkpt lat="47.57928" lon="1.33162">
        <ele>66.1</ele>
        <time>2020-07-03T08:04:25Z</time>
      </trkpt>
      <trkpt lat="47.57923" lon="1.33155">
        <ele>66.1</ele>
        <time>2020-07-03T08:04:26Z</time>
      </trkpt>
      <trkpt lat="47.57918" lon="1.33149">
        <ele>66.1</ele>
        <time>2020-07-03T08:04:27Z</time>
      </trkpt>
      <trkpt lat="47.57913" lon="1.33143">
        <ele>66.1</ele>
        <time>2020-07-03T08:04:28Z</time>
      </trkpt>
      <trkpt lat="47.57909" lon="1.33137">
        <ele>66.1</ele>
        <time>2020-07-03T08:04:29Z</time>
      </trkpt>
      <trkpt lat="47.57904" lon="1.3313">
        <ele>66.1</ele>
        <time>2020-07-03T08:04:30Z</time>
      </trkpt>
      <trkpt lat="47.579" lon="1.33123">
        <ele>66.1</ele>
        <time>2020-07-03T08:04:31Z</time>
      </trkpt>
      <trkpt lat="47.57896" lon="1.33116">
        <ele>66.1</ele>
        <time>2020-07-03T08:04:32Z</time>
      </trkpt>
      <trkpt lat="47.57892" lon="1.33109">
        <ele>66.1</ele>
        <time>2020-07-03T08:04:33Z</time>
      </trkpt>
      <trkpt lat="47.57888" lon="1.33102">
        <ele>66.1</ele>
        <time>2020-07-03T08:04:34Z</time>
      </trkpt>
      <trkpt lat="47.57885" lon="1.33095">
        <ele>66.1</ele>
        <time>2020-07-03T08:04:35Z</time>
      </trkpt>
      <trkpt lat="47.57881" lon="1.33088">
        <ele>66.1</ele>
        <time>2020-07-03T08:04:36Z</time>
      </trkpt>
      <trkpt lat="47.57877" lon="1.33081">
        <ele>66.1</ele>
        <time>2020-07-03T08:04:37Z</time>
      </trkpt>
      <trkpt lat="47.57873" lon="1.33075">
        <ele>66</ele>
        <time>2020-07-03T08:04:38Z</time>
      </trkpt>
      <trkpt lat="47.57868" lon="1.33067">
        <ele>66</ele>
        <time>2020-07-03T08:04:39Z</time>
      </trkpt>
      <trkpt lat="47.57865" lon="1.3306">
        <ele>65.9</ele>
        <time>2020-07-03T08:04:40Z</time>
      </trkpt>
      <trkpt lat="47.5786" lon="1.33053">
        <ele>65.9</ele>
        <time>2020-07-03T08:04:41Z</time>
      </trkpt>
      <trkpt lat="47.57856" lon="1.33045">
        <ele>65.9</ele>
        <time>2020-07-03T08:04:42Z</time>
      </trkpt>
      <trkpt lat="47.57852" lon="1.33039">
        <ele>65.9</ele>
        <time>2020-07-03T08:04:43Z</time>
      </trkpt>
      <trkpt lat="47.57848" lon="1.33033">
        <ele>66</ele>
        <time>2020-07-03T08:04:44Z</time>
      </trkpt>
      <trkpt lat="47.57844" lon="1.33027">
        <ele>66</ele>
        <time>2020-07-03T08:04:45Z</time>
      </trkpt>
      <trkpt lat="47.5784" lon="1.3302">
        <ele>66</ele>
        <time>2020-07-03T08:04:46Z</time>
      </trkpt>
      <trkpt lat="47.57835" lon="1.33013">
        <ele>66.1</ele>
        <time>2020-07-03T08:04:47Z</time>
      </trkpt>
      <trkpt lat="47.57831" lon="1.33006">
        <ele>66.2</ele>
        <time>2020-07-03T08:04:48Z</time>
      </trkpt>
      <trkpt lat="47.57826" lon="1.33001">
        <ele>66.3</ele>
        <time>2020-07-03T08:04:49Z</time>
      </trkpt>
      <trkpt lat="47.57822" lon="1.32997">
        <ele>66.5</ele>
        <time>2020-07-03T08:04:50Z</time>
      </trkpt>
      <trkpt lat="47.57819" lon="1.32994">
        <ele>66.6</ele>
        <time>2020-07-03T08:04:51Z</time>
      </trkpt>
      <trkpt lat="47.57813" lon="1.32987">
        <ele>66.7</ele>
        <time>2020-07-03T08:04:52Z</time>
      </trkpt>
      <trkpt lat="47.57809" lon="1.32982">
        <ele>66.9</ele>
        <time>2020-07-03T08:04:53Z</time>
      </trkpt>
      <trkpt lat="47.57805" lon="1.32977">
        <ele>67</ele>
        <time>2020-07-03T08:04:54Z</time>
      </trkpt>
      <trkpt lat="47.578" lon="1.32972">
        <ele>67.1</ele>
        <time>2020-07-03T08:04:55Z</time>
      </trkpt>
      <trkpt lat="47.57795" lon="1.32966">
        <ele>67.1</ele>
        <time>2020-07-03T08:04:56Z</time>
      </trkpt>
      <trkpt lat="47.5779" lon="1.32961">
        <ele>67.2</ele>
        <time>2020-07-03T08:04:57Z</time>
      </trkpt>
      <trkpt lat="47.57786" lon="1.32956">
        <ele>67.2</ele>
        <time>2020-07-03T08:04:58Z</time>
      </trkpt>
      <trkpt lat="47.57782" lon="1.32949">
        <ele>67.2</ele>
        <time>2020-07-03T08:04:59Z</time>
      </trkpt>
      <trkpt lat="47.57777" lon="1.32942">
        <ele>67.2</ele>
        <time>2020-07-03T08:05:00Z</time>
      </trkpt>
      <trkpt lat="47.57773" lon="1.32937">
        <ele>67.2</ele>
        <time>2020-07-03T08:05:01Z</time>
      </trkpt>
      <trkpt lat="47.57769" lon="1.32933">
        <ele>67.2</ele>
        <time>2020-07-03T08:05:02Z</time>
      </trkpt>
      <trkpt lat="47.57765" lon="1.32927">
        <ele>67.2</ele>
        <time>2020-07-03T08:05:03Z</time>
      </trkpt>
      <trkpt lat="47.57761" lon="1.32921">
        <ele>67.2</ele>
        <time>2020-07-03T08:05:04Z</time>
      </trkpt>
      <trkpt lat="47.57758" lon="1.32916">
        <ele>67.2</ele>
        <time>2020-07-03T08:05:05Z</time>
      </trkpt>
      <trkpt lat="47.57754" lon="1.3291">
        <ele>67.2</ele>
        <time>2020-07-03T08:05:06Z</time>
      </trkpt>
      <trkpt lat="47.5775" lon="1.32904">
        <ele>67.2</ele>
        <time>2020-07-03T08:05:07Z</time>
      </trkpt>
      <trkpt lat="47.57747" lon="1.32898">
        <ele>67.2</ele>
        <time>2020-07-03T08:05:08Z</time>
      </trkpt>
      <trkpt lat="47.57744" lon="1.32891">
        <ele>67.1</ele>
        <time>2020-07-03T08:05:09Z</time>
      </trkpt>
      <trkpt lat="47.57741" lon="1.32884">
        <ele>67.1</ele>
        <time>2020-07-03T08:05:10Z</time>
      </trkpt>
      <trkpt lat="47.57737" lon="1.32878">
        <ele>67.1</ele>
        <time>2020-07-03T08:05:11Z</time>
      </trkpt>
      <trkpt lat="47.57733" lon="1.32871">
        <ele>67.1</ele>
        <time>2020-07-03T08:05:12Z</time>
      </trkpt>
      <trkpt lat="47.57729" lon="1.32863">
        <ele>67</ele>
        <time>2020-07-03T08:05:13Z</time>
      </trkpt>
      <trkpt lat="47.57726" lon="1.32857">
        <ele>67</ele>
        <time>2020-07-03T08:05:14Z</time>
      </trkpt>
      <trkpt lat="47.57723" lon="1.3285">
        <ele>67</ele>
        <time>2020-07-03T08:05:15Z</time>
      </trkpt>
      <trkpt lat="47.57719" lon="1.32843">
        <ele>67</ele>
        <time>2020-07-03T08:05:16Z</time>
      </trkpt>
      <trkpt lat="47.57716" lon="1.32836">
        <ele>66.9</ele>
        <time>2020-07-03T08:05:17Z</time>
      </trkpt>
      <trkpt lat="47.57712" lon="1.32829">
        <ele>66.9</ele>
        <time>2020-07-03T08:05:18Z</time>
      </trkpt>
      <trkpt lat="47.57709" lon="1.32823">
        <ele>66.9</ele>
        <time>2020-07-03T08:05:19Z</time>
      </trkpt>
      <trkpt lat="47.57706" lon="1.32818">
        <ele>66.9</ele>
        <time>2020-07-03T08:05:20Z</time>
      </trkpt>
      <trkpt lat="47.57702" lon="1.32813">
        <ele>66.9</ele>
        <time>2020-07-03T08:05:21Z</time>
      </trkpt>
      <trkpt lat="47.57699" lon="1.32808">
        <ele>66.9</ele>
        <time>2020-07-03T08:05:22Z</time>
      </trkpt>
      <trkpt lat="47.57696" lon="1.32802">
        <ele>66.9</ele>
        <time>2020-07-03T08:05:23Z</time>
      </trkpt>
      <trkpt lat="47.57693" lon="1.32797">
        <ele>66.9</ele>
        <time>2020-07-03T08:05:24Z</time>
      </trkpt>
      <trkpt lat="47.57691" lon="1.32793">
        <ele>66.9</ele>
        <time>2020-07-03T08:05:25Z</time>
      </trkpt>
      <trkpt lat="47.57688" lon="1.32789">
        <ele>66.9</ele>
        <time>2020-07-03T08:05:26Z</time>
      </trkpt>
      <trkpt lat="47.57686" lon="1.32784">
        <ele>66.9</ele>
        <time>2020-07-03T08:05:27Z</time>
      </trkpt>
      <trkpt lat="47.57684" lon="1.3278">
        <ele>66.9</ele>
        <time>2020-07-03T08:05:28Z</time>
      </trkpt>
      <trkpt lat="47.57681" lon="1.32775">
        <ele>66.9</ele>
        <time>2020-07-03T08:05:29Z</time>
      </trkpt>
      <trkpt lat="47.57679" lon="1.32772">
        <ele>66.9</ele>
        <time>2020-07-03T08:05:30Z</time>
      </trkpt>
      <trkpt lat="47.57677" lon="1.32766">
        <ele>66.9</ele>
        <time>2020-07-03T08:05:31Z</time>
      </trkpt>
      <trkpt lat="47.57675" lon="1.32761">
        <ele>66.9</ele>
        <time>2020-07-03T08:05:32Z</time>
      </trkpt>
      <trkpt lat="47.57673" lon="1.32756">
        <ele>66.8</ele>
        <time>2020-07-03T08:05:33Z</time>
      </trkpt>
      <trkpt lat="47.57671" lon="1.3275">
        <ele>66.8</ele>
        <time>2020-07-03T08:05:34Z</time>
      </trkpt>
      <trkpt lat="47.57669" lon="1.32745">
        <ele>66.8</ele>
        <time>2020-07-03T08:05:35Z</time>
      </trkpt>
      <trkpt lat="47.57667" lon="1.32741">
        <ele>66.8</ele>
        <time>2020-07-03T08:05:36Z</time>
      </trkpt>
      <trkpt lat="47.57665" lon="1.32737">
        <ele>66.7</ele>
        <time>2020-07-03T08:05:37Z</time>
      </trkpt>
      <trkpt lat="47.57664" lon="1.32733">
        <ele>66.7</ele>
        <time>2020-07-03T08:05:38Z</time>
      </trkpt>
      <trkpt lat="47.57662" lon="1.32729">
        <ele>66.7</ele>
        <time>2020-07-03T08:05:39Z</time>
      </trkpt>
      <trkpt lat="47.5766" lon="1.32723">
        <ele>66.6</ele>
        <time>2020-07-03T08:05:40Z</time>
      </trkpt>
      <trkpt lat="47.57659" lon="1.32721">
        <ele>66.6</ele>
        <time>2020-07-03T08:05:41Z</time>
      </trkpt>
      <trkpt lat="47.57657" lon="1.32716">
        <ele>66.6</ele>
        <time>2020-07-03T08:05:42Z</time>
      </trkpt>
      <trkpt lat="47.57657" lon="1.32715">
        <ele>66.6</ele>
        <time>2020-07-03T08:05:43Z</time>
      </trkpt>
      <trkpt lat="47.57655" lon="1.3271">
        <ele>66.6</ele>
        <time>2020-07-03T08:05:44Z</time>
      </trkpt>
      <trkpt lat="47.57654" lon="1.32707">
        <ele>66.5</ele>
        <time>2020-07-03T08:05:45Z</time>
      </trkpt>
      <trkpt lat="47.57652" lon="1.32702">
        <ele>66.5</ele>
        <time>2020-07-03T08:05:46Z</time>
      </trkpt>
      <trkpt lat="47.5765" lon="1.32698">
        <ele>66.5</ele>
        <time>2020-07-03T08:05:47Z</time>
      </trkpt>
      <trkpt lat="47.57648" lon="1.32694">
        <ele>66.5</ele>
        <time>2020-07-03T08:05:48Z</time>
      </trkpt>
      <trkpt lat="47.57646" lon="1.3269">
        <ele>66.5</ele>
        <time>2020-07-03T08:05:49Z</time>
      </trkpt>
      <trkpt lat="47.57644" lon="1.32686">
        <ele>66.4</ele>
        <time>2020-07-03T08:05:50Z</time>
      </trkpt>
      <trkpt lat="47.57644" lon="1.32684">
        <ele>66.4</ele>
        <time>2020-07-03T08:05:51Z</time>
      </trkpt>
      <trkpt lat="47.57642" lon="1.32681">
        <ele>66.4</ele>
        <time>2020-07-03T08:05:52Z</time>
      </trkpt>
      <trkpt lat="47.5764" lon="1.32676">
        <ele>66.4</ele>
        <time>2020-07-03T08:05:53Z</time>
      </trkpt>
      <trkpt lat="47.57639" lon="1.32675">
        <ele>66.4</ele>
        <time>2020-07-03T08:05:54Z</time>
      </trkpt>
      <trkpt lat="47.57637" lon="1.32671">
        <ele>66.4</ele>
        <time>2020-07-03T08:05:55Z</time>
      </trkpt>
      <trkpt lat="47.57637" lon="1.3267">
        <ele>66.4</ele>
        <time>2020-07-03T08:05:56Z</time>
      </trkpt>
      <trkpt lat="47.57635" lon="1.32666">
        <ele>66.4</ele>
        <time>2020-07-03T08:05:57Z</time>
      </trkpt>
      <trkpt lat="47.57634" lon="1.32665">
        <ele>66.4</ele>
        <time>2020-07-03T08:05:58Z</time>
      </trkpt>
      <trkpt lat="47.57633" lon="1.32661">
        <ele>66.4</ele>
        <time>2020-07-03T08:05:59Z</time>
      </trkpt>
      <trkpt lat="47.57633" lon="1.3266">
        <ele>66.4</ele>
        <time>2020-07-03T08:06:00Z</time>
      </trkpt>
      <trkpt lat="47.57631" lon="1.32657">
        <ele>66.5</ele>
        <time>2020-07-03T08:06:01Z</time>
      </trkpt>
      <trkpt lat="47.5763" lon="1.32655">
        <ele>66.5</ele>
        <time>2020-07-03T08:06:02Z</time>
      </trkpt>
      <trkpt lat="47.57629" lon="1.32654">
        <ele>66.5</ele>
        <time>2020-07-03T08:06:03Z</time>
      </trkpt>
      <trkpt lat="47.57627" lon="1.3265">
        <ele>66.5</ele>
        <time>2020-07-03T08:06:04Z</time>
      </trkpt>
      <trkpt lat="47.57626" lon="1.32649">
        <ele>66.5</ele>
        <time>2020-07-03T08:06:05Z</time>
      </trkpt>
      <trkpt lat="47.57624" lon="1.32647">
        <ele>66.6</ele>
        <time>2020-07-03T08:06:06Z</time>
      </trkpt>
      <trkpt lat="47.5762" lon="1.32646">
        <ele>66.6</ele>
        <time>2020-07-03T08:06:07Z</time>
      </trkpt>
      <trkpt lat="47.57619" lon="1.32645">
        <ele>66.6</ele>
        <time>2020-07-03T08:06:08Z</time>
      </trkpt>
      <trkpt lat="47.57615" lon="1.32643">
        <ele>66.7</ele>
        <time>2020-07-03T08:06:09Z</time>
      </trkpt>
      <trkpt lat="47.57613" lon="1.32642">
        <ele>66.7</ele>
        <time>2020-07-03T08:06:10Z</time>
      </trkpt>
      <trkpt lat="47.57611" lon="1.32639">
        <ele>66.8</ele>
        <time>2020-07-03T08:06:11Z</time>
      </trkpt>
      <trkpt lat="47.57608" lon="1.32635">
        <ele>66.9</ele>
        <time>2020-07-03T08:06:12Z</time>
      </trkpt>
      <trkpt lat="47.57607" lon="1.32634">
        <ele>66.9</ele>
        <time>2020-07-03T08:06:13Z</time>
      </trkpt>
      <trkpt lat="47.57605" lon="1.32631">
        <ele>66.9</ele>
        <time>2020-07-03T08:06:14Z</time>
      </trkpt>
      <trkpt lat="47.57602" lon="1.32629">
        <ele>67</ele>
        <time>2020-07-03T08:06:15Z</time>
      </trkpt>
      <trkpt lat="47.576" lon="1.32626">
        <ele>67.1</ele>
        <time>2020-07-03T08:06:16Z</time>
      </trkpt>
      <trkpt lat="47.57598" lon="1.32623">
        <ele>67.1</ele>
        <time>2020-07-03T08:06:17Z</time>
      </trkpt>
      <trkpt lat="47.57595" lon="1.3262">
        <ele>67.2</ele>
        <time>2020-07-03T08:06:18Z</time>
      </trkpt>
      <trkpt lat="47.57594" lon="1.32617">
        <ele>67.2</ele>
        <time>2020-07-03T08:06:19Z</time>
      </trkpt>
      <trkpt lat="47.57592" lon="1.32613">
        <ele>67.3</ele>
        <time>2020-07-03T08:06:20Z</time>
      </trkpt>
      <trkpt lat="47.57589" lon="1.3261">
        <ele>67.3</ele>
        <time>2020-07-03T08:06:21Z</time>
      </trkpt>
      <trkpt lat="47.57587" lon="1.32606">
        <ele>67.4</ele>
        <time>2020-07-03T08:06:22Z</time>
      </trkpt>
      <trkpt lat="47.57585" lon="1.32602">
        <ele>67.4</ele>
        <time>2020-07-03T08:06:23Z</time>
      </trkpt>
      <trkpt lat="47.57583" lon="1.32597">
        <ele>67.5</ele>
        <time>2020-07-03T08:06:24Z</time>
      </trkpt>
      <trkpt lat="47.57579" lon="1.32591">
        <ele>67.5</ele>
        <time>2020-07-03T08:06:25Z</time>
      </trkpt>
      <trkpt lat="47.57576" lon="1.32585">
        <ele>67.5</ele>
        <time>2020-07-03T08:06:26Z</time>
      </trkpt>
      <trkpt lat="47.57573" lon="1.32579">
        <ele>67.6</ele>
        <time>2020-07-03T08:06:27Z</time>
      </trkpt>
      <trkpt lat="47.57569" lon="1.32571">
        <ele>67.6</ele>
        <time>2020-07-03T08:06:28Z</time>
      </trkpt>
      <trkpt lat="47.57566" lon="1.32565">
        <ele>67.5</ele>
        <time>2020-07-03T08:06:29Z</time>
      </trkpt>
      <trkpt lat="47.57563" lon="1.32559">
        <ele>67.5</ele>
        <time>2020-07-03T08:06:30Z</time>
      </trkpt>
      <trkpt lat="47.5756" lon="1.32554">
        <ele>67.5</ele>
        <time>2020-07-03T08:06:31Z</time>
      </trkpt>
      <trkpt lat="47.57556" lon="1.32547">
        <ele>67.5</ele>
        <time>2020-07-03T08:06:32Z</time>
      </trkpt>
      <trkpt lat="47.57553" lon="1.32541">
        <ele>67.5</ele>
        <time>2020-07-03T08:06:33Z</time>
      </trkpt>
      <trkpt lat="47.5755" lon="1.32534">
        <ele>67.5</ele>
        <time>2020-07-03T08:06:34Z</time>
      </trkpt>
      <trkpt lat="47.57547" lon="1.32528">
        <ele>67.5</ele>
        <time>2020-07-03T08:06:35Z</time>
      </trkpt>
      <trkpt lat="47.57544" lon="1.32521">
        <ele>67.5</ele>
        <time>2020-07-03T08:06:36Z</time>
      </trkpt>
      <trkpt lat="47.57541" lon="1.32515">
        <ele>67.5</ele>
        <time>2020-07-03T08:06:37Z</time>
      </trkpt>
      <trkpt lat="47.57538" lon="1.32508">
        <ele>67.5</ele>
        <time>2020-07-03T08:06:38Z</time>
      </trkpt>
      <trkpt lat="47.57535" lon="1.32503">
        <ele>67.5</ele>
        <time>2020-07-03T08:06:39Z</time>
      </trkpt>
      <trkpt lat="47.57533" lon="1.32499">
        <ele>67.5</ele>
        <time>2020-07-03T08:06:40Z</time>
      </trkpt>
      <trkpt lat="47.5753" lon="1.32495">
        <ele>67.5</ele>
        <time>2020-07-03T08:06:41Z</time>
      </trkpt>
      <trkpt lat="47.5753" lon="1.32494">
        <ele>67.5</ele>
        <time>2020-07-03T08:06:42Z</time>
      </trkpt>
      <trkpt lat="47.57523" lon="1.32491">
        <ele>67.5</ele>
        <time>2020-07-03T08:06:43Z</time>
      </trkpt>
      <trkpt lat="47.57523" lon="1.32489">
        <ele>67.5</ele>
        <time>2020-07-03T08:06:44Z</time>
      </trkpt>
      <trkpt lat="47.57522" lon="1.32489">
        <ele>67.5</ele>
        <time>2020-07-03T08:06:45Z</time>
      </trkpt>
      <trkpt lat="47.57522" lon="1.32488">
        <ele>67.5</ele>
        <time>2020-07-03T08:06:46Z</time>
      </trkpt>
      <trkpt lat="47.57523" lon="1.32489">
        <ele>67.5</ele>
        <time>2020-07-03T08:06:47Z</time>
      </trkpt>
      <trkpt lat="47.57523" lon="1.3249">
        <ele>67.5</ele>
        <time>2020-07-03T08:06:48Z</time>
      </trkpt>
      <trkpt lat="47.57524" lon="1.32491">
        <ele>67.5</ele>
        <time>2020-07-03T08:06:49Z</time>
      </trkpt>
      <trkpt lat="47.5752" lon="1.32494">
        <ele>67.4</ele>
        <time>2020-07-03T08:06:50Z</time>
      </trkpt>
      <trkpt lat="47.57518" lon="1.32497">
        <ele>67.4</ele>
        <time>2020-07-03T08:06:51Z</time>
      </trkpt>
      <trkpt lat="47.57516" lon="1.32498">
        <ele>67.4</ele>
        <time>2020-07-03T08:06:52Z</time>
      </trkpt>
      <trkpt lat="47.57516" lon="1.32498">
        <ele>67.4</ele>
        <time>2020-07-03T08:06:53Z</time>
      </trkpt>
      <trkpt lat="47.57515" lon="1.32499">
        <ele>67.4</ele>
        <time>2020-07-03T08:06:54Z</time>
      </trkpt>
      <trkpt lat="47.57515" lon="1.325">
        <ele>67.4</ele>
        <time>2020-07-03T08:06:55Z</time>
      </trkpt>
      <trkpt lat="47.57514" lon="1.32499">
        <ele>67.4</ele>
        <time>2020-07-03T08:06:56Z</time>
      </trkpt>
      <trkpt lat="47.57514" lon="1.32499">
        <ele>67.4</ele>
        <time>2020-07-03T08:06:57Z</time>
      </trkpt>
      <trkpt lat="47.57518" lon="1.32482">
        <ele>67.3</ele>
        <time>2020-07-03T08:09:01Z</time>
      </trkpt>
      <trkpt lat="47.57518" lon="1.32477">
        <ele>67.3</ele>
        <time>2020-07-03T08:09:02Z</time>
      </trkpt>
      <trkpt lat="47.57518" lon="1.32473">
        <ele>67.3</ele>
        <time>2020-07-03T08:09:03Z</time>
      </trkpt>
      <trkpt lat="47.57518" lon="1.32468">
        <ele>67.2</ele>
        <time>2020-07-03T08:09:04Z</time>
      </trkpt>
      <trkpt lat="47.57517" lon="1.32462">
        <ele>67.2</ele>
        <time>2020-07-03T08:09:05Z</time>
      </trkpt>
      <trkpt lat="47.57517" lon="1.3246">
        <ele>67.2</ele>
        <time>2020-07-03T08:09:06Z</time>
      </trkpt>
      <trkpt lat="47.57516" lon="1.32455">
        <ele>67.2</ele>
        <time>2020-07-03T08:09:07Z</time>
      </trkpt>
      <trkpt lat="47.57515" lon="1.32453">
        <ele>67.2</ele>
        <time>2020-07-03T08:09:08Z</time>
      </trkpt>
      <trkpt lat="47.57514" lon="1.32449">
        <ele>67.2</ele>
        <time>2020-07-03T08:09:09Z</time>
      </trkpt>
      <trkpt lat="47.57513" lon="1.32443">
        <ele>67.2</ele>
        <time>2020-07-03T08:09:10Z</time>
      </trkpt>
      <trkpt lat="47.57512" lon="1.32441">
        <ele>67.2</ele>
        <time>2020-07-03T08:09:11Z</time>
      </trkpt>
      <trkpt lat="47.57511" lon="1.32436">
        <ele>67.2</ele>
        <time>2020-07-03T08:09:12Z</time>
      </trkpt>
      <trkpt lat="47.57509" lon="1.32431">
        <ele>67.2</ele>
        <time>2020-07-03T08:09:13Z</time>
      </trkpt>
      <trkpt lat="47.57507" lon="1.32425">
        <ele>67.3</ele>
        <time>2020-07-03T08:09:14Z</time>
      </trkpt>
      <trkpt lat="47.57505" lon="1.32419">
        <ele>67.3</ele>
        <time>2020-07-03T08:09:15Z</time>
      </trkpt>
      <trkpt lat="47.57503" lon="1.32414">
        <ele>67.3</ele>
        <time>2020-07-03T08:09:16Z</time>
      </trkpt>
      <trkpt lat="47.57501" lon="1.32408">
        <ele>67.3</ele>
        <time>2020-07-03T08:09:17Z</time>
      </trkpt>
      <trkpt lat="47.57498" lon="1.32402">
        <ele>67.3</ele>
        <time>2020-07-03T08:09:18Z</time>
      </trkpt>
      <trkpt lat="47.57495" lon="1.32396">
        <ele>67.4</ele>
        <time>2020-07-03T08:09:19Z</time>
      </trkpt>
      <trkpt lat="47.57493" lon="1.32392">
        <ele>67.4</ele>
        <time>2020-07-03T08:09:20Z</time>
      </trkpt>
      <trkpt lat="47.5749" lon="1.32387">
        <ele>67.4</ele>
        <time>2020-07-03T08:09:21Z</time>
      </trkpt>
      <trkpt lat="47.57487" lon="1.32381">
        <ele>67.4</ele>
        <time>2020-07-03T08:09:22Z</time>
      </trkpt>
      <trkpt lat="47.57484" lon="1.32375">
        <ele>67.4</ele>
        <time>2020-07-03T08:09:23Z</time>
      </trkpt>
      <trkpt lat="47.57481" lon="1.3237">
        <ele>67.4</ele>
        <time>2020-07-03T08:09:24Z</time>
      </trkpt>
      <trkpt lat="47.57478" lon="1.32366">
        <ele>67.4</ele>
        <time>2020-07-03T08:09:25Z</time>
      </trkpt>
      <trkpt lat="47.57476" lon="1.3236">
        <ele>67.4</ele>
        <time>2020-07-03T08:09:26Z</time>
      </trkpt>
      <trkpt lat="47.57474" lon="1.32355">
        <ele>67.5</ele>
        <time>2020-07-03T08:09:27Z</time>
      </trkpt>
      <trkpt lat="47.57471" lon="1.32351">
        <ele>67.5</ele>
        <time>2020-07-03T08:09:28Z</time>
      </trkpt>
      <trkpt lat="47.57468" lon="1.32347">
        <ele>67.5</ele>
        <time>2020-07-03T08:09:29Z</time>
      </trkpt>
      <trkpt lat="47.57465" lon="1.32342">
        <ele>67.5</ele>
        <time>2020-07-03T08:09:30Z</time>
      </trkpt>
      <trkpt lat="47.57463" lon="1.32337">
        <ele>67.5</ele>
        <time>2020-07-03T08:09:31Z</time>
      </trkpt>
      <trkpt lat="47.57461" lon="1.32332">
        <ele>67.5</ele>
        <time>2020-07-03T08:09:32Z</time>
      </trkpt>
      <trkpt lat="47.57458" lon="1.32327">
        <ele>67.6</ele>
        <time>2020-07-03T08:09:33Z</time>
      </trkpt>
      <trkpt lat="47.57455" lon="1.32321">
        <ele>67.6</ele>
        <time>2020-07-03T08:09:34Z</time>
      </trkpt>
      <trkpt lat="47.57452" lon="1.32316">
        <ele>67.6</ele>
        <time>2020-07-03T08:09:35Z</time>
      </trkpt>
      <trkpt lat="47.57449" lon="1.32311">
        <ele>67.7</ele>
        <time>2020-07-03T08:09:36Z</time>
      </trkpt>
      <trkpt lat="47.57446" lon="1.32305">
        <ele>67.8</ele>
        <time>2020-07-03T08:09:37Z</time>
      </trkpt>
      <trkpt lat="47.57442" lon="1.323">
        <ele>67.9</ele>
        <time>2020-07-03T08:09:38Z</time>
      </trkpt>
      <trkpt lat="47.57439" lon="1.32295">
        <ele>68</ele>
        <time>2020-07-03T08:09:39Z</time>
      </trkpt>
      <trkpt lat="47.57436" lon="1.32291">
        <ele>68.2</ele>
        <time>2020-07-03T08:09:40Z</time>
      </trkpt>
      <trkpt lat="47.57432" lon="1.32288">
        <ele>68.3</ele>
        <time>2020-07-03T08:09:41Z</time>
      </trkpt>
      <trkpt lat="47.57428" lon="1.32287">
        <ele>68.5</ele>
        <time>2020-07-03T08:09:42Z</time>
      </trkpt>
      <trkpt lat="47.57425" lon="1.32288">
        <ele>68.7</ele>
        <time>2020-07-03T08:09:43Z</time>
      </trkpt>
      <trkpt lat="47.57422" lon="1.32291">
        <ele>68.8</ele>
        <time>2020-07-03T08:09:44Z</time>
      </trkpt>
      <trkpt lat="47.57421" lon="1.32296">
        <ele>68.9</ele>
        <time>2020-07-03T08:09:45Z</time>
      </trkpt>
      <trkpt lat="47.5742" lon="1.323">
        <ele>69</ele>
        <time>2020-07-03T08:09:46Z</time>
      </trkpt>
      <trkpt lat="47.57421" lon="1.32304">
        <ele>69.1</ele>
        <time>2020-07-03T08:09:47Z</time>
      </trkpt>
      <trkpt lat="47.57422" lon="1.32309">
        <ele>69.1</ele>
        <time>2020-07-03T08:09:48Z</time>
      </trkpt>
      <trkpt lat="47.57424" lon="1.32313">
        <ele>69.2</ele>
        <time>2020-07-03T08:09:49Z</time>
      </trkpt>
      <trkpt lat="47.57426" lon="1.32316">
        <ele>69.3</ele>
        <time>2020-07-03T08:09:50Z</time>
      </trkpt>
      <trkpt lat="47.57428" lon="1.3232">
        <ele>69.4</ele>
        <time>2020-07-03T08:09:51Z</time>
      </trkpt>
      <trkpt lat="47.5743" lon="1.32324">
        <ele>69.6</ele>
        <time>2020-07-03T08:09:52Z</time>
      </trkpt>
      <trkpt lat="47.57432" lon="1.32328">
        <ele>69.6</ele>
        <time>2020-07-03T08:09:53Z</time>
      </trkpt>
      <trkpt lat="47.57435" lon="1.32332">
        <ele>69.8</ele>
        <time>2020-07-03T08:09:54Z</time>
      </trkpt>
      <trkpt lat="47.57437" lon="1.32335">
        <ele>69.9</ele>
        <time>2020-07-03T08:09:55Z</time>
      </trkpt>
      <trkpt lat="47.57439" lon="1.3234">
        <ele>70.1</ele>
        <time>2020-07-03T08:09:56Z</time>
      </trkpt>
      <trkpt lat="47.57441" lon="1.32344">
        <ele>70.2</ele>
        <time>2020-07-03T08:09:57Z</time>
      </trkpt>
      <trkpt lat="47.57443" lon="1.32349">
        <ele>70.4</ele>
        <time>2020-07-03T08:09:58Z</time>
      </trkpt>
      <trkpt lat="47.57445" lon="1.32352">
        <ele>70.6</ele>
        <time>2020-07-03T08:09:59Z</time>
      </trkpt>
      <trkpt lat="47.57446" lon="1.32357">
        <ele>70.8</ele>
        <time>2020-07-03T08:10:00Z</time>
      </trkpt>
      <trkpt lat="47.57449" lon="1.3236">
        <ele>70.9</ele>
        <time>2020-07-03T08:10:01Z</time>
      </trkpt>
      <trkpt lat="47.57451" lon="1.32365">
        <ele>71.2</ele>
        <time>2020-07-03T08:10:02Z</time>
      </trkpt>
      <trkpt lat="47.57452" lon="1.32366">
        <ele>71.2</ele>
        <time>2020-07-03T08:10:03Z</time>
      </trkpt>
      <trkpt lat="47.57454" lon="1.3237">
        <ele>71.4</ele>
        <time>2020-07-03T08:10:04Z</time>
      </trkpt>
      <trkpt lat="47.57454" lon="1.32371">
        <ele>71.5</ele>
        <time>2020-07-03T08:10:05Z</time>
      </trkpt>
      <trkpt lat="47.57456" lon="1.32376">
        <ele>71.7</ele>
        <time>2020-07-03T08:10:06Z</time>
      </trkpt>
      <trkpt lat="47.57457" lon="1.32377">
        <ele>71.7</ele>
        <time>2020-07-03T08:10:07Z</time>
      </trkpt>
      <trkpt lat="47.57458" lon="1.32381">
        <ele>71.9</ele>
        <time>2020-07-03T08:10:08Z</time>
      </trkpt>
      <trkpt lat="47.57459" lon="1.32383">
        <ele>72</ele>
        <time>2020-07-03T08:10:09Z</time>
      </trkpt>
      <trkpt lat="47.5746" lon="1.32387">
        <ele>72.2</ele>
        <time>2020-07-03T08:10:10Z</time>
      </trkpt>
      <trkpt lat="47.57461" lon="1.32388">
        <ele>72.2</ele>
        <time>2020-07-03T08:10:11Z</time>
      </trkpt>
      <trkpt lat="47.57462" lon="1.3239">
        <ele>72.3</ele>
        <time>2020-07-03T08:10:12Z</time>
      </trkpt>
      <trkpt lat="47.57462" lon="1.32393">
        <ele>72.4</ele>
        <time>2020-07-03T08:10:13Z</time>
      </trkpt>
      <trkpt lat="47.57462" lon="1.32396">
        <ele>72.5</ele>
        <time>2020-07-03T08:10:14Z</time>
      </trkpt>
      <trkpt lat="47.57463" lon="1.32397">
        <ele>72.6</ele>
        <time>2020-07-03T08:10:15Z</time>
      </trkpt>
      <trkpt lat="47.57463" lon="1.32398">
        <ele>72.6</ele>
        <time>2020-07-03T08:10:16Z</time>
      </trkpt>
      <trkpt lat="47.57463" lon="1.324">
        <ele>72.6</ele>
        <time>2020-07-03T08:10:17Z</time>
      </trkpt>
      <trkpt lat="47.57463" lon="1.32402">
        <ele>72.7</ele>
        <time>2020-07-03T08:10:18Z</time>
      </trkpt>
      <trkpt lat="47.57462" lon="1.32403">
        <ele>72.8</ele>
        <time>2020-07-03T08:10:19Z</time>
      </trkpt>
      <trkpt lat="47.5746" lon="1.32404">
        <ele>72.8</ele>
        <time>2020-07-03T08:10:20Z</time>
      </trkpt>
      <trkpt lat="47.57458" lon="1.32405">
        <ele>72.9</ele>
        <time>2020-07-03T08:10:21Z</time>
      </trkpt>
      <trkpt lat="47.57456" lon="1.32403">
        <ele>72.9</ele>
        <time>2020-07-03T08:10:22Z</time>
      </trkpt>
      <trkpt lat="47.57455" lon="1.32403">
        <ele>72.9</ele>
        <time>2020-07-03T08:10:23Z</time>
      </trkpt>
      <trkpt lat="47.57451" lon="1.32403">
        <ele>72.9</ele>
        <time>2020-07-03T08:10:24Z</time>
      </trkpt>
      <trkpt lat="47.57449" lon="1.32404">
        <ele>72.9</ele>
        <time>2020-07-03T08:10:25Z</time>
      </trkpt>
      <trkpt lat="47.57446" lon="1.32404">
        <ele>72.9</ele>
        <time>2020-07-03T08:10:26Z</time>
      </trkpt>
      <trkpt lat="47.57443" lon="1.32404">
        <ele>72.7</ele>
        <time>2020-07-03T08:10:27Z</time>
      </trkpt>
      <trkpt lat="47.57439" lon="1.32405">
        <ele>72.7</ele>
        <time>2020-07-03T08:10:28Z</time>
      </trkpt>
      <trkpt lat="47.57436" lon="1.32406">
        <ele>72.6</ele>
        <time>2020-07-03T08:10:29Z</time>
      </trkpt>
      <trkpt lat="47.57432" lon="1.32409">
        <ele>72.6</ele>
        <time>2020-07-03T08:10:30Z</time>
      </trkpt>
      <trkpt lat="47.57428" lon="1.32412">
        <ele>72.5</ele>
        <time>2020-07-03T08:10:31Z</time>
      </trkpt>
      <trkpt lat="47.57425" lon="1.32416">
        <ele>72.5</ele>
        <time>2020-07-03T08:10:32Z</time>
      </trkpt>
      <trkpt lat="47.57423" lon="1.3242">
        <ele>72.4</ele>
        <time>2020-07-03T08:10:33Z</time>
      </trkpt>
      <trkpt lat="47.57421" lon="1.32426">
        <ele>72.4</ele>
        <time>2020-07-03T08:10:34Z</time>
      </trkpt>
      <trkpt lat="47.57419" lon="1.32432">
        <ele>72.4</ele>
        <time>2020-07-03T08:10:35Z</time>
      </trkpt>
      <trkpt lat="47.57418" lon="1.3244">
        <ele>72.4</ele>
        <time>2020-07-03T08:10:36Z</time>
      </trkpt>
      <trkpt lat="47.57418" lon="1.32448">
        <ele>72.4</ele>
        <time>2020-07-03T08:10:37Z</time>
      </trkpt>
      <trkpt lat="47.57418" lon="1.32455">
        <ele>72.4</ele>
        <time>2020-07-03T08:10:38Z</time>
      </trkpt>
      <trkpt lat="47.57419" lon="1.32463">
        <ele>72.4</ele>
        <time>2020-07-03T08:10:39Z</time>
      </trkpt>
      <trkpt lat="47.5742" lon="1.32471">
        <ele>72.3</ele>
        <time>2020-07-03T08:10:40Z</time>
      </trkpt>
      <trkpt lat="47.57422" lon="1.32478">
        <ele>72.3</ele>
        <time>2020-07-03T08:10:41Z</time>
      </trkpt>
      <trkpt lat="47.57424" lon="1.32485">
        <ele>72.3</ele>
        <time>2020-07-03T08:10:42Z</time>
      </trkpt>
      <trkpt lat="47.57427" lon="1.32489">
        <ele>72.3</ele>
        <time>2020-07-03T08:10:43Z</time>
      </trkpt>
      <trkpt lat="47.57432" lon="1.32494">
        <ele>72.2</ele>
        <time>2020-07-03T08:10:44Z</time>
      </trkpt>
      <trkpt lat="47.57437" lon="1.32498">
        <ele>72.2</ele>
        <time>2020-07-03T08:10:45Z</time>
      </trkpt>
      <trkpt lat="47.57442" lon="1.32501">
        <ele>72.1</ele>
        <time>2020-07-03T08:10:46Z</time>
      </trkpt>
      <trkpt lat="47.57448" lon="1.32501">
        <ele>72.1</ele>
        <time>2020-07-03T08:10:47Z</time>
      </trkpt>
      <trkpt lat="47.57454" lon="1.32502">
        <ele>72.1</ele>
        <time>2020-07-03T08:10:48Z</time>
      </trkpt>
      <trkpt lat="47.5746" lon="1.32501">
        <ele>72.1</ele>
        <time>2020-07-03T08:10:49Z</time>
      </trkpt>
      <trkpt lat="47.57467" lon="1.32497">
        <ele>72</ele>
        <time>2020-07-03T08:10:50Z</time>
      </trkpt>
      <trkpt lat="47.57472" lon="1.32491">
        <ele>72</ele>
        <time>2020-07-03T08:10:51Z</time>
      </trkpt>
      <trkpt lat="47.57476" lon="1.32484">
        <ele>72.1</ele>
        <time>2020-07-03T08:10:52Z</time>
      </trkpt>
      <trkpt lat="47.5748" lon="1.32476">
        <ele>72.2</ele>
        <time>2020-07-03T08:10:53Z</time>
      </trkpt>
      <trkpt lat="47.57482" lon="1.32469">
        <ele>72.3</ele>
        <time>2020-07-03T08:10:54Z</time>
      </trkpt>
      <trkpt lat="47.57483" lon="1.32461">
        <ele>72.4</ele>
        <time>2020-07-03T08:10:55Z</time>
      </trkpt>
      <trkpt lat="47.57484" lon="1.32453">
        <ele>72.5</ele>
        <time>2020-07-03T08:10:56Z</time>
      </trkpt>
      <trkpt lat="47.57483" lon="1.32445">
        <ele>72.6</ele>
        <time>2020-07-03T08:10:57Z</time>
      </trkpt>
      <trkpt lat="47.57481" lon="1.32438">
        <ele>73.3</ele>
        <time>2020-07-03T08:10:58Z</time>
      </trkpt>
      <trkpt lat="47.57479" lon="1.32432">
        <ele>73.2</ele>
        <time>2020-07-03T08:10:59Z</time>
      </trkpt>
      <trkpt lat="47.57476" lon="1.32426">
        <ele>73.2</ele>
        <time>2020-07-03T08:11:00Z</time>
      </trkpt>
      <trkpt lat="47.57473" lon="1.3242">
        <ele>73.2</ele>
        <time>2020-07-03T08:11:01Z</time>
      </trkpt>
      <trkpt lat="47.5747" lon="1.32416">
        <ele>73.2</ele>
        <time>2020-07-03T08:11:02Z</time>
      </trkpt>
      <trkpt lat="47.57467" lon="1.32411">
        <ele>73.1</ele>
        <time>2020-07-03T08:11:03Z</time>
      </trkpt>
      <trkpt lat="47.57463" lon="1.32408">
        <ele>73</ele>
        <time>2020-07-03T08:11:04Z</time>
      </trkpt>
      <trkpt lat="47.57458" lon="1.32406">
        <ele>72.9</ele>
        <time>2020-07-03T08:11:05Z</time>
      </trkpt>
      <trkpt lat="47.57454" lon="1.32403">
        <ele>72.9</ele>
        <time>2020-07-03T08:11:06Z</time>
      </trkpt>
      <trkpt lat="47.5745" lon="1.324">
        <ele>72.8</ele>
        <time>2020-07-03T08:11:07Z</time>
      </trkpt>
      <trkpt lat="47.57447" lon="1.32397">
        <ele>72.8</ele>
        <time>2020-07-03T08:11:08Z</time>
      </trkpt>
      <trkpt lat="47.57444" lon="1.32394">
        <ele>72.7</ele>
        <time>2020-07-03T08:11:09Z</time>
      </trkpt>
      <trkpt lat="47.57441" lon="1.32389">
        <ele>72.7</ele>
        <time>2020-07-03T08:11:10Z</time>
      </trkpt>
      <trkpt lat="47.57438" lon="1.32381">
        <ele>72.7</ele>
        <time>2020-07-03T08:11:11Z</time>
      </trkpt>
      <trkpt lat="47.57436" lon="1.32373">
        <ele>72.6</ele>
        <time>2020-07-03T08:11:12Z</time>
      </trkpt>
      <trkpt lat="47.57434" lon="1.32367">
        <ele>72.6</ele>
        <time>2020-07-03T08:11:13Z</time>
      </trkpt>
      <trkpt lat="47.57432" lon="1.32362">
        <ele>72.6</ele>
        <time>2020-07-03T08:11:14Z</time>
      </trkpt>
      <trkpt lat="47.57431" lon="1.32357">
        <ele>72.6</ele>
        <time>2020-07-03T08:11:15Z</time>
      </trkpt>
      <trkpt lat="47.57428" lon="1.32353">
        <ele>72.6</ele>
        <time>2020-07-03T08:11:16Z</time>
      </trkpt>
      <trkpt lat="47.57423" lon="1.32353">
        <ele>72.5</ele>
        <time>2020-07-03T08:11:17Z</time>
      </trkpt>
      <trkpt lat="47.5742" lon="1.32353">
        <ele>72.4</ele>
        <time>2020-07-03T08:11:18Z</time>
      </trkpt>
      <trkpt lat="47.57416" lon="1.32353">
        <ele>72.1</ele>
        <time>2020-07-03T08:11:19Z</time>
      </trkpt>
      <trkpt lat="47.57412" lon="1.32352">
        <ele>71.8</ele>
        <time>2020-07-03T08:11:20Z</time>
      </trkpt>
      <trkpt lat="47.5741" lon="1.32351">
        <ele>71.7</ele>
        <time>2020-07-03T08:11:21Z</time>
      </trkpt>
      <trkpt lat="47.57406" lon="1.3235">
        <ele>71.4</ele>
        <time>2020-07-03T08:11:22Z</time>
      </trkpt>
      <trkpt lat="47.57403" lon="1.32347">
        <ele>71.1</ele>
        <time>2020-07-03T08:11:23Z</time>
      </trkpt>
      <trkpt lat="47.57399" lon="1.32343">
        <ele>70.8</ele>
        <time>2020-07-03T08:11:24Z</time>
      </trkpt>
      <trkpt lat="47.57396" lon="1.32338">
        <ele>70.6</ele>
        <time>2020-07-03T08:11:25Z</time>
      </trkpt>
      <trkpt lat="47.57393" lon="1.32334">
        <ele>70.4</ele>
        <time>2020-07-03T08:11:26Z</time>
      </trkpt>
      <trkpt lat="47.57391" lon="1.3233">
        <ele>70.2</ele>
        <time>2020-07-03T08:11:27Z</time>
      </trkpt>
      <trkpt lat="47.57388" lon="1.32326">
        <ele>70.3</ele>
        <time>2020-07-03T08:11:28Z</time>
      </trkpt>
      <trkpt lat="47.57386" lon="1.32325">
        <ele>70.3</ele>
        <time>2020-07-03T08:11:29Z</time>
      </trkpt>
      <trkpt lat="47.57385" lon="1.32325">
        <ele>70.3</ele>
        <time>2020-07-03T08:11:30Z</time>
      </trkpt>
      <trkpt lat="47.57386" lon="1.32327">
        <ele>70.4</ele>
        <time>2020-07-03T08:11:31Z</time>
      </trkpt>
      <trkpt lat="47.57386" lon="1.32328">
        <ele>70.4</ele>
        <time>2020-07-03T08:11:32Z</time>
      </trkpt>
      <trkpt lat="47.57386" lon="1.32329">
        <ele>70.4</ele>
        <time>2020-07-03T08:11:33Z</time>
      </trkpt>
      <trkpt lat="47.57386" lon="1.3233">
        <ele>70.4</ele>
        <time>2020-07-03T08:11:34Z</time>
      </trkpt>
      <trkpt lat="47.57386" lon="1.3233">
        <ele>70.4</ele>
        <time>2020-07-03T08:11:35Z</time>
      </trkpt>
      <trkpt lat="47.57388" lon="1.32334">
        <ele>70.5</ele>
        <time>2020-07-03T08:11:36Z</time>
      </trkpt>
      <trkpt lat="47.57388" lon="1.32336">
        <ele>70.5</ele>
        <time>2020-07-03T08:11:37Z</time>
      </trkpt>
      <trkpt lat="47.5739" lon="1.3234">
        <ele>70.6</ele>
        <time>2020-07-03T08:11:38Z</time>
      </trkpt>
      <trkpt lat="47.5739" lon="1.32341">
        <ele>70.6</ele>
        <time>2020-07-03T08:11:39Z</time>
      </trkpt>
      <trkpt lat="47.57393" lon="1.32345">
        <ele>70.8</ele>
        <time>2020-07-03T08:11:40Z</time>
      </trkpt>
      <trkpt lat="47.57394" lon="1.32347">
        <ele>70.8</ele>
        <time>2020-07-03T08:11:41Z</time>
      </trkpt>
      <trkpt lat="47.57396" lon="1.3235">
        <ele>70.9</ele>
        <time>2020-07-03T08:11:42Z</time>
      </trkpt>
      <trkpt lat="47.57398" lon="1.32355">
        <ele>71.1</ele>
        <time>2020-07-03T08:11:43Z</time>
      </trkpt>
      <trkpt lat="47.574" lon="1.32358">
        <ele>71.2</ele>
        <time>2020-07-03T08:11:44Z</time>
      </trkpt>
      <trkpt lat="47.57402" lon="1.32362">
        <ele>72.1</ele>
        <time>2020-07-03T08:11:45Z</time>
      </trkpt>
      <trkpt lat="47.57404" lon="1.32366">
        <ele>72</ele>
        <time>2020-07-03T08:11:46Z</time>
      </trkpt>
      <trkpt lat="47.57407" lon="1.3237">
        <ele>71.8</ele>
        <time>2020-07-03T08:11:47Z</time>
      </trkpt>
      <trkpt lat="47.5741" lon="1.32374">
        <ele>71.6</ele>
        <time>2020-07-03T08:11:48Z</time>
      </trkpt>
      <trkpt lat="47.57412" lon="1.32379">
        <ele>71.5</ele>
        <time>2020-07-03T08:11:49Z</time>
      </trkpt>
      <trkpt lat="47.57414" lon="1.32383">
        <ele>71.4</ele>
        <time>2020-07-03T08:11:50Z</time>
      </trkpt>
      <trkpt lat="47.57416" lon="1.32389">
        <ele>71.3</ele>
        <time>2020-07-03T08:11:51Z</time>
      </trkpt>
      <trkpt lat="47.57417" lon="1.32394">
        <ele>71.2</ele>
        <time>2020-07-03T08:11:52Z</time>
      </trkpt>
      <trkpt lat="47.57418" lon="1.324">
        <ele>71.1</ele>
        <time>2020-07-03T08:11:53Z</time>
      </trkpt>
      <trkpt lat="47.57417" lon="1.32405">
        <ele>71</ele>
        <time>2020-07-03T08:11:54Z</time>
      </trkpt>
      <trkpt lat="47.57416" lon="1.3241">
        <ele>70.9</ele>
        <time>2020-07-03T08:11:55Z</time>
      </trkpt>
      <trkpt lat="47.57415" lon="1.32414">
        <ele>70.9</ele>
        <time>2020-07-03T08:11:56Z</time>
      </trkpt>
      <trkpt lat="47.57413" lon="1.32418">
        <ele>70.8</ele>
        <time>2020-07-03T08:11:57Z</time>
      </trkpt>
      <trkpt lat="47.57412" lon="1.32423">
        <ele>70.8</ele>
        <time>2020-07-03T08:11:58Z</time>
      </trkpt>
      <trkpt lat="47.57411" lon="1.32424">
        <ele>70.7</ele>
        <time>2020-07-03T08:11:59Z</time>
      </trkpt>
      <trkpt lat="47.57411" lon="1.32426">
        <ele>70.7</ele>
        <time>2020-07-03T08:12:00Z</time>
      </trkpt>
      <trkpt lat="47.57411" lon="1.32426">
        <ele>70.7</ele>
        <time>2020-07-03T08:12:01Z</time>
      </trkpt>
      <trkpt lat="47.57411" lon="1.32426">
        <ele>70.7</ele>
        <time>2020-07-03T08:12:02Z</time>
      </trkpt>
      <trkpt lat="47.57412" lon="1.32425">
        <ele>70.7</ele>
        <time>2020-07-03T08:12:03Z</time>
      </trkpt>
      <trkpt lat="47.57413" lon="1.32425">
        <ele>70.7</ele>
        <time>2020-07-03T08:12:04Z</time>
      </trkpt>
      <trkpt lat="47.57412" lon="1.32425">
        <ele>70.7</ele>
        <time>2020-07-03T08:12:05Z</time>
      </trkpt>
      <trkpt lat="47.57412" lon="1.32425">
        <ele>70.7</ele>
        <time>2020-07-03T08:12:06Z</time>
      </trkpt>
      <trkpt lat="47.57412" lon="1.32425">
        <ele>70.7</ele>
        <time>2020-07-03T08:12:07Z</time>
      </trkpt>
      <trkpt lat="47.57412" lon="1.32425">
        <ele>70.7</ele>
        <time>2020-07-03T08:12:08Z</time>
      </trkpt>
      <trkpt lat="47.57412" lon="1.32425">
        <ele>70.7</ele>
        <time>2020-07-03T08:12:09Z</time>
      </trkpt>
      <trkpt lat="47.57412" lon="1.32425">
        <ele>70.7</ele>
        <time>2020-07-03T08:12:10Z</time>
      </trkpt>
      <trkpt lat="47.57412" lon="1.32426">
        <ele>70.7</ele>
        <time>2020-07-03T08:12:11Z</time>
      </trkpt>
      <trkpt lat="47.57417" lon="1.32418">
        <ele>70.6</ele>
        <time>2020-07-03T08:14:58Z</time>
      </trkpt>
      <trkpt lat="47.57417" lon="1.32416">
        <ele>70.5</ele>
        <time>2020-07-03T08:14:59Z</time>
      </trkpt>
      <trkpt lat="47.57419" lon="1.32411">
        <ele>70.6</ele>
        <time>2020-07-03T08:15:00Z</time>
      </trkpt>
      <trkpt lat="47.5742" lon="1.3241">
        <ele>70.6</ele>
        <time>2020-07-03T08:15:01Z</time>
      </trkpt>
      <trkpt lat="47.57421" lon="1.32403">
        <ele>70.7</ele>
        <time>2020-07-03T08:15:02Z</time>
      </trkpt>
      <trkpt lat="47.57421" lon="1.32396">
        <ele>70.9</ele>
        <time>2020-07-03T08:15:03Z</time>
      </trkpt>
      <trkpt lat="47.57418" lon="1.32388">
        <ele>71</ele>
        <time>2020-07-03T08:15:04Z</time>
      </trkpt>
      <trkpt lat="47.57415" lon="1.3238">
        <ele>71.2</ele>
        <time>2020-07-03T08:15:05Z</time>
      </trkpt>
      <trkpt lat="47.57412" lon="1.32373">
        <ele>71.5</ele>
        <time>2020-07-03T08:15:06Z</time>
      </trkpt>
      <trkpt lat="47.57409" lon="1.32366">
        <ele>71.7</ele>
        <time>2020-07-03T08:15:07Z</time>
      </trkpt>
      <trkpt lat="47.57406" lon="1.32358">
        <ele>72.1</ele>
        <time>2020-07-03T08:15:08Z</time>
      </trkpt>
      <trkpt lat="47.57401" lon="1.3235">
        <ele>71.2</ele>
        <time>2020-07-03T08:15:09Z</time>
      </trkpt>
      <trkpt lat="47.57398" lon="1.32344">
        <ele>70.8</ele>
        <time>2020-07-03T08:15:10Z</time>
      </trkpt>
      <trkpt lat="47.57396" lon="1.32337">
        <ele>70.5</ele>
        <time>2020-07-03T08:15:11Z</time>
      </trkpt>
      <trkpt lat="47.57393" lon="1.32331">
        <ele>70.3</ele>
        <time>2020-07-03T08:15:12Z</time>
      </trkpt>
      <trkpt lat="47.5739" lon="1.32324">
        <ele>70.1</ele>
        <time>2020-07-03T08:15:13Z</time>
      </trkpt>
      <trkpt lat="47.57387" lon="1.32319">
        <ele>70</ele>
        <time>2020-07-03T08:15:14Z</time>
      </trkpt>
      <trkpt lat="47.57383" lon="1.32312">
        <ele>69.8</ele>
        <time>2020-07-03T08:15:15Z</time>
      </trkpt>
      <trkpt lat="47.5738" lon="1.32305">
        <ele>69.7</ele>
        <time>2020-07-03T08:15:16Z</time>
      </trkpt>
      <trkpt lat="47.57376" lon="1.32298">
        <ele>69.6</ele>
        <time>2020-07-03T08:15:17Z</time>
      </trkpt>
      <trkpt lat="47.57372" lon="1.3229">
        <ele>69.5</ele>
        <time>2020-07-03T08:15:18Z</time>
      </trkpt>
      <trkpt lat="47.57369" lon="1.32283">
        <ele>69.4</ele>
        <time>2020-07-03T08:15:19Z</time>
      </trkpt>
      <trkpt lat="47.57365" lon="1.32275">
        <ele>69.3</ele>
        <time>2020-07-03T08:15:20Z</time>
      </trkpt>
      <trkpt lat="47.57361" lon="1.32266">
        <ele>69.2</ele>
        <time>2020-07-03T08:15:21Z</time>
      </trkpt>
      <trkpt lat="47.57357" lon="1.32259">
        <ele>69.1</ele>
        <time>2020-07-03T08:15:22Z</time>
      </trkpt>
      <trkpt lat="47.57352" lon="1.32252">
        <ele>69.1</ele>
        <time>2020-07-03T08:15:23Z</time>
      </trkpt>
      <trkpt lat="47.57349" lon="1.32246">
        <ele>69.1</ele>
        <time>2020-07-03T08:15:24Z</time>
      </trkpt>
      <trkpt lat="47.57346" lon="1.3224">
        <ele>69.1</ele>
        <time>2020-07-03T08:15:25Z</time>
      </trkpt>
      <trkpt lat="47.57342" lon="1.32233">
        <ele>69</ele>
        <time>2020-07-03T08:15:26Z</time>
      </trkpt>
      <trkpt lat="47.57339" lon="1.32226">
        <ele>69</ele>
        <time>2020-07-03T08:15:27Z</time>
      </trkpt>
      <trkpt lat="47.57335" lon="1.32219">
        <ele>69</ele>
        <time>2020-07-03T08:15:28Z</time>
      </trkpt>
      <trkpt lat="47.57332" lon="1.32214">
        <ele>69</ele>
        <time>2020-07-03T08:15:29Z</time>
      </trkpt>
      <trkpt lat="47.57329" lon="1.32207">
        <ele>69</ele>
        <time>2020-07-03T08:15:30Z</time>
      </trkpt>
      <trkpt lat="47.57325" lon="1.32199">
        <ele>69</ele>
        <time>2020-07-03T08:15:31Z</time>
      </trkpt>
      <trkpt lat="47.57322" lon="1.32192">
        <ele>68.9</ele>
        <time>2020-07-03T08:15:32Z</time>
      </trkpt>
      <trkpt lat="47.57318" lon="1.32183">
        <ele>68.9</ele>
        <time>2020-07-03T08:15:33Z</time>
      </trkpt>
      <trkpt lat="47.57316" lon="1.32175">
        <ele>68.9</ele>
        <time>2020-07-03T08:15:34Z</time>
      </trkpt>
      <trkpt lat="47.57313" lon="1.32167">
        <ele>68.9</ele>
        <time>2020-07-03T08:15:35Z</time>
      </trkpt>
      <trkpt lat="47.5731" lon="1.3216">
        <ele>68.9</ele>
        <time>2020-07-03T08:15:36Z</time>
      </trkpt>
      <trkpt lat="47.57306" lon="1.32153">
        <ele>68.8</ele>
        <time>2020-07-03T08:15:37Z</time>
      </trkpt>
      <trkpt lat="47.57303" lon="1.32144">
        <ele>68.8</ele>
        <time>2020-07-03T08:15:38Z</time>
      </trkpt>
      <trkpt lat="47.573" lon="1.32137">
        <ele>68.8</ele>
        <time>2020-07-03T08:15:39Z</time>
      </trkpt>
      <trkpt lat="47.57297" lon="1.32129">
        <ele>68.8</ele>
        <time>2020-07-03T08:15:40Z</time>
      </trkpt>
      <trkpt lat="47.57294" lon="1.3212">
        <ele>68.7</ele>
        <time>2020-07-03T08:15:41Z</time>
      </trkpt>
      <trkpt lat="47.57291" lon="1.32112">
        <ele>68.7</ele>
        <time>2020-07-03T08:15:42Z</time>
      </trkpt>
      <trkpt lat="47.57288" lon="1.32104">
        <ele>68.7</ele>
        <time>2020-07-03T08:15:43Z</time>
      </trkpt>
      <trkpt lat="47.57284" lon="1.32095">
        <ele>68.7</ele>
        <time>2020-07-03T08:15:44Z</time>
      </trkpt>
      <trkpt lat="47.57281" lon="1.32088">
        <ele>68.7</ele>
        <time>2020-07-03T08:15:45Z</time>
      </trkpt>
      <trkpt lat="47.57277" lon="1.3208">
        <ele>68.7</ele>
        <time>2020-07-03T08:15:46Z</time>
      </trkpt>
      <trkpt lat="47.57274" lon="1.32073">
        <ele>68.7</ele>
        <time>2020-07-03T08:15:47Z</time>
      </trkpt>
      <trkpt lat="47.57269" lon="1.32064">
        <ele>68.7</ele>
        <time>2020-07-03T08:15:48Z</time>
      </trkpt>
      <trkpt lat="47.57266" lon="1.32056">
        <ele>68.7</ele>
        <time>2020-07-03T08:15:49Z</time>
      </trkpt>
      <trkpt lat="47.57263" lon="1.32048">
        <ele>68.7</ele>
        <time>2020-07-03T08:15:50Z</time>
      </trkpt>
      <trkpt lat="47.57259" lon="1.32041">
        <ele>68.7</ele>
        <time>2020-07-03T08:15:51Z</time>
      </trkpt>
      <trkpt lat="47.57256" lon="1.32035">
        <ele>68.7</ele>
        <time>2020-07-03T08:15:52Z</time>
      </trkpt>
      <trkpt lat="47.57253" lon="1.32028">
        <ele>68.7</ele>
        <time>2020-07-03T08:15:53Z</time>
      </trkpt>
      <trkpt lat="47.5725" lon="1.32022">
        <ele>68.8</ele>
        <time>2020-07-03T08:15:54Z</time>
      </trkpt>
      <trkpt lat="47.57247" lon="1.32019">
        <ele>68.7</ele>
        <time>2020-07-03T08:15:55Z</time>
      </trkpt>
      <trkpt lat="47.57246" lon="1.32014">
        <ele>68.7</ele>
        <time>2020-07-03T08:15:56Z</time>
      </trkpt>
      <trkpt lat="47.57245" lon="1.32013">
        <ele>68.7</ele>
        <time>2020-07-03T08:15:57Z</time>
      </trkpt>
      <trkpt lat="47.57243" lon="1.32009">
        <ele>68.7</ele>
        <time>2020-07-03T08:15:58Z</time>
      </trkpt>
      <trkpt lat="47.57243" lon="1.32007">
        <ele>68.8</ele>
        <time>2020-07-03T08:15:59Z</time>
      </trkpt>
      <trkpt lat="47.57241" lon="1.32002">
        <ele>68.8</ele>
        <time>2020-07-03T08:16:00Z</time>
      </trkpt>
      <trkpt lat="47.57238" lon="1.31997">
        <ele>68.8</ele>
        <time>2020-07-03T08:16:01Z</time>
      </trkpt>
      <trkpt lat="47.57235" lon="1.31992">
        <ele>68.7</ele>
        <time>2020-07-03T08:16:02Z</time>
      </trkpt>
      <trkpt lat="47.57233" lon="1.31987">
        <ele>68.7</ele>
        <time>2020-07-03T08:16:03Z</time>
      </trkpt>
      <trkpt lat="47.5723" lon="1.31982">
        <ele>68.7</ele>
        <time>2020-07-03T08:16:04Z</time>
      </trkpt>
      <trkpt lat="47.57227" lon="1.31977">
        <ele>68.7</ele>
        <time>2020-07-03T08:16:05Z</time>
      </trkpt>
      <trkpt lat="47.57224" lon="1.31971">
        <ele>68.7</ele>
        <time>2020-07-03T08:16:06Z</time>
      </trkpt>
      <trkpt lat="47.57221" lon="1.31964">
        <ele>68.7</ele>
        <time>2020-07-03T08:16:07Z</time>
      </trkpt>
      <trkpt lat="47.57218" lon="1.31957">
        <ele>68.7</ele>
        <time>2020-07-03T08:16:08Z</time>
      </trkpt>
      <trkpt lat="47.57214" lon="1.3195">
        <ele>68.7</ele>
        <time>2020-07-03T08:16:09Z</time>
      </trkpt>
      <trkpt lat="47.57211" lon="1.31944">
        <ele>68.8</ele>
        <time>2020-07-03T08:16:10Z</time>
      </trkpt>
      <trkpt lat="47.57208" lon="1.31936">
        <ele>68.8</ele>
        <time>2020-07-03T08:16:11Z</time>
      </trkpt>
      <trkpt lat="47.57204" lon="1.3193">
        <ele>68.8</ele>
        <time>2020-07-03T08:16:12Z</time>
      </trkpt>
      <trkpt lat="47.572" lon="1.31925">
        <ele>68.9</ele>
        <time>2020-07-03T08:16:13Z</time>
      </trkpt>
      <trkpt lat="47.57197" lon="1.31919">
        <ele>68.9</ele>
        <time>2020-07-03T08:16:14Z</time>
      </trkpt>
      <trkpt lat="47.57193" lon="1.31911">
        <ele>68.9</ele>
        <time>2020-07-03T08:16:15Z</time>
      </trkpt>
      <trkpt lat="47.5719" lon="1.31904">
        <ele>68.9</ele>
        <time>2020-07-03T08:16:16Z</time>
      </trkpt>
      <trkpt lat="47.57185" lon="1.31897">
        <ele>68.9</ele>
        <time>2020-07-03T08:16:17Z</time>
      </trkpt>
      <trkpt lat="47.57182" lon="1.31891">
        <ele>68.9</ele>
        <time>2020-07-03T08:16:18Z</time>
      </trkpt>
      <trkpt lat="47.57178" lon="1.31884">
        <ele>68.9</ele>
        <time>2020-07-03T08:16:19Z</time>
      </trkpt>
      <trkpt lat="47.57174" lon="1.31877">
        <ele>68.9</ele>
        <time>2020-07-03T08:16:20Z</time>
      </trkpt>
      <trkpt lat="47.5717" lon="1.3187">
        <ele>68.9</ele>
        <time>2020-07-03T08:16:21Z</time>
      </trkpt>
      <trkpt lat="47.57166" lon="1.31862">
        <ele>68.9</ele>
        <time>2020-07-03T08:16:22Z</time>
      </trkpt>
      <trkpt lat="47.57162" lon="1.31856">
        <ele>68.8</ele>
        <time>2020-07-03T08:16:23Z</time>
      </trkpt>
      <trkpt lat="47.57159" lon="1.31849">
        <ele>68.8</ele>
        <time>2020-07-03T08:16:24Z</time>
      </trkpt>
      <trkpt lat="47.57155" lon="1.31841">
        <ele>68.8</ele>
        <time>2020-07-03T08:16:25Z</time>
      </trkpt>
      <trkpt lat="47.57151" lon="1.31834">
        <ele>68.8</ele>
        <time>2020-07-03T08:16:26Z</time>
      </trkpt>
      <trkpt lat="47.57148" lon="1.31827">
        <ele>68.8</ele>
        <time>2020-07-03T08:16:27Z</time>
      </trkpt>
      <trkpt lat="47.57144" lon="1.3182">
        <ele>68.8</ele>
        <time>2020-07-03T08:16:28Z</time>
      </trkpt>
      <trkpt lat="47.57141" lon="1.31814">
        <ele>68.8</ele>
        <time>2020-07-03T08:16:29Z</time>
      </trkpt>
      <trkpt lat="47.57137" lon="1.31806">
        <ele>68.8</ele>
        <time>2020-07-03T08:16:30Z</time>
      </trkpt>
      <trkpt lat="47.57134" lon="1.318">
        <ele>68.8</ele>
        <time>2020-07-03T08:16:31Z</time>
      </trkpt>
      <trkpt lat="47.57131" lon="1.31794">
        <ele>68.8</ele>
        <time>2020-07-03T08:16:32Z</time>
      </trkpt>
      <trkpt lat="47.57127" lon="1.31788">
        <ele>68.8</ele>
        <time>2020-07-03T08:16:33Z</time>
      </trkpt>
      <trkpt lat="47.57123" lon="1.3178">
        <ele>68.8</ele>
        <time>2020-07-03T08:16:34Z</time>
      </trkpt>
      <trkpt lat="47.5712" lon="1.31772">
        <ele>68.8</ele>
        <time>2020-07-03T08:16:35Z</time>
      </trkpt>
      <trkpt lat="47.57117" lon="1.31764">
        <ele>68.8</ele>
        <time>2020-07-03T08:16:36Z</time>
      </trkpt>
      <trkpt lat="47.57113" lon="1.31758">
        <ele>68.8</ele>
        <time>2020-07-03T08:16:37Z</time>
      </trkpt>
      <trkpt lat="47.5711" lon="1.3175">
        <ele>68.8</ele>
        <time>2020-07-03T08:16:38Z</time>
      </trkpt>
      <trkpt lat="47.57106" lon="1.31743">
        <ele>68.8</ele>
        <time>2020-07-03T08:16:39Z</time>
      </trkpt>
      <trkpt lat="47.57102" lon="1.31735">
        <ele>68.8</ele>
        <time>2020-07-03T08:16:40Z</time>
      </trkpt>
      <trkpt lat="47.57098" lon="1.31726">
        <ele>68.8</ele>
        <time>2020-07-03T08:16:41Z</time>
      </trkpt>
      <trkpt lat="47.57095" lon="1.31717">
        <ele>68.8</ele>
        <time>2020-07-03T08:16:42Z</time>
      </trkpt>
      <trkpt lat="47.57091" lon="1.31709">
        <ele>68.8</ele>
        <time>2020-07-03T08:16:43Z</time>
      </trkpt>
      <trkpt lat="47.57087" lon="1.31702">
        <ele>68.7</ele>
        <time>2020-07-03T08:16:44Z</time>
      </trkpt>
      <trkpt lat="47.57082" lon="1.31694">
        <ele>68.7</ele>
        <time>2020-07-03T08:16:45Z</time>
      </trkpt>
      <trkpt lat="47.57078" lon="1.31686">
        <ele>68.7</ele>
        <time>2020-07-03T08:16:46Z</time>
      </trkpt>
      <trkpt lat="47.57073" lon="1.31678">
        <ele>68.6</ele>
        <time>2020-07-03T08:16:47Z</time>
      </trkpt>
      <trkpt lat="47.5707" lon="1.3167">
        <ele>68.6</ele>
        <time>2020-07-03T08:16:48Z</time>
      </trkpt>
      <trkpt lat="47.57066" lon="1.31662">
        <ele>68.5</ele>
        <time>2020-07-03T08:16:49Z</time>
      </trkpt>
      <trkpt lat="47.57062" lon="1.31654">
        <ele>68.5</ele>
        <time>2020-07-03T08:16:50Z</time>
      </trkpt>
      <trkpt lat="47.57058" lon="1.31646">
        <ele>68.4</ele>
        <time>2020-07-03T08:16:51Z</time>
      </trkpt>
      <trkpt lat="47.57054" lon="1.31637">
        <ele>68.4</ele>
        <time>2020-07-03T08:16:52Z</time>
      </trkpt>
      <trkpt lat="47.5705" lon="1.31629">
        <ele>68.4</ele>
        <time>2020-07-03T08:16:53Z</time>
      </trkpt>
      <trkpt lat="47.57046" lon="1.31621">
        <ele>68.3</ele>
        <time>2020-07-03T08:16:54Z</time>
      </trkpt>
      <trkpt lat="47.57042" lon="1.31613">
        <ele>68.3</ele>
        <time>2020-07-03T08:16:55Z</time>
      </trkpt>
      <trkpt lat="47.57037" lon="1.31605">
        <ele>68.3</ele>
        <time>2020-07-03T08:16:56Z</time>
      </trkpt>
      <trkpt lat="47.57034" lon="1.31597">
        <ele>68.3</ele>
        <time>2020-07-03T08:16:57Z</time>
      </trkpt>
      <trkpt lat="47.5703" lon="1.31589">
        <ele>68.3</ele>
        <time>2020-07-03T08:16:58Z</time>
      </trkpt>
      <trkpt lat="47.57026" lon="1.31581">
        <ele>68.3</ele>
        <time>2020-07-03T08:16:59Z</time>
      </trkpt>
      <trkpt lat="47.57021" lon="1.31574">
        <ele>68.4</ele>
        <time>2020-07-03T08:17:00Z</time>
      </trkpt>
      <trkpt lat="47.57017" lon="1.31566">
        <ele>68.4</ele>
        <time>2020-07-03T08:17:01Z</time>
      </trkpt>
      <trkpt lat="47.57013" lon="1.31559">
        <ele>68.4</ele>
        <time>2020-07-03T08:17:02Z</time>
      </trkpt>
      <trkpt lat="47.57009" lon="1.31551">
        <ele>68.5</ele>
        <time>2020-07-03T08:17:03Z</time>
      </trkpt>
      <trkpt lat="47.57005" lon="1.31543">
        <ele>68.5</ele>
        <time>2020-07-03T08:17:04Z</time>
      </trkpt>
      <trkpt lat="47.57001" lon="1.31536">
        <ele>68.6</ele>
        <time>2020-07-03T08:17:05Z</time>
      </trkpt>
      <trkpt lat="47.56997" lon="1.31529">
        <ele>68.6</ele>
        <time>2020-07-03T08:17:06Z</time>
      </trkpt>
      <trkpt lat="47.56993" lon="1.31522">
        <ele>68.7</ele>
        <time>2020-07-03T08:17:07Z</time>
      </trkpt>
      <trkpt lat="47.56989" lon="1.31515">
        <ele>68.7</ele>
        <time>2020-07-03T08:17:08Z</time>
      </trkpt>
      <trkpt lat="47.56985" lon="1.31508">
        <ele>68.8</ele>
        <time>2020-07-03T08:17:09Z</time>
      </trkpt>
      <trkpt lat="47.56981" lon="1.31501">
        <ele>68.8</ele>
        <time>2020-07-03T08:17:10Z</time>
      </trkpt>
      <trkpt lat="47.56977" lon="1.31494">
        <ele>68.8</ele>
        <time>2020-07-03T08:17:11Z</time>
      </trkpt>
      <trkpt lat="47.56974" lon="1.31486">
        <ele>68.8</ele>
        <time>2020-07-03T08:17:12Z</time>
      </trkpt>
      <trkpt lat="47.5697" lon="1.31479">
        <ele>68.8</ele>
        <time>2020-07-03T08:17:13Z</time>
      </trkpt>
      <trkpt lat="47.56966" lon="1.31472">
        <ele>68.8</ele>
        <time>2020-07-03T08:17:14Z</time>
      </trkpt>
      <trkpt lat="47.56962" lon="1.31464">
        <ele>68.8</ele>
        <time>2020-07-03T08:17:15Z</time>
      </trkpt>
      <trkpt lat="47.56959" lon="1.31457">
        <ele>68.8</ele>
        <time>2020-07-03T08:17:16Z</time>
      </trkpt>
      <trkpt lat="47.56955" lon="1.31449">
        <ele>68.8</ele>
        <time>2020-07-03T08:17:17Z</time>
      </trkpt>
      <trkpt lat="47.56951" lon="1.31442">
        <ele>68.8</ele>
        <time>2020-07-03T08:17:18Z</time>
      </trkpt>
      <trkpt lat="47.56947" lon="1.31434">
        <ele>68.8</ele>
        <time>2020-07-03T08:17:19Z</time>
      </trkpt>
      <trkpt lat="47.56943" lon="1.31426">
        <ele>68.8</ele>
        <time>2020-07-03T08:17:20Z</time>
      </trkpt>
      <trkpt lat="47.56939" lon="1.31419">
        <ele>68.8</ele>
        <time>2020-07-03T08:17:21Z</time>
      </trkpt>
      <trkpt lat="47.56935" lon="1.3141">
        <ele>68.8</ele>
        <time>2020-07-03T08:17:22Z</time>
      </trkpt>
      <trkpt lat="47.5693" lon="1.31403">
        <ele>68.8</ele>
        <time>2020-07-03T08:17:23Z</time>
      </trkpt>
      <trkpt lat="47.56927" lon="1.31396">
        <ele>68.8</ele>
        <time>2020-07-03T08:17:24Z</time>
      </trkpt>
      <trkpt lat="47.56922" lon="1.31388">
        <ele>68.8</ele>
        <time>2020-07-03T08:17:25Z</time>
      </trkpt>
      <trkpt lat="47.56918" lon="1.3138">
        <ele>68.7</ele>
        <time>2020-07-03T08:17:26Z</time>
      </trkpt>
      <trkpt lat="47.56914" lon="1.31373">
        <ele>68.7</ele>
        <time>2020-07-03T08:17:27Z</time>
      </trkpt>
      <trkpt lat="47.56909" lon="1.31366">
        <ele>68.6</ele>
        <time>2020-07-03T08:17:28Z</time>
      </trkpt>
      <trkpt lat="47.56905" lon="1.31359">
        <ele>68.6</ele>
        <time>2020-07-03T08:17:29Z</time>
      </trkpt>
      <trkpt lat="47.569" lon="1.31353">
        <ele>68.6</ele>
        <time>2020-07-03T08:17:30Z</time>
      </trkpt>
      <trkpt lat="47.56896" lon="1.31346">
        <ele>68.6</ele>
        <time>2020-07-03T08:17:31Z</time>
      </trkpt>
      <trkpt lat="47.56891" lon="1.31339">
        <ele>68.6</ele>
        <time>2020-07-03T08:17:32Z</time>
      </trkpt>
      <trkpt lat="47.56886" lon="1.31333">
        <ele>68.5</ele>
        <time>2020-07-03T08:17:33Z</time>
      </trkpt>
      <trkpt lat="47.56881" lon="1.31327">
        <ele>68.5</ele>
        <time>2020-07-03T08:17:34Z</time>
      </trkpt>
      <trkpt lat="47.56877" lon="1.31321">
        <ele>68.4</ele>
        <time>2020-07-03T08:17:35Z</time>
      </trkpt>
      <trkpt lat="47.56873" lon="1.31315">
        <ele>68.4</ele>
        <time>2020-07-03T08:17:36Z</time>
      </trkpt>
      <trkpt lat="47.56868" lon="1.3131">
        <ele>68.3</ele>
        <time>2020-07-03T08:17:37Z</time>
      </trkpt>
      <trkpt lat="47.56864" lon="1.31305">
        <ele>68.3</ele>
        <time>2020-07-03T08:17:38Z</time>
      </trkpt>
      <trkpt lat="47.5686" lon="1.313">
        <ele>68.2</ele>
        <time>2020-07-03T08:17:39Z</time>
      </trkpt>
      <trkpt lat="47.56856" lon="1.31294">
        <ele>68.2</ele>
        <time>2020-07-03T08:17:40Z</time>
      </trkpt>
      <trkpt lat="47.56852" lon="1.31289">
        <ele>68.1</ele>
        <time>2020-07-03T08:17:41Z</time>
      </trkpt>
      <trkpt lat="47.56847" lon="1.31284">
        <ele>68.1</ele>
        <time>2020-07-03T08:17:42Z</time>
      </trkpt>
      <trkpt lat="47.56843" lon="1.31279">
        <ele>68</ele>
        <time>2020-07-03T08:17:43Z</time>
      </trkpt>
      <trkpt lat="47.56838" lon="1.31273">
        <ele>67.9</ele>
        <time>2020-07-03T08:17:44Z</time>
      </trkpt>
      <trkpt lat="47.56834" lon="1.31267">
        <ele>67.9</ele>
        <time>2020-07-03T08:17:45Z</time>
      </trkpt>
      <trkpt lat="47.5683" lon="1.31261">
        <ele>67.8</ele>
        <time>2020-07-03T08:17:46Z</time>
      </trkpt>
      <trkpt lat="47.56825" lon="1.31256">
        <ele>67.7</ele>
        <time>2020-07-03T08:17:47Z</time>
      </trkpt>
      <trkpt lat="47.5682" lon="1.31251">
        <ele>67.7</ele>
        <time>2020-07-03T08:17:48Z</time>
      </trkpt>
      <trkpt lat="47.56814" lon="1.31249">
        <ele>67.7</ele>
        <time>2020-07-03T08:17:49Z</time>
      </trkpt>
      <trkpt lat="47.56809" lon="1.31246">
        <ele>67.6</ele>
        <time>2020-07-03T08:17:50Z</time>
      </trkpt>
      <trkpt lat="47.56804" lon="1.31243">
        <ele>67.6</ele>
        <time>2020-07-03T08:17:51Z</time>
      </trkpt>
      <trkpt lat="47.56799" lon="1.31239">
        <ele>67.6</ele>
        <time>2020-07-03T08:17:52Z</time>
      </trkpt>
      <trkpt lat="47.56794" lon="1.31235">
        <ele>67.6</ele>
        <time>2020-07-03T08:17:53Z</time>
      </trkpt>
      <trkpt lat="47.56789" lon="1.31232">
        <ele>67.6</ele>
        <time>2020-07-03T08:17:54Z</time>
      </trkpt>
      <trkpt lat="47.56785" lon="1.31229">
        <ele>67.6</ele>
        <time>2020-07-03T08:17:55Z</time>
      </trkpt>
      <trkpt lat="47.5678" lon="1.31226">
        <ele>67.6</ele>
        <time>2020-07-03T08:17:56Z</time>
      </trkpt>
      <trkpt lat="47.56775" lon="1.31222">
        <ele>67.7</ele>
        <time>2020-07-03T08:17:57Z</time>
      </trkpt>
      <trkpt lat="47.56771" lon="1.31218">
        <ele>67.7</ele>
        <time>2020-07-03T08:17:58Z</time>
      </trkpt>
      <trkpt lat="47.56768" lon="1.31214">
        <ele>67.8</ele>
        <time>2020-07-03T08:17:59Z</time>
      </trkpt>
      <trkpt lat="47.56765" lon="1.31209">
        <ele>67.8</ele>
        <time>2020-07-03T08:18:00Z</time>
      </trkpt>
      <trkpt lat="47.56763" lon="1.31206">
        <ele>67.8</ele>
        <time>2020-07-03T08:18:01Z</time>
      </trkpt>
      <trkpt lat="47.56761" lon="1.31201">
        <ele>67.9</ele>
        <time>2020-07-03T08:18:02Z</time>
      </trkpt>
      <trkpt lat="47.56758" lon="1.31197">
        <ele>67.8</ele>
        <time>2020-07-03T08:18:03Z</time>
      </trkpt>
      <trkpt lat="47.56755" lon="1.31192">
        <ele>67.7</ele>
        <time>2020-07-03T08:18:04Z</time>
      </trkpt>
      <trkpt lat="47.56752" lon="1.31186">
        <ele>67.6</ele>
        <time>2020-07-03T08:18:05Z</time>
      </trkpt>
      <trkpt lat="47.56749" lon="1.31179">
        <ele>67.5</ele>
        <time>2020-07-03T08:18:06Z</time>
      </trkpt>
      <trkpt lat="47.56746" lon="1.31173">
        <ele>67.5</ele>
        <time>2020-07-03T08:18:07Z</time>
      </trkpt>
      <trkpt lat="47.56742" lon="1.31164">
        <ele>67.5</ele>
        <time>2020-07-03T08:18:08Z</time>
      </trkpt>
      <trkpt lat="47.56739" lon="1.31155">
        <ele>67.5</ele>
        <time>2020-07-03T08:18:09Z</time>
      </trkpt>
      <trkpt lat="47.56736" lon="1.31147">
        <ele>67.5</ele>
        <time>2020-07-03T08:18:10Z</time>
      </trkpt>
      <trkpt lat="47.56731" lon="1.31139">
        <ele>67.6</ele>
        <time>2020-07-03T08:18:11Z</time>
      </trkpt>
      <trkpt lat="47.56728" lon="1.31133">
        <ele>67.6</ele>
        <time>2020-07-03T08:18:12Z</time>
      </trkpt>
      <trkpt lat="47.56724" lon="1.31127">
        <ele>67.6</ele>
        <time>2020-07-03T08:18:13Z</time>
      </trkpt>
      <trkpt lat="47.56719" lon="1.31121">
        <ele>67.6</ele>
        <time>2020-07-03T08:18:14Z</time>
      </trkpt>
      <trkpt lat="47.56715" lon="1.31116">
        <ele>67.7</ele>
        <time>2020-07-03T08:18:15Z</time>
      </trkpt>
      <trkpt lat="47.56709" lon="1.31109">
        <ele>67.7</ele>
        <time>2020-07-03T08:18:16Z</time>
      </trkpt>
      <trkpt lat="47.56703" lon="1.31102">
        <ele>67.7</ele>
        <time>2020-07-03T08:18:17Z</time>
      </trkpt>
      <trkpt lat="47.56698" lon="1.31097">
        <ele>67.7</ele>
        <time>2020-07-03T08:18:18Z</time>
      </trkpt>
      <trkpt lat="47.56693" lon="1.31091">
        <ele>67.7</ele>
        <time>2020-07-03T08:18:19Z</time>
      </trkpt>
      <trkpt lat="47.56689" lon="1.31086">
        <ele>67.7</ele>
        <time>2020-07-03T08:18:20Z</time>
      </trkpt>
      <trkpt lat="47.56684" lon="1.3108">
        <ele>67.7</ele>
        <time>2020-07-03T08:18:21Z</time>
      </trkpt>
      <trkpt lat="47.56679" lon="1.31074">
        <ele>67.7</ele>
        <time>2020-07-03T08:18:22Z</time>
      </trkpt>
      <trkpt lat="47.56673" lon="1.31069">
        <ele>67.7</ele>
        <time>2020-07-03T08:18:23Z</time>
      </trkpt>
      <trkpt lat="47.56668" lon="1.31064">
        <ele>67.7</ele>
        <time>2020-07-03T08:18:24Z</time>
      </trkpt>
      <trkpt lat="47.56663" lon="1.31059">
        <ele>67.7</ele>
        <time>2020-07-03T08:18:25Z</time>
      </trkpt>
      <trkpt lat="47.56658" lon="1.31053">
        <ele>67.7</ele>
        <time>2020-07-03T08:18:26Z</time>
      </trkpt>
      <trkpt lat="47.56653" lon="1.31047">
        <ele>67.7</ele>
        <time>2020-07-03T08:18:27Z</time>
      </trkpt>
      <trkpt lat="47.56647" lon="1.31041">
        <ele>67.6</ele>
        <time>2020-07-03T08:18:28Z</time>
      </trkpt>
      <trkpt lat="47.56641" lon="1.31035">
        <ele>67.6</ele>
        <time>2020-07-03T08:18:29Z</time>
      </trkpt>
      <trkpt lat="47.56636" lon="1.31028">
        <ele>67.6</ele>
        <time>2020-07-03T08:18:30Z</time>
      </trkpt>
      <trkpt lat="47.5663" lon="1.31022">
        <ele>67.6</ele>
        <time>2020-07-03T08:18:31Z</time>
      </trkpt>
      <trkpt lat="47.56625" lon="1.31015">
        <ele>67.6</ele>
        <time>2020-07-03T08:18:32Z</time>
      </trkpt>
      <trkpt lat="47.56619" lon="1.31009">
        <ele>67.6</ele>
        <time>2020-07-03T08:18:33Z</time>
      </trkpt>
      <trkpt lat="47.56614" lon="1.31002">
        <ele>67.6</ele>
        <time>2020-07-03T08:18:34Z</time>
      </trkpt>
      <trkpt lat="47.56608" lon="1.30996">
        <ele>67.6</ele>
        <time>2020-07-03T08:18:35Z</time>
      </trkpt>
      <trkpt lat="47.56602" lon="1.3099">
        <ele>67.6</ele>
        <time>2020-07-03T08:18:36Z</time>
      </trkpt>
      <trkpt lat="47.56596" lon="1.30984">
        <ele>67.6</ele>
        <time>2020-07-03T08:18:37Z</time>
      </trkpt>
      <trkpt lat="47.56591" lon="1.30977">
        <ele>67.6</ele>
        <time>2020-07-03T08:18:38Z</time>
      </trkpt>
      <trkpt lat="47.56585" lon="1.30971">
        <ele>67.6</ele>
        <time>2020-07-03T08:18:39Z</time>
      </trkpt>
      <trkpt lat="47.5658" lon="1.30965">
        <ele>67.6</ele>
        <time>2020-07-03T08:18:40Z</time>
      </trkpt>
      <trkpt lat="47.56574" lon="1.30959">
        <ele>67.7</ele>
        <time>2020-07-03T08:18:41Z</time>
      </trkpt>
      <trkpt lat="47.56569" lon="1.30954">
        <ele>67.7</ele>
        <time>2020-07-03T08:18:42Z</time>
      </trkpt>
      <trkpt lat="47.56564" lon="1.30948">
        <ele>67.7</ele>
        <time>2020-07-03T08:18:43Z</time>
      </trkpt>
      <trkpt lat="47.56559" lon="1.30942">
        <ele>67.7</ele>
        <time>2020-07-03T08:18:44Z</time>
      </trkpt>
      <trkpt lat="47.56554" lon="1.30936">
        <ele>67.8</ele>
        <time>2020-07-03T08:18:45Z</time>
      </trkpt>
      <trkpt lat="47.56548" lon="1.30931">
        <ele>67.8</ele>
        <time>2020-07-03T08:18:46Z</time>
      </trkpt>
      <trkpt lat="47.56543" lon="1.30925">
        <ele>67.8</ele>
        <time>2020-07-03T08:18:47Z</time>
      </trkpt>
      <trkpt lat="47.56538" lon="1.3092">
        <ele>67.9</ele>
        <time>2020-07-03T08:18:48Z</time>
      </trkpt>
      <trkpt lat="47.56532" lon="1.30916">
        <ele>68</ele>
        <time>2020-07-03T08:18:49Z</time>
      </trkpt>
      <trkpt lat="47.56527" lon="1.3091">
        <ele>68</ele>
        <time>2020-07-03T08:18:50Z</time>
      </trkpt>
      <trkpt lat="47.56521" lon="1.30905">
        <ele>68.1</ele>
        <time>2020-07-03T08:18:51Z</time>
      </trkpt>
      <trkpt lat="47.56516" lon="1.309">
        <ele>68.1</ele>
        <time>2020-07-03T08:18:52Z</time>
      </trkpt>
      <trkpt lat="47.56511" lon="1.30894">
        <ele>68.2</ele>
        <time>2020-07-03T08:18:53Z</time>
      </trkpt>
      <trkpt lat="47.56505" lon="1.30888">
        <ele>68.2</ele>
        <time>2020-07-03T08:18:54Z</time>
      </trkpt>
      <trkpt lat="47.56501" lon="1.30883">
        <ele>68.1</ele>
        <time>2020-07-03T08:18:55Z</time>
      </trkpt>
      <trkpt lat="47.56496" lon="1.30878">
        <ele>68.1</ele>
        <time>2020-07-03T08:18:56Z</time>
      </trkpt>
      <trkpt lat="47.56491" lon="1.30872">
        <ele>68.1</ele>
        <time>2020-07-03T08:18:57Z</time>
      </trkpt>
      <trkpt lat="47.56487" lon="1.30867">
        <ele>68.1</ele>
        <time>2020-07-03T08:18:58Z</time>
      </trkpt>
      <trkpt lat="47.56482" lon="1.3086">
        <ele>68.1</ele>
        <time>2020-07-03T08:18:59Z</time>
      </trkpt>
      <trkpt lat="47.56477" lon="1.30855">
        <ele>68.1</ele>
        <time>2020-07-03T08:19:00Z</time>
      </trkpt>
      <trkpt lat="47.56472" lon="1.30849">
        <ele>68.1</ele>
        <time>2020-07-03T08:19:01Z</time>
      </trkpt>
      <trkpt lat="47.56467" lon="1.30845">
        <ele>68.1</ele>
        <time>2020-07-03T08:19:02Z</time>
      </trkpt>
      <trkpt lat="47.56462" lon="1.30839">
        <ele>68.1</ele>
        <time>2020-07-03T08:19:03Z</time>
      </trkpt>
      <trkpt lat="47.56457" lon="1.30835">
        <ele>68</ele>
        <time>2020-07-03T08:19:04Z</time>
      </trkpt>
      <trkpt lat="47.56452" lon="1.3083">
        <ele>68</ele>
        <time>2020-07-03T08:19:05Z</time>
      </trkpt>
      <trkpt lat="47.56447" lon="1.30825">
        <ele>68</ele>
        <time>2020-07-03T08:19:06Z</time>
      </trkpt>
      <trkpt lat="47.56441" lon="1.30821">
        <ele>68</ele>
        <time>2020-07-03T08:19:07Z</time>
      </trkpt>
      <trkpt lat="47.56435" lon="1.30816">
        <ele>68.1</ele>
        <time>2020-07-03T08:19:08Z</time>
      </trkpt>
      <trkpt lat="47.5643" lon="1.30811">
        <ele>68.1</ele>
        <time>2020-07-03T08:19:09Z</time>
      </trkpt>
      <trkpt lat="47.56425" lon="1.30806">
        <ele>68.1</ele>
        <time>2020-07-03T08:19:10Z</time>
      </trkpt>
      <trkpt lat="47.5642" lon="1.308">
        <ele>68.1</ele>
        <time>2020-07-03T08:19:11Z</time>
      </trkpt>
      <trkpt lat="47.56415" lon="1.30794">
        <ele>68.1</ele>
        <time>2020-07-03T08:19:12Z</time>
      </trkpt>
      <trkpt lat="47.5641" lon="1.30788">
        <ele>68</ele>
        <time>2020-07-03T08:19:13Z</time>
      </trkpt>
      <trkpt lat="47.56404" lon="1.30783">
        <ele>68</ele>
        <time>2020-07-03T08:19:14Z</time>
      </trkpt>
      <trkpt lat="47.56399" lon="1.30777">
        <ele>68</ele>
        <time>2020-07-03T08:19:15Z</time>
      </trkpt>
      <trkpt lat="47.56395" lon="1.30772">
        <ele>68</ele>
        <time>2020-07-03T08:19:16Z</time>
      </trkpt>
      <trkpt lat="47.5639" lon="1.30767">
        <ele>68</ele>
        <time>2020-07-03T08:19:17Z</time>
      </trkpt>
      <trkpt lat="47.56385" lon="1.30762">
        <ele>67.9</ele>
        <time>2020-07-03T08:19:18Z</time>
      </trkpt>
      <trkpt lat="47.56379" lon="1.30756">
        <ele>67.9</ele>
        <time>2020-07-03T08:19:19Z</time>
      </trkpt>
      <trkpt lat="47.56374" lon="1.3075">
        <ele>67.9</ele>
        <time>2020-07-03T08:19:20Z</time>
      </trkpt>
      <trkpt lat="47.56369" lon="1.30744">
        <ele>67.8</ele>
        <time>2020-07-03T08:19:21Z</time>
      </trkpt>
      <trkpt lat="47.56363" lon="1.30738">
        <ele>67.8</ele>
        <time>2020-07-03T08:19:22Z</time>
      </trkpt>
      <trkpt lat="47.56358" lon="1.30732">
        <ele>67.7</ele>
        <time>2020-07-03T08:19:23Z</time>
      </trkpt>
      <trkpt lat="47.56352" lon="1.30728">
        <ele>67.7</ele>
        <time>2020-07-03T08:19:24Z</time>
      </trkpt>
      <trkpt lat="47.56346" lon="1.30722">
        <ele>67.7</ele>
        <time>2020-07-03T08:19:25Z</time>
      </trkpt>
      <trkpt lat="47.5634" lon="1.30717">
        <ele>67.7</ele>
        <time>2020-07-03T08:19:26Z</time>
      </trkpt>
      <trkpt lat="47.56334" lon="1.30712">
        <ele>67.7</ele>
        <time>2020-07-03T08:19:27Z</time>
      </trkpt>
      <trkpt lat="47.56328" lon="1.30706">
        <ele>67.7</ele>
        <time>2020-07-03T08:19:28Z</time>
      </trkpt>
      <trkpt lat="47.56322" lon="1.307">
        <ele>67.7</ele>
        <time>2020-07-03T08:19:29Z</time>
      </trkpt>
      <trkpt lat="47.56317" lon="1.30694">
        <ele>67.7</ele>
        <time>2020-07-03T08:19:30Z</time>
      </trkpt>
      <trkpt lat="47.5631" lon="1.30689">
        <ele>67.7</ele>
        <time>2020-07-03T08:19:31Z</time>
      </trkpt>
      <trkpt lat="47.56305" lon="1.30684">
        <ele>67.7</ele>
        <time>2020-07-03T08:19:32Z</time>
      </trkpt>
      <trkpt lat="47.56299" lon="1.30678">
        <ele>67.7</ele>
        <time>2020-07-03T08:19:33Z</time>
      </trkpt>
      <trkpt lat="47.56293" lon="1.30673">
        <ele>67.8</ele>
        <time>2020-07-03T08:19:34Z</time>
      </trkpt>
      <trkpt lat="47.56287" lon="1.30668">
        <ele>67.8</ele>
        <time>2020-07-03T08:19:35Z</time>
      </trkpt>
      <trkpt lat="47.56281" lon="1.30662">
        <ele>67.8</ele>
        <time>2020-07-03T08:19:36Z</time>
      </trkpt>
      <trkpt lat="47.56276" lon="1.30655">
        <ele>67.7</ele>
        <time>2020-07-03T08:19:37Z</time>
      </trkpt>
      <trkpt lat="47.5627" lon="1.30649">
        <ele>67.7</ele>
        <time>2020-07-03T08:19:38Z</time>
      </trkpt>
      <trkpt lat="47.56265" lon="1.30644">
        <ele>67.7</ele>
        <time>2020-07-03T08:19:39Z</time>
      </trkpt>
      <trkpt lat="47.56258" lon="1.3064">
        <ele>67.7</ele>
        <time>2020-07-03T08:19:40Z</time>
      </trkpt>
      <trkpt lat="47.56252" lon="1.30636">
        <ele>67.7</ele>
        <time>2020-07-03T08:19:41Z</time>
      </trkpt>
      <trkpt lat="47.56246" lon="1.30631">
        <ele>67.7</ele>
        <time>2020-07-03T08:19:42Z</time>
      </trkpt>
      <trkpt lat="47.56241" lon="1.30625">
        <ele>67.7</ele>
        <time>2020-07-03T08:19:43Z</time>
      </trkpt>
      <trkpt lat="47.56235" lon="1.3062">
        <ele>67.7</ele>
        <time>2020-07-03T08:19:44Z</time>
      </trkpt>
      <trkpt lat="47.56229" lon="1.30615">
        <ele>67.7</ele>
        <time>2020-07-03T08:19:45Z</time>
      </trkpt>
      <trkpt lat="47.56224" lon="1.30609">
        <ele>67.7</ele>
        <time>2020-07-03T08:19:46Z</time>
      </trkpt>
      <trkpt lat="47.56218" lon="1.30604">
        <ele>67.7</ele>
        <time>2020-07-03T08:19:47Z</time>
      </trkpt>
      <trkpt lat="47.56213" lon="1.30598">
        <ele>67.8</ele>
        <time>2020-07-03T08:19:48Z</time>
      </trkpt>
      <trkpt lat="47.56208" lon="1.30593">
        <ele>67.8</ele>
        <time>2020-07-03T08:19:49Z</time>
      </trkpt>
      <trkpt lat="47.56202" lon="1.30587">
        <ele>67.8</ele>
        <time>2020-07-03T08:19:50Z</time>
      </trkpt>
      <trkpt lat="47.56197" lon="1.30582">
        <ele>67.8</ele>
        <time>2020-07-03T08:19:51Z</time>
      </trkpt>
      <trkpt lat="47.56192" lon="1.30576">
        <ele>67.8</ele>
        <time>2020-07-03T08:19:52Z</time>
      </trkpt>
      <trkpt lat="47.56187" lon="1.30571">
        <ele>67.8</ele>
        <time>2020-07-03T08:19:53Z</time>
      </trkpt>
      <trkpt lat="47.56182" lon="1.30566">
        <ele>67.7</ele>
        <time>2020-07-03T08:19:54Z</time>
      </trkpt>
      <trkpt lat="47.56176" lon="1.3056">
        <ele>67.7</ele>
        <time>2020-07-03T08:19:55Z</time>
      </trkpt>
      <trkpt lat="47.56171" lon="1.30555">
        <ele>67.7</ele>
        <time>2020-07-03T08:19:56Z</time>
      </trkpt>
      <trkpt lat="47.56166" lon="1.30548">
        <ele>67.7</ele>
        <time>2020-07-03T08:19:57Z</time>
      </trkpt>
      <trkpt lat="47.56161" lon="1.30543">
        <ele>67.7</ele>
        <time>2020-07-03T08:19:58Z</time>
      </trkpt>
      <trkpt lat="47.56156" lon="1.30537">
        <ele>67.7</ele>
        <time>2020-07-03T08:19:59Z</time>
      </trkpt>
      <trkpt lat="47.5615" lon="1.30532">
        <ele>67.7</ele>
        <time>2020-07-03T08:20:00Z</time>
      </trkpt>
      <trkpt lat="47.56145" lon="1.30528">
        <ele>67.7</ele>
        <time>2020-07-03T08:20:01Z</time>
      </trkpt>
      <trkpt lat="47.56139" lon="1.30524">
        <ele>67.7</ele>
        <time>2020-07-03T08:20:02Z</time>
      </trkpt>
      <trkpt lat="47.56134" lon="1.30519">
        <ele>67.6</ele>
        <time>2020-07-03T08:20:03Z</time>
      </trkpt>
      <trkpt lat="47.56128" lon="1.30515">
        <ele>67.6</ele>
        <time>2020-07-03T08:20:04Z</time>
      </trkpt>
      <trkpt lat="47.56122" lon="1.30511">
        <ele>67.6</ele>
        <time>2020-07-03T08:20:05Z</time>
      </trkpt>
      <trkpt lat="47.56116" lon="1.30507">
        <ele>67.5</ele>
        <time>2020-07-03T08:20:06Z</time>
      </trkpt>
      <trkpt lat="47.56111" lon="1.30502">
        <ele>67.5</ele>
        <time>2020-07-03T08:20:07Z</time>
      </trkpt>
      <trkpt lat="47.56105" lon="1.30498">
        <ele>67.4</ele>
        <time>2020-07-03T08:20:08Z</time>
      </trkpt>
      <trkpt lat="47.561" lon="1.30494">
        <ele>67.4</ele>
        <time>2020-07-03T08:20:09Z</time>
      </trkpt>
      <trkpt lat="47.56095" lon="1.3049">
        <ele>67.4</ele>
        <time>2020-07-03T08:20:10Z</time>
      </trkpt>
      <trkpt lat="47.5609" lon="1.30487">
        <ele>67.4</ele>
        <time>2020-07-03T08:20:11Z</time>
      </trkpt>
      <trkpt lat="47.56086" lon="1.30482">
        <ele>67.4</ele>
        <time>2020-07-03T08:20:12Z</time>
      </trkpt>
      <trkpt lat="47.56081" lon="1.30477">
        <ele>67.5</ele>
        <time>2020-07-03T08:20:13Z</time>
      </trkpt>
      <trkpt lat="47.56077" lon="1.30472">
        <ele>67.5</ele>
        <time>2020-07-03T08:20:14Z</time>
      </trkpt>
      <trkpt lat="47.56072" lon="1.30468">
        <ele>67.4</ele>
        <time>2020-07-03T08:20:15Z</time>
      </trkpt>
      <trkpt lat="47.56067" lon="1.30464">
        <ele>67.4</ele>
        <time>2020-07-03T08:20:16Z</time>
      </trkpt>
      <trkpt lat="47.56062" lon="1.3046">
        <ele>67.4</ele>
        <time>2020-07-03T08:20:17Z</time>
      </trkpt>
      <trkpt lat="47.56058" lon="1.30457">
        <ele>67.4</ele>
        <time>2020-07-03T08:20:18Z</time>
      </trkpt>
      <trkpt lat="47.56053" lon="1.30453">
        <ele>67.4</ele>
        <time>2020-07-03T08:20:19Z</time>
      </trkpt>
      <trkpt lat="47.56048" lon="1.3045">
        <ele>67.4</ele>
        <time>2020-07-03T08:20:20Z</time>
      </trkpt>
      <trkpt lat="47.56043" lon="1.30446">
        <ele>67.4</ele>
        <time>2020-07-03T08:20:21Z</time>
      </trkpt>
      <trkpt lat="47.56037" lon="1.30441">
        <ele>67.4</ele>
        <time>2020-07-03T08:20:22Z</time>
      </trkpt>
      <trkpt lat="47.56032" lon="1.30438">
        <ele>67.4</ele>
        <time>2020-07-03T08:20:23Z</time>
      </trkpt>
      <trkpt lat="47.56026" lon="1.30432">
        <ele>67.4</ele>
        <time>2020-07-03T08:20:24Z</time>
      </trkpt>
      <trkpt lat="47.56022" lon="1.30429">
        <ele>67.4</ele>
        <time>2020-07-03T08:20:25Z</time>
      </trkpt>
      <trkpt lat="47.56017" lon="1.30425">
        <ele>67.4</ele>
        <time>2020-07-03T08:20:26Z</time>
      </trkpt>
      <trkpt lat="47.56012" lon="1.3042">
        <ele>67.4</ele>
        <time>2020-07-03T08:20:27Z</time>
      </trkpt>
      <trkpt lat="47.56007" lon="1.30415">
        <ele>67.4</ele>
        <time>2020-07-03T08:20:28Z</time>
      </trkpt>
      <trkpt lat="47.56002" lon="1.30411">
        <ele>67.4</ele>
        <time>2020-07-03T08:20:29Z</time>
      </trkpt>
      <trkpt lat="47.55998" lon="1.30408">
        <ele>67.4</ele>
        <time>2020-07-03T08:20:30Z</time>
      </trkpt>
      <trkpt lat="47.55994" lon="1.30406">
        <ele>67.4</ele>
        <time>2020-07-03T08:20:31Z</time>
      </trkpt>
      <trkpt lat="47.55989" lon="1.30402">
        <ele>67.4</ele>
        <time>2020-07-03T08:20:32Z</time>
      </trkpt>
      <trkpt lat="47.55984" lon="1.30398">
        <ele>67.4</ele>
        <time>2020-07-03T08:20:33Z</time>
      </trkpt>
      <trkpt lat="47.55979" lon="1.30395">
        <ele>67.4</ele>
        <time>2020-07-03T08:20:34Z</time>
      </trkpt>
      <trkpt lat="47.55975" lon="1.30391">
        <ele>67.4</ele>
        <time>2020-07-03T08:20:35Z</time>
      </trkpt>
      <trkpt lat="47.55971" lon="1.30387">
        <ele>67.4</ele>
        <time>2020-07-03T08:20:36Z</time>
      </trkpt>
      <trkpt lat="47.55966" lon="1.30384">
        <ele>67.4</ele>
        <time>2020-07-03T08:20:37Z</time>
      </trkpt>
      <trkpt lat="47.55961" lon="1.30379">
        <ele>67.4</ele>
        <time>2020-07-03T08:20:38Z</time>
      </trkpt>
      <trkpt lat="47.55956" lon="1.30375">
        <ele>67.4</ele>
        <time>2020-07-03T08:20:39Z</time>
      </trkpt>
      <trkpt lat="47.55951" lon="1.30371">
        <ele>67.4</ele>
        <time>2020-07-03T08:20:40Z</time>
      </trkpt>
      <trkpt lat="47.55946" lon="1.30367">
        <ele>67.5</ele>
        <time>2020-07-03T08:20:41Z</time>
      </trkpt>
      <trkpt lat="47.55941" lon="1.30363">
        <ele>67.5</ele>
        <time>2020-07-03T08:20:42Z</time>
      </trkpt>
      <trkpt lat="47.55936" lon="1.3036">
        <ele>67.6</ele>
        <time>2020-07-03T08:20:43Z</time>
      </trkpt>
      <trkpt lat="47.5593" lon="1.30356">
        <ele>67.7</ele>
        <time>2020-07-03T08:20:44Z</time>
      </trkpt>
      <trkpt lat="47.55925" lon="1.30351">
        <ele>67.7</ele>
        <time>2020-07-03T08:20:45Z</time>
      </trkpt>
      <trkpt lat="47.5592" lon="1.30348">
        <ele>67.8</ele>
        <time>2020-07-03T08:20:46Z</time>
      </trkpt>
      <trkpt lat="47.55915" lon="1.30344">
        <ele>67.9</ele>
        <time>2020-07-03T08:20:47Z</time>
      </trkpt>
      <trkpt lat="47.55909" lon="1.30341">
        <ele>68</ele>
        <time>2020-07-03T08:20:48Z</time>
      </trkpt>
      <trkpt lat="47.55903" lon="1.30337">
        <ele>68.1</ele>
        <time>2020-07-03T08:20:49Z</time>
      </trkpt>
      <trkpt lat="47.55898" lon="1.30334">
        <ele>68.2</ele>
        <time>2020-07-03T08:20:50Z</time>
      </trkpt>
      <trkpt lat="47.55893" lon="1.30331">
        <ele>68.3</ele>
        <time>2020-07-03T08:20:51Z</time>
      </trkpt>
      <trkpt lat="47.55888" lon="1.30328">
        <ele>68.5</ele>
        <time>2020-07-03T08:20:52Z</time>
      </trkpt>
      <trkpt lat="47.55883" lon="1.30324">
        <ele>68.6</ele>
        <time>2020-07-03T08:20:53Z</time>
      </trkpt>
      <trkpt lat="47.55878" lon="1.30321">
        <ele>68.7</ele>
        <time>2020-07-03T08:20:54Z</time>
      </trkpt>
      <trkpt lat="47.55874" lon="1.30318">
        <ele>68.9</ele>
        <time>2020-07-03T08:20:55Z</time>
      </trkpt>
      <trkpt lat="47.55869" lon="1.30314">
        <ele>69</ele>
        <time>2020-07-03T08:20:56Z</time>
      </trkpt>
      <trkpt lat="47.55866" lon="1.30311">
        <ele>69.1</ele>
        <time>2020-07-03T08:20:57Z</time>
      </trkpt>
      <trkpt lat="47.55862" lon="1.30309">
        <ele>69.1</ele>
        <time>2020-07-03T08:20:58Z</time>
      </trkpt>
      <trkpt lat="47.55857" lon="1.30305">
        <ele>68.8</ele>
        <time>2020-07-03T08:20:59Z</time>
      </trkpt>
      <trkpt lat="47.55852" lon="1.30302">
        <ele>68.4</ele>
        <time>2020-07-03T08:21:00Z</time>
      </trkpt>
      <trkpt lat="47.55849" lon="1.303">
        <ele>68.1</ele>
        <time>2020-07-03T08:21:01Z</time>
      </trkpt>
      <trkpt lat="47.55846" lon="1.30299">
        <ele>67.9</ele>
        <time>2020-07-03T08:21:02Z</time>
      </trkpt>
      <trkpt lat="47.55845" lon="1.30298">
        <ele>67.9</ele>
        <time>2020-07-03T08:21:03Z</time>
      </trkpt>
      <trkpt lat="47.55842" lon="1.30296">
        <ele>67.6</ele>
        <time>2020-07-03T08:21:04Z</time>
      </trkpt>
      <trkpt lat="47.55841" lon="1.30295">
        <ele>67.5</ele>
        <time>2020-07-03T08:21:05Z</time>
      </trkpt>
      <trkpt lat="47.55837" lon="1.30292">
        <ele>67.2</ele>
        <time>2020-07-03T08:21:06Z</time>
      </trkpt>
      <trkpt lat="47.55831" lon="1.30285">
        <ele>66.8</ele>
        <time>2020-07-03T08:21:07Z</time>
      </trkpt>
      <trkpt lat="47.55826" lon="1.3028">
        <ele>66.5</ele>
        <time>2020-07-03T08:21:08Z</time>
      </trkpt>
      <trkpt lat="47.5582" lon="1.30275">
        <ele>66.2</ele>
        <time>2020-07-03T08:21:09Z</time>
      </trkpt>
      <trkpt lat="47.55814" lon="1.30267">
        <ele>66</ele>
        <time>2020-07-03T08:21:10Z</time>
      </trkpt>
      <trkpt lat="47.55808" lon="1.30262">
        <ele>65.9</ele>
        <time>2020-07-03T08:21:11Z</time>
      </trkpt>
      <trkpt lat="47.55803" lon="1.30259">
        <ele>65.9</ele>
        <time>2020-07-03T08:21:12Z</time>
      </trkpt>
      <trkpt lat="47.55798" lon="1.30254">
        <ele>65.8</ele>
        <time>2020-07-03T08:21:13Z</time>
      </trkpt>
      <trkpt lat="47.55792" lon="1.30249">
        <ele>65.7</ele>
        <time>2020-07-03T08:21:14Z</time>
      </trkpt>
      <trkpt lat="47.55786" lon="1.30245">
        <ele>65.7</ele>
        <time>2020-07-03T08:21:15Z</time>
      </trkpt>
      <trkpt lat="47.5578" lon="1.3024">
        <ele>65.7</ele>
        <time>2020-07-03T08:21:16Z</time>
      </trkpt>
      <trkpt lat="47.55775" lon="1.30236">
        <ele>65.7</ele>
        <time>2020-07-03T08:21:17Z</time>
      </trkpt>
      <trkpt lat="47.55769" lon="1.30232">
        <ele>65.7</ele>
        <time>2020-07-03T08:21:18Z</time>
      </trkpt>
      <trkpt lat="47.55763" lon="1.30227">
        <ele>65.7</ele>
        <time>2020-07-03T08:21:19Z</time>
      </trkpt>
      <trkpt lat="47.55758" lon="1.30223">
        <ele>65.8</ele>
        <time>2020-07-03T08:21:20Z</time>
      </trkpt>
      <trkpt lat="47.55752" lon="1.30218">
        <ele>65.8</ele>
        <time>2020-07-03T08:21:21Z</time>
      </trkpt>
      <trkpt lat="47.55746" lon="1.30213">
        <ele>65.8</ele>
        <time>2020-07-03T08:21:22Z</time>
      </trkpt>
      <trkpt lat="47.55741" lon="1.30209">
        <ele>65.8</ele>
        <time>2020-07-03T08:21:23Z</time>
      </trkpt>
      <trkpt lat="47.55735" lon="1.30205">
        <ele>65.8</ele>
        <time>2020-07-03T08:21:24Z</time>
      </trkpt>
      <trkpt lat="47.55729" lon="1.30201">
        <ele>65.8</ele>
        <time>2020-07-03T08:21:25Z</time>
      </trkpt>
      <trkpt lat="47.55724" lon="1.30196">
        <ele>65.7</ele>
        <time>2020-07-03T08:21:26Z</time>
      </trkpt>
      <trkpt lat="47.55718" lon="1.30193">
        <ele>65.7</ele>
        <time>2020-07-03T08:21:27Z</time>
      </trkpt>
      <trkpt lat="47.55713" lon="1.30189">
        <ele>65.7</ele>
        <time>2020-07-03T08:21:28Z</time>
      </trkpt>
      <trkpt lat="47.55707" lon="1.30184">
        <ele>65.7</ele>
        <time>2020-07-03T08:21:29Z</time>
      </trkpt>
      <trkpt lat="47.55701" lon="1.3018">
        <ele>65.7</ele>
        <time>2020-07-03T08:21:30Z</time>
      </trkpt>
      <trkpt lat="47.55695" lon="1.30174">
        <ele>65.8</ele>
        <time>2020-07-03T08:21:31Z</time>
      </trkpt>
      <trkpt lat="47.55689" lon="1.3017">
        <ele>65.8</ele>
        <time>2020-07-03T08:21:32Z</time>
      </trkpt>
      <trkpt lat="47.55684" lon="1.30165">
        <ele>65.8</ele>
        <time>2020-07-03T08:21:33Z</time>
      </trkpt>
      <trkpt lat="47.55677" lon="1.30161">
        <ele>65.9</ele>
        <time>2020-07-03T08:21:34Z</time>
      </trkpt>
      <trkpt lat="47.55671" lon="1.30157">
        <ele>65.8</ele>
        <time>2020-07-03T08:21:35Z</time>
      </trkpt>
      <trkpt lat="47.55665" lon="1.30153">
        <ele>65.8</ele>
        <time>2020-07-03T08:21:36Z</time>
      </trkpt>
      <trkpt lat="47.55658" lon="1.30148">
        <ele>65.8</ele>
        <time>2020-07-03T08:21:37Z</time>
      </trkpt>
      <trkpt lat="47.55652" lon="1.30144">
        <ele>65.8</ele>
        <time>2020-07-03T08:21:38Z</time>
      </trkpt>
      <trkpt lat="47.55646" lon="1.3014">
        <ele>65.8</ele>
        <time>2020-07-03T08:21:39Z</time>
      </trkpt>
      <trkpt lat="47.5564" lon="1.30135">
        <ele>65.8</ele>
        <time>2020-07-03T08:21:40Z</time>
      </trkpt>
      <trkpt lat="47.55634" lon="1.30131">
        <ele>65.8</ele>
        <time>2020-07-03T08:21:41Z</time>
      </trkpt>
      <trkpt lat="47.55629" lon="1.30127">
        <ele>65.8</ele>
        <time>2020-07-03T08:21:42Z</time>
      </trkpt>
      <trkpt lat="47.55623" lon="1.30124">
        <ele>65.8</ele>
        <time>2020-07-03T08:21:43Z</time>
      </trkpt>
      <trkpt lat="47.55617" lon="1.30121">
        <ele>65.8</ele>
        <time>2020-07-03T08:21:44Z</time>
      </trkpt>
      <trkpt lat="47.55612" lon="1.30117">
        <ele>65.7</ele>
        <time>2020-07-03T08:21:45Z</time>
      </trkpt>
      <trkpt lat="47.55607" lon="1.30112">
        <ele>65.7</ele>
        <time>2020-07-03T08:21:46Z</time>
      </trkpt>
      <trkpt lat="47.55602" lon="1.30108">
        <ele>65.7</ele>
        <time>2020-07-03T08:21:47Z</time>
      </trkpt>
      <trkpt lat="47.55596" lon="1.30104">
        <ele>65.7</ele>
        <time>2020-07-03T08:21:48Z</time>
      </trkpt>
      <trkpt lat="47.55591" lon="1.30099">
        <ele>65.7</ele>
        <time>2020-07-03T08:21:49Z</time>
      </trkpt>
      <trkpt lat="47.55586" lon="1.30096">
        <ele>65.7</ele>
        <time>2020-07-03T08:21:50Z</time>
      </trkpt>
      <trkpt lat="47.5558" lon="1.3009">
        <ele>65.7</ele>
        <time>2020-07-03T08:21:51Z</time>
      </trkpt>
      <trkpt lat="47.55574" lon="1.30086">
        <ele>65.7</ele>
        <time>2020-07-03T08:21:52Z</time>
      </trkpt>
      <trkpt lat="47.55569" lon="1.30081">
        <ele>65.8</ele>
        <time>2020-07-03T08:21:53Z</time>
      </trkpt>
      <trkpt lat="47.55564" lon="1.30077">
        <ele>65.8</ele>
        <time>2020-07-03T08:21:54Z</time>
      </trkpt>
      <trkpt lat="47.55557" lon="1.30074">
        <ele>65.9</ele>
        <time>2020-07-03T08:21:55Z</time>
      </trkpt>
      <trkpt lat="47.5555" lon="1.3007">
        <ele>66</ele>
        <time>2020-07-03T08:21:56Z</time>
      </trkpt>
      <trkpt lat="47.55544" lon="1.3007">
        <ele>66.2</ele>
        <time>2020-07-03T08:21:57Z</time>
      </trkpt>
      <trkpt lat="47.55538" lon="1.30069">
        <ele>66.4</ele>
        <time>2020-07-03T08:21:58Z</time>
      </trkpt>
      <trkpt lat="47.55533" lon="1.30068">
        <ele>66.5</ele>
        <time>2020-07-03T08:21:59Z</time>
      </trkpt>
      <trkpt lat="47.55529" lon="1.30067">
        <ele>66.6</ele>
        <time>2020-07-03T08:22:00Z</time>
      </trkpt>
      <trkpt lat="47.55524" lon="1.30066">
        <ele>66.7</ele>
        <time>2020-07-03T08:22:01Z</time>
      </trkpt>
      <trkpt lat="47.5552" lon="1.30064">
        <ele>66.7</ele>
        <time>2020-07-03T08:22:02Z</time>
      </trkpt>
      <trkpt lat="47.55517" lon="1.30063">
        <ele>66.7</ele>
        <time>2020-07-03T08:22:03Z</time>
      </trkpt>
      <trkpt lat="47.55513" lon="1.30059">
        <ele>66.8</ele>
        <time>2020-07-03T08:22:04Z</time>
      </trkpt>
      <trkpt lat="47.55509" lon="1.30057">
        <ele>66.8</ele>
        <time>2020-07-03T08:22:05Z</time>
      </trkpt>
      <trkpt lat="47.55506" lon="1.30054">
        <ele>66.8</ele>
        <time>2020-07-03T08:22:06Z</time>
      </trkpt>
      <trkpt lat="47.55502" lon="1.30051">
        <ele>66.8</ele>
        <time>2020-07-03T08:22:07Z</time>
      </trkpt>
      <trkpt lat="47.55498" lon="1.30048">
        <ele>66.8</ele>
        <time>2020-07-03T08:22:08Z</time>
      </trkpt>
      <trkpt lat="47.55493" lon="1.30045">
        <ele>66.9</ele>
        <time>2020-07-03T08:22:09Z</time>
      </trkpt>
      <trkpt lat="47.55489" lon="1.30042">
        <ele>66.9</ele>
        <time>2020-07-03T08:22:10Z</time>
      </trkpt>
      <trkpt lat="47.55484" lon="1.30038">
        <ele>66.9</ele>
        <time>2020-07-03T08:22:11Z</time>
      </trkpt>
      <trkpt lat="47.55479" lon="1.30034">
        <ele>67</ele>
        <time>2020-07-03T08:22:12Z</time>
      </trkpt>
      <trkpt lat="47.55475" lon="1.3003">
        <ele>67</ele>
        <time>2020-07-03T08:22:13Z</time>
      </trkpt>
      <trkpt lat="47.55471" lon="1.30027">
        <ele>67</ele>
        <time>2020-07-03T08:22:14Z</time>
      </trkpt>
      <trkpt lat="47.55467" lon="1.30023">
        <ele>67</ele>
        <time>2020-07-03T08:22:15Z</time>
      </trkpt>
      <trkpt lat="47.55462" lon="1.30019">
        <ele>67.1</ele>
        <time>2020-07-03T08:22:16Z</time>
      </trkpt>
      <trkpt lat="47.55458" lon="1.30014">
        <ele>67.1</ele>
        <time>2020-07-03T08:22:17Z</time>
      </trkpt>
      <trkpt lat="47.55454" lon="1.3001">
        <ele>67.1</ele>
        <time>2020-07-03T08:22:18Z</time>
      </trkpt>
      <trkpt lat="47.5545" lon="1.30005">
        <ele>67.1</ele>
        <time>2020-07-03T08:22:19Z</time>
      </trkpt>
      <trkpt lat="47.55447" lon="1.30001">
        <ele>67.2</ele>
        <time>2020-07-03T08:22:20Z</time>
      </trkpt>
      <trkpt lat="47.55444" lon="1.29997">
        <ele>67.2</ele>
        <time>2020-07-03T08:22:21Z</time>
      </trkpt>
      <trkpt lat="47.55442" lon="1.29994">
        <ele>67.2</ele>
        <time>2020-07-03T08:22:22Z</time>
      </trkpt>
      <trkpt lat="47.55441" lon="1.29994">
        <ele>67.2</ele>
        <time>2020-07-03T08:22:23Z</time>
      </trkpt>
      <trkpt lat="47.55441" lon="1.29993">
        <ele>67.2</ele>
        <time>2020-07-03T08:22:24Z</time>
      </trkpt>
      <trkpt lat="47.55439" lon="1.2999">
        <ele>67.2</ele>
        <time>2020-07-03T08:22:25Z</time>
      </trkpt>
      <trkpt lat="47.55438" lon="1.29989">
        <ele>67.2</ele>
        <time>2020-07-03T08:22:26Z</time>
      </trkpt>
      <trkpt lat="47.55435" lon="1.29985">
        <ele>67.2</ele>
        <time>2020-07-03T08:22:27Z</time>
      </trkpt>
      <trkpt lat="47.55432" lon="1.29983">
        <ele>67.2</ele>
        <time>2020-07-03T08:22:28Z</time>
      </trkpt>
      <trkpt lat="47.55429" lon="1.2998">
        <ele>67.2</ele>
        <time>2020-07-03T08:22:29Z</time>
      </trkpt>
      <trkpt lat="47.55425" lon="1.29977">
        <ele>67.1</ele>
        <time>2020-07-03T08:22:30Z</time>
      </trkpt>
      <trkpt lat="47.5542" lon="1.29974">
        <ele>67.1</ele>
        <time>2020-07-03T08:22:31Z</time>
      </trkpt>
      <trkpt lat="47.55415" lon="1.2997">
        <ele>67.1</ele>
        <time>2020-07-03T08:22:32Z</time>
      </trkpt>
      <trkpt lat="47.55411" lon="1.29966">
        <ele>67</ele>
        <time>2020-07-03T08:22:33Z</time>
      </trkpt>
      <trkpt lat="47.55405" lon="1.29962">
        <ele>67</ele>
        <time>2020-07-03T08:22:34Z</time>
      </trkpt>
      <trkpt lat="47.554" lon="1.29958">
        <ele>67.1</ele>
        <time>2020-07-03T08:22:35Z</time>
      </trkpt>
      <trkpt lat="47.55393" lon="1.29954">
        <ele>67.1</ele>
        <time>2020-07-03T08:22:36Z</time>
      </trkpt>
      <trkpt lat="47.55387" lon="1.29951">
        <ele>67.2</ele>
        <time>2020-07-03T08:22:37Z</time>
      </trkpt>
      <trkpt lat="47.55382" lon="1.29947">
        <ele>67.2</ele>
        <time>2020-07-03T08:22:38Z</time>
      </trkpt>
      <trkpt lat="47.55376" lon="1.29945">
        <ele>67.2</ele>
        <time>2020-07-03T08:22:39Z</time>
      </trkpt>
      <trkpt lat="47.55372" lon="1.29942">
        <ele>67.3</ele>
        <time>2020-07-03T08:22:40Z</time>
      </trkpt>
      <trkpt lat="47.55367" lon="1.29941">
        <ele>67.3</ele>
        <time>2020-07-03T08:22:41Z</time>
      </trkpt>
      <trkpt lat="47.55362" lon="1.29943">
        <ele>67.4</ele>
        <time>2020-07-03T08:22:42Z</time>
      </trkpt>
      <trkpt lat="47.55359" lon="1.2995">
        <ele>67.4</ele>
        <time>2020-07-03T08:22:43Z</time>
      </trkpt>
      <trkpt lat="47.55356" lon="1.29957">
        <ele>67.5</ele>
        <time>2020-07-03T08:22:44Z</time>
      </trkpt>
      <trkpt lat="47.55353" lon="1.29964">
        <ele>67.5</ele>
        <time>2020-07-03T08:22:45Z</time>
      </trkpt>
      <trkpt lat="47.5535" lon="1.29971">
        <ele>67.4</ele>
        <time>2020-07-03T08:22:46Z</time>
      </trkpt>
      <trkpt lat="47.55348" lon="1.29977">
        <ele>67.4</ele>
        <time>2020-07-03T08:22:47Z</time>
      </trkpt>
      <trkpt lat="47.55346" lon="1.29983">
        <ele>67.4</ele>
        <time>2020-07-03T08:22:48Z</time>
      </trkpt>
      <trkpt lat="47.55343" lon="1.29991">
        <ele>67.4</ele>
        <time>2020-07-03T08:22:49Z</time>
      </trkpt>
      <trkpt lat="47.55341" lon="1.29998">
        <ele>67.4</ele>
        <time>2020-07-03T08:22:50Z</time>
      </trkpt>
      <trkpt lat="47.55338" lon="1.30005">
        <ele>67.4</ele>
        <time>2020-07-03T08:22:51Z</time>
      </trkpt>
      <trkpt lat="47.55335" lon="1.30012">
        <ele>67.4</ele>
        <time>2020-07-03T08:22:52Z</time>
      </trkpt>
      <trkpt lat="47.55333" lon="1.30018">
        <ele>67.5</ele>
        <time>2020-07-03T08:22:53Z</time>
      </trkpt>
      <trkpt lat="47.5533" lon="1.30025">
        <ele>67.5</ele>
        <time>2020-07-03T08:22:54Z</time>
      </trkpt>
      <trkpt lat="47.55328" lon="1.3003">
        <ele>67.5</ele>
        <time>2020-07-03T08:22:55Z</time>
      </trkpt>
      <trkpt lat="47.55325" lon="1.30035">
        <ele>67.6</ele>
        <time>2020-07-03T08:22:56Z</time>
      </trkpt>
      <trkpt lat="47.55323" lon="1.30039">
        <ele>67.6</ele>
        <time>2020-07-03T08:22:57Z</time>
      </trkpt>
      <trkpt lat="47.5532" lon="1.30041">
        <ele>67.6</ele>
        <time>2020-07-03T08:22:58Z</time>
      </trkpt>
      <trkpt lat="47.55315" lon="1.30041">
        <ele>67.6</ele>
        <time>2020-07-03T08:22:59Z</time>
      </trkpt>
      <trkpt lat="47.55312" lon="1.30033">
        <ele>67.6</ele>
        <time>2020-07-03T08:23:00Z</time>
      </trkpt>
      <trkpt lat="47.55308" lon="1.30028">
        <ele>67.5</ele>
        <time>2020-07-03T08:23:01Z</time>
      </trkpt>
      <trkpt lat="47.55305" lon="1.30025">
        <ele>67.5</ele>
        <time>2020-07-03T08:23:02Z</time>
      </trkpt>
      <trkpt lat="47.55301" lon="1.30021">
        <ele>67.5</ele>
        <time>2020-07-03T08:23:03Z</time>
      </trkpt>
      <trkpt lat="47.55297" lon="1.30017">
        <ele>67.4</ele>
        <time>2020-07-03T08:23:04Z</time>
      </trkpt>
      <trkpt lat="47.55293" lon="1.30013">
        <ele>67.4</ele>
        <time>2020-07-03T08:23:05Z</time>
      </trkpt>
      <trkpt lat="47.55287" lon="1.30007">
        <ele>67.3</ele>
        <time>2020-07-03T08:23:06Z</time>
      </trkpt>
      <trkpt lat="47.55282" lon="1.30001">
        <ele>67.3</ele>
        <time>2020-07-03T08:23:07Z</time>
      </trkpt>
      <trkpt lat="47.55278" lon="1.29996">
        <ele>67.3</ele>
        <time>2020-07-03T08:23:08Z</time>
      </trkpt>
      <trkpt lat="47.55272" lon="1.2999">
        <ele>67.4</ele>
        <time>2020-07-03T08:23:09Z</time>
      </trkpt>
      <trkpt lat="47.55267" lon="1.29985">
        <ele>67.4</ele>
        <time>2020-07-03T08:23:10Z</time>
      </trkpt>
      <trkpt lat="47.55263" lon="1.29981">
        <ele>67.4</ele>
        <time>2020-07-03T08:23:11Z</time>
      </trkpt>
      <trkpt lat="47.55257" lon="1.29976">
        <ele>67.4</ele>
        <time>2020-07-03T08:23:12Z</time>
      </trkpt>
      <trkpt lat="47.55252" lon="1.29971">
        <ele>67.5</ele>
        <time>2020-07-03T08:23:13Z</time>
      </trkpt>
      <trkpt lat="47.55246" lon="1.29967">
        <ele>67.6</ele>
        <time>2020-07-03T08:23:14Z</time>
      </trkpt>
      <trkpt lat="47.55242" lon="1.29963">
        <ele>67.6</ele>
        <time>2020-07-03T08:23:15Z</time>
      </trkpt>
      <trkpt lat="47.55237" lon="1.29959">
        <ele>67.6</ele>
        <time>2020-07-03T08:23:16Z</time>
      </trkpt>
      <trkpt lat="47.55231" lon="1.29954">
        <ele>67.7</ele>
        <time>2020-07-03T08:23:17Z</time>
      </trkpt>
      <trkpt lat="47.55226" lon="1.2995">
        <ele>67.7</ele>
        <time>2020-07-03T08:23:18Z</time>
      </trkpt>
      <trkpt lat="47.55221" lon="1.29945">
        <ele>67.7</ele>
        <time>2020-07-03T08:23:19Z</time>
      </trkpt>
      <trkpt lat="47.55215" lon="1.2994">
        <ele>67.8</ele>
        <time>2020-07-03T08:23:20Z</time>
      </trkpt>
      <trkpt lat="47.55211" lon="1.29935">
        <ele>67.9</ele>
        <time>2020-07-03T08:23:21Z</time>
      </trkpt>
      <trkpt lat="47.55207" lon="1.29931">
        <ele>68</ele>
        <time>2020-07-03T08:23:22Z</time>
      </trkpt>
      <trkpt lat="47.55202" lon="1.29927">
        <ele>68.1</ele>
        <time>2020-07-03T08:23:23Z</time>
      </trkpt>
      <trkpt lat="47.552" lon="1.29924">
        <ele>68.1</ele>
        <time>2020-07-03T08:23:24Z</time>
      </trkpt>
      <trkpt lat="47.55196" lon="1.29921">
        <ele>68.2</ele>
        <time>2020-07-03T08:23:25Z</time>
      </trkpt>
      <trkpt lat="47.55192" lon="1.29919">
        <ele>68.3</ele>
        <time>2020-07-03T08:23:26Z</time>
      </trkpt>
      <trkpt lat="47.55188" lon="1.2992">
        <ele>68.3</ele>
        <time>2020-07-03T08:23:27Z</time>
      </trkpt>
      <trkpt lat="47.55185" lon="1.29925">
        <ele>68.4</ele>
        <time>2020-07-03T08:23:28Z</time>
      </trkpt>
      <trkpt lat="47.55183" lon="1.29931">
        <ele>68.4</ele>
        <time>2020-07-03T08:23:29Z</time>
      </trkpt>
      <trkpt lat="47.5518" lon="1.29938">
        <ele>68.4</ele>
        <time>2020-07-03T08:23:30Z</time>
      </trkpt>
      <trkpt lat="47.55177" lon="1.29944">
        <ele>68.4</ele>
        <time>2020-07-03T08:23:31Z</time>
      </trkpt>
      <trkpt lat="47.55174" lon="1.2995">
        <ele>68.3</ele>
        <time>2020-07-03T08:23:32Z</time>
      </trkpt>
      <trkpt lat="47.55171" lon="1.29957">
        <ele>68.3</ele>
        <time>2020-07-03T08:23:33Z</time>
      </trkpt>
      <trkpt lat="47.55167" lon="1.29964">
        <ele>68.2</ele>
        <time>2020-07-03T08:23:34Z</time>
      </trkpt>
      <trkpt lat="47.55164" lon="1.2997">
        <ele>68.1</ele>
        <time>2020-07-03T08:23:35Z</time>
      </trkpt>
      <trkpt lat="47.5516" lon="1.29977">
        <ele>68.1</ele>
        <time>2020-07-03T08:23:36Z</time>
      </trkpt>
      <trkpt lat="47.55157" lon="1.29984">
        <ele>68.1</ele>
        <time>2020-07-03T08:23:37Z</time>
      </trkpt>
      <trkpt lat="47.55154" lon="1.2999">
        <ele>68</ele>
        <time>2020-07-03T08:23:38Z</time>
      </trkpt>
      <trkpt lat="47.55152" lon="1.29996">
        <ele>68</ele>
        <time>2020-07-03T08:23:39Z</time>
      </trkpt>
      <trkpt lat="47.55148" lon="1.30002">
        <ele>67.9</ele>
        <time>2020-07-03T08:23:40Z</time>
      </trkpt>
      <trkpt lat="47.55145" lon="1.3001">
        <ele>67.7</ele>
        <time>2020-07-03T08:23:41Z</time>
      </trkpt>
      <trkpt lat="47.55141" lon="1.30017">
        <ele>67.7</ele>
        <time>2020-07-03T08:23:42Z</time>
      </trkpt>
      <trkpt lat="47.55138" lon="1.30024">
        <ele>67.7</ele>
        <time>2020-07-03T08:23:43Z</time>
      </trkpt>
      <trkpt lat="47.55135" lon="1.3003">
        <ele>67.6</ele>
        <time>2020-07-03T08:23:44Z</time>
      </trkpt>
      <trkpt lat="47.55132" lon="1.30035">
        <ele>67.6</ele>
        <time>2020-07-03T08:23:45Z</time>
      </trkpt>
      <trkpt lat="47.55129" lon="1.3004">
        <ele>67.6</ele>
        <time>2020-07-03T08:23:46Z</time>
      </trkpt>
      <trkpt lat="47.55126" lon="1.30044">
        <ele>67.6</ele>
        <time>2020-07-03T08:23:47Z</time>
      </trkpt>
      <trkpt lat="47.55123" lon="1.30051">
        <ele>67.6</ele>
        <time>2020-07-03T08:23:48Z</time>
      </trkpt>
      <trkpt lat="47.5512" lon="1.30057">
        <ele>67.6</ele>
        <time>2020-07-03T08:23:49Z</time>
      </trkpt>
      <trkpt lat="47.55117" lon="1.30063">
        <ele>67.6</ele>
        <time>2020-07-03T08:23:50Z</time>
      </trkpt>
      <trkpt lat="47.55114" lon="1.30071">
        <ele>67.6</ele>
        <time>2020-07-03T08:23:51Z</time>
      </trkpt>
      <trkpt lat="47.55109" lon="1.30079">
        <ele>67.6</ele>
        <time>2020-07-03T08:23:52Z</time>
      </trkpt>
      <trkpt lat="47.55105" lon="1.30086">
        <ele>67.6</ele>
        <time>2020-07-03T08:23:53Z</time>
      </trkpt>
      <trkpt lat="47.55101" lon="1.30093">
        <ele>67.5</ele>
        <time>2020-07-03T08:23:54Z</time>
      </trkpt>
      <trkpt lat="47.55098" lon="1.301">
        <ele>67.5</ele>
        <time>2020-07-03T08:23:55Z</time>
      </trkpt>
      <trkpt lat="47.55094" lon="1.30108">
        <ele>67.5</ele>
        <time>2020-07-03T08:23:56Z</time>
      </trkpt>
      <trkpt lat="47.55092" lon="1.30115">
        <ele>67.5</ele>
        <time>2020-07-03T08:23:57Z</time>
      </trkpt>
      <trkpt lat="47.55089" lon="1.30124">
        <ele>67.5</ele>
        <time>2020-07-03T08:23:58Z</time>
      </trkpt>
      <trkpt lat="47.55089" lon="1.30129">
        <ele>67.5</ele>
        <time>2020-07-03T08:23:59Z</time>
      </trkpt>
      <trkpt lat="47.55086" lon="1.30135">
        <ele>67.5</ele>
        <time>2020-07-03T08:24:00Z</time>
      </trkpt>
      <trkpt lat="47.55083" lon="1.30142">
        <ele>67.5</ele>
        <time>2020-07-03T08:24:01Z</time>
      </trkpt>
      <trkpt lat="47.55079" lon="1.30149">
        <ele>67.4</ele>
        <time>2020-07-03T08:24:02Z</time>
      </trkpt>
      <trkpt lat="47.55076" lon="1.30156">
        <ele>67.4</ele>
        <time>2020-07-03T08:24:03Z</time>
      </trkpt>
      <trkpt lat="47.55072" lon="1.30162">
        <ele>67.4</ele>
        <time>2020-07-03T08:24:04Z</time>
      </trkpt>
      <trkpt lat="47.55069" lon="1.30169">
        <ele>67.5</ele>
        <time>2020-07-03T08:24:05Z</time>
      </trkpt>
      <trkpt lat="47.55066" lon="1.30174">
        <ele>67.5</ele>
        <time>2020-07-03T08:24:06Z</time>
      </trkpt>
      <trkpt lat="47.55064" lon="1.30179">
        <ele>67.5</ele>
        <time>2020-07-03T08:24:07Z</time>
      </trkpt>
      <trkpt lat="47.55061" lon="1.30185">
        <ele>67.5</ele>
        <time>2020-07-03T08:24:08Z</time>
      </trkpt>
      <trkpt lat="47.55058" lon="1.30189">
        <ele>67.5</ele>
        <time>2020-07-03T08:24:09Z</time>
      </trkpt>
      <trkpt lat="47.55055" lon="1.30193">
        <ele>67.6</ele>
        <time>2020-07-03T08:24:10Z</time>
      </trkpt>
      <trkpt lat="47.55051" lon="1.30193">
        <ele>67.6</ele>
        <time>2020-07-03T08:24:11Z</time>
      </trkpt>
      <trkpt lat="47.55047" lon="1.30187">
        <ele>67.5</ele>
        <time>2020-07-03T08:24:12Z</time>
      </trkpt>
      <trkpt lat="47.55042" lon="1.30181">
        <ele>67.5</ele>
        <time>2020-07-03T08:24:13Z</time>
      </trkpt>
      <trkpt lat="47.55038" lon="1.30177">
        <ele>67.4</ele>
        <time>2020-07-03T08:24:14Z</time>
      </trkpt>
      <trkpt lat="47.55033" lon="1.30173">
        <ele>67.4</ele>
        <time>2020-07-03T08:24:15Z</time>
      </trkpt>
      <trkpt lat="47.55028" lon="1.30168">
        <ele>67.4</ele>
        <time>2020-07-03T08:24:16Z</time>
      </trkpt>
      <trkpt lat="47.55023" lon="1.30164">
        <ele>67.4</ele>
        <time>2020-07-03T08:24:17Z</time>
      </trkpt>
      <trkpt lat="47.55018" lon="1.30158">
        <ele>67.4</ele>
        <time>2020-07-03T08:24:18Z</time>
      </trkpt>
      <trkpt lat="47.55013" lon="1.30154">
        <ele>67.3</ele>
        <time>2020-07-03T08:24:19Z</time>
      </trkpt>
      <trkpt lat="47.55007" lon="1.30149">
        <ele>67.3</ele>
        <time>2020-07-03T08:24:20Z</time>
      </trkpt>
      <trkpt lat="47.55002" lon="1.30142">
        <ele>67.3</ele>
        <time>2020-07-03T08:24:21Z</time>
      </trkpt>
      <trkpt lat="47.54997" lon="1.30137">
        <ele>67.3</ele>
        <time>2020-07-03T08:24:22Z</time>
      </trkpt>
      <trkpt lat="47.54991" lon="1.30131">
        <ele>67.3</ele>
        <time>2020-07-03T08:24:23Z</time>
      </trkpt>
      <trkpt lat="47.54986" lon="1.30126">
        <ele>67.3</ele>
        <time>2020-07-03T08:24:24Z</time>
      </trkpt>
      <trkpt lat="47.54981" lon="1.3012">
        <ele>67.4</ele>
        <time>2020-07-03T08:24:25Z</time>
      </trkpt>
      <trkpt lat="47.54975" lon="1.30115">
        <ele>67.5</ele>
        <time>2020-07-03T08:24:26Z</time>
      </trkpt>
      <trkpt lat="47.5497" lon="1.3011">
        <ele>67.5</ele>
        <time>2020-07-03T08:24:27Z</time>
      </trkpt>
      <trkpt lat="47.54966" lon="1.30106">
        <ele>67.6</ele>
        <time>2020-07-03T08:24:28Z</time>
      </trkpt>
      <trkpt lat="47.54961" lon="1.30103">
        <ele>67.6</ele>
        <time>2020-07-03T08:24:29Z</time>
      </trkpt>
      <trkpt lat="47.54957" lon="1.30101">
        <ele>67.6</ele>
        <time>2020-07-03T08:24:30Z</time>
      </trkpt>
      <trkpt lat="47.54953" lon="1.30102">
        <ele>67.6</ele>
        <time>2020-07-03T08:24:31Z</time>
      </trkpt>
      <trkpt lat="47.5495" lon="1.30104">
        <ele>67.6</ele>
        <time>2020-07-03T08:24:32Z</time>
      </trkpt>
      <trkpt lat="47.54946" lon="1.30108">
        <ele>67.6</ele>
        <time>2020-07-03T08:24:33Z</time>
      </trkpt>
      <trkpt lat="47.54942" lon="1.30112">
        <ele>67.6</ele>
        <time>2020-07-03T08:24:34Z</time>
      </trkpt>
      <trkpt lat="47.54939" lon="1.30117">
        <ele>67.6</ele>
        <time>2020-07-03T08:24:35Z</time>
      </trkpt>
      <trkpt lat="47.54936" lon="1.30122">
        <ele>67.5</ele>
        <time>2020-07-03T08:24:36Z</time>
      </trkpt>
      <trkpt lat="47.54933" lon="1.30127">
        <ele>67.5</ele>
        <time>2020-07-03T08:24:37Z</time>
      </trkpt>
      <trkpt lat="47.5493" lon="1.30131">
        <ele>67.5</ele>
        <time>2020-07-03T08:24:38Z</time>
      </trkpt>
      <trkpt lat="47.54928" lon="1.30135">
        <ele>67.5</ele>
        <time>2020-07-03T08:24:39Z</time>
      </trkpt>
      <trkpt lat="47.54925" lon="1.30138">
        <ele>67.5</ele>
        <time>2020-07-03T08:24:40Z</time>
      </trkpt>
      <trkpt lat="47.54923" lon="1.30142">
        <ele>67.5</ele>
        <time>2020-07-03T08:24:41Z</time>
      </trkpt>
      <trkpt lat="47.54921" lon="1.30145">
        <ele>67.5</ele>
        <time>2020-07-03T08:24:42Z</time>
      </trkpt>
      <trkpt lat="47.54919" lon="1.30148">
        <ele>67.5</ele>
        <time>2020-07-03T08:24:43Z</time>
      </trkpt>
      <trkpt lat="47.54915" lon="1.30152">
        <ele>67.5</ele>
        <time>2020-07-03T08:24:44Z</time>
      </trkpt>
      <trkpt lat="47.54912" lon="1.30155">
        <ele>67.5</ele>
        <time>2020-07-03T08:24:45Z</time>
      </trkpt>
      <trkpt lat="47.54911" lon="1.30157">
        <ele>67.5</ele>
        <time>2020-07-03T08:24:46Z</time>
      </trkpt>
      <trkpt lat="47.54909" lon="1.3016">
        <ele>67.5</ele>
        <time>2020-07-03T08:24:47Z</time>
      </trkpt>
      <trkpt lat="47.54907" lon="1.30164">
        <ele>67.5</ele>
        <time>2020-07-03T08:24:48Z</time>
      </trkpt>
      <trkpt lat="47.54907" lon="1.30166">
        <ele>67.5</ele>
        <time>2020-07-03T08:24:49Z</time>
      </trkpt>
      <trkpt lat="47.54905" lon="1.30169">
        <ele>67.5</ele>
        <time>2020-07-03T08:24:50Z</time>
      </trkpt>
      <trkpt lat="47.54903" lon="1.30172">
        <ele>67.5</ele>
        <time>2020-07-03T08:24:51Z</time>
      </trkpt>
      <trkpt lat="47.54902" lon="1.30176">
        <ele>67.5</ele>
        <time>2020-07-03T08:24:52Z</time>
      </trkpt>
      <trkpt lat="47.54901" lon="1.30178">
        <ele>67.5</ele>
        <time>2020-07-03T08:24:53Z</time>
      </trkpt>
      <trkpt lat="47.549" lon="1.3018">
        <ele>67.5</ele>
        <time>2020-07-03T08:24:54Z</time>
      </trkpt>
      <trkpt lat="47.54898" lon="1.30182">
        <ele>67.5</ele>
        <time>2020-07-03T08:24:55Z</time>
      </trkpt>
      <trkpt lat="47.54897" lon="1.30183">
        <ele>67.5</ele>
        <time>2020-07-03T08:24:56Z</time>
      </trkpt>
      <trkpt lat="47.54895" lon="1.30184">
        <ele>67.5</ele>
        <time>2020-07-03T08:24:57Z</time>
      </trkpt>
      <trkpt lat="47.54893" lon="1.30187">
        <ele>67.5</ele>
        <time>2020-07-03T08:24:58Z</time>
      </trkpt>
      <trkpt lat="47.5489" lon="1.30187">
        <ele>67.4</ele>
        <time>2020-07-03T08:24:59Z</time>
      </trkpt>
      <trkpt lat="47.54888" lon="1.30186">
        <ele>67.4</ele>
        <time>2020-07-03T08:25:00Z</time>
      </trkpt>
      <trkpt lat="47.54889" lon="1.30182">
        <ele>67.4</ele>
        <time>2020-07-03T08:25:01Z</time>
      </trkpt>
      <trkpt lat="47.5489" lon="1.3018">
        <ele>67.4</ele>
        <time>2020-07-03T08:25:02Z</time>
      </trkpt>
      <trkpt lat="47.54892" lon="1.30178">
        <ele>67.4</ele>
        <time>2020-07-03T08:25:03Z</time>
      </trkpt>
      <trkpt lat="47.54893" lon="1.30177">
        <ele>67.4</ele>
        <time>2020-07-03T08:25:04Z</time>
      </trkpt>
      <trkpt lat="47.54896" lon="1.30175">
        <ele>67.4</ele>
        <time>2020-07-03T08:25:05Z</time>
      </trkpt>
      <trkpt lat="47.54898" lon="1.30172">
        <ele>67.4</ele>
        <time>2020-07-03T08:25:06Z</time>
      </trkpt>
      <trkpt lat="47.54901" lon="1.30168">
        <ele>67.4</ele>
        <time>2020-07-03T08:25:07Z</time>
      </trkpt>
      <trkpt lat="47.54904" lon="1.30164">
        <ele>67.5</ele>
        <time>2020-07-03T08:25:08Z</time>
      </trkpt>
      <trkpt lat="47.54908" lon="1.3016">
        <ele>67.5</ele>
        <time>2020-07-03T08:25:09Z</time>
      </trkpt>
      <trkpt lat="47.54911" lon="1.30156">
        <ele>67.5</ele>
        <time>2020-07-03T08:25:10Z</time>
      </trkpt>
      <trkpt lat="47.54916" lon="1.3015">
        <ele>67.5</ele>
        <time>2020-07-03T08:25:11Z</time>
      </trkpt>
      <trkpt lat="47.5492" lon="1.30143">
        <ele>67.5</ele>
        <time>2020-07-03T08:25:12Z</time>
      </trkpt>
      <trkpt lat="47.54923" lon="1.30136">
        <ele>67.5</ele>
        <time>2020-07-03T08:25:13Z</time>
      </trkpt>
      <trkpt lat="47.54926" lon="1.3013">
        <ele>67.5</ele>
        <time>2020-07-03T08:25:14Z</time>
      </trkpt>
      <trkpt lat="47.5493" lon="1.30123">
        <ele>67.5</ele>
        <time>2020-07-03T08:25:15Z</time>
      </trkpt>
      <trkpt lat="47.54934" lon="1.30116">
        <ele>67.5</ele>
        <time>2020-07-03T08:25:16Z</time>
      </trkpt>
      <trkpt lat="47.54939" lon="1.30109">
        <ele>67.5</ele>
        <time>2020-07-03T08:25:17Z</time>
      </trkpt>
      <trkpt lat="47.54944" lon="1.30102">
        <ele>67.6</ele>
        <time>2020-07-03T08:25:18Z</time>
      </trkpt>
      <trkpt lat="47.54948" lon="1.30096">
        <ele>67.6</ele>
        <time>2020-07-03T08:25:19Z</time>
      </trkpt>
      <trkpt lat="47.54952" lon="1.3009">
        <ele>67.6</ele>
        <time>2020-07-03T08:25:20Z</time>
      </trkpt>
      <trkpt lat="47.54956" lon="1.30084">
        <ele>67.5</ele>
        <time>2020-07-03T08:25:21Z</time>
      </trkpt>
      <trkpt lat="47.5496" lon="1.30078">
        <ele>67.3</ele>
        <time>2020-07-03T08:25:22Z</time>
      </trkpt>
      <trkpt lat="47.54965" lon="1.30073">
        <ele>67.2</ele>
        <time>2020-07-03T08:25:23Z</time>
      </trkpt>
      <trkpt lat="47.54969" lon="1.30068">
        <ele>67.1</ele>
        <time>2020-07-03T08:25:24Z</time>
      </trkpt>
      <trkpt lat="47.54974" lon="1.30062">
        <ele>66.9</ele>
        <time>2020-07-03T08:25:25Z</time>
      </trkpt>
      <trkpt lat="47.54979" lon="1.30056">
        <ele>66.8</ele>
        <time>2020-07-03T08:25:26Z</time>
      </trkpt>
      <trkpt lat="47.54984" lon="1.3005">
        <ele>66.7</ele>
        <time>2020-07-03T08:25:27Z</time>
      </trkpt>
      <trkpt lat="47.54988" lon="1.30044">
        <ele>66.6</ele>
        <time>2020-07-03T08:25:28Z</time>
      </trkpt>
      <trkpt lat="47.54993" lon="1.30037">
        <ele>66.6</ele>
        <time>2020-07-03T08:25:29Z</time>
      </trkpt>
      <trkpt lat="47.54998" lon="1.3003">
        <ele>66.5</ele>
        <time>2020-07-03T08:25:30Z</time>
      </trkpt>
      <trkpt lat="47.55002" lon="1.30024">
        <ele>66.5</ele>
        <time>2020-07-03T08:25:31Z</time>
      </trkpt>
      <trkpt lat="47.55007" lon="1.30017">
        <ele>66.5</ele>
        <time>2020-07-03T08:25:32Z</time>
      </trkpt>
      <trkpt lat="47.55012" lon="1.3001">
        <ele>66.6</ele>
        <time>2020-07-03T08:25:33Z</time>
      </trkpt>
      <trkpt lat="47.55016" lon="1.30004">
        <ele>66.6</ele>
        <time>2020-07-03T08:25:34Z</time>
      </trkpt>
      <trkpt lat="47.55021" lon="1.29997">
        <ele>66.6</ele>
        <time>2020-07-03T08:25:35Z</time>
      </trkpt>
      <trkpt lat="47.55027" lon="1.29991">
        <ele>66.7</ele>
        <time>2020-07-03T08:25:36Z</time>
      </trkpt>
      <trkpt lat="47.55032" lon="1.29984">
        <ele>66.7</ele>
        <time>2020-07-03T08:25:37Z</time>
      </trkpt>
      <trkpt lat="47.55038" lon="1.29978">
        <ele>66.7</ele>
        <time>2020-07-03T08:25:38Z</time>
      </trkpt>
      <trkpt lat="47.55042" lon="1.29971">
        <ele>66.7</ele>
        <time>2020-07-03T08:25:39Z</time>
      </trkpt>
      <trkpt lat="47.55047" lon="1.29965">
        <ele>66.7</ele>
        <time>2020-07-03T08:25:40Z</time>
      </trkpt>
      <trkpt lat="47.55051" lon="1.29958">
        <ele>66.8</ele>
        <time>2020-07-03T08:25:41Z</time>
      </trkpt>
      <trkpt lat="47.55056" lon="1.29951">
        <ele>66.8</ele>
        <time>2020-07-03T08:25:42Z</time>
      </trkpt>
      <trkpt lat="47.55061" lon="1.29944">
        <ele>66.8</ele>
        <time>2020-07-03T08:25:43Z</time>
      </trkpt>
      <trkpt lat="47.55066" lon="1.29937">
        <ele>66.9</ele>
        <time>2020-07-03T08:25:44Z</time>
      </trkpt>
      <trkpt lat="47.55072" lon="1.2993">
        <ele>66.9</ele>
        <time>2020-07-03T08:25:45Z</time>
      </trkpt>
      <trkpt lat="47.55076" lon="1.29924">
        <ele>67</ele>
        <time>2020-07-03T08:25:46Z</time>
      </trkpt>
      <trkpt lat="47.55081" lon="1.29918">
        <ele>67</ele>
        <time>2020-07-03T08:25:47Z</time>
      </trkpt>
      <trkpt lat="47.55085" lon="1.29912">
        <ele>67.1</ele>
        <time>2020-07-03T08:25:48Z</time>
      </trkpt>
      <trkpt lat="47.5509" lon="1.29906">
        <ele>67.1</ele>
        <time>2020-07-03T08:25:49Z</time>
      </trkpt>
      <trkpt lat="47.55095" lon="1.299">
        <ele>67.1</ele>
        <time>2020-07-03T08:25:50Z</time>
      </trkpt>
      <trkpt lat="47.551" lon="1.29894">
        <ele>67.2</ele>
        <time>2020-07-03T08:25:51Z</time>
      </trkpt>
      <trkpt lat="47.55106" lon="1.29887">
        <ele>67.3</ele>
        <time>2020-07-03T08:25:52Z</time>
      </trkpt>
      <trkpt lat="47.55111" lon="1.29881">
        <ele>67.4</ele>
        <time>2020-07-03T08:25:53Z</time>
      </trkpt>
      <trkpt lat="47.55116" lon="1.29874">
        <ele>67.6</ele>
        <time>2020-07-03T08:25:54Z</time>
      </trkpt>
      <trkpt lat="47.55122" lon="1.29869">
        <ele>67.8</ele>
        <time>2020-07-03T08:25:55Z</time>
      </trkpt>
      <trkpt lat="47.55126" lon="1.29865">
        <ele>68</ele>
        <time>2020-07-03T08:25:56Z</time>
      </trkpt>
      <trkpt lat="47.55132" lon="1.2986">
        <ele>68.2</ele>
        <time>2020-07-03T08:25:57Z</time>
      </trkpt>
      <trkpt lat="47.55136" lon="1.29856">
        <ele>68.3</ele>
        <time>2020-07-03T08:25:58Z</time>
      </trkpt>
      <trkpt lat="47.55141" lon="1.29851">
        <ele>68.4</ele>
        <time>2020-07-03T08:25:59Z</time>
      </trkpt>
      <trkpt lat="47.55145" lon="1.29846">
        <ele>68.5</ele>
        <time>2020-07-03T08:26:00Z</time>
      </trkpt>
      <trkpt lat="47.5515" lon="1.29841">
        <ele>68.8</ele>
        <time>2020-07-03T08:26:01Z</time>
      </trkpt>
      <trkpt lat="47.55155" lon="1.29837">
        <ele>69</ele>
        <time>2020-07-03T08:26:02Z</time>
      </trkpt>
      <trkpt lat="47.55158" lon="1.29834">
        <ele>69.1</ele>
        <time>2020-07-03T08:26:03Z</time>
      </trkpt>
      <trkpt lat="47.5516" lon="1.29831">
        <ele>69.4</ele>
        <time>2020-07-03T08:26:04Z</time>
      </trkpt>
      <trkpt lat="47.55164" lon="1.29828">
        <ele>69.5</ele>
        <time>2020-07-03T08:26:05Z</time>
      </trkpt>
      <trkpt lat="47.55168" lon="1.29825">
        <ele>69.7</ele>
        <time>2020-07-03T08:26:06Z</time>
      </trkpt>
      <trkpt lat="47.55171" lon="1.29823">
        <ele>69.8</ele>
        <time>2020-07-03T08:26:07Z</time>
      </trkpt>
      <trkpt lat="47.55173" lon="1.29819">
        <ele>69.9</ele>
        <time>2020-07-03T08:26:08Z</time>
      </trkpt>
      <trkpt lat="47.55174" lon="1.29814">
        <ele>70</ele>
        <time>2020-07-03T08:26:09Z</time>
      </trkpt>
      <trkpt lat="47.55173" lon="1.29813">
        <ele>70</ele>
        <time>2020-07-03T08:26:10Z</time>
      </trkpt>
      <trkpt lat="47.55171" lon="1.29809">
        <ele>70.1</ele>
        <time>2020-07-03T08:26:11Z</time>
      </trkpt>
      <trkpt lat="47.5517" lon="1.29808">
        <ele>70.1</ele>
        <time>2020-07-03T08:26:12Z</time>
      </trkpt>
      <trkpt lat="47.55167" lon="1.29806">
        <ele>70.2</ele>
        <time>2020-07-03T08:26:13Z</time>
      </trkpt>
      <trkpt lat="47.55164" lon="1.29804">
        <ele>70.3</ele>
        <time>2020-07-03T08:26:14Z</time>
      </trkpt>
      <trkpt lat="47.5516" lon="1.29801">
        <ele>70.4</ele>
        <time>2020-07-03T08:26:15Z</time>
      </trkpt>
      <trkpt lat="47.55157" lon="1.29799">
        <ele>70.5</ele>
        <time>2020-07-03T08:26:16Z</time>
      </trkpt>
      <trkpt lat="47.55154" lon="1.29796">
        <ele>70.6</ele>
        <time>2020-07-03T08:26:17Z</time>
      </trkpt>
      <trkpt lat="47.5515" lon="1.29792">
        <ele>70.8</ele>
        <time>2020-07-03T08:26:18Z</time>
      </trkpt>
      <trkpt lat="47.55146" lon="1.29788">
        <ele>71</ele>
        <time>2020-07-03T08:26:19Z</time>
      </trkpt>
      <trkpt lat="47.55142" lon="1.29784">
        <ele>71.2</ele>
        <time>2020-07-03T08:26:20Z</time>
      </trkpt>
      <trkpt lat="47.55138" lon="1.2978">
        <ele>71.3</ele>
        <time>2020-07-03T08:26:21Z</time>
      </trkpt>
      <trkpt lat="47.55133" lon="1.29776">
        <ele>71.3</ele>
        <time>2020-07-03T08:26:22Z</time>
      </trkpt>
      <trkpt lat="47.55129" lon="1.29772">
        <ele>71.2</ele>
        <time>2020-07-03T08:26:23Z</time>
      </trkpt>
      <trkpt lat="47.55124" lon="1.29766">
        <ele>71.1</ele>
        <time>2020-07-03T08:26:24Z</time>
      </trkpt>
      <trkpt lat="47.55119" lon="1.2976">
        <ele>71.1</ele>
        <time>2020-07-03T08:26:25Z</time>
      </trkpt>
      <trkpt lat="47.55114" lon="1.29756">
        <ele>71</ele>
        <time>2020-07-03T08:26:26Z</time>
      </trkpt>
      <trkpt lat="47.55109" lon="1.2975">
        <ele>71</ele>
        <time>2020-07-03T08:26:27Z</time>
      </trkpt>
      <trkpt lat="47.55103" lon="1.29745">
        <ele>71</ele>
        <time>2020-07-03T08:26:28Z</time>
      </trkpt>
      <trkpt lat="47.55098" lon="1.29739">
        <ele>70.9</ele>
        <time>2020-07-03T08:26:29Z</time>
      </trkpt>
      <trkpt lat="47.55092" lon="1.29734">
        <ele>70.9</ele>
        <time>2020-07-03T08:26:30Z</time>
      </trkpt>
      <trkpt lat="47.55086" lon="1.2973">
        <ele>70.9</ele>
        <time>2020-07-03T08:26:31Z</time>
      </trkpt>
      <trkpt lat="47.55079" lon="1.29724">
        <ele>70.9</ele>
        <time>2020-07-03T08:26:32Z</time>
      </trkpt>
      <trkpt lat="47.55073" lon="1.29718">
        <ele>70.9</ele>
        <time>2020-07-03T08:26:33Z</time>
      </trkpt>
      <trkpt lat="47.55068" lon="1.29713">
        <ele>70.9</ele>
        <time>2020-07-03T08:26:34Z</time>
      </trkpt>
      <trkpt lat="47.55063" lon="1.29709">
        <ele>70.8</ele>
        <time>2020-07-03T08:26:35Z</time>
      </trkpt>
      <trkpt lat="47.55057" lon="1.29704">
        <ele>70.8</ele>
        <time>2020-07-03T08:26:36Z</time>
      </trkpt>
      <trkpt lat="47.55052" lon="1.29698">
        <ele>70.8</ele>
        <time>2020-07-03T08:26:37Z</time>
      </trkpt>
      <trkpt lat="47.55048" lon="1.29695">
        <ele>70.8</ele>
        <time>2020-07-03T08:26:38Z</time>
      </trkpt>
      <trkpt lat="47.55044" lon="1.2969">
        <ele>70.8</ele>
        <time>2020-07-03T08:26:39Z</time>
      </trkpt>
      <trkpt lat="47.55039" lon="1.29685">
        <ele>70.7</ele>
        <time>2020-07-03T08:26:40Z</time>
      </trkpt>
      <trkpt lat="47.55033" lon="1.29679">
        <ele>70.7</ele>
        <time>2020-07-03T08:26:41Z</time>
      </trkpt>
      <trkpt lat="47.55028" lon="1.29674">
        <ele>70.7</ele>
        <time>2020-07-03T08:26:42Z</time>
      </trkpt>
      <trkpt lat="47.55023" lon="1.29669">
        <ele>70.7</ele>
        <time>2020-07-03T08:26:43Z</time>
      </trkpt>
      <trkpt lat="47.55017" lon="1.29664">
        <ele>70.7</ele>
        <time>2020-07-03T08:26:44Z</time>
      </trkpt>
      <trkpt lat="47.55011" lon="1.29659">
        <ele>70.7</ele>
        <time>2020-07-03T08:26:45Z</time>
      </trkpt>
      <trkpt lat="47.55005" lon="1.29653">
        <ele>70.7</ele>
        <time>2020-07-03T08:26:46Z</time>
      </trkpt>
      <trkpt lat="47.54999" lon="1.29647">
        <ele>70.7</ele>
        <time>2020-07-03T08:26:47Z</time>
      </trkpt>
      <trkpt lat="47.54992" lon="1.29641">
        <ele>70.7</ele>
        <time>2020-07-03T08:26:48Z</time>
      </trkpt>
      <trkpt lat="47.54987" lon="1.29636">
        <ele>70.6</ele>
        <time>2020-07-03T08:26:49Z</time>
      </trkpt>
      <trkpt lat="47.54981" lon="1.2963">
        <ele>70.6</ele>
        <time>2020-07-03T08:26:50Z</time>
      </trkpt>
      <trkpt lat="47.54976" lon="1.29625">
        <ele>70.5</ele>
        <time>2020-07-03T08:26:51Z</time>
      </trkpt>
      <trkpt lat="47.5497" lon="1.2962">
        <ele>70.5</ele>
        <time>2020-07-03T08:26:52Z</time>
      </trkpt>
      <trkpt lat="47.54965" lon="1.29614">
        <ele>70.5</ele>
        <time>2020-07-03T08:26:53Z</time>
      </trkpt>
      <trkpt lat="47.54959" lon="1.29609">
        <ele>70.5</ele>
        <time>2020-07-03T08:26:54Z</time>
      </trkpt>
      <trkpt lat="47.54954" lon="1.29603">
        <ele>70.5</ele>
        <time>2020-07-03T08:26:55Z</time>
      </trkpt>
      <trkpt lat="47.54949" lon="1.29598">
        <ele>70.5</ele>
        <time>2020-07-03T08:26:56Z</time>
      </trkpt>
      <trkpt lat="47.54943" lon="1.29593">
        <ele>70.5</ele>
        <time>2020-07-03T08:26:57Z</time>
      </trkpt>
      <trkpt lat="47.54937" lon="1.2959">
        <ele>70.5</ele>
        <time>2020-07-03T08:26:58Z</time>
      </trkpt>
      <trkpt lat="47.54932" lon="1.29586">
        <ele>70.6</ele>
        <time>2020-07-03T08:26:59Z</time>
      </trkpt>
      <trkpt lat="47.54926" lon="1.29582">
        <ele>70.6</ele>
        <time>2020-07-03T08:27:00Z</time>
      </trkpt>
      <trkpt lat="47.5492" lon="1.29578">
        <ele>70.6</ele>
        <time>2020-07-03T08:27:01Z</time>
      </trkpt>
      <trkpt lat="47.54914" lon="1.29574">
        <ele>70.6</ele>
        <time>2020-07-03T08:27:02Z</time>
      </trkpt>
      <trkpt lat="47.54908" lon="1.2957">
        <ele>70.6</ele>
        <time>2020-07-03T08:27:03Z</time>
      </trkpt>
      <trkpt lat="47.54903" lon="1.29567">
        <ele>70.7</ele>
        <time>2020-07-03T08:27:04Z</time>
      </trkpt>
      <trkpt lat="47.54898" lon="1.29563">
        <ele>70.7</ele>
        <time>2020-07-03T08:27:05Z</time>
      </trkpt>
      <trkpt lat="47.54892" lon="1.29559">
        <ele>70.7</ele>
        <time>2020-07-03T08:27:06Z</time>
      </trkpt>
      <trkpt lat="47.54886" lon="1.29555">
        <ele>70.8</ele>
        <time>2020-07-03T08:27:07Z</time>
      </trkpt>
      <trkpt lat="47.5488" lon="1.2955">
        <ele>70.8</ele>
        <time>2020-07-03T08:27:08Z</time>
      </trkpt>
      <trkpt lat="47.54875" lon="1.29547">
        <ele>70.8</ele>
        <time>2020-07-03T08:27:09Z</time>
      </trkpt>
      <trkpt lat="47.54869" lon="1.29543">
        <ele>70.7</ele>
        <time>2020-07-03T08:27:10Z</time>
      </trkpt>
      <trkpt lat="47.54863" lon="1.29539">
        <ele>70.7</ele>
        <time>2020-07-03T08:27:11Z</time>
      </trkpt>
      <trkpt lat="47.54858" lon="1.29536">
        <ele>70.7</ele>
        <time>2020-07-03T08:27:12Z</time>
      </trkpt>
      <trkpt lat="47.54853" lon="1.29532">
        <ele>70.7</ele>
        <time>2020-07-03T08:27:13Z</time>
      </trkpt>
      <trkpt lat="47.54847" lon="1.29527">
        <ele>70.6</ele>
        <time>2020-07-03T08:27:14Z</time>
      </trkpt>
      <trkpt lat="47.54842" lon="1.29522">
        <ele>70.6</ele>
        <time>2020-07-03T08:27:15Z</time>
      </trkpt>
      <trkpt lat="47.54836" lon="1.29517">
        <ele>70.5</ele>
        <time>2020-07-03T08:27:16Z</time>
      </trkpt>
      <trkpt lat="47.54831" lon="1.29512">
        <ele>70.5</ele>
        <time>2020-07-03T08:27:17Z</time>
      </trkpt>
      <trkpt lat="47.54825" lon="1.29506">
        <ele>70.5</ele>
        <time>2020-07-03T08:27:18Z</time>
      </trkpt>
      <trkpt lat="47.5482" lon="1.29502">
        <ele>70.5</ele>
        <time>2020-07-03T08:27:19Z</time>
      </trkpt>
      <trkpt lat="47.54815" lon="1.29497">
        <ele>70.5</ele>
        <time>2020-07-03T08:27:20Z</time>
      </trkpt>
      <trkpt lat="47.5481" lon="1.29492">
        <ele>70.5</ele>
        <time>2020-07-03T08:27:21Z</time>
      </trkpt>
      <trkpt lat="47.54805" lon="1.29487">
        <ele>70.5</ele>
        <time>2020-07-03T08:27:22Z</time>
      </trkpt>
      <trkpt lat="47.548" lon="1.29483">
        <ele>70.5</ele>
        <time>2020-07-03T08:27:23Z</time>
      </trkpt>
      <trkpt lat="47.54795" lon="1.29479">
        <ele>70.6</ele>
        <time>2020-07-03T08:27:24Z</time>
      </trkpt>
      <trkpt lat="47.5479" lon="1.29474">
        <ele>70.6</ele>
        <time>2020-07-03T08:27:25Z</time>
      </trkpt>
      <trkpt lat="47.54784" lon="1.29469">
        <ele>70.6</ele>
        <time>2020-07-03T08:27:26Z</time>
      </trkpt>
      <trkpt lat="47.54779" lon="1.29464">
        <ele>70.6</ele>
        <time>2020-07-03T08:27:27Z</time>
      </trkpt>
      <trkpt lat="47.54773" lon="1.2946">
        <ele>70.6</ele>
        <time>2020-07-03T08:27:28Z</time>
      </trkpt>
      <trkpt lat="47.54768" lon="1.29456">
        <ele>70.6</ele>
        <time>2020-07-03T08:27:29Z</time>
      </trkpt>
      <trkpt lat="47.54763" lon="1.29451">
        <ele>70.7</ele>
        <time>2020-07-03T08:27:30Z</time>
      </trkpt>
      <trkpt lat="47.54758" lon="1.29446">
        <ele>70.8</ele>
        <time>2020-07-03T08:27:31Z</time>
      </trkpt>
      <trkpt lat="47.54753" lon="1.29441">
        <ele>70.9</ele>
        <time>2020-07-03T08:27:32Z</time>
      </trkpt>
      <trkpt lat="47.54748" lon="1.29436">
        <ele>70.9</ele>
        <time>2020-07-03T08:27:33Z</time>
      </trkpt>
      <trkpt lat="47.54743" lon="1.29431">
        <ele>70.8</ele>
        <time>2020-07-03T08:27:34Z</time>
      </trkpt>
      <trkpt lat="47.54737" lon="1.29427">
        <ele>70.8</ele>
        <time>2020-07-03T08:27:35Z</time>
      </trkpt>
      <trkpt lat="47.54732" lon="1.29423">
        <ele>70.8</ele>
        <time>2020-07-03T08:27:36Z</time>
      </trkpt>
      <trkpt lat="47.54727" lon="1.29419">
        <ele>70.8</ele>
        <time>2020-07-03T08:27:37Z</time>
      </trkpt>
      <trkpt lat="47.54722" lon="1.29414">
        <ele>70.8</ele>
        <time>2020-07-03T08:27:38Z</time>
      </trkpt>
      <trkpt lat="47.54717" lon="1.2941">
        <ele>70.8</ele>
        <time>2020-07-03T08:27:39Z</time>
      </trkpt>
      <trkpt lat="47.54712" lon="1.29405">
        <ele>70.8</ele>
        <time>2020-07-03T08:27:40Z</time>
      </trkpt>
      <trkpt lat="47.54707" lon="1.29401">
        <ele>70.8</ele>
        <time>2020-07-03T08:27:41Z</time>
      </trkpt>
      <trkpt lat="47.54702" lon="1.29397">
        <ele>70.8</ele>
        <time>2020-07-03T08:27:42Z</time>
      </trkpt>
      <trkpt lat="47.54696" lon="1.29392">
        <ele>70.8</ele>
        <time>2020-07-03T08:27:43Z</time>
      </trkpt>
      <trkpt lat="47.5469" lon="1.29387">
        <ele>70.7</ele>
        <time>2020-07-03T08:27:44Z</time>
      </trkpt>
      <trkpt lat="47.54684" lon="1.29382">
        <ele>70.7</ele>
        <time>2020-07-03T08:27:45Z</time>
      </trkpt>
      <trkpt lat="47.54678" lon="1.29378">
        <ele>70.7</ele>
        <time>2020-07-03T08:27:46Z</time>
      </trkpt>
      <trkpt lat="47.54673" lon="1.29374">
        <ele>70.7</ele>
        <time>2020-07-03T08:27:47Z</time>
      </trkpt>
      <trkpt lat="47.54667" lon="1.2937">
        <ele>70.7</ele>
        <time>2020-07-03T08:27:48Z</time>
      </trkpt>
      <trkpt lat="47.54661" lon="1.29366">
        <ele>70.7</ele>
        <time>2020-07-03T08:27:49Z</time>
      </trkpt>
      <trkpt lat="47.54655" lon="1.29362">
        <ele>70.7</ele>
        <time>2020-07-03T08:27:50Z</time>
      </trkpt>
      <trkpt lat="47.54649" lon="1.29358">
        <ele>70.7</ele>
        <time>2020-07-03T08:27:51Z</time>
      </trkpt>
      <trkpt lat="47.54643" lon="1.29354">
        <ele>70.7</ele>
        <time>2020-07-03T08:27:52Z</time>
      </trkpt>
      <trkpt lat="47.54637" lon="1.29349">
        <ele>70.7</ele>
        <time>2020-07-03T08:27:53Z</time>
      </trkpt>
      <trkpt lat="47.54632" lon="1.29345">
        <ele>70.7</ele>
        <time>2020-07-03T08:27:54Z</time>
      </trkpt>
      <trkpt lat="47.54626" lon="1.29341">
        <ele>70.7</ele>
        <time>2020-07-03T08:27:55Z</time>
      </trkpt>
      <trkpt lat="47.54621" lon="1.29336">
        <ele>70.7</ele>
        <time>2020-07-03T08:27:56Z</time>
      </trkpt>
      <trkpt lat="47.54615" lon="1.29332">
        <ele>70.7</ele>
        <time>2020-07-03T08:27:57Z</time>
      </trkpt>
      <trkpt lat="47.54609" lon="1.29327">
        <ele>70.6</ele>
        <time>2020-07-03T08:27:58Z</time>
      </trkpt>
      <trkpt lat="47.54604" lon="1.29322">
        <ele>70.6</ele>
        <time>2020-07-03T08:27:59Z</time>
      </trkpt>
      <trkpt lat="47.54598" lon="1.29317">
        <ele>70.6</ele>
        <time>2020-07-03T08:28:00Z</time>
      </trkpt>
      <trkpt lat="47.54592" lon="1.29313">
        <ele>70.6</ele>
        <time>2020-07-03T08:28:01Z</time>
      </trkpt>
      <trkpt lat="47.54586" lon="1.29308">
        <ele>70.6</ele>
        <time>2020-07-03T08:28:02Z</time>
      </trkpt>
      <trkpt lat="47.5458" lon="1.29303">
        <ele>70.6</ele>
        <time>2020-07-03T08:28:03Z</time>
      </trkpt>
      <trkpt lat="47.54575" lon="1.29298">
        <ele>70.6</ele>
        <time>2020-07-03T08:28:04Z</time>
      </trkpt>
      <trkpt lat="47.54569" lon="1.29294">
        <ele>70.6</ele>
        <time>2020-07-03T08:28:05Z</time>
      </trkpt>
      <trkpt lat="47.54563" lon="1.2929">
        <ele>70.6</ele>
        <time>2020-07-03T08:28:06Z</time>
      </trkpt>
      <trkpt lat="47.54558" lon="1.29286">
        <ele>70.5</ele>
        <time>2020-07-03T08:28:07Z</time>
      </trkpt>
      <trkpt lat="47.54553" lon="1.29282">
        <ele>70.5</ele>
        <time>2020-07-03T08:28:08Z</time>
      </trkpt>
      <trkpt lat="47.54548" lon="1.29278">
        <ele>70.5</ele>
        <time>2020-07-03T08:28:09Z</time>
      </trkpt>
      <trkpt lat="47.54542" lon="1.29273">
        <ele>70.5</ele>
        <time>2020-07-03T08:28:10Z</time>
      </trkpt>
      <trkpt lat="47.54536" lon="1.29268">
        <ele>70.4</ele>
        <time>2020-07-03T08:28:11Z</time>
      </trkpt>
      <trkpt lat="47.54531" lon="1.29263">
        <ele>70.4</ele>
        <time>2020-07-03T08:28:12Z</time>
      </trkpt>
      <trkpt lat="47.54525" lon="1.29259">
        <ele>70.4</ele>
        <time>2020-07-03T08:28:13Z</time>
      </trkpt>
      <trkpt lat="47.54519" lon="1.29254">
        <ele>70.3</ele>
        <time>2020-07-03T08:28:14Z</time>
      </trkpt>
      <trkpt lat="47.54513" lon="1.2925">
        <ele>70.3</ele>
        <time>2020-07-03T08:28:15Z</time>
      </trkpt>
      <trkpt lat="47.54507" lon="1.29245">
        <ele>70.3</ele>
        <time>2020-07-03T08:28:16Z</time>
      </trkpt>
      <trkpt lat="47.54501" lon="1.29241">
        <ele>70.2</ele>
        <time>2020-07-03T08:28:17Z</time>
      </trkpt>
      <trkpt lat="47.54495" lon="1.29236">
        <ele>70.2</ele>
        <time>2020-07-03T08:28:18Z</time>
      </trkpt>
      <trkpt lat="47.54489" lon="1.29233">
        <ele>70.2</ele>
        <time>2020-07-03T08:28:19Z</time>
      </trkpt>
      <trkpt lat="47.54483" lon="1.29229">
        <ele>70.2</ele>
        <time>2020-07-03T08:28:20Z</time>
      </trkpt>
      <trkpt lat="47.54478" lon="1.29225">
        <ele>70.1</ele>
        <time>2020-07-03T08:28:21Z</time>
      </trkpt>
      <trkpt lat="47.54472" lon="1.2922">
        <ele>70.1</ele>
        <time>2020-07-03T08:28:22Z</time>
      </trkpt>
      <trkpt lat="47.54467" lon="1.29215">
        <ele>70.1</ele>
        <time>2020-07-03T08:28:23Z</time>
      </trkpt>
      <trkpt lat="47.54461" lon="1.2921">
        <ele>70.1</ele>
        <time>2020-07-03T08:28:24Z</time>
      </trkpt>
      <trkpt lat="47.54455" lon="1.29205">
        <ele>70.1</ele>
        <time>2020-07-03T08:28:25Z</time>
      </trkpt>
      <trkpt lat="47.5445" lon="1.292">
        <ele>70.1</ele>
        <time>2020-07-03T08:28:26Z</time>
      </trkpt>
      <trkpt lat="47.54444" lon="1.29196">
        <ele>70.1</ele>
        <time>2020-07-03T08:28:27Z</time>
      </trkpt>
      <trkpt lat="47.54438" lon="1.2919">
        <ele>70.1</ele>
        <time>2020-07-03T08:28:28Z</time>
      </trkpt>
      <trkpt lat="47.54432" lon="1.29184">
        <ele>70.1</ele>
        <time>2020-07-03T08:28:29Z</time>
      </trkpt>
      <trkpt lat="47.54427" lon="1.29179">
        <ele>70</ele>
        <time>2020-07-03T08:28:30Z</time>
      </trkpt>
      <trkpt lat="47.54421" lon="1.29173">
        <ele>70</ele>
        <time>2020-07-03T08:28:31Z</time>
      </trkpt>
      <trkpt lat="47.54415" lon="1.29168">
        <ele>70</ele>
        <time>2020-07-03T08:28:32Z</time>
      </trkpt>
      <trkpt lat="47.54409" lon="1.29162">
        <ele>70.1</ele>
        <time>2020-07-03T08:28:33Z</time>
      </trkpt>
      <trkpt lat="47.54404" lon="1.29156">
        <ele>70.1</ele>
        <time>2020-07-03T08:28:34Z</time>
      </trkpt>
      <trkpt lat="47.54399" lon="1.29151">
        <ele>70.1</ele>
        <time>2020-07-03T08:28:35Z</time>
      </trkpt>
      <trkpt lat="47.54394" lon="1.29145">
        <ele>70.1</ele>
        <time>2020-07-03T08:28:36Z</time>
      </trkpt>
      <trkpt lat="47.54389" lon="1.29139">
        <ele>70.1</ele>
        <time>2020-07-03T08:28:37Z</time>
      </trkpt>
      <trkpt lat="47.54384" lon="1.29134">
        <ele>70.1</ele>
        <time>2020-07-03T08:28:38Z</time>
      </trkpt>
      <trkpt lat="47.54379" lon="1.29129">
        <ele>70.2</ele>
        <time>2020-07-03T08:28:39Z</time>
      </trkpt>
      <trkpt lat="47.54374" lon="1.29124">
        <ele>70.2</ele>
        <time>2020-07-03T08:28:40Z</time>
      </trkpt>
      <trkpt lat="47.54369" lon="1.29118">
        <ele>70.2</ele>
        <time>2020-07-03T08:28:41Z</time>
      </trkpt>
      <trkpt lat="47.54363" lon="1.29112">
        <ele>70.2</ele>
        <time>2020-07-03T08:28:42Z</time>
      </trkpt>
      <trkpt lat="47.54357" lon="1.29108">
        <ele>70.2</ele>
        <time>2020-07-03T08:28:43Z</time>
      </trkpt>
      <trkpt lat="47.54351" lon="1.29102">
        <ele>70.2</ele>
        <time>2020-07-03T08:28:44Z</time>
      </trkpt>
      <trkpt lat="47.54346" lon="1.29097">
        <ele>70.3</ele>
        <time>2020-07-03T08:28:45Z</time>
      </trkpt>
      <trkpt lat="47.54339" lon="1.29092">
        <ele>70.3</ele>
        <time>2020-07-03T08:28:46Z</time>
      </trkpt>
      <trkpt lat="47.54334" lon="1.29087">
        <ele>70.3</ele>
        <time>2020-07-03T08:28:47Z</time>
      </trkpt>
      <trkpt lat="47.54328" lon="1.29082">
        <ele>70.3</ele>
        <time>2020-07-03T08:28:48Z</time>
      </trkpt>
      <trkpt lat="47.54322" lon="1.29077">
        <ele>70.2</ele>
        <time>2020-07-03T08:28:49Z</time>
      </trkpt>
      <trkpt lat="47.54317" lon="1.29072">
        <ele>70.2</ele>
        <time>2020-07-03T08:28:50Z</time>
      </trkpt>
      <trkpt lat="47.54312" lon="1.29067">
        <ele>70.2</ele>
        <time>2020-07-03T08:28:51Z</time>
      </trkpt>
      <trkpt lat="47.54306" lon="1.29062">
        <ele>70.3</ele>
        <time>2020-07-03T08:28:52Z</time>
      </trkpt>
      <trkpt lat="47.543" lon="1.29057">
        <ele>70.3</ele>
        <time>2020-07-03T08:28:53Z</time>
      </trkpt>
      <trkpt lat="47.54294" lon="1.29052">
        <ele>70.3</ele>
        <time>2020-07-03T08:28:54Z</time>
      </trkpt>
      <trkpt lat="47.54288" lon="1.29046">
        <ele>70.3</ele>
        <time>2020-07-03T08:28:55Z</time>
      </trkpt>
      <trkpt lat="47.54283" lon="1.2904">
        <ele>70.4</ele>
        <time>2020-07-03T08:28:56Z</time>
      </trkpt>
      <trkpt lat="47.54277" lon="1.29036">
        <ele>70.4</ele>
        <time>2020-07-03T08:28:57Z</time>
      </trkpt>
      <trkpt lat="47.54272" lon="1.2903">
        <ele>70.5</ele>
        <time>2020-07-03T08:28:58Z</time>
      </trkpt>
      <trkpt lat="47.54267" lon="1.29024">
        <ele>70.5</ele>
        <time>2020-07-03T08:28:59Z</time>
      </trkpt>
      <trkpt lat="47.54262" lon="1.29018">
        <ele>70.5</ele>
        <time>2020-07-03T08:29:00Z</time>
      </trkpt>
      <trkpt lat="47.54256" lon="1.29013">
        <ele>70.5</ele>
        <time>2020-07-03T08:29:01Z</time>
      </trkpt>
      <trkpt lat="47.54252" lon="1.29007">
        <ele>70.5</ele>
        <time>2020-07-03T08:29:02Z</time>
      </trkpt>
      <trkpt lat="47.54246" lon="1.29001">
        <ele>70.5</ele>
        <time>2020-07-03T08:29:03Z</time>
      </trkpt>
      <trkpt lat="47.54241" lon="1.28994">
        <ele>70.5</ele>
        <time>2020-07-03T08:29:04Z</time>
      </trkpt>
      <trkpt lat="47.54237" lon="1.28988">
        <ele>70.5</ele>
        <time>2020-07-03T08:29:05Z</time>
      </trkpt>
      <trkpt lat="47.54232" lon="1.28982">
        <ele>70.5</ele>
        <time>2020-07-03T08:29:06Z</time>
      </trkpt>
      <trkpt lat="47.54226" lon="1.28977">
        <ele>70.5</ele>
        <time>2020-07-03T08:29:07Z</time>
      </trkpt>
      <trkpt lat="47.54221" lon="1.28972">
        <ele>70.5</ele>
        <time>2020-07-03T08:29:08Z</time>
      </trkpt>
      <trkpt lat="47.54216" lon="1.28967">
        <ele>70.5</ele>
        <time>2020-07-03T08:29:09Z</time>
      </trkpt>
      <trkpt lat="47.5421" lon="1.28962">
        <ele>70.6</ele>
        <time>2020-07-03T08:29:10Z</time>
      </trkpt>
      <trkpt lat="47.54204" lon="1.28959">
        <ele>70.6</ele>
        <time>2020-07-03T08:29:11Z</time>
      </trkpt>
      <trkpt lat="47.54199" lon="1.28955">
        <ele>70.6</ele>
        <time>2020-07-03T08:29:12Z</time>
      </trkpt>
      <trkpt lat="47.54193" lon="1.28951">
        <ele>70.6</ele>
        <time>2020-07-03T08:29:13Z</time>
      </trkpt>
      <trkpt lat="47.54187" lon="1.28947">
        <ele>70.6</ele>
        <time>2020-07-03T08:29:14Z</time>
      </trkpt>
      <trkpt lat="47.54181" lon="1.28943">
        <ele>70.6</ele>
        <time>2020-07-03T08:29:15Z</time>
      </trkpt>
      <trkpt lat="47.54176" lon="1.28938">
        <ele>70.6</ele>
        <time>2020-07-03T08:29:16Z</time>
      </trkpt>
      <trkpt lat="47.5417" lon="1.28935">
        <ele>70.6</ele>
        <time>2020-07-03T08:29:17Z</time>
      </trkpt>
      <trkpt lat="47.54165" lon="1.28931">
        <ele>70.6</ele>
        <time>2020-07-03T08:29:18Z</time>
      </trkpt>
      <trkpt lat="47.54159" lon="1.28928">
        <ele>70.7</ele>
        <time>2020-07-03T08:29:19Z</time>
      </trkpt>
      <trkpt lat="47.54153" lon="1.28924">
        <ele>70.7</ele>
        <time>2020-07-03T08:29:20Z</time>
      </trkpt>
      <trkpt lat="47.54147" lon="1.2892">
        <ele>70.7</ele>
        <time>2020-07-03T08:29:21Z</time>
      </trkpt>
      <trkpt lat="47.54142" lon="1.28917">
        <ele>70.7</ele>
        <time>2020-07-03T08:29:22Z</time>
      </trkpt>
      <trkpt lat="47.54136" lon="1.28913">
        <ele>70.7</ele>
        <time>2020-07-03T08:29:23Z</time>
      </trkpt>
      <trkpt lat="47.5413" lon="1.28909">
        <ele>70.6</ele>
        <time>2020-07-03T08:29:24Z</time>
      </trkpt>
      <trkpt lat="47.54125" lon="1.28905">
        <ele>70.6</ele>
        <time>2020-07-03T08:29:25Z</time>
      </trkpt>
      <trkpt lat="47.54119" lon="1.28902">
        <ele>70.6</ele>
        <time>2020-07-03T08:29:26Z</time>
      </trkpt>
      <trkpt lat="47.54114" lon="1.28897">
        <ele>70.6</ele>
        <time>2020-07-03T08:29:27Z</time>
      </trkpt>
      <trkpt lat="47.54108" lon="1.28893">
        <ele>70.6</ele>
        <time>2020-07-03T08:29:28Z</time>
      </trkpt>
      <trkpt lat="47.54102" lon="1.28889">
        <ele>70.5</ele>
        <time>2020-07-03T08:29:29Z</time>
      </trkpt>
      <trkpt lat="47.54097" lon="1.28885">
        <ele>70.5</ele>
        <time>2020-07-03T08:29:30Z</time>
      </trkpt>
      <trkpt lat="47.5409" lon="1.2888">
        <ele>70.5</ele>
        <time>2020-07-03T08:29:31Z</time>
      </trkpt>
      <trkpt lat="47.54084" lon="1.28876">
        <ele>70.5</ele>
        <time>2020-07-03T08:29:32Z</time>
      </trkpt>
      <trkpt lat="47.54078" lon="1.28872">
        <ele>70.5</ele>
        <time>2020-07-03T08:29:33Z</time>
      </trkpt>
      <trkpt lat="47.54073" lon="1.28868">
        <ele>70.5</ele>
        <time>2020-07-03T08:29:34Z</time>
      </trkpt>
      <trkpt lat="47.54067" lon="1.28864">
        <ele>70.5</ele>
        <time>2020-07-03T08:29:35Z</time>
      </trkpt>
      <trkpt lat="47.54062" lon="1.28859">
        <ele>70.6</ele>
        <time>2020-07-03T08:29:36Z</time>
      </trkpt>
      <trkpt lat="47.54057" lon="1.28855">
        <ele>70.6</ele>
        <time>2020-07-03T08:29:37Z</time>
      </trkpt>
      <trkpt lat="47.54052" lon="1.2885">
        <ele>70.6</ele>
        <time>2020-07-03T08:29:38Z</time>
      </trkpt>
      <trkpt lat="47.54047" lon="1.28846">
        <ele>70.7</ele>
        <time>2020-07-03T08:29:39Z</time>
      </trkpt>
      <trkpt lat="47.54041" lon="1.28841">
        <ele>70.7</ele>
        <time>2020-07-03T08:29:40Z</time>
      </trkpt>
      <trkpt lat="47.54036" lon="1.28836">
        <ele>70.6</ele>
        <time>2020-07-03T08:29:41Z</time>
      </trkpt>
      <trkpt lat="47.5403" lon="1.28831">
        <ele>70.6</ele>
        <time>2020-07-03T08:29:42Z</time>
      </trkpt>
      <trkpt lat="47.54024" lon="1.28826">
        <ele>70.6</ele>
        <time>2020-07-03T08:29:43Z</time>
      </trkpt>
      <trkpt lat="47.54019" lon="1.28821">
        <ele>70.6</ele>
        <time>2020-07-03T08:29:44Z</time>
      </trkpt>
      <trkpt lat="47.54013" lon="1.28816">
        <ele>70.5</ele>
        <time>2020-07-03T08:29:45Z</time>
      </trkpt>
      <trkpt lat="47.54007" lon="1.28811">
        <ele>70.4</ele>
        <time>2020-07-03T08:29:46Z</time>
      </trkpt>
      <trkpt lat="47.54001" lon="1.28805">
        <ele>70.4</ele>
        <time>2020-07-03T08:29:47Z</time>
      </trkpt>
      <trkpt lat="47.53996" lon="1.28801">
        <ele>70.3</ele>
        <time>2020-07-03T08:29:48Z</time>
      </trkpt>
      <trkpt lat="47.53991" lon="1.28796">
        <ele>70.3</ele>
        <time>2020-07-03T08:29:49Z</time>
      </trkpt>
      <trkpt lat="47.53985" lon="1.2879">
        <ele>70.3</ele>
        <time>2020-07-03T08:29:50Z</time>
      </trkpt>
      <trkpt lat="47.53979" lon="1.28785">
        <ele>70.2</ele>
        <time>2020-07-03T08:29:51Z</time>
      </trkpt>
      <trkpt lat="47.53974" lon="1.28779">
        <ele>70.2</ele>
        <time>2020-07-03T08:29:52Z</time>
      </trkpt>
      <trkpt lat="47.53968" lon="1.28773">
        <ele>70.2</ele>
        <time>2020-07-03T08:29:53Z</time>
      </trkpt>
      <trkpt lat="47.53964" lon="1.28769">
        <ele>70.2</ele>
        <time>2020-07-03T08:29:54Z</time>
      </trkpt>
      <trkpt lat="47.53959" lon="1.28764">
        <ele>70.1</ele>
        <time>2020-07-03T08:29:55Z</time>
      </trkpt>
      <trkpt lat="47.53954" lon="1.28759">
        <ele>70</ele>
        <time>2020-07-03T08:29:56Z</time>
      </trkpt>
      <trkpt lat="47.53948" lon="1.28753">
        <ele>70</ele>
        <time>2020-07-03T08:29:57Z</time>
      </trkpt>
      <trkpt lat="47.53943" lon="1.28748">
        <ele>70</ele>
        <time>2020-07-03T08:29:58Z</time>
      </trkpt>
      <trkpt lat="47.53937" lon="1.28743">
        <ele>70</ele>
        <time>2020-07-03T08:29:59Z</time>
      </trkpt>
      <trkpt lat="47.53932" lon="1.28738">
        <ele>70.1</ele>
        <time>2020-07-03T08:30:00Z</time>
      </trkpt>
      <trkpt lat="47.53926" lon="1.28731">
        <ele>70.1</ele>
        <time>2020-07-03T08:30:01Z</time>
      </trkpt>
      <trkpt lat="47.53921" lon="1.28727">
        <ele>70.1</ele>
        <time>2020-07-03T08:30:02Z</time>
      </trkpt>
      <trkpt lat="47.53915" lon="1.28721">
        <ele>70.1</ele>
        <time>2020-07-03T08:30:03Z</time>
      </trkpt>
      <trkpt lat="47.5391" lon="1.28716">
        <ele>70.1</ele>
        <time>2020-07-03T08:30:04Z</time>
      </trkpt>
      <trkpt lat="47.53905" lon="1.2871">
        <ele>70.1</ele>
        <time>2020-07-03T08:30:05Z</time>
      </trkpt>
      <trkpt lat="47.539" lon="1.28704">
        <ele>70</ele>
        <time>2020-07-03T08:30:06Z</time>
      </trkpt>
      <trkpt lat="47.53894" lon="1.28699">
        <ele>70</ele>
        <time>2020-07-03T08:30:07Z</time>
      </trkpt>
      <trkpt lat="47.53889" lon="1.28693">
        <ele>69.9</ele>
        <time>2020-07-03T08:30:08Z</time>
      </trkpt>
      <trkpt lat="47.53884" lon="1.28687">
        <ele>69.8</ele>
        <time>2020-07-03T08:30:09Z</time>
      </trkpt>
      <trkpt lat="47.53879" lon="1.28681">
        <ele>69.8</ele>
        <time>2020-07-03T08:30:10Z</time>
      </trkpt>
      <trkpt lat="47.53874" lon="1.28675">
        <ele>69.7</ele>
        <time>2020-07-03T08:30:11Z</time>
      </trkpt>
      <trkpt lat="47.53869" lon="1.28668">
        <ele>69.7</ele>
        <time>2020-07-03T08:30:12Z</time>
      </trkpt>
      <trkpt lat="47.53863" lon="1.28662">
        <ele>69.6</ele>
        <time>2020-07-03T08:30:13Z</time>
      </trkpt>
      <trkpt lat="47.53858" lon="1.28656">
        <ele>69.6</ele>
        <time>2020-07-03T08:30:14Z</time>
      </trkpt>
      <trkpt lat="47.53853" lon="1.2865">
        <ele>69.6</ele>
        <time>2020-07-03T08:30:15Z</time>
      </trkpt>
      <trkpt lat="47.53848" lon="1.28644">
        <ele>69.5</ele>
        <time>2020-07-03T08:30:16Z</time>
      </trkpt>
      <trkpt lat="47.53843" lon="1.28637">
        <ele>69.5</ele>
        <time>2020-07-03T08:30:17Z</time>
      </trkpt>
      <trkpt lat="47.53838" lon="1.28631">
        <ele>69.5</ele>
        <time>2020-07-03T08:30:18Z</time>
      </trkpt>
      <trkpt lat="47.53833" lon="1.28624">
        <ele>69.5</ele>
        <time>2020-07-03T08:30:19Z</time>
      </trkpt>
      <trkpt lat="47.53829" lon="1.28618">
        <ele>69.5</ele>
        <time>2020-07-03T08:30:20Z</time>
      </trkpt>
      <trkpt lat="47.53824" lon="1.28612">
        <ele>69.5</ele>
        <time>2020-07-03T08:30:21Z</time>
      </trkpt>
      <trkpt lat="47.53818" lon="1.28606">
        <ele>69.4</ele>
        <time>2020-07-03T08:30:22Z</time>
      </trkpt>
      <trkpt lat="47.53813" lon="1.286">
        <ele>69.4</ele>
        <time>2020-07-03T08:30:23Z</time>
      </trkpt>
      <trkpt lat="47.53808" lon="1.28594">
        <ele>69.4</ele>
        <time>2020-07-03T08:30:24Z</time>
      </trkpt>
      <trkpt lat="47.53803" lon="1.28587">
        <ele>69.4</ele>
        <time>2020-07-03T08:30:25Z</time>
      </trkpt>
      <trkpt lat="47.53798" lon="1.28581">
        <ele>69.4</ele>
        <time>2020-07-03T08:30:26Z</time>
      </trkpt>
      <trkpt lat="47.53793" lon="1.28575">
        <ele>69.4</ele>
        <time>2020-07-03T08:30:27Z</time>
      </trkpt>
      <trkpt lat="47.53788" lon="1.28569">
        <ele>69.4</ele>
        <time>2020-07-03T08:30:28Z</time>
      </trkpt>
      <trkpt lat="47.53783" lon="1.28563">
        <ele>69.4</ele>
        <time>2020-07-03T08:30:29Z</time>
      </trkpt>
      <trkpt lat="47.53778" lon="1.28557">
        <ele>69.4</ele>
        <time>2020-07-03T08:30:30Z</time>
      </trkpt>
      <trkpt lat="47.53773" lon="1.28551">
        <ele>69.5</ele>
        <time>2020-07-03T08:30:31Z</time>
      </trkpt>
      <trkpt lat="47.53768" lon="1.28545">
        <ele>69.5</ele>
        <time>2020-07-03T08:30:32Z</time>
      </trkpt>
      <trkpt lat="47.53763" lon="1.28538">
        <ele>69.5</ele>
        <time>2020-07-03T08:30:33Z</time>
      </trkpt>
      <trkpt lat="47.53758" lon="1.28532">
        <ele>69.5</ele>
        <time>2020-07-03T08:30:34Z</time>
      </trkpt>
      <trkpt lat="47.53754" lon="1.28526">
        <ele>69.5</ele>
        <time>2020-07-03T08:30:35Z</time>
      </trkpt>
      <trkpt lat="47.53749" lon="1.2852">
        <ele>69.5</ele>
        <time>2020-07-03T08:30:36Z</time>
      </trkpt>
      <trkpt lat="47.53744" lon="1.28514">
        <ele>69.5</ele>
        <time>2020-07-03T08:30:37Z</time>
      </trkpt>
      <trkpt lat="47.53739" lon="1.28508">
        <ele>69.5</ele>
        <time>2020-07-03T08:30:38Z</time>
      </trkpt>
      <trkpt lat="47.53735" lon="1.28502">
        <ele>69.5</ele>
        <time>2020-07-03T08:30:39Z</time>
      </trkpt>
      <trkpt lat="47.5373" lon="1.28496">
        <ele>69.5</ele>
        <time>2020-07-03T08:30:40Z</time>
      </trkpt>
      <trkpt lat="47.53725" lon="1.2849">
        <ele>69.5</ele>
        <time>2020-07-03T08:30:41Z</time>
      </trkpt>
      <trkpt lat="47.5372" lon="1.28484">
        <ele>69.5</ele>
        <time>2020-07-03T08:30:42Z</time>
      </trkpt>
      <trkpt lat="47.53716" lon="1.28479">
        <ele>69.5</ele>
        <time>2020-07-03T08:30:43Z</time>
      </trkpt>
      <trkpt lat="47.53711" lon="1.28473">
        <ele>69.5</ele>
        <time>2020-07-03T08:30:44Z</time>
      </trkpt>
      <trkpt lat="47.53707" lon="1.28467">
        <ele>69.5</ele>
        <time>2020-07-03T08:30:45Z</time>
      </trkpt>
      <trkpt lat="47.53702" lon="1.28462">
        <ele>69.5</ele>
        <time>2020-07-03T08:30:46Z</time>
      </trkpt>
      <trkpt lat="47.53697" lon="1.28457">
        <ele>69.4</ele>
        <time>2020-07-03T08:30:47Z</time>
      </trkpt>
      <trkpt lat="47.53693" lon="1.28451">
        <ele>69.4</ele>
        <time>2020-07-03T08:30:48Z</time>
      </trkpt>
      <trkpt lat="47.53688" lon="1.28445">
        <ele>69.4</ele>
        <time>2020-07-03T08:30:49Z</time>
      </trkpt>
      <trkpt lat="47.53683" lon="1.28439">
        <ele>69.4</ele>
        <time>2020-07-03T08:30:50Z</time>
      </trkpt>
      <trkpt lat="47.53677" lon="1.28432">
        <ele>69.3</ele>
        <time>2020-07-03T08:30:51Z</time>
      </trkpt>
      <trkpt lat="47.53672" lon="1.28426">
        <ele>69.3</ele>
        <time>2020-07-03T08:30:52Z</time>
      </trkpt>
      <trkpt lat="47.53668" lon="1.28421">
        <ele>69.3</ele>
        <time>2020-07-03T08:30:53Z</time>
      </trkpt>
      <trkpt lat="47.53663" lon="1.28415">
        <ele>69.2</ele>
        <time>2020-07-03T08:30:54Z</time>
      </trkpt>
      <trkpt lat="47.53657" lon="1.28409">
        <ele>69.2</ele>
        <time>2020-07-03T08:30:55Z</time>
      </trkpt>
      <trkpt lat="47.53652" lon="1.28403">
        <ele>69.2</ele>
        <time>2020-07-03T08:30:56Z</time>
      </trkpt>
      <trkpt lat="47.53647" lon="1.28398">
        <ele>69.2</ele>
        <time>2020-07-03T08:30:57Z</time>
      </trkpt>
      <trkpt lat="47.53642" lon="1.28393">
        <ele>69.3</ele>
        <time>2020-07-03T08:30:58Z</time>
      </trkpt>
      <trkpt lat="47.53636" lon="1.28388">
        <ele>69.3</ele>
        <time>2020-07-03T08:30:59Z</time>
      </trkpt>
      <trkpt lat="47.53631" lon="1.28382">
        <ele>69.3</ele>
        <time>2020-07-03T08:31:00Z</time>
      </trkpt>
      <trkpt lat="47.53626" lon="1.28376">
        <ele>69.3</ele>
        <time>2020-07-03T08:31:01Z</time>
      </trkpt>
      <trkpt lat="47.53621" lon="1.2837">
        <ele>69.2</ele>
        <time>2020-07-03T08:31:02Z</time>
      </trkpt>
      <trkpt lat="47.53615" lon="1.28364">
        <ele>69.2</ele>
        <time>2020-07-03T08:31:03Z</time>
      </trkpt>
      <trkpt lat="47.53611" lon="1.2836">
        <ele>69.2</ele>
        <time>2020-07-03T08:31:04Z</time>
      </trkpt>
      <trkpt lat="47.53605" lon="1.28353">
        <ele>69.2</ele>
        <time>2020-07-03T08:31:05Z</time>
      </trkpt>
      <trkpt lat="47.536" lon="1.28348">
        <ele>69.2</ele>
        <time>2020-07-03T08:31:06Z</time>
      </trkpt>
      <trkpt lat="47.53594" lon="1.28342">
        <ele>69.2</ele>
        <time>2020-07-03T08:31:07Z</time>
      </trkpt>
      <trkpt lat="47.53589" lon="1.28336">
        <ele>69.2</ele>
        <time>2020-07-03T08:31:08Z</time>
      </trkpt>
      <trkpt lat="47.53584" lon="1.2833">
        <ele>69.2</ele>
        <time>2020-07-03T08:31:09Z</time>
      </trkpt>
      <trkpt lat="47.53579" lon="1.28324">
        <ele>69.3</ele>
        <time>2020-07-03T08:31:10Z</time>
      </trkpt>
      <trkpt lat="47.53574" lon="1.28318">
        <ele>69.3</ele>
        <time>2020-07-03T08:31:11Z</time>
      </trkpt>
      <trkpt lat="47.53569" lon="1.28313">
        <ele>69.3</ele>
        <time>2020-07-03T08:31:12Z</time>
      </trkpt>
      <trkpt lat="47.53563" lon="1.28307">
        <ele>69.3</ele>
        <time>2020-07-03T08:31:13Z</time>
      </trkpt>
      <trkpt lat="47.53558" lon="1.28302">
        <ele>69.4</ele>
        <time>2020-07-03T08:31:14Z</time>
      </trkpt>
      <trkpt lat="47.53553" lon="1.28297">
        <ele>69.4</ele>
        <time>2020-07-03T08:31:15Z</time>
      </trkpt>
      <trkpt lat="47.53548" lon="1.28292">
        <ele>69.4</ele>
        <time>2020-07-03T08:31:16Z</time>
      </trkpt>
      <trkpt lat="47.53542" lon="1.28287">
        <ele>69.4</ele>
        <time>2020-07-03T08:31:17Z</time>
      </trkpt>
      <trkpt lat="47.53537" lon="1.28281">
        <ele>69.4</ele>
        <time>2020-07-03T08:31:18Z</time>
      </trkpt>
      <trkpt lat="47.53531" lon="1.28276">
        <ele>69.4</ele>
        <time>2020-07-03T08:31:19Z</time>
      </trkpt>
      <trkpt lat="47.53526" lon="1.28271">
        <ele>69.4</ele>
        <time>2020-07-03T08:31:20Z</time>
      </trkpt>
      <trkpt lat="47.53521" lon="1.28266">
        <ele>69.4</ele>
        <time>2020-07-03T08:31:21Z</time>
      </trkpt>
      <trkpt lat="47.53516" lon="1.28261">
        <ele>69.4</ele>
        <time>2020-07-03T08:31:22Z</time>
      </trkpt>
      <trkpt lat="47.53511" lon="1.28256">
        <ele>69.4</ele>
        <time>2020-07-03T08:31:23Z</time>
      </trkpt>
      <trkpt lat="47.53506" lon="1.28251">
        <ele>69.4</ele>
        <time>2020-07-03T08:31:24Z</time>
      </trkpt>
      <trkpt lat="47.53501" lon="1.28246">
        <ele>69.4</ele>
        <time>2020-07-03T08:31:25Z</time>
      </trkpt>
      <trkpt lat="47.53496" lon="1.28241">
        <ele>69.4</ele>
        <time>2020-07-03T08:31:26Z</time>
      </trkpt>
      <trkpt lat="47.53491" lon="1.28236">
        <ele>69.4</ele>
        <time>2020-07-03T08:31:27Z</time>
      </trkpt>
      <trkpt lat="47.53486" lon="1.28232">
        <ele>69.4</ele>
        <time>2020-07-03T08:31:28Z</time>
      </trkpt>
      <trkpt lat="47.5348" lon="1.28226">
        <ele>69.3</ele>
        <time>2020-07-03T08:31:29Z</time>
      </trkpt>
      <trkpt lat="47.53474" lon="1.28221">
        <ele>69.3</ele>
        <time>2020-07-03T08:31:30Z</time>
      </trkpt>
      <trkpt lat="47.53469" lon="1.28217">
        <ele>69.3</ele>
        <time>2020-07-03T08:31:31Z</time>
      </trkpt>
      <trkpt lat="47.53464" lon="1.28211">
        <ele>69.3</ele>
        <time>2020-07-03T08:31:32Z</time>
      </trkpt>
      <trkpt lat="47.53459" lon="1.28206">
        <ele>69.3</ele>
        <time>2020-07-03T08:31:33Z</time>
      </trkpt>
      <trkpt lat="47.53455" lon="1.282">
        <ele>69.3</ele>
        <time>2020-07-03T08:31:34Z</time>
      </trkpt>
      <trkpt lat="47.5345" lon="1.28195">
        <ele>69.2</ele>
        <time>2020-07-03T08:31:35Z</time>
      </trkpt>
      <trkpt lat="47.53446" lon="1.28188">
        <ele>69.2</ele>
        <time>2020-07-03T08:31:36Z</time>
      </trkpt>
      <trkpt lat="47.53441" lon="1.28181">
        <ele>69.2</ele>
        <time>2020-07-03T08:31:37Z</time>
      </trkpt>
      <trkpt lat="47.53436" lon="1.28174">
        <ele>69.2</ele>
        <time>2020-07-03T08:31:38Z</time>
      </trkpt>
      <trkpt lat="47.53433" lon="1.28167">
        <ele>69.1</ele>
        <time>2020-07-03T08:31:39Z</time>
      </trkpt>
      <trkpt lat="47.53429" lon="1.28159">
        <ele>69.1</ele>
        <time>2020-07-03T08:31:40Z</time>
      </trkpt>
      <trkpt lat="47.53425" lon="1.28151">
        <ele>69.1</ele>
        <time>2020-07-03T08:31:41Z</time>
      </trkpt>
      <trkpt lat="47.53421" lon="1.28142">
        <ele>69.2</ele>
        <time>2020-07-03T08:31:42Z</time>
      </trkpt>
      <trkpt lat="47.53418" lon="1.28135">
        <ele>69.2</ele>
        <time>2020-07-03T08:31:43Z</time>
      </trkpt>
      <trkpt lat="47.53414" lon="1.28126">
        <ele>69.2</ele>
        <time>2020-07-03T08:31:44Z</time>
      </trkpt>
      <trkpt lat="47.53411" lon="1.28117">
        <ele>69.1</ele>
        <time>2020-07-03T08:31:45Z</time>
      </trkpt>
      <trkpt lat="47.53407" lon="1.28108">
        <ele>69.1</ele>
        <time>2020-07-03T08:31:46Z</time>
      </trkpt>
      <trkpt lat="47.53404" lon="1.28099">
        <ele>69.1</ele>
        <time>2020-07-03T08:31:47Z</time>
      </trkpt>
      <trkpt lat="47.53401" lon="1.28091">
        <ele>69.1</ele>
        <time>2020-07-03T08:31:48Z</time>
      </trkpt>
      <trkpt lat="47.53398" lon="1.28083">
        <ele>69.1</ele>
        <time>2020-07-03T08:31:49Z</time>
      </trkpt>
      <trkpt lat="47.53395" lon="1.28073">
        <ele>69.2</ele>
        <time>2020-07-03T08:31:50Z</time>
      </trkpt>
      <trkpt lat="47.53392" lon="1.28066">
        <ele>69.3</ele>
        <time>2020-07-03T08:31:51Z</time>
      </trkpt>
      <trkpt lat="47.53388" lon="1.28057">
        <ele>69.5</ele>
        <time>2020-07-03T08:31:52Z</time>
      </trkpt>
      <trkpt lat="47.53385" lon="1.28048">
        <ele>69.4</ele>
        <time>2020-07-03T08:31:53Z</time>
      </trkpt>
      <trkpt lat="47.53382" lon="1.2804">
        <ele>69.3</ele>
        <time>2020-07-03T08:31:54Z</time>
      </trkpt>
      <trkpt lat="47.53378" lon="1.28031">
        <ele>69.2</ele>
        <time>2020-07-03T08:31:55Z</time>
      </trkpt>
      <trkpt lat="47.53374" lon="1.28023">
        <ele>69.1</ele>
        <time>2020-07-03T08:31:56Z</time>
      </trkpt>
      <trkpt lat="47.5337" lon="1.28015">
        <ele>69.1</ele>
        <time>2020-07-03T08:31:57Z</time>
      </trkpt>
      <trkpt lat="47.53365" lon="1.28007">
        <ele>69.1</ele>
        <time>2020-07-03T08:31:58Z</time>
      </trkpt>
      <trkpt lat="47.53361" lon="1.27999">
        <ele>69.1</ele>
        <time>2020-07-03T08:31:59Z</time>
      </trkpt>
      <trkpt lat="47.53357" lon="1.27991">
        <ele>69.1</ele>
        <time>2020-07-03T08:32:00Z</time>
      </trkpt>
      <trkpt lat="47.53353" lon="1.27984">
        <ele>69.2</ele>
        <time>2020-07-03T08:32:01Z</time>
      </trkpt>
      <trkpt lat="47.53348" lon="1.27977">
        <ele>69.2</ele>
        <time>2020-07-03T08:32:02Z</time>
      </trkpt>
      <trkpt lat="47.53343" lon="1.27969">
        <ele>69.2</ele>
        <time>2020-07-03T08:32:03Z</time>
      </trkpt>
      <trkpt lat="47.53339" lon="1.27962">
        <ele>69.2</ele>
        <time>2020-07-03T08:32:04Z</time>
      </trkpt>
      <trkpt lat="47.53334" lon="1.27954">
        <ele>69.2</ele>
        <time>2020-07-03T08:32:05Z</time>
      </trkpt>
      <trkpt lat="47.53329" lon="1.27947">
        <ele>69.2</ele>
        <time>2020-07-03T08:32:06Z</time>
      </trkpt>
      <trkpt lat="47.53325" lon="1.27939">
        <ele>69.2</ele>
        <time>2020-07-03T08:32:07Z</time>
      </trkpt>
      <trkpt lat="47.5332" lon="1.27931">
        <ele>69.2</ele>
        <time>2020-07-03T08:32:08Z</time>
      </trkpt>
      <trkpt lat="47.53315" lon="1.27923">
        <ele>69.2</ele>
        <time>2020-07-03T08:32:09Z</time>
      </trkpt>
      <trkpt lat="47.53311" lon="1.27915">
        <ele>69.3</ele>
        <time>2020-07-03T08:32:10Z</time>
      </trkpt>
      <trkpt lat="47.53306" lon="1.27907">
        <ele>69.3</ele>
        <time>2020-07-03T08:32:11Z</time>
      </trkpt>
      <trkpt lat="47.53301" lon="1.27899">
        <ele>69.3</ele>
        <time>2020-07-03T08:32:12Z</time>
      </trkpt>
      <trkpt lat="47.53297" lon="1.27891">
        <ele>69.3</ele>
        <time>2020-07-03T08:32:13Z</time>
      </trkpt>
      <trkpt lat="47.53293" lon="1.27884">
        <ele>69.3</ele>
        <time>2020-07-03T08:32:14Z</time>
      </trkpt>
      <trkpt lat="47.53289" lon="1.27876">
        <ele>69.3</ele>
        <time>2020-07-03T08:32:15Z</time>
      </trkpt>
      <trkpt lat="47.53284" lon="1.27869">
        <ele>69.3</ele>
        <time>2020-07-03T08:32:16Z</time>
      </trkpt>
      <trkpt lat="47.5328" lon="1.27861">
        <ele>69.3</ele>
        <time>2020-07-03T08:32:17Z</time>
      </trkpt>
      <trkpt lat="47.53275" lon="1.27854">
        <ele>69.3</ele>
        <time>2020-07-03T08:32:18Z</time>
      </trkpt>
      <trkpt lat="47.53271" lon="1.27846">
        <ele>69.3</ele>
        <time>2020-07-03T08:32:19Z</time>
      </trkpt>
      <trkpt lat="47.53267" lon="1.27838">
        <ele>69.4</ele>
        <time>2020-07-03T08:32:20Z</time>
      </trkpt>
      <trkpt lat="47.53262" lon="1.27831">
        <ele>69.4</ele>
        <time>2020-07-03T08:32:21Z</time>
      </trkpt>
      <trkpt lat="47.53258" lon="1.27823">
        <ele>69.4</ele>
        <time>2020-07-03T08:32:22Z</time>
      </trkpt>
      <trkpt lat="47.53254" lon="1.27815">
        <ele>69.4</ele>
        <time>2020-07-03T08:32:23Z</time>
      </trkpt>
      <trkpt lat="47.5325" lon="1.27807">
        <ele>69.5</ele>
        <time>2020-07-03T08:32:24Z</time>
      </trkpt>
      <trkpt lat="47.53246" lon="1.27799">
        <ele>69.5</ele>
        <time>2020-07-03T08:32:25Z</time>
      </trkpt>
      <trkpt lat="47.53242" lon="1.27792">
        <ele>69.5</ele>
        <time>2020-07-03T08:32:26Z</time>
      </trkpt>
      <trkpt lat="47.53237" lon="1.27784">
        <ele>69.5</ele>
        <time>2020-07-03T08:32:27Z</time>
      </trkpt>
      <trkpt lat="47.53233" lon="1.27776">
        <ele>69.4</ele>
        <time>2020-07-03T08:32:28Z</time>
      </trkpt>
      <trkpt lat="47.53229" lon="1.27768">
        <ele>69.4</ele>
        <time>2020-07-03T08:32:29Z</time>
      </trkpt>
      <trkpt lat="47.53225" lon="1.27761">
        <ele>69.4</ele>
        <time>2020-07-03T08:32:30Z</time>
      </trkpt>
      <trkpt lat="47.53221" lon="1.27753">
        <ele>69.4</ele>
        <time>2020-07-03T08:32:31Z</time>
      </trkpt>
      <trkpt lat="47.53216" lon="1.27746">
        <ele>69.4</ele>
        <time>2020-07-03T08:32:32Z</time>
      </trkpt>
      <trkpt lat="47.53212" lon="1.27738">
        <ele>69.4</ele>
        <time>2020-07-03T08:32:33Z</time>
      </trkpt>
      <trkpt lat="47.53208" lon="1.27731">
        <ele>69.4</ele>
        <time>2020-07-03T08:32:34Z</time>
      </trkpt>
      <trkpt lat="47.53203" lon="1.27723">
        <ele>69.4</ele>
        <time>2020-07-03T08:32:35Z</time>
      </trkpt>
      <trkpt lat="47.53198" lon="1.27716">
        <ele>69.4</ele>
        <time>2020-07-03T08:32:36Z</time>
      </trkpt>
      <trkpt lat="47.53194" lon="1.27708">
        <ele>69.4</ele>
        <time>2020-07-03T08:32:37Z</time>
      </trkpt>
      <trkpt lat="47.53189" lon="1.277">
        <ele>69.3</ele>
        <time>2020-07-03T08:32:38Z</time>
      </trkpt>
      <trkpt lat="47.53185" lon="1.27692">
        <ele>69.3</ele>
        <time>2020-07-03T08:32:39Z</time>
      </trkpt>
      <trkpt lat="47.53181" lon="1.27683">
        <ele>69.3</ele>
        <time>2020-07-03T08:32:40Z</time>
      </trkpt>
      <trkpt lat="47.53177" lon="1.27675">
        <ele>69.3</ele>
        <time>2020-07-03T08:32:41Z</time>
      </trkpt>
      <trkpt lat="47.53174" lon="1.27666">
        <ele>69.2</ele>
        <time>2020-07-03T08:32:42Z</time>
      </trkpt>
      <trkpt lat="47.5317" lon="1.27658">
        <ele>69.2</ele>
        <time>2020-07-03T08:32:43Z</time>
      </trkpt>
      <trkpt lat="47.53166" lon="1.27649">
        <ele>69.2</ele>
        <time>2020-07-03T08:32:44Z</time>
      </trkpt>
      <trkpt lat="47.53162" lon="1.2764">
        <ele>69.3</ele>
        <time>2020-07-03T08:32:45Z</time>
      </trkpt>
      <trkpt lat="47.53159" lon="1.27631">
        <ele>69.3</ele>
        <time>2020-07-03T08:32:46Z</time>
      </trkpt>
      <trkpt lat="47.53156" lon="1.27622">
        <ele>69.3</ele>
        <time>2020-07-03T08:32:47Z</time>
      </trkpt>
      <trkpt lat="47.53153" lon="1.27613">
        <ele>69.3</ele>
        <time>2020-07-03T08:32:48Z</time>
      </trkpt>
      <trkpt lat="47.5315" lon="1.27604">
        <ele>69.4</ele>
        <time>2020-07-03T08:32:49Z</time>
      </trkpt>
      <trkpt lat="47.53147" lon="1.27594">
        <ele>69.4</ele>
        <time>2020-07-03T08:32:50Z</time>
      </trkpt>
      <trkpt lat="47.53144" lon="1.27586">
        <ele>69.4</ele>
        <time>2020-07-03T08:32:51Z</time>
      </trkpt>
      <trkpt lat="47.53141" lon="1.27577">
        <ele>69.4</ele>
        <time>2020-07-03T08:32:52Z</time>
      </trkpt>
      <trkpt lat="47.53138" lon="1.27568">
        <ele>69.4</ele>
        <time>2020-07-03T08:32:53Z</time>
      </trkpt>
      <trkpt lat="47.53135" lon="1.2756">
        <ele>69.4</ele>
        <time>2020-07-03T08:32:54Z</time>
      </trkpt>
      <trkpt lat="47.53131" lon="1.27552">
        <ele>69.4</ele>
        <time>2020-07-03T08:32:55Z</time>
      </trkpt>
      <trkpt lat="47.53127" lon="1.27544">
        <ele>69.4</ele>
        <time>2020-07-03T08:32:56Z</time>
      </trkpt>
      <trkpt lat="47.53124" lon="1.27536">
        <ele>69.4</ele>
        <time>2020-07-03T08:32:57Z</time>
      </trkpt>
      <trkpt lat="47.5312" lon="1.27527">
        <ele>69.4</ele>
        <time>2020-07-03T08:32:58Z</time>
      </trkpt>
      <trkpt lat="47.53117" lon="1.27519">
        <ele>69.4</ele>
        <time>2020-07-03T08:32:59Z</time>
      </trkpt>
      <trkpt lat="47.53113" lon="1.2751">
        <ele>69.3</ele>
        <time>2020-07-03T08:33:00Z</time>
      </trkpt>
      <trkpt lat="47.53109" lon="1.27502">
        <ele>69.3</ele>
        <time>2020-07-03T08:33:01Z</time>
      </trkpt>
      <trkpt lat="47.53106" lon="1.27494">
        <ele>69.3</ele>
        <time>2020-07-03T08:33:02Z</time>
      </trkpt>
      <trkpt lat="47.53102" lon="1.27486">
        <ele>69.3</ele>
        <time>2020-07-03T08:33:03Z</time>
      </trkpt>
      <trkpt lat="47.53098" lon="1.27478">
        <ele>69.3</ele>
        <time>2020-07-03T08:33:04Z</time>
      </trkpt>
      <trkpt lat="47.53094" lon="1.2747">
        <ele>69.3</ele>
        <time>2020-07-03T08:33:05Z</time>
      </trkpt>
      <trkpt lat="47.53089" lon="1.27462">
        <ele>69.3</ele>
        <time>2020-07-03T08:33:06Z</time>
      </trkpt>
      <trkpt lat="47.53085" lon="1.27454">
        <ele>69.3</ele>
        <time>2020-07-03T08:33:07Z</time>
      </trkpt>
      <trkpt lat="47.5308" lon="1.27447">
        <ele>69.3</ele>
        <time>2020-07-03T08:33:08Z</time>
      </trkpt>
      <trkpt lat="47.53075" lon="1.27439">
        <ele>69.4</ele>
        <time>2020-07-03T08:33:09Z</time>
      </trkpt>
      <trkpt lat="47.53071" lon="1.27432">
        <ele>69.4</ele>
        <time>2020-07-03T08:33:10Z</time>
      </trkpt>
      <trkpt lat="47.53066" lon="1.27424">
        <ele>69.4</ele>
        <time>2020-07-03T08:33:11Z</time>
      </trkpt>
      <trkpt lat="47.53061" lon="1.27416">
        <ele>69.4</ele>
        <time>2020-07-03T08:33:12Z</time>
      </trkpt>
      <trkpt lat="47.53057" lon="1.27408">
        <ele>69.4</ele>
        <time>2020-07-03T08:33:13Z</time>
      </trkpt>
      <trkpt lat="47.53053" lon="1.274">
        <ele>69.3</ele>
        <time>2020-07-03T08:33:14Z</time>
      </trkpt>
      <trkpt lat="47.5305" lon="1.27392">
        <ele>69.3</ele>
        <time>2020-07-03T08:33:15Z</time>
      </trkpt>
      <trkpt lat="47.53046" lon="1.27383">
        <ele>69.3</ele>
        <time>2020-07-03T08:33:16Z</time>
      </trkpt>
      <trkpt lat="47.53042" lon="1.27375">
        <ele>69.3</ele>
        <time>2020-07-03T08:33:17Z</time>
      </trkpt>
      <trkpt lat="47.53038" lon="1.27366">
        <ele>69.3</ele>
        <time>2020-07-03T08:33:18Z</time>
      </trkpt>
      <trkpt lat="47.53034" lon="1.27357">
        <ele>69.3</ele>
        <time>2020-07-03T08:33:19Z</time>
      </trkpt>
      <trkpt lat="47.5303" lon="1.27349">
        <ele>69.3</ele>
        <time>2020-07-03T08:33:20Z</time>
      </trkpt>
      <trkpt lat="47.53026" lon="1.2734">
        <ele>69.3</ele>
        <time>2020-07-03T08:33:21Z</time>
      </trkpt>
      <trkpt lat="47.53023" lon="1.27331">
        <ele>69.3</ele>
        <time>2020-07-03T08:33:22Z</time>
      </trkpt>
      <trkpt lat="47.53019" lon="1.27322">
        <ele>69.3</ele>
        <time>2020-07-03T08:33:23Z</time>
      </trkpt>
      <trkpt lat="47.53016" lon="1.27313">
        <ele>69.2</ele>
        <time>2020-07-03T08:33:24Z</time>
      </trkpt>
      <trkpt lat="47.53012" lon="1.27305">
        <ele>69.2</ele>
        <time>2020-07-03T08:33:25Z</time>
      </trkpt>
      <trkpt lat="47.53009" lon="1.27296">
        <ele>69.2</ele>
        <time>2020-07-03T08:33:26Z</time>
      </trkpt>
      <trkpt lat="47.53006" lon="1.27288">
        <ele>69.2</ele>
        <time>2020-07-03T08:33:27Z</time>
      </trkpt>
      <trkpt lat="47.53002" lon="1.27279">
        <ele>69.1</ele>
        <time>2020-07-03T08:33:28Z</time>
      </trkpt>
      <trkpt lat="47.52998" lon="1.27271">
        <ele>69.1</ele>
        <time>2020-07-03T08:33:29Z</time>
      </trkpt>
      <trkpt lat="47.52995" lon="1.27263">
        <ele>69.1</ele>
        <time>2020-07-03T08:33:30Z</time>
      </trkpt>
      <trkpt lat="47.52991" lon="1.27254">
        <ele>69</ele>
        <time>2020-07-03T08:33:31Z</time>
      </trkpt>
      <trkpt lat="47.52988" lon="1.27246">
        <ele>69</ele>
        <time>2020-07-03T08:33:32Z</time>
      </trkpt>
      <trkpt lat="47.52984" lon="1.27238">
        <ele>69</ele>
        <time>2020-07-03T08:33:33Z</time>
      </trkpt>
      <trkpt lat="47.5298" lon="1.2723">
        <ele>69</ele>
        <time>2020-07-03T08:33:34Z</time>
      </trkpt>
      <trkpt lat="47.52977" lon="1.27221">
        <ele>69</ele>
        <time>2020-07-03T08:33:35Z</time>
      </trkpt>
      <trkpt lat="47.52973" lon="1.27213">
        <ele>69</ele>
        <time>2020-07-03T08:33:36Z</time>
      </trkpt>
      <trkpt lat="47.5297" lon="1.27205">
        <ele>69.1</ele>
        <time>2020-07-03T08:33:37Z</time>
      </trkpt>
      <trkpt lat="47.52966" lon="1.27197">
        <ele>69.1</ele>
        <time>2020-07-03T08:33:38Z</time>
      </trkpt>
      <trkpt lat="47.52962" lon="1.27189">
        <ele>69.1</ele>
        <time>2020-07-03T08:33:39Z</time>
      </trkpt>
      <trkpt lat="47.52958" lon="1.27181">
        <ele>69</ele>
        <time>2020-07-03T08:33:40Z</time>
      </trkpt>
      <trkpt lat="47.52954" lon="1.27173">
        <ele>69</ele>
        <time>2020-07-03T08:33:41Z</time>
      </trkpt>
      <trkpt lat="47.52951" lon="1.27165">
        <ele>69</ele>
        <time>2020-07-03T08:33:42Z</time>
      </trkpt>
      <trkpt lat="47.52947" lon="1.27158">
        <ele>69</ele>
        <time>2020-07-03T08:33:43Z</time>
      </trkpt>
      <trkpt lat="47.52943" lon="1.2715">
        <ele>69</ele>
        <time>2020-07-03T08:33:44Z</time>
      </trkpt>
      <trkpt lat="47.52939" lon="1.27142">
        <ele>69</ele>
        <time>2020-07-03T08:33:45Z</time>
      </trkpt>
      <trkpt lat="47.52935" lon="1.27135">
        <ele>69</ele>
        <time>2020-07-03T08:33:46Z</time>
      </trkpt>
      <trkpt lat="47.52932" lon="1.27127">
        <ele>69</ele>
        <time>2020-07-03T08:33:47Z</time>
      </trkpt>
      <trkpt lat="47.52928" lon="1.27119">
        <ele>69</ele>
        <time>2020-07-03T08:33:48Z</time>
      </trkpt>
      <trkpt lat="47.52925" lon="1.27111">
        <ele>68.9</ele>
        <time>2020-07-03T08:33:49Z</time>
      </trkpt>
      <trkpt lat="47.52921" lon="1.27104">
        <ele>68.9</ele>
        <time>2020-07-03T08:33:50Z</time>
      </trkpt>
      <trkpt lat="47.52917" lon="1.27096">
        <ele>68.9</ele>
        <time>2020-07-03T08:33:51Z</time>
      </trkpt>
      <trkpt lat="47.52913" lon="1.27089">
        <ele>68.9</ele>
        <time>2020-07-03T08:33:52Z</time>
      </trkpt>
      <trkpt lat="47.52909" lon="1.27082">
        <ele>68.9</ele>
        <time>2020-07-03T08:33:53Z</time>
      </trkpt>
      <trkpt lat="47.52906" lon="1.27075">
        <ele>68.9</ele>
        <time>2020-07-03T08:33:54Z</time>
      </trkpt>
      <trkpt lat="47.52902" lon="1.27068">
        <ele>68.9</ele>
        <time>2020-07-03T08:33:55Z</time>
      </trkpt>
      <trkpt lat="47.52898" lon="1.2706">
        <ele>69</ele>
        <time>2020-07-03T08:33:56Z</time>
      </trkpt>
      <trkpt lat="47.52894" lon="1.27053">
        <ele>69</ele>
        <time>2020-07-03T08:33:57Z</time>
      </trkpt>
      <trkpt lat="47.5289" lon="1.27046">
        <ele>69</ele>
        <time>2020-07-03T08:33:58Z</time>
      </trkpt>
      <trkpt lat="47.52886" lon="1.27039">
        <ele>69</ele>
        <time>2020-07-03T08:33:59Z</time>
      </trkpt>
      <trkpt lat="47.52883" lon="1.27032">
        <ele>69</ele>
        <time>2020-07-03T08:34:00Z</time>
      </trkpt>
      <trkpt lat="47.52879" lon="1.27025">
        <ele>69</ele>
        <time>2020-07-03T08:34:01Z</time>
      </trkpt>
      <trkpt lat="47.52875" lon="1.27017">
        <ele>69</ele>
        <time>2020-07-03T08:34:02Z</time>
      </trkpt>
      <trkpt lat="47.52872" lon="1.2701">
        <ele>69</ele>
        <time>2020-07-03T08:34:03Z</time>
      </trkpt>
      <trkpt lat="47.52868" lon="1.27003">
        <ele>69</ele>
        <time>2020-07-03T08:34:04Z</time>
      </trkpt>
      <trkpt lat="47.52865" lon="1.26995">
        <ele>69</ele>
        <time>2020-07-03T08:34:05Z</time>
      </trkpt>
      <trkpt lat="47.52861" lon="1.26988">
        <ele>69</ele>
        <time>2020-07-03T08:34:06Z</time>
      </trkpt>
      <trkpt lat="47.52857" lon="1.26981">
        <ele>69</ele>
        <time>2020-07-03T08:34:07Z</time>
      </trkpt>
      <trkpt lat="47.52854" lon="1.26974">
        <ele>69</ele>
        <time>2020-07-03T08:34:08Z</time>
      </trkpt>
      <trkpt lat="47.52851" lon="1.26967">
        <ele>69</ele>
        <time>2020-07-03T08:34:09Z</time>
      </trkpt>
      <trkpt lat="47.52848" lon="1.2696">
        <ele>69</ele>
        <time>2020-07-03T08:34:10Z</time>
      </trkpt>
      <trkpt lat="47.52844" lon="1.26952">
        <ele>69</ele>
        <time>2020-07-03T08:34:11Z</time>
      </trkpt>
      <trkpt lat="47.52841" lon="1.26944">
        <ele>69</ele>
        <time>2020-07-03T08:34:12Z</time>
      </trkpt>
      <trkpt lat="47.52838" lon="1.26937">
        <ele>69</ele>
        <time>2020-07-03T08:34:13Z</time>
      </trkpt>
      <trkpt lat="47.52834" lon="1.2693">
        <ele>69</ele>
        <time>2020-07-03T08:34:14Z</time>
      </trkpt>
      <trkpt lat="47.52831" lon="1.26923">
        <ele>69</ele>
        <time>2020-07-03T08:34:15Z</time>
      </trkpt>
      <trkpt lat="47.52828" lon="1.26916">
        <ele>69</ele>
        <time>2020-07-03T08:34:16Z</time>
      </trkpt>
      <trkpt lat="47.52825" lon="1.26908">
        <ele>69</ele>
        <time>2020-07-03T08:34:17Z</time>
      </trkpt>
      <trkpt lat="47.52821" lon="1.26901">
        <ele>69</ele>
        <time>2020-07-03T08:34:18Z</time>
      </trkpt>
      <trkpt lat="47.52818" lon="1.26894">
        <ele>69</ele>
        <time>2020-07-03T08:34:19Z</time>
      </trkpt>
      <trkpt lat="47.52814" lon="1.26886">
        <ele>69</ele>
        <time>2020-07-03T08:34:20Z</time>
      </trkpt>
      <trkpt lat="47.5281" lon="1.26879">
        <ele>69</ele>
        <time>2020-07-03T08:34:21Z</time>
      </trkpt>
      <trkpt lat="47.52807" lon="1.26871">
        <ele>69</ele>
        <time>2020-07-03T08:34:22Z</time>
      </trkpt>
      <trkpt lat="47.52803" lon="1.26864">
        <ele>69.1</ele>
        <time>2020-07-03T08:34:23Z</time>
      </trkpt>
      <trkpt lat="47.528" lon="1.26858">
        <ele>69.1</ele>
        <time>2020-07-03T08:34:24Z</time>
      </trkpt>
      <trkpt lat="47.52796" lon="1.26851">
        <ele>69.1</ele>
        <time>2020-07-03T08:34:25Z</time>
      </trkpt>
      <trkpt lat="47.52792" lon="1.26844">
        <ele>69.1</ele>
        <time>2020-07-03T08:34:26Z</time>
      </trkpt>
      <trkpt lat="47.52788" lon="1.26837">
        <ele>69.1</ele>
        <time>2020-07-03T08:34:27Z</time>
      </trkpt>
      <trkpt lat="47.52784" lon="1.26832">
        <ele>69.1</ele>
        <time>2020-07-03T08:34:28Z</time>
      </trkpt>
      <trkpt lat="47.52781" lon="1.26825">
        <ele>69.1</ele>
        <time>2020-07-03T08:34:29Z</time>
      </trkpt>
      <trkpt lat="47.52777" lon="1.26817">
        <ele>69.1</ele>
        <time>2020-07-03T08:34:30Z</time>
      </trkpt>
      <trkpt lat="47.52773" lon="1.26809">
        <ele>69.1</ele>
        <time>2020-07-03T08:34:31Z</time>
      </trkpt>
      <trkpt lat="47.52769" lon="1.26801">
        <ele>69.1</ele>
        <time>2020-07-03T08:34:32Z</time>
      </trkpt>
      <trkpt lat="47.52766" lon="1.26795">
        <ele>69.1</ele>
        <time>2020-07-03T08:34:33Z</time>
      </trkpt>
      <trkpt lat="47.52762" lon="1.26788">
        <ele>69.1</ele>
        <time>2020-07-03T08:34:34Z</time>
      </trkpt>
      <trkpt lat="47.52758" lon="1.26781">
        <ele>69.1</ele>
        <time>2020-07-03T08:34:35Z</time>
      </trkpt>
      <trkpt lat="47.52753" lon="1.26774">
        <ele>69.1</ele>
        <time>2020-07-03T08:34:36Z</time>
      </trkpt>
      <trkpt lat="47.52749" lon="1.26766">
        <ele>69.1</ele>
        <time>2020-07-03T08:34:37Z</time>
      </trkpt>
      <trkpt lat="47.52745" lon="1.26759">
        <ele>69.1</ele>
        <time>2020-07-03T08:34:38Z</time>
      </trkpt>
      <trkpt lat="47.52741" lon="1.26753">
        <ele>69.1</ele>
        <time>2020-07-03T08:34:39Z</time>
      </trkpt>
      <trkpt lat="47.52737" lon="1.26746">
        <ele>69.1</ele>
        <time>2020-07-03T08:34:40Z</time>
      </trkpt>
      <trkpt lat="47.52732" lon="1.26739">
        <ele>69.2</ele>
        <time>2020-07-03T08:34:41Z</time>
      </trkpt>
      <trkpt lat="47.52728" lon="1.26731">
        <ele>69.2</ele>
        <time>2020-07-03T08:34:42Z</time>
      </trkpt>
      <trkpt lat="47.52723" lon="1.26723">
        <ele>69.3</ele>
        <time>2020-07-03T08:34:43Z</time>
      </trkpt>
      <trkpt lat="47.52718" lon="1.26716">
        <ele>69.3</ele>
        <time>2020-07-03T08:34:44Z</time>
      </trkpt>
      <trkpt lat="47.52714" lon="1.26709">
        <ele>69.4</ele>
        <time>2020-07-03T08:34:45Z</time>
      </trkpt>
      <trkpt lat="47.5271" lon="1.26702">
        <ele>69.4</ele>
        <time>2020-07-03T08:34:46Z</time>
      </trkpt>
      <trkpt lat="47.52707" lon="1.26694">
        <ele>69.4</ele>
        <time>2020-07-03T08:34:47Z</time>
      </trkpt>
      <trkpt lat="47.52703" lon="1.26686">
        <ele>69.5</ele>
        <time>2020-07-03T08:34:48Z</time>
      </trkpt>
      <trkpt lat="47.52699" lon="1.26679">
        <ele>69.5</ele>
        <time>2020-07-03T08:34:49Z</time>
      </trkpt>
      <trkpt lat="47.52694" lon="1.26673">
        <ele>69.5</ele>
        <time>2020-07-03T08:34:50Z</time>
      </trkpt>
      <trkpt lat="47.52691" lon="1.26666">
        <ele>69.5</ele>
        <time>2020-07-03T08:34:51Z</time>
      </trkpt>
      <trkpt lat="47.52686" lon="1.26659">
        <ele>69.5</ele>
        <time>2020-07-03T08:34:52Z</time>
      </trkpt>
      <trkpt lat="47.52682" lon="1.26652">
        <ele>69.5</ele>
        <time>2020-07-03T08:34:53Z</time>
      </trkpt>
      <trkpt lat="47.52679" lon="1.26645">
        <ele>69.4</ele>
        <time>2020-07-03T08:34:54Z</time>
      </trkpt>
      <trkpt lat="47.52675" lon="1.26637">
        <ele>69.4</ele>
        <time>2020-07-03T08:34:55Z</time>
      </trkpt>
      <trkpt lat="47.52671" lon="1.26629">
        <ele>69.4</ele>
        <time>2020-07-03T08:34:56Z</time>
      </trkpt>
      <trkpt lat="47.52667" lon="1.26622">
        <ele>69.4</ele>
        <time>2020-07-03T08:34:57Z</time>
      </trkpt>
      <trkpt lat="47.52663" lon="1.26614">
        <ele>69.4</ele>
        <time>2020-07-03T08:34:58Z</time>
      </trkpt>
      <trkpt lat="47.5266" lon="1.26607">
        <ele>69.4</ele>
        <time>2020-07-03T08:34:59Z</time>
      </trkpt>
      <trkpt lat="47.52656" lon="1.266">
        <ele>69.3</ele>
        <time>2020-07-03T08:35:00Z</time>
      </trkpt>
      <trkpt lat="47.52651" lon="1.26592">
        <ele>69.3</ele>
        <time>2020-07-03T08:35:01Z</time>
      </trkpt>
      <trkpt lat="47.52647" lon="1.26584">
        <ele>69.3</ele>
        <time>2020-07-03T08:35:02Z</time>
      </trkpt>
      <trkpt lat="47.52643" lon="1.26576">
        <ele>69.3</ele>
        <time>2020-07-03T08:35:03Z</time>
      </trkpt>
      <trkpt lat="47.52639" lon="1.26569">
        <ele>69.3</ele>
        <time>2020-07-03T08:35:04Z</time>
      </trkpt>
      <trkpt lat="47.52635" lon="1.26562">
        <ele>69.3</ele>
        <time>2020-07-03T08:35:05Z</time>
      </trkpt>
      <trkpt lat="47.5263" lon="1.26555">
        <ele>69.3</ele>
        <time>2020-07-03T08:35:06Z</time>
      </trkpt>
      <trkpt lat="47.52625" lon="1.26548">
        <ele>69.3</ele>
        <time>2020-07-03T08:35:07Z</time>
      </trkpt>
      <trkpt lat="47.52621" lon="1.26542">
        <ele>69.3</ele>
        <time>2020-07-03T08:35:08Z</time>
      </trkpt>
      <trkpt lat="47.52616" lon="1.26537">
        <ele>69.3</ele>
        <time>2020-07-03T08:35:09Z</time>
      </trkpt>
      <trkpt lat="47.52611" lon="1.26531">
        <ele>69.3</ele>
        <time>2020-07-03T08:35:10Z</time>
      </trkpt>
      <trkpt lat="47.52607" lon="1.26525">
        <ele>69.2</ele>
        <time>2020-07-03T08:35:11Z</time>
      </trkpt>
      <trkpt lat="47.52602" lon="1.26519">
        <ele>69.2</ele>
        <time>2020-07-03T08:35:12Z</time>
      </trkpt>
      <trkpt lat="47.52597" lon="1.26513">
        <ele>69.3</ele>
        <time>2020-07-03T08:35:13Z</time>
      </trkpt>
      <trkpt lat="47.52592" lon="1.26507">
        <ele>69.3</ele>
        <time>2020-07-03T08:35:14Z</time>
      </trkpt>
      <trkpt lat="47.52587" lon="1.265">
        <ele>69.3</ele>
        <time>2020-07-03T08:35:15Z</time>
      </trkpt>
      <trkpt lat="47.52582" lon="1.26495">
        <ele>69.3</ele>
        <time>2020-07-03T08:35:16Z</time>
      </trkpt>
      <trkpt lat="47.52577" lon="1.26488">
        <ele>69.3</ele>
        <time>2020-07-03T08:35:17Z</time>
      </trkpt>
      <trkpt lat="47.52572" lon="1.26483">
        <ele>69.3</ele>
        <time>2020-07-03T08:35:18Z</time>
      </trkpt>
      <trkpt lat="47.52567" lon="1.26477">
        <ele>69.2</ele>
        <time>2020-07-03T08:35:19Z</time>
      </trkpt>
      <trkpt lat="47.52562" lon="1.26471">
        <ele>69.2</ele>
        <time>2020-07-03T08:35:20Z</time>
      </trkpt>
      <trkpt lat="47.52556" lon="1.26465">
        <ele>69.2</ele>
        <time>2020-07-03T08:35:21Z</time>
      </trkpt>
      <trkpt lat="47.52551" lon="1.26458">
        <ele>69.3</ele>
        <time>2020-07-03T08:35:22Z</time>
      </trkpt>
      <trkpt lat="47.52546" lon="1.26453">
        <ele>69.3</ele>
        <time>2020-07-03T08:35:23Z</time>
      </trkpt>
      <trkpt lat="47.52541" lon="1.26447">
        <ele>69.3</ele>
        <time>2020-07-03T08:35:24Z</time>
      </trkpt>
      <trkpt lat="47.52535" lon="1.26441">
        <ele>69.4</ele>
        <time>2020-07-03T08:35:25Z</time>
      </trkpt>
      <trkpt lat="47.5253" lon="1.26435">
        <ele>69.5</ele>
        <time>2020-07-03T08:35:26Z</time>
      </trkpt>
      <trkpt lat="47.52526" lon="1.2643">
        <ele>69.6</ele>
        <time>2020-07-03T08:35:27Z</time>
      </trkpt>
      <trkpt lat="47.5252" lon="1.26424">
        <ele>69.9</ele>
        <time>2020-07-03T08:35:28Z</time>
      </trkpt>
      <trkpt lat="47.52516" lon="1.26418">
        <ele>70.1</ele>
        <time>2020-07-03T08:35:29Z</time>
      </trkpt>
      <trkpt lat="47.52511" lon="1.26412">
        <ele>70.1</ele>
        <time>2020-07-03T08:35:30Z</time>
      </trkpt>
      <trkpt lat="47.52506" lon="1.26405">
        <ele>70.1</ele>
        <time>2020-07-03T08:35:31Z</time>
      </trkpt>
      <trkpt lat="47.52501" lon="1.264">
        <ele>70.2</ele>
        <time>2020-07-03T08:35:32Z</time>
      </trkpt>
      <trkpt lat="47.52495" lon="1.26393">
        <ele>70.2</ele>
        <time>2020-07-03T08:35:33Z</time>
      </trkpt>
      <trkpt lat="47.5249" lon="1.26386">
        <ele>70.1</ele>
        <time>2020-07-03T08:35:34Z</time>
      </trkpt>
      <trkpt lat="47.52484" lon="1.2638">
        <ele>70.1</ele>
        <time>2020-07-03T08:35:35Z</time>
      </trkpt>
      <trkpt lat="47.52479" lon="1.26373">
        <ele>70.1</ele>
        <time>2020-07-03T08:35:36Z</time>
      </trkpt>
      <trkpt lat="47.52474" lon="1.26367">
        <ele>70.2</ele>
        <time>2020-07-03T08:35:37Z</time>
      </trkpt>
      <trkpt lat="47.52468" lon="1.26361">
        <ele>70.2</ele>
        <time>2020-07-03T08:35:38Z</time>
      </trkpt>
      <trkpt lat="47.52464" lon="1.26355">
        <ele>70.2</ele>
        <time>2020-07-03T08:35:39Z</time>
      </trkpt>
      <trkpt lat="47.52458" lon="1.2635">
        <ele>70.2</ele>
        <time>2020-07-03T08:35:40Z</time>
      </trkpt>
      <trkpt lat="47.52453" lon="1.26346">
        <ele>70.2</ele>
        <time>2020-07-03T08:35:41Z</time>
      </trkpt>
      <trkpt lat="47.52448" lon="1.2634">
        <ele>70.2</ele>
        <time>2020-07-03T08:35:42Z</time>
      </trkpt>
      <trkpt lat="47.52443" lon="1.26335">
        <ele>70.2</ele>
        <time>2020-07-03T08:35:43Z</time>
      </trkpt>
      <trkpt lat="47.52438" lon="1.2633">
        <ele>70.2</ele>
        <time>2020-07-03T08:35:44Z</time>
      </trkpt>
      <trkpt lat="47.52433" lon="1.26325">
        <ele>70.1</ele>
        <time>2020-07-03T08:35:45Z</time>
      </trkpt>
      <trkpt lat="47.52427" lon="1.26321">
        <ele>70.1</ele>
        <time>2020-07-03T08:35:46Z</time>
      </trkpt>
      <trkpt lat="47.52422" lon="1.26315">
        <ele>70.1</ele>
        <time>2020-07-03T08:35:47Z</time>
      </trkpt>
      <trkpt lat="47.52416" lon="1.26311">
        <ele>70.1</ele>
        <time>2020-07-03T08:35:48Z</time>
      </trkpt>
      <trkpt lat="47.52411" lon="1.26306">
        <ele>70.1</ele>
        <time>2020-07-03T08:35:49Z</time>
      </trkpt>
      <trkpt lat="47.52406" lon="1.263">
        <ele>70.1</ele>
        <time>2020-07-03T08:35:50Z</time>
      </trkpt>
      <trkpt lat="47.524" lon="1.26295">
        <ele>70.1</ele>
        <time>2020-07-03T08:35:51Z</time>
      </trkpt>
      <trkpt lat="47.52395" lon="1.26289">
        <ele>70.1</ele>
        <time>2020-07-03T08:35:52Z</time>
      </trkpt>
      <trkpt lat="47.5239" lon="1.26283">
        <ele>70.1</ele>
        <time>2020-07-03T08:35:53Z</time>
      </trkpt>
      <trkpt lat="47.52385" lon="1.26277">
        <ele>70.1</ele>
        <time>2020-07-03T08:35:54Z</time>
      </trkpt>
      <trkpt lat="47.5238" lon="1.26271">
        <ele>70.1</ele>
        <time>2020-07-03T08:35:55Z</time>
      </trkpt>
      <trkpt lat="47.52375" lon="1.26266">
        <ele>70.1</ele>
        <time>2020-07-03T08:35:56Z</time>
      </trkpt>
      <trkpt lat="47.5237" lon="1.2626">
        <ele>70</ele>
        <time>2020-07-03T08:35:57Z</time>
      </trkpt>
      <trkpt lat="47.52365" lon="1.26255">
        <ele>70</ele>
        <time>2020-07-03T08:35:58Z</time>
      </trkpt>
      <trkpt lat="47.52359" lon="1.26249">
        <ele>70</ele>
        <time>2020-07-03T08:35:59Z</time>
      </trkpt>
      <trkpt lat="47.52354" lon="1.26243">
        <ele>70</ele>
        <time>2020-07-03T08:36:00Z</time>
      </trkpt>
      <trkpt lat="47.52349" lon="1.26237">
        <ele>70</ele>
        <time>2020-07-03T08:36:01Z</time>
      </trkpt>
      <trkpt lat="47.52344" lon="1.26232">
        <ele>70.1</ele>
        <time>2020-07-03T08:36:02Z</time>
      </trkpt>
      <trkpt lat="47.52339" lon="1.26226">
        <ele>70.1</ele>
        <time>2020-07-03T08:36:03Z</time>
      </trkpt>
      <trkpt lat="47.52334" lon="1.2622">
        <ele>70.1</ele>
        <time>2020-07-03T08:36:04Z</time>
      </trkpt>
      <trkpt lat="47.52329" lon="1.26214">
        <ele>70.1</ele>
        <time>2020-07-03T08:36:05Z</time>
      </trkpt>
      <trkpt lat="47.52324" lon="1.26208">
        <ele>70.1</ele>
        <time>2020-07-03T08:36:06Z</time>
      </trkpt>
      <trkpt lat="47.52319" lon="1.26204">
        <ele>70.1</ele>
        <time>2020-07-03T08:36:07Z</time>
      </trkpt>
      <trkpt lat="47.52315" lon="1.26199">
        <ele>70.1</ele>
        <time>2020-07-03T08:36:08Z</time>
      </trkpt>
      <trkpt lat="47.52309" lon="1.26193">
        <ele>70.1</ele>
        <time>2020-07-03T08:36:09Z</time>
      </trkpt>
      <trkpt lat="47.52304" lon="1.26188">
        <ele>70.1</ele>
        <time>2020-07-03T08:36:10Z</time>
      </trkpt>
      <trkpt lat="47.52298" lon="1.26183">
        <ele>70.1</ele>
        <time>2020-07-03T08:36:11Z</time>
      </trkpt>
      <trkpt lat="47.52292" lon="1.26177">
        <ele>70.1</ele>
        <time>2020-07-03T08:36:12Z</time>
      </trkpt>
      <trkpt lat="47.52287" lon="1.26172">
        <ele>70.1</ele>
        <time>2020-07-03T08:36:13Z</time>
      </trkpt>
      <trkpt lat="47.52281" lon="1.26166">
        <ele>70.1</ele>
        <time>2020-07-03T08:36:14Z</time>
      </trkpt>
      <trkpt lat="47.52276" lon="1.26161">
        <ele>70.1</ele>
        <time>2020-07-03T08:36:15Z</time>
      </trkpt>
      <trkpt lat="47.52269" lon="1.26156">
        <ele>70.1</ele>
        <time>2020-07-03T08:36:16Z</time>
      </trkpt>
      <trkpt lat="47.52264" lon="1.2615">
        <ele>70.1</ele>
        <time>2020-07-03T08:36:17Z</time>
      </trkpt>
      <trkpt lat="47.52258" lon="1.26145">
        <ele>70.1</ele>
        <time>2020-07-03T08:36:18Z</time>
      </trkpt>
      <trkpt lat="47.52252" lon="1.26139">
        <ele>70.1</ele>
        <time>2020-07-03T08:36:19Z</time>
      </trkpt>
      <trkpt lat="47.52246" lon="1.26134">
        <ele>70.1</ele>
        <time>2020-07-03T08:36:20Z</time>
      </trkpt>
      <trkpt lat="47.5224" lon="1.26129">
        <ele>70.1</ele>
        <time>2020-07-03T08:36:21Z</time>
      </trkpt>
      <trkpt lat="47.52234" lon="1.26124">
        <ele>70.1</ele>
        <time>2020-07-03T08:36:22Z</time>
      </trkpt>
      <trkpt lat="47.52228" lon="1.26119">
        <ele>70.1</ele>
        <time>2020-07-03T08:36:23Z</time>
      </trkpt>
      <trkpt lat="47.52222" lon="1.26114">
        <ele>70.1</ele>
        <time>2020-07-03T08:36:24Z</time>
      </trkpt>
      <trkpt lat="47.52216" lon="1.26108">
        <ele>70</ele>
        <time>2020-07-03T08:36:25Z</time>
      </trkpt>
      <trkpt lat="47.5221" lon="1.26102">
        <ele>70</ele>
        <time>2020-07-03T08:36:26Z</time>
      </trkpt>
      <trkpt lat="47.52205" lon="1.26097">
        <ele>70</ele>
        <time>2020-07-03T08:36:27Z</time>
      </trkpt>
      <trkpt lat="47.52199" lon="1.26091">
        <ele>69.9</ele>
        <time>2020-07-03T08:36:28Z</time>
      </trkpt>
      <trkpt lat="47.52194" lon="1.26086">
        <ele>69.9</ele>
        <time>2020-07-03T08:36:29Z</time>
      </trkpt>
      <trkpt lat="47.52188" lon="1.2608">
        <ele>69.9</ele>
        <time>2020-07-03T08:36:30Z</time>
      </trkpt>
      <trkpt lat="47.52183" lon="1.26074">
        <ele>69.9</ele>
        <time>2020-07-03T08:36:31Z</time>
      </trkpt>
      <trkpt lat="47.52177" lon="1.26067">
        <ele>69.9</ele>
        <time>2020-07-03T08:36:32Z</time>
      </trkpt>
      <trkpt lat="47.52172" lon="1.2606">
        <ele>69.9</ele>
        <time>2020-07-03T08:36:33Z</time>
      </trkpt>
      <trkpt lat="47.52166" lon="1.26053">
        <ele>69.8</ele>
        <time>2020-07-03T08:36:34Z</time>
      </trkpt>
      <trkpt lat="47.52161" lon="1.26046">
        <ele>69.8</ele>
        <time>2020-07-03T08:36:35Z</time>
      </trkpt>
      <trkpt lat="47.52156" lon="1.2604">
        <ele>69.7</ele>
        <time>2020-07-03T08:36:36Z</time>
      </trkpt>
      <trkpt lat="47.52152" lon="1.26033">
        <ele>69.7</ele>
        <time>2020-07-03T08:36:37Z</time>
      </trkpt>
      <trkpt lat="47.52147" lon="1.26025">
        <ele>69.7</ele>
        <time>2020-07-03T08:36:38Z</time>
      </trkpt>
      <trkpt lat="47.52143" lon="1.26018">
        <ele>69.7</ele>
        <time>2020-07-03T08:36:39Z</time>
      </trkpt>
      <trkpt lat="47.52138" lon="1.2601">
        <ele>69.7</ele>
        <time>2020-07-03T08:36:40Z</time>
      </trkpt>
      <trkpt lat="47.52133" lon="1.26003">
        <ele>69.7</ele>
        <time>2020-07-03T08:36:41Z</time>
      </trkpt>
      <trkpt lat="47.52128" lon="1.25996">
        <ele>69.7</ele>
        <time>2020-07-03T08:36:42Z</time>
      </trkpt>
      <trkpt lat="47.52124" lon="1.25989">
        <ele>69.7</ele>
        <time>2020-07-03T08:36:43Z</time>
      </trkpt>
      <trkpt lat="47.52119" lon="1.25981">
        <ele>69.7</ele>
        <time>2020-07-03T08:36:44Z</time>
      </trkpt>
      <trkpt lat="47.52114" lon="1.25974">
        <ele>69.7</ele>
        <time>2020-07-03T08:36:45Z</time>
      </trkpt>
      <trkpt lat="47.52109" lon="1.25967">
        <ele>69.7</ele>
        <time>2020-07-03T08:36:46Z</time>
      </trkpt>
      <trkpt lat="47.52105" lon="1.25959">
        <ele>69.7</ele>
        <time>2020-07-03T08:36:47Z</time>
      </trkpt>
      <trkpt lat="47.521" lon="1.25952">
        <ele>69.8</ele>
        <time>2020-07-03T08:36:48Z</time>
      </trkpt>
      <trkpt lat="47.52095" lon="1.25945">
        <ele>69.8</ele>
        <time>2020-07-03T08:36:49Z</time>
      </trkpt>
      <trkpt lat="47.5209" lon="1.25938">
        <ele>69.8</ele>
        <time>2020-07-03T08:36:50Z</time>
      </trkpt>
      <trkpt lat="47.52086" lon="1.2593">
        <ele>69.7</ele>
        <time>2020-07-03T08:36:51Z</time>
      </trkpt>
      <trkpt lat="47.5208" lon="1.25923">
        <ele>69.7</ele>
        <time>2020-07-03T08:36:52Z</time>
      </trkpt>
      <trkpt lat="47.52075" lon="1.25915">
        <ele>69.7</ele>
        <time>2020-07-03T08:36:53Z</time>
      </trkpt>
      <trkpt lat="47.5207" lon="1.25909">
        <ele>69.6</ele>
        <time>2020-07-03T08:36:54Z</time>
      </trkpt>
      <trkpt lat="47.52064" lon="1.25901">
        <ele>69.6</ele>
        <time>2020-07-03T08:36:55Z</time>
      </trkpt>
      <trkpt lat="47.52059" lon="1.25894">
        <ele>69.6</ele>
        <time>2020-07-03T08:36:56Z</time>
      </trkpt>
      <trkpt lat="47.52054" lon="1.25887">
        <ele>69.6</ele>
        <time>2020-07-03T08:36:57Z</time>
      </trkpt>
      <trkpt lat="47.52049" lon="1.25879">
        <ele>69.6</ele>
        <time>2020-07-03T08:36:58Z</time>
      </trkpt>
      <trkpt lat="47.52043" lon="1.25873">
        <ele>69.6</ele>
        <time>2020-07-03T08:36:59Z</time>
      </trkpt>
      <trkpt lat="47.52037" lon="1.25868">
        <ele>69.6</ele>
        <time>2020-07-03T08:37:00Z</time>
      </trkpt>
      <trkpt lat="47.52032" lon="1.25862">
        <ele>69.6</ele>
        <time>2020-07-03T08:37:01Z</time>
      </trkpt>
      <trkpt lat="47.52026" lon="1.25856">
        <ele>69.6</ele>
        <time>2020-07-03T08:37:02Z</time>
      </trkpt>
      <trkpt lat="47.5202" lon="1.25851">
        <ele>69.5</ele>
        <time>2020-07-03T08:37:03Z</time>
      </trkpt>
      <trkpt lat="47.52014" lon="1.25845">
        <ele>69.5</ele>
        <time>2020-07-03T08:37:04Z</time>
      </trkpt>
      <trkpt lat="47.52008" lon="1.25839">
        <ele>69.5</ele>
        <time>2020-07-03T08:37:05Z</time>
      </trkpt>
      <trkpt lat="47.52003" lon="1.25834">
        <ele>69.5</ele>
        <time>2020-07-03T08:37:06Z</time>
      </trkpt>
      <trkpt lat="47.51997" lon="1.25828">
        <ele>69.5</ele>
        <time>2020-07-03T08:37:07Z</time>
      </trkpt>
      <trkpt lat="47.51992" lon="1.25822">
        <ele>69.5</ele>
        <time>2020-07-03T08:37:08Z</time>
      </trkpt>
      <trkpt lat="47.51986" lon="1.25815">
        <ele>69.5</ele>
        <time>2020-07-03T08:37:09Z</time>
      </trkpt>
      <trkpt lat="47.51981" lon="1.25809">
        <ele>69.5</ele>
        <time>2020-07-03T08:37:10Z</time>
      </trkpt>
      <trkpt lat="47.51976" lon="1.25802">
        <ele>69.5</ele>
        <time>2020-07-03T08:37:11Z</time>
      </trkpt>
      <trkpt lat="47.51971" lon="1.25796">
        <ele>69.5</ele>
        <time>2020-07-03T08:37:12Z</time>
      </trkpt>
      <trkpt lat="47.51966" lon="1.2579">
        <ele>69.5</ele>
        <time>2020-07-03T08:37:13Z</time>
      </trkpt>
      <trkpt lat="47.5196" lon="1.25784">
        <ele>69.4</ele>
        <time>2020-07-03T08:37:14Z</time>
      </trkpt>
      <trkpt lat="47.51955" lon="1.25777">
        <ele>69.4</ele>
        <time>2020-07-03T08:37:15Z</time>
      </trkpt>
      <trkpt lat="47.5195" lon="1.25771">
        <ele>69.4</ele>
        <time>2020-07-03T08:37:16Z</time>
      </trkpt>
      <trkpt lat="47.51945" lon="1.25765">
        <ele>69.4</ele>
        <time>2020-07-03T08:37:17Z</time>
      </trkpt>
      <trkpt lat="47.51939" lon="1.25759">
        <ele>69.4</ele>
        <time>2020-07-03T08:37:18Z</time>
      </trkpt>
      <trkpt lat="47.51934" lon="1.25753">
        <ele>69.4</ele>
        <time>2020-07-03T08:37:19Z</time>
      </trkpt>
      <trkpt lat="47.51928" lon="1.25748">
        <ele>69.4</ele>
        <time>2020-07-03T08:37:20Z</time>
      </trkpt>
      <trkpt lat="47.51922" lon="1.25742">
        <ele>69.4</ele>
        <time>2020-07-03T08:37:21Z</time>
      </trkpt>
      <trkpt lat="47.51916" lon="1.25737">
        <ele>69.4</ele>
        <time>2020-07-03T08:37:22Z</time>
      </trkpt>
      <trkpt lat="47.51911" lon="1.25732">
        <ele>69.5</ele>
        <time>2020-07-03T08:37:23Z</time>
      </trkpt>
      <trkpt lat="47.51905" lon="1.25727">
        <ele>69.5</ele>
        <time>2020-07-03T08:37:24Z</time>
      </trkpt>
      <trkpt lat="47.51899" lon="1.25721">
        <ele>69.5</ele>
        <time>2020-07-03T08:37:25Z</time>
      </trkpt>
      <trkpt lat="47.51894" lon="1.25716">
        <ele>69.4</ele>
        <time>2020-07-03T08:37:26Z</time>
      </trkpt>
      <trkpt lat="47.51888" lon="1.2571">
        <ele>69.4</ele>
        <time>2020-07-03T08:37:27Z</time>
      </trkpt>
      <trkpt lat="47.51883" lon="1.25705">
        <ele>69.4</ele>
        <time>2020-07-03T08:37:28Z</time>
      </trkpt>
      <trkpt lat="47.51877" lon="1.257">
        <ele>69.4</ele>
        <time>2020-07-03T08:37:29Z</time>
      </trkpt>
      <trkpt lat="47.51871" lon="1.25695">
        <ele>69.4</ele>
        <time>2020-07-03T08:37:30Z</time>
      </trkpt>
      <trkpt lat="47.51865" lon="1.25689">
        <ele>69.4</ele>
        <time>2020-07-03T08:37:31Z</time>
      </trkpt>
      <trkpt lat="47.51859" lon="1.25684">
        <ele>69.4</ele>
        <time>2020-07-03T08:37:32Z</time>
      </trkpt>
      <trkpt lat="47.51853" lon="1.25679">
        <ele>69.4</ele>
        <time>2020-07-03T08:37:33Z</time>
      </trkpt>
      <trkpt lat="47.51847" lon="1.25674">
        <ele>69.4</ele>
        <time>2020-07-03T08:37:34Z</time>
      </trkpt>
      <trkpt lat="47.51841" lon="1.25669">
        <ele>69.4</ele>
        <time>2020-07-03T08:37:35Z</time>
      </trkpt>
      <trkpt lat="47.51835" lon="1.25663">
        <ele>69.4</ele>
        <time>2020-07-03T08:37:36Z</time>
      </trkpt>
      <trkpt lat="47.51829" lon="1.25658">
        <ele>69.4</ele>
        <time>2020-07-03T08:37:37Z</time>
      </trkpt>
      <trkpt lat="47.51823" lon="1.25653">
        <ele>69.3</ele>
        <time>2020-07-03T08:37:38Z</time>
      </trkpt>
      <trkpt lat="47.51817" lon="1.25649">
        <ele>69.3</ele>
        <time>2020-07-03T08:37:39Z</time>
      </trkpt>
      <trkpt lat="47.51811" lon="1.25644">
        <ele>69.5</ele>
        <time>2020-07-03T08:37:40Z</time>
      </trkpt>
      <trkpt lat="47.51805" lon="1.25639">
        <ele>69.5</ele>
        <time>2020-07-03T08:37:41Z</time>
      </trkpt>
      <trkpt lat="47.51799" lon="1.25635">
        <ele>69.5</ele>
        <time>2020-07-03T08:37:42Z</time>
      </trkpt>
      <trkpt lat="47.51793" lon="1.25631">
        <ele>69.4</ele>
        <time>2020-07-03T08:37:43Z</time>
      </trkpt>
      <trkpt lat="47.51786" lon="1.25627">
        <ele>69.4</ele>
        <time>2020-07-03T08:37:44Z</time>
      </trkpt>
      <trkpt lat="47.5178" lon="1.25623">
        <ele>69.4</ele>
        <time>2020-07-03T08:37:45Z</time>
      </trkpt>
      <trkpt lat="47.51774" lon="1.25619">
        <ele>69.3</ele>
        <time>2020-07-03T08:37:46Z</time>
      </trkpt>
      <trkpt lat="47.51767" lon="1.25615">
        <ele>69.3</ele>
        <time>2020-07-03T08:37:47Z</time>
      </trkpt>
      <trkpt lat="47.51761" lon="1.2561">
        <ele>69.2</ele>
        <time>2020-07-03T08:37:48Z</time>
      </trkpt>
      <trkpt lat="47.51754" lon="1.25606">
        <ele>69.2</ele>
        <time>2020-07-03T08:37:49Z</time>
      </trkpt>
      <trkpt lat="47.51748" lon="1.25601">
        <ele>69.2</ele>
        <time>2020-07-03T08:37:50Z</time>
      </trkpt>
      <trkpt lat="47.51741" lon="1.25596">
        <ele>69.1</ele>
        <time>2020-07-03T08:37:51Z</time>
      </trkpt>
      <trkpt lat="47.51735" lon="1.25592">
        <ele>69.1</ele>
        <time>2020-07-03T08:37:52Z</time>
      </trkpt>
      <trkpt lat="47.51729" lon="1.25588">
        <ele>69</ele>
        <time>2020-07-03T08:37:53Z</time>
      </trkpt>
      <trkpt lat="47.51722" lon="1.25583">
        <ele>69</ele>
        <time>2020-07-03T08:37:54Z</time>
      </trkpt>
      <trkpt lat="47.51716" lon="1.25579">
        <ele>69</ele>
        <time>2020-07-03T08:37:55Z</time>
      </trkpt>
      <trkpt lat="47.51709" lon="1.25575">
        <ele>69</ele>
        <time>2020-07-03T08:37:56Z</time>
      </trkpt>
      <trkpt lat="47.51703" lon="1.2557">
        <ele>69</ele>
        <time>2020-07-03T08:37:57Z</time>
      </trkpt>
      <trkpt lat="47.51697" lon="1.25566">
        <ele>69</ele>
        <time>2020-07-03T08:37:58Z</time>
      </trkpt>
      <trkpt lat="47.5169" lon="1.25561">
        <ele>68.9</ele>
        <time>2020-07-03T08:37:59Z</time>
      </trkpt>
      <trkpt lat="47.51684" lon="1.25556">
        <ele>68.9</ele>
        <time>2020-07-03T08:38:00Z</time>
      </trkpt>
      <trkpt lat="47.51678" lon="1.25551">
        <ele>68.9</ele>
        <time>2020-07-03T08:38:01Z</time>
      </trkpt>
      <trkpt lat="47.51671" lon="1.25548">
        <ele>68.9</ele>
        <time>2020-07-03T08:38:02Z</time>
      </trkpt>
      <trkpt lat="47.51665" lon="1.25544">
        <ele>68.9</ele>
        <time>2020-07-03T08:38:03Z</time>
      </trkpt>
      <trkpt lat="47.51658" lon="1.25541">
        <ele>68.9</ele>
        <time>2020-07-03T08:38:04Z</time>
      </trkpt>
      <trkpt lat="47.51651" lon="1.25538">
        <ele>68.9</ele>
        <time>2020-07-03T08:38:05Z</time>
      </trkpt>
      <trkpt lat="47.51645" lon="1.25535">
        <ele>68.9</ele>
        <time>2020-07-03T08:38:06Z</time>
      </trkpt>
      <trkpt lat="47.51638" lon="1.25531">
        <ele>68.8</ele>
        <time>2020-07-03T08:38:07Z</time>
      </trkpt>
      <trkpt lat="47.51631" lon="1.25528">
        <ele>68.8</ele>
        <time>2020-07-03T08:38:08Z</time>
      </trkpt>
      <trkpt lat="47.51624" lon="1.25524">
        <ele>68.7</ele>
        <time>2020-07-03T08:38:09Z</time>
      </trkpt>
      <trkpt lat="47.51618" lon="1.25522">
        <ele>68.7</ele>
        <time>2020-07-03T08:38:10Z</time>
      </trkpt>
      <trkpt lat="47.51611" lon="1.25519">
        <ele>68.7</ele>
        <time>2020-07-03T08:38:11Z</time>
      </trkpt>
      <trkpt lat="47.51604" lon="1.25517">
        <ele>68.6</ele>
        <time>2020-07-03T08:38:12Z</time>
      </trkpt>
      <trkpt lat="47.51597" lon="1.25515">
        <ele>68.7</ele>
        <time>2020-07-03T08:38:13Z</time>
      </trkpt>
      <trkpt lat="47.5159" lon="1.25512">
        <ele>68.7</ele>
        <time>2020-07-03T08:38:14Z</time>
      </trkpt>
      <trkpt lat="47.51584" lon="1.2551">
        <ele>68.7</ele>
        <time>2020-07-03T08:38:15Z</time>
      </trkpt>
      <trkpt lat="47.51577" lon="1.25508">
        <ele>68.6</ele>
        <time>2020-07-03T08:38:16Z</time>
      </trkpt>
      <trkpt lat="47.5157" lon="1.25505">
        <ele>68.6</ele>
        <time>2020-07-03T08:38:17Z</time>
      </trkpt>
      <trkpt lat="47.51563" lon="1.25503">
        <ele>68.6</ele>
        <time>2020-07-03T08:38:18Z</time>
      </trkpt>
      <trkpt lat="47.51557" lon="1.255">
        <ele>68.6</ele>
        <time>2020-07-03T08:38:19Z</time>
      </trkpt>
      <trkpt lat="47.5155" lon="1.25498">
        <ele>68.6</ele>
        <time>2020-07-03T08:38:20Z</time>
      </trkpt>
      <trkpt lat="47.51544" lon="1.25496">
        <ele>68.6</ele>
        <time>2020-07-03T08:38:21Z</time>
      </trkpt>
      <trkpt lat="47.51537" lon="1.25492">
        <ele>68.7</ele>
        <time>2020-07-03T08:38:22Z</time>
      </trkpt>
      <trkpt lat="47.51531" lon="1.2549">
        <ele>68.7</ele>
        <time>2020-07-03T08:38:23Z</time>
      </trkpt>
      <trkpt lat="47.51524" lon="1.25487">
        <ele>68.7</ele>
        <time>2020-07-03T08:38:24Z</time>
      </trkpt>
      <trkpt lat="47.51518" lon="1.25485">
        <ele>68.7</ele>
        <time>2020-07-03T08:38:25Z</time>
      </trkpt>
      <trkpt lat="47.51511" lon="1.25482">
        <ele>68.7</ele>
        <time>2020-07-03T08:38:26Z</time>
      </trkpt>
      <trkpt lat="47.51505" lon="1.25479">
        <ele>68.7</ele>
        <time>2020-07-03T08:38:27Z</time>
      </trkpt>
      <trkpt lat="47.51498" lon="1.25477">
        <ele>68.7</ele>
        <time>2020-07-03T08:38:28Z</time>
      </trkpt>
      <trkpt lat="47.51491" lon="1.25475">
        <ele>68.7</ele>
        <time>2020-07-03T08:38:29Z</time>
      </trkpt>
      <trkpt lat="47.51485" lon="1.25472">
        <ele>68.7</ele>
        <time>2020-07-03T08:38:30Z</time>
      </trkpt>
      <trkpt lat="47.51478" lon="1.2547">
        <ele>68.7</ele>
        <time>2020-07-03T08:38:31Z</time>
      </trkpt>
      <trkpt lat="47.51472" lon="1.25468">
        <ele>68.7</ele>
        <time>2020-07-03T08:38:32Z</time>
      </trkpt>
      <trkpt lat="47.51465" lon="1.25465">
        <ele>68.7</ele>
        <time>2020-07-03T08:38:33Z</time>
      </trkpt>
      <trkpt lat="47.51459" lon="1.25462">
        <ele>68.7</ele>
        <time>2020-07-03T08:38:34Z</time>
      </trkpt>
      <trkpt lat="47.51452" lon="1.25459">
        <ele>68.7</ele>
        <time>2020-07-03T08:38:35Z</time>
      </trkpt>
      <trkpt lat="47.51446" lon="1.25456">
        <ele>68.7</ele>
        <time>2020-07-03T08:38:36Z</time>
      </trkpt>
      <trkpt lat="47.5144" lon="1.25452">
        <ele>68.7</ele>
        <time>2020-07-03T08:38:37Z</time>
      </trkpt>
      <trkpt lat="47.51434" lon="1.25449">
        <ele>68.7</ele>
        <time>2020-07-03T08:38:38Z</time>
      </trkpt>
      <trkpt lat="47.51428" lon="1.25444">
        <ele>68.7</ele>
        <time>2020-07-03T08:38:39Z</time>
      </trkpt>
      <trkpt lat="47.51422" lon="1.2544">
        <ele>68.7</ele>
        <time>2020-07-03T08:38:40Z</time>
      </trkpt>
      <trkpt lat="47.51416" lon="1.25437">
        <ele>68.6</ele>
        <time>2020-07-03T08:38:41Z</time>
      </trkpt>
      <trkpt lat="47.5141" lon="1.25432">
        <ele>68.6</ele>
        <time>2020-07-03T08:38:42Z</time>
      </trkpt>
      <trkpt lat="47.51405" lon="1.25426">
        <ele>68.5</ele>
        <time>2020-07-03T08:38:43Z</time>
      </trkpt>
      <trkpt lat="47.514" lon="1.25419">
        <ele>68.4</ele>
        <time>2020-07-03T08:38:44Z</time>
      </trkpt>
      <trkpt lat="47.51395" lon="1.25413">
        <ele>68.3</ele>
        <time>2020-07-03T08:38:45Z</time>
      </trkpt>
      <trkpt lat="47.5139" lon="1.25406">
        <ele>68.3</ele>
        <time>2020-07-03T08:38:46Z</time>
      </trkpt>
      <trkpt lat="47.51385" lon="1.25398">
        <ele>68.2</ele>
        <time>2020-07-03T08:38:47Z</time>
      </trkpt>
      <trkpt lat="47.5138" lon="1.25391">
        <ele>68.2</ele>
        <time>2020-07-03T08:38:48Z</time>
      </trkpt>
      <trkpt lat="47.51375" lon="1.25384">
        <ele>68.2</ele>
        <time>2020-07-03T08:38:49Z</time>
      </trkpt>
      <trkpt lat="47.5137" lon="1.25378">
        <ele>68.2</ele>
        <time>2020-07-03T08:38:50Z</time>
      </trkpt>
      <trkpt lat="47.51364" lon="1.25372">
        <ele>68.2</ele>
        <time>2020-07-03T08:38:51Z</time>
      </trkpt>
      <trkpt lat="47.51358" lon="1.25368">
        <ele>68.2</ele>
        <time>2020-07-03T08:38:52Z</time>
      </trkpt>
      <trkpt lat="47.51351" lon="1.25365">
        <ele>68.2</ele>
        <time>2020-07-03T08:38:53Z</time>
      </trkpt>
      <trkpt lat="47.51344" lon="1.25363">
        <ele>68.1</ele>
        <time>2020-07-03T08:38:54Z</time>
      </trkpt>
      <trkpt lat="47.51338" lon="1.2536">
        <ele>68.1</ele>
        <time>2020-07-03T08:38:55Z</time>
      </trkpt>
      <trkpt lat="47.51331" lon="1.25358">
        <ele>68.2</ele>
        <time>2020-07-03T08:38:56Z</time>
      </trkpt>
      <trkpt lat="47.51325" lon="1.25356">
        <ele>68.2</ele>
        <time>2020-07-03T08:38:57Z</time>
      </trkpt>
      <trkpt lat="47.51318" lon="1.25353">
        <ele>68.4</ele>
        <time>2020-07-03T08:38:58Z</time>
      </trkpt>
      <trkpt lat="47.51311" lon="1.2535">
        <ele>68.5</ele>
        <time>2020-07-03T08:38:59Z</time>
      </trkpt>
      <trkpt lat="47.51305" lon="1.25347">
        <ele>68.6</ele>
        <time>2020-07-03T08:39:00Z</time>
      </trkpt>
      <trkpt lat="47.51298" lon="1.25344">
        <ele>68.7</ele>
        <time>2020-07-03T08:39:01Z</time>
      </trkpt>
      <trkpt lat="47.51292" lon="1.25341">
        <ele>68.8</ele>
        <time>2020-07-03T08:39:02Z</time>
      </trkpt>
      <trkpt lat="47.51287" lon="1.25336">
        <ele>68.8</ele>
        <time>2020-07-03T08:39:03Z</time>
      </trkpt>
      <trkpt lat="47.51281" lon="1.25332">
        <ele>68.7</ele>
        <time>2020-07-03T08:39:04Z</time>
      </trkpt>
      <trkpt lat="47.51275" lon="1.25328">
        <ele>68.7</ele>
        <time>2020-07-03T08:39:05Z</time>
      </trkpt>
      <trkpt lat="47.51269" lon="1.25323">
        <ele>68.7</ele>
        <time>2020-07-03T08:39:06Z</time>
      </trkpt>
      <trkpt lat="47.51264" lon="1.25318">
        <ele>68.6</ele>
        <time>2020-07-03T08:39:07Z</time>
      </trkpt>
      <trkpt lat="47.51258" lon="1.25313">
        <ele>68.6</ele>
        <time>2020-07-03T08:39:08Z</time>
      </trkpt>
      <trkpt lat="47.51252" lon="1.25308">
        <ele>68.6</ele>
        <time>2020-07-03T08:39:09Z</time>
      </trkpt>
      <trkpt lat="47.51246" lon="1.25304">
        <ele>68.6</ele>
        <time>2020-07-03T08:39:10Z</time>
      </trkpt>
      <trkpt lat="47.5124" lon="1.253">
        <ele>68.5</ele>
        <time>2020-07-03T08:39:11Z</time>
      </trkpt>
      <trkpt lat="47.51233" lon="1.25295">
        <ele>68.5</ele>
        <time>2020-07-03T08:39:12Z</time>
      </trkpt>
      <trkpt lat="47.51227" lon="1.2529">
        <ele>68.4</ele>
        <time>2020-07-03T08:39:13Z</time>
      </trkpt>
      <trkpt lat="47.51221" lon="1.25285">
        <ele>68.3</ele>
        <time>2020-07-03T08:39:14Z</time>
      </trkpt>
      <trkpt lat="47.51214" lon="1.2528">
        <ele>68.3</ele>
        <time>2020-07-03T08:39:15Z</time>
      </trkpt>
      <trkpt lat="47.51208" lon="1.25275">
        <ele>68.2</ele>
        <time>2020-07-03T08:39:16Z</time>
      </trkpt>
      <trkpt lat="47.51201" lon="1.2527">
        <ele>68.1</ele>
        <time>2020-07-03T08:39:17Z</time>
      </trkpt>
      <trkpt lat="47.51195" lon="1.25266">
        <ele>68.1</ele>
        <time>2020-07-03T08:39:18Z</time>
      </trkpt>
      <trkpt lat="47.51188" lon="1.25262">
        <ele>68.1</ele>
        <time>2020-07-03T08:39:19Z</time>
      </trkpt>
      <trkpt lat="47.51182" lon="1.2526">
        <ele>68.1</ele>
        <time>2020-07-03T08:39:20Z</time>
      </trkpt>
      <trkpt lat="47.51175" lon="1.25258">
        <ele>68.2</ele>
        <time>2020-07-03T08:39:21Z</time>
      </trkpt>
      <trkpt lat="47.51168" lon="1.25255">
        <ele>68.2</ele>
        <time>2020-07-03T08:39:22Z</time>
      </trkpt>
      <trkpt lat="47.51161" lon="1.25253">
        <ele>68.3</ele>
        <time>2020-07-03T08:39:23Z</time>
      </trkpt>
      <trkpt lat="47.51154" lon="1.25251">
        <ele>68.3</ele>
        <time>2020-07-03T08:39:24Z</time>
      </trkpt>
      <trkpt lat="47.51148" lon="1.25249">
        <ele>68.3</ele>
        <time>2020-07-03T08:39:25Z</time>
      </trkpt>
      <trkpt lat="47.51141" lon="1.25247">
        <ele>68.3</ele>
        <time>2020-07-03T08:39:26Z</time>
      </trkpt>
      <trkpt lat="47.51134" lon="1.25245">
        <ele>68.3</ele>
        <time>2020-07-03T08:39:27Z</time>
      </trkpt>
      <trkpt lat="47.51127" lon="1.25243">
        <ele>68.3</ele>
        <time>2020-07-03T08:39:28Z</time>
      </trkpt>
      <trkpt lat="47.5112" lon="1.25242">
        <ele>68.3</ele>
        <time>2020-07-03T08:39:29Z</time>
      </trkpt>
      <trkpt lat="47.51113" lon="1.2524">
        <ele>68.3</ele>
        <time>2020-07-03T08:39:30Z</time>
      </trkpt>
      <trkpt lat="47.51107" lon="1.25238">
        <ele>68.3</ele>
        <time>2020-07-03T08:39:31Z</time>
      </trkpt>
      <trkpt lat="47.511" lon="1.25236">
        <ele>68.3</ele>
        <time>2020-07-03T08:39:32Z</time>
      </trkpt>
      <trkpt lat="47.51093" lon="1.25234">
        <ele>68.3</ele>
        <time>2020-07-03T08:39:33Z</time>
      </trkpt>
      <trkpt lat="47.51086" lon="1.25232">
        <ele>68.3</ele>
        <time>2020-07-03T08:39:34Z</time>
      </trkpt>
      <trkpt lat="47.5108" lon="1.2523">
        <ele>68.2</ele>
        <time>2020-07-03T08:39:35Z</time>
      </trkpt>
      <trkpt lat="47.51073" lon="1.25227">
        <ele>68.2</ele>
        <time>2020-07-03T08:39:36Z</time>
      </trkpt>
      <trkpt lat="47.51067" lon="1.25225">
        <ele>68.2</ele>
        <time>2020-07-03T08:39:37Z</time>
      </trkpt>
      <trkpt lat="47.5106" lon="1.25222">
        <ele>68.2</ele>
        <time>2020-07-03T08:39:38Z</time>
      </trkpt>
      <trkpt lat="47.51054" lon="1.2522">
        <ele>68.1</ele>
        <time>2020-07-03T08:39:39Z</time>
      </trkpt>
      <trkpt lat="47.51047" lon="1.25218">
        <ele>68.1</ele>
        <time>2020-07-03T08:39:40Z</time>
      </trkpt>
      <trkpt lat="47.5104" lon="1.25216">
        <ele>68.1</ele>
        <time>2020-07-03T08:39:41Z</time>
      </trkpt>
      <trkpt lat="47.51034" lon="1.25215">
        <ele>68</ele>
        <time>2020-07-03T08:39:42Z</time>
      </trkpt>
      <trkpt lat="47.51027" lon="1.25213">
        <ele>68</ele>
        <time>2020-07-03T08:39:43Z</time>
      </trkpt>
      <trkpt lat="47.51021" lon="1.25212">
        <ele>68</ele>
        <time>2020-07-03T08:39:44Z</time>
      </trkpt>
      <trkpt lat="47.51014" lon="1.25211">
        <ele>68</ele>
        <time>2020-07-03T08:39:45Z</time>
      </trkpt>
      <trkpt lat="47.51007" lon="1.25209">
        <ele>68</ele>
        <time>2020-07-03T08:39:46Z</time>
      </trkpt>
      <trkpt lat="47.51" lon="1.25207">
        <ele>68</ele>
        <time>2020-07-03T08:39:47Z</time>
      </trkpt>
      <trkpt lat="47.50994" lon="1.25205">
        <ele>68</ele>
        <time>2020-07-03T08:39:48Z</time>
      </trkpt>
      <trkpt lat="47.50987" lon="1.25203">
        <ele>67.9</ele>
        <time>2020-07-03T08:39:49Z</time>
      </trkpt>
      <trkpt lat="47.5098" lon="1.25201">
        <ele>67.8</ele>
        <time>2020-07-03T08:39:50Z</time>
      </trkpt>
      <trkpt lat="47.50973" lon="1.25199">
        <ele>67.8</ele>
        <time>2020-07-03T08:39:51Z</time>
      </trkpt>
      <trkpt lat="47.50966" lon="1.25197">
        <ele>67.7</ele>
        <time>2020-07-03T08:39:52Z</time>
      </trkpt>
      <trkpt lat="47.50959" lon="1.25193">
        <ele>67.5</ele>
        <time>2020-07-03T08:39:53Z</time>
      </trkpt>
      <trkpt lat="47.50952" lon="1.25191">
        <ele>67.4</ele>
        <time>2020-07-03T08:39:54Z</time>
      </trkpt>
      <trkpt lat="47.50945" lon="1.25189">
        <ele>67.3</ele>
        <time>2020-07-03T08:39:55Z</time>
      </trkpt>
      <trkpt lat="47.50938" lon="1.25186">
        <ele>67.2</ele>
        <time>2020-07-03T08:39:56Z</time>
      </trkpt>
      <trkpt lat="47.50931" lon="1.25183">
        <ele>67.1</ele>
        <time>2020-07-03T08:39:57Z</time>
      </trkpt>
      <trkpt lat="47.50924" lon="1.25181">
        <ele>67.1</ele>
        <time>2020-07-03T08:39:58Z</time>
      </trkpt>
      <trkpt lat="47.50917" lon="1.25179">
        <ele>67.1</ele>
        <time>2020-07-03T08:39:59Z</time>
      </trkpt>
      <trkpt lat="47.5091" lon="1.25177">
        <ele>67.1</ele>
        <time>2020-07-03T08:40:00Z</time>
      </trkpt>
      <trkpt lat="47.50903" lon="1.25175">
        <ele>67.1</ele>
        <time>2020-07-03T08:40:01Z</time>
      </trkpt>
      <trkpt lat="47.50896" lon="1.25173">
        <ele>67.1</ele>
        <time>2020-07-03T08:40:02Z</time>
      </trkpt>
      <trkpt lat="47.50889" lon="1.2517">
        <ele>67.1</ele>
        <time>2020-07-03T08:40:03Z</time>
      </trkpt>
      <trkpt lat="47.50882" lon="1.25169">
        <ele>67.1</ele>
        <time>2020-07-03T08:40:04Z</time>
      </trkpt>
      <trkpt lat="47.50875" lon="1.25167">
        <ele>67.1</ele>
        <time>2020-07-03T08:40:05Z</time>
      </trkpt>
      <trkpt lat="47.50868" lon="1.25165">
        <ele>67.1</ele>
        <time>2020-07-03T08:40:06Z</time>
      </trkpt>
      <trkpt lat="47.50861" lon="1.25163">
        <ele>67.1</ele>
        <time>2020-07-03T08:40:07Z</time>
      </trkpt>
      <trkpt lat="47.50854" lon="1.2516">
        <ele>67</ele>
        <time>2020-07-03T08:40:08Z</time>
      </trkpt>
      <trkpt lat="47.50847" lon="1.25158">
        <ele>67</ele>
        <time>2020-07-03T08:40:09Z</time>
      </trkpt>
      <trkpt lat="47.50841" lon="1.25157">
        <ele>67</ele>
        <time>2020-07-03T08:40:10Z</time>
      </trkpt>
      <trkpt lat="47.50834" lon="1.25156">
        <ele>67.1</ele>
        <time>2020-07-03T08:40:11Z</time>
      </trkpt>
      <trkpt lat="47.50827" lon="1.25155">
        <ele>67.1</ele>
        <time>2020-07-03T08:40:12Z</time>
      </trkpt>
      <trkpt lat="47.50821" lon="1.25154">
        <ele>67.2</ele>
        <time>2020-07-03T08:40:13Z</time>
      </trkpt>
      <trkpt lat="47.50814" lon="1.25153">
        <ele>67.3</ele>
        <time>2020-07-03T08:40:14Z</time>
      </trkpt>
      <trkpt lat="47.50808" lon="1.25152">
        <ele>67.4</ele>
        <time>2020-07-03T08:40:15Z</time>
      </trkpt>
      <trkpt lat="47.50801" lon="1.25151">
        <ele>67.8</ele>
        <time>2020-07-03T08:40:16Z</time>
      </trkpt>
      <trkpt lat="47.50794" lon="1.2515">
        <ele>68</ele>
        <time>2020-07-03T08:40:17Z</time>
      </trkpt>
      <trkpt lat="47.50788" lon="1.25149">
        <ele>68.2</ele>
        <time>2020-07-03T08:40:18Z</time>
      </trkpt>
      <trkpt lat="47.50782" lon="1.25148">
        <ele>68.2</ele>
        <time>2020-07-03T08:40:19Z</time>
      </trkpt>
      <trkpt lat="47.50775" lon="1.25147">
        <ele>68.2</ele>
        <time>2020-07-03T08:40:20Z</time>
      </trkpt>
      <trkpt lat="47.50769" lon="1.25147">
        <ele>68.2</ele>
        <time>2020-07-03T08:40:21Z</time>
      </trkpt>
      <trkpt lat="47.50762" lon="1.25146">
        <ele>68.2</ele>
        <time>2020-07-03T08:40:22Z</time>
      </trkpt>
      <trkpt lat="47.50757" lon="1.25146">
        <ele>68.2</ele>
        <time>2020-07-03T08:40:23Z</time>
      </trkpt>
      <trkpt lat="47.50751" lon="1.25145">
        <ele>68.2</ele>
        <time>2020-07-03T08:40:24Z</time>
      </trkpt>
      <trkpt lat="47.50745" lon="1.25144">
        <ele>68.2</ele>
        <time>2020-07-03T08:40:25Z</time>
      </trkpt>
      <trkpt lat="47.50739" lon="1.25143">
        <ele>68.2</ele>
        <time>2020-07-03T08:40:26Z</time>
      </trkpt>
      <trkpt lat="47.50734" lon="1.25141">
        <ele>68.1</ele>
        <time>2020-07-03T08:40:27Z</time>
      </trkpt>
      <trkpt lat="47.50728" lon="1.2514">
        <ele>68.1</ele>
        <time>2020-07-03T08:40:28Z</time>
      </trkpt>
      <trkpt lat="47.50721" lon="1.25139">
        <ele>68.1</ele>
        <time>2020-07-03T08:40:29Z</time>
      </trkpt>
      <trkpt lat="47.50715" lon="1.25139">
        <ele>68.1</ele>
        <time>2020-07-03T08:40:30Z</time>
      </trkpt>
      <trkpt lat="47.50708" lon="1.25138">
        <ele>68</ele>
        <time>2020-07-03T08:40:31Z</time>
      </trkpt>
      <trkpt lat="47.50701" lon="1.25137">
        <ele>68</ele>
        <time>2020-07-03T08:40:32Z</time>
      </trkpt>
      <trkpt lat="47.50695" lon="1.25135">
        <ele>68</ele>
        <time>2020-07-03T08:40:33Z</time>
      </trkpt>
      <trkpt lat="47.50689" lon="1.25132">
        <ele>68</ele>
        <time>2020-07-03T08:40:34Z</time>
      </trkpt>
      <trkpt lat="47.50683" lon="1.2513">
        <ele>68</ele>
        <time>2020-07-03T08:40:35Z</time>
      </trkpt>
      <trkpt lat="47.50676" lon="1.25129">
        <ele>68</ele>
        <time>2020-07-03T08:40:36Z</time>
      </trkpt>
      <trkpt lat="47.5067" lon="1.25127">
        <ele>67.9</ele>
        <time>2020-07-03T08:40:37Z</time>
      </trkpt>
      <trkpt lat="47.50663" lon="1.25125">
        <ele>67.9</ele>
        <time>2020-07-03T08:40:38Z</time>
      </trkpt>
      <trkpt lat="47.50656" lon="1.25124">
        <ele>67.9</ele>
        <time>2020-07-03T08:40:39Z</time>
      </trkpt>
      <trkpt lat="47.5065" lon="1.25122">
        <ele>67.8</ele>
        <time>2020-07-03T08:40:40Z</time>
      </trkpt>
      <trkpt lat="47.50644" lon="1.2512">
        <ele>67.8</ele>
        <time>2020-07-03T08:40:41Z</time>
      </trkpt>
      <trkpt lat="47.50637" lon="1.25118">
        <ele>67.8</ele>
        <time>2020-07-03T08:40:42Z</time>
      </trkpt>
      <trkpt lat="47.50631" lon="1.25116">
        <ele>67.8</ele>
        <time>2020-07-03T08:40:43Z</time>
      </trkpt>
      <trkpt lat="47.50625" lon="1.25114">
        <ele>67.7</ele>
        <time>2020-07-03T08:40:44Z</time>
      </trkpt>
      <trkpt lat="47.50621" lon="1.25112">
        <ele>67.7</ele>
        <time>2020-07-03T08:40:45Z</time>
      </trkpt>
      <trkpt lat="47.50616" lon="1.2511">
        <ele>67.7</ele>
        <time>2020-07-03T08:40:46Z</time>
      </trkpt>
      <trkpt lat="47.5061" lon="1.25107">
        <ele>67.7</ele>
        <time>2020-07-03T08:40:47Z</time>
      </trkpt>
      <trkpt lat="47.50604" lon="1.25104">
        <ele>67.6</ele>
        <time>2020-07-03T08:40:48Z</time>
      </trkpt>
      <trkpt lat="47.50598" lon="1.25101">
        <ele>67.6</ele>
        <time>2020-07-03T08:40:49Z</time>
      </trkpt>
      <trkpt lat="47.50592" lon="1.25099">
        <ele>67.5</ele>
        <time>2020-07-03T08:40:50Z</time>
      </trkpt>
      <trkpt lat="47.50586" lon="1.25098">
        <ele>67.5</ele>
        <time>2020-07-03T08:40:51Z</time>
      </trkpt>
      <trkpt lat="47.5058" lon="1.25096">
        <ele>67.4</ele>
        <time>2020-07-03T08:40:52Z</time>
      </trkpt>
      <trkpt lat="47.50574" lon="1.25093">
        <ele>67.4</ele>
        <time>2020-07-03T08:40:53Z</time>
      </trkpt>
      <trkpt lat="47.50569" lon="1.25089">
        <ele>67.3</ele>
        <time>2020-07-03T08:40:54Z</time>
      </trkpt>
      <trkpt lat="47.50562" lon="1.25087">
        <ele>67.3</ele>
        <time>2020-07-03T08:40:55Z</time>
      </trkpt>
      <trkpt lat="47.50556" lon="1.25085">
        <ele>67.3</ele>
        <time>2020-07-03T08:40:56Z</time>
      </trkpt>
      <trkpt lat="47.50549" lon="1.25083">
        <ele>67.3</ele>
        <time>2020-07-03T08:40:57Z</time>
      </trkpt>
      <trkpt lat="47.50543" lon="1.2508">
        <ele>67.2</ele>
        <time>2020-07-03T08:40:58Z</time>
      </trkpt>
      <trkpt lat="47.50536" lon="1.25078">
        <ele>67.2</ele>
        <time>2020-07-03T08:40:59Z</time>
      </trkpt>
      <trkpt lat="47.5053" lon="1.25077">
        <ele>67.2</ele>
        <time>2020-07-03T08:41:00Z</time>
      </trkpt>
      <trkpt lat="47.50523" lon="1.25074">
        <ele>67.2</ele>
        <time>2020-07-03T08:41:01Z</time>
      </trkpt>
      <trkpt lat="47.50518" lon="1.25072">
        <ele>67.1</ele>
        <time>2020-07-03T08:41:02Z</time>
      </trkpt>
      <trkpt lat="47.50511" lon="1.25069">
        <ele>67.1</ele>
        <time>2020-07-03T08:41:03Z</time>
      </trkpt>
      <trkpt lat="47.50505" lon="1.25066">
        <ele>67.1</ele>
        <time>2020-07-03T08:41:04Z</time>
      </trkpt>
      <trkpt lat="47.50498" lon="1.25064">
        <ele>67</ele>
        <time>2020-07-03T08:41:05Z</time>
      </trkpt>
      <trkpt lat="47.50492" lon="1.25062">
        <ele>67</ele>
        <time>2020-07-03T08:41:06Z</time>
      </trkpt>
      <trkpt lat="47.50485" lon="1.2506">
        <ele>66.9</ele>
        <time>2020-07-03T08:41:07Z</time>
      </trkpt>
      <trkpt lat="47.50479" lon="1.25058">
        <ele>66.8</ele>
        <time>2020-07-03T08:41:08Z</time>
      </trkpt>
      <trkpt lat="47.50474" lon="1.25056">
        <ele>66.7</ele>
        <time>2020-07-03T08:41:09Z</time>
      </trkpt>
      <trkpt lat="47.50468" lon="1.25054">
        <ele>66.7</ele>
        <time>2020-07-03T08:41:10Z</time>
      </trkpt>
      <trkpt lat="47.50461" lon="1.25051">
        <ele>66.6</ele>
        <time>2020-07-03T08:41:11Z</time>
      </trkpt>
      <trkpt lat="47.50454" lon="1.25048">
        <ele>66.6</ele>
        <time>2020-07-03T08:41:12Z</time>
      </trkpt>
      <trkpt lat="47.50448" lon="1.25045">
        <ele>66.6</ele>
        <time>2020-07-03T08:41:13Z</time>
      </trkpt>
      <trkpt lat="47.50441" lon="1.25043">
        <ele>66.5</ele>
        <time>2020-07-03T08:41:14Z</time>
      </trkpt>
      <trkpt lat="47.50434" lon="1.2504">
        <ele>66.5</ele>
        <time>2020-07-03T08:41:15Z</time>
      </trkpt>
      <trkpt lat="47.50427" lon="1.25039">
        <ele>66.4</ele>
        <time>2020-07-03T08:41:16Z</time>
      </trkpt>
      <trkpt lat="47.5042" lon="1.25039">
        <ele>66.4</ele>
        <time>2020-07-03T08:41:17Z</time>
      </trkpt>
      <trkpt lat="47.50413" lon="1.25039">
        <ele>66.3</ele>
        <time>2020-07-03T08:41:18Z</time>
      </trkpt>
      <trkpt lat="47.50406" lon="1.2504">
        <ele>66.3</ele>
        <time>2020-07-03T08:41:19Z</time>
      </trkpt>
      <trkpt lat="47.504" lon="1.25042">
        <ele>66.2</ele>
        <time>2020-07-03T08:41:20Z</time>
      </trkpt>
      <trkpt lat="47.50393" lon="1.25045">
        <ele>66.2</ele>
        <time>2020-07-03T08:41:21Z</time>
      </trkpt>
      <trkpt lat="47.50386" lon="1.25047">
        <ele>66.2</ele>
        <time>2020-07-03T08:41:22Z</time>
      </trkpt>
      <trkpt lat="47.50379" lon="1.2505">
        <ele>66.1</ele>
        <time>2020-07-03T08:41:23Z</time>
      </trkpt>
      <trkpt lat="47.50372" lon="1.25053">
        <ele>66.1</ele>
        <time>2020-07-03T08:41:24Z</time>
      </trkpt>
      <trkpt lat="47.50366" lon="1.25057">
        <ele>66.1</ele>
        <time>2020-07-03T08:41:25Z</time>
      </trkpt>
      <trkpt lat="47.50359" lon="1.25062">
        <ele>66.1</ele>
        <time>2020-07-03T08:41:26Z</time>
      </trkpt>
      <trkpt lat="47.50353" lon="1.25067">
        <ele>66</ele>
        <time>2020-07-03T08:41:27Z</time>
      </trkpt>
      <trkpt lat="47.50348" lon="1.25073">
        <ele>66</ele>
        <time>2020-07-03T08:41:28Z</time>
      </trkpt>
      <trkpt lat="47.50342" lon="1.25079">
        <ele>66</ele>
        <time>2020-07-03T08:41:29Z</time>
      </trkpt>
      <trkpt lat="47.50337" lon="1.25086">
        <ele>66</ele>
        <time>2020-07-03T08:41:30Z</time>
      </trkpt>
      <trkpt lat="47.50332" lon="1.25093">
        <ele>66</ele>
        <time>2020-07-03T08:41:31Z</time>
      </trkpt>
      <trkpt lat="47.50327" lon="1.251">
        <ele>66</ele>
        <time>2020-07-03T08:41:32Z</time>
      </trkpt>
      <trkpt lat="47.50322" lon="1.25107">
        <ele>66</ele>
        <time>2020-07-03T08:41:33Z</time>
      </trkpt>
      <trkpt lat="47.50317" lon="1.25115">
        <ele>65.9</ele>
        <time>2020-07-03T08:41:34Z</time>
      </trkpt>
      <trkpt lat="47.50313" lon="1.25122">
        <ele>65.9</ele>
        <time>2020-07-03T08:41:35Z</time>
      </trkpt>
      <trkpt lat="47.50308" lon="1.25129">
        <ele>65.9</ele>
        <time>2020-07-03T08:41:36Z</time>
      </trkpt>
      <trkpt lat="47.50303" lon="1.25136">
        <ele>65.9</ele>
        <time>2020-07-03T08:41:37Z</time>
      </trkpt>
      <trkpt lat="47.50297" lon="1.25142">
        <ele>65.8</ele>
        <time>2020-07-03T08:41:38Z</time>
      </trkpt>
      <trkpt lat="47.5029" lon="1.25146">
        <ele>65.7</ele>
        <time>2020-07-03T08:41:39Z</time>
      </trkpt>
      <trkpt lat="47.50283" lon="1.25149">
        <ele>65.7</ele>
        <time>2020-07-03T08:41:40Z</time>
      </trkpt>
      <trkpt lat="47.50276" lon="1.25149">
        <ele>65.6</ele>
        <time>2020-07-03T08:41:41Z</time>
      </trkpt>
      <trkpt lat="47.50268" lon="1.25147">
        <ele>65.5</ele>
        <time>2020-07-03T08:41:42Z</time>
      </trkpt>
      <trkpt lat="47.50262" lon="1.25144">
        <ele>65.4</ele>
        <time>2020-07-03T08:41:43Z</time>
      </trkpt>
      <trkpt lat="47.50256" lon="1.25138">
        <ele>65.4</ele>
        <time>2020-07-03T08:41:44Z</time>
      </trkpt>
      <trkpt lat="47.5025" lon="1.25133">
        <ele>65.3</ele>
        <time>2020-07-03T08:41:45Z</time>
      </trkpt>
      <trkpt lat="47.50244" lon="1.25128">
        <ele>65.2</ele>
        <time>2020-07-03T08:41:46Z</time>
      </trkpt>
      <trkpt lat="47.50238" lon="1.25123">
        <ele>65.2</ele>
        <time>2020-07-03T08:41:47Z</time>
      </trkpt>
      <trkpt lat="47.50233" lon="1.25117">
        <ele>65.1</ele>
        <time>2020-07-03T08:41:48Z</time>
      </trkpt>
      <trkpt lat="47.50227" lon="1.25111">
        <ele>65.1</ele>
        <time>2020-07-03T08:41:49Z</time>
      </trkpt>
      <trkpt lat="47.50222" lon="1.25105">
        <ele>65</ele>
        <time>2020-07-03T08:41:50Z</time>
      </trkpt>
      <trkpt lat="47.50216" lon="1.251">
        <ele>65</ele>
        <time>2020-07-03T08:41:51Z</time>
      </trkpt>
      <trkpt lat="47.5021" lon="1.25094">
        <ele>65</ele>
        <time>2020-07-03T08:41:52Z</time>
      </trkpt>
      <trkpt lat="47.50204" lon="1.25089">
        <ele>65</ele>
        <time>2020-07-03T08:41:53Z</time>
      </trkpt>
      <trkpt lat="47.50199" lon="1.25084">
        <ele>65</ele>
        <time>2020-07-03T08:41:54Z</time>
      </trkpt>
      <trkpt lat="47.50194" lon="1.25078">
        <ele>65</ele>
        <time>2020-07-03T08:41:55Z</time>
      </trkpt>
      <trkpt lat="47.50188" lon="1.25073">
        <ele>65</ele>
        <time>2020-07-03T08:41:56Z</time>
      </trkpt>
      <trkpt lat="47.50182" lon="1.25068">
        <ele>65</ele>
        <time>2020-07-03T08:41:57Z</time>
      </trkpt>
      <trkpt lat="47.50177" lon="1.25062">
        <ele>65</ele>
        <time>2020-07-03T08:41:58Z</time>
      </trkpt>
      <trkpt lat="47.50172" lon="1.25057">
        <ele>65</ele>
        <time>2020-07-03T08:41:59Z</time>
      </trkpt>
      <trkpt lat="47.50166" lon="1.25052">
        <ele>65</ele>
        <time>2020-07-03T08:42:00Z</time>
      </trkpt>
      <trkpt lat="47.50161" lon="1.25047">
        <ele>65.1</ele>
        <time>2020-07-03T08:42:01Z</time>
      </trkpt>
      <trkpt lat="47.50156" lon="1.25041">
        <ele>65.1</ele>
        <time>2020-07-03T08:42:02Z</time>
      </trkpt>
      <trkpt lat="47.5015" lon="1.25036">
        <ele>65.1</ele>
        <time>2020-07-03T08:42:03Z</time>
      </trkpt>
      <trkpt lat="47.50145" lon="1.25031">
        <ele>65.1</ele>
        <time>2020-07-03T08:42:04Z</time>
      </trkpt>
      <trkpt lat="47.5014" lon="1.25026">
        <ele>65.1</ele>
        <time>2020-07-03T08:42:05Z</time>
      </trkpt>
      <trkpt lat="47.50134" lon="1.25021">
        <ele>65.1</ele>
        <time>2020-07-03T08:42:06Z</time>
      </trkpt>
      <trkpt lat="47.50128" lon="1.25016">
        <ele>65.1</ele>
        <time>2020-07-03T08:42:07Z</time>
      </trkpt>
      <trkpt lat="47.50123" lon="1.25011">
        <ele>65.1</ele>
        <time>2020-07-03T08:42:08Z</time>
      </trkpt>
      <trkpt lat="47.50117" lon="1.25006">
        <ele>65.2</ele>
        <time>2020-07-03T08:42:09Z</time>
      </trkpt>
      <trkpt lat="47.50111" lon="1.25001">
        <ele>65.2</ele>
        <time>2020-07-03T08:42:10Z</time>
      </trkpt>
      <trkpt lat="47.50106" lon="1.24995">
        <ele>65.2</ele>
        <time>2020-07-03T08:42:11Z</time>
      </trkpt>
      <trkpt lat="47.50101" lon="1.2499">
        <ele>65.1</ele>
        <time>2020-07-03T08:42:12Z</time>
      </trkpt>
      <trkpt lat="47.50096" lon="1.24985">
        <ele>65.1</ele>
        <time>2020-07-03T08:42:13Z</time>
      </trkpt>
      <trkpt lat="47.5009" lon="1.24979">
        <ele>65.1</ele>
        <time>2020-07-03T08:42:14Z</time>
      </trkpt>
      <trkpt lat="47.50085" lon="1.24975">
        <ele>65</ele>
        <time>2020-07-03T08:42:15Z</time>
      </trkpt>
      <trkpt lat="47.50079" lon="1.2497">
        <ele>65</ele>
        <time>2020-07-03T08:42:16Z</time>
      </trkpt>
      <trkpt lat="47.50073" lon="1.24965">
        <ele>64.9</ele>
        <time>2020-07-03T08:42:17Z</time>
      </trkpt>
      <trkpt lat="47.50067" lon="1.2496">
        <ele>64.9</ele>
        <time>2020-07-03T08:42:18Z</time>
      </trkpt>
      <trkpt lat="47.50062" lon="1.24955">
        <ele>64.8</ele>
        <time>2020-07-03T08:42:19Z</time>
      </trkpt>
      <trkpt lat="47.50056" lon="1.2495">
        <ele>64.8</ele>
        <time>2020-07-03T08:42:20Z</time>
      </trkpt>
      <trkpt lat="47.5005" lon="1.24945">
        <ele>64.7</ele>
        <time>2020-07-03T08:42:21Z</time>
      </trkpt>
      <trkpt lat="47.50045" lon="1.24938">
        <ele>64.7</ele>
        <time>2020-07-03T08:42:22Z</time>
      </trkpt>
      <trkpt lat="47.50039" lon="1.24933">
        <ele>64.7</ele>
        <time>2020-07-03T08:42:23Z</time>
      </trkpt>
      <trkpt lat="47.50034" lon="1.24927">
        <ele>64.7</ele>
        <time>2020-07-03T08:42:24Z</time>
      </trkpt>
      <trkpt lat="47.50028" lon="1.24922">
        <ele>64.7</ele>
        <time>2020-07-03T08:42:25Z</time>
      </trkpt>
      <trkpt lat="47.50023" lon="1.24916">
        <ele>64.7</ele>
        <time>2020-07-03T08:42:26Z</time>
      </trkpt>
      <trkpt lat="47.50017" lon="1.24911">
        <ele>64.6</ele>
        <time>2020-07-03T08:42:27Z</time>
      </trkpt>
      <trkpt lat="47.50011" lon="1.24906">
        <ele>64.6</ele>
        <time>2020-07-03T08:42:28Z</time>
      </trkpt>
      <trkpt lat="47.50006" lon="1.24901">
        <ele>64.6</ele>
        <time>2020-07-03T08:42:29Z</time>
      </trkpt>
      <trkpt lat="47.5" lon="1.24897">
        <ele>64.6</ele>
        <time>2020-07-03T08:42:30Z</time>
      </trkpt>
      <trkpt lat="47.49993" lon="1.24897">
        <ele>64.6</ele>
        <time>2020-07-03T08:42:31Z</time>
      </trkpt>
      <trkpt lat="47.49986" lon="1.24898">
        <ele>64.7</ele>
        <time>2020-07-03T08:42:32Z</time>
      </trkpt>
      <trkpt lat="47.4998" lon="1.24903">
        <ele>64.7</ele>
        <time>2020-07-03T08:42:33Z</time>
      </trkpt>
      <trkpt lat="47.49975" lon="1.2491">
        <ele>64.7</ele>
        <time>2020-07-03T08:42:34Z</time>
      </trkpt>
      <trkpt lat="47.49971" lon="1.24918">
        <ele>64.7</ele>
        <time>2020-07-03T08:42:35Z</time>
      </trkpt>
      <trkpt lat="47.49967" lon="1.24927">
        <ele>64.6</ele>
        <time>2020-07-03T08:42:36Z</time>
      </trkpt>
      <trkpt lat="47.49964" lon="1.24935">
        <ele>64.6</ele>
        <time>2020-07-03T08:42:37Z</time>
      </trkpt>
      <trkpt lat="47.4996" lon="1.24944">
        <ele>64.5</ele>
        <time>2020-07-03T08:42:38Z</time>
      </trkpt>
      <trkpt lat="47.49957" lon="1.24953">
        <ele>64.5</ele>
        <time>2020-07-03T08:42:39Z</time>
      </trkpt>
      <trkpt lat="47.49954" lon="1.24962">
        <ele>64.4</ele>
        <time>2020-07-03T08:42:40Z</time>
      </trkpt>
      <trkpt lat="47.49951" lon="1.24971">
        <ele>64.4</ele>
        <time>2020-07-03T08:42:41Z</time>
      </trkpt>
      <trkpt lat="47.49948" lon="1.2498">
        <ele>64.3</ele>
        <time>2020-07-03T08:42:42Z</time>
      </trkpt>
      <trkpt lat="47.49944" lon="1.24989">
        <ele>64.3</ele>
        <time>2020-07-03T08:42:43Z</time>
      </trkpt>
      <trkpt lat="47.49941" lon="1.24998">
        <ele>64.2</ele>
        <time>2020-07-03T08:42:44Z</time>
      </trkpt>
      <trkpt lat="47.49938" lon="1.25007">
        <ele>64.2</ele>
        <time>2020-07-03T08:42:45Z</time>
      </trkpt>
      <trkpt lat="47.49935" lon="1.25016">
        <ele>64.1</ele>
        <time>2020-07-03T08:42:46Z</time>
      </trkpt>
      <trkpt lat="47.49932" lon="1.25026">
        <ele>64.1</ele>
        <time>2020-07-03T08:42:47Z</time>
      </trkpt>
      <trkpt lat="47.49928" lon="1.25035">
        <ele>64</ele>
        <time>2020-07-03T08:42:48Z</time>
      </trkpt>
      <trkpt lat="47.49924" lon="1.25044">
        <ele>64</ele>
        <time>2020-07-03T08:42:49Z</time>
      </trkpt>
      <trkpt lat="47.4992" lon="1.25052">
        <ele>64</ele>
        <time>2020-07-03T08:42:50Z</time>
      </trkpt>
      <trkpt lat="47.49917" lon="1.25062">
        <ele>63.9</ele>
        <time>2020-07-03T08:42:51Z</time>
      </trkpt>
      <trkpt lat="47.49913" lon="1.25071">
        <ele>63.9</ele>
        <time>2020-07-03T08:42:52Z</time>
      </trkpt>
      <trkpt lat="47.49909" lon="1.2508">
        <ele>63.9</ele>
        <time>2020-07-03T08:42:53Z</time>
      </trkpt>
      <trkpt lat="47.49905" lon="1.25089">
        <ele>63.9</ele>
        <time>2020-07-03T08:42:54Z</time>
      </trkpt>
      <trkpt lat="47.49902" lon="1.25098">
        <ele>63.9</ele>
        <time>2020-07-03T08:42:55Z</time>
      </trkpt>
      <trkpt lat="47.49898" lon="1.25107">
        <ele>63.9</ele>
        <time>2020-07-03T08:42:56Z</time>
      </trkpt>
      <trkpt lat="47.49895" lon="1.25116">
        <ele>63.9</ele>
        <time>2020-07-03T08:42:57Z</time>
      </trkpt>
      <trkpt lat="47.49891" lon="1.25126">
        <ele>63.9</ele>
        <time>2020-07-03T08:42:58Z</time>
      </trkpt>
      <trkpt lat="47.49887" lon="1.25135">
        <ele>63.9</ele>
        <time>2020-07-03T08:42:59Z</time>
      </trkpt>
      <trkpt lat="47.49883" lon="1.25144">
        <ele>63.8</ele>
        <time>2020-07-03T08:43:00Z</time>
      </trkpt>
      <trkpt lat="47.49879" lon="1.25153">
        <ele>63.8</ele>
        <time>2020-07-03T08:43:01Z</time>
      </trkpt>
      <trkpt lat="47.49876" lon="1.25163">
        <ele>63.7</ele>
        <time>2020-07-03T08:43:02Z</time>
      </trkpt>
      <trkpt lat="47.49872" lon="1.25172">
        <ele>63.6</ele>
        <time>2020-07-03T08:43:03Z</time>
      </trkpt>
      <trkpt lat="47.49869" lon="1.25181">
        <ele>63.6</ele>
        <time>2020-07-03T08:43:04Z</time>
      </trkpt>
      <trkpt lat="47.49864" lon="1.25191">
        <ele>63.6</ele>
        <time>2020-07-03T08:43:05Z</time>
      </trkpt>
      <trkpt lat="47.49861" lon="1.252">
        <ele>63.7</ele>
        <time>2020-07-03T08:43:06Z</time>
      </trkpt>
      <trkpt lat="47.49857" lon="1.2521">
        <ele>63.7</ele>
        <time>2020-07-03T08:43:07Z</time>
      </trkpt>
      <trkpt lat="47.49853" lon="1.25219">
        <ele>63.7</ele>
        <time>2020-07-03T08:43:08Z</time>
      </trkpt>
      <trkpt lat="47.4985" lon="1.25229">
        <ele>63.8</ele>
        <time>2020-07-03T08:43:09Z</time>
      </trkpt>
      <trkpt lat="47.49846" lon="1.25238">
        <ele>63.9</ele>
        <time>2020-07-03T08:43:10Z</time>
      </trkpt>
      <trkpt lat="47.49842" lon="1.25247">
        <ele>63.9</ele>
        <time>2020-07-03T08:43:11Z</time>
      </trkpt>
      <trkpt lat="47.49839" lon="1.25255">
        <ele>64</ele>
        <time>2020-07-03T08:43:12Z</time>
      </trkpt>
      <trkpt lat="47.49835" lon="1.25263">
        <ele>64.1</ele>
        <time>2020-07-03T08:43:13Z</time>
      </trkpt>
      <trkpt lat="47.49831" lon="1.2527">
        <ele>64.1</ele>
        <time>2020-07-03T08:43:14Z</time>
      </trkpt>
      <trkpt lat="47.49825" lon="1.25277">
        <ele>64.2</ele>
        <time>2020-07-03T08:43:15Z</time>
      </trkpt>
      <trkpt lat="47.4982" lon="1.25281">
        <ele>64.2</ele>
        <time>2020-07-03T08:43:16Z</time>
      </trkpt>
      <trkpt lat="47.49813" lon="1.25284">
        <ele>64.3</ele>
        <time>2020-07-03T08:43:17Z</time>
      </trkpt>
      <trkpt lat="47.49807" lon="1.25286">
        <ele>64.4</ele>
        <time>2020-07-03T08:43:18Z</time>
      </trkpt>
      <trkpt lat="47.49801" lon="1.25289">
        <ele>64.6</ele>
        <time>2020-07-03T08:43:19Z</time>
      </trkpt>
      <trkpt lat="47.49795" lon="1.25293">
        <ele>64.7</ele>
        <time>2020-07-03T08:43:20Z</time>
      </trkpt>
      <trkpt lat="47.4979" lon="1.25296">
        <ele>64.9</ele>
        <time>2020-07-03T08:43:21Z</time>
      </trkpt>
      <trkpt lat="47.49785" lon="1.253">
        <ele>65.1</ele>
        <time>2020-07-03T08:43:22Z</time>
      </trkpt>
      <trkpt lat="47.49782" lon="1.25305">
        <ele>65.2</ele>
        <time>2020-07-03T08:43:23Z</time>
      </trkpt>
      <trkpt lat="47.49779" lon="1.25313">
        <ele>65.3</ele>
        <time>2020-07-03T08:43:24Z</time>
      </trkpt>
      <trkpt lat="47.49776" lon="1.2532">
        <ele>65.3</ele>
        <time>2020-07-03T08:43:25Z</time>
      </trkpt>
      <trkpt lat="47.49773" lon="1.25327">
        <ele>65.3</ele>
        <time>2020-07-03T08:43:26Z</time>
      </trkpt>
      <trkpt lat="47.4977" lon="1.25334">
        <ele>65.3</ele>
        <time>2020-07-03T08:43:27Z</time>
      </trkpt>
      <trkpt lat="47.49766" lon="1.25341">
        <ele>65.3</ele>
        <time>2020-07-03T08:43:28Z</time>
      </trkpt>
      <trkpt lat="47.49762" lon="1.25347">
        <ele>65.3</ele>
        <time>2020-07-03T08:43:29Z</time>
      </trkpt>
      <trkpt lat="47.49757" lon="1.25353">
        <ele>65.3</ele>
        <time>2020-07-03T08:43:30Z</time>
      </trkpt>
      <trkpt lat="47.49751" lon="1.25358">
        <ele>65.3</ele>
        <time>2020-07-03T08:43:31Z</time>
      </trkpt>
      <trkpt lat="47.49747" lon="1.25364">
        <ele>65.3</ele>
        <time>2020-07-03T08:43:32Z</time>
      </trkpt>
      <trkpt lat="47.49743" lon="1.25369">
        <ele>65.3</ele>
        <time>2020-07-03T08:43:33Z</time>
      </trkpt>
      <trkpt lat="47.49738" lon="1.25374">
        <ele>65.4</ele>
        <time>2020-07-03T08:43:34Z</time>
      </trkpt>
      <trkpt lat="47.49732" lon="1.25378">
        <ele>65.5</ele>
        <time>2020-07-03T08:43:35Z</time>
      </trkpt>
      <trkpt lat="47.49728" lon="1.25384">
        <ele>65.6</ele>
        <time>2020-07-03T08:43:36Z</time>
      </trkpt>
      <trkpt lat="47.49723" lon="1.25391">
        <ele>65.7</ele>
        <time>2020-07-03T08:43:37Z</time>
      </trkpt>
      <trkpt lat="47.49718" lon="1.25396">
        <ele>65.8</ele>
        <time>2020-07-03T08:43:38Z</time>
      </trkpt>
      <trkpt lat="47.49713" lon="1.25402">
        <ele>66</ele>
        <time>2020-07-03T08:43:39Z</time>
      </trkpt>
      <trkpt lat="47.49709" lon="1.25408">
        <ele>66.1</ele>
        <time>2020-07-03T08:43:40Z</time>
      </trkpt>
      <trkpt lat="47.49706" lon="1.25416">
        <ele>66.2</ele>
        <time>2020-07-03T08:43:41Z</time>
      </trkpt>
      <trkpt lat="47.49702" lon="1.25422">
        <ele>66.3</ele>
        <time>2020-07-03T08:43:42Z</time>
      </trkpt>
      <trkpt lat="47.49697" lon="1.25427">
        <ele>66.5</ele>
        <time>2020-07-03T08:43:43Z</time>
      </trkpt>
      <trkpt lat="47.49693" lon="1.25433">
        <ele>66.6</ele>
        <time>2020-07-03T08:43:44Z</time>
      </trkpt>
      <trkpt lat="47.49689" lon="1.25439">
        <ele>66.7</ele>
        <time>2020-07-03T08:43:45Z</time>
      </trkpt>
      <trkpt lat="47.49686" lon="1.25446">
        <ele>66.9</ele>
        <time>2020-07-03T08:43:46Z</time>
      </trkpt>
      <trkpt lat="47.49682" lon="1.25453">
        <ele>67.1</ele>
        <time>2020-07-03T08:43:47Z</time>
      </trkpt>
      <trkpt lat="47.49678" lon="1.25459">
        <ele>67.3</ele>
        <time>2020-07-03T08:43:48Z</time>
      </trkpt>
      <trkpt lat="47.49674" lon="1.25466">
        <ele>67.5</ele>
        <time>2020-07-03T08:43:49Z</time>
      </trkpt>
      <trkpt lat="47.4967" lon="1.25472">
        <ele>67.7</ele>
        <time>2020-07-03T08:43:50Z</time>
      </trkpt>
      <trkpt lat="47.49666" lon="1.25478">
        <ele>67.9</ele>
        <time>2020-07-03T08:43:51Z</time>
      </trkpt>
      <trkpt lat="47.49662" lon="1.25484">
        <ele>68.1</ele>
        <time>2020-07-03T08:43:52Z</time>
      </trkpt>
      <trkpt lat="47.49658" lon="1.25488">
        <ele>68.4</ele>
        <time>2020-07-03T08:43:53Z</time>
      </trkpt>
      <trkpt lat="47.49655" lon="1.25494">
        <ele>68.6</ele>
        <time>2020-07-03T08:43:54Z</time>
      </trkpt>
      <trkpt lat="47.49651" lon="1.25499">
        <ele>68.8</ele>
        <time>2020-07-03T08:43:55Z</time>
      </trkpt>
      <trkpt lat="47.49648" lon="1.25504">
        <ele>68.8</ele>
        <time>2020-07-03T08:43:56Z</time>
      </trkpt>
      <trkpt lat="47.49644" lon="1.25508">
        <ele>68.8</ele>
        <time>2020-07-03T08:43:57Z</time>
      </trkpt>
      <trkpt lat="47.49639" lon="1.25512">
        <ele>68.7</ele>
        <time>2020-07-03T08:43:58Z</time>
      </trkpt>
      <trkpt lat="47.49633" lon="1.25516">
        <ele>68.7</ele>
        <time>2020-07-03T08:43:59Z</time>
      </trkpt>
      <trkpt lat="47.49629" lon="1.25522">
        <ele>68.6</ele>
        <time>2020-07-03T08:44:00Z</time>
      </trkpt>
      <trkpt lat="47.49624" lon="1.25528">
        <ele>68.6</ele>
        <time>2020-07-03T08:44:01Z</time>
      </trkpt>
      <trkpt lat="47.49619" lon="1.25533">
        <ele>68.5</ele>
        <time>2020-07-03T08:44:02Z</time>
      </trkpt>
      <trkpt lat="47.49614" lon="1.25538">
        <ele>68.5</ele>
        <time>2020-07-03T08:44:03Z</time>
      </trkpt>
      <trkpt lat="47.49608" lon="1.25543">
        <ele>68.4</ele>
        <time>2020-07-03T08:44:04Z</time>
      </trkpt>
      <trkpt lat="47.49603" lon="1.25549">
        <ele>68.4</ele>
        <time>2020-07-03T08:44:05Z</time>
      </trkpt>
      <trkpt lat="47.49599" lon="1.25554">
        <ele>68.4</ele>
        <time>2020-07-03T08:44:06Z</time>
      </trkpt>
      <trkpt lat="47.49593" lon="1.2556">
        <ele>68.4</ele>
        <time>2020-07-03T08:44:07Z</time>
      </trkpt>
      <trkpt lat="47.49589" lon="1.25567">
        <ele>68.4</ele>
        <time>2020-07-03T08:44:08Z</time>
      </trkpt>
      <trkpt lat="47.49584" lon="1.25573">
        <ele>68.4</ele>
        <time>2020-07-03T08:44:09Z</time>
      </trkpt>
      <trkpt lat="47.49578" lon="1.2558">
        <ele>68.4</ele>
        <time>2020-07-03T08:44:10Z</time>
      </trkpt>
      <trkpt lat="47.49573" lon="1.25587">
        <ele>68.4</ele>
        <time>2020-07-03T08:44:11Z</time>
      </trkpt>
      <trkpt lat="47.49568" lon="1.25593">
        <ele>68.4</ele>
        <time>2020-07-03T08:44:12Z</time>
      </trkpt>
      <trkpt lat="47.49563" lon="1.256">
        <ele>68.4</ele>
        <time>2020-07-03T08:44:13Z</time>
      </trkpt>
      <trkpt lat="47.49557" lon="1.25607">
        <ele>68.4</ele>
        <time>2020-07-03T08:44:14Z</time>
      </trkpt>
      <trkpt lat="47.49553" lon="1.25614">
        <ele>68.4</ele>
        <time>2020-07-03T08:44:15Z</time>
      </trkpt>
      <trkpt lat="47.49547" lon="1.25621">
        <ele>68.4</ele>
        <time>2020-07-03T08:44:16Z</time>
      </trkpt>
      <trkpt lat="47.49542" lon="1.25628">
        <ele>68.4</ele>
        <time>2020-07-03T08:44:17Z</time>
      </trkpt>
      <trkpt lat="47.49536" lon="1.25634">
        <ele>68.4</ele>
        <time>2020-07-03T08:44:18Z</time>
      </trkpt>
      <trkpt lat="47.4953" lon="1.25641">
        <ele>68.4</ele>
        <time>2020-07-03T08:44:19Z</time>
      </trkpt>
      <trkpt lat="47.49524" lon="1.25648">
        <ele>68.3</ele>
        <time>2020-07-03T08:44:20Z</time>
      </trkpt>
      <trkpt lat="47.49517" lon="1.25655">
        <ele>68.3</ele>
        <time>2020-07-03T08:44:21Z</time>
      </trkpt>
      <trkpt lat="47.49512" lon="1.25662">
        <ele>68.3</ele>
        <time>2020-07-03T08:44:22Z</time>
      </trkpt>
      <trkpt lat="47.49507" lon="1.25668">
        <ele>68.3</ele>
        <time>2020-07-03T08:44:23Z</time>
      </trkpt>
      <trkpt lat="47.49502" lon="1.25675">
        <ele>68.3</ele>
        <time>2020-07-03T08:44:24Z</time>
      </trkpt>
      <trkpt lat="47.49497" lon="1.25681">
        <ele>68.4</ele>
        <time>2020-07-03T08:44:25Z</time>
      </trkpt>
      <trkpt lat="47.49493" lon="1.25689">
        <ele>68.4</ele>
        <time>2020-07-03T08:44:26Z</time>
      </trkpt>
      <trkpt lat="47.49489" lon="1.25697">
        <ele>68.4</ele>
        <time>2020-07-03T08:44:27Z</time>
      </trkpt>
      <trkpt lat="47.49486" lon="1.25706">
        <ele>68.4</ele>
        <time>2020-07-03T08:44:28Z</time>
      </trkpt>
      <trkpt lat="47.49482" lon="1.25715">
        <ele>68.4</ele>
        <time>2020-07-03T08:44:29Z</time>
      </trkpt>
      <trkpt lat="47.49479" lon="1.25724">
        <ele>68.5</ele>
        <time>2020-07-03T08:44:30Z</time>
      </trkpt>
      <trkpt lat="47.49478" lon="1.25734">
        <ele>68.5</ele>
        <time>2020-07-03T08:44:31Z</time>
      </trkpt>
      <trkpt lat="47.49477" lon="1.25744">
        <ele>68.5</ele>
        <time>2020-07-03T08:44:32Z</time>
      </trkpt>
      <trkpt lat="47.49476" lon="1.25753">
        <ele>68.5</ele>
        <time>2020-07-03T08:44:33Z</time>
      </trkpt>
      <trkpt lat="47.49475" lon="1.25762">
        <ele>68.5</ele>
        <time>2020-07-03T08:44:34Z</time>
      </trkpt>
      <trkpt lat="47.49472" lon="1.25772">
        <ele>68.5</ele>
        <time>2020-07-03T08:44:35Z</time>
      </trkpt>
      <trkpt lat="47.4947" lon="1.25781">
        <ele>68.4</ele>
        <time>2020-07-03T08:44:36Z</time>
      </trkpt>
      <trkpt lat="47.49469" lon="1.2579">
        <ele>68.4</ele>
        <time>2020-07-03T08:44:37Z</time>
      </trkpt>
      <trkpt lat="47.49467" lon="1.25799">
        <ele>68.4</ele>
        <time>2020-07-03T08:44:38Z</time>
      </trkpt>
      <trkpt lat="47.49466" lon="1.25809">
        <ele>68.4</ele>
        <time>2020-07-03T08:44:39Z</time>
      </trkpt>
      <trkpt lat="47.49465" lon="1.25819">
        <ele>68.4</ele>
        <time>2020-07-03T08:44:40Z</time>
      </trkpt>
      <trkpt lat="47.49465" lon="1.25828">
        <ele>68.4</ele>
        <time>2020-07-03T08:44:41Z</time>
      </trkpt>
      <trkpt lat="47.49465" lon="1.25838">
        <ele>68.4</ele>
        <time>2020-07-03T08:44:42Z</time>
      </trkpt>
      <trkpt lat="47.49464" lon="1.25848">
        <ele>68.4</ele>
        <time>2020-07-03T08:44:43Z</time>
      </trkpt>
      <trkpt lat="47.49464" lon="1.25858">
        <ele>68.4</ele>
        <time>2020-07-03T08:44:44Z</time>
      </trkpt>
      <trkpt lat="47.49464" lon="1.25869">
        <ele>68.4</ele>
        <time>2020-07-03T08:44:45Z</time>
      </trkpt>
      <trkpt lat="47.49464" lon="1.25879">
        <ele>68.4</ele>
        <time>2020-07-03T08:44:46Z</time>
      </trkpt>
      <trkpt lat="47.49464" lon="1.25889">
        <ele>68.3</ele>
        <time>2020-07-03T08:44:47Z</time>
      </trkpt>
      <trkpt lat="47.49464" lon="1.25898">
        <ele>68.2</ele>
        <time>2020-07-03T08:44:48Z</time>
      </trkpt>
      <trkpt lat="47.49464" lon="1.25908">
        <ele>68</ele>
        <time>2020-07-03T08:44:49Z</time>
      </trkpt>
      <trkpt lat="47.49464" lon="1.25917">
        <ele>67.9</ele>
        <time>2020-07-03T08:44:50Z</time>
      </trkpt>
      <trkpt lat="47.49464" lon="1.25926">
        <ele>67.8</ele>
        <time>2020-07-03T08:44:51Z</time>
      </trkpt>
      <trkpt lat="47.49464" lon="1.25936">
        <ele>67.7</ele>
        <time>2020-07-03T08:44:52Z</time>
      </trkpt>
      <trkpt lat="47.49462" lon="1.25947">
        <ele>67.5</ele>
        <time>2020-07-03T08:44:53Z</time>
      </trkpt>
      <trkpt lat="47.4946" lon="1.25957">
        <ele>67.4</ele>
        <time>2020-07-03T08:44:54Z</time>
      </trkpt>
      <trkpt lat="47.49459" lon="1.25965">
        <ele>67.3</ele>
        <time>2020-07-03T08:44:55Z</time>
      </trkpt>
      <trkpt lat="47.49458" lon="1.25975">
        <ele>67.2</ele>
        <time>2020-07-03T08:44:56Z</time>
      </trkpt>
      <trkpt lat="47.49458" lon="1.25984">
        <ele>67.2</ele>
        <time>2020-07-03T08:44:57Z</time>
      </trkpt>
      <trkpt lat="47.49458" lon="1.25994">
        <ele>67.2</ele>
        <time>2020-07-03T08:44:58Z</time>
      </trkpt>
      <trkpt lat="47.49457" lon="1.26002">
        <ele>67.2</ele>
        <time>2020-07-03T08:44:59Z</time>
      </trkpt>
      <trkpt lat="47.49457" lon="1.26012">
        <ele>67.2</ele>
        <time>2020-07-03T08:45:00Z</time>
      </trkpt>
      <trkpt lat="47.49456" lon="1.2602">
        <ele>67.2</ele>
        <time>2020-07-03T08:45:01Z</time>
      </trkpt>
      <trkpt lat="47.49456" lon="1.26026">
        <ele>67.2</ele>
        <time>2020-07-03T08:45:02Z</time>
      </trkpt>
      <trkpt lat="47.49454" lon="1.26032">
        <ele>67.2</ele>
        <time>2020-07-03T08:45:03Z</time>
      </trkpt>
      <trkpt lat="47.49453" lon="1.26036">
        <ele>67.2</ele>
        <time>2020-07-03T08:45:04Z</time>
      </trkpt>
      <trkpt lat="47.49452" lon="1.26039">
        <ele>67.2</ele>
        <time>2020-07-03T08:45:05Z</time>
      </trkpt>
      <trkpt lat="47.49448" lon="1.2604">
        <ele>67.2</ele>
        <time>2020-07-03T08:45:06Z</time>
      </trkpt>
      <trkpt lat="47.49447" lon="1.2604">
        <ele>67.2</ele>
        <time>2020-07-03T08:45:07Z</time>
      </trkpt>
      <trkpt lat="47.49445" lon="1.26035">
        <ele>67.2</ele>
        <time>2020-07-03T08:45:08Z</time>
      </trkpt>
      <trkpt lat="47.49445" lon="1.26032">
        <ele>67.2</ele>
        <time>2020-07-03T08:45:09Z</time>
      </trkpt>
      <trkpt lat="47.49444" lon="1.26028">
        <ele>67.2</ele>
        <time>2020-07-03T08:45:10Z</time>
      </trkpt>
      <trkpt lat="47.49441" lon="1.26024">
        <ele>67.2</ele>
        <time>2020-07-03T08:45:11Z</time>
      </trkpt>
      <trkpt lat="47.49437" lon="1.26022">
        <ele>67.3</ele>
        <time>2020-07-03T08:45:12Z</time>
      </trkpt>
      <trkpt lat="47.4943" lon="1.2602">
        <ele>67.3</ele>
        <time>2020-07-03T08:45:13Z</time>
      </trkpt>
      <trkpt lat="47.49426" lon="1.26019">
        <ele>67.3</ele>
        <time>2020-07-03T08:45:14Z</time>
      </trkpt>
      <trkpt lat="47.49422" lon="1.26019">
        <ele>67.3</ele>
        <time>2020-07-03T08:45:15Z</time>
      </trkpt>
      <trkpt lat="47.49418" lon="1.26019">
        <ele>67.3</ele>
        <time>2020-07-03T08:45:16Z</time>
      </trkpt>
      <trkpt lat="47.49413" lon="1.26018">
        <ele>67.3</ele>
        <time>2020-07-03T08:45:17Z</time>
      </trkpt>
      <trkpt lat="47.49409" lon="1.26018">
        <ele>67.3</ele>
        <time>2020-07-03T08:45:18Z</time>
      </trkpt>
      <trkpt lat="47.49405" lon="1.26016">
        <ele>67.4</ele>
        <time>2020-07-03T08:45:19Z</time>
      </trkpt>
      <trkpt lat="47.494" lon="1.26014">
        <ele>67.4</ele>
        <time>2020-07-03T08:45:20Z</time>
      </trkpt>
      <trkpt lat="47.49396" lon="1.26014">
        <ele>67.4</ele>
        <time>2020-07-03T08:45:21Z</time>
      </trkpt>
      <trkpt lat="47.49392" lon="1.26012">
        <ele>67.4</ele>
        <time>2020-07-03T08:45:22Z</time>
      </trkpt>
      <trkpt lat="47.49389" lon="1.26011">
        <ele>67.4</ele>
        <time>2020-07-03T08:45:23Z</time>
      </trkpt>
      <trkpt lat="47.49386" lon="1.26009">
        <ele>67.4</ele>
        <time>2020-07-03T08:45:24Z</time>
      </trkpt>
      <trkpt lat="47.49382" lon="1.26008">
        <ele>67.4</ele>
        <time>2020-07-03T08:45:25Z</time>
      </trkpt>
      <trkpt lat="47.49378" lon="1.26006">
        <ele>67.4</ele>
        <time>2020-07-03T08:45:26Z</time>
      </trkpt>
      <trkpt lat="47.49374" lon="1.26007">
        <ele>67.4</ele>
        <time>2020-07-03T08:45:27Z</time>
      </trkpt>
      <trkpt lat="47.49369" lon="1.26007">
        <ele>67.4</ele>
        <time>2020-07-03T08:45:28Z</time>
      </trkpt>
      <trkpt lat="47.49364" lon="1.26006">
        <ele>67.3</ele>
        <time>2020-07-03T08:45:29Z</time>
      </trkpt>
      <trkpt lat="47.49359" lon="1.26003">
        <ele>67.3</ele>
        <time>2020-07-03T08:45:30Z</time>
      </trkpt>
      <trkpt lat="47.49355" lon="1.25999">
        <ele>67.2</ele>
        <time>2020-07-03T08:45:31Z</time>
      </trkpt>
      <trkpt lat="47.49351" lon="1.25997">
        <ele>67.2</ele>
        <time>2020-07-03T08:45:32Z</time>
      </trkpt>
      <trkpt lat="47.49348" lon="1.25994">
        <ele>67.2</ele>
        <time>2020-07-03T08:45:33Z</time>
      </trkpt>
      <trkpt lat="47.49344" lon="1.25992">
        <ele>67.2</ele>
        <time>2020-07-03T08:45:34Z</time>
      </trkpt>
      <trkpt lat="47.4934" lon="1.2599">
        <ele>67.1</ele>
        <time>2020-07-03T08:45:35Z</time>
      </trkpt>
      <trkpt lat="47.49337" lon="1.25989">
        <ele>67.1</ele>
        <time>2020-07-03T08:45:36Z</time>
      </trkpt>
      <trkpt lat="47.49333" lon="1.25985">
        <ele>67.1</ele>
        <time>2020-07-03T08:45:37Z</time>
      </trkpt>
      <trkpt lat="47.49328" lon="1.25983">
        <ele>67.1</ele>
        <time>2020-07-03T08:45:38Z</time>
      </trkpt>
      <trkpt lat="47.49324" lon="1.2598">
        <ele>67</ele>
        <time>2020-07-03T08:45:39Z</time>
      </trkpt>
      <trkpt lat="47.49318" lon="1.25978">
        <ele>67</ele>
        <time>2020-07-03T08:45:40Z</time>
      </trkpt>
      <trkpt lat="47.49312" lon="1.25975">
        <ele>66.9</ele>
        <time>2020-07-03T08:45:41Z</time>
      </trkpt>
      <trkpt lat="47.49307" lon="1.25972">
        <ele>66.9</ele>
        <time>2020-07-03T08:45:42Z</time>
      </trkpt>
      <trkpt lat="47.493" lon="1.25968">
        <ele>66.9</ele>
        <time>2020-07-03T08:45:43Z</time>
      </trkpt>
      <trkpt lat="47.49294" lon="1.25964">
        <ele>66.9</ele>
        <time>2020-07-03T08:45:44Z</time>
      </trkpt>
      <trkpt lat="47.49288" lon="1.25961">
        <ele>66.9</ele>
        <time>2020-07-03T08:45:45Z</time>
      </trkpt>
      <trkpt lat="47.49283" lon="1.25958">
        <ele>66.9</ele>
        <time>2020-07-03T08:45:46Z</time>
      </trkpt>
      <trkpt lat="47.49277" lon="1.25955">
        <ele>66.8</ele>
        <time>2020-07-03T08:45:47Z</time>
      </trkpt>
      <trkpt lat="47.49272" lon="1.25954">
        <ele>66.8</ele>
        <time>2020-07-03T08:45:48Z</time>
      </trkpt>
      <trkpt lat="47.49267" lon="1.25951">
        <ele>66.8</ele>
        <time>2020-07-03T08:45:49Z</time>
      </trkpt>
      <trkpt lat="47.4926" lon="1.25948">
        <ele>66.8</ele>
        <time>2020-07-03T08:45:50Z</time>
      </trkpt>
      <trkpt lat="47.49254" lon="1.25946">
        <ele>66.7</ele>
        <time>2020-07-03T08:45:51Z</time>
      </trkpt>
      <trkpt lat="47.49249" lon="1.25942">
        <ele>66.7</ele>
        <time>2020-07-03T08:45:52Z</time>
      </trkpt>
      <trkpt lat="47.49243" lon="1.25939">
        <ele>66.7</ele>
        <time>2020-07-03T08:45:53Z</time>
      </trkpt>
      <trkpt lat="47.49236" lon="1.25936">
        <ele>66.6</ele>
        <time>2020-07-03T08:45:54Z</time>
      </trkpt>
      <trkpt lat="47.4923" lon="1.25934">
        <ele>66.6</ele>
        <time>2020-07-03T08:45:55Z</time>
      </trkpt>
      <trkpt lat="47.49224" lon="1.25931">
        <ele>66.6</ele>
        <time>2020-07-03T08:45:56Z</time>
      </trkpt>
      <trkpt lat="47.49217" lon="1.25927">
        <ele>66.5</ele>
        <time>2020-07-03T08:45:57Z</time>
      </trkpt>
      <trkpt lat="47.4921" lon="1.25924">
        <ele>66.5</ele>
        <time>2020-07-03T08:45:58Z</time>
      </trkpt>
      <trkpt lat="47.49203" lon="1.25921">
        <ele>66.5</ele>
        <time>2020-07-03T08:45:59Z</time>
      </trkpt>
      <trkpt lat="47.49197" lon="1.25918">
        <ele>66.5</ele>
        <time>2020-07-03T08:46:00Z</time>
      </trkpt>
      <trkpt lat="47.49191" lon="1.25914">
        <ele>66.5</ele>
        <time>2020-07-03T08:46:01Z</time>
      </trkpt>
      <trkpt lat="47.49186" lon="1.25911">
        <ele>66.4</ele>
        <time>2020-07-03T08:46:02Z</time>
      </trkpt>
      <trkpt lat="47.4918" lon="1.25908">
        <ele>66.4</ele>
        <time>2020-07-03T08:46:03Z</time>
      </trkpt>
      <trkpt lat="47.49174" lon="1.25905">
        <ele>66.4</ele>
        <time>2020-07-03T08:46:04Z</time>
      </trkpt>
      <trkpt lat="47.49168" lon="1.25902">
        <ele>66.4</ele>
        <time>2020-07-03T08:46:05Z</time>
      </trkpt>
      <trkpt lat="47.49162" lon="1.259">
        <ele>66.4</ele>
        <time>2020-07-03T08:46:06Z</time>
      </trkpt>
      <trkpt lat="47.49155" lon="1.25896">
        <ele>66.3</ele>
        <time>2020-07-03T08:46:07Z</time>
      </trkpt>
      <trkpt lat="47.49149" lon="1.25893">
        <ele>66.3</ele>
        <time>2020-07-03T08:46:08Z</time>
      </trkpt>
      <trkpt lat="47.49142" lon="1.2589">
        <ele>66.2</ele>
        <time>2020-07-03T08:46:09Z</time>
      </trkpt>
      <trkpt lat="47.49136" lon="1.25887">
        <ele>66.2</ele>
        <time>2020-07-03T08:46:10Z</time>
      </trkpt>
      <trkpt lat="47.49129" lon="1.25883">
        <ele>66.2</ele>
        <time>2020-07-03T08:46:11Z</time>
      </trkpt>
      <trkpt lat="47.49123" lon="1.2588">
        <ele>66.2</ele>
        <time>2020-07-03T08:46:12Z</time>
      </trkpt>
      <trkpt lat="47.49117" lon="1.25877">
        <ele>66.2</ele>
        <time>2020-07-03T08:46:13Z</time>
      </trkpt>
      <trkpt lat="47.49111" lon="1.25874">
        <ele>66.2</ele>
        <time>2020-07-03T08:46:14Z</time>
      </trkpt>
      <trkpt lat="47.49105" lon="1.25871">
        <ele>66.2</ele>
        <time>2020-07-03T08:46:15Z</time>
      </trkpt>
      <trkpt lat="47.491" lon="1.25869">
        <ele>66.2</ele>
        <time>2020-07-03T08:46:16Z</time>
      </trkpt>
      <trkpt lat="47.49095" lon="1.25866">
        <ele>66.2</ele>
        <time>2020-07-03T08:46:17Z</time>
      </trkpt>
      <trkpt lat="47.4909" lon="1.25862">
        <ele>66.2</ele>
        <time>2020-07-03T08:46:18Z</time>
      </trkpt>
      <trkpt lat="47.49086" lon="1.2586">
        <ele>66.2</ele>
        <time>2020-07-03T08:46:19Z</time>
      </trkpt>
      <trkpt lat="47.49082" lon="1.25858">
        <ele>66.2</ele>
        <time>2020-07-03T08:46:20Z</time>
      </trkpt>
      <trkpt lat="47.49078" lon="1.25856">
        <ele>66.1</ele>
        <time>2020-07-03T08:46:21Z</time>
      </trkpt>
      <trkpt lat="47.49073" lon="1.25855">
        <ele>66.2</ele>
        <time>2020-07-03T08:46:22Z</time>
      </trkpt>
      <trkpt lat="47.49069" lon="1.25855">
        <ele>66.3</ele>
        <time>2020-07-03T08:46:23Z</time>
      </trkpt>
      <trkpt lat="47.49064" lon="1.25856">
        <ele>66.3</ele>
        <time>2020-07-03T08:46:24Z</time>
      </trkpt>
      <trkpt lat="47.4906" lon="1.25856">
        <ele>66.4</ele>
        <time>2020-07-03T08:46:25Z</time>
      </trkpt>
      <trkpt lat="47.49056" lon="1.25856">
        <ele>66.4</ele>
        <time>2020-07-03T08:46:26Z</time>
      </trkpt>
      <trkpt lat="47.49051" lon="1.25855">
        <ele>66.5</ele>
        <time>2020-07-03T08:46:27Z</time>
      </trkpt>
      <trkpt lat="47.49044" lon="1.25854">
        <ele>66.5</ele>
        <time>2020-07-03T08:46:28Z</time>
      </trkpt>
      <trkpt lat="47.49038" lon="1.25852">
        <ele>66.6</ele>
        <time>2020-07-03T08:46:29Z</time>
      </trkpt>
      <trkpt lat="47.49034" lon="1.2585">
        <ele>66.7</ele>
        <time>2020-07-03T08:46:30Z</time>
      </trkpt>
      <trkpt lat="47.49027" lon="1.25847">
        <ele>66.8</ele>
        <time>2020-07-03T08:46:31Z</time>
      </trkpt>
      <trkpt lat="47.49022" lon="1.25845">
        <ele>66.9</ele>
        <time>2020-07-03T08:46:32Z</time>
      </trkpt>
      <trkpt lat="47.49017" lon="1.25844">
        <ele>67.1</ele>
        <time>2020-07-03T08:46:33Z</time>
      </trkpt>
      <trkpt lat="47.49012" lon="1.25842">
        <ele>67.2</ele>
        <time>2020-07-03T08:46:34Z</time>
      </trkpt>
      <trkpt lat="47.49007" lon="1.2584">
        <ele>67.3</ele>
        <time>2020-07-03T08:46:35Z</time>
      </trkpt>
      <trkpt lat="47.49002" lon="1.25838">
        <ele>67.5</ele>
        <time>2020-07-03T08:46:36Z</time>
      </trkpt>
      <trkpt lat="47.48997" lon="1.25835">
        <ele>67.6</ele>
        <time>2020-07-03T08:46:37Z</time>
      </trkpt>
      <trkpt lat="47.48992" lon="1.25833">
        <ele>67.8</ele>
        <time>2020-07-03T08:46:38Z</time>
      </trkpt>
      <trkpt lat="47.48988" lon="1.2583">
        <ele>67.8</ele>
        <time>2020-07-03T08:46:39Z</time>
      </trkpt>
      <trkpt lat="47.48983" lon="1.2583">
        <ele>67.9</ele>
        <time>2020-07-03T08:46:40Z</time>
      </trkpt>
      <trkpt lat="47.48978" lon="1.25832">
        <ele>67.9</ele>
        <time>2020-07-03T08:46:41Z</time>
      </trkpt>
      <trkpt lat="47.48976" lon="1.25839">
        <ele>68</ele>
        <time>2020-07-03T08:46:42Z</time>
      </trkpt>
      <trkpt lat="47.48975" lon="1.25845">
        <ele>68</ele>
        <time>2020-07-03T08:46:43Z</time>
      </trkpt>
      <trkpt lat="47.48976" lon="1.2585">
        <ele>68</ele>
        <time>2020-07-03T08:46:44Z</time>
      </trkpt>
      <trkpt lat="47.48976" lon="1.25854">
        <ele>68.1</ele>
        <time>2020-07-03T08:46:45Z</time>
      </trkpt>
      <trkpt lat="47.48978" lon="1.2586">
        <ele>68.1</ele>
        <time>2020-07-03T08:46:46Z</time>
      </trkpt>
      <trkpt lat="47.48981" lon="1.25862">
        <ele>68.1</ele>
        <time>2020-07-03T08:46:47Z</time>
      </trkpt>
      <trkpt lat="47.48983" lon="1.25862">
        <ele>68.2</ele>
        <time>2020-07-03T08:46:48Z</time>
      </trkpt>
      <trkpt lat="47.48986" lon="1.2586">
        <ele>68.2</ele>
        <time>2020-07-03T08:46:49Z</time>
      </trkpt>
      <trkpt lat="47.48986" lon="1.2586">
        <ele>68.2</ele>
        <time>2020-07-03T08:46:50Z</time>
      </trkpt>
      <trkpt lat="47.48987" lon="1.2586">
        <ele>68.2</ele>
        <time>2020-07-03T08:46:51Z</time>
      </trkpt>
      <trkpt lat="47.48988" lon="1.25861">
        <ele>68.2</ele>
        <time>2020-07-03T08:46:52Z</time>
      </trkpt>
      <trkpt lat="47.48989" lon="1.25861">
        <ele>68.2</ele>
        <time>2020-07-03T08:46:53Z</time>
      </trkpt>
      <trkpt lat="47.48989" lon="1.2586">
        <ele>68.2</ele>
        <time>2020-07-03T08:46:54Z</time>
      </trkpt>
      <trkpt lat="47.48988" lon="1.2586">
        <ele>68.2</ele>
        <time>2020-07-03T08:46:55Z</time>
      </trkpt>
      <trkpt lat="47.48989" lon="1.25861">
        <ele>68.2</ele>
        <time>2020-07-03T08:46:56Z</time>
      </trkpt>
      <trkpt lat="47.48989" lon="1.2586">
        <ele>68.3</ele>
        <time>2020-07-03T08:46:57Z</time>
      </trkpt>
      <trkpt lat="47.48989" lon="1.25859">
        <ele>68.3</ele>
        <time>2020-07-03T08:46:58Z</time>
      </trkpt>
      <trkpt lat="47.48989" lon="1.2586">
        <ele>68.3</ele>
        <time>2020-07-03T08:46:59Z</time>
      </trkpt>
      <trkpt lat="47.48989" lon="1.2586">
        <ele>68.3</ele>
        <time>2020-07-03T08:47:00Z</time>
      </trkpt>
      <trkpt lat="47.4899" lon="1.25861">
        <ele>68.3</ele>
        <time>2020-07-03T08:47:01Z</time>
      </trkpt>
      <trkpt lat="47.4899" lon="1.25863">
        <ele>68.3</ele>
        <time>2020-07-03T08:47:02Z</time>
      </trkpt>
      <trkpt lat="47.4899" lon="1.25864">
        <ele>68.3</ele>
        <time>2020-07-03T08:47:03Z</time>
      </trkpt>
      <trkpt lat="47.4899" lon="1.25863">
        <ele>68.3</ele>
        <time>2020-07-03T08:47:04Z</time>
      </trkpt>
      <trkpt lat="47.4899" lon="1.25863">
        <ele>68.3</ele>
        <time>2020-07-03T08:47:05Z</time>
      </trkpt>
      <trkpt lat="47.4899" lon="1.25864">
        <ele>68.3</ele>
        <time>2020-07-03T08:47:06Z</time>
      </trkpt>
      <trkpt lat="47.4899" lon="1.25864">
        <ele>68.3</ele>
        <time>2020-07-03T08:47:07Z</time>
      </trkpt>
      <trkpt lat="47.4899" lon="1.25864">
        <ele>68.3</ele>
        <time>2020-07-03T08:47:08Z</time>
      </trkpt>
      <trkpt lat="47.48989" lon="1.25866">
        <ele>68.3</ele>
        <time>2020-07-03T08:47:09Z</time>
      </trkpt>
      <trkpt lat="47.48988" lon="1.25865">
        <ele>68.3</ele>
        <time>2020-07-03T08:47:10Z</time>
      </trkpt>
      <trkpt lat="47.48988" lon="1.25865">
        <ele>68.3</ele>
        <time>2020-07-03T08:47:11Z</time>
      </trkpt>
      <trkpt lat="47.48988" lon="1.25865">
        <ele>68.3</ele>
        <time>2020-07-03T08:47:12Z</time>
      </trkpt>
      <trkpt lat="47.48988" lon="1.25864">
        <ele>68.3</ele>
        <time>2020-07-03T08:47:13Z</time>
      </trkpt>
      <trkpt lat="47.48988" lon="1.25864">
        <ele>68.3</ele>
        <time>2020-07-03T08:47:14Z</time>
      </trkpt>
      <trkpt lat="47.48988" lon="1.25863">
        <ele>68.3</ele>
        <time>2020-07-03T08:47:15Z</time>
      </trkpt>
      <trkpt lat="47.48988" lon="1.25863">
        <ele>68.3</ele>
        <time>2020-07-03T08:47:16Z</time>
      </trkpt>
      <trkpt lat="47.48988" lon="1.25862">
        <ele>68.4</ele>
        <time>2020-07-03T08:47:17Z</time>
      </trkpt>
      <trkpt lat="47.48988" lon="1.25862">
        <ele>68.4</ele>
        <time>2020-07-03T08:47:18Z</time>
      </trkpt>
      <trkpt lat="47.48987" lon="1.25861">
        <ele>68.4</ele>
        <time>2020-07-03T08:47:19Z</time>
      </trkpt>
      <trkpt lat="47.48987" lon="1.25861">
        <ele>68.4</ele>
        <time>2020-07-03T08:47:20Z</time>
      </trkpt>
      <trkpt lat="47.48987" lon="1.2586">
        <ele>68.4</ele>
        <time>2020-07-03T08:47:21Z</time>
      </trkpt>
      <trkpt lat="47.48987" lon="1.2586">
        <ele>68.4</ele>
        <time>2020-07-03T08:47:22Z</time>
      </trkpt>
      <trkpt lat="47.48987" lon="1.25859">
        <ele>68.4</ele>
        <time>2020-07-03T08:47:23Z</time>
      </trkpt>
      <trkpt lat="47.48987" lon="1.25859">
        <ele>68.4</ele>
        <time>2020-07-03T08:47:24Z</time>
      </trkpt>
      <trkpt lat="47.48987" lon="1.25858">
        <ele>68.4</ele>
        <time>2020-07-03T08:47:25Z</time>
      </trkpt>
      <trkpt lat="47.48987" lon="1.25858">
        <ele>68.4</ele>
        <time>2020-07-03T08:47:26Z</time>
      </trkpt>
      <trkpt lat="47.48987" lon="1.25857">
        <ele>68.4</ele>
        <time>2020-07-03T08:51:51Z</time>
      </trkpt>
      <trkpt lat="47.48987" lon="1.25857">
        <ele>68.4</ele>
        <time>2020-07-03T08:51:52Z</time>
      </trkpt>
      <trkpt lat="47.48985" lon="1.25856">
        <ele>68.4</ele>
        <time>2020-07-03T08:51:53Z</time>
      </trkpt>
      <trkpt lat="47.48985" lon="1.25855">
        <ele>68.4</ele>
        <time>2020-07-03T08:51:54Z</time>
      </trkpt>
      <trkpt lat="47.48985" lon="1.25856">
        <ele>68.4</ele>
        <time>2020-07-03T08:51:55Z</time>
      </trkpt>
      <trkpt lat="47.48985" lon="1.25854">
        <ele>68.4</ele>
        <time>2020-07-03T08:51:56Z</time>
      </trkpt>
      <trkpt lat="47.48985" lon="1.25854">
        <ele>68.4</ele>
        <time>2020-07-03T08:51:57Z</time>
      </trkpt>
      <trkpt lat="47.48986" lon="1.25853">
        <ele>68.4</ele>
        <time>2020-07-03T08:51:58Z</time>
      </trkpt>
      <trkpt lat="47.48986" lon="1.25852">
        <ele>68.5</ele>
        <time>2020-07-03T08:51:59Z</time>
      </trkpt>
      <trkpt lat="47.48986" lon="1.2585">
        <ele>68.5</ele>
        <time>2020-07-03T08:52:00Z</time>
      </trkpt>
      <trkpt lat="47.48986" lon="1.25848">
        <ele>68.5</ele>
        <time>2020-07-03T08:52:01Z</time>
      </trkpt>
      <trkpt lat="47.48986" lon="1.25843">
        <ele>68.5</ele>
        <time>2020-07-03T08:52:02Z</time>
      </trkpt>
      <trkpt lat="47.48985" lon="1.25838">
        <ele>68.6</ele>
        <time>2020-07-03T08:52:03Z</time>
      </trkpt>
      <trkpt lat="47.48985" lon="1.25837">
        <ele>68.6</ele>
        <time>2020-07-03T08:52:04Z</time>
      </trkpt>
      <trkpt lat="47.48984" lon="1.25832">
        <ele>68.6</ele>
        <time>2020-07-03T08:52:05Z</time>
      </trkpt>
      <trkpt lat="47.4898" lon="1.2583">
        <ele>68.7</ele>
        <time>2020-07-03T08:52:06Z</time>
      </trkpt>
      <trkpt lat="47.48977" lon="1.25829">
        <ele>68.8</ele>
        <time>2020-07-03T08:52:07Z</time>
      </trkpt>
      <trkpt lat="47.48973" lon="1.25828">
        <ele>68.8</ele>
        <time>2020-07-03T08:52:08Z</time>
      </trkpt>
      <trkpt lat="47.4897" lon="1.25825">
        <ele>68.9</ele>
        <time>2020-07-03T08:52:09Z</time>
      </trkpt>
      <trkpt lat="47.48968" lon="1.25825">
        <ele>68.9</ele>
        <time>2020-07-03T08:52:10Z</time>
      </trkpt>
      <trkpt lat="47.48965" lon="1.25822">
        <ele>69</ele>
        <time>2020-07-03T08:52:11Z</time>
      </trkpt>
      <trkpt lat="47.48964" lon="1.25821">
        <ele>69</ele>
        <time>2020-07-03T08:52:12Z</time>
      </trkpt>
      <trkpt lat="47.48962" lon="1.25818">
        <ele>69</ele>
        <time>2020-07-03T08:52:13Z</time>
      </trkpt>
      <trkpt lat="47.48959" lon="1.25818">
        <ele>69.1</ele>
        <time>2020-07-03T08:52:14Z</time>
      </trkpt>
      <trkpt lat="47.48956" lon="1.25817">
        <ele>69.1</ele>
        <time>2020-07-03T08:52:15Z</time>
      </trkpt>
      <trkpt lat="47.48953" lon="1.25817">
        <ele>69.2</ele>
        <time>2020-07-03T08:52:16Z</time>
      </trkpt>
      <trkpt lat="47.48949" lon="1.25816">
        <ele>69.2</ele>
        <time>2020-07-03T08:52:17Z</time>
      </trkpt>
      <trkpt lat="47.48946" lon="1.25814">
        <ele>69.3</ele>
        <time>2020-07-03T08:52:18Z</time>
      </trkpt>
      <trkpt lat="47.48945" lon="1.25814">
        <ele>69.3</ele>
        <time>2020-07-03T08:52:19Z</time>
      </trkpt>
      <trkpt lat="47.48941" lon="1.25813">
        <ele>69.4</ele>
        <time>2020-07-03T08:52:20Z</time>
      </trkpt>
      <trkpt lat="47.4894" lon="1.25813">
        <ele>69.4</ele>
        <time>2020-07-03T08:52:21Z</time>
      </trkpt>
      <trkpt lat="47.48935" lon="1.25812">
        <ele>69.5</ele>
        <time>2020-07-03T08:52:22Z</time>
      </trkpt>
      <trkpt lat="47.48934" lon="1.25812">
        <ele>69.5</ele>
        <time>2020-07-03T08:52:23Z</time>
      </trkpt>
      <trkpt lat="47.48931" lon="1.25811">
        <ele>69.6</ele>
        <time>2020-07-03T08:52:24Z</time>
      </trkpt>
      <trkpt lat="47.48929" lon="1.25808">
        <ele>69.7</ele>
        <time>2020-07-03T08:52:25Z</time>
      </trkpt>
      <trkpt lat="47.48925" lon="1.25807">
        <ele>69.7</ele>
        <time>2020-07-03T08:52:26Z</time>
      </trkpt>
      <trkpt lat="47.48924" lon="1.25806">
        <ele>69.8</ele>
        <time>2020-07-03T08:52:27Z</time>
      </trkpt>
      <trkpt lat="47.48921" lon="1.25805">
        <ele>69.8</ele>
        <time>2020-07-03T08:52:28Z</time>
      </trkpt>
      <trkpt lat="47.4892" lon="1.25804">
        <ele>69.9</ele>
        <time>2020-07-03T08:52:29Z</time>
      </trkpt>
      <trkpt lat="47.48916" lon="1.25803">
        <ele>69.9</ele>
        <time>2020-07-03T08:52:30Z</time>
      </trkpt>
      <trkpt lat="47.48914" lon="1.25803">
        <ele>70</ele>
        <time>2020-07-03T08:52:31Z</time>
      </trkpt>
      <trkpt lat="47.48911" lon="1.25802">
        <ele>70</ele>
        <time>2020-07-03T08:52:32Z</time>
      </trkpt>
      <trkpt lat="47.48909" lon="1.25802">
        <ele>70.1</ele>
        <time>2020-07-03T08:52:33Z</time>
      </trkpt>
      <trkpt lat="47.48906" lon="1.25801">
        <ele>70.2</ele>
        <time>2020-07-03T08:52:34Z</time>
      </trkpt>
      <trkpt lat="47.48902" lon="1.258">
        <ele>70.2</ele>
        <time>2020-07-03T08:52:35Z</time>
      </trkpt>
      <trkpt lat="47.48899" lon="1.25797">
        <ele>70.3</ele>
        <time>2020-07-03T08:52:36Z</time>
      </trkpt>
      <trkpt lat="47.48895" lon="1.25796">
        <ele>70.4</ele>
        <time>2020-07-03T08:52:37Z</time>
      </trkpt>
      <trkpt lat="47.48891" lon="1.25794">
        <ele>70.5</ele>
        <time>2020-07-03T08:52:38Z</time>
      </trkpt>
      <trkpt lat="47.48887" lon="1.25793">
        <ele>70.6</ele>
        <time>2020-07-03T08:52:39Z</time>
      </trkpt>
      <trkpt lat="47.48883" lon="1.25792">
        <ele>70.8</ele>
        <time>2020-07-03T08:52:40Z</time>
      </trkpt>
      <trkpt lat="47.4888" lon="1.25791">
        <ele>71</ele>
        <time>2020-07-03T08:52:41Z</time>
      </trkpt>
      <trkpt lat="47.48876" lon="1.2579">
        <ele>71.2</ele>
        <time>2020-07-03T08:52:42Z</time>
      </trkpt>
      <trkpt lat="47.48872" lon="1.25789">
        <ele>71.4</ele>
        <time>2020-07-03T08:52:43Z</time>
      </trkpt>
      <trkpt lat="47.48868" lon="1.25787">
        <ele>71.6</ele>
        <time>2020-07-03T08:52:44Z</time>
      </trkpt>
      <trkpt lat="47.48864" lon="1.25786">
        <ele>71.8</ele>
        <time>2020-07-03T08:52:45Z</time>
      </trkpt>
      <trkpt lat="47.4886" lon="1.25784">
        <ele>72</ele>
        <time>2020-07-03T08:52:46Z</time>
      </trkpt>
      <trkpt lat="47.48857" lon="1.25784">
        <ele>72.2</ele>
        <time>2020-07-03T08:52:47Z</time>
      </trkpt>
      <trkpt lat="47.48854" lon="1.25783">
        <ele>72.3</ele>
        <time>2020-07-03T08:52:48Z</time>
      </trkpt>
      <trkpt lat="47.4885" lon="1.25782">
        <ele>72.6</ele>
        <time>2020-07-03T08:52:49Z</time>
      </trkpt>
      <trkpt lat="47.48846" lon="1.25781">
        <ele>72.8</ele>
        <time>2020-07-03T08:52:50Z</time>
      </trkpt>
      <trkpt lat="47.48843" lon="1.25779">
        <ele>73</ele>
        <time>2020-07-03T08:52:51Z</time>
      </trkpt>
      <trkpt lat="47.48839" lon="1.25778">
        <ele>73.2</ele>
        <time>2020-07-03T08:52:52Z</time>
      </trkpt>
      <trkpt lat="47.48836" lon="1.25777">
        <ele>73.4</ele>
        <time>2020-07-03T08:52:53Z</time>
      </trkpt>
      <trkpt lat="47.48833" lon="1.25775">
        <ele>73.7</ele>
        <time>2020-07-03T08:52:54Z</time>
      </trkpt>
      <trkpt lat="47.48829" lon="1.25773">
        <ele>73.9</ele>
        <time>2020-07-03T08:52:55Z</time>
      </trkpt>
      <trkpt lat="47.48826" lon="1.25772">
        <ele>74.2</ele>
        <time>2020-07-03T08:52:56Z</time>
      </trkpt>
      <trkpt lat="47.48822" lon="1.2577">
        <ele>74.5</ele>
        <time>2020-07-03T08:52:57Z</time>
      </trkpt>
      <trkpt lat="47.4882" lon="1.25768">
        <ele>74.7</ele>
        <time>2020-07-03T08:52:58Z</time>
      </trkpt>
      <trkpt lat="47.48817" lon="1.25765">
        <ele>75</ele>
        <time>2020-07-03T08:52:59Z</time>
      </trkpt>
      <trkpt lat="47.48813" lon="1.25764">
        <ele>75.3</ele>
        <time>2020-07-03T08:53:00Z</time>
      </trkpt>
      <trkpt lat="47.48812" lon="1.25763">
        <ele>75.4</ele>
        <time>2020-07-03T08:53:01Z</time>
      </trkpt>
      <trkpt lat="47.48809" lon="1.25762">
        <ele>75.6</ele>
        <time>2020-07-03T08:53:02Z</time>
      </trkpt>
      <trkpt lat="47.48808" lon="1.25761">
        <ele>75.7</ele>
        <time>2020-07-03T08:53:03Z</time>
      </trkpt>
      <trkpt lat="47.48805" lon="1.25758">
        <ele>75.9</ele>
        <time>2020-07-03T08:53:04Z</time>
      </trkpt>
      <trkpt lat="47.48804" lon="1.25757">
        <ele>76</ele>
        <time>2020-07-03T08:53:05Z</time>
      </trkpt>
      <trkpt lat="47.48802" lon="1.25754">
        <ele>76.3</ele>
        <time>2020-07-03T08:53:06Z</time>
      </trkpt>
      <trkpt lat="47.488" lon="1.25753">
        <ele>76.4</ele>
        <time>2020-07-03T08:53:07Z</time>
      </trkpt>
      <trkpt lat="47.48798" lon="1.25751">
        <ele>76.6</ele>
        <time>2020-07-03T08:53:08Z</time>
      </trkpt>
      <trkpt lat="47.48794" lon="1.25748">
        <ele>76.9</ele>
        <time>2020-07-03T08:53:09Z</time>
      </trkpt>
      <trkpt lat="47.48793" lon="1.25747">
        <ele>77</ele>
        <time>2020-07-03T08:53:10Z</time>
      </trkpt>
      <trkpt lat="47.48792" lon="1.25745">
        <ele>77.1</ele>
        <time>2020-07-03T08:53:11Z</time>
      </trkpt>
      <trkpt lat="47.48791" lon="1.25743">
        <ele>77.3</ele>
        <time>2020-07-03T08:53:12Z</time>
      </trkpt>
      <trkpt lat="47.48788" lon="1.25741">
        <ele>77.5</ele>
        <time>2020-07-03T08:53:13Z</time>
      </trkpt>
      <trkpt lat="47.48786" lon="1.25738">
        <ele>77.7</ele>
        <time>2020-07-03T08:53:14Z</time>
      </trkpt>
      <trkpt lat="47.48785" lon="1.25737">
        <ele>77.8</ele>
        <time>2020-07-03T08:53:15Z</time>
      </trkpt>
      <trkpt lat="47.48784" lon="1.25736">
        <ele>77.9</ele>
        <time>2020-07-03T08:53:16Z</time>
      </trkpt>
      <trkpt lat="47.48782" lon="1.25735">
        <ele>78.1</ele>
        <time>2020-07-03T08:53:17Z</time>
      </trkpt>
      <trkpt lat="47.4878" lon="1.25734">
        <ele>78.2</ele>
        <time>2020-07-03T08:53:18Z</time>
      </trkpt>
      <trkpt lat="47.48779" lon="1.25733">
        <ele>78.4</ele>
        <time>2020-07-03T08:53:19Z</time>
      </trkpt>
      <trkpt lat="47.48779" lon="1.25732">
        <ele>78.4</ele>
        <time>2020-07-03T08:53:20Z</time>
      </trkpt>
      <trkpt lat="47.48778" lon="1.25731">
        <ele>78.5</ele>
        <time>2020-07-03T08:53:21Z</time>
      </trkpt>
      <trkpt lat="47.48777" lon="1.25731">
        <ele>78.6</ele>
        <time>2020-07-03T08:53:22Z</time>
      </trkpt>
      <trkpt lat="47.48776" lon="1.2573">
        <ele>78.7</ele>
        <time>2020-07-03T08:53:23Z</time>
      </trkpt>
      <trkpt lat="47.48775" lon="1.25729">
        <ele>78.8</ele>
        <time>2020-07-03T08:53:24Z</time>
      </trkpt>
      <trkpt lat="47.48775" lon="1.25727">
        <ele>78.9</ele>
        <time>2020-07-03T08:53:25Z</time>
      </trkpt>
      <trkpt lat="47.48773" lon="1.25727">
        <ele>79.1</ele>
        <time>2020-07-03T08:53:26Z</time>
      </trkpt>
      <trkpt lat="47.48772" lon="1.25727">
        <ele>79.1</ele>
        <time>2020-07-03T08:53:27Z</time>
      </trkpt>
      <trkpt lat="47.48771" lon="1.25727">
        <ele>79.2</ele>
        <time>2020-07-03T08:53:28Z</time>
      </trkpt>
      <trkpt lat="47.48769" lon="1.25725">
        <ele>79.4</ele>
        <time>2020-07-03T08:53:29Z</time>
      </trkpt>
      <trkpt lat="47.48768" lon="1.25724">
        <ele>79.5</ele>
        <time>2020-07-03T08:53:30Z</time>
      </trkpt>
      <trkpt lat="47.48766" lon="1.25722">
        <ele>79.7</ele>
        <time>2020-07-03T08:53:31Z</time>
      </trkpt>
      <trkpt lat="47.48765" lon="1.25721">
        <ele>79.8</ele>
        <time>2020-07-03T08:53:32Z</time>
      </trkpt>
      <trkpt lat="47.48763" lon="1.25719">
        <ele>80</ele>
        <time>2020-07-03T08:53:33Z</time>
      </trkpt>
      <trkpt lat="47.48761" lon="1.25719">
        <ele>80.1</ele>
        <time>2020-07-03T08:53:34Z</time>
      </trkpt>
      <trkpt lat="47.48759" lon="1.25715">
        <ele>80.4</ele>
        <time>2020-07-03T08:53:35Z</time>
      </trkpt>
      <trkpt lat="47.48755" lon="1.25712">
        <ele>80.7</ele>
        <time>2020-07-03T08:53:36Z</time>
      </trkpt>
      <trkpt lat="47.48752" lon="1.25708">
        <ele>81</ele>
        <time>2020-07-03T08:53:37Z</time>
      </trkpt>
      <trkpt lat="47.48749" lon="1.25704">
        <ele>81.2</ele>
        <time>2020-07-03T08:53:38Z</time>
      </trkpt>
      <trkpt lat="47.48748" lon="1.25701">
        <ele>81.4</ele>
        <time>2020-07-03T08:53:39Z</time>
      </trkpt>
      <trkpt lat="47.48745" lon="1.25696">
        <ele>81.7</ele>
        <time>2020-07-03T08:53:40Z</time>
      </trkpt>
      <trkpt lat="47.48744" lon="1.25694">
        <ele>81.8</ele>
        <time>2020-07-03T08:53:41Z</time>
      </trkpt>
      <trkpt lat="47.48742" lon="1.2569">
        <ele>82</ele>
        <time>2020-07-03T08:53:42Z</time>
      </trkpt>
      <trkpt lat="47.4874" lon="1.25686">
        <ele>82.3</ele>
        <time>2020-07-03T08:53:43Z</time>
      </trkpt>
      <trkpt lat="47.48737" lon="1.25683">
        <ele>82.5</ele>
        <time>2020-07-03T08:53:44Z</time>
      </trkpt>
      <trkpt lat="47.48735" lon="1.2568">
        <ele>82.7</ele>
        <time>2020-07-03T08:53:45Z</time>
      </trkpt>
      <trkpt lat="47.48734" lon="1.25675">
        <ele>83</ele>
        <time>2020-07-03T08:53:46Z</time>
      </trkpt>
      <trkpt lat="47.48733" lon="1.25671">
        <ele>83.2</ele>
        <time>2020-07-03T08:53:47Z</time>
      </trkpt>
      <trkpt lat="47.48732" lon="1.25667">
        <ele>83.4</ele>
        <time>2020-07-03T08:53:48Z</time>
      </trkpt>
      <trkpt lat="47.4873" lon="1.25664">
        <ele>83.6</ele>
        <time>2020-07-03T08:53:49Z</time>
      </trkpt>
      <trkpt lat="47.48727" lon="1.25662">
        <ele>83.7</ele>
        <time>2020-07-03T08:53:50Z</time>
      </trkpt>
      <trkpt lat="47.48725" lon="1.25659">
        <ele>83.9</ele>
        <time>2020-07-03T08:53:51Z</time>
      </trkpt>
      <trkpt lat="47.48722" lon="1.25656">
        <ele>84.1</ele>
        <time>2020-07-03T08:53:52Z</time>
      </trkpt>
      <trkpt lat="47.4872" lon="1.25653">
        <ele>84.3</ele>
        <time>2020-07-03T08:53:53Z</time>
      </trkpt>
      <trkpt lat="47.48718" lon="1.25649">
        <ele>84.5</ele>
        <time>2020-07-03T08:53:54Z</time>
      </trkpt>
      <trkpt lat="47.48716" lon="1.25645">
        <ele>84.7</ele>
        <time>2020-07-03T08:53:55Z</time>
      </trkpt>
      <trkpt lat="47.48715" lon="1.2564">
        <ele>84.9</ele>
        <time>2020-07-03T08:53:56Z</time>
      </trkpt>
      <trkpt lat="47.48714" lon="1.25636">
        <ele>85.1</ele>
        <time>2020-07-03T08:53:57Z</time>
      </trkpt>
      <trkpt lat="47.48712" lon="1.25632">
        <ele>85.2</ele>
        <time>2020-07-03T08:53:58Z</time>
      </trkpt>
      <trkpt lat="47.48709" lon="1.25628">
        <ele>85.4</ele>
        <time>2020-07-03T08:53:59Z</time>
      </trkpt>
      <trkpt lat="47.48708" lon="1.25625">
        <ele>85.6</ele>
        <time>2020-07-03T08:54:00Z</time>
      </trkpt>
      <trkpt lat="47.48706" lon="1.2562">
        <ele>85.8</ele>
        <time>2020-07-03T08:54:01Z</time>
      </trkpt>
      <trkpt lat="47.48704" lon="1.25616">
        <ele>86</ele>
        <time>2020-07-03T08:54:02Z</time>
      </trkpt>
      <trkpt lat="47.48703" lon="1.25614">
        <ele>86</ele>
        <time>2020-07-03T08:54:03Z</time>
      </trkpt>
      <trkpt lat="47.487" lon="1.2561">
        <ele>86.2</ele>
        <time>2020-07-03T08:54:04Z</time>
      </trkpt>
      <trkpt lat="47.48699" lon="1.25608">
        <ele>86.3</ele>
        <time>2020-07-03T08:54:05Z</time>
      </trkpt>
      <trkpt lat="47.48698" lon="1.25604">
        <ele>86.5</ele>
        <time>2020-07-03T08:54:06Z</time>
      </trkpt>
      <trkpt lat="47.48696" lon="1.256">
        <ele>86.6</ele>
        <time>2020-07-03T08:54:07Z</time>
      </trkpt>
      <trkpt lat="47.48694" lon="1.25596">
        <ele>86.8</ele>
        <time>2020-07-03T08:54:08Z</time>
      </trkpt>
      <trkpt lat="47.48693" lon="1.25593">
        <ele>86.9</ele>
        <time>2020-07-03T08:54:09Z</time>
      </trkpt>
      <trkpt lat="47.4869" lon="1.25589">
        <ele>87.1</ele>
        <time>2020-07-03T08:54:10Z</time>
      </trkpt>
      <trkpt lat="47.48688" lon="1.25587">
        <ele>87.2</ele>
        <time>2020-07-03T08:54:11Z</time>
      </trkpt>
      <trkpt lat="47.48687" lon="1.25584">
        <ele>87.3</ele>
        <time>2020-07-03T08:54:12Z</time>
      </trkpt>
      <trkpt lat="47.48684" lon="1.2558">
        <ele>87.5</ele>
        <time>2020-07-03T08:54:13Z</time>
      </trkpt>
      <trkpt lat="47.48683" lon="1.25579">
        <ele>87.6</ele>
        <time>2020-07-03T08:54:14Z</time>
      </trkpt>
      <trkpt lat="47.48681" lon="1.25576">
        <ele>87.7</ele>
        <time>2020-07-03T08:54:15Z</time>
      </trkpt>
      <trkpt lat="47.48678" lon="1.25573">
        <ele>87.9</ele>
        <time>2020-07-03T08:54:16Z</time>
      </trkpt>
      <trkpt lat="47.48675" lon="1.25569">
        <ele>88.1</ele>
        <time>2020-07-03T08:54:17Z</time>
      </trkpt>
      <trkpt lat="47.48674" lon="1.25568">
        <ele>88.2</ele>
        <time>2020-07-03T08:54:18Z</time>
      </trkpt>
      <trkpt lat="47.48671" lon="1.25564">
        <ele>88.4</ele>
        <time>2020-07-03T08:54:19Z</time>
      </trkpt>
      <trkpt lat="47.4867" lon="1.25563">
        <ele>88.5</ele>
        <time>2020-07-03T08:54:20Z</time>
      </trkpt>
      <trkpt lat="47.48667" lon="1.2556">
        <ele>88.7</ele>
        <time>2020-07-03T08:54:21Z</time>
      </trkpt>
      <trkpt lat="47.48665" lon="1.25556">
        <ele>88.9</ele>
        <time>2020-07-03T08:54:22Z</time>
      </trkpt>
      <trkpt lat="47.48664" lon="1.25556">
        <ele>89</ele>
        <time>2020-07-03T08:54:23Z</time>
      </trkpt>
      <trkpt lat="47.48662" lon="1.25554">
        <ele>89.1</ele>
        <time>2020-07-03T08:54:24Z</time>
      </trkpt>
      <trkpt lat="47.48658" lon="1.25551">
        <ele>89.3</ele>
        <time>2020-07-03T08:54:25Z</time>
      </trkpt>
      <trkpt lat="47.48656" lon="1.25549">
        <ele>89.5</ele>
        <time>2020-07-03T08:54:26Z</time>
      </trkpt>
      <trkpt lat="47.48653" lon="1.25545">
        <ele>89.7</ele>
        <time>2020-07-03T08:54:27Z</time>
      </trkpt>
      <trkpt lat="47.48649" lon="1.25542">
        <ele>90</ele>
        <time>2020-07-03T08:54:28Z</time>
      </trkpt>
      <trkpt lat="47.48646" lon="1.25541">
        <ele>90.1</ele>
        <time>2020-07-03T08:54:29Z</time>
      </trkpt>
      <trkpt lat="47.48643" lon="1.25538">
        <ele>90.3</ele>
        <time>2020-07-03T08:54:30Z</time>
      </trkpt>
      <trkpt lat="47.48642" lon="1.25537">
        <ele>90.4</ele>
        <time>2020-07-03T08:54:31Z</time>
      </trkpt>
      <trkpt lat="47.48639" lon="1.25534">
        <ele>90.6</ele>
        <time>2020-07-03T08:54:32Z</time>
      </trkpt>
      <trkpt lat="47.48638" lon="1.25533">
        <ele>90.7</ele>
        <time>2020-07-03T08:54:33Z</time>
      </trkpt>
      <trkpt lat="47.48635" lon="1.25533">
        <ele>90.9</ele>
        <time>2020-07-03T08:54:34Z</time>
      </trkpt>
      <trkpt lat="47.48633" lon="1.25533">
        <ele>91</ele>
        <time>2020-07-03T08:54:35Z</time>
      </trkpt>
      <trkpt lat="47.4863" lon="1.25532">
        <ele>91.2</ele>
        <time>2020-07-03T08:54:36Z</time>
      </trkpt>
      <trkpt lat="47.48627" lon="1.25531">
        <ele>91.4</ele>
        <time>2020-07-03T08:54:37Z</time>
      </trkpt>
      <trkpt lat="47.48624" lon="1.2553">
        <ele>91.6</ele>
        <time>2020-07-03T08:54:38Z</time>
      </trkpt>
      <trkpt lat="47.48621" lon="1.2553">
        <ele>91.8</ele>
        <time>2020-07-03T08:54:39Z</time>
      </trkpt>
      <trkpt lat="47.48619" lon="1.25528">
        <ele>92</ele>
        <time>2020-07-03T08:54:40Z</time>
      </trkpt>
      <trkpt lat="47.48616" lon="1.25526">
        <ele>92.2</ele>
        <time>2020-07-03T08:54:41Z</time>
      </trkpt>
      <trkpt lat="47.48613" lon="1.25526">
        <ele>92.5</ele>
        <time>2020-07-03T08:54:42Z</time>
      </trkpt>
      <trkpt lat="47.48612" lon="1.25526">
        <ele>92.5</ele>
        <time>2020-07-03T08:54:43Z</time>
      </trkpt>
      <trkpt lat="47.48608" lon="1.25526">
        <ele>92.8</ele>
        <time>2020-07-03T08:54:44Z</time>
      </trkpt>
      <trkpt lat="47.48607" lon="1.25525">
        <ele>92.8</ele>
        <time>2020-07-03T08:54:45Z</time>
      </trkpt>
      <trkpt lat="47.48603" lon="1.25525">
        <ele>93.1</ele>
        <time>2020-07-03T08:54:46Z</time>
      </trkpt>
      <trkpt lat="47.48602" lon="1.25524">
        <ele>93.2</ele>
        <time>2020-07-03T08:54:47Z</time>
      </trkpt>
      <trkpt lat="47.48599" lon="1.25523">
        <ele>93.3</ele>
        <time>2020-07-03T08:54:48Z</time>
      </trkpt>
      <trkpt lat="47.48596" lon="1.25522">
        <ele>93.5</ele>
        <time>2020-07-03T08:54:49Z</time>
      </trkpt>
      <trkpt lat="47.48593" lon="1.25521">
        <ele>93.7</ele>
        <time>2020-07-03T08:54:50Z</time>
      </trkpt>
      <trkpt lat="47.48592" lon="1.2552">
        <ele>93.8</ele>
        <time>2020-07-03T08:54:51Z</time>
      </trkpt>
      <trkpt lat="47.48588" lon="1.2552">
        <ele>94</ele>
        <time>2020-07-03T08:54:52Z</time>
      </trkpt>
      <trkpt lat="47.48586" lon="1.25521">
        <ele>94.1</ele>
        <time>2020-07-03T08:54:53Z</time>
      </trkpt>
      <trkpt lat="47.48583" lon="1.2552">
        <ele>94.3</ele>
        <time>2020-07-03T08:54:54Z</time>
      </trkpt>
      <trkpt lat="47.48581" lon="1.2552">
        <ele>94.4</ele>
        <time>2020-07-03T08:54:55Z</time>
      </trkpt>
      <trkpt lat="47.48578" lon="1.25518">
        <ele>94.6</ele>
        <time>2020-07-03T08:54:56Z</time>
      </trkpt>
      <trkpt lat="47.48578" lon="1.25517">
        <ele>94.6</ele>
        <time>2020-07-03T08:54:57Z</time>
      </trkpt>
      <trkpt lat="47.48574" lon="1.25513">
        <ele>94.8</ele>
        <time>2020-07-03T08:54:58Z</time>
      </trkpt>
      <trkpt lat="47.48573" lon="1.25512">
        <ele>94.9</ele>
        <time>2020-07-03T08:54:59Z</time>
      </trkpt>
      <trkpt lat="47.48571" lon="1.2551">
        <ele>95</ele>
        <time>2020-07-03T08:55:00Z</time>
      </trkpt>
      <trkpt lat="47.48569" lon="1.25507">
        <ele>95.1</ele>
        <time>2020-07-03T08:55:01Z</time>
      </trkpt>
      <trkpt lat="47.48566" lon="1.25504">
        <ele>95.3</ele>
        <time>2020-07-03T08:55:02Z</time>
      </trkpt>
      <trkpt lat="47.48565" lon="1.255">
        <ele>95.4</ele>
        <time>2020-07-03T08:55:03Z</time>
      </trkpt>
      <trkpt lat="47.48562" lon="1.25497">
        <ele>95.5</ele>
        <time>2020-07-03T08:55:04Z</time>
      </trkpt>
      <trkpt lat="47.4856" lon="1.25495">
        <ele>95.7</ele>
        <time>2020-07-03T08:55:05Z</time>
      </trkpt>
      <trkpt lat="47.48556" lon="1.25493">
        <ele>95.8</ele>
        <time>2020-07-03T08:55:06Z</time>
      </trkpt>
      <trkpt lat="47.48553" lon="1.25489">
        <ele>96</ele>
        <time>2020-07-03T08:55:07Z</time>
      </trkpt>
      <trkpt lat="47.4855" lon="1.25486">
        <ele>96.1</ele>
        <time>2020-07-03T08:55:08Z</time>
      </trkpt>
      <trkpt lat="47.48548" lon="1.25484">
        <ele>96.3</ele>
        <time>2020-07-03T08:55:09Z</time>
      </trkpt>
      <trkpt lat="47.48545" lon="1.25481">
        <ele>96.4</ele>
        <time>2020-07-03T08:55:10Z</time>
      </trkpt>
      <trkpt lat="47.48542" lon="1.25477">
        <ele>96.6</ele>
        <time>2020-07-03T08:55:11Z</time>
      </trkpt>
      <trkpt lat="47.48539" lon="1.25473">
        <ele>96.7</ele>
        <time>2020-07-03T08:55:12Z</time>
      </trkpt>
      <trkpt lat="47.48536" lon="1.25469">
        <ele>96.9</ele>
        <time>2020-07-03T08:55:13Z</time>
      </trkpt>
      <trkpt lat="47.48534" lon="1.25466">
        <ele>97</ele>
        <time>2020-07-03T08:55:14Z</time>
      </trkpt>
      <trkpt lat="47.48532" lon="1.25464">
        <ele>97.1</ele>
        <time>2020-07-03T08:55:15Z</time>
      </trkpt>
      <trkpt lat="47.4853" lon="1.25461">
        <ele>97.2</ele>
        <time>2020-07-03T08:55:16Z</time>
      </trkpt>
      <trkpt lat="47.48527" lon="1.25458">
        <ele>97.4</ele>
        <time>2020-07-03T08:55:17Z</time>
      </trkpt>
      <trkpt lat="47.48524" lon="1.25455">
        <ele>97.5</ele>
        <time>2020-07-03T08:55:18Z</time>
      </trkpt>
      <trkpt lat="47.48521" lon="1.25452">
        <ele>97.7</ele>
        <time>2020-07-03T08:55:19Z</time>
      </trkpt>
      <trkpt lat="47.48518" lon="1.25448">
        <ele>97.8</ele>
        <time>2020-07-03T08:55:20Z</time>
      </trkpt>
      <trkpt lat="47.48515" lon="1.25445">
        <ele>97.9</ele>
        <time>2020-07-03T08:55:21Z</time>
      </trkpt>
      <trkpt lat="47.48513" lon="1.25443">
        <ele>98.1</ele>
        <time>2020-07-03T08:55:22Z</time>
      </trkpt>
      <trkpt lat="47.48511" lon="1.25439">
        <ele>98.2</ele>
        <time>2020-07-03T08:55:23Z</time>
      </trkpt>
      <trkpt lat="47.48508" lon="1.25436">
        <ele>98.3</ele>
        <time>2020-07-03T08:55:24Z</time>
      </trkpt>
      <trkpt lat="47.48505" lon="1.25434">
        <ele>98.4</ele>
        <time>2020-07-03T08:55:25Z</time>
      </trkpt>
      <trkpt lat="47.48502" lon="1.2543">
        <ele>98.5</ele>
        <time>2020-07-03T08:55:26Z</time>
      </trkpt>
      <trkpt lat="47.48498" lon="1.25426">
        <ele>98.7</ele>
        <time>2020-07-03T08:55:27Z</time>
      </trkpt>
      <trkpt lat="47.48495" lon="1.25422">
        <ele>98.8</ele>
        <time>2020-07-03T08:55:28Z</time>
      </trkpt>
      <trkpt lat="47.48492" lon="1.25418">
        <ele>99</ele>
        <time>2020-07-03T08:55:29Z</time>
      </trkpt>
      <trkpt lat="47.48489" lon="1.25415">
        <ele>99.1</ele>
        <time>2020-07-03T08:55:30Z</time>
      </trkpt>
      <trkpt lat="47.48484" lon="1.25413">
        <ele>99.3</ele>
        <time>2020-07-03T08:55:31Z</time>
      </trkpt>
      <trkpt lat="47.4848" lon="1.2541">
        <ele>99.5</ele>
        <time>2020-07-03T08:55:32Z</time>
      </trkpt>
      <trkpt lat="47.48477" lon="1.25407">
        <ele>99.6</ele>
        <time>2020-07-03T08:55:33Z</time>
      </trkpt>
      <trkpt lat="47.48473" lon="1.25404">
        <ele>99.8</ele>
        <time>2020-07-03T08:55:34Z</time>
      </trkpt>
      <trkpt lat="47.4847" lon="1.25402">
        <ele>99.9</ele>
        <time>2020-07-03T08:55:35Z</time>
      </trkpt>
      <trkpt lat="47.48467" lon="1.25401">
        <ele>100</ele>
        <time>2020-07-03T08:55:36Z</time>
      </trkpt>
      <trkpt lat="47.48463" lon="1.25399">
        <ele>100.2</ele>
        <time>2020-07-03T08:55:37Z</time>
      </trkpt>
      <trkpt lat="47.48459" lon="1.25396">
        <ele>100.4</ele>
        <time>2020-07-03T08:55:38Z</time>
      </trkpt>
      <trkpt lat="47.48456" lon="1.25394">
        <ele>100.5</ele>
        <time>2020-07-03T08:55:39Z</time>
      </trkpt>
      <trkpt lat="47.48452" lon="1.25391">
        <ele>100.7</ele>
        <time>2020-07-03T08:55:40Z</time>
      </trkpt>
      <trkpt lat="47.48449" lon="1.25388">
        <ele>100.8</ele>
        <time>2020-07-03T08:55:41Z</time>
      </trkpt>
      <trkpt lat="47.48445" lon="1.25384">
        <ele>101</ele>
        <time>2020-07-03T08:55:42Z</time>
      </trkpt>
      <trkpt lat="47.48442" lon="1.25381">
        <ele>101.2</ele>
        <time>2020-07-03T08:55:43Z</time>
      </trkpt>
      <trkpt lat="47.48438" lon="1.25379">
        <ele>101.3</ele>
        <time>2020-07-03T08:55:44Z</time>
      </trkpt>
      <trkpt lat="47.48434" lon="1.25376">
        <ele>101.5</ele>
        <time>2020-07-03T08:55:45Z</time>
      </trkpt>
      <trkpt lat="47.4843" lon="1.25372">
        <ele>101.7</ele>
        <time>2020-07-03T08:55:46Z</time>
      </trkpt>
      <trkpt lat="47.48426" lon="1.25368">
        <ele>101.8</ele>
        <time>2020-07-03T08:55:47Z</time>
      </trkpt>
      <trkpt lat="47.48422" lon="1.25365">
        <ele>102</ele>
        <time>2020-07-03T08:55:48Z</time>
      </trkpt>
      <trkpt lat="47.48419" lon="1.25363">
        <ele>102.1</ele>
        <time>2020-07-03T08:55:49Z</time>
      </trkpt>
      <trkpt lat="47.48416" lon="1.25361">
        <ele>102.2</ele>
        <time>2020-07-03T08:55:50Z</time>
      </trkpt>
      <trkpt lat="47.48412" lon="1.25359">
        <ele>102.4</ele>
        <time>2020-07-03T08:55:51Z</time>
      </trkpt>
      <trkpt lat="47.48409" lon="1.25356">
        <ele>102.5</ele>
        <time>2020-07-03T08:55:52Z</time>
      </trkpt>
      <trkpt lat="47.48406" lon="1.25354">
        <ele>102.6</ele>
        <time>2020-07-03T08:55:53Z</time>
      </trkpt>
      <trkpt lat="47.48403" lon="1.25352">
        <ele>102.7</ele>
        <time>2020-07-03T08:55:54Z</time>
      </trkpt>
      <trkpt lat="47.48402" lon="1.25351">
        <ele>102.8</ele>
        <time>2020-07-03T08:55:55Z</time>
      </trkpt>
      <trkpt lat="47.48399" lon="1.25349">
        <ele>102.9</ele>
        <time>2020-07-03T08:55:56Z</time>
      </trkpt>
      <trkpt lat="47.48395" lon="1.25347">
        <ele>103</ele>
        <time>2020-07-03T08:55:57Z</time>
      </trkpt>
      <trkpt lat="47.48394" lon="1.25346">
        <ele>103</ele>
        <time>2020-07-03T08:55:58Z</time>
      </trkpt>
      <trkpt lat="47.48391" lon="1.25343">
        <ele>103.2</ele>
        <time>2020-07-03T08:55:59Z</time>
      </trkpt>
      <trkpt lat="47.48388" lon="1.25341">
        <ele>103.3</ele>
        <time>2020-07-03T08:56:00Z</time>
      </trkpt>
      <trkpt lat="47.48385" lon="1.25338">
        <ele>103.4</ele>
        <time>2020-07-03T08:56:01Z</time>
      </trkpt>
      <trkpt lat="47.48382" lon="1.25335">
        <ele>103.5</ele>
        <time>2020-07-03T08:56:02Z</time>
      </trkpt>
      <trkpt lat="47.48379" lon="1.25332">
        <ele>103.6</ele>
        <time>2020-07-03T08:56:03Z</time>
      </trkpt>
      <trkpt lat="47.48376" lon="1.25329">
        <ele>103.7</ele>
        <time>2020-07-03T08:56:04Z</time>
      </trkpt>
      <trkpt lat="47.48373" lon="1.25326">
        <ele>103.8</ele>
        <time>2020-07-03T08:56:05Z</time>
      </trkpt>
      <trkpt lat="47.4837" lon="1.25322">
        <ele>103.9</ele>
        <time>2020-07-03T08:56:06Z</time>
      </trkpt>
      <trkpt lat="47.48368" lon="1.25318">
        <ele>103.9</ele>
        <time>2020-07-03T08:56:07Z</time>
      </trkpt>
      <trkpt lat="47.48365" lon="1.25315">
        <ele>104</ele>
        <time>2020-07-03T08:56:08Z</time>
      </trkpt>
      <trkpt lat="47.48361" lon="1.25311">
        <ele>104.1</ele>
        <time>2020-07-03T08:56:09Z</time>
      </trkpt>
      <trkpt lat="47.48358" lon="1.25307">
        <ele>104.2</ele>
        <time>2020-07-03T08:56:10Z</time>
      </trkpt>
      <trkpt lat="47.48355" lon="1.25303">
        <ele>104.3</ele>
        <time>2020-07-03T08:56:11Z</time>
      </trkpt>
      <trkpt lat="47.48352" lon="1.253">
        <ele>104.4</ele>
        <time>2020-07-03T08:56:12Z</time>
      </trkpt>
      <trkpt lat="47.4835" lon="1.25296">
        <ele>104.4</ele>
        <time>2020-07-03T08:56:13Z</time>
      </trkpt>
      <trkpt lat="47.48347" lon="1.25293">
        <ele>104.5</ele>
        <time>2020-07-03T08:56:14Z</time>
      </trkpt>
      <trkpt lat="47.48343" lon="1.25288">
        <ele>104.6</ele>
        <time>2020-07-03T08:56:15Z</time>
      </trkpt>
      <trkpt lat="47.48339" lon="1.25284">
        <ele>104.7</ele>
        <time>2020-07-03T08:56:16Z</time>
      </trkpt>
      <trkpt lat="47.48335" lon="1.25281">
        <ele>104.8</ele>
        <time>2020-07-03T08:56:17Z</time>
      </trkpt>
      <trkpt lat="47.48331" lon="1.25277">
        <ele>104.9</ele>
        <time>2020-07-03T08:56:18Z</time>
      </trkpt>
      <trkpt lat="47.48328" lon="1.25274">
        <ele>105</ele>
        <time>2020-07-03T08:56:19Z</time>
      </trkpt>
      <trkpt lat="47.48325" lon="1.25271">
        <ele>105</ele>
        <time>2020-07-03T08:56:20Z</time>
      </trkpt>
      <trkpt lat="47.48322" lon="1.25267">
        <ele>105.1</ele>
        <time>2020-07-03T08:56:21Z</time>
      </trkpt>
      <trkpt lat="47.48319" lon="1.25264">
        <ele>105.2</ele>
        <time>2020-07-03T08:56:22Z</time>
      </trkpt>
      <trkpt lat="47.48315" lon="1.2526">
        <ele>105.3</ele>
        <time>2020-07-03T08:56:23Z</time>
      </trkpt>
      <trkpt lat="47.48312" lon="1.25258">
        <ele>105.3</ele>
        <time>2020-07-03T08:56:24Z</time>
      </trkpt>
      <trkpt lat="47.48308" lon="1.25253">
        <ele>105.4</ele>
        <time>2020-07-03T08:56:25Z</time>
      </trkpt>
      <trkpt lat="47.48305" lon="1.25249">
        <ele>105.5</ele>
        <time>2020-07-03T08:56:26Z</time>
      </trkpt>
      <trkpt lat="47.48301" lon="1.25246">
        <ele>105.5</ele>
        <time>2020-07-03T08:56:27Z</time>
      </trkpt>
      <trkpt lat="47.48297" lon="1.25243">
        <ele>105.6</ele>
        <time>2020-07-03T08:56:28Z</time>
      </trkpt>
      <trkpt lat="47.48293" lon="1.25239">
        <ele>105.6</ele>
        <time>2020-07-03T08:56:29Z</time>
      </trkpt>
      <trkpt lat="47.4829" lon="1.25235">
        <ele>105.7</ele>
        <time>2020-07-03T08:56:30Z</time>
      </trkpt>
      <trkpt lat="47.48285" lon="1.25231">
        <ele>105.7</ele>
        <time>2020-07-03T08:56:31Z</time>
      </trkpt>
      <trkpt lat="47.48281" lon="1.25227">
        <ele>105.7</ele>
        <time>2020-07-03T08:56:32Z</time>
      </trkpt>
      <trkpt lat="47.48277" lon="1.25223">
        <ele>105.8</ele>
        <time>2020-07-03T08:56:33Z</time>
      </trkpt>
      <trkpt lat="47.48274" lon="1.25219">
        <ele>105.8</ele>
        <time>2020-07-03T08:56:34Z</time>
      </trkpt>
      <trkpt lat="47.48269" lon="1.25214">
        <ele>105.9</ele>
        <time>2020-07-03T08:56:35Z</time>
      </trkpt>
      <trkpt lat="47.48265" lon="1.25209">
        <ele>105.9</ele>
        <time>2020-07-03T08:56:36Z</time>
      </trkpt>
      <trkpt lat="47.48261" lon="1.25204">
        <ele>105.9</ele>
        <time>2020-07-03T08:56:37Z</time>
      </trkpt>
      <trkpt lat="47.48256" lon="1.25199">
        <ele>105.9</ele>
        <time>2020-07-03T08:56:38Z</time>
      </trkpt>
      <trkpt lat="47.48252" lon="1.25194">
        <ele>105.9</ele>
        <time>2020-07-03T08:56:39Z</time>
      </trkpt>
      <trkpt lat="47.48248" lon="1.2519">
        <ele>105.8</ele>
        <time>2020-07-03T08:56:40Z</time>
      </trkpt>
      <trkpt lat="47.48243" lon="1.25185">
        <ele>105.8</ele>
        <time>2020-07-03T08:56:41Z</time>
      </trkpt>
      <trkpt lat="47.48238" lon="1.25181">
        <ele>105.8</ele>
        <time>2020-07-03T08:56:42Z</time>
      </trkpt>
      <trkpt lat="47.48234" lon="1.25177">
        <ele>105.8</ele>
        <time>2020-07-03T08:56:43Z</time>
      </trkpt>
      <trkpt lat="47.48229" lon="1.25173">
        <ele>105.8</ele>
        <time>2020-07-03T08:56:44Z</time>
      </trkpt>
      <trkpt lat="47.48223" lon="1.25168">
        <ele>105.7</ele>
        <time>2020-07-03T08:56:45Z</time>
      </trkpt>
      <trkpt lat="47.48218" lon="1.25164">
        <ele>105.7</ele>
        <time>2020-07-03T08:56:46Z</time>
      </trkpt>
      <trkpt lat="47.48213" lon="1.25159">
        <ele>105.7</ele>
        <time>2020-07-03T08:56:47Z</time>
      </trkpt>
      <trkpt lat="47.48208" lon="1.25154">
        <ele>105.7</ele>
        <time>2020-07-03T08:56:48Z</time>
      </trkpt>
      <trkpt lat="47.48203" lon="1.25148">
        <ele>105.7</ele>
        <time>2020-07-03T08:56:49Z</time>
      </trkpt>
      <trkpt lat="47.48198" lon="1.25142">
        <ele>105.7</ele>
        <time>2020-07-03T08:56:50Z</time>
      </trkpt>
      <trkpt lat="47.48193" lon="1.25136">
        <ele>105.6</ele>
        <time>2020-07-03T08:56:51Z</time>
      </trkpt>
      <trkpt lat="47.48188" lon="1.2513">
        <ele>105.6</ele>
        <time>2020-07-03T08:56:52Z</time>
      </trkpt>
      <trkpt lat="47.48182" lon="1.25124">
        <ele>105.6</ele>
        <time>2020-07-03T08:56:53Z</time>
      </trkpt>
      <trkpt lat="47.48177" lon="1.25119">
        <ele>105.6</ele>
        <time>2020-07-03T08:56:54Z</time>
      </trkpt>
      <trkpt lat="47.48172" lon="1.25114">
        <ele>105.6</ele>
        <time>2020-07-03T08:56:55Z</time>
      </trkpt>
      <trkpt lat="47.48166" lon="1.2511">
        <ele>105.6</ele>
        <time>2020-07-03T08:56:56Z</time>
      </trkpt>
      <trkpt lat="47.48161" lon="1.25105">
        <ele>105.5</ele>
        <time>2020-07-03T08:56:57Z</time>
      </trkpt>
      <trkpt lat="47.48156" lon="1.251">
        <ele>105.5</ele>
        <time>2020-07-03T08:56:58Z</time>
      </trkpt>
      <trkpt lat="47.4815" lon="1.25095">
        <ele>105.5</ele>
        <time>2020-07-03T08:56:59Z</time>
      </trkpt>
      <trkpt lat="47.48145" lon="1.2509">
        <ele>105.5</ele>
        <time>2020-07-03T08:57:00Z</time>
      </trkpt>
      <trkpt lat="47.48139" lon="1.25086">
        <ele>105.5</ele>
        <time>2020-07-03T08:57:01Z</time>
      </trkpt>
      <trkpt lat="47.48134" lon="1.25081">
        <ele>105.5</ele>
        <time>2020-07-03T08:57:02Z</time>
      </trkpt>
      <trkpt lat="47.48129" lon="1.25077">
        <ele>105.5</ele>
        <time>2020-07-03T08:57:03Z</time>
      </trkpt>
      <trkpt lat="47.48124" lon="1.25073">
        <ele>105.5</ele>
        <time>2020-07-03T08:57:04Z</time>
      </trkpt>
      <trkpt lat="47.48119" lon="1.25068">
        <ele>105.5</ele>
        <time>2020-07-03T08:57:05Z</time>
      </trkpt>
      <trkpt lat="47.48114" lon="1.25062">
        <ele>105.5</ele>
        <time>2020-07-03T08:57:06Z</time>
      </trkpt>
      <trkpt lat="47.48109" lon="1.25057">
        <ele>105.5</ele>
        <time>2020-07-03T08:57:07Z</time>
      </trkpt>
      <trkpt lat="47.48104" lon="1.25052">
        <ele>105.5</ele>
        <time>2020-07-03T08:57:08Z</time>
      </trkpt>
      <trkpt lat="47.48099" lon="1.25047">
        <ele>105.5</ele>
        <time>2020-07-03T08:57:09Z</time>
      </trkpt>
      <trkpt lat="47.48093" lon="1.25042">
        <ele>105.5</ele>
        <time>2020-07-03T08:57:10Z</time>
      </trkpt>
      <trkpt lat="47.48088" lon="1.25037">
        <ele>105.5</ele>
        <time>2020-07-03T08:57:11Z</time>
      </trkpt>
      <trkpt lat="47.48082" lon="1.25031">
        <ele>105.5</ele>
        <time>2020-07-03T08:57:12Z</time>
      </trkpt>
      <trkpt lat="47.48077" lon="1.25026">
        <ele>105.5</ele>
        <time>2020-07-03T08:57:13Z</time>
      </trkpt>
      <trkpt lat="47.48073" lon="1.25021">
        <ele>105.4</ele>
        <time>2020-07-03T08:57:14Z</time>
      </trkpt>
      <trkpt lat="47.48068" lon="1.25016">
        <ele>105.4</ele>
        <time>2020-07-03T08:57:15Z</time>
      </trkpt>
      <trkpt lat="47.48062" lon="1.25011">
        <ele>105.4</ele>
        <time>2020-07-03T08:57:16Z</time>
      </trkpt>
      <trkpt lat="47.48056" lon="1.25007">
        <ele>105.3</ele>
        <time>2020-07-03T08:57:17Z</time>
      </trkpt>
      <trkpt lat="47.4805" lon="1.25003">
        <ele>105.3</ele>
        <time>2020-07-03T08:57:18Z</time>
      </trkpt>
      <trkpt lat="47.48045" lon="1.24997">
        <ele>105.3</ele>
        <time>2020-07-03T08:57:19Z</time>
      </trkpt>
      <trkpt lat="47.4804" lon="1.24992">
        <ele>105.3</ele>
        <time>2020-07-03T08:57:20Z</time>
      </trkpt>
      <trkpt lat="47.48034" lon="1.24987">
        <ele>105.3</ele>
        <time>2020-07-03T08:57:21Z</time>
      </trkpt>
      <trkpt lat="47.48028" lon="1.24981">
        <ele>105.3</ele>
        <time>2020-07-03T08:57:22Z</time>
      </trkpt>
      <trkpt lat="47.48021" lon="1.24975">
        <ele>105.3</ele>
        <time>2020-07-03T08:57:23Z</time>
      </trkpt>
      <trkpt lat="47.48015" lon="1.24969">
        <ele>105.4</ele>
        <time>2020-07-03T08:57:24Z</time>
      </trkpt>
      <trkpt lat="47.48009" lon="1.24964">
        <ele>105.4</ele>
        <time>2020-07-03T08:57:25Z</time>
      </trkpt>
      <trkpt lat="47.48002" lon="1.24957">
        <ele>105.5</ele>
        <time>2020-07-03T08:57:26Z</time>
      </trkpt>
      <trkpt lat="47.47996" lon="1.24951">
        <ele>105.5</ele>
        <time>2020-07-03T08:57:27Z</time>
      </trkpt>
      <trkpt lat="47.4799" lon="1.24947">
        <ele>105.5</ele>
        <time>2020-07-03T08:57:28Z</time>
      </trkpt>
      <trkpt lat="47.47985" lon="1.24942">
        <ele>105.5</ele>
        <time>2020-07-03T08:57:29Z</time>
      </trkpt>
      <trkpt lat="47.47979" lon="1.24937">
        <ele>105.5</ele>
        <time>2020-07-03T08:57:30Z</time>
      </trkpt>
      <trkpt lat="47.47973" lon="1.24932">
        <ele>105.5</ele>
        <time>2020-07-03T08:57:31Z</time>
      </trkpt>
      <trkpt lat="47.47967" lon="1.24927">
        <ele>105.5</ele>
        <time>2020-07-03T08:57:32Z</time>
      </trkpt>
      <trkpt lat="47.47963" lon="1.24922">
        <ele>105.5</ele>
        <time>2020-07-03T08:57:33Z</time>
      </trkpt>
      <trkpt lat="47.47958" lon="1.24916">
        <ele>105.5</ele>
        <time>2020-07-03T08:57:34Z</time>
      </trkpt>
      <trkpt lat="47.47953" lon="1.24911">
        <ele>105.5</ele>
        <time>2020-07-03T08:57:35Z</time>
      </trkpt>
      <trkpt lat="47.47948" lon="1.24905">
        <ele>105.5</ele>
        <time>2020-07-03T08:57:36Z</time>
      </trkpt>
      <trkpt lat="47.47942" lon="1.24899">
        <ele>105.4</ele>
        <time>2020-07-03T08:57:37Z</time>
      </trkpt>
      <trkpt lat="47.47936" lon="1.24894">
        <ele>105.4</ele>
        <time>2020-07-03T08:57:38Z</time>
      </trkpt>
      <trkpt lat="47.47931" lon="1.24889">
        <ele>105.4</ele>
        <time>2020-07-03T08:57:39Z</time>
      </trkpt>
      <trkpt lat="47.47925" lon="1.24883">
        <ele>105.4</ele>
        <time>2020-07-03T08:57:40Z</time>
      </trkpt>
      <trkpt lat="47.4792" lon="1.24877">
        <ele>105.4</ele>
        <time>2020-07-03T08:57:41Z</time>
      </trkpt>
      <trkpt lat="47.47913" lon="1.24872">
        <ele>105.4</ele>
        <time>2020-07-03T08:57:42Z</time>
      </trkpt>
      <trkpt lat="47.47906" lon="1.24866">
        <ele>105.4</ele>
        <time>2020-07-03T08:57:43Z</time>
      </trkpt>
      <trkpt lat="47.47901" lon="1.24861">
        <ele>105.4</ele>
        <time>2020-07-03T08:57:44Z</time>
      </trkpt>
      <trkpt lat="47.47895" lon="1.24856">
        <ele>105.4</ele>
        <time>2020-07-03T08:57:45Z</time>
      </trkpt>
      <trkpt lat="47.47889" lon="1.24852">
        <ele>105.3</ele>
        <time>2020-07-03T08:57:46Z</time>
      </trkpt>
      <trkpt lat="47.47882" lon="1.24848">
        <ele>105.3</ele>
        <time>2020-07-03T08:57:47Z</time>
      </trkpt>
      <trkpt lat="47.47875" lon="1.24845">
        <ele>105.3</ele>
        <time>2020-07-03T08:57:48Z</time>
      </trkpt>
      <trkpt lat="47.47868" lon="1.24842">
        <ele>105.3</ele>
        <time>2020-07-03T08:57:49Z</time>
      </trkpt>
      <trkpt lat="47.47862" lon="1.2484">
        <ele>105.3</ele>
        <time>2020-07-03T08:57:50Z</time>
      </trkpt>
      <trkpt lat="47.47855" lon="1.24839">
        <ele>105.2</ele>
        <time>2020-07-03T08:57:51Z</time>
      </trkpt>
      <trkpt lat="47.47849" lon="1.24838">
        <ele>105.2</ele>
        <time>2020-07-03T08:57:52Z</time>
      </trkpt>
      <trkpt lat="47.47842" lon="1.24837">
        <ele>105.1</ele>
        <time>2020-07-03T08:57:53Z</time>
      </trkpt>
      <trkpt lat="47.47836" lon="1.24836">
        <ele>105.1</ele>
        <time>2020-07-03T08:57:54Z</time>
      </trkpt>
      <trkpt lat="47.47829" lon="1.24835">
        <ele>105</ele>
        <time>2020-07-03T08:57:55Z</time>
      </trkpt>
      <trkpt lat="47.47822" lon="1.24836">
        <ele>104.8</ele>
        <time>2020-07-03T08:57:56Z</time>
      </trkpt>
      <trkpt lat="47.47816" lon="1.24837">
        <ele>104.7</ele>
        <time>2020-07-03T08:57:57Z</time>
      </trkpt>
      <trkpt lat="47.47808" lon="1.24838">
        <ele>104.6</ele>
        <time>2020-07-03T08:57:58Z</time>
      </trkpt>
      <trkpt lat="47.47801" lon="1.24838">
        <ele>104.5</ele>
        <time>2020-07-03T08:57:59Z</time>
      </trkpt>
      <trkpt lat="47.47795" lon="1.24838">
        <ele>104.4</ele>
        <time>2020-07-03T08:58:00Z</time>
      </trkpt>
      <trkpt lat="47.47787" lon="1.24839">
        <ele>104.3</ele>
        <time>2020-07-03T08:58:01Z</time>
      </trkpt>
      <trkpt lat="47.4778" lon="1.24839">
        <ele>104.2</ele>
        <time>2020-07-03T08:58:02Z</time>
      </trkpt>
      <trkpt lat="47.47772" lon="1.24839">
        <ele>104</ele>
        <time>2020-07-03T08:58:03Z</time>
      </trkpt>
      <trkpt lat="47.47765" lon="1.24839">
        <ele>103.9</ele>
        <time>2020-07-03T08:58:04Z</time>
      </trkpt>
      <trkpt lat="47.47757" lon="1.24839">
        <ele>103.7</ele>
        <time>2020-07-03T08:58:05Z</time>
      </trkpt>
      <trkpt lat="47.4775" lon="1.24838">
        <ele>103.5</ele>
        <time>2020-07-03T08:58:06Z</time>
      </trkpt>
      <trkpt lat="47.47742" lon="1.24839">
        <ele>103</ele>
        <time>2020-07-03T08:58:07Z</time>
      </trkpt>
      <trkpt lat="47.47735" lon="1.24839">
        <ele>102.7</ele>
        <time>2020-07-03T08:58:08Z</time>
      </trkpt>
      <trkpt lat="47.47728" lon="1.2484">
        <ele>102.5</ele>
        <time>2020-07-03T08:58:09Z</time>
      </trkpt>
      <trkpt lat="47.4772" lon="1.24837">
        <ele>102.4</ele>
        <time>2020-07-03T08:58:10Z</time>
      </trkpt>
      <trkpt lat="47.47713" lon="1.24835">
        <ele>102.2</ele>
        <time>2020-07-03T08:58:11Z</time>
      </trkpt>
      <trkpt lat="47.47705" lon="1.24834">
        <ele>102.1</ele>
        <time>2020-07-03T08:58:12Z</time>
      </trkpt>
      <trkpt lat="47.47698" lon="1.24834">
        <ele>102</ele>
        <time>2020-07-03T08:58:13Z</time>
      </trkpt>
      <trkpt lat="47.47691" lon="1.24833">
        <ele>101.9</ele>
        <time>2020-07-03T08:58:14Z</time>
      </trkpt>
      <trkpt lat="47.47684" lon="1.24833">
        <ele>101.7</ele>
        <time>2020-07-03T08:58:15Z</time>
      </trkpt>
      <trkpt lat="47.47676" lon="1.24833">
        <ele>101.6</ele>
        <time>2020-07-03T08:58:16Z</time>
      </trkpt>
      <trkpt lat="47.47669" lon="1.24833">
        <ele>101.5</ele>
        <time>2020-07-03T08:58:17Z</time>
      </trkpt>
      <trkpt lat="47.47661" lon="1.24832">
        <ele>101.4</ele>
        <time>2020-07-03T08:58:18Z</time>
      </trkpt>
      <trkpt lat="47.47654" lon="1.24831">
        <ele>101.3</ele>
        <time>2020-07-03T08:58:19Z</time>
      </trkpt>
      <trkpt lat="47.47647" lon="1.24829">
        <ele>101.2</ele>
        <time>2020-07-03T08:58:20Z</time>
      </trkpt>
      <trkpt lat="47.4764" lon="1.24827">
        <ele>101.2</ele>
        <time>2020-07-03T08:58:21Z</time>
      </trkpt>
      <trkpt lat="47.47633" lon="1.24824">
        <ele>101.2</ele>
        <time>2020-07-03T08:58:22Z</time>
      </trkpt>
      <trkpt lat="47.47627" lon="1.24819">
        <ele>101.2</ele>
        <time>2020-07-03T08:58:23Z</time>
      </trkpt>
      <trkpt lat="47.4762" lon="1.24813">
        <ele>101.1</ele>
        <time>2020-07-03T08:58:24Z</time>
      </trkpt>
      <trkpt lat="47.47615" lon="1.24807">
        <ele>101.1</ele>
        <time>2020-07-03T08:58:25Z</time>
      </trkpt>
      <trkpt lat="47.47609" lon="1.24801">
        <ele>101.1</ele>
        <time>2020-07-03T08:58:26Z</time>
      </trkpt>
      <trkpt lat="47.47603" lon="1.24795">
        <ele>101.1</ele>
        <time>2020-07-03T08:58:27Z</time>
      </trkpt>
      <trkpt lat="47.47598" lon="1.24789">
        <ele>101.2</ele>
        <time>2020-07-03T08:58:28Z</time>
      </trkpt>
      <trkpt lat="47.47592" lon="1.24783">
        <ele>101.2</ele>
        <time>2020-07-03T08:58:29Z</time>
      </trkpt>
      <trkpt lat="47.47586" lon="1.24778">
        <ele>101.3</ele>
        <time>2020-07-03T08:58:30Z</time>
      </trkpt>
      <trkpt lat="47.4758" lon="1.24771">
        <ele>101.3</ele>
        <time>2020-07-03T08:58:31Z</time>
      </trkpt>
      <trkpt lat="47.47574" lon="1.24767">
        <ele>101.4</ele>
        <time>2020-07-03T08:58:32Z</time>
      </trkpt>
      <trkpt lat="47.47569" lon="1.24763">
        <ele>101.5</ele>
        <time>2020-07-03T08:58:33Z</time>
      </trkpt>
      <trkpt lat="47.47563" lon="1.24758">
        <ele>101.6</ele>
        <time>2020-07-03T08:58:34Z</time>
      </trkpt>
      <trkpt lat="47.47557" lon="1.24754">
        <ele>101.7</ele>
        <time>2020-07-03T08:58:35Z</time>
      </trkpt>
      <trkpt lat="47.47551" lon="1.2475">
        <ele>101.8</ele>
        <time>2020-07-03T08:58:36Z</time>
      </trkpt>
      <trkpt lat="47.47545" lon="1.24748">
        <ele>102</ele>
        <time>2020-07-03T08:58:37Z</time>
      </trkpt>
      <trkpt lat="47.47539" lon="1.24745">
        <ele>102.1</ele>
        <time>2020-07-03T08:58:38Z</time>
      </trkpt>
      <trkpt lat="47.47533" lon="1.24742">
        <ele>102.2</ele>
        <time>2020-07-03T08:58:39Z</time>
      </trkpt>
      <trkpt lat="47.47527" lon="1.2474">
        <ele>102.3</ele>
        <time>2020-07-03T08:58:40Z</time>
      </trkpt>
      <trkpt lat="47.47521" lon="1.24737">
        <ele>102.4</ele>
        <time>2020-07-03T08:58:41Z</time>
      </trkpt>
      <trkpt lat="47.47515" lon="1.24735">
        <ele>102.5</ele>
        <time>2020-07-03T08:58:42Z</time>
      </trkpt>
      <trkpt lat="47.4751" lon="1.24733">
        <ele>102.6</ele>
        <time>2020-07-03T08:58:43Z</time>
      </trkpt>
      <trkpt lat="47.47504" lon="1.2473">
        <ele>102.7</ele>
        <time>2020-07-03T08:58:44Z</time>
      </trkpt>
      <trkpt lat="47.47499" lon="1.24728">
        <ele>102.8</ele>
        <time>2020-07-03T08:58:45Z</time>
      </trkpt>
      <trkpt lat="47.47493" lon="1.24725">
        <ele>102.9</ele>
        <time>2020-07-03T08:58:46Z</time>
      </trkpt>
      <trkpt lat="47.47488" lon="1.24722">
        <ele>103</ele>
        <time>2020-07-03T08:58:47Z</time>
      </trkpt>
      <trkpt lat="47.47483" lon="1.2472">
        <ele>103.1</ele>
        <time>2020-07-03T08:58:48Z</time>
      </trkpt>
      <trkpt lat="47.47475" lon="1.24716">
        <ele>103.2</ele>
        <time>2020-07-03T08:58:49Z</time>
      </trkpt>
      <trkpt lat="47.47469" lon="1.24712">
        <ele>103.3</ele>
        <time>2020-07-03T08:58:50Z</time>
      </trkpt>
      <trkpt lat="47.47463" lon="1.24709">
        <ele>103.4</ele>
        <time>2020-07-03T08:58:51Z</time>
      </trkpt>
      <trkpt lat="47.47457" lon="1.24708">
        <ele>103.5</ele>
        <time>2020-07-03T08:58:52Z</time>
      </trkpt>
      <trkpt lat="47.47452" lon="1.24705">
        <ele>103.6</ele>
        <time>2020-07-03T08:58:53Z</time>
      </trkpt>
      <trkpt lat="47.47445" lon="1.24702">
        <ele>103.7</ele>
        <time>2020-07-03T08:58:54Z</time>
      </trkpt>
      <trkpt lat="47.4744" lon="1.24701">
        <ele>103.8</ele>
        <time>2020-07-03T08:58:55Z</time>
      </trkpt>
      <trkpt lat="47.47434" lon="1.24698">
        <ele>103.9</ele>
        <time>2020-07-03T08:58:56Z</time>
      </trkpt>
      <trkpt lat="47.47427" lon="1.24696">
        <ele>103.9</ele>
        <time>2020-07-03T08:58:57Z</time>
      </trkpt>
      <trkpt lat="47.47422" lon="1.24693">
        <ele>104</ele>
        <time>2020-07-03T08:58:58Z</time>
      </trkpt>
      <trkpt lat="47.47417" lon="1.24691">
        <ele>104.1</ele>
        <time>2020-07-03T08:58:59Z</time>
      </trkpt>
      <trkpt lat="47.47411" lon="1.24687">
        <ele>104.1</ele>
        <time>2020-07-03T08:59:00Z</time>
      </trkpt>
      <trkpt lat="47.47406" lon="1.24685">
        <ele>104.2</ele>
        <time>2020-07-03T08:59:01Z</time>
      </trkpt>
      <trkpt lat="47.474" lon="1.24683">
        <ele>104.3</ele>
        <time>2020-07-03T08:59:02Z</time>
      </trkpt>
      <trkpt lat="47.47394" lon="1.2468">
        <ele>104.4</ele>
        <time>2020-07-03T08:59:03Z</time>
      </trkpt>
      <trkpt lat="47.47388" lon="1.24678">
        <ele>104.5</ele>
        <time>2020-07-03T08:59:04Z</time>
      </trkpt>
      <trkpt lat="47.47383" lon="1.24676">
        <ele>104.6</ele>
        <time>2020-07-03T08:59:05Z</time>
      </trkpt>
      <trkpt lat="47.47377" lon="1.24675">
        <ele>104.7</ele>
        <time>2020-07-03T08:59:06Z</time>
      </trkpt>
      <trkpt lat="47.47371" lon="1.24674">
        <ele>104.8</ele>
        <time>2020-07-03T08:59:07Z</time>
      </trkpt>
      <trkpt lat="47.47364" lon="1.24673">
        <ele>105</ele>
        <time>2020-07-03T08:59:08Z</time>
      </trkpt>
      <trkpt lat="47.47358" lon="1.24673">
        <ele>105.1</ele>
        <time>2020-07-03T08:59:09Z</time>
      </trkpt>
      <trkpt lat="47.47352" lon="1.24673">
        <ele>105.2</ele>
        <time>2020-07-03T08:59:10Z</time>
      </trkpt>
      <trkpt lat="47.47346" lon="1.24673">
        <ele>105.3</ele>
        <time>2020-07-03T08:59:11Z</time>
      </trkpt>
      <trkpt lat="47.47341" lon="1.24674">
        <ele>105.4</ele>
        <time>2020-07-03T08:59:12Z</time>
      </trkpt>
      <trkpt lat="47.47336" lon="1.24673">
        <ele>105.5</ele>
        <time>2020-07-03T08:59:13Z</time>
      </trkpt>
      <trkpt lat="47.4733" lon="1.24672">
        <ele>105.7</ele>
        <time>2020-07-03T08:59:14Z</time>
      </trkpt>
      <trkpt lat="47.47324" lon="1.24672">
        <ele>105.8</ele>
        <time>2020-07-03T08:59:15Z</time>
      </trkpt>
      <trkpt lat="47.47318" lon="1.24671">
        <ele>106</ele>
        <time>2020-07-03T08:59:16Z</time>
      </trkpt>
      <trkpt lat="47.47312" lon="1.24671">
        <ele>106.1</ele>
        <time>2020-07-03T08:59:17Z</time>
      </trkpt>
      <trkpt lat="47.47307" lon="1.24671">
        <ele>106.2</ele>
        <time>2020-07-03T08:59:18Z</time>
      </trkpt>
      <trkpt lat="47.47303" lon="1.2467">
        <ele>106.3</ele>
        <time>2020-07-03T08:59:19Z</time>
      </trkpt>
      <trkpt lat="47.47298" lon="1.2467">
        <ele>106.4</ele>
        <time>2020-07-03T08:59:20Z</time>
      </trkpt>
      <trkpt lat="47.47293" lon="1.2467">
        <ele>106.5</ele>
        <time>2020-07-03T08:59:21Z</time>
      </trkpt>
      <trkpt lat="47.47287" lon="1.2467">
        <ele>106.7</ele>
        <time>2020-07-03T08:59:22Z</time>
      </trkpt>
      <trkpt lat="47.47282" lon="1.24671">
        <ele>106.8</ele>
        <time>2020-07-03T08:59:23Z</time>
      </trkpt>
      <trkpt lat="47.47276" lon="1.2467">
        <ele>107</ele>
        <time>2020-07-03T08:59:24Z</time>
      </trkpt>
      <trkpt lat="47.47272" lon="1.2467">
        <ele>107.1</ele>
        <time>2020-07-03T08:59:25Z</time>
      </trkpt>
      <trkpt lat="47.47266" lon="1.2467">
        <ele>107.2</ele>
        <time>2020-07-03T08:59:26Z</time>
      </trkpt>
      <trkpt lat="47.47261" lon="1.2467">
        <ele>107.3</ele>
        <time>2020-07-03T08:59:27Z</time>
      </trkpt>
      <trkpt lat="47.47257" lon="1.2467">
        <ele>107.3</ele>
        <time>2020-07-03T08:59:28Z</time>
      </trkpt>
      <trkpt lat="47.47252" lon="1.24671">
        <ele>107.4</ele>
        <time>2020-07-03T08:59:29Z</time>
      </trkpt>
      <trkpt lat="47.47246" lon="1.24671">
        <ele>107.4</ele>
        <time>2020-07-03T08:59:30Z</time>
      </trkpt>
      <trkpt lat="47.4724" lon="1.24674">
        <ele>107.5</ele>
        <time>2020-07-03T08:59:31Z</time>
      </trkpt>
      <trkpt lat="47.47235" lon="1.24675">
        <ele>107.6</ele>
        <time>2020-07-03T08:59:32Z</time>
      </trkpt>
      <trkpt lat="47.47231" lon="1.24676">
        <ele>107.6</ele>
        <time>2020-07-03T08:59:33Z</time>
      </trkpt>
      <trkpt lat="47.47226" lon="1.24677">
        <ele>107.7</ele>
        <time>2020-07-03T08:59:34Z</time>
      </trkpt>
      <trkpt lat="47.4722" lon="1.24678">
        <ele>107.8</ele>
        <time>2020-07-03T08:59:35Z</time>
      </trkpt>
      <trkpt lat="47.47215" lon="1.24678">
        <ele>107.8</ele>
        <time>2020-07-03T08:59:36Z</time>
      </trkpt>
      <trkpt lat="47.4721" lon="1.2468">
        <ele>107.9</ele>
        <time>2020-07-03T08:59:37Z</time>
      </trkpt>
      <trkpt lat="47.47205" lon="1.24681">
        <ele>108</ele>
        <time>2020-07-03T08:59:38Z</time>
      </trkpt>
      <trkpt lat="47.47198" lon="1.24682">
        <ele>108.1</ele>
        <time>2020-07-03T08:59:39Z</time>
      </trkpt>
      <trkpt lat="47.47193" lon="1.24683">
        <ele>108.1</ele>
        <time>2020-07-03T08:59:40Z</time>
      </trkpt>
      <trkpt lat="47.47189" lon="1.24684">
        <ele>108.2</ele>
        <time>2020-07-03T08:59:41Z</time>
      </trkpt>
      <trkpt lat="47.47183" lon="1.24685">
        <ele>108.3</ele>
        <time>2020-07-03T08:59:42Z</time>
      </trkpt>
      <trkpt lat="47.47178" lon="1.24683">
        <ele>108.3</ele>
        <time>2020-07-03T08:59:43Z</time>
      </trkpt>
      <trkpt lat="47.47173" lon="1.24684">
        <ele>108.3</ele>
        <time>2020-07-03T08:59:44Z</time>
      </trkpt>
      <trkpt lat="47.47168" lon="1.24685">
        <ele>108.4</ele>
        <time>2020-07-03T08:59:45Z</time>
      </trkpt>
      <trkpt lat="47.47162" lon="1.24686">
        <ele>108.4</ele>
        <time>2020-07-03T08:59:46Z</time>
      </trkpt>
      <trkpt lat="47.47157" lon="1.24687">
        <ele>108.4</ele>
        <time>2020-07-03T08:59:47Z</time>
      </trkpt>
      <trkpt lat="47.47151" lon="1.24685">
        <ele>108.5</ele>
        <time>2020-07-03T08:59:48Z</time>
      </trkpt>
      <trkpt lat="47.47145" lon="1.24685">
        <ele>108.5</ele>
        <time>2020-07-03T08:59:49Z</time>
      </trkpt>
      <trkpt lat="47.4714" lon="1.24685">
        <ele>108.6</ele>
        <time>2020-07-03T08:59:50Z</time>
      </trkpt>
      <trkpt lat="47.47136" lon="1.24685">
        <ele>108.6</ele>
        <time>2020-07-03T08:59:51Z</time>
      </trkpt>
      <trkpt lat="47.47129" lon="1.24682">
        <ele>108.7</ele>
        <time>2020-07-03T08:59:52Z</time>
      </trkpt>
      <trkpt lat="47.47123" lon="1.2468">
        <ele>108.8</ele>
        <time>2020-07-03T08:59:53Z</time>
      </trkpt>
      <trkpt lat="47.47117" lon="1.24678">
        <ele>108.9</ele>
        <time>2020-07-03T08:59:54Z</time>
      </trkpt>
      <trkpt lat="47.47112" lon="1.24676">
        <ele>108.9</ele>
        <time>2020-07-03T08:59:55Z</time>
      </trkpt>
      <trkpt lat="47.47107" lon="1.24675">
        <ele>109</ele>
        <time>2020-07-03T08:59:56Z</time>
      </trkpt>
      <trkpt lat="47.47101" lon="1.24674">
        <ele>109</ele>
        <time>2020-07-03T08:59:57Z</time>
      </trkpt>
      <trkpt lat="47.47097" lon="1.24673">
        <ele>109.1</ele>
        <time>2020-07-03T08:59:58Z</time>
      </trkpt>
      <trkpt lat="47.47092" lon="1.24673">
        <ele>109.1</ele>
        <time>2020-07-03T08:59:59Z</time>
      </trkpt>
      <trkpt lat="47.47087" lon="1.24672">
        <ele>109.2</ele>
        <time>2020-07-03T09:00:00Z</time>
      </trkpt>
      <trkpt lat="47.47082" lon="1.24671">
        <ele>109.3</ele>
        <time>2020-07-03T09:00:01Z</time>
      </trkpt>
      <trkpt lat="47.47077" lon="1.2467">
        <ele>109.3</ele>
        <time>2020-07-03T09:00:02Z</time>
      </trkpt>
      <trkpt lat="47.47072" lon="1.24668">
        <ele>109.4</ele>
        <time>2020-07-03T09:00:03Z</time>
      </trkpt>
      <trkpt lat="47.47066" lon="1.24667">
        <ele>109.4</ele>
        <time>2020-07-03T09:00:04Z</time>
      </trkpt>
      <trkpt lat="47.47062" lon="1.24666">
        <ele>109.4</ele>
        <time>2020-07-03T09:00:05Z</time>
      </trkpt>
      <trkpt lat="47.47057" lon="1.24664">
        <ele>109.5</ele>
        <time>2020-07-03T09:00:06Z</time>
      </trkpt>
      <trkpt lat="47.47051" lon="1.24663">
        <ele>109.5</ele>
        <time>2020-07-03T09:00:07Z</time>
      </trkpt>
      <trkpt lat="47.47045" lon="1.24661">
        <ele>109.6</ele>
        <time>2020-07-03T09:00:08Z</time>
      </trkpt>
      <trkpt lat="47.4704" lon="1.24658">
        <ele>109.6</ele>
        <time>2020-07-03T09:00:09Z</time>
      </trkpt>
      <trkpt lat="47.47035" lon="1.24656">
        <ele>109.7</ele>
        <time>2020-07-03T09:00:10Z</time>
      </trkpt>
      <trkpt lat="47.47029" lon="1.24653">
        <ele>109.7</ele>
        <time>2020-07-03T09:00:11Z</time>
      </trkpt>
      <trkpt lat="47.47024" lon="1.2465">
        <ele>109.8</ele>
        <time>2020-07-03T09:00:12Z</time>
      </trkpt>
      <trkpt lat="47.47019" lon="1.24647">
        <ele>109.9</ele>
        <time>2020-07-03T09:00:13Z</time>
      </trkpt>
      <trkpt lat="47.47015" lon="1.24644">
        <ele>110</ele>
        <time>2020-07-03T09:00:14Z</time>
      </trkpt>
      <trkpt lat="47.4701" lon="1.24641">
        <ele>110.1</ele>
        <time>2020-07-03T09:00:15Z</time>
      </trkpt>
      <trkpt lat="47.47005" lon="1.24637">
        <ele>110.2</ele>
        <time>2020-07-03T09:00:16Z</time>
      </trkpt>
      <trkpt lat="47.47001" lon="1.24631">
        <ele>110.3</ele>
        <time>2020-07-03T09:00:17Z</time>
      </trkpt>
      <trkpt lat="47.46996" lon="1.24627">
        <ele>110.4</ele>
        <time>2020-07-03T09:00:18Z</time>
      </trkpt>
      <trkpt lat="47.46992" lon="1.24621">
        <ele>110.5</ele>
        <time>2020-07-03T09:00:19Z</time>
      </trkpt>
      <trkpt lat="47.46988" lon="1.24617">
        <ele>110.6</ele>
        <time>2020-07-03T09:00:20Z</time>
      </trkpt>
      <trkpt lat="47.46984" lon="1.24613">
        <ele>110.6</ele>
        <time>2020-07-03T09:00:21Z</time>
      </trkpt>
      <trkpt lat="47.4698" lon="1.24608">
        <ele>110.7</ele>
        <time>2020-07-03T09:00:22Z</time>
      </trkpt>
      <trkpt lat="47.46976" lon="1.24604">
        <ele>110.6</ele>
        <time>2020-07-03T09:00:23Z</time>
      </trkpt>
      <trkpt lat="47.46971" lon="1.24598">
        <ele>110.5</ele>
        <time>2020-07-03T09:00:24Z</time>
      </trkpt>
      <trkpt lat="47.46967" lon="1.24591">
        <ele>110.4</ele>
        <time>2020-07-03T09:00:25Z</time>
      </trkpt>
      <trkpt lat="47.46961" lon="1.24584">
        <ele>110.3</ele>
        <time>2020-07-03T09:00:26Z</time>
      </trkpt>
      <trkpt lat="47.46957" lon="1.24578">
        <ele>110.2</ele>
        <time>2020-07-03T09:00:27Z</time>
      </trkpt>
      <trkpt lat="47.46952" lon="1.24569">
        <ele>110.1</ele>
        <time>2020-07-03T09:00:28Z</time>
      </trkpt>
      <trkpt lat="47.46947" lon="1.24562">
        <ele>110</ele>
        <time>2020-07-03T09:00:29Z</time>
      </trkpt>
      <trkpt lat="47.46942" lon="1.24556">
        <ele>110</ele>
        <time>2020-07-03T09:00:30Z</time>
      </trkpt>
      <trkpt lat="47.46937" lon="1.24549">
        <ele>109.9</ele>
        <time>2020-07-03T09:00:31Z</time>
      </trkpt>
      <trkpt lat="47.46931" lon="1.24542">
        <ele>109.8</ele>
        <time>2020-07-03T09:00:32Z</time>
      </trkpt>
      <trkpt lat="47.46926" lon="1.24534">
        <ele>109.7</ele>
        <time>2020-07-03T09:00:33Z</time>
      </trkpt>
      <trkpt lat="47.4692" lon="1.24527">
        <ele>109.7</ele>
        <time>2020-07-03T09:00:34Z</time>
      </trkpt>
      <trkpt lat="47.46915" lon="1.24519">
        <ele>109.6</ele>
        <time>2020-07-03T09:00:35Z</time>
      </trkpt>
      <trkpt lat="47.4691" lon="1.24511">
        <ele>109.6</ele>
        <time>2020-07-03T09:00:36Z</time>
      </trkpt>
      <trkpt lat="47.46905" lon="1.24504">
        <ele>109.5</ele>
        <time>2020-07-03T09:00:37Z</time>
      </trkpt>
      <trkpt lat="47.46901" lon="1.24497">
        <ele>109.4</ele>
        <time>2020-07-03T09:00:38Z</time>
      </trkpt>
      <trkpt lat="47.46895" lon="1.2449">
        <ele>109.4</ele>
        <time>2020-07-03T09:00:39Z</time>
      </trkpt>
      <trkpt lat="47.4689" lon="1.24484">
        <ele>109.3</ele>
        <time>2020-07-03T09:00:40Z</time>
      </trkpt>
      <trkpt lat="47.46885" lon="1.24476">
        <ele>109.2</ele>
        <time>2020-07-03T09:00:41Z</time>
      </trkpt>
      <trkpt lat="47.46879" lon="1.24468">
        <ele>109.2</ele>
        <time>2020-07-03T09:00:42Z</time>
      </trkpt>
      <trkpt lat="47.46875" lon="1.24461">
        <ele>109.1</ele>
        <time>2020-07-03T09:00:43Z</time>
      </trkpt>
      <trkpt lat="47.4687" lon="1.24454">
        <ele>109.1</ele>
        <time>2020-07-03T09:00:44Z</time>
      </trkpt>
      <trkpt lat="47.46865" lon="1.24447">
        <ele>109</ele>
        <time>2020-07-03T09:00:45Z</time>
      </trkpt>
      <trkpt lat="47.4686" lon="1.2444">
        <ele>109</ele>
        <time>2020-07-03T09:00:46Z</time>
      </trkpt>
      <trkpt lat="47.46855" lon="1.24433">
        <ele>108.9</ele>
        <time>2020-07-03T09:00:47Z</time>
      </trkpt>
      <trkpt lat="47.4685" lon="1.24427">
        <ele>108.9</ele>
        <time>2020-07-03T09:00:48Z</time>
      </trkpt>
      <trkpt lat="47.46845" lon="1.24421">
        <ele>108.9</ele>
        <time>2020-07-03T09:00:49Z</time>
      </trkpt>
      <trkpt lat="47.46841" lon="1.24413">
        <ele>108.8</ele>
        <time>2020-07-03T09:00:50Z</time>
      </trkpt>
      <trkpt lat="47.46836" lon="1.24406">
        <ele>108.8</ele>
        <time>2020-07-03T09:00:51Z</time>
      </trkpt>
      <trkpt lat="47.46831" lon="1.24399">
        <ele>108.8</ele>
        <time>2020-07-03T09:00:52Z</time>
      </trkpt>
      <trkpt lat="47.46826" lon="1.24392">
        <ele>108.7</ele>
        <time>2020-07-03T09:00:53Z</time>
      </trkpt>
      <trkpt lat="47.46821" lon="1.24385">
        <ele>108.7</ele>
        <time>2020-07-03T09:00:54Z</time>
      </trkpt>
      <trkpt lat="47.46816" lon="1.24379">
        <ele>108.6</ele>
        <time>2020-07-03T09:00:55Z</time>
      </trkpt>
      <trkpt lat="47.46811" lon="1.24372">
        <ele>108.5</ele>
        <time>2020-07-03T09:00:56Z</time>
      </trkpt>
      <trkpt lat="47.46806" lon="1.24365">
        <ele>108.5</ele>
        <time>2020-07-03T09:00:57Z</time>
      </trkpt>
      <trkpt lat="47.468" lon="1.24359">
        <ele>108.4</ele>
        <time>2020-07-03T09:00:58Z</time>
      </trkpt>
      <trkpt lat="47.46795" lon="1.24353">
        <ele>108.4</ele>
        <time>2020-07-03T09:00:59Z</time>
      </trkpt>
      <trkpt lat="47.46789" lon="1.24346">
        <ele>108.3</ele>
        <time>2020-07-03T09:01:00Z</time>
      </trkpt>
      <trkpt lat="47.46783" lon="1.24341">
        <ele>108.3</ele>
        <time>2020-07-03T09:01:01Z</time>
      </trkpt>
      <trkpt lat="47.46777" lon="1.24336">
        <ele>108.3</ele>
        <time>2020-07-03T09:01:02Z</time>
      </trkpt>
      <trkpt lat="47.46771" lon="1.2433">
        <ele>108.3</ele>
        <time>2020-07-03T09:01:03Z</time>
      </trkpt>
      <trkpt lat="47.46765" lon="1.24326">
        <ele>108.3</ele>
        <time>2020-07-03T09:01:04Z</time>
      </trkpt>
      <trkpt lat="47.46759" lon="1.24321">
        <ele>108.3</ele>
        <time>2020-07-03T09:01:05Z</time>
      </trkpt>
      <trkpt lat="47.46753" lon="1.24316">
        <ele>108.3</ele>
        <time>2020-07-03T09:01:06Z</time>
      </trkpt>
      <trkpt lat="47.46747" lon="1.24311">
        <ele>108.2</ele>
        <time>2020-07-03T09:01:07Z</time>
      </trkpt>
      <trkpt lat="47.46741" lon="1.24307">
        <ele>108.2</ele>
        <time>2020-07-03T09:01:08Z</time>
      </trkpt>
      <trkpt lat="47.46735" lon="1.24302">
        <ele>108.2</ele>
        <time>2020-07-03T09:01:09Z</time>
      </trkpt>
      <trkpt lat="47.46729" lon="1.24298">
        <ele>108.2</ele>
        <time>2020-07-03T09:01:10Z</time>
      </trkpt>
      <trkpt lat="47.46723" lon="1.24294">
        <ele>108.2</ele>
        <time>2020-07-03T09:01:11Z</time>
      </trkpt>
      <trkpt lat="47.46718" lon="1.24288">
        <ele>108.2</ele>
        <time>2020-07-03T09:01:12Z</time>
      </trkpt>
      <trkpt lat="47.46713" lon="1.24281">
        <ele>108.2</ele>
        <time>2020-07-03T09:01:13Z</time>
      </trkpt>
      <trkpt lat="47.46708" lon="1.24274">
        <ele>108.2</ele>
        <time>2020-07-03T09:01:14Z</time>
      </trkpt>
      <trkpt lat="47.46703" lon="1.24266">
        <ele>108.3</ele>
        <time>2020-07-03T09:01:15Z</time>
      </trkpt>
      <trkpt lat="47.46699" lon="1.24259">
        <ele>108.3</ele>
        <time>2020-07-03T09:01:16Z</time>
      </trkpt>
      <trkpt lat="47.46694" lon="1.24251">
        <ele>108.4</ele>
        <time>2020-07-03T09:01:17Z</time>
      </trkpt>
      <trkpt lat="47.4669" lon="1.24244">
        <ele>108.4</ele>
        <time>2020-07-03T09:01:18Z</time>
      </trkpt>
      <trkpt lat="47.46685" lon="1.24236">
        <ele>108.5</ele>
        <time>2020-07-03T09:01:19Z</time>
      </trkpt>
      <trkpt lat="47.46681" lon="1.24228">
        <ele>108.6</ele>
        <time>2020-07-03T09:01:20Z</time>
      </trkpt>
      <trkpt lat="47.46678" lon="1.2422">
        <ele>108.6</ele>
        <time>2020-07-03T09:01:21Z</time>
      </trkpt>
      <trkpt lat="47.46673" lon="1.24213">
        <ele>108.6</ele>
        <time>2020-07-03T09:01:22Z</time>
      </trkpt>
      <trkpt lat="47.46669" lon="1.24205">
        <ele>108.6</ele>
        <time>2020-07-03T09:01:23Z</time>
      </trkpt>
      <trkpt lat="47.46665" lon="1.24198">
        <ele>108.6</ele>
        <time>2020-07-03T09:01:24Z</time>
      </trkpt>
      <trkpt lat="47.46661" lon="1.24191">
        <ele>108.7</ele>
        <time>2020-07-03T09:01:25Z</time>
      </trkpt>
      <trkpt lat="47.46657" lon="1.24183">
        <ele>108.7</ele>
        <time>2020-07-03T09:01:26Z</time>
      </trkpt>
      <trkpt lat="47.46653" lon="1.24176">
        <ele>108.7</ele>
        <time>2020-07-03T09:01:27Z</time>
      </trkpt>
      <trkpt lat="47.46649" lon="1.2417">
        <ele>108.7</ele>
        <time>2020-07-03T09:01:28Z</time>
      </trkpt>
      <trkpt lat="47.46645" lon="1.24163">
        <ele>108.8</ele>
        <time>2020-07-03T09:01:29Z</time>
      </trkpt>
      <trkpt lat="47.46641" lon="1.24156">
        <ele>108.8</ele>
        <time>2020-07-03T09:01:30Z</time>
      </trkpt>
      <trkpt lat="47.46637" lon="1.24149">
        <ele>108.9</ele>
        <time>2020-07-03T09:01:31Z</time>
      </trkpt>
      <trkpt lat="47.46632" lon="1.24143">
        <ele>108.9</ele>
        <time>2020-07-03T09:01:32Z</time>
      </trkpt>
      <trkpt lat="47.46628" lon="1.24136">
        <ele>108.9</ele>
        <time>2020-07-03T09:01:33Z</time>
      </trkpt>
      <trkpt lat="47.46624" lon="1.2413">
        <ele>108.9</ele>
        <time>2020-07-03T09:01:34Z</time>
      </trkpt>
      <trkpt lat="47.4662" lon="1.24124">
        <ele>109</ele>
        <time>2020-07-03T09:01:35Z</time>
      </trkpt>
      <trkpt lat="47.46616" lon="1.24117">
        <ele>109</ele>
        <time>2020-07-03T09:01:36Z</time>
      </trkpt>
      <trkpt lat="47.46612" lon="1.2411">
        <ele>109</ele>
        <time>2020-07-03T09:01:37Z</time>
      </trkpt>
      <trkpt lat="47.46608" lon="1.24104">
        <ele>109</ele>
        <time>2020-07-03T09:01:38Z</time>
      </trkpt>
      <trkpt lat="47.46603" lon="1.24098">
        <ele>109</ele>
        <time>2020-07-03T09:01:39Z</time>
      </trkpt>
      <trkpt lat="47.46599" lon="1.24093">
        <ele>109</ele>
        <time>2020-07-03T09:01:40Z</time>
      </trkpt>
      <trkpt lat="47.46594" lon="1.24088">
        <ele>109</ele>
        <time>2020-07-03T09:01:41Z</time>
      </trkpt>
      <trkpt lat="47.4659" lon="1.24082">
        <ele>109</ele>
        <time>2020-07-03T09:01:42Z</time>
      </trkpt>
      <trkpt lat="47.46585" lon="1.24076">
        <ele>109</ele>
        <time>2020-07-03T09:01:43Z</time>
      </trkpt>
      <trkpt lat="47.4658" lon="1.2407">
        <ele>108.9</ele>
        <time>2020-07-03T09:01:44Z</time>
      </trkpt>
      <trkpt lat="47.46575" lon="1.24064">
        <ele>108.9</ele>
        <time>2020-07-03T09:01:45Z</time>
      </trkpt>
      <trkpt lat="47.46571" lon="1.24059">
        <ele>108.9</ele>
        <time>2020-07-03T09:01:46Z</time>
      </trkpt>
      <trkpt lat="47.46566" lon="1.24053">
        <ele>109</ele>
        <time>2020-07-03T09:01:47Z</time>
      </trkpt>
      <trkpt lat="47.46561" lon="1.24046">
        <ele>109</ele>
        <time>2020-07-03T09:01:48Z</time>
      </trkpt>
      <trkpt lat="47.46556" lon="1.24041">
        <ele>109</ele>
        <time>2020-07-03T09:01:49Z</time>
      </trkpt>
      <trkpt lat="47.46551" lon="1.24035">
        <ele>109</ele>
        <time>2020-07-03T09:01:50Z</time>
      </trkpt>
      <trkpt lat="47.46546" lon="1.2403">
        <ele>109</ele>
        <time>2020-07-03T09:01:51Z</time>
      </trkpt>
      <trkpt lat="47.46541" lon="1.24024">
        <ele>109</ele>
        <time>2020-07-03T09:01:52Z</time>
      </trkpt>
      <trkpt lat="47.46536" lon="1.24019">
        <ele>108.9</ele>
        <time>2020-07-03T09:01:53Z</time>
      </trkpt>
      <trkpt lat="47.46531" lon="1.24014">
        <ele>108.9</ele>
        <time>2020-07-03T09:01:54Z</time>
      </trkpt>
      <trkpt lat="47.46526" lon="1.24009">
        <ele>108.9</ele>
        <time>2020-07-03T09:01:55Z</time>
      </trkpt>
      <trkpt lat="47.46522" lon="1.24005">
        <ele>108.9</ele>
        <time>2020-07-03T09:01:56Z</time>
      </trkpt>
      <trkpt lat="47.46518" lon="1.24001">
        <ele>108.9</ele>
        <time>2020-07-03T09:01:57Z</time>
      </trkpt>
      <trkpt lat="47.46513" lon="1.23996">
        <ele>108.9</ele>
        <time>2020-07-03T09:01:58Z</time>
      </trkpt>
      <trkpt lat="47.46508" lon="1.2399">
        <ele>108.9</ele>
        <time>2020-07-03T09:01:59Z</time>
      </trkpt>
      <trkpt lat="47.46503" lon="1.23984">
        <ele>108.9</ele>
        <time>2020-07-03T09:02:00Z</time>
      </trkpt>
      <trkpt lat="47.46498" lon="1.23978">
        <ele>108.9</ele>
        <time>2020-07-03T09:02:01Z</time>
      </trkpt>
      <trkpt lat="47.46494" lon="1.23971">
        <ele>108.8</ele>
        <time>2020-07-03T09:02:02Z</time>
      </trkpt>
      <trkpt lat="47.46489" lon="1.23963">
        <ele>108.8</ele>
        <time>2020-07-03T09:02:03Z</time>
      </trkpt>
      <trkpt lat="47.46485" lon="1.23955">
        <ele>108.8</ele>
        <time>2020-07-03T09:02:04Z</time>
      </trkpt>
      <trkpt lat="47.46482" lon="1.23948">
        <ele>108.8</ele>
        <time>2020-07-03T09:02:05Z</time>
      </trkpt>
      <trkpt lat="47.46478" lon="1.23941">
        <ele>108.8</ele>
        <time>2020-07-03T09:02:06Z</time>
      </trkpt>
      <trkpt lat="47.46474" lon="1.23935">
        <ele>108.8</ele>
        <time>2020-07-03T09:02:07Z</time>
      </trkpt>
      <trkpt lat="47.46469" lon="1.23928">
        <ele>108.7</ele>
        <time>2020-07-03T09:02:08Z</time>
      </trkpt>
      <trkpt lat="47.46464" lon="1.23921">
        <ele>108.7</ele>
        <time>2020-07-03T09:02:09Z</time>
      </trkpt>
      <trkpt lat="47.46459" lon="1.23913">
        <ele>108.7</ele>
        <time>2020-07-03T09:02:10Z</time>
      </trkpt>
      <trkpt lat="47.46454" lon="1.23906">
        <ele>108.6</ele>
        <time>2020-07-03T09:02:11Z</time>
      </trkpt>
      <trkpt lat="47.46449" lon="1.23899">
        <ele>108.6</ele>
        <time>2020-07-03T09:02:12Z</time>
      </trkpt>
      <trkpt lat="47.46444" lon="1.23893">
        <ele>108.6</ele>
        <time>2020-07-03T09:02:13Z</time>
      </trkpt>
      <trkpt lat="47.46441" lon="1.23886">
        <ele>108.5</ele>
        <time>2020-07-03T09:02:14Z</time>
      </trkpt>
      <trkpt lat="47.46436" lon="1.23879">
        <ele>108.5</ele>
        <time>2020-07-03T09:02:15Z</time>
      </trkpt>
      <trkpt lat="47.46431" lon="1.23873">
        <ele>108.5</ele>
        <time>2020-07-03T09:02:16Z</time>
      </trkpt>
      <trkpt lat="47.46426" lon="1.23866">
        <ele>108.5</ele>
        <time>2020-07-03T09:02:17Z</time>
      </trkpt>
      <trkpt lat="47.46422" lon="1.23859">
        <ele>108.6</ele>
        <time>2020-07-03T09:02:18Z</time>
      </trkpt>
      <trkpt lat="47.46416" lon="1.23852">
        <ele>108.6</ele>
        <time>2020-07-03T09:02:19Z</time>
      </trkpt>
      <trkpt lat="47.46411" lon="1.23845">
        <ele>108.6</ele>
        <time>2020-07-03T09:02:20Z</time>
      </trkpt>
      <trkpt lat="47.46406" lon="1.2384">
        <ele>108.5</ele>
        <time>2020-07-03T09:02:21Z</time>
      </trkpt>
      <trkpt lat="47.46401" lon="1.23834">
        <ele>108.5</ele>
        <time>2020-07-03T09:02:22Z</time>
      </trkpt>
      <trkpt lat="47.46395" lon="1.23828">
        <ele>108.4</ele>
        <time>2020-07-03T09:02:23Z</time>
      </trkpt>
      <trkpt lat="47.46389" lon="1.23823">
        <ele>108.3</ele>
        <time>2020-07-03T09:02:24Z</time>
      </trkpt>
      <trkpt lat="47.46383" lon="1.23819">
        <ele>108.3</ele>
        <time>2020-07-03T09:02:25Z</time>
      </trkpt>
      <trkpt lat="47.46376" lon="1.23816">
        <ele>108.3</ele>
        <time>2020-07-03T09:02:26Z</time>
      </trkpt>
      <trkpt lat="47.4637" lon="1.23811">
        <ele>108.2</ele>
        <time>2020-07-03T09:02:27Z</time>
      </trkpt>
      <trkpt lat="47.46364" lon="1.23807">
        <ele>108.2</ele>
        <time>2020-07-03T09:02:28Z</time>
      </trkpt>
      <trkpt lat="47.46357" lon="1.23803">
        <ele>108.3</ele>
        <time>2020-07-03T09:02:29Z</time>
      </trkpt>
      <trkpt lat="47.46351" lon="1.238">
        <ele>108.2</ele>
        <time>2020-07-03T09:02:30Z</time>
      </trkpt>
      <trkpt lat="47.46345" lon="1.23796">
        <ele>108.2</ele>
        <time>2020-07-03T09:02:31Z</time>
      </trkpt>
      <trkpt lat="47.46339" lon="1.23793">
        <ele>108.1</ele>
        <time>2020-07-03T09:02:32Z</time>
      </trkpt>
      <trkpt lat="47.46333" lon="1.2379">
        <ele>108.1</ele>
        <time>2020-07-03T09:02:33Z</time>
      </trkpt>
      <trkpt lat="47.46327" lon="1.23787">
        <ele>108</ele>
        <time>2020-07-03T09:02:34Z</time>
      </trkpt>
      <trkpt lat="47.46321" lon="1.23785">
        <ele>108</ele>
        <time>2020-07-03T09:02:35Z</time>
      </trkpt>
      <trkpt lat="47.46315" lon="1.23782">
        <ele>107.9</ele>
        <time>2020-07-03T09:02:36Z</time>
      </trkpt>
      <trkpt lat="47.46309" lon="1.23778">
        <ele>107.9</ele>
        <time>2020-07-03T09:02:37Z</time>
      </trkpt>
      <trkpt lat="47.46303" lon="1.23774">
        <ele>107.9</ele>
        <time>2020-07-03T09:02:38Z</time>
      </trkpt>
      <trkpt lat="47.46298" lon="1.23771">
        <ele>107.8</ele>
        <time>2020-07-03T09:02:39Z</time>
      </trkpt>
      <trkpt lat="47.46291" lon="1.23769">
        <ele>107.8</ele>
        <time>2020-07-03T09:02:40Z</time>
      </trkpt>
      <trkpt lat="47.46286" lon="1.23765">
        <ele>107.7</ele>
        <time>2020-07-03T09:02:41Z</time>
      </trkpt>
      <trkpt lat="47.4628" lon="1.23761">
        <ele>107.7</ele>
        <time>2020-07-03T09:02:42Z</time>
      </trkpt>
      <trkpt lat="47.46274" lon="1.23757">
        <ele>107.7</ele>
        <time>2020-07-03T09:02:43Z</time>
      </trkpt>
      <trkpt lat="47.46268" lon="1.23753">
        <ele>107.7</ele>
        <time>2020-07-03T09:02:44Z</time>
      </trkpt>
      <trkpt lat="47.46262" lon="1.2375">
        <ele>107.7</ele>
        <time>2020-07-03T09:02:45Z</time>
      </trkpt>
      <trkpt lat="47.46257" lon="1.23747">
        <ele>107.6</ele>
        <time>2020-07-03T09:02:46Z</time>
      </trkpt>
      <trkpt lat="47.46251" lon="1.23743">
        <ele>107.5</ele>
        <time>2020-07-03T09:02:47Z</time>
      </trkpt>
      <trkpt lat="47.46246" lon="1.23737">
        <ele>107.5</ele>
        <time>2020-07-03T09:02:48Z</time>
      </trkpt>
      <trkpt lat="47.46242" lon="1.2373">
        <ele>107.4</ele>
        <time>2020-07-03T09:02:49Z</time>
      </trkpt>
      <trkpt lat="47.46238" lon="1.23724">
        <ele>107.4</ele>
        <time>2020-07-03T09:02:50Z</time>
      </trkpt>
      <trkpt lat="47.46235" lon="1.23721">
        <ele>107.4</ele>
        <time>2020-07-03T09:02:51Z</time>
      </trkpt>
      <trkpt lat="47.46231" lon="1.23715">
        <ele>107.4</ele>
        <time>2020-07-03T09:02:52Z</time>
      </trkpt>
      <trkpt lat="47.46227" lon="1.23706">
        <ele>107.3</ele>
        <time>2020-07-03T09:02:53Z</time>
      </trkpt>
      <trkpt lat="47.46222" lon="1.23701">
        <ele>107.3</ele>
        <time>2020-07-03T09:02:54Z</time>
      </trkpt>
      <trkpt lat="47.46218" lon="1.23695">
        <ele>107.3</ele>
        <time>2020-07-03T09:02:55Z</time>
      </trkpt>
      <trkpt lat="47.46213" lon="1.23689">
        <ele>107.3</ele>
        <time>2020-07-03T09:02:56Z</time>
      </trkpt>
      <trkpt lat="47.46209" lon="1.23681">
        <ele>107.3</ele>
        <time>2020-07-03T09:02:57Z</time>
      </trkpt>
      <trkpt lat="47.46205" lon="1.23674">
        <ele>107.3</ele>
        <time>2020-07-03T09:02:58Z</time>
      </trkpt>
      <trkpt lat="47.46201" lon="1.23667">
        <ele>107.3</ele>
        <time>2020-07-03T09:02:59Z</time>
      </trkpt>
      <trkpt lat="47.46196" lon="1.2366">
        <ele>107.3</ele>
        <time>2020-07-03T09:03:00Z</time>
      </trkpt>
      <trkpt lat="47.46192" lon="1.23654">
        <ele>107.2</ele>
        <time>2020-07-03T09:03:01Z</time>
      </trkpt>
      <trkpt lat="47.46188" lon="1.23647">
        <ele>107.2</ele>
        <time>2020-07-03T09:03:02Z</time>
      </trkpt>
      <trkpt lat="47.46183" lon="1.23641">
        <ele>107.2</ele>
        <time>2020-07-03T09:03:03Z</time>
      </trkpt>
      <trkpt lat="47.46179" lon="1.23635">
        <ele>107.2</ele>
        <time>2020-07-03T09:03:04Z</time>
      </trkpt>
      <trkpt lat="47.46174" lon="1.23628">
        <ele>107.2</ele>
        <time>2020-07-03T09:03:05Z</time>
      </trkpt>
      <trkpt lat="47.4617" lon="1.23622">
        <ele>107.1</ele>
        <time>2020-07-03T09:03:06Z</time>
      </trkpt>
      <trkpt lat="47.46165" lon="1.23616">
        <ele>107.1</ele>
        <time>2020-07-03T09:03:07Z</time>
      </trkpt>
      <trkpt lat="47.46161" lon="1.23609">
        <ele>107.1</ele>
        <time>2020-07-03T09:03:08Z</time>
      </trkpt>
      <trkpt lat="47.46155" lon="1.23602">
        <ele>107</ele>
        <time>2020-07-03T09:03:09Z</time>
      </trkpt>
      <trkpt lat="47.46152" lon="1.23597">
        <ele>107</ele>
        <time>2020-07-03T09:03:10Z</time>
      </trkpt>
      <trkpt lat="47.46148" lon="1.23591">
        <ele>106.9</ele>
        <time>2020-07-03T09:03:11Z</time>
      </trkpt>
      <trkpt lat="47.46144" lon="1.23584">
        <ele>106.9</ele>
        <time>2020-07-03T09:03:12Z</time>
      </trkpt>
      <trkpt lat="47.46139" lon="1.23577">
        <ele>106.9</ele>
        <time>2020-07-03T09:03:13Z</time>
      </trkpt>
      <trkpt lat="47.46134" lon="1.2357">
        <ele>106.8</ele>
        <time>2020-07-03T09:03:14Z</time>
      </trkpt>
      <trkpt lat="47.46129" lon="1.23562">
        <ele>106.8</ele>
        <time>2020-07-03T09:03:15Z</time>
      </trkpt>
      <trkpt lat="47.46124" lon="1.23556">
        <ele>106.8</ele>
        <time>2020-07-03T09:03:16Z</time>
      </trkpt>
      <trkpt lat="47.46119" lon="1.23547">
        <ele>106.8</ele>
        <time>2020-07-03T09:03:17Z</time>
      </trkpt>
      <trkpt lat="47.46115" lon="1.23541">
        <ele>106.8</ele>
        <time>2020-07-03T09:03:18Z</time>
      </trkpt>
      <trkpt lat="47.46112" lon="1.23535">
        <ele>106.8</ele>
        <time>2020-07-03T09:03:19Z</time>
      </trkpt>
      <trkpt lat="47.46107" lon="1.23528">
        <ele>106.8</ele>
        <time>2020-07-03T09:03:20Z</time>
      </trkpt>
      <trkpt lat="47.46102" lon="1.23524">
        <ele>106.7</ele>
        <time>2020-07-03T09:03:21Z</time>
      </trkpt>
      <trkpt lat="47.46098" lon="1.23518">
        <ele>106.7</ele>
        <time>2020-07-03T09:03:22Z</time>
      </trkpt>
      <trkpt lat="47.46093" lon="1.23512">
        <ele>106.7</ele>
        <time>2020-07-03T09:03:23Z</time>
      </trkpt>
      <trkpt lat="47.46089" lon="1.23506">
        <ele>106.6</ele>
        <time>2020-07-03T09:03:24Z</time>
      </trkpt>
      <trkpt lat="47.46084" lon="1.235">
        <ele>106.6</ele>
        <time>2020-07-03T09:03:25Z</time>
      </trkpt>
      <trkpt lat="47.46078" lon="1.23494">
        <ele>106.6</ele>
        <time>2020-07-03T09:03:26Z</time>
      </trkpt>
      <trkpt lat="47.46074" lon="1.23488">
        <ele>106.6</ele>
        <time>2020-07-03T09:03:27Z</time>
      </trkpt>
      <trkpt lat="47.46069" lon="1.23481">
        <ele>106.7</ele>
        <time>2020-07-03T09:03:28Z</time>
      </trkpt>
      <trkpt lat="47.46065" lon="1.23475">
        <ele>106.7</ele>
        <time>2020-07-03T09:03:29Z</time>
      </trkpt>
      <trkpt lat="47.4606" lon="1.2347">
        <ele>106.7</ele>
        <time>2020-07-03T09:03:30Z</time>
      </trkpt>
      <trkpt lat="47.46055" lon="1.23463">
        <ele>106.6</ele>
        <time>2020-07-03T09:03:31Z</time>
      </trkpt>
      <trkpt lat="47.46051" lon="1.23457">
        <ele>106.6</ele>
        <time>2020-07-03T09:03:32Z</time>
      </trkpt>
      <trkpt lat="47.46047" lon="1.23451">
        <ele>106.6</ele>
        <time>2020-07-03T09:03:33Z</time>
      </trkpt>
      <trkpt lat="47.46043" lon="1.23444">
        <ele>106.6</ele>
        <time>2020-07-03T09:03:34Z</time>
      </trkpt>
      <trkpt lat="47.4604" lon="1.23437">
        <ele>106.6</ele>
        <time>2020-07-03T09:03:35Z</time>
      </trkpt>
      <trkpt lat="47.46035" lon="1.23431">
        <ele>106.6</ele>
        <time>2020-07-03T09:03:36Z</time>
      </trkpt>
      <trkpt lat="47.46031" lon="1.23425">
        <ele>106.6</ele>
        <time>2020-07-03T09:03:37Z</time>
      </trkpt>
      <trkpt lat="47.46027" lon="1.23417">
        <ele>106.6</ele>
        <time>2020-07-03T09:03:38Z</time>
      </trkpt>
      <trkpt lat="47.46023" lon="1.23411">
        <ele>106.6</ele>
        <time>2020-07-03T09:03:39Z</time>
      </trkpt>
      <trkpt lat="47.46019" lon="1.23404">
        <ele>106.5</ele>
        <time>2020-07-03T09:03:40Z</time>
      </trkpt>
      <trkpt lat="47.46016" lon="1.23397">
        <ele>106.5</ele>
        <time>2020-07-03T09:03:41Z</time>
      </trkpt>
      <trkpt lat="47.46012" lon="1.23389">
        <ele>106.5</ele>
        <time>2020-07-03T09:03:42Z</time>
      </trkpt>
      <trkpt lat="47.46008" lon="1.23382">
        <ele>106.5</ele>
        <time>2020-07-03T09:03:43Z</time>
      </trkpt>
      <trkpt lat="47.46005" lon="1.23374">
        <ele>106.5</ele>
        <time>2020-07-03T09:03:44Z</time>
      </trkpt>
      <trkpt lat="47.46001" lon="1.23367">
        <ele>106.4</ele>
        <time>2020-07-03T09:03:45Z</time>
      </trkpt>
      <trkpt lat="47.45998" lon="1.23359">
        <ele>106.4</ele>
        <time>2020-07-03T09:03:46Z</time>
      </trkpt>
      <trkpt lat="47.45994" lon="1.23351">
        <ele>106.4</ele>
        <time>2020-07-03T09:03:47Z</time>
      </trkpt>
      <trkpt lat="47.45991" lon="1.23343">
        <ele>106.3</ele>
        <time>2020-07-03T09:03:48Z</time>
      </trkpt>
      <trkpt lat="47.45987" lon="1.23335">
        <ele>106.3</ele>
        <time>2020-07-03T09:03:49Z</time>
      </trkpt>
      <trkpt lat="47.45984" lon="1.23328">
        <ele>106.2</ele>
        <time>2020-07-03T09:03:50Z</time>
      </trkpt>
      <trkpt lat="47.4598" lon="1.23321">
        <ele>106.2</ele>
        <time>2020-07-03T09:03:51Z</time>
      </trkpt>
      <trkpt lat="47.45976" lon="1.23313">
        <ele>106.2</ele>
        <time>2020-07-03T09:03:52Z</time>
      </trkpt>
      <trkpt lat="47.45973" lon="1.23305">
        <ele>106.2</ele>
        <time>2020-07-03T09:03:53Z</time>
      </trkpt>
      <trkpt lat="47.4597" lon="1.23298">
        <ele>106.2</ele>
        <time>2020-07-03T09:03:54Z</time>
      </trkpt>
      <trkpt lat="47.45966" lon="1.23291">
        <ele>106.1</ele>
        <time>2020-07-03T09:03:55Z</time>
      </trkpt>
      <trkpt lat="47.45963" lon="1.23283">
        <ele>106.1</ele>
        <time>2020-07-03T09:03:56Z</time>
      </trkpt>
      <trkpt lat="47.4596" lon="1.23276">
        <ele>106</ele>
        <time>2020-07-03T09:03:57Z</time>
      </trkpt>
      <trkpt lat="47.45956" lon="1.23269">
        <ele>105.9</ele>
        <time>2020-07-03T09:03:58Z</time>
      </trkpt>
      <trkpt lat="47.45952" lon="1.23262">
        <ele>105.8</ele>
        <time>2020-07-03T09:03:59Z</time>
      </trkpt>
      <trkpt lat="47.45948" lon="1.23255">
        <ele>105.7</ele>
        <time>2020-07-03T09:04:00Z</time>
      </trkpt>
      <trkpt lat="47.45944" lon="1.23249">
        <ele>105.6</ele>
        <time>2020-07-03T09:04:01Z</time>
      </trkpt>
      <trkpt lat="47.4594" lon="1.23242">
        <ele>105.5</ele>
        <time>2020-07-03T09:04:02Z</time>
      </trkpt>
      <trkpt lat="47.45936" lon="1.23236">
        <ele>105.4</ele>
        <time>2020-07-03T09:04:03Z</time>
      </trkpt>
      <trkpt lat="47.45931" lon="1.23229">
        <ele>105.3</ele>
        <time>2020-07-03T09:04:04Z</time>
      </trkpt>
      <trkpt lat="47.45927" lon="1.23223">
        <ele>105.2</ele>
        <time>2020-07-03T09:04:05Z</time>
      </trkpt>
      <trkpt lat="47.45923" lon="1.23215">
        <ele>105.1</ele>
        <time>2020-07-03T09:04:06Z</time>
      </trkpt>
      <trkpt lat="47.45918" lon="1.23208">
        <ele>104.9</ele>
        <time>2020-07-03T09:04:07Z</time>
      </trkpt>
      <trkpt lat="47.45913" lon="1.23201">
        <ele>104.7</ele>
        <time>2020-07-03T09:04:08Z</time>
      </trkpt>
      <trkpt lat="47.45908" lon="1.23195">
        <ele>104.5</ele>
        <time>2020-07-03T09:04:09Z</time>
      </trkpt>
      <trkpt lat="47.45902" lon="1.23188">
        <ele>104.3</ele>
        <time>2020-07-03T09:04:10Z</time>
      </trkpt>
      <trkpt lat="47.45898" lon="1.23181">
        <ele>104.2</ele>
        <time>2020-07-03T09:04:11Z</time>
      </trkpt>
      <trkpt lat="47.45893" lon="1.23174">
        <ele>104</ele>
        <time>2020-07-03T09:04:12Z</time>
      </trkpt>
      <trkpt lat="47.45887" lon="1.23167">
        <ele>103.8</ele>
        <time>2020-07-03T09:04:13Z</time>
      </trkpt>
      <trkpt lat="47.45881" lon="1.2316">
        <ele>103.6</ele>
        <time>2020-07-03T09:04:14Z</time>
      </trkpt>
      <trkpt lat="47.45876" lon="1.23152">
        <ele>103.4</ele>
        <time>2020-07-03T09:04:15Z</time>
      </trkpt>
      <trkpt lat="47.45871" lon="1.23144">
        <ele>103.3</ele>
        <time>2020-07-03T09:04:16Z</time>
      </trkpt>
      <trkpt lat="47.45866" lon="1.23136">
        <ele>103</ele>
        <time>2020-07-03T09:04:17Z</time>
      </trkpt>
      <trkpt lat="47.45861" lon="1.23128">
        <ele>102.8</ele>
        <time>2020-07-03T09:04:18Z</time>
      </trkpt>
      <trkpt lat="47.45856" lon="1.2312">
        <ele>102.6</ele>
        <time>2020-07-03T09:04:19Z</time>
      </trkpt>
      <trkpt lat="47.45851" lon="1.23112">
        <ele>102.3</ele>
        <time>2020-07-03T09:04:20Z</time>
      </trkpt>
      <trkpt lat="47.45846" lon="1.23104">
        <ele>102.1</ele>
        <time>2020-07-03T09:04:21Z</time>
      </trkpt>
      <trkpt lat="47.45841" lon="1.23095">
        <ele>101.9</ele>
        <time>2020-07-03T09:04:22Z</time>
      </trkpt>
      <trkpt lat="47.45837" lon="1.23086">
        <ele>101.7</ele>
        <time>2020-07-03T09:04:23Z</time>
      </trkpt>
      <trkpt lat="47.45832" lon="1.23076">
        <ele>101.5</ele>
        <time>2020-07-03T09:04:24Z</time>
      </trkpt>
      <trkpt lat="47.45827" lon="1.23067">
        <ele>101.4</ele>
        <time>2020-07-03T09:04:25Z</time>
      </trkpt>
      <trkpt lat="47.45822" lon="1.23058">
        <ele>101.2</ele>
        <time>2020-07-03T09:04:26Z</time>
      </trkpt>
      <trkpt lat="47.45818" lon="1.23048">
        <ele>101.1</ele>
        <time>2020-07-03T09:04:27Z</time>
      </trkpt>
      <trkpt lat="47.45813" lon="1.23038">
        <ele>101</ele>
        <time>2020-07-03T09:04:28Z</time>
      </trkpt>
      <trkpt lat="47.45808" lon="1.2303">
        <ele>100.9</ele>
        <time>2020-07-03T09:04:29Z</time>
      </trkpt>
      <trkpt lat="47.45803" lon="1.23021">
        <ele>100.8</ele>
        <time>2020-07-03T09:04:30Z</time>
      </trkpt>
      <trkpt lat="47.45798" lon="1.23013">
        <ele>100.8</ele>
        <time>2020-07-03T09:04:31Z</time>
      </trkpt>
      <trkpt lat="47.45794" lon="1.23004">
        <ele>100.8</ele>
        <time>2020-07-03T09:04:32Z</time>
      </trkpt>
      <trkpt lat="47.4579" lon="1.22995">
        <ele>100.8</ele>
        <time>2020-07-03T09:04:33Z</time>
      </trkpt>
      <trkpt lat="47.45785" lon="1.22987">
        <ele>100.8</ele>
        <time>2020-07-03T09:04:34Z</time>
      </trkpt>
      <trkpt lat="47.45781" lon="1.22979">
        <ele>100.8</ele>
        <time>2020-07-03T09:04:35Z</time>
      </trkpt>
      <trkpt lat="47.45777" lon="1.22971">
        <ele>100.8</ele>
        <time>2020-07-03T09:04:36Z</time>
      </trkpt>
      <trkpt lat="47.45773" lon="1.22963">
        <ele>100.8</ele>
        <time>2020-07-03T09:04:37Z</time>
      </trkpt>
      <trkpt lat="47.45768" lon="1.22955">
        <ele>100.8</ele>
        <time>2020-07-03T09:04:38Z</time>
      </trkpt>
      <trkpt lat="47.45764" lon="1.22947">
        <ele>100.8</ele>
        <time>2020-07-03T09:04:39Z</time>
      </trkpt>
      <trkpt lat="47.4576" lon="1.22939">
        <ele>100.8</ele>
        <time>2020-07-03T09:04:40Z</time>
      </trkpt>
      <trkpt lat="47.45756" lon="1.22931">
        <ele>100.9</ele>
        <time>2020-07-03T09:04:41Z</time>
      </trkpt>
      <trkpt lat="47.45752" lon="1.22923">
        <ele>100.9</ele>
        <time>2020-07-03T09:04:42Z</time>
      </trkpt>
      <trkpt lat="47.45748" lon="1.22915">
        <ele>101</ele>
        <time>2020-07-03T09:04:43Z</time>
      </trkpt>
      <trkpt lat="47.45744" lon="1.22906">
        <ele>101</ele>
        <time>2020-07-03T09:04:44Z</time>
      </trkpt>
      <trkpt lat="47.4574" lon="1.22899">
        <ele>101.1</ele>
        <time>2020-07-03T09:04:45Z</time>
      </trkpt>
      <trkpt lat="47.45736" lon="1.22891">
        <ele>101.2</ele>
        <time>2020-07-03T09:04:46Z</time>
      </trkpt>
      <trkpt lat="47.45732" lon="1.22883">
        <ele>101.3</ele>
        <time>2020-07-03T09:04:47Z</time>
      </trkpt>
      <trkpt lat="47.45729" lon="1.22875">
        <ele>101.3</ele>
        <time>2020-07-03T09:04:48Z</time>
      </trkpt>
      <trkpt lat="47.45725" lon="1.22868">
        <ele>101.3</ele>
        <time>2020-07-03T09:04:49Z</time>
      </trkpt>
      <trkpt lat="47.4572" lon="1.22861">
        <ele>101.2</ele>
        <time>2020-07-03T09:04:50Z</time>
      </trkpt>
      <trkpt lat="47.45717" lon="1.22854">
        <ele>101.2</ele>
        <time>2020-07-03T09:04:51Z</time>
      </trkpt>
      <trkpt lat="47.45713" lon="1.22846">
        <ele>101.2</ele>
        <time>2020-07-03T09:04:52Z</time>
      </trkpt>
      <trkpt lat="47.45709" lon="1.22839">
        <ele>101.3</ele>
        <time>2020-07-03T09:04:53Z</time>
      </trkpt>
      <trkpt lat="47.45705" lon="1.22832">
        <ele>101.3</ele>
        <time>2020-07-03T09:04:54Z</time>
      </trkpt>
      <trkpt lat="47.45701" lon="1.22824">
        <ele>101.3</ele>
        <time>2020-07-03T09:04:55Z</time>
      </trkpt>
      <trkpt lat="47.45697" lon="1.22816">
        <ele>101.3</ele>
        <time>2020-07-03T09:04:56Z</time>
      </trkpt>
      <trkpt lat="47.45693" lon="1.22808">
        <ele>101.3</ele>
        <time>2020-07-03T09:04:57Z</time>
      </trkpt>
      <trkpt lat="47.45689" lon="1.22801">
        <ele>101.2</ele>
        <time>2020-07-03T09:04:58Z</time>
      </trkpt>
      <trkpt lat="47.45685" lon="1.22794">
        <ele>101.2</ele>
        <time>2020-07-03T09:04:59Z</time>
      </trkpt>
      <trkpt lat="47.45681" lon="1.22785">
        <ele>101.2</ele>
        <time>2020-07-03T09:05:00Z</time>
      </trkpt>
      <trkpt lat="47.45677" lon="1.22777">
        <ele>101.2</ele>
        <time>2020-07-03T09:05:01Z</time>
      </trkpt>
      <trkpt lat="47.45673" lon="1.22768">
        <ele>101.2</ele>
        <time>2020-07-03T09:05:02Z</time>
      </trkpt>
      <trkpt lat="47.45669" lon="1.22761">
        <ele>101.2</ele>
        <time>2020-07-03T09:05:03Z</time>
      </trkpt>
      <trkpt lat="47.45665" lon="1.22753">
        <ele>101.2</ele>
        <time>2020-07-03T09:05:04Z</time>
      </trkpt>
      <trkpt lat="47.45662" lon="1.22744">
        <ele>101.2</ele>
        <time>2020-07-03T09:05:05Z</time>
      </trkpt>
      <trkpt lat="47.45658" lon="1.22736">
        <ele>101.2</ele>
        <time>2020-07-03T09:05:06Z</time>
      </trkpt>
      <trkpt lat="47.45655" lon="1.22728">
        <ele>101.1</ele>
        <time>2020-07-03T09:05:07Z</time>
      </trkpt>
      <trkpt lat="47.45651" lon="1.22719">
        <ele>101.1</ele>
        <time>2020-07-03T09:05:08Z</time>
      </trkpt>
      <trkpt lat="47.45648" lon="1.22711">
        <ele>101</ele>
        <time>2020-07-03T09:05:09Z</time>
      </trkpt>
      <trkpt lat="47.45645" lon="1.22702">
        <ele>101</ele>
        <time>2020-07-03T09:05:10Z</time>
      </trkpt>
      <trkpt lat="47.45643" lon="1.22694">
        <ele>101</ele>
        <time>2020-07-03T09:05:11Z</time>
      </trkpt>
      <trkpt lat="47.4564" lon="1.22686">
        <ele>101</ele>
        <time>2020-07-03T09:05:12Z</time>
      </trkpt>
      <trkpt lat="47.45638" lon="1.22677">
        <ele>101</ele>
        <time>2020-07-03T09:05:13Z</time>
      </trkpt>
      <trkpt lat="47.45636" lon="1.22668">
        <ele>101.1</ele>
        <time>2020-07-03T09:05:14Z</time>
      </trkpt>
      <trkpt lat="47.45634" lon="1.2266">
        <ele>101.1</ele>
        <time>2020-07-03T09:05:15Z</time>
      </trkpt>
      <trkpt lat="47.45632" lon="1.22651">
        <ele>101.2</ele>
        <time>2020-07-03T09:05:16Z</time>
      </trkpt>
      <trkpt lat="47.4563" lon="1.22642">
        <ele>101.2</ele>
        <time>2020-07-03T09:05:17Z</time>
      </trkpt>
      <trkpt lat="47.45629" lon="1.22635">
        <ele>101.2</ele>
        <time>2020-07-03T09:05:18Z</time>
      </trkpt>
      <trkpt lat="47.45627" lon="1.22625">
        <ele>101.2</ele>
        <time>2020-07-03T09:05:19Z</time>
      </trkpt>
      <trkpt lat="47.45626" lon="1.22616">
        <ele>101.1</ele>
        <time>2020-07-03T09:05:20Z</time>
      </trkpt>
      <trkpt lat="47.45624" lon="1.22608">
        <ele>101.1</ele>
        <time>2020-07-03T09:05:21Z</time>
      </trkpt>
      <trkpt lat="47.45623" lon="1.22601">
        <ele>101.1</ele>
        <time>2020-07-03T09:05:22Z</time>
      </trkpt>
      <trkpt lat="47.45622" lon="1.22591">
        <ele>101.1</ele>
        <time>2020-07-03T09:05:23Z</time>
      </trkpt>
      <trkpt lat="47.4562" lon="1.22583">
        <ele>101.1</ele>
        <time>2020-07-03T09:05:24Z</time>
      </trkpt>
      <trkpt lat="47.45618" lon="1.22572">
        <ele>101.1</ele>
        <time>2020-07-03T09:05:25Z</time>
      </trkpt>
      <trkpt lat="47.45617" lon="1.22566">
        <ele>101.1</ele>
        <time>2020-07-03T09:05:26Z</time>
      </trkpt>
      <trkpt lat="47.45616" lon="1.22556">
        <ele>101.2</ele>
        <time>2020-07-03T09:05:27Z</time>
      </trkpt>
      <trkpt lat="47.45614" lon="1.22547">
        <ele>101.2</ele>
        <time>2020-07-03T09:05:28Z</time>
      </trkpt>
      <trkpt lat="47.45613" lon="1.2254">
        <ele>101.2</ele>
        <time>2020-07-03T09:05:29Z</time>
      </trkpt>
      <trkpt lat="47.45612" lon="1.22532">
        <ele>101.2</ele>
        <time>2020-07-03T09:05:30Z</time>
      </trkpt>
      <trkpt lat="47.4561" lon="1.22522">
        <ele>101.2</ele>
        <time>2020-07-03T09:05:31Z</time>
      </trkpt>
      <trkpt lat="47.45609" lon="1.22512">
        <ele>101.3</ele>
        <time>2020-07-03T09:05:32Z</time>
      </trkpt>
      <trkpt lat="47.45608" lon="1.22504">
        <ele>101.3</ele>
        <time>2020-07-03T09:05:33Z</time>
      </trkpt>
      <trkpt lat="47.45605" lon="1.22494">
        <ele>101.3</ele>
        <time>2020-07-03T09:05:34Z</time>
      </trkpt>
      <trkpt lat="47.45604" lon="1.22487">
        <ele>101.3</ele>
        <time>2020-07-03T09:05:35Z</time>
      </trkpt>
      <trkpt lat="47.45601" lon="1.22478">
        <ele>101.3</ele>
        <time>2020-07-03T09:05:36Z</time>
      </trkpt>
      <trkpt lat="47.456" lon="1.22473">
        <ele>101.3</ele>
        <time>2020-07-03T09:05:37Z</time>
      </trkpt>
      <trkpt lat="47.45598" lon="1.22464">
        <ele>101.4</ele>
        <time>2020-07-03T09:05:38Z</time>
      </trkpt>
      <trkpt lat="47.45597" lon="1.22458">
        <ele>101.4</ele>
        <time>2020-07-03T09:05:39Z</time>
      </trkpt>
      <trkpt lat="47.45595" lon="1.22448">
        <ele>101.3</ele>
        <time>2020-07-03T09:05:40Z</time>
      </trkpt>
      <trkpt lat="47.45593" lon="1.22443">
        <ele>101.3</ele>
        <time>2020-07-03T09:05:41Z</time>
      </trkpt>
      <trkpt lat="47.45592" lon="1.22434">
        <ele>101.3</ele>
        <time>2020-07-03T09:05:42Z</time>
      </trkpt>
      <trkpt lat="47.4559" lon="1.22427">
        <ele>101.2</ele>
        <time>2020-07-03T09:05:43Z</time>
      </trkpt>
      <trkpt lat="47.45588" lon="1.22416">
        <ele>101.2</ele>
        <time>2020-07-03T09:05:44Z</time>
      </trkpt>
      <trkpt lat="47.45586" lon="1.22408">
        <ele>101.3</ele>
        <time>2020-07-03T09:05:45Z</time>
      </trkpt>
      <trkpt lat="47.45584" lon="1.22401">
        <ele>101.3</ele>
        <time>2020-07-03T09:05:46Z</time>
      </trkpt>
      <trkpt lat="47.45583" lon="1.22392">
        <ele>101.3</ele>
        <time>2020-07-03T09:05:47Z</time>
      </trkpt>
      <trkpt lat="47.45581" lon="1.22384">
        <ele>101.3</ele>
        <time>2020-07-03T09:05:48Z</time>
      </trkpt>
      <trkpt lat="47.45579" lon="1.22373">
        <ele>101.3</ele>
        <time>2020-07-03T09:05:49Z</time>
      </trkpt>
      <trkpt lat="47.45577" lon="1.22365">
        <ele>101.3</ele>
        <time>2020-07-03T09:05:50Z</time>
      </trkpt>
      <trkpt lat="47.45576" lon="1.22359">
        <ele>101.3</ele>
        <time>2020-07-03T09:05:51Z</time>
      </trkpt>
      <trkpt lat="47.45573" lon="1.22351">
        <ele>101.3</ele>
        <time>2020-07-03T09:05:52Z</time>
      </trkpt>
      <trkpt lat="47.45571" lon="1.22344">
        <ele>101.2</ele>
        <time>2020-07-03T09:05:53Z</time>
      </trkpt>
      <trkpt lat="47.45569" lon="1.22335">
        <ele>101.1</ele>
        <time>2020-07-03T09:05:54Z</time>
      </trkpt>
      <trkpt lat="47.45567" lon="1.22329">
        <ele>101.1</ele>
        <time>2020-07-03T09:05:55Z</time>
      </trkpt>
      <trkpt lat="47.45565" lon="1.22321">
        <ele>101</ele>
        <time>2020-07-03T09:05:56Z</time>
      </trkpt>
      <trkpt lat="47.45563" lon="1.22313">
        <ele>101</ele>
        <time>2020-07-03T09:05:57Z</time>
      </trkpt>
      <trkpt lat="47.45561" lon="1.22304">
        <ele>100.9</ele>
        <time>2020-07-03T09:05:58Z</time>
      </trkpt>
      <trkpt lat="47.45558" lon="1.22294">
        <ele>100.9</ele>
        <time>2020-07-03T09:05:59Z</time>
      </trkpt>
      <trkpt lat="47.45556" lon="1.22287">
        <ele>100.8</ele>
        <time>2020-07-03T09:06:00Z</time>
      </trkpt>
      <trkpt lat="47.45553" lon="1.2228">
        <ele>100.8</ele>
        <time>2020-07-03T09:06:01Z</time>
      </trkpt>
      <trkpt lat="47.45551" lon="1.22271">
        <ele>100.7</ele>
        <time>2020-07-03T09:06:02Z</time>
      </trkpt>
      <trkpt lat="47.45549" lon="1.22265">
        <ele>100.7</ele>
        <time>2020-07-03T09:06:03Z</time>
      </trkpt>
      <trkpt lat="47.45546" lon="1.22257">
        <ele>100.6</ele>
        <time>2020-07-03T09:06:04Z</time>
      </trkpt>
      <trkpt lat="47.45542" lon="1.22248">
        <ele>100.6</ele>
        <time>2020-07-03T09:06:05Z</time>
      </trkpt>
      <trkpt lat="47.45539" lon="1.2224">
        <ele>100.5</ele>
        <time>2020-07-03T09:06:06Z</time>
      </trkpt>
      <trkpt lat="47.45536" lon="1.22233">
        <ele>100.5</ele>
        <time>2020-07-03T09:06:07Z</time>
      </trkpt>
      <trkpt lat="47.45533" lon="1.22224">
        <ele>100.4</ele>
        <time>2020-07-03T09:06:08Z</time>
      </trkpt>
      <trkpt lat="47.4553" lon="1.22215">
        <ele>100.4</ele>
        <time>2020-07-03T09:06:09Z</time>
      </trkpt>
      <trkpt lat="47.45528" lon="1.2221">
        <ele>100.4</ele>
        <time>2020-07-03T09:06:10Z</time>
      </trkpt>
      <trkpt lat="47.45525" lon="1.22203">
        <ele>100.4</ele>
        <time>2020-07-03T09:06:11Z</time>
      </trkpt>
      <trkpt lat="47.45522" lon="1.22196">
        <ele>100.3</ele>
        <time>2020-07-03T09:06:12Z</time>
      </trkpt>
      <trkpt lat="47.4552" lon="1.22188">
        <ele>100.3</ele>
        <time>2020-07-03T09:06:13Z</time>
      </trkpt>
      <trkpt lat="47.45518" lon="1.22178">
        <ele>100.3</ele>
        <time>2020-07-03T09:06:14Z</time>
      </trkpt>
      <trkpt lat="47.45516" lon="1.22171">
        <ele>100.2</ele>
        <time>2020-07-03T09:06:15Z</time>
      </trkpt>
      <trkpt lat="47.45513" lon="1.22163">
        <ele>100.1</ele>
        <time>2020-07-03T09:06:16Z</time>
      </trkpt>
      <trkpt lat="47.4551" lon="1.22156">
        <ele>100.1</ele>
        <time>2020-07-03T09:06:17Z</time>
      </trkpt>
      <trkpt lat="47.45507" lon="1.22149">
        <ele>100</ele>
        <time>2020-07-03T09:06:18Z</time>
      </trkpt>
      <trkpt lat="47.45504" lon="1.2214">
        <ele>99.9</ele>
        <time>2020-07-03T09:06:19Z</time>
      </trkpt>
      <trkpt lat="47.45501" lon="1.22133">
        <ele>99.9</ele>
        <time>2020-07-03T09:06:20Z</time>
      </trkpt>
      <trkpt lat="47.45499" lon="1.22125">
        <ele>99.9</ele>
        <time>2020-07-03T09:06:21Z</time>
      </trkpt>
      <trkpt lat="47.45496" lon="1.22116">
        <ele>99.9</ele>
        <time>2020-07-03T09:06:22Z</time>
      </trkpt>
      <trkpt lat="47.45494" lon="1.22109">
        <ele>99.9</ele>
        <time>2020-07-03T09:06:23Z</time>
      </trkpt>
      <trkpt lat="47.45492" lon="1.221">
        <ele>99.9</ele>
        <time>2020-07-03T09:06:24Z</time>
      </trkpt>
      <trkpt lat="47.45489" lon="1.22092">
        <ele>99.8</ele>
        <time>2020-07-03T09:06:25Z</time>
      </trkpt>
      <trkpt lat="47.45487" lon="1.22084">
        <ele>99.8</ele>
        <time>2020-07-03T09:06:26Z</time>
      </trkpt>
      <trkpt lat="47.45485" lon="1.22075">
        <ele>99.7</ele>
        <time>2020-07-03T09:06:27Z</time>
      </trkpt>
      <trkpt lat="47.45483" lon="1.22067">
        <ele>99.6</ele>
        <time>2020-07-03T09:06:28Z</time>
      </trkpt>
      <trkpt lat="47.4548" lon="1.22059">
        <ele>99.6</ele>
        <time>2020-07-03T09:06:29Z</time>
      </trkpt>
      <trkpt lat="47.45477" lon="1.22051">
        <ele>99.6</ele>
        <time>2020-07-03T09:06:30Z</time>
      </trkpt>
      <trkpt lat="47.45476" lon="1.22042">
        <ele>99.5</ele>
        <time>2020-07-03T09:06:31Z</time>
      </trkpt>
      <trkpt lat="47.45473" lon="1.22034">
        <ele>99.5</ele>
        <time>2020-07-03T09:06:32Z</time>
      </trkpt>
      <trkpt lat="47.45471" lon="1.22026">
        <ele>99.4</ele>
        <time>2020-07-03T09:06:33Z</time>
      </trkpt>
      <trkpt lat="47.4547" lon="1.2202">
        <ele>99.4</ele>
        <time>2020-07-03T09:06:34Z</time>
      </trkpt>
      <trkpt lat="47.45468" lon="1.22011">
        <ele>99.3</ele>
        <time>2020-07-03T09:06:35Z</time>
      </trkpt>
      <trkpt lat="47.45466" lon="1.22001">
        <ele>99.3</ele>
        <time>2020-07-03T09:06:36Z</time>
      </trkpt>
      <trkpt lat="47.45463" lon="1.21993">
        <ele>99.3</ele>
        <time>2020-07-03T09:06:37Z</time>
      </trkpt>
      <trkpt lat="47.45461" lon="1.21984">
        <ele>99.3</ele>
        <time>2020-07-03T09:06:38Z</time>
      </trkpt>
      <trkpt lat="47.4546" lon="1.21976">
        <ele>99.3</ele>
        <time>2020-07-03T09:06:39Z</time>
      </trkpt>
      <trkpt lat="47.45458" lon="1.21968">
        <ele>99.3</ele>
        <time>2020-07-03T09:06:40Z</time>
      </trkpt>
      <trkpt lat="47.45456" lon="1.21961">
        <ele>99.2</ele>
        <time>2020-07-03T09:06:41Z</time>
      </trkpt>
      <trkpt lat="47.45454" lon="1.21953">
        <ele>99.2</ele>
        <time>2020-07-03T09:06:42Z</time>
      </trkpt>
      <trkpt lat="47.45452" lon="1.21944">
        <ele>99.2</ele>
        <time>2020-07-03T09:06:43Z</time>
      </trkpt>
      <trkpt lat="47.4545" lon="1.21935">
        <ele>99.1</ele>
        <time>2020-07-03T09:06:44Z</time>
      </trkpt>
      <trkpt lat="47.45448" lon="1.21928">
        <ele>99.1</ele>
        <time>2020-07-03T09:06:45Z</time>
      </trkpt>
      <trkpt lat="47.45447" lon="1.2192">
        <ele>99.1</ele>
        <time>2020-07-03T09:06:46Z</time>
      </trkpt>
      <trkpt lat="47.45444" lon="1.21909">
        <ele>99.1</ele>
        <time>2020-07-03T09:06:47Z</time>
      </trkpt>
      <trkpt lat="47.45442" lon="1.21901">
        <ele>99.1</ele>
        <time>2020-07-03T09:06:48Z</time>
      </trkpt>
      <trkpt lat="47.45441" lon="1.21896">
        <ele>99.1</ele>
        <time>2020-07-03T09:06:49Z</time>
      </trkpt>
      <trkpt lat="47.45439" lon="1.21889">
        <ele>99.1</ele>
        <time>2020-07-03T09:06:50Z</time>
      </trkpt>
      <trkpt lat="47.45437" lon="1.21881">
        <ele>99</ele>
        <time>2020-07-03T09:06:51Z</time>
      </trkpt>
      <trkpt lat="47.45437" lon="1.21873">
        <ele>99</ele>
        <time>2020-07-03T09:06:52Z</time>
      </trkpt>
      <trkpt lat="47.45435" lon="1.21864">
        <ele>99</ele>
        <time>2020-07-03T09:06:53Z</time>
      </trkpt>
      <trkpt lat="47.45433" lon="1.21856">
        <ele>99</ele>
        <time>2020-07-03T09:06:54Z</time>
      </trkpt>
      <trkpt lat="47.45431" lon="1.21846">
        <ele>99</ele>
        <time>2020-07-03T09:06:55Z</time>
      </trkpt>
      <trkpt lat="47.4543" lon="1.2184">
        <ele>99.1</ele>
        <time>2020-07-03T09:06:56Z</time>
      </trkpt>
      <trkpt lat="47.45428" lon="1.21832">
        <ele>99.1</ele>
        <time>2020-07-03T09:06:57Z</time>
      </trkpt>
      <trkpt lat="47.45427" lon="1.21824">
        <ele>99.2</ele>
        <time>2020-07-03T09:06:58Z</time>
      </trkpt>
      <trkpt lat="47.45425" lon="1.21816">
        <ele>99.2</ele>
        <time>2020-07-03T09:06:59Z</time>
      </trkpt>
      <trkpt lat="47.45423" lon="1.21808">
        <ele>99.3</ele>
        <time>2020-07-03T09:07:00Z</time>
      </trkpt>
      <trkpt lat="47.45421" lon="1.21799">
        <ele>99.4</ele>
        <time>2020-07-03T09:07:01Z</time>
      </trkpt>
      <trkpt lat="47.45418" lon="1.21793">
        <ele>99.5</ele>
        <time>2020-07-03T09:07:02Z</time>
      </trkpt>
      <trkpt lat="47.45416" lon="1.21785">
        <ele>99.7</ele>
        <time>2020-07-03T09:07:03Z</time>
      </trkpt>
      <trkpt lat="47.45415" lon="1.2178">
        <ele>99.8</ele>
        <time>2020-07-03T09:07:04Z</time>
      </trkpt>
      <trkpt lat="47.45413" lon="1.21774">
        <ele>100</ele>
        <time>2020-07-03T09:07:05Z</time>
      </trkpt>
      <trkpt lat="47.45412" lon="1.21767">
        <ele>100.2</ele>
        <time>2020-07-03T09:07:06Z</time>
      </trkpt>
      <trkpt lat="47.4541" lon="1.21762">
        <ele>100.3</ele>
        <time>2020-07-03T09:07:07Z</time>
      </trkpt>
      <trkpt lat="47.45408" lon="1.21758">
        <ele>100.5</ele>
        <time>2020-07-03T09:07:08Z</time>
      </trkpt>
      <trkpt lat="47.45404" lon="1.21755">
        <ele>100.4</ele>
        <time>2020-07-03T09:07:09Z</time>
      </trkpt>
      <trkpt lat="47.45399" lon="1.21756">
        <ele>100.2</ele>
        <time>2020-07-03T09:07:10Z</time>
      </trkpt>
      <trkpt lat="47.45394" lon="1.21756">
        <ele>100.1</ele>
        <time>2020-07-03T09:07:11Z</time>
      </trkpt>
      <trkpt lat="47.45388" lon="1.21756">
        <ele>100</ele>
        <time>2020-07-03T09:07:12Z</time>
      </trkpt>
      <trkpt lat="47.45384" lon="1.21757">
        <ele>99.9</ele>
        <time>2020-07-03T09:07:13Z</time>
      </trkpt>
      <trkpt lat="47.45379" lon="1.21758">
        <ele>99.8</ele>
        <time>2020-07-03T09:07:14Z</time>
      </trkpt>
      <trkpt lat="47.45372" lon="1.2176">
        <ele>99.7</ele>
        <time>2020-07-03T09:07:15Z</time>
      </trkpt>
      <trkpt lat="47.45368" lon="1.21761">
        <ele>99.7</ele>
        <time>2020-07-03T09:07:16Z</time>
      </trkpt>
      <trkpt lat="47.45362" lon="1.21761">
        <ele>99.6</ele>
        <time>2020-07-03T09:07:17Z</time>
      </trkpt>
      <trkpt lat="47.45357" lon="1.21762">
        <ele>99.6</ele>
        <time>2020-07-03T09:07:18Z</time>
      </trkpt>
      <trkpt lat="47.45351" lon="1.21762">
        <ele>99.6</ele>
        <time>2020-07-03T09:07:19Z</time>
      </trkpt>
      <trkpt lat="47.45346" lon="1.21763">
        <ele>99.6</ele>
        <time>2020-07-03T09:07:20Z</time>
      </trkpt>
      <trkpt lat="47.4534" lon="1.21763">
        <ele>99.6</ele>
        <time>2020-07-03T09:07:21Z</time>
      </trkpt>
      <trkpt lat="47.45335" lon="1.21764">
        <ele>99.6</ele>
        <time>2020-07-03T09:07:22Z</time>
      </trkpt>
      <trkpt lat="47.45329" lon="1.21764">
        <ele>99.7</ele>
        <time>2020-07-03T09:07:23Z</time>
      </trkpt>
      <trkpt lat="47.45323" lon="1.21766">
        <ele>99.7</ele>
        <time>2020-07-03T09:07:24Z</time>
      </trkpt>
      <trkpt lat="47.45317" lon="1.21767">
        <ele>99.7</ele>
        <time>2020-07-03T09:07:25Z</time>
      </trkpt>
      <trkpt lat="47.45311" lon="1.21768">
        <ele>99.7</ele>
        <time>2020-07-03T09:07:26Z</time>
      </trkpt>
      <trkpt lat="47.45306" lon="1.21769">
        <ele>99.7</ele>
        <time>2020-07-03T09:07:27Z</time>
      </trkpt>
      <trkpt lat="47.453" lon="1.2177">
        <ele>99.7</ele>
        <time>2020-07-03T09:07:28Z</time>
      </trkpt>
      <trkpt lat="47.45293" lon="1.21771">
        <ele>99.8</ele>
        <time>2020-07-03T09:07:29Z</time>
      </trkpt>
      <trkpt lat="47.45287" lon="1.21772">
        <ele>99.8</ele>
        <time>2020-07-03T09:07:30Z</time>
      </trkpt>
      <trkpt lat="47.45282" lon="1.21774">
        <ele>99.9</ele>
        <time>2020-07-03T09:07:31Z</time>
      </trkpt>
      <trkpt lat="47.45275" lon="1.21774">
        <ele>99.9</ele>
        <time>2020-07-03T09:07:32Z</time>
      </trkpt>
      <trkpt lat="47.45269" lon="1.21775">
        <ele>100</ele>
        <time>2020-07-03T09:07:33Z</time>
      </trkpt>
      <trkpt lat="47.45263" lon="1.21775">
        <ele>100</ele>
        <time>2020-07-03T09:07:34Z</time>
      </trkpt>
      <trkpt lat="47.45257" lon="1.21776">
        <ele>100.1</ele>
        <time>2020-07-03T09:07:35Z</time>
      </trkpt>
      <trkpt lat="47.45251" lon="1.21776">
        <ele>100.2</ele>
        <time>2020-07-03T09:07:36Z</time>
      </trkpt>
      <trkpt lat="47.45245" lon="1.21777">
        <ele>100.3</ele>
        <time>2020-07-03T09:07:37Z</time>
      </trkpt>
      <trkpt lat="47.45239" lon="1.21779">
        <ele>100.5</ele>
        <time>2020-07-03T09:07:38Z</time>
      </trkpt>
      <trkpt lat="47.45235" lon="1.2178">
        <ele>100.6</ele>
        <time>2020-07-03T09:07:39Z</time>
      </trkpt>
      <trkpt lat="47.45229" lon="1.21781">
        <ele>100.7</ele>
        <time>2020-07-03T09:07:40Z</time>
      </trkpt>
      <trkpt lat="47.45224" lon="1.21782">
        <ele>100.9</ele>
        <time>2020-07-03T09:07:41Z</time>
      </trkpt>
      <trkpt lat="47.45218" lon="1.21783">
        <ele>101</ele>
        <time>2020-07-03T09:07:42Z</time>
      </trkpt>
      <trkpt lat="47.45212" lon="1.21783">
        <ele>101.2</ele>
        <time>2020-07-03T09:07:43Z</time>
      </trkpt>
      <trkpt lat="47.45206" lon="1.21783">
        <ele>101.3</ele>
        <time>2020-07-03T09:07:44Z</time>
      </trkpt>
      <trkpt lat="47.45201" lon="1.21784">
        <ele>101.5</ele>
        <time>2020-07-03T09:07:45Z</time>
      </trkpt>
      <trkpt lat="47.45195" lon="1.21785">
        <ele>101.6</ele>
        <time>2020-07-03T09:07:46Z</time>
      </trkpt>
      <trkpt lat="47.4519" lon="1.21787">
        <ele>101.8</ele>
        <time>2020-07-03T09:07:47Z</time>
      </trkpt>
      <trkpt lat="47.45184" lon="1.21787">
        <ele>102.1</ele>
        <time>2020-07-03T09:07:48Z</time>
      </trkpt>
      <trkpt lat="47.45178" lon="1.21787">
        <ele>102.3</ele>
        <time>2020-07-03T09:07:49Z</time>
      </trkpt>
      <trkpt lat="47.45173" lon="1.21788">
        <ele>102.5</ele>
        <time>2020-07-03T09:07:50Z</time>
      </trkpt>
      <trkpt lat="47.45167" lon="1.21789">
        <ele>102.8</ele>
        <time>2020-07-03T09:07:51Z</time>
      </trkpt>
      <trkpt lat="47.45161" lon="1.21791">
        <ele>103.1</ele>
        <time>2020-07-03T09:07:52Z</time>
      </trkpt>
      <trkpt lat="47.45156" lon="1.21792">
        <ele>103.3</ele>
        <time>2020-07-03T09:07:53Z</time>
      </trkpt>
      <trkpt lat="47.45151" lon="1.21793">
        <ele>103.5</ele>
        <time>2020-07-03T09:07:54Z</time>
      </trkpt>
      <trkpt lat="47.45146" lon="1.21793">
        <ele>103.8</ele>
        <time>2020-07-03T09:07:55Z</time>
      </trkpt>
      <trkpt lat="47.45141" lon="1.21794">
        <ele>104</ele>
        <time>2020-07-03T09:07:56Z</time>
      </trkpt>
      <trkpt lat="47.45136" lon="1.21795">
        <ele>104.3</ele>
        <time>2020-07-03T09:07:57Z</time>
      </trkpt>
      <trkpt lat="47.45131" lon="1.21795">
        <ele>104.6</ele>
        <time>2020-07-03T09:07:58Z</time>
      </trkpt>
      <trkpt lat="47.45126" lon="1.21796">
        <ele>104.8</ele>
        <time>2020-07-03T09:07:59Z</time>
      </trkpt>
      <trkpt lat="47.45121" lon="1.21797">
        <ele>104.9</ele>
        <time>2020-07-03T09:08:00Z</time>
      </trkpt>
      <trkpt lat="47.45117" lon="1.21797">
        <ele>105.1</ele>
        <time>2020-07-03T09:08:01Z</time>
      </trkpt>
      <trkpt lat="47.45113" lon="1.21797">
        <ele>105.3</ele>
        <time>2020-07-03T09:08:02Z</time>
      </trkpt>
      <trkpt lat="47.45109" lon="1.21799">
        <ele>105.5</ele>
        <time>2020-07-03T09:08:03Z</time>
      </trkpt>
      <trkpt lat="47.45104" lon="1.218">
        <ele>105.7</ele>
        <time>2020-07-03T09:08:04Z</time>
      </trkpt>
      <trkpt lat="47.45101" lon="1.21801">
        <ele>105.9</ele>
        <time>2020-07-03T09:08:05Z</time>
      </trkpt>
      <trkpt lat="47.45097" lon="1.21802">
        <ele>106.1</ele>
        <time>2020-07-03T09:08:06Z</time>
      </trkpt>
      <trkpt lat="47.45093" lon="1.21803">
        <ele>106.3</ele>
        <time>2020-07-03T09:08:07Z</time>
      </trkpt>
      <trkpt lat="47.4509" lon="1.21804">
        <ele>106.5</ele>
        <time>2020-07-03T09:08:08Z</time>
      </trkpt>
      <trkpt lat="47.45086" lon="1.21804">
        <ele>106.7</ele>
        <time>2020-07-03T09:08:09Z</time>
      </trkpt>
      <trkpt lat="47.45082" lon="1.21804">
        <ele>106.9</ele>
        <time>2020-07-03T09:08:10Z</time>
      </trkpt>
      <trkpt lat="47.45078" lon="1.21804">
        <ele>107.2</ele>
        <time>2020-07-03T09:08:11Z</time>
      </trkpt>
      <trkpt lat="47.45073" lon="1.21805">
        <ele>107.4</ele>
        <time>2020-07-03T09:08:12Z</time>
      </trkpt>
      <trkpt lat="47.45069" lon="1.21805">
        <ele>107.7</ele>
        <time>2020-07-03T09:08:13Z</time>
      </trkpt>
      <trkpt lat="47.45064" lon="1.21806">
        <ele>107.9</ele>
        <time>2020-07-03T09:08:14Z</time>
      </trkpt>
      <trkpt lat="47.45059" lon="1.21807">
        <ele>108.2</ele>
        <time>2020-07-03T09:08:15Z</time>
      </trkpt>
      <trkpt lat="47.45055" lon="1.21807">
        <ele>108.4</ele>
        <time>2020-07-03T09:08:16Z</time>
      </trkpt>
      <trkpt lat="47.4505" lon="1.21807">
        <ele>108.6</ele>
        <time>2020-07-03T09:08:17Z</time>
      </trkpt>
      <trkpt lat="47.45046" lon="1.21808">
        <ele>108.8</ele>
        <time>2020-07-03T09:08:18Z</time>
      </trkpt>
      <trkpt lat="47.45041" lon="1.21809">
        <ele>109</ele>
        <time>2020-07-03T09:08:19Z</time>
      </trkpt>
      <trkpt lat="47.45036" lon="1.21809">
        <ele>109.2</ele>
        <time>2020-07-03T09:08:20Z</time>
      </trkpt>
      <trkpt lat="47.45032" lon="1.21809">
        <ele>109.4</ele>
        <time>2020-07-03T09:08:21Z</time>
      </trkpt>
      <trkpt lat="47.45027" lon="1.2181">
        <ele>109.6</ele>
        <time>2020-07-03T09:08:22Z</time>
      </trkpt>
      <trkpt lat="47.45023" lon="1.21811">
        <ele>109.7</ele>
        <time>2020-07-03T09:08:23Z</time>
      </trkpt>
      <trkpt lat="47.45018" lon="1.21812">
        <ele>109.9</ele>
        <time>2020-07-03T09:08:24Z</time>
      </trkpt>
      <trkpt lat="47.45014" lon="1.21812">
        <ele>110.1</ele>
        <time>2020-07-03T09:08:25Z</time>
      </trkpt>
      <trkpt lat="47.4501" lon="1.21811">
        <ele>110.2</ele>
        <time>2020-07-03T09:08:26Z</time>
      </trkpt>
      <trkpt lat="47.45005" lon="1.21812">
        <ele>110.4</ele>
        <time>2020-07-03T09:08:27Z</time>
      </trkpt>
      <trkpt lat="47.45001" lon="1.21812">
        <ele>110.5</ele>
        <time>2020-07-03T09:08:28Z</time>
      </trkpt>
      <trkpt lat="47.44998" lon="1.21814">
        <ele>110.6</ele>
        <time>2020-07-03T09:08:29Z</time>
      </trkpt>
      <trkpt lat="47.44994" lon="1.21815">
        <ele>110.8</ele>
        <time>2020-07-03T09:08:30Z</time>
      </trkpt>
      <trkpt lat="47.44991" lon="1.21814">
        <ele>110.9</ele>
        <time>2020-07-03T09:08:31Z</time>
      </trkpt>
      <trkpt lat="47.44988" lon="1.21814">
        <ele>111</ele>
        <time>2020-07-03T09:08:32Z</time>
      </trkpt>
      <trkpt lat="47.44984" lon="1.21816">
        <ele>111.1</ele>
        <time>2020-07-03T09:08:33Z</time>
      </trkpt>
      <trkpt lat="47.44981" lon="1.21818">
        <ele>111.2</ele>
        <time>2020-07-03T09:08:34Z</time>
      </trkpt>
      <trkpt lat="47.44977" lon="1.21818">
        <ele>111.3</ele>
        <time>2020-07-03T09:08:35Z</time>
      </trkpt>
      <trkpt lat="47.44973" lon="1.21819">
        <ele>111.4</ele>
        <time>2020-07-03T09:08:36Z</time>
      </trkpt>
      <trkpt lat="47.44968" lon="1.21821">
        <ele>111.6</ele>
        <time>2020-07-03T09:08:37Z</time>
      </trkpt>
      <trkpt lat="47.44964" lon="1.21821">
        <ele>111.7</ele>
        <time>2020-07-03T09:08:38Z</time>
      </trkpt>
      <trkpt lat="47.44959" lon="1.21821">
        <ele>111.8</ele>
        <time>2020-07-03T09:08:39Z</time>
      </trkpt>
      <trkpt lat="47.44954" lon="1.21823">
        <ele>111.9</ele>
        <time>2020-07-03T09:08:40Z</time>
      </trkpt>
      <trkpt lat="47.44949" lon="1.21824">
        <ele>112</ele>
        <time>2020-07-03T09:08:41Z</time>
      </trkpt>
      <trkpt lat="47.44943" lon="1.21824">
        <ele>112.1</ele>
        <time>2020-07-03T09:08:42Z</time>
      </trkpt>
      <trkpt lat="47.44938" lon="1.21825">
        <ele>112.2</ele>
        <time>2020-07-03T09:08:43Z</time>
      </trkpt>
      <trkpt lat="47.44932" lon="1.21826">
        <ele>112.3</ele>
        <time>2020-07-03T09:08:44Z</time>
      </trkpt>
      <trkpt lat="47.44927" lon="1.21825">
        <ele>112.4</ele>
        <time>2020-07-03T09:08:45Z</time>
      </trkpt>
      <trkpt lat="47.44922" lon="1.21827">
        <ele>112.5</ele>
        <time>2020-07-03T09:08:46Z</time>
      </trkpt>
      <trkpt lat="47.44917" lon="1.21828">
        <ele>112.5</ele>
        <time>2020-07-03T09:08:47Z</time>
      </trkpt>
      <trkpt lat="47.44912" lon="1.2183">
        <ele>112.6</ele>
        <time>2020-07-03T09:08:48Z</time>
      </trkpt>
      <trkpt lat="47.44907" lon="1.21831">
        <ele>112.6</ele>
        <time>2020-07-03T09:08:49Z</time>
      </trkpt>
      <trkpt lat="47.44902" lon="1.21833">
        <ele>112.7</ele>
        <time>2020-07-03T09:08:50Z</time>
      </trkpt>
      <trkpt lat="47.44898" lon="1.21835">
        <ele>112.7</ele>
        <time>2020-07-03T09:08:51Z</time>
      </trkpt>
      <trkpt lat="47.44893" lon="1.21836">
        <ele>112.7</ele>
        <time>2020-07-03T09:08:52Z</time>
      </trkpt>
      <trkpt lat="47.44889" lon="1.21836">
        <ele>112.7</ele>
        <time>2020-07-03T09:08:53Z</time>
      </trkpt>
      <trkpt lat="47.44884" lon="1.21838">
        <ele>112.7</ele>
        <time>2020-07-03T09:08:54Z</time>
      </trkpt>
      <trkpt lat="47.44878" lon="1.21839">
        <ele>112.7</ele>
        <time>2020-07-03T09:08:55Z</time>
      </trkpt>
      <trkpt lat="47.44873" lon="1.21841">
        <ele>112.7</ele>
        <time>2020-07-03T09:08:56Z</time>
      </trkpt>
      <trkpt lat="47.44867" lon="1.21842">
        <ele>112.7</ele>
        <time>2020-07-03T09:08:57Z</time>
      </trkpt>
      <trkpt lat="47.44861" lon="1.21843">
        <ele>112.8</ele>
        <time>2020-07-03T09:08:58Z</time>
      </trkpt>
      <trkpt lat="47.44855" lon="1.21843">
        <ele>112.8</ele>
        <time>2020-07-03T09:08:59Z</time>
      </trkpt>
      <trkpt lat="47.44849" lon="1.21845">
        <ele>112.8</ele>
        <time>2020-07-03T09:09:00Z</time>
      </trkpt>
      <trkpt lat="47.44843" lon="1.21845">
        <ele>112.8</ele>
        <time>2020-07-03T09:09:01Z</time>
      </trkpt>
      <trkpt lat="47.44837" lon="1.21845">
        <ele>112.8</ele>
        <time>2020-07-03T09:09:02Z</time>
      </trkpt>
      <trkpt lat="47.44831" lon="1.21846">
        <ele>112.8</ele>
        <time>2020-07-03T09:09:03Z</time>
      </trkpt>
      <trkpt lat="47.44825" lon="1.21847">
        <ele>112.8</ele>
        <time>2020-07-03T09:09:04Z</time>
      </trkpt>
      <trkpt lat="47.4482" lon="1.21847">
        <ele>112.8</ele>
        <time>2020-07-03T09:09:05Z</time>
      </trkpt>
      <trkpt lat="47.44814" lon="1.21847">
        <ele>112.8</ele>
        <time>2020-07-03T09:09:06Z</time>
      </trkpt>
      <trkpt lat="47.44809" lon="1.21848">
        <ele>112.8</ele>
        <time>2020-07-03T09:09:07Z</time>
      </trkpt>
      <trkpt lat="47.44803" lon="1.21849">
        <ele>112.8</ele>
        <time>2020-07-03T09:09:08Z</time>
      </trkpt>
      <trkpt lat="47.44797" lon="1.2185">
        <ele>112.8</ele>
        <time>2020-07-03T09:09:09Z</time>
      </trkpt>
      <trkpt lat="47.44791" lon="1.2185">
        <ele>112.9</ele>
        <time>2020-07-03T09:09:10Z</time>
      </trkpt>
      <trkpt lat="47.44785" lon="1.2185">
        <ele>112.9</ele>
        <time>2020-07-03T09:09:11Z</time>
      </trkpt>
      <trkpt lat="47.44778" lon="1.21852">
        <ele>112.9</ele>
        <time>2020-07-03T09:09:12Z</time>
      </trkpt>
      <trkpt lat="47.44773" lon="1.21852">
        <ele>112.9</ele>
        <time>2020-07-03T09:09:13Z</time>
      </trkpt>
      <trkpt lat="47.44767" lon="1.21854">
        <ele>112.8</ele>
        <time>2020-07-03T09:09:14Z</time>
      </trkpt>
      <trkpt lat="47.44761" lon="1.21856">
        <ele>112.7</ele>
        <time>2020-07-03T09:09:15Z</time>
      </trkpt>
      <trkpt lat="47.44756" lon="1.21857">
        <ele>112.7</ele>
        <time>2020-07-03T09:09:16Z</time>
      </trkpt>
      <trkpt lat="47.4475" lon="1.21858">
        <ele>112.6</ele>
        <time>2020-07-03T09:09:17Z</time>
      </trkpt>
      <trkpt lat="47.44744" lon="1.2186">
        <ele>112.6</ele>
        <time>2020-07-03T09:09:18Z</time>
      </trkpt>
      <trkpt lat="47.44738" lon="1.2186">
        <ele>112.6</ele>
        <time>2020-07-03T09:09:19Z</time>
      </trkpt>
      <trkpt lat="47.44732" lon="1.21861">
        <ele>112.6</ele>
        <time>2020-07-03T09:09:20Z</time>
      </trkpt>
      <trkpt lat="47.44727" lon="1.21862">
        <ele>112.6</ele>
        <time>2020-07-03T09:09:21Z</time>
      </trkpt>
      <trkpt lat="47.44721" lon="1.21862">
        <ele>112.5</ele>
        <time>2020-07-03T09:09:22Z</time>
      </trkpt>
      <trkpt lat="47.44715" lon="1.21863">
        <ele>112.5</ele>
        <time>2020-07-03T09:09:23Z</time>
      </trkpt>
      <trkpt lat="47.44708" lon="1.21864">
        <ele>112.5</ele>
        <time>2020-07-03T09:09:24Z</time>
      </trkpt>
      <trkpt lat="47.44702" lon="1.21866">
        <ele>112.4</ele>
        <time>2020-07-03T09:09:25Z</time>
      </trkpt>
      <trkpt lat="47.44695" lon="1.21867">
        <ele>112.4</ele>
        <time>2020-07-03T09:09:26Z</time>
      </trkpt>
      <trkpt lat="47.44689" lon="1.21867">
        <ele>112.3</ele>
        <time>2020-07-03T09:09:27Z</time>
      </trkpt>
      <trkpt lat="47.44683" lon="1.21868">
        <ele>112.3</ele>
        <time>2020-07-03T09:09:28Z</time>
      </trkpt>
      <trkpt lat="47.44677" lon="1.21868">
        <ele>112.3</ele>
        <time>2020-07-03T09:09:29Z</time>
      </trkpt>
      <trkpt lat="47.44671" lon="1.2187">
        <ele>112.3</ele>
        <time>2020-07-03T09:09:30Z</time>
      </trkpt>
      <trkpt lat="47.44664" lon="1.21872">
        <ele>112.3</ele>
        <time>2020-07-03T09:09:31Z</time>
      </trkpt>
      <trkpt lat="47.44658" lon="1.21874">
        <ele>112.2</ele>
        <time>2020-07-03T09:09:32Z</time>
      </trkpt>
      <trkpt lat="47.44651" lon="1.21874">
        <ele>112.2</ele>
        <time>2020-07-03T09:09:33Z</time>
      </trkpt>
      <trkpt lat="47.44645" lon="1.21874">
        <ele>112.2</ele>
        <time>2020-07-03T09:09:34Z</time>
      </trkpt>
      <trkpt lat="47.44639" lon="1.21875">
        <ele>112.2</ele>
        <time>2020-07-03T09:09:35Z</time>
      </trkpt>
      <trkpt lat="47.44633" lon="1.21877">
        <ele>112.2</ele>
        <time>2020-07-03T09:09:36Z</time>
      </trkpt>
      <trkpt lat="47.44627" lon="1.21878">
        <ele>112.2</ele>
        <time>2020-07-03T09:09:37Z</time>
      </trkpt>
      <trkpt lat="47.44621" lon="1.21879">
        <ele>112.2</ele>
        <time>2020-07-03T09:09:38Z</time>
      </trkpt>
      <trkpt lat="47.44615" lon="1.2188">
        <ele>112.1</ele>
        <time>2020-07-03T09:09:39Z</time>
      </trkpt>
      <trkpt lat="47.44608" lon="1.21881">
        <ele>112.1</ele>
        <time>2020-07-03T09:09:40Z</time>
      </trkpt>
      <trkpt lat="47.44602" lon="1.21881">
        <ele>112.1</ele>
        <time>2020-07-03T09:09:41Z</time>
      </trkpt>
      <trkpt lat="47.44595" lon="1.21882">
        <ele>112</ele>
        <time>2020-07-03T09:09:42Z</time>
      </trkpt>
      <trkpt lat="47.44589" lon="1.21883">
        <ele>112</ele>
        <time>2020-07-03T09:09:43Z</time>
      </trkpt>
      <trkpt lat="47.44582" lon="1.21883">
        <ele>112</ele>
        <time>2020-07-03T09:09:44Z</time>
      </trkpt>
      <trkpt lat="47.44576" lon="1.21883">
        <ele>112</ele>
        <time>2020-07-03T09:09:45Z</time>
      </trkpt>
      <trkpt lat="47.44569" lon="1.21884">
        <ele>112</ele>
        <time>2020-07-03T09:09:46Z</time>
      </trkpt>
      <trkpt lat="47.44563" lon="1.21884">
        <ele>112</ele>
        <time>2020-07-03T09:09:47Z</time>
      </trkpt>
      <trkpt lat="47.44557" lon="1.21884">
        <ele>112</ele>
        <time>2020-07-03T09:09:48Z</time>
      </trkpt>
      <trkpt lat="47.44551" lon="1.21884">
        <ele>112</ele>
        <time>2020-07-03T09:09:49Z</time>
      </trkpt>
      <trkpt lat="47.44545" lon="1.21884">
        <ele>112</ele>
        <time>2020-07-03T09:09:50Z</time>
      </trkpt>
      <trkpt lat="47.44538" lon="1.21885">
        <ele>112</ele>
        <time>2020-07-03T09:09:51Z</time>
      </trkpt>
      <trkpt lat="47.44532" lon="1.21885">
        <ele>112</ele>
        <time>2020-07-03T09:09:52Z</time>
      </trkpt>
      <trkpt lat="47.44525" lon="1.21885">
        <ele>112</ele>
        <time>2020-07-03T09:09:53Z</time>
      </trkpt>
      <trkpt lat="47.44519" lon="1.21885">
        <ele>111.9</ele>
        <time>2020-07-03T09:09:54Z</time>
      </trkpt>
      <trkpt lat="47.44513" lon="1.21885">
        <ele>111.9</ele>
        <time>2020-07-03T09:09:55Z</time>
      </trkpt>
      <trkpt lat="47.44507" lon="1.21885">
        <ele>111.9</ele>
        <time>2020-07-03T09:09:56Z</time>
      </trkpt>
      <trkpt lat="47.44501" lon="1.21884">
        <ele>111.9</ele>
        <time>2020-07-03T09:09:57Z</time>
      </trkpt>
      <trkpt lat="47.44494" lon="1.21884">
        <ele>111.8</ele>
        <time>2020-07-03T09:09:58Z</time>
      </trkpt>
      <trkpt lat="47.44488" lon="1.21884">
        <ele>111.8</ele>
        <time>2020-07-03T09:09:59Z</time>
      </trkpt>
      <trkpt lat="47.44482" lon="1.21884">
        <ele>111.8</ele>
        <time>2020-07-03T09:10:00Z</time>
      </trkpt>
      <trkpt lat="47.44476" lon="1.21884">
        <ele>111.8</ele>
        <time>2020-07-03T09:10:01Z</time>
      </trkpt>
      <trkpt lat="47.44468" lon="1.21884">
        <ele>111.8</ele>
        <time>2020-07-03T09:10:02Z</time>
      </trkpt>
      <trkpt lat="47.4446" lon="1.21884">
        <ele>111.8</ele>
        <time>2020-07-03T09:10:03Z</time>
      </trkpt>
      <trkpt lat="47.44453" lon="1.21884">
        <ele>111.8</ele>
        <time>2020-07-03T09:10:04Z</time>
      </trkpt>
      <trkpt lat="47.44446" lon="1.21884">
        <ele>111.8</ele>
        <time>2020-07-03T09:10:05Z</time>
      </trkpt>
      <trkpt lat="47.4444" lon="1.21884">
        <ele>111.8</ele>
        <time>2020-07-03T09:10:06Z</time>
      </trkpt>
      <trkpt lat="47.44433" lon="1.21883">
        <ele>111.8</ele>
        <time>2020-07-03T09:10:07Z</time>
      </trkpt>
      <trkpt lat="47.44427" lon="1.21883">
        <ele>111.8</ele>
        <time>2020-07-03T09:10:08Z</time>
      </trkpt>
      <trkpt lat="47.44419" lon="1.21882">
        <ele>111.8</ele>
        <time>2020-07-03T09:10:09Z</time>
      </trkpt>
      <trkpt lat="47.44414" lon="1.21881">
        <ele>111.8</ele>
        <time>2020-07-03T09:10:10Z</time>
      </trkpt>
      <trkpt lat="47.44409" lon="1.2188">
        <ele>111.8</ele>
        <time>2020-07-03T09:10:11Z</time>
      </trkpt>
      <trkpt lat="47.44403" lon="1.21882">
        <ele>111.8</ele>
        <time>2020-07-03T09:10:12Z</time>
      </trkpt>
      <trkpt lat="47.44397" lon="1.21883">
        <ele>111.8</ele>
        <time>2020-07-03T09:10:13Z</time>
      </trkpt>
      <trkpt lat="47.44391" lon="1.21883">
        <ele>111.8</ele>
        <time>2020-07-03T09:10:14Z</time>
      </trkpt>
      <trkpt lat="47.44386" lon="1.21883">
        <ele>111.8</ele>
        <time>2020-07-03T09:10:15Z</time>
      </trkpt>
      <trkpt lat="47.4438" lon="1.21883">
        <ele>111.8</ele>
        <time>2020-07-03T09:10:16Z</time>
      </trkpt>
      <trkpt lat="47.44374" lon="1.21883">
        <ele>111.8</ele>
        <time>2020-07-03T09:10:17Z</time>
      </trkpt>
      <trkpt lat="47.44368" lon="1.21884">
        <ele>111.8</ele>
        <time>2020-07-03T09:10:18Z</time>
      </trkpt>
      <trkpt lat="47.44361" lon="1.21885">
        <ele>111.8</ele>
        <time>2020-07-03T09:10:19Z</time>
      </trkpt>
      <trkpt lat="47.44353" lon="1.21884">
        <ele>111.7</ele>
        <time>2020-07-03T09:10:20Z</time>
      </trkpt>
      <trkpt lat="47.44348" lon="1.21884">
        <ele>111.7</ele>
        <time>2020-07-03T09:10:21Z</time>
      </trkpt>
      <trkpt lat="47.44342" lon="1.21884">
        <ele>111.7</ele>
        <time>2020-07-03T09:10:22Z</time>
      </trkpt>
      <trkpt lat="47.44336" lon="1.21884">
        <ele>111.6</ele>
        <time>2020-07-03T09:10:23Z</time>
      </trkpt>
      <trkpt lat="47.4433" lon="1.21883">
        <ele>111.6</ele>
        <time>2020-07-03T09:10:24Z</time>
      </trkpt>
      <trkpt lat="47.44324" lon="1.21883">
        <ele>111.5</ele>
        <time>2020-07-03T09:10:25Z</time>
      </trkpt>
      <trkpt lat="47.44318" lon="1.21882">
        <ele>111.5</ele>
        <time>2020-07-03T09:10:26Z</time>
      </trkpt>
      <trkpt lat="47.44311" lon="1.2188">
        <ele>111.5</ele>
        <time>2020-07-03T09:10:27Z</time>
      </trkpt>
      <trkpt lat="47.44305" lon="1.2188">
        <ele>111.4</ele>
        <time>2020-07-03T09:10:28Z</time>
      </trkpt>
      <trkpt lat="47.44298" lon="1.2188">
        <ele>111.4</ele>
        <time>2020-07-03T09:10:29Z</time>
      </trkpt>
      <trkpt lat="47.4429" lon="1.2188">
        <ele>111.3</ele>
        <time>2020-07-03T09:10:30Z</time>
      </trkpt>
      <trkpt lat="47.44283" lon="1.2188">
        <ele>111.3</ele>
        <time>2020-07-03T09:10:31Z</time>
      </trkpt>
      <trkpt lat="47.44277" lon="1.2188">
        <ele>111.2</ele>
        <time>2020-07-03T09:10:32Z</time>
      </trkpt>
      <trkpt lat="47.44269" lon="1.2188">
        <ele>111.2</ele>
        <time>2020-07-03T09:10:33Z</time>
      </trkpt>
      <trkpt lat="47.44262" lon="1.2188">
        <ele>111.2</ele>
        <time>2020-07-03T09:10:34Z</time>
      </trkpt>
      <trkpt lat="47.44256" lon="1.2188">
        <ele>111.1</ele>
        <time>2020-07-03T09:10:35Z</time>
      </trkpt>
      <trkpt lat="47.4425" lon="1.2188">
        <ele>111.1</ele>
        <time>2020-07-03T09:10:36Z</time>
      </trkpt>
      <trkpt lat="47.44243" lon="1.21879">
        <ele>111.1</ele>
        <time>2020-07-03T09:10:37Z</time>
      </trkpt>
      <trkpt lat="47.44235" lon="1.21878">
        <ele>111.1</ele>
        <time>2020-07-03T09:10:38Z</time>
      </trkpt>
      <trkpt lat="47.44228" lon="1.21877">
        <ele>111</ele>
        <time>2020-07-03T09:10:39Z</time>
      </trkpt>
      <trkpt lat="47.44222" lon="1.21878">
        <ele>110.9</ele>
        <time>2020-07-03T09:10:40Z</time>
      </trkpt>
      <trkpt lat="47.44216" lon="1.21878">
        <ele>110.9</ele>
        <time>2020-07-03T09:10:41Z</time>
      </trkpt>
      <trkpt lat="47.44209" lon="1.21878">
        <ele>110.8</ele>
        <time>2020-07-03T09:10:42Z</time>
      </trkpt>
      <trkpt lat="47.44202" lon="1.21878">
        <ele>110.7</ele>
        <time>2020-07-03T09:10:43Z</time>
      </trkpt>
      <trkpt lat="47.44195" lon="1.21877">
        <ele>110.6</ele>
        <time>2020-07-03T09:10:44Z</time>
      </trkpt>
      <trkpt lat="47.44188" lon="1.21876">
        <ele>110.6</ele>
        <time>2020-07-03T09:10:45Z</time>
      </trkpt>
      <trkpt lat="47.4418" lon="1.21877">
        <ele>110.5</ele>
        <time>2020-07-03T09:10:46Z</time>
      </trkpt>
      <trkpt lat="47.44173" lon="1.21877">
        <ele>110.5</ele>
        <time>2020-07-03T09:10:47Z</time>
      </trkpt>
      <trkpt lat="47.44166" lon="1.21877">
        <ele>110.4</ele>
        <time>2020-07-03T09:10:48Z</time>
      </trkpt>
      <trkpt lat="47.4416" lon="1.21878">
        <ele>110.4</ele>
        <time>2020-07-03T09:10:49Z</time>
      </trkpt>
      <trkpt lat="47.44154" lon="1.21878">
        <ele>110.4</ele>
        <time>2020-07-03T09:10:50Z</time>
      </trkpt>
      <trkpt lat="47.44147" lon="1.21878">
        <ele>110.3</ele>
        <time>2020-07-03T09:10:51Z</time>
      </trkpt>
      <trkpt lat="47.4414" lon="1.21878">
        <ele>110.3</ele>
        <time>2020-07-03T09:10:52Z</time>
      </trkpt>
      <trkpt lat="47.44134" lon="1.21878">
        <ele>110.3</ele>
        <time>2020-07-03T09:10:53Z</time>
      </trkpt>
      <trkpt lat="47.44127" lon="1.21879">
        <ele>110.3</ele>
        <time>2020-07-03T09:10:54Z</time>
      </trkpt>
      <trkpt lat="47.44121" lon="1.2188">
        <ele>110.3</ele>
        <time>2020-07-03T09:10:55Z</time>
      </trkpt>
      <trkpt lat="47.44115" lon="1.21881">
        <ele>110.3</ele>
        <time>2020-07-03T09:10:56Z</time>
      </trkpt>
      <trkpt lat="47.44108" lon="1.21882">
        <ele>110.3</ele>
        <time>2020-07-03T09:10:57Z</time>
      </trkpt>
      <trkpt lat="47.44103" lon="1.21883">
        <ele>110.2</ele>
        <time>2020-07-03T09:10:58Z</time>
      </trkpt>
      <trkpt lat="47.44097" lon="1.21883">
        <ele>110.2</ele>
        <time>2020-07-03T09:10:59Z</time>
      </trkpt>
      <trkpt lat="47.44091" lon="1.21882">
        <ele>110.2</ele>
        <time>2020-07-03T09:11:00Z</time>
      </trkpt>
      <trkpt lat="47.44084" lon="1.21882">
        <ele>110.2</ele>
        <time>2020-07-03T09:11:01Z</time>
      </trkpt>
      <trkpt lat="47.44078" lon="1.21882">
        <ele>110.2</ele>
        <time>2020-07-03T09:11:02Z</time>
      </trkpt>
      <trkpt lat="47.44072" lon="1.21882">
        <ele>110.2</ele>
        <time>2020-07-03T09:11:03Z</time>
      </trkpt>
      <trkpt lat="47.44065" lon="1.2188">
        <ele>110.1</ele>
        <time>2020-07-03T09:11:04Z</time>
      </trkpt>
      <trkpt lat="47.44059" lon="1.21879">
        <ele>110.1</ele>
        <time>2020-07-03T09:11:05Z</time>
      </trkpt>
      <trkpt lat="47.44052" lon="1.21879">
        <ele>110</ele>
        <time>2020-07-03T09:11:06Z</time>
      </trkpt>
      <trkpt lat="47.44045" lon="1.21878">
        <ele>110</ele>
        <time>2020-07-03T09:11:07Z</time>
      </trkpt>
      <trkpt lat="47.44037" lon="1.21878">
        <ele>109.9</ele>
        <time>2020-07-03T09:11:08Z</time>
      </trkpt>
      <trkpt lat="47.44031" lon="1.21878">
        <ele>109.9</ele>
        <time>2020-07-03T09:11:09Z</time>
      </trkpt>
      <trkpt lat="47.44024" lon="1.21877">
        <ele>109.8</ele>
        <time>2020-07-03T09:11:10Z</time>
      </trkpt>
      <trkpt lat="47.44017" lon="1.21877">
        <ele>109.8</ele>
        <time>2020-07-03T09:11:11Z</time>
      </trkpt>
      <trkpt lat="47.4401" lon="1.21877">
        <ele>109.7</ele>
        <time>2020-07-03T09:11:12Z</time>
      </trkpt>
      <trkpt lat="47.44003" lon="1.21876">
        <ele>109.7</ele>
        <time>2020-07-03T09:11:13Z</time>
      </trkpt>
      <trkpt lat="47.43997" lon="1.21875">
        <ele>109.6</ele>
        <time>2020-07-03T09:11:14Z</time>
      </trkpt>
      <trkpt lat="47.43991" lon="1.21875">
        <ele>109.6</ele>
        <time>2020-07-03T09:11:15Z</time>
      </trkpt>
      <trkpt lat="47.43986" lon="1.21874">
        <ele>109.6</ele>
        <time>2020-07-03T09:11:16Z</time>
      </trkpt>
      <trkpt lat="47.43978" lon="1.21873">
        <ele>109.5</ele>
        <time>2020-07-03T09:11:17Z</time>
      </trkpt>
      <trkpt lat="47.43971" lon="1.21872">
        <ele>109.4</ele>
        <time>2020-07-03T09:11:18Z</time>
      </trkpt>
      <trkpt lat="47.43964" lon="1.21873">
        <ele>109.4</ele>
        <time>2020-07-03T09:11:19Z</time>
      </trkpt>
      <trkpt lat="47.43957" lon="1.21873">
        <ele>109.3</ele>
        <time>2020-07-03T09:11:20Z</time>
      </trkpt>
      <trkpt lat="47.43951" lon="1.21873">
        <ele>109.2</ele>
        <time>2020-07-03T09:11:21Z</time>
      </trkpt>
      <trkpt lat="47.43944" lon="1.21874">
        <ele>109.1</ele>
        <time>2020-07-03T09:11:22Z</time>
      </trkpt>
      <trkpt lat="47.43936" lon="1.21873">
        <ele>109</ele>
        <time>2020-07-03T09:11:23Z</time>
      </trkpt>
      <trkpt lat="47.43929" lon="1.21872">
        <ele>109</ele>
        <time>2020-07-03T09:11:24Z</time>
      </trkpt>
      <trkpt lat="47.43921" lon="1.21872">
        <ele>109</ele>
        <time>2020-07-03T09:11:25Z</time>
      </trkpt>
      <trkpt lat="47.43913" lon="1.21871">
        <ele>109.1</ele>
        <time>2020-07-03T09:11:26Z</time>
      </trkpt>
      <trkpt lat="47.43905" lon="1.21872">
        <ele>108.7</ele>
        <time>2020-07-03T09:11:27Z</time>
      </trkpt>
      <trkpt lat="47.43896" lon="1.21873">
        <ele>108.6</ele>
        <time>2020-07-03T09:11:28Z</time>
      </trkpt>
      <trkpt lat="47.43888" lon="1.21872">
        <ele>108.4</ele>
        <time>2020-07-03T09:11:29Z</time>
      </trkpt>
      <trkpt lat="47.4388" lon="1.21872">
        <ele>108.4</ele>
        <time>2020-07-03T09:11:30Z</time>
      </trkpt>
      <trkpt lat="47.43874" lon="1.21871">
        <ele>108.4</ele>
        <time>2020-07-03T09:11:31Z</time>
      </trkpt>
      <trkpt lat="47.43867" lon="1.21871">
        <ele>108.4</ele>
        <time>2020-07-03T09:11:32Z</time>
      </trkpt>
      <trkpt lat="47.43859" lon="1.21872">
        <ele>108.4</ele>
        <time>2020-07-03T09:11:33Z</time>
      </trkpt>
      <trkpt lat="47.43851" lon="1.21871">
        <ele>108.4</ele>
        <time>2020-07-03T09:11:34Z</time>
      </trkpt>
      <trkpt lat="47.43844" lon="1.2187">
        <ele>108.4</ele>
        <time>2020-07-03T09:11:35Z</time>
      </trkpt>
      <trkpt lat="47.43837" lon="1.21869">
        <ele>108.3</ele>
        <time>2020-07-03T09:11:36Z</time>
      </trkpt>
      <trkpt lat="47.4383" lon="1.21868">
        <ele>108.3</ele>
        <time>2020-07-03T09:11:37Z</time>
      </trkpt>
      <trkpt lat="47.43823" lon="1.21868">
        <ele>108.3</ele>
        <time>2020-07-03T09:11:38Z</time>
      </trkpt>
      <trkpt lat="47.43817" lon="1.21868">
        <ele>108.3</ele>
        <time>2020-07-03T09:11:39Z</time>
      </trkpt>
      <trkpt lat="47.4381" lon="1.21868">
        <ele>108.3</ele>
        <time>2020-07-03T09:11:40Z</time>
      </trkpt>
      <trkpt lat="47.43803" lon="1.21868">
        <ele>108.2</ele>
        <time>2020-07-03T09:11:41Z</time>
      </trkpt>
      <trkpt lat="47.43796" lon="1.21869">
        <ele>108.2</ele>
        <time>2020-07-03T09:11:42Z</time>
      </trkpt>
      <trkpt lat="47.4379" lon="1.2187">
        <ele>108.2</ele>
        <time>2020-07-03T09:11:43Z</time>
      </trkpt>
      <trkpt lat="47.43784" lon="1.2187">
        <ele>108.2</ele>
        <time>2020-07-03T09:11:44Z</time>
      </trkpt>
      <trkpt lat="47.43777" lon="1.21871">
        <ele>108.2</ele>
        <time>2020-07-03T09:11:45Z</time>
      </trkpt>
      <trkpt lat="47.43771" lon="1.2187">
        <ele>108.2</ele>
        <time>2020-07-03T09:11:46Z</time>
      </trkpt>
      <trkpt lat="47.43764" lon="1.2187">
        <ele>108.2</ele>
        <time>2020-07-03T09:11:47Z</time>
      </trkpt>
      <trkpt lat="47.43758" lon="1.2187">
        <ele>108.3</ele>
        <time>2020-07-03T09:11:48Z</time>
      </trkpt>
      <trkpt lat="47.43751" lon="1.21871">
        <ele>108.3</ele>
        <time>2020-07-03T09:11:49Z</time>
      </trkpt>
      <trkpt lat="47.43745" lon="1.21872">
        <ele>108.3</ele>
        <time>2020-07-03T09:11:50Z</time>
      </trkpt>
      <trkpt lat="47.43738" lon="1.21873">
        <ele>108.3</ele>
        <time>2020-07-03T09:11:51Z</time>
      </trkpt>
      <trkpt lat="47.43731" lon="1.21873">
        <ele>108.2</ele>
        <time>2020-07-03T09:11:52Z</time>
      </trkpt>
      <trkpt lat="47.43725" lon="1.21873">
        <ele>108.2</ele>
        <time>2020-07-03T09:11:53Z</time>
      </trkpt>
      <trkpt lat="47.43718" lon="1.21873">
        <ele>108.2</ele>
        <time>2020-07-03T09:11:54Z</time>
      </trkpt>
      <trkpt lat="47.43711" lon="1.21874">
        <ele>108.2</ele>
        <time>2020-07-03T09:11:55Z</time>
      </trkpt>
      <trkpt lat="47.43704" lon="1.21874">
        <ele>108.1</ele>
        <time>2020-07-03T09:11:56Z</time>
      </trkpt>
      <trkpt lat="47.43698" lon="1.21873">
        <ele>108.1</ele>
        <time>2020-07-03T09:11:57Z</time>
      </trkpt>
      <trkpt lat="47.43692" lon="1.21873">
        <ele>108.1</ele>
        <time>2020-07-03T09:11:58Z</time>
      </trkpt>
      <trkpt lat="47.43685" lon="1.21873">
        <ele>108.1</ele>
        <time>2020-07-03T09:11:59Z</time>
      </trkpt>
      <trkpt lat="47.43678" lon="1.21873">
        <ele>108.1</ele>
        <time>2020-07-03T09:12:00Z</time>
      </trkpt>
      <trkpt lat="47.43672" lon="1.21873">
        <ele>108</ele>
        <time>2020-07-03T09:12:01Z</time>
      </trkpt>
      <trkpt lat="47.43666" lon="1.21873">
        <ele>108</ele>
        <time>2020-07-03T09:12:02Z</time>
      </trkpt>
      <trkpt lat="47.43659" lon="1.21873">
        <ele>107.9</ele>
        <time>2020-07-03T09:12:03Z</time>
      </trkpt>
      <trkpt lat="47.43652" lon="1.21872">
        <ele>107.8</ele>
        <time>2020-07-03T09:12:04Z</time>
      </trkpt>
      <trkpt lat="47.43645" lon="1.21872">
        <ele>107.7</ele>
        <time>2020-07-03T09:12:05Z</time>
      </trkpt>
      <trkpt lat="47.43637" lon="1.21871">
        <ele>107.6</ele>
        <time>2020-07-03T09:12:06Z</time>
      </trkpt>
      <trkpt lat="47.43629" lon="1.21871">
        <ele>107.5</ele>
        <time>2020-07-03T09:12:07Z</time>
      </trkpt>
      <trkpt lat="47.43621" lon="1.2187">
        <ele>107.4</ele>
        <time>2020-07-03T09:12:08Z</time>
      </trkpt>
      <trkpt lat="47.43614" lon="1.2187">
        <ele>107.3</ele>
        <time>2020-07-03T09:12:09Z</time>
      </trkpt>
      <trkpt lat="47.43608" lon="1.2187">
        <ele>107.2</ele>
        <time>2020-07-03T09:12:10Z</time>
      </trkpt>
      <trkpt lat="47.436" lon="1.2187">
        <ele>107.1</ele>
        <time>2020-07-03T09:12:11Z</time>
      </trkpt>
      <trkpt lat="47.43593" lon="1.2187">
        <ele>107</ele>
        <time>2020-07-03T09:12:12Z</time>
      </trkpt>
      <trkpt lat="47.43587" lon="1.2187">
        <ele>106.9</ele>
        <time>2020-07-03T09:12:13Z</time>
      </trkpt>
      <trkpt lat="47.4358" lon="1.2187">
        <ele>106.9</ele>
        <time>2020-07-03T09:12:14Z</time>
      </trkpt>
      <trkpt lat="47.43572" lon="1.2187">
        <ele>106.8</ele>
        <time>2020-07-03T09:12:15Z</time>
      </trkpt>
      <trkpt lat="47.43565" lon="1.2187">
        <ele>106.7</ele>
        <time>2020-07-03T09:12:16Z</time>
      </trkpt>
      <trkpt lat="47.43558" lon="1.2187">
        <ele>106.6</ele>
        <time>2020-07-03T09:12:17Z</time>
      </trkpt>
      <trkpt lat="47.4355" lon="1.2187">
        <ele>106.6</ele>
        <time>2020-07-03T09:12:18Z</time>
      </trkpt>
      <trkpt lat="47.43542" lon="1.2187">
        <ele>106.6</ele>
        <time>2020-07-03T09:12:19Z</time>
      </trkpt>
      <trkpt lat="47.43535" lon="1.2187">
        <ele>106.5</ele>
        <time>2020-07-03T09:12:20Z</time>
      </trkpt>
      <trkpt lat="47.43528" lon="1.2187">
        <ele>106.5</ele>
        <time>2020-07-03T09:12:21Z</time>
      </trkpt>
      <trkpt lat="47.43522" lon="1.21868">
        <ele>106.4</ele>
        <time>2020-07-03T09:12:22Z</time>
      </trkpt>
      <trkpt lat="47.43515" lon="1.21868">
        <ele>106.3</ele>
        <time>2020-07-03T09:12:23Z</time>
      </trkpt>
      <trkpt lat="47.43507" lon="1.21867">
        <ele>106.1</ele>
        <time>2020-07-03T09:12:24Z</time>
      </trkpt>
      <trkpt lat="47.43499" lon="1.21867">
        <ele>106</ele>
        <time>2020-07-03T09:12:25Z</time>
      </trkpt>
      <trkpt lat="47.43492" lon="1.21867">
        <ele>105.9</ele>
        <time>2020-07-03T09:12:26Z</time>
      </trkpt>
      <trkpt lat="47.43485" lon="1.21867">
        <ele>105.8</ele>
        <time>2020-07-03T09:12:27Z</time>
      </trkpt>
      <trkpt lat="47.43478" lon="1.21866">
        <ele>105.8</ele>
        <time>2020-07-03T09:12:28Z</time>
      </trkpt>
      <trkpt lat="47.43471" lon="1.21866">
        <ele>105.7</ele>
        <time>2020-07-03T09:12:29Z</time>
      </trkpt>
      <trkpt lat="47.43464" lon="1.21867">
        <ele>105.6</ele>
        <time>2020-07-03T09:12:30Z</time>
      </trkpt>
      <trkpt lat="47.43457" lon="1.21867">
        <ele>105.5</ele>
        <time>2020-07-03T09:12:31Z</time>
      </trkpt>
      <trkpt lat="47.4345" lon="1.21866">
        <ele>105.5</ele>
        <time>2020-07-03T09:12:32Z</time>
      </trkpt>
      <trkpt lat="47.43443" lon="1.21865">
        <ele>105.4</ele>
        <time>2020-07-03T09:12:33Z</time>
      </trkpt>
      <trkpt lat="47.43436" lon="1.21866">
        <ele>105.4</ele>
        <time>2020-07-03T09:12:34Z</time>
      </trkpt>
      <trkpt lat="47.43428" lon="1.21866">
        <ele>105.4</ele>
        <time>2020-07-03T09:12:35Z</time>
      </trkpt>
      <trkpt lat="47.43421" lon="1.21864">
        <ele>105.4</ele>
        <time>2020-07-03T09:12:36Z</time>
      </trkpt>
      <trkpt lat="47.43414" lon="1.21863">
        <ele>105.4</ele>
        <time>2020-07-03T09:12:37Z</time>
      </trkpt>
      <trkpt lat="47.43407" lon="1.21863">
        <ele>105.5</ele>
        <time>2020-07-03T09:12:38Z</time>
      </trkpt>
      <trkpt lat="47.434" lon="1.21862">
        <ele>105.5</ele>
        <time>2020-07-03T09:12:39Z</time>
      </trkpt>
      <trkpt lat="47.43394" lon="1.21862">
        <ele>105.5</ele>
        <time>2020-07-03T09:12:40Z</time>
      </trkpt>
      <trkpt lat="47.43387" lon="1.21862">
        <ele>105.6</ele>
        <time>2020-07-03T09:12:41Z</time>
      </trkpt>
      <trkpt lat="47.4338" lon="1.21863">
        <ele>105.6</ele>
        <time>2020-07-03T09:12:42Z</time>
      </trkpt>
      <trkpt lat="47.43373" lon="1.21863">
        <ele>105.7</ele>
        <time>2020-07-03T09:12:43Z</time>
      </trkpt>
      <trkpt lat="47.43367" lon="1.21863">
        <ele>105.7</ele>
        <time>2020-07-03T09:12:44Z</time>
      </trkpt>
      <trkpt lat="47.43361" lon="1.21862">
        <ele>105.8</ele>
        <time>2020-07-03T09:12:45Z</time>
      </trkpt>
      <trkpt lat="47.43355" lon="1.21861">
        <ele>105.8</ele>
        <time>2020-07-03T09:12:46Z</time>
      </trkpt>
      <trkpt lat="47.43349" lon="1.21861">
        <ele>105.9</ele>
        <time>2020-07-03T09:12:47Z</time>
      </trkpt>
      <trkpt lat="47.43344" lon="1.21861">
        <ele>105.9</ele>
        <time>2020-07-03T09:12:48Z</time>
      </trkpt>
      <trkpt lat="47.43338" lon="1.21861">
        <ele>106</ele>
        <time>2020-07-03T09:12:49Z</time>
      </trkpt>
      <trkpt lat="47.43332" lon="1.21861">
        <ele>106</ele>
        <time>2020-07-03T09:12:50Z</time>
      </trkpt>
      <trkpt lat="47.43326" lon="1.21861">
        <ele>106.1</ele>
        <time>2020-07-03T09:12:51Z</time>
      </trkpt>
      <trkpt lat="47.4332" lon="1.21861">
        <ele>106.1</ele>
        <time>2020-07-03T09:12:52Z</time>
      </trkpt>
      <trkpt lat="47.43314" lon="1.21859">
        <ele>106.1</ele>
        <time>2020-07-03T09:12:53Z</time>
      </trkpt>
      <trkpt lat="47.43308" lon="1.21858">
        <ele>106.1</ele>
        <time>2020-07-03T09:12:54Z</time>
      </trkpt>
      <trkpt lat="47.43301" lon="1.21856">
        <ele>106.1</ele>
        <time>2020-07-03T09:12:55Z</time>
      </trkpt>
      <trkpt lat="47.43294" lon="1.21854">
        <ele>106.2</ele>
        <time>2020-07-03T09:12:56Z</time>
      </trkpt>
      <trkpt lat="47.43288" lon="1.21851">
        <ele>106.2</ele>
        <time>2020-07-03T09:12:57Z</time>
      </trkpt>
      <trkpt lat="47.43282" lon="1.21848">
        <ele>106.2</ele>
        <time>2020-07-03T09:12:58Z</time>
      </trkpt>
      <trkpt lat="47.43276" lon="1.21846">
        <ele>106.2</ele>
        <time>2020-07-03T09:12:59Z</time>
      </trkpt>
      <trkpt lat="47.43271" lon="1.21844">
        <ele>106.1</ele>
        <time>2020-07-03T09:13:00Z</time>
      </trkpt>
      <trkpt lat="47.43266" lon="1.21842">
        <ele>106.1</ele>
        <time>2020-07-03T09:13:01Z</time>
      </trkpt>
      <trkpt lat="47.4326" lon="1.21838">
        <ele>106.1</ele>
        <time>2020-07-03T09:13:02Z</time>
      </trkpt>
      <trkpt lat="47.43254" lon="1.21836">
        <ele>106.1</ele>
        <time>2020-07-03T09:13:03Z</time>
      </trkpt>
      <trkpt lat="47.43249" lon="1.21832">
        <ele>106.1</ele>
        <time>2020-07-03T09:13:04Z</time>
      </trkpt>
      <trkpt lat="47.43243" lon="1.21828">
        <ele>106</ele>
        <time>2020-07-03T09:13:05Z</time>
      </trkpt>
      <trkpt lat="47.43238" lon="1.21824">
        <ele>106</ele>
        <time>2020-07-03T09:13:06Z</time>
      </trkpt>
      <trkpt lat="47.43232" lon="1.2182">
        <ele>105.9</ele>
        <time>2020-07-03T09:13:07Z</time>
      </trkpt>
      <trkpt lat="47.43227" lon="1.21816">
        <ele>105.9</ele>
        <time>2020-07-03T09:13:08Z</time>
      </trkpt>
      <trkpt lat="47.43221" lon="1.21812">
        <ele>105.9</ele>
        <time>2020-07-03T09:13:09Z</time>
      </trkpt>
      <trkpt lat="47.43216" lon="1.21808">
        <ele>105.9</ele>
        <time>2020-07-03T09:13:10Z</time>
      </trkpt>
      <trkpt lat="47.4321" lon="1.21803">
        <ele>105.8</ele>
        <time>2020-07-03T09:13:11Z</time>
      </trkpt>
      <trkpt lat="47.43204" lon="1.21797">
        <ele>105.8</ele>
        <time>2020-07-03T09:13:12Z</time>
      </trkpt>
      <trkpt lat="47.43198" lon="1.21792">
        <ele>105.8</ele>
        <time>2020-07-03T09:13:13Z</time>
      </trkpt>
      <trkpt lat="47.43193" lon="1.21787">
        <ele>105.8</ele>
        <time>2020-07-03T09:13:14Z</time>
      </trkpt>
      <trkpt lat="47.43189" lon="1.21783">
        <ele>105.7</ele>
        <time>2020-07-03T09:13:15Z</time>
      </trkpt>
      <trkpt lat="47.43183" lon="1.21778">
        <ele>105.7</ele>
        <time>2020-07-03T09:13:16Z</time>
      </trkpt>
      <trkpt lat="47.43179" lon="1.21773">
        <ele>105.7</ele>
        <time>2020-07-03T09:13:17Z</time>
      </trkpt>
      <trkpt lat="47.43173" lon="1.21767">
        <ele>105.6</ele>
        <time>2020-07-03T09:13:18Z</time>
      </trkpt>
      <trkpt lat="47.43168" lon="1.21762">
        <ele>105.6</ele>
        <time>2020-07-03T09:13:19Z</time>
      </trkpt>
      <trkpt lat="47.43162" lon="1.21756">
        <ele>105.5</ele>
        <time>2020-07-03T09:13:20Z</time>
      </trkpt>
      <trkpt lat="47.43157" lon="1.2175">
        <ele>105.4</ele>
        <time>2020-07-03T09:13:21Z</time>
      </trkpt>
      <trkpt lat="47.43152" lon="1.21743">
        <ele>105.3</ele>
        <time>2020-07-03T09:13:22Z</time>
      </trkpt>
      <trkpt lat="47.43147" lon="1.21737">
        <ele>105.2</ele>
        <time>2020-07-03T09:13:23Z</time>
      </trkpt>
      <trkpt lat="47.43142" lon="1.2173">
        <ele>105.1</ele>
        <time>2020-07-03T09:13:24Z</time>
      </trkpt>
      <trkpt lat="47.43136" lon="1.21722">
        <ele>105</ele>
        <time>2020-07-03T09:13:25Z</time>
      </trkpt>
      <trkpt lat="47.43131" lon="1.21715">
        <ele>105</ele>
        <time>2020-07-03T09:13:26Z</time>
      </trkpt>
      <trkpt lat="47.43126" lon="1.21708">
        <ele>104.9</ele>
        <time>2020-07-03T09:13:27Z</time>
      </trkpt>
      <trkpt lat="47.4312" lon="1.217">
        <ele>104.9</ele>
        <time>2020-07-03T09:13:28Z</time>
      </trkpt>
      <trkpt lat="47.43116" lon="1.21692">
        <ele>104.9</ele>
        <time>2020-07-03T09:13:29Z</time>
      </trkpt>
      <trkpt lat="47.43111" lon="1.21685">
        <ele>104.9</ele>
        <time>2020-07-03T09:13:30Z</time>
      </trkpt>
      <trkpt lat="47.43106" lon="1.21678">
        <ele>104.9</ele>
        <time>2020-07-03T09:13:31Z</time>
      </trkpt>
      <trkpt lat="47.43101" lon="1.21671">
        <ele>104.8</ele>
        <time>2020-07-03T09:13:32Z</time>
      </trkpt>
      <trkpt lat="47.43096" lon="1.21662">
        <ele>104.8</ele>
        <time>2020-07-03T09:13:33Z</time>
      </trkpt>
      <trkpt lat="47.4309" lon="1.21655">
        <ele>104.9</ele>
        <time>2020-07-03T09:13:34Z</time>
      </trkpt>
      <trkpt lat="47.43085" lon="1.21646">
        <ele>104.9</ele>
        <time>2020-07-03T09:13:35Z</time>
      </trkpt>
      <trkpt lat="47.43081" lon="1.21639">
        <ele>104.9</ele>
        <time>2020-07-03T09:13:36Z</time>
      </trkpt>
      <trkpt lat="47.43076" lon="1.21632">
        <ele>105</ele>
        <time>2020-07-03T09:13:37Z</time>
      </trkpt>
      <trkpt lat="47.43072" lon="1.21625">
        <ele>105</ele>
        <time>2020-07-03T09:13:38Z</time>
      </trkpt>
      <trkpt lat="47.43067" lon="1.21618">
        <ele>105.3</ele>
        <time>2020-07-03T09:13:39Z</time>
      </trkpt>
      <trkpt lat="47.43063" lon="1.21611">
        <ele>105.3</ele>
        <time>2020-07-03T09:13:40Z</time>
      </trkpt>
      <trkpt lat="47.43058" lon="1.21604">
        <ele>105.3</ele>
        <time>2020-07-03T09:13:41Z</time>
      </trkpt>
      <trkpt lat="47.43053" lon="1.21597">
        <ele>105.3</ele>
        <time>2020-07-03T09:13:42Z</time>
      </trkpt>
      <trkpt lat="47.43048" lon="1.21589">
        <ele>105.3</ele>
        <time>2020-07-03T09:13:43Z</time>
      </trkpt>
      <trkpt lat="47.43044" lon="1.21582">
        <ele>105.3</ele>
        <time>2020-07-03T09:13:44Z</time>
      </trkpt>
      <trkpt lat="47.43039" lon="1.21576">
        <ele>105.3</ele>
        <time>2020-07-03T09:13:45Z</time>
      </trkpt>
      <trkpt lat="47.43035" lon="1.2157">
        <ele>105.3</ele>
        <time>2020-07-03T09:13:46Z</time>
      </trkpt>
      <trkpt lat="47.43031" lon="1.21564">
        <ele>105.3</ele>
        <time>2020-07-03T09:13:47Z</time>
      </trkpt>
      <trkpt lat="47.43026" lon="1.21559">
        <ele>105.3</ele>
        <time>2020-07-03T09:13:48Z</time>
      </trkpt>
      <trkpt lat="47.43021" lon="1.21552">
        <ele>105.3</ele>
        <time>2020-07-03T09:13:49Z</time>
      </trkpt>
      <trkpt lat="47.43016" lon="1.21545">
        <ele>105.2</ele>
        <time>2020-07-03T09:13:50Z</time>
      </trkpt>
      <trkpt lat="47.43012" lon="1.21538">
        <ele>105.2</ele>
        <time>2020-07-03T09:13:51Z</time>
      </trkpt>
      <trkpt lat="47.43008" lon="1.21531">
        <ele>105.1</ele>
        <time>2020-07-03T09:13:52Z</time>
      </trkpt>
      <trkpt lat="47.43004" lon="1.21524">
        <ele>105</ele>
        <time>2020-07-03T09:13:53Z</time>
      </trkpt>
      <trkpt lat="47.43" lon="1.21517">
        <ele>105</ele>
        <time>2020-07-03T09:13:54Z</time>
      </trkpt>
      <trkpt lat="47.42994" lon="1.21509">
        <ele>104.8</ele>
        <time>2020-07-03T09:13:55Z</time>
      </trkpt>
      <trkpt lat="47.4299" lon="1.21502">
        <ele>104.7</ele>
        <time>2020-07-03T09:13:56Z</time>
      </trkpt>
      <trkpt lat="47.42985" lon="1.21495">
        <ele>104.6</ele>
        <time>2020-07-03T09:13:57Z</time>
      </trkpt>
      <trkpt lat="47.4298" lon="1.21488">
        <ele>104.4</ele>
        <time>2020-07-03T09:13:58Z</time>
      </trkpt>
      <trkpt lat="47.42975" lon="1.2148">
        <ele>104.3</ele>
        <time>2020-07-03T09:13:59Z</time>
      </trkpt>
      <trkpt lat="47.4297" lon="1.21473">
        <ele>104.2</ele>
        <time>2020-07-03T09:14:00Z</time>
      </trkpt>
      <trkpt lat="47.42966" lon="1.21466">
        <ele>104.1</ele>
        <time>2020-07-03T09:14:01Z</time>
      </trkpt>
      <trkpt lat="47.4296" lon="1.21459">
        <ele>104</ele>
        <time>2020-07-03T09:14:02Z</time>
      </trkpt>
      <trkpt lat="47.42955" lon="1.21453">
        <ele>103.8</ele>
        <time>2020-07-03T09:14:03Z</time>
      </trkpt>
      <trkpt lat="47.4295" lon="1.21446">
        <ele>103.7</ele>
        <time>2020-07-03T09:14:04Z</time>
      </trkpt>
      <trkpt lat="47.42945" lon="1.2144">
        <ele>103.6</ele>
        <time>2020-07-03T09:14:05Z</time>
      </trkpt>
      <trkpt lat="47.4294" lon="1.21432">
        <ele>103.5</ele>
        <time>2020-07-03T09:14:06Z</time>
      </trkpt>
      <trkpt lat="47.42935" lon="1.21426">
        <ele>103.4</ele>
        <time>2020-07-03T09:14:07Z</time>
      </trkpt>
      <trkpt lat="47.42929" lon="1.21419">
        <ele>103.3</ele>
        <time>2020-07-03T09:14:08Z</time>
      </trkpt>
      <trkpt lat="47.42923" lon="1.21412">
        <ele>103.2</ele>
        <time>2020-07-03T09:14:09Z</time>
      </trkpt>
      <trkpt lat="47.42918" lon="1.21406">
        <ele>103.1</ele>
        <time>2020-07-03T09:14:10Z</time>
      </trkpt>
      <trkpt lat="47.42912" lon="1.21399">
        <ele>103</ele>
        <time>2020-07-03T09:14:11Z</time>
      </trkpt>
      <trkpt lat="47.42906" lon="1.21392">
        <ele>102.9</ele>
        <time>2020-07-03T09:14:12Z</time>
      </trkpt>
      <trkpt lat="47.42901" lon="1.21387">
        <ele>102.9</ele>
        <time>2020-07-03T09:14:13Z</time>
      </trkpt>
      <trkpt lat="47.42896" lon="1.21381">
        <ele>102.9</ele>
        <time>2020-07-03T09:14:14Z</time>
      </trkpt>
      <trkpt lat="47.42891" lon="1.21376">
        <ele>102.8</ele>
        <time>2020-07-03T09:14:15Z</time>
      </trkpt>
      <trkpt lat="47.42885" lon="1.2137">
        <ele>102.8</ele>
        <time>2020-07-03T09:14:16Z</time>
      </trkpt>
      <trkpt lat="47.42878" lon="1.21364">
        <ele>102.8</ele>
        <time>2020-07-03T09:14:17Z</time>
      </trkpt>
      <trkpt lat="47.42872" lon="1.21358">
        <ele>102.8</ele>
        <time>2020-07-03T09:14:18Z</time>
      </trkpt>
      <trkpt lat="47.42866" lon="1.21352">
        <ele>102.8</ele>
        <time>2020-07-03T09:14:19Z</time>
      </trkpt>
      <trkpt lat="47.42861" lon="1.21346">
        <ele>102.8</ele>
        <time>2020-07-03T09:14:20Z</time>
      </trkpt>
      <trkpt lat="47.42856" lon="1.21339">
        <ele>102.8</ele>
        <time>2020-07-03T09:14:21Z</time>
      </trkpt>
      <trkpt lat="47.4285" lon="1.21331">
        <ele>102.8</ele>
        <time>2020-07-03T09:14:22Z</time>
      </trkpt>
      <trkpt lat="47.42844" lon="1.21325">
        <ele>102.7</ele>
        <time>2020-07-03T09:14:23Z</time>
      </trkpt>
      <trkpt lat="47.42838" lon="1.21319">
        <ele>102.8</ele>
        <time>2020-07-03T09:14:24Z</time>
      </trkpt>
      <trkpt lat="47.42832" lon="1.21312">
        <ele>102.8</ele>
        <time>2020-07-03T09:14:25Z</time>
      </trkpt>
      <trkpt lat="47.42827" lon="1.21306">
        <ele>102.8</ele>
        <time>2020-07-03T09:14:26Z</time>
      </trkpt>
      <trkpt lat="47.42822" lon="1.21301">
        <ele>102.8</ele>
        <time>2020-07-03T09:14:27Z</time>
      </trkpt>
      <trkpt lat="47.42816" lon="1.21295">
        <ele>102.8</ele>
        <time>2020-07-03T09:14:28Z</time>
      </trkpt>
      <trkpt lat="47.42811" lon="1.21289">
        <ele>102.8</ele>
        <time>2020-07-03T09:14:29Z</time>
      </trkpt>
      <trkpt lat="47.42805" lon="1.21284">
        <ele>102.7</ele>
        <time>2020-07-03T09:14:30Z</time>
      </trkpt>
      <trkpt lat="47.428" lon="1.21278">
        <ele>102.7</ele>
        <time>2020-07-03T09:14:31Z</time>
      </trkpt>
      <trkpt lat="47.42795" lon="1.21273">
        <ele>102.7</ele>
        <time>2020-07-03T09:14:32Z</time>
      </trkpt>
      <trkpt lat="47.4279" lon="1.21267">
        <ele>102.6</ele>
        <time>2020-07-03T09:14:33Z</time>
      </trkpt>
      <trkpt lat="47.42784" lon="1.21261">
        <ele>102.6</ele>
        <time>2020-07-03T09:14:34Z</time>
      </trkpt>
      <trkpt lat="47.42779" lon="1.21255">
        <ele>102.6</ele>
        <time>2020-07-03T09:14:35Z</time>
      </trkpt>
      <trkpt lat="47.42774" lon="1.21249">
        <ele>102.6</ele>
        <time>2020-07-03T09:14:36Z</time>
      </trkpt>
      <trkpt lat="47.42769" lon="1.21243">
        <ele>102.6</ele>
        <time>2020-07-03T09:14:37Z</time>
      </trkpt>
      <trkpt lat="47.42764" lon="1.21238">
        <ele>102.6</ele>
        <time>2020-07-03T09:14:38Z</time>
      </trkpt>
      <trkpt lat="47.42759" lon="1.21232">
        <ele>102.6</ele>
        <time>2020-07-03T09:14:39Z</time>
      </trkpt>
      <trkpt lat="47.42754" lon="1.21227">
        <ele>102.6</ele>
        <time>2020-07-03T09:14:40Z</time>
      </trkpt>
      <trkpt lat="47.4275" lon="1.21222">
        <ele>102.6</ele>
        <time>2020-07-03T09:14:41Z</time>
      </trkpt>
      <trkpt lat="47.42745" lon="1.21217">
        <ele>102.6</ele>
        <time>2020-07-03T09:14:42Z</time>
      </trkpt>
      <trkpt lat="47.4274" lon="1.21212">
        <ele>102.6</ele>
        <time>2020-07-03T09:14:43Z</time>
      </trkpt>
      <trkpt lat="47.42735" lon="1.21206">
        <ele>102.6</ele>
        <time>2020-07-03T09:14:44Z</time>
      </trkpt>
      <trkpt lat="47.42731" lon="1.212">
        <ele>102.6</ele>
        <time>2020-07-03T09:14:45Z</time>
      </trkpt>
      <trkpt lat="47.42727" lon="1.21193">
        <ele>102.6</ele>
        <time>2020-07-03T09:14:46Z</time>
      </trkpt>
      <trkpt lat="47.42722" lon="1.21186">
        <ele>102.6</ele>
        <time>2020-07-03T09:14:47Z</time>
      </trkpt>
      <trkpt lat="47.42717" lon="1.2118">
        <ele>102.5</ele>
        <time>2020-07-03T09:14:48Z</time>
      </trkpt>
      <trkpt lat="47.42712" lon="1.21173">
        <ele>102.5</ele>
        <time>2020-07-03T09:14:49Z</time>
      </trkpt>
      <trkpt lat="47.42707" lon="1.21168">
        <ele>102.6</ele>
        <time>2020-07-03T09:14:50Z</time>
      </trkpt>
      <trkpt lat="47.42702" lon="1.21162">
        <ele>102.6</ele>
        <time>2020-07-03T09:14:51Z</time>
      </trkpt>
      <trkpt lat="47.42697" lon="1.21158">
        <ele>102.6</ele>
        <time>2020-07-03T09:14:52Z</time>
      </trkpt>
      <trkpt lat="47.42691" lon="1.21153">
        <ele>102.6</ele>
        <time>2020-07-03T09:14:53Z</time>
      </trkpt>
      <trkpt lat="47.42686" lon="1.21149">
        <ele>102.6</ele>
        <time>2020-07-03T09:14:54Z</time>
      </trkpt>
      <trkpt lat="47.42681" lon="1.21144">
        <ele>102.6</ele>
        <time>2020-07-03T09:14:55Z</time>
      </trkpt>
      <trkpt lat="47.42676" lon="1.2114">
        <ele>102.5</ele>
        <time>2020-07-03T09:14:56Z</time>
      </trkpt>
      <trkpt lat="47.42671" lon="1.21136">
        <ele>102.5</ele>
        <time>2020-07-03T09:14:57Z</time>
      </trkpt>
      <trkpt lat="47.42665" lon="1.21132">
        <ele>102.5</ele>
        <time>2020-07-03T09:14:58Z</time>
      </trkpt>
      <trkpt lat="47.42659" lon="1.21128">
        <ele>102.5</ele>
        <time>2020-07-03T09:14:59Z</time>
      </trkpt>
      <trkpt lat="47.42654" lon="1.21122">
        <ele>102.5</ele>
        <time>2020-07-03T09:15:00Z</time>
      </trkpt>
      <trkpt lat="47.42648" lon="1.21117">
        <ele>102.5</ele>
        <time>2020-07-03T09:15:01Z</time>
      </trkpt>
      <trkpt lat="47.42643" lon="1.21114">
        <ele>102.5</ele>
        <time>2020-07-03T09:15:02Z</time>
      </trkpt>
      <trkpt lat="47.42639" lon="1.2111">
        <ele>102.5</ele>
        <time>2020-07-03T09:15:03Z</time>
      </trkpt>
      <trkpt lat="47.42633" lon="1.21105">
        <ele>102.5</ele>
        <time>2020-07-03T09:15:04Z</time>
      </trkpt>
      <trkpt lat="47.42627" lon="1.21101">
        <ele>102.5</ele>
        <time>2020-07-03T09:15:05Z</time>
      </trkpt>
      <trkpt lat="47.42622" lon="1.21097">
        <ele>102.5</ele>
        <time>2020-07-03T09:15:06Z</time>
      </trkpt>
      <trkpt lat="47.42616" lon="1.21094">
        <ele>102.5</ele>
        <time>2020-07-03T09:15:07Z</time>
      </trkpt>
      <trkpt lat="47.4261" lon="1.2109">
        <ele>102.5</ele>
        <time>2020-07-03T09:15:08Z</time>
      </trkpt>
      <trkpt lat="47.42604" lon="1.21087">
        <ele>102.5</ele>
        <time>2020-07-03T09:15:09Z</time>
      </trkpt>
      <trkpt lat="47.42598" lon="1.21084">
        <ele>102.5</ele>
        <time>2020-07-03T09:15:10Z</time>
      </trkpt>
      <trkpt lat="47.42593" lon="1.21081">
        <ele>102.5</ele>
        <time>2020-07-03T09:15:11Z</time>
      </trkpt>
      <trkpt lat="47.42587" lon="1.21078">
        <ele>102.5</ele>
        <time>2020-07-03T09:15:12Z</time>
      </trkpt>
      <trkpt lat="47.42582" lon="1.21075">
        <ele>102.5</ele>
        <time>2020-07-03T09:15:13Z</time>
      </trkpt>
      <trkpt lat="47.42576" lon="1.21072">
        <ele>102.5</ele>
        <time>2020-07-03T09:15:14Z</time>
      </trkpt>
      <trkpt lat="47.4257" lon="1.21069">
        <ele>102.5</ele>
        <time>2020-07-03T09:15:15Z</time>
      </trkpt>
      <trkpt lat="47.42565" lon="1.21066">
        <ele>102.5</ele>
        <time>2020-07-03T09:15:16Z</time>
      </trkpt>
      <trkpt lat="47.42559" lon="1.21063">
        <ele>102.4</ele>
        <time>2020-07-03T09:15:17Z</time>
      </trkpt>
      <trkpt lat="47.42553" lon="1.21061">
        <ele>102.4</ele>
        <time>2020-07-03T09:15:18Z</time>
      </trkpt>
      <trkpt lat="47.42547" lon="1.21058">
        <ele>102.4</ele>
        <time>2020-07-03T09:15:19Z</time>
      </trkpt>
      <trkpt lat="47.42542" lon="1.21055">
        <ele>102.3</ele>
        <time>2020-07-03T09:15:20Z</time>
      </trkpt>
      <trkpt lat="47.42537" lon="1.21052">
        <ele>102.3</ele>
        <time>2020-07-03T09:15:21Z</time>
      </trkpt>
      <trkpt lat="47.42531" lon="1.21049">
        <ele>102.2</ele>
        <time>2020-07-03T09:15:22Z</time>
      </trkpt>
      <trkpt lat="47.42524" lon="1.21045">
        <ele>102.2</ele>
        <time>2020-07-03T09:15:23Z</time>
      </trkpt>
      <trkpt lat="47.42518" lon="1.21043">
        <ele>102.2</ele>
        <time>2020-07-03T09:15:24Z</time>
      </trkpt>
      <trkpt lat="47.42512" lon="1.21041">
        <ele>102.2</ele>
        <time>2020-07-03T09:15:25Z</time>
      </trkpt>
      <trkpt lat="47.42506" lon="1.21039">
        <ele>102.2</ele>
        <time>2020-07-03T09:15:26Z</time>
      </trkpt>
      <trkpt lat="47.425" lon="1.21035">
        <ele>102.2</ele>
        <time>2020-07-03T09:15:27Z</time>
      </trkpt>
      <trkpt lat="47.42494" lon="1.21033">
        <ele>102.2</ele>
        <time>2020-07-03T09:15:28Z</time>
      </trkpt>
      <trkpt lat="47.42489" lon="1.2103">
        <ele>102.2</ele>
        <time>2020-07-03T09:15:29Z</time>
      </trkpt>
      <trkpt lat="47.42484" lon="1.21026">
        <ele>102.2</ele>
        <time>2020-07-03T09:15:30Z</time>
      </trkpt>
      <trkpt lat="47.42478" lon="1.21023">
        <ele>102.2</ele>
        <time>2020-07-03T09:15:31Z</time>
      </trkpt>
      <trkpt lat="47.42473" lon="1.2102">
        <ele>102.2</ele>
        <time>2020-07-03T09:15:32Z</time>
      </trkpt>
      <trkpt lat="47.42468" lon="1.21017">
        <ele>102.2</ele>
        <time>2020-07-03T09:15:33Z</time>
      </trkpt>
      <trkpt lat="47.42463" lon="1.21014">
        <ele>102.2</ele>
        <time>2020-07-03T09:15:34Z</time>
      </trkpt>
      <trkpt lat="47.4246" lon="1.21011">
        <ele>102.3</ele>
        <time>2020-07-03T09:15:35Z</time>
      </trkpt>
      <trkpt lat="47.42453" lon="1.21007">
        <ele>102.3</ele>
        <time>2020-07-03T09:15:36Z</time>
      </trkpt>
      <trkpt lat="47.42448" lon="1.21003">
        <ele>102.3</ele>
        <time>2020-07-03T09:15:37Z</time>
      </trkpt>
      <trkpt lat="47.42443" lon="1.21">
        <ele>102.3</ele>
        <time>2020-07-03T09:15:38Z</time>
      </trkpt>
      <trkpt lat="47.42437" lon="1.20996">
        <ele>102.4</ele>
        <time>2020-07-03T09:15:39Z</time>
      </trkpt>
      <trkpt lat="47.42431" lon="1.20993">
        <ele>102.4</ele>
        <time>2020-07-03T09:15:40Z</time>
      </trkpt>
      <trkpt lat="47.42425" lon="1.2099">
        <ele>102.4</ele>
        <time>2020-07-03T09:15:41Z</time>
      </trkpt>
      <trkpt lat="47.42419" lon="1.20988">
        <ele>102.4</ele>
        <time>2020-07-03T09:15:42Z</time>
      </trkpt>
      <trkpt lat="47.42414" lon="1.20986">
        <ele>102.4</ele>
        <time>2020-07-03T09:15:43Z</time>
      </trkpt>
      <trkpt lat="47.42408" lon="1.20984">
        <ele>102.4</ele>
        <time>2020-07-03T09:15:44Z</time>
      </trkpt>
      <trkpt lat="47.42402" lon="1.20982">
        <ele>102.4</ele>
        <time>2020-07-03T09:15:45Z</time>
      </trkpt>
      <trkpt lat="47.42397" lon="1.2098">
        <ele>102.4</ele>
        <time>2020-07-03T09:15:46Z</time>
      </trkpt>
      <trkpt lat="47.42391" lon="1.20978">
        <ele>102.4</ele>
        <time>2020-07-03T09:15:47Z</time>
      </trkpt>
      <trkpt lat="47.42385" lon="1.20975">
        <ele>102.4</ele>
        <time>2020-07-03T09:15:48Z</time>
      </trkpt>
      <trkpt lat="47.42379" lon="1.20974">
        <ele>102.5</ele>
        <time>2020-07-03T09:15:49Z</time>
      </trkpt>
      <trkpt lat="47.42374" lon="1.20973">
        <ele>102.6</ele>
        <time>2020-07-03T09:15:50Z</time>
      </trkpt>
      <trkpt lat="47.42369" lon="1.20971">
        <ele>102.7</ele>
        <time>2020-07-03T09:15:51Z</time>
      </trkpt>
      <trkpt lat="47.42364" lon="1.20969">
        <ele>102.7</ele>
        <time>2020-07-03T09:15:52Z</time>
      </trkpt>
      <trkpt lat="47.42358" lon="1.20967">
        <ele>102.8</ele>
        <time>2020-07-03T09:15:53Z</time>
      </trkpt>
      <trkpt lat="47.42353" lon="1.20966">
        <ele>102.9</ele>
        <time>2020-07-03T09:15:54Z</time>
      </trkpt>
      <trkpt lat="47.42348" lon="1.20965">
        <ele>103</ele>
        <time>2020-07-03T09:15:55Z</time>
      </trkpt>
      <trkpt lat="47.42341" lon="1.20963">
        <ele>103.1</ele>
        <time>2020-07-03T09:15:56Z</time>
      </trkpt>
      <trkpt lat="47.42336" lon="1.20961">
        <ele>103.2</ele>
        <time>2020-07-03T09:15:57Z</time>
      </trkpt>
      <trkpt lat="47.42331" lon="1.2096">
        <ele>103.3</ele>
        <time>2020-07-03T09:15:58Z</time>
      </trkpt>
      <trkpt lat="47.42327" lon="1.20958">
        <ele>103.3</ele>
        <time>2020-07-03T09:15:59Z</time>
      </trkpt>
      <trkpt lat="47.42322" lon="1.20957">
        <ele>103.3</ele>
        <time>2020-07-03T09:16:00Z</time>
      </trkpt>
      <trkpt lat="47.42317" lon="1.20954">
        <ele>103.2</ele>
        <time>2020-07-03T09:16:01Z</time>
      </trkpt>
      <trkpt lat="47.42312" lon="1.20953">
        <ele>103.2</ele>
        <time>2020-07-03T09:16:02Z</time>
      </trkpt>
      <trkpt lat="47.42308" lon="1.20951">
        <ele>103.2</ele>
        <time>2020-07-03T09:16:03Z</time>
      </trkpt>
      <trkpt lat="47.42303" lon="1.2095">
        <ele>103.2</ele>
        <time>2020-07-03T09:16:04Z</time>
      </trkpt>
      <trkpt lat="47.42298" lon="1.2095">
        <ele>103.3</ele>
        <time>2020-07-03T09:16:05Z</time>
      </trkpt>
      <trkpt lat="47.42293" lon="1.2095">
        <ele>103.3</ele>
        <time>2020-07-03T09:16:06Z</time>
      </trkpt>
      <trkpt lat="47.42289" lon="1.20949">
        <ele>103.4</ele>
        <time>2020-07-03T09:16:07Z</time>
      </trkpt>
      <trkpt lat="47.42285" lon="1.20947">
        <ele>103.5</ele>
        <time>2020-07-03T09:16:08Z</time>
      </trkpt>
      <trkpt lat="47.4228" lon="1.20946">
        <ele>103.5</ele>
        <time>2020-07-03T09:16:09Z</time>
      </trkpt>
      <trkpt lat="47.42277" lon="1.20945">
        <ele>103.6</ele>
        <time>2020-07-03T09:16:10Z</time>
      </trkpt>
      <trkpt lat="47.42273" lon="1.20944">
        <ele>103.7</ele>
        <time>2020-07-03T09:16:11Z</time>
      </trkpt>
      <trkpt lat="47.42269" lon="1.20943">
        <ele>103.8</ele>
        <time>2020-07-03T09:16:12Z</time>
      </trkpt>
      <trkpt lat="47.42264" lon="1.20942">
        <ele>103.9</ele>
        <time>2020-07-03T09:16:13Z</time>
      </trkpt>
      <trkpt lat="47.42259" lon="1.20942">
        <ele>104</ele>
        <time>2020-07-03T09:16:14Z</time>
      </trkpt>
      <trkpt lat="47.42255" lon="1.20942">
        <ele>104.1</ele>
        <time>2020-07-03T09:16:15Z</time>
      </trkpt>
      <trkpt lat="47.4225" lon="1.2094">
        <ele>104.2</ele>
        <time>2020-07-03T09:16:16Z</time>
      </trkpt>
      <trkpt lat="47.42246" lon="1.20938">
        <ele>104.3</ele>
        <time>2020-07-03T09:16:17Z</time>
      </trkpt>
      <trkpt lat="47.42242" lon="1.20936">
        <ele>104.5</ele>
        <time>2020-07-03T09:16:18Z</time>
      </trkpt>
      <trkpt lat="47.42238" lon="1.20934">
        <ele>104.6</ele>
        <time>2020-07-03T09:16:19Z</time>
      </trkpt>
      <trkpt lat="47.42233" lon="1.20934">
        <ele>104.8</ele>
        <time>2020-07-03T09:16:20Z</time>
      </trkpt>
      <trkpt lat="47.4223" lon="1.20933">
        <ele>104.8</ele>
        <time>2020-07-03T09:16:21Z</time>
      </trkpt>
      <trkpt lat="47.42225" lon="1.20932">
        <ele>105</ele>
        <time>2020-07-03T09:16:22Z</time>
      </trkpt>
      <trkpt lat="47.4222" lon="1.20931">
        <ele>105.1</ele>
        <time>2020-07-03T09:16:23Z</time>
      </trkpt>
      <trkpt lat="47.42215" lon="1.20928">
        <ele>105.2</ele>
        <time>2020-07-03T09:16:24Z</time>
      </trkpt>
      <trkpt lat="47.42211" lon="1.20926">
        <ele>105.3</ele>
        <time>2020-07-03T09:16:25Z</time>
      </trkpt>
      <trkpt lat="47.42206" lon="1.20925">
        <ele>105.5</ele>
        <time>2020-07-03T09:16:26Z</time>
      </trkpt>
      <trkpt lat="47.42202" lon="1.20924">
        <ele>105.6</ele>
        <time>2020-07-03T09:16:27Z</time>
      </trkpt>
      <trkpt lat="47.42196" lon="1.20922">
        <ele>105.8</ele>
        <time>2020-07-03T09:16:28Z</time>
      </trkpt>
      <trkpt lat="47.42191" lon="1.2092">
        <ele>105.9</ele>
        <time>2020-07-03T09:16:29Z</time>
      </trkpt>
      <trkpt lat="47.42186" lon="1.20918">
        <ele>106.1</ele>
        <time>2020-07-03T09:16:30Z</time>
      </trkpt>
      <trkpt lat="47.42181" lon="1.20916">
        <ele>106.2</ele>
        <time>2020-07-03T09:16:31Z</time>
      </trkpt>
      <trkpt lat="47.42176" lon="1.20914">
        <ele>106.3</ele>
        <time>2020-07-03T09:16:32Z</time>
      </trkpt>
      <trkpt lat="47.42171" lon="1.20914">
        <ele>106.4</ele>
        <time>2020-07-03T09:16:33Z</time>
      </trkpt>
      <trkpt lat="47.42167" lon="1.20914">
        <ele>106.4</ele>
        <time>2020-07-03T09:16:34Z</time>
      </trkpt>
      <trkpt lat="47.42163" lon="1.20913">
        <ele>106.5</ele>
        <time>2020-07-03T09:16:35Z</time>
      </trkpt>
      <trkpt lat="47.42158" lon="1.20912">
        <ele>106.6</ele>
        <time>2020-07-03T09:16:36Z</time>
      </trkpt>
      <trkpt lat="47.42155" lon="1.2091">
        <ele>106.7</ele>
        <time>2020-07-03T09:16:37Z</time>
      </trkpt>
      <trkpt lat="47.42152" lon="1.20908">
        <ele>106.8</ele>
        <time>2020-07-03T09:16:38Z</time>
      </trkpt>
      <trkpt lat="47.42148" lon="1.20906">
        <ele>106.8</ele>
        <time>2020-07-03T09:16:39Z</time>
      </trkpt>
      <trkpt lat="47.42143" lon="1.20905">
        <ele>106.9</ele>
        <time>2020-07-03T09:16:40Z</time>
      </trkpt>
      <trkpt lat="47.42139" lon="1.20905">
        <ele>107</ele>
        <time>2020-07-03T09:16:41Z</time>
      </trkpt>
      <trkpt lat="47.42136" lon="1.20904">
        <ele>107.1</ele>
        <time>2020-07-03T09:16:42Z</time>
      </trkpt>
      <trkpt lat="47.42132" lon="1.20904">
        <ele>107.2</ele>
        <time>2020-07-03T09:16:43Z</time>
      </trkpt>
      <trkpt lat="47.42129" lon="1.20902">
        <ele>107.2</ele>
        <time>2020-07-03T09:16:44Z</time>
      </trkpt>
      <trkpt lat="47.42125" lon="1.20901">
        <ele>107.3</ele>
        <time>2020-07-03T09:16:45Z</time>
      </trkpt>
      <trkpt lat="47.42122" lon="1.209">
        <ele>107.4</ele>
        <time>2020-07-03T09:16:46Z</time>
      </trkpt>
      <trkpt lat="47.42118" lon="1.209">
        <ele>107.4</ele>
        <time>2020-07-03T09:16:47Z</time>
      </trkpt>
      <trkpt lat="47.42113" lon="1.209">
        <ele>107.5</ele>
        <time>2020-07-03T09:16:48Z</time>
      </trkpt>
      <trkpt lat="47.4211" lon="1.20899">
        <ele>107.6</ele>
        <time>2020-07-03T09:16:49Z</time>
      </trkpt>
      <trkpt lat="47.42106" lon="1.20899">
        <ele>107.7</ele>
        <time>2020-07-03T09:16:50Z</time>
      </trkpt>
      <trkpt lat="47.42103" lon="1.20897">
        <ele>107.8</ele>
        <time>2020-07-03T09:16:51Z</time>
      </trkpt>
      <trkpt lat="47.42099" lon="1.20896">
        <ele>107.8</ele>
        <time>2020-07-03T09:16:52Z</time>
      </trkpt>
      <trkpt lat="47.42096" lon="1.20895">
        <ele>107.9</ele>
        <time>2020-07-03T09:16:53Z</time>
      </trkpt>
      <trkpt lat="47.42092" lon="1.20893">
        <ele>108</ele>
        <time>2020-07-03T09:16:54Z</time>
      </trkpt>
      <trkpt lat="47.42087" lon="1.20893">
        <ele>108.2</ele>
        <time>2020-07-03T09:16:55Z</time>
      </trkpt>
      <trkpt lat="47.42083" lon="1.20892">
        <ele>108.3</ele>
        <time>2020-07-03T09:16:56Z</time>
      </trkpt>
      <trkpt lat="47.42078" lon="1.20891">
        <ele>108.5</ele>
        <time>2020-07-03T09:16:57Z</time>
      </trkpt>
      <trkpt lat="47.42074" lon="1.2089">
        <ele>108.7</ele>
        <time>2020-07-03T09:16:58Z</time>
      </trkpt>
      <trkpt lat="47.4207" lon="1.2089">
        <ele>108.8</ele>
        <time>2020-07-03T09:16:59Z</time>
      </trkpt>
      <trkpt lat="47.42066" lon="1.20889">
        <ele>108.9</ele>
        <time>2020-07-03T09:17:00Z</time>
      </trkpt>
      <trkpt lat="47.42061" lon="1.20889">
        <ele>109.1</ele>
        <time>2020-07-03T09:17:01Z</time>
      </trkpt>
      <trkpt lat="47.42057" lon="1.20888">
        <ele>109.1</ele>
        <time>2020-07-03T09:17:02Z</time>
      </trkpt>
      <trkpt lat="47.42054" lon="1.20887">
        <ele>109.2</ele>
        <time>2020-07-03T09:17:03Z</time>
      </trkpt>
      <trkpt lat="47.4205" lon="1.20886">
        <ele>109.2</ele>
        <time>2020-07-03T09:17:04Z</time>
      </trkpt>
      <trkpt lat="47.42046" lon="1.20883">
        <ele>109.2</ele>
        <time>2020-07-03T09:17:05Z</time>
      </trkpt>
      <trkpt lat="47.42042" lon="1.20881">
        <ele>109.2</ele>
        <time>2020-07-03T09:17:06Z</time>
      </trkpt>
      <trkpt lat="47.42039" lon="1.20879">
        <ele>109.3</ele>
        <time>2020-07-03T09:17:07Z</time>
      </trkpt>
      <trkpt lat="47.42035" lon="1.20878">
        <ele>109.3</ele>
        <time>2020-07-03T09:17:08Z</time>
      </trkpt>
      <trkpt lat="47.4203" lon="1.20876">
        <ele>109.3</ele>
        <time>2020-07-03T09:17:09Z</time>
      </trkpt>
      <trkpt lat="47.42026" lon="1.20875">
        <ele>109.3</ele>
        <time>2020-07-03T09:17:10Z</time>
      </trkpt>
      <trkpt lat="47.42021" lon="1.20872">
        <ele>109.3</ele>
        <time>2020-07-03T09:17:11Z</time>
      </trkpt>
      <trkpt lat="47.42017" lon="1.20871">
        <ele>109.3</ele>
        <time>2020-07-03T09:17:12Z</time>
      </trkpt>
      <trkpt lat="47.42013" lon="1.20871">
        <ele>109.4</ele>
        <time>2020-07-03T09:17:13Z</time>
      </trkpt>
      <trkpt lat="47.42009" lon="1.20871">
        <ele>109.4</ele>
        <time>2020-07-03T09:17:14Z</time>
      </trkpt>
      <trkpt lat="47.42005" lon="1.2087">
        <ele>109.4</ele>
        <time>2020-07-03T09:17:15Z</time>
      </trkpt>
      <trkpt lat="47.42" lon="1.20868">
        <ele>109.4</ele>
        <time>2020-07-03T09:17:16Z</time>
      </trkpt>
      <trkpt lat="47.41995" lon="1.20867">
        <ele>109.5</ele>
        <time>2020-07-03T09:17:17Z</time>
      </trkpt>
      <trkpt lat="47.41989" lon="1.20865">
        <ele>109.5</ele>
        <time>2020-07-03T09:17:18Z</time>
      </trkpt>
      <trkpt lat="47.41985" lon="1.20864">
        <ele>109.6</ele>
        <time>2020-07-03T09:17:19Z</time>
      </trkpt>
      <trkpt lat="47.4198" lon="1.20862">
        <ele>109.7</ele>
        <time>2020-07-03T09:17:20Z</time>
      </trkpt>
      <trkpt lat="47.41975" lon="1.20861">
        <ele>109.7</ele>
        <time>2020-07-03T09:17:21Z</time>
      </trkpt>
      <trkpt lat="47.4197" lon="1.20859">
        <ele>109.8</ele>
        <time>2020-07-03T09:17:22Z</time>
      </trkpt>
      <trkpt lat="47.41965" lon="1.20858">
        <ele>109.8</ele>
        <time>2020-07-03T09:17:23Z</time>
      </trkpt>
      <trkpt lat="47.41962" lon="1.20859">
        <ele>109.8</ele>
        <time>2020-07-03T09:17:24Z</time>
      </trkpt>
      <trkpt lat="47.41958" lon="1.20858">
        <ele>109.8</ele>
        <time>2020-07-03T09:17:25Z</time>
      </trkpt>
      <trkpt lat="47.41953" lon="1.20856">
        <ele>109.9</ele>
        <time>2020-07-03T09:17:26Z</time>
      </trkpt>
      <trkpt lat="47.41948" lon="1.20855">
        <ele>109.9</ele>
        <time>2020-07-03T09:17:27Z</time>
      </trkpt>
      <trkpt lat="47.41943" lon="1.20853">
        <ele>109.9</ele>
        <time>2020-07-03T09:17:28Z</time>
      </trkpt>
      <trkpt lat="47.41938" lon="1.20851">
        <ele>109.8</ele>
        <time>2020-07-03T09:17:29Z</time>
      </trkpt>
      <trkpt lat="47.41931" lon="1.20849">
        <ele>109.8</ele>
        <time>2020-07-03T09:17:30Z</time>
      </trkpt>
      <trkpt lat="47.41926" lon="1.20848">
        <ele>109.8</ele>
        <time>2020-07-03T09:17:31Z</time>
      </trkpt>
      <trkpt lat="47.41922" lon="1.20847">
        <ele>109.8</ele>
        <time>2020-07-03T09:17:32Z</time>
      </trkpt>
      <trkpt lat="47.41917" lon="1.20845">
        <ele>109.8</ele>
        <time>2020-07-03T09:17:33Z</time>
      </trkpt>
      <trkpt lat="47.41912" lon="1.20844">
        <ele>109.8</ele>
        <time>2020-07-03T09:17:34Z</time>
      </trkpt>
      <trkpt lat="47.41908" lon="1.20843">
        <ele>109.8</ele>
        <time>2020-07-03T09:17:35Z</time>
      </trkpt>
      <trkpt lat="47.41903" lon="1.20842">
        <ele>109.8</ele>
        <time>2020-07-03T09:17:36Z</time>
      </trkpt>
      <trkpt lat="47.41897" lon="1.20841">
        <ele>109.8</ele>
        <time>2020-07-03T09:17:37Z</time>
      </trkpt>
      <trkpt lat="47.41892" lon="1.2084">
        <ele>109.8</ele>
        <time>2020-07-03T09:17:38Z</time>
      </trkpt>
      <trkpt lat="47.41886" lon="1.2084">
        <ele>109.7</ele>
        <time>2020-07-03T09:17:39Z</time>
      </trkpt>
      <trkpt lat="47.41881" lon="1.20839">
        <ele>109.7</ele>
        <time>2020-07-03T09:17:40Z</time>
      </trkpt>
      <trkpt lat="47.41875" lon="1.20838">
        <ele>109.7</ele>
        <time>2020-07-03T09:17:41Z</time>
      </trkpt>
      <trkpt lat="47.4187" lon="1.20837">
        <ele>109.6</ele>
        <time>2020-07-03T09:17:42Z</time>
      </trkpt>
      <trkpt lat="47.41864" lon="1.20836">
        <ele>109.6</ele>
        <time>2020-07-03T09:17:43Z</time>
      </trkpt>
      <trkpt lat="47.41858" lon="1.20837">
        <ele>109.5</ele>
        <time>2020-07-03T09:17:44Z</time>
      </trkpt>
      <trkpt lat="47.41852" lon="1.20837">
        <ele>109.4</ele>
        <time>2020-07-03T09:17:45Z</time>
      </trkpt>
      <trkpt lat="47.41846" lon="1.20838">
        <ele>109.3</ele>
        <time>2020-07-03T09:17:46Z</time>
      </trkpt>
      <trkpt lat="47.4184" lon="1.20838">
        <ele>109.2</ele>
        <time>2020-07-03T09:17:47Z</time>
      </trkpt>
      <trkpt lat="47.41833" lon="1.20838">
        <ele>109.1</ele>
        <time>2020-07-03T09:17:48Z</time>
      </trkpt>
      <trkpt lat="47.41827" lon="1.20837">
        <ele>109</ele>
        <time>2020-07-03T09:17:49Z</time>
      </trkpt>
      <trkpt lat="47.41821" lon="1.20835">
        <ele>109</ele>
        <time>2020-07-03T09:17:50Z</time>
      </trkpt>
      <trkpt lat="47.41816" lon="1.20834">
        <ele>108.9</ele>
        <time>2020-07-03T09:17:51Z</time>
      </trkpt>
      <trkpt lat="47.4181" lon="1.20833">
        <ele>108.8</ele>
        <time>2020-07-03T09:17:52Z</time>
      </trkpt>
      <trkpt lat="47.41805" lon="1.20833">
        <ele>108.8</ele>
        <time>2020-07-03T09:17:53Z</time>
      </trkpt>
      <trkpt lat="47.41798" lon="1.20832">
        <ele>108.7</ele>
        <time>2020-07-03T09:17:54Z</time>
      </trkpt>
      <trkpt lat="47.41792" lon="1.20831">
        <ele>108.6</ele>
        <time>2020-07-03T09:17:55Z</time>
      </trkpt>
      <trkpt lat="47.41788" lon="1.20829">
        <ele>108.5</ele>
        <time>2020-07-03T09:17:56Z</time>
      </trkpt>
      <trkpt lat="47.41782" lon="1.20828">
        <ele>108.4</ele>
        <time>2020-07-03T09:17:57Z</time>
      </trkpt>
      <trkpt lat="47.41774" lon="1.20826">
        <ele>108.3</ele>
        <time>2020-07-03T09:17:58Z</time>
      </trkpt>
      <trkpt lat="47.41768" lon="1.20825">
        <ele>108.2</ele>
        <time>2020-07-03T09:17:59Z</time>
      </trkpt>
      <trkpt lat="47.41762" lon="1.20824">
        <ele>108.2</ele>
        <time>2020-07-03T09:18:00Z</time>
      </trkpt>
      <trkpt lat="47.41756" lon="1.20822">
        <ele>108.1</ele>
        <time>2020-07-03T09:18:01Z</time>
      </trkpt>
      <trkpt lat="47.41749" lon="1.20822">
        <ele>108</ele>
        <time>2020-07-03T09:18:02Z</time>
      </trkpt>
      <trkpt lat="47.41743" lon="1.20821">
        <ele>108</ele>
        <time>2020-07-03T09:18:03Z</time>
      </trkpt>
      <trkpt lat="47.41737" lon="1.20821">
        <ele>107.9</ele>
        <time>2020-07-03T09:18:04Z</time>
      </trkpt>
      <trkpt lat="47.4173" lon="1.2082">
        <ele>107.8</ele>
        <time>2020-07-03T09:18:05Z</time>
      </trkpt>
      <trkpt lat="47.41723" lon="1.2082">
        <ele>107.7</ele>
        <time>2020-07-03T09:18:06Z</time>
      </trkpt>
      <trkpt lat="47.41717" lon="1.20819">
        <ele>107.6</ele>
        <time>2020-07-03T09:18:07Z</time>
      </trkpt>
      <trkpt lat="47.4171" lon="1.20819">
        <ele>107.5</ele>
        <time>2020-07-03T09:18:08Z</time>
      </trkpt>
      <trkpt lat="47.41704" lon="1.20818">
        <ele>107.3</ele>
        <time>2020-07-03T09:18:09Z</time>
      </trkpt>
      <trkpt lat="47.41697" lon="1.20817">
        <ele>107.3</ele>
        <time>2020-07-03T09:18:10Z</time>
      </trkpt>
      <trkpt lat="47.4169" lon="1.20816">
        <ele>107.2</ele>
        <time>2020-07-03T09:18:11Z</time>
      </trkpt>
      <trkpt lat="47.41684" lon="1.20815">
        <ele>107.2</ele>
        <time>2020-07-03T09:18:12Z</time>
      </trkpt>
      <trkpt lat="47.41678" lon="1.20814">
        <ele>107.1</ele>
        <time>2020-07-03T09:18:13Z</time>
      </trkpt>
      <trkpt lat="47.41671" lon="1.20814">
        <ele>107.1</ele>
        <time>2020-07-03T09:18:14Z</time>
      </trkpt>
      <trkpt lat="47.41664" lon="1.20813">
        <ele>107</ele>
        <time>2020-07-03T09:18:15Z</time>
      </trkpt>
      <trkpt lat="47.41657" lon="1.20812">
        <ele>106.9</ele>
        <time>2020-07-03T09:18:16Z</time>
      </trkpt>
      <trkpt lat="47.41651" lon="1.20811">
        <ele>106.8</ele>
        <time>2020-07-03T09:18:17Z</time>
      </trkpt>
      <trkpt lat="47.41644" lon="1.2081">
        <ele>106.7</ele>
        <time>2020-07-03T09:18:18Z</time>
      </trkpt>
      <trkpt lat="47.41638" lon="1.20809">
        <ele>106.6</ele>
        <time>2020-07-03T09:18:19Z</time>
      </trkpt>
      <trkpt lat="47.41631" lon="1.20807">
        <ele>106.5</ele>
        <time>2020-07-03T09:18:20Z</time>
      </trkpt>
      <trkpt lat="47.41624" lon="1.20806">
        <ele>106.4</ele>
        <time>2020-07-03T09:18:21Z</time>
      </trkpt>
      <trkpt lat="47.41618" lon="1.20804">
        <ele>106.3</ele>
        <time>2020-07-03T09:18:22Z</time>
      </trkpt>
      <trkpt lat="47.41611" lon="1.20802">
        <ele>106.2</ele>
        <time>2020-07-03T09:18:23Z</time>
      </trkpt>
      <trkpt lat="47.41605" lon="1.208">
        <ele>106.1</ele>
        <time>2020-07-03T09:18:24Z</time>
      </trkpt>
      <trkpt lat="47.41598" lon="1.20798">
        <ele>106.1</ele>
        <time>2020-07-03T09:18:25Z</time>
      </trkpt>
      <trkpt lat="47.41592" lon="1.20794">
        <ele>106</ele>
        <time>2020-07-03T09:18:26Z</time>
      </trkpt>
      <trkpt lat="47.41586" lon="1.20791">
        <ele>106</ele>
        <time>2020-07-03T09:18:27Z</time>
      </trkpt>
      <trkpt lat="47.4158" lon="1.20788">
        <ele>105.9</ele>
        <time>2020-07-03T09:18:28Z</time>
      </trkpt>
      <trkpt lat="47.41573" lon="1.20785">
        <ele>105.9</ele>
        <time>2020-07-03T09:18:29Z</time>
      </trkpt>
      <trkpt lat="47.41567" lon="1.20781">
        <ele>105.8</ele>
        <time>2020-07-03T09:18:30Z</time>
      </trkpt>
      <trkpt lat="47.41561" lon="1.20778">
        <ele>105.8</ele>
        <time>2020-07-03T09:18:31Z</time>
      </trkpt>
      <trkpt lat="47.41555" lon="1.20774">
        <ele>105.7</ele>
        <time>2020-07-03T09:18:32Z</time>
      </trkpt>
      <trkpt lat="47.41549" lon="1.20772">
        <ele>105.6</ele>
        <time>2020-07-03T09:18:33Z</time>
      </trkpt>
      <trkpt lat="47.41542" lon="1.20769">
        <ele>105.6</ele>
        <time>2020-07-03T09:18:34Z</time>
      </trkpt>
      <trkpt lat="47.41536" lon="1.20765">
        <ele>105.5</ele>
        <time>2020-07-03T09:18:35Z</time>
      </trkpt>
      <trkpt lat="47.41531" lon="1.2076">
        <ele>105.5</ele>
        <time>2020-07-03T09:18:36Z</time>
      </trkpt>
      <trkpt lat="47.41525" lon="1.20756">
        <ele>105.4</ele>
        <time>2020-07-03T09:18:37Z</time>
      </trkpt>
      <trkpt lat="47.41519" lon="1.20751">
        <ele>105.4</ele>
        <time>2020-07-03T09:18:38Z</time>
      </trkpt>
      <trkpt lat="47.41513" lon="1.20747">
        <ele>105.3</ele>
        <time>2020-07-03T09:18:39Z</time>
      </trkpt>
      <trkpt lat="47.41508" lon="1.20743">
        <ele>105.3</ele>
        <time>2020-07-03T09:18:40Z</time>
      </trkpt>
      <trkpt lat="47.41502" lon="1.20738">
        <ele>105.3</ele>
        <time>2020-07-03T09:18:41Z</time>
      </trkpt>
      <trkpt lat="47.41497" lon="1.20734">
        <ele>105.2</ele>
        <time>2020-07-03T09:18:42Z</time>
      </trkpt>
      <trkpt lat="47.41491" lon="1.20729">
        <ele>105.2</ele>
        <time>2020-07-03T09:18:43Z</time>
      </trkpt>
      <trkpt lat="47.41485" lon="1.20724">
        <ele>105.1</ele>
        <time>2020-07-03T09:18:44Z</time>
      </trkpt>
      <trkpt lat="47.4148" lon="1.2072">
        <ele>105.1</ele>
        <time>2020-07-03T09:18:45Z</time>
      </trkpt>
      <trkpt lat="47.41474" lon="1.20715">
        <ele>105.1</ele>
        <time>2020-07-03T09:18:46Z</time>
      </trkpt>
      <trkpt lat="47.41469" lon="1.20709">
        <ele>105</ele>
        <time>2020-07-03T09:18:47Z</time>
      </trkpt>
      <trkpt lat="47.41464" lon="1.20704">
        <ele>105</ele>
        <time>2020-07-03T09:18:48Z</time>
      </trkpt>
      <trkpt lat="47.41459" lon="1.20699">
        <ele>104.9</ele>
        <time>2020-07-03T09:18:49Z</time>
      </trkpt>
      <trkpt lat="47.41454" lon="1.20693">
        <ele>104.9</ele>
        <time>2020-07-03T09:18:50Z</time>
      </trkpt>
      <trkpt lat="47.41448" lon="1.20688">
        <ele>104.8</ele>
        <time>2020-07-03T09:18:51Z</time>
      </trkpt>
      <trkpt lat="47.41443" lon="1.20683">
        <ele>104.8</ele>
        <time>2020-07-03T09:18:52Z</time>
      </trkpt>
      <trkpt lat="47.41438" lon="1.20677">
        <ele>104.8</ele>
        <time>2020-07-03T09:18:53Z</time>
      </trkpt>
      <trkpt lat="47.41433" lon="1.20672">
        <ele>104.8</ele>
        <time>2020-07-03T09:18:54Z</time>
      </trkpt>
      <trkpt lat="47.41428" lon="1.20665">
        <ele>104.8</ele>
        <time>2020-07-03T09:18:55Z</time>
      </trkpt>
      <trkpt lat="47.41422" lon="1.2066">
        <ele>104.7</ele>
        <time>2020-07-03T09:18:56Z</time>
      </trkpt>
      <trkpt lat="47.41417" lon="1.20654">
        <ele>104.7</ele>
        <time>2020-07-03T09:18:57Z</time>
      </trkpt>
      <trkpt lat="47.41412" lon="1.20649">
        <ele>104.7</ele>
        <time>2020-07-03T09:18:58Z</time>
      </trkpt>
      <trkpt lat="47.41407" lon="1.20644">
        <ele>104.7</ele>
        <time>2020-07-03T09:18:59Z</time>
      </trkpt>
      <trkpt lat="47.41402" lon="1.20638">
        <ele>104.7</ele>
        <time>2020-07-03T09:19:00Z</time>
      </trkpt>
      <trkpt lat="47.41397" lon="1.20632">
        <ele>104.6</ele>
        <time>2020-07-03T09:19:01Z</time>
      </trkpt>
      <trkpt lat="47.41392" lon="1.20625">
        <ele>104.6</ele>
        <time>2020-07-03T09:19:02Z</time>
      </trkpt>
      <trkpt lat="47.41387" lon="1.20619">
        <ele>104.6</ele>
        <time>2020-07-03T09:19:03Z</time>
      </trkpt>
      <trkpt lat="47.41381" lon="1.20613">
        <ele>104.5</ele>
        <time>2020-07-03T09:19:04Z</time>
      </trkpt>
      <trkpt lat="47.41376" lon="1.20607">
        <ele>104.5</ele>
        <time>2020-07-03T09:19:05Z</time>
      </trkpt>
      <trkpt lat="47.4137" lon="1.20599">
        <ele>104.4</ele>
        <time>2020-07-03T09:19:06Z</time>
      </trkpt>
      <trkpt lat="47.41364" lon="1.20593">
        <ele>104.4</ele>
        <time>2020-07-03T09:19:07Z</time>
      </trkpt>
      <trkpt lat="47.41359" lon="1.20588">
        <ele>104.4</ele>
        <time>2020-07-03T09:19:08Z</time>
      </trkpt>
      <trkpt lat="47.41354" lon="1.20582">
        <ele>104.3</ele>
        <time>2020-07-03T09:19:09Z</time>
      </trkpt>
      <trkpt lat="47.41349" lon="1.20577">
        <ele>104.3</ele>
        <time>2020-07-03T09:19:10Z</time>
      </trkpt>
      <trkpt lat="47.41344" lon="1.20572">
        <ele>104.3</ele>
        <time>2020-07-03T09:19:11Z</time>
      </trkpt>
      <trkpt lat="47.41339" lon="1.20567">
        <ele>104.3</ele>
        <time>2020-07-03T09:19:12Z</time>
      </trkpt>
      <trkpt lat="47.41333" lon="1.20561">
        <ele>104.2</ele>
        <time>2020-07-03T09:19:13Z</time>
      </trkpt>
      <trkpt lat="47.41328" lon="1.20556">
        <ele>104.2</ele>
        <time>2020-07-03T09:19:14Z</time>
      </trkpt>
      <trkpt lat="47.41323" lon="1.20551">
        <ele>104.2</ele>
        <time>2020-07-03T09:19:15Z</time>
      </trkpt>
      <trkpt lat="47.41318" lon="1.20544">
        <ele>104.1</ele>
        <time>2020-07-03T09:19:16Z</time>
      </trkpt>
      <trkpt lat="47.41312" lon="1.20539">
        <ele>104.1</ele>
        <time>2020-07-03T09:19:17Z</time>
      </trkpt>
      <trkpt lat="47.41307" lon="1.20533">
        <ele>104</ele>
        <time>2020-07-03T09:19:18Z</time>
      </trkpt>
      <trkpt lat="47.41302" lon="1.20527">
        <ele>104</ele>
        <time>2020-07-03T09:19:19Z</time>
      </trkpt>
      <trkpt lat="47.41296" lon="1.20521">
        <ele>104</ele>
        <time>2020-07-03T09:19:20Z</time>
      </trkpt>
      <trkpt lat="47.4129" lon="1.20515">
        <ele>104</ele>
        <time>2020-07-03T09:19:21Z</time>
      </trkpt>
      <trkpt lat="47.41285" lon="1.20509">
        <ele>104</ele>
        <time>2020-07-03T09:19:22Z</time>
      </trkpt>
      <trkpt lat="47.41279" lon="1.20504">
        <ele>104.1</ele>
        <time>2020-07-03T09:19:23Z</time>
      </trkpt>
      <trkpt lat="47.41274" lon="1.20498">
        <ele>104.1</ele>
        <time>2020-07-03T09:19:24Z</time>
      </trkpt>
      <trkpt lat="47.41269" lon="1.20492">
        <ele>104.2</ele>
        <time>2020-07-03T09:19:25Z</time>
      </trkpt>
      <trkpt lat="47.41263" lon="1.20486">
        <ele>104.2</ele>
        <time>2020-07-03T09:19:26Z</time>
      </trkpt>
      <trkpt lat="47.41257" lon="1.2048">
        <ele>104.4</ele>
        <time>2020-07-03T09:19:27Z</time>
      </trkpt>
      <trkpt lat="47.41252" lon="1.20476">
        <ele>104.6</ele>
        <time>2020-07-03T09:19:28Z</time>
      </trkpt>
      <trkpt lat="47.41246" lon="1.20472">
        <ele>104.6</ele>
        <time>2020-07-03T09:19:29Z</time>
      </trkpt>
      <trkpt lat="47.4124" lon="1.20469">
        <ele>104.6</ele>
        <time>2020-07-03T09:19:30Z</time>
      </trkpt>
      <trkpt lat="47.41234" lon="1.20465">
        <ele>104.6</ele>
        <time>2020-07-03T09:19:31Z</time>
      </trkpt>
      <trkpt lat="47.41228" lon="1.20463">
        <ele>104.6</ele>
        <time>2020-07-03T09:19:32Z</time>
      </trkpt>
      <trkpt lat="47.41222" lon="1.20461">
        <ele>104.6</ele>
        <time>2020-07-03T09:19:33Z</time>
      </trkpt>
      <trkpt lat="47.41216" lon="1.20459">
        <ele>104.5</ele>
        <time>2020-07-03T09:19:34Z</time>
      </trkpt>
      <trkpt lat="47.4121" lon="1.20457">
        <ele>104.5</ele>
        <time>2020-07-03T09:19:35Z</time>
      </trkpt>
      <trkpt lat="47.41203" lon="1.20455">
        <ele>104.4</ele>
        <time>2020-07-03T09:19:36Z</time>
      </trkpt>
      <trkpt lat="47.41197" lon="1.20454">
        <ele>104.4</ele>
        <time>2020-07-03T09:19:37Z</time>
      </trkpt>
      <trkpt lat="47.4119" lon="1.20454">
        <ele>104.3</ele>
        <time>2020-07-03T09:19:38Z</time>
      </trkpt>
      <trkpt lat="47.41184" lon="1.20453">
        <ele>104.3</ele>
        <time>2020-07-03T09:19:39Z</time>
      </trkpt>
      <trkpt lat="47.41178" lon="1.20453">
        <ele>104.3</ele>
        <time>2020-07-03T09:19:40Z</time>
      </trkpt>
      <trkpt lat="47.41171" lon="1.20452">
        <ele>104.3</ele>
        <time>2020-07-03T09:19:41Z</time>
      </trkpt>
      <trkpt lat="47.41165" lon="1.20452">
        <ele>104.3</ele>
        <time>2020-07-03T09:19:42Z</time>
      </trkpt>
      <trkpt lat="47.41158" lon="1.20451">
        <ele>104.2</ele>
        <time>2020-07-03T09:19:43Z</time>
      </trkpt>
      <trkpt lat="47.41152" lon="1.20451">
        <ele>104.2</ele>
        <time>2020-07-03T09:19:44Z</time>
      </trkpt>
      <trkpt lat="47.41146" lon="1.20449">
        <ele>104.1</ele>
        <time>2020-07-03T09:19:45Z</time>
      </trkpt>
      <trkpt lat="47.41139" lon="1.20448">
        <ele>104.1</ele>
        <time>2020-07-03T09:19:46Z</time>
      </trkpt>
      <trkpt lat="47.41133" lon="1.20447">
        <ele>104</ele>
        <time>2020-07-03T09:19:47Z</time>
      </trkpt>
      <trkpt lat="47.41126" lon="1.20446">
        <ele>104</ele>
        <time>2020-07-03T09:19:48Z</time>
      </trkpt>
      <trkpt lat="47.41119" lon="1.20444">
        <ele>103.9</ele>
        <time>2020-07-03T09:19:49Z</time>
      </trkpt>
      <trkpt lat="47.41113" lon="1.20443">
        <ele>103.9</ele>
        <time>2020-07-03T09:19:50Z</time>
      </trkpt>
      <trkpt lat="47.41106" lon="1.20441">
        <ele>103.9</ele>
        <time>2020-07-03T09:19:51Z</time>
      </trkpt>
      <trkpt lat="47.41099" lon="1.2044">
        <ele>103.8</ele>
        <time>2020-07-03T09:19:52Z</time>
      </trkpt>
      <trkpt lat="47.41092" lon="1.20439">
        <ele>103.8</ele>
        <time>2020-07-03T09:19:53Z</time>
      </trkpt>
      <trkpt lat="47.41086" lon="1.20438">
        <ele>103.8</ele>
        <time>2020-07-03T09:19:54Z</time>
      </trkpt>
      <trkpt lat="47.41079" lon="1.20436">
        <ele>103.7</ele>
        <time>2020-07-03T09:19:55Z</time>
      </trkpt>
      <trkpt lat="47.41073" lon="1.20435">
        <ele>103.7</ele>
        <time>2020-07-03T09:19:56Z</time>
      </trkpt>
      <trkpt lat="47.41066" lon="1.20434">
        <ele>103.6</ele>
        <time>2020-07-03T09:19:57Z</time>
      </trkpt>
      <trkpt lat="47.4106" lon="1.20432">
        <ele>103.6</ele>
        <time>2020-07-03T09:19:58Z</time>
      </trkpt>
      <trkpt lat="47.41053" lon="1.20431">
        <ele>103.6</ele>
        <time>2020-07-03T09:19:59Z</time>
      </trkpt>
      <trkpt lat="47.41047" lon="1.2043">
        <ele>103.5</ele>
        <time>2020-07-03T09:20:00Z</time>
      </trkpt>
      <trkpt lat="47.4104" lon="1.20429">
        <ele>103.5</ele>
        <time>2020-07-03T09:20:01Z</time>
      </trkpt>
      <trkpt lat="47.41034" lon="1.20428">
        <ele>103.5</ele>
        <time>2020-07-03T09:20:02Z</time>
      </trkpt>
      <trkpt lat="47.41028" lon="1.20427">
        <ele>103.4</ele>
        <time>2020-07-03T09:20:03Z</time>
      </trkpt>
      <trkpt lat="47.41022" lon="1.20425">
        <ele>103.4</ele>
        <time>2020-07-03T09:20:04Z</time>
      </trkpt>
      <trkpt lat="47.41015" lon="1.20424">
        <ele>103.3</ele>
        <time>2020-07-03T09:20:05Z</time>
      </trkpt>
      <trkpt lat="47.41009" lon="1.20423">
        <ele>103.2</ele>
        <time>2020-07-03T09:20:06Z</time>
      </trkpt>
      <trkpt lat="47.41002" lon="1.20422">
        <ele>103.2</ele>
        <time>2020-07-03T09:20:07Z</time>
      </trkpt>
      <trkpt lat="47.40996" lon="1.20421">
        <ele>103.2</ele>
        <time>2020-07-03T09:20:08Z</time>
      </trkpt>
      <trkpt lat="47.40989" lon="1.2042">
        <ele>103.1</ele>
        <time>2020-07-03T09:20:09Z</time>
      </trkpt>
      <trkpt lat="47.40983" lon="1.20419">
        <ele>103.1</ele>
        <time>2020-07-03T09:20:10Z</time>
      </trkpt>
      <trkpt lat="47.40976" lon="1.20418">
        <ele>103.1</ele>
        <time>2020-07-03T09:20:11Z</time>
      </trkpt>
      <trkpt lat="47.40969" lon="1.20417">
        <ele>103.1</ele>
        <time>2020-07-03T09:20:12Z</time>
      </trkpt>
      <trkpt lat="47.40963" lon="1.20416">
        <ele>103.1</ele>
        <time>2020-07-03T09:20:13Z</time>
      </trkpt>
      <trkpt lat="47.40956" lon="1.20415">
        <ele>103.1</ele>
        <time>2020-07-03T09:20:14Z</time>
      </trkpt>
      <trkpt lat="47.40949" lon="1.20414">
        <ele>103</ele>
        <time>2020-07-03T09:20:15Z</time>
      </trkpt>
      <trkpt lat="47.40943" lon="1.20413">
        <ele>103</ele>
        <time>2020-07-03T09:20:16Z</time>
      </trkpt>
      <trkpt lat="47.40936" lon="1.20411">
        <ele>102.9</ele>
        <time>2020-07-03T09:20:17Z</time>
      </trkpt>
      <trkpt lat="47.4093" lon="1.2041">
        <ele>102.8</ele>
        <time>2020-07-03T09:20:18Z</time>
      </trkpt>
      <trkpt lat="47.40923" lon="1.20409">
        <ele>102.8</ele>
        <time>2020-07-03T09:20:19Z</time>
      </trkpt>
      <trkpt lat="47.40916" lon="1.20407">
        <ele>102.7</ele>
        <time>2020-07-03T09:20:20Z</time>
      </trkpt>
      <trkpt lat="47.4091" lon="1.20406">
        <ele>102.7</ele>
        <time>2020-07-03T09:20:21Z</time>
      </trkpt>
      <trkpt lat="47.40903" lon="1.20406">
        <ele>102.7</ele>
        <time>2020-07-03T09:20:22Z</time>
      </trkpt>
      <trkpt lat="47.40896" lon="1.20405">
        <ele>102.7</ele>
        <time>2020-07-03T09:20:23Z</time>
      </trkpt>
      <trkpt lat="47.40889" lon="1.20404">
        <ele>102.7</ele>
        <time>2020-07-03T09:20:24Z</time>
      </trkpt>
      <trkpt lat="47.40883" lon="1.20403">
        <ele>102.7</ele>
        <time>2020-07-03T09:20:25Z</time>
      </trkpt>
      <trkpt lat="47.40876" lon="1.20401">
        <ele>102.7</ele>
        <time>2020-07-03T09:20:26Z</time>
      </trkpt>
      <trkpt lat="47.4087" lon="1.204">
        <ele>102.7</ele>
        <time>2020-07-03T09:20:27Z</time>
      </trkpt>
      <trkpt lat="47.40863" lon="1.20399">
        <ele>102.7</ele>
        <time>2020-07-03T09:20:28Z</time>
      </trkpt>
      <trkpt lat="47.40856" lon="1.20398">
        <ele>102.7</ele>
        <time>2020-07-03T09:20:29Z</time>
      </trkpt>
      <trkpt lat="47.4085" lon="1.20397">
        <ele>102.7</ele>
        <time>2020-07-03T09:20:30Z</time>
      </trkpt>
      <trkpt lat="47.40843" lon="1.20396">
        <ele>102.7</ele>
        <time>2020-07-03T09:20:31Z</time>
      </trkpt>
      <trkpt lat="47.40837" lon="1.20395">
        <ele>102.7</ele>
        <time>2020-07-03T09:20:32Z</time>
      </trkpt>
      <trkpt lat="47.4083" lon="1.20394">
        <ele>102.7</ele>
        <time>2020-07-03T09:20:33Z</time>
      </trkpt>
      <trkpt lat="47.40824" lon="1.20393">
        <ele>102.8</ele>
        <time>2020-07-03T09:20:34Z</time>
      </trkpt>
      <trkpt lat="47.40817" lon="1.20392">
        <ele>102.8</ele>
        <time>2020-07-03T09:20:35Z</time>
      </trkpt>
      <trkpt lat="47.40811" lon="1.20391">
        <ele>102.8</ele>
        <time>2020-07-03T09:20:36Z</time>
      </trkpt>
      <trkpt lat="47.40805" lon="1.2039">
        <ele>102.8</ele>
        <time>2020-07-03T09:20:37Z</time>
      </trkpt>
      <trkpt lat="47.40798" lon="1.20388">
        <ele>102.8</ele>
        <time>2020-07-03T09:20:38Z</time>
      </trkpt>
      <trkpt lat="47.40792" lon="1.20387">
        <ele>102.8</ele>
        <time>2020-07-03T09:20:39Z</time>
      </trkpt>
      <trkpt lat="47.40786" lon="1.20386">
        <ele>102.8</ele>
        <time>2020-07-03T09:20:40Z</time>
      </trkpt>
      <trkpt lat="47.40779" lon="1.20384">
        <ele>102.8</ele>
        <time>2020-07-03T09:20:41Z</time>
      </trkpt>
      <trkpt lat="47.40773" lon="1.20381">
        <ele>102.8</ele>
        <time>2020-07-03T09:20:42Z</time>
      </trkpt>
      <trkpt lat="47.40767" lon="1.2038">
        <ele>102.8</ele>
        <time>2020-07-03T09:20:43Z</time>
      </trkpt>
      <trkpt lat="47.4076" lon="1.20378">
        <ele>102.8</ele>
        <time>2020-07-03T09:20:44Z</time>
      </trkpt>
      <trkpt lat="47.40754" lon="1.20375">
        <ele>102.8</ele>
        <time>2020-07-03T09:20:45Z</time>
      </trkpt>
      <trkpt lat="47.40748" lon="1.20372">
        <ele>102.9</ele>
        <time>2020-07-03T09:20:46Z</time>
      </trkpt>
      <trkpt lat="47.40742" lon="1.20368">
        <ele>102.9</ele>
        <time>2020-07-03T09:20:47Z</time>
      </trkpt>
      <trkpt lat="47.40736" lon="1.20366">
        <ele>102.9</ele>
        <time>2020-07-03T09:20:48Z</time>
      </trkpt>
      <trkpt lat="47.4073" lon="1.20363">
        <ele>102.9</ele>
        <time>2020-07-03T09:20:49Z</time>
      </trkpt>
      <trkpt lat="47.40724" lon="1.2036">
        <ele>103</ele>
        <time>2020-07-03T09:20:50Z</time>
      </trkpt>
      <trkpt lat="47.40719" lon="1.20358">
        <ele>103</ele>
        <time>2020-07-03T09:20:51Z</time>
      </trkpt>
      <trkpt lat="47.40713" lon="1.20355">
        <ele>103.1</ele>
        <time>2020-07-03T09:20:52Z</time>
      </trkpt>
      <trkpt lat="47.40707" lon="1.20352">
        <ele>103.1</ele>
        <time>2020-07-03T09:20:53Z</time>
      </trkpt>
      <trkpt lat="47.40701" lon="1.20351">
        <ele>103.1</ele>
        <time>2020-07-03T09:20:54Z</time>
      </trkpt>
      <trkpt lat="47.40695" lon="1.20348">
        <ele>103.1</ele>
        <time>2020-07-03T09:20:55Z</time>
      </trkpt>
      <trkpt lat="47.4069" lon="1.20345">
        <ele>103.2</ele>
        <time>2020-07-03T09:20:56Z</time>
      </trkpt>
      <trkpt lat="47.40684" lon="1.20342">
        <ele>103.2</ele>
        <time>2020-07-03T09:20:57Z</time>
      </trkpt>
      <trkpt lat="47.40678" lon="1.2034">
        <ele>103.2</ele>
        <time>2020-07-03T09:20:58Z</time>
      </trkpt>
      <trkpt lat="47.40672" lon="1.20337">
        <ele>103.2</ele>
        <time>2020-07-03T09:20:59Z</time>
      </trkpt>
      <trkpt lat="47.40666" lon="1.20334">
        <ele>103.3</ele>
        <time>2020-07-03T09:21:00Z</time>
      </trkpt>
      <trkpt lat="47.4066" lon="1.20331">
        <ele>103.3</ele>
        <time>2020-07-03T09:21:01Z</time>
      </trkpt>
      <trkpt lat="47.40654" lon="1.20328">
        <ele>103.3</ele>
        <time>2020-07-03T09:21:02Z</time>
      </trkpt>
      <trkpt lat="47.40648" lon="1.20325">
        <ele>103.4</ele>
        <time>2020-07-03T09:21:03Z</time>
      </trkpt>
      <trkpt lat="47.40642" lon="1.20323">
        <ele>103.4</ele>
        <time>2020-07-03T09:21:04Z</time>
      </trkpt>
      <trkpt lat="47.40637" lon="1.2032">
        <ele>103.4</ele>
        <time>2020-07-03T09:21:05Z</time>
      </trkpt>
      <trkpt lat="47.4063" lon="1.20317">
        <ele>103.4</ele>
        <time>2020-07-03T09:21:06Z</time>
      </trkpt>
      <trkpt lat="47.40624" lon="1.20314">
        <ele>103.5</ele>
        <time>2020-07-03T09:21:07Z</time>
      </trkpt>
      <trkpt lat="47.4062" lon="1.20312">
        <ele>103.5</ele>
        <time>2020-07-03T09:21:08Z</time>
      </trkpt>
      <trkpt lat="47.40614" lon="1.20309">
        <ele>103.5</ele>
        <time>2020-07-03T09:21:09Z</time>
      </trkpt>
      <trkpt lat="47.40608" lon="1.20305">
        <ele>103.6</ele>
        <time>2020-07-03T09:21:10Z</time>
      </trkpt>
      <trkpt lat="47.40602" lon="1.20303">
        <ele>103.6</ele>
        <time>2020-07-03T09:21:11Z</time>
      </trkpt>
      <trkpt lat="47.40596" lon="1.203">
        <ele>103.7</ele>
        <time>2020-07-03T09:21:12Z</time>
      </trkpt>
      <trkpt lat="47.4059" lon="1.20299">
        <ele>103.8</ele>
        <time>2020-07-03T09:21:13Z</time>
      </trkpt>
      <trkpt lat="47.40584" lon="1.20297">
        <ele>103.9</ele>
        <time>2020-07-03T09:21:14Z</time>
      </trkpt>
      <trkpt lat="47.40579" lon="1.20296">
        <ele>104</ele>
        <time>2020-07-03T09:21:15Z</time>
      </trkpt>
      <trkpt lat="47.40573" lon="1.20296">
        <ele>104.1</ele>
        <time>2020-07-03T09:21:16Z</time>
      </trkpt>
      <trkpt lat="47.40566" lon="1.20296">
        <ele>104.1</ele>
        <time>2020-07-03T09:21:17Z</time>
      </trkpt>
      <trkpt lat="47.4056" lon="1.20295">
        <ele>104.1</ele>
        <time>2020-07-03T09:21:18Z</time>
      </trkpt>
      <trkpt lat="47.40554" lon="1.20296">
        <ele>104</ele>
        <time>2020-07-03T09:21:19Z</time>
      </trkpt>
      <trkpt lat="47.40548" lon="1.20295">
        <ele>104</ele>
        <time>2020-07-03T09:21:20Z</time>
      </trkpt>
      <trkpt lat="47.40541" lon="1.20294">
        <ele>103.9</ele>
        <time>2020-07-03T09:21:21Z</time>
      </trkpt>
      <trkpt lat="47.40535" lon="1.20294">
        <ele>103.9</ele>
        <time>2020-07-03T09:21:22Z</time>
      </trkpt>
      <trkpt lat="47.40528" lon="1.20294">
        <ele>104</ele>
        <time>2020-07-03T09:21:23Z</time>
      </trkpt>
      <trkpt lat="47.40522" lon="1.20293">
        <ele>104</ele>
        <time>2020-07-03T09:21:24Z</time>
      </trkpt>
      <trkpt lat="47.40516" lon="1.20293">
        <ele>104.1</ele>
        <time>2020-07-03T09:21:25Z</time>
      </trkpt>
      <trkpt lat="47.4051" lon="1.20291">
        <ele>104.1</ele>
        <time>2020-07-03T09:21:26Z</time>
      </trkpt>
      <trkpt lat="47.40504" lon="1.2029">
        <ele>104.1</ele>
        <time>2020-07-03T09:21:27Z</time>
      </trkpt>
      <trkpt lat="47.40497" lon="1.20289">
        <ele>104.1</ele>
        <time>2020-07-03T09:21:28Z</time>
      </trkpt>
      <trkpt lat="47.40491" lon="1.20288">
        <ele>104</ele>
        <time>2020-07-03T09:21:29Z</time>
      </trkpt>
      <trkpt lat="47.40484" lon="1.20287">
        <ele>104</ele>
        <time>2020-07-03T09:21:30Z</time>
      </trkpt>
      <trkpt lat="47.40478" lon="1.20287">
        <ele>104</ele>
        <time>2020-07-03T09:21:31Z</time>
      </trkpt>
      <trkpt lat="47.40471" lon="1.20286">
        <ele>104</ele>
        <time>2020-07-03T09:21:32Z</time>
      </trkpt>
      <trkpt lat="47.40465" lon="1.20286">
        <ele>103.9</ele>
        <time>2020-07-03T09:21:33Z</time>
      </trkpt>
      <trkpt lat="47.40459" lon="1.20285">
        <ele>103.9</ele>
        <time>2020-07-03T09:21:34Z</time>
      </trkpt>
      <trkpt lat="47.40453" lon="1.20284">
        <ele>103.9</ele>
        <time>2020-07-03T09:21:35Z</time>
      </trkpt>
      <trkpt lat="47.40446" lon="1.20284">
        <ele>103.8</ele>
        <time>2020-07-03T09:21:36Z</time>
      </trkpt>
      <trkpt lat="47.4044" lon="1.20284">
        <ele>103.8</ele>
        <time>2020-07-03T09:21:37Z</time>
      </trkpt>
      <trkpt lat="47.40434" lon="1.20282">
        <ele>103.8</ele>
        <time>2020-07-03T09:21:38Z</time>
      </trkpt>
      <trkpt lat="47.40427" lon="1.20282">
        <ele>103.8</ele>
        <time>2020-07-03T09:21:39Z</time>
      </trkpt>
      <trkpt lat="47.40421" lon="1.20282">
        <ele>103.8</ele>
        <time>2020-07-03T09:21:40Z</time>
      </trkpt>
      <trkpt lat="47.40414" lon="1.20281">
        <ele>103.8</ele>
        <time>2020-07-03T09:21:41Z</time>
      </trkpt>
      <trkpt lat="47.40408" lon="1.20281">
        <ele>103.9</ele>
        <time>2020-07-03T09:21:42Z</time>
      </trkpt>
      <trkpt lat="47.40401" lon="1.2028">
        <ele>103.7</ele>
        <time>2020-07-03T09:21:43Z</time>
      </trkpt>
      <trkpt lat="47.40394" lon="1.2028">
        <ele>103.5</ele>
        <time>2020-07-03T09:21:44Z</time>
      </trkpt>
      <trkpt lat="47.40387" lon="1.2028">
        <ele>103.4</ele>
        <time>2020-07-03T09:21:45Z</time>
      </trkpt>
      <trkpt lat="47.4038" lon="1.20279">
        <ele>103.3</ele>
        <time>2020-07-03T09:21:46Z</time>
      </trkpt>
      <trkpt lat="47.40374" lon="1.20279">
        <ele>103.3</ele>
        <time>2020-07-03T09:21:47Z</time>
      </trkpt>
      <trkpt lat="47.40367" lon="1.20279">
        <ele>103.3</ele>
        <time>2020-07-03T09:21:48Z</time>
      </trkpt>
      <trkpt lat="47.40361" lon="1.20278">
        <ele>103.2</ele>
        <time>2020-07-03T09:21:49Z</time>
      </trkpt>
      <trkpt lat="47.40354" lon="1.20278">
        <ele>103.2</ele>
        <time>2020-07-03T09:21:50Z</time>
      </trkpt>
      <trkpt lat="47.40348" lon="1.20277">
        <ele>103.2</ele>
        <time>2020-07-03T09:21:51Z</time>
      </trkpt>
      <trkpt lat="47.40342" lon="1.20276">
        <ele>103.2</ele>
        <time>2020-07-03T09:21:52Z</time>
      </trkpt>
      <trkpt lat="47.40335" lon="1.20276">
        <ele>103.2</ele>
        <time>2020-07-03T09:21:53Z</time>
      </trkpt>
      <trkpt lat="47.40328" lon="1.20275">
        <ele>103.2</ele>
        <time>2020-07-03T09:21:54Z</time>
      </trkpt>
      <trkpt lat="47.40322" lon="1.20275">
        <ele>103.2</ele>
        <time>2020-07-03T09:21:55Z</time>
      </trkpt>
      <trkpt lat="47.40316" lon="1.20275">
        <ele>103.1</ele>
        <time>2020-07-03T09:21:56Z</time>
      </trkpt>
      <trkpt lat="47.4031" lon="1.20274">
        <ele>103.1</ele>
        <time>2020-07-03T09:21:57Z</time>
      </trkpt>
      <trkpt lat="47.40303" lon="1.20274">
        <ele>103</ele>
        <time>2020-07-03T09:21:58Z</time>
      </trkpt>
      <trkpt lat="47.40298" lon="1.20274">
        <ele>103</ele>
        <time>2020-07-03T09:21:59Z</time>
      </trkpt>
      <trkpt lat="47.40291" lon="1.20274">
        <ele>103.1</ele>
        <time>2020-07-03T09:22:00Z</time>
      </trkpt>
      <trkpt lat="47.40285" lon="1.20274">
        <ele>103.1</ele>
        <time>2020-07-03T09:22:01Z</time>
      </trkpt>
      <trkpt lat="47.40279" lon="1.20273">
        <ele>103.1</ele>
        <time>2020-07-03T09:22:02Z</time>
      </trkpt>
      <trkpt lat="47.40275" lon="1.20273">
        <ele>103.2</ele>
        <time>2020-07-03T09:22:03Z</time>
      </trkpt>
      <trkpt lat="47.4027" lon="1.20272">
        <ele>103.2</ele>
        <time>2020-07-03T09:22:04Z</time>
      </trkpt>
      <trkpt lat="47.40266" lon="1.20269">
        <ele>103.3</ele>
        <time>2020-07-03T09:22:05Z</time>
      </trkpt>
      <trkpt lat="47.40262" lon="1.20264">
        <ele>103.2</ele>
        <time>2020-07-03T09:22:06Z</time>
      </trkpt>
      <trkpt lat="47.40261" lon="1.20256">
        <ele>103.2</ele>
        <time>2020-07-03T09:22:07Z</time>
      </trkpt>
      <trkpt lat="47.40262" lon="1.20248">
        <ele>103.1</ele>
        <time>2020-07-03T09:22:08Z</time>
      </trkpt>
      <trkpt lat="47.40263" lon="1.20241">
        <ele>103</ele>
        <time>2020-07-03T09:22:09Z</time>
      </trkpt>
      <trkpt lat="47.40263" lon="1.20234">
        <ele>103</ele>
        <time>2020-07-03T09:22:10Z</time>
      </trkpt>
      <trkpt lat="47.40263" lon="1.20225">
        <ele>102.9</ele>
        <time>2020-07-03T09:22:11Z</time>
      </trkpt>
      <trkpt lat="47.40263" lon="1.20215">
        <ele>102.8</ele>
        <time>2020-07-03T09:22:12Z</time>
      </trkpt>
      <trkpt lat="47.40264" lon="1.20207">
        <ele>102.8</ele>
        <time>2020-07-03T09:22:13Z</time>
      </trkpt>
      <trkpt lat="47.40265" lon="1.202">
        <ele>102.7</ele>
        <time>2020-07-03T09:22:14Z</time>
      </trkpt>
      <trkpt lat="47.40265" lon="1.20194">
        <ele>102.7</ele>
        <time>2020-07-03T09:22:15Z</time>
      </trkpt>
      <trkpt lat="47.40265" lon="1.20186">
        <ele>102.7</ele>
        <time>2020-07-03T09:22:16Z</time>
      </trkpt>
      <trkpt lat="47.40265" lon="1.20177">
        <ele>102.7</ele>
        <time>2020-07-03T09:22:17Z</time>
      </trkpt>
      <trkpt lat="47.40265" lon="1.20167">
        <ele>102.7</ele>
        <time>2020-07-03T09:22:18Z</time>
      </trkpt>
      <trkpt lat="47.40265" lon="1.20158">
        <ele>102.7</ele>
        <time>2020-07-03T09:22:19Z</time>
      </trkpt>
      <trkpt lat="47.40264" lon="1.20148">
        <ele>102.7</ele>
        <time>2020-07-03T09:22:20Z</time>
      </trkpt>
      <trkpt lat="47.40264" lon="1.20139">
        <ele>102.7</ele>
        <time>2020-07-03T09:22:21Z</time>
      </trkpt>
      <trkpt lat="47.40264" lon="1.2013">
        <ele>102.6</ele>
        <time>2020-07-03T09:22:22Z</time>
      </trkpt>
      <trkpt lat="47.40264" lon="1.20122">
        <ele>102.6</ele>
        <time>2020-07-03T09:22:23Z</time>
      </trkpt>
      <trkpt lat="47.40265" lon="1.20113">
        <ele>102.5</ele>
        <time>2020-07-03T09:22:24Z</time>
      </trkpt>
      <trkpt lat="47.40265" lon="1.20104">
        <ele>102.5</ele>
        <time>2020-07-03T09:22:25Z</time>
      </trkpt>
      <trkpt lat="47.40265" lon="1.20097">
        <ele>102.4</ele>
        <time>2020-07-03T09:22:26Z</time>
      </trkpt>
      <trkpt lat="47.40266" lon="1.20089">
        <ele>102.5</ele>
        <time>2020-07-03T09:22:27Z</time>
      </trkpt>
      <trkpt lat="47.40266" lon="1.20081">
        <ele>102.5</ele>
        <time>2020-07-03T09:22:28Z</time>
      </trkpt>
      <trkpt lat="47.40266" lon="1.2007">
        <ele>102.6</ele>
        <time>2020-07-03T09:22:29Z</time>
      </trkpt>
      <trkpt lat="47.40267" lon="1.20063">
        <ele>102.6</ele>
        <time>2020-07-03T09:22:30Z</time>
      </trkpt>
      <trkpt lat="47.40268" lon="1.20054">
        <ele>102.6</ele>
        <time>2020-07-03T09:22:31Z</time>
      </trkpt>
      <trkpt lat="47.40269" lon="1.20046">
        <ele>102.6</ele>
        <time>2020-07-03T09:22:32Z</time>
      </trkpt>
      <trkpt lat="47.40269" lon="1.20037">
        <ele>102.6</ele>
        <time>2020-07-03T09:22:33Z</time>
      </trkpt>
      <trkpt lat="47.4027" lon="1.20027">
        <ele>102.6</ele>
        <time>2020-07-03T09:22:34Z</time>
      </trkpt>
      <trkpt lat="47.40269" lon="1.20019">
        <ele>102.6</ele>
        <time>2020-07-03T09:22:35Z</time>
      </trkpt>
      <trkpt lat="47.4027" lon="1.20011">
        <ele>102.6</ele>
        <time>2020-07-03T09:22:36Z</time>
      </trkpt>
      <trkpt lat="47.4027" lon="1.20001">
        <ele>102.6</ele>
        <time>2020-07-03T09:22:37Z</time>
      </trkpt>
      <trkpt lat="47.4027" lon="1.19994">
        <ele>102.6</ele>
        <time>2020-07-03T09:22:38Z</time>
      </trkpt>
      <trkpt lat="47.40271" lon="1.19988">
        <ele>102.6</ele>
        <time>2020-07-03T09:22:39Z</time>
      </trkpt>
      <trkpt lat="47.40271" lon="1.1998">
        <ele>102.6</ele>
        <time>2020-07-03T09:22:40Z</time>
      </trkpt>
      <trkpt lat="47.40271" lon="1.19971">
        <ele>102.6</ele>
        <time>2020-07-03T09:22:41Z</time>
      </trkpt>
      <trkpt lat="47.40271" lon="1.19962">
        <ele>102.6</ele>
        <time>2020-07-03T09:22:42Z</time>
      </trkpt>
      <trkpt lat="47.40271" lon="1.19955">
        <ele>102.6</ele>
        <time>2020-07-03T09:22:43Z</time>
      </trkpt>
      <trkpt lat="47.4027" lon="1.19946">
        <ele>102.6</ele>
        <time>2020-07-03T09:22:44Z</time>
      </trkpt>
      <trkpt lat="47.4027" lon="1.19938">
        <ele>102.6</ele>
        <time>2020-07-03T09:22:45Z</time>
      </trkpt>
      <trkpt lat="47.4027" lon="1.19928">
        <ele>102.6</ele>
        <time>2020-07-03T09:22:46Z</time>
      </trkpt>
      <trkpt lat="47.4027" lon="1.1992">
        <ele>102.6</ele>
        <time>2020-07-03T09:22:47Z</time>
      </trkpt>
      <trkpt lat="47.40271" lon="1.19912">
        <ele>102.6</ele>
        <time>2020-07-03T09:22:48Z</time>
      </trkpt>
      <trkpt lat="47.40271" lon="1.19902">
        <ele>102.6</ele>
        <time>2020-07-03T09:22:49Z</time>
      </trkpt>
      <trkpt lat="47.40272" lon="1.19894">
        <ele>102.6</ele>
        <time>2020-07-03T09:22:50Z</time>
      </trkpt>
      <trkpt lat="47.40272" lon="1.19884">
        <ele>102.6</ele>
        <time>2020-07-03T09:22:51Z</time>
      </trkpt>
      <trkpt lat="47.40273" lon="1.19875">
        <ele>102.5</ele>
        <time>2020-07-03T09:22:52Z</time>
      </trkpt>
      <trkpt lat="47.40274" lon="1.19867">
        <ele>102.5</ele>
        <time>2020-07-03T09:22:53Z</time>
      </trkpt>
      <trkpt lat="47.40274" lon="1.19858">
        <ele>102.5</ele>
        <time>2020-07-03T09:22:54Z</time>
      </trkpt>
      <trkpt lat="47.40274" lon="1.19848">
        <ele>102.6</ele>
        <time>2020-07-03T09:22:55Z</time>
      </trkpt>
      <trkpt lat="47.40273" lon="1.1984">
        <ele>102.6</ele>
        <time>2020-07-03T09:22:56Z</time>
      </trkpt>
      <trkpt lat="47.40273" lon="1.19831">
        <ele>102.6</ele>
        <time>2020-07-03T09:22:57Z</time>
      </trkpt>
      <trkpt lat="47.40273" lon="1.19822">
        <ele>102.7</ele>
        <time>2020-07-03T09:22:58Z</time>
      </trkpt>
      <trkpt lat="47.40273" lon="1.19812">
        <ele>102.7</ele>
        <time>2020-07-03T09:22:59Z</time>
      </trkpt>
      <trkpt lat="47.40274" lon="1.19803">
        <ele>102.7</ele>
        <time>2020-07-03T09:23:00Z</time>
      </trkpt>
      <trkpt lat="47.40275" lon="1.19794">
        <ele>102.6</ele>
        <time>2020-07-03T09:23:01Z</time>
      </trkpt>
      <trkpt lat="47.40275" lon="1.19786">
        <ele>102.6</ele>
        <time>2020-07-03T09:23:02Z</time>
      </trkpt>
      <trkpt lat="47.40275" lon="1.19777">
        <ele>102.6</ele>
        <time>2020-07-03T09:23:03Z</time>
      </trkpt>
      <trkpt lat="47.40274" lon="1.1977">
        <ele>102.5</ele>
        <time>2020-07-03T09:23:04Z</time>
      </trkpt>
      <trkpt lat="47.40273" lon="1.19762">
        <ele>102.5</ele>
        <time>2020-07-03T09:23:05Z</time>
      </trkpt>
      <trkpt lat="47.40273" lon="1.19753">
        <ele>102.5</ele>
        <time>2020-07-03T09:23:06Z</time>
      </trkpt>
      <trkpt lat="47.40272" lon="1.19746">
        <ele>102.5</ele>
        <time>2020-07-03T09:23:07Z</time>
      </trkpt>
      <trkpt lat="47.40271" lon="1.19736">
        <ele>102.6</ele>
        <time>2020-07-03T09:23:08Z</time>
      </trkpt>
      <trkpt lat="47.4027" lon="1.19727">
        <ele>102.6</ele>
        <time>2020-07-03T09:23:09Z</time>
      </trkpt>
      <trkpt lat="47.40269" lon="1.19717">
        <ele>102.5</ele>
        <time>2020-07-03T09:23:10Z</time>
      </trkpt>
      <trkpt lat="47.40268" lon="1.19709">
        <ele>102.5</ele>
        <time>2020-07-03T09:23:11Z</time>
      </trkpt>
      <trkpt lat="47.40266" lon="1.19701">
        <ele>102.4</ele>
        <time>2020-07-03T09:23:12Z</time>
      </trkpt>
      <trkpt lat="47.40266" lon="1.19692">
        <ele>102.4</ele>
        <time>2020-07-03T09:23:13Z</time>
      </trkpt>
      <trkpt lat="47.40264" lon="1.19684">
        <ele>102.3</ele>
        <time>2020-07-03T09:23:14Z</time>
      </trkpt>
      <trkpt lat="47.40263" lon="1.19677">
        <ele>102.3</ele>
        <time>2020-07-03T09:23:15Z</time>
      </trkpt>
      <trkpt lat="47.40262" lon="1.19667">
        <ele>102.3</ele>
        <time>2020-07-03T09:23:16Z</time>
      </trkpt>
      <trkpt lat="47.4026" lon="1.1966">
        <ele>102.3</ele>
        <time>2020-07-03T09:23:17Z</time>
      </trkpt>
      <trkpt lat="47.40259" lon="1.19649">
        <ele>102.3</ele>
        <time>2020-07-03T09:23:18Z</time>
      </trkpt>
      <trkpt lat="47.40257" lon="1.19639">
        <ele>102.3</ele>
        <time>2020-07-03T09:23:19Z</time>
      </trkpt>
      <trkpt lat="47.40255" lon="1.19634">
        <ele>102.2</ele>
        <time>2020-07-03T09:23:20Z</time>
      </trkpt>
      <trkpt lat="47.40253" lon="1.19626">
        <ele>102.2</ele>
        <time>2020-07-03T09:23:21Z</time>
      </trkpt>
      <trkpt lat="47.40252" lon="1.19617">
        <ele>102.1</ele>
        <time>2020-07-03T09:23:22Z</time>
      </trkpt>
      <trkpt lat="47.4025" lon="1.19609">
        <ele>102</ele>
        <time>2020-07-03T09:23:23Z</time>
      </trkpt>
      <trkpt lat="47.40248" lon="1.19599">
        <ele>102</ele>
        <time>2020-07-03T09:23:24Z</time>
      </trkpt>
      <trkpt lat="47.40246" lon="1.1959">
        <ele>102</ele>
        <time>2020-07-03T09:23:25Z</time>
      </trkpt>
      <trkpt lat="47.40245" lon="1.19581">
        <ele>102</ele>
        <time>2020-07-03T09:23:26Z</time>
      </trkpt>
      <trkpt lat="47.40243" lon="1.19575">
        <ele>102.1</ele>
        <time>2020-07-03T09:23:27Z</time>
      </trkpt>
      <trkpt lat="47.40241" lon="1.19565">
        <ele>102.1</ele>
        <time>2020-07-03T09:23:28Z</time>
      </trkpt>
      <trkpt lat="47.4024" lon="1.19555">
        <ele>102.2</ele>
        <time>2020-07-03T09:23:29Z</time>
      </trkpt>
      <trkpt lat="47.40238" lon="1.19545">
        <ele>102.2</ele>
        <time>2020-07-03T09:23:30Z</time>
      </trkpt>
      <trkpt lat="47.40237" lon="1.19536">
        <ele>102.2</ele>
        <time>2020-07-03T09:23:31Z</time>
      </trkpt>
      <trkpt lat="47.40235" lon="1.19528">
        <ele>102.2</ele>
        <time>2020-07-03T09:23:32Z</time>
      </trkpt>
      <trkpt lat="47.40234" lon="1.19519">
        <ele>102.3</ele>
        <time>2020-07-03T09:23:33Z</time>
      </trkpt>
      <trkpt lat="47.40232" lon="1.19512">
        <ele>102.3</ele>
        <time>2020-07-03T09:23:34Z</time>
      </trkpt>
      <trkpt lat="47.4023" lon="1.19504">
        <ele>102.3</ele>
        <time>2020-07-03T09:23:35Z</time>
      </trkpt>
      <trkpt lat="47.40228" lon="1.19495">
        <ele>102.4</ele>
        <time>2020-07-03T09:23:36Z</time>
      </trkpt>
      <trkpt lat="47.40226" lon="1.19486">
        <ele>102.5</ele>
        <time>2020-07-03T09:23:37Z</time>
      </trkpt>
      <trkpt lat="47.40224" lon="1.19478">
        <ele>102.5</ele>
        <time>2020-07-03T09:23:38Z</time>
      </trkpt>
      <trkpt lat="47.40222" lon="1.1947">
        <ele>102.6</ele>
        <time>2020-07-03T09:23:39Z</time>
      </trkpt>
      <trkpt lat="47.40219" lon="1.19461">
        <ele>102.7</ele>
        <time>2020-07-03T09:23:40Z</time>
      </trkpt>
      <trkpt lat="47.40217" lon="1.19452">
        <ele>102.8</ele>
        <time>2020-07-03T09:23:41Z</time>
      </trkpt>
      <trkpt lat="47.40216" lon="1.19443">
        <ele>102.8</ele>
        <time>2020-07-03T09:23:42Z</time>
      </trkpt>
      <trkpt lat="47.40214" lon="1.19435">
        <ele>102.8</ele>
        <time>2020-07-03T09:23:43Z</time>
      </trkpt>
      <trkpt lat="47.40213" lon="1.19427">
        <ele>102.8</ele>
        <time>2020-07-03T09:23:44Z</time>
      </trkpt>
      <trkpt lat="47.40213" lon="1.1942">
        <ele>102.9</ele>
        <time>2020-07-03T09:23:45Z</time>
      </trkpt>
      <trkpt lat="47.40212" lon="1.19413">
        <ele>102.9</ele>
        <time>2020-07-03T09:23:46Z</time>
      </trkpt>
      <trkpt lat="47.40211" lon="1.19405">
        <ele>103</ele>
        <time>2020-07-03T09:23:47Z</time>
      </trkpt>
      <trkpt lat="47.4021" lon="1.19396">
        <ele>103</ele>
        <time>2020-07-03T09:23:48Z</time>
      </trkpt>
      <trkpt lat="47.40209" lon="1.19387">
        <ele>103.1</ele>
        <time>2020-07-03T09:23:49Z</time>
      </trkpt>
      <trkpt lat="47.40207" lon="1.19378">
        <ele>103.2</ele>
        <time>2020-07-03T09:23:50Z</time>
      </trkpt>
      <trkpt lat="47.40206" lon="1.19371">
        <ele>103.3</ele>
        <time>2020-07-03T09:23:51Z</time>
      </trkpt>
      <trkpt lat="47.40205" lon="1.19364">
        <ele>103.4</ele>
        <time>2020-07-03T09:23:52Z</time>
      </trkpt>
      <trkpt lat="47.40203" lon="1.19357">
        <ele>103.4</ele>
        <time>2020-07-03T09:23:53Z</time>
      </trkpt>
      <trkpt lat="47.40202" lon="1.19349">
        <ele>103.4</ele>
        <time>2020-07-03T09:23:54Z</time>
      </trkpt>
      <trkpt lat="47.402" lon="1.19341">
        <ele>103.5</ele>
        <time>2020-07-03T09:23:55Z</time>
      </trkpt>
      <trkpt lat="47.40199" lon="1.19333">
        <ele>103.5</ele>
        <time>2020-07-03T09:23:56Z</time>
      </trkpt>
      <trkpt lat="47.40197" lon="1.19324">
        <ele>103.5</ele>
        <time>2020-07-03T09:23:57Z</time>
      </trkpt>
      <trkpt lat="47.40195" lon="1.19316">
        <ele>103.6</ele>
        <time>2020-07-03T09:23:58Z</time>
      </trkpt>
      <trkpt lat="47.40194" lon="1.19308">
        <ele>103.6</ele>
        <time>2020-07-03T09:23:59Z</time>
      </trkpt>
      <trkpt lat="47.40192" lon="1.19299">
        <ele>103.6</ele>
        <time>2020-07-03T09:24:00Z</time>
      </trkpt>
      <trkpt lat="47.40191" lon="1.19288">
        <ele>103.7</ele>
        <time>2020-07-03T09:24:01Z</time>
      </trkpt>
      <trkpt lat="47.4019" lon="1.19279">
        <ele>103.6</ele>
        <time>2020-07-03T09:24:02Z</time>
      </trkpt>
      <trkpt lat="47.40188" lon="1.1927">
        <ele>103.6</ele>
        <time>2020-07-03T09:24:03Z</time>
      </trkpt>
      <trkpt lat="47.40186" lon="1.19262">
        <ele>103.5</ele>
        <time>2020-07-03T09:24:04Z</time>
      </trkpt>
      <trkpt lat="47.40184" lon="1.19254">
        <ele>103.5</ele>
        <time>2020-07-03T09:24:05Z</time>
      </trkpt>
      <trkpt lat="47.40183" lon="1.19244">
        <ele>103.5</ele>
        <time>2020-07-03T09:24:06Z</time>
      </trkpt>
      <trkpt lat="47.40181" lon="1.19234">
        <ele>103.5</ele>
        <time>2020-07-03T09:24:07Z</time>
      </trkpt>
      <trkpt lat="47.40179" lon="1.19226">
        <ele>103.5</ele>
        <time>2020-07-03T09:24:08Z</time>
      </trkpt>
      <trkpt lat="47.40177" lon="1.19217">
        <ele>103.5</ele>
        <time>2020-07-03T09:24:09Z</time>
      </trkpt>
      <trkpt lat="47.40175" lon="1.19209">
        <ele>103.5</ele>
        <time>2020-07-03T09:24:10Z</time>
      </trkpt>
      <trkpt lat="47.40173" lon="1.19199">
        <ele>103.5</ele>
        <time>2020-07-03T09:24:11Z</time>
      </trkpt>
      <trkpt lat="47.40171" lon="1.19189">
        <ele>103.4</ele>
        <time>2020-07-03T09:24:12Z</time>
      </trkpt>
      <trkpt lat="47.40169" lon="1.1918">
        <ele>103.3</ele>
        <time>2020-07-03T09:24:13Z</time>
      </trkpt>
      <trkpt lat="47.40168" lon="1.19171">
        <ele>103.1</ele>
        <time>2020-07-03T09:24:14Z</time>
      </trkpt>
      <trkpt lat="47.40167" lon="1.19161">
        <ele>102.9</ele>
        <time>2020-07-03T09:24:15Z</time>
      </trkpt>
      <trkpt lat="47.40166" lon="1.19152">
        <ele>102.7</ele>
        <time>2020-07-03T09:24:16Z</time>
      </trkpt>
      <trkpt lat="47.40165" lon="1.19142">
        <ele>102.3</ele>
        <time>2020-07-03T09:24:17Z</time>
      </trkpt>
      <trkpt lat="47.40164" lon="1.19133">
        <ele>101.7</ele>
        <time>2020-07-03T09:24:18Z</time>
      </trkpt>
      <trkpt lat="47.40163" lon="1.19124">
        <ele>101.2</ele>
        <time>2020-07-03T09:24:19Z</time>
      </trkpt>
      <trkpt lat="47.40162" lon="1.19116">
        <ele>101</ele>
        <time>2020-07-03T09:24:20Z</time>
      </trkpt>
      <trkpt lat="47.40162" lon="1.19105">
        <ele>100.9</ele>
        <time>2020-07-03T09:24:21Z</time>
      </trkpt>
      <trkpt lat="47.40162" lon="1.19096">
        <ele>100.7</ele>
        <time>2020-07-03T09:24:22Z</time>
      </trkpt>
      <trkpt lat="47.40161" lon="1.19088">
        <ele>100.6</ele>
        <time>2020-07-03T09:24:23Z</time>
      </trkpt>
      <trkpt lat="47.40161" lon="1.19078">
        <ele>100.6</ele>
        <time>2020-07-03T09:24:24Z</time>
      </trkpt>
      <trkpt lat="47.40161" lon="1.19069">
        <ele>100.6</ele>
        <time>2020-07-03T09:24:25Z</time>
      </trkpt>
      <trkpt lat="47.40161" lon="1.19059">
        <ele>100.6</ele>
        <time>2020-07-03T09:24:26Z</time>
      </trkpt>
      <trkpt lat="47.40161" lon="1.1905">
        <ele>100.6</ele>
        <time>2020-07-03T09:24:27Z</time>
      </trkpt>
      <trkpt lat="47.40161" lon="1.1904">
        <ele>100.6</ele>
        <time>2020-07-03T09:24:28Z</time>
      </trkpt>
      <trkpt lat="47.40161" lon="1.19032">
        <ele>100.6</ele>
        <time>2020-07-03T09:24:29Z</time>
      </trkpt>
      <trkpt lat="47.40162" lon="1.19023">
        <ele>100.7</ele>
        <time>2020-07-03T09:24:30Z</time>
      </trkpt>
      <trkpt lat="47.40163" lon="1.19015">
        <ele>100.7</ele>
        <time>2020-07-03T09:24:31Z</time>
      </trkpt>
      <trkpt lat="47.40164" lon="1.19009">
        <ele>100.8</ele>
        <time>2020-07-03T09:24:32Z</time>
      </trkpt>
      <trkpt lat="47.40164" lon="1.19001">
        <ele>100.8</ele>
        <time>2020-07-03T09:24:33Z</time>
      </trkpt>
      <trkpt lat="47.40164" lon="1.18993">
        <ele>100.9</ele>
        <time>2020-07-03T09:24:34Z</time>
      </trkpt>
      <trkpt lat="47.40163" lon="1.18984">
        <ele>100.9</ele>
        <time>2020-07-03T09:24:35Z</time>
      </trkpt>
      <trkpt lat="47.40163" lon="1.18978">
        <ele>101</ele>
        <time>2020-07-03T09:24:36Z</time>
      </trkpt>
      <trkpt lat="47.40162" lon="1.18966">
        <ele>101</ele>
        <time>2020-07-03T09:24:37Z</time>
      </trkpt>
      <trkpt lat="47.40162" lon="1.18957">
        <ele>101</ele>
        <time>2020-07-03T09:24:38Z</time>
      </trkpt>
      <trkpt lat="47.40162" lon="1.18949">
        <ele>101.1</ele>
        <time>2020-07-03T09:24:39Z</time>
      </trkpt>
      <trkpt lat="47.40162" lon="1.18941">
        <ele>101.1</ele>
        <time>2020-07-03T09:24:40Z</time>
      </trkpt>
      <trkpt lat="47.40161" lon="1.18933">
        <ele>101.1</ele>
        <time>2020-07-03T09:24:41Z</time>
      </trkpt>
      <trkpt lat="47.4016" lon="1.18926">
        <ele>101.2</ele>
        <time>2020-07-03T09:24:42Z</time>
      </trkpt>
      <trkpt lat="47.4016" lon="1.18917">
        <ele>101.2</ele>
        <time>2020-07-03T09:24:43Z</time>
      </trkpt>
      <trkpt lat="47.4016" lon="1.18909">
        <ele>101.3</ele>
        <time>2020-07-03T09:24:44Z</time>
      </trkpt>
      <trkpt lat="47.40159" lon="1.18901">
        <ele>101.4</ele>
        <time>2020-07-03T09:24:45Z</time>
      </trkpt>
      <trkpt lat="47.40158" lon="1.18892">
        <ele>101.1</ele>
        <time>2020-07-03T09:24:46Z</time>
      </trkpt>
      <trkpt lat="47.40159" lon="1.18885">
        <ele>101</ele>
        <time>2020-07-03T09:24:47Z</time>
      </trkpt>
      <trkpt lat="47.40159" lon="1.18877">
        <ele>100.8</ele>
        <time>2020-07-03T09:24:48Z</time>
      </trkpt>
      <trkpt lat="47.4016" lon="1.18868">
        <ele>100.7</ele>
        <time>2020-07-03T09:24:49Z</time>
      </trkpt>
      <trkpt lat="47.40161" lon="1.1886">
        <ele>100.6</ele>
        <time>2020-07-03T09:24:50Z</time>
      </trkpt>
      <trkpt lat="47.40161" lon="1.1885">
        <ele>100.5</ele>
        <time>2020-07-03T09:24:51Z</time>
      </trkpt>
      <trkpt lat="47.40161" lon="1.18843">
        <ele>100.4</ele>
        <time>2020-07-03T09:24:52Z</time>
      </trkpt>
      <trkpt lat="47.40161" lon="1.18836">
        <ele>100.3</ele>
        <time>2020-07-03T09:24:53Z</time>
      </trkpt>
      <trkpt lat="47.4016" lon="1.18826">
        <ele>100.3</ele>
        <time>2020-07-03T09:24:54Z</time>
      </trkpt>
      <trkpt lat="47.4016" lon="1.18818">
        <ele>100.3</ele>
        <time>2020-07-03T09:24:55Z</time>
      </trkpt>
      <trkpt lat="47.4016" lon="1.18811">
        <ele>100.3</ele>
        <time>2020-07-03T09:24:56Z</time>
      </trkpt>
      <trkpt lat="47.4016" lon="1.18803">
        <ele>100.3</ele>
        <time>2020-07-03T09:24:57Z</time>
      </trkpt>
      <trkpt lat="47.4016" lon="1.18795">
        <ele>100.2</ele>
        <time>2020-07-03T09:24:58Z</time>
      </trkpt>
      <trkpt lat="47.4016" lon="1.18788">
        <ele>100.2</ele>
        <time>2020-07-03T09:24:59Z</time>
      </trkpt>
      <trkpt lat="47.40161" lon="1.1878">
        <ele>100.2</ele>
        <time>2020-07-03T09:25:00Z</time>
      </trkpt>
      <trkpt lat="47.40162" lon="1.18776">
        <ele>100.2</ele>
        <time>2020-07-03T09:25:01Z</time>
      </trkpt>
      <trkpt lat="47.40162" lon="1.18773">
        <ele>100.2</ele>
        <time>2020-07-03T09:25:02Z</time>
      </trkpt>
      <trkpt lat="47.40161" lon="1.18772">
        <ele>100.2</ele>
        <time>2020-07-03T09:25:03Z</time>
      </trkpt>
      <trkpt lat="47.40162" lon="1.18773">
        <ele>100.2</ele>
        <time>2020-07-03T09:25:04Z</time>
      </trkpt>
      <trkpt lat="47.40159" lon="1.18772">
        <ele>100.2</ele>
        <time>2020-07-03T09:25:05Z</time>
      </trkpt>
      <trkpt lat="47.40159" lon="1.18774">
        <ele>100.2</ele>
        <time>2020-07-03T09:25:06Z</time>
      </trkpt>
      <trkpt lat="47.40159" lon="1.18777">
        <ele>100.2</ele>
        <time>2020-07-03T09:25:07Z</time>
      </trkpt>
      <trkpt lat="47.4016" lon="1.18782">
        <ele>100.2</ele>
        <time>2020-07-03T09:25:08Z</time>
      </trkpt>
      <trkpt lat="47.40161" lon="1.18783">
        <ele>100.2</ele>
        <time>2020-07-03T09:25:09Z</time>
      </trkpt>
      <trkpt lat="47.40161" lon="1.18787">
        <ele>100.2</ele>
        <time>2020-07-03T09:25:10Z</time>
      </trkpt>
      <trkpt lat="47.40161" lon="1.18789">
        <ele>100.2</ele>
        <time>2020-07-03T09:25:11Z</time>
      </trkpt>
      <trkpt lat="47.40162" lon="1.18791">
        <ele>100.2</ele>
        <time>2020-07-03T09:25:12Z</time>
      </trkpt>
      <trkpt lat="47.40163" lon="1.18792">
        <ele>100.2</ele>
        <time>2020-07-03T09:25:13Z</time>
      </trkpt>
      <trkpt lat="47.40162" lon="1.18792">
        <ele>100.2</ele>
        <time>2020-07-03T09:25:14Z</time>
      </trkpt>
      <trkpt lat="47.40162" lon="1.18791">
        <ele>100.2</ele>
        <time>2020-07-03T09:25:15Z</time>
      </trkpt>
      <trkpt lat="47.40163" lon="1.1879">
        <ele>100.2</ele>
        <time>2020-07-03T09:25:16Z</time>
      </trkpt>
      <trkpt lat="47.40163" lon="1.1879">
        <ele>100.2</ele>
        <time>2020-07-03T09:25:17Z</time>
      </trkpt>
      <trkpt lat="47.40162" lon="1.1879">
        <ele>100.2</ele>
        <time>2020-07-03T09:25:18Z</time>
      </trkpt>
      <trkpt lat="47.40162" lon="1.1879">
        <ele>100.2</ele>
        <time>2020-07-03T09:25:19Z</time>
      </trkpt>
      <trkpt lat="47.40161" lon="1.1879">
        <ele>100.1</ele>
        <time>2020-07-03T09:25:20Z</time>
      </trkpt>
      <trkpt lat="47.4016" lon="1.1879">
        <ele>100.1</ele>
        <time>2020-07-03T09:25:21Z</time>
      </trkpt>
      <trkpt lat="47.4016" lon="1.1879">
        <ele>100.1</ele>
        <time>2020-07-03T09:25:22Z</time>
      </trkpt>
      <trkpt lat="47.4016" lon="1.1879">
        <ele>100.1</ele>
        <time>2020-07-03T09:25:23Z</time>
      </trkpt>
      <trkpt lat="47.4016" lon="1.1879">
        <ele>100.1</ele>
        <time>2020-07-03T09:25:24Z</time>
      </trkpt>
      <trkpt lat="47.4016" lon="1.18791">
        <ele>100.1</ele>
        <time>2020-07-03T09:25:25Z</time>
      </trkpt>
      <trkpt lat="47.4016" lon="1.18791">
        <ele>100.1</ele>
        <time>2020-07-03T09:25:26Z</time>
      </trkpt>
      <trkpt lat="47.4016" lon="1.1879">
        <ele>100.1</ele>
        <time>2020-07-03T09:25:27Z</time>
      </trkpt>
      <trkpt lat="47.40161" lon="1.1879">
        <ele>100.1</ele>
        <time>2020-07-03T09:25:28Z</time>
      </trkpt>
      <trkpt lat="47.40161" lon="1.1879">
        <ele>100.1</ele>
        <time>2020-07-03T09:25:29Z</time>
      </trkpt>
      <trkpt lat="47.40162" lon="1.18789">
        <ele>100.1</ele>
        <time>2020-07-03T09:25:30Z</time>
      </trkpt>
      <trkpt lat="47.40161" lon="1.18787">
        <ele>100.1</ele>
        <time>2020-07-03T09:25:31Z</time>
      </trkpt>
      <trkpt lat="47.40161" lon="1.18786">
        <ele>100.1</ele>
        <time>2020-07-03T09:25:32Z</time>
      </trkpt>
      <trkpt lat="47.40161" lon="1.18784">
        <ele>100.1</ele>
        <time>2020-07-03T09:25:33Z</time>
      </trkpt>
      <trkpt lat="47.40161" lon="1.18781">
        <ele>100.1</ele>
        <time>2020-07-03T09:25:34Z</time>
      </trkpt>
      <trkpt lat="47.40161" lon="1.18775">
        <ele>100.1</ele>
        <time>2020-07-03T09:25:35Z</time>
      </trkpt>
      <trkpt lat="47.40161" lon="1.18773">
        <ele>100.1</ele>
        <time>2020-07-03T09:25:36Z</time>
      </trkpt>
      <trkpt lat="47.40161" lon="1.18767">
        <ele>100.1</ele>
        <time>2020-07-03T09:25:37Z</time>
      </trkpt>
      <trkpt lat="47.40161" lon="1.18762">
        <ele>100.1</ele>
        <time>2020-07-03T09:25:38Z</time>
      </trkpt>
      <trkpt lat="47.40161" lon="1.18756">
        <ele>100.1</ele>
        <time>2020-07-03T09:25:39Z</time>
      </trkpt>
      <trkpt lat="47.40162" lon="1.1875">
        <ele>100.1</ele>
        <time>2020-07-03T09:25:40Z</time>
      </trkpt>
      <trkpt lat="47.40162" lon="1.18743">
        <ele>100</ele>
        <time>2020-07-03T09:25:41Z</time>
      </trkpt>
      <trkpt lat="47.40163" lon="1.18737">
        <ele>100</ele>
        <time>2020-07-03T09:25:42Z</time>
      </trkpt>
      <trkpt lat="47.40163" lon="1.18731">
        <ele>100</ele>
        <time>2020-07-03T09:25:43Z</time>
      </trkpt>
      <trkpt lat="47.40162" lon="1.18724">
        <ele>100</ele>
        <time>2020-07-03T09:25:44Z</time>
      </trkpt>
      <trkpt lat="47.40162" lon="1.18718">
        <ele>100</ele>
        <time>2020-07-03T09:25:45Z</time>
      </trkpt>
      <trkpt lat="47.40161" lon="1.18712">
        <ele>100</ele>
        <time>2020-07-03T09:25:46Z</time>
      </trkpt>
      <trkpt lat="47.40162" lon="1.18705">
        <ele>100</ele>
        <time>2020-07-03T09:25:47Z</time>
      </trkpt>
      <trkpt lat="47.40161" lon="1.18698">
        <ele>100</ele>
        <time>2020-07-03T09:25:48Z</time>
      </trkpt>
      <trkpt lat="47.40161" lon="1.18691">
        <ele>100</ele>
        <time>2020-07-03T09:25:49Z</time>
      </trkpt>
      <trkpt lat="47.40163" lon="1.18686">
        <ele>100</ele>
        <time>2020-07-03T09:25:50Z</time>
      </trkpt>
      <trkpt lat="47.40163" lon="1.18679">
        <ele>100</ele>
        <time>2020-07-03T09:25:51Z</time>
      </trkpt>
      <trkpt lat="47.40162" lon="1.18672">
        <ele>100</ele>
        <time>2020-07-03T09:25:52Z</time>
      </trkpt>
      <trkpt lat="47.40162" lon="1.18665">
        <ele>100.1</ele>
        <time>2020-07-03T09:25:53Z</time>
      </trkpt>
      <trkpt lat="47.40162" lon="1.18657">
        <ele>100.1</ele>
        <time>2020-07-03T09:25:54Z</time>
      </trkpt>
      <trkpt lat="47.40162" lon="1.1865">
        <ele>100.1</ele>
        <time>2020-07-03T09:25:55Z</time>
      </trkpt>
      <trkpt lat="47.40162" lon="1.18644">
        <ele>100.2</ele>
        <time>2020-07-03T09:25:56Z</time>
      </trkpt>
      <trkpt lat="47.40162" lon="1.18636">
        <ele>100.2</ele>
        <time>2020-07-03T09:25:57Z</time>
      </trkpt>
      <trkpt lat="47.40162" lon="1.18629">
        <ele>100.3</ele>
        <time>2020-07-03T09:25:58Z</time>
      </trkpt>
      <trkpt lat="47.40161" lon="1.18621">
        <ele>100.3</ele>
        <time>2020-07-03T09:25:59Z</time>
      </trkpt>
      <trkpt lat="47.4016" lon="1.18614">
        <ele>100.3</ele>
        <time>2020-07-03T09:26:00Z</time>
      </trkpt>
      <trkpt lat="47.4016" lon="1.18606">
        <ele>100.3</ele>
        <time>2020-07-03T09:26:01Z</time>
      </trkpt>
      <trkpt lat="47.4016" lon="1.186">
        <ele>100.1</ele>
        <time>2020-07-03T09:26:02Z</time>
      </trkpt>
      <trkpt lat="47.4016" lon="1.18593">
        <ele>100</ele>
        <time>2020-07-03T09:26:03Z</time>
      </trkpt>
      <trkpt lat="47.4016" lon="1.18587">
        <ele>99.9</ele>
        <time>2020-07-03T09:26:04Z</time>
      </trkpt>
      <trkpt lat="47.40161" lon="1.1858">
        <ele>99.8</ele>
        <time>2020-07-03T09:26:05Z</time>
      </trkpt>
      <trkpt lat="47.40161" lon="1.18573">
        <ele>99.7</ele>
        <time>2020-07-03T09:26:06Z</time>
      </trkpt>
      <trkpt lat="47.40161" lon="1.18566">
        <ele>99.6</ele>
        <time>2020-07-03T09:26:07Z</time>
      </trkpt>
      <trkpt lat="47.40161" lon="1.18558">
        <ele>99.4</ele>
        <time>2020-07-03T09:26:08Z</time>
      </trkpt>
      <trkpt lat="47.40162" lon="1.1855">
        <ele>99.3</ele>
        <time>2020-07-03T09:26:09Z</time>
      </trkpt>
      <trkpt lat="47.40162" lon="1.18541">
        <ele>99.2</ele>
        <time>2020-07-03T09:26:10Z</time>
      </trkpt>
      <trkpt lat="47.40161" lon="1.18534">
        <ele>99.1</ele>
        <time>2020-07-03T09:26:11Z</time>
      </trkpt>
      <trkpt lat="47.40161" lon="1.18526">
        <ele>99</ele>
        <time>2020-07-03T09:26:12Z</time>
      </trkpt>
      <trkpt lat="47.40161" lon="1.18517">
        <ele>98.8</ele>
        <time>2020-07-03T09:26:13Z</time>
      </trkpt>
      <trkpt lat="47.40161" lon="1.18509">
        <ele>98.8</ele>
        <time>2020-07-03T09:26:14Z</time>
      </trkpt>
      <trkpt lat="47.40161" lon="1.18499">
        <ele>98.7</ele>
        <time>2020-07-03T09:26:15Z</time>
      </trkpt>
      <trkpt lat="47.4016" lon="1.1849">
        <ele>98.6</ele>
        <time>2020-07-03T09:26:16Z</time>
      </trkpt>
      <trkpt lat="47.40161" lon="1.1848">
        <ele>98.6</ele>
        <time>2020-07-03T09:26:17Z</time>
      </trkpt>
      <trkpt lat="47.40162" lon="1.18472">
        <ele>98.6</ele>
        <time>2020-07-03T09:26:18Z</time>
      </trkpt>
      <trkpt lat="47.40161" lon="1.18462">
        <ele>98.6</ele>
        <time>2020-07-03T09:26:19Z</time>
      </trkpt>
      <trkpt lat="47.40161" lon="1.18453">
        <ele>98.6</ele>
        <time>2020-07-03T09:26:20Z</time>
      </trkpt>
      <trkpt lat="47.40161" lon="1.18444">
        <ele>98.3</ele>
        <time>2020-07-03T09:26:21Z</time>
      </trkpt>
      <trkpt lat="47.40161" lon="1.18434">
        <ele>98.2</ele>
        <time>2020-07-03T09:26:22Z</time>
      </trkpt>
      <trkpt lat="47.40161" lon="1.18424">
        <ele>98.1</ele>
        <time>2020-07-03T09:26:23Z</time>
      </trkpt>
      <trkpt lat="47.40161" lon="1.18415">
        <ele>98</ele>
        <time>2020-07-03T09:26:24Z</time>
      </trkpt>
      <trkpt lat="47.4016" lon="1.18407">
        <ele>98</ele>
        <time>2020-07-03T09:26:25Z</time>
      </trkpt>
      <trkpt lat="47.4016" lon="1.18397">
        <ele>98.1</ele>
        <time>2020-07-03T09:26:26Z</time>
      </trkpt>
      <trkpt lat="47.40159" lon="1.18387">
        <ele>98.1</ele>
        <time>2020-07-03T09:26:27Z</time>
      </trkpt>
      <trkpt lat="47.40158" lon="1.18376">
        <ele>98.2</ele>
        <time>2020-07-03T09:26:28Z</time>
      </trkpt>
      <trkpt lat="47.40157" lon="1.18366">
        <ele>98.3</ele>
        <time>2020-07-03T09:26:29Z</time>
      </trkpt>
      <trkpt lat="47.40156" lon="1.18358">
        <ele>98.3</ele>
        <time>2020-07-03T09:26:30Z</time>
      </trkpt>
      <trkpt lat="47.40156" lon="1.1835">
        <ele>98.4</ele>
        <time>2020-07-03T09:26:31Z</time>
      </trkpt>
      <trkpt lat="47.40156" lon="1.18341">
        <ele>98.4</ele>
        <time>2020-07-03T09:26:32Z</time>
      </trkpt>
      <trkpt lat="47.40155" lon="1.18333">
        <ele>98.5</ele>
        <time>2020-07-03T09:26:33Z</time>
      </trkpt>
      <trkpt lat="47.40154" lon="1.18326">
        <ele>98.6</ele>
        <time>2020-07-03T09:26:34Z</time>
      </trkpt>
      <trkpt lat="47.40153" lon="1.18318">
        <ele>98.7</ele>
        <time>2020-07-03T09:26:35Z</time>
      </trkpt>
      <trkpt lat="47.40152" lon="1.18311">
        <ele>98.8</ele>
        <time>2020-07-03T09:26:36Z</time>
      </trkpt>
      <trkpt lat="47.40151" lon="1.18304">
        <ele>99</ele>
        <time>2020-07-03T09:26:37Z</time>
      </trkpt>
      <trkpt lat="47.4015" lon="1.18295">
        <ele>99.1</ele>
        <time>2020-07-03T09:26:38Z</time>
      </trkpt>
      <trkpt lat="47.4015" lon="1.18287">
        <ele>99.3</ele>
        <time>2020-07-03T09:26:39Z</time>
      </trkpt>
      <trkpt lat="47.40148" lon="1.18276">
        <ele>99.6</ele>
        <time>2020-07-03T09:26:40Z</time>
      </trkpt>
      <trkpt lat="47.40148" lon="1.1827">
        <ele>99.8</ele>
        <time>2020-07-03T09:26:41Z</time>
      </trkpt>
      <trkpt lat="47.40148" lon="1.18262">
        <ele>100</ele>
        <time>2020-07-03T09:26:42Z</time>
      </trkpt>
      <trkpt lat="47.40147" lon="1.18255">
        <ele>100.2</ele>
        <time>2020-07-03T09:26:43Z</time>
      </trkpt>
      <trkpt lat="47.40147" lon="1.18249">
        <ele>100.4</ele>
        <time>2020-07-03T09:26:44Z</time>
      </trkpt>
      <trkpt lat="47.40146" lon="1.18243">
        <ele>100.5</ele>
        <time>2020-07-03T09:26:45Z</time>
      </trkpt>
      <trkpt lat="47.40146" lon="1.18239">
        <ele>100.6</ele>
        <time>2020-07-03T09:26:46Z</time>
      </trkpt>
      <trkpt lat="47.40145" lon="1.18233">
        <ele>100.7</ele>
        <time>2020-07-03T09:26:47Z</time>
      </trkpt>
      <trkpt lat="47.40145" lon="1.18227">
        <ele>100.9</ele>
        <time>2020-07-03T09:26:48Z</time>
      </trkpt>
      <trkpt lat="47.40144" lon="1.1822">
        <ele>101</ele>
        <time>2020-07-03T09:26:49Z</time>
      </trkpt>
      <trkpt lat="47.40144" lon="1.18216">
        <ele>101.1</ele>
        <time>2020-07-03T09:26:50Z</time>
      </trkpt>
      <trkpt lat="47.40144" lon="1.1821">
        <ele>101.1</ele>
        <time>2020-07-03T09:26:51Z</time>
      </trkpt>
      <trkpt lat="47.40143" lon="1.18204">
        <ele>101.2</ele>
        <time>2020-07-03T09:26:52Z</time>
      </trkpt>
      <trkpt lat="47.40142" lon="1.18196">
        <ele>101.3</ele>
        <time>2020-07-03T09:26:53Z</time>
      </trkpt>
      <trkpt lat="47.40142" lon="1.18189">
        <ele>101.3</ele>
        <time>2020-07-03T09:26:54Z</time>
      </trkpt>
      <trkpt lat="47.40141" lon="1.18185">
        <ele>101.3</ele>
        <time>2020-07-03T09:26:55Z</time>
      </trkpt>
      <trkpt lat="47.40141" lon="1.18179">
        <ele>101.3</ele>
        <time>2020-07-03T09:26:56Z</time>
      </trkpt>
      <trkpt lat="47.4014" lon="1.18172">
        <ele>101.2</ele>
        <time>2020-07-03T09:26:57Z</time>
      </trkpt>
      <trkpt lat="47.4014" lon="1.18167">
        <ele>101.2</ele>
        <time>2020-07-03T09:26:58Z</time>
      </trkpt>
      <trkpt lat="47.40139" lon="1.18163">
        <ele>101.2</ele>
        <time>2020-07-03T09:26:59Z</time>
      </trkpt>
      <trkpt lat="47.40139" lon="1.18157">
        <ele>101.1</ele>
        <time>2020-07-03T09:27:00Z</time>
      </trkpt>
      <trkpt lat="47.40139" lon="1.18151">
        <ele>101.1</ele>
        <time>2020-07-03T09:27:01Z</time>
      </trkpt>
      <trkpt lat="47.40139" lon="1.18144">
        <ele>101</ele>
        <time>2020-07-03T09:27:02Z</time>
      </trkpt>
      <trkpt lat="47.40138" lon="1.18139">
        <ele>101</ele>
        <time>2020-07-03T09:27:03Z</time>
      </trkpt>
      <trkpt lat="47.40138" lon="1.18133">
        <ele>100.9</ele>
        <time>2020-07-03T09:27:04Z</time>
      </trkpt>
      <trkpt lat="47.40137" lon="1.18125">
        <ele>100.8</ele>
        <time>2020-07-03T09:27:05Z</time>
      </trkpt>
      <trkpt lat="47.40137" lon="1.18117">
        <ele>100.6</ele>
        <time>2020-07-03T09:27:06Z</time>
      </trkpt>
      <trkpt lat="47.40136" lon="1.18109">
        <ele>100.5</ele>
        <time>2020-07-03T09:27:07Z</time>
      </trkpt>
      <trkpt lat="47.40135" lon="1.181">
        <ele>100.3</ele>
        <time>2020-07-03T09:27:08Z</time>
      </trkpt>
      <trkpt lat="47.40135" lon="1.1809">
        <ele>100.1</ele>
        <time>2020-07-03T09:27:09Z</time>
      </trkpt>
      <trkpt lat="47.40134" lon="1.18081">
        <ele>99.9</ele>
        <time>2020-07-03T09:27:10Z</time>
      </trkpt>
      <trkpt lat="47.40134" lon="1.18072">
        <ele>99.8</ele>
        <time>2020-07-03T09:27:11Z</time>
      </trkpt>
      <trkpt lat="47.40133" lon="1.18063">
        <ele>99.6</ele>
        <time>2020-07-03T09:27:12Z</time>
      </trkpt>
      <trkpt lat="47.40132" lon="1.18052">
        <ele>99.4</ele>
        <time>2020-07-03T09:27:13Z</time>
      </trkpt>
      <trkpt lat="47.40131" lon="1.18043">
        <ele>99.3</ele>
        <time>2020-07-03T09:27:14Z</time>
      </trkpt>
      <trkpt lat="47.4013" lon="1.18033">
        <ele>99.1</ele>
        <time>2020-07-03T09:27:15Z</time>
      </trkpt>
      <trkpt lat="47.4013" lon="1.18024">
        <ele>99</ele>
        <time>2020-07-03T09:27:16Z</time>
      </trkpt>
      <trkpt lat="47.40129" lon="1.18013">
        <ele>98.8</ele>
        <time>2020-07-03T09:27:17Z</time>
      </trkpt>
      <trkpt lat="47.40127" lon="1.18002">
        <ele>98.7</ele>
        <time>2020-07-03T09:27:18Z</time>
      </trkpt>
      <trkpt lat="47.40126" lon="1.17991">
        <ele>98.6</ele>
        <time>2020-07-03T09:27:19Z</time>
      </trkpt>
      <trkpt lat="47.40125" lon="1.17981">
        <ele>98.5</ele>
        <time>2020-07-03T09:27:20Z</time>
      </trkpt>
      <trkpt lat="47.40124" lon="1.17972">
        <ele>98.4</ele>
        <time>2020-07-03T09:27:21Z</time>
      </trkpt>
      <trkpt lat="47.40124" lon="1.17961">
        <ele>98.4</ele>
        <time>2020-07-03T09:27:22Z</time>
      </trkpt>
      <trkpt lat="47.40122" lon="1.1795">
        <ele>98.3</ele>
        <time>2020-07-03T09:27:23Z</time>
      </trkpt>
      <trkpt lat="47.40121" lon="1.17939">
        <ele>98.3</ele>
        <time>2020-07-03T09:27:24Z</time>
      </trkpt>
      <trkpt lat="47.40119" lon="1.17929">
        <ele>98.3</ele>
        <time>2020-07-03T09:27:25Z</time>
      </trkpt>
      <trkpt lat="47.40118" lon="1.1792">
        <ele>98.3</ele>
        <time>2020-07-03T09:27:26Z</time>
      </trkpt>
      <trkpt lat="47.40117" lon="1.1791">
        <ele>98.5</ele>
        <time>2020-07-03T09:27:27Z</time>
      </trkpt>
      <trkpt lat="47.40114" lon="1.17901">
        <ele>98.6</ele>
        <time>2020-07-03T09:27:28Z</time>
      </trkpt>
      <trkpt lat="47.40112" lon="1.17893">
        <ele>98.8</ele>
        <time>2020-07-03T09:27:29Z</time>
      </trkpt>
      <trkpt lat="47.4011" lon="1.17885">
        <ele>99</ele>
        <time>2020-07-03T09:27:30Z</time>
      </trkpt>
      <trkpt lat="47.40109" lon="1.17876">
        <ele>99.1</ele>
        <time>2020-07-03T09:27:31Z</time>
      </trkpt>
      <trkpt lat="47.40106" lon="1.17868">
        <ele>99.3</ele>
        <time>2020-07-03T09:27:32Z</time>
      </trkpt>
      <trkpt lat="47.40104" lon="1.1786">
        <ele>99.4</ele>
        <time>2020-07-03T09:27:33Z</time>
      </trkpt>
      <trkpt lat="47.40101" lon="1.17852">
        <ele>99.5</ele>
        <time>2020-07-03T09:27:34Z</time>
      </trkpt>
      <trkpt lat="47.40098" lon="1.17845">
        <ele>99.6</ele>
        <time>2020-07-03T09:27:35Z</time>
      </trkpt>
      <trkpt lat="47.40095" lon="1.17838">
        <ele>99.7</ele>
        <time>2020-07-03T09:27:36Z</time>
      </trkpt>
      <trkpt lat="47.40092" lon="1.17832">
        <ele>99.8</ele>
        <time>2020-07-03T09:27:37Z</time>
      </trkpt>
      <trkpt lat="47.40089" lon="1.17826">
        <ele>99.9</ele>
        <time>2020-07-03T09:27:38Z</time>
      </trkpt>
      <trkpt lat="47.40085" lon="1.1782">
        <ele>100</ele>
        <time>2020-07-03T09:27:39Z</time>
      </trkpt>
      <trkpt lat="47.40081" lon="1.17814">
        <ele>100.1</ele>
        <time>2020-07-03T09:27:40Z</time>
      </trkpt>
      <trkpt lat="47.40077" lon="1.17808">
        <ele>100.2</ele>
        <time>2020-07-03T09:27:41Z</time>
      </trkpt>
      <trkpt lat="47.40073" lon="1.17802">
        <ele>100.2</ele>
        <time>2020-07-03T09:27:42Z</time>
      </trkpt>
      <trkpt lat="47.40068" lon="1.17797">
        <ele>100.2</ele>
        <time>2020-07-03T09:27:43Z</time>
      </trkpt>
      <trkpt lat="47.40064" lon="1.17792">
        <ele>100.3</ele>
        <time>2020-07-03T09:27:44Z</time>
      </trkpt>
      <trkpt lat="47.4006" lon="1.17787">
        <ele>100.4</ele>
        <time>2020-07-03T09:27:45Z</time>
      </trkpt>
      <trkpt lat="47.40054" lon="1.17781">
        <ele>100.6</ele>
        <time>2020-07-03T09:27:46Z</time>
      </trkpt>
      <trkpt lat="47.40049" lon="1.17777">
        <ele>100.8</ele>
        <time>2020-07-03T09:27:47Z</time>
      </trkpt>
      <trkpt lat="47.40045" lon="1.17772">
        <ele>100.9</ele>
        <time>2020-07-03T09:27:48Z</time>
      </trkpt>
      <trkpt lat="47.4004" lon="1.17767">
        <ele>101</ele>
        <time>2020-07-03T09:27:49Z</time>
      </trkpt>
      <trkpt lat="47.40034" lon="1.17763">
        <ele>101.2</ele>
        <time>2020-07-03T09:27:50Z</time>
      </trkpt>
      <trkpt lat="47.4003" lon="1.17759">
        <ele>101.3</ele>
        <time>2020-07-03T09:27:51Z</time>
      </trkpt>
      <trkpt lat="47.40026" lon="1.17755">
        <ele>101.5</ele>
        <time>2020-07-03T09:27:52Z</time>
      </trkpt>
      <trkpt lat="47.40022" lon="1.1775">
        <ele>101.6</ele>
        <time>2020-07-03T09:27:53Z</time>
      </trkpt>
      <trkpt lat="47.40018" lon="1.17745">
        <ele>101.8</ele>
        <time>2020-07-03T09:27:54Z</time>
      </trkpt>
      <trkpt lat="47.40013" lon="1.17741">
        <ele>102</ele>
        <time>2020-07-03T09:27:55Z</time>
      </trkpt>
      <trkpt lat="47.40008" lon="1.17736">
        <ele>102.1</ele>
        <time>2020-07-03T09:27:56Z</time>
      </trkpt>
      <trkpt lat="47.40004" lon="1.17732">
        <ele>102.3</ele>
        <time>2020-07-03T09:27:57Z</time>
      </trkpt>
      <trkpt lat="47.40001" lon="1.17727">
        <ele>102.4</ele>
        <time>2020-07-03T09:27:58Z</time>
      </trkpt>
      <trkpt lat="47.39997" lon="1.17723">
        <ele>102.5</ele>
        <time>2020-07-03T09:27:59Z</time>
      </trkpt>
      <trkpt lat="47.39992" lon="1.17719">
        <ele>102.7</ele>
        <time>2020-07-03T09:28:00Z</time>
      </trkpt>
      <trkpt lat="47.39988" lon="1.17714">
        <ele>102.8</ele>
        <time>2020-07-03T09:28:01Z</time>
      </trkpt>
      <trkpt lat="47.39984" lon="1.17709">
        <ele>102.9</ele>
        <time>2020-07-03T09:28:02Z</time>
      </trkpt>
      <trkpt lat="47.3998" lon="1.17705">
        <ele>103.1</ele>
        <time>2020-07-03T09:28:03Z</time>
      </trkpt>
      <trkpt lat="47.39976" lon="1.177">
        <ele>103.2</ele>
        <time>2020-07-03T09:28:04Z</time>
      </trkpt>
      <trkpt lat="47.39972" lon="1.17694">
        <ele>103.3</ele>
        <time>2020-07-03T09:28:05Z</time>
      </trkpt>
      <trkpt lat="47.39968" lon="1.17689">
        <ele>103.5</ele>
        <time>2020-07-03T09:28:06Z</time>
      </trkpt>
      <trkpt lat="47.39963" lon="1.17683">
        <ele>103.7</ele>
        <time>2020-07-03T09:28:07Z</time>
      </trkpt>
      <trkpt lat="47.39959" lon="1.17677">
        <ele>103.9</ele>
        <time>2020-07-03T09:28:08Z</time>
      </trkpt>
      <trkpt lat="47.39955" lon="1.17671">
        <ele>104</ele>
        <time>2020-07-03T09:28:09Z</time>
      </trkpt>
      <trkpt lat="47.39952" lon="1.17666">
        <ele>104.2</ele>
        <time>2020-07-03T09:28:10Z</time>
      </trkpt>
      <trkpt lat="47.39948" lon="1.1766">
        <ele>104.3</ele>
        <time>2020-07-03T09:28:11Z</time>
      </trkpt>
      <trkpt lat="47.39945" lon="1.17655">
        <ele>104.4</ele>
        <time>2020-07-03T09:28:12Z</time>
      </trkpt>
      <trkpt lat="47.39942" lon="1.17651">
        <ele>104.5</ele>
        <time>2020-07-03T09:28:13Z</time>
      </trkpt>
      <trkpt lat="47.39939" lon="1.17646">
        <ele>104.6</ele>
        <time>2020-07-03T09:28:14Z</time>
      </trkpt>
      <trkpt lat="47.39935" lon="1.17641">
        <ele>104.6</ele>
        <time>2020-07-03T09:28:15Z</time>
      </trkpt>
      <trkpt lat="47.39932" lon="1.17636">
        <ele>104.7</ele>
        <time>2020-07-03T09:28:16Z</time>
      </trkpt>
      <trkpt lat="47.39929" lon="1.17631">
        <ele>104.7</ele>
        <time>2020-07-03T09:28:17Z</time>
      </trkpt>
      <trkpt lat="47.39926" lon="1.17626">
        <ele>104.8</ele>
        <time>2020-07-03T09:28:18Z</time>
      </trkpt>
      <trkpt lat="47.39923" lon="1.1762">
        <ele>104.8</ele>
        <time>2020-07-03T09:28:19Z</time>
      </trkpt>
      <trkpt lat="47.3992" lon="1.17615">
        <ele>104.9</ele>
        <time>2020-07-03T09:28:20Z</time>
      </trkpt>
      <trkpt lat="47.39917" lon="1.1761">
        <ele>105</ele>
        <time>2020-07-03T09:28:21Z</time>
      </trkpt>
      <trkpt lat="47.39913" lon="1.17605">
        <ele>105.1</ele>
        <time>2020-07-03T09:28:22Z</time>
      </trkpt>
      <trkpt lat="47.3991" lon="1.17601">
        <ele>105.2</ele>
        <time>2020-07-03T09:28:23Z</time>
      </trkpt>
      <trkpt lat="47.39906" lon="1.17595">
        <ele>105.3</ele>
        <time>2020-07-03T09:28:24Z</time>
      </trkpt>
      <trkpt lat="47.39903" lon="1.17589">
        <ele>105.4</ele>
        <time>2020-07-03T09:28:25Z</time>
      </trkpt>
      <trkpt lat="47.399" lon="1.17583">
        <ele>105.5</ele>
        <time>2020-07-03T09:28:26Z</time>
      </trkpt>
      <trkpt lat="47.39896" lon="1.17578">
        <ele>105.6</ele>
        <time>2020-07-03T09:28:27Z</time>
      </trkpt>
      <trkpt lat="47.39893" lon="1.17572">
        <ele>105.6</ele>
        <time>2020-07-03T09:28:28Z</time>
      </trkpt>
      <trkpt lat="47.39889" lon="1.17567">
        <ele>105.7</ele>
        <time>2020-07-03T09:28:29Z</time>
      </trkpt>
      <trkpt lat="47.39886" lon="1.17562">
        <ele>105.7</ele>
        <time>2020-07-03T09:28:30Z</time>
      </trkpt>
      <trkpt lat="47.39882" lon="1.17558">
        <ele>105.7</ele>
        <time>2020-07-03T09:28:31Z</time>
      </trkpt>
      <trkpt lat="47.39878" lon="1.17552">
        <ele>105.8</ele>
        <time>2020-07-03T09:28:32Z</time>
      </trkpt>
      <trkpt lat="47.39875" lon="1.17548">
        <ele>105.8</ele>
        <time>2020-07-03T09:28:33Z</time>
      </trkpt>
      <trkpt lat="47.39871" lon="1.17543">
        <ele>105.9</ele>
        <time>2020-07-03T09:28:34Z</time>
      </trkpt>
      <trkpt lat="47.39867" lon="1.17536">
        <ele>105.9</ele>
        <time>2020-07-03T09:28:35Z</time>
      </trkpt>
      <trkpt lat="47.39864" lon="1.1753">
        <ele>106</ele>
        <time>2020-07-03T09:28:36Z</time>
      </trkpt>
      <trkpt lat="47.3986" lon="1.17524">
        <ele>106.1</ele>
        <time>2020-07-03T09:28:37Z</time>
      </trkpt>
      <trkpt lat="47.39856" lon="1.17517">
        <ele>106.1</ele>
        <time>2020-07-03T09:28:38Z</time>
      </trkpt>
      <trkpt lat="47.39852" lon="1.17512">
        <ele>106.2</ele>
        <time>2020-07-03T09:28:39Z</time>
      </trkpt>
      <trkpt lat="47.39849" lon="1.17507">
        <ele>106.2</ele>
        <time>2020-07-03T09:28:40Z</time>
      </trkpt>
      <trkpt lat="47.39845" lon="1.17501">
        <ele>106.3</ele>
        <time>2020-07-03T09:28:41Z</time>
      </trkpt>
      <trkpt lat="47.39842" lon="1.17494">
        <ele>106.4</ele>
        <time>2020-07-03T09:28:42Z</time>
      </trkpt>
      <trkpt lat="47.39838" lon="1.17489">
        <ele>106.4</ele>
        <time>2020-07-03T09:28:43Z</time>
      </trkpt>
      <trkpt lat="47.39834" lon="1.17482">
        <ele>106.6</ele>
        <time>2020-07-03T09:28:44Z</time>
      </trkpt>
      <trkpt lat="47.39831" lon="1.17477">
        <ele>106.7</ele>
        <time>2020-07-03T09:28:45Z</time>
      </trkpt>
      <trkpt lat="47.39827" lon="1.17472">
        <ele>106.8</ele>
        <time>2020-07-03T09:28:46Z</time>
      </trkpt>
      <trkpt lat="47.39823" lon="1.17467">
        <ele>107</ele>
        <time>2020-07-03T09:28:47Z</time>
      </trkpt>
      <trkpt lat="47.3982" lon="1.17463">
        <ele>107.1</ele>
        <time>2020-07-03T09:28:48Z</time>
      </trkpt>
      <trkpt lat="47.39816" lon="1.17457">
        <ele>107.2</ele>
        <time>2020-07-03T09:28:49Z</time>
      </trkpt>
      <trkpt lat="47.39813" lon="1.17453">
        <ele>107.3</ele>
        <time>2020-07-03T09:28:50Z</time>
      </trkpt>
      <trkpt lat="47.3981" lon="1.17447">
        <ele>107.1</ele>
        <time>2020-07-03T09:28:51Z</time>
      </trkpt>
      <trkpt lat="47.39806" lon="1.17441">
        <ele>106.9</ele>
        <time>2020-07-03T09:28:52Z</time>
      </trkpt>
      <trkpt lat="47.39802" lon="1.17435">
        <ele>106.8</ele>
        <time>2020-07-03T09:28:53Z</time>
      </trkpt>
      <trkpt lat="47.39799" lon="1.17429">
        <ele>106.8</ele>
        <time>2020-07-03T09:28:54Z</time>
      </trkpt>
      <trkpt lat="47.39794" lon="1.17424">
        <ele>106.8</ele>
        <time>2020-07-03T09:28:55Z</time>
      </trkpt>
      <trkpt lat="47.3979" lon="1.17417">
        <ele>106.8</ele>
        <time>2020-07-03T09:28:56Z</time>
      </trkpt>
      <trkpt lat="47.39785" lon="1.17412">
        <ele>106.9</ele>
        <time>2020-07-03T09:28:57Z</time>
      </trkpt>
      <trkpt lat="47.39783" lon="1.17406">
        <ele>106.9</ele>
        <time>2020-07-03T09:28:58Z</time>
      </trkpt>
      <trkpt lat="47.39779" lon="1.17399">
        <ele>106.9</ele>
        <time>2020-07-03T09:28:59Z</time>
      </trkpt>
      <trkpt lat="47.39776" lon="1.17394">
        <ele>107</ele>
        <time>2020-07-03T09:29:00Z</time>
      </trkpt>
      <trkpt lat="47.39773" lon="1.17389">
        <ele>107</ele>
        <time>2020-07-03T09:29:01Z</time>
      </trkpt>
      <trkpt lat="47.39769" lon="1.17383">
        <ele>107</ele>
        <time>2020-07-03T09:29:02Z</time>
      </trkpt>
      <trkpt lat="47.39765" lon="1.17378">
        <ele>107.1</ele>
        <time>2020-07-03T09:29:03Z</time>
      </trkpt>
      <trkpt lat="47.3976" lon="1.17372">
        <ele>107.1</ele>
        <time>2020-07-03T09:29:04Z</time>
      </trkpt>
      <trkpt lat="47.39756" lon="1.17366">
        <ele>107.2</ele>
        <time>2020-07-03T09:29:05Z</time>
      </trkpt>
      <trkpt lat="47.39752" lon="1.17361">
        <ele>107.2</ele>
        <time>2020-07-03T09:29:06Z</time>
      </trkpt>
      <trkpt lat="47.39747" lon="1.17355">
        <ele>107.3</ele>
        <time>2020-07-03T09:29:07Z</time>
      </trkpt>
      <trkpt lat="47.39744" lon="1.17349">
        <ele>107.4</ele>
        <time>2020-07-03T09:29:08Z</time>
      </trkpt>
      <trkpt lat="47.39741" lon="1.17344">
        <ele>107.4</ele>
        <time>2020-07-03T09:29:09Z</time>
      </trkpt>
      <trkpt lat="47.39738" lon="1.17338">
        <ele>107.5</ele>
        <time>2020-07-03T09:29:10Z</time>
      </trkpt>
      <trkpt lat="47.39734" lon="1.17332">
        <ele>107.6</ele>
        <time>2020-07-03T09:29:11Z</time>
      </trkpt>
      <trkpt lat="47.39731" lon="1.17326">
        <ele>107.7</ele>
        <time>2020-07-03T09:29:12Z</time>
      </trkpt>
      <trkpt lat="47.39727" lon="1.17321">
        <ele>107.8</ele>
        <time>2020-07-03T09:29:13Z</time>
      </trkpt>
      <trkpt lat="47.39724" lon="1.17314">
        <ele>107.9</ele>
        <time>2020-07-03T09:29:14Z</time>
      </trkpt>
      <trkpt lat="47.3972" lon="1.17309">
        <ele>108</ele>
        <time>2020-07-03T09:29:15Z</time>
      </trkpt>
      <trkpt lat="47.39717" lon="1.17304">
        <ele>108.1</ele>
        <time>2020-07-03T09:29:16Z</time>
      </trkpt>
      <trkpt lat="47.39713" lon="1.17299">
        <ele>108.2</ele>
        <time>2020-07-03T09:29:17Z</time>
      </trkpt>
      <trkpt lat="47.3971" lon="1.17294">
        <ele>108.3</ele>
        <time>2020-07-03T09:29:18Z</time>
      </trkpt>
      <trkpt lat="47.39707" lon="1.17289">
        <ele>108.3</ele>
        <time>2020-07-03T09:29:19Z</time>
      </trkpt>
      <trkpt lat="47.39704" lon="1.17284">
        <ele>108.4</ele>
        <time>2020-07-03T09:29:20Z</time>
      </trkpt>
      <trkpt lat="47.39702" lon="1.17278">
        <ele>108.5</ele>
        <time>2020-07-03T09:29:21Z</time>
      </trkpt>
      <trkpt lat="47.39698" lon="1.17274">
        <ele>108.6</ele>
        <time>2020-07-03T09:29:22Z</time>
      </trkpt>
      <trkpt lat="47.39695" lon="1.17268">
        <ele>108.6</ele>
        <time>2020-07-03T09:29:23Z</time>
      </trkpt>
      <trkpt lat="47.39691" lon="1.17263">
        <ele>108.7</ele>
        <time>2020-07-03T09:29:24Z</time>
      </trkpt>
      <trkpt lat="47.39688" lon="1.17258">
        <ele>108.7</ele>
        <time>2020-07-03T09:29:25Z</time>
      </trkpt>
      <trkpt lat="47.39683" lon="1.17252">
        <ele>108.7</ele>
        <time>2020-07-03T09:29:26Z</time>
      </trkpt>
      <trkpt lat="47.39679" lon="1.17247">
        <ele>108.8</ele>
        <time>2020-07-03T09:29:27Z</time>
      </trkpt>
      <trkpt lat="47.39676" lon="1.17243">
        <ele>108.8</ele>
        <time>2020-07-03T09:29:28Z</time>
      </trkpt>
      <trkpt lat="47.39672" lon="1.17237">
        <ele>108.7</ele>
        <time>2020-07-03T09:29:29Z</time>
      </trkpt>
      <trkpt lat="47.39667" lon="1.17232">
        <ele>108.7</ele>
        <time>2020-07-03T09:29:30Z</time>
      </trkpt>
      <trkpt lat="47.39664" lon="1.17228">
        <ele>108.7</ele>
        <time>2020-07-03T09:29:31Z</time>
      </trkpt>
      <trkpt lat="47.39661" lon="1.17222">
        <ele>108.6</ele>
        <time>2020-07-03T09:29:32Z</time>
      </trkpt>
      <trkpt lat="47.39657" lon="1.17215">
        <ele>108.6</ele>
        <time>2020-07-03T09:29:33Z</time>
      </trkpt>
      <trkpt lat="47.39654" lon="1.17209">
        <ele>108.5</ele>
        <time>2020-07-03T09:29:34Z</time>
      </trkpt>
      <trkpt lat="47.3965" lon="1.17202">
        <ele>108.5</ele>
        <time>2020-07-03T09:29:35Z</time>
      </trkpt>
      <trkpt lat="47.39646" lon="1.17194">
        <ele>108.5</ele>
        <time>2020-07-03T09:29:36Z</time>
      </trkpt>
      <trkpt lat="47.39642" lon="1.17188">
        <ele>108.4</ele>
        <time>2020-07-03T09:29:37Z</time>
      </trkpt>
      <trkpt lat="47.39638" lon="1.17182">
        <ele>108.3</ele>
        <time>2020-07-03T09:29:38Z</time>
      </trkpt>
      <trkpt lat="47.39634" lon="1.17175">
        <ele>108.2</ele>
        <time>2020-07-03T09:29:39Z</time>
      </trkpt>
      <trkpt lat="47.3963" lon="1.17168">
        <ele>108</ele>
        <time>2020-07-03T09:29:40Z</time>
      </trkpt>
      <trkpt lat="47.39626" lon="1.17162">
        <ele>107.8</ele>
        <time>2020-07-03T09:29:41Z</time>
      </trkpt>
      <trkpt lat="47.39623" lon="1.17156">
        <ele>107.7</ele>
        <time>2020-07-03T09:29:42Z</time>
      </trkpt>
      <trkpt lat="47.39619" lon="1.1715">
        <ele>107.6</ele>
        <time>2020-07-03T09:29:43Z</time>
      </trkpt>
      <trkpt lat="47.39614" lon="1.17142">
        <ele>107.5</ele>
        <time>2020-07-03T09:29:44Z</time>
      </trkpt>
      <trkpt lat="47.39609" lon="1.17136">
        <ele>107.3</ele>
        <time>2020-07-03T09:29:45Z</time>
      </trkpt>
      <trkpt lat="47.39605" lon="1.1713">
        <ele>107.1</ele>
        <time>2020-07-03T09:29:46Z</time>
      </trkpt>
      <trkpt lat="47.396" lon="1.17124">
        <ele>107</ele>
        <time>2020-07-03T09:29:47Z</time>
      </trkpt>
      <trkpt lat="47.39595" lon="1.17119">
        <ele>106.7</ele>
        <time>2020-07-03T09:29:48Z</time>
      </trkpt>
      <trkpt lat="47.39589" lon="1.17113">
        <ele>106.3</ele>
        <time>2020-07-03T09:29:49Z</time>
      </trkpt>
      <trkpt lat="47.39583" lon="1.17107">
        <ele>105.8</ele>
        <time>2020-07-03T09:29:50Z</time>
      </trkpt>
      <trkpt lat="47.39577" lon="1.17102">
        <ele>105.4</ele>
        <time>2020-07-03T09:29:51Z</time>
      </trkpt>
      <trkpt lat="47.39572" lon="1.17096">
        <ele>105.1</ele>
        <time>2020-07-03T09:29:52Z</time>
      </trkpt>
      <trkpt lat="47.39566" lon="1.1709">
        <ele>104.9</ele>
        <time>2020-07-03T09:29:53Z</time>
      </trkpt>
      <trkpt lat="47.39561" lon="1.17083">
        <ele>104.7</ele>
        <time>2020-07-03T09:29:54Z</time>
      </trkpt>
      <trkpt lat="47.39555" lon="1.17077">
        <ele>104.5</ele>
        <time>2020-07-03T09:29:55Z</time>
      </trkpt>
      <trkpt lat="47.39549" lon="1.1707">
        <ele>104.4</ele>
        <time>2020-07-03T09:29:56Z</time>
      </trkpt>
      <trkpt lat="47.39543" lon="1.17063">
        <ele>104.3</ele>
        <time>2020-07-03T09:29:57Z</time>
      </trkpt>
      <trkpt lat="47.39538" lon="1.17057">
        <ele>104.2</ele>
        <time>2020-07-03T09:29:58Z</time>
      </trkpt>
      <trkpt lat="47.39532" lon="1.17051">
        <ele>104.1</ele>
        <time>2020-07-03T09:29:59Z</time>
      </trkpt>
      <trkpt lat="47.39527" lon="1.17044">
        <ele>104</ele>
        <time>2020-07-03T09:30:00Z</time>
      </trkpt>
      <trkpt lat="47.39521" lon="1.17038">
        <ele>104</ele>
        <time>2020-07-03T09:30:01Z</time>
      </trkpt>
      <trkpt lat="47.39516" lon="1.17031">
        <ele>104</ele>
        <time>2020-07-03T09:30:02Z</time>
      </trkpt>
      <trkpt lat="47.3951" lon="1.17025">
        <ele>104</ele>
        <time>2020-07-03T09:30:03Z</time>
      </trkpt>
      <trkpt lat="47.39503" lon="1.17019">
        <ele>104</ele>
        <time>2020-07-03T09:30:04Z</time>
      </trkpt>
      <trkpt lat="47.39498" lon="1.17013">
        <ele>104.1</ele>
        <time>2020-07-03T09:30:05Z</time>
      </trkpt>
      <trkpt lat="47.39492" lon="1.17006">
        <ele>104.1</ele>
        <time>2020-07-03T09:30:06Z</time>
      </trkpt>
      <trkpt lat="47.39487" lon="1.17">
        <ele>104.2</ele>
        <time>2020-07-03T09:30:07Z</time>
      </trkpt>
      <trkpt lat="47.39482" lon="1.16993">
        <ele>104.2</ele>
        <time>2020-07-03T09:30:08Z</time>
      </trkpt>
      <trkpt lat="47.39476" lon="1.16987">
        <ele>104.3</ele>
        <time>2020-07-03T09:30:09Z</time>
      </trkpt>
      <trkpt lat="47.39471" lon="1.1698">
        <ele>104.3</ele>
        <time>2020-07-03T09:30:10Z</time>
      </trkpt>
      <trkpt lat="47.39467" lon="1.16973">
        <ele>104.3</ele>
        <time>2020-07-03T09:30:11Z</time>
      </trkpt>
      <trkpt lat="47.39462" lon="1.16966">
        <ele>104.4</ele>
        <time>2020-07-03T09:30:12Z</time>
      </trkpt>
      <trkpt lat="47.39458" lon="1.16959">
        <ele>104.5</ele>
        <time>2020-07-03T09:30:13Z</time>
      </trkpt>
      <trkpt lat="47.39454" lon="1.16951">
        <ele>104.5</ele>
        <time>2020-07-03T09:30:14Z</time>
      </trkpt>
      <trkpt lat="47.39451" lon="1.16944">
        <ele>104.6</ele>
        <time>2020-07-03T09:30:15Z</time>
      </trkpt>
      <trkpt lat="47.39448" lon="1.16936">
        <ele>104.6</ele>
        <time>2020-07-03T09:30:16Z</time>
      </trkpt>
      <trkpt lat="47.39444" lon="1.16929">
        <ele>104.7</ele>
        <time>2020-07-03T09:30:17Z</time>
      </trkpt>
      <trkpt lat="47.39441" lon="1.16922">
        <ele>104.8</ele>
        <time>2020-07-03T09:30:18Z</time>
      </trkpt>
      <trkpt lat="47.39438" lon="1.16915">
        <ele>105</ele>
        <time>2020-07-03T09:30:19Z</time>
      </trkpt>
      <trkpt lat="47.39435" lon="1.16908">
        <ele>105.1</ele>
        <time>2020-07-03T09:30:20Z</time>
      </trkpt>
      <trkpt lat="47.39432" lon="1.16901">
        <ele>105.2</ele>
        <time>2020-07-03T09:30:21Z</time>
      </trkpt>
      <trkpt lat="47.39428" lon="1.16895">
        <ele>105.3</ele>
        <time>2020-07-03T09:30:22Z</time>
      </trkpt>
      <trkpt lat="47.39424" lon="1.1689">
        <ele>105.5</ele>
        <time>2020-07-03T09:30:23Z</time>
      </trkpt>
      <trkpt lat="47.3942" lon="1.16884">
        <ele>105.6</ele>
        <time>2020-07-03T09:30:24Z</time>
      </trkpt>
      <trkpt lat="47.39416" lon="1.16879">
        <ele>105.7</ele>
        <time>2020-07-03T09:30:25Z</time>
      </trkpt>
      <trkpt lat="47.39412" lon="1.16874">
        <ele>105.8</ele>
        <time>2020-07-03T09:30:26Z</time>
      </trkpt>
      <trkpt lat="47.39408" lon="1.16869">
        <ele>105.9</ele>
        <time>2020-07-03T09:30:27Z</time>
      </trkpt>
      <trkpt lat="47.39404" lon="1.16864">
        <ele>105.9</ele>
        <time>2020-07-03T09:30:28Z</time>
      </trkpt>
      <trkpt lat="47.39399" lon="1.16858">
        <ele>106</ele>
        <time>2020-07-03T09:30:29Z</time>
      </trkpt>
      <trkpt lat="47.39396" lon="1.16852">
        <ele>106.1</ele>
        <time>2020-07-03T09:30:30Z</time>
      </trkpt>
      <trkpt lat="47.39392" lon="1.16847">
        <ele>106.2</ele>
        <time>2020-07-03T09:30:31Z</time>
      </trkpt>
      <trkpt lat="47.39388" lon="1.16843">
        <ele>106.3</ele>
        <time>2020-07-03T09:30:32Z</time>
      </trkpt>
      <trkpt lat="47.39383" lon="1.16839">
        <ele>106.4</ele>
        <time>2020-07-03T09:30:33Z</time>
      </trkpt>
      <trkpt lat="47.3938" lon="1.16835">
        <ele>106.5</ele>
        <time>2020-07-03T09:30:34Z</time>
      </trkpt>
      <trkpt lat="47.39376" lon="1.16832">
        <ele>106.6</ele>
        <time>2020-07-03T09:30:35Z</time>
      </trkpt>
      <trkpt lat="47.39371" lon="1.16828">
        <ele>106.7</ele>
        <time>2020-07-03T09:30:36Z</time>
      </trkpt>
      <trkpt lat="47.39366" lon="1.16824">
        <ele>106.8</ele>
        <time>2020-07-03T09:30:37Z</time>
      </trkpt>
      <trkpt lat="47.39361" lon="1.1682">
        <ele>107</ele>
        <time>2020-07-03T09:30:38Z</time>
      </trkpt>
      <trkpt lat="47.39355" lon="1.16816">
        <ele>107.1</ele>
        <time>2020-07-03T09:30:39Z</time>
      </trkpt>
      <trkpt lat="47.3935" lon="1.16812">
        <ele>107.2</ele>
        <time>2020-07-03T09:30:40Z</time>
      </trkpt>
      <trkpt lat="47.39344" lon="1.16809">
        <ele>107.3</ele>
        <time>2020-07-03T09:30:41Z</time>
      </trkpt>
      <trkpt lat="47.39339" lon="1.16806">
        <ele>107.3</ele>
        <time>2020-07-03T09:30:42Z</time>
      </trkpt>
      <trkpt lat="47.39334" lon="1.16805">
        <ele>107.4</ele>
        <time>2020-07-03T09:30:43Z</time>
      </trkpt>
      <trkpt lat="47.39328" lon="1.16801">
        <ele>107.5</ele>
        <time>2020-07-03T09:30:44Z</time>
      </trkpt>
      <trkpt lat="47.39323" lon="1.16798">
        <ele>107.6</ele>
        <time>2020-07-03T09:30:45Z</time>
      </trkpt>
      <trkpt lat="47.39318" lon="1.16796">
        <ele>107.6</ele>
        <time>2020-07-03T09:30:46Z</time>
      </trkpt>
      <trkpt lat="47.39314" lon="1.16794">
        <ele>107.7</ele>
        <time>2020-07-03T09:30:47Z</time>
      </trkpt>
      <trkpt lat="47.39309" lon="1.16791">
        <ele>107.8</ele>
        <time>2020-07-03T09:30:48Z</time>
      </trkpt>
      <trkpt lat="47.39304" lon="1.16788">
        <ele>107.9</ele>
        <time>2020-07-03T09:30:49Z</time>
      </trkpt>
      <trkpt lat="47.39299" lon="1.16785">
        <ele>108</ele>
        <time>2020-07-03T09:30:50Z</time>
      </trkpt>
      <trkpt lat="47.39293" lon="1.16781">
        <ele>108.1</ele>
        <time>2020-07-03T09:30:51Z</time>
      </trkpt>
      <trkpt lat="47.39289" lon="1.16781">
        <ele>108.2</ele>
        <time>2020-07-03T09:30:52Z</time>
      </trkpt>
      <trkpt lat="47.39284" lon="1.16778">
        <ele>108.3</ele>
        <time>2020-07-03T09:30:53Z</time>
      </trkpt>
      <trkpt lat="47.39279" lon="1.16775">
        <ele>108.4</ele>
        <time>2020-07-03T09:30:54Z</time>
      </trkpt>
      <trkpt lat="47.39274" lon="1.16772">
        <ele>108.5</ele>
        <time>2020-07-03T09:30:55Z</time>
      </trkpt>
      <trkpt lat="47.39269" lon="1.1677">
        <ele>108.6</ele>
        <time>2020-07-03T09:30:56Z</time>
      </trkpt>
      <trkpt lat="47.39265" lon="1.16768">
        <ele>108.7</ele>
        <time>2020-07-03T09:30:57Z</time>
      </trkpt>
      <trkpt lat="47.3926" lon="1.16765">
        <ele>108.7</ele>
        <time>2020-07-03T09:30:58Z</time>
      </trkpt>
      <trkpt lat="47.39256" lon="1.16762">
        <ele>108.8</ele>
        <time>2020-07-03T09:30:59Z</time>
      </trkpt>
      <trkpt lat="47.39251" lon="1.16759">
        <ele>108.8</ele>
        <time>2020-07-03T09:31:00Z</time>
      </trkpt>
      <trkpt lat="47.39245" lon="1.16755">
        <ele>108.8</ele>
        <time>2020-07-03T09:31:01Z</time>
      </trkpt>
      <trkpt lat="47.3924" lon="1.16753">
        <ele>108.8</ele>
        <time>2020-07-03T09:31:02Z</time>
      </trkpt>
      <trkpt lat="47.39236" lon="1.16751">
        <ele>108.8</ele>
        <time>2020-07-03T09:31:03Z</time>
      </trkpt>
      <trkpt lat="47.39231" lon="1.16749">
        <ele>108.8</ele>
        <time>2020-07-03T09:31:04Z</time>
      </trkpt>
      <trkpt lat="47.39226" lon="1.16746">
        <ele>108.9</ele>
        <time>2020-07-03T09:31:05Z</time>
      </trkpt>
      <trkpt lat="47.3922" lon="1.16743">
        <ele>109</ele>
        <time>2020-07-03T09:31:06Z</time>
      </trkpt>
      <trkpt lat="47.39214" lon="1.1674">
        <ele>109.1</ele>
        <time>2020-07-03T09:31:07Z</time>
      </trkpt>
      <trkpt lat="47.39209" lon="1.16737">
        <ele>109.2</ele>
        <time>2020-07-03T09:31:08Z</time>
      </trkpt>
      <trkpt lat="47.39203" lon="1.16734">
        <ele>109.3</ele>
        <time>2020-07-03T09:31:09Z</time>
      </trkpt>
      <trkpt lat="47.39197" lon="1.16731">
        <ele>109.4</ele>
        <time>2020-07-03T09:31:10Z</time>
      </trkpt>
      <trkpt lat="47.39191" lon="1.1673">
        <ele>109.5</ele>
        <time>2020-07-03T09:31:11Z</time>
      </trkpt>
      <trkpt lat="47.39186" lon="1.16726">
        <ele>109.6</ele>
        <time>2020-07-03T09:31:12Z</time>
      </trkpt>
      <trkpt lat="47.3918" lon="1.16722">
        <ele>109.7</ele>
        <time>2020-07-03T09:31:13Z</time>
      </trkpt>
      <trkpt lat="47.39175" lon="1.16719">
        <ele>109.7</ele>
        <time>2020-07-03T09:31:14Z</time>
      </trkpt>
      <trkpt lat="47.3917" lon="1.16716">
        <ele>109.8</ele>
        <time>2020-07-03T09:31:15Z</time>
      </trkpt>
      <trkpt lat="47.39165" lon="1.16713">
        <ele>109.8</ele>
        <time>2020-07-03T09:31:16Z</time>
      </trkpt>
      <trkpt lat="47.39159" lon="1.16709">
        <ele>109.8</ele>
        <time>2020-07-03T09:31:17Z</time>
      </trkpt>
      <trkpt lat="47.39154" lon="1.16705">
        <ele>109.9</ele>
        <time>2020-07-03T09:31:18Z</time>
      </trkpt>
      <trkpt lat="47.39151" lon="1.16703">
        <ele>109.9</ele>
        <time>2020-07-03T09:31:19Z</time>
      </trkpt>
      <trkpt lat="47.39146" lon="1.167">
        <ele>109.9</ele>
        <time>2020-07-03T09:31:20Z</time>
      </trkpt>
      <trkpt lat="47.39141" lon="1.16697">
        <ele>109.9</ele>
        <time>2020-07-03T09:31:21Z</time>
      </trkpt>
      <trkpt lat="47.39136" lon="1.16693">
        <ele>109.9</ele>
        <time>2020-07-03T09:31:22Z</time>
      </trkpt>
      <trkpt lat="47.39132" lon="1.16689">
        <ele>109.9</ele>
        <time>2020-07-03T09:31:23Z</time>
      </trkpt>
      <trkpt lat="47.39126" lon="1.16686">
        <ele>109.9</ele>
        <time>2020-07-03T09:31:24Z</time>
      </trkpt>
      <trkpt lat="47.39121" lon="1.16682">
        <ele>109.9</ele>
        <time>2020-07-03T09:31:25Z</time>
      </trkpt>
      <trkpt lat="47.39117" lon="1.16678">
        <ele>109.9</ele>
        <time>2020-07-03T09:31:26Z</time>
      </trkpt>
      <trkpt lat="47.39111" lon="1.16673">
        <ele>109.9</ele>
        <time>2020-07-03T09:31:27Z</time>
      </trkpt>
      <trkpt lat="47.39107" lon="1.1667">
        <ele>109.9</ele>
        <time>2020-07-03T09:31:28Z</time>
      </trkpt>
      <trkpt lat="47.39102" lon="1.16665">
        <ele>110</ele>
        <time>2020-07-03T09:31:29Z</time>
      </trkpt>
      <trkpt lat="47.39098" lon="1.16661">
        <ele>110</ele>
        <time>2020-07-03T09:31:30Z</time>
      </trkpt>
      <trkpt lat="47.39093" lon="1.16657">
        <ele>110</ele>
        <time>2020-07-03T09:31:31Z</time>
      </trkpt>
      <trkpt lat="47.39089" lon="1.16654">
        <ele>110</ele>
        <time>2020-07-03T09:31:32Z</time>
      </trkpt>
      <trkpt lat="47.39084" lon="1.16651">
        <ele>110.1</ele>
        <time>2020-07-03T09:31:33Z</time>
      </trkpt>
      <trkpt lat="47.39078" lon="1.16645">
        <ele>110.2</ele>
        <time>2020-07-03T09:31:34Z</time>
      </trkpt>
      <trkpt lat="47.39074" lon="1.16642">
        <ele>110.3</ele>
        <time>2020-07-03T09:31:35Z</time>
      </trkpt>
      <trkpt lat="47.39069" lon="1.16639">
        <ele>110.4</ele>
        <time>2020-07-03T09:31:36Z</time>
      </trkpt>
      <trkpt lat="47.39064" lon="1.16636">
        <ele>110.6</ele>
        <time>2020-07-03T09:31:37Z</time>
      </trkpt>
      <trkpt lat="47.39058" lon="1.16632">
        <ele>110.9</ele>
        <time>2020-07-03T09:31:38Z</time>
      </trkpt>
      <trkpt lat="47.39054" lon="1.16628">
        <ele>110.8</ele>
        <time>2020-07-03T09:31:39Z</time>
      </trkpt>
      <trkpt lat="47.3905" lon="1.16625">
        <ele>110.6</ele>
        <time>2020-07-03T09:31:40Z</time>
      </trkpt>
      <trkpt lat="47.39045" lon="1.16622">
        <ele>110.5</ele>
        <time>2020-07-03T09:31:41Z</time>
      </trkpt>
      <trkpt lat="47.3904" lon="1.16617">
        <ele>110.3</ele>
        <time>2020-07-03T09:31:42Z</time>
      </trkpt>
      <trkpt lat="47.39036" lon="1.16613">
        <ele>110.3</ele>
        <time>2020-07-03T09:31:43Z</time>
      </trkpt>
      <trkpt lat="47.39031" lon="1.1661">
        <ele>110.2</ele>
        <time>2020-07-03T09:31:44Z</time>
      </trkpt>
      <trkpt lat="47.39027" lon="1.16607">
        <ele>110.2</ele>
        <time>2020-07-03T09:31:45Z</time>
      </trkpt>
      <trkpt lat="47.39023" lon="1.16603">
        <ele>110.2</ele>
        <time>2020-07-03T09:31:46Z</time>
      </trkpt>
      <trkpt lat="47.39018" lon="1.16599">
        <ele>110.1</ele>
        <time>2020-07-03T09:31:47Z</time>
      </trkpt>
      <trkpt lat="47.39014" lon="1.16595">
        <ele>110.1</ele>
        <time>2020-07-03T09:31:48Z</time>
      </trkpt>
      <trkpt lat="47.39009" lon="1.1659">
        <ele>110.1</ele>
        <time>2020-07-03T09:31:49Z</time>
      </trkpt>
      <trkpt lat="47.39004" lon="1.16586">
        <ele>110.1</ele>
        <time>2020-07-03T09:31:50Z</time>
      </trkpt>
      <trkpt lat="47.38999" lon="1.16581">
        <ele>110.1</ele>
        <time>2020-07-03T09:31:51Z</time>
      </trkpt>
      <trkpt lat="47.38994" lon="1.16576">
        <ele>110.1</ele>
        <time>2020-07-03T09:31:52Z</time>
      </trkpt>
      <trkpt lat="47.38989" lon="1.16572">
        <ele>110.1</ele>
        <time>2020-07-03T09:31:53Z</time>
      </trkpt>
      <trkpt lat="47.38984" lon="1.16567">
        <ele>110.1</ele>
        <time>2020-07-03T09:31:54Z</time>
      </trkpt>
      <trkpt lat="47.3898" lon="1.16561">
        <ele>110.1</ele>
        <time>2020-07-03T09:31:55Z</time>
      </trkpt>
      <trkpt lat="47.38976" lon="1.16557">
        <ele>110.1</ele>
        <time>2020-07-03T09:31:56Z</time>
      </trkpt>
      <trkpt lat="47.38972" lon="1.16551">
        <ele>110.1</ele>
        <time>2020-07-03T09:31:57Z</time>
      </trkpt>
      <trkpt lat="47.38968" lon="1.16546">
        <ele>110.1</ele>
        <time>2020-07-03T09:31:58Z</time>
      </trkpt>
      <trkpt lat="47.38964" lon="1.16539">
        <ele>110</ele>
        <time>2020-07-03T09:31:59Z</time>
      </trkpt>
      <trkpt lat="47.3896" lon="1.16532">
        <ele>110</ele>
        <time>2020-07-03T09:32:00Z</time>
      </trkpt>
      <trkpt lat="47.38956" lon="1.16524">
        <ele>110.1</ele>
        <time>2020-07-03T09:32:01Z</time>
      </trkpt>
      <trkpt lat="47.38952" lon="1.16517">
        <ele>110.1</ele>
        <time>2020-07-03T09:32:02Z</time>
      </trkpt>
      <trkpt lat="47.38948" lon="1.1651">
        <ele>110.1</ele>
        <time>2020-07-03T09:32:03Z</time>
      </trkpt>
      <trkpt lat="47.38946" lon="1.16505">
        <ele>110.1</ele>
        <time>2020-07-03T09:32:04Z</time>
      </trkpt>
      <trkpt lat="47.38942" lon="1.16498">
        <ele>110.1</ele>
        <time>2020-07-03T09:32:05Z</time>
      </trkpt>
      <trkpt lat="47.38939" lon="1.16492">
        <ele>110.1</ele>
        <time>2020-07-03T09:32:06Z</time>
      </trkpt>
      <trkpt lat="47.38936" lon="1.16485">
        <ele>110.1</ele>
        <time>2020-07-03T09:32:07Z</time>
      </trkpt>
      <trkpt lat="47.38933" lon="1.16477">
        <ele>110.2</ele>
        <time>2020-07-03T09:32:08Z</time>
      </trkpt>
      <trkpt lat="47.3893" lon="1.16474">
        <ele>110.2</ele>
        <time>2020-07-03T09:32:09Z</time>
      </trkpt>
      <trkpt lat="47.38928" lon="1.16468">
        <ele>110.2</ele>
        <time>2020-07-03T09:32:10Z</time>
      </trkpt>
      <trkpt lat="47.38925" lon="1.16461">
        <ele>110.3</ele>
        <time>2020-07-03T09:32:11Z</time>
      </trkpt>
      <trkpt lat="47.38922" lon="1.16455">
        <ele>110.3</ele>
        <time>2020-07-03T09:32:12Z</time>
      </trkpt>
      <trkpt lat="47.38919" lon="1.16447">
        <ele>110.4</ele>
        <time>2020-07-03T09:32:13Z</time>
      </trkpt>
      <trkpt lat="47.38915" lon="1.1644">
        <ele>110.4</ele>
        <time>2020-07-03T09:32:14Z</time>
      </trkpt>
      <trkpt lat="47.38912" lon="1.16433">
        <ele>110.4</ele>
        <time>2020-07-03T09:32:15Z</time>
      </trkpt>
      <trkpt lat="47.38909" lon="1.16427">
        <ele>110.5</ele>
        <time>2020-07-03T09:32:16Z</time>
      </trkpt>
      <trkpt lat="47.38905" lon="1.16421">
        <ele>110.5</ele>
        <time>2020-07-03T09:32:17Z</time>
      </trkpt>
      <trkpt lat="47.38902" lon="1.16414">
        <ele>110.5</ele>
        <time>2020-07-03T09:32:18Z</time>
      </trkpt>
      <trkpt lat="47.38899" lon="1.16406">
        <ele>110.5</ele>
        <time>2020-07-03T09:32:19Z</time>
      </trkpt>
      <trkpt lat="47.38895" lon="1.16398">
        <ele>110.6</ele>
        <time>2020-07-03T09:32:20Z</time>
      </trkpt>
      <trkpt lat="47.38891" lon="1.16391">
        <ele>110.6</ele>
        <time>2020-07-03T09:32:21Z</time>
      </trkpt>
      <trkpt lat="47.38888" lon="1.16385">
        <ele>110.6</ele>
        <time>2020-07-03T09:32:22Z</time>
      </trkpt>
      <trkpt lat="47.38885" lon="1.16379">
        <ele>110.7</ele>
        <time>2020-07-03T09:32:23Z</time>
      </trkpt>
      <trkpt lat="47.38882" lon="1.16373">
        <ele>110.7</ele>
        <time>2020-07-03T09:32:24Z</time>
      </trkpt>
      <trkpt lat="47.3888" lon="1.16368">
        <ele>110.7</ele>
        <time>2020-07-03T09:32:25Z</time>
      </trkpt>
      <trkpt lat="47.38876" lon="1.1636">
        <ele>110.7</ele>
        <time>2020-07-03T09:32:26Z</time>
      </trkpt>
      <trkpt lat="47.38874" lon="1.16353">
        <ele>110.7</ele>
        <time>2020-07-03T09:32:27Z</time>
      </trkpt>
      <trkpt lat="47.38871" lon="1.16347">
        <ele>110.7</ele>
        <time>2020-07-03T09:32:28Z</time>
      </trkpt>
      <trkpt lat="47.38867" lon="1.16339">
        <ele>110.7</ele>
        <time>2020-07-03T09:32:29Z</time>
      </trkpt>
      <trkpt lat="47.38863" lon="1.16334">
        <ele>110.7</ele>
        <time>2020-07-03T09:32:30Z</time>
      </trkpt>
      <trkpt lat="47.38859" lon="1.16326">
        <ele>110.8</ele>
        <time>2020-07-03T09:32:31Z</time>
      </trkpt>
      <trkpt lat="47.38856" lon="1.16319">
        <ele>110.8</ele>
        <time>2020-07-03T09:32:32Z</time>
      </trkpt>
      <trkpt lat="47.38853" lon="1.16312">
        <ele>110.8</ele>
        <time>2020-07-03T09:32:33Z</time>
      </trkpt>
      <trkpt lat="47.38849" lon="1.16305">
        <ele>110.8</ele>
        <time>2020-07-03T09:32:34Z</time>
      </trkpt>
      <trkpt lat="47.38845" lon="1.16299">
        <ele>110.9</ele>
        <time>2020-07-03T09:32:35Z</time>
      </trkpt>
      <trkpt lat="47.38842" lon="1.16293">
        <ele>110.9</ele>
        <time>2020-07-03T09:32:36Z</time>
      </trkpt>
      <trkpt lat="47.38839" lon="1.16286">
        <ele>111</ele>
        <time>2020-07-03T09:32:37Z</time>
      </trkpt>
      <trkpt lat="47.38836" lon="1.16279">
        <ele>111</ele>
        <time>2020-07-03T09:32:38Z</time>
      </trkpt>
      <trkpt lat="47.38833" lon="1.16271">
        <ele>111.1</ele>
        <time>2020-07-03T09:32:39Z</time>
      </trkpt>
      <trkpt lat="47.3883" lon="1.16266">
        <ele>111.1</ele>
        <time>2020-07-03T09:32:40Z</time>
      </trkpt>
      <trkpt lat="47.38827" lon="1.16259">
        <ele>111.2</ele>
        <time>2020-07-03T09:32:41Z</time>
      </trkpt>
      <trkpt lat="47.38824" lon="1.16252">
        <ele>111.2</ele>
        <time>2020-07-03T09:32:42Z</time>
      </trkpt>
      <trkpt lat="47.38821" lon="1.16245">
        <ele>111.2</ele>
        <time>2020-07-03T09:32:43Z</time>
      </trkpt>
      <trkpt lat="47.38819" lon="1.16241">
        <ele>111.3</ele>
        <time>2020-07-03T09:32:44Z</time>
      </trkpt>
      <trkpt lat="47.38816" lon="1.16234">
        <ele>111.3</ele>
        <time>2020-07-03T09:32:45Z</time>
      </trkpt>
      <trkpt lat="47.38813" lon="1.16226">
        <ele>111.4</ele>
        <time>2020-07-03T09:32:46Z</time>
      </trkpt>
      <trkpt lat="47.3881" lon="1.16218">
        <ele>111.5</ele>
        <time>2020-07-03T09:32:47Z</time>
      </trkpt>
      <trkpt lat="47.38806" lon="1.16211">
        <ele>111.5</ele>
        <time>2020-07-03T09:32:48Z</time>
      </trkpt>
      <trkpt lat="47.38803" lon="1.16205">
        <ele>111.6</ele>
        <time>2020-07-03T09:32:49Z</time>
      </trkpt>
      <trkpt lat="47.38799" lon="1.16199">
        <ele>111.6</ele>
        <time>2020-07-03T09:32:50Z</time>
      </trkpt>
      <trkpt lat="47.38795" lon="1.16194">
        <ele>111.6</ele>
        <time>2020-07-03T09:32:51Z</time>
      </trkpt>
      <trkpt lat="47.38793" lon="1.16189">
        <ele>111.7</ele>
        <time>2020-07-03T09:32:52Z</time>
      </trkpt>
      <trkpt lat="47.38791" lon="1.16186">
        <ele>111.7</ele>
        <time>2020-07-03T09:32:53Z</time>
      </trkpt>
      <trkpt lat="47.38788" lon="1.1618">
        <ele>111.8</ele>
        <time>2020-07-03T09:32:54Z</time>
      </trkpt>
      <trkpt lat="47.38786" lon="1.16176">
        <ele>111.8</ele>
        <time>2020-07-03T09:32:55Z</time>
      </trkpt>
      <trkpt lat="47.38784" lon="1.16171">
        <ele>111.9</ele>
        <time>2020-07-03T09:32:56Z</time>
      </trkpt>
      <trkpt lat="47.3878" lon="1.16163">
        <ele>112</ele>
        <time>2020-07-03T09:32:57Z</time>
      </trkpt>
      <trkpt lat="47.38778" lon="1.16158">
        <ele>112.1</ele>
        <time>2020-07-03T09:32:58Z</time>
      </trkpt>
      <trkpt lat="47.38775" lon="1.16151">
        <ele>112.2</ele>
        <time>2020-07-03T09:32:59Z</time>
      </trkpt>
      <trkpt lat="47.38771" lon="1.16146">
        <ele>112.3</ele>
        <time>2020-07-03T09:33:00Z</time>
      </trkpt>
      <trkpt lat="47.38768" lon="1.16141">
        <ele>112.4</ele>
        <time>2020-07-03T09:33:01Z</time>
      </trkpt>
      <trkpt lat="47.38765" lon="1.16135">
        <ele>112.4</ele>
        <time>2020-07-03T09:33:02Z</time>
      </trkpt>
      <trkpt lat="47.38762" lon="1.1613">
        <ele>112.5</ele>
        <time>2020-07-03T09:33:03Z</time>
      </trkpt>
      <trkpt lat="47.38759" lon="1.16124">
        <ele>112.5</ele>
        <time>2020-07-03T09:33:04Z</time>
      </trkpt>
      <trkpt lat="47.38756" lon="1.1612">
        <ele>112.6</ele>
        <time>2020-07-03T09:33:05Z</time>
      </trkpt>
      <trkpt lat="47.38754" lon="1.16115">
        <ele>112.5</ele>
        <time>2020-07-03T09:33:06Z</time>
      </trkpt>
      <trkpt lat="47.3875" lon="1.16111">
        <ele>112.4</ele>
        <time>2020-07-03T09:33:07Z</time>
      </trkpt>
      <trkpt lat="47.38748" lon="1.16109">
        <ele>112.3</ele>
        <time>2020-07-03T09:33:08Z</time>
      </trkpt>
      <trkpt lat="47.38743" lon="1.1611">
        <ele>112.2</ele>
        <time>2020-07-03T09:33:09Z</time>
      </trkpt>
      <trkpt lat="47.38736" lon="1.16111">
        <ele>112</ele>
        <time>2020-07-03T09:33:10Z</time>
      </trkpt>
      <trkpt lat="47.3873" lon="1.16113">
        <ele>111.9</ele>
        <time>2020-07-03T09:33:11Z</time>
      </trkpt>
      <trkpt lat="47.38724" lon="1.16115">
        <ele>111.7</ele>
        <time>2020-07-03T09:33:12Z</time>
      </trkpt>
      <trkpt lat="47.38716" lon="1.16117">
        <ele>111.6</ele>
        <time>2020-07-03T09:33:13Z</time>
      </trkpt>
      <trkpt lat="47.38711" lon="1.16121">
        <ele>111.5</ele>
        <time>2020-07-03T09:33:14Z</time>
      </trkpt>
      <trkpt lat="47.38705" lon="1.16123">
        <ele>111.4</ele>
        <time>2020-07-03T09:33:15Z</time>
      </trkpt>
      <trkpt lat="47.38699" lon="1.16124">
        <ele>111.3</ele>
        <time>2020-07-03T09:33:16Z</time>
      </trkpt>
      <trkpt lat="47.38692" lon="1.16127">
        <ele>111.1</ele>
        <time>2020-07-03T09:33:17Z</time>
      </trkpt>
      <trkpt lat="47.38685" lon="1.16131">
        <ele>111</ele>
        <time>2020-07-03T09:33:18Z</time>
      </trkpt>
      <trkpt lat="47.38677" lon="1.16134">
        <ele>110.9</ele>
        <time>2020-07-03T09:33:19Z</time>
      </trkpt>
      <trkpt lat="47.3867" lon="1.16138">
        <ele>110.8</ele>
        <time>2020-07-03T09:33:20Z</time>
      </trkpt>
      <trkpt lat="47.38663" lon="1.1614">
        <ele>110.7</ele>
        <time>2020-07-03T09:33:21Z</time>
      </trkpt>
      <trkpt lat="47.38656" lon="1.16142">
        <ele>110.7</ele>
        <time>2020-07-03T09:33:22Z</time>
      </trkpt>
      <trkpt lat="47.3865" lon="1.16145">
        <ele>110.8</ele>
        <time>2020-07-03T09:33:23Z</time>
      </trkpt>
      <trkpt lat="47.38643" lon="1.16147">
        <ele>110.9</ele>
        <time>2020-07-03T09:33:24Z</time>
      </trkpt>
      <trkpt lat="47.38636" lon="1.1615">
        <ele>111</ele>
        <time>2020-07-03T09:33:25Z</time>
      </trkpt>
      <trkpt lat="47.38629" lon="1.16153">
        <ele>110.9</ele>
        <time>2020-07-03T09:33:26Z</time>
      </trkpt>
      <trkpt lat="47.38622" lon="1.16156">
        <ele>110.8</ele>
        <time>2020-07-03T09:33:27Z</time>
      </trkpt>
      <trkpt lat="47.38615" lon="1.16158">
        <ele>110.8</ele>
        <time>2020-07-03T09:33:28Z</time>
      </trkpt>
      <trkpt lat="47.38608" lon="1.1616">
        <ele>110.8</ele>
        <time>2020-07-03T09:33:29Z</time>
      </trkpt>
      <trkpt lat="47.38602" lon="1.16163">
        <ele>110.8</ele>
        <time>2020-07-03T09:33:30Z</time>
      </trkpt>
      <trkpt lat="47.38595" lon="1.16166">
        <ele>110.8</ele>
        <time>2020-07-03T09:33:31Z</time>
      </trkpt>
      <trkpt lat="47.38588" lon="1.16168">
        <ele>110.8</ele>
        <time>2020-07-03T09:33:32Z</time>
      </trkpt>
      <trkpt lat="47.38582" lon="1.16171">
        <ele>110.8</ele>
        <time>2020-07-03T09:33:33Z</time>
      </trkpt>
      <trkpt lat="47.38576" lon="1.16173">
        <ele>110.9</ele>
        <time>2020-07-03T09:33:34Z</time>
      </trkpt>
      <trkpt lat="47.3857" lon="1.16177">
        <ele>110.9</ele>
        <time>2020-07-03T09:33:35Z</time>
      </trkpt>
      <trkpt lat="47.38564" lon="1.1618">
        <ele>110.9</ele>
        <time>2020-07-03T09:33:36Z</time>
      </trkpt>
      <trkpt lat="47.38557" lon="1.16183">
        <ele>110.9</ele>
        <time>2020-07-03T09:33:37Z</time>
      </trkpt>
      <trkpt lat="47.38551" lon="1.16185">
        <ele>110.9</ele>
        <time>2020-07-03T09:33:38Z</time>
      </trkpt>
      <trkpt lat="47.38545" lon="1.16188">
        <ele>111</ele>
        <time>2020-07-03T09:33:39Z</time>
      </trkpt>
      <trkpt lat="47.38539" lon="1.1619">
        <ele>111</ele>
        <time>2020-07-03T09:33:40Z</time>
      </trkpt>
      <trkpt lat="47.38532" lon="1.16192">
        <ele>111</ele>
        <time>2020-07-03T09:33:41Z</time>
      </trkpt>
      <trkpt lat="47.38526" lon="1.16194">
        <ele>111</ele>
        <time>2020-07-03T09:33:42Z</time>
      </trkpt>
      <trkpt lat="47.3852" lon="1.16196">
        <ele>111</ele>
        <time>2020-07-03T09:33:43Z</time>
      </trkpt>
      <trkpt lat="47.38513" lon="1.16198">
        <ele>111</ele>
        <time>2020-07-03T09:33:44Z</time>
      </trkpt>
      <trkpt lat="47.38507" lon="1.16201">
        <ele>111</ele>
        <time>2020-07-03T09:33:45Z</time>
      </trkpt>
      <trkpt lat="47.38501" lon="1.16205">
        <ele>111.1</ele>
        <time>2020-07-03T09:33:46Z</time>
      </trkpt>
      <trkpt lat="47.38494" lon="1.16207">
        <ele>111.1</ele>
        <time>2020-07-03T09:33:47Z</time>
      </trkpt>
      <trkpt lat="47.38488" lon="1.16211">
        <ele>111.2</ele>
        <time>2020-07-03T09:33:48Z</time>
      </trkpt>
      <trkpt lat="47.38482" lon="1.16213">
        <ele>111.3</ele>
        <time>2020-07-03T09:33:49Z</time>
      </trkpt>
      <trkpt lat="47.38476" lon="1.16215">
        <ele>111.3</ele>
        <time>2020-07-03T09:33:50Z</time>
      </trkpt>
      <trkpt lat="47.3847" lon="1.16218">
        <ele>111.4</ele>
        <time>2020-07-03T09:33:51Z</time>
      </trkpt>
      <trkpt lat="47.38464" lon="1.16221">
        <ele>111.5</ele>
        <time>2020-07-03T09:33:52Z</time>
      </trkpt>
      <trkpt lat="47.38457" lon="1.16223">
        <ele>111.6</ele>
        <time>2020-07-03T09:33:53Z</time>
      </trkpt>
      <trkpt lat="47.38451" lon="1.16226">
        <ele>111.8</ele>
        <time>2020-07-03T09:33:54Z</time>
      </trkpt>
      <trkpt lat="47.38446" lon="1.16228">
        <ele>111.9</ele>
        <time>2020-07-03T09:33:55Z</time>
      </trkpt>
      <trkpt lat="47.3844" lon="1.16231">
        <ele>112</ele>
        <time>2020-07-03T09:33:56Z</time>
      </trkpt>
      <trkpt lat="47.38433" lon="1.16233">
        <ele>112.2</ele>
        <time>2020-07-03T09:33:57Z</time>
      </trkpt>
      <trkpt lat="47.38427" lon="1.16235">
        <ele>112.3</ele>
        <time>2020-07-03T09:33:58Z</time>
      </trkpt>
      <trkpt lat="47.38422" lon="1.16237">
        <ele>112.4</ele>
        <time>2020-07-03T09:33:59Z</time>
      </trkpt>
      <trkpt lat="47.38416" lon="1.16238">
        <ele>112.6</ele>
        <time>2020-07-03T09:34:00Z</time>
      </trkpt>
      <trkpt lat="47.38411" lon="1.16241">
        <ele>112.7</ele>
        <time>2020-07-03T09:34:01Z</time>
      </trkpt>
      <trkpt lat="47.38405" lon="1.16243">
        <ele>112.9</ele>
        <time>2020-07-03T09:34:02Z</time>
      </trkpt>
      <trkpt lat="47.384" lon="1.16245">
        <ele>113</ele>
        <time>2020-07-03T09:34:03Z</time>
      </trkpt>
      <trkpt lat="47.38394" lon="1.16248">
        <ele>113.2</ele>
        <time>2020-07-03T09:34:04Z</time>
      </trkpt>
      <trkpt lat="47.38389" lon="1.1625">
        <ele>113.3</ele>
        <time>2020-07-03T09:34:05Z</time>
      </trkpt>
      <trkpt lat="47.38383" lon="1.16252">
        <ele>113.5</ele>
        <time>2020-07-03T09:34:06Z</time>
      </trkpt>
      <trkpt lat="47.38378" lon="1.16255">
        <ele>113.7</ele>
        <time>2020-07-03T09:34:07Z</time>
      </trkpt>
      <trkpt lat="47.38373" lon="1.16258">
        <ele>113.8</ele>
        <time>2020-07-03T09:34:08Z</time>
      </trkpt>
      <trkpt lat="47.38367" lon="1.1626">
        <ele>113.9</ele>
        <time>2020-07-03T09:34:09Z</time>
      </trkpt>
      <trkpt lat="47.38363" lon="1.16261">
        <ele>114</ele>
        <time>2020-07-03T09:34:10Z</time>
      </trkpt>
      <trkpt lat="47.38358" lon="1.16263">
        <ele>114.1</ele>
        <time>2020-07-03T09:34:11Z</time>
      </trkpt>
      <trkpt lat="47.38353" lon="1.16266">
        <ele>114.2</ele>
        <time>2020-07-03T09:34:12Z</time>
      </trkpt>
      <trkpt lat="47.38347" lon="1.16268">
        <ele>114.3</ele>
        <time>2020-07-03T09:34:13Z</time>
      </trkpt>
      <trkpt lat="47.38343" lon="1.16271">
        <ele>114.4</ele>
        <time>2020-07-03T09:34:14Z</time>
      </trkpt>
      <trkpt lat="47.38337" lon="1.16273">
        <ele>114.6</ele>
        <time>2020-07-03T09:34:15Z</time>
      </trkpt>
      <trkpt lat="47.38331" lon="1.16277">
        <ele>114.7</ele>
        <time>2020-07-03T09:34:16Z</time>
      </trkpt>
      <trkpt lat="47.38327" lon="1.16279">
        <ele>114.7</ele>
        <time>2020-07-03T09:34:17Z</time>
      </trkpt>
      <trkpt lat="47.38322" lon="1.16282">
        <ele>114.8</ele>
        <time>2020-07-03T09:34:18Z</time>
      </trkpt>
      <trkpt lat="47.38319" lon="1.16284">
        <ele>114.8</ele>
        <time>2020-07-03T09:34:19Z</time>
      </trkpt>
      <trkpt lat="47.38314" lon="1.16286">
        <ele>114.9</ele>
        <time>2020-07-03T09:34:20Z</time>
      </trkpt>
      <trkpt lat="47.3831" lon="1.1629">
        <ele>115</ele>
        <time>2020-07-03T09:34:21Z</time>
      </trkpt>
      <trkpt lat="47.38305" lon="1.16294">
        <ele>115</ele>
        <time>2020-07-03T09:34:22Z</time>
      </trkpt>
      <trkpt lat="47.38302" lon="1.16296">
        <ele>115</ele>
        <time>2020-07-03T09:34:23Z</time>
      </trkpt>
      <trkpt lat="47.38298" lon="1.16298">
        <ele>115</ele>
        <time>2020-07-03T09:34:24Z</time>
      </trkpt>
      <trkpt lat="47.38295" lon="1.163">
        <ele>115</ele>
        <time>2020-07-03T09:34:25Z</time>
      </trkpt>
      <trkpt lat="47.38292" lon="1.16303">
        <ele>115</ele>
        <time>2020-07-03T09:34:26Z</time>
      </trkpt>
      <trkpt lat="47.38288" lon="1.16306">
        <ele>115</ele>
        <time>2020-07-03T09:34:27Z</time>
      </trkpt>
      <trkpt lat="47.38285" lon="1.16309">
        <ele>115</ele>
        <time>2020-07-03T09:34:28Z</time>
      </trkpt>
      <trkpt lat="47.3828" lon="1.16312">
        <ele>114.9</ele>
        <time>2020-07-03T09:34:29Z</time>
      </trkpt>
      <trkpt lat="47.38274" lon="1.16317">
        <ele>114.9</ele>
        <time>2020-07-03T09:34:30Z</time>
      </trkpt>
      <trkpt lat="47.3827" lon="1.1632">
        <ele>114.8</ele>
        <time>2020-07-03T09:34:31Z</time>
      </trkpt>
      <trkpt lat="47.38266" lon="1.16323">
        <ele>114.8</ele>
        <time>2020-07-03T09:34:32Z</time>
      </trkpt>
      <trkpt lat="47.38261" lon="1.16326">
        <ele>114.8</ele>
        <time>2020-07-03T09:34:33Z</time>
      </trkpt>
      <trkpt lat="47.38256" lon="1.1633">
        <ele>114.7</ele>
        <time>2020-07-03T09:34:34Z</time>
      </trkpt>
      <trkpt lat="47.38251" lon="1.16335">
        <ele>114.7</ele>
        <time>2020-07-03T09:34:35Z</time>
      </trkpt>
      <trkpt lat="47.38246" lon="1.16339">
        <ele>114.6</ele>
        <time>2020-07-03T09:34:36Z</time>
      </trkpt>
      <trkpt lat="47.3824" lon="1.16342">
        <ele>114.5</ele>
        <time>2020-07-03T09:34:37Z</time>
      </trkpt>
      <trkpt lat="47.38234" lon="1.16346">
        <ele>114.5</ele>
        <time>2020-07-03T09:34:38Z</time>
      </trkpt>
      <trkpt lat="47.38229" lon="1.16348">
        <ele>114.5</ele>
        <time>2020-07-03T09:34:39Z</time>
      </trkpt>
      <trkpt lat="47.38223" lon="1.16353">
        <ele>114.4</ele>
        <time>2020-07-03T09:34:40Z</time>
      </trkpt>
      <trkpt lat="47.38219" lon="1.16356">
        <ele>114.4</ele>
        <time>2020-07-03T09:34:41Z</time>
      </trkpt>
      <trkpt lat="47.38214" lon="1.16359">
        <ele>114.4</ele>
        <time>2020-07-03T09:34:42Z</time>
      </trkpt>
      <trkpt lat="47.38209" lon="1.16363">
        <ele>114.4</ele>
        <time>2020-07-03T09:34:43Z</time>
      </trkpt>
      <trkpt lat="47.38204" lon="1.16367">
        <ele>114.5</ele>
        <time>2020-07-03T09:34:44Z</time>
      </trkpt>
      <trkpt lat="47.38198" lon="1.16371">
        <ele>114.5</ele>
        <time>2020-07-03T09:34:45Z</time>
      </trkpt>
      <trkpt lat="47.38193" lon="1.16376">
        <ele>114.5</ele>
        <time>2020-07-03T09:34:46Z</time>
      </trkpt>
      <trkpt lat="47.38188" lon="1.16379">
        <ele>114.6</ele>
        <time>2020-07-03T09:34:47Z</time>
      </trkpt>
      <trkpt lat="47.38183" lon="1.16383">
        <ele>114.6</ele>
        <time>2020-07-03T09:34:48Z</time>
      </trkpt>
      <trkpt lat="47.38178" lon="1.16384">
        <ele>114.6</ele>
        <time>2020-07-03T09:34:49Z</time>
      </trkpt>
      <trkpt lat="47.38171" lon="1.16381">
        <ele>114.6</ele>
        <time>2020-07-03T09:34:50Z</time>
      </trkpt>
      <trkpt lat="47.38167" lon="1.16374">
        <ele>114.6</ele>
        <time>2020-07-03T09:34:51Z</time>
      </trkpt>
      <trkpt lat="47.38163" lon="1.16369">
        <ele>114.5</ele>
        <time>2020-07-03T09:34:52Z</time>
      </trkpt>
      <trkpt lat="47.38159" lon="1.16364">
        <ele>114.4</ele>
        <time>2020-07-03T09:34:53Z</time>
      </trkpt>
      <trkpt lat="47.38154" lon="1.16358">
        <ele>114.4</ele>
        <time>2020-07-03T09:34:54Z</time>
      </trkpt>
      <trkpt lat="47.38151" lon="1.16353">
        <ele>114.3</ele>
        <time>2020-07-03T09:34:55Z</time>
      </trkpt>
      <trkpt lat="47.38146" lon="1.16348">
        <ele>114.2</ele>
        <time>2020-07-03T09:34:56Z</time>
      </trkpt>
      <trkpt lat="47.38143" lon="1.16343">
        <ele>114.2</ele>
        <time>2020-07-03T09:34:57Z</time>
      </trkpt>
      <trkpt lat="47.38138" lon="1.16339">
        <ele>114.2</ele>
        <time>2020-07-03T09:34:58Z</time>
      </trkpt>
      <trkpt lat="47.38135" lon="1.16334">
        <ele>114.2</ele>
        <time>2020-07-03T09:34:59Z</time>
      </trkpt>
      <trkpt lat="47.38131" lon="1.16328">
        <ele>114.1</ele>
        <time>2020-07-03T09:35:00Z</time>
      </trkpt>
      <trkpt lat="47.38126" lon="1.16321">
        <ele>114.1</ele>
        <time>2020-07-03T09:35:01Z</time>
      </trkpt>
      <trkpt lat="47.38122" lon="1.16316">
        <ele>114.2</ele>
        <time>2020-07-03T09:35:02Z</time>
      </trkpt>
      <trkpt lat="47.38119" lon="1.16311">
        <ele>114.2</ele>
        <time>2020-07-03T09:35:03Z</time>
      </trkpt>
      <trkpt lat="47.38114" lon="1.16305">
        <ele>114.2</ele>
        <time>2020-07-03T09:35:04Z</time>
      </trkpt>
      <trkpt lat="47.3811" lon="1.16299">
        <ele>114.2</ele>
        <time>2020-07-03T09:35:05Z</time>
      </trkpt>
      <trkpt lat="47.38106" lon="1.16294">
        <ele>114.3</ele>
        <time>2020-07-03T09:35:06Z</time>
      </trkpt>
      <trkpt lat="47.38102" lon="1.16288">
        <ele>114.3</ele>
        <time>2020-07-03T09:35:07Z</time>
      </trkpt>
      <trkpt lat="47.38098" lon="1.16284">
        <ele>114.3</ele>
        <time>2020-07-03T09:35:08Z</time>
      </trkpt>
      <trkpt lat="47.38094" lon="1.16278">
        <ele>114.4</ele>
        <time>2020-07-03T09:35:09Z</time>
      </trkpt>
      <trkpt lat="47.38089" lon="1.16273">
        <ele>114.5</ele>
        <time>2020-07-03T09:35:10Z</time>
      </trkpt>
      <trkpt lat="47.38085" lon="1.16268">
        <ele>114.6</ele>
        <time>2020-07-03T09:35:11Z</time>
      </trkpt>
      <trkpt lat="47.38081" lon="1.16263">
        <ele>114.7</ele>
        <time>2020-07-03T09:35:12Z</time>
      </trkpt>
      <trkpt lat="47.38077" lon="1.16258">
        <ele>114.8</ele>
        <time>2020-07-03T09:35:13Z</time>
      </trkpt>
      <trkpt lat="47.38073" lon="1.16254">
        <ele>114.9</ele>
        <time>2020-07-03T09:35:14Z</time>
      </trkpt>
      <trkpt lat="47.38069" lon="1.16248">
        <ele>114.9</ele>
        <time>2020-07-03T09:35:15Z</time>
      </trkpt>
      <trkpt lat="47.38065" lon="1.16242">
        <ele>115</ele>
        <time>2020-07-03T09:35:16Z</time>
      </trkpt>
      <trkpt lat="47.38061" lon="1.16236">
        <ele>115.1</ele>
        <time>2020-07-03T09:35:17Z</time>
      </trkpt>
      <trkpt lat="47.38056" lon="1.16231">
        <ele>115.2</ele>
        <time>2020-07-03T09:35:18Z</time>
      </trkpt>
      <trkpt lat="47.38052" lon="1.16226">
        <ele>115.3</ele>
        <time>2020-07-03T09:35:19Z</time>
      </trkpt>
      <trkpt lat="47.38047" lon="1.16221">
        <ele>115.4</ele>
        <time>2020-07-03T09:35:20Z</time>
      </trkpt>
      <trkpt lat="47.38043" lon="1.16216">
        <ele>115.5</ele>
        <time>2020-07-03T09:35:21Z</time>
      </trkpt>
      <trkpt lat="47.38039" lon="1.16211">
        <ele>115.6</ele>
        <time>2020-07-03T09:35:22Z</time>
      </trkpt>
      <trkpt lat="47.38035" lon="1.16207">
        <ele>115.7</ele>
        <time>2020-07-03T09:35:23Z</time>
      </trkpt>
      <trkpt lat="47.38031" lon="1.16202">
        <ele>115.8</ele>
        <time>2020-07-03T09:35:24Z</time>
      </trkpt>
      <trkpt lat="47.38028" lon="1.16197">
        <ele>116</ele>
        <time>2020-07-03T09:35:25Z</time>
      </trkpt>
      <trkpt lat="47.38023" lon="1.1619">
        <ele>116.1</ele>
        <time>2020-07-03T09:35:26Z</time>
      </trkpt>
      <trkpt lat="47.38018" lon="1.16185">
        <ele>116.3</ele>
        <time>2020-07-03T09:35:27Z</time>
      </trkpt>
      <trkpt lat="47.38014" lon="1.1618">
        <ele>116.4</ele>
        <time>2020-07-03T09:35:28Z</time>
      </trkpt>
      <trkpt lat="47.3801" lon="1.16175">
        <ele>116.5</ele>
        <time>2020-07-03T09:35:29Z</time>
      </trkpt>
      <trkpt lat="47.38006" lon="1.1617">
        <ele>116.6</ele>
        <time>2020-07-03T09:35:30Z</time>
      </trkpt>
      <trkpt lat="47.38002" lon="1.16164">
        <ele>116.7</ele>
        <time>2020-07-03T09:35:31Z</time>
      </trkpt>
      <trkpt lat="47.37997" lon="1.16158">
        <ele>116.9</ele>
        <time>2020-07-03T09:35:32Z</time>
      </trkpt>
      <trkpt lat="47.37993" lon="1.16152">
        <ele>117</ele>
        <time>2020-07-03T09:35:33Z</time>
      </trkpt>
      <trkpt lat="47.37989" lon="1.16147">
        <ele>117.1</ele>
        <time>2020-07-03T09:35:34Z</time>
      </trkpt>
      <trkpt lat="47.37986" lon="1.16143">
        <ele>117.2</ele>
        <time>2020-07-03T09:35:35Z</time>
      </trkpt>
      <trkpt lat="47.37982" lon="1.16139">
        <ele>117.3</ele>
        <time>2020-07-03T09:35:36Z</time>
      </trkpt>
      <trkpt lat="47.37979" lon="1.16134">
        <ele>117.4</ele>
        <time>2020-07-03T09:35:37Z</time>
      </trkpt>
      <trkpt lat="47.37975" lon="1.16129">
        <ele>117.5</ele>
        <time>2020-07-03T09:35:38Z</time>
      </trkpt>
      <trkpt lat="47.37971" lon="1.16124">
        <ele>117.6</ele>
        <time>2020-07-03T09:35:39Z</time>
      </trkpt>
      <trkpt lat="47.37967" lon="1.16118">
        <ele>117.6</ele>
        <time>2020-07-03T09:35:40Z</time>
      </trkpt>
      <trkpt lat="47.37963" lon="1.16113">
        <ele>117.7</ele>
        <time>2020-07-03T09:35:41Z</time>
      </trkpt>
      <trkpt lat="47.3796" lon="1.16108">
        <ele>117.8</ele>
        <time>2020-07-03T09:35:42Z</time>
      </trkpt>
      <trkpt lat="47.37956" lon="1.16103">
        <ele>117.8</ele>
        <time>2020-07-03T09:35:43Z</time>
      </trkpt>
      <trkpt lat="47.37953" lon="1.16098">
        <ele>117.9</ele>
        <time>2020-07-03T09:35:44Z</time>
      </trkpt>
      <trkpt lat="47.37949" lon="1.16094">
        <ele>117.9</ele>
        <time>2020-07-03T09:35:45Z</time>
      </trkpt>
      <trkpt lat="47.37946" lon="1.16089">
        <ele>118</ele>
        <time>2020-07-03T09:35:46Z</time>
      </trkpt>
      <trkpt lat="47.37942" lon="1.16083">
        <ele>118</ele>
        <time>2020-07-03T09:35:47Z</time>
      </trkpt>
      <trkpt lat="47.37939" lon="1.16078">
        <ele>118.1</ele>
        <time>2020-07-03T09:35:48Z</time>
      </trkpt>
      <trkpt lat="47.37935" lon="1.16071">
        <ele>118.1</ele>
        <time>2020-07-03T09:35:49Z</time>
      </trkpt>
      <trkpt lat="47.37932" lon="1.16065">
        <ele>118.2</ele>
        <time>2020-07-03T09:35:50Z</time>
      </trkpt>
      <trkpt lat="47.37929" lon="1.16058">
        <ele>118.2</ele>
        <time>2020-07-03T09:35:51Z</time>
      </trkpt>
      <trkpt lat="47.37925" lon="1.16052">
        <ele>118.2</ele>
        <time>2020-07-03T09:35:52Z</time>
      </trkpt>
      <trkpt lat="47.37922" lon="1.16045">
        <ele>118.1</ele>
        <time>2020-07-03T09:35:53Z</time>
      </trkpt>
      <trkpt lat="47.37919" lon="1.1604">
        <ele>118.1</ele>
        <time>2020-07-03T09:35:54Z</time>
      </trkpt>
      <trkpt lat="47.37914" lon="1.16034">
        <ele>118.1</ele>
        <time>2020-07-03T09:35:55Z</time>
      </trkpt>
      <trkpt lat="47.3791" lon="1.16027">
        <ele>118.1</ele>
        <time>2020-07-03T09:35:56Z</time>
      </trkpt>
      <trkpt lat="47.37906" lon="1.1602">
        <ele>118.1</ele>
        <time>2020-07-03T09:35:57Z</time>
      </trkpt>
      <trkpt lat="47.37902" lon="1.16013">
        <ele>118.1</ele>
        <time>2020-07-03T09:35:58Z</time>
      </trkpt>
      <trkpt lat="47.37897" lon="1.16006">
        <ele>118.1</ele>
        <time>2020-07-03T09:35:59Z</time>
      </trkpt>
      <trkpt lat="47.37893" lon="1.16">
        <ele>118.2</ele>
        <time>2020-07-03T09:36:00Z</time>
      </trkpt>
      <trkpt lat="47.37889" lon="1.15993">
        <ele>118.2</ele>
        <time>2020-07-03T09:36:01Z</time>
      </trkpt>
      <trkpt lat="47.37885" lon="1.15986">
        <ele>118.3</ele>
        <time>2020-07-03T09:36:02Z</time>
      </trkpt>
      <trkpt lat="47.37881" lon="1.15979">
        <ele>118.4</ele>
        <time>2020-07-03T09:36:03Z</time>
      </trkpt>
      <trkpt lat="47.37878" lon="1.15972">
        <ele>118.5</ele>
        <time>2020-07-03T09:36:04Z</time>
      </trkpt>
      <trkpt lat="47.37874" lon="1.15966">
        <ele>118.5</ele>
        <time>2020-07-03T09:36:05Z</time>
      </trkpt>
      <trkpt lat="47.37871" lon="1.1596">
        <ele>118.6</ele>
        <time>2020-07-03T09:36:06Z</time>
      </trkpt>
      <trkpt lat="47.37868" lon="1.15954">
        <ele>118.7</ele>
        <time>2020-07-03T09:36:07Z</time>
      </trkpt>
      <trkpt lat="47.37864" lon="1.15949">
        <ele>118.8</ele>
        <time>2020-07-03T09:36:08Z</time>
      </trkpt>
      <trkpt lat="47.3786" lon="1.15943">
        <ele>118.9</ele>
        <time>2020-07-03T09:36:09Z</time>
      </trkpt>
      <trkpt lat="47.37857" lon="1.15937">
        <ele>119</ele>
        <time>2020-07-03T09:36:10Z</time>
      </trkpt>
      <trkpt lat="47.37853" lon="1.15931">
        <ele>119.1</ele>
        <time>2020-07-03T09:36:11Z</time>
      </trkpt>
      <trkpt lat="47.37849" lon="1.15923">
        <ele>119.2</ele>
        <time>2020-07-03T09:36:12Z</time>
      </trkpt>
      <trkpt lat="47.37845" lon="1.15917">
        <ele>119.2</ele>
        <time>2020-07-03T09:36:13Z</time>
      </trkpt>
      <trkpt lat="47.37842" lon="1.15912">
        <ele>119.2</ele>
        <time>2020-07-03T09:36:14Z</time>
      </trkpt>
      <trkpt lat="47.37838" lon="1.15905">
        <ele>119.2</ele>
        <time>2020-07-03T09:36:15Z</time>
      </trkpt>
      <trkpt lat="47.37834" lon="1.15898">
        <ele>119.1</ele>
        <time>2020-07-03T09:36:16Z</time>
      </trkpt>
      <trkpt lat="47.3783" lon="1.15892">
        <ele>119.1</ele>
        <time>2020-07-03T09:36:17Z</time>
      </trkpt>
      <trkpt lat="47.37826" lon="1.15886">
        <ele>119.1</ele>
        <time>2020-07-03T09:36:18Z</time>
      </trkpt>
      <trkpt lat="47.37823" lon="1.15882">
        <ele>119.1</ele>
        <time>2020-07-03T09:36:19Z</time>
      </trkpt>
      <trkpt lat="47.37819" lon="1.15877">
        <ele>119.1</ele>
        <time>2020-07-03T09:36:20Z</time>
      </trkpt>
      <trkpt lat="47.37816" lon="1.1587">
        <ele>119.1</ele>
        <time>2020-07-03T09:36:21Z</time>
      </trkpt>
      <trkpt lat="47.37812" lon="1.15863">
        <ele>119.1</ele>
        <time>2020-07-03T09:36:22Z</time>
      </trkpt>
      <trkpt lat="47.37808" lon="1.15857">
        <ele>119.1</ele>
        <time>2020-07-03T09:36:23Z</time>
      </trkpt>
      <trkpt lat="47.37805" lon="1.15851">
        <ele>119.1</ele>
        <time>2020-07-03T09:36:24Z</time>
      </trkpt>
      <trkpt lat="47.37801" lon="1.15845">
        <ele>119.2</ele>
        <time>2020-07-03T09:36:25Z</time>
      </trkpt>
      <trkpt lat="47.37798" lon="1.15838">
        <ele>119.2</ele>
        <time>2020-07-03T09:36:26Z</time>
      </trkpt>
      <trkpt lat="47.37794" lon="1.15831">
        <ele>119.2</ele>
        <time>2020-07-03T09:36:27Z</time>
      </trkpt>
      <trkpt lat="47.37792" lon="1.15824">
        <ele>119.3</ele>
        <time>2020-07-03T09:36:28Z</time>
      </trkpt>
      <trkpt lat="47.37788" lon="1.15817">
        <ele>119.3</ele>
        <time>2020-07-03T09:36:29Z</time>
      </trkpt>
      <trkpt lat="47.37784" lon="1.1581">
        <ele>119.3</ele>
        <time>2020-07-03T09:36:30Z</time>
      </trkpt>
      <trkpt lat="47.3778" lon="1.15803">
        <ele>119.3</ele>
        <time>2020-07-03T09:36:31Z</time>
      </trkpt>
      <trkpt lat="47.37776" lon="1.15797">
        <ele>119.4</ele>
        <time>2020-07-03T09:36:32Z</time>
      </trkpt>
      <trkpt lat="47.37772" lon="1.1579">
        <ele>119.4</ele>
        <time>2020-07-03T09:36:33Z</time>
      </trkpt>
      <trkpt lat="47.37769" lon="1.15783">
        <ele>119.4</ele>
        <time>2020-07-03T09:36:34Z</time>
      </trkpt>
      <trkpt lat="47.37764" lon="1.15777">
        <ele>119.5</ele>
        <time>2020-07-03T09:36:35Z</time>
      </trkpt>
      <trkpt lat="47.37761" lon="1.1577">
        <ele>119.5</ele>
        <time>2020-07-03T09:36:36Z</time>
      </trkpt>
      <trkpt lat="47.37757" lon="1.15763">
        <ele>119.5</ele>
        <time>2020-07-03T09:36:37Z</time>
      </trkpt>
      <trkpt lat="47.37753" lon="1.15758">
        <ele>119.5</ele>
        <time>2020-07-03T09:36:38Z</time>
      </trkpt>
      <trkpt lat="47.3775" lon="1.15752">
        <ele>119.5</ele>
        <time>2020-07-03T09:36:39Z</time>
      </trkpt>
      <trkpt lat="47.37747" lon="1.15747">
        <ele>119.5</ele>
        <time>2020-07-03T09:36:40Z</time>
      </trkpt>
      <trkpt lat="47.37744" lon="1.15741">
        <ele>119.5</ele>
        <time>2020-07-03T09:36:41Z</time>
      </trkpt>
      <trkpt lat="47.37742" lon="1.15734">
        <ele>119.5</ele>
        <time>2020-07-03T09:36:42Z</time>
      </trkpt>
      <trkpt lat="47.37738" lon="1.15728">
        <ele>119.5</ele>
        <time>2020-07-03T09:36:43Z</time>
      </trkpt>
      <trkpt lat="47.37735" lon="1.15722">
        <ele>119.6</ele>
        <time>2020-07-03T09:36:44Z</time>
      </trkpt>
      <trkpt lat="47.37731" lon="1.15717">
        <ele>119.7</ele>
        <time>2020-07-03T09:36:45Z</time>
      </trkpt>
      <trkpt lat="47.37728" lon="1.15711">
        <ele>119.7</ele>
        <time>2020-07-03T09:36:46Z</time>
      </trkpt>
      <trkpt lat="47.37724" lon="1.15706">
        <ele>119.8</ele>
        <time>2020-07-03T09:36:47Z</time>
      </trkpt>
      <trkpt lat="47.37721" lon="1.15701">
        <ele>119.9</ele>
        <time>2020-07-03T09:36:48Z</time>
      </trkpt>
      <trkpt lat="47.37717" lon="1.15696">
        <ele>120</ele>
        <time>2020-07-03T09:36:49Z</time>
      </trkpt>
      <trkpt lat="47.37714" lon="1.15689">
        <ele>120.2</ele>
        <time>2020-07-03T09:36:50Z</time>
      </trkpt>
      <trkpt lat="47.3771" lon="1.15682">
        <ele>120.3</ele>
        <time>2020-07-03T09:36:51Z</time>
      </trkpt>
      <trkpt lat="47.37706" lon="1.15675">
        <ele>120.5</ele>
        <time>2020-07-03T09:36:52Z</time>
      </trkpt>
      <trkpt lat="47.37702" lon="1.15668">
        <ele>120.7</ele>
        <time>2020-07-03T09:36:53Z</time>
      </trkpt>
      <trkpt lat="47.37698" lon="1.15661">
        <ele>120.8</ele>
        <time>2020-07-03T09:36:54Z</time>
      </trkpt>
      <trkpt lat="47.37694" lon="1.15655">
        <ele>121</ele>
        <time>2020-07-03T09:36:55Z</time>
      </trkpt>
      <trkpt lat="47.37691" lon="1.15648">
        <ele>121.1</ele>
        <time>2020-07-03T09:36:56Z</time>
      </trkpt>
      <trkpt lat="47.37688" lon="1.15642">
        <ele>121.3</ele>
        <time>2020-07-03T09:36:57Z</time>
      </trkpt>
      <trkpt lat="47.37684" lon="1.15635">
        <ele>121.5</ele>
        <time>2020-07-03T09:36:58Z</time>
      </trkpt>
      <trkpt lat="47.37681" lon="1.15629">
        <ele>121.6</ele>
        <time>2020-07-03T09:36:59Z</time>
      </trkpt>
      <trkpt lat="47.37678" lon="1.15622">
        <ele>121.6</ele>
        <time>2020-07-03T09:37:00Z</time>
      </trkpt>
      <trkpt lat="47.37674" lon="1.15617">
        <ele>121.6</ele>
        <time>2020-07-03T09:37:01Z</time>
      </trkpt>
      <trkpt lat="47.3767" lon="1.1561">
        <ele>121.6</ele>
        <time>2020-07-03T09:37:02Z</time>
      </trkpt>
      <trkpt lat="47.37666" lon="1.15603">
        <ele>121.7</ele>
        <time>2020-07-03T09:37:03Z</time>
      </trkpt>
      <trkpt lat="47.37662" lon="1.15595">
        <ele>121.7</ele>
        <time>2020-07-03T09:37:04Z</time>
      </trkpt>
      <trkpt lat="47.37659" lon="1.15588">
        <ele>121.8</ele>
        <time>2020-07-03T09:37:05Z</time>
      </trkpt>
      <trkpt lat="47.37656" lon="1.15581">
        <ele>121.8</ele>
        <time>2020-07-03T09:37:06Z</time>
      </trkpt>
      <trkpt lat="47.37653" lon="1.15573">
        <ele>121.9</ele>
        <time>2020-07-03T09:37:07Z</time>
      </trkpt>
      <trkpt lat="47.37649" lon="1.15566">
        <ele>122</ele>
        <time>2020-07-03T09:37:08Z</time>
      </trkpt>
      <trkpt lat="47.37646" lon="1.15558">
        <ele>122.1</ele>
        <time>2020-07-03T09:37:09Z</time>
      </trkpt>
      <trkpt lat="47.37643" lon="1.15552">
        <ele>122.2</ele>
        <time>2020-07-03T09:37:10Z</time>
      </trkpt>
      <trkpt lat="47.3764" lon="1.15545">
        <ele>122.3</ele>
        <time>2020-07-03T09:37:11Z</time>
      </trkpt>
      <trkpt lat="47.37637" lon="1.15539">
        <ele>122.3</ele>
        <time>2020-07-03T09:37:12Z</time>
      </trkpt>
      <trkpt lat="47.37634" lon="1.15532">
        <ele>122.4</ele>
        <time>2020-07-03T09:37:13Z</time>
      </trkpt>
      <trkpt lat="47.37631" lon="1.15526">
        <ele>122.5</ele>
        <time>2020-07-03T09:37:14Z</time>
      </trkpt>
      <trkpt lat="47.37629" lon="1.15519">
        <ele>122.5</ele>
        <time>2020-07-03T09:37:15Z</time>
      </trkpt>
      <trkpt lat="47.37626" lon="1.15513">
        <ele>122.6</ele>
        <time>2020-07-03T09:37:16Z</time>
      </trkpt>
      <trkpt lat="47.37623" lon="1.15507">
        <ele>122.7</ele>
        <time>2020-07-03T09:37:17Z</time>
      </trkpt>
      <trkpt lat="47.3762" lon="1.15501">
        <ele>122.7</ele>
        <time>2020-07-03T09:37:18Z</time>
      </trkpt>
      <trkpt lat="47.37618" lon="1.15495">
        <ele>122.8</ele>
        <time>2020-07-03T09:37:19Z</time>
      </trkpt>
      <trkpt lat="47.37615" lon="1.15488">
        <ele>122.9</ele>
        <time>2020-07-03T09:37:20Z</time>
      </trkpt>
      <trkpt lat="47.37613" lon="1.15481">
        <ele>123</ele>
        <time>2020-07-03T09:37:21Z</time>
      </trkpt>
      <trkpt lat="47.3761" lon="1.15475">
        <ele>123</ele>
        <time>2020-07-03T09:37:22Z</time>
      </trkpt>
      <trkpt lat="47.37607" lon="1.15468">
        <ele>123.1</ele>
        <time>2020-07-03T09:37:23Z</time>
      </trkpt>
      <trkpt lat="47.37603" lon="1.15462">
        <ele>123.2</ele>
        <time>2020-07-03T09:37:24Z</time>
      </trkpt>
      <trkpt lat="47.376" lon="1.15456">
        <ele>123.3</ele>
        <time>2020-07-03T09:37:25Z</time>
      </trkpt>
      <trkpt lat="47.37598" lon="1.15449">
        <ele>123.4</ele>
        <time>2020-07-03T09:37:26Z</time>
      </trkpt>
      <trkpt lat="47.37595" lon="1.15444">
        <ele>123.5</ele>
        <time>2020-07-03T09:37:27Z</time>
      </trkpt>
      <trkpt lat="47.37593" lon="1.15439">
        <ele>123.6</ele>
        <time>2020-07-03T09:37:28Z</time>
      </trkpt>
      <trkpt lat="47.3759" lon="1.15432">
        <ele>123.7</ele>
        <time>2020-07-03T09:37:29Z</time>
      </trkpt>
      <trkpt lat="47.37587" lon="1.15426">
        <ele>123.7</ele>
        <time>2020-07-03T09:37:30Z</time>
      </trkpt>
      <trkpt lat="47.37584" lon="1.15419">
        <ele>123.8</ele>
        <time>2020-07-03T09:37:31Z</time>
      </trkpt>
      <trkpt lat="47.37581" lon="1.15412">
        <ele>123.9</ele>
        <time>2020-07-03T09:37:32Z</time>
      </trkpt>
      <trkpt lat="47.37579" lon="1.15407">
        <ele>123.9</ele>
        <time>2020-07-03T09:37:33Z</time>
      </trkpt>
      <trkpt lat="47.37576" lon="1.154">
        <ele>124</ele>
        <time>2020-07-03T09:37:34Z</time>
      </trkpt>
      <trkpt lat="47.37573" lon="1.15395">
        <ele>124.1</ele>
        <time>2020-07-03T09:37:35Z</time>
      </trkpt>
      <trkpt lat="47.37571" lon="1.15388">
        <ele>124.1</ele>
        <time>2020-07-03T09:37:36Z</time>
      </trkpt>
      <trkpt lat="47.37568" lon="1.15383">
        <ele>124.2</ele>
        <time>2020-07-03T09:37:37Z</time>
      </trkpt>
      <trkpt lat="47.37565" lon="1.15378">
        <ele>124.2</ele>
        <time>2020-07-03T09:37:38Z</time>
      </trkpt>
      <trkpt lat="47.37563" lon="1.15371">
        <ele>124.2</ele>
        <time>2020-07-03T09:37:39Z</time>
      </trkpt>
      <trkpt lat="47.37561" lon="1.15366">
        <ele>124.2</ele>
        <time>2020-07-03T09:37:40Z</time>
      </trkpt>
      <trkpt lat="47.37559" lon="1.1536">
        <ele>124.2</ele>
        <time>2020-07-03T09:37:41Z</time>
      </trkpt>
      <trkpt lat="47.37557" lon="1.15354">
        <ele>124.2</ele>
        <time>2020-07-03T09:37:42Z</time>
      </trkpt>
      <trkpt lat="47.37554" lon="1.15346">
        <ele>124.2</ele>
        <time>2020-07-03T09:37:43Z</time>
      </trkpt>
      <trkpt lat="47.37552" lon="1.15338">
        <ele>124.2</ele>
        <time>2020-07-03T09:37:44Z</time>
      </trkpt>
      <trkpt lat="47.37551" lon="1.15331">
        <ele>124.3</ele>
        <time>2020-07-03T09:37:45Z</time>
      </trkpt>
      <trkpt lat="47.3755" lon="1.15325">
        <ele>124.3</ele>
        <time>2020-07-03T09:37:46Z</time>
      </trkpt>
      <trkpt lat="47.37548" lon="1.15317">
        <ele>124.3</ele>
        <time>2020-07-03T09:37:47Z</time>
      </trkpt>
      <trkpt lat="47.37547" lon="1.15309">
        <ele>124.3</ele>
        <time>2020-07-03T09:37:48Z</time>
      </trkpt>
      <trkpt lat="47.37546" lon="1.153">
        <ele>124.4</ele>
        <time>2020-07-03T09:37:49Z</time>
      </trkpt>
      <trkpt lat="47.37545" lon="1.15292">
        <ele>124.4</ele>
        <time>2020-07-03T09:37:50Z</time>
      </trkpt>
      <trkpt lat="47.37544" lon="1.15284">
        <ele>124.4</ele>
        <time>2020-07-03T09:37:51Z</time>
      </trkpt>
      <trkpt lat="47.37543" lon="1.15275">
        <ele>124.4</ele>
        <time>2020-07-03T09:37:52Z</time>
      </trkpt>
      <trkpt lat="47.37543" lon="1.15268">
        <ele>124.5</ele>
        <time>2020-07-03T09:37:53Z</time>
      </trkpt>
      <trkpt lat="47.37543" lon="1.1526">
        <ele>124.5</ele>
        <time>2020-07-03T09:37:54Z</time>
      </trkpt>
      <trkpt lat="47.37543" lon="1.15253">
        <ele>124.4</ele>
        <time>2020-07-03T09:37:55Z</time>
      </trkpt>
      <trkpt lat="47.37543" lon="1.15244">
        <ele>124.4</ele>
        <time>2020-07-03T09:37:56Z</time>
      </trkpt>
      <trkpt lat="47.37544" lon="1.15236">
        <ele>124.3</ele>
        <time>2020-07-03T09:37:57Z</time>
      </trkpt>
      <trkpt lat="47.37545" lon="1.15228">
        <ele>124.3</ele>
        <time>2020-07-03T09:37:58Z</time>
      </trkpt>
      <trkpt lat="47.37546" lon="1.15219">
        <ele>124.2</ele>
        <time>2020-07-03T09:37:59Z</time>
      </trkpt>
      <trkpt lat="47.37546" lon="1.15213">
        <ele>124.1</ele>
        <time>2020-07-03T09:38:00Z</time>
      </trkpt>
      <trkpt lat="47.37546" lon="1.15205">
        <ele>124.1</ele>
        <time>2020-07-03T09:38:01Z</time>
      </trkpt>
      <trkpt lat="47.37546" lon="1.15196">
        <ele>124.1</ele>
        <time>2020-07-03T09:38:02Z</time>
      </trkpt>
      <trkpt lat="47.37544" lon="1.1519">
        <ele>124.1</ele>
        <time>2020-07-03T09:38:03Z</time>
      </trkpt>
      <trkpt lat="47.37543" lon="1.15184">
        <ele>124.1</ele>
        <time>2020-07-03T09:38:04Z</time>
      </trkpt>
      <trkpt lat="47.37539" lon="1.15177">
        <ele>124</ele>
        <time>2020-07-03T09:38:05Z</time>
      </trkpt>
      <trkpt lat="47.37536" lon="1.1517">
        <ele>124</ele>
        <time>2020-07-03T09:38:06Z</time>
      </trkpt>
      <trkpt lat="47.37532" lon="1.15163">
        <ele>124</ele>
        <time>2020-07-03T09:38:07Z</time>
      </trkpt>
      <trkpt lat="47.37529" lon="1.15157">
        <ele>124</ele>
        <time>2020-07-03T09:38:08Z</time>
      </trkpt>
      <trkpt lat="47.37525" lon="1.15151">
        <ele>124</ele>
        <time>2020-07-03T09:38:09Z</time>
      </trkpt>
      <trkpt lat="47.37521" lon="1.15146">
        <ele>124.6</ele>
        <time>2020-07-03T09:38:10Z</time>
      </trkpt>
      <trkpt lat="47.37516" lon="1.1514">
        <ele>124.6</ele>
        <time>2020-07-03T09:38:11Z</time>
      </trkpt>
      <trkpt lat="47.3751" lon="1.15136">
        <ele>124.6</ele>
        <time>2020-07-03T09:38:12Z</time>
      </trkpt>
      <trkpt lat="47.37505" lon="1.15132">
        <ele>124.4</ele>
        <time>2020-07-03T09:38:13Z</time>
      </trkpt>
      <trkpt lat="47.37499" lon="1.15129">
        <ele>124.3</ele>
        <time>2020-07-03T09:38:14Z</time>
      </trkpt>
      <trkpt lat="47.37492" lon="1.15127">
        <ele>124.1</ele>
        <time>2020-07-03T09:38:15Z</time>
      </trkpt>
      <trkpt lat="47.37486" lon="1.15125">
        <ele>123.9</ele>
        <time>2020-07-03T09:38:16Z</time>
      </trkpt>
      <trkpt lat="47.3748" lon="1.15125">
        <ele>123.7</ele>
        <time>2020-07-03T09:38:17Z</time>
      </trkpt>
      <trkpt lat="47.37474" lon="1.15125">
        <ele>123.4</ele>
        <time>2020-07-03T09:38:18Z</time>
      </trkpt>
      <trkpt lat="47.37467" lon="1.15124">
        <ele>123.2</ele>
        <time>2020-07-03T09:38:19Z</time>
      </trkpt>
      <trkpt lat="47.3746" lon="1.15124">
        <ele>122.9</ele>
        <time>2020-07-03T09:38:20Z</time>
      </trkpt>
      <trkpt lat="47.37452" lon="1.15126">
        <ele>122.5</ele>
        <time>2020-07-03T09:38:21Z</time>
      </trkpt>
      <trkpt lat="47.37445" lon="1.15128">
        <ele>122.2</ele>
        <time>2020-07-03T09:38:22Z</time>
      </trkpt>
      <trkpt lat="47.37439" lon="1.15132">
        <ele>121.9</ele>
        <time>2020-07-03T09:38:23Z</time>
      </trkpt>
      <trkpt lat="47.37432" lon="1.15136">
        <ele>121.5</ele>
        <time>2020-07-03T09:38:24Z</time>
      </trkpt>
      <trkpt lat="47.37426" lon="1.1514">
        <ele>121.1</ele>
        <time>2020-07-03T09:38:25Z</time>
      </trkpt>
      <trkpt lat="47.3742" lon="1.15145">
        <ele>120.7</ele>
        <time>2020-07-03T09:38:26Z</time>
      </trkpt>
      <trkpt lat="47.37413" lon="1.1515">
        <ele>120.4</ele>
        <time>2020-07-03T09:38:27Z</time>
      </trkpt>
      <trkpt lat="47.37407" lon="1.15155">
        <ele>120.1</ele>
        <time>2020-07-03T09:38:28Z</time>
      </trkpt>
      <trkpt lat="47.374" lon="1.15159">
        <ele>119.9</ele>
        <time>2020-07-03T09:38:29Z</time>
      </trkpt>
      <trkpt lat="47.37394" lon="1.15164">
        <ele>119.6</ele>
        <time>2020-07-03T09:38:30Z</time>
      </trkpt>
      <trkpt lat="47.37387" lon="1.15168">
        <ele>119.3</ele>
        <time>2020-07-03T09:38:31Z</time>
      </trkpt>
      <trkpt lat="47.37381" lon="1.15173">
        <ele>119.1</ele>
        <time>2020-07-03T09:38:32Z</time>
      </trkpt>
      <trkpt lat="47.37374" lon="1.15178">
        <ele>118.8</ele>
        <time>2020-07-03T09:38:33Z</time>
      </trkpt>
      <trkpt lat="47.37368" lon="1.15184">
        <ele>118.6</ele>
        <time>2020-07-03T09:38:34Z</time>
      </trkpt>
      <trkpt lat="47.37361" lon="1.1519">
        <ele>118.3</ele>
        <time>2020-07-03T09:38:35Z</time>
      </trkpt>
      <trkpt lat="47.37354" lon="1.15195">
        <ele>118.1</ele>
        <time>2020-07-03T09:38:36Z</time>
      </trkpt>
      <trkpt lat="47.37347" lon="1.152">
        <ele>117.9</ele>
        <time>2020-07-03T09:38:37Z</time>
      </trkpt>
      <trkpt lat="47.3734" lon="1.15204">
        <ele>117.7</ele>
        <time>2020-07-03T09:38:38Z</time>
      </trkpt>
      <trkpt lat="47.37334" lon="1.15209">
        <ele>117.5</ele>
        <time>2020-07-03T09:38:39Z</time>
      </trkpt>
      <trkpt lat="47.37327" lon="1.15214">
        <ele>117.5</ele>
        <time>2020-07-03T09:38:40Z</time>
      </trkpt>
      <trkpt lat="47.37321" lon="1.15219">
        <ele>117.4</ele>
        <time>2020-07-03T09:38:41Z</time>
      </trkpt>
      <trkpt lat="47.37314" lon="1.15224">
        <ele>117.4</ele>
        <time>2020-07-03T09:38:42Z</time>
      </trkpt>
      <trkpt lat="47.37308" lon="1.1523">
        <ele>117.5</ele>
        <time>2020-07-03T09:38:43Z</time>
      </trkpt>
      <trkpt lat="47.37301" lon="1.15234">
        <ele>117.6</ele>
        <time>2020-07-03T09:38:44Z</time>
      </trkpt>
      <trkpt lat="47.37295" lon="1.15239">
        <ele>117.7</ele>
        <time>2020-07-03T09:38:45Z</time>
      </trkpt>
      <trkpt lat="47.37289" lon="1.15243">
        <ele>117.9</ele>
        <time>2020-07-03T09:38:46Z</time>
      </trkpt>
      <trkpt lat="47.37283" lon="1.15246">
        <ele>118</ele>
        <time>2020-07-03T09:38:47Z</time>
      </trkpt>
      <trkpt lat="47.37276" lon="1.15247">
        <ele>118.2</ele>
        <time>2020-07-03T09:38:48Z</time>
      </trkpt>
      <trkpt lat="47.3727" lon="1.15249">
        <ele>118.4</ele>
        <time>2020-07-03T09:38:49Z</time>
      </trkpt>
      <trkpt lat="47.37264" lon="1.15252">
        <ele>118.5</ele>
        <time>2020-07-03T09:38:50Z</time>
      </trkpt>
      <trkpt lat="47.37258" lon="1.15254">
        <ele>118.7</ele>
        <time>2020-07-03T09:38:51Z</time>
      </trkpt>
      <trkpt lat="47.37252" lon="1.15256">
        <ele>118.8</ele>
        <time>2020-07-03T09:38:52Z</time>
      </trkpt>
      <trkpt lat="47.37246" lon="1.15257">
        <ele>118.9</ele>
        <time>2020-07-03T09:38:53Z</time>
      </trkpt>
      <trkpt lat="47.3724" lon="1.1526">
        <ele>119.1</ele>
        <time>2020-07-03T09:38:54Z</time>
      </trkpt>
      <trkpt lat="47.37234" lon="1.15261">
        <ele>119.3</ele>
        <time>2020-07-03T09:38:55Z</time>
      </trkpt>
      <trkpt lat="47.37229" lon="1.15261">
        <ele>119.5</ele>
        <time>2020-07-03T09:38:56Z</time>
      </trkpt>
      <trkpt lat="47.37223" lon="1.15262">
        <ele>119.7</ele>
        <time>2020-07-03T09:38:57Z</time>
      </trkpt>
      <trkpt lat="47.37217" lon="1.15263">
        <ele>119.9</ele>
        <time>2020-07-03T09:38:58Z</time>
      </trkpt>
      <trkpt lat="47.37211" lon="1.15264">
        <ele>120.1</ele>
        <time>2020-07-03T09:38:59Z</time>
      </trkpt>
      <trkpt lat="47.37206" lon="1.15266">
        <ele>120.3</ele>
        <time>2020-07-03T09:39:00Z</time>
      </trkpt>
      <trkpt lat="47.37201" lon="1.15267">
        <ele>120.5</ele>
        <time>2020-07-03T09:39:01Z</time>
      </trkpt>
      <trkpt lat="47.37196" lon="1.15269">
        <ele>120.8</ele>
        <time>2020-07-03T09:39:02Z</time>
      </trkpt>
      <trkpt lat="47.37191" lon="1.15271">
        <ele>121</ele>
        <time>2020-07-03T09:39:03Z</time>
      </trkpt>
      <trkpt lat="47.37187" lon="1.15272">
        <ele>121.2</ele>
        <time>2020-07-03T09:39:04Z</time>
      </trkpt>
      <trkpt lat="47.37182" lon="1.15274">
        <ele>121.5</ele>
        <time>2020-07-03T09:39:05Z</time>
      </trkpt>
      <trkpt lat="47.37178" lon="1.15275">
        <ele>121.8</ele>
        <time>2020-07-03T09:39:06Z</time>
      </trkpt>
      <trkpt lat="47.37173" lon="1.15276">
        <ele>122</ele>
        <time>2020-07-03T09:39:07Z</time>
      </trkpt>
      <trkpt lat="47.37168" lon="1.15276">
        <ele>122.3</ele>
        <time>2020-07-03T09:39:08Z</time>
      </trkpt>
      <trkpt lat="47.37163" lon="1.15276">
        <ele>122.6</ele>
        <time>2020-07-03T09:39:09Z</time>
      </trkpt>
      <trkpt lat="47.37159" lon="1.15275">
        <ele>122.8</ele>
        <time>2020-07-03T09:39:10Z</time>
      </trkpt>
      <trkpt lat="47.37155" lon="1.15275">
        <ele>123.1</ele>
        <time>2020-07-03T09:39:11Z</time>
      </trkpt>
      <trkpt lat="47.3715" lon="1.15275">
        <ele>123.4</ele>
        <time>2020-07-03T09:39:12Z</time>
      </trkpt>
      <trkpt lat="47.37144" lon="1.15276">
        <ele>123.6</ele>
        <time>2020-07-03T09:39:13Z</time>
      </trkpt>
      <trkpt lat="47.37139" lon="1.15277">
        <ele>123.8</ele>
        <time>2020-07-03T09:39:14Z</time>
      </trkpt>
      <trkpt lat="47.37134" lon="1.15278">
        <ele>124</ele>
        <time>2020-07-03T09:39:15Z</time>
      </trkpt>
      <trkpt lat="47.3713" lon="1.15278">
        <ele>124.2</ele>
        <time>2020-07-03T09:39:16Z</time>
      </trkpt>
      <trkpt lat="47.37125" lon="1.15277">
        <ele>124.4</ele>
        <time>2020-07-03T09:39:17Z</time>
      </trkpt>
      <trkpt lat="47.37121" lon="1.15277">
        <ele>124.5</ele>
        <time>2020-07-03T09:39:18Z</time>
      </trkpt>
      <trkpt lat="47.37117" lon="1.15277">
        <ele>124.7</ele>
        <time>2020-07-03T09:39:19Z</time>
      </trkpt>
      <trkpt lat="47.37113" lon="1.15277">
        <ele>124.8</ele>
        <time>2020-07-03T09:39:20Z</time>
      </trkpt>
      <trkpt lat="47.3711" lon="1.15276">
        <ele>125</ele>
        <time>2020-07-03T09:39:21Z</time>
      </trkpt>
      <trkpt lat="47.37106" lon="1.15277">
        <ele>125.1</ele>
        <time>2020-07-03T09:39:22Z</time>
      </trkpt>
      <trkpt lat="47.37102" lon="1.15277">
        <ele>125.3</ele>
        <time>2020-07-03T09:39:23Z</time>
      </trkpt>
      <trkpt lat="47.37097" lon="1.15276">
        <ele>125.5</ele>
        <time>2020-07-03T09:39:24Z</time>
      </trkpt>
      <trkpt lat="47.37092" lon="1.15275">
        <ele>125.7</ele>
        <time>2020-07-03T09:39:25Z</time>
      </trkpt>
      <trkpt lat="47.37087" lon="1.15274">
        <ele>125.8</ele>
        <time>2020-07-03T09:39:26Z</time>
      </trkpt>
      <trkpt lat="47.37084" lon="1.15273">
        <ele>125.9</ele>
        <time>2020-07-03T09:39:27Z</time>
      </trkpt>
      <trkpt lat="47.3708" lon="1.15271">
        <ele>126.1</ele>
        <time>2020-07-03T09:39:28Z</time>
      </trkpt>
      <trkpt lat="47.37076" lon="1.1527">
        <ele>126.2</ele>
        <time>2020-07-03T09:39:29Z</time>
      </trkpt>
      <trkpt lat="47.37073" lon="1.1527">
        <ele>126.2</ele>
        <time>2020-07-03T09:39:30Z</time>
      </trkpt>
      <trkpt lat="47.3707" lon="1.15268">
        <ele>126.3</ele>
        <time>2020-07-03T09:39:31Z</time>
      </trkpt>
      <trkpt lat="47.37066" lon="1.15268">
        <ele>126.4</ele>
        <time>2020-07-03T09:39:32Z</time>
      </trkpt>
      <trkpt lat="47.37065" lon="1.15268">
        <ele>126.4</ele>
        <time>2020-07-03T09:39:33Z</time>
      </trkpt>
      <trkpt lat="47.37061" lon="1.15267">
        <ele>126.5</ele>
        <time>2020-07-03T09:39:34Z</time>
      </trkpt>
      <trkpt lat="47.37057" lon="1.15265">
        <ele>126.6</ele>
        <time>2020-07-03T09:39:35Z</time>
      </trkpt>
      <trkpt lat="47.37054" lon="1.15264">
        <ele>126.6</ele>
        <time>2020-07-03T09:39:36Z</time>
      </trkpt>
      <trkpt lat="47.37051" lon="1.15263">
        <ele>126.7</ele>
        <time>2020-07-03T09:39:37Z</time>
      </trkpt>
      <trkpt lat="47.37045" lon="1.1526">
        <ele>126.8</ele>
        <time>2020-07-03T09:39:38Z</time>
      </trkpt>
      <trkpt lat="47.37042" lon="1.1526">
        <ele>126.8</ele>
        <time>2020-07-03T09:39:39Z</time>
      </trkpt>
      <trkpt lat="47.37038" lon="1.15258">
        <ele>126.9</ele>
        <time>2020-07-03T09:39:40Z</time>
      </trkpt>
      <trkpt lat="47.37035" lon="1.15256">
        <ele>126.9</ele>
        <time>2020-07-03T09:39:41Z</time>
      </trkpt>
      <trkpt lat="47.3703" lon="1.15253">
        <ele>126.9</ele>
        <time>2020-07-03T09:39:42Z</time>
      </trkpt>
      <trkpt lat="47.37026" lon="1.15252">
        <ele>126.9</ele>
        <time>2020-07-03T09:39:43Z</time>
      </trkpt>
      <trkpt lat="47.37022" lon="1.15251">
        <ele>126.9</ele>
        <time>2020-07-03T09:39:44Z</time>
      </trkpt>
      <trkpt lat="47.37019" lon="1.15251">
        <ele>126.9</ele>
        <time>2020-07-03T09:39:45Z</time>
      </trkpt>
      <trkpt lat="47.37014" lon="1.15249">
        <ele>126.9</ele>
        <time>2020-07-03T09:39:46Z</time>
      </trkpt>
      <trkpt lat="47.37011" lon="1.15249">
        <ele>126.9</ele>
        <time>2020-07-03T09:39:47Z</time>
      </trkpt>
      <trkpt lat="47.37005" lon="1.15247">
        <ele>127</ele>
        <time>2020-07-03T09:39:48Z</time>
      </trkpt>
      <trkpt lat="47.37" lon="1.15245">
        <ele>127</ele>
        <time>2020-07-03T09:39:49Z</time>
      </trkpt>
      <trkpt lat="47.36996" lon="1.15243">
        <ele>127</ele>
        <time>2020-07-03T09:39:50Z</time>
      </trkpt>
      <trkpt lat="47.36992" lon="1.15243">
        <ele>127.1</ele>
        <time>2020-07-03T09:39:51Z</time>
      </trkpt>
      <trkpt lat="47.36988" lon="1.15242">
        <ele>127.1</ele>
        <time>2020-07-03T09:39:52Z</time>
      </trkpt>
      <trkpt lat="47.36984" lon="1.1524">
        <ele>127.1</ele>
        <time>2020-07-03T09:39:53Z</time>
      </trkpt>
      <trkpt lat="47.3698" lon="1.15238">
        <ele>127.1</ele>
        <time>2020-07-03T09:39:54Z</time>
      </trkpt>
      <trkpt lat="47.36974" lon="1.15236">
        <ele>127.1</ele>
        <time>2020-07-03T09:39:55Z</time>
      </trkpt>
      <trkpt lat="47.36968" lon="1.15232">
        <ele>127.1</ele>
        <time>2020-07-03T09:39:56Z</time>
      </trkpt>
      <trkpt lat="47.36962" lon="1.15229">
        <ele>127.1</ele>
        <time>2020-07-03T09:39:57Z</time>
      </trkpt>
      <trkpt lat="47.36958" lon="1.15227">
        <ele>127.1</ele>
        <time>2020-07-03T09:39:58Z</time>
      </trkpt>
      <trkpt lat="47.36952" lon="1.15225">
        <ele>127.1</ele>
        <time>2020-07-03T09:39:59Z</time>
      </trkpt>
      <trkpt lat="47.36948" lon="1.15223">
        <ele>127.1</ele>
        <time>2020-07-03T09:40:00Z</time>
      </trkpt>
      <trkpt lat="47.36944" lon="1.1522">
        <ele>127.1</ele>
        <time>2020-07-03T09:40:01Z</time>
      </trkpt>
      <trkpt lat="47.3694" lon="1.15217">
        <ele>127.2</ele>
        <time>2020-07-03T09:40:02Z</time>
      </trkpt>
      <trkpt lat="47.36936" lon="1.15216">
        <ele>127.2</ele>
        <time>2020-07-03T09:40:03Z</time>
      </trkpt>
      <trkpt lat="47.36931" lon="1.15213">
        <ele>127.3</ele>
        <time>2020-07-03T09:40:04Z</time>
      </trkpt>
      <trkpt lat="47.36925" lon="1.15211">
        <ele>127.4</ele>
        <time>2020-07-03T09:40:05Z</time>
      </trkpt>
      <trkpt lat="47.36921" lon="1.1521">
        <ele>127.4</ele>
        <time>2020-07-03T09:40:06Z</time>
      </trkpt>
      <trkpt lat="47.36917" lon="1.15207">
        <ele>127.5</ele>
        <time>2020-07-03T09:40:07Z</time>
      </trkpt>
      <trkpt lat="47.36912" lon="1.15205">
        <ele>127.6</ele>
        <time>2020-07-03T09:40:08Z</time>
      </trkpt>
      <trkpt lat="47.36907" lon="1.15202">
        <ele>127.7</ele>
        <time>2020-07-03T09:40:09Z</time>
      </trkpt>
      <trkpt lat="47.36901" lon="1.15202">
        <ele>127.7</ele>
        <time>2020-07-03T09:40:10Z</time>
      </trkpt>
      <trkpt lat="47.36898" lon="1.15203">
        <ele>127.7</ele>
        <time>2020-07-03T09:40:11Z</time>
      </trkpt>
      <trkpt lat="47.36893" lon="1.15202">
        <ele>127.7</ele>
        <time>2020-07-03T09:40:12Z</time>
      </trkpt>
      <trkpt lat="47.36888" lon="1.15201">
        <ele>127.8</ele>
        <time>2020-07-03T09:40:13Z</time>
      </trkpt>
      <trkpt lat="47.36882" lon="1.152">
        <ele>127.9</ele>
        <time>2020-07-03T09:40:14Z</time>
      </trkpt>
      <trkpt lat="47.36877" lon="1.152">
        <ele>128</ele>
        <time>2020-07-03T09:40:15Z</time>
      </trkpt>
      <trkpt lat="47.36871" lon="1.152">
        <ele>128.1</ele>
        <time>2020-07-03T09:40:16Z</time>
      </trkpt>
      <trkpt lat="47.36867" lon="1.15199">
        <ele>128.3</ele>
        <time>2020-07-03T09:40:17Z</time>
      </trkpt>
      <trkpt lat="47.36863" lon="1.15199">
        <ele>128.4</ele>
        <time>2020-07-03T09:40:18Z</time>
      </trkpt>
      <trkpt lat="47.36858" lon="1.15199">
        <ele>128.6</ele>
        <time>2020-07-03T09:40:19Z</time>
      </trkpt>
      <trkpt lat="47.36855" lon="1.15199">
        <ele>128.7</ele>
        <time>2020-07-03T09:40:20Z</time>
      </trkpt>
      <trkpt lat="47.3685" lon="1.15199">
        <ele>128.9</ele>
        <time>2020-07-03T09:40:21Z</time>
      </trkpt>
      <trkpt lat="47.36845" lon="1.15199">
        <ele>129.1</ele>
        <time>2020-07-03T09:40:22Z</time>
      </trkpt>
      <trkpt lat="47.36841" lon="1.15198">
        <ele>129.2</ele>
        <time>2020-07-03T09:40:23Z</time>
      </trkpt>
      <trkpt lat="47.36837" lon="1.15198">
        <ele>129.3</ele>
        <time>2020-07-03T09:40:24Z</time>
      </trkpt>
      <trkpt lat="47.36832" lon="1.15198">
        <ele>129.5</ele>
        <time>2020-07-03T09:40:25Z</time>
      </trkpt>
      <trkpt lat="47.36827" lon="1.15197">
        <ele>129.6</ele>
        <time>2020-07-03T09:40:26Z</time>
      </trkpt>
      <trkpt lat="47.36822" lon="1.15196">
        <ele>129.7</ele>
        <time>2020-07-03T09:40:27Z</time>
      </trkpt>
      <trkpt lat="47.36817" lon="1.15195">
        <ele>129.8</ele>
        <time>2020-07-03T09:40:28Z</time>
      </trkpt>
      <trkpt lat="47.36813" lon="1.15194">
        <ele>129.9</ele>
        <time>2020-07-03T09:40:29Z</time>
      </trkpt>
      <trkpt lat="47.36808" lon="1.15193">
        <ele>130</ele>
        <time>2020-07-03T09:40:30Z</time>
      </trkpt>
      <trkpt lat="47.36803" lon="1.15193">
        <ele>130.1</ele>
        <time>2020-07-03T09:40:31Z</time>
      </trkpt>
      <trkpt lat="47.36797" lon="1.15191">
        <ele>130.1</ele>
        <time>2020-07-03T09:40:32Z</time>
      </trkpt>
      <trkpt lat="47.3679" lon="1.15189">
        <ele>130.1</ele>
        <time>2020-07-03T09:40:33Z</time>
      </trkpt>
      <trkpt lat="47.36786" lon="1.15188">
        <ele>130.1</ele>
        <time>2020-07-03T09:40:34Z</time>
      </trkpt>
      <trkpt lat="47.36783" lon="1.15187">
        <ele>130.1</ele>
        <time>2020-07-03T09:40:35Z</time>
      </trkpt>
      <trkpt lat="47.36779" lon="1.15185">
        <ele>130.1</ele>
        <time>2020-07-03T09:40:36Z</time>
      </trkpt>
      <trkpt lat="47.36775" lon="1.15184">
        <ele>130.1</ele>
        <time>2020-07-03T09:40:37Z</time>
      </trkpt>
      <trkpt lat="47.36771" lon="1.15184">
        <ele>130.2</ele>
        <time>2020-07-03T09:40:38Z</time>
      </trkpt>
      <trkpt lat="47.36765" lon="1.15182">
        <ele>130.3</ele>
        <time>2020-07-03T09:40:39Z</time>
      </trkpt>
      <trkpt lat="47.3676" lon="1.15179">
        <ele>130.4</ele>
        <time>2020-07-03T09:40:40Z</time>
      </trkpt>
      <trkpt lat="47.36753" lon="1.15176">
        <ele>130.6</ele>
        <time>2020-07-03T09:40:41Z</time>
      </trkpt>
      <trkpt lat="47.36748" lon="1.15174">
        <ele>130.7</ele>
        <time>2020-07-03T09:40:42Z</time>
      </trkpt>
      <trkpt lat="47.36741" lon="1.15172">
        <ele>130.9</ele>
        <time>2020-07-03T09:40:43Z</time>
      </trkpt>
      <trkpt lat="47.36737" lon="1.15169">
        <ele>131</ele>
        <time>2020-07-03T09:40:44Z</time>
      </trkpt>
      <trkpt lat="47.36731" lon="1.15165">
        <ele>131.1</ele>
        <time>2020-07-03T09:40:45Z</time>
      </trkpt>
      <trkpt lat="47.36727" lon="1.1516">
        <ele>131.2</ele>
        <time>2020-07-03T09:40:46Z</time>
      </trkpt>
      <trkpt lat="47.36722" lon="1.15156">
        <ele>131.3</ele>
        <time>2020-07-03T09:40:47Z</time>
      </trkpt>
      <trkpt lat="47.36718" lon="1.15152">
        <ele>131.3</ele>
        <time>2020-07-03T09:40:48Z</time>
      </trkpt>
      <trkpt lat="47.36715" lon="1.15148">
        <ele>131.4</ele>
        <time>2020-07-03T09:40:49Z</time>
      </trkpt>
      <trkpt lat="47.3671" lon="1.15143">
        <ele>131.4</ele>
        <time>2020-07-03T09:40:50Z</time>
      </trkpt>
      <trkpt lat="47.36706" lon="1.15139">
        <ele>131.4</ele>
        <time>2020-07-03T09:40:51Z</time>
      </trkpt>
      <trkpt lat="47.36701" lon="1.15135">
        <ele>131.5</ele>
        <time>2020-07-03T09:40:52Z</time>
      </trkpt>
      <trkpt lat="47.36697" lon="1.1513">
        <ele>131.5</ele>
        <time>2020-07-03T09:40:53Z</time>
      </trkpt>
      <trkpt lat="47.36693" lon="1.15125">
        <ele>131.5</ele>
        <time>2020-07-03T09:40:54Z</time>
      </trkpt>
      <trkpt lat="47.36689" lon="1.15121">
        <ele>131.5</ele>
        <time>2020-07-03T09:40:55Z</time>
      </trkpt>
      <trkpt lat="47.36685" lon="1.15116">
        <ele>131.5</ele>
        <time>2020-07-03T09:40:56Z</time>
      </trkpt>
      <trkpt lat="47.36681" lon="1.15112">
        <ele>131.6</ele>
        <time>2020-07-03T09:40:57Z</time>
      </trkpt>
      <trkpt lat="47.36677" lon="1.15106">
        <ele>131.6</ele>
        <time>2020-07-03T09:40:58Z</time>
      </trkpt>
      <trkpt lat="47.36674" lon="1.151">
        <ele>131.6</ele>
        <time>2020-07-03T09:40:59Z</time>
      </trkpt>
      <trkpt lat="47.36671" lon="1.15095">
        <ele>131.7</ele>
        <time>2020-07-03T09:41:00Z</time>
      </trkpt>
      <trkpt lat="47.36667" lon="1.1509">
        <ele>131.7</ele>
        <time>2020-07-03T09:41:01Z</time>
      </trkpt>
      <trkpt lat="47.36663" lon="1.15085">
        <ele>131.7</ele>
        <time>2020-07-03T09:41:02Z</time>
      </trkpt>
      <trkpt lat="47.36659" lon="1.1508">
        <ele>131.8</ele>
        <time>2020-07-03T09:41:03Z</time>
      </trkpt>
      <trkpt lat="47.36657" lon="1.15077">
        <ele>131.8</ele>
        <time>2020-07-03T09:41:04Z</time>
      </trkpt>
      <trkpt lat="47.36654" lon="1.15072">
        <ele>131.8</ele>
        <time>2020-07-03T09:41:05Z</time>
      </trkpt>
      <trkpt lat="47.3665" lon="1.15066">
        <ele>131.9</ele>
        <time>2020-07-03T09:41:06Z</time>
      </trkpt>
      <trkpt lat="47.36646" lon="1.15062">
        <ele>131.9</ele>
        <time>2020-07-03T09:41:07Z</time>
      </trkpt>
      <trkpt lat="47.36641" lon="1.15056">
        <ele>131.9</ele>
        <time>2020-07-03T09:41:08Z</time>
      </trkpt>
      <trkpt lat="47.36637" lon="1.15052">
        <ele>131.9</ele>
        <time>2020-07-03T09:41:09Z</time>
      </trkpt>
      <trkpt lat="47.36635" lon="1.1505">
        <ele>131.9</ele>
        <time>2020-07-03T09:41:10Z</time>
      </trkpt>
      <trkpt lat="47.36631" lon="1.15045">
        <ele>131.9</ele>
        <time>2020-07-03T09:41:11Z</time>
      </trkpt>
      <trkpt lat="47.36627" lon="1.15041">
        <ele>131.9</ele>
        <time>2020-07-03T09:41:12Z</time>
      </trkpt>
      <trkpt lat="47.36624" lon="1.15036">
        <ele>131.9</ele>
        <time>2020-07-03T09:41:13Z</time>
      </trkpt>
      <trkpt lat="47.36619" lon="1.15032">
        <ele>132</ele>
        <time>2020-07-03T09:41:14Z</time>
      </trkpt>
      <trkpt lat="47.36614" lon="1.15027">
        <ele>132</ele>
        <time>2020-07-03T09:41:15Z</time>
      </trkpt>
      <trkpt lat="47.3661" lon="1.15021">
        <ele>132</ele>
        <time>2020-07-03T09:41:16Z</time>
      </trkpt>
      <trkpt lat="47.36606" lon="1.15017">
        <ele>132</ele>
        <time>2020-07-03T09:41:17Z</time>
      </trkpt>
      <trkpt lat="47.36602" lon="1.15012">
        <ele>132</ele>
        <time>2020-07-03T09:41:18Z</time>
      </trkpt>
      <trkpt lat="47.36598" lon="1.15007">
        <ele>132</ele>
        <time>2020-07-03T09:41:19Z</time>
      </trkpt>
      <trkpt lat="47.36594" lon="1.15003">
        <ele>132</ele>
        <time>2020-07-03T09:41:20Z</time>
      </trkpt>
      <trkpt lat="47.36591" lon="1.14998">
        <ele>132</ele>
        <time>2020-07-03T09:41:21Z</time>
      </trkpt>
      <trkpt lat="47.36587" lon="1.14994">
        <ele>132.1</ele>
        <time>2020-07-03T09:41:22Z</time>
      </trkpt>
      <trkpt lat="47.36583" lon="1.14989">
        <ele>132.1</ele>
        <time>2020-07-03T09:41:23Z</time>
      </trkpt>
      <trkpt lat="47.36578" lon="1.14984">
        <ele>132.1</ele>
        <time>2020-07-03T09:41:24Z</time>
      </trkpt>
      <trkpt lat="47.36573" lon="1.14979">
        <ele>132.2</ele>
        <time>2020-07-03T09:41:25Z</time>
      </trkpt>
      <trkpt lat="47.36569" lon="1.14975">
        <ele>132.2</ele>
        <time>2020-07-03T09:41:26Z</time>
      </trkpt>
      <trkpt lat="47.36565" lon="1.14971">
        <ele>132.1</ele>
        <time>2020-07-03T09:41:27Z</time>
      </trkpt>
      <trkpt lat="47.36561" lon="1.14968">
        <ele>132.1</ele>
        <time>2020-07-03T09:41:28Z</time>
      </trkpt>
      <trkpt lat="47.36556" lon="1.14964">
        <ele>132.1</ele>
        <time>2020-07-03T09:41:29Z</time>
      </trkpt>
      <trkpt lat="47.36552" lon="1.1496">
        <ele>132.1</ele>
        <time>2020-07-03T09:41:30Z</time>
      </trkpt>
      <trkpt lat="47.36547" lon="1.14955">
        <ele>132.1</ele>
        <time>2020-07-03T09:41:31Z</time>
      </trkpt>
      <trkpt lat="47.36542" lon="1.14951">
        <ele>132.1</ele>
        <time>2020-07-03T09:41:32Z</time>
      </trkpt>
      <trkpt lat="47.36538" lon="1.14947">
        <ele>132.1</ele>
        <time>2020-07-03T09:41:33Z</time>
      </trkpt>
      <trkpt lat="47.36533" lon="1.14943">
        <ele>132.1</ele>
        <time>2020-07-03T09:41:34Z</time>
      </trkpt>
      <trkpt lat="47.36529" lon="1.1494">
        <ele>132</ele>
        <time>2020-07-03T09:41:35Z</time>
      </trkpt>
      <trkpt lat="47.36524" lon="1.14936">
        <ele>132</ele>
        <time>2020-07-03T09:41:36Z</time>
      </trkpt>
      <trkpt lat="47.3652" lon="1.14932">
        <ele>132</ele>
        <time>2020-07-03T09:41:37Z</time>
      </trkpt>
      <trkpt lat="47.36515" lon="1.14929">
        <ele>132</ele>
        <time>2020-07-03T09:41:38Z</time>
      </trkpt>
      <trkpt lat="47.3651" lon="1.14926">
        <ele>132</ele>
        <time>2020-07-03T09:41:39Z</time>
      </trkpt>
      <trkpt lat="47.36504" lon="1.14925">
        <ele>132</ele>
        <time>2020-07-03T09:41:40Z</time>
      </trkpt>
      <trkpt lat="47.36498" lon="1.14925">
        <ele>132</ele>
        <time>2020-07-03T09:41:41Z</time>
      </trkpt>
      <trkpt lat="47.36492" lon="1.14925">
        <ele>132</ele>
        <time>2020-07-03T09:41:42Z</time>
      </trkpt>
      <trkpt lat="47.36487" lon="1.14925">
        <ele>132</ele>
        <time>2020-07-03T09:41:43Z</time>
      </trkpt>
      <trkpt lat="47.36481" lon="1.14926">
        <ele>132</ele>
        <time>2020-07-03T09:41:44Z</time>
      </trkpt>
      <trkpt lat="47.36475" lon="1.14928">
        <ele>131.9</ele>
        <time>2020-07-03T09:41:45Z</time>
      </trkpt>
      <trkpt lat="47.36469" lon="1.14929">
        <ele>131.9</ele>
        <time>2020-07-03T09:41:46Z</time>
      </trkpt>
      <trkpt lat="47.36464" lon="1.14929">
        <ele>131.8</ele>
        <time>2020-07-03T09:41:47Z</time>
      </trkpt>
      <trkpt lat="47.36458" lon="1.1493">
        <ele>131.8</ele>
        <time>2020-07-03T09:41:48Z</time>
      </trkpt>
      <trkpt lat="47.36452" lon="1.1493">
        <ele>131.8</ele>
        <time>2020-07-03T09:41:49Z</time>
      </trkpt>
      <trkpt lat="47.36445" lon="1.14932">
        <ele>131.8</ele>
        <time>2020-07-03T09:41:50Z</time>
      </trkpt>
      <trkpt lat="47.36439" lon="1.14933">
        <ele>131.9</ele>
        <time>2020-07-03T09:41:51Z</time>
      </trkpt>
      <trkpt lat="47.36434" lon="1.14935">
        <ele>131.9</ele>
        <time>2020-07-03T09:41:52Z</time>
      </trkpt>
      <trkpt lat="47.36428" lon="1.14936">
        <ele>131.9</ele>
        <time>2020-07-03T09:41:53Z</time>
      </trkpt>
      <trkpt lat="47.36422" lon="1.14937">
        <ele>132</ele>
        <time>2020-07-03T09:41:54Z</time>
      </trkpt>
      <trkpt lat="47.36416" lon="1.14937">
        <ele>132</ele>
        <time>2020-07-03T09:41:55Z</time>
      </trkpt>
      <trkpt lat="47.36411" lon="1.14938">
        <ele>132.1</ele>
        <time>2020-07-03T09:41:56Z</time>
      </trkpt>
      <trkpt lat="47.36405" lon="1.14939">
        <ele>132.1</ele>
        <time>2020-07-03T09:41:57Z</time>
      </trkpt>
      <trkpt lat="47.36399" lon="1.1494">
        <ele>132.2</ele>
        <time>2020-07-03T09:41:58Z</time>
      </trkpt>
      <trkpt lat="47.36393" lon="1.14941">
        <ele>132.2</ele>
        <time>2020-07-03T09:41:59Z</time>
      </trkpt>
      <trkpt lat="47.36388" lon="1.14942">
        <ele>132.3</ele>
        <time>2020-07-03T09:42:00Z</time>
      </trkpt>
      <trkpt lat="47.36382" lon="1.14942">
        <ele>132.4</ele>
        <time>2020-07-03T09:42:01Z</time>
      </trkpt>
      <trkpt lat="47.36378" lon="1.14943">
        <ele>132.4</ele>
        <time>2020-07-03T09:42:02Z</time>
      </trkpt>
      <trkpt lat="47.36373" lon="1.14944">
        <ele>132.5</ele>
        <time>2020-07-03T09:42:03Z</time>
      </trkpt>
      <trkpt lat="47.36369" lon="1.14945">
        <ele>132.5</ele>
        <time>2020-07-03T09:42:04Z</time>
      </trkpt>
      <trkpt lat="47.36364" lon="1.14944">
        <ele>132.6</ele>
        <time>2020-07-03T09:42:05Z</time>
      </trkpt>
      <trkpt lat="47.36358" lon="1.14945">
        <ele>132.6</ele>
        <time>2020-07-03T09:42:06Z</time>
      </trkpt>
      <trkpt lat="47.36351" lon="1.14947">
        <ele>132.7</ele>
        <time>2020-07-03T09:42:07Z</time>
      </trkpt>
      <trkpt lat="47.36345" lon="1.14948">
        <ele>132.8</ele>
        <time>2020-07-03T09:42:08Z</time>
      </trkpt>
      <trkpt lat="47.3634" lon="1.1495">
        <ele>132.9</ele>
        <time>2020-07-03T09:42:09Z</time>
      </trkpt>
      <trkpt lat="47.36336" lon="1.14951">
        <ele>133</ele>
        <time>2020-07-03T09:42:10Z</time>
      </trkpt>
      <trkpt lat="47.36332" lon="1.14952">
        <ele>133</ele>
        <time>2020-07-03T09:42:11Z</time>
      </trkpt>
      <trkpt lat="47.36326" lon="1.14952">
        <ele>133.1</ele>
        <time>2020-07-03T09:42:12Z</time>
      </trkpt>
      <trkpt lat="47.36321" lon="1.14952">
        <ele>133.2</ele>
        <time>2020-07-03T09:42:13Z</time>
      </trkpt>
      <trkpt lat="47.36316" lon="1.14953">
        <ele>133.3</ele>
        <time>2020-07-03T09:42:14Z</time>
      </trkpt>
      <trkpt lat="47.36311" lon="1.14953">
        <ele>133.4</ele>
        <time>2020-07-03T09:42:15Z</time>
      </trkpt>
      <trkpt lat="47.36306" lon="1.14955">
        <ele>133.4</ele>
        <time>2020-07-03T09:42:16Z</time>
      </trkpt>
      <trkpt lat="47.36301" lon="1.14956">
        <ele>133.5</ele>
        <time>2020-07-03T09:42:17Z</time>
      </trkpt>
      <trkpt lat="47.36296" lon="1.14956">
        <ele>133.6</ele>
        <time>2020-07-03T09:42:18Z</time>
      </trkpt>
      <trkpt lat="47.3629" lon="1.14957">
        <ele>133.7</ele>
        <time>2020-07-03T09:42:19Z</time>
      </trkpt>
      <trkpt lat="47.36286" lon="1.14958">
        <ele>133.8</ele>
        <time>2020-07-03T09:42:20Z</time>
      </trkpt>
      <trkpt lat="47.36279" lon="1.14956">
        <ele>133.9</ele>
        <time>2020-07-03T09:42:21Z</time>
      </trkpt>
      <trkpt lat="47.36272" lon="1.14956">
        <ele>134</ele>
        <time>2020-07-03T09:42:22Z</time>
      </trkpt>
      <trkpt lat="47.36268" lon="1.14955">
        <ele>134.1</ele>
        <time>2020-07-03T09:42:23Z</time>
      </trkpt>
      <trkpt lat="47.36262" lon="1.14953">
        <ele>134.2</ele>
        <time>2020-07-03T09:42:24Z</time>
      </trkpt>
      <trkpt lat="47.36257" lon="1.14952">
        <ele>134.2</ele>
        <time>2020-07-03T09:42:25Z</time>
      </trkpt>
      <trkpt lat="47.36252" lon="1.1495">
        <ele>134.4</ele>
        <time>2020-07-03T09:42:26Z</time>
      </trkpt>
      <trkpt lat="47.36246" lon="1.14948">
        <ele>134.5</ele>
        <time>2020-07-03T09:42:27Z</time>
      </trkpt>
      <trkpt lat="47.36242" lon="1.14946">
        <ele>134.6</ele>
        <time>2020-07-03T09:42:28Z</time>
      </trkpt>
      <trkpt lat="47.36237" lon="1.14945">
        <ele>134.7</ele>
        <time>2020-07-03T09:42:29Z</time>
      </trkpt>
      <trkpt lat="47.36231" lon="1.14941">
        <ele>134.8</ele>
        <time>2020-07-03T09:42:30Z</time>
      </trkpt>
      <trkpt lat="47.36227" lon="1.1494">
        <ele>134.9</ele>
        <time>2020-07-03T09:42:31Z</time>
      </trkpt>
      <trkpt lat="47.36222" lon="1.14937">
        <ele>135</ele>
        <time>2020-07-03T09:42:32Z</time>
      </trkpt>
      <trkpt lat="47.36217" lon="1.14935">
        <ele>135</ele>
        <time>2020-07-03T09:42:33Z</time>
      </trkpt>
      <trkpt lat="47.36212" lon="1.14933">
        <ele>135.1</ele>
        <time>2020-07-03T09:42:34Z</time>
      </trkpt>
      <trkpt lat="47.36207" lon="1.14929">
        <ele>135.2</ele>
        <time>2020-07-03T09:42:35Z</time>
      </trkpt>
      <trkpt lat="47.36203" lon="1.14928">
        <ele>135.2</ele>
        <time>2020-07-03T09:42:36Z</time>
      </trkpt>
      <trkpt lat="47.36198" lon="1.14925">
        <ele>135.3</ele>
        <time>2020-07-03T09:42:37Z</time>
      </trkpt>
      <trkpt lat="47.36194" lon="1.14924">
        <ele>135.3</ele>
        <time>2020-07-03T09:42:38Z</time>
      </trkpt>
      <trkpt lat="47.3619" lon="1.14922">
        <ele>135.4</ele>
        <time>2020-07-03T09:42:39Z</time>
      </trkpt>
      <trkpt lat="47.36185" lon="1.1492">
        <ele>135.5</ele>
        <time>2020-07-03T09:42:40Z</time>
      </trkpt>
      <trkpt lat="47.36179" lon="1.14918">
        <ele>135.5</ele>
        <time>2020-07-03T09:42:41Z</time>
      </trkpt>
      <trkpt lat="47.36174" lon="1.14917">
        <ele>135.6</ele>
        <time>2020-07-03T09:42:42Z</time>
      </trkpt>
      <trkpt lat="47.36172" lon="1.14916">
        <ele>135.7</ele>
        <time>2020-07-03T09:42:43Z</time>
      </trkpt>
      <trkpt lat="47.36166" lon="1.14913">
        <ele>135.7</ele>
        <time>2020-07-03T09:42:44Z</time>
      </trkpt>
      <trkpt lat="47.3616" lon="1.1491">
        <ele>135.7</ele>
        <time>2020-07-03T09:42:45Z</time>
      </trkpt>
      <trkpt lat="47.36155" lon="1.14908">
        <ele>135.7</ele>
        <time>2020-07-03T09:42:46Z</time>
      </trkpt>
      <trkpt lat="47.3615" lon="1.14906">
        <ele>135.7</ele>
        <time>2020-07-03T09:42:47Z</time>
      </trkpt>
      <trkpt lat="47.36145" lon="1.14904">
        <ele>135.6</ele>
        <time>2020-07-03T09:42:48Z</time>
      </trkpt>
      <trkpt lat="47.3614" lon="1.149">
        <ele>135.6</ele>
        <time>2020-07-03T09:42:49Z</time>
      </trkpt>
      <trkpt lat="47.36133" lon="1.14897">
        <ele>135.5</ele>
        <time>2020-07-03T09:42:50Z</time>
      </trkpt>
      <trkpt lat="47.36129" lon="1.14895">
        <ele>135.5</ele>
        <time>2020-07-03T09:42:51Z</time>
      </trkpt>
      <trkpt lat="47.36125" lon="1.14894">
        <ele>135.5</ele>
        <time>2020-07-03T09:42:52Z</time>
      </trkpt>
      <trkpt lat="47.36118" lon="1.14891">
        <ele>135.5</ele>
        <time>2020-07-03T09:42:53Z</time>
      </trkpt>
      <trkpt lat="47.36114" lon="1.14891">
        <ele>135.5</ele>
        <time>2020-07-03T09:42:54Z</time>
      </trkpt>
      <trkpt lat="47.36107" lon="1.14889">
        <ele>135.5</ele>
        <time>2020-07-03T09:42:55Z</time>
      </trkpt>
      <trkpt lat="47.36101" lon="1.14887">
        <ele>135.5</ele>
        <time>2020-07-03T09:42:56Z</time>
      </trkpt>
      <trkpt lat="47.36095" lon="1.14885">
        <ele>135.5</ele>
        <time>2020-07-03T09:42:57Z</time>
      </trkpt>
      <trkpt lat="47.36089" lon="1.14884">
        <ele>135.5</ele>
        <time>2020-07-03T09:42:58Z</time>
      </trkpt>
      <trkpt lat="47.36083" lon="1.14881">
        <ele>135.5</ele>
        <time>2020-07-03T09:42:59Z</time>
      </trkpt>
      <trkpt lat="47.36079" lon="1.1488">
        <ele>135.5</ele>
        <time>2020-07-03T09:43:00Z</time>
      </trkpt>
      <trkpt lat="47.36074" lon="1.14878">
        <ele>135.5</ele>
        <time>2020-07-03T09:43:01Z</time>
      </trkpt>
      <trkpt lat="47.36068" lon="1.14876">
        <ele>135.5</ele>
        <time>2020-07-03T09:43:02Z</time>
      </trkpt>
      <trkpt lat="47.36061" lon="1.14874">
        <ele>135.5</ele>
        <time>2020-07-03T09:43:03Z</time>
      </trkpt>
      <trkpt lat="47.36056" lon="1.14872">
        <ele>135.5</ele>
        <time>2020-07-03T09:43:04Z</time>
      </trkpt>
      <trkpt lat="47.3605" lon="1.1487">
        <ele>135.5</ele>
        <time>2020-07-03T09:43:05Z</time>
      </trkpt>
      <trkpt lat="47.36044" lon="1.14867">
        <ele>135.5</ele>
        <time>2020-07-03T09:43:06Z</time>
      </trkpt>
      <trkpt lat="47.36038" lon="1.14865">
        <ele>135.5</ele>
        <time>2020-07-03T09:43:07Z</time>
      </trkpt>
      <trkpt lat="47.36031" lon="1.14862">
        <ele>135.5</ele>
        <time>2020-07-03T09:43:08Z</time>
      </trkpt>
      <trkpt lat="47.36025" lon="1.1486">
        <ele>135.5</ele>
        <time>2020-07-03T09:43:09Z</time>
      </trkpt>
      <trkpt lat="47.36019" lon="1.14858">
        <ele>135.5</ele>
        <time>2020-07-03T09:43:10Z</time>
      </trkpt>
      <trkpt lat="47.36014" lon="1.14857">
        <ele>135.5</ele>
        <time>2020-07-03T09:43:11Z</time>
      </trkpt>
      <trkpt lat="47.36008" lon="1.14856">
        <ele>135.5</ele>
        <time>2020-07-03T09:43:12Z</time>
      </trkpt>
      <trkpt lat="47.36002" lon="1.14854">
        <ele>135.5</ele>
        <time>2020-07-03T09:43:13Z</time>
      </trkpt>
      <trkpt lat="47.35997" lon="1.14851">
        <ele>135.5</ele>
        <time>2020-07-03T09:43:14Z</time>
      </trkpt>
      <trkpt lat="47.35991" lon="1.14849">
        <ele>135.5</ele>
        <time>2020-07-03T09:43:15Z</time>
      </trkpt>
      <trkpt lat="47.35986" lon="1.14848">
        <ele>135.5</ele>
        <time>2020-07-03T09:43:16Z</time>
      </trkpt>
      <trkpt lat="47.35979" lon="1.14845">
        <ele>135.5</ele>
        <time>2020-07-03T09:43:17Z</time>
      </trkpt>
      <trkpt lat="47.35973" lon="1.14842">
        <ele>135.5</ele>
        <time>2020-07-03T09:43:18Z</time>
      </trkpt>
      <trkpt lat="47.35967" lon="1.14839">
        <ele>135.5</ele>
        <time>2020-07-03T09:43:19Z</time>
      </trkpt>
      <trkpt lat="47.3596" lon="1.14836">
        <ele>135.5</ele>
        <time>2020-07-03T09:43:20Z</time>
      </trkpt>
      <trkpt lat="47.35956" lon="1.14835">
        <ele>135.5</ele>
        <time>2020-07-03T09:43:21Z</time>
      </trkpt>
      <trkpt lat="47.35949" lon="1.14831">
        <ele>135.5</ele>
        <time>2020-07-03T09:43:22Z</time>
      </trkpt>
      <trkpt lat="47.35943" lon="1.14829">
        <ele>135.5</ele>
        <time>2020-07-03T09:43:23Z</time>
      </trkpt>
      <trkpt lat="47.35939" lon="1.14828">
        <ele>135.5</ele>
        <time>2020-07-03T09:43:24Z</time>
      </trkpt>
      <trkpt lat="47.35934" lon="1.14826">
        <ele>135.5</ele>
        <time>2020-07-03T09:43:25Z</time>
      </trkpt>
      <trkpt lat="47.35929" lon="1.14824">
        <ele>135.5</ele>
        <time>2020-07-03T09:43:26Z</time>
      </trkpt>
      <trkpt lat="47.35923" lon="1.14822">
        <ele>135.5</ele>
        <time>2020-07-03T09:43:27Z</time>
      </trkpt>
      <trkpt lat="47.35916" lon="1.14819">
        <ele>135.5</ele>
        <time>2020-07-03T09:43:28Z</time>
      </trkpt>
      <trkpt lat="47.3591" lon="1.14817">
        <ele>135.5</ele>
        <time>2020-07-03T09:43:29Z</time>
      </trkpt>
      <trkpt lat="47.35904" lon="1.14813">
        <ele>135.5</ele>
        <time>2020-07-03T09:43:30Z</time>
      </trkpt>
      <trkpt lat="47.35898" lon="1.1481">
        <ele>135.5</ele>
        <time>2020-07-03T09:43:31Z</time>
      </trkpt>
      <trkpt lat="47.35893" lon="1.14808">
        <ele>135.6</ele>
        <time>2020-07-03T09:43:32Z</time>
      </trkpt>
      <trkpt lat="47.35887" lon="1.14806">
        <ele>135.6</ele>
        <time>2020-07-03T09:43:33Z</time>
      </trkpt>
      <trkpt lat="47.35881" lon="1.14803">
        <ele>135.6</ele>
        <time>2020-07-03T09:43:34Z</time>
      </trkpt>
      <trkpt lat="47.35875" lon="1.148">
        <ele>135.7</ele>
        <time>2020-07-03T09:43:35Z</time>
      </trkpt>
      <trkpt lat="47.35869" lon="1.14797">
        <ele>135.7</ele>
        <time>2020-07-03T09:43:36Z</time>
      </trkpt>
      <trkpt lat="47.35862" lon="1.14795">
        <ele>135.8</ele>
        <time>2020-07-03T09:43:37Z</time>
      </trkpt>
      <trkpt lat="47.35855" lon="1.14793">
        <ele>135.8</ele>
        <time>2020-07-03T09:43:38Z</time>
      </trkpt>
      <trkpt lat="47.35849" lon="1.14791">
        <ele>135.9</ele>
        <time>2020-07-03T09:43:39Z</time>
      </trkpt>
      <trkpt lat="47.35843" lon="1.14788">
        <ele>135.9</ele>
        <time>2020-07-03T09:43:40Z</time>
      </trkpt>
      <trkpt lat="47.35838" lon="1.14786">
        <ele>135.8</ele>
        <time>2020-07-03T09:43:41Z</time>
      </trkpt>
      <trkpt lat="47.35832" lon="1.14783">
        <ele>135.8</ele>
        <time>2020-07-03T09:43:42Z</time>
      </trkpt>
      <trkpt lat="47.35827" lon="1.1478">
        <ele>135.8</ele>
        <time>2020-07-03T09:43:43Z</time>
      </trkpt>
      <trkpt lat="47.35821" lon="1.14777">
        <ele>135.8</ele>
        <time>2020-07-03T09:43:44Z</time>
      </trkpt>
      <trkpt lat="47.35815" lon="1.14774">
        <ele>135.8</ele>
        <time>2020-07-03T09:43:45Z</time>
      </trkpt>
      <trkpt lat="47.3581" lon="1.1477">
        <ele>135.8</ele>
        <time>2020-07-03T09:43:46Z</time>
      </trkpt>
      <trkpt lat="47.35804" lon="1.14767">
        <ele>135.8</ele>
        <time>2020-07-03T09:43:47Z</time>
      </trkpt>
      <trkpt lat="47.358" lon="1.14763">
        <ele>135.8</ele>
        <time>2020-07-03T09:43:48Z</time>
      </trkpt>
      <trkpt lat="47.35795" lon="1.14759">
        <ele>135.8</ele>
        <time>2020-07-03T09:43:49Z</time>
      </trkpt>
      <trkpt lat="47.35792" lon="1.14755">
        <ele>135.8</ele>
        <time>2020-07-03T09:43:50Z</time>
      </trkpt>
      <trkpt lat="47.35786" lon="1.1475">
        <ele>135.7</ele>
        <time>2020-07-03T09:43:51Z</time>
      </trkpt>
      <trkpt lat="47.35782" lon="1.14746">
        <ele>135.7</ele>
        <time>2020-07-03T09:43:52Z</time>
      </trkpt>
      <trkpt lat="47.35776" lon="1.14742">
        <ele>135.6</ele>
        <time>2020-07-03T09:43:53Z</time>
      </trkpt>
      <trkpt lat="47.35772" lon="1.14738">
        <ele>135.6</ele>
        <time>2020-07-03T09:43:54Z</time>
      </trkpt>
      <trkpt lat="47.35767" lon="1.14734">
        <ele>135.6</ele>
        <time>2020-07-03T09:43:55Z</time>
      </trkpt>
      <trkpt lat="47.35762" lon="1.1473">
        <ele>135.5</ele>
        <time>2020-07-03T09:43:56Z</time>
      </trkpt>
      <trkpt lat="47.35757" lon="1.14726">
        <ele>135.5</ele>
        <time>2020-07-03T09:43:57Z</time>
      </trkpt>
      <trkpt lat="47.35752" lon="1.14721">
        <ele>135.5</ele>
        <time>2020-07-03T09:43:58Z</time>
      </trkpt>
      <trkpt lat="47.35745" lon="1.14717">
        <ele>135.5</ele>
        <time>2020-07-03T09:43:59Z</time>
      </trkpt>
      <trkpt lat="47.35738" lon="1.14709">
        <ele>135.5</ele>
        <time>2020-07-03T09:44:00Z</time>
      </trkpt>
      <trkpt lat="47.35734" lon="1.14706">
        <ele>135.5</ele>
        <time>2020-07-03T09:44:01Z</time>
      </trkpt>
      <trkpt lat="47.35729" lon="1.14702">
        <ele>135.5</ele>
        <time>2020-07-03T09:44:02Z</time>
      </trkpt>
      <trkpt lat="47.35724" lon="1.14698">
        <ele>135.5</ele>
        <time>2020-07-03T09:44:03Z</time>
      </trkpt>
      <trkpt lat="47.35718" lon="1.14694">
        <ele>135.4</ele>
        <time>2020-07-03T09:44:04Z</time>
      </trkpt>
      <trkpt lat="47.35713" lon="1.1469">
        <ele>135.4</ele>
        <time>2020-07-03T09:44:05Z</time>
      </trkpt>
      <trkpt lat="47.35708" lon="1.14686">
        <ele>135.4</ele>
        <time>2020-07-03T09:44:06Z</time>
      </trkpt>
      <trkpt lat="47.35703" lon="1.14683">
        <ele>135.4</ele>
        <time>2020-07-03T09:44:07Z</time>
      </trkpt>
      <trkpt lat="47.35698" lon="1.1468">
        <ele>135.5</ele>
        <time>2020-07-03T09:44:08Z</time>
      </trkpt>
      <trkpt lat="47.35693" lon="1.14676">
        <ele>135.5</ele>
        <time>2020-07-03T09:44:09Z</time>
      </trkpt>
      <trkpt lat="47.35687" lon="1.14671">
        <ele>135.5</ele>
        <time>2020-07-03T09:44:10Z</time>
      </trkpt>
      <trkpt lat="47.3568" lon="1.14669">
        <ele>135.5</ele>
        <time>2020-07-03T09:44:11Z</time>
      </trkpt>
      <trkpt lat="47.35675" lon="1.14667">
        <ele>135.5</ele>
        <time>2020-07-03T09:44:12Z</time>
      </trkpt>
      <trkpt lat="47.35669" lon="1.14664">
        <ele>135.5</ele>
        <time>2020-07-03T09:44:13Z</time>
      </trkpt>
      <trkpt lat="47.35664" lon="1.14661">
        <ele>135.5</ele>
        <time>2020-07-03T09:44:14Z</time>
      </trkpt>
      <trkpt lat="47.35659" lon="1.14659">
        <ele>135.6</ele>
        <time>2020-07-03T09:44:15Z</time>
      </trkpt>
      <trkpt lat="47.35653" lon="1.14657">
        <ele>135.6</ele>
        <time>2020-07-03T09:44:16Z</time>
      </trkpt>
      <trkpt lat="47.35647" lon="1.14655">
        <ele>135.6</ele>
        <time>2020-07-03T09:44:17Z</time>
      </trkpt>
      <trkpt lat="47.35641" lon="1.14653">
        <ele>135.6</ele>
        <time>2020-07-03T09:44:18Z</time>
      </trkpt>
      <trkpt lat="47.35636" lon="1.14652">
        <ele>135.6</ele>
        <time>2020-07-03T09:44:19Z</time>
      </trkpt>
      <trkpt lat="47.35631" lon="1.1465">
        <ele>135.6</ele>
        <time>2020-07-03T09:44:20Z</time>
      </trkpt>
      <trkpt lat="47.35626" lon="1.14648">
        <ele>135.6</ele>
        <time>2020-07-03T09:44:21Z</time>
      </trkpt>
      <trkpt lat="47.3562" lon="1.14646">
        <ele>135.5</ele>
        <time>2020-07-03T09:44:22Z</time>
      </trkpt>
      <trkpt lat="47.35614" lon="1.14644">
        <ele>135.5</ele>
        <time>2020-07-03T09:44:23Z</time>
      </trkpt>
      <trkpt lat="47.35608" lon="1.14642">
        <ele>135.5</ele>
        <time>2020-07-03T09:44:24Z</time>
      </trkpt>
      <trkpt lat="47.35602" lon="1.1464">
        <ele>135.4</ele>
        <time>2020-07-03T09:44:25Z</time>
      </trkpt>
      <trkpt lat="47.35598" lon="1.1464">
        <ele>135.4</ele>
        <time>2020-07-03T09:44:26Z</time>
      </trkpt>
      <trkpt lat="47.35592" lon="1.14641">
        <ele>135.4</ele>
        <time>2020-07-03T09:44:27Z</time>
      </trkpt>
      <trkpt lat="47.35587" lon="1.14643">
        <ele>135.3</ele>
        <time>2020-07-03T09:44:28Z</time>
      </trkpt>
      <trkpt lat="47.35582" lon="1.14644">
        <ele>135.3</ele>
        <time>2020-07-03T09:44:29Z</time>
      </trkpt>
      <trkpt lat="47.35577" lon="1.14647">
        <ele>135.2</ele>
        <time>2020-07-03T09:44:30Z</time>
      </trkpt>
      <trkpt lat="47.35571" lon="1.14649">
        <ele>135.1</ele>
        <time>2020-07-03T09:44:31Z</time>
      </trkpt>
      <trkpt lat="47.35566" lon="1.1465">
        <ele>135</ele>
        <time>2020-07-03T09:44:32Z</time>
      </trkpt>
      <trkpt lat="47.3556" lon="1.14652">
        <ele>135</ele>
        <time>2020-07-03T09:44:33Z</time>
      </trkpt>
      <trkpt lat="47.35554" lon="1.14653">
        <ele>134.9</ele>
        <time>2020-07-03T09:44:34Z</time>
      </trkpt>
      <trkpt lat="47.35548" lon="1.14655">
        <ele>134.9</ele>
        <time>2020-07-03T09:44:35Z</time>
      </trkpt>
      <trkpt lat="47.35542" lon="1.14657">
        <ele>134.8</ele>
        <time>2020-07-03T09:44:36Z</time>
      </trkpt>
      <trkpt lat="47.35536" lon="1.14658">
        <ele>134.8</ele>
        <time>2020-07-03T09:44:37Z</time>
      </trkpt>
      <trkpt lat="47.35529" lon="1.1466">
        <ele>134.7</ele>
        <time>2020-07-03T09:44:38Z</time>
      </trkpt>
      <trkpt lat="47.35523" lon="1.14663">
        <ele>134.7</ele>
        <time>2020-07-03T09:44:39Z</time>
      </trkpt>
      <trkpt lat="47.35517" lon="1.14665">
        <ele>134.6</ele>
        <time>2020-07-03T09:44:40Z</time>
      </trkpt>
      <trkpt lat="47.35511" lon="1.14668">
        <ele>134.5</ele>
        <time>2020-07-03T09:44:41Z</time>
      </trkpt>
      <trkpt lat="47.35505" lon="1.14671">
        <ele>134.4</ele>
        <time>2020-07-03T09:44:42Z</time>
      </trkpt>
      <trkpt lat="47.35499" lon="1.14673">
        <ele>134.3</ele>
        <time>2020-07-03T09:44:43Z</time>
      </trkpt>
      <trkpt lat="47.35494" lon="1.14676">
        <ele>134.2</ele>
        <time>2020-07-03T09:44:44Z</time>
      </trkpt>
      <trkpt lat="47.35487" lon="1.14679">
        <ele>134.1</ele>
        <time>2020-07-03T09:44:45Z</time>
      </trkpt>
      <trkpt lat="47.35481" lon="1.14681">
        <ele>134</ele>
        <time>2020-07-03T09:44:46Z</time>
      </trkpt>
      <trkpt lat="47.35475" lon="1.14683">
        <ele>133.9</ele>
        <time>2020-07-03T09:44:47Z</time>
      </trkpt>
      <trkpt lat="47.35468" lon="1.14684">
        <ele>133.9</ele>
        <time>2020-07-03T09:44:48Z</time>
      </trkpt>
      <trkpt lat="47.35462" lon="1.14684">
        <ele>133.8</ele>
        <time>2020-07-03T09:44:49Z</time>
      </trkpt>
      <trkpt lat="47.35456" lon="1.14684">
        <ele>133.7</ele>
        <time>2020-07-03T09:44:50Z</time>
      </trkpt>
      <trkpt lat="47.35449" lon="1.14684">
        <ele>133.6</ele>
        <time>2020-07-03T09:44:51Z</time>
      </trkpt>
      <trkpt lat="47.35443" lon="1.14682">
        <ele>133.6</ele>
        <time>2020-07-03T09:44:52Z</time>
      </trkpt>
      <trkpt lat="47.35438" lon="1.14681">
        <ele>133.5</ele>
        <time>2020-07-03T09:44:53Z</time>
      </trkpt>
      <trkpt lat="47.35432" lon="1.14679">
        <ele>133.5</ele>
        <time>2020-07-03T09:44:54Z</time>
      </trkpt>
      <trkpt lat="47.35426" lon="1.14678">
        <ele>133.4</ele>
        <time>2020-07-03T09:44:55Z</time>
      </trkpt>
      <trkpt lat="47.3542" lon="1.14677">
        <ele>133.4</ele>
        <time>2020-07-03T09:44:56Z</time>
      </trkpt>
      <trkpt lat="47.35414" lon="1.14675">
        <ele>133.3</ele>
        <time>2020-07-03T09:44:57Z</time>
      </trkpt>
      <trkpt lat="47.35408" lon="1.14674">
        <ele>133.3</ele>
        <time>2020-07-03T09:44:58Z</time>
      </trkpt>
      <trkpt lat="47.35402" lon="1.14673">
        <ele>133.2</ele>
        <time>2020-07-03T09:44:59Z</time>
      </trkpt>
      <trkpt lat="47.35397" lon="1.14671">
        <ele>133.1</ele>
        <time>2020-07-03T09:45:00Z</time>
      </trkpt>
      <trkpt lat="47.35392" lon="1.1467">
        <ele>133.1</ele>
        <time>2020-07-03T09:45:01Z</time>
      </trkpt>
      <trkpt lat="47.35387" lon="1.1467">
        <ele>133</ele>
        <time>2020-07-03T09:45:02Z</time>
      </trkpt>
      <trkpt lat="47.3538" lon="1.1467">
        <ele>133</ele>
        <time>2020-07-03T09:45:03Z</time>
      </trkpt>
      <trkpt lat="47.35374" lon="1.14669">
        <ele>132.9</ele>
        <time>2020-07-03T09:45:04Z</time>
      </trkpt>
      <trkpt lat="47.35368" lon="1.14669">
        <ele>132.9</ele>
        <time>2020-07-03T09:45:05Z</time>
      </trkpt>
      <trkpt lat="47.35362" lon="1.14668">
        <ele>133</ele>
        <time>2020-07-03T09:45:06Z</time>
      </trkpt>
      <trkpt lat="47.35356" lon="1.14667">
        <ele>133</ele>
        <time>2020-07-03T09:45:07Z</time>
      </trkpt>
      <trkpt lat="47.3535" lon="1.14666">
        <ele>133.1</ele>
        <time>2020-07-03T09:45:08Z</time>
      </trkpt>
      <trkpt lat="47.35344" lon="1.14665">
        <ele>133.2</ele>
        <time>2020-07-03T09:45:09Z</time>
      </trkpt>
      <trkpt lat="47.3534" lon="1.14665">
        <ele>133.3</ele>
        <time>2020-07-03T09:45:10Z</time>
      </trkpt>
      <trkpt lat="47.35334" lon="1.14661">
        <ele>133.6</ele>
        <time>2020-07-03T09:45:11Z</time>
      </trkpt>
      <trkpt lat="47.35329" lon="1.14656">
        <ele>133.8</ele>
        <time>2020-07-03T09:45:12Z</time>
      </trkpt>
      <trkpt lat="47.35329" lon="1.14648">
        <ele>133.8</ele>
        <time>2020-07-03T09:45:13Z</time>
      </trkpt>
      <trkpt lat="47.35331" lon="1.14641">
        <ele>133.7</ele>
        <time>2020-07-03T09:45:14Z</time>
      </trkpt>
      <trkpt lat="47.35336" lon="1.14635">
        <ele>133.5</ele>
        <time>2020-07-03T09:45:15Z</time>
      </trkpt>
      <trkpt lat="47.35341" lon="1.14629">
        <ele>133.4</ele>
        <time>2020-07-03T09:45:16Z</time>
      </trkpt>
      <trkpt lat="47.35345" lon="1.14623">
        <ele>133.3</ele>
        <time>2020-07-03T09:45:17Z</time>
      </trkpt>
      <trkpt lat="47.35349" lon="1.14618">
        <ele>133.3</ele>
        <time>2020-07-03T09:45:18Z</time>
      </trkpt>
      <trkpt lat="47.35352" lon="1.14612">
        <ele>133.2</ele>
        <time>2020-07-03T09:45:19Z</time>
      </trkpt>
      <trkpt lat="47.35356" lon="1.14606">
        <ele>133.2</ele>
        <time>2020-07-03T09:45:20Z</time>
      </trkpt>
      <trkpt lat="47.35359" lon="1.146">
        <ele>133.1</ele>
        <time>2020-07-03T09:45:21Z</time>
      </trkpt>
      <trkpt lat="47.35363" lon="1.14594">
        <ele>133</ele>
        <time>2020-07-03T09:45:22Z</time>
      </trkpt>
      <trkpt lat="47.35365" lon="1.14589">
        <ele>133</ele>
        <time>2020-07-03T09:45:23Z</time>
      </trkpt>
      <trkpt lat="47.35368" lon="1.14584">
        <ele>132.9</ele>
        <time>2020-07-03T09:45:24Z</time>
      </trkpt>
      <trkpt lat="47.3537" lon="1.1458">
        <ele>132.9</ele>
        <time>2020-07-03T09:45:25Z</time>
      </trkpt>
      <trkpt lat="47.35372" lon="1.14576">
        <ele>132.9</ele>
        <time>2020-07-03T09:45:26Z</time>
      </trkpt>
      <trkpt lat="47.35374" lon="1.14572">
        <ele>132.8</ele>
        <time>2020-07-03T09:45:27Z</time>
      </trkpt>
      <trkpt lat="47.35375" lon="1.14567">
        <ele>132.8</ele>
        <time>2020-07-03T09:45:28Z</time>
      </trkpt>
      <trkpt lat="47.35373" lon="1.1456">
        <ele>132.7</ele>
        <time>2020-07-03T09:45:29Z</time>
      </trkpt>
      <trkpt lat="47.35368" lon="1.14556">
        <ele>132.3</ele>
        <time>2020-07-03T09:45:30Z</time>
      </trkpt>
      <trkpt lat="47.35363" lon="1.1455">
        <ele>132</ele>
        <time>2020-07-03T09:45:31Z</time>
      </trkpt>
      <trkpt lat="47.35358" lon="1.14544">
        <ele>131.7</ele>
        <time>2020-07-03T09:45:32Z</time>
      </trkpt>
      <trkpt lat="47.35354" lon="1.14538">
        <ele>131.5</ele>
        <time>2020-07-03T09:45:33Z</time>
      </trkpt>
      <trkpt lat="47.3535" lon="1.14532">
        <ele>131.2</ele>
        <time>2020-07-03T09:45:34Z</time>
      </trkpt>
      <trkpt lat="47.35345" lon="1.14525">
        <ele>131</ele>
        <time>2020-07-03T09:45:35Z</time>
      </trkpt>
      <trkpt lat="47.3534" lon="1.14521">
        <ele>130.8</ele>
        <time>2020-07-03T09:45:36Z</time>
      </trkpt>
      <trkpt lat="47.35335" lon="1.14516">
        <ele>130.5</ele>
        <time>2020-07-03T09:45:37Z</time>
      </trkpt>
      <trkpt lat="47.35329" lon="1.14509">
        <ele>130.4</ele>
        <time>2020-07-03T09:45:38Z</time>
      </trkpt>
      <trkpt lat="47.35325" lon="1.14502">
        <ele>130.2</ele>
        <time>2020-07-03T09:45:39Z</time>
      </trkpt>
      <trkpt lat="47.3532" lon="1.14495">
        <ele>130</ele>
        <time>2020-07-03T09:45:40Z</time>
      </trkpt>
      <trkpt lat="47.35316" lon="1.1449">
        <ele>129.8</ele>
        <time>2020-07-03T09:45:41Z</time>
      </trkpt>
      <trkpt lat="47.35311" lon="1.14484">
        <ele>129.6</ele>
        <time>2020-07-03T09:45:42Z</time>
      </trkpt>
      <trkpt lat="47.35306" lon="1.14478">
        <ele>129.4</ele>
        <time>2020-07-03T09:45:43Z</time>
      </trkpt>
      <trkpt lat="47.35301" lon="1.14473">
        <ele>129.2</ele>
        <time>2020-07-03T09:45:44Z</time>
      </trkpt>
      <trkpt lat="47.35296" lon="1.14468">
        <ele>129</ele>
        <time>2020-07-03T09:45:45Z</time>
      </trkpt>
      <trkpt lat="47.35291" lon="1.14462">
        <ele>128.8</ele>
        <time>2020-07-03T09:45:46Z</time>
      </trkpt>
      <trkpt lat="47.35285" lon="1.14457">
        <ele>128.6</ele>
        <time>2020-07-03T09:45:47Z</time>
      </trkpt>
      <trkpt lat="47.35279" lon="1.14451">
        <ele>128.4</ele>
        <time>2020-07-03T09:45:48Z</time>
      </trkpt>
      <trkpt lat="47.35274" lon="1.14446">
        <ele>128.3</ele>
        <time>2020-07-03T09:45:49Z</time>
      </trkpt>
      <trkpt lat="47.35268" lon="1.14441">
        <ele>128.1</ele>
        <time>2020-07-03T09:45:50Z</time>
      </trkpt>
      <trkpt lat="47.35262" lon="1.14437">
        <ele>128</ele>
        <time>2020-07-03T09:45:51Z</time>
      </trkpt>
      <trkpt lat="47.35257" lon="1.14433">
        <ele>127.8</ele>
        <time>2020-07-03T09:45:52Z</time>
      </trkpt>
      <trkpt lat="47.35251" lon="1.14429">
        <ele>127.7</ele>
        <time>2020-07-03T09:45:53Z</time>
      </trkpt>
      <trkpt lat="47.35246" lon="1.14426">
        <ele>127.5</ele>
        <time>2020-07-03T09:45:54Z</time>
      </trkpt>
      <trkpt lat="47.35241" lon="1.14422">
        <ele>127.4</ele>
        <time>2020-07-03T09:45:55Z</time>
      </trkpt>
      <trkpt lat="47.35235" lon="1.14419">
        <ele>127.2</ele>
        <time>2020-07-03T09:45:56Z</time>
      </trkpt>
      <trkpt lat="47.35229" lon="1.14417">
        <ele>127</ele>
        <time>2020-07-03T09:45:57Z</time>
      </trkpt>
      <trkpt lat="47.35222" lon="1.14413">
        <ele>126.9</ele>
        <time>2020-07-03T09:45:58Z</time>
      </trkpt>
      <trkpt lat="47.35216" lon="1.14411">
        <ele>126.7</ele>
        <time>2020-07-03T09:45:59Z</time>
      </trkpt>
      <trkpt lat="47.35211" lon="1.14406">
        <ele>126.6</ele>
        <time>2020-07-03T09:46:00Z</time>
      </trkpt>
      <trkpt lat="47.35204" lon="1.14401">
        <ele>126.4</ele>
        <time>2020-07-03T09:46:01Z</time>
      </trkpt>
      <trkpt lat="47.35199" lon="1.14397">
        <ele>126.2</ele>
        <time>2020-07-03T09:46:02Z</time>
      </trkpt>
      <trkpt lat="47.35194" lon="1.14392">
        <ele>125.9</ele>
        <time>2020-07-03T09:46:03Z</time>
      </trkpt>
      <trkpt lat="47.35188" lon="1.14388">
        <ele>125.7</ele>
        <time>2020-07-03T09:46:04Z</time>
      </trkpt>
      <trkpt lat="47.35181" lon="1.14383">
        <ele>125.4</ele>
        <time>2020-07-03T09:46:05Z</time>
      </trkpt>
      <trkpt lat="47.35174" lon="1.14378">
        <ele>125.1</ele>
        <time>2020-07-03T09:46:06Z</time>
      </trkpt>
      <trkpt lat="47.35167" lon="1.14373">
        <ele>124.9</ele>
        <time>2020-07-03T09:46:07Z</time>
      </trkpt>
      <trkpt lat="47.3516" lon="1.14369">
        <ele>124.7</ele>
        <time>2020-07-03T09:46:08Z</time>
      </trkpt>
      <trkpt lat="47.35154" lon="1.14364">
        <ele>124.4</ele>
        <time>2020-07-03T09:46:09Z</time>
      </trkpt>
      <trkpt lat="47.35148" lon="1.14357">
        <ele>124.1</ele>
        <time>2020-07-03T09:46:10Z</time>
      </trkpt>
      <trkpt lat="47.35142" lon="1.1435">
        <ele>123.8</ele>
        <time>2020-07-03T09:46:11Z</time>
      </trkpt>
      <trkpt lat="47.35136" lon="1.14341">
        <ele>123.4</ele>
        <time>2020-07-03T09:46:12Z</time>
      </trkpt>
      <trkpt lat="47.35131" lon="1.14332">
        <ele>123</ele>
        <time>2020-07-03T09:46:13Z</time>
      </trkpt>
      <trkpt lat="47.35126" lon="1.14323">
        <ele>122.6</ele>
        <time>2020-07-03T09:46:14Z</time>
      </trkpt>
      <trkpt lat="47.35122" lon="1.14312">
        <ele>122.2</ele>
        <time>2020-07-03T09:46:15Z</time>
      </trkpt>
      <trkpt lat="47.35119" lon="1.143">
        <ele>121.8</ele>
        <time>2020-07-03T09:46:16Z</time>
      </trkpt>
      <trkpt lat="47.35115" lon="1.14288">
        <ele>121.5</ele>
        <time>2020-07-03T09:46:17Z</time>
      </trkpt>
      <trkpt lat="47.35111" lon="1.14277">
        <ele>121</ele>
        <time>2020-07-03T09:46:18Z</time>
      </trkpt>
      <trkpt lat="47.35107" lon="1.14264">
        <ele>120.5</ele>
        <time>2020-07-03T09:46:19Z</time>
      </trkpt>
      <trkpt lat="47.35103" lon="1.14252">
        <ele>119.9</ele>
        <time>2020-07-03T09:46:20Z</time>
      </trkpt>
      <trkpt lat="47.35099" lon="1.1424">
        <ele>119.4</ele>
        <time>2020-07-03T09:46:21Z</time>
      </trkpt>
      <trkpt lat="47.35095" lon="1.14228">
        <ele>119</ele>
        <time>2020-07-03T09:46:22Z</time>
      </trkpt>
      <trkpt lat="47.3509" lon="1.14216">
        <ele>118.5</ele>
        <time>2020-07-03T09:46:23Z</time>
      </trkpt>
      <trkpt lat="47.35085" lon="1.14205">
        <ele>118.1</ele>
        <time>2020-07-03T09:46:24Z</time>
      </trkpt>
      <trkpt lat="47.35079" lon="1.14194">
        <ele>117.7</ele>
        <time>2020-07-03T09:46:25Z</time>
      </trkpt>
      <trkpt lat="47.35073" lon="1.14183">
        <ele>117.2</ele>
        <time>2020-07-03T09:46:26Z</time>
      </trkpt>
      <trkpt lat="47.35067" lon="1.14173">
        <ele>116.7</ele>
        <time>2020-07-03T09:46:27Z</time>
      </trkpt>
      <trkpt lat="47.35059" lon="1.14164">
        <ele>116.1</ele>
        <time>2020-07-03T09:46:28Z</time>
      </trkpt>
      <trkpt lat="47.35051" lon="1.14155">
        <ele>115.3</ele>
        <time>2020-07-03T09:46:29Z</time>
      </trkpt>
      <trkpt lat="47.35043" lon="1.14147">
        <ele>114.6</ele>
        <time>2020-07-03T09:46:30Z</time>
      </trkpt>
      <trkpt lat="47.35035" lon="1.14138">
        <ele>113.8</ele>
        <time>2020-07-03T09:46:31Z</time>
      </trkpt>
      <trkpt lat="47.35027" lon="1.14129">
        <ele>113.2</ele>
        <time>2020-07-03T09:46:32Z</time>
      </trkpt>
      <trkpt lat="47.35018" lon="1.14121">
        <ele>112.5</ele>
        <time>2020-07-03T09:46:33Z</time>
      </trkpt>
      <trkpt lat="47.3501" lon="1.14111">
        <ele>111.7</ele>
        <time>2020-07-03T09:46:34Z</time>
      </trkpt>
      <trkpt lat="47.35003" lon="1.14103">
        <ele>111.2</ele>
        <time>2020-07-03T09:46:35Z</time>
      </trkpt>
      <trkpt lat="47.34995" lon="1.14094">
        <ele>110.7</ele>
        <time>2020-07-03T09:46:36Z</time>
      </trkpt>
      <trkpt lat="47.34987" lon="1.14086">
        <ele>110.2</ele>
        <time>2020-07-03T09:46:37Z</time>
      </trkpt>
      <trkpt lat="47.34979" lon="1.14078">
        <ele>109.8</ele>
        <time>2020-07-03T09:46:38Z</time>
      </trkpt>
      <trkpt lat="47.34971" lon="1.1407">
        <ele>109.4</ele>
        <time>2020-07-03T09:46:39Z</time>
      </trkpt>
      <trkpt lat="47.34964" lon="1.14063">
        <ele>109</ele>
        <time>2020-07-03T09:46:40Z</time>
      </trkpt>
      <trkpt lat="47.34958" lon="1.14057">
        <ele>108.7</ele>
        <time>2020-07-03T09:46:41Z</time>
      </trkpt>
      <trkpt lat="47.34953" lon="1.1405">
        <ele>108.4</ele>
        <time>2020-07-03T09:46:42Z</time>
      </trkpt>
      <trkpt lat="47.34948" lon="1.14044">
        <ele>108.1</ele>
        <time>2020-07-03T09:46:43Z</time>
      </trkpt>
      <trkpt lat="47.34943" lon="1.14039">
        <ele>107.9</ele>
        <time>2020-07-03T09:46:44Z</time>
      </trkpt>
      <trkpt lat="47.34938" lon="1.14035">
        <ele>107.7</ele>
        <time>2020-07-03T09:46:45Z</time>
      </trkpt>
      <trkpt lat="47.34933" lon="1.1403">
        <ele>107.6</ele>
        <time>2020-07-03T09:46:46Z</time>
      </trkpt>
      <trkpt lat="47.34928" lon="1.14024">
        <ele>107.4</ele>
        <time>2020-07-03T09:46:47Z</time>
      </trkpt>
      <trkpt lat="47.34923" lon="1.14018">
        <ele>107.1</ele>
        <time>2020-07-03T09:46:48Z</time>
      </trkpt>
      <trkpt lat="47.34919" lon="1.14014">
        <ele>106.9</ele>
        <time>2020-07-03T09:46:49Z</time>
      </trkpt>
      <trkpt lat="47.34916" lon="1.1401">
        <ele>106.7</ele>
        <time>2020-07-03T09:46:50Z</time>
      </trkpt>
      <trkpt lat="47.34912" lon="1.14006">
        <ele>106.5</ele>
        <time>2020-07-03T09:46:51Z</time>
      </trkpt>
      <trkpt lat="47.34909" lon="1.14001">
        <ele>106.3</ele>
        <time>2020-07-03T09:46:52Z</time>
      </trkpt>
      <trkpt lat="47.34906" lon="1.13994">
        <ele>106.1</ele>
        <time>2020-07-03T09:46:53Z</time>
      </trkpt>
      <trkpt lat="47.34902" lon="1.13991">
        <ele>105.9</ele>
        <time>2020-07-03T09:46:54Z</time>
      </trkpt>
      <trkpt lat="47.34897" lon="1.13988">
        <ele>105.6</ele>
        <time>2020-07-03T09:46:55Z</time>
      </trkpt>
      <trkpt lat="47.34892" lon="1.13986">
        <ele>105.4</ele>
        <time>2020-07-03T09:46:56Z</time>
      </trkpt>
      <trkpt lat="47.34887" lon="1.13986">
        <ele>105.2</ele>
        <time>2020-07-03T09:46:57Z</time>
      </trkpt>
      <trkpt lat="47.34882" lon="1.13987">
        <ele>105</ele>
        <time>2020-07-03T09:46:58Z</time>
      </trkpt>
      <trkpt lat="47.34876" lon="1.13987">
        <ele>104.8</ele>
        <time>2020-07-03T09:46:59Z</time>
      </trkpt>
      <trkpt lat="47.34871" lon="1.13987">
        <ele>104.5</ele>
        <time>2020-07-03T09:47:00Z</time>
      </trkpt>
      <trkpt lat="47.34865" lon="1.13989">
        <ele>104.3</ele>
        <time>2020-07-03T09:47:01Z</time>
      </trkpt>
      <trkpt lat="47.34859" lon="1.13989">
        <ele>104.1</ele>
        <time>2020-07-03T09:47:02Z</time>
      </trkpt>
      <trkpt lat="47.34854" lon="1.1399">
        <ele>103.9</ele>
        <time>2020-07-03T09:47:03Z</time>
      </trkpt>
      <trkpt lat="47.34848" lon="1.13991">
        <ele>103.8</ele>
        <time>2020-07-03T09:47:04Z</time>
      </trkpt>
      <trkpt lat="47.34842" lon="1.13993">
        <ele>103.6</ele>
        <time>2020-07-03T09:47:05Z</time>
      </trkpt>
      <trkpt lat="47.34837" lon="1.13995">
        <ele>103.5</ele>
        <time>2020-07-03T09:47:06Z</time>
      </trkpt>
      <trkpt lat="47.34832" lon="1.13997">
        <ele>103.4</ele>
        <time>2020-07-03T09:47:07Z</time>
      </trkpt>
      <trkpt lat="47.34827" lon="1.13998">
        <ele>103.2</ele>
        <time>2020-07-03T09:47:08Z</time>
      </trkpt>
      <trkpt lat="47.34822" lon="1.13999">
        <ele>103</ele>
        <time>2020-07-03T09:47:09Z</time>
      </trkpt>
      <trkpt lat="47.34815" lon="1.14001">
        <ele>102.8</ele>
        <time>2020-07-03T09:47:10Z</time>
      </trkpt>
      <trkpt lat="47.34809" lon="1.14002">
        <ele>102.5</ele>
        <time>2020-07-03T09:47:11Z</time>
      </trkpt>
      <trkpt lat="47.34802" lon="1.14002">
        <ele>102.3</ele>
        <time>2020-07-03T09:47:12Z</time>
      </trkpt>
      <trkpt lat="47.34794" lon="1.14002">
        <ele>102</ele>
        <time>2020-07-03T09:47:13Z</time>
      </trkpt>
      <trkpt lat="47.34785" lon="1.14002">
        <ele>101.7</ele>
        <time>2020-07-03T09:47:14Z</time>
      </trkpt>
      <trkpt lat="47.34776" lon="1.14003">
        <ele>101.3</ele>
        <time>2020-07-03T09:47:15Z</time>
      </trkpt>
      <trkpt lat="47.34767" lon="1.14004">
        <ele>101</ele>
        <time>2020-07-03T09:47:16Z</time>
      </trkpt>
      <trkpt lat="47.34758" lon="1.14004">
        <ele>100.6</ele>
        <time>2020-07-03T09:47:17Z</time>
      </trkpt>
      <trkpt lat="47.34749" lon="1.14005">
        <ele>100.3</ele>
        <time>2020-07-03T09:47:18Z</time>
      </trkpt>
      <trkpt lat="47.34741" lon="1.14006">
        <ele>99.9</ele>
        <time>2020-07-03T09:47:19Z</time>
      </trkpt>
      <trkpt lat="47.34733" lon="1.14007">
        <ele>99.6</ele>
        <time>2020-07-03T09:47:20Z</time>
      </trkpt>
      <trkpt lat="47.34724" lon="1.14008">
        <ele>99.3</ele>
        <time>2020-07-03T09:47:21Z</time>
      </trkpt>
      <trkpt lat="47.34715" lon="1.14008">
        <ele>99</ele>
        <time>2020-07-03T09:47:22Z</time>
      </trkpt>
      <trkpt lat="47.34706" lon="1.14007">
        <ele>98.7</ele>
        <time>2020-07-03T09:47:23Z</time>
      </trkpt>
      <trkpt lat="47.34698" lon="1.14006">
        <ele>98.5</ele>
        <time>2020-07-03T09:47:24Z</time>
      </trkpt>
      <trkpt lat="47.3469" lon="1.14004">
        <ele>98.3</ele>
        <time>2020-07-03T09:47:25Z</time>
      </trkpt>
      <trkpt lat="47.34683" lon="1.14004">
        <ele>98.1</ele>
        <time>2020-07-03T09:47:26Z</time>
      </trkpt>
      <trkpt lat="47.34675" lon="1.14003">
        <ele>97.9</ele>
        <time>2020-07-03T09:47:27Z</time>
      </trkpt>
      <trkpt lat="47.34667" lon="1.14003">
        <ele>97.7</ele>
        <time>2020-07-03T09:47:28Z</time>
      </trkpt>
      <trkpt lat="47.34661" lon="1.14002">
        <ele>97.5</ele>
        <time>2020-07-03T09:47:29Z</time>
      </trkpt>
      <trkpt lat="47.34654" lon="1.14002">
        <ele>97.3</ele>
        <time>2020-07-03T09:47:30Z</time>
      </trkpt>
      <trkpt lat="47.34647" lon="1.14004">
        <ele>97.1</ele>
        <time>2020-07-03T09:47:31Z</time>
      </trkpt>
      <trkpt lat="47.3464" lon="1.14007">
        <ele>96.9</ele>
        <time>2020-07-03T09:47:32Z</time>
      </trkpt>
      <trkpt lat="47.34632" lon="1.14011">
        <ele>96.8</ele>
        <time>2020-07-03T09:47:33Z</time>
      </trkpt>
      <trkpt lat="47.34624" lon="1.14014">
        <ele>96.7</ele>
        <time>2020-07-03T09:47:34Z</time>
      </trkpt>
      <trkpt lat="47.34616" lon="1.14015">
        <ele>96.6</ele>
        <time>2020-07-03T09:47:35Z</time>
      </trkpt>
      <trkpt lat="47.34608" lon="1.14016">
        <ele>96.4</ele>
        <time>2020-07-03T09:47:36Z</time>
      </trkpt>
      <trkpt lat="47.34601" lon="1.14017">
        <ele>96.3</ele>
        <time>2020-07-03T09:47:37Z</time>
      </trkpt>
      <trkpt lat="47.34594" lon="1.14019">
        <ele>96.1</ele>
        <time>2020-07-03T09:47:38Z</time>
      </trkpt>
      <trkpt lat="47.34587" lon="1.1402">
        <ele>95.9</ele>
        <time>2020-07-03T09:47:39Z</time>
      </trkpt>
      <trkpt lat="47.34579" lon="1.1402">
        <ele>95.6</ele>
        <time>2020-07-03T09:47:40Z</time>
      </trkpt>
      <trkpt lat="47.34572" lon="1.14019">
        <ele>95.3</ele>
        <time>2020-07-03T09:47:41Z</time>
      </trkpt>
      <trkpt lat="47.34564" lon="1.14017">
        <ele>95</ele>
        <time>2020-07-03T09:47:42Z</time>
      </trkpt>
      <trkpt lat="47.34556" lon="1.14011">
        <ele>94.7</ele>
        <time>2020-07-03T09:47:43Z</time>
      </trkpt>
      <trkpt lat="47.34549" lon="1.14005">
        <ele>94.4</ele>
        <time>2020-07-03T09:47:44Z</time>
      </trkpt>
      <trkpt lat="47.34543" lon="1.13998">
        <ele>94.1</ele>
        <time>2020-07-03T09:47:45Z</time>
      </trkpt>
      <trkpt lat="47.34537" lon="1.13993">
        <ele>93.8</ele>
        <time>2020-07-03T09:47:46Z</time>
      </trkpt>
      <trkpt lat="47.34531" lon="1.13988">
        <ele>93.5</ele>
        <time>2020-07-03T09:47:47Z</time>
      </trkpt>
      <trkpt lat="47.34525" lon="1.13982">
        <ele>93.1</ele>
        <time>2020-07-03T09:47:48Z</time>
      </trkpt>
      <trkpt lat="47.34519" lon="1.13974">
        <ele>92.8</ele>
        <time>2020-07-03T09:47:49Z</time>
      </trkpt>
      <trkpt lat="47.34512" lon="1.13966">
        <ele>92.4</ele>
        <time>2020-07-03T09:47:50Z</time>
      </trkpt>
      <trkpt lat="47.34506" lon="1.13958">
        <ele>92</ele>
        <time>2020-07-03T09:47:51Z</time>
      </trkpt>
      <trkpt lat="47.34499" lon="1.1395">
        <ele>91.7</ele>
        <time>2020-07-03T09:47:52Z</time>
      </trkpt>
      <trkpt lat="47.34492" lon="1.13942">
        <ele>91.4</ele>
        <time>2020-07-03T09:47:53Z</time>
      </trkpt>
      <trkpt lat="47.34486" lon="1.13934">
        <ele>91.1</ele>
        <time>2020-07-03T09:47:54Z</time>
      </trkpt>
      <trkpt lat="47.34479" lon="1.13925">
        <ele>90.9</ele>
        <time>2020-07-03T09:47:55Z</time>
      </trkpt>
      <trkpt lat="47.34473" lon="1.13918">
        <ele>90.7</ele>
        <time>2020-07-03T09:47:56Z</time>
      </trkpt>
      <trkpt lat="47.34467" lon="1.13909">
        <ele>90.6</ele>
        <time>2020-07-03T09:47:57Z</time>
      </trkpt>
      <trkpt lat="47.34461" lon="1.13901">
        <ele>90.5</ele>
        <time>2020-07-03T09:47:58Z</time>
      </trkpt>
      <trkpt lat="47.34456" lon="1.13892">
        <ele>90.3</ele>
        <time>2020-07-03T09:47:59Z</time>
      </trkpt>
      <trkpt lat="47.3445" lon="1.13885">
        <ele>90.2</ele>
        <time>2020-07-03T09:48:00Z</time>
      </trkpt>
      <trkpt lat="47.34444" lon="1.13878">
        <ele>90</ele>
        <time>2020-07-03T09:48:01Z</time>
      </trkpt>
      <trkpt lat="47.34438" lon="1.13872">
        <ele>89.9</ele>
        <time>2020-07-03T09:48:02Z</time>
      </trkpt>
      <trkpt lat="47.34433" lon="1.13866">
        <ele>89.7</ele>
        <time>2020-07-03T09:48:03Z</time>
      </trkpt>
      <trkpt lat="47.34426" lon="1.1386">
        <ele>89.6</ele>
        <time>2020-07-03T09:48:04Z</time>
      </trkpt>
      <trkpt lat="47.3442" lon="1.13855">
        <ele>89.4</ele>
        <time>2020-07-03T09:48:05Z</time>
      </trkpt>
      <trkpt lat="47.34414" lon="1.13849">
        <ele>89.2</ele>
        <time>2020-07-03T09:48:06Z</time>
      </trkpt>
      <trkpt lat="47.34408" lon="1.13843">
        <ele>89</ele>
        <time>2020-07-03T09:48:07Z</time>
      </trkpt>
      <trkpt lat="47.34402" lon="1.13837">
        <ele>88.8</ele>
        <time>2020-07-03T09:48:08Z</time>
      </trkpt>
      <trkpt lat="47.34396" lon="1.13832">
        <ele>88.5</ele>
        <time>2020-07-03T09:48:09Z</time>
      </trkpt>
      <trkpt lat="47.3439" lon="1.13826">
        <ele>88.3</ele>
        <time>2020-07-03T09:48:10Z</time>
      </trkpt>
      <trkpt lat="47.34384" lon="1.13821">
        <ele>88.1</ele>
        <time>2020-07-03T09:48:11Z</time>
      </trkpt>
      <trkpt lat="47.34378" lon="1.13815">
        <ele>87.8</ele>
        <time>2020-07-03T09:48:12Z</time>
      </trkpt>
      <trkpt lat="47.34372" lon="1.1381">
        <ele>87.6</ele>
        <time>2020-07-03T09:48:13Z</time>
      </trkpt>
      <trkpt lat="47.34366" lon="1.13804">
        <ele>87.4</ele>
        <time>2020-07-03T09:48:14Z</time>
      </trkpt>
      <trkpt lat="47.34359" lon="1.13797">
        <ele>87.1</ele>
        <time>2020-07-03T09:48:15Z</time>
      </trkpt>
      <trkpt lat="47.34353" lon="1.13791">
        <ele>86.8</ele>
        <time>2020-07-03T09:48:16Z</time>
      </trkpt>
      <trkpt lat="47.34347" lon="1.13786">
        <ele>86.6</ele>
        <time>2020-07-03T09:48:17Z</time>
      </trkpt>
      <trkpt lat="47.34341" lon="1.1378">
        <ele>86.3</ele>
        <time>2020-07-03T09:48:18Z</time>
      </trkpt>
      <trkpt lat="47.34334" lon="1.13773">
        <ele>86.1</ele>
        <time>2020-07-03T09:48:19Z</time>
      </trkpt>
      <trkpt lat="47.34328" lon="1.13766">
        <ele>85.8</ele>
        <time>2020-07-03T09:48:20Z</time>
      </trkpt>
      <trkpt lat="47.34321" lon="1.1376">
        <ele>85.6</ele>
        <time>2020-07-03T09:48:21Z</time>
      </trkpt>
      <trkpt lat="47.34314" lon="1.13753">
        <ele>85.3</ele>
        <time>2020-07-03T09:48:22Z</time>
      </trkpt>
      <trkpt lat="47.34308" lon="1.13746">
        <ele>85.1</ele>
        <time>2020-07-03T09:48:23Z</time>
      </trkpt>
      <trkpt lat="47.34302" lon="1.13739">
        <ele>84.9</ele>
        <time>2020-07-03T09:48:24Z</time>
      </trkpt>
      <trkpt lat="47.34296" lon="1.13731">
        <ele>84.7</ele>
        <time>2020-07-03T09:48:25Z</time>
      </trkpt>
      <trkpt lat="47.34291" lon="1.13722">
        <ele>84.5</ele>
        <time>2020-07-03T09:48:26Z</time>
      </trkpt>
      <trkpt lat="47.34286" lon="1.13714">
        <ele>84.2</ele>
        <time>2020-07-03T09:48:27Z</time>
      </trkpt>
      <trkpt lat="47.34281" lon="1.13705">
        <ele>84</ele>
        <time>2020-07-03T09:48:28Z</time>
      </trkpt>
      <trkpt lat="47.34277" lon="1.13698">
        <ele>83.8</ele>
        <time>2020-07-03T09:48:29Z</time>
      </trkpt>
      <trkpt lat="47.34272" lon="1.13689">
        <ele>83.6</ele>
        <time>2020-07-03T09:48:30Z</time>
      </trkpt>
      <trkpt lat="47.34269" lon="1.1368">
        <ele>83.5</ele>
        <time>2020-07-03T09:48:31Z</time>
      </trkpt>
      <trkpt lat="47.34264" lon="1.13673">
        <ele>83.3</ele>
        <time>2020-07-03T09:48:32Z</time>
      </trkpt>
      <trkpt lat="47.3426" lon="1.13665">
        <ele>83.1</ele>
        <time>2020-07-03T09:48:33Z</time>
      </trkpt>
      <trkpt lat="47.34255" lon="1.13657">
        <ele>83</ele>
        <time>2020-07-03T09:48:34Z</time>
      </trkpt>
      <trkpt lat="47.34251" lon="1.13647">
        <ele>82.8</ele>
        <time>2020-07-03T09:48:35Z</time>
      </trkpt>
      <trkpt lat="47.34247" lon="1.1364">
        <ele>82.7</ele>
        <time>2020-07-03T09:48:36Z</time>
      </trkpt>
      <trkpt lat="47.34243" lon="1.13631">
        <ele>82.6</ele>
        <time>2020-07-03T09:48:37Z</time>
      </trkpt>
      <trkpt lat="47.3424" lon="1.13625">
        <ele>82.5</ele>
        <time>2020-07-03T09:48:38Z</time>
      </trkpt>
      <trkpt lat="47.34235" lon="1.13618">
        <ele>82.3</ele>
        <time>2020-07-03T09:48:39Z</time>
      </trkpt>
      <trkpt lat="47.3423" lon="1.13609">
        <ele>82.2</ele>
        <time>2020-07-03T09:48:40Z</time>
      </trkpt>
      <trkpt lat="47.34226" lon="1.13601">
        <ele>82</ele>
        <time>2020-07-03T09:48:41Z</time>
      </trkpt>
      <trkpt lat="47.34222" lon="1.13591">
        <ele>81.9</ele>
        <time>2020-07-03T09:48:42Z</time>
      </trkpt>
      <trkpt lat="47.3422" lon="1.13583">
        <ele>81.8</ele>
        <time>2020-07-03T09:48:43Z</time>
      </trkpt>
      <trkpt lat="47.34217" lon="1.13574">
        <ele>81.7</ele>
        <time>2020-07-03T09:48:44Z</time>
      </trkpt>
      <trkpt lat="47.34215" lon="1.13565">
        <ele>81.6</ele>
        <time>2020-07-03T09:48:45Z</time>
      </trkpt>
      <trkpt lat="47.34213" lon="1.13554">
        <ele>81.5</ele>
        <time>2020-07-03T09:48:46Z</time>
      </trkpt>
      <trkpt lat="47.34212" lon="1.13545">
        <ele>81.3</ele>
        <time>2020-07-03T09:48:47Z</time>
      </trkpt>
      <trkpt lat="47.3421" lon="1.13535">
        <ele>81.2</ele>
        <time>2020-07-03T09:48:48Z</time>
      </trkpt>
      <trkpt lat="47.34209" lon="1.13525">
        <ele>81.1</ele>
        <time>2020-07-03T09:48:49Z</time>
      </trkpt>
      <trkpt lat="47.34207" lon="1.13515">
        <ele>81</ele>
        <time>2020-07-03T09:48:50Z</time>
      </trkpt>
      <trkpt lat="47.34205" lon="1.13504">
        <ele>80.9</ele>
        <time>2020-07-03T09:48:51Z</time>
      </trkpt>
      <trkpt lat="47.34204" lon="1.13495">
        <ele>80.8</ele>
        <time>2020-07-03T09:48:52Z</time>
      </trkpt>
      <trkpt lat="47.34202" lon="1.13486">
        <ele>80.8</ele>
        <time>2020-07-03T09:48:53Z</time>
      </trkpt>
      <trkpt lat="47.342" lon="1.13478">
        <ele>80.7</ele>
        <time>2020-07-03T09:48:54Z</time>
      </trkpt>
      <trkpt lat="47.34198" lon="1.13469">
        <ele>80.6</ele>
        <time>2020-07-03T09:48:55Z</time>
      </trkpt>
      <trkpt lat="47.34196" lon="1.13461">
        <ele>80.6</ele>
        <time>2020-07-03T09:48:56Z</time>
      </trkpt>
      <trkpt lat="47.34194" lon="1.13453">
        <ele>80.5</ele>
        <time>2020-07-03T09:48:57Z</time>
      </trkpt>
      <trkpt lat="47.34192" lon="1.13446">
        <ele>80.4</ele>
        <time>2020-07-03T09:48:58Z</time>
      </trkpt>
      <trkpt lat="47.34189" lon="1.1344">
        <ele>80.3</ele>
        <time>2020-07-03T09:48:59Z</time>
      </trkpt>
      <trkpt lat="47.34186" lon="1.13432">
        <ele>80.2</ele>
        <time>2020-07-03T09:49:00Z</time>
      </trkpt>
      <trkpt lat="47.34183" lon="1.13424">
        <ele>80</ele>
        <time>2020-07-03T09:49:01Z</time>
      </trkpt>
      <trkpt lat="47.34181" lon="1.13416">
        <ele>79.8</ele>
        <time>2020-07-03T09:49:02Z</time>
      </trkpt>
      <trkpt lat="47.34177" lon="1.13409">
        <ele>79.6</ele>
        <time>2020-07-03T09:49:03Z</time>
      </trkpt>
      <trkpt lat="47.34174" lon="1.13402">
        <ele>79.4</ele>
        <time>2020-07-03T09:49:04Z</time>
      </trkpt>
      <trkpt lat="47.3417" lon="1.13395">
        <ele>79.2</ele>
        <time>2020-07-03T09:49:05Z</time>
      </trkpt>
      <trkpt lat="47.34166" lon="1.13387">
        <ele>79</ele>
        <time>2020-07-03T09:49:06Z</time>
      </trkpt>
      <trkpt lat="47.34164" lon="1.13378">
        <ele>78.8</ele>
        <time>2020-07-03T09:49:07Z</time>
      </trkpt>
      <trkpt lat="47.3416" lon="1.13371">
        <ele>78.6</ele>
        <time>2020-07-03T09:49:08Z</time>
      </trkpt>
      <trkpt lat="47.34155" lon="1.13365">
        <ele>78.4</ele>
        <time>2020-07-03T09:49:09Z</time>
      </trkpt>
      <trkpt lat="47.34151" lon="1.13357">
        <ele>78.2</ele>
        <time>2020-07-03T09:49:10Z</time>
      </trkpt>
      <trkpt lat="47.34147" lon="1.13349">
        <ele>78.1</ele>
        <time>2020-07-03T09:49:11Z</time>
      </trkpt>
      <trkpt lat="47.34143" lon="1.13342">
        <ele>77.9</ele>
        <time>2020-07-03T09:49:12Z</time>
      </trkpt>
      <trkpt lat="47.34139" lon="1.13336">
        <ele>77.8</ele>
        <time>2020-07-03T09:49:13Z</time>
      </trkpt>
      <trkpt lat="47.34134" lon="1.13331">
        <ele>77.6</ele>
        <time>2020-07-03T09:49:14Z</time>
      </trkpt>
      <trkpt lat="47.34128" lon="1.13326">
        <ele>77.5</ele>
        <time>2020-07-03T09:49:15Z</time>
      </trkpt>
      <trkpt lat="47.34122" lon="1.13321">
        <ele>77.3</ele>
        <time>2020-07-03T09:49:16Z</time>
      </trkpt>
      <trkpt lat="47.34117" lon="1.13316">
        <ele>77.1</ele>
        <time>2020-07-03T09:49:17Z</time>
      </trkpt>
      <trkpt lat="47.34112" lon="1.13312">
        <ele>76.9</ele>
        <time>2020-07-03T09:49:18Z</time>
      </trkpt>
      <trkpt lat="47.34106" lon="1.13307">
        <ele>76.8</ele>
        <time>2020-07-03T09:49:19Z</time>
      </trkpt>
      <trkpt lat="47.34101" lon="1.13303">
        <ele>76.6</ele>
        <time>2020-07-03T09:49:20Z</time>
      </trkpt>
      <trkpt lat="47.34095" lon="1.13299">
        <ele>76.4</ele>
        <time>2020-07-03T09:49:21Z</time>
      </trkpt>
      <trkpt lat="47.34089" lon="1.13294">
        <ele>76.3</ele>
        <time>2020-07-03T09:49:22Z</time>
      </trkpt>
      <trkpt lat="47.34084" lon="1.1329">
        <ele>76.2</ele>
        <time>2020-07-03T09:49:23Z</time>
      </trkpt>
      <trkpt lat="47.34079" lon="1.13286">
        <ele>76.1</ele>
        <time>2020-07-03T09:49:24Z</time>
      </trkpt>
      <trkpt lat="47.34074" lon="1.13282">
        <ele>76</ele>
        <time>2020-07-03T09:49:25Z</time>
      </trkpt>
      <trkpt lat="47.34069" lon="1.13278">
        <ele>75.9</ele>
        <time>2020-07-03T09:49:26Z</time>
      </trkpt>
      <trkpt lat="47.34063" lon="1.13274">
        <ele>75.9</ele>
        <time>2020-07-03T09:49:27Z</time>
      </trkpt>
      <trkpt lat="47.34058" lon="1.13269">
        <ele>75.9</ele>
        <time>2020-07-03T09:49:28Z</time>
      </trkpt>
      <trkpt lat="47.34053" lon="1.13264">
        <ele>75.9</ele>
        <time>2020-07-03T09:49:29Z</time>
      </trkpt>
      <trkpt lat="47.34048" lon="1.1326">
        <ele>75.9</ele>
        <time>2020-07-03T09:49:30Z</time>
      </trkpt>
      <trkpt lat="47.34044" lon="1.13256">
        <ele>75.9</ele>
        <time>2020-07-03T09:49:31Z</time>
      </trkpt>
      <trkpt lat="47.3404" lon="1.13252">
        <ele>76</ele>
        <time>2020-07-03T09:49:32Z</time>
      </trkpt>
      <trkpt lat="47.34036" lon="1.13248">
        <ele>76</ele>
        <time>2020-07-03T09:49:33Z</time>
      </trkpt>
      <trkpt lat="47.34032" lon="1.13244">
        <ele>76</ele>
        <time>2020-07-03T09:49:34Z</time>
      </trkpt>
      <trkpt lat="47.34028" lon="1.13242">
        <ele>76</ele>
        <time>2020-07-03T09:49:35Z</time>
      </trkpt>
      <trkpt lat="47.34025" lon="1.1324">
        <ele>76</ele>
        <time>2020-07-03T09:49:36Z</time>
      </trkpt>
      <trkpt lat="47.34022" lon="1.13239">
        <ele>76</ele>
        <time>2020-07-03T09:49:37Z</time>
      </trkpt>
      <trkpt lat="47.34019" lon="1.13237">
        <ele>75.9</ele>
        <time>2020-07-03T09:49:38Z</time>
      </trkpt>
      <trkpt lat="47.34015" lon="1.13235">
        <ele>75.8</ele>
        <time>2020-07-03T09:49:39Z</time>
      </trkpt>
      <trkpt lat="47.34012" lon="1.13233">
        <ele>75.7</ele>
        <time>2020-07-03T09:49:40Z</time>
      </trkpt>
      <trkpt lat="47.34008" lon="1.13232">
        <ele>75.6</ele>
        <time>2020-07-03T09:49:41Z</time>
      </trkpt>
      <trkpt lat="47.34004" lon="1.1323">
        <ele>75.5</ele>
        <time>2020-07-03T09:49:42Z</time>
      </trkpt>
      <trkpt lat="47.33999" lon="1.13227">
        <ele>75.4</ele>
        <time>2020-07-03T09:49:43Z</time>
      </trkpt>
      <trkpt lat="47.33994" lon="1.13224">
        <ele>75.3</ele>
        <time>2020-07-03T09:49:44Z</time>
      </trkpt>
      <trkpt lat="47.3399" lon="1.13222">
        <ele>75.2</ele>
        <time>2020-07-03T09:49:45Z</time>
      </trkpt>
      <trkpt lat="47.33985" lon="1.13221">
        <ele>75.1</ele>
        <time>2020-07-03T09:49:46Z</time>
      </trkpt>
      <trkpt lat="47.33981" lon="1.13217">
        <ele>75.1</ele>
        <time>2020-07-03T09:49:47Z</time>
      </trkpt>
      <trkpt lat="47.33977" lon="1.13214">
        <ele>75</ele>
        <time>2020-07-03T09:49:48Z</time>
      </trkpt>
      <trkpt lat="47.33973" lon="1.13213">
        <ele>75</ele>
        <time>2020-07-03T09:49:49Z</time>
      </trkpt>
      <trkpt lat="47.33968" lon="1.1321">
        <ele>74.9</ele>
        <time>2020-07-03T09:49:50Z</time>
      </trkpt>
      <trkpt lat="47.33963" lon="1.13208">
        <ele>74.9</ele>
        <time>2020-07-03T09:49:51Z</time>
      </trkpt>
      <trkpt lat="47.33958" lon="1.13205">
        <ele>74.8</ele>
        <time>2020-07-03T09:49:52Z</time>
      </trkpt>
      <trkpt lat="47.33953" lon="1.13202">
        <ele>74.8</ele>
        <time>2020-07-03T09:49:53Z</time>
      </trkpt>
      <trkpt lat="47.33948" lon="1.13201">
        <ele>74.8</ele>
        <time>2020-07-03T09:49:54Z</time>
      </trkpt>
      <trkpt lat="47.33944" lon="1.13198">
        <ele>74.7</ele>
        <time>2020-07-03T09:49:55Z</time>
      </trkpt>
      <trkpt lat="47.33939" lon="1.13196">
        <ele>74.7</ele>
        <time>2020-07-03T09:49:56Z</time>
      </trkpt>
      <trkpt lat="47.33934" lon="1.13195">
        <ele>74.6</ele>
        <time>2020-07-03T09:49:57Z</time>
      </trkpt>
      <trkpt lat="47.33928" lon="1.13192">
        <ele>74.6</ele>
        <time>2020-07-03T09:49:58Z</time>
      </trkpt>
      <trkpt lat="47.33923" lon="1.1319">
        <ele>74.5</ele>
        <time>2020-07-03T09:49:59Z</time>
      </trkpt>
      <trkpt lat="47.33918" lon="1.13188">
        <ele>74.5</ele>
        <time>2020-07-03T09:50:00Z</time>
      </trkpt>
      <trkpt lat="47.33913" lon="1.13185">
        <ele>74.4</ele>
        <time>2020-07-03T09:50:01Z</time>
      </trkpt>
      <trkpt lat="47.33907" lon="1.13183">
        <ele>74.3</ele>
        <time>2020-07-03T09:50:02Z</time>
      </trkpt>
      <trkpt lat="47.33901" lon="1.13183">
        <ele>74.2</ele>
        <time>2020-07-03T09:50:03Z</time>
      </trkpt>
      <trkpt lat="47.33895" lon="1.13182">
        <ele>74.2</ele>
        <time>2020-07-03T09:50:04Z</time>
      </trkpt>
      <trkpt lat="47.33889" lon="1.13181">
        <ele>74.1</ele>
        <time>2020-07-03T09:50:05Z</time>
      </trkpt>
      <trkpt lat="47.33882" lon="1.13181">
        <ele>74</ele>
        <time>2020-07-03T09:50:06Z</time>
      </trkpt>
      <trkpt lat="47.33876" lon="1.13179">
        <ele>74</ele>
        <time>2020-07-03T09:50:07Z</time>
      </trkpt>
      <trkpt lat="47.33871" lon="1.1318">
        <ele>74</ele>
        <time>2020-07-03T09:50:08Z</time>
      </trkpt>
      <trkpt lat="47.33865" lon="1.1318">
        <ele>74.1</ele>
        <time>2020-07-03T09:50:09Z</time>
      </trkpt>
      <trkpt lat="47.33859" lon="1.13182">
        <ele>74.1</ele>
        <time>2020-07-03T09:50:10Z</time>
      </trkpt>
      <trkpt lat="47.33854" lon="1.13184">
        <ele>74.1</ele>
        <time>2020-07-03T09:50:11Z</time>
      </trkpt>
      <trkpt lat="47.33849" lon="1.13186">
        <ele>74.2</ele>
        <time>2020-07-03T09:50:12Z</time>
      </trkpt>
      <trkpt lat="47.33844" lon="1.13189">
        <ele>74.2</ele>
        <time>2020-07-03T09:50:13Z</time>
      </trkpt>
      <trkpt lat="47.33838" lon="1.13191">
        <ele>74.2</ele>
        <time>2020-07-03T09:50:14Z</time>
      </trkpt>
      <trkpt lat="47.33833" lon="1.13194">
        <ele>74.2</ele>
        <time>2020-07-03T09:50:15Z</time>
      </trkpt>
      <trkpt lat="47.33828" lon="1.13195">
        <ele>74.2</ele>
        <time>2020-07-03T09:50:16Z</time>
      </trkpt>
      <trkpt lat="47.33822" lon="1.13197">
        <ele>74.2</ele>
        <time>2020-07-03T09:50:17Z</time>
      </trkpt>
      <trkpt lat="47.33818" lon="1.13201">
        <ele>74.1</ele>
        <time>2020-07-03T09:50:18Z</time>
      </trkpt>
      <trkpt lat="47.33813" lon="1.13204">
        <ele>74</ele>
        <time>2020-07-03T09:50:19Z</time>
      </trkpt>
      <trkpt lat="47.33808" lon="1.13208">
        <ele>73.9</ele>
        <time>2020-07-03T09:50:20Z</time>
      </trkpt>
      <trkpt lat="47.33803" lon="1.13211">
        <ele>73.9</ele>
        <time>2020-07-03T09:50:21Z</time>
      </trkpt>
      <trkpt lat="47.33797" lon="1.13214">
        <ele>73.8</ele>
        <time>2020-07-03T09:50:22Z</time>
      </trkpt>
      <trkpt lat="47.33791" lon="1.13217">
        <ele>73.7</ele>
        <time>2020-07-03T09:50:23Z</time>
      </trkpt>
      <trkpt lat="47.33786" lon="1.1322">
        <ele>73.6</ele>
        <time>2020-07-03T09:50:24Z</time>
      </trkpt>
      <trkpt lat="47.33781" lon="1.13225">
        <ele>73.5</ele>
        <time>2020-07-03T09:50:25Z</time>
      </trkpt>
      <trkpt lat="47.33776" lon="1.13229">
        <ele>73.5</ele>
        <time>2020-07-03T09:50:26Z</time>
      </trkpt>
      <trkpt lat="47.33771" lon="1.13234">
        <ele>73.4</ele>
        <time>2020-07-03T09:50:27Z</time>
      </trkpt>
      <trkpt lat="47.33766" lon="1.13238">
        <ele>73.4</ele>
        <time>2020-07-03T09:50:28Z</time>
      </trkpt>
      <trkpt lat="47.33762" lon="1.13243">
        <ele>73.3</ele>
        <time>2020-07-03T09:50:29Z</time>
      </trkpt>
      <trkpt lat="47.33758" lon="1.13246">
        <ele>73.3</ele>
        <time>2020-07-03T09:50:30Z</time>
      </trkpt>
      <trkpt lat="47.33753" lon="1.13249">
        <ele>73.3</ele>
        <time>2020-07-03T09:50:31Z</time>
      </trkpt>
      <trkpt lat="47.33749" lon="1.13253">
        <ele>73.4</ele>
        <time>2020-07-03T09:50:32Z</time>
      </trkpt>
      <trkpt lat="47.33745" lon="1.13257">
        <ele>73.4</ele>
        <time>2020-07-03T09:50:33Z</time>
      </trkpt>
      <trkpt lat="47.3374" lon="1.13262">
        <ele>73.4</ele>
        <time>2020-07-03T09:50:34Z</time>
      </trkpt>
      <trkpt lat="47.33736" lon="1.13265">
        <ele>73.4</ele>
        <time>2020-07-03T09:50:35Z</time>
      </trkpt>
      <trkpt lat="47.33732" lon="1.13268">
        <ele>73.4</ele>
        <time>2020-07-03T09:50:36Z</time>
      </trkpt>
      <trkpt lat="47.33729" lon="1.13272">
        <ele>73.4</ele>
        <time>2020-07-03T09:50:37Z</time>
      </trkpt>
      <trkpt lat="47.33725" lon="1.13275">
        <ele>73.4</ele>
        <time>2020-07-03T09:50:38Z</time>
      </trkpt>
      <trkpt lat="47.3372" lon="1.13276">
        <ele>73.4</ele>
        <time>2020-07-03T09:50:39Z</time>
      </trkpt>
      <trkpt lat="47.33716" lon="1.13278">
        <ele>73.3</ele>
        <time>2020-07-03T09:50:40Z</time>
      </trkpt>
      <trkpt lat="47.33711" lon="1.13279">
        <ele>73.3</ele>
        <time>2020-07-03T09:50:41Z</time>
      </trkpt>
      <trkpt lat="47.33707" lon="1.13282">
        <ele>73.2</ele>
        <time>2020-07-03T09:50:42Z</time>
      </trkpt>
      <trkpt lat="47.33703" lon="1.13284">
        <ele>73.2</ele>
        <time>2020-07-03T09:50:43Z</time>
      </trkpt>
      <trkpt lat="47.33699" lon="1.13286">
        <ele>72.8</ele>
        <time>2020-07-03T09:50:44Z</time>
      </trkpt>
      <trkpt lat="47.33694" lon="1.13289">
        <ele>72.5</ele>
        <time>2020-07-03T09:50:45Z</time>
      </trkpt>
      <trkpt lat="47.33688" lon="1.13291">
        <ele>72.1</ele>
        <time>2020-07-03T09:50:46Z</time>
      </trkpt>
      <trkpt lat="47.33682" lon="1.13294">
        <ele>71.7</ele>
        <time>2020-07-03T09:50:47Z</time>
      </trkpt>
      <trkpt lat="47.33677" lon="1.13298">
        <ele>71.3</ele>
        <time>2020-07-03T09:50:48Z</time>
      </trkpt>
      <trkpt lat="47.33671" lon="1.13303">
        <ele>70.9</ele>
        <time>2020-07-03T09:50:49Z</time>
      </trkpt>
      <trkpt lat="47.33665" lon="1.13308">
        <ele>70.4</ele>
        <time>2020-07-03T09:50:50Z</time>
      </trkpt>
      <trkpt lat="47.3366" lon="1.13314">
        <ele>69.9</ele>
        <time>2020-07-03T09:50:51Z</time>
      </trkpt>
      <trkpt lat="47.33654" lon="1.13319">
        <ele>69.4</ele>
        <time>2020-07-03T09:50:52Z</time>
      </trkpt>
      <trkpt lat="47.33648" lon="1.13323">
        <ele>69</ele>
        <time>2020-07-03T09:50:53Z</time>
      </trkpt>
      <trkpt lat="47.33643" lon="1.13326">
        <ele>68.6</ele>
        <time>2020-07-03T09:50:54Z</time>
      </trkpt>
      <trkpt lat="47.33638" lon="1.1333">
        <ele>68.2</ele>
        <time>2020-07-03T09:50:55Z</time>
      </trkpt>
      <trkpt lat="47.33633" lon="1.13332">
        <ele>67.8</ele>
        <time>2020-07-03T09:50:56Z</time>
      </trkpt>
      <trkpt lat="47.33629" lon="1.13335">
        <ele>67.5</ele>
        <time>2020-07-03T09:50:57Z</time>
      </trkpt>
      <trkpt lat="47.33624" lon="1.13334">
        <ele>67.2</ele>
        <time>2020-07-03T09:50:58Z</time>
      </trkpt>
      <trkpt lat="47.3362" lon="1.13333">
        <ele>66.9</ele>
        <time>2020-07-03T09:50:59Z</time>
      </trkpt>
      <trkpt lat="47.33616" lon="1.13334">
        <ele>66.7</ele>
        <time>2020-07-03T09:51:00Z</time>
      </trkpt>
      <trkpt lat="47.33614" lon="1.13338">
        <ele>66.3</ele>
        <time>2020-07-03T09:51:01Z</time>
      </trkpt>
      <trkpt lat="47.33611" lon="1.13341">
        <ele>66.1</ele>
        <time>2020-07-03T09:51:02Z</time>
      </trkpt>
      <trkpt lat="47.33608" lon="1.13337">
        <ele>66</ele>
        <time>2020-07-03T09:51:03Z</time>
      </trkpt>
      <trkpt lat="47.33605" lon="1.13338">
        <ele>65.9</ele>
        <time>2020-07-03T09:51:04Z</time>
      </trkpt>
      <trkpt lat="47.33604" lon="1.13339">
        <ele>65.8</ele>
        <time>2020-07-03T09:51:05Z</time>
      </trkpt>
      <trkpt lat="47.336" lon="1.13338">
        <ele>65.7</ele>
        <time>2020-07-03T09:51:06Z</time>
      </trkpt>
      <trkpt lat="47.33599" lon="1.13337">
        <ele>65.7</ele>
        <time>2020-07-03T09:51:07Z</time>
      </trkpt>
      <trkpt lat="47.33596" lon="1.13336">
        <ele>65.6</ele>
        <time>2020-07-03T09:51:08Z</time>
      </trkpt>
      <trkpt lat="47.33595" lon="1.13336">
        <ele>65.5</ele>
        <time>2020-07-03T09:51:09Z</time>
      </trkpt>
      <trkpt lat="47.33592" lon="1.13333">
        <ele>65.4</ele>
        <time>2020-07-03T09:51:10Z</time>
      </trkpt>
      <trkpt lat="47.33591" lon="1.13332">
        <ele>65.4</ele>
        <time>2020-07-03T09:51:11Z</time>
      </trkpt>
      <trkpt lat="47.33588" lon="1.13333">
        <ele>65.3</ele>
        <time>2020-07-03T09:51:12Z</time>
      </trkpt>
      <trkpt lat="47.33587" lon="1.13333">
        <ele>65.3</ele>
        <time>2020-07-03T09:51:13Z</time>
      </trkpt>
      <trkpt lat="47.33583" lon="1.13334">
        <ele>65</ele>
        <time>2020-07-03T09:51:14Z</time>
      </trkpt>
      <trkpt lat="47.33582" lon="1.13335">
        <ele>65</ele>
        <time>2020-07-03T09:51:15Z</time>
      </trkpt>
      <trkpt lat="47.33578" lon="1.13336">
        <ele>64.8</ele>
        <time>2020-07-03T09:51:16Z</time>
      </trkpt>
      <trkpt lat="47.33577" lon="1.13337">
        <ele>64.7</ele>
        <time>2020-07-03T09:51:17Z</time>
      </trkpt>
      <trkpt lat="47.33573" lon="1.13337">
        <ele>64.6</ele>
        <time>2020-07-03T09:51:18Z</time>
      </trkpt>
      <trkpt lat="47.33569" lon="1.13338">
        <ele>64.4</ele>
        <time>2020-07-03T09:51:19Z</time>
      </trkpt>
      <trkpt lat="47.33565" lon="1.13339">
        <ele>64.3</ele>
        <time>2020-07-03T09:51:20Z</time>
      </trkpt>
      <trkpt lat="47.3356" lon="1.1334">
        <ele>64.1</ele>
        <time>2020-07-03T09:51:21Z</time>
      </trkpt>
      <trkpt lat="47.33555" lon="1.1334">
        <ele>63.9</ele>
        <time>2020-07-03T09:51:22Z</time>
      </trkpt>
      <trkpt lat="47.3355" lon="1.1334">
        <ele>63.7</ele>
        <time>2020-07-03T09:51:23Z</time>
      </trkpt>
      <trkpt lat="47.33546" lon="1.13342">
        <ele>63.5</ele>
        <time>2020-07-03T09:51:24Z</time>
      </trkpt>
      <trkpt lat="47.33541" lon="1.13345">
        <ele>63.4</ele>
        <time>2020-07-03T09:51:25Z</time>
      </trkpt>
      <trkpt lat="47.33536" lon="1.13349">
        <ele>63.2</ele>
        <time>2020-07-03T09:51:26Z</time>
      </trkpt>
      <trkpt lat="47.3353" lon="1.1335">
        <ele>63.1</ele>
        <time>2020-07-03T09:51:27Z</time>
      </trkpt>
      <trkpt lat="47.33523" lon="1.13352">
        <ele>63.1</ele>
        <time>2020-07-03T09:51:28Z</time>
      </trkpt>
      <trkpt lat="47.33517" lon="1.13354">
        <ele>63.1</ele>
        <time>2020-07-03T09:51:29Z</time>
      </trkpt>
      <trkpt lat="47.33512" lon="1.13356">
        <ele>63.1</ele>
        <time>2020-07-03T09:51:30Z</time>
      </trkpt>
      <trkpt lat="47.33506" lon="1.13358">
        <ele>63.2</ele>
        <time>2020-07-03T09:51:31Z</time>
      </trkpt>
      <trkpt lat="47.33502" lon="1.13362">
        <ele>63.2</ele>
        <time>2020-07-03T09:51:32Z</time>
      </trkpt>
      <trkpt lat="47.33498" lon="1.13365">
        <ele>63.3</ele>
        <time>2020-07-03T09:51:33Z</time>
      </trkpt>
      <trkpt lat="47.33494" lon="1.13368">
        <ele>63.3</ele>
        <time>2020-07-03T09:51:34Z</time>
      </trkpt>
      <trkpt lat="47.33491" lon="1.13371">
        <ele>63.4</ele>
        <time>2020-07-03T09:51:35Z</time>
      </trkpt>
      <trkpt lat="47.33488" lon="1.13374">
        <ele>63.4</ele>
        <time>2020-07-03T09:51:36Z</time>
      </trkpt>
      <trkpt lat="47.33486" lon="1.13376">
        <ele>63.5</ele>
        <time>2020-07-03T09:51:37Z</time>
      </trkpt>
      <trkpt lat="47.33482" lon="1.13379">
        <ele>63.5</ele>
        <time>2020-07-03T09:51:38Z</time>
      </trkpt>
      <trkpt lat="47.33481" lon="1.1338">
        <ele>63.4</ele>
        <time>2020-07-03T09:51:39Z</time>
      </trkpt>
      <trkpt lat="47.33477" lon="1.13383">
        <ele>63.3</ele>
        <time>2020-07-03T09:51:40Z</time>
      </trkpt>
      <trkpt lat="47.33476" lon="1.13383">
        <ele>63.3</ele>
        <time>2020-07-03T09:51:41Z</time>
      </trkpt>
      <trkpt lat="47.33472" lon="1.13386">
        <ele>63.1</ele>
        <time>2020-07-03T09:51:42Z</time>
      </trkpt>
      <trkpt lat="47.33467" lon="1.13389">
        <ele>62.9</ele>
        <time>2020-07-03T09:51:43Z</time>
      </trkpt>
      <trkpt lat="47.33463" lon="1.13392">
        <ele>62.7</ele>
        <time>2020-07-03T09:51:44Z</time>
      </trkpt>
      <trkpt lat="47.33458" lon="1.13393">
        <ele>62.5</ele>
        <time>2020-07-03T09:51:45Z</time>
      </trkpt>
      <trkpt lat="47.33454" lon="1.13395">
        <ele>62.2</ele>
        <time>2020-07-03T09:51:46Z</time>
      </trkpt>
      <trkpt lat="47.33448" lon="1.13398">
        <ele>61.9</ele>
        <time>2020-07-03T09:51:47Z</time>
      </trkpt>
      <trkpt lat="47.33443" lon="1.134">
        <ele>61.6</ele>
        <time>2020-07-03T09:51:48Z</time>
      </trkpt>
      <trkpt lat="47.33436" lon="1.13402">
        <ele>61.2</ele>
        <time>2020-07-03T09:51:49Z</time>
      </trkpt>
      <trkpt lat="47.33429" lon="1.13405">
        <ele>60.9</ele>
        <time>2020-07-03T09:51:50Z</time>
      </trkpt>
      <trkpt lat="47.33423" lon="1.13406">
        <ele>60.6</ele>
        <time>2020-07-03T09:51:51Z</time>
      </trkpt>
      <trkpt lat="47.33417" lon="1.13408">
        <ele>60.5</ele>
        <time>2020-07-03T09:51:52Z</time>
      </trkpt>
      <trkpt lat="47.33411" lon="1.13406">
        <ele>60.3</ele>
        <time>2020-07-03T09:51:53Z</time>
      </trkpt>
      <trkpt lat="47.33406" lon="1.13403">
        <ele>60.2</ele>
        <time>2020-07-03T09:51:54Z</time>
      </trkpt>
      <trkpt lat="47.334" lon="1.13401">
        <ele>60.1</ele>
        <time>2020-07-03T09:51:55Z</time>
      </trkpt>
      <trkpt lat="47.33394" lon="1.134">
        <ele>60</ele>
        <time>2020-07-03T09:51:56Z</time>
      </trkpt>
      <trkpt lat="47.33388" lon="1.13397">
        <ele>59.9</ele>
        <time>2020-07-03T09:51:57Z</time>
      </trkpt>
      <trkpt lat="47.33383" lon="1.13393">
        <ele>59.8</ele>
        <time>2020-07-03T09:51:58Z</time>
      </trkpt>
      <trkpt lat="47.33378" lon="1.13387">
        <ele>59.8</ele>
        <time>2020-07-03T09:51:59Z</time>
      </trkpt>
      <trkpt lat="47.33373" lon="1.13382">
        <ele>59.8</ele>
        <time>2020-07-03T09:52:00Z</time>
      </trkpt>
      <trkpt lat="47.33368" lon="1.13379">
        <ele>59.8</ele>
        <time>2020-07-03T09:52:01Z</time>
      </trkpt>
      <trkpt lat="47.33363" lon="1.13374">
        <ele>59.8</ele>
        <time>2020-07-03T09:52:02Z</time>
      </trkpt>
      <trkpt lat="47.33357" lon="1.1337">
        <ele>59.8</ele>
        <time>2020-07-03T09:52:03Z</time>
      </trkpt>
      <trkpt lat="47.33352" lon="1.13365">
        <ele>59.8</ele>
        <time>2020-07-03T09:52:04Z</time>
      </trkpt>
      <trkpt lat="47.33346" lon="1.13362">
        <ele>59.8</ele>
        <time>2020-07-03T09:52:05Z</time>
      </trkpt>
      <trkpt lat="47.3334" lon="1.13359">
        <ele>59.8</ele>
        <time>2020-07-03T09:52:06Z</time>
      </trkpt>
      <trkpt lat="47.33335" lon="1.13355">
        <ele>59.8</ele>
        <time>2020-07-03T09:52:07Z</time>
      </trkpt>
      <trkpt lat="47.3333" lon="1.13352">
        <ele>59.8</ele>
        <time>2020-07-03T09:52:08Z</time>
      </trkpt>
      <trkpt lat="47.33325" lon="1.13347">
        <ele>59.8</ele>
        <time>2020-07-03T09:52:09Z</time>
      </trkpt>
      <trkpt lat="47.33322" lon="1.1334">
        <ele>59.8</ele>
        <time>2020-07-03T09:52:10Z</time>
      </trkpt>
      <trkpt lat="47.33317" lon="1.13335">
        <ele>59.8</ele>
        <time>2020-07-03T09:52:11Z</time>
      </trkpt>
      <trkpt lat="47.33313" lon="1.13329">
        <ele>59.8</ele>
        <time>2020-07-03T09:52:12Z</time>
      </trkpt>
      <trkpt lat="47.33308" lon="1.13324">
        <ele>59.8</ele>
        <time>2020-07-03T09:52:13Z</time>
      </trkpt>
      <trkpt lat="47.33303" lon="1.13319">
        <ele>59.8</ele>
        <time>2020-07-03T09:52:14Z</time>
      </trkpt>
      <trkpt lat="47.33298" lon="1.13315">
        <ele>59.8</ele>
        <time>2020-07-03T09:52:15Z</time>
      </trkpt>
      <trkpt lat="47.33293" lon="1.13311">
        <ele>59.8</ele>
        <time>2020-07-03T09:52:16Z</time>
      </trkpt>
      <trkpt lat="47.33288" lon="1.13307">
        <ele>59.8</ele>
        <time>2020-07-03T09:52:17Z</time>
      </trkpt>
      <trkpt lat="47.33283" lon="1.13302">
        <ele>59.8</ele>
        <time>2020-07-03T09:52:18Z</time>
      </trkpt>
      <trkpt lat="47.33278" lon="1.13297">
        <ele>59.8</ele>
        <time>2020-07-03T09:52:19Z</time>
      </trkpt>
      <trkpt lat="47.33274" lon="1.13295">
        <ele>59.8</ele>
        <time>2020-07-03T09:52:20Z</time>
      </trkpt>
      <trkpt lat="47.33269" lon="1.13292">
        <ele>59.8</ele>
        <time>2020-07-03T09:52:21Z</time>
      </trkpt>
      <trkpt lat="47.33263" lon="1.13286">
        <ele>59.9</ele>
        <time>2020-07-03T09:52:22Z</time>
      </trkpt>
      <trkpt lat="47.33259" lon="1.13284">
        <ele>59.9</ele>
        <time>2020-07-03T09:52:23Z</time>
      </trkpt>
      <trkpt lat="47.33253" lon="1.1328">
        <ele>60</ele>
        <time>2020-07-03T09:52:24Z</time>
      </trkpt>
      <trkpt lat="47.33248" lon="1.13277">
        <ele>60</ele>
        <time>2020-07-03T09:52:25Z</time>
      </trkpt>
      <trkpt lat="47.33243" lon="1.13276">
        <ele>60.1</ele>
        <time>2020-07-03T09:52:26Z</time>
      </trkpt>
      <trkpt lat="47.33237" lon="1.13274">
        <ele>60.1</ele>
        <time>2020-07-03T09:52:27Z</time>
      </trkpt>
      <trkpt lat="47.33231" lon="1.13274">
        <ele>60.1</ele>
        <time>2020-07-03T09:52:28Z</time>
      </trkpt>
      <trkpt lat="47.33226" lon="1.13273">
        <ele>60</ele>
        <time>2020-07-03T09:52:29Z</time>
      </trkpt>
      <trkpt lat="47.33221" lon="1.13273">
        <ele>60</ele>
        <time>2020-07-03T09:52:30Z</time>
      </trkpt>
      <trkpt lat="47.33216" lon="1.13271">
        <ele>60.1</ele>
        <time>2020-07-03T09:52:31Z</time>
      </trkpt>
      <trkpt lat="47.33211" lon="1.13269">
        <ele>60.1</ele>
        <time>2020-07-03T09:52:32Z</time>
      </trkpt>
      <trkpt lat="47.33206" lon="1.13269">
        <ele>60.2</ele>
        <time>2020-07-03T09:52:33Z</time>
      </trkpt>
      <trkpt lat="47.332" lon="1.13269">
        <ele>60.3</ele>
        <time>2020-07-03T09:52:34Z</time>
      </trkpt>
      <trkpt lat="47.33196" lon="1.13269">
        <ele>60.5</ele>
        <time>2020-07-03T09:52:35Z</time>
      </trkpt>
      <trkpt lat="47.33193" lon="1.13269">
        <ele>60.6</ele>
        <time>2020-07-03T09:52:36Z</time>
      </trkpt>
      <trkpt lat="47.33188" lon="1.13268">
        <ele>60.8</ele>
        <time>2020-07-03T09:52:37Z</time>
      </trkpt>
      <trkpt lat="47.33185" lon="1.13268">
        <ele>60.9</ele>
        <time>2020-07-03T09:52:38Z</time>
      </trkpt>
      <trkpt lat="47.33181" lon="1.13267">
        <ele>61</ele>
        <time>2020-07-03T09:52:39Z</time>
      </trkpt>
      <trkpt lat="47.33177" lon="1.13267">
        <ele>61.2</ele>
        <time>2020-07-03T09:52:40Z</time>
      </trkpt>
      <trkpt lat="47.33173" lon="1.13266">
        <ele>61.3</ele>
        <time>2020-07-03T09:52:41Z</time>
      </trkpt>
      <trkpt lat="47.3317" lon="1.13265">
        <ele>61.4</ele>
        <time>2020-07-03T09:52:42Z</time>
      </trkpt>
      <trkpt lat="47.33165" lon="1.13264">
        <ele>61.7</ele>
        <time>2020-07-03T09:52:43Z</time>
      </trkpt>
      <trkpt lat="47.33162" lon="1.13264">
        <ele>61.9</ele>
        <time>2020-07-03T09:52:44Z</time>
      </trkpt>
      <trkpt lat="47.33158" lon="1.13264">
        <ele>62.1</ele>
        <time>2020-07-03T09:52:45Z</time>
      </trkpt>
      <trkpt lat="47.33154" lon="1.13264">
        <ele>62.3</ele>
        <time>2020-07-03T09:52:46Z</time>
      </trkpt>
      <trkpt lat="47.3315" lon="1.13265">
        <ele>62.5</ele>
        <time>2020-07-03T09:52:47Z</time>
      </trkpt>
      <trkpt lat="47.33147" lon="1.13263">
        <ele>62.6</ele>
        <time>2020-07-03T09:52:48Z</time>
      </trkpt>
      <trkpt lat="47.33143" lon="1.13262">
        <ele>62.8</ele>
        <time>2020-07-03T09:52:49Z</time>
      </trkpt>
      <trkpt lat="47.33141" lon="1.1326">
        <ele>62.9</ele>
        <time>2020-07-03T09:52:50Z</time>
      </trkpt>
      <trkpt lat="47.33137" lon="1.1326">
        <ele>63</ele>
        <time>2020-07-03T09:52:51Z</time>
      </trkpt>
      <trkpt lat="47.33136" lon="1.1326">
        <ele>63.1</ele>
        <time>2020-07-03T09:52:52Z</time>
      </trkpt>
      <trkpt lat="47.33133" lon="1.1326">
        <ele>63.2</ele>
        <time>2020-07-03T09:52:53Z</time>
      </trkpt>
      <trkpt lat="47.3313" lon="1.13261">
        <ele>63.3</ele>
        <time>2020-07-03T09:52:54Z</time>
      </trkpt>
      <trkpt lat="47.33129" lon="1.13261">
        <ele>63.3</ele>
        <time>2020-07-03T09:52:55Z</time>
      </trkpt>
      <trkpt lat="47.33125" lon="1.13258">
        <ele>63.4</ele>
        <time>2020-07-03T09:52:56Z</time>
      </trkpt>
      <trkpt lat="47.33122" lon="1.13256">
        <ele>63.4</ele>
        <time>2020-07-03T09:52:57Z</time>
      </trkpt>
      <trkpt lat="47.33119" lon="1.13256">
        <ele>63.5</ele>
        <time>2020-07-03T09:52:58Z</time>
      </trkpt>
      <trkpt lat="47.33116" lon="1.13256">
        <ele>63.5</ele>
        <time>2020-07-03T09:52:59Z</time>
      </trkpt>
      <trkpt lat="47.33113" lon="1.13256">
        <ele>63.5</ele>
        <time>2020-07-03T09:53:00Z</time>
      </trkpt>
      <trkpt lat="47.33109" lon="1.13255">
        <ele>63.5</ele>
        <time>2020-07-03T09:53:01Z</time>
      </trkpt>
      <trkpt lat="47.33104" lon="1.13255">
        <ele>63.4</ele>
        <time>2020-07-03T09:53:02Z</time>
      </trkpt>
      <trkpt lat="47.33102" lon="1.13254">
        <ele>63.4</ele>
        <time>2020-07-03T09:53:03Z</time>
      </trkpt>
      <trkpt lat="47.33097" lon="1.13254">
        <ele>63.3</ele>
        <time>2020-07-03T09:53:04Z</time>
      </trkpt>
      <trkpt lat="47.33092" lon="1.13254">
        <ele>63.2</ele>
        <time>2020-07-03T09:53:05Z</time>
      </trkpt>
      <trkpt lat="47.33088" lon="1.13254">
        <ele>63.1</ele>
        <time>2020-07-03T09:53:06Z</time>
      </trkpt>
      <trkpt lat="47.33083" lon="1.13254">
        <ele>62.9</ele>
        <time>2020-07-03T09:53:07Z</time>
      </trkpt>
      <trkpt lat="47.33078" lon="1.13254">
        <ele>62.7</ele>
        <time>2020-07-03T09:53:08Z</time>
      </trkpt>
      <trkpt lat="47.33072" lon="1.13254">
        <ele>62.4</ele>
        <time>2020-07-03T09:53:09Z</time>
      </trkpt>
      <trkpt lat="47.33066" lon="1.13252">
        <ele>62</ele>
        <time>2020-07-03T09:53:10Z</time>
      </trkpt>
      <trkpt lat="47.3306" lon="1.13251">
        <ele>61.7</ele>
        <time>2020-07-03T09:53:11Z</time>
      </trkpt>
      <trkpt lat="47.33052" lon="1.1325">
        <ele>61.3</ele>
        <time>2020-07-03T09:53:12Z</time>
      </trkpt>
      <trkpt lat="47.33045" lon="1.13249">
        <ele>61.1</ele>
        <time>2020-07-03T09:53:13Z</time>
      </trkpt>
      <trkpt lat="47.3304" lon="1.13249">
        <ele>60.9</ele>
        <time>2020-07-03T09:53:14Z</time>
      </trkpt>
      <trkpt lat="47.33033" lon="1.13248">
        <ele>60.8</ele>
        <time>2020-07-03T09:53:15Z</time>
      </trkpt>
      <trkpt lat="47.33026" lon="1.13247">
        <ele>60.7</ele>
        <time>2020-07-03T09:53:16Z</time>
      </trkpt>
      <trkpt lat="47.33019" lon="1.13245">
        <ele>60.7</ele>
        <time>2020-07-03T09:53:17Z</time>
      </trkpt>
      <trkpt lat="47.33012" lon="1.13243">
        <ele>60.6</ele>
        <time>2020-07-03T09:53:18Z</time>
      </trkpt>
      <trkpt lat="47.33005" lon="1.13242">
        <ele>60.5</ele>
        <time>2020-07-03T09:53:19Z</time>
      </trkpt>
      <trkpt lat="47.33" lon="1.13241">
        <ele>60.5</ele>
        <time>2020-07-03T09:53:20Z</time>
      </trkpt>
      <trkpt lat="47.32993" lon="1.13241">
        <ele>60.4</ele>
        <time>2020-07-03T09:53:21Z</time>
      </trkpt>
      <trkpt lat="47.32986" lon="1.1324">
        <ele>60.3</ele>
        <time>2020-07-03T09:53:22Z</time>
      </trkpt>
      <trkpt lat="47.32981" lon="1.13239">
        <ele>60.3</ele>
        <time>2020-07-03T09:53:23Z</time>
      </trkpt>
      <trkpt lat="47.32976" lon="1.13239">
        <ele>60.2</ele>
        <time>2020-07-03T09:53:24Z</time>
      </trkpt>
      <trkpt lat="47.3297" lon="1.13238">
        <ele>60.2</ele>
        <time>2020-07-03T09:53:25Z</time>
      </trkpt>
      <trkpt lat="47.32964" lon="1.13238">
        <ele>60.2</ele>
        <time>2020-07-03T09:53:26Z</time>
      </trkpt>
      <trkpt lat="47.32959" lon="1.13238">
        <ele>60.2</ele>
        <time>2020-07-03T09:53:27Z</time>
      </trkpt>
      <trkpt lat="47.32953" lon="1.13239">
        <ele>60.2</ele>
        <time>2020-07-03T09:53:28Z</time>
      </trkpt>
      <trkpt lat="47.32946" lon="1.13241">
        <ele>60.2</ele>
        <time>2020-07-03T09:53:29Z</time>
      </trkpt>
      <trkpt lat="47.3294" lon="1.13243">
        <ele>60.2</ele>
        <time>2020-07-03T09:53:30Z</time>
      </trkpt>
      <trkpt lat="47.32935" lon="1.13245">
        <ele>60.1</ele>
        <time>2020-07-03T09:53:31Z</time>
      </trkpt>
      <trkpt lat="47.32929" lon="1.13247">
        <ele>60.1</ele>
        <time>2020-07-03T09:53:32Z</time>
      </trkpt>
      <trkpt lat="47.32923" lon="1.1325">
        <ele>60.1</ele>
        <time>2020-07-03T09:53:33Z</time>
      </trkpt>
      <trkpt lat="47.32918" lon="1.13254">
        <ele>60.1</ele>
        <time>2020-07-03T09:53:34Z</time>
      </trkpt>
      <trkpt lat="47.32913" lon="1.13258">
        <ele>60</ele>
        <time>2020-07-03T09:53:35Z</time>
      </trkpt>
      <trkpt lat="47.32907" lon="1.1326">
        <ele>60</ele>
        <time>2020-07-03T09:53:36Z</time>
      </trkpt>
      <trkpt lat="47.32902" lon="1.13262">
        <ele>60.1</ele>
        <time>2020-07-03T09:53:37Z</time>
      </trkpt>
      <trkpt lat="47.32897" lon="1.13265">
        <ele>60</ele>
        <time>2020-07-03T09:53:38Z</time>
      </trkpt>
      <trkpt lat="47.32892" lon="1.13266">
        <ele>60</ele>
        <time>2020-07-03T09:53:39Z</time>
      </trkpt>
      <trkpt lat="47.32888" lon="1.13268">
        <ele>60</ele>
        <time>2020-07-03T09:53:40Z</time>
      </trkpt>
      <trkpt lat="47.32883" lon="1.13269">
        <ele>60</ele>
        <time>2020-07-03T09:53:41Z</time>
      </trkpt>
      <trkpt lat="47.32877" lon="1.1327">
        <ele>60</ele>
        <time>2020-07-03T09:53:42Z</time>
      </trkpt>
      <trkpt lat="47.32872" lon="1.13273">
        <ele>60.1</ele>
        <time>2020-07-03T09:53:43Z</time>
      </trkpt>
      <trkpt lat="47.32867" lon="1.13274">
        <ele>60.1</ele>
        <time>2020-07-03T09:53:44Z</time>
      </trkpt>
      <trkpt lat="47.32862" lon="1.13274">
        <ele>60.2</ele>
        <time>2020-07-03T09:53:45Z</time>
      </trkpt>
      <trkpt lat="47.32855" lon="1.13275">
        <ele>60.3</ele>
        <time>2020-07-03T09:53:46Z</time>
      </trkpt>
      <trkpt lat="47.3285" lon="1.13277">
        <ele>60.4</ele>
        <time>2020-07-03T09:53:47Z</time>
      </trkpt>
      <trkpt lat="47.32845" lon="1.13279">
        <ele>60.5</ele>
        <time>2020-07-03T09:53:48Z</time>
      </trkpt>
      <trkpt lat="47.3284" lon="1.13279">
        <ele>60.5</ele>
        <time>2020-07-03T09:53:49Z</time>
      </trkpt>
      <trkpt lat="47.32835" lon="1.13279">
        <ele>60.5</ele>
        <time>2020-07-03T09:53:50Z</time>
      </trkpt>
      <trkpt lat="47.3283" lon="1.13278">
        <ele>60.6</ele>
        <time>2020-07-03T09:53:51Z</time>
      </trkpt>
      <trkpt lat="47.32826" lon="1.13278">
        <ele>60.6</ele>
        <time>2020-07-03T09:53:52Z</time>
      </trkpt>
      <trkpt lat="47.32821" lon="1.13277">
        <ele>60.6</ele>
        <time>2020-07-03T09:53:53Z</time>
      </trkpt>
      <trkpt lat="47.32817" lon="1.13275">
        <ele>60.6</ele>
        <time>2020-07-03T09:53:54Z</time>
      </trkpt>
      <trkpt lat="47.32812" lon="1.13273">
        <ele>60.6</ele>
        <time>2020-07-03T09:53:55Z</time>
      </trkpt>
      <trkpt lat="47.32808" lon="1.13269">
        <ele>60.6</ele>
        <time>2020-07-03T09:53:56Z</time>
      </trkpt>
      <trkpt lat="47.32805" lon="1.13262">
        <ele>60.7</ele>
        <time>2020-07-03T09:53:57Z</time>
      </trkpt>
      <trkpt lat="47.32802" lon="1.13257">
        <ele>60.7</ele>
        <time>2020-07-03T09:53:58Z</time>
      </trkpt>
      <trkpt lat="47.32799" lon="1.13252">
        <ele>60.8</ele>
        <time>2020-07-03T09:53:59Z</time>
      </trkpt>
      <trkpt lat="47.32796" lon="1.1325">
        <ele>60.8</ele>
        <time>2020-07-03T09:54:00Z</time>
      </trkpt>
      <trkpt lat="47.32791" lon="1.13249">
        <ele>60.8</ele>
        <time>2020-07-03T09:54:01Z</time>
      </trkpt>
      <trkpt lat="47.32788" lon="1.13249">
        <ele>60.8</ele>
        <time>2020-07-03T09:54:02Z</time>
      </trkpt>
      <trkpt lat="47.32784" lon="1.1325">
        <ele>60.8</ele>
        <time>2020-07-03T09:54:03Z</time>
      </trkpt>
      <trkpt lat="47.3278" lon="1.13252">
        <ele>60.8</ele>
        <time>2020-07-03T09:54:04Z</time>
      </trkpt>
      <trkpt lat="47.32775" lon="1.13253">
        <ele>60.8</ele>
        <time>2020-07-03T09:54:05Z</time>
      </trkpt>
      <trkpt lat="47.32771" lon="1.13257">
        <ele>60.8</ele>
        <time>2020-07-03T09:54:06Z</time>
      </trkpt>
      <trkpt lat="47.32768" lon="1.1326">
        <ele>60.9</ele>
        <time>2020-07-03T09:54:07Z</time>
      </trkpt>
      <trkpt lat="47.32765" lon="1.13268">
        <ele>60.9</ele>
        <time>2020-07-03T09:54:08Z</time>
      </trkpt>
      <trkpt lat="47.32761" lon="1.13276">
        <ele>60.9</ele>
        <time>2020-07-03T09:54:09Z</time>
      </trkpt>
      <trkpt lat="47.32757" lon="1.13283">
        <ele>61.1</ele>
        <time>2020-07-03T09:54:10Z</time>
      </trkpt>
      <trkpt lat="47.32753" lon="1.13288">
        <ele>61.2</ele>
        <time>2020-07-03T09:54:11Z</time>
      </trkpt>
      <trkpt lat="47.32748" lon="1.13292">
        <ele>61.3</ele>
        <time>2020-07-03T09:54:12Z</time>
      </trkpt>
      <trkpt lat="47.32743" lon="1.13295">
        <ele>61.6</ele>
        <time>2020-07-03T09:54:13Z</time>
      </trkpt>
      <trkpt lat="47.32737" lon="1.13295">
        <ele>61.9</ele>
        <time>2020-07-03T09:54:14Z</time>
      </trkpt>
      <trkpt lat="47.32731" lon="1.13295">
        <ele>62.2</ele>
        <time>2020-07-03T09:54:15Z</time>
      </trkpt>
      <trkpt lat="47.32726" lon="1.13295">
        <ele>62.5</ele>
        <time>2020-07-03T09:54:16Z</time>
      </trkpt>
      <trkpt lat="47.32722" lon="1.13297">
        <ele>62.8</ele>
        <time>2020-07-03T09:54:17Z</time>
      </trkpt>
      <trkpt lat="47.32718" lon="1.13298">
        <ele>63</ele>
        <time>2020-07-03T09:54:18Z</time>
      </trkpt>
      <trkpt lat="47.32714" lon="1.13298">
        <ele>63.3</ele>
        <time>2020-07-03T09:54:19Z</time>
      </trkpt>
      <trkpt lat="47.32711" lon="1.13299">
        <ele>63.5</ele>
        <time>2020-07-03T09:54:20Z</time>
      </trkpt>
      <trkpt lat="47.32707" lon="1.133">
        <ele>63.8</ele>
        <time>2020-07-03T09:54:21Z</time>
      </trkpt>
      <trkpt lat="47.32705" lon="1.13299">
        <ele>63.9</ele>
        <time>2020-07-03T09:54:22Z</time>
      </trkpt>
      <trkpt lat="47.32702" lon="1.13297">
        <ele>64.1</ele>
        <time>2020-07-03T09:54:23Z</time>
      </trkpt>
      <trkpt lat="47.32699" lon="1.13295">
        <ele>64.6</ele>
        <time>2020-07-03T09:54:24Z</time>
      </trkpt>
      <trkpt lat="47.32697" lon="1.13292">
        <ele>64.7</ele>
        <time>2020-07-03T09:54:25Z</time>
      </trkpt>
      <trkpt lat="47.32695" lon="1.13289">
        <ele>64.7</ele>
        <time>2020-07-03T09:54:26Z</time>
      </trkpt>
      <trkpt lat="47.32693" lon="1.13284">
        <ele>64.7</ele>
        <time>2020-07-03T09:54:27Z</time>
      </trkpt>
      <trkpt lat="47.32692" lon="1.13282">
        <ele>64.7</ele>
        <time>2020-07-03T09:54:28Z</time>
      </trkpt>
      <trkpt lat="47.32692" lon="1.13277">
        <ele>64.7</ele>
        <time>2020-07-03T09:54:29Z</time>
      </trkpt>
      <trkpt lat="47.32692" lon="1.13271">
        <ele>64.7</ele>
        <time>2020-07-03T09:54:30Z</time>
      </trkpt>
      <trkpt lat="47.32691" lon="1.13264">
        <ele>64.7</ele>
        <time>2020-07-03T09:54:31Z</time>
      </trkpt>
      <trkpt lat="47.32689" lon="1.13258">
        <ele>64.7</ele>
        <time>2020-07-03T09:54:32Z</time>
      </trkpt>
      <trkpt lat="47.32687" lon="1.13252">
        <ele>64.7</ele>
        <time>2020-07-03T09:54:33Z</time>
      </trkpt>
      <trkpt lat="47.32685" lon="1.13245">
        <ele>64.7</ele>
        <time>2020-07-03T09:54:34Z</time>
      </trkpt>
      <trkpt lat="47.32683" lon="1.13241">
        <ele>64.7</ele>
        <time>2020-07-03T09:54:35Z</time>
      </trkpt>
      <trkpt lat="47.32682" lon="1.13236">
        <ele>64.7</ele>
        <time>2020-07-03T09:54:36Z</time>
      </trkpt>
      <trkpt lat="47.32681" lon="1.13231">
        <ele>64.7</ele>
        <time>2020-07-03T09:54:37Z</time>
      </trkpt>
      <trkpt lat="47.32681" lon="1.13225">
        <ele>64.6</ele>
        <time>2020-07-03T09:54:38Z</time>
      </trkpt>
      <trkpt lat="47.3268" lon="1.13217">
        <ele>64.6</ele>
        <time>2020-07-03T09:54:39Z</time>
      </trkpt>
      <trkpt lat="47.32678" lon="1.13211">
        <ele>64.6</ele>
        <time>2020-07-03T09:54:40Z</time>
      </trkpt>
      <trkpt lat="47.32677" lon="1.13205">
        <ele>64.6</ele>
        <time>2020-07-03T09:54:41Z</time>
      </trkpt>
      <trkpt lat="47.32676" lon="1.13196">
        <ele>64.6</ele>
        <time>2020-07-03T09:54:42Z</time>
      </trkpt>
      <trkpt lat="47.32675" lon="1.13188">
        <ele>64.6</ele>
        <time>2020-07-03T09:54:43Z</time>
      </trkpt>
      <trkpt lat="47.32674" lon="1.13182">
        <ele>64.6</ele>
        <time>2020-07-03T09:54:44Z</time>
      </trkpt>
      <trkpt lat="47.32673" lon="1.13174">
        <ele>64.6</ele>
        <time>2020-07-03T09:54:45Z</time>
      </trkpt>
      <trkpt lat="47.32672" lon="1.13167">
        <ele>64.6</ele>
        <time>2020-07-03T09:54:46Z</time>
      </trkpt>
      <trkpt lat="47.3267" lon="1.13159">
        <ele>64.6</ele>
        <time>2020-07-03T09:54:47Z</time>
      </trkpt>
      <trkpt lat="47.32668" lon="1.13152">
        <ele>64.6</ele>
        <time>2020-07-03T09:54:48Z</time>
      </trkpt>
      <trkpt lat="47.32666" lon="1.13144">
        <ele>64.6</ele>
        <time>2020-07-03T09:54:49Z</time>
      </trkpt>
      <trkpt lat="47.32664" lon="1.13136">
        <ele>64.6</ele>
        <time>2020-07-03T09:54:50Z</time>
      </trkpt>
      <trkpt lat="47.32662" lon="1.13128">
        <ele>64.6</ele>
        <time>2020-07-03T09:54:51Z</time>
      </trkpt>
      <trkpt lat="47.3266" lon="1.1312">
        <ele>64.6</ele>
        <time>2020-07-03T09:54:52Z</time>
      </trkpt>
      <trkpt lat="47.32657" lon="1.13112">
        <ele>64.6</ele>
        <time>2020-07-03T09:54:53Z</time>
      </trkpt>
      <trkpt lat="47.32656" lon="1.13105">
        <ele>64.6</ele>
        <time>2020-07-03T09:54:54Z</time>
      </trkpt>
      <trkpt lat="47.32653" lon="1.13098">
        <ele>64.6</ele>
        <time>2020-07-03T09:54:55Z</time>
      </trkpt>
      <trkpt lat="47.32652" lon="1.13089">
        <ele>64.6</ele>
        <time>2020-07-03T09:54:56Z</time>
      </trkpt>
      <trkpt lat="47.32649" lon="1.13081">
        <ele>64.6</ele>
        <time>2020-07-03T09:54:57Z</time>
      </trkpt>
      <trkpt lat="47.32647" lon="1.13074">
        <ele>64.6</ele>
        <time>2020-07-03T09:54:58Z</time>
      </trkpt>
      <trkpt lat="47.32647" lon="1.1307">
        <ele>64.6</ele>
        <time>2020-07-03T09:54:59Z</time>
      </trkpt>
      <trkpt lat="47.32647" lon="1.13064">
        <ele>64.6</ele>
        <time>2020-07-03T09:55:00Z</time>
      </trkpt>
      <trkpt lat="47.32648" lon="1.13062">
        <ele>64.6</ele>
        <time>2020-07-03T09:55:01Z</time>
      </trkpt>
      <trkpt lat="47.32648" lon="1.13062">
        <ele>64.6</ele>
        <time>2020-07-03T09:55:02Z</time>
      </trkpt>
      <trkpt lat="47.32648" lon="1.13061">
        <ele>64.6</ele>
        <time>2020-07-03T09:55:03Z</time>
      </trkpt>
      <trkpt lat="47.32649" lon="1.13063">
        <ele>64.6</ele>
        <time>2020-07-03T09:55:04Z</time>
      </trkpt>
      <trkpt lat="47.32649" lon="1.13063">
        <ele>64.6</ele>
        <time>2020-07-03T09:55:05Z</time>
      </trkpt>
      <trkpt lat="47.32648" lon="1.13064">
        <ele>64.6</ele>
        <time>2020-07-03T09:55:06Z</time>
      </trkpt>
      <trkpt lat="47.32648" lon="1.13065">
        <ele>64.6</ele>
        <time>2020-07-03T09:55:07Z</time>
      </trkpt>
      <trkpt lat="47.32648" lon="1.13065">
        <ele>64.6</ele>
        <time>2020-07-03T09:55:08Z</time>
      </trkpt>
      <trkpt lat="47.32648" lon="1.13065">
        <ele>64.6</ele>
        <time>2020-07-03T09:55:09Z</time>
      </trkpt>
      <trkpt lat="47.32648" lon="1.13065">
        <ele>64.6</ele>
        <time>2020-07-03T09:55:10Z</time>
      </trkpt>
      <trkpt lat="47.32648" lon="1.13063">
        <ele>64.6</ele>
        <time>2020-07-03T09:55:11Z</time>
      </trkpt>
      <trkpt lat="47.32648" lon="1.13062">
        <ele>64.6</ele>
        <time>2020-07-03T09:55:12Z</time>
      </trkpt>
      <trkpt lat="47.32649" lon="1.13062">
        <ele>64.6</ele>
        <time>2020-07-03T09:55:13Z</time>
      </trkpt>
      <trkpt lat="47.32649" lon="1.13062">
        <ele>64.6</ele>
        <time>2020-07-03T09:55:14Z</time>
      </trkpt>
      <trkpt lat="47.32649" lon="1.13061">
        <ele>64.6</ele>
        <time>2020-07-03T09:55:15Z</time>
      </trkpt>
      <trkpt lat="47.32649" lon="1.13061">
        <ele>64.6</ele>
        <time>2020-07-03T09:55:16Z</time>
      </trkpt>
      <trkpt lat="47.32649" lon="1.13062">
        <ele>64.6</ele>
        <time>2020-07-03T09:55:17Z</time>
      </trkpt>
      <trkpt lat="47.32649" lon="1.13063">
        <ele>64.6</ele>
        <time>2020-07-03T09:55:18Z</time>
      </trkpt>
      <trkpt lat="47.32649" lon="1.13064">
        <ele>64.6</ele>
        <time>2020-07-03T09:55:19Z</time>
      </trkpt>
      <trkpt lat="47.3265" lon="1.13066">
        <ele>64.6</ele>
        <time>2020-07-03T09:55:20Z</time>
      </trkpt>
      <trkpt lat="47.3265" lon="1.13067">
        <ele>64.6</ele>
        <time>2020-07-03T09:55:21Z</time>
      </trkpt>
      <trkpt lat="47.3265" lon="1.13068">
        <ele>64.6</ele>
        <time>2020-07-03T09:55:22Z</time>
      </trkpt>
      <trkpt lat="47.32651" lon="1.13071">
        <ele>64.6</ele>
        <time>2020-07-03T09:55:23Z</time>
      </trkpt>
      <trkpt lat="47.32651" lon="1.13073">
        <ele>64.6</ele>
        <time>2020-07-03T09:55:24Z</time>
      </trkpt>
      <trkpt lat="47.32651" lon="1.13075">
        <ele>64.6</ele>
        <time>2020-07-03T09:55:25Z</time>
      </trkpt>
      <trkpt lat="47.32652" lon="1.13077">
        <ele>64.5</ele>
        <time>2020-07-03T09:55:26Z</time>
      </trkpt>
      <trkpt lat="47.32654" lon="1.13077">
        <ele>64.5</ele>
        <time>2020-07-03T09:55:27Z</time>
      </trkpt>
      <trkpt lat="47.32655" lon="1.13077">
        <ele>64.5</ele>
        <time>2020-07-03T09:55:28Z</time>
      </trkpt>
      <trkpt lat="47.32656" lon="1.13077">
        <ele>64.5</ele>
        <time>2020-07-03T09:55:29Z</time>
      </trkpt>
      <trkpt lat="47.32657" lon="1.13077">
        <ele>64.5</ele>
        <time>2020-07-03T09:55:30Z</time>
      </trkpt>
      <trkpt lat="47.32659" lon="1.13077">
        <ele>64.5</ele>
        <time>2020-07-03T09:55:31Z</time>
      </trkpt>
      <trkpt lat="47.3266" lon="1.13077">
        <ele>64.5</ele>
        <time>2020-07-03T09:55:32Z</time>
      </trkpt>
      <trkpt lat="47.32661" lon="1.13077">
        <ele>64.5</ele>
        <time>2020-07-03T09:55:33Z</time>
      </trkpt>
      <trkpt lat="47.32662" lon="1.13077">
        <ele>64.5</ele>
        <time>2020-07-03T09:55:34Z</time>
      </trkpt>
      <trkpt lat="47.32664" lon="1.13077">
        <ele>64.5</ele>
        <time>2020-07-03T09:55:35Z</time>
      </trkpt>
      <trkpt lat="47.32665" lon="1.13077">
        <ele>64.5</ele>
        <time>2020-07-03T09:55:36Z</time>
      </trkpt>
      <trkpt lat="47.32666" lon="1.13077">
        <ele>64.5</ele>
        <time>2020-07-03T09:56:19Z</time>
      </trkpt>
      <trkpt lat="47.32667" lon="1.13077">
        <ele>64.5</ele>
        <time>2020-07-03T09:56:20Z</time>
      </trkpt>
      <trkpt lat="47.32669" lon="1.13078">
        <ele>64.5</ele>
        <time>2020-07-03T09:56:21Z</time>
      </trkpt>
      <trkpt lat="47.3267" lon="1.13078">
        <ele>64.5</ele>
        <time>2020-07-03T09:56:22Z</time>
      </trkpt>
      <trkpt lat="47.32671" lon="1.13078">
        <ele>64.5</ele>
        <time>2020-07-03T09:56:23Z</time>
      </trkpt>
      <trkpt lat="47.32672" lon="1.13078">
        <ele>64.5</ele>
        <time>2020-07-03T09:56:24Z</time>
      </trkpt>
      <trkpt lat="47.32674" lon="1.13078">
        <ele>64.5</ele>
        <time>2020-07-03T09:56:25Z</time>
      </trkpt>
      <trkpt lat="47.32675" lon="1.13078">
        <ele>64.5</ele>
        <time>2020-07-03T09:56:26Z</time>
      </trkpt>
      <trkpt lat="47.32676" lon="1.13078">
        <ele>64.5</ele>
        <time>2020-07-03T09:56:27Z</time>
      </trkpt>
      <trkpt lat="47.32678" lon="1.1308">
        <ele>64.6</ele>
        <time>2020-07-03T09:56:28Z</time>
      </trkpt>
      <trkpt lat="47.32679" lon="1.13081">
        <ele>64.6</ele>
        <time>2020-07-03T09:56:29Z</time>
      </trkpt>
      <trkpt lat="47.3268" lon="1.13082">
        <ele>64.6</ele>
        <time>2020-07-03T09:56:30Z</time>
      </trkpt>
      <trkpt lat="47.32681" lon="1.13083">
        <ele>64.6</ele>
        <time>2020-07-03T09:56:31Z</time>
      </trkpt>
      <trkpt lat="47.32682" lon="1.13084">
        <ele>64.6</ele>
        <time>2020-07-03T09:56:32Z</time>
      </trkpt>
      <trkpt lat="47.32684" lon="1.13085">
        <ele>64.6</ele>
        <time>2020-07-03T09:56:33Z</time>
      </trkpt>
      <trkpt lat="47.32685" lon="1.13086">
        <ele>64.6</ele>
        <time>2020-07-03T09:56:34Z</time>
      </trkpt>
      <trkpt lat="47.32686" lon="1.13087">
        <ele>64.6</ele>
        <time>2020-07-03T09:56:35Z</time>
      </trkpt>
      <trkpt lat="47.32687" lon="1.13088">
        <ele>64.6</ele>
        <time>2020-07-03T09:56:36Z</time>
      </trkpt>
      <trkpt lat="47.32688" lon="1.13089">
        <ele>64.6</ele>
        <time>2020-07-03T09:56:37Z</time>
      </trkpt>
      <trkpt lat="47.32689" lon="1.1309">
        <ele>64.6</ele>
        <time>2020-07-03T09:56:38Z</time>
      </trkpt>
      <trkpt lat="47.3269" lon="1.13091">
        <ele>64.6</ele>
        <time>2020-07-03T09:56:40Z</time>
      </trkpt>
      <trkpt lat="47.32692" lon="1.13095">
        <ele>64.6</ele>
        <time>2020-07-03T09:56:41Z</time>
      </trkpt>
      <trkpt lat="47.32693" lon="1.13096">
        <ele>64.5</ele>
        <time>2020-07-03T09:56:42Z</time>
      </trkpt>
      <trkpt lat="47.32694" lon="1.13097">
        <ele>64.5</ele>
        <time>2020-07-03T09:56:43Z</time>
      </trkpt>
      <trkpt lat="47.32694" lon="1.13099">
        <ele>64.5</ele>
        <time>2020-07-03T09:56:44Z</time>
      </trkpt>
      <trkpt lat="47.32695" lon="1.13099">
        <ele>64.5</ele>
        <time>2020-07-03T09:56:45Z</time>
      </trkpt>
      <trkpt lat="47.32694" lon="1.13098">
        <ele>64.5</ele>
        <time>2020-07-03T09:56:46Z</time>
      </trkpt>
      <trkpt lat="47.32694" lon="1.13098">
        <ele>64.5</ele>
        <time>2020-07-03T09:56:47Z</time>
      </trkpt>
      <trkpt lat="47.32694" lon="1.13098">
        <ele>64.5</ele>
        <time>2020-07-03T09:56:48Z</time>
      </trkpt>
      <trkpt lat="47.32694" lon="1.13098">
        <ele>64.5</ele>
        <time>2020-07-03T09:56:49Z</time>
      </trkpt>
      <trkpt lat="47.32693" lon="1.13098">
        <ele>64.5</ele>
        <time>2020-07-03T09:56:50Z</time>
      </trkpt>
      <trkpt lat="47.32694" lon="1.13099">
        <ele>64.5</ele>
        <time>2020-07-03T09:56:51Z</time>
      </trkpt>
      <trkpt lat="47.32694" lon="1.131">
        <ele>64.5</ele>
        <time>2020-07-03T09:56:52Z</time>
      </trkpt>
      <trkpt lat="47.32692" lon="1.13099">
        <ele>64.5</ele>
        <time>2020-07-03T09:56:53Z</time>
      </trkpt>
      <trkpt lat="47.32692" lon="1.131">
        <ele>64.5</ele>
        <time>2020-07-03T09:56:54Z</time>
      </trkpt>
      <trkpt lat="47.32692" lon="1.131">
        <ele>64.5</ele>
        <time>2020-07-03T09:56:55Z</time>
      </trkpt>
      <trkpt lat="47.32691" lon="1.13099">
        <ele>64.5</ele>
        <time>2020-07-03T09:56:56Z</time>
      </trkpt>
      <trkpt lat="47.32689" lon="1.13097">
        <ele>64.5</ele>
        <time>2020-07-03T09:56:57Z</time>
      </trkpt>
      <trkpt lat="47.32686" lon="1.13094">
        <ele>64.5</ele>
        <time>2020-07-03T09:56:58Z</time>
      </trkpt>
      <trkpt lat="47.32685" lon="1.13092">
        <ele>64.5</ele>
        <time>2020-07-03T09:56:59Z</time>
      </trkpt>
      <trkpt lat="47.32684" lon="1.13092">
        <ele>64.5</ele>
        <time>2020-07-03T09:57:00Z</time>
      </trkpt>
      <trkpt lat="47.32684" lon="1.13091">
        <ele>64.5</ele>
        <time>2020-07-03T09:57:01Z</time>
      </trkpt>
      <trkpt lat="47.32682" lon="1.13092">
        <ele>64.5</ele>
        <time>2020-07-03T09:57:02Z</time>
      </trkpt>
      <trkpt lat="47.3268" lon="1.13092">
        <ele>64.5</ele>
        <time>2020-07-03T09:57:03Z</time>
      </trkpt>
      <trkpt lat="47.32678" lon="1.13091">
        <ele>64.5</ele>
        <time>2020-07-03T09:57:04Z</time>
      </trkpt>
      <trkpt lat="47.32676" lon="1.13089">
        <ele>64.5</ele>
        <time>2020-07-03T09:57:05Z</time>
      </trkpt>
      <trkpt lat="47.32674" lon="1.1309">
        <ele>64.5</ele>
        <time>2020-07-03T09:57:06Z</time>
      </trkpt>
      <trkpt lat="47.32673" lon="1.1309">
        <ele>64.5</ele>
        <time>2020-07-03T09:57:07Z</time>
      </trkpt>
      <trkpt lat="47.32672" lon="1.13089">
        <ele>64.5</ele>
        <time>2020-07-03T09:57:08Z</time>
      </trkpt>
      <trkpt lat="47.32671" lon="1.13089">
        <ele>64.5</ele>
        <time>2020-07-03T09:57:09Z</time>
      </trkpt>
      <trkpt lat="47.3267" lon="1.13089">
        <ele>64.5</ele>
        <time>2020-07-03T09:57:10Z</time>
      </trkpt>
      <trkpt lat="47.3267" lon="1.13089">
        <ele>64.5</ele>
        <time>2020-07-03T09:57:11Z</time>
      </trkpt>
      <trkpt lat="47.3267" lon="1.13089">
        <ele>64.5</ele>
        <time>2020-07-03T09:57:12Z</time>
      </trkpt>
      <trkpt lat="47.3267" lon="1.13089">
        <ele>64.5</ele>
        <time>2020-07-03T09:57:13Z</time>
      </trkpt>
      <trkpt lat="47.32667" lon="1.1309">
        <ele>64.5</ele>
        <time>2020-07-03T09:57:14Z</time>
      </trkpt>
      <trkpt lat="47.32664" lon="1.13091">
        <ele>64.5</ele>
        <time>2020-07-03T09:57:15Z</time>
      </trkpt>
      <trkpt lat="47.32663" lon="1.13092">
        <ele>64.5</ele>
        <time>2020-07-03T09:57:16Z</time>
      </trkpt>
      <trkpt lat="47.32662" lon="1.13092">
        <ele>64.5</ele>
        <time>2020-07-03T09:57:17Z</time>
      </trkpt>
      <trkpt lat="47.32661" lon="1.13092">
        <ele>64.5</ele>
        <time>2020-07-03T09:57:18Z</time>
      </trkpt>
      <trkpt lat="47.32655" lon="1.13084">
        <ele>64.5</ele>
        <time>2020-07-03T09:57:31Z</time>
      </trkpt>
      <trkpt lat="47.32654" lon="1.13082">
        <ele>64.5</ele>
        <time>2020-07-03T09:57:32Z</time>
      </trkpt>
      <trkpt lat="47.32652" lon="1.13077">
        <ele>64.5</ele>
        <time>2020-07-03T09:57:33Z</time>
      </trkpt>
      <trkpt lat="47.32651" lon="1.13075">
        <ele>64.5</ele>
        <time>2020-07-03T09:57:34Z</time>
      </trkpt>
      <trkpt lat="47.32649" lon="1.1307">
        <ele>64.5</ele>
        <time>2020-07-03T09:57:35Z</time>
      </trkpt>
      <trkpt lat="47.32648" lon="1.13064">
        <ele>64.4</ele>
        <time>2020-07-03T09:57:36Z</time>
      </trkpt>
      <trkpt lat="47.32646" lon="1.1306">
        <ele>64.4</ele>
        <time>2020-07-03T09:57:37Z</time>
      </trkpt>
      <trkpt lat="47.32645" lon="1.13054">
        <ele>64.4</ele>
        <time>2020-07-03T09:57:38Z</time>
      </trkpt>
      <trkpt lat="47.32644" lon="1.13049">
        <ele>64.4</ele>
        <time>2020-07-03T09:57:39Z</time>
      </trkpt>
      <trkpt lat="47.32642" lon="1.13045">
        <ele>64.4</ele>
        <time>2020-07-03T09:57:40Z</time>
      </trkpt>
      <trkpt lat="47.32641" lon="1.13041">
        <ele>64.4</ele>
        <time>2020-07-03T09:57:41Z</time>
      </trkpt>
      <trkpt lat="47.3264" lon="1.13036">
        <ele>64.5</ele>
        <time>2020-07-03T09:57:42Z</time>
      </trkpt>
      <trkpt lat="47.3264" lon="1.13031">
        <ele>64.5</ele>
        <time>2020-07-03T09:57:43Z</time>
      </trkpt>
      <trkpt lat="47.32638" lon="1.13026">
        <ele>64.5</ele>
        <time>2020-07-03T09:57:44Z</time>
      </trkpt>
      <trkpt lat="47.32636" lon="1.1302">
        <ele>64.5</ele>
        <time>2020-07-03T09:57:45Z</time>
      </trkpt>
      <trkpt lat="47.32634" lon="1.13015">
        <ele>64.5</ele>
        <time>2020-07-03T09:57:46Z</time>
      </trkpt>
      <trkpt lat="47.32633" lon="1.13008">
        <ele>64.5</ele>
        <time>2020-07-03T09:57:47Z</time>
      </trkpt>
      <trkpt lat="47.32631" lon="1.13">
        <ele>64.5</ele>
        <time>2020-07-03T09:57:48Z</time>
      </trkpt>
      <trkpt lat="47.32629" lon="1.12993">
        <ele>64.5</ele>
        <time>2020-07-03T09:57:49Z</time>
      </trkpt>
      <trkpt lat="47.32628" lon="1.12985">
        <ele>64.5</ele>
        <time>2020-07-03T09:57:50Z</time>
      </trkpt>
      <trkpt lat="47.32626" lon="1.12977">
        <ele>64.5</ele>
        <time>2020-07-03T09:57:51Z</time>
      </trkpt>
      <trkpt lat="47.32623" lon="1.12969">
        <ele>64.5</ele>
        <time>2020-07-03T09:57:52Z</time>
      </trkpt>
      <trkpt lat="47.32622" lon="1.12962">
        <ele>64.5</ele>
        <time>2020-07-03T09:57:53Z</time>
      </trkpt>
      <trkpt lat="47.3262" lon="1.12953">
        <ele>64.5</ele>
        <time>2020-07-03T09:57:54Z</time>
      </trkpt>
      <trkpt lat="47.32618" lon="1.12945">
        <ele>64.5</ele>
        <time>2020-07-03T09:57:55Z</time>
      </trkpt>
      <trkpt lat="47.32616" lon="1.12937">
        <ele>64.5</ele>
        <time>2020-07-03T09:57:56Z</time>
      </trkpt>
      <trkpt lat="47.32613" lon="1.12928">
        <ele>64.5</ele>
        <time>2020-07-03T09:57:57Z</time>
      </trkpt>
      <trkpt lat="47.32612" lon="1.12919">
        <ele>64.5</ele>
        <time>2020-07-03T09:57:58Z</time>
      </trkpt>
      <trkpt lat="47.3261" lon="1.12911">
        <ele>64.5</ele>
        <time>2020-07-03T09:57:59Z</time>
      </trkpt>
      <trkpt lat="47.32608" lon="1.12903">
        <ele>64.4</ele>
        <time>2020-07-03T09:58:00Z</time>
      </trkpt>
      <trkpt lat="47.32606" lon="1.12894">
        <ele>64.4</ele>
        <time>2020-07-03T09:58:01Z</time>
      </trkpt>
      <trkpt lat="47.32604" lon="1.12885">
        <ele>64.4</ele>
        <time>2020-07-03T09:58:02Z</time>
      </trkpt>
      <trkpt lat="47.32602" lon="1.12877">
        <ele>64.4</ele>
        <time>2020-07-03T09:58:03Z</time>
      </trkpt>
      <trkpt lat="47.32599" lon="1.12868">
        <ele>64.4</ele>
        <time>2020-07-03T09:58:04Z</time>
      </trkpt>
      <trkpt lat="47.32596" lon="1.12857">
        <ele>64.4</ele>
        <time>2020-07-03T09:58:05Z</time>
      </trkpt>
      <trkpt lat="47.32594" lon="1.12848">
        <ele>64.4</ele>
        <time>2020-07-03T09:58:06Z</time>
      </trkpt>
      <trkpt lat="47.32591" lon="1.12839">
        <ele>64.4</ele>
        <time>2020-07-03T09:58:07Z</time>
      </trkpt>
      <trkpt lat="47.32589" lon="1.12828">
        <ele>64.4</ele>
        <time>2020-07-03T09:58:08Z</time>
      </trkpt>
      <trkpt lat="47.32587" lon="1.12819">
        <ele>64.4</ele>
        <time>2020-07-03T09:58:09Z</time>
      </trkpt>
      <trkpt lat="47.32585" lon="1.1281">
        <ele>64.5</ele>
        <time>2020-07-03T09:58:10Z</time>
      </trkpt>
      <trkpt lat="47.32582" lon="1.12801">
        <ele>64.5</ele>
        <time>2020-07-03T09:58:11Z</time>
      </trkpt>
      <trkpt lat="47.3258" lon="1.12791">
        <ele>64.5</ele>
        <time>2020-07-03T09:58:12Z</time>
      </trkpt>
      <trkpt lat="47.32577" lon="1.12782">
        <ele>64.5</ele>
        <time>2020-07-03T09:58:13Z</time>
      </trkpt>
      <trkpt lat="47.32575" lon="1.12772">
        <ele>64.5</ele>
        <time>2020-07-03T09:58:14Z</time>
      </trkpt>
      <trkpt lat="47.32572" lon="1.12763">
        <ele>64.5</ele>
        <time>2020-07-03T09:58:15Z</time>
      </trkpt>
      <trkpt lat="47.3257" lon="1.12753">
        <ele>64.5</ele>
        <time>2020-07-03T09:58:16Z</time>
      </trkpt>
      <trkpt lat="47.32568" lon="1.12744">
        <ele>64.5</ele>
        <time>2020-07-03T09:58:17Z</time>
      </trkpt>
      <trkpt lat="47.32565" lon="1.12735">
        <ele>64.6</ele>
        <time>2020-07-03T09:58:18Z</time>
      </trkpt>
      <trkpt lat="47.32562" lon="1.12725">
        <ele>64.6</ele>
        <time>2020-07-03T09:58:19Z</time>
      </trkpt>
      <trkpt lat="47.3256" lon="1.12716">
        <ele>64.6</ele>
        <time>2020-07-03T09:58:20Z</time>
      </trkpt>
      <trkpt lat="47.32557" lon="1.12706">
        <ele>64.7</ele>
        <time>2020-07-03T09:58:21Z</time>
      </trkpt>
      <trkpt lat="47.32556" lon="1.12697">
        <ele>64.7</ele>
        <time>2020-07-03T09:58:22Z</time>
      </trkpt>
      <trkpt lat="47.32554" lon="1.12688">
        <ele>64.7</ele>
        <time>2020-07-03T09:58:23Z</time>
      </trkpt>
      <trkpt lat="47.32552" lon="1.1268">
        <ele>64.7</ele>
        <time>2020-07-03T09:58:24Z</time>
      </trkpt>
      <trkpt lat="47.3255" lon="1.12671">
        <ele>64.7</ele>
        <time>2020-07-03T09:58:25Z</time>
      </trkpt>
      <trkpt lat="47.32548" lon="1.12662">
        <ele>64.7</ele>
        <time>2020-07-03T09:58:26Z</time>
      </trkpt>
      <trkpt lat="47.32546" lon="1.12653">
        <ele>64.7</ele>
        <time>2020-07-03T09:58:27Z</time>
      </trkpt>
      <trkpt lat="47.32544" lon="1.12645">
        <ele>64.7</ele>
        <time>2020-07-03T09:58:28Z</time>
      </trkpt>
      <trkpt lat="47.32542" lon="1.12636">
        <ele>64.7</ele>
        <time>2020-07-03T09:58:29Z</time>
      </trkpt>
      <trkpt lat="47.32541" lon="1.12627">
        <ele>64.7</ele>
        <time>2020-07-03T09:58:30Z</time>
      </trkpt>
      <trkpt lat="47.32539" lon="1.1262">
        <ele>64.8</ele>
        <time>2020-07-03T09:58:31Z</time>
      </trkpt>
      <trkpt lat="47.32537" lon="1.12612">
        <ele>64.8</ele>
        <time>2020-07-03T09:58:32Z</time>
      </trkpt>
      <trkpt lat="47.32535" lon="1.12603">
        <ele>64.8</ele>
        <time>2020-07-03T09:58:33Z</time>
      </trkpt>
      <trkpt lat="47.32533" lon="1.12594">
        <ele>64.8</ele>
        <time>2020-07-03T09:58:34Z</time>
      </trkpt>
      <trkpt lat="47.32531" lon="1.12586">
        <ele>64.9</ele>
        <time>2020-07-03T09:58:35Z</time>
      </trkpt>
      <trkpt lat="47.32528" lon="1.12578">
        <ele>64.9</ele>
        <time>2020-07-03T09:58:36Z</time>
      </trkpt>
      <trkpt lat="47.32525" lon="1.1257">
        <ele>64.9</ele>
        <time>2020-07-03T09:58:37Z</time>
      </trkpt>
      <trkpt lat="47.32523" lon="1.12562">
        <ele>64.9</ele>
        <time>2020-07-03T09:58:38Z</time>
      </trkpt>
      <trkpt lat="47.32521" lon="1.12555">
        <ele>64.9</ele>
        <time>2020-07-03T09:58:39Z</time>
      </trkpt>
      <trkpt lat="47.32518" lon="1.12548">
        <ele>65</ele>
        <time>2020-07-03T09:58:40Z</time>
      </trkpt>
      <trkpt lat="47.32517" lon="1.12544">
        <ele>65</ele>
        <time>2020-07-03T09:58:41Z</time>
      </trkpt>
      <trkpt lat="47.32515" lon="1.12539">
        <ele>65</ele>
        <time>2020-07-03T09:58:42Z</time>
      </trkpt>
      <trkpt lat="47.32514" lon="1.12534">
        <ele>65</ele>
        <time>2020-07-03T09:58:43Z</time>
      </trkpt>
      <trkpt lat="47.32512" lon="1.12529">
        <ele>65</ele>
        <time>2020-07-03T09:58:44Z</time>
      </trkpt>
      <trkpt lat="47.3251" lon="1.12526">
        <ele>65</ele>
        <time>2020-07-03T09:58:45Z</time>
      </trkpt>
      <trkpt lat="47.32508" lon="1.12521">
        <ele>65</ele>
        <time>2020-07-03T09:58:46Z</time>
      </trkpt>
      <trkpt lat="47.32507" lon="1.12511">
        <ele>65</ele>
        <time>2020-07-03T09:58:47Z</time>
      </trkpt>
      <trkpt lat="47.32506" lon="1.12506">
        <ele>65</ele>
        <time>2020-07-03T09:58:48Z</time>
      </trkpt>
      <trkpt lat="47.32505" lon="1.12502">
        <ele>65</ele>
        <time>2020-07-03T09:58:49Z</time>
      </trkpt>
      <trkpt lat="47.32504" lon="1.12499">
        <ele>65</ele>
        <time>2020-07-03T09:58:50Z</time>
      </trkpt>
      <trkpt lat="47.32504" lon="1.12497">
        <ele>65</ele>
        <time>2020-07-03T09:58:51Z</time>
      </trkpt>
      <trkpt lat="47.32506" lon="1.12493">
        <ele>65.1</ele>
        <time>2020-07-03T09:58:52Z</time>
      </trkpt>
      <trkpt lat="47.32507" lon="1.12489">
        <ele>65</ele>
        <time>2020-07-03T09:58:53Z</time>
      </trkpt>
      <trkpt lat="47.3251" lon="1.12485">
        <ele>64.8</ele>
        <time>2020-07-03T09:58:54Z</time>
      </trkpt>
      <trkpt lat="47.32512" lon="1.12483">
        <ele>64.7</ele>
        <time>2020-07-03T09:58:55Z</time>
      </trkpt>
      <trkpt lat="47.32515" lon="1.12482">
        <ele>64.6</ele>
        <time>2020-07-03T09:58:56Z</time>
      </trkpt>
      <trkpt lat="47.32517" lon="1.1248">
        <ele>64.4</ele>
        <time>2020-07-03T09:58:57Z</time>
      </trkpt>
      <trkpt lat="47.3252" lon="1.12478">
        <ele>64.3</ele>
        <time>2020-07-03T09:58:58Z</time>
      </trkpt>
      <trkpt lat="47.32522" lon="1.12475">
        <ele>64.2</ele>
        <time>2020-07-03T09:58:59Z</time>
      </trkpt>
      <trkpt lat="47.32525" lon="1.12471">
        <ele>64</ele>
        <time>2020-07-03T09:59:00Z</time>
      </trkpt>
      <trkpt lat="47.32527" lon="1.12468">
        <ele>63.8</ele>
        <time>2020-07-03T09:59:01Z</time>
      </trkpt>
      <trkpt lat="47.32531" lon="1.12465">
        <ele>63.6</ele>
        <time>2020-07-03T09:59:02Z</time>
      </trkpt>
      <trkpt lat="47.32532" lon="1.12464">
        <ele>63.6</ele>
        <time>2020-07-03T09:59:03Z</time>
      </trkpt>
      <trkpt lat="47.32535" lon="1.1246">
        <ele>63.4</ele>
        <time>2020-07-03T09:59:04Z</time>
      </trkpt>
      <trkpt lat="47.32537" lon="1.12455">
        <ele>63.2</ele>
        <time>2020-07-03T09:59:05Z</time>
      </trkpt>
      <trkpt lat="47.3254" lon="1.1245">
        <ele>63</ele>
        <time>2020-07-03T09:59:06Z</time>
      </trkpt>
      <trkpt lat="47.32543" lon="1.12446">
        <ele>62.8</ele>
        <time>2020-07-03T09:59:07Z</time>
      </trkpt>
      <trkpt lat="47.32545" lon="1.12442">
        <ele>62.7</ele>
        <time>2020-07-03T09:59:08Z</time>
      </trkpt>
      <trkpt lat="47.32548" lon="1.12439">
        <ele>62.7</ele>
        <time>2020-07-03T09:59:09Z</time>
      </trkpt>
      <trkpt lat="47.32552" lon="1.12438">
        <ele>62.6</ele>
        <time>2020-07-03T09:59:10Z</time>
      </trkpt>
      <trkpt lat="47.32556" lon="1.1244">
        <ele>62.5</ele>
        <time>2020-07-03T09:59:11Z</time>
      </trkpt>
      <trkpt lat="47.3256" lon="1.12443">
        <ele>62.4</ele>
        <time>2020-07-03T09:59:12Z</time>
      </trkpt>
      <trkpt lat="47.32563" lon="1.12448">
        <ele>62.6</ele>
        <time>2020-07-03T09:59:13Z</time>
      </trkpt>
      <trkpt lat="47.32565" lon="1.12452">
        <ele>62.8</ele>
        <time>2020-07-03T09:59:14Z</time>
      </trkpt>
      <trkpt lat="47.32567" lon="1.12456">
        <ele>62.9</ele>
        <time>2020-07-03T09:59:15Z</time>
      </trkpt>
      <trkpt lat="47.32567" lon="1.12462">
        <ele>62.9</ele>
        <time>2020-07-03T09:59:16Z</time>
      </trkpt>
      <trkpt lat="47.32569" lon="1.12467">
        <ele>62.9</ele>
        <time>2020-07-03T09:59:17Z</time>
      </trkpt>
      <trkpt lat="47.3257" lon="1.12472">
        <ele>63</ele>
        <time>2020-07-03T09:59:18Z</time>
      </trkpt>
      <trkpt lat="47.32572" lon="1.12476">
        <ele>63</ele>
        <time>2020-07-03T09:59:19Z</time>
      </trkpt>
      <trkpt lat="47.32573" lon="1.12481">
        <ele>63</ele>
        <time>2020-07-03T09:59:20Z</time>
      </trkpt>
      <trkpt lat="47.32574" lon="1.12485">
        <ele>63</ele>
        <time>2020-07-03T09:59:21Z</time>
      </trkpt>
      <trkpt lat="47.32575" lon="1.12487">
        <ele>63</ele>
        <time>2020-07-03T09:59:22Z</time>
      </trkpt>
      <trkpt lat="47.32576" lon="1.12488">
        <ele>63</ele>
        <time>2020-07-03T09:59:23Z</time>
      </trkpt>
      <trkpt lat="47.32576" lon="1.12488">
        <ele>63.1</ele>
        <time>2020-07-03T09:59:24Z</time>
      </trkpt>
      <trkpt lat="47.32577" lon="1.12489">
        <ele>63.1</ele>
        <time>2020-07-03T09:59:25Z</time>
      </trkpt>
      <trkpt lat="47.32578" lon="1.12489">
        <ele>63.1</ele>
        <time>2020-07-03T09:59:26Z</time>
      </trkpt>
      <trkpt lat="47.32579" lon="1.12489">
        <ele>63.1</ele>
        <time>2020-07-03T09:59:27Z</time>
      </trkpt>
      <trkpt lat="47.3258" lon="1.12489">
        <ele>63.1</ele>
        <time>2020-07-03T09:59:28Z</time>
      </trkpt>
      <trkpt lat="47.32581" lon="1.12489">
        <ele>63.1</ele>
        <time>2020-07-03T09:59:29Z</time>
      </trkpt>
      <trkpt lat="47.32584" lon="1.12488">
        <ele>63.1</ele>
        <time>2020-07-03T09:59:30Z</time>
      </trkpt>
      <trkpt lat="47.32585" lon="1.12488">
        <ele>63.1</ele>
        <time>2020-07-03T09:59:31Z</time>
      </trkpt>
      <trkpt lat="47.32589" lon="1.12487">
        <ele>63.2</ele>
        <time>2020-07-03T09:59:32Z</time>
      </trkpt>
      <trkpt lat="47.32591" lon="1.12487">
        <ele>63.2</ele>
        <time>2020-07-03T09:59:33Z</time>
      </trkpt>
      <trkpt lat="47.32594" lon="1.12487">
        <ele>63.2</ele>
        <time>2020-07-03T09:59:34Z</time>
      </trkpt>
      <trkpt lat="47.32595" lon="1.12487">
        <ele>63.2</ele>
        <time>2020-07-03T09:59:35Z</time>
      </trkpt>
      <trkpt lat="47.32598" lon="1.12489">
        <ele>63.2</ele>
        <time>2020-07-03T09:59:36Z</time>
      </trkpt>
      <trkpt lat="47.32599" lon="1.1249">
        <ele>63.2</ele>
        <time>2020-07-03T09:59:37Z</time>
      </trkpt>
      <trkpt lat="47.326" lon="1.12492">
        <ele>63.2</ele>
        <time>2020-07-03T09:59:38Z</time>
      </trkpt>
      <trkpt lat="47.32601" lon="1.12494">
        <ele>63.3</ele>
        <time>2020-07-03T09:59:39Z</time>
      </trkpt>
      <trkpt lat="47.32601" lon="1.12495">
        <ele>63.3</ele>
        <time>2020-07-03T09:59:40Z</time>
      </trkpt>
      <trkpt lat="47.32602" lon="1.12495">
        <ele>63.3</ele>
        <time>2020-07-03T09:59:41Z</time>
      </trkpt>
      <trkpt lat="47.32603" lon="1.12495">
        <ele>63.3</ele>
        <time>2020-07-03T09:59:42Z</time>
      </trkpt>
      <trkpt lat="47.32603" lon="1.12496">
        <ele>63.3</ele>
        <time>2020-07-03T09:59:43Z</time>
      </trkpt>
      <trkpt lat="47.32604" lon="1.12497">
        <ele>63.3</ele>
        <time>2020-07-03T09:59:44Z</time>
      </trkpt>
      <trkpt lat="47.32604" lon="1.12496">
        <ele>63.3</ele>
        <time>2020-07-03T09:59:45Z</time>
      </trkpt>
      <trkpt lat="47.32605" lon="1.12496">
        <ele>63.3</ele>
        <time>2020-07-03T09:59:46Z</time>
      </trkpt>
      <trkpt lat="47.32605" lon="1.12497">
        <ele>63.3</ele>
        <time>2020-07-03T09:59:47Z</time>
      </trkpt>
      <trkpt lat="47.32606" lon="1.12498">
        <ele>63.3</ele>
        <time>2020-07-03T09:59:48Z</time>
      </trkpt>
      <trkpt lat="47.32606" lon="1.12498">
        <ele>63.3</ele>
        <time>2020-07-03T09:59:49Z</time>
      </trkpt>
      <trkpt lat="47.32606" lon="1.12498">
        <ele>63.3</ele>
        <time>2020-07-03T09:59:50Z</time>
      </trkpt>
      <trkpt lat="47.32606" lon="1.12498">
        <ele>63.3</ele>
        <time>2020-07-03T09:59:51Z</time>
      </trkpt>
      <trkpt lat="47.32606" lon="1.12498">
        <ele>63.3</ele>
        <time>2020-07-03T09:59:52Z</time>
      </trkpt>
      <trkpt lat="47.32606" lon="1.1249">
        <ele>63.4</ele>
        <time>2020-07-03T10:02:57Z</time>
      </trkpt>
      <trkpt lat="47.32604" lon="1.1249">
        <ele>63.4</ele>
        <time>2020-07-03T10:02:58Z</time>
      </trkpt>
      <trkpt lat="47.32604" lon="1.12491">
        <ele>63.4</ele>
        <time>2020-07-03T10:02:59Z</time>
      </trkpt>
      <trkpt lat="47.32605" lon="1.1249">
        <ele>63.4</ele>
        <time>2020-07-03T10:03:00Z</time>
      </trkpt>
      <trkpt lat="47.32605" lon="1.12489">
        <ele>63.4</ele>
        <time>2020-07-03T10:03:01Z</time>
      </trkpt>
      <trkpt lat="47.32606" lon="1.12486">
        <ele>63.4</ele>
        <time>2020-07-03T10:03:02Z</time>
      </trkpt>
      <trkpt lat="47.32606" lon="1.1248">
        <ele>63.5</ele>
        <time>2020-07-03T10:03:03Z</time>
      </trkpt>
      <trkpt lat="47.32606" lon="1.12478">
        <ele>63.4</ele>
        <time>2020-07-03T10:03:04Z</time>
      </trkpt>
      <trkpt lat="47.32607" lon="1.12474">
        <ele>63.4</ele>
        <time>2020-07-03T10:03:05Z</time>
      </trkpt>
      <trkpt lat="47.32607" lon="1.12472">
        <ele>63.4</ele>
        <time>2020-07-03T10:03:06Z</time>
      </trkpt>
      <trkpt lat="47.32607" lon="1.12469">
        <ele>63.4</ele>
        <time>2020-07-03T10:03:07Z</time>
      </trkpt>
      <trkpt lat="47.32607" lon="1.12468">
        <ele>63.4</ele>
        <time>2020-07-03T10:03:08Z</time>
      </trkpt>
      <trkpt lat="47.32607" lon="1.12467">
        <ele>63.4</ele>
        <time>2020-07-03T10:03:09Z</time>
      </trkpt>
      <trkpt lat="47.32607" lon="1.12464">
        <ele>63.4</ele>
        <time>2020-07-03T10:03:10Z</time>
      </trkpt>
      <trkpt lat="47.32607" lon="1.12462">
        <ele>63.4</ele>
        <time>2020-07-03T10:03:11Z</time>
      </trkpt>
      <trkpt lat="47.32607" lon="1.1246">
        <ele>63.4</ele>
        <time>2020-07-03T10:03:12Z</time>
      </trkpt>
      <trkpt lat="47.32606" lon="1.12458">
        <ele>63.4</ele>
        <time>2020-07-03T10:03:13Z</time>
      </trkpt>
      <trkpt lat="47.32606" lon="1.12456">
        <ele>63.3</ele>
        <time>2020-07-03T10:03:14Z</time>
      </trkpt>
      <trkpt lat="47.32606" lon="1.12454">
        <ele>63.3</ele>
        <time>2020-07-03T10:03:15Z</time>
      </trkpt>
      <trkpt lat="47.32605" lon="1.12451">
        <ele>63.3</ele>
        <time>2020-07-03T10:03:16Z</time>
      </trkpt>
      <trkpt lat="47.32605" lon="1.1245">
        <ele>63.3</ele>
        <time>2020-07-03T10:03:17Z</time>
      </trkpt>
      <trkpt lat="47.32604" lon="1.12448">
        <ele>63.3</ele>
        <time>2020-07-03T10:03:18Z</time>
      </trkpt>
      <trkpt lat="47.32604" lon="1.12446">
        <ele>63.3</ele>
        <time>2020-07-03T10:03:19Z</time>
      </trkpt>
      <trkpt lat="47.32604" lon="1.12445">
        <ele>63.3</ele>
        <time>2020-07-03T10:03:20Z</time>
      </trkpt>
      <trkpt lat="47.32603" lon="1.12445">
        <ele>63.3</ele>
        <time>2020-07-03T10:03:21Z</time>
      </trkpt>
      <trkpt lat="47.32603" lon="1.12444">
        <ele>63.3</ele>
        <time>2020-07-03T10:03:22Z</time>
      </trkpt>
      <trkpt lat="47.32603" lon="1.12444">
        <ele>63.3</ele>
        <time>2020-07-03T10:03:23Z</time>
      </trkpt>
      <trkpt lat="47.32603" lon="1.12444">
        <ele>63.3</ele>
        <time>2020-07-03T10:03:24Z</time>
      </trkpt>
      <trkpt lat="47.32603" lon="1.12443">
        <ele>63.3</ele>
        <time>2020-07-03T10:03:25Z</time>
      </trkpt>
      <trkpt lat="47.32602" lon="1.12442">
        <ele>63.3</ele>
        <time>2020-07-03T10:03:26Z</time>
      </trkpt>
      <trkpt lat="47.32601" lon="1.12441">
        <ele>63.3</ele>
        <time>2020-07-03T10:03:27Z</time>
      </trkpt>
      <trkpt lat="47.32601" lon="1.12441">
        <ele>63.3</ele>
        <time>2020-07-03T10:03:28Z</time>
      </trkpt>
      <trkpt lat="47.32601" lon="1.1244">
        <ele>63.3</ele>
        <time>2020-07-03T10:03:29Z</time>
      </trkpt>
      <trkpt lat="47.32601" lon="1.1244">
        <ele>63.3</ele>
        <time>2020-07-03T10:03:30Z</time>
      </trkpt>
      <trkpt lat="47.32601" lon="1.1244">
        <ele>63.3</ele>
        <time>2020-07-03T10:03:31Z</time>
      </trkpt>
      <trkpt lat="47.32601" lon="1.1244">
        <ele>63.3</ele>
        <time>2020-07-03T10:03:32Z</time>
      </trkpt>
      <trkpt lat="47.326" lon="1.1244">
        <ele>63.3</ele>
        <time>2020-07-03T10:03:33Z</time>
      </trkpt>
      <trkpt lat="47.326" lon="1.12439">
        <ele>63.3</ele>
        <time>2020-07-03T10:03:34Z</time>
      </trkpt>
      <trkpt lat="47.32601" lon="1.1244">
        <ele>63.3</ele>
        <time>2020-07-03T10:03:35Z</time>
      </trkpt>
      <trkpt lat="47.32601" lon="1.1244">
        <ele>63.3</ele>
        <time>2020-07-03T10:03:36Z</time>
      </trkpt>
      <trkpt lat="47.32602" lon="1.1244">
        <ele>63.2</ele>
        <time>2020-07-03T10:03:37Z</time>
      </trkpt>
      <trkpt lat="47.32602" lon="1.1244">
        <ele>63.2</ele>
        <time>2020-07-03T10:03:38Z</time>
      </trkpt>
      <trkpt lat="47.32602" lon="1.12439">
        <ele>63.2</ele>
        <time>2020-07-03T10:03:39Z</time>
      </trkpt>
      <trkpt lat="47.32603" lon="1.12439">
        <ele>63.2</ele>
        <time>2020-07-03T10:03:40Z</time>
      </trkpt>
      <trkpt lat="47.32603" lon="1.12439">
        <ele>63.2</ele>
        <time>2020-07-03T10:03:41Z</time>
      </trkpt>
      <trkpt lat="47.32603" lon="1.12439">
        <ele>63.2</ele>
        <time>2020-07-03T10:03:42Z</time>
      </trkpt>
      <trkpt lat="47.32604" lon="1.12439">
        <ele>63.2</ele>
        <time>2020-07-03T10:03:43Z</time>
      </trkpt>
      <trkpt lat="47.32604" lon="1.12439">
        <ele>63.2</ele>
        <time>2020-07-03T10:03:44Z</time>
      </trkpt>
      <trkpt lat="47.32605" lon="1.12439">
        <ele>63.2</ele>
        <time>2020-07-03T10:03:45Z</time>
      </trkpt>
      <trkpt lat="47.32605" lon="1.12439">
        <ele>63.2</ele>
        <time>2020-07-03T10:03:46Z</time>
      </trkpt>
      <trkpt lat="47.32605" lon="1.12439">
        <ele>63.2</ele>
        <time>2020-07-03T10:03:47Z</time>
      </trkpt>
      <trkpt lat="47.32606" lon="1.12438">
        <ele>63.2</ele>
        <time>2020-07-03T10:03:48Z</time>
      </trkpt>
      <trkpt lat="47.32606" lon="1.12438">
        <ele>63.2</ele>
        <time>2020-07-03T10:03:49Z</time>
      </trkpt>
      <trkpt lat="47.32607" lon="1.12438">
        <ele>63.2</ele>
        <time>2020-07-03T10:03:50Z</time>
      </trkpt>
      <trkpt lat="47.32607" lon="1.12438">
        <ele>63.2</ele>
        <time>2020-07-03T10:03:51Z</time>
      </trkpt>
      <trkpt lat="47.32607" lon="1.12438">
        <ele>63.2</ele>
        <time>2020-07-03T10:03:52Z</time>
      </trkpt>
      <trkpt lat="47.32608" lon="1.12438">
        <ele>63.2</ele>
        <time>2020-07-03T10:08:35Z</time>
      </trkpt>
      <trkpt lat="47.32608" lon="1.12438">
        <ele>63.2</ele>
        <time>2020-07-03T10:08:36Z</time>
      </trkpt>
      <trkpt lat="47.32608" lon="1.12438">
        <ele>63.2</ele>
        <time>2020-07-03T10:08:37Z</time>
      </trkpt>
      <trkpt lat="47.32607" lon="1.12441">
        <ele>63.2</ele>
        <time>2020-07-03T10:08:38Z</time>
      </trkpt>
      <trkpt lat="47.32606" lon="1.12441">
        <ele>63.2</ele>
        <time>2020-07-03T10:08:39Z</time>
      </trkpt>
      <trkpt lat="47.32605" lon="1.12441">
        <ele>63.2</ele>
        <time>2020-07-03T10:08:40Z</time>
      </trkpt>
      <trkpt lat="47.32606" lon="1.12441">
        <ele>63.2</ele>
        <time>2020-07-03T10:08:41Z</time>
      </trkpt>
      <trkpt lat="47.32606" lon="1.12441">
        <ele>63.2</ele>
        <time>2020-07-03T10:08:42Z</time>
      </trkpt>
      <trkpt lat="47.32604" lon="1.12442">
        <ele>63.2</ele>
        <time>2020-07-03T10:08:43Z</time>
      </trkpt>
      <trkpt lat="47.32603" lon="1.12442">
        <ele>63.2</ele>
        <time>2020-07-03T10:08:44Z</time>
      </trkpt>
      <trkpt lat="47.32603" lon="1.12442">
        <ele>63.2</ele>
        <time>2020-07-03T10:08:45Z</time>
      </trkpt>
      <trkpt lat="47.32603" lon="1.12442">
        <ele>63.2</ele>
        <time>2020-07-03T10:08:46Z</time>
      </trkpt>
      <trkpt lat="47.32603" lon="1.12443">
        <ele>63.2</ele>
        <time>2020-07-03T10:08:47Z</time>
      </trkpt>
      <trkpt lat="47.32602" lon="1.12444">
        <ele>63.2</ele>
        <time>2020-07-03T10:08:48Z</time>
      </trkpt>
      <trkpt lat="47.32601" lon="1.1245">
        <ele>63.2</ele>
        <time>2020-07-03T10:09:01Z</time>
      </trkpt>
      <trkpt lat="47.32602" lon="1.12451">
        <ele>63.2</ele>
        <time>2020-07-03T10:09:02Z</time>
      </trkpt>
      <trkpt lat="47.32602" lon="1.12452">
        <ele>63.2</ele>
        <time>2020-07-03T10:09:03Z</time>
      </trkpt>
      <trkpt lat="47.32603" lon="1.12454">
        <ele>63.3</ele>
        <time>2020-07-03T10:09:04Z</time>
      </trkpt>
      <trkpt lat="47.32603" lon="1.12455">
        <ele>63.3</ele>
        <time>2020-07-03T10:09:05Z</time>
      </trkpt>
      <trkpt lat="47.32604" lon="1.12457">
        <ele>63.3</ele>
        <time>2020-07-03T10:09:06Z</time>
      </trkpt>
      <trkpt lat="47.32605" lon="1.12459">
        <ele>63.3</ele>
        <time>2020-07-03T10:09:07Z</time>
      </trkpt>
      <trkpt lat="47.32605" lon="1.12461">
        <ele>63.3</ele>
        <time>2020-07-03T10:09:08Z</time>
      </trkpt>
      <trkpt lat="47.32606" lon="1.12463">
        <ele>63.3</ele>
        <time>2020-07-03T10:09:09Z</time>
      </trkpt>
      <trkpt lat="47.32606" lon="1.12464">
        <ele>63.4</ele>
        <time>2020-07-03T10:09:10Z</time>
      </trkpt>
      <trkpt lat="47.32605" lon="1.12467">
        <ele>63.4</ele>
        <time>2020-07-03T10:09:11Z</time>
      </trkpt>
      <trkpt lat="47.32605" lon="1.12469">
        <ele>63.4</ele>
        <time>2020-07-03T10:09:12Z</time>
      </trkpt>
      <trkpt lat="47.32604" lon="1.12472">
        <ele>63.4</ele>
        <time>2020-07-03T10:09:13Z</time>
      </trkpt>
      <trkpt lat="47.32604" lon="1.12473">
        <ele>63.4</ele>
        <time>2020-07-03T10:09:14Z</time>
      </trkpt>
      <trkpt lat="47.32603" lon="1.12474">
        <ele>63.4</ele>
        <time>2020-07-03T10:09:15Z</time>
      </trkpt>
      <trkpt lat="47.32603" lon="1.12477">
        <ele>63.4</ele>
        <time>2020-07-03T10:09:16Z</time>
      </trkpt>
      <trkpt lat="47.32603" lon="1.12478">
        <ele>63.4</ele>
        <time>2020-07-03T10:09:17Z</time>
      </trkpt>
      <trkpt lat="47.32602" lon="1.12479">
        <ele>63.4</ele>
        <time>2020-07-03T10:09:18Z</time>
      </trkpt>
      <trkpt lat="47.32602" lon="1.1248">
        <ele>63.4</ele>
        <time>2020-07-03T10:09:19Z</time>
      </trkpt>
      <trkpt lat="47.32601" lon="1.12483">
        <ele>63.4</ele>
        <time>2020-07-03T10:09:20Z</time>
      </trkpt>
      <trkpt lat="47.32599" lon="1.12484">
        <ele>63.4</ele>
        <time>2020-07-03T10:09:21Z</time>
      </trkpt>
      <trkpt lat="47.32599" lon="1.12486">
        <ele>63.4</ele>
        <time>2020-07-03T10:09:22Z</time>
      </trkpt>
      <trkpt lat="47.32599" lon="1.12488">
        <ele>63.4</ele>
        <time>2020-07-03T10:09:23Z</time>
      </trkpt>
      <trkpt lat="47.32598" lon="1.12489">
        <ele>63.4</ele>
        <time>2020-07-03T10:09:24Z</time>
      </trkpt>
      <trkpt lat="47.32598" lon="1.12489">
        <ele>63.4</ele>
        <time>2020-07-03T10:09:25Z</time>
      </trkpt>
      <trkpt lat="47.32599" lon="1.12488">
        <ele>63.4</ele>
        <time>2020-07-03T10:09:26Z</time>
      </trkpt>
      <trkpt lat="47.32599" lon="1.1249">
        <ele>63.4</ele>
        <time>2020-07-03T10:09:27Z</time>
      </trkpt>
      <trkpt lat="47.326" lon="1.1249">
        <ele>63.4</ele>
        <time>2020-07-03T10:09:28Z</time>
      </trkpt>
      <trkpt lat="47.326" lon="1.12492">
        <ele>63.4</ele>
        <time>2020-07-03T10:09:29Z</time>
      </trkpt>
      <trkpt lat="47.32602" lon="1.12494">
        <ele>63.4</ele>
        <time>2020-07-03T10:09:30Z</time>
      </trkpt>
      <trkpt lat="47.32602" lon="1.12497">
        <ele>63.4</ele>
        <time>2020-07-03T10:09:31Z</time>
      </trkpt>
      <trkpt lat="47.32603" lon="1.12498">
        <ele>63.4</ele>
        <time>2020-07-03T10:09:32Z</time>
      </trkpt>
      <trkpt lat="47.32603" lon="1.12499">
        <ele>63.4</ele>
        <time>2020-07-03T10:09:33Z</time>
      </trkpt>
      <trkpt lat="47.32604" lon="1.12499">
        <ele>63.4</ele>
        <time>2020-07-03T10:09:34Z</time>
      </trkpt>
      <trkpt lat="47.32604" lon="1.125">
        <ele>63.4</ele>
        <time>2020-07-03T10:09:35Z</time>
      </trkpt>
      <trkpt lat="47.32605" lon="1.125">
        <ele>63.4</ele>
        <time>2020-07-03T10:09:36Z</time>
      </trkpt>
      <trkpt lat="47.32605" lon="1.125">
        <ele>63.4</ele>
        <time>2020-07-03T10:09:37Z</time>
      </trkpt>
      <trkpt lat="47.32605" lon="1.125">
        <ele>63.4</ele>
        <time>2020-07-03T10:09:38Z</time>
      </trkpt>
      <trkpt lat="47.32605" lon="1.125">
        <ele>63.4</ele>
        <time>2020-07-03T10:09:39Z</time>
      </trkpt>
      <trkpt lat="47.32606" lon="1.12499">
        <ele>63.4</ele>
        <time>2020-07-03T10:09:40Z</time>
      </trkpt>
      <trkpt lat="47.32606" lon="1.12499">
        <ele>63.4</ele>
        <time>2020-07-03T10:09:41Z</time>
      </trkpt>
      <trkpt lat="47.32606" lon="1.12499">
        <ele>63.4</ele>
        <time>2020-07-03T10:09:42Z</time>
      </trkpt>
      <trkpt lat="47.32606" lon="1.12498">
        <ele>63.4</ele>
        <time>2020-07-03T10:09:43Z</time>
      </trkpt>
      <trkpt lat="47.32607" lon="1.12498">
        <ele>63.4</ele>
        <time>2020-07-03T10:09:44Z</time>
      </trkpt>
      <trkpt lat="47.32607" lon="1.12497">
        <ele>63.4</ele>
        <time>2020-07-03T10:09:45Z</time>
      </trkpt>
      <trkpt lat="47.32611" lon="1.12495">
        <ele>63.4</ele>
        <time>2020-07-03T10:09:48Z</time>
      </trkpt>
      <trkpt lat="47.32612" lon="1.12495">
        <ele>63.4</ele>
        <time>2020-07-03T10:09:49Z</time>
      </trkpt>
      <trkpt lat="47.32613" lon="1.12495">
        <ele>63.4</ele>
        <time>2020-07-03T10:09:50Z</time>
      </trkpt>
      <trkpt lat="47.32613" lon="1.12495">
        <ele>63.4</ele>
        <time>2020-07-03T10:09:51Z</time>
      </trkpt>
      <trkpt lat="47.32613" lon="1.12495">
        <ele>63.4</ele>
        <time>2020-07-03T10:09:52Z</time>
      </trkpt>
      <trkpt lat="47.32613" lon="1.12496">
        <ele>63.4</ele>
        <time>2020-07-03T10:09:53Z</time>
      </trkpt>
      <trkpt lat="47.32613" lon="1.12497">
        <ele>63.4</ele>
        <time>2020-07-03T10:09:54Z</time>
      </trkpt>
      <trkpt lat="47.32613" lon="1.12498">
        <ele>63.4</ele>
        <time>2020-07-03T10:09:55Z</time>
      </trkpt>
      <trkpt lat="47.32613" lon="1.12497">
        <ele>63.4</ele>
        <time>2020-07-03T10:09:56Z</time>
      </trkpt>
      <trkpt lat="47.32613" lon="1.12498">
        <ele>63.4</ele>
        <time>2020-07-03T10:09:57Z</time>
      </trkpt>
      <trkpt lat="47.32613" lon="1.12498">
        <ele>63.4</ele>
        <time>2020-07-03T10:09:58Z</time>
      </trkpt>
      <trkpt lat="47.32613" lon="1.12497">
        <ele>63.4</ele>
        <time>2020-07-03T10:09:59Z</time>
      </trkpt>
      <trkpt lat="47.32613" lon="1.12497">
        <ele>63.4</ele>
        <time>2020-07-03T10:10:00Z</time>
      </trkpt>
      <trkpt lat="47.32613" lon="1.12496">
        <ele>63.4</ele>
        <time>2020-07-03T10:10:01Z</time>
      </trkpt>
      <trkpt lat="47.32613" lon="1.12496">
        <ele>63.4</ele>
        <time>2020-07-03T10:10:02Z</time>
      </trkpt>
      <trkpt lat="47.32612" lon="1.12496">
        <ele>63.4</ele>
        <time>2020-07-03T10:10:03Z</time>
      </trkpt>
      <trkpt lat="47.32612" lon="1.12496">
        <ele>63.4</ele>
        <time>2020-07-03T10:10:04Z</time>
      </trkpt>
      <trkpt lat="47.32611" lon="1.12496">
        <ele>63.4</ele>
        <time>2020-07-03T10:10:05Z</time>
      </trkpt>
      <trkpt lat="47.32611" lon="1.12496">
        <ele>63.4</ele>
        <time>2020-07-03T10:10:06Z</time>
      </trkpt>
      <trkpt lat="47.32611" lon="1.12496">
        <ele>63.4</ele>
        <time>2020-07-03T10:10:07Z</time>
      </trkpt>
      <trkpt lat="47.3261" lon="1.12496">
        <ele>63.4</ele>
        <time>2020-07-03T10:10:08Z</time>
      </trkpt>
      <trkpt lat="47.3261" lon="1.12496">
        <ele>63.4</ele>
        <time>2020-07-03T10:10:09Z</time>
      </trkpt>
      <trkpt lat="47.3261" lon="1.12497">
        <ele>63.4</ele>
        <time>2020-07-03T10:10:10Z</time>
      </trkpt>
      <trkpt lat="47.32609" lon="1.12497">
        <ele>63.4</ele>
        <time>2020-07-03T10:10:11Z</time>
      </trkpt>
      <trkpt lat="47.3261" lon="1.12497">
        <ele>63.4</ele>
        <time>2020-07-03T10:10:12Z</time>
      </trkpt>
      <trkpt lat="47.3261" lon="1.12496">
        <ele>63.4</ele>
        <time>2020-07-03T10:10:13Z</time>
      </trkpt>
      <trkpt lat="47.3261" lon="1.12496">
        <ele>63.4</ele>
        <time>2020-07-03T10:10:14Z</time>
      </trkpt>
      <trkpt lat="47.3261" lon="1.12496">
        <ele>63.4</ele>
        <time>2020-07-03T10:10:15Z</time>
      </trkpt>
      <trkpt lat="47.32611" lon="1.12496">
        <ele>63.4</ele>
        <time>2020-07-03T10:10:16Z</time>
      </trkpt>
      <trkpt lat="47.32611" lon="1.12495">
        <ele>63.4</ele>
        <time>2020-07-03T10:10:17Z</time>
      </trkpt>
      <trkpt lat="47.32611" lon="1.12495">
        <ele>63.4</ele>
        <time>2020-07-03T10:10:18Z</time>
      </trkpt>
      <trkpt lat="47.32611" lon="1.12495">
        <ele>63.4</ele>
        <time>2020-07-03T10:10:19Z</time>
      </trkpt>
      <trkpt lat="47.32612" lon="1.12495">
        <ele>63.4</ele>
        <time>2020-07-03T10:10:20Z</time>
      </trkpt>
      <trkpt lat="47.32612" lon="1.12495">
        <ele>63.4</ele>
        <time>2020-07-03T10:10:21Z</time>
      </trkpt>
      <trkpt lat="47.32611" lon="1.12495">
        <ele>63.4</ele>
        <time>2020-07-03T10:10:22Z</time>
      </trkpt>
      <trkpt lat="47.32612" lon="1.12496">
        <ele>63.4</ele>
        <time>2020-07-03T10:10:23Z</time>
      </trkpt>
      <trkpt lat="47.32612" lon="1.12496">
        <ele>63.4</ele>
        <time>2020-07-03T10:10:24Z</time>
      </trkpt>
      <trkpt lat="47.32612" lon="1.12496">
        <ele>63.4</ele>
        <time>2020-07-03T10:10:25Z</time>
      </trkpt>
      <trkpt lat="47.32612" lon="1.12496">
        <ele>63.4</ele>
        <time>2020-07-03T10:10:26Z</time>
      </trkpt>
      <trkpt lat="47.32612" lon="1.12496">
        <ele>63.4</ele>
        <time>2020-07-03T10:10:27Z</time>
      </trkpt>
      <trkpt lat="47.32612" lon="1.12496">
        <ele>63.4</ele>
        <time>2020-07-03T10:10:28Z</time>
      </trkpt>
      <trkpt lat="47.32611" lon="1.12497">
        <ele>63.4</ele>
        <time>2020-07-03T10:10:29Z</time>
      </trkpt>
      <trkpt lat="47.32611" lon="1.12498">
        <ele>63.4</ele>
        <time>2020-07-03T10:10:30Z</time>
      </trkpt>
      <trkpt lat="47.32611" lon="1.12498">
        <ele>63.4</ele>
        <time>2020-07-03T10:10:31Z</time>
      </trkpt>
      <trkpt lat="47.32611" lon="1.12498">
        <ele>63.4</ele>
        <time>2020-07-03T10:10:32Z</time>
      </trkpt>
      <trkpt lat="47.32611" lon="1.12499">
        <ele>63.4</ele>
        <time>2020-07-03T10:10:33Z</time>
      </trkpt>
      <trkpt lat="47.32611" lon="1.12499">
        <ele>63.4</ele>
        <time>2020-07-03T10:10:34Z</time>
      </trkpt>
      <trkpt lat="47.32611" lon="1.12499">
        <ele>63.4</ele>
        <time>2020-07-03T10:10:35Z</time>
      </trkpt>
      <trkpt lat="47.32611" lon="1.12499">
        <ele>63.4</ele>
        <time>2020-07-03T10:10:36Z</time>
      </trkpt>
      <trkpt lat="47.32611" lon="1.12499">
        <ele>63.4</ele>
        <time>2020-07-03T10:10:37Z</time>
      </trkpt>
      <trkpt lat="47.32611" lon="1.12499">
        <ele>63.4</ele>
        <time>2020-07-03T10:10:38Z</time>
      </trkpt>
      <trkpt lat="47.3261" lon="1.12499">
        <ele>63.4</ele>
        <time>2020-07-03T10:10:39Z</time>
      </trkpt>
      <trkpt lat="47.3261" lon="1.12499">
        <ele>63.4</ele>
        <time>2020-07-03T10:10:40Z</time>
      </trkpt>
      <trkpt lat="47.32612" lon="1.12489">
        <ele>63.4</ele>
        <time>2020-07-03T10:11:49Z</time>
      </trkpt>
      <trkpt lat="47.32612" lon="1.12489">
        <ele>63.4</ele>
        <time>2020-07-03T10:11:50Z</time>
      </trkpt>
      <trkpt lat="47.32611" lon="1.12489">
        <ele>63.4</ele>
        <time>2020-07-03T10:11:51Z</time>
      </trkpt>
      <trkpt lat="47.32611" lon="1.12489">
        <ele>63.4</ele>
        <time>2020-07-03T10:11:52Z</time>
      </trkpt>
      <trkpt lat="47.32612" lon="1.12489">
        <ele>63.4</ele>
        <time>2020-07-03T10:11:53Z</time>
      </trkpt>
      <trkpt lat="47.32612" lon="1.12488">
        <ele>63.4</ele>
        <time>2020-07-03T10:11:54Z</time>
      </trkpt>
      <trkpt lat="47.32612" lon="1.12488">
        <ele>63.4</ele>
        <time>2020-07-03T10:11:55Z</time>
      </trkpt>
      <trkpt lat="47.32612" lon="1.12488">
        <ele>63.4</ele>
        <time>2020-07-03T10:11:56Z</time>
      </trkpt>
      <trkpt lat="47.32612" lon="1.12488">
        <ele>63.4</ele>
        <time>2020-07-03T10:11:57Z</time>
      </trkpt>
      <trkpt lat="47.32612" lon="1.12488">
        <ele>63.4</ele>
        <time>2020-07-03T10:11:58Z</time>
      </trkpt>
      <trkpt lat="47.32612" lon="1.12488">
        <ele>63.4</ele>
        <time>2020-07-03T10:11:59Z</time>
      </trkpt>
      <trkpt lat="47.32612" lon="1.12488">
        <ele>63.4</ele>
        <time>2020-07-03T10:12:00Z</time>
      </trkpt>
      <trkpt lat="47.32624" lon="1.1249">
        <ele>63.4</ele>
        <time>2020-07-03T10:34:52Z</time>
      </trkpt>
      <trkpt lat="47.32624" lon="1.12488">
        <ele>63.4</ele>
        <time>2020-07-03T10:34:53Z</time>
      </trkpt>
      <trkpt lat="47.32624" lon="1.12487">
        <ele>63.4</ele>
        <time>2020-07-03T10:34:54Z</time>
      </trkpt>
      <trkpt lat="47.32623" lon="1.12487">
        <ele>63.4</ele>
        <time>2020-07-03T10:34:55Z</time>
      </trkpt>
      <trkpt lat="47.32623" lon="1.12487">
        <ele>63.4</ele>
        <time>2020-07-03T10:34:56Z</time>
      </trkpt>
      <trkpt lat="47.32623" lon="1.12487">
        <ele>63.4</ele>
        <time>2020-07-03T10:34:57Z</time>
      </trkpt>
      <trkpt lat="47.32623" lon="1.12487">
        <ele>63.4</ele>
        <time>2020-07-03T10:34:58Z</time>
      </trkpt>
      <trkpt lat="47.32623" lon="1.12487">
        <ele>63.4</ele>
        <time>2020-07-03T10:34:59Z</time>
      </trkpt>
      <trkpt lat="47.32623" lon="1.12486">
        <ele>63.4</ele>
        <time>2020-07-03T10:35:00Z</time>
      </trkpt>
      <trkpt lat="47.32623" lon="1.12486">
        <ele>63.4</ele>
        <time>2020-07-03T10:35:01Z</time>
      </trkpt>
      <trkpt lat="47.32623" lon="1.12485">
        <ele>63.4</ele>
        <time>2020-07-03T10:35:02Z</time>
      </trkpt>
      <trkpt lat="47.32623" lon="1.12485">
        <ele>63.4</ele>
        <time>2020-07-03T10:35:03Z</time>
      </trkpt>
      <trkpt lat="47.32623" lon="1.12485">
        <ele>63.4</ele>
        <time>2020-07-03T10:35:04Z</time>
      </trkpt>
      <trkpt lat="47.32623" lon="1.12486">
        <ele>63.4</ele>
        <time>2020-07-03T10:35:05Z</time>
      </trkpt>
      <trkpt lat="47.32637" lon="1.12488">
        <ele>63.4</ele>
        <time>2020-07-03T10:38:55Z</time>
      </trkpt>
      <trkpt lat="47.32637" lon="1.12488">
        <ele>63.4</ele>
        <time>2020-07-03T10:38:56Z</time>
      </trkpt>
      <trkpt lat="47.32638" lon="1.12488">
        <ele>63.4</ele>
        <time>2020-07-03T10:38:57Z</time>
      </trkpt>
      <trkpt lat="47.32639" lon="1.12488">
        <ele>63.4</ele>
        <time>2020-07-03T10:38:58Z</time>
      </trkpt>
      <trkpt lat="47.32639" lon="1.12488">
        <ele>63.4</ele>
        <time>2020-07-03T10:38:59Z</time>
      </trkpt>
      <trkpt lat="47.3264" lon="1.12489">
        <ele>63.4</ele>
        <time>2020-07-03T10:39:00Z</time>
      </trkpt>
      <trkpt lat="47.3264" lon="1.12489">
        <ele>63.4</ele>
        <time>2020-07-03T10:39:01Z</time>
      </trkpt>
      <trkpt lat="47.3264" lon="1.12489">
        <ele>63.4</ele>
        <time>2020-07-03T10:39:02Z</time>
      </trkpt>
      <trkpt lat="47.32641" lon="1.12489">
        <ele>63.4</ele>
        <time>2020-07-03T10:39:03Z</time>
      </trkpt>
      <trkpt lat="47.32641" lon="1.12489">
        <ele>63.4</ele>
        <time>2020-07-03T10:39:04Z</time>
      </trkpt>
      <trkpt lat="47.32641" lon="1.12489">
        <ele>63.4</ele>
        <time>2020-07-03T10:39:05Z</time>
      </trkpt>
      <trkpt lat="47.32641" lon="1.12489">
        <ele>63.4</ele>
        <time>2020-07-03T10:39:06Z</time>
      </trkpt>
      <trkpt lat="47.32641" lon="1.12489">
        <ele>63.4</ele>
        <time>2020-07-03T10:39:07Z</time>
      </trkpt>
      <trkpt lat="47.3264" lon="1.1249">
        <ele>63.4</ele>
        <time>2020-07-03T10:39:08Z</time>
      </trkpt>
      <trkpt lat="47.3264" lon="1.1249">
        <ele>63.4</ele>
        <time>2020-07-03T10:39:09Z</time>
      </trkpt>
      <trkpt lat="47.3264" lon="1.1249">
        <ele>63.4</ele>
        <time>2020-07-03T10:39:10Z</time>
      </trkpt>
      <trkpt lat="47.3264" lon="1.1249">
        <ele>63.4</ele>
        <time>2020-07-03T10:39:11Z</time>
      </trkpt>
      <trkpt lat="47.3264" lon="1.1249">
        <ele>63.4</ele>
        <time>2020-07-03T10:39:12Z</time>
      </trkpt>
      <trkpt lat="47.3264" lon="1.12489">
        <ele>63.4</ele>
        <time>2020-07-03T10:39:13Z</time>
      </trkpt>
      <trkpt lat="47.3264" lon="1.12489">
        <ele>63.4</ele>
        <time>2020-07-03T10:39:14Z</time>
      </trkpt>
      <trkpt lat="47.3264" lon="1.12488">
        <ele>63.4</ele>
        <time>2020-07-03T10:39:15Z</time>
      </trkpt>
      <trkpt lat="47.3264" lon="1.12488">
        <ele>63.4</ele>
        <time>2020-07-03T10:39:16Z</time>
      </trkpt>
      <trkpt lat="47.3264" lon="1.12488">
        <ele>63.4</ele>
        <time>2020-07-03T10:39:17Z</time>
      </trkpt>
      <trkpt lat="47.32639" lon="1.12488">
        <ele>63.4</ele>
        <time>2020-07-03T10:39:18Z</time>
      </trkpt>
      <trkpt lat="47.32639" lon="1.12488">
        <ele>63.4</ele>
        <time>2020-07-03T10:39:19Z</time>
      </trkpt>
      <trkpt lat="47.32639" lon="1.12488">
        <ele>63.4</ele>
        <time>2020-07-03T10:39:20Z</time>
      </trkpt>
      <trkpt lat="47.3264" lon="1.12487">
        <ele>63.4</ele>
        <time>2020-07-03T10:39:21Z</time>
      </trkpt>
      <trkpt lat="47.3264" lon="1.12487">
        <ele>63.4</ele>
        <time>2020-07-03T10:39:22Z</time>
      </trkpt>
      <trkpt lat="47.3264" lon="1.12487">
        <ele>63.4</ele>
        <time>2020-07-03T10:39:23Z</time>
      </trkpt>
      <trkpt lat="47.3264" lon="1.12486">
        <ele>63.4</ele>
        <time>2020-07-03T10:39:24Z</time>
      </trkpt>
      <trkpt lat="47.3264" lon="1.12486">
        <ele>63.4</ele>
        <time>2020-07-03T10:39:25Z</time>
      </trkpt>
      <trkpt lat="47.32652" lon="1.12497">
        <ele>63.4</ele>
        <time>2020-07-03T10:43:28Z</time>
      </trkpt>
      <trkpt lat="47.32653" lon="1.12498">
        <ele>63.4</ele>
        <time>2020-07-03T10:43:29Z</time>
      </trkpt>
      <trkpt lat="47.32653" lon="1.12498">
        <ele>63.4</ele>
        <time>2020-07-03T10:43:30Z</time>
      </trkpt>
      <trkpt lat="47.32654" lon="1.12498">
        <ele>63.4</ele>
        <time>2020-07-03T10:43:31Z</time>
      </trkpt>
      <trkpt lat="47.32654" lon="1.12497">
        <ele>63.4</ele>
        <time>2020-07-03T10:43:32Z</time>
      </trkpt>
      <trkpt lat="47.32654" lon="1.12496">
        <ele>63.4</ele>
        <time>2020-07-03T10:43:33Z</time>
      </trkpt>
      <trkpt lat="47.32654" lon="1.12495">
        <ele>63.4</ele>
        <time>2020-07-03T10:43:34Z</time>
      </trkpt>
      <trkpt lat="47.32654" lon="1.12495">
        <ele>63.4</ele>
        <time>2020-07-03T10:43:35Z</time>
      </trkpt>
      <trkpt lat="47.32654" lon="1.12495">
        <ele>63.4</ele>
        <time>2020-07-03T10:43:36Z</time>
      </trkpt>
      <trkpt lat="47.32654" lon="1.12495">
        <ele>63.4</ele>
        <time>2020-07-03T10:43:37Z</time>
      </trkpt>
      <trkpt lat="47.32654" lon="1.12495">
        <ele>63.4</ele>
        <time>2020-07-03T10:43:38Z</time>
      </trkpt>
      <trkpt lat="47.32654" lon="1.12495">
        <ele>63.4</ele>
        <time>2020-07-03T10:43:39Z</time>
      </trkpt>
      <trkpt lat="47.32655" lon="1.12495">
        <ele>63.4</ele>
        <time>2020-07-03T10:43:40Z</time>
      </trkpt>
      <trkpt lat="47.32655" lon="1.12495">
        <ele>63.4</ele>
        <time>2020-07-03T10:43:41Z</time>
      </trkpt>
      <trkpt lat="47.32655" lon="1.12495">
        <ele>63.4</ele>
        <time>2020-07-03T10:43:42Z</time>
      </trkpt>
      <trkpt lat="47.32656" lon="1.12495">
        <ele>63.4</ele>
        <time>2020-07-03T10:43:43Z</time>
      </trkpt>
      <trkpt lat="47.32634" lon="1.12516">
        <ele>63.3</ele>
        <time>2020-07-03T10:45:57Z</time>
      </trkpt>
      <trkpt lat="47.32634" lon="1.12515">
        <ele>63.3</ele>
        <time>2020-07-03T10:45:58Z</time>
      </trkpt>
      <trkpt lat="47.32634" lon="1.12515">
        <ele>63.3</ele>
        <time>2020-07-03T10:45:59Z</time>
      </trkpt>
      <trkpt lat="47.32634" lon="1.12514">
        <ele>63.3</ele>
        <time>2020-07-03T10:46:00Z</time>
      </trkpt>
      <trkpt lat="47.32634" lon="1.12514">
        <ele>63.3</ele>
        <time>2020-07-03T10:46:01Z</time>
      </trkpt>
      <trkpt lat="47.32634" lon="1.12514">
        <ele>63.3</ele>
        <time>2020-07-03T10:46:02Z</time>
      </trkpt>
      <trkpt lat="47.32633" lon="1.12514">
        <ele>63.3</ele>
        <time>2020-07-03T10:46:03Z</time>
      </trkpt>
      <trkpt lat="47.32633" lon="1.12514">
        <ele>63.3</ele>
        <time>2020-07-03T10:46:04Z</time>
      </trkpt>
      <trkpt lat="47.32633" lon="1.12514">
        <ele>63.3</ele>
        <time>2020-07-03T10:46:05Z</time>
      </trkpt>
      <trkpt lat="47.32633" lon="1.12514">
        <ele>63.3</ele>
        <time>2020-07-03T10:46:06Z</time>
      </trkpt>
      <trkpt lat="47.32633" lon="1.12514">
        <ele>63.3</ele>
        <time>2020-07-03T10:46:07Z</time>
      </trkpt>
      <trkpt lat="47.32627" lon="1.12507">
        <ele>63.3</ele>
        <time>2020-07-03T10:46:19Z</time>
      </trkpt>
      <trkpt lat="47.32627" lon="1.12506">
        <ele>63.3</ele>
        <time>2020-07-03T10:46:20Z</time>
      </trkpt>
      <trkpt lat="47.32627" lon="1.12506">
        <ele>63.3</ele>
        <time>2020-07-03T10:46:21Z</time>
      </trkpt>
      <trkpt lat="47.32627" lon="1.12504">
        <ele>63.3</ele>
        <time>2020-07-03T10:46:22Z</time>
      </trkpt>
      <trkpt lat="47.32627" lon="1.12504">
        <ele>63.3</ele>
        <time>2020-07-03T10:46:23Z</time>
      </trkpt>
      <trkpt lat="47.32626" lon="1.12503">
        <ele>63.3</ele>
        <time>2020-07-03T10:46:24Z</time>
      </trkpt>
      <trkpt lat="47.32626" lon="1.12503">
        <ele>63.3</ele>
        <time>2020-07-03T10:46:25Z</time>
      </trkpt>
      <trkpt lat="47.32625" lon="1.12503">
        <ele>63.3</ele>
        <time>2020-07-03T10:46:26Z</time>
      </trkpt>
      <trkpt lat="47.32625" lon="1.12503">
        <ele>63.3</ele>
        <time>2020-07-03T10:46:27Z</time>
      </trkpt>
      <trkpt lat="47.32625" lon="1.12503">
        <ele>63.3</ele>
        <time>2020-07-03T10:46:28Z</time>
      </trkpt>
      <trkpt lat="47.32625" lon="1.12503">
        <ele>63.3</ele>
        <time>2020-07-03T10:46:29Z</time>
      </trkpt>
      <trkpt lat="47.32624" lon="1.12501">
        <ele>63.3</ele>
        <time>2020-07-03T10:46:30Z</time>
      </trkpt>
      <trkpt lat="47.32624" lon="1.12501">
        <ele>63.3</ele>
        <time>2020-07-03T10:46:31Z</time>
      </trkpt>
      <trkpt lat="47.32623" lon="1.125">
        <ele>63.3</ele>
        <time>2020-07-03T10:46:32Z</time>
      </trkpt>
      <trkpt lat="47.32623" lon="1.12499">
        <ele>63.3</ele>
        <time>2020-07-03T10:46:33Z</time>
      </trkpt>
      <trkpt lat="47.32623" lon="1.12499">
        <ele>63.3</ele>
        <time>2020-07-03T10:46:34Z</time>
      </trkpt>
      <trkpt lat="47.32623" lon="1.12499">
        <ele>63.3</ele>
        <time>2020-07-03T10:46:35Z</time>
      </trkpt>
      <trkpt lat="47.32623" lon="1.12499">
        <ele>63.3</ele>
        <time>2020-07-03T10:46:36Z</time>
      </trkpt>
      <trkpt lat="47.32618" lon="1.12508">
        <ele>63.3</ele>
        <time>2020-07-03T10:47:40Z</time>
      </trkpt>
      <trkpt lat="47.32619" lon="1.12507">
        <ele>63.3</ele>
        <time>2020-07-03T10:47:41Z</time>
      </trkpt>
      <trkpt lat="47.3262" lon="1.12506">
        <ele>63.3</ele>
        <time>2020-07-03T10:47:42Z</time>
      </trkpt>
      <trkpt lat="47.32621" lon="1.12505">
        <ele>63.3</ele>
        <time>2020-07-03T10:47:43Z</time>
      </trkpt>
      <trkpt lat="47.32622" lon="1.12504">
        <ele>63.3</ele>
        <time>2020-07-03T10:47:44Z</time>
      </trkpt>
      <trkpt lat="47.32623" lon="1.12503">
        <ele>63.3</ele>
        <time>2020-07-03T10:47:45Z</time>
      </trkpt>
      <trkpt lat="47.32624" lon="1.12502">
        <ele>63.3</ele>
        <time>2020-07-03T10:47:46Z</time>
      </trkpt>
      <trkpt lat="47.32624" lon="1.12502">
        <ele>63.3</ele>
        <time>2020-07-03T10:47:47Z</time>
      </trkpt>
      <trkpt lat="47.32625" lon="1.12501">
        <ele>63.3</ele>
        <time>2020-07-03T10:47:48Z</time>
      </trkpt>
      <trkpt lat="47.32625" lon="1.12501">
        <ele>63.3</ele>
        <time>2020-07-03T10:47:49Z</time>
      </trkpt>
      <trkpt lat="47.32626" lon="1.125">
        <ele>63.3</ele>
        <time>2020-07-03T10:47:50Z</time>
      </trkpt>
      <trkpt lat="47.32627" lon="1.125">
        <ele>63.3</ele>
        <time>2020-07-03T10:47:51Z</time>
      </trkpt>
      <trkpt lat="47.32628" lon="1.12498">
        <ele>63.3</ele>
        <time>2020-07-03T10:47:52Z</time>
      </trkpt>
      <trkpt lat="47.32629" lon="1.12497">
        <ele>63.3</ele>
        <time>2020-07-03T10:47:53Z</time>
      </trkpt>
      <trkpt lat="47.3263" lon="1.12496">
        <ele>63.3</ele>
        <time>2020-07-03T10:47:54Z</time>
      </trkpt>
      <trkpt lat="47.3263" lon="1.12496">
        <ele>63.3</ele>
        <time>2020-07-03T10:47:55Z</time>
      </trkpt>
      <trkpt lat="47.3263" lon="1.12496">
        <ele>63.3</ele>
        <time>2020-07-03T10:47:56Z</time>
      </trkpt>
      <trkpt lat="47.32631" lon="1.12495">
        <ele>63.3</ele>
        <time>2020-07-03T10:47:57Z</time>
      </trkpt>
      <trkpt lat="47.32631" lon="1.12494">
        <ele>63.3</ele>
        <time>2020-07-03T10:47:58Z</time>
      </trkpt>
      <trkpt lat="47.32631" lon="1.12492">
        <ele>63.3</ele>
        <time>2020-07-03T10:47:59Z</time>
      </trkpt>
      <trkpt lat="47.32631" lon="1.12491">
        <ele>63.3</ele>
        <time>2020-07-03T10:48:00Z</time>
      </trkpt>
      <trkpt lat="47.32631" lon="1.12491">
        <ele>63.3</ele>
        <time>2020-07-03T10:48:01Z</time>
      </trkpt>
      <trkpt lat="47.3263" lon="1.12491">
        <ele>63.3</ele>
        <time>2020-07-03T10:48:02Z</time>
      </trkpt>
      <trkpt lat="47.3263" lon="1.1249">
        <ele>63.3</ele>
        <time>2020-07-03T10:48:03Z</time>
      </trkpt>
      <trkpt lat="47.3263" lon="1.1249">
        <ele>63.3</ele>
        <time>2020-07-03T10:48:04Z</time>
      </trkpt>
      <trkpt lat="47.3263" lon="1.1249">
        <ele>63.3</ele>
        <time>2020-07-03T10:48:05Z</time>
      </trkpt>
      <trkpt lat="47.3263" lon="1.1249">
        <ele>63.3</ele>
        <time>2020-07-03T10:48:06Z</time>
      </trkpt>
      <trkpt lat="47.3263" lon="1.1249">
        <ele>63.3</ele>
        <time>2020-07-03T10:48:07Z</time>
      </trkpt>
      <trkpt lat="47.32625" lon="1.12494">
        <ele>63.3</ele>
        <time>2020-07-03T10:48:16Z</time>
      </trkpt>
      <trkpt lat="47.32623" lon="1.12494">
        <ele>63.3</ele>
        <time>2020-07-03T10:48:17Z</time>
      </trkpt>
      <trkpt lat="47.32621" lon="1.12495">
        <ele>63.3</ele>
        <time>2020-07-03T10:48:18Z</time>
      </trkpt>
      <trkpt lat="47.3262" lon="1.12495">
        <ele>63.3</ele>
        <time>2020-07-03T10:48:19Z</time>
      </trkpt>
      <trkpt lat="47.32617" lon="1.12497">
        <ele>63.3</ele>
        <time>2020-07-03T10:48:20Z</time>
      </trkpt>
      <trkpt lat="47.32616" lon="1.12498">
        <ele>63.3</ele>
        <time>2020-07-03T10:48:21Z</time>
      </trkpt>
      <trkpt lat="47.32613" lon="1.12498">
        <ele>63.3</ele>
        <time>2020-07-03T10:48:22Z</time>
      </trkpt>
      <trkpt lat="47.32612" lon="1.12498">
        <ele>63.3</ele>
        <time>2020-07-03T10:48:23Z</time>
      </trkpt>
      <trkpt lat="47.32611" lon="1.12498">
        <ele>63.3</ele>
        <time>2020-07-03T10:48:24Z</time>
      </trkpt>
      <trkpt lat="47.3261" lon="1.12498">
        <ele>63.3</ele>
        <time>2020-07-03T10:48:25Z</time>
      </trkpt>
      <trkpt lat="47.32609" lon="1.12498">
        <ele>63.3</ele>
        <time>2020-07-03T10:48:26Z</time>
      </trkpt>
      <trkpt lat="47.32608" lon="1.12497">
        <ele>63.3</ele>
        <time>2020-07-03T10:48:27Z</time>
      </trkpt>
      <trkpt lat="47.32608" lon="1.12497">
        <ele>63.3</ele>
        <time>2020-07-03T10:48:28Z</time>
      </trkpt>
      <trkpt lat="47.32608" lon="1.12497">
        <ele>63.3</ele>
        <time>2020-07-03T10:48:29Z</time>
      </trkpt>
      <trkpt lat="47.32608" lon="1.12496">
        <ele>63.3</ele>
        <time>2020-07-03T10:48:30Z</time>
      </trkpt>
      <trkpt lat="47.32608" lon="1.12494">
        <ele>63.3</ele>
        <time>2020-07-03T10:48:31Z</time>
      </trkpt>
      <trkpt lat="47.32608" lon="1.12494">
        <ele>63.3</ele>
        <time>2020-07-03T10:48:32Z</time>
      </trkpt>
      <trkpt lat="47.32607" lon="1.12494">
        <ele>63.3</ele>
        <time>2020-07-03T10:48:33Z</time>
      </trkpt>
      <trkpt lat="47.32606" lon="1.12493">
        <ele>63.3</ele>
        <time>2020-07-03T10:48:34Z</time>
      </trkpt>
      <trkpt lat="47.32606" lon="1.12493">
        <ele>63.3</ele>
        <time>2020-07-03T10:48:35Z</time>
      </trkpt>
      <trkpt lat="47.32605" lon="1.12492">
        <ele>63.3</ele>
        <time>2020-07-03T10:48:36Z</time>
      </trkpt>
      <trkpt lat="47.32604" lon="1.12491">
        <ele>63.3</ele>
        <time>2020-07-03T10:48:37Z</time>
      </trkpt>
      <trkpt lat="47.32602" lon="1.1249">
        <ele>63.3</ele>
        <time>2020-07-03T10:48:38Z</time>
      </trkpt>
      <trkpt lat="47.32601" lon="1.1249">
        <ele>63.3</ele>
        <time>2020-07-03T10:48:39Z</time>
      </trkpt>
      <trkpt lat="47.326" lon="1.1249">
        <ele>63.3</ele>
        <time>2020-07-03T10:48:40Z</time>
      </trkpt>
      <trkpt lat="47.326" lon="1.1249">
        <ele>63.3</ele>
        <time>2020-07-03T10:48:41Z</time>
      </trkpt>
      <trkpt lat="47.32599" lon="1.12491">
        <ele>63.3</ele>
        <time>2020-07-03T10:48:42Z</time>
      </trkpt>
      <trkpt lat="47.32598" lon="1.12491">
        <ele>63.3</ele>
        <time>2020-07-03T10:48:43Z</time>
      </trkpt>
      <trkpt lat="47.32598" lon="1.1249">
        <ele>63.3</ele>
        <time>2020-07-03T10:48:44Z</time>
      </trkpt>
      <trkpt lat="47.32597" lon="1.1249">
        <ele>63.3</ele>
        <time>2020-07-03T10:48:45Z</time>
      </trkpt>
      <trkpt lat="47.32597" lon="1.12491">
        <ele>63.3</ele>
        <time>2020-07-03T10:48:46Z</time>
      </trkpt>
      <trkpt lat="47.32596" lon="1.12491">
        <ele>63.3</ele>
        <time>2020-07-03T10:48:47Z</time>
      </trkpt>
      <trkpt lat="47.32596" lon="1.12492">
        <ele>63.3</ele>
        <time>2020-07-03T10:48:48Z</time>
      </trkpt>
      <trkpt lat="47.32596" lon="1.12493">
        <ele>63.3</ele>
        <time>2020-07-03T10:48:49Z</time>
      </trkpt>
      <trkpt lat="47.32595" lon="1.12494">
        <ele>63.3</ele>
        <time>2020-07-03T10:48:50Z</time>
      </trkpt>
      <trkpt lat="47.32594" lon="1.12494">
        <ele>63.3</ele>
        <time>2020-07-03T10:48:51Z</time>
      </trkpt>
      <trkpt lat="47.32594" lon="1.12494">
        <ele>63.3</ele>
        <time>2020-07-03T10:48:52Z</time>
      </trkpt>
      <trkpt lat="47.32594" lon="1.12494">
        <ele>63.3</ele>
        <time>2020-07-03T10:48:53Z</time>
      </trkpt>
      <trkpt lat="47.32594" lon="1.12494">
        <ele>63.3</ele>
        <time>2020-07-03T10:48:54Z</time>
      </trkpt>
      <trkpt lat="47.32594" lon="1.12494">
        <ele>63.3</ele>
        <time>2020-07-03T10:48:55Z</time>
      </trkpt>
      <trkpt lat="47.32594" lon="1.12494">
        <ele>63.3</ele>
        <time>2020-07-03T10:48:56Z</time>
      </trkpt>
      <trkpt lat="47.32594" lon="1.12494">
        <ele>63.3</ele>
        <time>2020-07-03T10:48:57Z</time>
      </trkpt>
      <trkpt lat="47.32601" lon="1.12495">
        <ele>63.3</ele>
        <time>2020-07-03T10:49:40Z</time>
      </trkpt>
      <trkpt lat="47.326" lon="1.12495">
        <ele>63.3</ele>
        <time>2020-07-03T10:49:41Z</time>
      </trkpt>
      <trkpt lat="47.32599" lon="1.12496">
        <ele>63.3</ele>
        <time>2020-07-03T10:49:42Z</time>
      </trkpt>
      <trkpt lat="47.32599" lon="1.12497">
        <ele>63.3</ele>
        <time>2020-07-03T10:49:43Z</time>
      </trkpt>
      <trkpt lat="47.32599" lon="1.12497">
        <ele>63.3</ele>
        <time>2020-07-03T10:49:44Z</time>
      </trkpt>
      <trkpt lat="47.32599" lon="1.12498">
        <ele>63.3</ele>
        <time>2020-07-03T10:49:45Z</time>
      </trkpt>
      <trkpt lat="47.32599" lon="1.12498">
        <ele>63.3</ele>
        <time>2020-07-03T10:49:46Z</time>
      </trkpt>
      <trkpt lat="47.32599" lon="1.12499">
        <ele>63.3</ele>
        <time>2020-07-03T10:49:47Z</time>
      </trkpt>
      <trkpt lat="47.32599" lon="1.12499">
        <ele>63.3</ele>
        <time>2020-07-03T10:49:48Z</time>
      </trkpt>
      <trkpt lat="47.32599" lon="1.12499">
        <ele>63.3</ele>
        <time>2020-07-03T10:49:49Z</time>
      </trkpt>
      <trkpt lat="47.32599" lon="1.12499">
        <ele>63.3</ele>
        <time>2020-07-03T10:49:50Z</time>
      </trkpt>
      <trkpt lat="47.32599" lon="1.12498">
        <ele>63.3</ele>
        <time>2020-07-03T10:49:51Z</time>
      </trkpt>
      <trkpt lat="47.32599" lon="1.12499">
        <ele>63.3</ele>
        <time>2020-07-03T10:49:52Z</time>
      </trkpt>
      <trkpt lat="47.32599" lon="1.12499">
        <ele>63.3</ele>
        <time>2020-07-03T10:49:53Z</time>
      </trkpt>
      <trkpt lat="47.32599" lon="1.12498">
        <ele>63.3</ele>
        <time>2020-07-03T10:49:54Z</time>
      </trkpt>
      <trkpt lat="47.326" lon="1.12499">
        <ele>63.3</ele>
        <time>2020-07-03T10:49:55Z</time>
      </trkpt>
      <trkpt lat="47.326" lon="1.12499">
        <ele>63.3</ele>
        <time>2020-07-03T10:49:56Z</time>
      </trkpt>
      <trkpt lat="47.326" lon="1.12498">
        <ele>63.3</ele>
        <time>2020-07-03T10:49:57Z</time>
      </trkpt>
      <trkpt lat="47.326" lon="1.12498">
        <ele>63.3</ele>
        <time>2020-07-03T10:49:58Z</time>
      </trkpt>
      <trkpt lat="47.326" lon="1.12497">
        <ele>63.3</ele>
        <time>2020-07-03T10:49:59Z</time>
      </trkpt>
      <trkpt lat="47.326" lon="1.12497">
        <ele>63.3</ele>
        <time>2020-07-03T10:50:00Z</time>
      </trkpt>
      <trkpt lat="47.32601" lon="1.12497">
        <ele>63.3</ele>
        <time>2020-07-03T10:50:01Z</time>
      </trkpt>
      <trkpt lat="47.32601" lon="1.12496">
        <ele>63.3</ele>
        <time>2020-07-03T10:50:02Z</time>
      </trkpt>
      <trkpt lat="47.32601" lon="1.12496">
        <ele>63.3</ele>
        <time>2020-07-03T10:50:03Z</time>
      </trkpt>
      <trkpt lat="47.32601" lon="1.12496">
        <ele>63.3</ele>
        <time>2020-07-03T10:50:04Z</time>
      </trkpt>
      <trkpt lat="47.32601" lon="1.12494">
        <ele>63.3</ele>
        <time>2020-07-03T10:50:05Z</time>
      </trkpt>
      <trkpt lat="47.32601" lon="1.12491">
        <ele>63.3</ele>
        <time>2020-07-03T10:50:06Z</time>
      </trkpt>
      <trkpt lat="47.32601" lon="1.1249">
        <ele>63.3</ele>
        <time>2020-07-03T10:50:07Z</time>
      </trkpt>
      <trkpt lat="47.32601" lon="1.12489">
        <ele>63.3</ele>
        <time>2020-07-03T10:50:08Z</time>
      </trkpt>
      <trkpt lat="47.32601" lon="1.12489">
        <ele>63.3</ele>
        <time>2020-07-03T10:50:09Z</time>
      </trkpt>
      <trkpt lat="47.32601" lon="1.1249">
        <ele>63.3</ele>
        <time>2020-07-03T10:50:10Z</time>
      </trkpt>
      <trkpt lat="47.32601" lon="1.12491">
        <ele>63.3</ele>
        <time>2020-07-03T10:50:11Z</time>
      </trkpt>
      <trkpt lat="47.32602" lon="1.12491">
        <ele>63.3</ele>
        <time>2020-07-03T10:50:12Z</time>
      </trkpt>
      <trkpt lat="47.32602" lon="1.12491">
        <ele>63.3</ele>
        <time>2020-07-03T10:50:13Z</time>
      </trkpt>
      <trkpt lat="47.32602" lon="1.12493">
        <ele>63.3</ele>
        <time>2020-07-03T10:50:14Z</time>
      </trkpt>
      <trkpt lat="47.32602" lon="1.12493">
        <ele>63.3</ele>
        <time>2020-07-03T10:50:15Z</time>
      </trkpt>
      <trkpt lat="47.32603" lon="1.12495">
        <ele>63.3</ele>
        <time>2020-07-03T10:50:16Z</time>
      </trkpt>
      <trkpt lat="47.32603" lon="1.12495">
        <ele>63.3</ele>
        <time>2020-07-03T10:50:17Z</time>
      </trkpt>
      <trkpt lat="47.32604" lon="1.12495">
        <ele>63.3</ele>
        <time>2020-07-03T10:50:18Z</time>
      </trkpt>
      <trkpt lat="47.32601" lon="1.12492">
        <ele>63.3</ele>
        <time>2020-07-03T10:50:33Z</time>
      </trkpt>
      <trkpt lat="47.32601" lon="1.12493">
        <ele>63.3</ele>
        <time>2020-07-03T10:50:34Z</time>
      </trkpt>
      <trkpt lat="47.326" lon="1.12495">
        <ele>63.3</ele>
        <time>2020-07-03T10:50:35Z</time>
      </trkpt>
      <trkpt lat="47.326" lon="1.12496">
        <ele>63.3</ele>
        <time>2020-07-03T10:50:36Z</time>
      </trkpt>
      <trkpt lat="47.326" lon="1.12496">
        <ele>63.3</ele>
        <time>2020-07-03T10:50:37Z</time>
      </trkpt>
      <trkpt lat="47.32601" lon="1.12496">
        <ele>63.3</ele>
        <time>2020-07-03T10:50:38Z</time>
      </trkpt>
      <trkpt lat="47.32602" lon="1.12496">
        <ele>63.3</ele>
        <time>2020-07-03T10:50:39Z</time>
      </trkpt>
      <trkpt lat="47.32602" lon="1.12495">
        <ele>63.3</ele>
        <time>2020-07-03T10:50:40Z</time>
      </trkpt>
      <trkpt lat="47.32603" lon="1.12495">
        <ele>63.3</ele>
        <time>2020-07-03T10:50:41Z</time>
      </trkpt>
      <trkpt lat="47.32603" lon="1.12493">
        <ele>63.3</ele>
        <time>2020-07-03T10:50:42Z</time>
      </trkpt>
      <trkpt lat="47.32603" lon="1.12492">
        <ele>63.3</ele>
        <time>2020-07-03T10:50:43Z</time>
      </trkpt>
      <trkpt lat="47.32602" lon="1.1249">
        <ele>63.3</ele>
        <time>2020-07-03T10:50:44Z</time>
      </trkpt>
      <trkpt lat="47.32602" lon="1.12489">
        <ele>63.3</ele>
        <time>2020-07-03T10:50:45Z</time>
      </trkpt>
      <trkpt lat="47.32601" lon="1.12489">
        <ele>63.3</ele>
        <time>2020-07-03T10:50:46Z</time>
      </trkpt>
      <trkpt lat="47.326" lon="1.12489">
        <ele>63.3</ele>
        <time>2020-07-03T10:50:47Z</time>
      </trkpt>
      <trkpt lat="47.32599" lon="1.12488">
        <ele>63.3</ele>
        <time>2020-07-03T10:50:48Z</time>
      </trkpt>
      <trkpt lat="47.32599" lon="1.12488">
        <ele>63.3</ele>
        <time>2020-07-03T10:50:49Z</time>
      </trkpt>
      <trkpt lat="47.326" lon="1.12486">
        <ele>63.3</ele>
        <time>2020-07-03T10:50:50Z</time>
      </trkpt>
      <trkpt lat="47.326" lon="1.12486">
        <ele>63.3</ele>
        <time>2020-07-03T10:50:51Z</time>
      </trkpt>
      <trkpt lat="47.32601" lon="1.12487">
        <ele>63.3</ele>
        <time>2020-07-03T10:50:52Z</time>
      </trkpt>
      <trkpt lat="47.32601" lon="1.12487">
        <ele>63.3</ele>
        <time>2020-07-03T10:50:53Z</time>
      </trkpt>
      <trkpt lat="47.32601" lon="1.12487">
        <ele>63.3</ele>
        <time>2020-07-03T10:50:54Z</time>
      </trkpt>
      <trkpt lat="47.32602" lon="1.12487">
        <ele>63.3</ele>
        <time>2020-07-03T10:50:55Z</time>
      </trkpt>
      <trkpt lat="47.32602" lon="1.12486">
        <ele>63.3</ele>
        <time>2020-07-03T10:50:56Z</time>
      </trkpt>
      <trkpt lat="47.32602" lon="1.12486">
        <ele>63.3</ele>
        <time>2020-07-03T10:50:57Z</time>
      </trkpt>
      <trkpt lat="47.32602" lon="1.12486">
        <ele>63.3</ele>
        <time>2020-07-03T10:50:58Z</time>
      </trkpt>
      <trkpt lat="47.32601" lon="1.12487">
        <ele>63.3</ele>
        <time>2020-07-03T10:50:59Z</time>
      </trkpt>
      <trkpt lat="47.32601" lon="1.12487">
        <ele>63.3</ele>
        <time>2020-07-03T10:51:00Z</time>
      </trkpt>
      <trkpt lat="47.32601" lon="1.12488">
        <ele>63.3</ele>
        <time>2020-07-03T10:51:01Z</time>
      </trkpt>
      <trkpt lat="47.32601" lon="1.12488">
        <ele>63.3</ele>
        <time>2020-07-03T10:51:02Z</time>
      </trkpt>
      <trkpt lat="47.326" lon="1.12488">
        <ele>63.3</ele>
        <time>2020-07-03T10:51:03Z</time>
      </trkpt>
      <trkpt lat="47.32599" lon="1.12488">
        <ele>63.3</ele>
        <time>2020-07-03T10:51:04Z</time>
      </trkpt>
      <trkpt lat="47.32599" lon="1.12488">
        <ele>63.3</ele>
        <time>2020-07-03T10:51:05Z</time>
      </trkpt>
      <trkpt lat="47.32598" lon="1.12489">
        <ele>63.3</ele>
        <time>2020-07-03T10:51:06Z</time>
      </trkpt>
      <trkpt lat="47.32597" lon="1.12489">
        <ele>63.3</ele>
        <time>2020-07-03T10:51:07Z</time>
      </trkpt>
      <trkpt lat="47.32596" lon="1.12489">
        <ele>63.3</ele>
        <time>2020-07-03T10:51:08Z</time>
      </trkpt>
      <trkpt lat="47.32594" lon="1.1249">
        <ele>63.3</ele>
        <time>2020-07-03T10:51:09Z</time>
      </trkpt>
      <trkpt lat="47.32593" lon="1.12491">
        <ele>63.3</ele>
        <time>2020-07-03T10:51:10Z</time>
      </trkpt>
      <trkpt lat="47.32592" lon="1.12491">
        <ele>63.3</ele>
        <time>2020-07-03T10:51:11Z</time>
      </trkpt>
      <trkpt lat="47.32591" lon="1.12492">
        <ele>63.3</ele>
        <time>2020-07-03T10:51:12Z</time>
      </trkpt>
      <trkpt lat="47.3259" lon="1.12492">
        <ele>63.3</ele>
        <time>2020-07-03T10:51:13Z</time>
      </trkpt>
      <trkpt lat="47.32589" lon="1.12492">
        <ele>63.3</ele>
        <time>2020-07-03T10:51:14Z</time>
      </trkpt>
      <trkpt lat="47.32589" lon="1.12491">
        <ele>63.3</ele>
        <time>2020-07-03T10:51:15Z</time>
      </trkpt>
      <trkpt lat="47.32588" lon="1.12491">
        <ele>63.3</ele>
        <time>2020-07-03T10:51:16Z</time>
      </trkpt>
      <trkpt lat="47.32587" lon="1.12492">
        <ele>63.3</ele>
        <time>2020-07-03T10:51:17Z</time>
      </trkpt>
      <trkpt lat="47.32587" lon="1.12492">
        <ele>63.3</ele>
        <time>2020-07-03T10:51:18Z</time>
      </trkpt>
      <trkpt lat="47.32586" lon="1.12492">
        <ele>63.3</ele>
        <time>2020-07-03T10:51:19Z</time>
      </trkpt>
      <trkpt lat="47.32585" lon="1.12493">
        <ele>63.3</ele>
        <time>2020-07-03T10:51:20Z</time>
      </trkpt>
      <trkpt lat="47.32586" lon="1.12494">
        <ele>63.3</ele>
        <time>2020-07-03T10:51:21Z</time>
      </trkpt>
      <trkpt lat="47.32587" lon="1.12494">
        <ele>63.3</ele>
        <time>2020-07-03T10:51:22Z</time>
      </trkpt>
      <trkpt lat="47.32587" lon="1.12495">
        <ele>63.3</ele>
        <time>2020-07-03T10:51:23Z</time>
      </trkpt>
      <trkpt lat="47.32587" lon="1.12495">
        <ele>63.3</ele>
        <time>2020-07-03T10:51:24Z</time>
      </trkpt>
      <trkpt lat="47.32588" lon="1.12496">
        <ele>63.3</ele>
        <time>2020-07-03T10:51:25Z</time>
      </trkpt>
      <trkpt lat="47.32588" lon="1.12496">
        <ele>63.3</ele>
        <time>2020-07-03T10:51:26Z</time>
      </trkpt>
      <trkpt lat="47.32589" lon="1.12496">
        <ele>63.3</ele>
        <time>2020-07-03T10:51:27Z</time>
      </trkpt>
      <trkpt lat="47.32589" lon="1.12497">
        <ele>63.3</ele>
        <time>2020-07-03T10:51:28Z</time>
      </trkpt>
      <trkpt lat="47.32589" lon="1.12498">
        <ele>63.3</ele>
        <time>2020-07-03T10:51:29Z</time>
      </trkpt>
      <trkpt lat="47.3259" lon="1.12498">
        <ele>63.3</ele>
        <time>2020-07-03T10:51:30Z</time>
      </trkpt>
      <trkpt lat="47.32592" lon="1.12498">
        <ele>63.3</ele>
        <time>2020-07-03T10:51:31Z</time>
      </trkpt>
      <trkpt lat="47.32593" lon="1.12499">
        <ele>63.3</ele>
        <time>2020-07-03T10:51:32Z</time>
      </trkpt>
      <trkpt lat="47.32594" lon="1.12499">
        <ele>63.3</ele>
        <time>2020-07-03T10:51:33Z</time>
      </trkpt>
      <trkpt lat="47.32594" lon="1.12499">
        <ele>63.3</ele>
        <time>2020-07-03T10:51:34Z</time>
      </trkpt>
      <trkpt lat="47.32595" lon="1.12499">
        <ele>63.3</ele>
        <time>2020-07-03T10:51:35Z</time>
      </trkpt>
      <trkpt lat="47.32595" lon="1.12498">
        <ele>63.3</ele>
        <time>2020-07-03T10:51:36Z</time>
      </trkpt>
      <trkpt lat="47.32596" lon="1.12497">
        <ele>63.3</ele>
        <time>2020-07-03T10:51:37Z</time>
      </trkpt>
      <trkpt lat="47.32595" lon="1.12495">
        <ele>63.2</ele>
        <time>2020-07-03T10:51:38Z</time>
      </trkpt>
      <trkpt lat="47.32595" lon="1.12493">
        <ele>63.2</ele>
        <time>2020-07-03T10:51:39Z</time>
      </trkpt>
      <trkpt lat="47.32595" lon="1.12492">
        <ele>63.2</ele>
        <time>2020-07-03T10:51:40Z</time>
      </trkpt>
      <trkpt lat="47.32596" lon="1.12491">
        <ele>63.2</ele>
        <time>2020-07-03T10:51:41Z</time>
      </trkpt>
      <trkpt lat="47.32596" lon="1.1249">
        <ele>63.2</ele>
        <time>2020-07-03T10:51:42Z</time>
      </trkpt>
      <trkpt lat="47.32596" lon="1.12489">
        <ele>63.2</ele>
        <time>2020-07-03T10:51:43Z</time>
      </trkpt>
      <trkpt lat="47.32595" lon="1.12489">
        <ele>63.2</ele>
        <time>2020-07-03T10:51:44Z</time>
      </trkpt>
      <trkpt lat="47.32595" lon="1.12488">
        <ele>63.2</ele>
        <time>2020-07-03T10:51:45Z</time>
      </trkpt>
      <trkpt lat="47.32594" lon="1.12489">
        <ele>63.2</ele>
        <time>2020-07-03T10:51:46Z</time>
      </trkpt>
      <trkpt lat="47.32593" lon="1.12489">
        <ele>63.2</ele>
        <time>2020-07-03T10:51:47Z</time>
      </trkpt>
      <trkpt lat="47.32593" lon="1.12489">
        <ele>63.2</ele>
        <time>2020-07-03T10:51:48Z</time>
      </trkpt>
      <trkpt lat="47.32593" lon="1.12489">
        <ele>63.2</ele>
        <time>2020-07-03T10:51:49Z</time>
      </trkpt>
      <trkpt lat="47.32593" lon="1.12489">
        <ele>63.2</ele>
        <time>2020-07-03T10:51:50Z</time>
      </trkpt>
      <trkpt lat="47.32593" lon="1.12489">
        <ele>63.2</ele>
        <time>2020-07-03T10:51:51Z</time>
      </trkpt>
      <trkpt lat="47.32592" lon="1.12489">
        <ele>63.2</ele>
        <time>2020-07-03T10:51:52Z</time>
      </trkpt>
      <trkpt lat="47.32592" lon="1.12489">
        <ele>63.2</ele>
        <time>2020-07-03T10:51:53Z</time>
      </trkpt>
      <trkpt lat="47.32592" lon="1.12489">
        <ele>63.2</ele>
        <time>2020-07-03T10:51:54Z</time>
      </trkpt>
      <trkpt lat="47.32591" lon="1.12489">
        <ele>63.2</ele>
        <time>2020-07-03T10:51:55Z</time>
      </trkpt>
      <trkpt lat="47.32591" lon="1.12489">
        <ele>63.2</ele>
        <time>2020-07-03T10:51:56Z</time>
      </trkpt>
      <trkpt lat="47.32592" lon="1.12489">
        <ele>63.2</ele>
        <time>2020-07-03T10:51:57Z</time>
      </trkpt>
      <trkpt lat="47.32593" lon="1.12489">
        <ele>63.2</ele>
        <time>2020-07-03T10:51:58Z</time>
      </trkpt>
      <trkpt lat="47.32593" lon="1.12488">
        <ele>63.2</ele>
        <time>2020-07-03T10:51:59Z</time>
      </trkpt>
      <trkpt lat="47.32593" lon="1.12486">
        <ele>63.2</ele>
        <time>2020-07-03T10:52:00Z</time>
      </trkpt>
      <trkpt lat="47.32594" lon="1.12486">
        <ele>63.2</ele>
        <time>2020-07-03T10:52:01Z</time>
      </trkpt>
      <trkpt lat="47.32594" lon="1.12487">
        <ele>63.2</ele>
        <time>2020-07-03T10:52:02Z</time>
      </trkpt>
      <trkpt lat="47.32595" lon="1.12486">
        <ele>63.2</ele>
        <time>2020-07-03T10:52:03Z</time>
      </trkpt>
      <trkpt lat="47.32595" lon="1.12486">
        <ele>63.2</ele>
        <time>2020-07-03T10:52:04Z</time>
      </trkpt>
      <trkpt lat="47.32595" lon="1.12486">
        <ele>63.2</ele>
        <time>2020-07-03T10:52:05Z</time>
      </trkpt>
      <trkpt lat="47.32595" lon="1.12486">
        <ele>63.2</ele>
        <time>2020-07-03T10:52:06Z</time>
      </trkpt>
      <trkpt lat="47.32595" lon="1.12486">
        <ele>63.2</ele>
        <time>2020-07-03T10:52:07Z</time>
      </trkpt>
      <trkpt lat="47.32596" lon="1.12486">
        <ele>63.2</ele>
        <time>2020-07-03T10:52:08Z</time>
      </trkpt>
      <trkpt lat="47.32596" lon="1.12487">
        <ele>63.2</ele>
        <time>2020-07-03T10:52:09Z</time>
      </trkpt>
      <trkpt lat="47.32596" lon="1.12487">
        <ele>63.2</ele>
        <time>2020-07-03T10:52:10Z</time>
      </trkpt>
      <trkpt lat="47.32597" lon="1.12486">
        <ele>63.2</ele>
        <time>2020-07-03T10:52:11Z</time>
      </trkpt>
      <trkpt lat="47.32599" lon="1.12485">
        <ele>63.2</ele>
        <time>2020-07-03T10:52:12Z</time>
      </trkpt>
      <trkpt lat="47.326" lon="1.12486">
        <ele>63.2</ele>
        <time>2020-07-03T10:52:13Z</time>
      </trkpt>
      <trkpt lat="47.326" lon="1.12486">
        <ele>63.2</ele>
        <time>2020-07-03T10:52:14Z</time>
      </trkpt>
      <trkpt lat="47.326" lon="1.12487">
        <ele>63.2</ele>
        <time>2020-07-03T10:52:15Z</time>
      </trkpt>
      <trkpt lat="47.326" lon="1.12487">
        <ele>63.2</ele>
        <time>2020-07-03T10:52:16Z</time>
      </trkpt>
      <trkpt lat="47.326" lon="1.12488">
        <ele>63.2</ele>
        <time>2020-07-03T10:52:17Z</time>
      </trkpt>
      <trkpt lat="47.326" lon="1.12488">
        <ele>63.2</ele>
        <time>2020-07-03T10:52:18Z</time>
      </trkpt>
      <trkpt lat="47.326" lon="1.12489">
        <ele>63.2</ele>
        <time>2020-07-03T10:52:19Z</time>
      </trkpt>
      <trkpt lat="47.326" lon="1.12489">
        <ele>63.2</ele>
        <time>2020-07-03T10:52:20Z</time>
      </trkpt>
      <trkpt lat="47.326" lon="1.12488">
        <ele>63.2</ele>
        <time>2020-07-03T10:52:21Z</time>
      </trkpt>
      <trkpt lat="47.32601" lon="1.12488">
        <ele>63.2</ele>
        <time>2020-07-03T10:52:22Z</time>
      </trkpt>
      <trkpt lat="47.32601" lon="1.12488">
        <ele>63.2</ele>
        <time>2020-07-03T10:52:23Z</time>
      </trkpt>
      <trkpt lat="47.32602" lon="1.12487">
        <ele>63.2</ele>
        <time>2020-07-03T10:52:24Z</time>
      </trkpt>
      <trkpt lat="47.32603" lon="1.12488">
        <ele>63.2</ele>
        <time>2020-07-03T10:52:25Z</time>
      </trkpt>
      <trkpt lat="47.32603" lon="1.12489">
        <ele>63.2</ele>
        <time>2020-07-03T10:52:26Z</time>
      </trkpt>
      <trkpt lat="47.32604" lon="1.12489">
        <ele>63.2</ele>
        <time>2020-07-03T10:52:27Z</time>
      </trkpt>
      <trkpt lat="47.326" lon="1.12486">
        <ele>63.2</ele>
        <time>2020-07-03T10:52:42Z</time>
      </trkpt>
      <trkpt lat="47.32599" lon="1.12487">
        <ele>63.2</ele>
        <time>2020-07-03T10:52:43Z</time>
      </trkpt>
      <trkpt lat="47.32598" lon="1.12487">
        <ele>63.2</ele>
        <time>2020-07-03T10:52:44Z</time>
      </trkpt>
      <trkpt lat="47.32597" lon="1.12486">
        <ele>63.2</ele>
        <time>2020-07-03T10:52:45Z</time>
      </trkpt>
      <trkpt lat="47.32596" lon="1.12486">
        <ele>63.2</ele>
        <time>2020-07-03T10:52:46Z</time>
      </trkpt>
      <trkpt lat="47.32594" lon="1.12486">
        <ele>63.2</ele>
        <time>2020-07-03T10:52:47Z</time>
      </trkpt>
      <trkpt lat="47.32593" lon="1.12486">
        <ele>63.2</ele>
        <time>2020-07-03T10:52:48Z</time>
      </trkpt>
      <trkpt lat="47.32592" lon="1.12486">
        <ele>63.2</ele>
        <time>2020-07-03T10:52:49Z</time>
      </trkpt>
      <trkpt lat="47.32591" lon="1.12486">
        <ele>63.2</ele>
        <time>2020-07-03T10:52:50Z</time>
      </trkpt>
      <trkpt lat="47.32589" lon="1.12484">
        <ele>63.2</ele>
        <time>2020-07-03T10:52:51Z</time>
      </trkpt>
      <trkpt lat="47.32588" lon="1.12484">
        <ele>63.2</ele>
        <time>2020-07-03T10:52:52Z</time>
      </trkpt>
      <trkpt lat="47.32587" lon="1.12484">
        <ele>63.2</ele>
        <time>2020-07-03T10:52:53Z</time>
      </trkpt>
      <trkpt lat="47.32586" lon="1.12484">
        <ele>63.2</ele>
        <time>2020-07-03T10:52:54Z</time>
      </trkpt>
      <trkpt lat="47.32585" lon="1.12482">
        <ele>63.2</ele>
        <time>2020-07-03T10:52:55Z</time>
      </trkpt>
      <trkpt lat="47.32584" lon="1.12482">
        <ele>63.2</ele>
        <time>2020-07-03T10:52:56Z</time>
      </trkpt>
      <trkpt lat="47.32583" lon="1.12481">
        <ele>63.2</ele>
        <time>2020-07-03T10:52:57Z</time>
      </trkpt>
      <trkpt lat="47.32583" lon="1.12479">
        <ele>63.2</ele>
        <time>2020-07-03T10:52:58Z</time>
      </trkpt>
      <trkpt lat="47.32584" lon="1.1248">
        <ele>63.2</ele>
        <time>2020-07-03T10:52:59Z</time>
      </trkpt>
      <trkpt lat="47.32584" lon="1.12481">
        <ele>63.2</ele>
        <time>2020-07-03T10:53:00Z</time>
      </trkpt>
      <trkpt lat="47.32585" lon="1.12482">
        <ele>63.2</ele>
        <time>2020-07-03T10:53:01Z</time>
      </trkpt>
      <trkpt lat="47.32584" lon="1.12481">
        <ele>63.2</ele>
        <time>2020-07-03T10:53:02Z</time>
      </trkpt>
      <trkpt lat="47.32584" lon="1.12481">
        <ele>63.2</ele>
        <time>2020-07-03T10:53:03Z</time>
      </trkpt>
      <trkpt lat="47.32585" lon="1.12482">
        <ele>63.2</ele>
        <time>2020-07-03T10:53:04Z</time>
      </trkpt>
      <trkpt lat="47.32586" lon="1.12484">
        <ele>63.2</ele>
        <time>2020-07-03T10:53:05Z</time>
      </trkpt>
      <trkpt lat="47.32587" lon="1.12485">
        <ele>63.2</ele>
        <time>2020-07-03T10:53:06Z</time>
      </trkpt>
      <trkpt lat="47.32588" lon="1.12486">
        <ele>63.2</ele>
        <time>2020-07-03T10:53:07Z</time>
      </trkpt>
      <trkpt lat="47.32589" lon="1.12486">
        <ele>63.2</ele>
        <time>2020-07-03T10:53:08Z</time>
      </trkpt>
      <trkpt lat="47.32589" lon="1.12486">
        <ele>63.2</ele>
        <time>2020-07-03T10:53:09Z</time>
      </trkpt>
      <trkpt lat="47.3259" lon="1.12485">
        <ele>63.2</ele>
        <time>2020-07-03T10:53:10Z</time>
      </trkpt>
      <trkpt lat="47.3259" lon="1.12485">
        <ele>63.2</ele>
        <time>2020-07-03T10:53:11Z</time>
      </trkpt>
      <trkpt lat="47.3259" lon="1.12485">
        <ele>63.2</ele>
        <time>2020-07-03T10:53:12Z</time>
      </trkpt>
      <trkpt lat="47.32589" lon="1.12486">
        <ele>63.2</ele>
        <time>2020-07-03T10:53:13Z</time>
      </trkpt>
      <trkpt lat="47.32588" lon="1.12486">
        <ele>63.2</ele>
        <time>2020-07-03T10:53:14Z</time>
      </trkpt>
      <trkpt lat="47.32587" lon="1.12487">
        <ele>63.2</ele>
        <time>2020-07-03T10:53:15Z</time>
      </trkpt>
      <trkpt lat="47.32587" lon="1.12487">
        <ele>63.2</ele>
        <time>2020-07-03T10:53:16Z</time>
      </trkpt>
      <trkpt lat="47.32587" lon="1.12488">
        <ele>63.2</ele>
        <time>2020-07-03T10:53:17Z</time>
      </trkpt>
      <trkpt lat="47.32586" lon="1.12488">
        <ele>63.2</ele>
        <time>2020-07-03T10:53:18Z</time>
      </trkpt>
      <trkpt lat="47.32585" lon="1.12489">
        <ele>63.2</ele>
        <time>2020-07-03T10:53:19Z</time>
      </trkpt>
      <trkpt lat="47.32584" lon="1.1249">
        <ele>63.2</ele>
        <time>2020-07-03T10:53:20Z</time>
      </trkpt>
      <trkpt lat="47.32584" lon="1.1249">
        <ele>63.2</ele>
        <time>2020-07-03T10:53:21Z</time>
      </trkpt>
      <trkpt lat="47.32584" lon="1.1249">
        <ele>63.2</ele>
        <time>2020-07-03T10:53:22Z</time>
      </trkpt>
      <trkpt lat="47.32583" lon="1.12491">
        <ele>63.2</ele>
        <time>2020-07-03T10:53:23Z</time>
      </trkpt>
      <trkpt lat="47.32583" lon="1.12492">
        <ele>63.2</ele>
        <time>2020-07-03T10:53:24Z</time>
      </trkpt>
      <trkpt lat="47.32584" lon="1.12492">
        <ele>63.2</ele>
        <time>2020-07-03T10:53:25Z</time>
      </trkpt>
      <trkpt lat="47.32583" lon="1.12493">
        <ele>63.2</ele>
        <time>2020-07-03T10:53:26Z</time>
      </trkpt>
      <trkpt lat="47.32584" lon="1.12493">
        <ele>63.2</ele>
        <time>2020-07-03T10:53:27Z</time>
      </trkpt>
      <trkpt lat="47.32584" lon="1.12493">
        <ele>63.2</ele>
        <time>2020-07-03T10:53:28Z</time>
      </trkpt>
      <trkpt lat="47.32584" lon="1.12493">
        <ele>63.2</ele>
        <time>2020-07-03T10:53:29Z</time>
      </trkpt>
      <trkpt lat="47.32584" lon="1.12493">
        <ele>63.2</ele>
        <time>2020-07-03T10:53:30Z</time>
      </trkpt>
      <trkpt lat="47.32585" lon="1.12493">
        <ele>63.2</ele>
        <time>2020-07-03T10:53:31Z</time>
      </trkpt>
      <trkpt lat="47.32586" lon="1.12493">
        <ele>63.2</ele>
        <time>2020-07-03T10:53:32Z</time>
      </trkpt>
      <trkpt lat="47.32587" lon="1.12494">
        <ele>63.2</ele>
        <time>2020-07-03T10:53:33Z</time>
      </trkpt>
      <trkpt lat="47.32602" lon="1.12484">
        <ele>63.3</ele>
        <time>2020-07-03T10:54:03Z</time>
      </trkpt>
      <trkpt lat="47.32603" lon="1.12482">
        <ele>63.3</ele>
        <time>2020-07-03T10:54:04Z</time>
      </trkpt>
      <trkpt lat="47.32603" lon="1.12481">
        <ele>63.3</ele>
        <time>2020-07-03T10:54:05Z</time>
      </trkpt>
      <trkpt lat="47.32603" lon="1.12481">
        <ele>63.3</ele>
        <time>2020-07-03T10:54:06Z</time>
      </trkpt>
      <trkpt lat="47.32604" lon="1.12479">
        <ele>63.3</ele>
        <time>2020-07-03T10:54:07Z</time>
      </trkpt>
      <trkpt lat="47.32604" lon="1.12479">
        <ele>63.3</ele>
        <time>2020-07-03T10:54:08Z</time>
      </trkpt>
      <trkpt lat="47.32605" lon="1.12478">
        <ele>63.3</ele>
        <time>2020-07-03T10:54:09Z</time>
      </trkpt>
      <trkpt lat="47.32605" lon="1.12478">
        <ele>63.3</ele>
        <time>2020-07-03T10:54:10Z</time>
      </trkpt>
      <trkpt lat="47.32605" lon="1.12479">
        <ele>63.3</ele>
        <time>2020-07-03T10:54:11Z</time>
      </trkpt>
      <trkpt lat="47.32604" lon="1.12479">
        <ele>63.3</ele>
        <time>2020-07-03T10:54:12Z</time>
      </trkpt>
      <trkpt lat="47.32605" lon="1.1248">
        <ele>63.3</ele>
        <time>2020-07-03T10:54:13Z</time>
      </trkpt>
      <trkpt lat="47.32605" lon="1.12481">
        <ele>63.3</ele>
        <time>2020-07-03T10:54:14Z</time>
      </trkpt>
      <trkpt lat="47.32604" lon="1.12482">
        <ele>63.3</ele>
        <time>2020-07-03T10:54:15Z</time>
      </trkpt>
      <trkpt lat="47.32603" lon="1.12483">
        <ele>63.3</ele>
        <time>2020-07-03T10:54:16Z</time>
      </trkpt>
      <trkpt lat="47.32603" lon="1.12485">
        <ele>63.3</ele>
        <time>2020-07-03T10:54:17Z</time>
      </trkpt>
      <trkpt lat="47.32604" lon="1.12486">
        <ele>63.3</ele>
        <time>2020-07-03T10:54:18Z</time>
      </trkpt>
      <trkpt lat="47.32604" lon="1.12488">
        <ele>63.3</ele>
        <time>2020-07-03T10:54:19Z</time>
      </trkpt>
      <trkpt lat="47.32604" lon="1.12489">
        <ele>63.3</ele>
        <time>2020-07-03T10:54:20Z</time>
      </trkpt>
      <trkpt lat="47.32605" lon="1.1249">
        <ele>63.3</ele>
        <time>2020-07-03T10:54:21Z</time>
      </trkpt>
      <trkpt lat="47.32606" lon="1.12491">
        <ele>63.3</ele>
        <time>2020-07-03T10:54:22Z</time>
      </trkpt>
      <trkpt lat="47.32605" lon="1.12491">
        <ele>63.3</ele>
        <time>2020-07-03T10:54:23Z</time>
      </trkpt>
      <trkpt lat="47.32605" lon="1.12492">
        <ele>63.3</ele>
        <time>2020-07-03T10:54:24Z</time>
      </trkpt>
      <trkpt lat="47.32605" lon="1.12493">
        <ele>63.3</ele>
        <time>2020-07-03T10:54:25Z</time>
      </trkpt>
      <trkpt lat="47.32605" lon="1.12494">
        <ele>63.3</ele>
        <time>2020-07-03T10:54:26Z</time>
      </trkpt>
      <trkpt lat="47.32605" lon="1.12494">
        <ele>63.3</ele>
        <time>2020-07-03T10:54:27Z</time>
      </trkpt>
      <trkpt lat="47.32605" lon="1.12495">
        <ele>63.3</ele>
        <time>2020-07-03T10:54:28Z</time>
      </trkpt>
      <trkpt lat="47.32604" lon="1.12496">
        <ele>63.3</ele>
        <time>2020-07-03T10:54:29Z</time>
      </trkpt>
      <trkpt lat="47.32605" lon="1.12498">
        <ele>63.3</ele>
        <time>2020-07-03T10:54:30Z</time>
      </trkpt>
      <trkpt lat="47.32605" lon="1.12499">
        <ele>63.3</ele>
        <time>2020-07-03T10:54:31Z</time>
      </trkpt>
      <trkpt lat="47.32605" lon="1.12501">
        <ele>63.3</ele>
        <time>2020-07-03T10:54:32Z</time>
      </trkpt>
      <trkpt lat="47.32605" lon="1.12501">
        <ele>63.3</ele>
        <time>2020-07-03T10:54:33Z</time>
      </trkpt>
      <trkpt lat="47.32605" lon="1.12502">
        <ele>63.3</ele>
        <time>2020-07-03T10:54:34Z</time>
      </trkpt>
      <trkpt lat="47.32605" lon="1.12503">
        <ele>63.3</ele>
        <time>2020-07-03T10:54:35Z</time>
      </trkpt>
      <trkpt lat="47.32605" lon="1.12503">
        <ele>63.3</ele>
        <time>2020-07-03T10:54:36Z</time>
      </trkpt>
      <trkpt lat="47.32605" lon="1.12503">
        <ele>63.3</ele>
        <time>2020-07-03T10:54:37Z</time>
      </trkpt>
      <trkpt lat="47.32605" lon="1.12504">
        <ele>63.3</ele>
        <time>2020-07-03T10:54:38Z</time>
      </trkpt>
      <trkpt lat="47.32605" lon="1.12504">
        <ele>63.3</ele>
        <time>2020-07-03T10:54:39Z</time>
      </trkpt>
      <trkpt lat="47.32606" lon="1.12503">
        <ele>63.3</ele>
        <time>2020-07-03T10:54:40Z</time>
      </trkpt>
      <trkpt lat="47.32605" lon="1.12504">
        <ele>63.3</ele>
        <time>2020-07-03T10:54:41Z</time>
      </trkpt>
      <trkpt lat="47.32606" lon="1.12504">
        <ele>63.3</ele>
        <time>2020-07-03T10:54:42Z</time>
      </trkpt>
      <trkpt lat="47.32606" lon="1.12505">
        <ele>63.3</ele>
        <time>2020-07-03T10:54:43Z</time>
      </trkpt>
      <trkpt lat="47.32605" lon="1.12506">
        <ele>63.3</ele>
        <time>2020-07-03T10:54:44Z</time>
      </trkpt>
      <trkpt lat="47.32606" lon="1.12505">
        <ele>63.3</ele>
        <time>2020-07-03T10:54:45Z</time>
      </trkpt>
      <trkpt lat="47.32606" lon="1.12506">
        <ele>63.3</ele>
        <time>2020-07-03T10:54:46Z</time>
      </trkpt>
      <trkpt lat="47.32606" lon="1.12504">
        <ele>63.3</ele>
        <time>2020-07-03T10:54:47Z</time>
      </trkpt>
      <trkpt lat="47.32606" lon="1.12505">
        <ele>63.3</ele>
        <time>2020-07-03T10:54:48Z</time>
      </trkpt>
      <trkpt lat="47.32607" lon="1.12504">
        <ele>63.3</ele>
        <time>2020-07-03T10:54:49Z</time>
      </trkpt>
      <trkpt lat="47.32606" lon="1.12505">
        <ele>63.3</ele>
        <time>2020-07-03T10:54:50Z</time>
      </trkpt>
      <trkpt lat="47.32606" lon="1.12505">
        <ele>63.3</ele>
        <time>2020-07-03T10:54:51Z</time>
      </trkpt>
      <trkpt lat="47.32606" lon="1.12506">
        <ele>63.3</ele>
        <time>2020-07-03T10:54:52Z</time>
      </trkpt>
      <trkpt lat="47.32605" lon="1.12507">
        <ele>63.3</ele>
        <time>2020-07-03T10:54:53Z</time>
      </trkpt>
      <trkpt lat="47.32605" lon="1.12506">
        <ele>63.3</ele>
        <time>2020-07-03T10:54:54Z</time>
      </trkpt>
      <trkpt lat="47.32605" lon="1.12507">
        <ele>63.3</ele>
        <time>2020-07-03T10:54:55Z</time>
      </trkpt>
      <trkpt lat="47.32605" lon="1.12507">
        <ele>63.3</ele>
        <time>2020-07-03T10:54:56Z</time>
      </trkpt>
      <trkpt lat="47.32605" lon="1.12507">
        <ele>63.3</ele>
        <time>2020-07-03T10:54:57Z</time>
      </trkpt>
      <trkpt lat="47.32605" lon="1.12506">
        <ele>63.3</ele>
        <time>2020-07-03T10:54:58Z</time>
      </trkpt>
      <trkpt lat="47.32605" lon="1.12504">
        <ele>63.3</ele>
        <time>2020-07-03T10:54:59Z</time>
      </trkpt>
      <trkpt lat="47.32605" lon="1.12504">
        <ele>63.3</ele>
        <time>2020-07-03T10:55:00Z</time>
      </trkpt>
      <trkpt lat="47.32606" lon="1.12503">
        <ele>63.3</ele>
        <time>2020-07-03T10:55:01Z</time>
      </trkpt>
      <trkpt lat="47.32606" lon="1.12502">
        <ele>63.3</ele>
        <time>2020-07-03T10:55:02Z</time>
      </trkpt>
      <trkpt lat="47.32607" lon="1.12501">
        <ele>63.3</ele>
        <time>2020-07-03T10:55:03Z</time>
      </trkpt>
      <trkpt lat="47.32608" lon="1.125">
        <ele>63.3</ele>
        <time>2020-07-03T10:55:04Z</time>
      </trkpt>
      <trkpt lat="47.32609" lon="1.12499">
        <ele>63.3</ele>
        <time>2020-07-03T10:55:05Z</time>
      </trkpt>
      <trkpt lat="47.3261" lon="1.12497">
        <ele>63.3</ele>
        <time>2020-07-03T10:55:06Z</time>
      </trkpt>
      <trkpt lat="47.32611" lon="1.12496">
        <ele>63.3</ele>
        <time>2020-07-03T10:55:07Z</time>
      </trkpt>
      <trkpt lat="47.32612" lon="1.12495">
        <ele>63.3</ele>
        <time>2020-07-03T10:55:08Z</time>
      </trkpt>
      <trkpt lat="47.32613" lon="1.12494">
        <ele>63.3</ele>
        <time>2020-07-03T10:55:09Z</time>
      </trkpt>
      <trkpt lat="47.32613" lon="1.12493">
        <ele>63.3</ele>
        <time>2020-07-03T10:55:10Z</time>
      </trkpt>
      <trkpt lat="47.32614" lon="1.12492">
        <ele>63.3</ele>
        <time>2020-07-03T10:55:11Z</time>
      </trkpt>
      <trkpt lat="47.32614" lon="1.12492">
        <ele>63.3</ele>
        <time>2020-07-03T10:55:12Z</time>
      </trkpt>
      <trkpt lat="47.32615" lon="1.12493">
        <ele>63.3</ele>
        <time>2020-07-03T10:55:13Z</time>
      </trkpt>
      <trkpt lat="47.32615" lon="1.12494">
        <ele>63.3</ele>
        <time>2020-07-03T10:55:14Z</time>
      </trkpt>
      <trkpt lat="47.32615" lon="1.12494">
        <ele>63.3</ele>
        <time>2020-07-03T10:55:15Z</time>
      </trkpt>
      <trkpt lat="47.32615" lon="1.12495">
        <ele>63.3</ele>
        <time>2020-07-03T10:55:16Z</time>
      </trkpt>
      <trkpt lat="47.32614" lon="1.12498">
        <ele>63.3</ele>
        <time>2020-07-03T10:55:17Z</time>
      </trkpt>
      <trkpt lat="47.32613" lon="1.12501">
        <ele>63.3</ele>
        <time>2020-07-03T10:55:18Z</time>
      </trkpt>
      <trkpt lat="47.32612" lon="1.12503">
        <ele>63.3</ele>
        <time>2020-07-03T10:55:19Z</time>
      </trkpt>
      <trkpt lat="47.32612" lon="1.12503">
        <ele>63.3</ele>
        <time>2020-07-03T10:55:20Z</time>
      </trkpt>
      <trkpt lat="47.32612" lon="1.12502">
        <ele>63.3</ele>
        <time>2020-07-03T10:55:21Z</time>
      </trkpt>
      <trkpt lat="47.32612" lon="1.12502">
        <ele>63.3</ele>
        <time>2020-07-03T10:55:22Z</time>
      </trkpt>
      <trkpt lat="47.32612" lon="1.12501">
        <ele>63.3</ele>
        <time>2020-07-03T10:55:23Z</time>
      </trkpt>
      <trkpt lat="47.32612" lon="1.125">
        <ele>63.3</ele>
        <time>2020-07-03T10:55:24Z</time>
      </trkpt>
      <trkpt lat="47.32611" lon="1.12499">
        <ele>63.3</ele>
        <time>2020-07-03T10:55:25Z</time>
      </trkpt>
      <trkpt lat="47.32611" lon="1.12498">
        <ele>63.3</ele>
        <time>2020-07-03T10:55:26Z</time>
      </trkpt>
      <trkpt lat="47.32611" lon="1.12498">
        <ele>63.3</ele>
        <time>2020-07-03T10:55:27Z</time>
      </trkpt>
      <trkpt lat="47.32611" lon="1.12497">
        <ele>63.3</ele>
        <time>2020-07-03T10:55:28Z</time>
      </trkpt>
      <trkpt lat="47.32611" lon="1.12496">
        <ele>63.3</ele>
        <time>2020-07-03T10:55:29Z</time>
      </trkpt>
      <trkpt lat="47.32611" lon="1.12495">
        <ele>63.3</ele>
        <time>2020-07-03T10:55:30Z</time>
      </trkpt>
      <trkpt lat="47.32611" lon="1.12495">
        <ele>63.3</ele>
        <time>2020-07-03T10:55:31Z</time>
      </trkpt>
      <trkpt lat="47.32611" lon="1.12494">
        <ele>63.3</ele>
        <time>2020-07-03T10:55:49Z</time>
      </trkpt>
      <trkpt lat="47.32611" lon="1.12493">
        <ele>63.3</ele>
        <time>2020-07-03T10:55:50Z</time>
      </trkpt>
      <trkpt lat="47.3261" lon="1.12492">
        <ele>63.3</ele>
        <time>2020-07-03T10:55:51Z</time>
      </trkpt>
      <trkpt lat="47.3261" lon="1.1249">
        <ele>63.3</ele>
        <time>2020-07-03T10:55:52Z</time>
      </trkpt>
      <trkpt lat="47.3261" lon="1.12488">
        <ele>63.3</ele>
        <time>2020-07-03T10:55:53Z</time>
      </trkpt>
      <trkpt lat="47.3261" lon="1.12486">
        <ele>63.3</ele>
        <time>2020-07-03T10:55:54Z</time>
      </trkpt>
      <trkpt lat="47.3261" lon="1.12485">
        <ele>63.3</ele>
        <time>2020-07-03T10:55:55Z</time>
      </trkpt>
      <trkpt lat="47.3261" lon="1.12483">
        <ele>63.3</ele>
        <time>2020-07-03T10:55:56Z</time>
      </trkpt>
      <trkpt lat="47.3261" lon="1.12482">
        <ele>63.3</ele>
        <time>2020-07-03T10:55:57Z</time>
      </trkpt>
      <trkpt lat="47.3261" lon="1.12481">
        <ele>63.3</ele>
        <time>2020-07-03T10:55:58Z</time>
      </trkpt>
      <trkpt lat="47.32609" lon="1.1248">
        <ele>63.3</ele>
        <time>2020-07-03T10:55:59Z</time>
      </trkpt>
      <trkpt lat="47.32608" lon="1.12481">
        <ele>63.3</ele>
        <time>2020-07-03T10:56:00Z</time>
      </trkpt>
      <trkpt lat="47.32607" lon="1.12481">
        <ele>63.3</ele>
        <time>2020-07-03T10:56:01Z</time>
      </trkpt>
      <trkpt lat="47.32605" lon="1.12482">
        <ele>63.3</ele>
        <time>2020-07-03T10:56:02Z</time>
      </trkpt>
      <trkpt lat="47.32604" lon="1.12482">
        <ele>63.3</ele>
        <time>2020-07-03T10:56:03Z</time>
      </trkpt>
      <trkpt lat="47.32603" lon="1.12483">
        <ele>63.3</ele>
        <time>2020-07-03T10:56:04Z</time>
      </trkpt>
      <trkpt lat="47.32602" lon="1.12483">
        <ele>63.3</ele>
        <time>2020-07-03T10:56:05Z</time>
      </trkpt>
      <trkpt lat="47.32601" lon="1.12484">
        <ele>63.3</ele>
        <time>2020-07-03T10:56:06Z</time>
      </trkpt>
      <trkpt lat="47.326" lon="1.12484">
        <ele>63.3</ele>
        <time>2020-07-03T10:56:07Z</time>
      </trkpt>
      <trkpt lat="47.326" lon="1.12484">
        <ele>63.3</ele>
        <time>2020-07-03T10:56:08Z</time>
      </trkpt>
      <trkpt lat="47.32599" lon="1.12483">
        <ele>63.3</ele>
        <time>2020-07-03T10:56:09Z</time>
      </trkpt>
      <trkpt lat="47.32599" lon="1.12483">
        <ele>63.3</ele>
        <time>2020-07-03T10:56:10Z</time>
      </trkpt>
      <trkpt lat="47.32599" lon="1.12483">
        <ele>63.3</ele>
        <time>2020-07-03T10:56:11Z</time>
      </trkpt>
      <trkpt lat="47.326" lon="1.12483">
        <ele>63.3</ele>
        <time>2020-07-03T10:56:12Z</time>
      </trkpt>
      <trkpt lat="47.326" lon="1.12483">
        <ele>63.3</ele>
        <time>2020-07-03T10:56:13Z</time>
      </trkpt>
      <trkpt lat="47.326" lon="1.12484">
        <ele>63.3</ele>
        <time>2020-07-03T10:56:14Z</time>
      </trkpt>
      <trkpt lat="47.326" lon="1.12484">
        <ele>63.3</ele>
        <time>2020-07-03T10:56:15Z</time>
      </trkpt>
      <trkpt lat="47.326" lon="1.12484">
        <ele>63.3</ele>
        <time>2020-07-03T10:56:16Z</time>
      </trkpt>
      <trkpt lat="47.326" lon="1.12484">
        <ele>63.3</ele>
        <time>2020-07-03T10:56:17Z</time>
      </trkpt>
      <trkpt lat="47.326" lon="1.12484">
        <ele>63.3</ele>
        <time>2020-07-03T10:56:18Z</time>
      </trkpt>
      <trkpt lat="47.326" lon="1.12484">
        <ele>63.3</ele>
        <time>2020-07-03T10:56:19Z</time>
      </trkpt>
      <trkpt lat="47.326" lon="1.12485">
        <ele>63.3</ele>
        <time>2020-07-03T10:56:20Z</time>
      </trkpt>
      <trkpt lat="47.32601" lon="1.12485">
        <ele>63.3</ele>
        <time>2020-07-03T10:56:21Z</time>
      </trkpt>
      <trkpt lat="47.32601" lon="1.12485">
        <ele>63.3</ele>
        <time>2020-07-03T10:56:22Z</time>
      </trkpt>
      <trkpt lat="47.32601" lon="1.12485">
        <ele>63.3</ele>
        <time>2020-07-03T10:56:23Z</time>
      </trkpt>
      <trkpt lat="47.326" lon="1.12484">
        <ele>63.3</ele>
        <time>2020-07-03T10:56:24Z</time>
      </trkpt>
      <trkpt lat="47.326" lon="1.12485">
        <ele>63.3</ele>
        <time>2020-07-03T10:56:25Z</time>
      </trkpt>
      <trkpt lat="47.326" lon="1.12485">
        <ele>63.3</ele>
        <time>2020-07-03T10:56:26Z</time>
      </trkpt>
      <trkpt lat="47.32599" lon="1.12485">
        <ele>63.3</ele>
        <time>2020-07-03T10:56:27Z</time>
      </trkpt>
      <trkpt lat="47.32599" lon="1.12485">
        <ele>63.3</ele>
        <time>2020-07-03T10:56:28Z</time>
      </trkpt>
      <trkpt lat="47.32598" lon="1.12483">
        <ele>63.3</ele>
        <time>2020-07-03T10:56:29Z</time>
      </trkpt>
      <trkpt lat="47.32598" lon="1.12483">
        <ele>63.3</ele>
        <time>2020-07-03T10:56:30Z</time>
      </trkpt>
      <trkpt lat="47.32597" lon="1.12482">
        <ele>63.3</ele>
        <time>2020-07-03T10:56:31Z</time>
      </trkpt>
      <trkpt lat="47.32597" lon="1.12481">
        <ele>63.3</ele>
        <time>2020-07-03T10:56:32Z</time>
      </trkpt>
      <trkpt lat="47.32598" lon="1.12481">
        <ele>63.3</ele>
        <time>2020-07-03T10:56:33Z</time>
      </trkpt>
      <trkpt lat="47.32598" lon="1.12481">
        <ele>63.3</ele>
        <time>2020-07-03T10:56:34Z</time>
      </trkpt>
      <trkpt lat="47.32599" lon="1.1248">
        <ele>63.3</ele>
        <time>2020-07-03T10:56:35Z</time>
      </trkpt>
      <trkpt lat="47.32599" lon="1.1248">
        <ele>63.3</ele>
        <time>2020-07-03T10:56:36Z</time>
      </trkpt>
      <trkpt lat="47.326" lon="1.12481">
        <ele>63.3</ele>
        <time>2020-07-03T10:56:37Z</time>
      </trkpt>
      <trkpt lat="47.326" lon="1.1248">
        <ele>63.3</ele>
        <time>2020-07-03T10:56:38Z</time>
      </trkpt>
      <trkpt lat="47.326" lon="1.1248">
        <ele>63.3</ele>
        <time>2020-07-03T10:56:39Z</time>
      </trkpt>
      <trkpt lat="47.32601" lon="1.12481">
        <ele>63.3</ele>
        <time>2020-07-03T10:56:40Z</time>
      </trkpt>
      <trkpt lat="47.32602" lon="1.12481">
        <ele>63.3</ele>
        <time>2020-07-03T10:56:41Z</time>
      </trkpt>
      <trkpt lat="47.32602" lon="1.12482">
        <ele>63.3</ele>
        <time>2020-07-03T10:56:42Z</time>
      </trkpt>
      <trkpt lat="47.32602" lon="1.12482">
        <ele>63.3</ele>
        <time>2020-07-03T10:56:43Z</time>
      </trkpt>
      <trkpt lat="47.32601" lon="1.12483">
        <ele>63.3</ele>
        <time>2020-07-03T10:56:44Z</time>
      </trkpt>
      <trkpt lat="47.32601" lon="1.12483">
        <ele>63.3</ele>
        <time>2020-07-03T10:56:45Z</time>
      </trkpt>
      <trkpt lat="47.32601" lon="1.12483">
        <ele>63.3</ele>
        <time>2020-07-03T10:56:46Z</time>
      </trkpt>
      <trkpt lat="47.32601" lon="1.12483">
        <ele>63.3</ele>
        <time>2020-07-03T10:56:47Z</time>
      </trkpt>
      <trkpt lat="47.32601" lon="1.12482">
        <ele>63.3</ele>
        <time>2020-07-03T10:56:48Z</time>
      </trkpt>
      <trkpt lat="47.326" lon="1.12483">
        <ele>63.3</ele>
        <time>2020-07-03T10:56:49Z</time>
      </trkpt>
      <trkpt lat="47.326" lon="1.12483">
        <ele>63.3</ele>
        <time>2020-07-03T10:56:50Z</time>
      </trkpt>
      <trkpt lat="47.32599" lon="1.12483">
        <ele>63.3</ele>
        <time>2020-07-03T10:56:51Z</time>
      </trkpt>
      <trkpt lat="47.32598" lon="1.12483">
        <ele>63.3</ele>
        <time>2020-07-03T10:56:52Z</time>
      </trkpt>
      <trkpt lat="47.32597" lon="1.12484">
        <ele>63.3</ele>
        <time>2020-07-03T10:56:53Z</time>
      </trkpt>
      <trkpt lat="47.32597" lon="1.12485">
        <ele>63.3</ele>
        <time>2020-07-03T10:56:54Z</time>
      </trkpt>
      <trkpt lat="47.32596" lon="1.12486">
        <ele>63.3</ele>
        <time>2020-07-03T10:56:55Z</time>
      </trkpt>
      <trkpt lat="47.32595" lon="1.12486">
        <ele>63.3</ele>
        <time>2020-07-03T10:56:56Z</time>
      </trkpt>
      <trkpt lat="47.32594" lon="1.12486">
        <ele>63.3</ele>
        <time>2020-07-03T10:56:57Z</time>
      </trkpt>
      <trkpt lat="47.32594" lon="1.12486">
        <ele>63.3</ele>
        <time>2020-07-03T10:56:58Z</time>
      </trkpt>
      <trkpt lat="47.32593" lon="1.12487">
        <ele>63.3</ele>
        <time>2020-07-03T10:56:59Z</time>
      </trkpt>
      <trkpt lat="47.32592" lon="1.12487">
        <ele>63.3</ele>
        <time>2020-07-03T10:57:00Z</time>
      </trkpt>
      <trkpt lat="47.32592" lon="1.12488">
        <ele>63.3</ele>
        <time>2020-07-03T10:57:01Z</time>
      </trkpt>
      <trkpt lat="47.32592" lon="1.12489">
        <ele>63.3</ele>
        <time>2020-07-03T10:57:02Z</time>
      </trkpt>
      <trkpt lat="47.32592" lon="1.12489">
        <ele>63.3</ele>
        <time>2020-07-03T10:57:03Z</time>
      </trkpt>
      <trkpt lat="47.32593" lon="1.1249">
        <ele>63.3</ele>
        <time>2020-07-03T10:57:04Z</time>
      </trkpt>
      <trkpt lat="47.32593" lon="1.12491">
        <ele>63.3</ele>
        <time>2020-07-03T10:57:05Z</time>
      </trkpt>
      <trkpt lat="47.32594" lon="1.12491">
        <ele>63.3</ele>
        <time>2020-07-03T10:57:06Z</time>
      </trkpt>
      <trkpt lat="47.32594" lon="1.12492">
        <ele>63.3</ele>
        <time>2020-07-03T10:57:07Z</time>
      </trkpt>
      <trkpt lat="47.32595" lon="1.12492">
        <ele>63.3</ele>
        <time>2020-07-03T10:57:08Z</time>
      </trkpt>
      <trkpt lat="47.32596" lon="1.12492">
        <ele>63.3</ele>
        <time>2020-07-03T10:57:09Z</time>
      </trkpt>
      <trkpt lat="47.32596" lon="1.12492">
        <ele>63.3</ele>
        <time>2020-07-03T10:57:10Z</time>
      </trkpt>
      <trkpt lat="47.32597" lon="1.12492">
        <ele>63.3</ele>
        <time>2020-07-03T10:57:11Z</time>
      </trkpt>
      <trkpt lat="47.32598" lon="1.12492">
        <ele>63.3</ele>
        <time>2020-07-03T10:57:12Z</time>
      </trkpt>
      <trkpt lat="47.32599" lon="1.12492">
        <ele>63.3</ele>
        <time>2020-07-03T10:57:13Z</time>
      </trkpt>
      <trkpt lat="47.326" lon="1.12492">
        <ele>63.3</ele>
        <time>2020-07-03T10:57:14Z</time>
      </trkpt>
      <trkpt lat="47.32602" lon="1.12492">
        <ele>63.3</ele>
        <time>2020-07-03T10:57:15Z</time>
      </trkpt>
      <trkpt lat="47.32603" lon="1.12493">
        <ele>63.3</ele>
        <time>2020-07-03T10:57:16Z</time>
      </trkpt>
      <trkpt lat="47.32604" lon="1.12493">
        <ele>63.4</ele>
        <time>2020-07-03T10:57:17Z</time>
      </trkpt>
      <trkpt lat="47.32605" lon="1.12493">
        <ele>63.4</ele>
        <time>2020-07-03T10:57:18Z</time>
      </trkpt>
      <trkpt lat="47.32605" lon="1.12493">
        <ele>63.4</ele>
        <time>2020-07-03T10:57:19Z</time>
      </trkpt>
      <trkpt lat="47.32606" lon="1.12491">
        <ele>63.4</ele>
        <time>2020-07-03T10:57:20Z</time>
      </trkpt>
      <trkpt lat="47.32606" lon="1.1249">
        <ele>63.4</ele>
        <time>2020-07-03T10:57:21Z</time>
      </trkpt>
      <trkpt lat="47.32606" lon="1.12489">
        <ele>63.4</ele>
        <time>2020-07-03T10:57:22Z</time>
      </trkpt>
      <trkpt lat="47.32606" lon="1.12489">
        <ele>63.4</ele>
        <time>2020-07-03T10:57:23Z</time>
      </trkpt>
      <trkpt lat="47.32605" lon="1.1249">
        <ele>63.4</ele>
        <time>2020-07-03T10:57:24Z</time>
      </trkpt>
      <trkpt lat="47.32604" lon="1.1249">
        <ele>63.4</ele>
        <time>2020-07-03T10:57:25Z</time>
      </trkpt>
      <trkpt lat="47.32603" lon="1.1249">
        <ele>63.4</ele>
        <time>2020-07-03T10:57:26Z</time>
      </trkpt>
      <trkpt lat="47.32603" lon="1.1249">
        <ele>63.4</ele>
        <time>2020-07-03T10:57:27Z</time>
      </trkpt>
      <trkpt lat="47.32602" lon="1.12489">
        <ele>63.4</ele>
        <time>2020-07-03T10:57:28Z</time>
      </trkpt>
      <trkpt lat="47.32601" lon="1.12489">
        <ele>63.4</ele>
        <time>2020-07-03T10:57:29Z</time>
      </trkpt>
      <trkpt lat="47.32601" lon="1.12489">
        <ele>63.4</ele>
        <time>2020-07-03T10:57:30Z</time>
      </trkpt>
      <trkpt lat="47.326" lon="1.12489">
        <ele>63.4</ele>
        <time>2020-07-03T10:57:31Z</time>
      </trkpt>
      <trkpt lat="47.32599" lon="1.1249">
        <ele>63.4</ele>
        <time>2020-07-03T10:57:32Z</time>
      </trkpt>
      <trkpt lat="47.32598" lon="1.12492">
        <ele>63.4</ele>
        <time>2020-07-03T10:57:33Z</time>
      </trkpt>
      <trkpt lat="47.32596" lon="1.12493">
        <ele>63.4</ele>
        <time>2020-07-03T10:57:34Z</time>
      </trkpt>
      <trkpt lat="47.32595" lon="1.12494">
        <ele>63.4</ele>
        <time>2020-07-03T10:57:35Z</time>
      </trkpt>
      <trkpt lat="47.32594" lon="1.12495">
        <ele>63.4</ele>
        <time>2020-07-03T10:57:36Z</time>
      </trkpt>
      <trkpt lat="47.32593" lon="1.12495">
        <ele>63.4</ele>
        <time>2020-07-03T10:57:37Z</time>
      </trkpt>
      <trkpt lat="47.32592" lon="1.12496">
        <ele>63.4</ele>
        <time>2020-07-03T10:57:38Z</time>
      </trkpt>
      <trkpt lat="47.32592" lon="1.12497">
        <ele>63.4</ele>
        <time>2020-07-03T10:57:39Z</time>
      </trkpt>
      <trkpt lat="47.32592" lon="1.12497">
        <ele>63.4</ele>
        <time>2020-07-03T10:57:40Z</time>
      </trkpt>
      <trkpt lat="47.32592" lon="1.12497">
        <ele>63.4</ele>
        <time>2020-07-03T10:57:41Z</time>
      </trkpt>
      <trkpt lat="47.32591" lon="1.12497">
        <ele>63.4</ele>
        <time>2020-07-03T10:57:42Z</time>
      </trkpt>
      <trkpt lat="47.32591" lon="1.12497">
        <ele>63.4</ele>
        <time>2020-07-03T10:57:43Z</time>
      </trkpt>
      <trkpt lat="47.32591" lon="1.12498">
        <ele>63.4</ele>
        <time>2020-07-03T10:57:44Z</time>
      </trkpt>
      <trkpt lat="47.32591" lon="1.12498">
        <ele>63.4</ele>
        <time>2020-07-03T10:57:45Z</time>
      </trkpt>
      <trkpt lat="47.3259" lon="1.12498">
        <ele>63.4</ele>
        <time>2020-07-03T10:57:46Z</time>
      </trkpt>
      <trkpt lat="47.32591" lon="1.12498">
        <ele>63.4</ele>
        <time>2020-07-03T10:57:47Z</time>
      </trkpt>
      <trkpt lat="47.32591" lon="1.12498">
        <ele>63.4</ele>
        <time>2020-07-03T10:57:48Z</time>
      </trkpt>
      <trkpt lat="47.32591" lon="1.12498">
        <ele>63.4</ele>
        <time>2020-07-03T10:57:49Z</time>
      </trkpt>
      <trkpt lat="47.32592" lon="1.12498">
        <ele>63.4</ele>
        <time>2020-07-03T10:57:50Z</time>
      </trkpt>
      <trkpt lat="47.32592" lon="1.12498">
        <ele>63.4</ele>
        <time>2020-07-03T10:57:51Z</time>
      </trkpt>
      <trkpt lat="47.32593" lon="1.12497">
        <ele>63.4</ele>
        <time>2020-07-03T10:57:52Z</time>
      </trkpt>
      <trkpt lat="47.32594" lon="1.12497">
        <ele>63.4</ele>
        <time>2020-07-03T10:57:53Z</time>
      </trkpt>
      <trkpt lat="47.32595" lon="1.12498">
        <ele>63.4</ele>
        <time>2020-07-03T10:57:54Z</time>
      </trkpt>
      <trkpt lat="47.32596" lon="1.12498">
        <ele>63.4</ele>
        <time>2020-07-03T10:57:55Z</time>
      </trkpt>
      <trkpt lat="47.32597" lon="1.12498">
        <ele>63.4</ele>
        <time>2020-07-03T10:57:56Z</time>
      </trkpt>
      <trkpt lat="47.32598" lon="1.12499">
        <ele>63.4</ele>
        <time>2020-07-03T10:57:57Z</time>
      </trkpt>
      <trkpt lat="47.32599" lon="1.125">
        <ele>63.4</ele>
        <time>2020-07-03T10:57:58Z</time>
      </trkpt>
      <trkpt lat="47.326" lon="1.125">
        <ele>63.4</ele>
        <time>2020-07-03T10:57:59Z</time>
      </trkpt>
      <trkpt lat="47.32601" lon="1.12501">
        <ele>63.4</ele>
        <time>2020-07-03T10:58:00Z</time>
      </trkpt>
      <trkpt lat="47.32601" lon="1.12501">
        <ele>63.4</ele>
        <time>2020-07-03T10:58:01Z</time>
      </trkpt>
      <trkpt lat="47.32602" lon="1.125">
        <ele>63.4</ele>
        <time>2020-07-03T10:58:02Z</time>
      </trkpt>
      <trkpt lat="47.32603" lon="1.125">
        <ele>63.4</ele>
        <time>2020-07-03T10:58:03Z</time>
      </trkpt>
      <trkpt lat="47.32603" lon="1.125">
        <ele>63.4</ele>
        <time>2020-07-03T10:58:04Z</time>
      </trkpt>
      <trkpt lat="47.32604" lon="1.12498">
        <ele>63.4</ele>
        <time>2020-07-03T10:58:05Z</time>
      </trkpt>
      <trkpt lat="47.32604" lon="1.12497">
        <ele>63.4</ele>
        <time>2020-07-03T10:58:06Z</time>
      </trkpt>
      <trkpt lat="47.32605" lon="1.12496">
        <ele>63.4</ele>
        <time>2020-07-03T10:58:07Z</time>
      </trkpt>
      <trkpt lat="47.32605" lon="1.12495">
        <ele>63.4</ele>
        <time>2020-07-03T10:58:08Z</time>
      </trkpt>
      <trkpt lat="47.32605" lon="1.12495">
        <ele>63.4</ele>
        <time>2020-07-03T10:58:09Z</time>
      </trkpt>
      <trkpt lat="47.32605" lon="1.12496">
        <ele>63.4</ele>
        <time>2020-07-03T10:58:10Z</time>
      </trkpt>
      <trkpt lat="47.32605" lon="1.12496">
        <ele>63.4</ele>
        <time>2020-07-03T10:58:11Z</time>
      </trkpt>
      <trkpt lat="47.32604" lon="1.12496">
        <ele>63.4</ele>
        <time>2020-07-03T10:58:12Z</time>
      </trkpt>
      <trkpt lat="47.32604" lon="1.12495">
        <ele>63.4</ele>
        <time>2020-07-03T10:58:13Z</time>
      </trkpt>
      <trkpt lat="47.32603" lon="1.12494">
        <ele>63.4</ele>
        <time>2020-07-03T10:58:14Z</time>
      </trkpt>
      <trkpt lat="47.32602" lon="1.12494">
        <ele>63.4</ele>
        <time>2020-07-03T10:58:15Z</time>
      </trkpt>
      <trkpt lat="47.32601" lon="1.12493">
        <ele>63.4</ele>
        <time>2020-07-03T10:58:16Z</time>
      </trkpt>
      <trkpt lat="47.32601" lon="1.12493">
        <ele>63.4</ele>
        <time>2020-07-03T10:58:17Z</time>
      </trkpt>
      <trkpt lat="47.32601" lon="1.12493">
        <ele>63.4</ele>
        <time>2020-07-03T10:58:18Z</time>
      </trkpt>
      <trkpt lat="47.32601" lon="1.12493">
        <ele>63.4</ele>
        <time>2020-07-03T10:58:19Z</time>
      </trkpt>
      <trkpt lat="47.326" lon="1.12492">
        <ele>63.4</ele>
        <time>2020-07-03T10:58:20Z</time>
      </trkpt>
      <trkpt lat="47.326" lon="1.12492">
        <ele>63.4</ele>
        <time>2020-07-03T10:58:21Z</time>
      </trkpt>
      <trkpt lat="47.32601" lon="1.12493">
        <ele>63.4</ele>
        <time>2020-07-03T10:58:22Z</time>
      </trkpt>
      <trkpt lat="47.32601" lon="1.12493">
        <ele>63.4</ele>
        <time>2020-07-03T10:58:23Z</time>
      </trkpt>
      <trkpt lat="47.32601" lon="1.12494">
        <ele>63.4</ele>
        <time>2020-07-03T10:58:24Z</time>
      </trkpt>
      <trkpt lat="47.32601" lon="1.12495">
        <ele>63.4</ele>
        <time>2020-07-03T10:58:25Z</time>
      </trkpt>
      <trkpt lat="47.326" lon="1.12496">
        <ele>63.4</ele>
        <time>2020-07-03T10:58:26Z</time>
      </trkpt>
      <trkpt lat="47.326" lon="1.12497">
        <ele>63.4</ele>
        <time>2020-07-03T10:58:27Z</time>
      </trkpt>
      <trkpt lat="47.326" lon="1.12498">
        <ele>63.4</ele>
        <time>2020-07-03T10:58:28Z</time>
      </trkpt>
      <trkpt lat="47.326" lon="1.12497">
        <ele>63.4</ele>
        <time>2020-07-03T10:58:29Z</time>
      </trkpt>
      <trkpt lat="47.32599" lon="1.12497">
        <ele>63.4</ele>
        <time>2020-07-03T10:58:30Z</time>
      </trkpt>
      <trkpt lat="47.32599" lon="1.12497">
        <ele>63.4</ele>
        <time>2020-07-03T10:58:31Z</time>
      </trkpt>
      <trkpt lat="47.32599" lon="1.12496">
        <ele>63.4</ele>
        <time>2020-07-03T10:58:32Z</time>
      </trkpt>
      <trkpt lat="47.32599" lon="1.12496">
        <ele>63.4</ele>
        <time>2020-07-03T10:58:33Z</time>
      </trkpt>
      <trkpt lat="47.32599" lon="1.12496">
        <ele>63.4</ele>
        <time>2020-07-03T10:58:34Z</time>
      </trkpt>
      <trkpt lat="47.32598" lon="1.12495">
        <ele>63.4</ele>
        <time>2020-07-03T10:58:35Z</time>
      </trkpt>
      <trkpt lat="47.32598" lon="1.12495">
        <ele>63.4</ele>
        <time>2020-07-03T10:58:36Z</time>
      </trkpt>
      <trkpt lat="47.32598" lon="1.12495">
        <ele>63.4</ele>
        <time>2020-07-03T10:58:37Z</time>
      </trkpt>
      <trkpt lat="47.32598" lon="1.12494">
        <ele>63.4</ele>
        <time>2020-07-03T10:58:38Z</time>
      </trkpt>
      <trkpt lat="47.32598" lon="1.12494">
        <ele>63.4</ele>
        <time>2020-07-03T10:58:39Z</time>
      </trkpt>
      <trkpt lat="47.32597" lon="1.12494">
        <ele>63.4</ele>
        <time>2020-07-03T10:58:40Z</time>
      </trkpt>
      <trkpt lat="47.32597" lon="1.12493">
        <ele>63.4</ele>
        <time>2020-07-03T10:58:41Z</time>
      </trkpt>
      <trkpt lat="47.32597" lon="1.12493">
        <ele>63.4</ele>
        <time>2020-07-03T10:58:42Z</time>
      </trkpt>
      <trkpt lat="47.32595" lon="1.12493">
        <ele>63.4</ele>
        <time>2020-07-03T10:58:43Z</time>
      </trkpt>
      <trkpt lat="47.32594" lon="1.12493">
        <ele>63.4</ele>
        <time>2020-07-03T10:58:44Z</time>
      </trkpt>
      <trkpt lat="47.32593" lon="1.12493">
        <ele>63.4</ele>
        <time>2020-07-03T10:58:45Z</time>
      </trkpt>
      <trkpt lat="47.32591" lon="1.12492">
        <ele>63.4</ele>
        <time>2020-07-03T10:58:46Z</time>
      </trkpt>
      <trkpt lat="47.32591" lon="1.12492">
        <ele>63.4</ele>
        <time>2020-07-03T10:58:47Z</time>
      </trkpt>
      <trkpt lat="47.3259" lon="1.12492">
        <ele>63.4</ele>
        <time>2020-07-03T10:58:48Z</time>
      </trkpt>
      <trkpt lat="47.32589" lon="1.12492">
        <ele>63.4</ele>
        <time>2020-07-03T10:58:49Z</time>
      </trkpt>
      <trkpt lat="47.32589" lon="1.12492">
        <ele>63.4</ele>
        <time>2020-07-03T10:58:50Z</time>
      </trkpt>
      <trkpt lat="47.32588" lon="1.12492">
        <ele>63.4</ele>
        <time>2020-07-03T10:58:51Z</time>
      </trkpt>
      <trkpt lat="47.32588" lon="1.12492">
        <ele>63.4</ele>
        <time>2020-07-03T10:58:52Z</time>
      </trkpt>
      <trkpt lat="47.32587" lon="1.12492">
        <ele>63.4</ele>
        <time>2020-07-03T10:58:53Z</time>
      </trkpt>
      <trkpt lat="47.32587" lon="1.12492">
        <ele>63.4</ele>
        <time>2020-07-03T10:58:54Z</time>
      </trkpt>
      <trkpt lat="47.32585" lon="1.12492">
        <ele>63.4</ele>
        <time>2020-07-03T10:58:55Z</time>
      </trkpt>
      <trkpt lat="47.32585" lon="1.12492">
        <ele>63.4</ele>
        <time>2020-07-03T10:58:56Z</time>
      </trkpt>
      <trkpt lat="47.32586" lon="1.12493">
        <ele>63.4</ele>
        <time>2020-07-03T10:58:57Z</time>
      </trkpt>
      <trkpt lat="47.32586" lon="1.12492">
        <ele>63.4</ele>
        <time>2020-07-03T10:58:58Z</time>
      </trkpt>
      <trkpt lat="47.32586" lon="1.12491">
        <ele>63.4</ele>
        <time>2020-07-03T10:58:59Z</time>
      </trkpt>
      <trkpt lat="47.32588" lon="1.1249">
        <ele>63.4</ele>
        <time>2020-07-03T10:59:00Z</time>
      </trkpt>
      <trkpt lat="47.32588" lon="1.1249">
        <ele>63.4</ele>
        <time>2020-07-03T10:59:01Z</time>
      </trkpt>
      <trkpt lat="47.32589" lon="1.12489">
        <ele>63.4</ele>
        <time>2020-07-03T10:59:02Z</time>
      </trkpt>
      <trkpt lat="47.32591" lon="1.12487">
        <ele>63.4</ele>
        <time>2020-07-03T10:59:03Z</time>
      </trkpt>
      <trkpt lat="47.32591" lon="1.12487">
        <ele>63.4</ele>
        <time>2020-07-03T10:59:04Z</time>
      </trkpt>
      <trkpt lat="47.32591" lon="1.12486">
        <ele>63.4</ele>
        <time>2020-07-03T10:59:05Z</time>
      </trkpt>
      <trkpt lat="47.32592" lon="1.12486">
        <ele>63.4</ele>
        <time>2020-07-03T10:59:06Z</time>
      </trkpt>
      <trkpt lat="47.32592" lon="1.12485">
        <ele>63.4</ele>
        <time>2020-07-03T10:59:07Z</time>
      </trkpt>
      <trkpt lat="47.32592" lon="1.12485">
        <ele>63.4</ele>
        <time>2020-07-03T10:59:08Z</time>
      </trkpt>
      <trkpt lat="47.32594" lon="1.12483">
        <ele>63.4</ele>
        <time>2020-07-03T10:59:09Z</time>
      </trkpt>
      <trkpt lat="47.32595" lon="1.12482">
        <ele>63.4</ele>
        <time>2020-07-03T10:59:10Z</time>
      </trkpt>
      <trkpt lat="47.32596" lon="1.12483">
        <ele>63.4</ele>
        <time>2020-07-03T10:59:11Z</time>
      </trkpt>
      <trkpt lat="47.32598" lon="1.12484">
        <ele>63.4</ele>
        <time>2020-07-03T10:59:12Z</time>
      </trkpt>
      <trkpt lat="47.32599" lon="1.12484">
        <ele>63.4</ele>
        <time>2020-07-03T10:59:13Z</time>
      </trkpt>
      <trkpt lat="47.326" lon="1.12484">
        <ele>63.4</ele>
        <time>2020-07-03T10:59:14Z</time>
      </trkpt>
      <trkpt lat="47.32601" lon="1.12484">
        <ele>63.4</ele>
        <time>2020-07-03T10:59:15Z</time>
      </trkpt>
      <trkpt lat="47.32602" lon="1.12483">
        <ele>63.4</ele>
        <time>2020-07-03T10:59:16Z</time>
      </trkpt>
      <trkpt lat="47.32603" lon="1.12485">
        <ele>63.4</ele>
        <time>2020-07-03T10:59:17Z</time>
      </trkpt>
      <trkpt lat="47.32604" lon="1.12486">
        <ele>63.4</ele>
        <time>2020-07-03T10:59:18Z</time>
      </trkpt>
      <trkpt lat="47.32605" lon="1.12486">
        <ele>63.4</ele>
        <time>2020-07-03T10:59:19Z</time>
      </trkpt>
      <trkpt lat="47.32605" lon="1.12487">
        <ele>63.4</ele>
        <time>2020-07-03T10:59:20Z</time>
      </trkpt>
      <trkpt lat="47.32606" lon="1.12489">
        <ele>63.4</ele>
        <time>2020-07-03T10:59:21Z</time>
      </trkpt>
      <trkpt lat="47.32607" lon="1.1249">
        <ele>63.4</ele>
        <time>2020-07-03T10:59:22Z</time>
      </trkpt>
      <trkpt lat="47.32607" lon="1.1249">
        <ele>63.4</ele>
        <time>2020-07-03T10:59:23Z</time>
      </trkpt>
      <trkpt lat="47.32607" lon="1.1249">
        <ele>63.4</ele>
        <time>2020-07-03T10:59:24Z</time>
      </trkpt>
      <trkpt lat="47.32608" lon="1.12489">
        <ele>63.4</ele>
        <time>2020-07-03T10:59:25Z</time>
      </trkpt>
      <trkpt lat="47.32608" lon="1.12488">
        <ele>63.4</ele>
        <time>2020-07-03T10:59:26Z</time>
      </trkpt>
      <trkpt lat="47.32609" lon="1.12487">
        <ele>63.4</ele>
        <time>2020-07-03T10:59:27Z</time>
      </trkpt>
      <trkpt lat="47.32609" lon="1.12487">
        <ele>63.4</ele>
        <time>2020-07-03T10:59:28Z</time>
      </trkpt>
      <trkpt lat="47.3261" lon="1.12487">
        <ele>63.4</ele>
        <time>2020-07-03T10:59:29Z</time>
      </trkpt>
      <trkpt lat="47.32611" lon="1.12485">
        <ele>63.5</ele>
        <time>2020-07-03T10:59:30Z</time>
      </trkpt>
      <trkpt lat="47.32611" lon="1.12486">
        <ele>63.4</ele>
        <time>2020-07-03T10:59:31Z</time>
      </trkpt>
      <trkpt lat="47.32611" lon="1.12485">
        <ele>63.5</ele>
        <time>2020-07-03T10:59:32Z</time>
      </trkpt>
      <trkpt lat="47.3261" lon="1.12486">
        <ele>63.4</ele>
        <time>2020-07-03T10:59:33Z</time>
      </trkpt>
      <trkpt lat="47.3261" lon="1.12486">
        <ele>63.4</ele>
        <time>2020-07-03T10:59:34Z</time>
      </trkpt>
      <trkpt lat="47.3261" lon="1.12486">
        <ele>63.4</ele>
        <time>2020-07-03T10:59:35Z</time>
      </trkpt>
      <trkpt lat="47.32609" lon="1.12486">
        <ele>63.4</ele>
        <time>2020-07-03T10:59:36Z</time>
      </trkpt>
      <trkpt lat="47.32608" lon="1.12488">
        <ele>63.4</ele>
        <time>2020-07-03T10:59:37Z</time>
      </trkpt>
      <trkpt lat="47.32606" lon="1.12489">
        <ele>63.4</ele>
        <time>2020-07-03T10:59:38Z</time>
      </trkpt>
      <trkpt lat="47.32606" lon="1.12489">
        <ele>63.4</ele>
        <time>2020-07-03T10:59:39Z</time>
      </trkpt>
      <trkpt lat="47.32606" lon="1.1249">
        <ele>63.4</ele>
        <time>2020-07-03T10:59:40Z</time>
      </trkpt>
      <trkpt lat="47.32605" lon="1.1249">
        <ele>63.4</ele>
        <time>2020-07-03T10:59:41Z</time>
      </trkpt>
      <trkpt lat="47.32605" lon="1.1249">
        <ele>63.4</ele>
        <time>2020-07-03T10:59:42Z</time>
      </trkpt>
      <trkpt lat="47.32605" lon="1.1249">
        <ele>63.4</ele>
        <time>2020-07-03T10:59:43Z</time>
      </trkpt>
      <trkpt lat="47.32605" lon="1.1249">
        <ele>63.4</ele>
        <time>2020-07-03T10:59:44Z</time>
      </trkpt>
      <trkpt lat="47.32605" lon="1.1249">
        <ele>63.4</ele>
        <time>2020-07-03T10:59:45Z</time>
      </trkpt>
      <trkpt lat="47.32604" lon="1.12491">
        <ele>63.4</ele>
        <time>2020-07-03T10:59:46Z</time>
      </trkpt>
      <trkpt lat="47.32604" lon="1.12491">
        <ele>63.4</ele>
        <time>2020-07-03T10:59:47Z</time>
      </trkpt>
      <trkpt lat="47.32607" lon="1.1249">
        <ele>63.4</ele>
        <time>2020-07-03T10:59:48Z</time>
      </trkpt>
      <trkpt lat="47.32609" lon="1.12489">
        <ele>63.4</ele>
        <time>2020-07-03T10:59:49Z</time>
      </trkpt>
      <trkpt lat="47.32612" lon="1.12487">
        <ele>63.5</ele>
        <time>2020-07-03T11:01:12Z</time>
      </trkpt>
      <trkpt lat="47.32614" lon="1.12486">
        <ele>63.4</ele>
        <time>2020-07-03T11:01:13Z</time>
      </trkpt>
      <trkpt lat="47.32617" lon="1.12485">
        <ele>63.4</ele>
        <time>2020-07-03T11:01:14Z</time>
      </trkpt>
      <trkpt lat="47.32619" lon="1.12484">
        <ele>63.4</ele>
        <time>2020-07-03T11:01:15Z</time>
      </trkpt>
      <trkpt lat="47.32622" lon="1.12482">
        <ele>63.4</ele>
        <time>2020-07-03T11:01:16Z</time>
      </trkpt>
      <trkpt lat="47.32622" lon="1.12481">
        <ele>63.4</ele>
        <time>2020-07-03T11:01:17Z</time>
      </trkpt>
      <trkpt lat="47.32622" lon="1.12481">
        <ele>63.4</ele>
        <time>2020-07-03T11:01:18Z</time>
      </trkpt>
      <trkpt lat="47.32621" lon="1.1248">
        <ele>63.4</ele>
        <time>2020-07-03T11:01:19Z</time>
      </trkpt>
      <trkpt lat="47.3262" lon="1.12479">
        <ele>63.4</ele>
        <time>2020-07-03T11:01:20Z</time>
      </trkpt>
      <trkpt lat="47.32619" lon="1.1248">
        <ele>63.4</ele>
        <time>2020-07-03T11:01:21Z</time>
      </trkpt>
      <trkpt lat="47.32618" lon="1.12481">
        <ele>63.4</ele>
        <time>2020-07-03T11:01:22Z</time>
      </trkpt>
      <trkpt lat="47.32618" lon="1.12481">
        <ele>63.4</ele>
        <time>2020-07-03T11:01:23Z</time>
      </trkpt>
      <trkpt lat="47.32618" lon="1.1248">
        <ele>63.4</ele>
        <time>2020-07-03T11:01:24Z</time>
      </trkpt>
      <trkpt lat="47.32618" lon="1.1248">
        <ele>63.4</ele>
        <time>2020-07-03T11:01:25Z</time>
      </trkpt>
      <trkpt lat="47.32618" lon="1.1248">
        <ele>63.4</ele>
        <time>2020-07-03T11:01:26Z</time>
      </trkpt>
      <trkpt lat="47.32618" lon="1.1248">
        <ele>63.4</ele>
        <time>2020-07-03T11:01:27Z</time>
      </trkpt>
      <trkpt lat="47.32618" lon="1.12479">
        <ele>63.4</ele>
        <time>2020-07-03T11:01:28Z</time>
      </trkpt>
      <trkpt lat="47.32617" lon="1.12479">
        <ele>63.4</ele>
        <time>2020-07-03T11:01:29Z</time>
      </trkpt>
      <trkpt lat="47.32617" lon="1.1248">
        <ele>63.4</ele>
        <time>2020-07-03T11:01:30Z</time>
      </trkpt>
      <trkpt lat="47.32616" lon="1.12482">
        <ele>63.4</ele>
        <time>2020-07-03T11:01:31Z</time>
      </trkpt>
      <trkpt lat="47.32616" lon="1.12483">
        <ele>63.4</ele>
        <time>2020-07-03T11:01:32Z</time>
      </trkpt>
      <trkpt lat="47.32616" lon="1.12484">
        <ele>63.4</ele>
        <time>2020-07-03T11:01:33Z</time>
      </trkpt>
      <trkpt lat="47.32618" lon="1.12484">
        <ele>63.4</ele>
        <time>2020-07-03T11:01:34Z</time>
      </trkpt>
      <trkpt lat="47.32618" lon="1.12485">
        <ele>63.4</ele>
        <time>2020-07-03T11:01:35Z</time>
      </trkpt>
      <trkpt lat="47.32618" lon="1.12485">
        <ele>63.4</ele>
        <time>2020-07-03T11:01:36Z</time>
      </trkpt>
      <trkpt lat="47.32617" lon="1.12484">
        <ele>63.4</ele>
        <time>2020-07-03T11:01:37Z</time>
      </trkpt>
      <trkpt lat="47.32617" lon="1.12485">
        <ele>63.4</ele>
        <time>2020-07-03T11:01:38Z</time>
      </trkpt>
      <trkpt lat="47.32617" lon="1.12486">
        <ele>63.4</ele>
        <time>2020-07-03T11:01:39Z</time>
      </trkpt>
      <trkpt lat="47.32617" lon="1.12486">
        <ele>63.4</ele>
        <time>2020-07-03T11:01:40Z</time>
      </trkpt>
      <trkpt lat="47.32617" lon="1.12485">
        <ele>63.4</ele>
        <time>2020-07-03T11:01:41Z</time>
      </trkpt>
      <trkpt lat="47.32618" lon="1.12485">
        <ele>63.4</ele>
        <time>2020-07-03T11:01:42Z</time>
      </trkpt>
      <trkpt lat="47.32618" lon="1.12485">
        <ele>63.4</ele>
        <time>2020-07-03T11:01:43Z</time>
      </trkpt>
      <trkpt lat="47.32618" lon="1.12485">
        <ele>63.4</ele>
        <time>2020-07-03T11:01:44Z</time>
      </trkpt>
      <trkpt lat="47.32618" lon="1.12485">
        <ele>63.4</ele>
        <time>2020-07-03T11:01:45Z</time>
      </trkpt>
      <trkpt lat="47.32618" lon="1.12484">
        <ele>63.4</ele>
        <time>2020-07-03T11:01:46Z</time>
      </trkpt>
      <trkpt lat="47.32619" lon="1.12485">
        <ele>63.4</ele>
        <time>2020-07-03T11:01:47Z</time>
      </trkpt>
      <trkpt lat="47.32619" lon="1.12485">
        <ele>63.4</ele>
        <time>2020-07-03T11:01:48Z</time>
      </trkpt>
      <trkpt lat="47.3262" lon="1.12486">
        <ele>63.4</ele>
        <time>2020-07-03T11:01:49Z</time>
      </trkpt>
      <trkpt lat="47.3262" lon="1.12487">
        <ele>63.4</ele>
        <time>2020-07-03T11:01:50Z</time>
      </trkpt>
      <trkpt lat="47.32621" lon="1.12487">
        <ele>63.3</ele>
        <time>2020-07-03T11:01:51Z</time>
      </trkpt>
      <trkpt lat="47.32621" lon="1.12487">
        <ele>63.3</ele>
        <time>2020-07-03T11:01:52Z</time>
      </trkpt>
      <trkpt lat="47.32622" lon="1.12487">
        <ele>63.3</ele>
        <time>2020-07-03T11:01:53Z</time>
      </trkpt>
      <trkpt lat="47.32622" lon="1.12487">
        <ele>63.3</ele>
        <time>2020-07-03T11:01:54Z</time>
      </trkpt>
      <trkpt lat="47.32622" lon="1.12487">
        <ele>63.3</ele>
        <time>2020-07-03T11:01:55Z</time>
      </trkpt>
      <trkpt lat="47.32623" lon="1.12488">
        <ele>63.3</ele>
        <time>2020-07-03T11:01:56Z</time>
      </trkpt>
      <trkpt lat="47.32624" lon="1.12488">
        <ele>63.3</ele>
        <time>2020-07-03T11:01:57Z</time>
      </trkpt>
      <trkpt lat="47.32624" lon="1.12489">
        <ele>63.3</ele>
        <time>2020-07-03T11:01:58Z</time>
      </trkpt>
      <trkpt lat="47.32624" lon="1.12489">
        <ele>63.3</ele>
        <time>2020-07-03T11:01:59Z</time>
      </trkpt>
      <trkpt lat="47.32624" lon="1.12489">
        <ele>63.3</ele>
        <time>2020-07-03T11:02:00Z</time>
      </trkpt>
      <trkpt lat="47.32623" lon="1.12488">
        <ele>63.3</ele>
        <time>2020-07-03T11:02:01Z</time>
      </trkpt>
      <trkpt lat="47.32623" lon="1.12488">
        <ele>63.3</ele>
        <time>2020-07-03T11:02:02Z</time>
      </trkpt>
      <trkpt lat="47.32623" lon="1.12488">
        <ele>63.3</ele>
        <time>2020-07-03T11:02:03Z</time>
      </trkpt>
      <trkpt lat="47.32623" lon="1.12489">
        <ele>63.3</ele>
        <time>2020-07-03T11:02:04Z</time>
      </trkpt>
      <trkpt lat="47.32623" lon="1.12489">
        <ele>63.3</ele>
        <time>2020-07-03T11:02:05Z</time>
      </trkpt>
      <trkpt lat="47.32623" lon="1.12489">
        <ele>63.3</ele>
        <time>2020-07-03T11:02:06Z</time>
      </trkpt>
      <trkpt lat="47.32623" lon="1.1249">
        <ele>63.3</ele>
        <time>2020-07-03T11:02:07Z</time>
      </trkpt>
      <trkpt lat="47.32623" lon="1.12489">
        <ele>63.3</ele>
        <time>2020-07-03T11:02:08Z</time>
      </trkpt>
      <trkpt lat="47.32623" lon="1.1249">
        <ele>63.3</ele>
        <time>2020-07-03T11:02:09Z</time>
      </trkpt>
      <trkpt lat="47.32623" lon="1.1249">
        <ele>63.3</ele>
        <time>2020-07-03T11:02:10Z</time>
      </trkpt>
      <trkpt lat="47.32624" lon="1.12488">
        <ele>63.3</ele>
        <time>2020-07-03T11:02:29Z</time>
      </trkpt>
      <trkpt lat="47.32624" lon="1.12486">
        <ele>63.3</ele>
        <time>2020-07-03T11:02:30Z</time>
      </trkpt>
      <trkpt lat="47.32624" lon="1.12483">
        <ele>63.3</ele>
        <time>2020-07-03T11:02:31Z</time>
      </trkpt>
      <trkpt lat="47.32623" lon="1.12481">
        <ele>63.3</ele>
        <time>2020-07-03T11:02:32Z</time>
      </trkpt>
      <trkpt lat="47.32623" lon="1.1248">
        <ele>63.3</ele>
        <time>2020-07-03T11:02:33Z</time>
      </trkpt>
      <trkpt lat="47.32624" lon="1.12478">
        <ele>63.3</ele>
        <time>2020-07-03T11:02:34Z</time>
      </trkpt>
      <trkpt lat="47.32624" lon="1.12475">
        <ele>63.3</ele>
        <time>2020-07-03T11:02:35Z</time>
      </trkpt>
      <trkpt lat="47.32624" lon="1.12472">
        <ele>63.3</ele>
        <time>2020-07-03T11:02:36Z</time>
      </trkpt>
      <trkpt lat="47.32625" lon="1.12471">
        <ele>63.3</ele>
        <time>2020-07-03T11:02:37Z</time>
      </trkpt>
      <trkpt lat="47.32624" lon="1.12469">
        <ele>63.3</ele>
        <time>2020-07-03T11:02:38Z</time>
      </trkpt>
      <trkpt lat="47.32625" lon="1.12468">
        <ele>63.3</ele>
        <time>2020-07-03T11:02:39Z</time>
      </trkpt>
      <trkpt lat="47.32625" lon="1.12468">
        <ele>63.3</ele>
        <time>2020-07-03T11:02:40Z</time>
      </trkpt>
      <trkpt lat="47.32624" lon="1.12467">
        <ele>63.3</ele>
        <time>2020-07-03T11:02:41Z</time>
      </trkpt>
      <trkpt lat="47.32625" lon="1.12467">
        <ele>63.3</ele>
        <time>2020-07-03T11:02:42Z</time>
      </trkpt>
      <trkpt lat="47.32625" lon="1.12467">
        <ele>63.3</ele>
        <time>2020-07-03T11:02:43Z</time>
      </trkpt>
      <trkpt lat="47.32625" lon="1.12468">
        <ele>63.3</ele>
        <time>2020-07-03T11:02:44Z</time>
      </trkpt>
      <trkpt lat="47.32625" lon="1.12468">
        <ele>63.3</ele>
        <time>2020-07-03T11:02:45Z</time>
      </trkpt>
      <trkpt lat="47.32626" lon="1.12469">
        <ele>63.3</ele>
        <time>2020-07-03T11:02:46Z</time>
      </trkpt>
      <trkpt lat="47.32626" lon="1.1247">
        <ele>63.3</ele>
        <time>2020-07-03T11:02:47Z</time>
      </trkpt>
      <trkpt lat="47.32627" lon="1.12471">
        <ele>63.3</ele>
        <time>2020-07-03T11:02:48Z</time>
      </trkpt>
      <trkpt lat="47.32627" lon="1.12471">
        <ele>63.3</ele>
        <time>2020-07-03T11:03:37Z</time>
      </trkpt>
      <trkpt lat="47.32627" lon="1.12472">
        <ele>63.3</ele>
        <time>2020-07-03T11:03:38Z</time>
      </trkpt>
      <trkpt lat="47.32626" lon="1.12474">
        <ele>63.3</ele>
        <time>2020-07-03T11:03:39Z</time>
      </trkpt>
      <trkpt lat="47.32625" lon="1.12475">
        <ele>63.3</ele>
        <time>2020-07-03T11:03:40Z</time>
      </trkpt>
      <trkpt lat="47.32623" lon="1.12476">
        <ele>63.2</ele>
        <time>2020-07-03T11:03:41Z</time>
      </trkpt>
      <trkpt lat="47.32622" lon="1.12478">
        <ele>63.2</ele>
        <time>2020-07-03T11:03:42Z</time>
      </trkpt>
      <trkpt lat="47.32622" lon="1.12481">
        <ele>63.2</ele>
        <time>2020-07-03T11:03:43Z</time>
      </trkpt>
      <trkpt lat="47.32621" lon="1.12483">
        <ele>63.2</ele>
        <time>2020-07-03T11:03:44Z</time>
      </trkpt>
      <trkpt lat="47.32621" lon="1.12485">
        <ele>63.2</ele>
        <time>2020-07-03T11:03:45Z</time>
      </trkpt>
      <trkpt lat="47.32621" lon="1.12486">
        <ele>63.2</ele>
        <time>2020-07-03T11:03:46Z</time>
      </trkpt>
      <trkpt lat="47.32621" lon="1.12487">
        <ele>63.2</ele>
        <time>2020-07-03T11:03:47Z</time>
      </trkpt>
      <trkpt lat="47.3262" lon="1.12489">
        <ele>63.2</ele>
        <time>2020-07-03T11:03:48Z</time>
      </trkpt>
      <trkpt lat="47.3262" lon="1.12489">
        <ele>63.2</ele>
        <time>2020-07-03T11:03:49Z</time>
      </trkpt>
      <trkpt lat="47.3262" lon="1.12488">
        <ele>63.2</ele>
        <time>2020-07-03T11:03:50Z</time>
      </trkpt>
      <trkpt lat="47.3262" lon="1.12489">
        <ele>63.2</ele>
        <time>2020-07-03T11:03:51Z</time>
      </trkpt>
      <trkpt lat="47.32619" lon="1.1249">
        <ele>63.2</ele>
        <time>2020-07-03T11:03:52Z</time>
      </trkpt>
      <trkpt lat="47.32619" lon="1.12491">
        <ele>63.2</ele>
        <time>2020-07-03T11:03:53Z</time>
      </trkpt>
      <trkpt lat="47.32618" lon="1.12492">
        <ele>63.2</ele>
        <time>2020-07-03T11:03:54Z</time>
      </trkpt>
      <trkpt lat="47.32618" lon="1.12493">
        <ele>63.2</ele>
        <time>2020-07-03T11:03:55Z</time>
      </trkpt>
      <trkpt lat="47.32618" lon="1.12494">
        <ele>63.2</ele>
        <time>2020-07-03T11:03:56Z</time>
      </trkpt>
      <trkpt lat="47.32618" lon="1.12494">
        <ele>63.2</ele>
        <time>2020-07-03T11:03:57Z</time>
      </trkpt>
      <trkpt lat="47.32618" lon="1.12493">
        <ele>63.2</ele>
        <time>2020-07-03T11:03:58Z</time>
      </trkpt>
      <trkpt lat="47.3262" lon="1.12493">
        <ele>63.2</ele>
        <time>2020-07-03T11:03:59Z</time>
      </trkpt>
      <trkpt lat="47.32621" lon="1.12493">
        <ele>63.2</ele>
        <time>2020-07-03T11:04:00Z</time>
      </trkpt>
      <trkpt lat="47.32622" lon="1.12493">
        <ele>63.2</ele>
        <time>2020-07-03T11:04:01Z</time>
      </trkpt>
      <trkpt lat="47.32623" lon="1.12493">
        <ele>63.2</ele>
        <time>2020-07-03T11:04:02Z</time>
      </trkpt>
      <trkpt lat="47.32624" lon="1.12493">
        <ele>63.2</ele>
        <time>2020-07-03T11:04:03Z</time>
      </trkpt>
      <trkpt lat="47.32624" lon="1.12492">
        <ele>63.2</ele>
        <time>2020-07-03T11:04:04Z</time>
      </trkpt>
      <trkpt lat="47.32625" lon="1.12493">
        <ele>63.2</ele>
        <time>2020-07-03T11:04:05Z</time>
      </trkpt>
      <trkpt lat="47.32625" lon="1.12495">
        <ele>63.2</ele>
        <time>2020-07-03T11:04:06Z</time>
      </trkpt>
      <trkpt lat="47.32625" lon="1.12496">
        <ele>63.2</ele>
        <time>2020-07-03T11:04:07Z</time>
      </trkpt>
      <trkpt lat="47.32624" lon="1.12497">
        <ele>63.2</ele>
        <time>2020-07-03T11:04:08Z</time>
      </trkpt>
      <trkpt lat="47.32624" lon="1.12497">
        <ele>63.2</ele>
        <time>2020-07-03T11:04:09Z</time>
      </trkpt>
      <trkpt lat="47.32624" lon="1.12497">
        <ele>63.2</ele>
        <time>2020-07-03T11:04:10Z</time>
      </trkpt>
      <trkpt lat="47.32624" lon="1.12496">
        <ele>63.2</ele>
        <time>2020-07-03T11:04:11Z</time>
      </trkpt>
      <trkpt lat="47.32623" lon="1.12495">
        <ele>63.2</ele>
        <time>2020-07-03T11:04:12Z</time>
      </trkpt>
      <trkpt lat="47.32623" lon="1.12496">
        <ele>63.2</ele>
        <time>2020-07-03T11:04:13Z</time>
      </trkpt>
      <trkpt lat="47.32623" lon="1.12495">
        <ele>63.2</ele>
        <time>2020-07-03T11:04:14Z</time>
      </trkpt>
      <trkpt lat="47.32622" lon="1.12496">
        <ele>63.2</ele>
        <time>2020-07-03T11:04:15Z</time>
      </trkpt>
      <trkpt lat="47.32622" lon="1.12496">
        <ele>63.2</ele>
        <time>2020-07-03T11:04:16Z</time>
      </trkpt>
      <trkpt lat="47.32621" lon="1.12496">
        <ele>63.2</ele>
        <time>2020-07-03T11:04:17Z</time>
      </trkpt>
      <trkpt lat="47.3262" lon="1.12496">
        <ele>63.2</ele>
        <time>2020-07-03T11:04:18Z</time>
      </trkpt>
      <trkpt lat="47.32619" lon="1.12496">
        <ele>63.2</ele>
        <time>2020-07-03T11:04:19Z</time>
      </trkpt>
      <trkpt lat="47.32619" lon="1.12497">
        <ele>63.2</ele>
        <time>2020-07-03T11:04:20Z</time>
      </trkpt>
      <trkpt lat="47.32618" lon="1.12497">
        <ele>63.1</ele>
        <time>2020-07-03T11:04:21Z</time>
      </trkpt>
      <trkpt lat="47.32617" lon="1.12498">
        <ele>63.1</ele>
        <time>2020-07-03T11:04:22Z</time>
      </trkpt>
      <trkpt lat="47.32616" lon="1.12498">
        <ele>63.1</ele>
        <time>2020-07-03T11:04:23Z</time>
      </trkpt>
      <trkpt lat="47.32616" lon="1.12498">
        <ele>63.1</ele>
        <time>2020-07-03T11:04:24Z</time>
      </trkpt>
      <trkpt lat="47.32616" lon="1.12497">
        <ele>63.1</ele>
        <time>2020-07-03T11:04:25Z</time>
      </trkpt>
      <trkpt lat="47.32616" lon="1.12495">
        <ele>63.1</ele>
        <time>2020-07-03T11:04:26Z</time>
      </trkpt>
      <trkpt lat="47.32616" lon="1.12494">
        <ele>63.1</ele>
        <time>2020-07-03T11:04:27Z</time>
      </trkpt>
      <trkpt lat="47.32616" lon="1.12493">
        <ele>63.1</ele>
        <time>2020-07-03T11:04:28Z</time>
      </trkpt>
      <trkpt lat="47.32615" lon="1.12492">
        <ele>63.1</ele>
        <time>2020-07-03T11:04:29Z</time>
      </trkpt>
      <trkpt lat="47.32615" lon="1.12491">
        <ele>63.1</ele>
        <time>2020-07-03T11:04:30Z</time>
      </trkpt>
      <trkpt lat="47.32615" lon="1.12489">
        <ele>63.1</ele>
        <time>2020-07-03T11:04:31Z</time>
      </trkpt>
      <trkpt lat="47.32615" lon="1.12488">
        <ele>63.1</ele>
        <time>2020-07-03T11:04:32Z</time>
      </trkpt>
      <trkpt lat="47.32615" lon="1.12487">
        <ele>63.1</ele>
        <time>2020-07-03T11:04:33Z</time>
      </trkpt>
      <trkpt lat="47.32615" lon="1.12486">
        <ele>63.1</ele>
        <time>2020-07-03T11:04:34Z</time>
      </trkpt>
      <trkpt lat="47.32615" lon="1.12484">
        <ele>63.1</ele>
        <time>2020-07-03T11:05:44Z</time>
      </trkpt>
      <trkpt lat="47.32615" lon="1.12483">
        <ele>63.1</ele>
        <time>2020-07-03T11:05:45Z</time>
      </trkpt>
      <trkpt lat="47.32615" lon="1.12481">
        <ele>63.1</ele>
        <time>2020-07-03T11:05:46Z</time>
      </trkpt>
      <trkpt lat="47.32615" lon="1.12478">
        <ele>63.1</ele>
        <time>2020-07-03T11:05:47Z</time>
      </trkpt>
      <trkpt lat="47.32613" lon="1.12474">
        <ele>63.1</ele>
        <time>2020-07-03T11:05:48Z</time>
      </trkpt>
      <trkpt lat="47.32613" lon="1.12473">
        <ele>63.1</ele>
        <time>2020-07-03T11:05:49Z</time>
      </trkpt>
      <trkpt lat="47.32611" lon="1.12469">
        <ele>63.1</ele>
        <time>2020-07-03T11:05:50Z</time>
      </trkpt>
      <trkpt lat="47.3261" lon="1.12464">
        <ele>63.1</ele>
        <time>2020-07-03T11:05:51Z</time>
      </trkpt>
      <trkpt lat="47.3261" lon="1.12463">
        <ele>63.1</ele>
        <time>2020-07-03T11:05:52Z</time>
      </trkpt>
      <trkpt lat="47.32607" lon="1.12461">
        <ele>63.1</ele>
        <time>2020-07-03T11:05:53Z</time>
      </trkpt>
      <trkpt lat="47.32603" lon="1.1246">
        <ele>63</ele>
        <time>2020-07-03T11:05:54Z</time>
      </trkpt>
      <trkpt lat="47.326" lon="1.12459">
        <ele>63</ele>
        <time>2020-07-03T11:05:55Z</time>
      </trkpt>
      <trkpt lat="47.32596" lon="1.12457">
        <ele>63</ele>
        <time>2020-07-03T11:05:56Z</time>
      </trkpt>
      <trkpt lat="47.32595" lon="1.12457">
        <ele>63</ele>
        <time>2020-07-03T11:05:57Z</time>
      </trkpt>
      <trkpt lat="47.32593" lon="1.12455">
        <ele>63</ele>
        <time>2020-07-03T11:05:58Z</time>
      </trkpt>
      <trkpt lat="47.3259" lon="1.12453">
        <ele>63</ele>
        <time>2020-07-03T11:05:59Z</time>
      </trkpt>
      <trkpt lat="47.32586" lon="1.12452">
        <ele>63</ele>
        <time>2020-07-03T11:06:00Z</time>
      </trkpt>
      <trkpt lat="47.32583" lon="1.1245">
        <ele>63</ele>
        <time>2020-07-03T11:06:01Z</time>
      </trkpt>
      <trkpt lat="47.32579" lon="1.12449">
        <ele>63</ele>
        <time>2020-07-03T11:06:02Z</time>
      </trkpt>
      <trkpt lat="47.32576" lon="1.12448">
        <ele>62.7</ele>
        <time>2020-07-03T11:06:03Z</time>
      </trkpt>
      <trkpt lat="47.32573" lon="1.12447">
        <ele>62.7</ele>
        <time>2020-07-03T11:06:04Z</time>
      </trkpt>
      <trkpt lat="47.32569" lon="1.12445">
        <ele>62.6</ele>
        <time>2020-07-03T11:06:05Z</time>
      </trkpt>
      <trkpt lat="47.32565" lon="1.12442">
        <ele>62.5</ele>
        <time>2020-07-03T11:06:06Z</time>
      </trkpt>
      <trkpt lat="47.32561" lon="1.12439">
        <ele>62.3</ele>
        <time>2020-07-03T11:06:07Z</time>
      </trkpt>
      <trkpt lat="47.32557" lon="1.12439">
        <ele>62.4</ele>
        <time>2020-07-03T11:06:08Z</time>
      </trkpt>
      <trkpt lat="47.32554" lon="1.12439">
        <ele>62.5</ele>
        <time>2020-07-03T11:06:09Z</time>
      </trkpt>
      <trkpt lat="47.32551" lon="1.12443">
        <ele>62.6</ele>
        <time>2020-07-03T11:06:10Z</time>
      </trkpt>
      <trkpt lat="47.32548" lon="1.12446">
        <ele>62.7</ele>
        <time>2020-07-03T11:06:11Z</time>
      </trkpt>
      <trkpt lat="47.32544" lon="1.1245">
        <ele>62.9</ele>
        <time>2020-07-03T11:06:12Z</time>
      </trkpt>
      <trkpt lat="47.32541" lon="1.12454">
        <ele>63</ele>
        <time>2020-07-03T11:06:13Z</time>
      </trkpt>
      <trkpt lat="47.32537" lon="1.12458">
        <ele>63.2</ele>
        <time>2020-07-03T11:06:14Z</time>
      </trkpt>
      <trkpt lat="47.32533" lon="1.12462">
        <ele>63.4</ele>
        <time>2020-07-03T11:06:15Z</time>
      </trkpt>
      <trkpt lat="47.3253" lon="1.12465">
        <ele>63.6</ele>
        <time>2020-07-03T11:06:16Z</time>
      </trkpt>
      <trkpt lat="47.32527" lon="1.12469">
        <ele>63.7</ele>
        <time>2020-07-03T11:06:17Z</time>
      </trkpt>
      <trkpt lat="47.32524" lon="1.12472">
        <ele>63.9</ele>
        <time>2020-07-03T11:06:18Z</time>
      </trkpt>
      <trkpt lat="47.32521" lon="1.12475">
        <ele>64</ele>
        <time>2020-07-03T11:06:19Z</time>
      </trkpt>
      <trkpt lat="47.32517" lon="1.12478">
        <ele>64.2</ele>
        <time>2020-07-03T11:06:20Z</time>
      </trkpt>
      <trkpt lat="47.32515" lon="1.1248">
        <ele>64.3</ele>
        <time>2020-07-03T11:06:21Z</time>
      </trkpt>
      <trkpt lat="47.32511" lon="1.12482">
        <ele>64.5</ele>
        <time>2020-07-03T11:06:22Z</time>
      </trkpt>
      <trkpt lat="47.32508" lon="1.12483">
        <ele>64.6</ele>
        <time>2020-07-03T11:06:23Z</time>
      </trkpt>
      <trkpt lat="47.32505" lon="1.12482">
        <ele>64.7</ele>
        <time>2020-07-03T11:06:24Z</time>
      </trkpt>
      <trkpt lat="47.32504" lon="1.12477">
        <ele>65.1</ele>
        <time>2020-07-03T11:06:25Z</time>
      </trkpt>
      <trkpt lat="47.32504" lon="1.12475">
        <ele>65.1</ele>
        <time>2020-07-03T11:06:26Z</time>
      </trkpt>
      <trkpt lat="47.32504" lon="1.1247">
        <ele>65.1</ele>
        <time>2020-07-03T11:06:27Z</time>
      </trkpt>
      <trkpt lat="47.32504" lon="1.12468">
        <ele>65.1</ele>
        <time>2020-07-03T11:06:28Z</time>
      </trkpt>
      <trkpt lat="47.32503" lon="1.12463">
        <ele>65</ele>
        <time>2020-07-03T11:06:29Z</time>
      </trkpt>
      <trkpt lat="47.32501" lon="1.12458">
        <ele>65</ele>
        <time>2020-07-03T11:06:30Z</time>
      </trkpt>
      <trkpt lat="47.325" lon="1.12453">
        <ele>65</ele>
        <time>2020-07-03T11:06:31Z</time>
      </trkpt>
      <trkpt lat="47.32499" lon="1.12448">
        <ele>65</ele>
        <time>2020-07-03T11:06:32Z</time>
      </trkpt>
      <trkpt lat="47.32498" lon="1.12443">
        <ele>65</ele>
        <time>2020-07-03T11:06:33Z</time>
      </trkpt>
      <trkpt lat="47.32497" lon="1.12436">
        <ele>65</ele>
        <time>2020-07-03T11:06:34Z</time>
      </trkpt>
      <trkpt lat="47.32497" lon="1.1243">
        <ele>65</ele>
        <time>2020-07-03T11:06:35Z</time>
      </trkpt>
      <trkpt lat="47.32495" lon="1.12423">
        <ele>65</ele>
        <time>2020-07-03T11:06:36Z</time>
      </trkpt>
      <trkpt lat="47.32494" lon="1.12417">
        <ele>65</ele>
        <time>2020-07-03T11:06:37Z</time>
      </trkpt>
      <trkpt lat="47.32492" lon="1.12411">
        <ele>65</ele>
        <time>2020-07-03T11:06:38Z</time>
      </trkpt>
      <trkpt lat="47.32491" lon="1.12405">
        <ele>65</ele>
        <time>2020-07-03T11:06:39Z</time>
      </trkpt>
      <trkpt lat="47.32489" lon="1.12399">
        <ele>65.1</ele>
        <time>2020-07-03T11:06:40Z</time>
      </trkpt>
      <trkpt lat="47.32487" lon="1.12392">
        <ele>65.1</ele>
        <time>2020-07-03T11:06:41Z</time>
      </trkpt>
      <trkpt lat="47.32486" lon="1.12386">
        <ele>65.1</ele>
        <time>2020-07-03T11:06:42Z</time>
      </trkpt>
      <trkpt lat="47.32485" lon="1.1238">
        <ele>65.2</ele>
        <time>2020-07-03T11:06:43Z</time>
      </trkpt>
      <trkpt lat="47.32484" lon="1.12373">
        <ele>65.2</ele>
        <time>2020-07-03T11:06:44Z</time>
      </trkpt>
      <trkpt lat="47.32483" lon="1.12367">
        <ele>65.3</ele>
        <time>2020-07-03T11:06:45Z</time>
      </trkpt>
      <trkpt lat="47.32482" lon="1.12361">
        <ele>65.3</ele>
        <time>2020-07-03T11:06:46Z</time>
      </trkpt>
      <trkpt lat="47.32481" lon="1.12355">
        <ele>65.4</ele>
        <time>2020-07-03T11:06:47Z</time>
      </trkpt>
      <trkpt lat="47.3248" lon="1.1235">
        <ele>65.4</ele>
        <time>2020-07-03T11:06:48Z</time>
      </trkpt>
      <trkpt lat="47.3248" lon="1.12344">
        <ele>65.4</ele>
        <time>2020-07-03T11:06:49Z</time>
      </trkpt>
      <trkpt lat="47.32478" lon="1.12338">
        <ele>65.5</ele>
        <time>2020-07-03T11:06:50Z</time>
      </trkpt>
      <trkpt lat="47.32476" lon="1.12332">
        <ele>65.5</ele>
        <time>2020-07-03T11:06:51Z</time>
      </trkpt>
      <trkpt lat="47.32476" lon="1.12328">
        <ele>65.5</ele>
        <time>2020-07-03T11:06:52Z</time>
      </trkpt>
      <trkpt lat="47.32475" lon="1.12321">
        <ele>65.5</ele>
        <time>2020-07-03T11:06:53Z</time>
      </trkpt>
      <trkpt lat="47.32475" lon="1.12315">
        <ele>65.4</ele>
        <time>2020-07-03T11:06:54Z</time>
      </trkpt>
      <trkpt lat="47.32475" lon="1.1231">
        <ele>65.4</ele>
        <time>2020-07-03T11:06:55Z</time>
      </trkpt>
      <trkpt lat="47.32474" lon="1.12305">
        <ele>65.4</ele>
        <time>2020-07-03T11:06:56Z</time>
      </trkpt>
      <trkpt lat="47.32473" lon="1.12298">
        <ele>65.4</ele>
        <time>2020-07-03T11:06:57Z</time>
      </trkpt>
      <trkpt lat="47.32473" lon="1.12292">
        <ele>65.3</ele>
        <time>2020-07-03T11:06:58Z</time>
      </trkpt>
      <trkpt lat="47.32472" lon="1.12285">
        <ele>65.3</ele>
        <time>2020-07-03T11:06:59Z</time>
      </trkpt>
      <trkpt lat="47.32472" lon="1.12278">
        <ele>65.3</ele>
        <time>2020-07-03T11:07:00Z</time>
      </trkpt>
      <trkpt lat="47.32472" lon="1.1227">
        <ele>65.2</ele>
        <time>2020-07-03T11:07:01Z</time>
      </trkpt>
      <trkpt lat="47.32471" lon="1.12262">
        <ele>65.2</ele>
        <time>2020-07-03T11:07:02Z</time>
      </trkpt>
      <trkpt lat="47.32471" lon="1.12255">
        <ele>65.2</ele>
        <time>2020-07-03T11:07:03Z</time>
      </trkpt>
      <trkpt lat="47.3247" lon="1.12248">
        <ele>65.1</ele>
        <time>2020-07-03T11:07:04Z</time>
      </trkpt>
      <trkpt lat="47.3247" lon="1.12241">
        <ele>65.1</ele>
        <time>2020-07-03T11:07:05Z</time>
      </trkpt>
      <trkpt lat="47.32469" lon="1.12234">
        <ele>65.1</ele>
        <time>2020-07-03T11:07:06Z</time>
      </trkpt>
      <trkpt lat="47.32468" lon="1.12228">
        <ele>65</ele>
        <time>2020-07-03T11:07:07Z</time>
      </trkpt>
      <trkpt lat="47.32468" lon="1.12221">
        <ele>65</ele>
        <time>2020-07-03T11:07:08Z</time>
      </trkpt>
      <trkpt lat="47.32468" lon="1.12215">
        <ele>65</ele>
        <time>2020-07-03T11:07:09Z</time>
      </trkpt>
      <trkpt lat="47.32467" lon="1.12207">
        <ele>64.9</ele>
        <time>2020-07-03T11:07:10Z</time>
      </trkpt>
      <trkpt lat="47.32467" lon="1.12199">
        <ele>64.9</ele>
        <time>2020-07-03T11:07:11Z</time>
      </trkpt>
      <trkpt lat="47.32466" lon="1.1219">
        <ele>64.9</ele>
        <time>2020-07-03T11:07:12Z</time>
      </trkpt>
      <trkpt lat="47.32465" lon="1.12183">
        <ele>64.9</ele>
        <time>2020-07-03T11:07:13Z</time>
      </trkpt>
      <trkpt lat="47.32465" lon="1.12175">
        <ele>64.8</ele>
        <time>2020-07-03T11:07:14Z</time>
      </trkpt>
      <trkpt lat="47.32465" lon="1.12165">
        <ele>64.7</ele>
        <time>2020-07-03T11:07:15Z</time>
      </trkpt>
      <trkpt lat="47.32464" lon="1.12157">
        <ele>64.7</ele>
        <time>2020-07-03T11:07:16Z</time>
      </trkpt>
      <trkpt lat="47.32464" lon="1.12149">
        <ele>64.6</ele>
        <time>2020-07-03T11:07:17Z</time>
      </trkpt>
      <trkpt lat="47.32464" lon="1.12141">
        <ele>64.6</ele>
        <time>2020-07-03T11:07:18Z</time>
      </trkpt>
      <trkpt lat="47.32464" lon="1.12133">
        <ele>64.5</ele>
        <time>2020-07-03T11:07:19Z</time>
      </trkpt>
      <trkpt lat="47.32463" lon="1.12125">
        <ele>64.5</ele>
        <time>2020-07-03T11:07:20Z</time>
      </trkpt>
      <trkpt lat="47.32463" lon="1.12117">
        <ele>64.5</ele>
        <time>2020-07-03T11:07:21Z</time>
      </trkpt>
      <trkpt lat="47.32463" lon="1.12108">
        <ele>64.4</ele>
        <time>2020-07-03T11:07:22Z</time>
      </trkpt>
      <trkpt lat="47.32462" lon="1.121">
        <ele>64.4</ele>
        <time>2020-07-03T11:07:23Z</time>
      </trkpt>
      <trkpt lat="47.32462" lon="1.12091">
        <ele>64.3</ele>
        <time>2020-07-03T11:07:24Z</time>
      </trkpt>
      <trkpt lat="47.32462" lon="1.12083">
        <ele>64.3</ele>
        <time>2020-07-03T11:07:25Z</time>
      </trkpt>
      <trkpt lat="47.32461" lon="1.12074">
        <ele>64.3</ele>
        <time>2020-07-03T11:07:26Z</time>
      </trkpt>
      <trkpt lat="47.32461" lon="1.12065">
        <ele>64.2</ele>
        <time>2020-07-03T11:07:27Z</time>
      </trkpt>
      <trkpt lat="47.3246" lon="1.12056">
        <ele>64.2</ele>
        <time>2020-07-03T11:07:28Z</time>
      </trkpt>
      <trkpt lat="47.3246" lon="1.12047">
        <ele>64.2</ele>
        <time>2020-07-03T11:07:29Z</time>
      </trkpt>
      <trkpt lat="47.32459" lon="1.12039">
        <ele>64.1</ele>
        <time>2020-07-03T11:07:30Z</time>
      </trkpt>
      <trkpt lat="47.32459" lon="1.1203">
        <ele>64.1</ele>
        <time>2020-07-03T11:07:31Z</time>
      </trkpt>
      <trkpt lat="47.32458" lon="1.12022">
        <ele>64</ele>
        <time>2020-07-03T11:07:32Z</time>
      </trkpt>
      <trkpt lat="47.32458" lon="1.12013">
        <ele>63.8</ele>
        <time>2020-07-03T11:07:33Z</time>
      </trkpt>
      <trkpt lat="47.32457" lon="1.12004">
        <ele>63.7</ele>
        <time>2020-07-03T11:07:34Z</time>
      </trkpt>
      <trkpt lat="47.32457" lon="1.11997">
        <ele>63.6</ele>
        <time>2020-07-03T11:07:35Z</time>
      </trkpt>
      <trkpt lat="47.32457" lon="1.11988">
        <ele>63.5</ele>
        <time>2020-07-03T11:07:36Z</time>
      </trkpt>
      <trkpt lat="47.32457" lon="1.1198">
        <ele>63.4</ele>
        <time>2020-07-03T11:07:37Z</time>
      </trkpt>
      <trkpt lat="47.32456" lon="1.11973">
        <ele>63.3</ele>
        <time>2020-07-03T11:07:38Z</time>
      </trkpt>
      <trkpt lat="47.32455" lon="1.11964">
        <ele>63.3</ele>
        <time>2020-07-03T11:07:39Z</time>
      </trkpt>
      <trkpt lat="47.32454" lon="1.11956">
        <ele>63.2</ele>
        <time>2020-07-03T11:07:40Z</time>
      </trkpt>
      <trkpt lat="47.32454" lon="1.11948">
        <ele>63.2</ele>
        <time>2020-07-03T11:07:41Z</time>
      </trkpt>
      <trkpt lat="47.32453" lon="1.1194">
        <ele>63.2</ele>
        <time>2020-07-03T11:07:42Z</time>
      </trkpt>
      <trkpt lat="47.32452" lon="1.11931">
        <ele>63.1</ele>
        <time>2020-07-03T11:07:43Z</time>
      </trkpt>
      <trkpt lat="47.32451" lon="1.11922">
        <ele>63</ele>
        <time>2020-07-03T11:07:44Z</time>
      </trkpt>
      <trkpt lat="47.32451" lon="1.11913">
        <ele>63</ele>
        <time>2020-07-03T11:07:45Z</time>
      </trkpt>
      <trkpt lat="47.3245" lon="1.11904">
        <ele>62.9</ele>
        <time>2020-07-03T11:07:46Z</time>
      </trkpt>
      <trkpt lat="47.3245" lon="1.11896">
        <ele>62.9</ele>
        <time>2020-07-03T11:07:47Z</time>
      </trkpt>
      <trkpt lat="47.3245" lon="1.11887">
        <ele>62.9</ele>
        <time>2020-07-03T11:07:48Z</time>
      </trkpt>
      <trkpt lat="47.32449" lon="1.11878">
        <ele>62.9</ele>
        <time>2020-07-03T11:07:49Z</time>
      </trkpt>
      <trkpt lat="47.32449" lon="1.11869">
        <ele>62.9</ele>
        <time>2020-07-03T11:07:50Z</time>
      </trkpt>
      <trkpt lat="47.32449" lon="1.11861">
        <ele>62.9</ele>
        <time>2020-07-03T11:07:51Z</time>
      </trkpt>
      <trkpt lat="47.32449" lon="1.11853">
        <ele>63</ele>
        <time>2020-07-03T11:07:52Z</time>
      </trkpt>
      <trkpt lat="47.32448" lon="1.11845">
        <ele>62.9</ele>
        <time>2020-07-03T11:07:53Z</time>
      </trkpt>
      <trkpt lat="47.32448" lon="1.11837">
        <ele>62.9</ele>
        <time>2020-07-03T11:07:54Z</time>
      </trkpt>
      <trkpt lat="47.32447" lon="1.1183">
        <ele>62.8</ele>
        <time>2020-07-03T11:07:55Z</time>
      </trkpt>
      <trkpt lat="47.32447" lon="1.11821">
        <ele>62.7</ele>
        <time>2020-07-03T11:07:56Z</time>
      </trkpt>
      <trkpt lat="47.32446" lon="1.11813">
        <ele>62.6</ele>
        <time>2020-07-03T11:07:57Z</time>
      </trkpt>
      <trkpt lat="47.32446" lon="1.11804">
        <ele>62.5</ele>
        <time>2020-07-03T11:07:58Z</time>
      </trkpt>
      <trkpt lat="47.32445" lon="1.11797">
        <ele>62.4</ele>
        <time>2020-07-03T11:07:59Z</time>
      </trkpt>
      <trkpt lat="47.32445" lon="1.11789">
        <ele>62.4</ele>
        <time>2020-07-03T11:08:00Z</time>
      </trkpt>
      <trkpt lat="47.32444" lon="1.11781">
        <ele>62.3</ele>
        <time>2020-07-03T11:08:01Z</time>
      </trkpt>
      <trkpt lat="47.32444" lon="1.11772">
        <ele>62.3</ele>
        <time>2020-07-03T11:08:02Z</time>
      </trkpt>
      <trkpt lat="47.32443" lon="1.11764">
        <ele>62.2</ele>
        <time>2020-07-03T11:08:03Z</time>
      </trkpt>
      <trkpt lat="47.32442" lon="1.11755">
        <ele>62.2</ele>
        <time>2020-07-03T11:08:04Z</time>
      </trkpt>
      <trkpt lat="47.32442" lon="1.11746">
        <ele>62.1</ele>
        <time>2020-07-03T11:08:05Z</time>
      </trkpt>
      <trkpt lat="47.32441" lon="1.11738">
        <ele>62.1</ele>
        <time>2020-07-03T11:08:06Z</time>
      </trkpt>
      <trkpt lat="47.3244" lon="1.11729">
        <ele>62.1</ele>
        <time>2020-07-03T11:08:07Z</time>
      </trkpt>
      <trkpt lat="47.3244" lon="1.11722">
        <ele>62.1</ele>
        <time>2020-07-03T11:08:08Z</time>
      </trkpt>
      <trkpt lat="47.32439" lon="1.11714">
        <ele>62</ele>
        <time>2020-07-03T11:08:09Z</time>
      </trkpt>
      <trkpt lat="47.32438" lon="1.11705">
        <ele>62</ele>
        <time>2020-07-03T11:08:10Z</time>
      </trkpt>
      <trkpt lat="47.32437" lon="1.11696">
        <ele>62</ele>
        <time>2020-07-03T11:08:11Z</time>
      </trkpt>
      <trkpt lat="47.32436" lon="1.11689">
        <ele>62.1</ele>
        <time>2020-07-03T11:08:12Z</time>
      </trkpt>
      <trkpt lat="47.32435" lon="1.1168">
        <ele>62.1</ele>
        <time>2020-07-03T11:08:13Z</time>
      </trkpt>
      <trkpt lat="47.32435" lon="1.11671">
        <ele>62.1</ele>
        <time>2020-07-03T11:08:14Z</time>
      </trkpt>
      <trkpt lat="47.32434" lon="1.11663">
        <ele>62.1</ele>
        <time>2020-07-03T11:08:15Z</time>
      </trkpt>
      <trkpt lat="47.32434" lon="1.11655">
        <ele>62</ele>
        <time>2020-07-03T11:08:16Z</time>
      </trkpt>
      <trkpt lat="47.32433" lon="1.11647">
        <ele>62</ele>
        <time>2020-07-03T11:08:17Z</time>
      </trkpt>
      <trkpt lat="47.32432" lon="1.11639">
        <ele>62</ele>
        <time>2020-07-03T11:08:18Z</time>
      </trkpt>
      <trkpt lat="47.32431" lon="1.1163">
        <ele>62</ele>
        <time>2020-07-03T11:08:19Z</time>
      </trkpt>
      <trkpt lat="47.3243" lon="1.11621">
        <ele>62</ele>
        <time>2020-07-03T11:08:20Z</time>
      </trkpt>
      <trkpt lat="47.32429" lon="1.11612">
        <ele>62</ele>
        <time>2020-07-03T11:08:21Z</time>
      </trkpt>
      <trkpt lat="47.32428" lon="1.11603">
        <ele>62</ele>
        <time>2020-07-03T11:08:22Z</time>
      </trkpt>
      <trkpt lat="47.32427" lon="1.11594">
        <ele>62</ele>
        <time>2020-07-03T11:08:23Z</time>
      </trkpt>
      <trkpt lat="47.32426" lon="1.11586">
        <ele>62</ele>
        <time>2020-07-03T11:08:24Z</time>
      </trkpt>
      <trkpt lat="47.32425" lon="1.11578">
        <ele>62</ele>
        <time>2020-07-03T11:08:25Z</time>
      </trkpt>
      <trkpt lat="47.32424" lon="1.11569">
        <ele>62</ele>
        <time>2020-07-03T11:08:26Z</time>
      </trkpt>
      <trkpt lat="47.32424" lon="1.11561">
        <ele>62</ele>
        <time>2020-07-03T11:08:27Z</time>
      </trkpt>
      <trkpt lat="47.32423" lon="1.11553">
        <ele>62</ele>
        <time>2020-07-03T11:08:28Z</time>
      </trkpt>
      <trkpt lat="47.32422" lon="1.11545">
        <ele>62</ele>
        <time>2020-07-03T11:08:29Z</time>
      </trkpt>
      <trkpt lat="47.3242" lon="1.11536">
        <ele>62</ele>
        <time>2020-07-03T11:08:30Z</time>
      </trkpt>
      <trkpt lat="47.32419" lon="1.11528">
        <ele>62</ele>
        <time>2020-07-03T11:08:31Z</time>
      </trkpt>
      <trkpt lat="47.32418" lon="1.1152">
        <ele>62</ele>
        <time>2020-07-03T11:08:32Z</time>
      </trkpt>
      <trkpt lat="47.32417" lon="1.11512">
        <ele>62</ele>
        <time>2020-07-03T11:08:33Z</time>
      </trkpt>
      <trkpt lat="47.32416" lon="1.11504">
        <ele>62</ele>
        <time>2020-07-03T11:08:34Z</time>
      </trkpt>
      <trkpt lat="47.32415" lon="1.11495">
        <ele>62</ele>
        <time>2020-07-03T11:08:35Z</time>
      </trkpt>
      <trkpt lat="47.32414" lon="1.11487">
        <ele>62</ele>
        <time>2020-07-03T11:08:36Z</time>
      </trkpt>
      <trkpt lat="47.32414" lon="1.11478">
        <ele>62.1</ele>
        <time>2020-07-03T11:08:37Z</time>
      </trkpt>
      <trkpt lat="47.32413" lon="1.1147">
        <ele>62.1</ele>
        <time>2020-07-03T11:08:38Z</time>
      </trkpt>
      <trkpt lat="47.32412" lon="1.11462">
        <ele>62.1</ele>
        <time>2020-07-03T11:08:39Z</time>
      </trkpt>
      <trkpt lat="47.32411" lon="1.11454">
        <ele>62.1</ele>
        <time>2020-07-03T11:08:40Z</time>
      </trkpt>
      <trkpt lat="47.3241" lon="1.11446">
        <ele>62.1</ele>
        <time>2020-07-03T11:08:41Z</time>
      </trkpt>
      <trkpt lat="47.3241" lon="1.11438">
        <ele>62</ele>
        <time>2020-07-03T11:08:42Z</time>
      </trkpt>
      <trkpt lat="47.32409" lon="1.1143">
        <ele>62</ele>
        <time>2020-07-03T11:08:43Z</time>
      </trkpt>
      <trkpt lat="47.32408" lon="1.11422">
        <ele>62</ele>
        <time>2020-07-03T11:08:44Z</time>
      </trkpt>
      <trkpt lat="47.32407" lon="1.11414">
        <ele>62</ele>
        <time>2020-07-03T11:08:45Z</time>
      </trkpt>
      <trkpt lat="47.32406" lon="1.11407">
        <ele>62</ele>
        <time>2020-07-03T11:08:46Z</time>
      </trkpt>
      <trkpt lat="47.32406" lon="1.11399">
        <ele>62</ele>
        <time>2020-07-03T11:08:47Z</time>
      </trkpt>
      <trkpt lat="47.32405" lon="1.1139">
        <ele>62.1</ele>
        <time>2020-07-03T11:08:48Z</time>
      </trkpt>
      <trkpt lat="47.32405" lon="1.11383">
        <ele>62.1</ele>
        <time>2020-07-03T11:08:49Z</time>
      </trkpt>
      <trkpt lat="47.32404" lon="1.11376">
        <ele>62.2</ele>
        <time>2020-07-03T11:08:50Z</time>
      </trkpt>
      <trkpt lat="47.32404" lon="1.11368">
        <ele>62.2</ele>
        <time>2020-07-03T11:08:51Z</time>
      </trkpt>
      <trkpt lat="47.32403" lon="1.11361">
        <ele>62.3</ele>
        <time>2020-07-03T11:08:52Z</time>
      </trkpt>
      <trkpt lat="47.32402" lon="1.11353">
        <ele>62.4</ele>
        <time>2020-07-03T11:08:53Z</time>
      </trkpt>
      <trkpt lat="47.32401" lon="1.11346">
        <ele>62.5</ele>
        <time>2020-07-03T11:08:54Z</time>
      </trkpt>
      <trkpt lat="47.324" lon="1.11339">
        <ele>62.6</ele>
        <time>2020-07-03T11:08:55Z</time>
      </trkpt>
      <trkpt lat="47.324" lon="1.11332">
        <ele>62.7</ele>
        <time>2020-07-03T11:08:56Z</time>
      </trkpt>
      <trkpt lat="47.32399" lon="1.11326">
        <ele>62.7</ele>
        <time>2020-07-03T11:08:57Z</time>
      </trkpt>
      <trkpt lat="47.32399" lon="1.11319">
        <ele>62.7</ele>
        <time>2020-07-03T11:08:58Z</time>
      </trkpt>
      <trkpt lat="47.32399" lon="1.11312">
        <ele>62.7</ele>
        <time>2020-07-03T11:08:59Z</time>
      </trkpt>
      <trkpt lat="47.32398" lon="1.11307">
        <ele>62.7</ele>
        <time>2020-07-03T11:09:00Z</time>
      </trkpt>
      <trkpt lat="47.32397" lon="1.11302">
        <ele>62.7</ele>
        <time>2020-07-03T11:09:01Z</time>
      </trkpt>
      <trkpt lat="47.32396" lon="1.11295">
        <ele>62.7</ele>
        <time>2020-07-03T11:09:02Z</time>
      </trkpt>
      <trkpt lat="47.32396" lon="1.11288">
        <ele>62.7</ele>
        <time>2020-07-03T11:09:03Z</time>
      </trkpt>
      <trkpt lat="47.32395" lon="1.1128">
        <ele>62.7</ele>
        <time>2020-07-03T11:09:04Z</time>
      </trkpt>
      <trkpt lat="47.32393" lon="1.11273">
        <ele>62.7</ele>
        <time>2020-07-03T11:09:05Z</time>
      </trkpt>
      <trkpt lat="47.32392" lon="1.11265">
        <ele>62.7</ele>
        <time>2020-07-03T11:09:06Z</time>
      </trkpt>
      <trkpt lat="47.3239" lon="1.11256">
        <ele>62.6</ele>
        <time>2020-07-03T11:09:07Z</time>
      </trkpt>
      <trkpt lat="47.32389" lon="1.11248">
        <ele>62.6</ele>
        <time>2020-07-03T11:09:08Z</time>
      </trkpt>
      <trkpt lat="47.32388" lon="1.11239">
        <ele>62.6</ele>
        <time>2020-07-03T11:09:09Z</time>
      </trkpt>
      <trkpt lat="47.32387" lon="1.1123">
        <ele>62.6</ele>
        <time>2020-07-03T11:09:10Z</time>
      </trkpt>
      <trkpt lat="47.32386" lon="1.11222">
        <ele>62.6</ele>
        <time>2020-07-03T11:09:11Z</time>
      </trkpt>
      <trkpt lat="47.32386" lon="1.11215">
        <ele>62.6</ele>
        <time>2020-07-03T11:09:12Z</time>
      </trkpt>
      <trkpt lat="47.32386" lon="1.11206">
        <ele>62.6</ele>
        <time>2020-07-03T11:09:13Z</time>
      </trkpt>
      <trkpt lat="47.32386" lon="1.11199">
        <ele>62.5</ele>
        <time>2020-07-03T11:09:14Z</time>
      </trkpt>
      <trkpt lat="47.32385" lon="1.11191">
        <ele>62.5</ele>
        <time>2020-07-03T11:09:15Z</time>
      </trkpt>
      <trkpt lat="47.32385" lon="1.11182">
        <ele>62.6</ele>
        <time>2020-07-03T11:09:16Z</time>
      </trkpt>
      <trkpt lat="47.32383" lon="1.11176">
        <ele>62.6</ele>
        <time>2020-07-03T11:09:17Z</time>
      </trkpt>
      <trkpt lat="47.32379" lon="1.1117">
        <ele>62.4</ele>
        <time>2020-07-03T11:09:18Z</time>
      </trkpt>
      <trkpt lat="47.32376" lon="1.11163">
        <ele>62.3</ele>
        <time>2020-07-03T11:09:19Z</time>
      </trkpt>
      <trkpt lat="47.32372" lon="1.1116">
        <ele>62.1</ele>
        <time>2020-07-03T11:09:20Z</time>
      </trkpt>
      <trkpt lat="47.32367" lon="1.11157">
        <ele>62</ele>
        <time>2020-07-03T11:09:21Z</time>
      </trkpt>
      <trkpt lat="47.32363" lon="1.11154">
        <ele>61.8</ele>
        <time>2020-07-03T11:09:22Z</time>
      </trkpt>
      <trkpt lat="47.32358" lon="1.11153">
        <ele>61.7</ele>
        <time>2020-07-03T11:09:23Z</time>
      </trkpt>
      <trkpt lat="47.32354" lon="1.1115">
        <ele>61.6</ele>
        <time>2020-07-03T11:09:24Z</time>
      </trkpt>
      <trkpt lat="47.32349" lon="1.11148">
        <ele>61.5</ele>
        <time>2020-07-03T11:09:25Z</time>
      </trkpt>
      <trkpt lat="47.32344" lon="1.11144">
        <ele>61.5</ele>
        <time>2020-07-03T11:09:26Z</time>
      </trkpt>
      <trkpt lat="47.32341" lon="1.11138">
        <ele>61.6</ele>
        <time>2020-07-03T11:09:27Z</time>
      </trkpt>
      <trkpt lat="47.32338" lon="1.11132">
        <ele>61.7</ele>
        <time>2020-07-03T11:09:28Z</time>
      </trkpt>
      <trkpt lat="47.32335" lon="1.11125">
        <ele>61.9</ele>
        <time>2020-07-03T11:09:29Z</time>
      </trkpt>
      <trkpt lat="47.32333" lon="1.1112">
        <ele>62.1</ele>
        <time>2020-07-03T11:09:30Z</time>
      </trkpt>
      <trkpt lat="47.32331" lon="1.11113">
        <ele>62.3</ele>
        <time>2020-07-03T11:09:31Z</time>
      </trkpt>
      <trkpt lat="47.32329" lon="1.11108">
        <ele>62.5</ele>
        <time>2020-07-03T11:09:32Z</time>
      </trkpt>
      <trkpt lat="47.32326" lon="1.11103">
        <ele>62.7</ele>
        <time>2020-07-03T11:09:33Z</time>
      </trkpt>
      <trkpt lat="47.32323" lon="1.11098">
        <ele>62.9</ele>
        <time>2020-07-03T11:09:34Z</time>
      </trkpt>
      <trkpt lat="47.32321" lon="1.11093">
        <ele>63.2</ele>
        <time>2020-07-03T11:09:35Z</time>
      </trkpt>
      <trkpt lat="47.32318" lon="1.11089">
        <ele>63.4</ele>
        <time>2020-07-03T11:09:36Z</time>
      </trkpt>
      <trkpt lat="47.32315" lon="1.11086">
        <ele>63.6</ele>
        <time>2020-07-03T11:09:37Z</time>
      </trkpt>
      <trkpt lat="47.32313" lon="1.1108">
        <ele>63.9</ele>
        <time>2020-07-03T11:09:38Z</time>
      </trkpt>
      <trkpt lat="47.32311" lon="1.11074">
        <ele>64.1</ele>
        <time>2020-07-03T11:09:39Z</time>
      </trkpt>
      <trkpt lat="47.32309" lon="1.1107">
        <ele>64.3</ele>
        <time>2020-07-03T11:09:40Z</time>
      </trkpt>
      <trkpt lat="47.32308" lon="1.11066">
        <ele>64.5</ele>
        <time>2020-07-03T11:09:41Z</time>
      </trkpt>
      <trkpt lat="47.32308" lon="1.11062">
        <ele>64.6</ele>
        <time>2020-07-03T11:09:42Z</time>
      </trkpt>
      <trkpt lat="47.32307" lon="1.11057">
        <ele>64.8</ele>
        <time>2020-07-03T11:09:43Z</time>
      </trkpt>
      <trkpt lat="47.32305" lon="1.11052">
        <ele>65</ele>
        <time>2020-07-03T11:09:44Z</time>
      </trkpt>
      <trkpt lat="47.32303" lon="1.11047">
        <ele>65.2</ele>
        <time>2020-07-03T11:09:45Z</time>
      </trkpt>
      <trkpt lat="47.32303" lon="1.11045">
        <ele>65.3</ele>
        <time>2020-07-03T11:09:46Z</time>
      </trkpt>
      <trkpt lat="47.32301" lon="1.1104">
        <ele>65.5</ele>
        <time>2020-07-03T11:09:47Z</time>
      </trkpt>
      <trkpt lat="47.32299" lon="1.11035">
        <ele>66.3</ele>
        <time>2020-07-03T11:09:48Z</time>
      </trkpt>
      <trkpt lat="47.32298" lon="1.11033">
        <ele>66.4</ele>
        <time>2020-07-03T11:09:49Z</time>
      </trkpt>
      <trkpt lat="47.32296" lon="1.11029">
        <ele>66.7</ele>
        <time>2020-07-03T11:09:50Z</time>
      </trkpt>
      <trkpt lat="47.32296" lon="1.11025">
        <ele>66.9</ele>
        <time>2020-07-03T11:09:51Z</time>
      </trkpt>
      <trkpt lat="47.32296" lon="1.11021">
        <ele>67.1</ele>
        <time>2020-07-03T11:09:52Z</time>
      </trkpt>
      <trkpt lat="47.32296" lon="1.11015">
        <ele>67.4</ele>
        <time>2020-07-03T11:09:53Z</time>
      </trkpt>
      <trkpt lat="47.32295" lon="1.11011">
        <ele>67.6</ele>
        <time>2020-07-03T11:09:54Z</time>
      </trkpt>
      <trkpt lat="47.32295" lon="1.11006">
        <ele>67.8</ele>
        <time>2020-07-03T11:09:55Z</time>
      </trkpt>
      <trkpt lat="47.32296" lon="1.11003">
        <ele>67.9</ele>
        <time>2020-07-03T11:09:56Z</time>
      </trkpt>
      <trkpt lat="47.32296" lon="1.10999">
        <ele>68.2</ele>
        <time>2020-07-03T11:09:57Z</time>
      </trkpt>
      <trkpt lat="47.32296" lon="1.10994">
        <ele>68.4</ele>
        <time>2020-07-03T11:09:58Z</time>
      </trkpt>
      <trkpt lat="47.32295" lon="1.10989">
        <ele>68.7</ele>
        <time>2020-07-03T11:09:59Z</time>
      </trkpt>
      <trkpt lat="47.32295" lon="1.10985">
        <ele>69</ele>
        <time>2020-07-03T11:10:00Z</time>
      </trkpt>
      <trkpt lat="47.32295" lon="1.10981">
        <ele>69.2</ele>
        <time>2020-07-03T11:10:01Z</time>
      </trkpt>
      <trkpt lat="47.32295" lon="1.10975">
        <ele>69.5</ele>
        <time>2020-07-03T11:10:02Z</time>
      </trkpt>
      <trkpt lat="47.32295" lon="1.10974">
        <ele>69.6</ele>
        <time>2020-07-03T11:10:03Z</time>
      </trkpt>
      <trkpt lat="47.32294" lon="1.10967">
        <ele>69.9</ele>
        <time>2020-07-03T11:10:04Z</time>
      </trkpt>
      <trkpt lat="47.32293" lon="1.10964">
        <ele>70.1</ele>
        <time>2020-07-03T11:10:05Z</time>
      </trkpt>
      <trkpt lat="47.32291" lon="1.10961">
        <ele>70.3</ele>
        <time>2020-07-03T11:10:06Z</time>
      </trkpt>
      <trkpt lat="47.32288" lon="1.10957">
        <ele>70.5</ele>
        <time>2020-07-03T11:10:07Z</time>
      </trkpt>
      <trkpt lat="47.32287" lon="1.10956">
        <ele>70.6</ele>
        <time>2020-07-03T11:10:08Z</time>
      </trkpt>
      <trkpt lat="47.32284" lon="1.10951">
        <ele>70.7</ele>
        <time>2020-07-03T11:10:09Z</time>
      </trkpt>
      <trkpt lat="47.32284" lon="1.1095">
        <ele>70.7</ele>
        <time>2020-07-03T11:10:10Z</time>
      </trkpt>
      <trkpt lat="47.32282" lon="1.10947">
        <ele>70.8</ele>
        <time>2020-07-03T11:10:11Z</time>
      </trkpt>
      <trkpt lat="47.32279" lon="1.10944">
        <ele>70.8</ele>
        <time>2020-07-03T11:10:12Z</time>
      </trkpt>
      <trkpt lat="47.32278" lon="1.10939">
        <ele>70.9</ele>
        <time>2020-07-03T11:10:13Z</time>
      </trkpt>
      <trkpt lat="47.32278" lon="1.10938">
        <ele>71</ele>
        <time>2020-07-03T11:10:14Z</time>
      </trkpt>
      <trkpt lat="47.32276" lon="1.10933">
        <ele>71.1</ele>
        <time>2020-07-03T11:10:15Z</time>
      </trkpt>
      <trkpt lat="47.32276" lon="1.10931">
        <ele>71.1</ele>
        <time>2020-07-03T11:10:16Z</time>
      </trkpt>
      <trkpt lat="47.32275" lon="1.10926">
        <ele>71.2</ele>
        <time>2020-07-03T11:10:17Z</time>
      </trkpt>
      <trkpt lat="47.32275" lon="1.10924">
        <ele>71.3</ele>
        <time>2020-07-03T11:10:18Z</time>
      </trkpt>
      <trkpt lat="47.32274" lon="1.10919">
        <ele>71.4</ele>
        <time>2020-07-03T11:10:19Z</time>
      </trkpt>
      <trkpt lat="47.32274" lon="1.10918">
        <ele>71.5</ele>
        <time>2020-07-03T11:10:20Z</time>
      </trkpt>
      <trkpt lat="47.32273" lon="1.10913">
        <ele>71.7</ele>
        <time>2020-07-03T11:10:21Z</time>
      </trkpt>
      <trkpt lat="47.32272" lon="1.10912">
        <ele>71.8</ele>
        <time>2020-07-03T11:10:22Z</time>
      </trkpt>
      <trkpt lat="47.3227" lon="1.10908">
        <ele>71.8</ele>
        <time>2020-07-03T11:10:23Z</time>
      </trkpt>
      <trkpt lat="47.32267" lon="1.10905">
        <ele>71.9</ele>
        <time>2020-07-03T11:10:24Z</time>
      </trkpt>
      <trkpt lat="47.32266" lon="1.10904">
        <ele>71.9</ele>
        <time>2020-07-03T11:10:25Z</time>
      </trkpt>
      <trkpt lat="47.32262" lon="1.10901">
        <ele>72</ele>
        <time>2020-07-03T11:10:26Z</time>
      </trkpt>
      <trkpt lat="47.3226" lon="1.109">
        <ele>72</ele>
        <time>2020-07-03T11:10:27Z</time>
      </trkpt>
      <trkpt lat="47.32257" lon="1.10899">
        <ele>72.2</ele>
        <time>2020-07-03T11:10:28Z</time>
      </trkpt>
      <trkpt lat="47.32254" lon="1.10898">
        <ele>72.4</ele>
        <time>2020-07-03T11:10:29Z</time>
      </trkpt>
      <trkpt lat="47.32251" lon="1.10897">
        <ele>72.5</ele>
        <time>2020-07-03T11:10:30Z</time>
      </trkpt>
      <trkpt lat="47.32248" lon="1.10896">
        <ele>72.6</ele>
        <time>2020-07-03T11:10:31Z</time>
      </trkpt>
      <trkpt lat="47.32245" lon="1.10897">
        <ele>72.7</ele>
        <time>2020-07-03T11:10:32Z</time>
      </trkpt>
      <trkpt lat="47.32241" lon="1.10897">
        <ele>72.8</ele>
        <time>2020-07-03T11:10:33Z</time>
      </trkpt>
      <trkpt lat="47.3224" lon="1.10897">
        <ele>72.8</ele>
        <time>2020-07-03T11:10:34Z</time>
      </trkpt>
      <trkpt lat="47.32237" lon="1.10897">
        <ele>72.9</ele>
        <time>2020-07-03T11:10:35Z</time>
      </trkpt>
      <trkpt lat="47.32234" lon="1.10899">
        <ele>73</ele>
        <time>2020-07-03T11:10:36Z</time>
      </trkpt>
      <trkpt lat="47.32231" lon="1.10898">
        <ele>73.1</ele>
        <time>2020-07-03T11:10:37Z</time>
      </trkpt>
      <trkpt lat="47.32227" lon="1.10898">
        <ele>73.1</ele>
        <time>2020-07-03T11:10:38Z</time>
      </trkpt>
      <trkpt lat="47.32223" lon="1.10897">
        <ele>73.2</ele>
        <time>2020-07-03T11:10:39Z</time>
      </trkpt>
      <trkpt lat="47.3222" lon="1.10896">
        <ele>73.2</ele>
        <time>2020-07-03T11:10:40Z</time>
      </trkpt>
      <trkpt lat="47.32217" lon="1.10898">
        <ele>73.3</ele>
        <time>2020-07-03T11:10:41Z</time>
      </trkpt>
      <trkpt lat="47.32214" lon="1.10897">
        <ele>73.3</ele>
        <time>2020-07-03T11:10:42Z</time>
      </trkpt>
      <trkpt lat="47.32211" lon="1.10896">
        <ele>73.4</ele>
        <time>2020-07-03T11:10:43Z</time>
      </trkpt>
      <trkpt lat="47.32207" lon="1.10895">
        <ele>73.4</ele>
        <time>2020-07-03T11:10:44Z</time>
      </trkpt>
      <trkpt lat="47.32204" lon="1.10894">
        <ele>73.5</ele>
        <time>2020-07-03T11:10:45Z</time>
      </trkpt>
      <trkpt lat="47.322" lon="1.10893">
        <ele>73.5</ele>
        <time>2020-07-03T11:10:46Z</time>
      </trkpt>
      <trkpt lat="47.32195" lon="1.10892">
        <ele>73.6</ele>
        <time>2020-07-03T11:10:47Z</time>
      </trkpt>
      <trkpt lat="47.32191" lon="1.10891">
        <ele>73.7</ele>
        <time>2020-07-03T11:10:48Z</time>
      </trkpt>
      <trkpt lat="47.32187" lon="1.10891">
        <ele>73.8</ele>
        <time>2020-07-03T11:10:49Z</time>
      </trkpt>
      <trkpt lat="47.32182" lon="1.1089">
        <ele>73.9</ele>
        <time>2020-07-03T11:10:50Z</time>
      </trkpt>
      <trkpt lat="47.32179" lon="1.10888">
        <ele>74</ele>
        <time>2020-07-03T11:10:51Z</time>
      </trkpt>
      <trkpt lat="47.32175" lon="1.10886">
        <ele>74.1</ele>
        <time>2020-07-03T11:10:52Z</time>
      </trkpt>
      <trkpt lat="47.32172" lon="1.10883">
        <ele>74.1</ele>
        <time>2020-07-03T11:10:53Z</time>
      </trkpt>
      <trkpt lat="47.32168" lon="1.1088">
        <ele>74.2</ele>
        <time>2020-07-03T11:10:54Z</time>
      </trkpt>
      <trkpt lat="47.32164" lon="1.10876">
        <ele>74.3</ele>
        <time>2020-07-03T11:10:55Z</time>
      </trkpt>
      <trkpt lat="47.32161" lon="1.10871">
        <ele>74.4</ele>
        <time>2020-07-03T11:10:56Z</time>
      </trkpt>
      <trkpt lat="47.32158" lon="1.10866">
        <ele>74.4</ele>
        <time>2020-07-03T11:10:57Z</time>
      </trkpt>
      <trkpt lat="47.32155" lon="1.10859">
        <ele>74.4</ele>
        <time>2020-07-03T11:10:58Z</time>
      </trkpt>
      <trkpt lat="47.32151" lon="1.10853">
        <ele>74.4</ele>
        <time>2020-07-03T11:10:59Z</time>
      </trkpt>
      <trkpt lat="47.32148" lon="1.10849">
        <ele>74.4</ele>
        <time>2020-07-03T11:11:00Z</time>
      </trkpt>
      <trkpt lat="47.32147" lon="1.10842">
        <ele>74.5</ele>
        <time>2020-07-03T11:11:01Z</time>
      </trkpt>
      <trkpt lat="47.32144" lon="1.10838">
        <ele>74.5</ele>
        <time>2020-07-03T11:11:02Z</time>
      </trkpt>
      <trkpt lat="47.32142" lon="1.10835">
        <ele>74.5</ele>
        <time>2020-07-03T11:11:03Z</time>
      </trkpt>
      <trkpt lat="47.3214" lon="1.10831">
        <ele>74.6</ele>
        <time>2020-07-03T11:11:04Z</time>
      </trkpt>
      <trkpt lat="47.32138" lon="1.10826">
        <ele>74.6</ele>
        <time>2020-07-03T11:11:05Z</time>
      </trkpt>
      <trkpt lat="47.32135" lon="1.10822">
        <ele>74.7</ele>
        <time>2020-07-03T11:11:06Z</time>
      </trkpt>
      <trkpt lat="47.32132" lon="1.1082">
        <ele>74.7</ele>
        <time>2020-07-03T11:11:07Z</time>
      </trkpt>
      <trkpt lat="47.32129" lon="1.10815">
        <ele>74.8</ele>
        <time>2020-07-03T11:11:08Z</time>
      </trkpt>
      <trkpt lat="47.32126" lon="1.10807">
        <ele>74.8</ele>
        <time>2020-07-03T11:11:09Z</time>
      </trkpt>
      <trkpt lat="47.32123" lon="1.10801">
        <ele>74.9</ele>
        <time>2020-07-03T11:11:10Z</time>
      </trkpt>
      <trkpt lat="47.32119" lon="1.10796">
        <ele>75</ele>
        <time>2020-07-03T11:11:11Z</time>
      </trkpt>
      <trkpt lat="47.32116" lon="1.10791">
        <ele>75</ele>
        <time>2020-07-03T11:11:12Z</time>
      </trkpt>
      <trkpt lat="47.32114" lon="1.10787">
        <ele>75.1</ele>
        <time>2020-07-03T11:11:13Z</time>
      </trkpt>
      <trkpt lat="47.32111" lon="1.10783">
        <ele>75.1</ele>
        <time>2020-07-03T11:11:14Z</time>
      </trkpt>
      <trkpt lat="47.32107" lon="1.10779">
        <ele>75.2</ele>
        <time>2020-07-03T11:11:15Z</time>
      </trkpt>
      <trkpt lat="47.32104" lon="1.10774">
        <ele>75.2</ele>
        <time>2020-07-03T11:11:16Z</time>
      </trkpt>
      <trkpt lat="47.321" lon="1.10769">
        <ele>75.2</ele>
        <time>2020-07-03T11:11:17Z</time>
      </trkpt>
      <trkpt lat="47.32097" lon="1.10763">
        <ele>75.3</ele>
        <time>2020-07-03T11:11:18Z</time>
      </trkpt>
      <trkpt lat="47.32094" lon="1.10758">
        <ele>75.3</ele>
        <time>2020-07-03T11:11:19Z</time>
      </trkpt>
      <trkpt lat="47.32089" lon="1.10755">
        <ele>75.4</ele>
        <time>2020-07-03T11:11:20Z</time>
      </trkpt>
      <trkpt lat="47.32086" lon="1.10752">
        <ele>75.4</ele>
        <time>2020-07-03T11:11:21Z</time>
      </trkpt>
      <trkpt lat="47.32083" lon="1.10747">
        <ele>75.5</ele>
        <time>2020-07-03T11:11:22Z</time>
      </trkpt>
      <trkpt lat="47.32079" lon="1.10743">
        <ele>75.5</ele>
        <time>2020-07-03T11:11:23Z</time>
      </trkpt>
      <trkpt lat="47.32076" lon="1.10739">
        <ele>75.6</ele>
        <time>2020-07-03T11:11:24Z</time>
      </trkpt>
      <trkpt lat="47.32074" lon="1.10734">
        <ele>75.6</ele>
        <time>2020-07-03T11:11:25Z</time>
      </trkpt>
      <trkpt lat="47.3207" lon="1.1073">
        <ele>75.7</ele>
        <time>2020-07-03T11:11:26Z</time>
      </trkpt>
      <trkpt lat="47.32066" lon="1.10725">
        <ele>75.8</ele>
        <time>2020-07-03T11:11:27Z</time>
      </trkpt>
      <trkpt lat="47.32062" lon="1.10721">
        <ele>75.8</ele>
        <time>2020-07-03T11:11:28Z</time>
      </trkpt>
      <trkpt lat="47.32057" lon="1.10716">
        <ele>75.9</ele>
        <time>2020-07-03T11:11:29Z</time>
      </trkpt>
      <trkpt lat="47.32053" lon="1.10712">
        <ele>76</ele>
        <time>2020-07-03T11:11:30Z</time>
      </trkpt>
      <trkpt lat="47.3205" lon="1.10707">
        <ele>76.1</ele>
        <time>2020-07-03T11:11:31Z</time>
      </trkpt>
      <trkpt lat="47.32046" lon="1.10704">
        <ele>76.1</ele>
        <time>2020-07-03T11:11:32Z</time>
      </trkpt>
      <trkpt lat="47.32042" lon="1.107">
        <ele>76.2</ele>
        <time>2020-07-03T11:11:33Z</time>
      </trkpt>
      <trkpt lat="47.32039" lon="1.10697">
        <ele>76.2</ele>
        <time>2020-07-03T11:11:34Z</time>
      </trkpt>
      <trkpt lat="47.32036" lon="1.10692">
        <ele>76.3</ele>
        <time>2020-07-03T11:11:35Z</time>
      </trkpt>
      <trkpt lat="47.32032" lon="1.10687">
        <ele>76.4</ele>
        <time>2020-07-03T11:11:36Z</time>
      </trkpt>
      <trkpt lat="47.32028" lon="1.10683">
        <ele>76.4</ele>
        <time>2020-07-03T11:11:37Z</time>
      </trkpt>
      <trkpt lat="47.32024" lon="1.10679">
        <ele>76.5</ele>
        <time>2020-07-03T11:11:38Z</time>
      </trkpt>
      <trkpt lat="47.3202" lon="1.10676">
        <ele>76.6</ele>
        <time>2020-07-03T11:11:39Z</time>
      </trkpt>
      <trkpt lat="47.32016" lon="1.10672">
        <ele>76.8</ele>
        <time>2020-07-03T11:11:40Z</time>
      </trkpt>
      <trkpt lat="47.32011" lon="1.10668">
        <ele>76.9</ele>
        <time>2020-07-03T11:11:41Z</time>
      </trkpt>
      <trkpt lat="47.32008" lon="1.10664">
        <ele>77</ele>
        <time>2020-07-03T11:11:42Z</time>
      </trkpt>
      <trkpt lat="47.32004" lon="1.10661">
        <ele>77.1</ele>
        <time>2020-07-03T11:11:43Z</time>
      </trkpt>
      <trkpt lat="47.32" lon="1.10659">
        <ele>77.2</ele>
        <time>2020-07-03T11:11:44Z</time>
      </trkpt>
      <trkpt lat="47.31997" lon="1.10657">
        <ele>77.3</ele>
        <time>2020-07-03T11:11:45Z</time>
      </trkpt>
      <trkpt lat="47.31992" lon="1.10653">
        <ele>77.4</ele>
        <time>2020-07-03T11:11:46Z</time>
      </trkpt>
      <trkpt lat="47.31988" lon="1.10649">
        <ele>77.5</ele>
        <time>2020-07-03T11:11:47Z</time>
      </trkpt>
      <trkpt lat="47.31984" lon="1.10645">
        <ele>77.6</ele>
        <time>2020-07-03T11:11:48Z</time>
      </trkpt>
      <trkpt lat="47.31979" lon="1.10641">
        <ele>77.7</ele>
        <time>2020-07-03T11:11:49Z</time>
      </trkpt>
      <trkpt lat="47.31975" lon="1.10637">
        <ele>77.8</ele>
        <time>2020-07-03T11:11:50Z</time>
      </trkpt>
      <trkpt lat="47.3197" lon="1.10633">
        <ele>77.8</ele>
        <time>2020-07-03T11:11:51Z</time>
      </trkpt>
      <trkpt lat="47.31966" lon="1.1063">
        <ele>77.9</ele>
        <time>2020-07-03T11:11:52Z</time>
      </trkpt>
      <trkpt lat="47.31961" lon="1.10627">
        <ele>78</ele>
        <time>2020-07-03T11:11:53Z</time>
      </trkpt>
      <trkpt lat="47.31957" lon="1.10622">
        <ele>78.1</ele>
        <time>2020-07-03T11:11:54Z</time>
      </trkpt>
      <trkpt lat="47.31953" lon="1.10617">
        <ele>78.2</ele>
        <time>2020-07-03T11:11:55Z</time>
      </trkpt>
      <trkpt lat="47.3195" lon="1.10612">
        <ele>78.3</ele>
        <time>2020-07-03T11:11:56Z</time>
      </trkpt>
      <trkpt lat="47.31946" lon="1.10608">
        <ele>78.4</ele>
        <time>2020-07-03T11:11:57Z</time>
      </trkpt>
      <trkpt lat="47.31942" lon="1.10605">
        <ele>78.5</ele>
        <time>2020-07-03T11:11:58Z</time>
      </trkpt>
      <trkpt lat="47.31938" lon="1.106">
        <ele>78.6</ele>
        <time>2020-07-03T11:11:59Z</time>
      </trkpt>
      <trkpt lat="47.31934" lon="1.10597">
        <ele>78.6</ele>
        <time>2020-07-03T11:12:00Z</time>
      </trkpt>
      <trkpt lat="47.31931" lon="1.10593">
        <ele>78.7</ele>
        <time>2020-07-03T11:12:01Z</time>
      </trkpt>
      <trkpt lat="47.31926" lon="1.1059">
        <ele>78.8</ele>
        <time>2020-07-03T11:12:02Z</time>
      </trkpt>
      <trkpt lat="47.31923" lon="1.10588">
        <ele>78.8</ele>
        <time>2020-07-03T11:12:03Z</time>
      </trkpt>
      <trkpt lat="47.31919" lon="1.10585">
        <ele>78.9</ele>
        <time>2020-07-03T11:12:04Z</time>
      </trkpt>
      <trkpt lat="47.31916" lon="1.10582">
        <ele>79</ele>
        <time>2020-07-03T11:12:05Z</time>
      </trkpt>
      <trkpt lat="47.31913" lon="1.10579">
        <ele>79</ele>
        <time>2020-07-03T11:12:06Z</time>
      </trkpt>
      <trkpt lat="47.3191" lon="1.10575">
        <ele>79.1</ele>
        <time>2020-07-03T11:12:07Z</time>
      </trkpt>
      <trkpt lat="47.31906" lon="1.10572">
        <ele>79.1</ele>
        <time>2020-07-03T11:12:08Z</time>
      </trkpt>
      <trkpt lat="47.31903" lon="1.10568">
        <ele>79.2</ele>
        <time>2020-07-03T11:12:09Z</time>
      </trkpt>
      <trkpt lat="47.319" lon="1.10563">
        <ele>79.2</ele>
        <time>2020-07-03T11:12:10Z</time>
      </trkpt>
      <trkpt lat="47.31896" lon="1.10558">
        <ele>79.3</ele>
        <time>2020-07-03T11:12:11Z</time>
      </trkpt>
      <trkpt lat="47.31892" lon="1.10552">
        <ele>79.4</ele>
        <time>2020-07-03T11:12:12Z</time>
      </trkpt>
      <trkpt lat="47.31888" lon="1.10547">
        <ele>79.5</ele>
        <time>2020-07-03T11:12:13Z</time>
      </trkpt>
      <trkpt lat="47.31884" lon="1.10541">
        <ele>79.5</ele>
        <time>2020-07-03T11:12:14Z</time>
      </trkpt>
      <trkpt lat="47.31881" lon="1.10537">
        <ele>79.6</ele>
        <time>2020-07-03T11:12:15Z</time>
      </trkpt>
      <trkpt lat="47.31877" lon="1.10531">
        <ele>79.7</ele>
        <time>2020-07-03T11:12:16Z</time>
      </trkpt>
      <trkpt lat="47.31873" lon="1.10526">
        <ele>79.8</ele>
        <time>2020-07-03T11:12:17Z</time>
      </trkpt>
      <trkpt lat="47.3187" lon="1.1052">
        <ele>79.8</ele>
        <time>2020-07-03T11:12:18Z</time>
      </trkpt>
      <trkpt lat="47.31868" lon="1.10514">
        <ele>79.9</ele>
        <time>2020-07-03T11:12:19Z</time>
      </trkpt>
      <trkpt lat="47.31865" lon="1.10509">
        <ele>79.9</ele>
        <time>2020-07-03T11:12:20Z</time>
      </trkpt>
      <trkpt lat="47.31862" lon="1.10503">
        <ele>79.9</ele>
        <time>2020-07-03T11:12:21Z</time>
      </trkpt>
      <trkpt lat="47.31861" lon="1.10497">
        <ele>80</ele>
        <time>2020-07-03T11:12:22Z</time>
      </trkpt>
      <trkpt lat="47.31859" lon="1.10491">
        <ele>80</ele>
        <time>2020-07-03T11:12:23Z</time>
      </trkpt>
      <trkpt lat="47.31856" lon="1.10485">
        <ele>80</ele>
        <time>2020-07-03T11:12:24Z</time>
      </trkpt>
      <trkpt lat="47.31854" lon="1.10478">
        <ele>80</ele>
        <time>2020-07-03T11:12:25Z</time>
      </trkpt>
      <trkpt lat="47.31852" lon="1.10473">
        <ele>80.1</ele>
        <time>2020-07-03T11:12:26Z</time>
      </trkpt>
      <trkpt lat="47.3185" lon="1.10467">
        <ele>80.1</ele>
        <time>2020-07-03T11:12:27Z</time>
      </trkpt>
      <trkpt lat="47.31848" lon="1.10462">
        <ele>80.1</ele>
        <time>2020-07-03T11:12:28Z</time>
      </trkpt>
      <trkpt lat="47.31847" lon="1.10455">
        <ele>80.1</ele>
        <time>2020-07-03T11:12:29Z</time>
      </trkpt>
      <trkpt lat="47.31846" lon="1.10449">
        <ele>80.1</ele>
        <time>2020-07-03T11:12:30Z</time>
      </trkpt>
      <trkpt lat="47.31845" lon="1.10443">
        <ele>80.1</ele>
        <time>2020-07-03T11:12:31Z</time>
      </trkpt>
      <trkpt lat="47.31843" lon="1.10436">
        <ele>80.2</ele>
        <time>2020-07-03T11:12:32Z</time>
      </trkpt>
      <trkpt lat="47.31841" lon="1.1043">
        <ele>80.2</ele>
        <time>2020-07-03T11:12:33Z</time>
      </trkpt>
      <trkpt lat="47.31838" lon="1.10424">
        <ele>80.3</ele>
        <time>2020-07-03T11:12:34Z</time>
      </trkpt>
      <trkpt lat="47.31837" lon="1.10418">
        <ele>80.3</ele>
        <time>2020-07-03T11:12:35Z</time>
      </trkpt>
      <trkpt lat="47.31835" lon="1.10411">
        <ele>80.3</ele>
        <time>2020-07-03T11:12:36Z</time>
      </trkpt>
      <trkpt lat="47.31834" lon="1.10404">
        <ele>80.4</ele>
        <time>2020-07-03T11:12:37Z</time>
      </trkpt>
      <trkpt lat="47.31832" lon="1.10397">
        <ele>80.4</ele>
        <time>2020-07-03T11:12:38Z</time>
      </trkpt>
      <trkpt lat="47.3183" lon="1.1039">
        <ele>80.4</ele>
        <time>2020-07-03T11:12:39Z</time>
      </trkpt>
      <trkpt lat="47.31827" lon="1.10384">
        <ele>80.5</ele>
        <time>2020-07-03T11:12:40Z</time>
      </trkpt>
      <trkpt lat="47.31824" lon="1.10378">
        <ele>80.5</ele>
        <time>2020-07-03T11:12:41Z</time>
      </trkpt>
      <trkpt lat="47.31821" lon="1.10371">
        <ele>80.5</ele>
        <time>2020-07-03T11:12:42Z</time>
      </trkpt>
      <trkpt lat="47.31819" lon="1.10364">
        <ele>80.5</ele>
        <time>2020-07-03T11:12:43Z</time>
      </trkpt>
      <trkpt lat="47.31817" lon="1.10357">
        <ele>80.6</ele>
        <time>2020-07-03T11:12:44Z</time>
      </trkpt>
      <trkpt lat="47.31815" lon="1.10351">
        <ele>80.7</ele>
        <time>2020-07-03T11:12:45Z</time>
      </trkpt>
      <trkpt lat="47.31814" lon="1.10343">
        <ele>80.7</ele>
        <time>2020-07-03T11:12:46Z</time>
      </trkpt>
      <trkpt lat="47.31813" lon="1.10336">
        <ele>80.8</ele>
        <time>2020-07-03T11:12:47Z</time>
      </trkpt>
      <trkpt lat="47.31811" lon="1.1033">
        <ele>80.9</ele>
        <time>2020-07-03T11:12:48Z</time>
      </trkpt>
      <trkpt lat="47.31809" lon="1.10325">
        <ele>80.9</ele>
        <time>2020-07-03T11:12:49Z</time>
      </trkpt>
      <trkpt lat="47.31807" lon="1.10319">
        <ele>80.9</ele>
        <time>2020-07-03T11:12:50Z</time>
      </trkpt>
      <trkpt lat="47.31805" lon="1.10313">
        <ele>81</ele>
        <time>2020-07-03T11:12:51Z</time>
      </trkpt>
      <trkpt lat="47.31804" lon="1.10307">
        <ele>81</ele>
        <time>2020-07-03T11:12:52Z</time>
      </trkpt>
      <trkpt lat="47.31803" lon="1.10301">
        <ele>81.1</ele>
        <time>2020-07-03T11:12:53Z</time>
      </trkpt>
      <trkpt lat="47.31801" lon="1.10295">
        <ele>81.2</ele>
        <time>2020-07-03T11:12:54Z</time>
      </trkpt>
      <trkpt lat="47.318" lon="1.1029">
        <ele>81.2</ele>
        <time>2020-07-03T11:12:55Z</time>
      </trkpt>
      <trkpt lat="47.31799" lon="1.10284">
        <ele>81.2</ele>
        <time>2020-07-03T11:12:56Z</time>
      </trkpt>
      <trkpt lat="47.31797" lon="1.10278">
        <ele>81.3</ele>
        <time>2020-07-03T11:12:57Z</time>
      </trkpt>
      <trkpt lat="47.31794" lon="1.10272">
        <ele>81.3</ele>
        <time>2020-07-03T11:12:58Z</time>
      </trkpt>
      <trkpt lat="47.31792" lon="1.10265">
        <ele>81.3</ele>
        <time>2020-07-03T11:12:59Z</time>
      </trkpt>
      <trkpt lat="47.31789" lon="1.1026">
        <ele>81.3</ele>
        <time>2020-07-03T11:13:00Z</time>
      </trkpt>
      <trkpt lat="47.31787" lon="1.10254">
        <ele>81.3</ele>
        <time>2020-07-03T11:13:01Z</time>
      </trkpt>
      <trkpt lat="47.31785" lon="1.10248">
        <ele>81.4</ele>
        <time>2020-07-03T11:13:02Z</time>
      </trkpt>
      <trkpt lat="47.31782" lon="1.10243">
        <ele>81.4</ele>
        <time>2020-07-03T11:13:03Z</time>
      </trkpt>
      <trkpt lat="47.31779" lon="1.10238">
        <ele>81.5</ele>
        <time>2020-07-03T11:13:04Z</time>
      </trkpt>
      <trkpt lat="47.31776" lon="1.10233">
        <ele>81.5</ele>
        <time>2020-07-03T11:13:05Z</time>
      </trkpt>
      <trkpt lat="47.31773" lon="1.10227">
        <ele>81.6</ele>
        <time>2020-07-03T11:13:06Z</time>
      </trkpt>
      <trkpt lat="47.3177" lon="1.10222">
        <ele>81.6</ele>
        <time>2020-07-03T11:13:07Z</time>
      </trkpt>
      <trkpt lat="47.31767" lon="1.10219">
        <ele>81.7</ele>
        <time>2020-07-03T11:13:08Z</time>
      </trkpt>
      <trkpt lat="47.31764" lon="1.10215">
        <ele>81.8</ele>
        <time>2020-07-03T11:13:09Z</time>
      </trkpt>
      <trkpt lat="47.3176" lon="1.1021">
        <ele>81.9</ele>
        <time>2020-07-03T11:13:10Z</time>
      </trkpt>
      <trkpt lat="47.31756" lon="1.10206">
        <ele>81.9</ele>
        <time>2020-07-03T11:13:11Z</time>
      </trkpt>
      <trkpt lat="47.31753" lon="1.10202">
        <ele>82</ele>
        <time>2020-07-03T11:13:12Z</time>
      </trkpt>
      <trkpt lat="47.31749" lon="1.10199">
        <ele>82</ele>
        <time>2020-07-03T11:13:13Z</time>
      </trkpt>
      <trkpt lat="47.31745" lon="1.10196">
        <ele>82.1</ele>
        <time>2020-07-03T11:13:14Z</time>
      </trkpt>
      <trkpt lat="47.31742" lon="1.10191">
        <ele>82.2</ele>
        <time>2020-07-03T11:13:15Z</time>
      </trkpt>
      <trkpt lat="47.31738" lon="1.10186">
        <ele>82.3</ele>
        <time>2020-07-03T11:13:16Z</time>
      </trkpt>
      <trkpt lat="47.31735" lon="1.10182">
        <ele>82.4</ele>
        <time>2020-07-03T11:13:17Z</time>
      </trkpt>
      <trkpt lat="47.31731" lon="1.10178">
        <ele>82.5</ele>
        <time>2020-07-03T11:13:18Z</time>
      </trkpt>
      <trkpt lat="47.31728" lon="1.10175">
        <ele>82.5</ele>
        <time>2020-07-03T11:13:19Z</time>
      </trkpt>
      <trkpt lat="47.31724" lon="1.10171">
        <ele>82.6</ele>
        <time>2020-07-03T11:13:20Z</time>
      </trkpt>
      <trkpt lat="47.3172" lon="1.10167">
        <ele>82.7</ele>
        <time>2020-07-03T11:13:21Z</time>
      </trkpt>
      <trkpt lat="47.31717" lon="1.10164">
        <ele>82.8</ele>
        <time>2020-07-03T11:13:22Z</time>
      </trkpt>
      <trkpt lat="47.31714" lon="1.1016">
        <ele>82.9</ele>
        <time>2020-07-03T11:13:23Z</time>
      </trkpt>
      <trkpt lat="47.31711" lon="1.10158">
        <ele>83</ele>
        <time>2020-07-03T11:13:24Z</time>
      </trkpt>
      <trkpt lat="47.31709" lon="1.10155">
        <ele>83</ele>
        <time>2020-07-03T11:13:25Z</time>
      </trkpt>
      <trkpt lat="47.31706" lon="1.10153">
        <ele>83.1</ele>
        <time>2020-07-03T11:13:26Z</time>
      </trkpt>
      <trkpt lat="47.31705" lon="1.10148">
        <ele>83.1</ele>
        <time>2020-07-03T11:13:27Z</time>
      </trkpt>
      <trkpt lat="47.31704" lon="1.10144">
        <ele>83.2</ele>
        <time>2020-07-03T11:13:28Z</time>
      </trkpt>
      <trkpt lat="47.31704" lon="1.10143">
        <ele>83.2</ele>
        <time>2020-07-03T11:13:29Z</time>
      </trkpt>
      <trkpt lat="47.31702" lon="1.10142">
        <ele>83.2</ele>
        <time>2020-07-03T11:13:30Z</time>
      </trkpt>
      <trkpt lat="47.31701" lon="1.10142">
        <ele>83.3</ele>
        <time>2020-07-03T11:13:31Z</time>
      </trkpt>
      <trkpt lat="47.31697" lon="1.1014">
        <ele>83.3</ele>
        <time>2020-07-03T11:13:32Z</time>
      </trkpt>
      <trkpt lat="47.31696" lon="1.10139">
        <ele>83.3</ele>
        <time>2020-07-03T11:13:33Z</time>
      </trkpt>
      <trkpt lat="47.31694" lon="1.10138">
        <ele>83.4</ele>
        <time>2020-07-03T11:13:34Z</time>
      </trkpt>
      <trkpt lat="47.31693" lon="1.10137">
        <ele>83.4</ele>
        <time>2020-07-03T11:13:35Z</time>
      </trkpt>
      <trkpt lat="47.31691" lon="1.10133">
        <ele>83.5</ele>
        <time>2020-07-03T11:13:36Z</time>
      </trkpt>
      <trkpt lat="47.3169" lon="1.10131">
        <ele>83.5</ele>
        <time>2020-07-03T11:13:37Z</time>
      </trkpt>
      <trkpt lat="47.31688" lon="1.10128">
        <ele>83.6</ele>
        <time>2020-07-03T11:13:38Z</time>
      </trkpt>
      <trkpt lat="47.31684" lon="1.10124">
        <ele>83.7</ele>
        <time>2020-07-03T11:13:39Z</time>
      </trkpt>
      <trkpt lat="47.31681" lon="1.10121">
        <ele>83.7</ele>
        <time>2020-07-03T11:13:40Z</time>
      </trkpt>
      <trkpt lat="47.31677" lon="1.10116">
        <ele>83.8</ele>
        <time>2020-07-03T11:13:41Z</time>
      </trkpt>
      <trkpt lat="47.31673" lon="1.10111">
        <ele>83.9</ele>
        <time>2020-07-03T11:13:42Z</time>
      </trkpt>
      <trkpt lat="47.3167" lon="1.10106">
        <ele>83.9</ele>
        <time>2020-07-03T11:13:43Z</time>
      </trkpt>
      <trkpt lat="47.31667" lon="1.10101">
        <ele>84</ele>
        <time>2020-07-03T11:13:44Z</time>
      </trkpt>
      <trkpt lat="47.31665" lon="1.10099">
        <ele>84</ele>
        <time>2020-07-03T11:13:45Z</time>
      </trkpt>
      <trkpt lat="47.31662" lon="1.10095">
        <ele>84.1</ele>
        <time>2020-07-03T11:13:46Z</time>
      </trkpt>
      <trkpt lat="47.31659" lon="1.10092">
        <ele>84.1</ele>
        <time>2020-07-03T11:13:47Z</time>
      </trkpt>
      <trkpt lat="47.31655" lon="1.10088">
        <ele>84.2</ele>
        <time>2020-07-03T11:13:48Z</time>
      </trkpt>
      <trkpt lat="47.31651" lon="1.10085">
        <ele>84.3</ele>
        <time>2020-07-03T11:13:49Z</time>
      </trkpt>
      <trkpt lat="47.31648" lon="1.1008">
        <ele>84.3</ele>
        <time>2020-07-03T11:13:50Z</time>
      </trkpt>
      <trkpt lat="47.31644" lon="1.10075">
        <ele>84.4</ele>
        <time>2020-07-03T11:13:51Z</time>
      </trkpt>
      <trkpt lat="47.3164" lon="1.10071">
        <ele>84.5</ele>
        <time>2020-07-03T11:13:52Z</time>
      </trkpt>
      <trkpt lat="47.31636" lon="1.10065">
        <ele>84.6</ele>
        <time>2020-07-03T11:13:53Z</time>
      </trkpt>
      <trkpt lat="47.31633" lon="1.10059">
        <ele>84.7</ele>
        <time>2020-07-03T11:13:54Z</time>
      </trkpt>
      <trkpt lat="47.31629" lon="1.10055">
        <ele>84.8</ele>
        <time>2020-07-03T11:13:55Z</time>
      </trkpt>
      <trkpt lat="47.31625" lon="1.10052">
        <ele>84.9</ele>
        <time>2020-07-03T11:13:56Z</time>
      </trkpt>
      <trkpt lat="47.31621" lon="1.10047">
        <ele>85</ele>
        <time>2020-07-03T11:13:57Z</time>
      </trkpt>
      <trkpt lat="47.31618" lon="1.10042">
        <ele>85.1</ele>
        <time>2020-07-03T11:13:58Z</time>
      </trkpt>
      <trkpt lat="47.31614" lon="1.10037">
        <ele>85.3</ele>
        <time>2020-07-03T11:13:59Z</time>
      </trkpt>
      <trkpt lat="47.31611" lon="1.10031">
        <ele>85.4</ele>
        <time>2020-07-03T11:14:00Z</time>
      </trkpt>
      <trkpt lat="47.31608" lon="1.10025">
        <ele>85.5</ele>
        <time>2020-07-03T11:14:01Z</time>
      </trkpt>
      <trkpt lat="47.31605" lon="1.10019">
        <ele>85.6</ele>
        <time>2020-07-03T11:14:02Z</time>
      </trkpt>
      <trkpt lat="47.31602" lon="1.10012">
        <ele>85.7</ele>
        <time>2020-07-03T11:14:03Z</time>
      </trkpt>
      <trkpt lat="47.316" lon="1.10007">
        <ele>85.9</ele>
        <time>2020-07-03T11:14:04Z</time>
      </trkpt>
      <trkpt lat="47.31597" lon="1.10001">
        <ele>86</ele>
        <time>2020-07-03T11:14:05Z</time>
      </trkpt>
      <trkpt lat="47.31595" lon="1.09996">
        <ele>86.1</ele>
        <time>2020-07-03T11:14:06Z</time>
      </trkpt>
      <trkpt lat="47.31594" lon="1.09989">
        <ele>86.3</ele>
        <time>2020-07-03T11:14:07Z</time>
      </trkpt>
      <trkpt lat="47.31593" lon="1.09984">
        <ele>86.5</ele>
        <time>2020-07-03T11:14:08Z</time>
      </trkpt>
      <trkpt lat="47.31592" lon="1.09978">
        <ele>86.5</ele>
        <time>2020-07-03T11:14:09Z</time>
      </trkpt>
      <trkpt lat="47.31591" lon="1.09972">
        <ele>86.6</ele>
        <time>2020-07-03T11:14:10Z</time>
      </trkpt>
      <trkpt lat="47.31589" lon="1.09965">
        <ele>86.6</ele>
        <time>2020-07-03T11:14:11Z</time>
      </trkpt>
      <trkpt lat="47.31588" lon="1.09959">
        <ele>86.7</ele>
        <time>2020-07-03T11:14:12Z</time>
      </trkpt>
      <trkpt lat="47.31587" lon="1.09953">
        <ele>86.7</ele>
        <time>2020-07-03T11:14:13Z</time>
      </trkpt>
      <trkpt lat="47.31586" lon="1.09946">
        <ele>86.8</ele>
        <time>2020-07-03T11:14:14Z</time>
      </trkpt>
      <trkpt lat="47.31585" lon="1.0994">
        <ele>86.8</ele>
        <time>2020-07-03T11:14:15Z</time>
      </trkpt>
      <trkpt lat="47.31584" lon="1.09936">
        <ele>86.8</ele>
        <time>2020-07-03T11:14:16Z</time>
      </trkpt>
      <trkpt lat="47.31583" lon="1.09931">
        <ele>86.9</ele>
        <time>2020-07-03T11:14:17Z</time>
      </trkpt>
      <trkpt lat="47.31582" lon="1.09926">
        <ele>86.9</ele>
        <time>2020-07-03T11:14:18Z</time>
      </trkpt>
      <trkpt lat="47.31581" lon="1.09921">
        <ele>87</ele>
        <time>2020-07-03T11:14:19Z</time>
      </trkpt>
      <trkpt lat="47.3158" lon="1.09915">
        <ele>87</ele>
        <time>2020-07-03T11:14:20Z</time>
      </trkpt>
      <trkpt lat="47.31578" lon="1.0991">
        <ele>87</ele>
        <time>2020-07-03T11:14:21Z</time>
      </trkpt>
      <trkpt lat="47.31578" lon="1.09905">
        <ele>87</ele>
        <time>2020-07-03T11:14:22Z</time>
      </trkpt>
      <trkpt lat="47.31578" lon="1.09899">
        <ele>87</ele>
        <time>2020-07-03T11:14:23Z</time>
      </trkpt>
      <trkpt lat="47.31577" lon="1.09892">
        <ele>87.1</ele>
        <time>2020-07-03T11:14:24Z</time>
      </trkpt>
      <trkpt lat="47.31577" lon="1.09889">
        <ele>87.1</ele>
        <time>2020-07-03T11:14:25Z</time>
      </trkpt>
      <trkpt lat="47.31575" lon="1.09885">
        <ele>87.1</ele>
        <time>2020-07-03T11:14:26Z</time>
      </trkpt>
      <trkpt lat="47.31573" lon="1.09878">
        <ele>87.1</ele>
        <time>2020-07-03T11:14:27Z</time>
      </trkpt>
      <trkpt lat="47.31572" lon="1.0987">
        <ele>87.1</ele>
        <time>2020-07-03T11:14:28Z</time>
      </trkpt>
      <trkpt lat="47.31571" lon="1.09862">
        <ele>87.1</ele>
        <time>2020-07-03T11:14:29Z</time>
      </trkpt>
      <trkpt lat="47.3157" lon="1.09854">
        <ele>87.1</ele>
        <time>2020-07-03T11:14:30Z</time>
      </trkpt>
      <trkpt lat="47.31569" lon="1.09847">
        <ele>87.1</ele>
        <time>2020-07-03T11:14:31Z</time>
      </trkpt>
      <trkpt lat="47.31567" lon="1.0984">
        <ele>87.1</ele>
        <time>2020-07-03T11:14:32Z</time>
      </trkpt>
      <trkpt lat="47.31566" lon="1.09832">
        <ele>87.1</ele>
        <time>2020-07-03T11:14:33Z</time>
      </trkpt>
      <trkpt lat="47.31565" lon="1.09823">
        <ele>87.1</ele>
        <time>2020-07-03T11:14:34Z</time>
      </trkpt>
      <trkpt lat="47.31564" lon="1.09814">
        <ele>87.1</ele>
        <time>2020-07-03T11:14:35Z</time>
      </trkpt>
      <trkpt lat="47.31562" lon="1.09806">
        <ele>87.1</ele>
        <time>2020-07-03T11:14:36Z</time>
      </trkpt>
      <trkpt lat="47.31561" lon="1.09799">
        <ele>87</ele>
        <time>2020-07-03T11:14:37Z</time>
      </trkpt>
      <trkpt lat="47.3156" lon="1.09792">
        <ele>86.9</ele>
        <time>2020-07-03T11:14:38Z</time>
      </trkpt>
      <trkpt lat="47.31559" lon="1.09783">
        <ele>86.9</ele>
        <time>2020-07-03T11:14:39Z</time>
      </trkpt>
      <trkpt lat="47.31557" lon="1.09776">
        <ele>86.8</ele>
        <time>2020-07-03T11:14:40Z</time>
      </trkpt>
      <trkpt lat="47.31556" lon="1.09768">
        <ele>86.7</ele>
        <time>2020-07-03T11:14:41Z</time>
      </trkpt>
      <trkpt lat="47.31555" lon="1.0976">
        <ele>86.7</ele>
        <time>2020-07-03T11:14:42Z</time>
      </trkpt>
      <trkpt lat="47.31553" lon="1.09753">
        <ele>86.7</ele>
        <time>2020-07-03T11:14:43Z</time>
      </trkpt>
      <trkpt lat="47.31552" lon="1.09745">
        <ele>86.6</ele>
        <time>2020-07-03T11:14:44Z</time>
      </trkpt>
      <trkpt lat="47.3155" lon="1.09737">
        <ele>86.6</ele>
        <time>2020-07-03T11:14:45Z</time>
      </trkpt>
      <trkpt lat="47.31548" lon="1.09729">
        <ele>86.5</ele>
        <time>2020-07-03T11:14:46Z</time>
      </trkpt>
      <trkpt lat="47.31547" lon="1.09721">
        <ele>86.5</ele>
        <time>2020-07-03T11:14:47Z</time>
      </trkpt>
      <trkpt lat="47.31547" lon="1.09714">
        <ele>86.4</ele>
        <time>2020-07-03T11:14:48Z</time>
      </trkpt>
      <trkpt lat="47.31546" lon="1.09707">
        <ele>86.4</ele>
        <time>2020-07-03T11:14:49Z</time>
      </trkpt>
      <trkpt lat="47.31545" lon="1.09701">
        <ele>86.4</ele>
        <time>2020-07-03T11:14:50Z</time>
      </trkpt>
      <trkpt lat="47.31543" lon="1.09694">
        <ele>86.3</ele>
        <time>2020-07-03T11:14:51Z</time>
      </trkpt>
      <trkpt lat="47.31542" lon="1.09687">
        <ele>86.2</ele>
        <time>2020-07-03T11:14:52Z</time>
      </trkpt>
      <trkpt lat="47.31542" lon="1.0968">
        <ele>86.2</ele>
        <time>2020-07-03T11:14:53Z</time>
      </trkpt>
      <trkpt lat="47.31542" lon="1.09673">
        <ele>86.1</ele>
        <time>2020-07-03T11:14:54Z</time>
      </trkpt>
      <trkpt lat="47.31541" lon="1.09666">
        <ele>86.1</ele>
        <time>2020-07-03T11:14:55Z</time>
      </trkpt>
      <trkpt lat="47.31541" lon="1.09658">
        <ele>86.1</ele>
        <time>2020-07-03T11:14:56Z</time>
      </trkpt>
      <trkpt lat="47.31541" lon="1.0965">
        <ele>86.1</ele>
        <time>2020-07-03T11:14:57Z</time>
      </trkpt>
      <trkpt lat="47.3154" lon="1.09643">
        <ele>86.1</ele>
        <time>2020-07-03T11:14:58Z</time>
      </trkpt>
      <trkpt lat="47.31538" lon="1.09637">
        <ele>86.1</ele>
        <time>2020-07-03T11:14:59Z</time>
      </trkpt>
      <trkpt lat="47.31537" lon="1.09631">
        <ele>86.1</ele>
        <time>2020-07-03T11:15:00Z</time>
      </trkpt>
      <trkpt lat="47.31537" lon="1.09624">
        <ele>86.2</ele>
        <time>2020-07-03T11:15:01Z</time>
      </trkpt>
      <trkpt lat="47.31536" lon="1.09617">
        <ele>86.2</ele>
        <time>2020-07-03T11:15:02Z</time>
      </trkpt>
      <trkpt lat="47.31535" lon="1.0961">
        <ele>86.2</ele>
        <time>2020-07-03T11:15:03Z</time>
      </trkpt>
      <trkpt lat="47.31534" lon="1.09604">
        <ele>86.2</ele>
        <time>2020-07-03T11:15:04Z</time>
      </trkpt>
      <trkpt lat="47.31533" lon="1.09597">
        <ele>86.3</ele>
        <time>2020-07-03T11:15:05Z</time>
      </trkpt>
      <trkpt lat="47.31531" lon="1.09591">
        <ele>86.4</ele>
        <time>2020-07-03T11:15:06Z</time>
      </trkpt>
      <trkpt lat="47.3153" lon="1.09584">
        <ele>86.5</ele>
        <time>2020-07-03T11:15:07Z</time>
      </trkpt>
      <trkpt lat="47.31528" lon="1.09579">
        <ele>86.6</ele>
        <time>2020-07-03T11:15:08Z</time>
      </trkpt>
      <trkpt lat="47.31527" lon="1.09574">
        <ele>86.7</ele>
        <time>2020-07-03T11:15:09Z</time>
      </trkpt>
      <trkpt lat="47.31526" lon="1.09567">
        <ele>86.8</ele>
        <time>2020-07-03T11:15:10Z</time>
      </trkpt>
      <trkpt lat="47.31525" lon="1.09561">
        <ele>86.9</ele>
        <time>2020-07-03T11:15:11Z</time>
      </trkpt>
      <trkpt lat="47.31523" lon="1.09555">
        <ele>87</ele>
        <time>2020-07-03T11:15:12Z</time>
      </trkpt>
      <trkpt lat="47.31522" lon="1.09549">
        <ele>87.2</ele>
        <time>2020-07-03T11:15:13Z</time>
      </trkpt>
      <trkpt lat="47.3152" lon="1.09543">
        <ele>87.3</ele>
        <time>2020-07-03T11:15:14Z</time>
      </trkpt>
      <trkpt lat="47.31517" lon="1.09539">
        <ele>87.5</ele>
        <time>2020-07-03T11:15:15Z</time>
      </trkpt>
      <trkpt lat="47.31516" lon="1.09533">
        <ele>87.6</ele>
        <time>2020-07-03T11:15:16Z</time>
      </trkpt>
      <trkpt lat="47.31514" lon="1.09528">
        <ele>87.7</ele>
        <time>2020-07-03T11:15:17Z</time>
      </trkpt>
      <trkpt lat="47.31513" lon="1.09522">
        <ele>87.9</ele>
        <time>2020-07-03T11:15:18Z</time>
      </trkpt>
      <trkpt lat="47.31511" lon="1.09516">
        <ele>88</ele>
        <time>2020-07-03T11:15:19Z</time>
      </trkpt>
      <trkpt lat="47.31509" lon="1.09512">
        <ele>88.1</ele>
        <time>2020-07-03T11:15:20Z</time>
      </trkpt>
      <trkpt lat="47.31508" lon="1.09507">
        <ele>88.3</ele>
        <time>2020-07-03T11:15:21Z</time>
      </trkpt>
      <trkpt lat="47.31506" lon="1.09501">
        <ele>88.4</ele>
        <time>2020-07-03T11:15:22Z</time>
      </trkpt>
      <trkpt lat="47.31505" lon="1.09494">
        <ele>88.6</ele>
        <time>2020-07-03T11:15:23Z</time>
      </trkpt>
      <trkpt lat="47.31503" lon="1.09487">
        <ele>88.7</ele>
        <time>2020-07-03T11:15:24Z</time>
      </trkpt>
      <trkpt lat="47.31502" lon="1.0948">
        <ele>88.9</ele>
        <time>2020-07-03T11:15:25Z</time>
      </trkpt>
      <trkpt lat="47.31501" lon="1.09474">
        <ele>89</ele>
        <time>2020-07-03T11:15:26Z</time>
      </trkpt>
      <trkpt lat="47.31499" lon="1.09469">
        <ele>89.1</ele>
        <time>2020-07-03T11:15:27Z</time>
      </trkpt>
      <trkpt lat="47.31498" lon="1.09462">
        <ele>89.2</ele>
        <time>2020-07-03T11:15:28Z</time>
      </trkpt>
      <trkpt lat="47.31497" lon="1.09456">
        <ele>89.3</ele>
        <time>2020-07-03T11:15:29Z</time>
      </trkpt>
      <trkpt lat="47.31496" lon="1.0945">
        <ele>89.4</ele>
        <time>2020-07-03T11:15:30Z</time>
      </trkpt>
      <trkpt lat="47.31495" lon="1.09444">
        <ele>89.6</ele>
        <time>2020-07-03T11:15:31Z</time>
      </trkpt>
      <trkpt lat="47.31494" lon="1.09437">
        <ele>89.6</ele>
        <time>2020-07-03T11:15:32Z</time>
      </trkpt>
      <trkpt lat="47.31495" lon="1.09432">
        <ele>89.7</ele>
        <time>2020-07-03T11:15:33Z</time>
      </trkpt>
      <trkpt lat="47.31494" lon="1.09425">
        <ele>89.8</ele>
        <time>2020-07-03T11:15:34Z</time>
      </trkpt>
      <trkpt lat="47.31494" lon="1.09419">
        <ele>89.8</ele>
        <time>2020-07-03T11:15:35Z</time>
      </trkpt>
      <trkpt lat="47.31494" lon="1.09412">
        <ele>89.9</ele>
        <time>2020-07-03T11:15:36Z</time>
      </trkpt>
      <trkpt lat="47.31494" lon="1.09406">
        <ele>89.9</ele>
        <time>2020-07-03T11:15:37Z</time>
      </trkpt>
      <trkpt lat="47.31494" lon="1.09399">
        <ele>90</ele>
        <time>2020-07-03T11:15:38Z</time>
      </trkpt>
      <trkpt lat="47.31494" lon="1.09392">
        <ele>90</ele>
        <time>2020-07-03T11:15:39Z</time>
      </trkpt>
      <trkpt lat="47.31493" lon="1.09385">
        <ele>90</ele>
        <time>2020-07-03T11:15:40Z</time>
      </trkpt>
      <trkpt lat="47.31493" lon="1.09379">
        <ele>90.1</ele>
        <time>2020-07-03T11:15:41Z</time>
      </trkpt>
      <trkpt lat="47.31493" lon="1.09373">
        <ele>90.1</ele>
        <time>2020-07-03T11:15:42Z</time>
      </trkpt>
      <trkpt lat="47.31493" lon="1.09364">
        <ele>90.2</ele>
        <time>2020-07-03T11:15:43Z</time>
      </trkpt>
      <trkpt lat="47.31493" lon="1.09357">
        <ele>90.2</ele>
        <time>2020-07-03T11:15:44Z</time>
      </trkpt>
      <trkpt lat="47.31492" lon="1.09349">
        <ele>90.2</ele>
        <time>2020-07-03T11:15:45Z</time>
      </trkpt>
      <trkpt lat="47.31491" lon="1.09342">
        <ele>90.3</ele>
        <time>2020-07-03T11:15:46Z</time>
      </trkpt>
      <trkpt lat="47.31491" lon="1.09335">
        <ele>90.3</ele>
        <time>2020-07-03T11:15:47Z</time>
      </trkpt>
      <trkpt lat="47.3149" lon="1.09327">
        <ele>90.4</ele>
        <time>2020-07-03T11:15:48Z</time>
      </trkpt>
      <trkpt lat="47.31489" lon="1.0932">
        <ele>90.4</ele>
        <time>2020-07-03T11:15:49Z</time>
      </trkpt>
      <trkpt lat="47.31489" lon="1.09312">
        <ele>90.5</ele>
        <time>2020-07-03T11:15:50Z</time>
      </trkpt>
      <trkpt lat="47.31489" lon="1.09304">
        <ele>90.6</ele>
        <time>2020-07-03T11:15:51Z</time>
      </trkpt>
      <trkpt lat="47.31488" lon="1.09296">
        <ele>90.6</ele>
        <time>2020-07-03T11:15:52Z</time>
      </trkpt>
      <trkpt lat="47.31488" lon="1.0929">
        <ele>90.7</ele>
        <time>2020-07-03T11:15:53Z</time>
      </trkpt>
      <trkpt lat="47.31488" lon="1.09282">
        <ele>90.7</ele>
        <time>2020-07-03T11:15:54Z</time>
      </trkpt>
      <trkpt lat="47.31487" lon="1.09276">
        <ele>90.7</ele>
        <time>2020-07-03T11:15:55Z</time>
      </trkpt>
      <trkpt lat="47.31487" lon="1.09269">
        <ele>90.7</ele>
        <time>2020-07-03T11:15:56Z</time>
      </trkpt>
      <trkpt lat="47.31486" lon="1.09262">
        <ele>90.7</ele>
        <time>2020-07-03T11:15:57Z</time>
      </trkpt>
      <trkpt lat="47.31486" lon="1.09254">
        <ele>90.7</ele>
        <time>2020-07-03T11:15:58Z</time>
      </trkpt>
      <trkpt lat="47.31485" lon="1.09247">
        <ele>90.7</ele>
        <time>2020-07-03T11:15:59Z</time>
      </trkpt>
      <trkpt lat="47.31485" lon="1.0924">
        <ele>90.7</ele>
        <time>2020-07-03T11:16:00Z</time>
      </trkpt>
      <trkpt lat="47.31484" lon="1.09233">
        <ele>90.7</ele>
        <time>2020-07-03T11:16:01Z</time>
      </trkpt>
      <trkpt lat="47.31484" lon="1.09225">
        <ele>90.8</ele>
        <time>2020-07-03T11:16:02Z</time>
      </trkpt>
      <trkpt lat="47.31483" lon="1.09217">
        <ele>90.8</ele>
        <time>2020-07-03T11:16:03Z</time>
      </trkpt>
      <trkpt lat="47.31483" lon="1.0921">
        <ele>90.8</ele>
        <time>2020-07-03T11:16:04Z</time>
      </trkpt>
      <trkpt lat="47.31483" lon="1.09202">
        <ele>90.9</ele>
        <time>2020-07-03T11:16:05Z</time>
      </trkpt>
      <trkpt lat="47.31482" lon="1.09195">
        <ele>90.9</ele>
        <time>2020-07-03T11:16:06Z</time>
      </trkpt>
      <trkpt lat="47.31482" lon="1.09188">
        <ele>90.9</ele>
        <time>2020-07-03T11:16:07Z</time>
      </trkpt>
      <trkpt lat="47.31482" lon="1.09181">
        <ele>90.9</ele>
        <time>2020-07-03T11:16:08Z</time>
      </trkpt>
      <trkpt lat="47.31482" lon="1.09172">
        <ele>90.9</ele>
        <time>2020-07-03T11:16:09Z</time>
      </trkpt>
      <trkpt lat="47.31483" lon="1.09164">
        <ele>91</ele>
        <time>2020-07-03T11:16:10Z</time>
      </trkpt>
      <trkpt lat="47.31483" lon="1.09157">
        <ele>91</ele>
        <time>2020-07-03T11:16:11Z</time>
      </trkpt>
      <trkpt lat="47.31482" lon="1.0915">
        <ele>91</ele>
        <time>2020-07-03T11:16:12Z</time>
      </trkpt>
      <trkpt lat="47.31481" lon="1.09142">
        <ele>91</ele>
        <time>2020-07-03T11:16:13Z</time>
      </trkpt>
      <trkpt lat="47.3148" lon="1.09134">
        <ele>91</ele>
        <time>2020-07-03T11:16:14Z</time>
      </trkpt>
      <trkpt lat="47.31479" lon="1.09126">
        <ele>91</ele>
        <time>2020-07-03T11:16:15Z</time>
      </trkpt>
      <trkpt lat="47.31479" lon="1.09118">
        <ele>91</ele>
        <time>2020-07-03T11:16:16Z</time>
      </trkpt>
      <trkpt lat="47.3148" lon="1.0911">
        <ele>91</ele>
        <time>2020-07-03T11:16:17Z</time>
      </trkpt>
      <trkpt lat="47.3148" lon="1.09103">
        <ele>91</ele>
        <time>2020-07-03T11:16:18Z</time>
      </trkpt>
      <trkpt lat="47.3148" lon="1.09095">
        <ele>91</ele>
        <time>2020-07-03T11:16:19Z</time>
      </trkpt>
      <trkpt lat="47.3148" lon="1.09086">
        <ele>90.9</ele>
        <time>2020-07-03T11:16:20Z</time>
      </trkpt>
      <trkpt lat="47.3148" lon="1.09078">
        <ele>90.9</ele>
        <time>2020-07-03T11:16:21Z</time>
      </trkpt>
      <trkpt lat="47.31481" lon="1.09071">
        <ele>90.9</ele>
        <time>2020-07-03T11:16:22Z</time>
      </trkpt>
      <trkpt lat="47.31482" lon="1.09062">
        <ele>90.8</ele>
        <time>2020-07-03T11:16:23Z</time>
      </trkpt>
      <trkpt lat="47.31483" lon="1.09055">
        <ele>90.8</ele>
        <time>2020-07-03T11:16:24Z</time>
      </trkpt>
      <trkpt lat="47.31484" lon="1.09046">
        <ele>90.7</ele>
        <time>2020-07-03T11:16:25Z</time>
      </trkpt>
      <trkpt lat="47.31484" lon="1.09039">
        <ele>90.7</ele>
        <time>2020-07-03T11:16:26Z</time>
      </trkpt>
      <trkpt lat="47.31485" lon="1.0903">
        <ele>90.6</ele>
        <time>2020-07-03T11:16:27Z</time>
      </trkpt>
      <trkpt lat="47.31485" lon="1.09022">
        <ele>90.6</ele>
        <time>2020-07-03T11:16:28Z</time>
      </trkpt>
      <trkpt lat="47.31485" lon="1.09013">
        <ele>90.6</ele>
        <time>2020-07-03T11:16:29Z</time>
      </trkpt>
      <trkpt lat="47.31485" lon="1.09005">
        <ele>90.5</ele>
        <time>2020-07-03T11:16:30Z</time>
      </trkpt>
      <trkpt lat="47.31485" lon="1.08997">
        <ele>90.5</ele>
        <time>2020-07-03T11:16:31Z</time>
      </trkpt>
      <trkpt lat="47.31487" lon="1.08988">
        <ele>90.5</ele>
        <time>2020-07-03T11:16:32Z</time>
      </trkpt>
      <trkpt lat="47.31488" lon="1.0898">
        <ele>90.4</ele>
        <time>2020-07-03T11:16:33Z</time>
      </trkpt>
      <trkpt lat="47.31488" lon="1.08972">
        <ele>90.3</ele>
        <time>2020-07-03T11:16:34Z</time>
      </trkpt>
      <trkpt lat="47.31488" lon="1.08964">
        <ele>90.3</ele>
        <time>2020-07-03T11:16:35Z</time>
      </trkpt>
      <trkpt lat="47.31488" lon="1.08957">
        <ele>90.2</ele>
        <time>2020-07-03T11:16:36Z</time>
      </trkpt>
      <trkpt lat="47.31488" lon="1.08948">
        <ele>90.1</ele>
        <time>2020-07-03T11:16:37Z</time>
      </trkpt>
      <trkpt lat="47.31487" lon="1.08939">
        <ele>90</ele>
        <time>2020-07-03T11:16:38Z</time>
      </trkpt>
      <trkpt lat="47.31486" lon="1.08931">
        <ele>89.9</ele>
        <time>2020-07-03T11:16:39Z</time>
      </trkpt>
      <trkpt lat="47.31487" lon="1.08922">
        <ele>89.9</ele>
        <time>2020-07-03T11:16:40Z</time>
      </trkpt>
      <trkpt lat="47.31486" lon="1.08912">
        <ele>89.8</ele>
        <time>2020-07-03T11:16:41Z</time>
      </trkpt>
      <trkpt lat="47.31485" lon="1.08903">
        <ele>89.7</ele>
        <time>2020-07-03T11:16:42Z</time>
      </trkpt>
      <trkpt lat="47.31485" lon="1.08894">
        <ele>89.6</ele>
        <time>2020-07-03T11:16:43Z</time>
      </trkpt>
      <trkpt lat="47.31484" lon="1.08886">
        <ele>89.6</ele>
        <time>2020-07-03T11:16:44Z</time>
      </trkpt>
      <trkpt lat="47.31483" lon="1.08879">
        <ele>89.5</ele>
        <time>2020-07-03T11:16:45Z</time>
      </trkpt>
      <trkpt lat="47.31482" lon="1.08871">
        <ele>89.5</ele>
        <time>2020-07-03T11:16:46Z</time>
      </trkpt>
      <trkpt lat="47.31481" lon="1.08863">
        <ele>89.4</ele>
        <time>2020-07-03T11:16:47Z</time>
      </trkpt>
      <trkpt lat="47.31479" lon="1.08855">
        <ele>89.3</ele>
        <time>2020-07-03T11:16:48Z</time>
      </trkpt>
      <trkpt lat="47.31478" lon="1.08848">
        <ele>89.3</ele>
        <time>2020-07-03T11:16:49Z</time>
      </trkpt>
      <trkpt lat="47.31477" lon="1.08841">
        <ele>89.2</ele>
        <time>2020-07-03T11:16:50Z</time>
      </trkpt>
      <trkpt lat="47.31476" lon="1.08833">
        <ele>89.2</ele>
        <time>2020-07-03T11:16:51Z</time>
      </trkpt>
      <trkpt lat="47.31474" lon="1.08825">
        <ele>89.2</ele>
        <time>2020-07-03T11:16:52Z</time>
      </trkpt>
      <trkpt lat="47.31474" lon="1.08817">
        <ele>89.2</ele>
        <time>2020-07-03T11:16:53Z</time>
      </trkpt>
      <trkpt lat="47.31473" lon="1.08813">
        <ele>89.2</ele>
        <time>2020-07-03T11:16:54Z</time>
      </trkpt>
      <trkpt lat="47.31473" lon="1.08808">
        <ele>89.2</ele>
        <time>2020-07-03T11:16:55Z</time>
      </trkpt>
      <trkpt lat="47.31473" lon="1.08807">
        <ele>89.2</ele>
        <time>2020-07-03T11:16:56Z</time>
      </trkpt>
      <trkpt lat="47.31473" lon="1.08804">
        <ele>89.2</ele>
        <time>2020-07-03T11:16:57Z</time>
      </trkpt>
      <trkpt lat="47.31473" lon="1.08802">
        <ele>89.2</ele>
        <time>2020-07-03T11:16:58Z</time>
      </trkpt>
      <trkpt lat="47.31475" lon="1.08797">
        <ele>89.2</ele>
        <time>2020-07-03T11:16:59Z</time>
      </trkpt>
      <trkpt lat="47.31476" lon="1.0879">
        <ele>89.2</ele>
        <time>2020-07-03T11:17:00Z</time>
      </trkpt>
      <trkpt lat="47.31476" lon="1.08783">
        <ele>89.2</ele>
        <time>2020-07-03T11:17:01Z</time>
      </trkpt>
      <trkpt lat="47.31476" lon="1.08776">
        <ele>89.2</ele>
        <time>2020-07-03T11:17:02Z</time>
      </trkpt>
      <trkpt lat="47.31475" lon="1.08769">
        <ele>89.2</ele>
        <time>2020-07-03T11:17:03Z</time>
      </trkpt>
      <trkpt lat="47.31475" lon="1.08762">
        <ele>89.3</ele>
        <time>2020-07-03T11:17:04Z</time>
      </trkpt>
      <trkpt lat="47.31475" lon="1.08755">
        <ele>89.3</ele>
        <time>2020-07-03T11:17:05Z</time>
      </trkpt>
      <trkpt lat="47.31474" lon="1.0875">
        <ele>89.3</ele>
        <time>2020-07-03T11:17:06Z</time>
      </trkpt>
      <trkpt lat="47.31474" lon="1.08744">
        <ele>89.3</ele>
        <time>2020-07-03T11:17:07Z</time>
      </trkpt>
      <trkpt lat="47.31474" lon="1.08738">
        <ele>89.3</ele>
        <time>2020-07-03T11:17:08Z</time>
      </trkpt>
      <trkpt lat="47.31474" lon="1.08731">
        <ele>89.3</ele>
        <time>2020-07-03T11:17:09Z</time>
      </trkpt>
      <trkpt lat="47.31474" lon="1.08724">
        <ele>89.3</ele>
        <time>2020-07-03T11:17:10Z</time>
      </trkpt>
      <trkpt lat="47.31474" lon="1.08717">
        <ele>89.3</ele>
        <time>2020-07-03T11:17:11Z</time>
      </trkpt>
      <trkpt lat="47.31474" lon="1.0871">
        <ele>89.3</ele>
        <time>2020-07-03T11:17:12Z</time>
      </trkpt>
      <trkpt lat="47.31475" lon="1.08703">
        <ele>89.3</ele>
        <time>2020-07-03T11:17:13Z</time>
      </trkpt>
      <trkpt lat="47.31475" lon="1.08694">
        <ele>89.3</ele>
        <time>2020-07-03T11:17:14Z</time>
      </trkpt>
      <trkpt lat="47.31475" lon="1.08687">
        <ele>89.4</ele>
        <time>2020-07-03T11:17:15Z</time>
      </trkpt>
      <trkpt lat="47.31475" lon="1.08678">
        <ele>89.4</ele>
        <time>2020-07-03T11:17:16Z</time>
      </trkpt>
      <trkpt lat="47.31473" lon="1.0867">
        <ele>89.5</ele>
        <time>2020-07-03T11:17:17Z</time>
      </trkpt>
      <trkpt lat="47.31472" lon="1.08663">
        <ele>89.6</ele>
        <time>2020-07-03T11:17:18Z</time>
      </trkpt>
      <trkpt lat="47.3147" lon="1.08655">
        <ele>89.6</ele>
        <time>2020-07-03T11:17:19Z</time>
      </trkpt>
      <trkpt lat="47.31467" lon="1.08649">
        <ele>89.7</ele>
        <time>2020-07-03T11:17:20Z</time>
      </trkpt>
      <trkpt lat="47.31465" lon="1.08643">
        <ele>89.8</ele>
        <time>2020-07-03T11:17:21Z</time>
      </trkpt>
      <trkpt lat="47.31463" lon="1.08637">
        <ele>89.8</ele>
        <time>2020-07-03T11:17:22Z</time>
      </trkpt>
      <trkpt lat="47.31462" lon="1.0863">
        <ele>89.8</ele>
        <time>2020-07-03T11:17:23Z</time>
      </trkpt>
      <trkpt lat="47.3146" lon="1.08624">
        <ele>89.9</ele>
        <time>2020-07-03T11:17:24Z</time>
      </trkpt>
      <trkpt lat="47.31457" lon="1.08619">
        <ele>89.9</ele>
        <time>2020-07-03T11:17:25Z</time>
      </trkpt>
      <trkpt lat="47.31453" lon="1.08614">
        <ele>90</ele>
        <time>2020-07-03T11:17:26Z</time>
      </trkpt>
      <trkpt lat="47.31449" lon="1.08611">
        <ele>90</ele>
        <time>2020-07-03T11:17:27Z</time>
      </trkpt>
      <trkpt lat="47.31445" lon="1.08608">
        <ele>90</ele>
        <time>2020-07-03T11:17:28Z</time>
      </trkpt>
      <trkpt lat="47.31442" lon="1.08603">
        <ele>90.1</ele>
        <time>2020-07-03T11:17:29Z</time>
      </trkpt>
      <trkpt lat="47.31439" lon="1.08597">
        <ele>90.2</ele>
        <time>2020-07-03T11:17:30Z</time>
      </trkpt>
      <trkpt lat="47.31436" lon="1.08589">
        <ele>90.2</ele>
        <time>2020-07-03T11:17:31Z</time>
      </trkpt>
      <trkpt lat="47.31435" lon="1.08582">
        <ele>90.2</ele>
        <time>2020-07-03T11:17:32Z</time>
      </trkpt>
      <trkpt lat="47.31433" lon="1.08575">
        <ele>90.3</ele>
        <time>2020-07-03T11:17:33Z</time>
      </trkpt>
      <trkpt lat="47.31433" lon="1.08568">
        <ele>90.3</ele>
        <time>2020-07-03T11:17:34Z</time>
      </trkpt>
      <trkpt lat="47.31433" lon="1.08561">
        <ele>90.3</ele>
        <time>2020-07-03T11:17:35Z</time>
      </trkpt>
      <trkpt lat="47.3143" lon="1.08554">
        <ele>90.2</ele>
        <time>2020-07-03T11:17:36Z</time>
      </trkpt>
      <trkpt lat="47.31429" lon="1.08546">
        <ele>90.2</ele>
        <time>2020-07-03T11:17:37Z</time>
      </trkpt>
      <trkpt lat="47.31429" lon="1.08539">
        <ele>90.2</ele>
        <time>2020-07-03T11:17:38Z</time>
      </trkpt>
      <trkpt lat="47.31428" lon="1.08532">
        <ele>90.2</ele>
        <time>2020-07-03T11:17:39Z</time>
      </trkpt>
      <trkpt lat="47.31427" lon="1.08524">
        <ele>90.2</ele>
        <time>2020-07-03T11:17:40Z</time>
      </trkpt>
      <trkpt lat="47.31426" lon="1.08516">
        <ele>90.2</ele>
        <time>2020-07-03T11:17:41Z</time>
      </trkpt>
      <trkpt lat="47.31425" lon="1.08508">
        <ele>90.1</ele>
        <time>2020-07-03T11:17:42Z</time>
      </trkpt>
      <trkpt lat="47.31424" lon="1.085">
        <ele>90.1</ele>
        <time>2020-07-03T11:17:43Z</time>
      </trkpt>
      <trkpt lat="47.31423" lon="1.08494">
        <ele>90.1</ele>
        <time>2020-07-03T11:17:44Z</time>
      </trkpt>
      <trkpt lat="47.31421" lon="1.08488">
        <ele>90</ele>
        <time>2020-07-03T11:17:45Z</time>
      </trkpt>
      <trkpt lat="47.31419" lon="1.08481">
        <ele>90</ele>
        <time>2020-07-03T11:17:46Z</time>
      </trkpt>
      <trkpt lat="47.31415" lon="1.08475">
        <ele>90</ele>
        <time>2020-07-03T11:17:47Z</time>
      </trkpt>
      <trkpt lat="47.31412" lon="1.08468">
        <ele>90</ele>
        <time>2020-07-03T11:17:48Z</time>
      </trkpt>
      <trkpt lat="47.31408" lon="1.08463">
        <ele>90</ele>
        <time>2020-07-03T11:17:49Z</time>
      </trkpt>
      <trkpt lat="47.31404" lon="1.08458">
        <ele>90</ele>
        <time>2020-07-03T11:17:50Z</time>
      </trkpt>
      <trkpt lat="47.31401" lon="1.08453">
        <ele>90</ele>
        <time>2020-07-03T11:17:51Z</time>
      </trkpt>
      <trkpt lat="47.31399" lon="1.08448">
        <ele>89.9</ele>
        <time>2020-07-03T11:17:52Z</time>
      </trkpt>
      <trkpt lat="47.31396" lon="1.08443">
        <ele>89.8</ele>
        <time>2020-07-03T11:17:53Z</time>
      </trkpt>
      <trkpt lat="47.31393" lon="1.08437">
        <ele>89.7</ele>
        <time>2020-07-03T11:17:54Z</time>
      </trkpt>
      <trkpt lat="47.3139" lon="1.08432">
        <ele>89.6</ele>
        <time>2020-07-03T11:17:55Z</time>
      </trkpt>
      <trkpt lat="47.31387" lon="1.08427">
        <ele>89.6</ele>
        <time>2020-07-03T11:17:56Z</time>
      </trkpt>
      <trkpt lat="47.31384" lon="1.08423">
        <ele>89.6</ele>
        <time>2020-07-03T11:17:57Z</time>
      </trkpt>
      <trkpt lat="47.31381" lon="1.08419">
        <ele>89.2</ele>
        <time>2020-07-03T11:17:58Z</time>
      </trkpt>
      <trkpt lat="47.31378" lon="1.08415">
        <ele>88.9</ele>
        <time>2020-07-03T11:17:59Z</time>
      </trkpt>
      <trkpt lat="47.31374" lon="1.08412">
        <ele>88.7</ele>
        <time>2020-07-03T11:18:00Z</time>
      </trkpt>
      <trkpt lat="47.31371" lon="1.08408">
        <ele>88.4</ele>
        <time>2020-07-03T11:18:01Z</time>
      </trkpt>
      <trkpt lat="47.31367" lon="1.08402">
        <ele>88.1</ele>
        <time>2020-07-03T11:18:02Z</time>
      </trkpt>
      <trkpt lat="47.31363" lon="1.08395">
        <ele>87.7</ele>
        <time>2020-07-03T11:18:03Z</time>
      </trkpt>
      <trkpt lat="47.31359" lon="1.08388">
        <ele>87.3</ele>
        <time>2020-07-03T11:18:04Z</time>
      </trkpt>
      <trkpt lat="47.31356" lon="1.08381">
        <ele>86.9</ele>
        <time>2020-07-03T11:18:05Z</time>
      </trkpt>
      <trkpt lat="47.31353" lon="1.08374">
        <ele>86.5</ele>
        <time>2020-07-03T11:18:06Z</time>
      </trkpt>
      <trkpt lat="47.3135" lon="1.08367">
        <ele>86.1</ele>
        <time>2020-07-03T11:18:07Z</time>
      </trkpt>
      <trkpt lat="47.31347" lon="1.0836">
        <ele>85.7</ele>
        <time>2020-07-03T11:18:08Z</time>
      </trkpt>
      <trkpt lat="47.31343" lon="1.08353">
        <ele>85.2</ele>
        <time>2020-07-03T11:18:09Z</time>
      </trkpt>
      <trkpt lat="47.31338" lon="1.08344">
        <ele>84.6</ele>
        <time>2020-07-03T11:18:10Z</time>
      </trkpt>
      <trkpt lat="47.31333" lon="1.08338">
        <ele>84.2</ele>
        <time>2020-07-03T11:18:11Z</time>
      </trkpt>
      <trkpt lat="47.3133" lon="1.08332">
        <ele>83.8</ele>
        <time>2020-07-03T11:18:12Z</time>
      </trkpt>
      <trkpt lat="47.31326" lon="1.08326">
        <ele>83.4</ele>
        <time>2020-07-03T11:18:13Z</time>
      </trkpt>
      <trkpt lat="47.31323" lon="1.0832">
        <ele>83.1</ele>
        <time>2020-07-03T11:18:14Z</time>
      </trkpt>
      <trkpt lat="47.31321" lon="1.08312">
        <ele>82.6</ele>
        <time>2020-07-03T11:18:15Z</time>
      </trkpt>
      <trkpt lat="47.31319" lon="1.08307">
        <ele>82</ele>
        <time>2020-07-03T11:18:16Z</time>
      </trkpt>
      <trkpt lat="47.31318" lon="1.08303">
        <ele>81.9</ele>
        <time>2020-07-03T11:18:17Z</time>
      </trkpt>
      <trkpt lat="47.31315" lon="1.08302">
        <ele>81.9</ele>
        <time>2020-07-03T11:18:18Z</time>
      </trkpt>
      <trkpt lat="47.31312" lon="1.083">
        <ele>81.9</ele>
        <time>2020-07-03T11:18:19Z</time>
      </trkpt>
      <trkpt lat="47.31312" lon="1.083">
        <ele>81.9</ele>
        <time>2020-07-03T11:18:20Z</time>
      </trkpt>
      <trkpt lat="47.31309" lon="1.08298">
        <ele>81.9</ele>
        <time>2020-07-03T11:18:21Z</time>
      </trkpt>
      <trkpt lat="47.31308" lon="1.08297">
        <ele>81.9</ele>
        <time>2020-07-03T11:18:22Z</time>
      </trkpt>
      <trkpt lat="47.31306" lon="1.08294">
        <ele>81.9</ele>
        <time>2020-07-03T11:18:23Z</time>
      </trkpt>
      <trkpt lat="47.31305" lon="1.08292">
        <ele>81.9</ele>
        <time>2020-07-03T11:18:24Z</time>
      </trkpt>
      <trkpt lat="47.31303" lon="1.08289">
        <ele>81.9</ele>
        <time>2020-07-03T11:18:25Z</time>
      </trkpt>
      <trkpt lat="47.313" lon="1.08289">
        <ele>81.9</ele>
        <time>2020-07-03T11:18:26Z</time>
      </trkpt>
      <trkpt lat="47.31299" lon="1.08291">
        <ele>81.9</ele>
        <time>2020-07-03T11:18:27Z</time>
      </trkpt>
      <trkpt lat="47.31299" lon="1.08294">
        <ele>81.9</ele>
        <time>2020-07-03T11:18:28Z</time>
      </trkpt>
      <trkpt lat="47.31301" lon="1.08294">
        <ele>81.9</ele>
        <time>2020-07-03T11:18:29Z</time>
      </trkpt>
      <trkpt lat="47.31304" lon="1.08297">
        <ele>81.9</ele>
        <time>2020-07-03T11:18:30Z</time>
      </trkpt>
      <trkpt lat="47.31305" lon="1.08297">
        <ele>81.9</ele>
        <time>2020-07-03T11:18:31Z</time>
      </trkpt>
      <trkpt lat="47.3131" lon="1.08299">
        <ele>81.9</ele>
        <time>2020-07-03T11:18:32Z</time>
      </trkpt>
      <trkpt lat="47.31311" lon="1.083">
        <ele>81.9</ele>
        <time>2020-07-03T11:18:33Z</time>
      </trkpt>
      <trkpt lat="47.31314" lon="1.083">
        <ele>81.9</ele>
        <time>2020-07-03T11:18:34Z</time>
      </trkpt>
      <trkpt lat="47.31318" lon="1.083">
        <ele>82</ele>
        <time>2020-07-03T11:18:35Z</time>
      </trkpt>
      <trkpt lat="47.31321" lon="1.083">
        <ele>81.9</ele>
        <time>2020-07-03T11:18:36Z</time>
      </trkpt>
      <trkpt lat="47.31325" lon="1.08297">
        <ele>81.8</ele>
        <time>2020-07-03T11:18:37Z</time>
      </trkpt>
      <trkpt lat="47.31329" lon="1.08293">
        <ele>81.7</ele>
        <time>2020-07-03T11:18:38Z</time>
      </trkpt>
      <trkpt lat="47.31334" lon="1.08291">
        <ele>81.5</ele>
        <time>2020-07-03T11:18:39Z</time>
      </trkpt>
      <trkpt lat="47.31339" lon="1.0829">
        <ele>81.3</ele>
        <time>2020-07-03T11:18:40Z</time>
      </trkpt>
      <trkpt lat="47.31344" lon="1.08289">
        <ele>81.1</ele>
        <time>2020-07-03T11:18:41Z</time>
      </trkpt>
      <trkpt lat="47.31349" lon="1.08289">
        <ele>80.9</ele>
        <time>2020-07-03T11:18:42Z</time>
      </trkpt>
      <trkpt lat="47.31354" lon="1.08289">
        <ele>80.7</ele>
        <time>2020-07-03T11:18:43Z</time>
      </trkpt>
      <trkpt lat="47.31359" lon="1.08289">
        <ele>80.5</ele>
        <time>2020-07-03T11:18:44Z</time>
      </trkpt>
      <trkpt lat="47.31364" lon="1.08289">
        <ele>80.4</ele>
        <time>2020-07-03T11:18:45Z</time>
      </trkpt>
      <trkpt lat="47.31369" lon="1.08289">
        <ele>80.2</ele>
        <time>2020-07-03T11:18:46Z</time>
      </trkpt>
      <trkpt lat="47.31375" lon="1.08289">
        <ele>80.1</ele>
        <time>2020-07-03T11:18:47Z</time>
      </trkpt>
      <trkpt lat="47.31379" lon="1.0829">
        <ele>80</ele>
        <time>2020-07-03T11:18:48Z</time>
      </trkpt>
      <trkpt lat="47.31384" lon="1.0829">
        <ele>79.9</ele>
        <time>2020-07-03T11:18:49Z</time>
      </trkpt>
      <trkpt lat="47.31389" lon="1.0829">
        <ele>79.9</ele>
        <time>2020-07-03T11:18:50Z</time>
      </trkpt>
      <trkpt lat="47.31395" lon="1.0829">
        <ele>79.9</ele>
        <time>2020-07-03T11:18:51Z</time>
      </trkpt>
      <trkpt lat="47.314" lon="1.08289">
        <ele>79.9</ele>
        <time>2020-07-03T11:18:52Z</time>
      </trkpt>
      <trkpt lat="47.31405" lon="1.08289">
        <ele>80</ele>
        <time>2020-07-03T11:18:53Z</time>
      </trkpt>
      <trkpt lat="47.31409" lon="1.08289">
        <ele>80</ele>
        <time>2020-07-03T11:18:54Z</time>
      </trkpt>
      <trkpt lat="47.31413" lon="1.08288">
        <ele>80.1</ele>
        <time>2020-07-03T11:18:55Z</time>
      </trkpt>
      <trkpt lat="47.31416" lon="1.08287">
        <ele>80.2</ele>
        <time>2020-07-03T11:18:56Z</time>
      </trkpt>
      <trkpt lat="47.31419" lon="1.08287">
        <ele>80.1</ele>
        <time>2020-07-03T11:18:57Z</time>
      </trkpt>
      <trkpt lat="47.31422" lon="1.08288">
        <ele>80.1</ele>
        <time>2020-07-03T11:18:58Z</time>
      </trkpt>
      <trkpt lat="47.31425" lon="1.08285">
        <ele>80</ele>
        <time>2020-07-03T11:18:59Z</time>
      </trkpt>
      <trkpt lat="47.31426" lon="1.08284">
        <ele>80</ele>
        <time>2020-07-03T11:19:00Z</time>
      </trkpt>
      <trkpt lat="47.31425" lon="1.08285">
        <ele>80</ele>
        <time>2020-07-03T11:19:01Z</time>
      </trkpt>
      <trkpt lat="47.31423" lon="1.08286">
        <ele>80</ele>
        <time>2020-07-03T11:19:02Z</time>
      </trkpt>
      <trkpt lat="47.3142" lon="1.08287">
        <ele>79.9</ele>
        <time>2020-07-03T11:19:03Z</time>
      </trkpt>
      <trkpt lat="47.31416" lon="1.08288">
        <ele>79.9</ele>
        <time>2020-07-03T11:19:04Z</time>
      </trkpt>
      <trkpt lat="47.31411" lon="1.08286">
        <ele>79.9</ele>
        <time>2020-07-03T11:19:05Z</time>
      </trkpt>
      <trkpt lat="47.31406" lon="1.08287">
        <ele>79.9</ele>
        <time>2020-07-03T11:19:06Z</time>
      </trkpt>
      <trkpt lat="47.31401" lon="1.08286">
        <ele>79.9</ele>
        <time>2020-07-03T11:19:07Z</time>
      </trkpt>
      <trkpt lat="47.31396" lon="1.08286">
        <ele>79.9</ele>
        <time>2020-07-03T11:19:08Z</time>
      </trkpt>
      <trkpt lat="47.31391" lon="1.08287">
        <ele>80</ele>
        <time>2020-07-03T11:19:09Z</time>
      </trkpt>
      <trkpt lat="47.31386" lon="1.08287">
        <ele>80.1</ele>
        <time>2020-07-03T11:19:10Z</time>
      </trkpt>
      <trkpt lat="47.31381" lon="1.08288">
        <ele>80.2</ele>
        <time>2020-07-03T11:19:11Z</time>
      </trkpt>
      <trkpt lat="47.31376" lon="1.08288">
        <ele>80.3</ele>
        <time>2020-07-03T11:19:12Z</time>
      </trkpt>
      <trkpt lat="47.31372" lon="1.08286">
        <ele>80.4</ele>
        <time>2020-07-03T11:19:13Z</time>
      </trkpt>
      <trkpt lat="47.31368" lon="1.08287">
        <ele>80.5</ele>
        <time>2020-07-03T11:19:14Z</time>
      </trkpt>
      <trkpt lat="47.31362" lon="1.08285">
        <ele>80.7</ele>
        <time>2020-07-03T11:19:15Z</time>
      </trkpt>
      <trkpt lat="47.31358" lon="1.08284">
        <ele>80.8</ele>
        <time>2020-07-03T11:19:16Z</time>
      </trkpt>
      <trkpt lat="47.31354" lon="1.08282">
        <ele>80.9</ele>
        <time>2020-07-03T11:19:17Z</time>
      </trkpt>
      <trkpt lat="47.31349" lon="1.08281">
        <ele>81.1</ele>
        <time>2020-07-03T11:19:18Z</time>
      </trkpt>
      <trkpt lat="47.31345" lon="1.08281">
        <ele>81.2</ele>
        <time>2020-07-03T11:19:19Z</time>
      </trkpt>
      <trkpt lat="47.3134" lon="1.08282">
        <ele>81.4</ele>
        <time>2020-07-03T11:19:20Z</time>
      </trkpt>
      <trkpt lat="47.31335" lon="1.08285">
        <ele>81.5</ele>
        <time>2020-07-03T11:19:21Z</time>
      </trkpt>
      <trkpt lat="47.31332" lon="1.08288">
        <ele>81.6</ele>
        <time>2020-07-03T11:19:22Z</time>
      </trkpt>
      <trkpt lat="47.31329" lon="1.0829">
        <ele>81.7</ele>
        <time>2020-07-03T11:19:23Z</time>
      </trkpt>
      <trkpt lat="47.31326" lon="1.08292">
        <ele>81.8</ele>
        <time>2020-07-03T11:19:24Z</time>
      </trkpt>
      <trkpt lat="47.31323" lon="1.08296">
        <ele>81.8</ele>
        <time>2020-07-03T11:19:25Z</time>
      </trkpt>
      <trkpt lat="47.3132" lon="1.08299">
        <ele>81.9</ele>
        <time>2020-07-03T11:19:26Z</time>
      </trkpt>
      <trkpt lat="47.31318" lon="1.08301">
        <ele>82</ele>
        <time>2020-07-03T11:19:27Z</time>
      </trkpt>
      <trkpt lat="47.31314" lon="1.08302">
        <ele>81.9</ele>
        <time>2020-07-03T11:19:28Z</time>
      </trkpt>
      <trkpt lat="47.31311" lon="1.08299">
        <ele>81.9</ele>
        <time>2020-07-03T11:19:29Z</time>
      </trkpt>
      <trkpt lat="47.31308" lon="1.08296">
        <ele>81.9</ele>
        <time>2020-07-03T11:19:30Z</time>
      </trkpt>
      <trkpt lat="47.31304" lon="1.08294">
        <ele>81.9</ele>
        <time>2020-07-03T11:19:31Z</time>
      </trkpt>
      <trkpt lat="47.31301" lon="1.08288">
        <ele>81.9</ele>
        <time>2020-07-03T11:19:32Z</time>
      </trkpt>
      <trkpt lat="47.31297" lon="1.08284">
        <ele>81.8</ele>
        <time>2020-07-03T11:19:33Z</time>
      </trkpt>
      <trkpt lat="47.31293" lon="1.0828">
        <ele>80.8</ele>
        <time>2020-07-03T11:19:34Z</time>
      </trkpt>
      <trkpt lat="47.3129" lon="1.08274">
        <ele>80.3</ele>
        <time>2020-07-03T11:19:35Z</time>
      </trkpt>
      <trkpt lat="47.31288" lon="1.08266">
        <ele>79.7</ele>
        <time>2020-07-03T11:19:36Z</time>
      </trkpt>
      <trkpt lat="47.31288" lon="1.08255">
        <ele>79</ele>
        <time>2020-07-03T11:19:37Z</time>
      </trkpt>
      <trkpt lat="47.31286" lon="1.08244">
        <ele>78.2</ele>
        <time>2020-07-03T11:19:38Z</time>
      </trkpt>
      <trkpt lat="47.31285" lon="1.08233">
        <ele>77.5</ele>
        <time>2020-07-03T11:19:39Z</time>
      </trkpt>
      <trkpt lat="47.31283" lon="1.0822">
        <ele>76.7</ele>
        <time>2020-07-03T11:19:40Z</time>
      </trkpt>
      <trkpt lat="47.31281" lon="1.0821">
        <ele>75.9</ele>
        <time>2020-07-03T11:19:41Z</time>
      </trkpt>
      <trkpt lat="47.31278" lon="1.08199">
        <ele>75.2</ele>
        <time>2020-07-03T11:19:42Z</time>
      </trkpt>
      <trkpt lat="47.31276" lon="1.08188">
        <ele>74.5</ele>
        <time>2020-07-03T11:19:43Z</time>
      </trkpt>
      <trkpt lat="47.31273" lon="1.08177">
        <ele>73.7</ele>
        <time>2020-07-03T11:19:44Z</time>
      </trkpt>
      <trkpt lat="47.3127" lon="1.08166">
        <ele>73</ele>
        <time>2020-07-03T11:19:45Z</time>
      </trkpt>
      <trkpt lat="47.31266" lon="1.08156">
        <ele>72.3</ele>
        <time>2020-07-03T11:19:46Z</time>
      </trkpt>
      <trkpt lat="47.31261" lon="1.08145">
        <ele>71.6</ele>
        <time>2020-07-03T11:19:47Z</time>
      </trkpt>
      <trkpt lat="47.31256" lon="1.08137">
        <ele>71</ele>
        <time>2020-07-03T11:19:48Z</time>
      </trkpt>
      <trkpt lat="47.3125" lon="1.08128">
        <ele>70.4</ele>
        <time>2020-07-03T11:19:49Z</time>
      </trkpt>
      <trkpt lat="47.31244" lon="1.08121">
        <ele>69.9</ele>
        <time>2020-07-03T11:19:50Z</time>
      </trkpt>
      <trkpt lat="47.31237" lon="1.08114">
        <ele>69.5</ele>
        <time>2020-07-03T11:19:51Z</time>
      </trkpt>
      <trkpt lat="47.3123" lon="1.08108">
        <ele>69.2</ele>
        <time>2020-07-03T11:19:52Z</time>
      </trkpt>
      <trkpt lat="47.31223" lon="1.08103">
        <ele>68.7</ele>
        <time>2020-07-03T11:19:53Z</time>
      </trkpt>
      <trkpt lat="47.31216" lon="1.08096">
        <ele>68.4</ele>
        <time>2020-07-03T11:19:54Z</time>
      </trkpt>
      <trkpt lat="47.3121" lon="1.0809">
        <ele>68.1</ele>
        <time>2020-07-03T11:19:55Z</time>
      </trkpt>
      <trkpt lat="47.31204" lon="1.08085">
        <ele>67.8</ele>
        <time>2020-07-03T11:19:56Z</time>
      </trkpt>
      <trkpt lat="47.31197" lon="1.0808">
        <ele>67.6</ele>
        <time>2020-07-03T11:19:57Z</time>
      </trkpt>
      <trkpt lat="47.3119" lon="1.08074">
        <ele>67.4</ele>
        <time>2020-07-03T11:19:58Z</time>
      </trkpt>
      <trkpt lat="47.31184" lon="1.08068">
        <ele>67.2</ele>
        <time>2020-07-03T11:19:59Z</time>
      </trkpt>
      <trkpt lat="47.31177" lon="1.08063">
        <ele>67.1</ele>
        <time>2020-07-03T11:20:00Z</time>
      </trkpt>
      <trkpt lat="47.31172" lon="1.08057">
        <ele>67</ele>
        <time>2020-07-03T11:20:01Z</time>
      </trkpt>
      <trkpt lat="47.31166" lon="1.08052">
        <ele>66.9</ele>
        <time>2020-07-03T11:20:02Z</time>
      </trkpt>
      <trkpt lat="47.3116" lon="1.08047">
        <ele>66.8</ele>
        <time>2020-07-03T11:20:03Z</time>
      </trkpt>
      <trkpt lat="47.31153" lon="1.08043">
        <ele>66.7</ele>
        <time>2020-07-03T11:20:04Z</time>
      </trkpt>
      <trkpt lat="47.31146" lon="1.08041">
        <ele>66.7</ele>
        <time>2020-07-03T11:20:05Z</time>
      </trkpt>
      <trkpt lat="47.31139" lon="1.0804">
        <ele>66.6</ele>
        <time>2020-07-03T11:20:06Z</time>
      </trkpt>
      <trkpt lat="47.31132" lon="1.08039">
        <ele>66.6</ele>
        <time>2020-07-03T11:20:07Z</time>
      </trkpt>
      <trkpt lat="47.31125" lon="1.08038">
        <ele>66.6</ele>
        <time>2020-07-03T11:20:08Z</time>
      </trkpt>
      <trkpt lat="47.31118" lon="1.08039">
        <ele>66.6</ele>
        <time>2020-07-03T11:20:09Z</time>
      </trkpt>
      <trkpt lat="47.31111" lon="1.08042">
        <ele>66.6</ele>
        <time>2020-07-03T11:20:10Z</time>
      </trkpt>
      <trkpt lat="47.31104" lon="1.08044">
        <ele>66.7</ele>
        <time>2020-07-03T11:20:11Z</time>
      </trkpt>
      <trkpt lat="47.31097" lon="1.08048">
        <ele>66.7</ele>
        <time>2020-07-03T11:20:12Z</time>
      </trkpt>
      <trkpt lat="47.31092" lon="1.08054">
        <ele>66.7</ele>
        <time>2020-07-03T11:20:13Z</time>
      </trkpt>
      <trkpt lat="47.31086" lon="1.08059">
        <ele>66.8</ele>
        <time>2020-07-03T11:20:14Z</time>
      </trkpt>
      <trkpt lat="47.31081" lon="1.08064">
        <ele>66.8</ele>
        <time>2020-07-03T11:20:15Z</time>
      </trkpt>
      <trkpt lat="47.31075" lon="1.08066">
        <ele>66.9</ele>
        <time>2020-07-03T11:20:16Z</time>
      </trkpt>
      <trkpt lat="47.31069" lon="1.08067">
        <ele>67</ele>
        <time>2020-07-03T11:20:17Z</time>
      </trkpt>
      <trkpt lat="47.31063" lon="1.08066">
        <ele>67.1</ele>
        <time>2020-07-03T11:20:18Z</time>
      </trkpt>
      <trkpt lat="47.31057" lon="1.08065">
        <ele>67.1</ele>
        <time>2020-07-03T11:20:19Z</time>
      </trkpt>
      <trkpt lat="47.31051" lon="1.08064">
        <ele>67.2</ele>
        <time>2020-07-03T11:20:20Z</time>
      </trkpt>
      <trkpt lat="47.31046" lon="1.08063">
        <ele>67.3</ele>
        <time>2020-07-03T11:20:21Z</time>
      </trkpt>
      <trkpt lat="47.3104" lon="1.08061">
        <ele>67.4</ele>
        <time>2020-07-03T11:20:22Z</time>
      </trkpt>
      <trkpt lat="47.31034" lon="1.0806">
        <ele>67.5</ele>
        <time>2020-07-03T11:20:23Z</time>
      </trkpt>
      <trkpt lat="47.31028" lon="1.08061">
        <ele>67.6</ele>
        <time>2020-07-03T11:20:24Z</time>
      </trkpt>
      <trkpt lat="47.31023" lon="1.0806">
        <ele>67.6</ele>
        <time>2020-07-03T11:20:25Z</time>
      </trkpt>
      <trkpt lat="47.31017" lon="1.08059">
        <ele>67.7</ele>
        <time>2020-07-03T11:20:26Z</time>
      </trkpt>
      <trkpt lat="47.31012" lon="1.08058">
        <ele>67.8</ele>
        <time>2020-07-03T11:20:27Z</time>
      </trkpt>
      <trkpt lat="47.31006" lon="1.08057">
        <ele>67.9</ele>
        <time>2020-07-03T11:20:28Z</time>
      </trkpt>
      <trkpt lat="47.31" lon="1.08055">
        <ele>68</ele>
        <time>2020-07-03T11:20:29Z</time>
      </trkpt>
      <trkpt lat="47.30994" lon="1.08054">
        <ele>68.1</ele>
        <time>2020-07-03T11:20:30Z</time>
      </trkpt>
      <trkpt lat="47.30989" lon="1.08052">
        <ele>68.2</ele>
        <time>2020-07-03T11:20:31Z</time>
      </trkpt>
      <trkpt lat="47.30983" lon="1.08051">
        <ele>68.4</ele>
        <time>2020-07-03T11:20:32Z</time>
      </trkpt>
      <trkpt lat="47.30977" lon="1.08049">
        <ele>68.5</ele>
        <time>2020-07-03T11:20:33Z</time>
      </trkpt>
      <trkpt lat="47.30972" lon="1.08047">
        <ele>68.6</ele>
        <time>2020-07-03T11:20:34Z</time>
      </trkpt>
      <trkpt lat="47.30966" lon="1.08045">
        <ele>68.7</ele>
        <time>2020-07-03T11:20:35Z</time>
      </trkpt>
      <trkpt lat="47.30961" lon="1.08043">
        <ele>68.8</ele>
        <time>2020-07-03T11:20:36Z</time>
      </trkpt>
      <trkpt lat="47.30957" lon="1.0804">
        <ele>68.9</ele>
        <time>2020-07-03T11:20:37Z</time>
      </trkpt>
      <trkpt lat="47.30953" lon="1.08037">
        <ele>69</ele>
        <time>2020-07-03T11:20:38Z</time>
      </trkpt>
      <trkpt lat="47.30948" lon="1.08033">
        <ele>69</ele>
        <time>2020-07-03T11:20:39Z</time>
      </trkpt>
      <trkpt lat="47.30944" lon="1.08031">
        <ele>69.1</ele>
        <time>2020-07-03T11:20:40Z</time>
      </trkpt>
      <trkpt lat="47.3094" lon="1.08027">
        <ele>69.1</ele>
        <time>2020-07-03T11:20:41Z</time>
      </trkpt>
      <trkpt lat="47.30935" lon="1.08024">
        <ele>69.1</ele>
        <time>2020-07-03T11:20:42Z</time>
      </trkpt>
      <trkpt lat="47.30931" lon="1.08021">
        <ele>69.2</ele>
        <time>2020-07-03T11:20:43Z</time>
      </trkpt>
      <trkpt lat="47.30926" lon="1.08018">
        <ele>69.2</ele>
        <time>2020-07-03T11:20:44Z</time>
      </trkpt>
      <trkpt lat="47.30921" lon="1.08017">
        <ele>69.3</ele>
        <time>2020-07-03T11:20:45Z</time>
      </trkpt>
      <trkpt lat="47.30917" lon="1.08012">
        <ele>69.3</ele>
        <time>2020-07-03T11:20:46Z</time>
      </trkpt>
      <trkpt lat="47.30912" lon="1.08009">
        <ele>69.4</ele>
        <time>2020-07-03T11:20:47Z</time>
      </trkpt>
      <trkpt lat="47.30906" lon="1.08007">
        <ele>69.4</ele>
        <time>2020-07-03T11:20:48Z</time>
      </trkpt>
      <trkpt lat="47.30901" lon="1.08005">
        <ele>69.5</ele>
        <time>2020-07-03T11:20:49Z</time>
      </trkpt>
      <trkpt lat="47.30896" lon="1.08001">
        <ele>69.5</ele>
        <time>2020-07-03T11:20:50Z</time>
      </trkpt>
      <trkpt lat="47.3089" lon="1.07998">
        <ele>69.5</ele>
        <time>2020-07-03T11:20:51Z</time>
      </trkpt>
      <trkpt lat="47.30885" lon="1.07995">
        <ele>69.6</ele>
        <time>2020-07-03T11:20:52Z</time>
      </trkpt>
      <trkpt lat="47.30881" lon="1.07991">
        <ele>69.6</ele>
        <time>2020-07-03T11:20:53Z</time>
      </trkpt>
      <trkpt lat="47.30876" lon="1.07988">
        <ele>69.6</ele>
        <time>2020-07-03T11:20:54Z</time>
      </trkpt>
      <trkpt lat="47.3087" lon="1.07986">
        <ele>69.7</ele>
        <time>2020-07-03T11:20:55Z</time>
      </trkpt>
      <trkpt lat="47.30864" lon="1.07984">
        <ele>69.7</ele>
        <time>2020-07-03T11:20:56Z</time>
      </trkpt>
      <trkpt lat="47.30859" lon="1.07983">
        <ele>69.7</ele>
        <time>2020-07-03T11:20:57Z</time>
      </trkpt>
      <trkpt lat="47.30853" lon="1.07981">
        <ele>69.8</ele>
        <time>2020-07-03T11:20:58Z</time>
      </trkpt>
      <trkpt lat="47.30848" lon="1.0798">
        <ele>69.8</ele>
        <time>2020-07-03T11:20:59Z</time>
      </trkpt>
      <trkpt lat="47.30842" lon="1.07979">
        <ele>69.9</ele>
        <time>2020-07-03T11:21:00Z</time>
      </trkpt>
      <trkpt lat="47.30837" lon="1.07978">
        <ele>69.9</ele>
        <time>2020-07-03T11:21:01Z</time>
      </trkpt>
      <trkpt lat="47.30831" lon="1.07977">
        <ele>70</ele>
        <time>2020-07-03T11:21:02Z</time>
      </trkpt>
      <trkpt lat="47.30825" lon="1.07977">
        <ele>70</ele>
        <time>2020-07-03T11:21:03Z</time>
      </trkpt>
      <trkpt lat="47.3082" lon="1.07976">
        <ele>70</ele>
        <time>2020-07-03T11:21:04Z</time>
      </trkpt>
      <trkpt lat="47.30816" lon="1.07975">
        <ele>69.9</ele>
        <time>2020-07-03T11:21:05Z</time>
      </trkpt>
      <trkpt lat="47.30811" lon="1.07975">
        <ele>69.9</ele>
        <time>2020-07-03T11:21:06Z</time>
      </trkpt>
      <trkpt lat="47.30807" lon="1.07975">
        <ele>69.9</ele>
        <time>2020-07-03T11:21:07Z</time>
      </trkpt>
      <trkpt lat="47.30802" lon="1.07975">
        <ele>69.9</ele>
        <time>2020-07-03T11:21:08Z</time>
      </trkpt>
      <trkpt lat="47.30797" lon="1.07975">
        <ele>69.9</ele>
        <time>2020-07-03T11:21:09Z</time>
      </trkpt>
      <trkpt lat="47.30793" lon="1.07973">
        <ele>69.9</ele>
        <time>2020-07-03T11:21:10Z</time>
      </trkpt>
      <trkpt lat="47.30788" lon="1.07973">
        <ele>69.9</ele>
        <time>2020-07-03T11:21:11Z</time>
      </trkpt>
      <trkpt lat="47.30784" lon="1.07973">
        <ele>69.9</ele>
        <time>2020-07-03T11:21:12Z</time>
      </trkpt>
      <trkpt lat="47.3078" lon="1.07973">
        <ele>69.9</ele>
        <time>2020-07-03T11:21:13Z</time>
      </trkpt>
      <trkpt lat="47.30777" lon="1.07973">
        <ele>69.9</ele>
        <time>2020-07-03T11:21:14Z</time>
      </trkpt>
      <trkpt lat="47.30773" lon="1.07973">
        <ele>69.9</ele>
        <time>2020-07-03T11:21:15Z</time>
      </trkpt>
      <trkpt lat="47.30769" lon="1.07975">
        <ele>69.8</ele>
        <time>2020-07-03T11:21:16Z</time>
      </trkpt>
      <trkpt lat="47.30765" lon="1.07975">
        <ele>69.7</ele>
        <time>2020-07-03T11:21:17Z</time>
      </trkpt>
      <trkpt lat="47.30762" lon="1.07975">
        <ele>69.5</ele>
        <time>2020-07-03T11:21:18Z</time>
      </trkpt>
      <trkpt lat="47.30758" lon="1.07976">
        <ele>69.3</ele>
        <time>2020-07-03T11:21:19Z</time>
      </trkpt>
      <trkpt lat="47.30755" lon="1.07977">
        <ele>69.3</ele>
        <time>2020-07-03T11:21:20Z</time>
      </trkpt>
      <trkpt lat="47.30752" lon="1.07978">
        <ele>69.2</ele>
        <time>2020-07-03T11:21:21Z</time>
      </trkpt>
      <trkpt lat="47.30749" lon="1.0798">
        <ele>69.2</ele>
        <time>2020-07-03T11:21:22Z</time>
      </trkpt>
      <trkpt lat="47.30746" lon="1.07982">
        <ele>69.2</ele>
        <time>2020-07-03T11:21:23Z</time>
      </trkpt>
      <trkpt lat="47.30744" lon="1.07982">
        <ele>69.2</ele>
        <time>2020-07-03T11:21:24Z</time>
      </trkpt>
      <trkpt lat="47.30742" lon="1.07983">
        <ele>69.2</ele>
        <time>2020-07-03T11:21:25Z</time>
      </trkpt>
      <trkpt lat="47.30739" lon="1.07984">
        <ele>69.2</ele>
        <time>2020-07-03T11:21:26Z</time>
      </trkpt>
      <trkpt lat="47.30736" lon="1.07986">
        <ele>69.2</ele>
        <time>2020-07-03T11:21:27Z</time>
      </trkpt>
      <trkpt lat="47.30732" lon="1.07987">
        <ele>69.2</ele>
        <time>2020-07-03T11:21:28Z</time>
      </trkpt>
      <trkpt lat="47.30728" lon="1.07989">
        <ele>69.2</ele>
        <time>2020-07-03T11:21:29Z</time>
      </trkpt>
      <trkpt lat="47.30726" lon="1.0799">
        <ele>69.3</ele>
        <time>2020-07-03T11:21:30Z</time>
      </trkpt>
      <trkpt lat="47.30723" lon="1.07992">
        <ele>69.3</ele>
        <time>2020-07-03T11:21:31Z</time>
      </trkpt>
      <trkpt lat="47.3072" lon="1.07993">
        <ele>69.3</ele>
        <time>2020-07-03T11:21:32Z</time>
      </trkpt>
      <trkpt lat="47.30718" lon="1.07994">
        <ele>69.3</ele>
        <time>2020-07-03T11:21:33Z</time>
      </trkpt>
      <trkpt lat="47.30714" lon="1.07995">
        <ele>69.3</ele>
        <time>2020-07-03T11:21:34Z</time>
      </trkpt>
      <trkpt lat="47.30713" lon="1.07995">
        <ele>69.3</ele>
        <time>2020-07-03T11:21:35Z</time>
      </trkpt>
      <trkpt lat="47.30709" lon="1.07998">
        <ele>69.3</ele>
        <time>2020-07-03T11:21:36Z</time>
      </trkpt>
      <trkpt lat="47.30708" lon="1.07999">
        <ele>69.3</ele>
        <time>2020-07-03T11:21:37Z</time>
      </trkpt>
      <trkpt lat="47.30704" lon="1.08">
        <ele>69.3</ele>
        <time>2020-07-03T11:21:38Z</time>
      </trkpt>
      <trkpt lat="47.307" lon="1.08001">
        <ele>69.3</ele>
        <time>2020-07-03T11:21:39Z</time>
      </trkpt>
      <trkpt lat="47.30696" lon="1.08002">
        <ele>69.3</ele>
        <time>2020-07-03T11:21:40Z</time>
      </trkpt>
      <trkpt lat="47.30693" lon="1.08004">
        <ele>69.4</ele>
        <time>2020-07-03T11:21:41Z</time>
      </trkpt>
      <trkpt lat="47.30689" lon="1.08006">
        <ele>69.4</ele>
        <time>2020-07-03T11:21:42Z</time>
      </trkpt>
      <trkpt lat="47.30684" lon="1.08008">
        <ele>69.4</ele>
        <time>2020-07-03T11:21:43Z</time>
      </trkpt>
      <trkpt lat="47.30679" lon="1.08011">
        <ele>69.4</ele>
        <time>2020-07-03T11:21:44Z</time>
      </trkpt>
      <trkpt lat="47.30675" lon="1.08014">
        <ele>69.3</ele>
        <time>2020-07-03T11:21:45Z</time>
      </trkpt>
      <trkpt lat="47.3067" lon="1.08015">
        <ele>69.3</ele>
        <time>2020-07-03T11:21:46Z</time>
      </trkpt>
      <trkpt lat="47.30666" lon="1.08016">
        <ele>69.3</ele>
        <time>2020-07-03T11:21:47Z</time>
      </trkpt>
      <trkpt lat="47.30661" lon="1.08019">
        <ele>69.3</ele>
        <time>2020-07-03T11:21:48Z</time>
      </trkpt>
      <trkpt lat="47.30657" lon="1.08022">
        <ele>69.3</ele>
        <time>2020-07-03T11:21:49Z</time>
      </trkpt>
      <trkpt lat="47.30654" lon="1.08022">
        <ele>69.3</ele>
        <time>2020-07-03T11:21:50Z</time>
      </trkpt>
      <trkpt lat="47.30651" lon="1.08023">
        <ele>69.3</ele>
        <time>2020-07-03T11:21:51Z</time>
      </trkpt>
      <trkpt lat="47.30647" lon="1.08023">
        <ele>69.3</ele>
        <time>2020-07-03T11:21:52Z</time>
      </trkpt>
      <trkpt lat="47.30643" lon="1.08024">
        <ele>69.2</ele>
        <time>2020-07-03T11:21:53Z</time>
      </trkpt>
      <trkpt lat="47.3064" lon="1.08026">
        <ele>69.2</ele>
        <time>2020-07-03T11:21:54Z</time>
      </trkpt>
      <trkpt lat="47.30636" lon="1.08026">
        <ele>69.2</ele>
        <time>2020-07-03T11:21:55Z</time>
      </trkpt>
      <trkpt lat="47.30633" lon="1.08026">
        <ele>69.2</ele>
        <time>2020-07-03T11:21:56Z</time>
      </trkpt>
      <trkpt lat="47.3063" lon="1.08026">
        <ele>69.2</ele>
        <time>2020-07-03T11:21:57Z</time>
      </trkpt>
      <trkpt lat="47.30627" lon="1.08027">
        <ele>69.2</ele>
        <time>2020-07-03T11:21:58Z</time>
      </trkpt>
      <trkpt lat="47.30623" lon="1.08027">
        <ele>69.2</ele>
        <time>2020-07-03T11:21:59Z</time>
      </trkpt>
      <trkpt lat="47.3062" lon="1.08028">
        <ele>69.2</ele>
        <time>2020-07-03T11:22:00Z</time>
      </trkpt>
      <trkpt lat="47.30616" lon="1.08028">
        <ele>69.2</ele>
        <time>2020-07-03T11:22:01Z</time>
      </trkpt>
      <trkpt lat="47.30613" lon="1.08027">
        <ele>69.2</ele>
        <time>2020-07-03T11:22:02Z</time>
      </trkpt>
      <trkpt lat="47.3061" lon="1.08028">
        <ele>69.2</ele>
        <time>2020-07-03T11:22:03Z</time>
      </trkpt>
      <trkpt lat="47.30607" lon="1.08029">
        <ele>69.2</ele>
        <time>2020-07-03T11:22:04Z</time>
      </trkpt>
      <trkpt lat="47.30604" lon="1.08029">
        <ele>69.2</ele>
        <time>2020-07-03T11:22:05Z</time>
      </trkpt>
      <trkpt lat="47.30601" lon="1.08029">
        <ele>69.2</ele>
        <time>2020-07-03T11:22:06Z</time>
      </trkpt>
      <trkpt lat="47.306" lon="1.08029">
        <ele>69.2</ele>
        <time>2020-07-03T11:22:07Z</time>
      </trkpt>
      <trkpt lat="47.30597" lon="1.0803">
        <ele>69.2</ele>
        <time>2020-07-03T11:22:08Z</time>
      </trkpt>
      <trkpt lat="47.30593" lon="1.0803">
        <ele>69.2</ele>
        <time>2020-07-03T11:22:09Z</time>
      </trkpt>
      <trkpt lat="47.30592" lon="1.0803">
        <ele>69.2</ele>
        <time>2020-07-03T11:22:10Z</time>
      </trkpt>
      <trkpt lat="47.30588" lon="1.08029">
        <ele>69.2</ele>
        <time>2020-07-03T11:22:11Z</time>
      </trkpt>
      <trkpt lat="47.30586" lon="1.08029">
        <ele>69.2</ele>
        <time>2020-07-03T11:22:12Z</time>
      </trkpt>
      <trkpt lat="47.30583" lon="1.08029">
        <ele>69.2</ele>
        <time>2020-07-03T11:22:13Z</time>
      </trkpt>
      <trkpt lat="47.30582" lon="1.08029">
        <ele>69.2</ele>
        <time>2020-07-03T11:22:14Z</time>
      </trkpt>
      <trkpt lat="47.3058" lon="1.0803">
        <ele>69.2</ele>
        <time>2020-07-03T11:22:15Z</time>
      </trkpt>
      <trkpt lat="47.30577" lon="1.08029">
        <ele>69.2</ele>
        <time>2020-07-03T11:22:16Z</time>
      </trkpt>
      <trkpt lat="47.30576" lon="1.08028">
        <ele>69.2</ele>
        <time>2020-07-03T11:22:17Z</time>
      </trkpt>
      <trkpt lat="47.30574" lon="1.08027">
        <ele>69.2</ele>
        <time>2020-07-03T11:22:18Z</time>
      </trkpt>
      <trkpt lat="47.30573" lon="1.08026">
        <ele>69.2</ele>
        <time>2020-07-03T11:22:19Z</time>
      </trkpt>
      <trkpt lat="47.30569" lon="1.08027">
        <ele>69.2</ele>
        <time>2020-07-03T11:22:20Z</time>
      </trkpt>
      <trkpt lat="47.30568" lon="1.08027">
        <ele>69.2</ele>
        <time>2020-07-03T11:22:21Z</time>
      </trkpt>
      <trkpt lat="47.30565" lon="1.08029">
        <ele>69.2</ele>
        <time>2020-07-03T11:22:22Z</time>
      </trkpt>
      <trkpt lat="47.30564" lon="1.0803">
        <ele>69.2</ele>
        <time>2020-07-03T11:22:23Z</time>
      </trkpt>
      <trkpt lat="47.30561" lon="1.08028">
        <ele>69.2</ele>
        <time>2020-07-03T11:22:24Z</time>
      </trkpt>
      <trkpt lat="47.30559" lon="1.08027">
        <ele>69.2</ele>
        <time>2020-07-03T11:22:25Z</time>
      </trkpt>
      <trkpt lat="47.30556" lon="1.08027">
        <ele>69.2</ele>
        <time>2020-07-03T11:22:26Z</time>
      </trkpt>
      <trkpt lat="47.30552" lon="1.08027">
        <ele>69.2</ele>
        <time>2020-07-03T11:22:27Z</time>
      </trkpt>
      <trkpt lat="47.30551" lon="1.08026">
        <ele>69.2</ele>
        <time>2020-07-03T11:22:28Z</time>
      </trkpt>
      <trkpt lat="47.30548" lon="1.08026">
        <ele>69.2</ele>
        <time>2020-07-03T11:22:29Z</time>
      </trkpt>
      <trkpt lat="47.30545" lon="1.08024">
        <ele>69.2</ele>
        <time>2020-07-03T11:22:30Z</time>
      </trkpt>
      <trkpt lat="47.30541" lon="1.08023">
        <ele>69.2</ele>
        <time>2020-07-03T11:22:31Z</time>
      </trkpt>
      <trkpt lat="47.30538" lon="1.08024">
        <ele>69.2</ele>
        <time>2020-07-03T11:22:32Z</time>
      </trkpt>
      <trkpt lat="47.30534" lon="1.08024">
        <ele>69.2</ele>
        <time>2020-07-03T11:22:33Z</time>
      </trkpt>
      <trkpt lat="47.3053" lon="1.08024">
        <ele>69.2</ele>
        <time>2020-07-03T11:22:34Z</time>
      </trkpt>
      <trkpt lat="47.30526" lon="1.08024">
        <ele>69.2</ele>
        <time>2020-07-03T11:22:35Z</time>
      </trkpt>
      <trkpt lat="47.30522" lon="1.08024">
        <ele>69.2</ele>
        <time>2020-07-03T11:22:36Z</time>
      </trkpt>
      <trkpt lat="47.30518" lon="1.08023">
        <ele>69.2</ele>
        <time>2020-07-03T11:22:37Z</time>
      </trkpt>
      <trkpt lat="47.30514" lon="1.08022">
        <ele>69.2</ele>
        <time>2020-07-03T11:22:38Z</time>
      </trkpt>
      <trkpt lat="47.3051" lon="1.08024">
        <ele>69.3</ele>
        <time>2020-07-03T11:22:39Z</time>
      </trkpt>
      <trkpt lat="47.30506" lon="1.08024">
        <ele>69.3</ele>
        <time>2020-07-03T11:22:40Z</time>
      </trkpt>
      <trkpt lat="47.30502" lon="1.08025">
        <ele>69.4</ele>
        <time>2020-07-03T11:22:41Z</time>
      </trkpt>
      <trkpt lat="47.30498" lon="1.08024">
        <ele>69.4</ele>
        <time>2020-07-03T11:22:42Z</time>
      </trkpt>
      <trkpt lat="47.30495" lon="1.08024">
        <ele>69.5</ele>
        <time>2020-07-03T11:22:43Z</time>
      </trkpt>
      <trkpt lat="47.30491" lon="1.08023">
        <ele>69.6</ele>
        <time>2020-07-03T11:22:44Z</time>
      </trkpt>
      <trkpt lat="47.30487" lon="1.08022">
        <ele>69.5</ele>
        <time>2020-07-03T11:22:45Z</time>
      </trkpt>
      <trkpt lat="47.30483" lon="1.08021">
        <ele>69.5</ele>
        <time>2020-07-03T11:22:46Z</time>
      </trkpt>
      <trkpt lat="47.30478" lon="1.0802">
        <ele>69.5</ele>
        <time>2020-07-03T11:22:47Z</time>
      </trkpt>
      <trkpt lat="47.30474" lon="1.08019">
        <ele>69.4</ele>
        <time>2020-07-03T11:22:48Z</time>
      </trkpt>
      <trkpt lat="47.30469" lon="1.08018">
        <ele>69.4</ele>
        <time>2020-07-03T11:22:49Z</time>
      </trkpt>
      <trkpt lat="47.30464" lon="1.08018">
        <ele>69.3</ele>
        <time>2020-07-03T11:22:50Z</time>
      </trkpt>
      <trkpt lat="47.30459" lon="1.08018">
        <ele>69.3</ele>
        <time>2020-07-03T11:22:51Z</time>
      </trkpt>
      <trkpt lat="47.30454" lon="1.08017">
        <ele>69.3</ele>
        <time>2020-07-03T11:22:52Z</time>
      </trkpt>
      <trkpt lat="47.30449" lon="1.08019">
        <ele>69.3</ele>
        <time>2020-07-03T11:22:53Z</time>
      </trkpt>
      <trkpt lat="47.30444" lon="1.08019">
        <ele>69.3</ele>
        <time>2020-07-03T11:22:54Z</time>
      </trkpt>
      <trkpt lat="47.30439" lon="1.08019">
        <ele>69.3</ele>
        <time>2020-07-03T11:22:55Z</time>
      </trkpt>
      <trkpt lat="47.30435" lon="1.08018">
        <ele>69.4</ele>
        <time>2020-07-03T11:22:56Z</time>
      </trkpt>
      <trkpt lat="47.30431" lon="1.08017">
        <ele>69.4</ele>
        <time>2020-07-03T11:22:57Z</time>
      </trkpt>
      <trkpt lat="47.30428" lon="1.08018">
        <ele>69.4</ele>
        <time>2020-07-03T11:22:58Z</time>
      </trkpt>
      <trkpt lat="47.30425" lon="1.08018">
        <ele>69.5</ele>
        <time>2020-07-03T11:22:59Z</time>
      </trkpt>
      <trkpt lat="47.30421" lon="1.08017">
        <ele>69.5</ele>
        <time>2020-07-03T11:23:00Z</time>
      </trkpt>
      <trkpt lat="47.3042" lon="1.08017">
        <ele>69.5</ele>
        <time>2020-07-03T11:23:01Z</time>
      </trkpt>
      <trkpt lat="47.30416" lon="1.08017">
        <ele>69.5</ele>
        <time>2020-07-03T11:23:02Z</time>
      </trkpt>
      <trkpt lat="47.30412" lon="1.08017">
        <ele>69.5</ele>
        <time>2020-07-03T11:23:03Z</time>
      </trkpt>
      <trkpt lat="47.30407" lon="1.08018">
        <ele>69.5</ele>
        <time>2020-07-03T11:23:04Z</time>
      </trkpt>
      <trkpt lat="47.30402" lon="1.08016">
        <ele>69.5</ele>
        <time>2020-07-03T11:23:05Z</time>
      </trkpt>
      <trkpt lat="47.30398" lon="1.08014">
        <ele>69.5</ele>
        <time>2020-07-03T11:23:06Z</time>
      </trkpt>
      <trkpt lat="47.30393" lon="1.08013">
        <ele>69.5</ele>
        <time>2020-07-03T11:23:07Z</time>
      </trkpt>
      <trkpt lat="47.30387" lon="1.08014">
        <ele>69.5</ele>
        <time>2020-07-03T11:23:08Z</time>
      </trkpt>
      <trkpt lat="47.30382" lon="1.08013">
        <ele>69.5</ele>
        <time>2020-07-03T11:23:09Z</time>
      </trkpt>
      <trkpt lat="47.30377" lon="1.08012">
        <ele>69.4</ele>
        <time>2020-07-03T11:23:10Z</time>
      </trkpt>
      <trkpt lat="47.30372" lon="1.08012">
        <ele>69.4</ele>
        <time>2020-07-03T11:23:11Z</time>
      </trkpt>
      <trkpt lat="47.30366" lon="1.0801">
        <ele>69.3</ele>
        <time>2020-07-03T11:23:12Z</time>
      </trkpt>
      <trkpt lat="47.30361" lon="1.08009">
        <ele>69.2</ele>
        <time>2020-07-03T11:23:13Z</time>
      </trkpt>
      <trkpt lat="47.30355" lon="1.08008">
        <ele>69.2</ele>
        <time>2020-07-03T11:23:14Z</time>
      </trkpt>
      <trkpt lat="47.3035" lon="1.08006">
        <ele>69.2</ele>
        <time>2020-07-03T11:23:15Z</time>
      </trkpt>
      <trkpt lat="47.30345" lon="1.08005">
        <ele>69.1</ele>
        <time>2020-07-03T11:23:16Z</time>
      </trkpt>
      <trkpt lat="47.30339" lon="1.08006">
        <ele>69.1</ele>
        <time>2020-07-03T11:23:17Z</time>
      </trkpt>
      <trkpt lat="47.30332" lon="1.08005">
        <ele>69</ele>
        <time>2020-07-03T11:23:18Z</time>
      </trkpt>
      <trkpt lat="47.30326" lon="1.08003">
        <ele>69</ele>
        <time>2020-07-03T11:23:19Z</time>
      </trkpt>
      <trkpt lat="47.3032" lon="1.08002">
        <ele>69</ele>
        <time>2020-07-03T11:23:20Z</time>
      </trkpt>
      <trkpt lat="47.30314" lon="1.08002">
        <ele>68.9</ele>
        <time>2020-07-03T11:23:21Z</time>
      </trkpt>
      <trkpt lat="47.30309" lon="1.07998">
        <ele>68.9</ele>
        <time>2020-07-03T11:23:22Z</time>
      </trkpt>
      <trkpt lat="47.30303" lon="1.07996">
        <ele>68.9</ele>
        <time>2020-07-03T11:23:23Z</time>
      </trkpt>
      <trkpt lat="47.30297" lon="1.07993">
        <ele>68.9</ele>
        <time>2020-07-03T11:23:24Z</time>
      </trkpt>
      <trkpt lat="47.30292" lon="1.0799">
        <ele>68.9</ele>
        <time>2020-07-03T11:23:25Z</time>
      </trkpt>
      <trkpt lat="47.30286" lon="1.07987">
        <ele>68.9</ele>
        <time>2020-07-03T11:23:26Z</time>
      </trkpt>
      <trkpt lat="47.30281" lon="1.07984">
        <ele>68.9</ele>
        <time>2020-07-03T11:23:27Z</time>
      </trkpt>
      <trkpt lat="47.30276" lon="1.07981">
        <ele>68.9</ele>
        <time>2020-07-03T11:23:28Z</time>
      </trkpt>
      <trkpt lat="47.30271" lon="1.07977">
        <ele>68.9</ele>
        <time>2020-07-03T11:23:29Z</time>
      </trkpt>
      <trkpt lat="47.30266" lon="1.07973">
        <ele>68.9</ele>
        <time>2020-07-03T11:23:30Z</time>
      </trkpt>
      <trkpt lat="47.30262" lon="1.07968">
        <ele>68.9</ele>
        <time>2020-07-03T11:23:31Z</time>
      </trkpt>
      <trkpt lat="47.30257" lon="1.07965">
        <ele>68.9</ele>
        <time>2020-07-03T11:23:32Z</time>
      </trkpt>
      <trkpt lat="47.30253" lon="1.0796">
        <ele>69</ele>
        <time>2020-07-03T11:23:33Z</time>
      </trkpt>
      <trkpt lat="47.30249" lon="1.07955">
        <ele>69</ele>
        <time>2020-07-03T11:23:34Z</time>
      </trkpt>
      <trkpt lat="47.30245" lon="1.07951">
        <ele>69</ele>
        <time>2020-07-03T11:23:35Z</time>
      </trkpt>
      <trkpt lat="47.30241" lon="1.07947">
        <ele>69</ele>
        <time>2020-07-03T11:23:36Z</time>
      </trkpt>
      <trkpt lat="47.30236" lon="1.07942">
        <ele>69.1</ele>
        <time>2020-07-03T11:23:37Z</time>
      </trkpt>
      <trkpt lat="47.30231" lon="1.07939">
        <ele>69.1</ele>
        <time>2020-07-03T11:23:38Z</time>
      </trkpt>
      <trkpt lat="47.30227" lon="1.07933">
        <ele>69.1</ele>
        <time>2020-07-03T11:23:39Z</time>
      </trkpt>
      <trkpt lat="47.30223" lon="1.07928">
        <ele>69.2</ele>
        <time>2020-07-03T11:23:40Z</time>
      </trkpt>
      <trkpt lat="47.30218" lon="1.07924">
        <ele>69.2</ele>
        <time>2020-07-03T11:23:41Z</time>
      </trkpt>
      <trkpt lat="47.30213" lon="1.07921">
        <ele>69.2</ele>
        <time>2020-07-03T11:23:42Z</time>
      </trkpt>
      <trkpt lat="47.30208" lon="1.07918">
        <ele>69.2</ele>
        <time>2020-07-03T11:23:43Z</time>
      </trkpt>
      <trkpt lat="47.30203" lon="1.07914">
        <ele>69.2</ele>
        <time>2020-07-03T11:23:44Z</time>
      </trkpt>
      <trkpt lat="47.30198" lon="1.07912">
        <ele>69.2</ele>
        <time>2020-07-03T11:23:45Z</time>
      </trkpt>
      <trkpt lat="47.30193" lon="1.07908">
        <ele>69.3</ele>
        <time>2020-07-03T11:23:46Z</time>
      </trkpt>
      <trkpt lat="47.30187" lon="1.07904">
        <ele>69.3</ele>
        <time>2020-07-03T11:23:47Z</time>
      </trkpt>
      <trkpt lat="47.30182" lon="1.07901">
        <ele>69.4</ele>
        <time>2020-07-03T11:23:48Z</time>
      </trkpt>
      <trkpt lat="47.30177" lon="1.07898">
        <ele>69.4</ele>
        <time>2020-07-03T11:23:49Z</time>
      </trkpt>
      <trkpt lat="47.30171" lon="1.07895">
        <ele>69.4</ele>
        <time>2020-07-03T11:23:50Z</time>
      </trkpt>
      <trkpt lat="47.30166" lon="1.07893">
        <ele>69.4</ele>
        <time>2020-07-03T11:23:51Z</time>
      </trkpt>
      <trkpt lat="47.30161" lon="1.0789">
        <ele>69.4</ele>
        <time>2020-07-03T11:23:52Z</time>
      </trkpt>
      <trkpt lat="47.30156" lon="1.07886">
        <ele>69.4</ele>
        <time>2020-07-03T11:23:53Z</time>
      </trkpt>
      <trkpt lat="47.30151" lon="1.07884">
        <ele>69.4</ele>
        <time>2020-07-03T11:23:54Z</time>
      </trkpt>
      <trkpt lat="47.30146" lon="1.07882">
        <ele>69.5</ele>
        <time>2020-07-03T11:23:55Z</time>
      </trkpt>
      <trkpt lat="47.30141" lon="1.07882">
        <ele>69.5</ele>
        <time>2020-07-03T11:23:56Z</time>
      </trkpt>
      <trkpt lat="47.30136" lon="1.07878">
        <ele>69.5</ele>
        <time>2020-07-03T11:23:57Z</time>
      </trkpt>
      <trkpt lat="47.30132" lon="1.07874">
        <ele>69.5</ele>
        <time>2020-07-03T11:23:58Z</time>
      </trkpt>
      <trkpt lat="47.30128" lon="1.07871">
        <ele>69.5</ele>
        <time>2020-07-03T11:23:59Z</time>
      </trkpt>
      <trkpt lat="47.30124" lon="1.07868">
        <ele>69.6</ele>
        <time>2020-07-03T11:24:00Z</time>
      </trkpt>
      <trkpt lat="47.3012" lon="1.07866">
        <ele>69.6</ele>
        <time>2020-07-03T11:24:01Z</time>
      </trkpt>
      <trkpt lat="47.30115" lon="1.07865">
        <ele>69.6</ele>
        <time>2020-07-03T11:24:02Z</time>
      </trkpt>
      <trkpt lat="47.30111" lon="1.07864">
        <ele>69.6</ele>
        <time>2020-07-03T11:24:03Z</time>
      </trkpt>
      <trkpt lat="47.30107" lon="1.0786">
        <ele>69.7</ele>
        <time>2020-07-03T11:24:04Z</time>
      </trkpt>
      <trkpt lat="47.30104" lon="1.07856">
        <ele>69.7</ele>
        <time>2020-07-03T11:24:05Z</time>
      </trkpt>
      <trkpt lat="47.301" lon="1.07853">
        <ele>69.7</ele>
        <time>2020-07-03T11:24:06Z</time>
      </trkpt>
      <trkpt lat="47.30096" lon="1.07851">
        <ele>69.7</ele>
        <time>2020-07-03T11:24:07Z</time>
      </trkpt>
      <trkpt lat="47.30093" lon="1.0785">
        <ele>69.7</ele>
        <time>2020-07-03T11:24:08Z</time>
      </trkpt>
      <trkpt lat="47.30089" lon="1.07847">
        <ele>69.8</ele>
        <time>2020-07-03T11:24:09Z</time>
      </trkpt>
      <trkpt lat="47.30085" lon="1.07845">
        <ele>69.8</ele>
        <time>2020-07-03T11:24:10Z</time>
      </trkpt>
      <trkpt lat="47.30081" lon="1.07844">
        <ele>69.8</ele>
        <time>2020-07-03T11:24:11Z</time>
      </trkpt>
      <trkpt lat="47.30077" lon="1.07843">
        <ele>69.9</ele>
        <time>2020-07-03T11:24:12Z</time>
      </trkpt>
      <trkpt lat="47.30072" lon="1.07841">
        <ele>69.9</ele>
        <time>2020-07-03T11:24:13Z</time>
      </trkpt>
      <trkpt lat="47.30068" lon="1.07839">
        <ele>70</ele>
        <time>2020-07-03T11:24:14Z</time>
      </trkpt>
      <trkpt lat="47.30063" lon="1.07838">
        <ele>70.1</ele>
        <time>2020-07-03T11:24:15Z</time>
      </trkpt>
      <trkpt lat="47.30059" lon="1.07836">
        <ele>70.1</ele>
        <time>2020-07-03T11:24:16Z</time>
      </trkpt>
      <trkpt lat="47.30054" lon="1.07835">
        <ele>70.2</ele>
        <time>2020-07-03T11:24:17Z</time>
      </trkpt>
      <trkpt lat="47.30049" lon="1.07834">
        <ele>70.3</ele>
        <time>2020-07-03T11:24:18Z</time>
      </trkpt>
      <trkpt lat="47.30045" lon="1.07834">
        <ele>70.4</ele>
        <time>2020-07-03T11:24:19Z</time>
      </trkpt>
      <trkpt lat="47.3004" lon="1.07835">
        <ele>70.5</ele>
        <time>2020-07-03T11:24:20Z</time>
      </trkpt>
      <trkpt lat="47.30034" lon="1.07835">
        <ele>70.6</ele>
        <time>2020-07-03T11:24:21Z</time>
      </trkpt>
      <trkpt lat="47.30029" lon="1.07835">
        <ele>70.6</ele>
        <time>2020-07-03T11:24:22Z</time>
      </trkpt>
      <trkpt lat="47.30024" lon="1.07836">
        <ele>70.7</ele>
        <time>2020-07-03T11:24:23Z</time>
      </trkpt>
      <trkpt lat="47.30018" lon="1.07836">
        <ele>70.8</ele>
        <time>2020-07-03T11:24:24Z</time>
      </trkpt>
      <trkpt lat="47.30013" lon="1.07836">
        <ele>71</ele>
        <time>2020-07-03T11:24:25Z</time>
      </trkpt>
      <trkpt lat="47.30008" lon="1.07836">
        <ele>71.1</ele>
        <time>2020-07-03T11:24:26Z</time>
      </trkpt>
      <trkpt lat="47.30002" lon="1.07835">
        <ele>71.2</ele>
        <time>2020-07-03T11:24:27Z</time>
      </trkpt>
      <trkpt lat="47.29995" lon="1.07834">
        <ele>71.4</ele>
        <time>2020-07-03T11:24:28Z</time>
      </trkpt>
      <trkpt lat="47.29991" lon="1.07835">
        <ele>71.5</ele>
        <time>2020-07-03T11:24:29Z</time>
      </trkpt>
      <trkpt lat="47.29984" lon="1.07834">
        <ele>71.5</ele>
        <time>2020-07-03T11:24:30Z</time>
      </trkpt>
      <trkpt lat="47.29979" lon="1.07834">
        <ele>71.6</ele>
        <time>2020-07-03T11:24:31Z</time>
      </trkpt>
      <trkpt lat="47.29974" lon="1.07836">
        <ele>71.6</ele>
        <time>2020-07-03T11:24:32Z</time>
      </trkpt>
      <trkpt lat="47.29969" lon="1.07836">
        <ele>71.6</ele>
        <time>2020-07-03T11:24:33Z</time>
      </trkpt>
      <trkpt lat="47.29964" lon="1.07838">
        <ele>71.5</ele>
        <time>2020-07-03T11:24:34Z</time>
      </trkpt>
      <trkpt lat="47.29957" lon="1.07836">
        <ele>71.5</ele>
        <time>2020-07-03T11:24:35Z</time>
      </trkpt>
      <trkpt lat="47.29951" lon="1.07838">
        <ele>71.4</ele>
        <time>2020-07-03T11:24:36Z</time>
      </trkpt>
      <trkpt lat="47.29945" lon="1.07839">
        <ele>71.3</ele>
        <time>2020-07-03T11:24:37Z</time>
      </trkpt>
      <trkpt lat="47.29938" lon="1.07841">
        <ele>71.3</ele>
        <time>2020-07-03T11:24:38Z</time>
      </trkpt>
      <trkpt lat="47.29932" lon="1.07841">
        <ele>71.2</ele>
        <time>2020-07-03T11:24:39Z</time>
      </trkpt>
      <trkpt lat="47.29925" lon="1.07841">
        <ele>71.2</ele>
        <time>2020-07-03T11:24:40Z</time>
      </trkpt>
      <trkpt lat="47.29918" lon="1.07842">
        <ele>71.1</ele>
        <time>2020-07-03T11:24:41Z</time>
      </trkpt>
      <trkpt lat="47.29913" lon="1.07842">
        <ele>71.1</ele>
        <time>2020-07-03T11:24:42Z</time>
      </trkpt>
      <trkpt lat="47.29906" lon="1.07841">
        <ele>71.1</ele>
        <time>2020-07-03T11:24:43Z</time>
      </trkpt>
      <trkpt lat="47.299" lon="1.0784">
        <ele>71.1</ele>
        <time>2020-07-03T11:24:44Z</time>
      </trkpt>
      <trkpt lat="47.29894" lon="1.07837">
        <ele>71.1</ele>
        <time>2020-07-03T11:24:45Z</time>
      </trkpt>
      <trkpt lat="47.29889" lon="1.07834">
        <ele>71.1</ele>
        <time>2020-07-03T11:24:46Z</time>
      </trkpt>
      <trkpt lat="47.29883" lon="1.07832">
        <ele>71.1</ele>
        <time>2020-07-03T11:24:47Z</time>
      </trkpt>
      <trkpt lat="47.29878" lon="1.07831">
        <ele>71.2</ele>
        <time>2020-07-03T11:24:48Z</time>
      </trkpt>
      <trkpt lat="47.29872" lon="1.07828">
        <ele>71.3</ele>
        <time>2020-07-03T11:24:49Z</time>
      </trkpt>
      <trkpt lat="47.29866" lon="1.07825">
        <ele>71.3</ele>
        <time>2020-07-03T11:24:50Z</time>
      </trkpt>
      <trkpt lat="47.2986" lon="1.07823">
        <ele>71.4</ele>
        <time>2020-07-03T11:24:51Z</time>
      </trkpt>
      <trkpt lat="47.29855" lon="1.07821">
        <ele>71.5</ele>
        <time>2020-07-03T11:24:52Z</time>
      </trkpt>
      <trkpt lat="47.29848" lon="1.07818">
        <ele>71.6</ele>
        <time>2020-07-03T11:24:53Z</time>
      </trkpt>
      <trkpt lat="47.29842" lon="1.07815">
        <ele>71.5</ele>
        <time>2020-07-03T11:24:54Z</time>
      </trkpt>
      <trkpt lat="47.29837" lon="1.07813">
        <ele>71.5</ele>
        <time>2020-07-03T11:24:55Z</time>
      </trkpt>
      <trkpt lat="47.29831" lon="1.0781">
        <ele>71.5</ele>
        <time>2020-07-03T11:24:56Z</time>
      </trkpt>
      <trkpt lat="47.29826" lon="1.07808">
        <ele>71.4</ele>
        <time>2020-07-03T11:24:57Z</time>
      </trkpt>
      <trkpt lat="47.29821" lon="1.07805">
        <ele>71.4</ele>
        <time>2020-07-03T11:24:58Z</time>
      </trkpt>
      <trkpt lat="47.29815" lon="1.078">
        <ele>71.4</ele>
        <time>2020-07-03T11:24:59Z</time>
      </trkpt>
      <trkpt lat="47.29811" lon="1.07797">
        <ele>71.4</ele>
        <time>2020-07-03T11:25:00Z</time>
      </trkpt>
      <trkpt lat="47.29805" lon="1.07792">
        <ele>71.4</ele>
        <time>2020-07-03T11:25:01Z</time>
      </trkpt>
      <trkpt lat="47.29798" lon="1.07787">
        <ele>71.4</ele>
        <time>2020-07-03T11:25:02Z</time>
      </trkpt>
      <trkpt lat="47.29792" lon="1.07783">
        <ele>71.4</ele>
        <time>2020-07-03T11:25:03Z</time>
      </trkpt>
      <trkpt lat="47.29787" lon="1.07779">
        <ele>71.4</ele>
        <time>2020-07-03T11:25:04Z</time>
      </trkpt>
      <trkpt lat="47.29782" lon="1.07774">
        <ele>71.4</ele>
        <time>2020-07-03T11:25:05Z</time>
      </trkpt>
      <trkpt lat="47.29777" lon="1.0777">
        <ele>71.4</ele>
        <time>2020-07-03T11:25:06Z</time>
      </trkpt>
      <trkpt lat="47.29772" lon="1.07767">
        <ele>71.4</ele>
        <time>2020-07-03T11:25:07Z</time>
      </trkpt>
      <trkpt lat="47.29768" lon="1.07761">
        <ele>71.4</ele>
        <time>2020-07-03T11:25:08Z</time>
      </trkpt>
      <trkpt lat="47.29763" lon="1.07757">
        <ele>71.4</ele>
        <time>2020-07-03T11:25:09Z</time>
      </trkpt>
      <trkpt lat="47.29757" lon="1.07752">
        <ele>71.4</ele>
        <time>2020-07-03T11:25:10Z</time>
      </trkpt>
      <trkpt lat="47.29752" lon="1.07748">
        <ele>71.5</ele>
        <time>2020-07-03T11:25:11Z</time>
      </trkpt>
      <trkpt lat="47.29748" lon="1.07743">
        <ele>71.5</ele>
        <time>2020-07-03T11:25:12Z</time>
      </trkpt>
      <trkpt lat="47.29744" lon="1.07733">
        <ele>71.5</ele>
        <time>2020-07-03T11:25:13Z</time>
      </trkpt>
      <trkpt lat="47.29741" lon="1.07726">
        <ele>71.6</ele>
        <time>2020-07-03T11:25:14Z</time>
      </trkpt>
      <trkpt lat="47.29739" lon="1.0772">
        <ele>71.6</ele>
        <time>2020-07-03T11:25:15Z</time>
      </trkpt>
      <trkpt lat="47.29735" lon="1.07715">
        <ele>71.6</ele>
        <time>2020-07-03T11:25:16Z</time>
      </trkpt>
      <trkpt lat="47.29731" lon="1.07708">
        <ele>71.7</ele>
        <time>2020-07-03T11:25:17Z</time>
      </trkpt>
      <trkpt lat="47.29726" lon="1.07701">
        <ele>71.7</ele>
        <time>2020-07-03T11:25:18Z</time>
      </trkpt>
      <trkpt lat="47.29721" lon="1.07696">
        <ele>71.8</ele>
        <time>2020-07-03T11:25:19Z</time>
      </trkpt>
      <trkpt lat="47.29718" lon="1.07691">
        <ele>71.9</ele>
        <time>2020-07-03T11:25:20Z</time>
      </trkpt>
      <trkpt lat="47.29714" lon="1.07687">
        <ele>71.9</ele>
        <time>2020-07-03T11:25:21Z</time>
      </trkpt>
      <trkpt lat="47.2971" lon="1.07682">
        <ele>72</ele>
        <time>2020-07-03T11:25:22Z</time>
      </trkpt>
      <trkpt lat="47.29706" lon="1.07677">
        <ele>72</ele>
        <time>2020-07-03T11:25:23Z</time>
      </trkpt>
      <trkpt lat="47.29703" lon="1.07673">
        <ele>72.1</ele>
        <time>2020-07-03T11:25:24Z</time>
      </trkpt>
      <trkpt lat="47.297" lon="1.07668">
        <ele>72.1</ele>
        <time>2020-07-03T11:25:25Z</time>
      </trkpt>
      <trkpt lat="47.29695" lon="1.07664">
        <ele>72.2</ele>
        <time>2020-07-03T11:25:26Z</time>
      </trkpt>
      <trkpt lat="47.29691" lon="1.07658">
        <ele>72.3</ele>
        <time>2020-07-03T11:25:27Z</time>
      </trkpt>
      <trkpt lat="47.29687" lon="1.07653">
        <ele>72.3</ele>
        <time>2020-07-03T11:25:28Z</time>
      </trkpt>
      <trkpt lat="47.29682" lon="1.07648">
        <ele>72.5</ele>
        <time>2020-07-03T11:25:29Z</time>
      </trkpt>
      <trkpt lat="47.29678" lon="1.07645">
        <ele>72.6</ele>
        <time>2020-07-03T11:25:30Z</time>
      </trkpt>
      <trkpt lat="47.29675" lon="1.07642">
        <ele>72.6</ele>
        <time>2020-07-03T11:25:31Z</time>
      </trkpt>
      <trkpt lat="47.29671" lon="1.07638">
        <ele>72.7</ele>
        <time>2020-07-03T11:25:32Z</time>
      </trkpt>
      <trkpt lat="47.29668" lon="1.07634">
        <ele>72.8</ele>
        <time>2020-07-03T11:25:33Z</time>
      </trkpt>
      <trkpt lat="47.29666" lon="1.07631">
        <ele>72.9</ele>
        <time>2020-07-03T11:25:34Z</time>
      </trkpt>
      <trkpt lat="47.29662" lon="1.07628">
        <ele>72.9</ele>
        <time>2020-07-03T11:25:35Z</time>
      </trkpt>
      <trkpt lat="47.29659" lon="1.07626">
        <ele>73</ele>
        <time>2020-07-03T11:25:36Z</time>
      </trkpt>
      <trkpt lat="47.29657" lon="1.07625">
        <ele>73</ele>
        <time>2020-07-03T11:25:37Z</time>
      </trkpt>
      <trkpt lat="47.29653" lon="1.07621">
        <ele>73</ele>
        <time>2020-07-03T11:25:38Z</time>
      </trkpt>
      <trkpt lat="47.29649" lon="1.07619">
        <ele>73</ele>
        <time>2020-07-03T11:25:39Z</time>
      </trkpt>
      <trkpt lat="47.29645" lon="1.07614">
        <ele>73</ele>
        <time>2020-07-03T11:25:40Z</time>
      </trkpt>
      <trkpt lat="47.29641" lon="1.07606">
        <ele>73</ele>
        <time>2020-07-03T11:25:41Z</time>
      </trkpt>
      <trkpt lat="47.29636" lon="1.07602">
        <ele>72.9</ele>
        <time>2020-07-03T11:25:42Z</time>
      </trkpt>
      <trkpt lat="47.29631" lon="1.07596">
        <ele>72.9</ele>
        <time>2020-07-03T11:25:43Z</time>
      </trkpt>
      <trkpt lat="47.29627" lon="1.07589">
        <ele>72.8</ele>
        <time>2020-07-03T11:25:44Z</time>
      </trkpt>
      <trkpt lat="47.29621" lon="1.07584">
        <ele>72.8</ele>
        <time>2020-07-03T11:25:45Z</time>
      </trkpt>
      <trkpt lat="47.29616" lon="1.0758">
        <ele>72.8</ele>
        <time>2020-07-03T11:25:46Z</time>
      </trkpt>
      <trkpt lat="47.2961" lon="1.07576">
        <ele>72.8</ele>
        <time>2020-07-03T11:25:47Z</time>
      </trkpt>
      <trkpt lat="47.29605" lon="1.07571">
        <ele>72.8</ele>
        <time>2020-07-03T11:25:48Z</time>
      </trkpt>
      <trkpt lat="47.296" lon="1.07566">
        <ele>72.8</ele>
        <time>2020-07-03T11:25:49Z</time>
      </trkpt>
      <trkpt lat="47.29595" lon="1.07561">
        <ele>72.8</ele>
        <time>2020-07-03T11:25:50Z</time>
      </trkpt>
      <trkpt lat="47.2959" lon="1.07558">
        <ele>72.7</ele>
        <time>2020-07-03T11:25:51Z</time>
      </trkpt>
      <trkpt lat="47.29585" lon="1.07553">
        <ele>72.7</ele>
        <time>2020-07-03T11:25:52Z</time>
      </trkpt>
      <trkpt lat="47.29581" lon="1.07549">
        <ele>72.7</ele>
        <time>2020-07-03T11:25:53Z</time>
      </trkpt>
      <trkpt lat="47.29576" lon="1.07544">
        <ele>72.7</ele>
        <time>2020-07-03T11:25:54Z</time>
      </trkpt>
      <trkpt lat="47.29571" lon="1.07539">
        <ele>72.7</ele>
        <time>2020-07-03T11:25:55Z</time>
      </trkpt>
      <trkpt lat="47.29567" lon="1.07537">
        <ele>72.7</ele>
        <time>2020-07-03T11:25:56Z</time>
      </trkpt>
      <trkpt lat="47.29562" lon="1.07534">
        <ele>72.7</ele>
        <time>2020-07-03T11:25:57Z</time>
      </trkpt>
      <trkpt lat="47.29557" lon="1.07531">
        <ele>72.7</ele>
        <time>2020-07-03T11:25:58Z</time>
      </trkpt>
      <trkpt lat="47.29553" lon="1.07529">
        <ele>72.8</ele>
        <time>2020-07-03T11:25:59Z</time>
      </trkpt>
      <trkpt lat="47.29548" lon="1.07527">
        <ele>72.8</ele>
        <time>2020-07-03T11:26:00Z</time>
      </trkpt>
      <trkpt lat="47.29542" lon="1.07524">
        <ele>72.9</ele>
        <time>2020-07-03T11:26:01Z</time>
      </trkpt>
      <trkpt lat="47.29536" lon="1.0752">
        <ele>73</ele>
        <time>2020-07-03T11:26:02Z</time>
      </trkpt>
      <trkpt lat="47.2953" lon="1.07516">
        <ele>73</ele>
        <time>2020-07-03T11:26:03Z</time>
      </trkpt>
      <trkpt lat="47.29524" lon="1.07513">
        <ele>73.1</ele>
        <time>2020-07-03T11:26:04Z</time>
      </trkpt>
      <trkpt lat="47.29519" lon="1.07511">
        <ele>73.2</ele>
        <time>2020-07-03T11:26:05Z</time>
      </trkpt>
      <trkpt lat="47.29514" lon="1.0751">
        <ele>73.3</ele>
        <time>2020-07-03T11:26:06Z</time>
      </trkpt>
      <trkpt lat="47.29508" lon="1.0751">
        <ele>73.5</ele>
        <time>2020-07-03T11:26:07Z</time>
      </trkpt>
      <trkpt lat="47.29502" lon="1.07509">
        <ele>73.6</ele>
        <time>2020-07-03T11:26:08Z</time>
      </trkpt>
      <trkpt lat="47.29496" lon="1.07508">
        <ele>73.8</ele>
        <time>2020-07-03T11:26:09Z</time>
      </trkpt>
      <trkpt lat="47.29491" lon="1.07507">
        <ele>73.9</ele>
        <time>2020-07-03T11:26:10Z</time>
      </trkpt>
      <trkpt lat="47.29486" lon="1.07507">
        <ele>74.1</ele>
        <time>2020-07-03T11:26:11Z</time>
      </trkpt>
      <trkpt lat="47.29481" lon="1.07507">
        <ele>74.3</ele>
        <time>2020-07-03T11:26:12Z</time>
      </trkpt>
      <trkpt lat="47.29476" lon="1.07508">
        <ele>74.4</ele>
        <time>2020-07-03T11:26:13Z</time>
      </trkpt>
      <trkpt lat="47.29471" lon="1.07508">
        <ele>74.6</ele>
        <time>2020-07-03T11:26:14Z</time>
      </trkpt>
      <trkpt lat="47.29466" lon="1.07507">
        <ele>74.8</ele>
        <time>2020-07-03T11:26:15Z</time>
      </trkpt>
      <trkpt lat="47.29462" lon="1.07506">
        <ele>74.9</ele>
        <time>2020-07-03T11:26:16Z</time>
      </trkpt>
      <trkpt lat="47.29457" lon="1.07506">
        <ele>75.1</ele>
        <time>2020-07-03T11:26:17Z</time>
      </trkpt>
      <trkpt lat="47.29453" lon="1.07506">
        <ele>75.2</ele>
        <time>2020-07-03T11:26:18Z</time>
      </trkpt>
      <trkpt lat="47.29448" lon="1.07506">
        <ele>75.4</ele>
        <time>2020-07-03T11:26:19Z</time>
      </trkpt>
      <trkpt lat="47.29445" lon="1.07505">
        <ele>75.5</ele>
        <time>2020-07-03T11:26:20Z</time>
      </trkpt>
      <trkpt lat="47.2944" lon="1.07506">
        <ele>75.7</ele>
        <time>2020-07-03T11:26:21Z</time>
      </trkpt>
      <trkpt lat="47.29435" lon="1.07506">
        <ele>75.8</ele>
        <time>2020-07-03T11:26:22Z</time>
      </trkpt>
      <trkpt lat="47.29431" lon="1.07507">
        <ele>76</ele>
        <time>2020-07-03T11:26:23Z</time>
      </trkpt>
      <trkpt lat="47.29427" lon="1.07507">
        <ele>76.1</ele>
        <time>2020-07-03T11:26:24Z</time>
      </trkpt>
      <trkpt lat="47.29423" lon="1.07507">
        <ele>76.2</ele>
        <time>2020-07-03T11:26:25Z</time>
      </trkpt>
      <trkpt lat="47.29419" lon="1.07506">
        <ele>76.3</ele>
        <time>2020-07-03T11:26:26Z</time>
      </trkpt>
      <trkpt lat="47.29415" lon="1.07505">
        <ele>76.5</ele>
        <time>2020-07-03T11:26:27Z</time>
      </trkpt>
      <trkpt lat="47.29411" lon="1.07505">
        <ele>76.6</ele>
        <time>2020-07-03T11:26:28Z</time>
      </trkpt>
      <trkpt lat="47.29405" lon="1.07503">
        <ele>76.7</ele>
        <time>2020-07-03T11:26:29Z</time>
      </trkpt>
      <trkpt lat="47.29399" lon="1.07502">
        <ele>76.7</ele>
        <time>2020-07-03T11:26:30Z</time>
      </trkpt>
      <trkpt lat="47.29394" lon="1.075">
        <ele>76.8</ele>
        <time>2020-07-03T11:26:31Z</time>
      </trkpt>
      <trkpt lat="47.29387" lon="1.075">
        <ele>76.8</ele>
        <time>2020-07-03T11:26:32Z</time>
      </trkpt>
      <trkpt lat="47.29383" lon="1.075">
        <ele>76.9</ele>
        <time>2020-07-03T11:26:33Z</time>
      </trkpt>
      <trkpt lat="47.29378" lon="1.07499">
        <ele>76.9</ele>
        <time>2020-07-03T11:26:34Z</time>
      </trkpt>
      <trkpt lat="47.29373" lon="1.07496">
        <ele>76.9</ele>
        <time>2020-07-03T11:26:35Z</time>
      </trkpt>
      <trkpt lat="47.29368" lon="1.07494">
        <ele>76.9</ele>
        <time>2020-07-03T11:26:36Z</time>
      </trkpt>
      <trkpt lat="47.29364" lon="1.07491">
        <ele>76.9</ele>
        <time>2020-07-03T11:26:37Z</time>
      </trkpt>
      <trkpt lat="47.2936" lon="1.07489">
        <ele>76.9</ele>
        <time>2020-07-03T11:26:38Z</time>
      </trkpt>
      <trkpt lat="47.29356" lon="1.07487">
        <ele>76.8</ele>
        <time>2020-07-03T11:26:39Z</time>
      </trkpt>
      <trkpt lat="47.2935" lon="1.07485">
        <ele>76.8</ele>
        <time>2020-07-03T11:26:40Z</time>
      </trkpt>
      <trkpt lat="47.29344" lon="1.07481">
        <ele>76.8</ele>
        <time>2020-07-03T11:26:41Z</time>
      </trkpt>
      <trkpt lat="47.29339" lon="1.07478">
        <ele>76.9</ele>
        <time>2020-07-03T11:26:42Z</time>
      </trkpt>
      <trkpt lat="47.29336" lon="1.07476">
        <ele>76.9</ele>
        <time>2020-07-03T11:26:43Z</time>
      </trkpt>
      <trkpt lat="47.29332" lon="1.07473">
        <ele>77</ele>
        <time>2020-07-03T11:26:44Z</time>
      </trkpt>
      <trkpt lat="47.29327" lon="1.07471">
        <ele>77</ele>
        <time>2020-07-03T11:26:45Z</time>
      </trkpt>
      <trkpt lat="47.29323" lon="1.07469">
        <ele>77.1</ele>
        <time>2020-07-03T11:26:46Z</time>
      </trkpt>
      <trkpt lat="47.29317" lon="1.07465">
        <ele>77.2</ele>
        <time>2020-07-03T11:26:47Z</time>
      </trkpt>
      <trkpt lat="47.29312" lon="1.07463">
        <ele>77.3</ele>
        <time>2020-07-03T11:26:48Z</time>
      </trkpt>
      <trkpt lat="47.29306" lon="1.07461">
        <ele>77.4</ele>
        <time>2020-07-03T11:26:49Z</time>
      </trkpt>
      <trkpt lat="47.29302" lon="1.07459">
        <ele>77.4</ele>
        <time>2020-07-03T11:26:50Z</time>
      </trkpt>
      <trkpt lat="47.29298" lon="1.07458">
        <ele>77.5</ele>
        <time>2020-07-03T11:26:51Z</time>
      </trkpt>
      <trkpt lat="47.29294" lon="1.07456">
        <ele>77.6</ele>
        <time>2020-07-03T11:26:52Z</time>
      </trkpt>
      <trkpt lat="47.2929" lon="1.07455">
        <ele>77.7</ele>
        <time>2020-07-03T11:26:53Z</time>
      </trkpt>
      <trkpt lat="47.29287" lon="1.07453">
        <ele>77.8</ele>
        <time>2020-07-03T11:26:54Z</time>
      </trkpt>
      <trkpt lat="47.29282" lon="1.0745">
        <ele>77.9</ele>
        <time>2020-07-03T11:26:55Z</time>
      </trkpt>
      <trkpt lat="47.29278" lon="1.07447">
        <ele>78</ele>
        <time>2020-07-03T11:26:56Z</time>
      </trkpt>
      <trkpt lat="47.29275" lon="1.07445">
        <ele>78.1</ele>
        <time>2020-07-03T11:26:57Z</time>
      </trkpt>
      <trkpt lat="47.2927" lon="1.07442">
        <ele>78.1</ele>
        <time>2020-07-03T11:26:58Z</time>
      </trkpt>
      <trkpt lat="47.29266" lon="1.07438">
        <ele>78.1</ele>
        <time>2020-07-03T11:26:59Z</time>
      </trkpt>
      <trkpt lat="47.29262" lon="1.07435">
        <ele>78</ele>
        <time>2020-07-03T11:27:00Z</time>
      </trkpt>
      <trkpt lat="47.29258" lon="1.07431">
        <ele>77.9</ele>
        <time>2020-07-03T11:27:01Z</time>
      </trkpt>
      <trkpt lat="47.29255" lon="1.07425">
        <ele>77.7</ele>
        <time>2020-07-03T11:27:02Z</time>
      </trkpt>
      <trkpt lat="47.29253" lon="1.07418">
        <ele>77.5</ele>
        <time>2020-07-03T11:27:03Z</time>
      </trkpt>
      <trkpt lat="47.2925" lon="1.0741">
        <ele>77.3</ele>
        <time>2020-07-03T11:27:04Z</time>
      </trkpt>
      <trkpt lat="47.29248" lon="1.07403">
        <ele>77</ele>
        <time>2020-07-03T11:27:05Z</time>
      </trkpt>
      <trkpt lat="47.29246" lon="1.07397">
        <ele>76.8</ele>
        <time>2020-07-03T11:27:06Z</time>
      </trkpt>
      <trkpt lat="47.29243" lon="1.07389">
        <ele>76.5</ele>
        <time>2020-07-03T11:27:07Z</time>
      </trkpt>
      <trkpt lat="47.29241" lon="1.07381">
        <ele>76.3</ele>
        <time>2020-07-03T11:27:08Z</time>
      </trkpt>
      <trkpt lat="47.29238" lon="1.07371">
        <ele>76</ele>
        <time>2020-07-03T11:27:09Z</time>
      </trkpt>
      <trkpt lat="47.29235" lon="1.07359">
        <ele>75.7</ele>
        <time>2020-07-03T11:27:10Z</time>
      </trkpt>
      <trkpt lat="47.29231" lon="1.07349">
        <ele>75.2</ele>
        <time>2020-07-03T11:27:11Z</time>
      </trkpt>
      <trkpt lat="47.29227" lon="1.07339">
        <ele>74.7</ele>
        <time>2020-07-03T11:27:12Z</time>
      </trkpt>
      <trkpt lat="47.29222" lon="1.07331">
        <ele>74.5</ele>
        <time>2020-07-03T11:27:13Z</time>
      </trkpt>
      <trkpt lat="47.29217" lon="1.07322">
        <ele>74.2</ele>
        <time>2020-07-03T11:27:14Z</time>
      </trkpt>
      <trkpt lat="47.29213" lon="1.07314">
        <ele>74</ele>
        <time>2020-07-03T11:27:15Z</time>
      </trkpt>
      <trkpt lat="47.29207" lon="1.07306">
        <ele>73.7</ele>
        <time>2020-07-03T11:27:16Z</time>
      </trkpt>
      <trkpt lat="47.29201" lon="1.07299">
        <ele>73.6</ele>
        <time>2020-07-03T11:27:17Z</time>
      </trkpt>
      <trkpt lat="47.29194" lon="1.07293">
        <ele>73.5</ele>
        <time>2020-07-03T11:27:18Z</time>
      </trkpt>
      <trkpt lat="47.29188" lon="1.07287">
        <ele>73.5</ele>
        <time>2020-07-03T11:27:19Z</time>
      </trkpt>
      <trkpt lat="47.29182" lon="1.07282">
        <ele>73.4</ele>
        <time>2020-07-03T11:27:20Z</time>
      </trkpt>
      <trkpt lat="47.29177" lon="1.07276">
        <ele>73.4</ele>
        <time>2020-07-03T11:27:21Z</time>
      </trkpt>
      <trkpt lat="47.29171" lon="1.0727">
        <ele>73.4</ele>
        <time>2020-07-03T11:27:22Z</time>
      </trkpt>
      <trkpt lat="47.29165" lon="1.07265">
        <ele>73.4</ele>
        <time>2020-07-03T11:27:23Z</time>
      </trkpt>
      <trkpt lat="47.29158" lon="1.07259">
        <ele>73.4</ele>
        <time>2020-07-03T11:27:24Z</time>
      </trkpt>
      <trkpt lat="47.29152" lon="1.07254">
        <ele>73.4</ele>
        <time>2020-07-03T11:27:25Z</time>
      </trkpt>
      <trkpt lat="47.29147" lon="1.07247">
        <ele>73.4</ele>
        <time>2020-07-03T11:27:26Z</time>
      </trkpt>
      <trkpt lat="47.29142" lon="1.07241">
        <ele>73.4</ele>
        <time>2020-07-03T11:27:27Z</time>
      </trkpt>
      <trkpt lat="47.29137" lon="1.07235">
        <ele>73.4</ele>
        <time>2020-07-03T11:27:28Z</time>
      </trkpt>
      <trkpt lat="47.29132" lon="1.07229">
        <ele>73.4</ele>
        <time>2020-07-03T11:27:29Z</time>
      </trkpt>
      <trkpt lat="47.29127" lon="1.07222">
        <ele>73.4</ele>
        <time>2020-07-03T11:27:30Z</time>
      </trkpt>
      <trkpt lat="47.29121" lon="1.07217">
        <ele>73.4</ele>
        <time>2020-07-03T11:27:31Z</time>
      </trkpt>
      <trkpt lat="47.29116" lon="1.07211">
        <ele>73.4</ele>
        <time>2020-07-03T11:27:32Z</time>
      </trkpt>
      <trkpt lat="47.2911" lon="1.07205">
        <ele>73.5</ele>
        <time>2020-07-03T11:27:33Z</time>
      </trkpt>
      <trkpt lat="47.29104" lon="1.072">
        <ele>73.5</ele>
        <time>2020-07-03T11:27:34Z</time>
      </trkpt>
      <trkpt lat="47.29098" lon="1.07196">
        <ele>73.5</ele>
        <time>2020-07-03T11:27:35Z</time>
      </trkpt>
      <trkpt lat="47.29093" lon="1.07191">
        <ele>73.6</ele>
        <time>2020-07-03T11:27:36Z</time>
      </trkpt>
      <trkpt lat="47.29087" lon="1.07187">
        <ele>73.6</ele>
        <time>2020-07-03T11:27:37Z</time>
      </trkpt>
      <trkpt lat="47.29081" lon="1.07183">
        <ele>73.6</ele>
        <time>2020-07-03T11:27:38Z</time>
      </trkpt>
      <trkpt lat="47.29075" lon="1.0718">
        <ele>73.6</ele>
        <time>2020-07-03T11:27:39Z</time>
      </trkpt>
      <trkpt lat="47.29069" lon="1.07176">
        <ele>73.7</ele>
        <time>2020-07-03T11:27:40Z</time>
      </trkpt>
      <trkpt lat="47.29063" lon="1.07173">
        <ele>73.7</ele>
        <time>2020-07-03T11:27:41Z</time>
      </trkpt>
      <trkpt lat="47.29057" lon="1.07169">
        <ele>73.8</ele>
        <time>2020-07-03T11:27:42Z</time>
      </trkpt>
      <trkpt lat="47.29051" lon="1.07165">
        <ele>73.8</ele>
        <time>2020-07-03T11:27:43Z</time>
      </trkpt>
      <trkpt lat="47.29046" lon="1.07161">
        <ele>73.9</ele>
        <time>2020-07-03T11:27:44Z</time>
      </trkpt>
      <trkpt lat="47.2904" lon="1.07157">
        <ele>73.9</ele>
        <time>2020-07-03T11:27:45Z</time>
      </trkpt>
      <trkpt lat="47.29036" lon="1.07152">
        <ele>74</ele>
        <time>2020-07-03T11:27:46Z</time>
      </trkpt>
      <trkpt lat="47.29032" lon="1.07147">
        <ele>74</ele>
        <time>2020-07-03T11:27:47Z</time>
      </trkpt>
      <trkpt lat="47.29028" lon="1.07142">
        <ele>74</ele>
        <time>2020-07-03T11:27:48Z</time>
      </trkpt>
      <trkpt lat="47.29024" lon="1.07136">
        <ele>74.1</ele>
        <time>2020-07-03T11:27:49Z</time>
      </trkpt>
      <trkpt lat="47.29019" lon="1.07129">
        <ele>74.1</ele>
        <time>2020-07-03T11:27:50Z</time>
      </trkpt>
      <trkpt lat="47.29015" lon="1.0712">
        <ele>74.1</ele>
        <time>2020-07-03T11:27:51Z</time>
      </trkpt>
      <trkpt lat="47.29012" lon="1.07113">
        <ele>74.1</ele>
        <time>2020-07-03T11:27:52Z</time>
      </trkpt>
      <trkpt lat="47.29009" lon="1.07106">
        <ele>74</ele>
        <time>2020-07-03T11:27:53Z</time>
      </trkpt>
      <trkpt lat="47.29006" lon="1.07099">
        <ele>74</ele>
        <time>2020-07-03T11:27:54Z</time>
      </trkpt>
      <trkpt lat="47.29" lon="1.07094">
        <ele>74</ele>
        <time>2020-07-03T11:27:55Z</time>
      </trkpt>
      <trkpt lat="47.28995" lon="1.07087">
        <ele>74</ele>
        <time>2020-07-03T11:27:56Z</time>
      </trkpt>
      <trkpt lat="47.2899" lon="1.07082">
        <ele>74</ele>
        <time>2020-07-03T11:27:57Z</time>
      </trkpt>
      <trkpt lat="47.28983" lon="1.07072">
        <ele>74</ele>
        <time>2020-07-03T11:27:58Z</time>
      </trkpt>
      <trkpt lat="47.28979" lon="1.07066">
        <ele>74</ele>
        <time>2020-07-03T11:27:59Z</time>
      </trkpt>
      <trkpt lat="47.28973" lon="1.07061">
        <ele>74</ele>
        <time>2020-07-03T11:28:00Z</time>
      </trkpt>
      <trkpt lat="47.28968" lon="1.07055">
        <ele>74.1</ele>
        <time>2020-07-03T11:28:01Z</time>
      </trkpt>
      <trkpt lat="47.28963" lon="1.07049">
        <ele>74.1</ele>
        <time>2020-07-03T11:28:02Z</time>
      </trkpt>
      <trkpt lat="47.28959" lon="1.07042">
        <ele>74.1</ele>
        <time>2020-07-03T11:28:03Z</time>
      </trkpt>
      <trkpt lat="47.28954" lon="1.07035">
        <ele>74.1</ele>
        <time>2020-07-03T11:28:04Z</time>
      </trkpt>
      <trkpt lat="47.2895" lon="1.0703">
        <ele>74.1</ele>
        <time>2020-07-03T11:28:05Z</time>
      </trkpt>
      <trkpt lat="47.28945" lon="1.07025">
        <ele>74.1</ele>
        <time>2020-07-03T11:28:06Z</time>
      </trkpt>
      <trkpt lat="47.2894" lon="1.0702">
        <ele>74.1</ele>
        <time>2020-07-03T11:28:07Z</time>
      </trkpt>
      <trkpt lat="47.28933" lon="1.07015">
        <ele>74.1</ele>
        <time>2020-07-03T11:28:08Z</time>
      </trkpt>
      <trkpt lat="47.28927" lon="1.07009">
        <ele>74.1</ele>
        <time>2020-07-03T11:28:09Z</time>
      </trkpt>
      <trkpt lat="47.28921" lon="1.07005">
        <ele>74.1</ele>
        <time>2020-07-03T11:28:10Z</time>
      </trkpt>
      <trkpt lat="47.28916" lon="1.07002">
        <ele>74.1</ele>
        <time>2020-07-03T11:28:11Z</time>
      </trkpt>
      <trkpt lat="47.28911" lon="1.06999">
        <ele>74.1</ele>
        <time>2020-07-03T11:28:12Z</time>
      </trkpt>
      <trkpt lat="47.28907" lon="1.06996">
        <ele>74.1</ele>
        <time>2020-07-03T11:28:13Z</time>
      </trkpt>
      <trkpt lat="47.28901" lon="1.06992">
        <ele>74.1</ele>
        <time>2020-07-03T11:28:14Z</time>
      </trkpt>
      <trkpt lat="47.28896" lon="1.06987">
        <ele>74.1</ele>
        <time>2020-07-03T11:28:15Z</time>
      </trkpt>
      <trkpt lat="47.2889" lon="1.06983">
        <ele>74.1</ele>
        <time>2020-07-03T11:28:16Z</time>
      </trkpt>
      <trkpt lat="47.28884" lon="1.06978">
        <ele>74.1</ele>
        <time>2020-07-03T11:28:17Z</time>
      </trkpt>
      <trkpt lat="47.28878" lon="1.06973">
        <ele>74.1</ele>
        <time>2020-07-03T11:28:18Z</time>
      </trkpt>
      <trkpt lat="47.28873" lon="1.0697">
        <ele>74.1</ele>
        <time>2020-07-03T11:28:19Z</time>
      </trkpt>
      <trkpt lat="47.28868" lon="1.06966">
        <ele>74.2</ele>
        <time>2020-07-03T11:28:20Z</time>
      </trkpt>
      <trkpt lat="47.28863" lon="1.06962">
        <ele>74.2</ele>
        <time>2020-07-03T11:28:21Z</time>
      </trkpt>
      <trkpt lat="47.28859" lon="1.06958">
        <ele>74.2</ele>
        <time>2020-07-03T11:28:22Z</time>
      </trkpt>
      <trkpt lat="47.28854" lon="1.06953">
        <ele>74.2</ele>
        <time>2020-07-03T11:28:23Z</time>
      </trkpt>
      <trkpt lat="47.28849" lon="1.06948">
        <ele>74.3</ele>
        <time>2020-07-03T11:28:24Z</time>
      </trkpt>
      <trkpt lat="47.28844" lon="1.06945">
        <ele>74.3</ele>
        <time>2020-07-03T11:28:25Z</time>
      </trkpt>
      <trkpt lat="47.28839" lon="1.06941">
        <ele>74.3</ele>
        <time>2020-07-03T11:28:26Z</time>
      </trkpt>
      <trkpt lat="47.28835" lon="1.06938">
        <ele>74.3</ele>
        <time>2020-07-03T11:28:27Z</time>
      </trkpt>
      <trkpt lat="47.28831" lon="1.06933">
        <ele>74.3</ele>
        <time>2020-07-03T11:28:28Z</time>
      </trkpt>
      <trkpt lat="47.28826" lon="1.0693">
        <ele>74.3</ele>
        <time>2020-07-03T11:28:29Z</time>
      </trkpt>
      <trkpt lat="47.28821" lon="1.06925">
        <ele>74.3</ele>
        <time>2020-07-03T11:28:30Z</time>
      </trkpt>
      <trkpt lat="47.28816" lon="1.06921">
        <ele>74.4</ele>
        <time>2020-07-03T11:28:31Z</time>
      </trkpt>
      <trkpt lat="47.28811" lon="1.06916">
        <ele>74.4</ele>
        <time>2020-07-03T11:28:32Z</time>
      </trkpt>
      <trkpt lat="47.28804" lon="1.06912">
        <ele>74.4</ele>
        <time>2020-07-03T11:28:33Z</time>
      </trkpt>
      <trkpt lat="47.28799" lon="1.06907">
        <ele>74.4</ele>
        <time>2020-07-03T11:28:34Z</time>
      </trkpt>
      <trkpt lat="47.28793" lon="1.06902">
        <ele>74.4</ele>
        <time>2020-07-03T11:28:35Z</time>
      </trkpt>
      <trkpt lat="47.28786" lon="1.06897">
        <ele>74.4</ele>
        <time>2020-07-03T11:28:36Z</time>
      </trkpt>
      <trkpt lat="47.28781" lon="1.06893">
        <ele>74.4</ele>
        <time>2020-07-03T11:28:37Z</time>
      </trkpt>
      <trkpt lat="47.28777" lon="1.06889">
        <ele>74.4</ele>
        <time>2020-07-03T11:28:38Z</time>
      </trkpt>
      <trkpt lat="47.28772" lon="1.06886">
        <ele>74.5</ele>
        <time>2020-07-03T11:28:39Z</time>
      </trkpt>
      <trkpt lat="47.28767" lon="1.06882">
        <ele>74.5</ele>
        <time>2020-07-03T11:28:40Z</time>
      </trkpt>
      <trkpt lat="47.28764" lon="1.06878">
        <ele>74.6</ele>
        <time>2020-07-03T11:28:41Z</time>
      </trkpt>
      <trkpt lat="47.28759" lon="1.06874">
        <ele>74.6</ele>
        <time>2020-07-03T11:28:42Z</time>
      </trkpt>
      <trkpt lat="47.28755" lon="1.0687">
        <ele>74.7</ele>
        <time>2020-07-03T11:28:43Z</time>
      </trkpt>
      <trkpt lat="47.28751" lon="1.06867">
        <ele>74.7</ele>
        <time>2020-07-03T11:28:44Z</time>
      </trkpt>
      <trkpt lat="47.28743" lon="1.06863">
        <ele>74.8</ele>
        <time>2020-07-03T11:28:45Z</time>
      </trkpt>
      <trkpt lat="47.28737" lon="1.0686">
        <ele>74.9</ele>
        <time>2020-07-03T11:28:46Z</time>
      </trkpt>
      <trkpt lat="47.28731" lon="1.06857">
        <ele>74.9</ele>
        <time>2020-07-03T11:28:47Z</time>
      </trkpt>
      <trkpt lat="47.28725" lon="1.06854">
        <ele>75</ele>
        <time>2020-07-03T11:28:48Z</time>
      </trkpt>
      <trkpt lat="47.2872" lon="1.06852">
        <ele>75</ele>
        <time>2020-07-03T11:28:49Z</time>
      </trkpt>
      <trkpt lat="47.28715" lon="1.06848">
        <ele>75.1</ele>
        <time>2020-07-03T11:28:50Z</time>
      </trkpt>
      <trkpt lat="47.2871" lon="1.06846">
        <ele>75.1</ele>
        <time>2020-07-03T11:28:51Z</time>
      </trkpt>
      <trkpt lat="47.28706" lon="1.06843">
        <ele>75.1</ele>
        <time>2020-07-03T11:28:52Z</time>
      </trkpt>
      <trkpt lat="47.28701" lon="1.0684">
        <ele>75.1</ele>
        <time>2020-07-03T11:28:53Z</time>
      </trkpt>
      <trkpt lat="47.28694" lon="1.06839">
        <ele>75.1</ele>
        <time>2020-07-03T11:28:54Z</time>
      </trkpt>
      <trkpt lat="47.28689" lon="1.06837">
        <ele>75.1</ele>
        <time>2020-07-03T11:28:55Z</time>
      </trkpt>
      <trkpt lat="47.28684" lon="1.06835">
        <ele>75.1</ele>
        <time>2020-07-03T11:28:56Z</time>
      </trkpt>
      <trkpt lat="47.28678" lon="1.06832">
        <ele>75.1</ele>
        <time>2020-07-03T11:28:57Z</time>
      </trkpt>
      <trkpt lat="47.28672" lon="1.06828">
        <ele>75.2</ele>
        <time>2020-07-03T11:28:58Z</time>
      </trkpt>
      <trkpt lat="47.28665" lon="1.06824">
        <ele>75.2</ele>
        <time>2020-07-03T11:28:59Z</time>
      </trkpt>
      <trkpt lat="47.28657" lon="1.0682">
        <ele>75.2</ele>
        <time>2020-07-03T11:29:00Z</time>
      </trkpt>
      <trkpt lat="47.28651" lon="1.06817">
        <ele>75.3</ele>
        <time>2020-07-03T11:29:01Z</time>
      </trkpt>
      <trkpt lat="47.28645" lon="1.06814">
        <ele>75.3</ele>
        <time>2020-07-03T11:29:02Z</time>
      </trkpt>
      <trkpt lat="47.28639" lon="1.06813">
        <ele>75.3</ele>
        <time>2020-07-03T11:29:03Z</time>
      </trkpt>
      <trkpt lat="47.28634" lon="1.0681">
        <ele>75.3</ele>
        <time>2020-07-03T11:29:04Z</time>
      </trkpt>
      <trkpt lat="47.2863" lon="1.06806">
        <ele>75.3</ele>
        <time>2020-07-03T11:29:05Z</time>
      </trkpt>
      <trkpt lat="47.28626" lon="1.06802">
        <ele>75.3</ele>
        <time>2020-07-03T11:29:06Z</time>
      </trkpt>
      <trkpt lat="47.28621" lon="1.06799">
        <ele>75.3</ele>
        <time>2020-07-03T11:29:07Z</time>
      </trkpt>
      <trkpt lat="47.28617" lon="1.06795">
        <ele>75.3</ele>
        <time>2020-07-03T11:29:08Z</time>
      </trkpt>
      <trkpt lat="47.28612" lon="1.0679">
        <ele>75.3</ele>
        <time>2020-07-03T11:29:09Z</time>
      </trkpt>
      <trkpt lat="47.28606" lon="1.06786">
        <ele>75.3</ele>
        <time>2020-07-03T11:29:10Z</time>
      </trkpt>
      <trkpt lat="47.286" lon="1.06784">
        <ele>75.3</ele>
        <time>2020-07-03T11:29:11Z</time>
      </trkpt>
      <trkpt lat="47.28594" lon="1.0678">
        <ele>75.3</ele>
        <time>2020-07-03T11:29:12Z</time>
      </trkpt>
      <trkpt lat="47.28587" lon="1.06777">
        <ele>75.3</ele>
        <time>2020-07-03T11:29:13Z</time>
      </trkpt>
      <trkpt lat="47.28582" lon="1.06775">
        <ele>75.2</ele>
        <time>2020-07-03T11:29:14Z</time>
      </trkpt>
      <trkpt lat="47.28577" lon="1.06772">
        <ele>75.2</ele>
        <time>2020-07-03T11:29:15Z</time>
      </trkpt>
      <trkpt lat="47.28573" lon="1.06769">
        <ele>75.2</ele>
        <time>2020-07-03T11:29:16Z</time>
      </trkpt>
      <trkpt lat="47.28567" lon="1.06766">
        <ele>75.2</ele>
        <time>2020-07-03T11:29:17Z</time>
      </trkpt>
      <trkpt lat="47.28562" lon="1.06763">
        <ele>75.2</ele>
        <time>2020-07-03T11:29:18Z</time>
      </trkpt>
      <trkpt lat="47.28556" lon="1.06759">
        <ele>75.2</ele>
        <time>2020-07-03T11:29:19Z</time>
      </trkpt>
      <trkpt lat="47.28551" lon="1.06755">
        <ele>75.3</ele>
        <time>2020-07-03T11:29:20Z</time>
      </trkpt>
      <trkpt lat="47.28545" lon="1.06751">
        <ele>75.3</ele>
        <time>2020-07-03T11:29:21Z</time>
      </trkpt>
      <trkpt lat="47.28539" lon="1.06747">
        <ele>75.4</ele>
        <time>2020-07-03T11:29:22Z</time>
      </trkpt>
      <trkpt lat="47.28534" lon="1.06744">
        <ele>75.4</ele>
        <time>2020-07-03T11:29:23Z</time>
      </trkpt>
      <trkpt lat="47.2853" lon="1.06742">
        <ele>75.4</ele>
        <time>2020-07-03T11:29:24Z</time>
      </trkpt>
      <trkpt lat="47.28524" lon="1.06738">
        <ele>75.5</ele>
        <time>2020-07-03T11:29:25Z</time>
      </trkpt>
      <trkpt lat="47.28516" lon="1.06735">
        <ele>75.5</ele>
        <time>2020-07-03T11:29:26Z</time>
      </trkpt>
      <trkpt lat="47.2851" lon="1.06733">
        <ele>75.5</ele>
        <time>2020-07-03T11:29:27Z</time>
      </trkpt>
      <trkpt lat="47.28504" lon="1.0673">
        <ele>75.5</ele>
        <time>2020-07-03T11:29:28Z</time>
      </trkpt>
      <trkpt lat="47.28499" lon="1.06725">
        <ele>75.4</ele>
        <time>2020-07-03T11:29:29Z</time>
      </trkpt>
      <trkpt lat="47.28493" lon="1.06718">
        <ele>75.4</ele>
        <time>2020-07-03T11:29:30Z</time>
      </trkpt>
      <trkpt lat="47.28488" lon="1.06711">
        <ele>75.5</ele>
        <time>2020-07-03T11:29:31Z</time>
      </trkpt>
      <trkpt lat="47.28484" lon="1.06707">
        <ele>75.5</ele>
        <time>2020-07-03T11:29:32Z</time>
      </trkpt>
      <trkpt lat="47.2848" lon="1.06702">
        <ele>75.6</ele>
        <time>2020-07-03T11:29:33Z</time>
      </trkpt>
      <trkpt lat="47.28476" lon="1.06696">
        <ele>75.7</ele>
        <time>2020-07-03T11:29:34Z</time>
      </trkpt>
      <trkpt lat="47.28474" lon="1.06692">
        <ele>75.7</ele>
        <time>2020-07-03T11:29:35Z</time>
      </trkpt>
      <trkpt lat="47.28471" lon="1.06685">
        <ele>75.8</ele>
        <time>2020-07-03T11:29:36Z</time>
      </trkpt>
      <trkpt lat="47.28468" lon="1.06678">
        <ele>75.9</ele>
        <time>2020-07-03T11:29:37Z</time>
      </trkpt>
      <trkpt lat="47.28465" lon="1.06671">
        <ele>75.9</ele>
        <time>2020-07-03T11:29:38Z</time>
      </trkpt>
      <trkpt lat="47.28462" lon="1.06665">
        <ele>76</ele>
        <time>2020-07-03T11:29:39Z</time>
      </trkpt>
      <trkpt lat="47.2846" lon="1.06661">
        <ele>76</ele>
        <time>2020-07-03T11:29:40Z</time>
      </trkpt>
      <trkpt lat="47.28456" lon="1.06653">
        <ele>76.1</ele>
        <time>2020-07-03T11:29:41Z</time>
      </trkpt>
      <trkpt lat="47.28453" lon="1.06645">
        <ele>76.1</ele>
        <time>2020-07-03T11:29:42Z</time>
      </trkpt>
      <trkpt lat="47.2845" lon="1.06637">
        <ele>76.1</ele>
        <time>2020-07-03T11:29:43Z</time>
      </trkpt>
      <trkpt lat="47.28447" lon="1.06629">
        <ele>76.2</ele>
        <time>2020-07-03T11:29:44Z</time>
      </trkpt>
      <trkpt lat="47.28444" lon="1.06622">
        <ele>76.2</ele>
        <time>2020-07-03T11:29:45Z</time>
      </trkpt>
      <trkpt lat="47.2844" lon="1.06616">
        <ele>76.3</ele>
        <time>2020-07-03T11:29:46Z</time>
      </trkpt>
      <trkpt lat="47.28437" lon="1.0661">
        <ele>76.3</ele>
        <time>2020-07-03T11:29:47Z</time>
      </trkpt>
      <trkpt lat="47.28435" lon="1.06605">
        <ele>76.4</ele>
        <time>2020-07-03T11:29:48Z</time>
      </trkpt>
      <trkpt lat="47.28432" lon="1.06598">
        <ele>76.4</ele>
        <time>2020-07-03T11:29:49Z</time>
      </trkpt>
      <trkpt lat="47.28428" lon="1.06592">
        <ele>76.5</ele>
        <time>2020-07-03T11:29:50Z</time>
      </trkpt>
      <trkpt lat="47.28424" lon="1.06586">
        <ele>76.6</ele>
        <time>2020-07-03T11:29:51Z</time>
      </trkpt>
      <trkpt lat="47.2842" lon="1.06581">
        <ele>76.8</ele>
        <time>2020-07-03T11:29:52Z</time>
      </trkpt>
      <trkpt lat="47.28416" lon="1.06574">
        <ele>76.9</ele>
        <time>2020-07-03T11:29:53Z</time>
      </trkpt>
      <trkpt lat="47.28412" lon="1.06567">
        <ele>77</ele>
        <time>2020-07-03T11:29:54Z</time>
      </trkpt>
      <trkpt lat="47.28407" lon="1.06563">
        <ele>77.1</ele>
        <time>2020-07-03T11:29:55Z</time>
      </trkpt>
      <trkpt lat="47.28404" lon="1.06558">
        <ele>77.2</ele>
        <time>2020-07-03T11:29:56Z</time>
      </trkpt>
      <trkpt lat="47.28401" lon="1.06553">
        <ele>77.2</ele>
        <time>2020-07-03T11:29:57Z</time>
      </trkpt>
      <trkpt lat="47.28397" lon="1.06548">
        <ele>77.3</ele>
        <time>2020-07-03T11:29:58Z</time>
      </trkpt>
      <trkpt lat="47.28393" lon="1.06544">
        <ele>77.4</ele>
        <time>2020-07-03T11:29:59Z</time>
      </trkpt>
      <trkpt lat="47.28388" lon="1.06537">
        <ele>77.5</ele>
        <time>2020-07-03T11:30:00Z</time>
      </trkpt>
      <trkpt lat="47.28383" lon="1.0653">
        <ele>77.5</ele>
        <time>2020-07-03T11:30:01Z</time>
      </trkpt>
      <trkpt lat="47.28378" lon="1.06525">
        <ele>77.6</ele>
        <time>2020-07-03T11:30:02Z</time>
      </trkpt>
      <trkpt lat="47.28371" lon="1.06522">
        <ele>77.6</ele>
        <time>2020-07-03T11:30:03Z</time>
      </trkpt>
      <trkpt lat="47.28366" lon="1.06516">
        <ele>77.6</ele>
        <time>2020-07-03T11:30:04Z</time>
      </trkpt>
      <trkpt lat="47.2836" lon="1.06511">
        <ele>77.6</ele>
        <time>2020-07-03T11:30:05Z</time>
      </trkpt>
      <trkpt lat="47.28355" lon="1.06506">
        <ele>77.7</ele>
        <time>2020-07-03T11:30:06Z</time>
      </trkpt>
      <trkpt lat="47.28352" lon="1.06504">
        <ele>77.7</ele>
        <time>2020-07-03T11:30:07Z</time>
      </trkpt>
      <trkpt lat="47.28348" lon="1.06501">
        <ele>77.8</ele>
        <time>2020-07-03T11:30:08Z</time>
      </trkpt>
      <trkpt lat="47.28343" lon="1.06495">
        <ele>77.8</ele>
        <time>2020-07-03T11:30:09Z</time>
      </trkpt>
      <trkpt lat="47.28339" lon="1.06489">
        <ele>77.9</ele>
        <time>2020-07-03T11:30:10Z</time>
      </trkpt>
      <trkpt lat="47.28335" lon="1.06485">
        <ele>77.9</ele>
        <time>2020-07-03T11:30:11Z</time>
      </trkpt>
      <trkpt lat="47.2833" lon="1.06481">
        <ele>77.9</ele>
        <time>2020-07-03T11:30:12Z</time>
      </trkpt>
      <trkpt lat="47.28326" lon="1.06476">
        <ele>78</ele>
        <time>2020-07-03T11:30:13Z</time>
      </trkpt>
      <trkpt lat="47.28321" lon="1.06472">
        <ele>78</ele>
        <time>2020-07-03T11:30:14Z</time>
      </trkpt>
      <trkpt lat="47.28317" lon="1.06467">
        <ele>78</ele>
        <time>2020-07-03T11:30:15Z</time>
      </trkpt>
      <trkpt lat="47.28313" lon="1.06463">
        <ele>78.1</ele>
        <time>2020-07-03T11:30:16Z</time>
      </trkpt>
      <trkpt lat="47.28309" lon="1.06458">
        <ele>78.1</ele>
        <time>2020-07-03T11:30:17Z</time>
      </trkpt>
      <trkpt lat="47.28304" lon="1.06453">
        <ele>78</ele>
        <time>2020-07-03T11:30:18Z</time>
      </trkpt>
      <trkpt lat="47.283" lon="1.06449">
        <ele>77.9</ele>
        <time>2020-07-03T11:30:19Z</time>
      </trkpt>
      <trkpt lat="47.28295" lon="1.06444">
        <ele>77.8</ele>
        <time>2020-07-03T11:30:20Z</time>
      </trkpt>
      <trkpt lat="47.28291" lon="1.0644">
        <ele>77.8</ele>
        <time>2020-07-03T11:30:21Z</time>
      </trkpt>
      <trkpt lat="47.28286" lon="1.06436">
        <ele>77.7</ele>
        <time>2020-07-03T11:30:22Z</time>
      </trkpt>
      <trkpt lat="47.28282" lon="1.0643">
        <ele>77.6</ele>
        <time>2020-07-03T11:30:23Z</time>
      </trkpt>
      <trkpt lat="47.28278" lon="1.06424">
        <ele>77.5</ele>
        <time>2020-07-03T11:30:24Z</time>
      </trkpt>
      <trkpt lat="47.28273" lon="1.06419">
        <ele>77.4</ele>
        <time>2020-07-03T11:30:25Z</time>
      </trkpt>
      <trkpt lat="47.28269" lon="1.06414">
        <ele>77.3</ele>
        <time>2020-07-03T11:30:26Z</time>
      </trkpt>
      <trkpt lat="47.28264" lon="1.0641">
        <ele>77.2</ele>
        <time>2020-07-03T11:30:27Z</time>
      </trkpt>
      <trkpt lat="47.2826" lon="1.06405">
        <ele>77.1</ele>
        <time>2020-07-03T11:30:28Z</time>
      </trkpt>
      <trkpt lat="47.28255" lon="1.06399">
        <ele>77</ele>
        <time>2020-07-03T11:30:29Z</time>
      </trkpt>
      <trkpt lat="47.28251" lon="1.06392">
        <ele>76.9</ele>
        <time>2020-07-03T11:30:30Z</time>
      </trkpt>
      <trkpt lat="47.28246" lon="1.06386">
        <ele>76.9</ele>
        <time>2020-07-03T11:30:31Z</time>
      </trkpt>
      <trkpt lat="47.28242" lon="1.0638">
        <ele>76.8</ele>
        <time>2020-07-03T11:30:32Z</time>
      </trkpt>
      <trkpt lat="47.28237" lon="1.06373">
        <ele>76.7</ele>
        <time>2020-07-03T11:30:33Z</time>
      </trkpt>
      <trkpt lat="47.28233" lon="1.06366">
        <ele>76.5</ele>
        <time>2020-07-03T11:30:34Z</time>
      </trkpt>
      <trkpt lat="47.28228" lon="1.06359">
        <ele>76.4</ele>
        <time>2020-07-03T11:30:35Z</time>
      </trkpt>
      <trkpt lat="47.28223" lon="1.06352">
        <ele>76.3</ele>
        <time>2020-07-03T11:30:36Z</time>
      </trkpt>
      <trkpt lat="47.28219" lon="1.06344">
        <ele>76.1</ele>
        <time>2020-07-03T11:30:37Z</time>
      </trkpt>
      <trkpt lat="47.28215" lon="1.06337">
        <ele>76</ele>
        <time>2020-07-03T11:30:38Z</time>
      </trkpt>
      <trkpt lat="47.2821" lon="1.0633">
        <ele>76</ele>
        <time>2020-07-03T11:30:39Z</time>
      </trkpt>
      <trkpt lat="47.28207" lon="1.06321">
        <ele>75.9</ele>
        <time>2020-07-03T11:30:40Z</time>
      </trkpt>
      <trkpt lat="47.28203" lon="1.06313">
        <ele>75.9</ele>
        <time>2020-07-03T11:30:41Z</time>
      </trkpt>
      <trkpt lat="47.28199" lon="1.06306">
        <ele>75.9</ele>
        <time>2020-07-03T11:30:42Z</time>
      </trkpt>
      <trkpt lat="47.28196" lon="1.06298">
        <ele>75.8</ele>
        <time>2020-07-03T11:30:43Z</time>
      </trkpt>
      <trkpt lat="47.28193" lon="1.06292">
        <ele>75.8</ele>
        <time>2020-07-03T11:30:44Z</time>
      </trkpt>
      <trkpt lat="47.2819" lon="1.06285">
        <ele>75.8</ele>
        <time>2020-07-03T11:30:45Z</time>
      </trkpt>
      <trkpt lat="47.28187" lon="1.06278">
        <ele>75.8</ele>
        <time>2020-07-03T11:30:46Z</time>
      </trkpt>
      <trkpt lat="47.28183" lon="1.06271">
        <ele>75.8</ele>
        <time>2020-07-03T11:30:47Z</time>
      </trkpt>
      <trkpt lat="47.2818" lon="1.06263">
        <ele>75.8</ele>
        <time>2020-07-03T11:30:48Z</time>
      </trkpt>
      <trkpt lat="47.28176" lon="1.06256">
        <ele>75.9</ele>
        <time>2020-07-03T11:30:49Z</time>
      </trkpt>
      <trkpt lat="47.28173" lon="1.0625">
        <ele>75.9</ele>
        <time>2020-07-03T11:30:50Z</time>
      </trkpt>
      <trkpt lat="47.28169" lon="1.06243">
        <ele>76</ele>
        <time>2020-07-03T11:30:51Z</time>
      </trkpt>
      <trkpt lat="47.28166" lon="1.06235">
        <ele>76</ele>
        <time>2020-07-03T11:30:52Z</time>
      </trkpt>
      <trkpt lat="47.28162" lon="1.06228">
        <ele>76.1</ele>
        <time>2020-07-03T11:30:53Z</time>
      </trkpt>
      <trkpt lat="47.28159" lon="1.06221">
        <ele>76.2</ele>
        <time>2020-07-03T11:30:54Z</time>
      </trkpt>
      <trkpt lat="47.28155" lon="1.06215">
        <ele>76.4</ele>
        <time>2020-07-03T11:30:55Z</time>
      </trkpt>
      <trkpt lat="47.28151" lon="1.06209">
        <ele>76.6</ele>
        <time>2020-07-03T11:30:56Z</time>
      </trkpt>
      <trkpt lat="47.28146" lon="1.06203">
        <ele>76.8</ele>
        <time>2020-07-03T11:30:57Z</time>
      </trkpt>
      <trkpt lat="47.28143" lon="1.06196">
        <ele>77</ele>
        <time>2020-07-03T11:30:58Z</time>
      </trkpt>
      <trkpt lat="47.28139" lon="1.0619">
        <ele>77.1</ele>
        <time>2020-07-03T11:30:59Z</time>
      </trkpt>
      <trkpt lat="47.28136" lon="1.06184">
        <ele>77.2</ele>
        <time>2020-07-03T11:31:00Z</time>
      </trkpt>
      <trkpt lat="47.28131" lon="1.06178">
        <ele>77.4</ele>
        <time>2020-07-03T11:31:01Z</time>
      </trkpt>
      <trkpt lat="47.28128" lon="1.06173">
        <ele>77.5</ele>
        <time>2020-07-03T11:31:02Z</time>
      </trkpt>
      <trkpt lat="47.28125" lon="1.06168">
        <ele>77.7</ele>
        <time>2020-07-03T11:31:03Z</time>
      </trkpt>
      <trkpt lat="47.28121" lon="1.06163">
        <ele>77.8</ele>
        <time>2020-07-03T11:31:04Z</time>
      </trkpt>
      <trkpt lat="47.28118" lon="1.06157">
        <ele>78</ele>
        <time>2020-07-03T11:31:05Z</time>
      </trkpt>
      <trkpt lat="47.28114" lon="1.06152">
        <ele>78.2</ele>
        <time>2020-07-03T11:31:06Z</time>
      </trkpt>
      <trkpt lat="47.2811" lon="1.06149">
        <ele>78.3</ele>
        <time>2020-07-03T11:31:07Z</time>
      </trkpt>
      <trkpt lat="47.28105" lon="1.06145">
        <ele>78.5</ele>
        <time>2020-07-03T11:31:08Z</time>
      </trkpt>
      <trkpt lat="47.28101" lon="1.06141">
        <ele>78.7</ele>
        <time>2020-07-03T11:31:09Z</time>
      </trkpt>
      <trkpt lat="47.28097" lon="1.06138">
        <ele>78.9</ele>
        <time>2020-07-03T11:31:10Z</time>
      </trkpt>
      <trkpt lat="47.28094" lon="1.06135">
        <ele>79</ele>
        <time>2020-07-03T11:31:11Z</time>
      </trkpt>
      <trkpt lat="47.28091" lon="1.06131">
        <ele>79.2</ele>
        <time>2020-07-03T11:31:12Z</time>
      </trkpt>
      <trkpt lat="47.28086" lon="1.06128">
        <ele>79.4</ele>
        <time>2020-07-03T11:31:13Z</time>
      </trkpt>
      <trkpt lat="47.28082" lon="1.06127">
        <ele>79.6</ele>
        <time>2020-07-03T11:31:14Z</time>
      </trkpt>
      <trkpt lat="47.28079" lon="1.06126">
        <ele>79.7</ele>
        <time>2020-07-03T11:31:15Z</time>
      </trkpt>
      <trkpt lat="47.28077" lon="1.06127">
        <ele>79.7</ele>
        <time>2020-07-03T11:31:16Z</time>
      </trkpt>
      <trkpt lat="47.28075" lon="1.06126">
        <ele>79.8</ele>
        <time>2020-07-03T11:31:17Z</time>
      </trkpt>
      <trkpt lat="47.28073" lon="1.06126">
        <ele>79.9</ele>
        <time>2020-07-03T11:31:18Z</time>
      </trkpt>
      <trkpt lat="47.2807" lon="1.06125">
        <ele>79.9</ele>
        <time>2020-07-03T11:31:19Z</time>
      </trkpt>
      <trkpt lat="47.28067" lon="1.06125">
        <ele>79.9</ele>
        <time>2020-07-03T11:31:20Z</time>
      </trkpt>
      <trkpt lat="47.28064" lon="1.06123">
        <ele>79.9</ele>
        <time>2020-07-03T11:31:21Z</time>
      </trkpt>
      <trkpt lat="47.28061" lon="1.06121">
        <ele>79.9</ele>
        <time>2020-07-03T11:31:22Z</time>
      </trkpt>
      <trkpt lat="47.28059" lon="1.0612">
        <ele>79.9</ele>
        <time>2020-07-03T11:31:23Z</time>
      </trkpt>
      <trkpt lat="47.28056" lon="1.06118">
        <ele>79.8</ele>
        <time>2020-07-03T11:31:24Z</time>
      </trkpt>
      <trkpt lat="47.28055" lon="1.06117">
        <ele>79.8</ele>
        <time>2020-07-03T11:31:25Z</time>
      </trkpt>
      <trkpt lat="47.2805" lon="1.06116">
        <ele>79.8</ele>
        <time>2020-07-03T11:31:26Z</time>
      </trkpt>
      <trkpt lat="47.28046" lon="1.06114">
        <ele>79.8</ele>
        <time>2020-07-03T11:31:27Z</time>
      </trkpt>
      <trkpt lat="47.28042" lon="1.06112">
        <ele>79.7</ele>
        <time>2020-07-03T11:31:28Z</time>
      </trkpt>
      <trkpt lat="47.28037" lon="1.06109">
        <ele>79.7</ele>
        <time>2020-07-03T11:31:29Z</time>
      </trkpt>
      <trkpt lat="47.2803" lon="1.06105">
        <ele>79.6</ele>
        <time>2020-07-03T11:31:30Z</time>
      </trkpt>
      <trkpt lat="47.28025" lon="1.061">
        <ele>79.6</ele>
        <time>2020-07-03T11:31:31Z</time>
      </trkpt>
      <trkpt lat="47.28018" lon="1.06094">
        <ele>79.5</ele>
        <time>2020-07-03T11:31:32Z</time>
      </trkpt>
      <trkpt lat="47.28012" lon="1.06088">
        <ele>79.4</ele>
        <time>2020-07-03T11:31:33Z</time>
      </trkpt>
      <trkpt lat="47.28008" lon="1.06082">
        <ele>79.4</ele>
        <time>2020-07-03T11:31:34Z</time>
      </trkpt>
      <trkpt lat="47.28004" lon="1.06075">
        <ele>79.4</ele>
        <time>2020-07-03T11:31:35Z</time>
      </trkpt>
      <trkpt lat="47.28" lon="1.06068">
        <ele>79.4</ele>
        <time>2020-07-03T11:31:36Z</time>
      </trkpt>
      <trkpt lat="47.27996" lon="1.06061">
        <ele>79.4</ele>
        <time>2020-07-03T11:31:37Z</time>
      </trkpt>
      <trkpt lat="47.27993" lon="1.06054">
        <ele>79.4</ele>
        <time>2020-07-03T11:31:38Z</time>
      </trkpt>
      <trkpt lat="47.27988" lon="1.06046">
        <ele>79.4</ele>
        <time>2020-07-03T11:31:39Z</time>
      </trkpt>
      <trkpt lat="47.27985" lon="1.0604">
        <ele>79.4</ele>
        <time>2020-07-03T11:31:40Z</time>
      </trkpt>
      <trkpt lat="47.27981" lon="1.06034">
        <ele>79.4</ele>
        <time>2020-07-03T11:31:41Z</time>
      </trkpt>
      <trkpt lat="47.27977" lon="1.06028">
        <ele>79.4</ele>
        <time>2020-07-03T11:31:42Z</time>
      </trkpt>
      <trkpt lat="47.27972" lon="1.06025">
        <ele>79.3</ele>
        <time>2020-07-03T11:31:43Z</time>
      </trkpt>
      <trkpt lat="47.27968" lon="1.0602">
        <ele>79.1</ele>
        <time>2020-07-03T11:31:44Z</time>
      </trkpt>
      <trkpt lat="47.27964" lon="1.06014">
        <ele>79</ele>
        <time>2020-07-03T11:31:45Z</time>
      </trkpt>
      <trkpt lat="47.27959" lon="1.06008">
        <ele>78.9</ele>
        <time>2020-07-03T11:31:46Z</time>
      </trkpt>
      <trkpt lat="47.27954" lon="1.06002">
        <ele>78.8</ele>
        <time>2020-07-03T11:31:47Z</time>
      </trkpt>
      <trkpt lat="47.27949" lon="1.05996">
        <ele>78.8</ele>
        <time>2020-07-03T11:31:48Z</time>
      </trkpt>
      <trkpt lat="47.27943" lon="1.05991">
        <ele>78.8</ele>
        <time>2020-07-03T11:31:49Z</time>
      </trkpt>
      <trkpt lat="47.27937" lon="1.05988">
        <ele>78.7</ele>
        <time>2020-07-03T11:31:50Z</time>
      </trkpt>
      <trkpt lat="47.27933" lon="1.05985">
        <ele>78.7</ele>
        <time>2020-07-03T11:31:51Z</time>
      </trkpt>
      <trkpt lat="47.27927" lon="1.05981">
        <ele>78.7</ele>
        <time>2020-07-03T11:31:52Z</time>
      </trkpt>
      <trkpt lat="47.27922" lon="1.05977">
        <ele>78.8</ele>
        <time>2020-07-03T11:31:53Z</time>
      </trkpt>
      <trkpt lat="47.27916" lon="1.05973">
        <ele>78.8</ele>
        <time>2020-07-03T11:31:54Z</time>
      </trkpt>
      <trkpt lat="47.2791" lon="1.05971">
        <ele>78.9</ele>
        <time>2020-07-03T11:31:55Z</time>
      </trkpt>
      <trkpt lat="47.27903" lon="1.05968">
        <ele>78.9</ele>
        <time>2020-07-03T11:31:56Z</time>
      </trkpt>
      <trkpt lat="47.27898" lon="1.05967">
        <ele>78.9</ele>
        <time>2020-07-03T11:31:57Z</time>
      </trkpt>
      <trkpt lat="47.27892" lon="1.05966">
        <ele>79</ele>
        <time>2020-07-03T11:31:58Z</time>
      </trkpt>
      <trkpt lat="47.27888" lon="1.05964">
        <ele>79</ele>
        <time>2020-07-03T11:31:59Z</time>
      </trkpt>
      <trkpt lat="47.27883" lon="1.05961">
        <ele>79</ele>
        <time>2020-07-03T11:32:00Z</time>
      </trkpt>
      <trkpt lat="47.27877" lon="1.05959">
        <ele>79</ele>
        <time>2020-07-03T11:32:01Z</time>
      </trkpt>
      <trkpt lat="47.27872" lon="1.05956">
        <ele>79.1</ele>
        <time>2020-07-03T11:32:02Z</time>
      </trkpt>
      <trkpt lat="47.27868" lon="1.05955">
        <ele>79.1</ele>
        <time>2020-07-03T11:32:03Z</time>
      </trkpt>
      <trkpt lat="47.27864" lon="1.05954">
        <ele>79.1</ele>
        <time>2020-07-03T11:32:04Z</time>
      </trkpt>
      <trkpt lat="47.27859" lon="1.05951">
        <ele>79.2</ele>
        <time>2020-07-03T11:32:05Z</time>
      </trkpt>
      <trkpt lat="47.27854" lon="1.05947">
        <ele>79.3</ele>
        <time>2020-07-03T11:32:06Z</time>
      </trkpt>
      <trkpt lat="47.2785" lon="1.05943">
        <ele>79.3</ele>
        <time>2020-07-03T11:32:07Z</time>
      </trkpt>
      <trkpt lat="47.27844" lon="1.0594">
        <ele>79.4</ele>
        <time>2020-07-03T11:32:08Z</time>
      </trkpt>
      <trkpt lat="47.2784" lon="1.05937">
        <ele>79.5</ele>
        <time>2020-07-03T11:32:09Z</time>
      </trkpt>
      <trkpt lat="47.27834" lon="1.05933">
        <ele>79.6</ele>
        <time>2020-07-03T11:32:10Z</time>
      </trkpt>
      <trkpt lat="47.27829" lon="1.05928">
        <ele>79.6</ele>
        <time>2020-07-03T11:32:11Z</time>
      </trkpt>
      <trkpt lat="47.27824" lon="1.05923">
        <ele>79.6</ele>
        <time>2020-07-03T11:32:12Z</time>
      </trkpt>
      <trkpt lat="47.2782" lon="1.05917">
        <ele>79.6</ele>
        <time>2020-07-03T11:32:13Z</time>
      </trkpt>
      <trkpt lat="47.27817" lon="1.05912">
        <ele>79.6</ele>
        <time>2020-07-03T11:32:14Z</time>
      </trkpt>
      <trkpt lat="47.27812" lon="1.05907">
        <ele>79.6</ele>
        <time>2020-07-03T11:32:15Z</time>
      </trkpt>
      <trkpt lat="47.27808" lon="1.05902">
        <ele>79.6</ele>
        <time>2020-07-03T11:32:16Z</time>
      </trkpt>
      <trkpt lat="47.27805" lon="1.05897">
        <ele>79.7</ele>
        <time>2020-07-03T11:32:17Z</time>
      </trkpt>
      <trkpt lat="47.27801" lon="1.05892">
        <ele>79.7</ele>
        <time>2020-07-03T11:32:18Z</time>
      </trkpt>
      <trkpt lat="47.27797" lon="1.05888">
        <ele>79.8</ele>
        <time>2020-07-03T11:32:19Z</time>
      </trkpt>
      <trkpt lat="47.27793" lon="1.05883">
        <ele>79.8</ele>
        <time>2020-07-03T11:32:20Z</time>
      </trkpt>
      <trkpt lat="47.2779" lon="1.05878">
        <ele>79.8</ele>
        <time>2020-07-03T11:32:21Z</time>
      </trkpt>
      <trkpt lat="47.27786" lon="1.05872">
        <ele>79.9</ele>
        <time>2020-07-03T11:32:22Z</time>
      </trkpt>
      <trkpt lat="47.27782" lon="1.05867">
        <ele>79.9</ele>
        <time>2020-07-03T11:32:23Z</time>
      </trkpt>
      <trkpt lat="47.27778" lon="1.05862">
        <ele>80</ele>
        <time>2020-07-03T11:32:24Z</time>
      </trkpt>
      <trkpt lat="47.27774" lon="1.05856">
        <ele>80</ele>
        <time>2020-07-03T11:32:25Z</time>
      </trkpt>
      <trkpt lat="47.27771" lon="1.0585">
        <ele>80.1</ele>
        <time>2020-07-03T11:32:26Z</time>
      </trkpt>
      <trkpt lat="47.27767" lon="1.05845">
        <ele>80.2</ele>
        <time>2020-07-03T11:32:27Z</time>
      </trkpt>
      <trkpt lat="47.27762" lon="1.05839">
        <ele>80.3</ele>
        <time>2020-07-03T11:32:28Z</time>
      </trkpt>
      <trkpt lat="47.27759" lon="1.05834">
        <ele>80.4</ele>
        <time>2020-07-03T11:32:29Z</time>
      </trkpt>
      <trkpt lat="47.27755" lon="1.05829">
        <ele>80.5</ele>
        <time>2020-07-03T11:32:30Z</time>
      </trkpt>
      <trkpt lat="47.27751" lon="1.05824">
        <ele>80.6</ele>
        <time>2020-07-03T11:32:31Z</time>
      </trkpt>
      <trkpt lat="47.27746" lon="1.0582">
        <ele>80.8</ele>
        <time>2020-07-03T11:32:32Z</time>
      </trkpt>
      <trkpt lat="47.27742" lon="1.05815">
        <ele>81</ele>
        <time>2020-07-03T11:32:33Z</time>
      </trkpt>
      <trkpt lat="47.27737" lon="1.0581">
        <ele>81.2</ele>
        <time>2020-07-03T11:32:34Z</time>
      </trkpt>
      <trkpt lat="47.27731" lon="1.05805">
        <ele>81.5</ele>
        <time>2020-07-03T11:32:35Z</time>
      </trkpt>
      <trkpt lat="47.27727" lon="1.05801">
        <ele>81.8</ele>
        <time>2020-07-03T11:32:36Z</time>
      </trkpt>
      <trkpt lat="47.27723" lon="1.05798">
        <ele>82</ele>
        <time>2020-07-03T11:32:37Z</time>
      </trkpt>
      <trkpt lat="47.27721" lon="1.05796">
        <ele>82.2</ele>
        <time>2020-07-03T11:32:38Z</time>
      </trkpt>
      <trkpt lat="47.27717" lon="1.05793">
        <ele>82.4</ele>
        <time>2020-07-03T11:32:39Z</time>
      </trkpt>
      <trkpt lat="47.27713" lon="1.0579">
        <ele>82.7</ele>
        <time>2020-07-03T11:32:40Z</time>
      </trkpt>
      <trkpt lat="47.27709" lon="1.05786">
        <ele>82.9</ele>
        <time>2020-07-03T11:32:41Z</time>
      </trkpt>
      <trkpt lat="47.27705" lon="1.05781">
        <ele>83.2</ele>
        <time>2020-07-03T11:32:42Z</time>
      </trkpt>
      <trkpt lat="47.27702" lon="1.05778">
        <ele>83.5</ele>
        <time>2020-07-03T11:32:43Z</time>
      </trkpt>
      <trkpt lat="47.27699" lon="1.05777">
        <ele>83.7</ele>
        <time>2020-07-03T11:32:44Z</time>
      </trkpt>
      <trkpt lat="47.27696" lon="1.05775">
        <ele>83.8</ele>
        <time>2020-07-03T11:32:45Z</time>
      </trkpt>
      <trkpt lat="47.27693" lon="1.05772">
        <ele>84</ele>
        <time>2020-07-03T11:32:46Z</time>
      </trkpt>
      <trkpt lat="47.2769" lon="1.05769">
        <ele>84.2</ele>
        <time>2020-07-03T11:32:47Z</time>
      </trkpt>
      <trkpt lat="47.27689" lon="1.05767">
        <ele>84.2</ele>
        <time>2020-07-03T11:32:48Z</time>
      </trkpt>
      <trkpt lat="47.27686" lon="1.05765">
        <ele>84.4</ele>
        <time>2020-07-03T11:32:49Z</time>
      </trkpt>
      <trkpt lat="47.27685" lon="1.05764">
        <ele>84.5</ele>
        <time>2020-07-03T11:32:50Z</time>
      </trkpt>
      <trkpt lat="47.27683" lon="1.0576">
        <ele>84.6</ele>
        <time>2020-07-03T11:32:51Z</time>
      </trkpt>
      <trkpt lat="47.27681" lon="1.05758">
        <ele>84.7</ele>
        <time>2020-07-03T11:32:52Z</time>
      </trkpt>
      <trkpt lat="47.27679" lon="1.05756">
        <ele>84.8</ele>
        <time>2020-07-03T11:32:53Z</time>
      </trkpt>
      <trkpt lat="47.27675" lon="1.05752">
        <ele>84.9</ele>
        <time>2020-07-03T11:32:54Z</time>
      </trkpt>
      <trkpt lat="47.27671" lon="1.05748">
        <ele>85</ele>
        <time>2020-07-03T11:32:55Z</time>
      </trkpt>
      <trkpt lat="47.27669" lon="1.05745">
        <ele>85</ele>
        <time>2020-07-03T11:32:56Z</time>
      </trkpt>
      <trkpt lat="47.27667" lon="1.05743">
        <ele>85</ele>
        <time>2020-07-03T11:32:57Z</time>
      </trkpt>
      <trkpt lat="47.27663" lon="1.05738">
        <ele>85</ele>
        <time>2020-07-03T11:32:58Z</time>
      </trkpt>
      <trkpt lat="47.27661" lon="1.05736">
        <ele>85</ele>
        <time>2020-07-03T11:32:59Z</time>
      </trkpt>
      <trkpt lat="47.27656" lon="1.0573">
        <ele>85</ele>
        <time>2020-07-03T11:33:00Z</time>
      </trkpt>
      <trkpt lat="47.27651" lon="1.05726">
        <ele>85</ele>
        <time>2020-07-03T11:33:01Z</time>
      </trkpt>
      <trkpt lat="47.27645" lon="1.05721">
        <ele>85.1</ele>
        <time>2020-07-03T11:33:02Z</time>
      </trkpt>
      <trkpt lat="47.2764" lon="1.05719">
        <ele>85.1</ele>
        <time>2020-07-03T11:33:03Z</time>
      </trkpt>
      <trkpt lat="47.27634" lon="1.05716">
        <ele>85.1</ele>
        <time>2020-07-03T11:33:04Z</time>
      </trkpt>
      <trkpt lat="47.27628" lon="1.05715">
        <ele>85.2</ele>
        <time>2020-07-03T11:33:05Z</time>
      </trkpt>
      <trkpt lat="47.27623" lon="1.05715">
        <ele>85.2</ele>
        <time>2020-07-03T11:33:06Z</time>
      </trkpt>
      <trkpt lat="47.27619" lon="1.05715">
        <ele>85.3</ele>
        <time>2020-07-03T11:33:07Z</time>
      </trkpt>
      <trkpt lat="47.27615" lon="1.05716">
        <ele>85.5</ele>
        <time>2020-07-03T11:33:08Z</time>
      </trkpt>
      <trkpt lat="47.2761" lon="1.05717">
        <ele>85.6</ele>
        <time>2020-07-03T11:33:09Z</time>
      </trkpt>
      <trkpt lat="47.27604" lon="1.05719">
        <ele>85.8</ele>
        <time>2020-07-03T11:33:10Z</time>
      </trkpt>
      <trkpt lat="47.27599" lon="1.05721">
        <ele>86</ele>
        <time>2020-07-03T11:33:11Z</time>
      </trkpt>
      <trkpt lat="47.27593" lon="1.05723">
        <ele>86.3</ele>
        <time>2020-07-03T11:33:12Z</time>
      </trkpt>
      <trkpt lat="47.27589" lon="1.05726">
        <ele>86.4</ele>
        <time>2020-07-03T11:33:13Z</time>
      </trkpt>
      <trkpt lat="47.27585" lon="1.0573">
        <ele>86.5</ele>
        <time>2020-07-03T11:33:14Z</time>
      </trkpt>
      <trkpt lat="47.27581" lon="1.05735">
        <ele>86.7</ele>
        <time>2020-07-03T11:33:15Z</time>
      </trkpt>
      <trkpt lat="47.27577" lon="1.05738">
        <ele>86.7</ele>
        <time>2020-07-03T11:33:16Z</time>
      </trkpt>
      <trkpt lat="47.27574" lon="1.05741">
        <ele>86.8</ele>
        <time>2020-07-03T11:33:17Z</time>
      </trkpt>
      <trkpt lat="47.27571" lon="1.05744">
        <ele>86.8</ele>
        <time>2020-07-03T11:33:18Z</time>
      </trkpt>
      <trkpt lat="47.27568" lon="1.05748">
        <ele>86.9</ele>
        <time>2020-07-03T11:33:19Z</time>
      </trkpt>
      <trkpt lat="47.27565" lon="1.05751">
        <ele>86.9</ele>
        <time>2020-07-03T11:33:20Z</time>
      </trkpt>
      <trkpt lat="47.27562" lon="1.05755">
        <ele>86.9</ele>
        <time>2020-07-03T11:33:21Z</time>
      </trkpt>
      <trkpt lat="47.27558" lon="1.05759">
        <ele>86.9</ele>
        <time>2020-07-03T11:33:22Z</time>
      </trkpt>
      <trkpt lat="47.27554" lon="1.05763">
        <ele>86.9</ele>
        <time>2020-07-03T11:33:23Z</time>
      </trkpt>
      <trkpt lat="47.27549" lon="1.05768">
        <ele>86.9</ele>
        <time>2020-07-03T11:33:24Z</time>
      </trkpt>
      <trkpt lat="47.27544" lon="1.05773">
        <ele>86.8</ele>
        <time>2020-07-03T11:33:25Z</time>
      </trkpt>
      <trkpt lat="47.2754" lon="1.05778">
        <ele>86.8</ele>
        <time>2020-07-03T11:33:26Z</time>
      </trkpt>
      <trkpt lat="47.27535" lon="1.05782">
        <ele>86.8</ele>
        <time>2020-07-03T11:33:27Z</time>
      </trkpt>
      <trkpt lat="47.27531" lon="1.05785">
        <ele>86.8</ele>
        <time>2020-07-03T11:33:28Z</time>
      </trkpt>
      <trkpt lat="47.27525" lon="1.05788">
        <ele>86.8</ele>
        <time>2020-07-03T11:33:29Z</time>
      </trkpt>
      <trkpt lat="47.2752" lon="1.05792">
        <ele>86.7</ele>
        <time>2020-07-03T11:33:30Z</time>
      </trkpt>
      <trkpt lat="47.27514" lon="1.05796">
        <ele>86.7</ele>
        <time>2020-07-03T11:33:31Z</time>
      </trkpt>
      <trkpt lat="47.27508" lon="1.05799">
        <ele>86.7</ele>
        <time>2020-07-03T11:33:32Z</time>
      </trkpt>
      <trkpt lat="47.27503" lon="1.05803">
        <ele>86.6</ele>
        <time>2020-07-03T11:33:33Z</time>
      </trkpt>
      <trkpt lat="47.27498" lon="1.05806">
        <ele>86.5</ele>
        <time>2020-07-03T11:33:34Z</time>
      </trkpt>
      <trkpt lat="47.27492" lon="1.0581">
        <ele>86.3</ele>
        <time>2020-07-03T11:33:35Z</time>
      </trkpt>
      <trkpt lat="47.27487" lon="1.05815">
        <ele>86.2</ele>
        <time>2020-07-03T11:33:36Z</time>
      </trkpt>
      <trkpt lat="47.27482" lon="1.05819">
        <ele>86</ele>
        <time>2020-07-03T11:33:37Z</time>
      </trkpt>
      <trkpt lat="47.27476" lon="1.05825">
        <ele>85.8</ele>
        <time>2020-07-03T11:33:38Z</time>
      </trkpt>
      <trkpt lat="47.2747" lon="1.0583">
        <ele>85.7</ele>
        <time>2020-07-03T11:33:39Z</time>
      </trkpt>
      <trkpt lat="47.27464" lon="1.05836">
        <ele>85.5</ele>
        <time>2020-07-03T11:33:40Z</time>
      </trkpt>
      <trkpt lat="47.27458" lon="1.05842">
        <ele>85.4</ele>
        <time>2020-07-03T11:33:41Z</time>
      </trkpt>
      <trkpt lat="47.27452" lon="1.05848">
        <ele>85.3</ele>
        <time>2020-07-03T11:33:42Z</time>
      </trkpt>
      <trkpt lat="47.27446" lon="1.05852">
        <ele>85.3</ele>
        <time>2020-07-03T11:33:43Z</time>
      </trkpt>
      <trkpt lat="47.2744" lon="1.05857">
        <ele>85.2</ele>
        <time>2020-07-03T11:33:44Z</time>
      </trkpt>
      <trkpt lat="47.27434" lon="1.05861">
        <ele>85.2</ele>
        <time>2020-07-03T11:33:45Z</time>
      </trkpt>
      <trkpt lat="47.27428" lon="1.05865">
        <ele>85.2</ele>
        <time>2020-07-03T11:33:46Z</time>
      </trkpt>
      <trkpt lat="47.27421" lon="1.05868">
        <ele>85.1</ele>
        <time>2020-07-03T11:33:47Z</time>
      </trkpt>
      <trkpt lat="47.27414" lon="1.0587">
        <ele>85.1</ele>
        <time>2020-07-03T11:33:48Z</time>
      </trkpt>
      <trkpt lat="47.27407" lon="1.05871">
        <ele>85.1</ele>
        <time>2020-07-03T11:33:49Z</time>
      </trkpt>
      <trkpt lat="47.27401" lon="1.05871">
        <ele>85</ele>
        <time>2020-07-03T11:33:50Z</time>
      </trkpt>
      <trkpt lat="47.27394" lon="1.05871">
        <ele>85</ele>
        <time>2020-07-03T11:33:51Z</time>
      </trkpt>
      <trkpt lat="47.27387" lon="1.05871">
        <ele>85</ele>
        <time>2020-07-03T11:33:52Z</time>
      </trkpt>
      <trkpt lat="47.27381" lon="1.05872">
        <ele>85</ele>
        <time>2020-07-03T11:33:53Z</time>
      </trkpt>
      <trkpt lat="47.27376" lon="1.05872">
        <ele>85</ele>
        <time>2020-07-03T11:33:54Z</time>
      </trkpt>
      <trkpt lat="47.2737" lon="1.05872">
        <ele>84.9</ele>
        <time>2020-07-03T11:33:55Z</time>
      </trkpt>
      <trkpt lat="47.27364" lon="1.05873">
        <ele>84.9</ele>
        <time>2020-07-03T11:33:56Z</time>
      </trkpt>
      <trkpt lat="47.27358" lon="1.05873">
        <ele>84.8</ele>
        <time>2020-07-03T11:33:57Z</time>
      </trkpt>
      <trkpt lat="47.27351" lon="1.05873">
        <ele>84.8</ele>
        <time>2020-07-03T11:33:58Z</time>
      </trkpt>
      <trkpt lat="47.27344" lon="1.05874">
        <ele>84.6</ele>
        <time>2020-07-03T11:33:59Z</time>
      </trkpt>
      <trkpt lat="47.27336" lon="1.05875">
        <ele>84.5</ele>
        <time>2020-07-03T11:34:00Z</time>
      </trkpt>
      <trkpt lat="47.27329" lon="1.05877">
        <ele>84.4</ele>
        <time>2020-07-03T11:34:01Z</time>
      </trkpt>
      <trkpt lat="47.2732" lon="1.05879">
        <ele>84.2</ele>
        <time>2020-07-03T11:34:02Z</time>
      </trkpt>
      <trkpt lat="47.27313" lon="1.05882">
        <ele>84.2</ele>
        <time>2020-07-03T11:34:03Z</time>
      </trkpt>
      <trkpt lat="47.27306" lon="1.05884">
        <ele>84.1</ele>
        <time>2020-07-03T11:34:04Z</time>
      </trkpt>
      <trkpt lat="47.27298" lon="1.05888">
        <ele>84.1</ele>
        <time>2020-07-03T11:34:05Z</time>
      </trkpt>
      <trkpt lat="47.27292" lon="1.05891">
        <ele>84.2</ele>
        <time>2020-07-03T11:34:06Z</time>
      </trkpt>
      <trkpt lat="47.27285" lon="1.05894">
        <ele>84.2</ele>
        <time>2020-07-03T11:34:07Z</time>
      </trkpt>
      <trkpt lat="47.27279" lon="1.05897">
        <ele>84.3</ele>
        <time>2020-07-03T11:34:08Z</time>
      </trkpt>
      <trkpt lat="47.27272" lon="1.059">
        <ele>84.3</ele>
        <time>2020-07-03T11:34:09Z</time>
      </trkpt>
      <trkpt lat="47.27267" lon="1.05904">
        <ele>84.3</ele>
        <time>2020-07-03T11:34:10Z</time>
      </trkpt>
      <trkpt lat="47.27261" lon="1.0591">
        <ele>84.3</ele>
        <time>2020-07-03T11:34:11Z</time>
      </trkpt>
      <trkpt lat="47.27256" lon="1.05915">
        <ele>84.3</ele>
        <time>2020-07-03T11:34:12Z</time>
      </trkpt>
      <trkpt lat="47.27251" lon="1.05919">
        <ele>84.3</ele>
        <time>2020-07-03T11:34:13Z</time>
      </trkpt>
      <trkpt lat="47.27246" lon="1.05923">
        <ele>84.3</ele>
        <time>2020-07-03T11:34:14Z</time>
      </trkpt>
      <trkpt lat="47.2724" lon="1.05927">
        <ele>84.3</ele>
        <time>2020-07-03T11:34:15Z</time>
      </trkpt>
      <trkpt lat="47.27234" lon="1.05931">
        <ele>84.3</ele>
        <time>2020-07-03T11:34:16Z</time>
      </trkpt>
      <trkpt lat="47.27228" lon="1.05935">
        <ele>84.3</ele>
        <time>2020-07-03T11:34:17Z</time>
      </trkpt>
      <trkpt lat="47.27223" lon="1.05939">
        <ele>84.4</ele>
        <time>2020-07-03T11:34:18Z</time>
      </trkpt>
      <trkpt lat="47.27217" lon="1.05941">
        <ele>84.4</ele>
        <time>2020-07-03T11:34:19Z</time>
      </trkpt>
      <trkpt lat="47.27211" lon="1.05945">
        <ele>84.4</ele>
        <time>2020-07-03T11:34:20Z</time>
      </trkpt>
      <trkpt lat="47.27204" lon="1.05948">
        <ele>84.4</ele>
        <time>2020-07-03T11:34:21Z</time>
      </trkpt>
      <trkpt lat="47.27198" lon="1.05951">
        <ele>84.4</ele>
        <time>2020-07-03T11:34:22Z</time>
      </trkpt>
      <trkpt lat="47.27191" lon="1.05953">
        <ele>84.4</ele>
        <time>2020-07-03T11:34:23Z</time>
      </trkpt>
      <trkpt lat="47.27185" lon="1.05956">
        <ele>84.4</ele>
        <time>2020-07-03T11:34:24Z</time>
      </trkpt>
      <trkpt lat="47.2718" lon="1.05958">
        <ele>84.4</ele>
        <time>2020-07-03T11:34:25Z</time>
      </trkpt>
      <trkpt lat="47.27175" lon="1.05961">
        <ele>84.5</ele>
        <time>2020-07-03T11:34:26Z</time>
      </trkpt>
      <trkpt lat="47.27169" lon="1.05963">
        <ele>84.6</ele>
        <time>2020-07-03T11:34:27Z</time>
      </trkpt>
      <trkpt lat="47.27162" lon="1.05965">
        <ele>84.7</ele>
        <time>2020-07-03T11:34:28Z</time>
      </trkpt>
      <trkpt lat="47.27156" lon="1.05968">
        <ele>84.8</ele>
        <time>2020-07-03T11:34:29Z</time>
      </trkpt>
      <trkpt lat="47.2715" lon="1.05969">
        <ele>84.8</ele>
        <time>2020-07-03T11:34:30Z</time>
      </trkpt>
      <trkpt lat="47.27144" lon="1.05971">
        <ele>84.9</ele>
        <time>2020-07-03T11:34:31Z</time>
      </trkpt>
      <trkpt lat="47.27138" lon="1.05971">
        <ele>85</ele>
        <time>2020-07-03T11:34:32Z</time>
      </trkpt>
      <trkpt lat="47.27132" lon="1.05971">
        <ele>85</ele>
        <time>2020-07-03T11:34:33Z</time>
      </trkpt>
      <trkpt lat="47.27126" lon="1.05971">
        <ele>85</ele>
        <time>2020-07-03T11:34:34Z</time>
      </trkpt>
      <trkpt lat="47.27121" lon="1.0597">
        <ele>85</ele>
        <time>2020-07-03T11:34:35Z</time>
      </trkpt>
      <trkpt lat="47.27116" lon="1.05969">
        <ele>85</ele>
        <time>2020-07-03T11:34:36Z</time>
      </trkpt>
      <trkpt lat="47.2711" lon="1.05967">
        <ele>84.9</ele>
        <time>2020-07-03T11:34:37Z</time>
      </trkpt>
      <trkpt lat="47.27103" lon="1.05966">
        <ele>84.9</ele>
        <time>2020-07-03T11:34:38Z</time>
      </trkpt>
      <trkpt lat="47.27096" lon="1.05965">
        <ele>85</ele>
        <time>2020-07-03T11:34:39Z</time>
      </trkpt>
      <trkpt lat="47.2709" lon="1.05962">
        <ele>85</ele>
        <time>2020-07-03T11:34:40Z</time>
      </trkpt>
      <trkpt lat="47.27083" lon="1.0596">
        <ele>85</ele>
        <time>2020-07-03T11:34:41Z</time>
      </trkpt>
      <trkpt lat="47.27077" lon="1.05958">
        <ele>85.1</ele>
        <time>2020-07-03T11:34:42Z</time>
      </trkpt>
      <trkpt lat="47.27072" lon="1.05956">
        <ele>85.1</ele>
        <time>2020-07-03T11:34:43Z</time>
      </trkpt>
      <trkpt lat="47.27066" lon="1.05954">
        <ele>85.1</ele>
        <time>2020-07-03T11:34:44Z</time>
      </trkpt>
      <trkpt lat="47.27061" lon="1.05951">
        <ele>85.1</ele>
        <time>2020-07-03T11:34:45Z</time>
      </trkpt>
      <trkpt lat="47.27055" lon="1.05949">
        <ele>85.1</ele>
        <time>2020-07-03T11:34:46Z</time>
      </trkpt>
      <trkpt lat="47.2705" lon="1.05948">
        <ele>85.1</ele>
        <time>2020-07-03T11:34:47Z</time>
      </trkpt>
      <trkpt lat="47.27043" lon="1.05946">
        <ele>85.1</ele>
        <time>2020-07-03T11:34:48Z</time>
      </trkpt>
      <trkpt lat="47.27038" lon="1.05945">
        <ele>85.1</ele>
        <time>2020-07-03T11:34:49Z</time>
      </trkpt>
      <trkpt lat="47.27033" lon="1.05945">
        <ele>85.1</ele>
        <time>2020-07-03T11:34:50Z</time>
      </trkpt>
      <trkpt lat="47.27027" lon="1.05944">
        <ele>85.1</ele>
        <time>2020-07-03T11:34:51Z</time>
      </trkpt>
      <trkpt lat="47.2702" lon="1.05943">
        <ele>85.2</ele>
        <time>2020-07-03T11:34:52Z</time>
      </trkpt>
      <trkpt lat="47.27015" lon="1.05942">
        <ele>85.2</ele>
        <time>2020-07-03T11:34:53Z</time>
      </trkpt>
      <trkpt lat="47.27009" lon="1.05942">
        <ele>85.2</ele>
        <time>2020-07-03T11:34:54Z</time>
      </trkpt>
      <trkpt lat="47.27004" lon="1.05942">
        <ele>85.2</ele>
        <time>2020-07-03T11:34:55Z</time>
      </trkpt>
      <trkpt lat="47.27" lon="1.05944">
        <ele>85.2</ele>
        <time>2020-07-03T11:34:56Z</time>
      </trkpt>
      <trkpt lat="47.26994" lon="1.05942">
        <ele>85.2</ele>
        <time>2020-07-03T11:34:57Z</time>
      </trkpt>
      <trkpt lat="47.26988" lon="1.05942">
        <ele>85.1</ele>
        <time>2020-07-03T11:34:58Z</time>
      </trkpt>
      <trkpt lat="47.26981" lon="1.05939">
        <ele>85.1</ele>
        <time>2020-07-03T11:34:59Z</time>
      </trkpt>
      <trkpt lat="47.26975" lon="1.05938">
        <ele>85.1</ele>
        <time>2020-07-03T11:35:00Z</time>
      </trkpt>
      <trkpt lat="47.26971" lon="1.05937">
        <ele>85.2</ele>
        <time>2020-07-03T11:35:01Z</time>
      </trkpt>
      <trkpt lat="47.26964" lon="1.05936">
        <ele>85.2</ele>
        <time>2020-07-03T11:35:02Z</time>
      </trkpt>
      <trkpt lat="47.26957" lon="1.05936">
        <ele>85.2</ele>
        <time>2020-07-03T11:35:03Z</time>
      </trkpt>
      <trkpt lat="47.26951" lon="1.05935">
        <ele>85.3</ele>
        <time>2020-07-03T11:35:04Z</time>
      </trkpt>
      <trkpt lat="47.26945" lon="1.05936">
        <ele>85.3</ele>
        <time>2020-07-03T11:35:05Z</time>
      </trkpt>
      <trkpt lat="47.26938" lon="1.05938">
        <ele>85.4</ele>
        <time>2020-07-03T11:35:06Z</time>
      </trkpt>
      <trkpt lat="47.26932" lon="1.0594">
        <ele>85.5</ele>
        <time>2020-07-03T11:35:07Z</time>
      </trkpt>
      <trkpt lat="47.26926" lon="1.05942">
        <ele>85.7</ele>
        <time>2020-07-03T11:35:08Z</time>
      </trkpt>
      <trkpt lat="47.2692" lon="1.05944">
        <ele>85.9</ele>
        <time>2020-07-03T11:35:09Z</time>
      </trkpt>
      <trkpt lat="47.26915" lon="1.05946">
        <ele>86</ele>
        <time>2020-07-03T11:35:10Z</time>
      </trkpt>
      <trkpt lat="47.26908" lon="1.05949">
        <ele>86.3</ele>
        <time>2020-07-03T11:35:11Z</time>
      </trkpt>
      <trkpt lat="47.26902" lon="1.05952">
        <ele>86.5</ele>
        <time>2020-07-03T11:35:12Z</time>
      </trkpt>
      <trkpt lat="47.26896" lon="1.05954">
        <ele>86.7</ele>
        <time>2020-07-03T11:35:13Z</time>
      </trkpt>
      <trkpt lat="47.2689" lon="1.05957">
        <ele>86.9</ele>
        <time>2020-07-03T11:35:14Z</time>
      </trkpt>
      <trkpt lat="47.26885" lon="1.05958">
        <ele>87.1</ele>
        <time>2020-07-03T11:35:15Z</time>
      </trkpt>
      <trkpt lat="47.2688" lon="1.0596">
        <ele>87.3</ele>
        <time>2020-07-03T11:35:16Z</time>
      </trkpt>
      <trkpt lat="47.26876" lon="1.05963">
        <ele>87.4</ele>
        <time>2020-07-03T11:35:17Z</time>
      </trkpt>
      <trkpt lat="47.26872" lon="1.05965">
        <ele>87.5</ele>
        <time>2020-07-03T11:35:18Z</time>
      </trkpt>
      <trkpt lat="47.26868" lon="1.05966">
        <ele>87.6</ele>
        <time>2020-07-03T11:35:19Z</time>
      </trkpt>
      <trkpt lat="47.26863" lon="1.05968">
        <ele>87.7</ele>
        <time>2020-07-03T11:35:20Z</time>
      </trkpt>
      <trkpt lat="47.26858" lon="1.0597">
        <ele>87.8</ele>
        <time>2020-07-03T11:35:21Z</time>
      </trkpt>
      <trkpt lat="47.26854" lon="1.05973">
        <ele>87.8</ele>
        <time>2020-07-03T11:35:22Z</time>
      </trkpt>
      <trkpt lat="47.2685" lon="1.05975">
        <ele>87.8</ele>
        <time>2020-07-03T11:35:23Z</time>
      </trkpt>
      <trkpt lat="47.26845" lon="1.05977">
        <ele>87.9</ele>
        <time>2020-07-03T11:35:24Z</time>
      </trkpt>
      <trkpt lat="47.2684" lon="1.0598">
        <ele>87.9</ele>
        <time>2020-07-03T11:35:25Z</time>
      </trkpt>
      <trkpt lat="47.26836" lon="1.05984">
        <ele>87.9</ele>
        <time>2020-07-03T11:35:26Z</time>
      </trkpt>
      <trkpt lat="47.26831" lon="1.05986">
        <ele>87.9</ele>
        <time>2020-07-03T11:35:27Z</time>
      </trkpt>
      <trkpt lat="47.26826" lon="1.05989">
        <ele>88</ele>
        <time>2020-07-03T11:35:28Z</time>
      </trkpt>
      <trkpt lat="47.26821" lon="1.05991">
        <ele>88</ele>
        <time>2020-07-03T11:35:29Z</time>
      </trkpt>
      <trkpt lat="47.26816" lon="1.05993">
        <ele>88</ele>
        <time>2020-07-03T11:35:30Z</time>
      </trkpt>
      <trkpt lat="47.26811" lon="1.05994">
        <ele>88</ele>
        <time>2020-07-03T11:35:31Z</time>
      </trkpt>
      <trkpt lat="47.26806" lon="1.05997">
        <ele>88</ele>
        <time>2020-07-03T11:35:32Z</time>
      </trkpt>
      <trkpt lat="47.26801" lon="1.05999">
        <ele>88</ele>
        <time>2020-07-03T11:35:33Z</time>
      </trkpt>
      <trkpt lat="47.26796" lon="1.06001">
        <ele>88.1</ele>
        <time>2020-07-03T11:35:34Z</time>
      </trkpt>
      <trkpt lat="47.2679" lon="1.06003">
        <ele>88.1</ele>
        <time>2020-07-03T11:35:35Z</time>
      </trkpt>
      <trkpt lat="47.26784" lon="1.06004">
        <ele>88.2</ele>
        <time>2020-07-03T11:35:36Z</time>
      </trkpt>
      <trkpt lat="47.2678" lon="1.06005">
        <ele>88.3</ele>
        <time>2020-07-03T11:35:37Z</time>
      </trkpt>
      <trkpt lat="47.26775" lon="1.06008">
        <ele>88.4</ele>
        <time>2020-07-03T11:35:38Z</time>
      </trkpt>
      <trkpt lat="47.26771" lon="1.0601">
        <ele>88.5</ele>
        <time>2020-07-03T11:35:39Z</time>
      </trkpt>
      <trkpt lat="47.26765" lon="1.06012">
        <ele>88.6</ele>
        <time>2020-07-03T11:35:40Z</time>
      </trkpt>
      <trkpt lat="47.2676" lon="1.06013">
        <ele>88.7</ele>
        <time>2020-07-03T11:35:41Z</time>
      </trkpt>
      <trkpt lat="47.26753" lon="1.06015">
        <ele>88.9</ele>
        <time>2020-07-03T11:35:42Z</time>
      </trkpt>
      <trkpt lat="47.26748" lon="1.06016">
        <ele>89</ele>
        <time>2020-07-03T11:35:43Z</time>
      </trkpt>
      <trkpt lat="47.26743" lon="1.06017">
        <ele>89.1</ele>
        <time>2020-07-03T11:35:44Z</time>
      </trkpt>
      <trkpt lat="47.26738" lon="1.06018">
        <ele>89.2</ele>
        <time>2020-07-03T11:35:45Z</time>
      </trkpt>
      <trkpt lat="47.26733" lon="1.06019">
        <ele>89.3</ele>
        <time>2020-07-03T11:35:46Z</time>
      </trkpt>
      <trkpt lat="47.26728" lon="1.06021">
        <ele>89.5</ele>
        <time>2020-07-03T11:35:47Z</time>
      </trkpt>
      <trkpt lat="47.26723" lon="1.06024">
        <ele>89.6</ele>
        <time>2020-07-03T11:35:48Z</time>
      </trkpt>
      <trkpt lat="47.26718" lon="1.06027">
        <ele>89.7</ele>
        <time>2020-07-03T11:35:49Z</time>
      </trkpt>
      <trkpt lat="47.26714" lon="1.0603">
        <ele>89.7</ele>
        <time>2020-07-03T11:35:50Z</time>
      </trkpt>
      <trkpt lat="47.26708" lon="1.06033">
        <ele>89.8</ele>
        <time>2020-07-03T11:35:51Z</time>
      </trkpt>
      <trkpt lat="47.26704" lon="1.06036">
        <ele>89.9</ele>
        <time>2020-07-03T11:35:52Z</time>
      </trkpt>
      <trkpt lat="47.26699" lon="1.0604">
        <ele>89.9</ele>
        <time>2020-07-03T11:35:53Z</time>
      </trkpt>
      <trkpt lat="47.26695" lon="1.06043">
        <ele>89.9</ele>
        <time>2020-07-03T11:35:54Z</time>
      </trkpt>
      <trkpt lat="47.2669" lon="1.06047">
        <ele>89.9</ele>
        <time>2020-07-03T11:35:55Z</time>
      </trkpt>
      <trkpt lat="47.26685" lon="1.06051">
        <ele>89.9</ele>
        <time>2020-07-03T11:35:56Z</time>
      </trkpt>
      <trkpt lat="47.2668" lon="1.06054">
        <ele>89.9</ele>
        <time>2020-07-03T11:35:57Z</time>
      </trkpt>
      <trkpt lat="47.26675" lon="1.06058">
        <ele>89.9</ele>
        <time>2020-07-03T11:35:58Z</time>
      </trkpt>
      <trkpt lat="47.26671" lon="1.06061">
        <ele>89.9</ele>
        <time>2020-07-03T11:35:59Z</time>
      </trkpt>
      <trkpt lat="47.26666" lon="1.06065">
        <ele>89.9</ele>
        <time>2020-07-03T11:36:00Z</time>
      </trkpt>
      <trkpt lat="47.26661" lon="1.06068">
        <ele>89.9</ele>
        <time>2020-07-03T11:36:01Z</time>
      </trkpt>
      <trkpt lat="47.26656" lon="1.06072">
        <ele>89.9</ele>
        <time>2020-07-03T11:36:02Z</time>
      </trkpt>
      <trkpt lat="47.26651" lon="1.06076">
        <ele>89.9</ele>
        <time>2020-07-03T11:36:03Z</time>
      </trkpt>
      <trkpt lat="47.26647" lon="1.06081">
        <ele>89.9</ele>
        <time>2020-07-03T11:36:04Z</time>
      </trkpt>
      <trkpt lat="47.26641" lon="1.06087">
        <ele>89.9</ele>
        <time>2020-07-03T11:36:05Z</time>
      </trkpt>
      <trkpt lat="47.26636" lon="1.06089">
        <ele>89.8</ele>
        <time>2020-07-03T11:36:06Z</time>
      </trkpt>
      <trkpt lat="47.26629" lon="1.06092">
        <ele>89.8</ele>
        <time>2020-07-03T11:36:07Z</time>
      </trkpt>
      <trkpt lat="47.26624" lon="1.06094">
        <ele>89.7</ele>
        <time>2020-07-03T11:36:08Z</time>
      </trkpt>
      <trkpt lat="47.26619" lon="1.06096">
        <ele>89.6</ele>
        <time>2020-07-03T11:36:09Z</time>
      </trkpt>
      <trkpt lat="47.26612" lon="1.06098">
        <ele>89.5</ele>
        <time>2020-07-03T11:36:10Z</time>
      </trkpt>
      <trkpt lat="47.26606" lon="1.061">
        <ele>89.4</ele>
        <time>2020-07-03T11:36:11Z</time>
      </trkpt>
      <trkpt lat="47.266" lon="1.06101">
        <ele>89.3</ele>
        <time>2020-07-03T11:36:12Z</time>
      </trkpt>
      <trkpt lat="47.26594" lon="1.06103">
        <ele>89.2</ele>
        <time>2020-07-03T11:36:13Z</time>
      </trkpt>
      <trkpt lat="47.26588" lon="1.06104">
        <ele>89.1</ele>
        <time>2020-07-03T11:36:14Z</time>
      </trkpt>
      <trkpt lat="47.26582" lon="1.06106">
        <ele>88.9</ele>
        <time>2020-07-03T11:36:15Z</time>
      </trkpt>
      <trkpt lat="47.26575" lon="1.06109">
        <ele>88.8</ele>
        <time>2020-07-03T11:36:16Z</time>
      </trkpt>
      <trkpt lat="47.26568" lon="1.06111">
        <ele>88.7</ele>
        <time>2020-07-03T11:36:17Z</time>
      </trkpt>
      <trkpt lat="47.2656" lon="1.06113">
        <ele>88.5</ele>
        <time>2020-07-03T11:36:18Z</time>
      </trkpt>
      <trkpt lat="47.26552" lon="1.06115">
        <ele>88.5</ele>
        <time>2020-07-03T11:36:19Z</time>
      </trkpt>
      <trkpt lat="47.26545" lon="1.06117">
        <ele>88.4</ele>
        <time>2020-07-03T11:36:20Z</time>
      </trkpt>
      <trkpt lat="47.26538" lon="1.06119">
        <ele>88.4</ele>
        <time>2020-07-03T11:36:21Z</time>
      </trkpt>
      <trkpt lat="47.26532" lon="1.0612">
        <ele>88.3</ele>
        <time>2020-07-03T11:36:22Z</time>
      </trkpt>
      <trkpt lat="47.26526" lon="1.06122">
        <ele>88.2</ele>
        <time>2020-07-03T11:36:23Z</time>
      </trkpt>
      <trkpt lat="47.26519" lon="1.06124">
        <ele>88.1</ele>
        <time>2020-07-03T11:36:24Z</time>
      </trkpt>
      <trkpt lat="47.26512" lon="1.06127">
        <ele>88.1</ele>
        <time>2020-07-03T11:36:25Z</time>
      </trkpt>
      <trkpt lat="47.26506" lon="1.0613">
        <ele>88.2</ele>
        <time>2020-07-03T11:36:26Z</time>
      </trkpt>
      <trkpt lat="47.265" lon="1.06133">
        <ele>88.2</ele>
        <time>2020-07-03T11:36:27Z</time>
      </trkpt>
      <trkpt lat="47.26494" lon="1.06136">
        <ele>88.1</ele>
        <time>2020-07-03T11:36:28Z</time>
      </trkpt>
      <trkpt lat="47.26488" lon="1.06139">
        <ele>88</ele>
        <time>2020-07-03T11:36:29Z</time>
      </trkpt>
      <trkpt lat="47.26481" lon="1.06141">
        <ele>87.9</ele>
        <time>2020-07-03T11:36:30Z</time>
      </trkpt>
      <trkpt lat="47.26474" lon="1.06143">
        <ele>87.8</ele>
        <time>2020-07-03T11:36:31Z</time>
      </trkpt>
      <trkpt lat="47.26468" lon="1.06145">
        <ele>87.8</ele>
        <time>2020-07-03T11:36:32Z</time>
      </trkpt>
      <trkpt lat="47.26462" lon="1.06147">
        <ele>87.7</ele>
        <time>2020-07-03T11:36:33Z</time>
      </trkpt>
      <trkpt lat="47.26455" lon="1.0615">
        <ele>87.7</ele>
        <time>2020-07-03T11:36:34Z</time>
      </trkpt>
      <trkpt lat="47.26449" lon="1.06152">
        <ele>87.7</ele>
        <time>2020-07-03T11:36:35Z</time>
      </trkpt>
      <trkpt lat="47.26443" lon="1.06152">
        <ele>87.7</ele>
        <time>2020-07-03T11:36:36Z</time>
      </trkpt>
      <trkpt lat="47.26436" lon="1.06152">
        <ele>87.7</ele>
        <time>2020-07-03T11:36:37Z</time>
      </trkpt>
      <trkpt lat="47.2643" lon="1.06152">
        <ele>87.7</ele>
        <time>2020-07-03T11:36:38Z</time>
      </trkpt>
      <trkpt lat="47.26424" lon="1.06151">
        <ele>87.7</ele>
        <time>2020-07-03T11:36:39Z</time>
      </trkpt>
      <trkpt lat="47.26418" lon="1.06149">
        <ele>87.7</ele>
        <time>2020-07-03T11:36:40Z</time>
      </trkpt>
      <trkpt lat="47.26412" lon="1.06149">
        <ele>87.7</ele>
        <time>2020-07-03T11:36:41Z</time>
      </trkpt>
      <trkpt lat="47.26405" lon="1.06149">
        <ele>87.8</ele>
        <time>2020-07-03T11:36:42Z</time>
      </trkpt>
      <trkpt lat="47.264" lon="1.06149">
        <ele>87.8</ele>
        <time>2020-07-03T11:36:43Z</time>
      </trkpt>
      <trkpt lat="47.26394" lon="1.06149">
        <ele>87.9</ele>
        <time>2020-07-03T11:36:44Z</time>
      </trkpt>
      <trkpt lat="47.2639" lon="1.06149">
        <ele>87.9</ele>
        <time>2020-07-03T11:36:45Z</time>
      </trkpt>
      <trkpt lat="47.26384" lon="1.06148">
        <ele>87.9</ele>
        <time>2020-07-03T11:36:46Z</time>
      </trkpt>
      <trkpt lat="47.26379" lon="1.06148">
        <ele>88</ele>
        <time>2020-07-03T11:36:47Z</time>
      </trkpt>
      <trkpt lat="47.26373" lon="1.06147">
        <ele>88.1</ele>
        <time>2020-07-03T11:36:48Z</time>
      </trkpt>
      <trkpt lat="47.26368" lon="1.06146">
        <ele>88.1</ele>
        <time>2020-07-03T11:36:49Z</time>
      </trkpt>
      <trkpt lat="47.26363" lon="1.06144">
        <ele>88.2</ele>
        <time>2020-07-03T11:36:50Z</time>
      </trkpt>
      <trkpt lat="47.26359" lon="1.06141">
        <ele>88.3</ele>
        <time>2020-07-03T11:36:51Z</time>
      </trkpt>
      <trkpt lat="47.26354" lon="1.06138">
        <ele>88.5</ele>
        <time>2020-07-03T11:36:52Z</time>
      </trkpt>
      <trkpt lat="47.26351" lon="1.06133">
        <ele>88.5</ele>
        <time>2020-07-03T11:36:53Z</time>
      </trkpt>
      <trkpt lat="47.26348" lon="1.06125">
        <ele>88.4</ele>
        <time>2020-07-03T11:36:54Z</time>
      </trkpt>
      <trkpt lat="47.26345" lon="1.06117">
        <ele>88.4</ele>
        <time>2020-07-03T11:36:55Z</time>
      </trkpt>
      <trkpt lat="47.26342" lon="1.06109">
        <ele>88.3</ele>
        <time>2020-07-03T11:36:56Z</time>
      </trkpt>
      <trkpt lat="47.26339" lon="1.06102">
        <ele>88.2</ele>
        <time>2020-07-03T11:36:57Z</time>
      </trkpt>
      <trkpt lat="47.26336" lon="1.06095">
        <ele>88.1</ele>
        <time>2020-07-03T11:36:58Z</time>
      </trkpt>
      <trkpt lat="47.26333" lon="1.06088">
        <ele>88.1</ele>
        <time>2020-07-03T11:36:59Z</time>
      </trkpt>
      <trkpt lat="47.2633" lon="1.0608">
        <ele>88.1</ele>
        <time>2020-07-03T11:37:00Z</time>
      </trkpt>
      <trkpt lat="47.26327" lon="1.06072">
        <ele>88</ele>
        <time>2020-07-03T11:37:01Z</time>
      </trkpt>
      <trkpt lat="47.26323" lon="1.06064">
        <ele>88.1</ele>
        <time>2020-07-03T11:37:02Z</time>
      </trkpt>
      <trkpt lat="47.2632" lon="1.06057">
        <ele>88.1</ele>
        <time>2020-07-03T11:37:03Z</time>
      </trkpt>
      <trkpt lat="47.26315" lon="1.06051">
        <ele>88.4</ele>
        <time>2020-07-03T11:37:04Z</time>
      </trkpt>
      <trkpt lat="47.2631" lon="1.06046">
        <ele>88.5</ele>
        <time>2020-07-03T11:37:05Z</time>
      </trkpt>
      <trkpt lat="47.26304" lon="1.06042">
        <ele>88.7</ele>
        <time>2020-07-03T11:37:06Z</time>
      </trkpt>
      <trkpt lat="47.26298" lon="1.06039">
        <ele>89</ele>
        <time>2020-07-03T11:37:07Z</time>
      </trkpt>
      <trkpt lat="47.26292" lon="1.06038">
        <ele>89.3</ele>
        <time>2020-07-03T11:37:08Z</time>
      </trkpt>
      <trkpt lat="47.26287" lon="1.06038">
        <ele>89.5</ele>
        <time>2020-07-03T11:37:09Z</time>
      </trkpt>
      <trkpt lat="47.26283" lon="1.06037">
        <ele>89.8</ele>
        <time>2020-07-03T11:37:10Z</time>
      </trkpt>
      <trkpt lat="47.26279" lon="1.06037">
        <ele>90</ele>
        <time>2020-07-03T11:37:11Z</time>
      </trkpt>
      <trkpt lat="47.26276" lon="1.06035">
        <ele>90.2</ele>
        <time>2020-07-03T11:37:12Z</time>
      </trkpt>
      <trkpt lat="47.26271" lon="1.06033">
        <ele>90.5</ele>
        <time>2020-07-03T11:37:13Z</time>
      </trkpt>
      <trkpt lat="47.26267" lon="1.06031">
        <ele>90.7</ele>
        <time>2020-07-03T11:37:14Z</time>
      </trkpt>
      <trkpt lat="47.26263" lon="1.06029">
        <ele>91</ele>
        <time>2020-07-03T11:37:15Z</time>
      </trkpt>
      <trkpt lat="47.26259" lon="1.06028">
        <ele>91.2</ele>
        <time>2020-07-03T11:37:16Z</time>
      </trkpt>
      <trkpt lat="47.26256" lon="1.0603">
        <ele>91.5</ele>
        <time>2020-07-03T11:37:17Z</time>
      </trkpt>
      <trkpt lat="47.26252" lon="1.06033">
        <ele>91.5</ele>
        <time>2020-07-03T11:37:18Z</time>
      </trkpt>
      <trkpt lat="47.26248" lon="1.06037">
        <ele>91.6</ele>
        <time>2020-07-03T11:37:19Z</time>
      </trkpt>
      <trkpt lat="47.26245" lon="1.06041">
        <ele>91.6</ele>
        <time>2020-07-03T11:37:20Z</time>
      </trkpt>
      <trkpt lat="47.26242" lon="1.06046">
        <ele>91.7</ele>
        <time>2020-07-03T11:37:21Z</time>
      </trkpt>
      <trkpt lat="47.26239" lon="1.0605">
        <ele>91.8</ele>
        <time>2020-07-03T11:37:22Z</time>
      </trkpt>
      <trkpt lat="47.26236" lon="1.06052">
        <ele>91.8</ele>
        <time>2020-07-03T11:37:23Z</time>
      </trkpt>
      <trkpt lat="47.26233" lon="1.06057">
        <ele>91.9</ele>
        <time>2020-07-03T11:37:24Z</time>
      </trkpt>
      <trkpt lat="47.26229" lon="1.0606">
        <ele>92</ele>
        <time>2020-07-03T11:37:25Z</time>
      </trkpt>
      <trkpt lat="47.26226" lon="1.06062">
        <ele>92.1</ele>
        <time>2020-07-03T11:37:26Z</time>
      </trkpt>
      <trkpt lat="47.26221" lon="1.06062">
        <ele>92.5</ele>
        <time>2020-07-03T11:37:27Z</time>
      </trkpt>
      <trkpt lat="47.26217" lon="1.06063">
        <ele>92.6</ele>
        <time>2020-07-03T11:37:28Z</time>
      </trkpt>
      <trkpt lat="47.26213" lon="1.06057">
        <ele>92.7</ele>
        <time>2020-07-03T11:37:29Z</time>
      </trkpt>
      <trkpt lat="47.26213" lon="1.06049">
        <ele>92.8</ele>
        <time>2020-07-03T11:37:30Z</time>
      </trkpt>
      <trkpt lat="47.26211" lon="1.06044">
        <ele>92.8</ele>
        <time>2020-07-03T11:37:31Z</time>
      </trkpt>
      <trkpt lat="47.2621" lon="1.06039">
        <ele>92.9</ele>
        <time>2020-07-03T11:37:32Z</time>
      </trkpt>
      <trkpt lat="47.26208" lon="1.06036">
        <ele>93</ele>
        <time>2020-07-03T11:37:33Z</time>
      </trkpt>
      <trkpt lat="47.26205" lon="1.06033">
        <ele>93</ele>
        <time>2020-07-03T11:37:34Z</time>
      </trkpt>
      <trkpt lat="47.26202" lon="1.06029">
        <ele>93.2</ele>
        <time>2020-07-03T11:37:35Z</time>
      </trkpt>
      <trkpt lat="47.262" lon="1.06028">
        <ele>93.2</ele>
        <time>2020-07-03T11:37:36Z</time>
      </trkpt>
      <trkpt lat="47.26198" lon="1.06025">
        <ele>93.3</ele>
        <time>2020-07-03T11:37:37Z</time>
      </trkpt>
      <trkpt lat="47.26196" lon="1.06022">
        <ele>93.4</ele>
        <time>2020-07-03T11:37:38Z</time>
      </trkpt>
      <trkpt lat="47.26195" lon="1.0602">
        <ele>93.4</ele>
        <time>2020-07-03T11:37:39Z</time>
      </trkpt>
      <trkpt lat="47.26193" lon="1.06015">
        <ele>93.5</ele>
        <time>2020-07-03T11:37:40Z</time>
      </trkpt>
      <trkpt lat="47.26191" lon="1.06011">
        <ele>93.6</ele>
        <time>2020-07-03T11:37:41Z</time>
      </trkpt>
      <trkpt lat="47.26189" lon="1.06006">
        <ele>93.8</ele>
        <time>2020-07-03T11:37:42Z</time>
      </trkpt>
      <trkpt lat="47.26188" lon="1.06004">
        <ele>93.9</ele>
        <time>2020-07-03T11:37:43Z</time>
      </trkpt>
      <trkpt lat="47.26186" lon="1.05999">
        <ele>94</ele>
        <time>2020-07-03T11:37:44Z</time>
      </trkpt>
      <trkpt lat="47.26184" lon="1.05994">
        <ele>94.2</ele>
        <time>2020-07-03T11:37:45Z</time>
      </trkpt>
      <trkpt lat="47.26183" lon="1.05986">
        <ele>94.5</ele>
        <time>2020-07-03T11:37:46Z</time>
      </trkpt>
      <trkpt lat="47.26182" lon="1.05979">
        <ele>94.8</ele>
        <time>2020-07-03T11:37:47Z</time>
      </trkpt>
      <trkpt lat="47.26182" lon="1.05973">
        <ele>95</ele>
        <time>2020-07-03T11:37:48Z</time>
      </trkpt>
      <trkpt lat="47.26181" lon="1.05966">
        <ele>95.2</ele>
        <time>2020-07-03T11:37:49Z</time>
      </trkpt>
      <trkpt lat="47.26181" lon="1.05961">
        <ele>95.5</ele>
        <time>2020-07-03T11:37:50Z</time>
      </trkpt>
      <trkpt lat="47.26181" lon="1.05954">
        <ele>95.8</ele>
        <time>2020-07-03T11:37:51Z</time>
      </trkpt>
      <trkpt lat="47.26182" lon="1.05951">
        <ele>95.9</ele>
        <time>2020-07-03T11:37:52Z</time>
      </trkpt>
      <trkpt lat="47.26181" lon="1.05946">
        <ele>96</ele>
        <time>2020-07-03T11:37:53Z</time>
      </trkpt>
      <trkpt lat="47.2618" lon="1.05941">
        <ele>96.1</ele>
        <time>2020-07-03T11:37:54Z</time>
      </trkpt>
      <trkpt lat="47.26179" lon="1.05938">
        <ele>96.2</ele>
        <time>2020-07-03T11:37:55Z</time>
      </trkpt>
      <trkpt lat="47.26178" lon="1.05934">
        <ele>96.4</ele>
        <time>2020-07-03T11:37:56Z</time>
      </trkpt>
      <trkpt lat="47.26177" lon="1.05931">
        <ele>96.5</ele>
        <time>2020-07-03T11:37:57Z</time>
      </trkpt>
      <trkpt lat="47.26175" lon="1.05925">
        <ele>96.7</ele>
        <time>2020-07-03T11:37:58Z</time>
      </trkpt>
      <trkpt lat="47.26174" lon="1.05923">
        <ele>96.8</ele>
        <time>2020-07-03T11:37:59Z</time>
      </trkpt>
      <trkpt lat="47.26173" lon="1.05918">
        <ele>96.9</ele>
        <time>2020-07-03T11:38:00Z</time>
      </trkpt>
      <trkpt lat="47.26173" lon="1.05915">
        <ele>97</ele>
        <time>2020-07-03T11:38:01Z</time>
      </trkpt>
      <trkpt lat="47.26172" lon="1.05911">
        <ele>97.2</ele>
        <time>2020-07-03T11:38:02Z</time>
      </trkpt>
      <trkpt lat="47.26172" lon="1.05906">
        <ele>97.4</ele>
        <time>2020-07-03T11:38:03Z</time>
      </trkpt>
      <trkpt lat="47.26171" lon="1.059">
        <ele>97.7</ele>
        <time>2020-07-03T11:38:04Z</time>
      </trkpt>
      <trkpt lat="47.2617" lon="1.05895">
        <ele>97.9</ele>
        <time>2020-07-03T11:38:05Z</time>
      </trkpt>
      <trkpt lat="47.26168" lon="1.05891">
        <ele>98.2</ele>
        <time>2020-07-03T11:38:06Z</time>
      </trkpt>
      <trkpt lat="47.26166" lon="1.05887">
        <ele>98.4</ele>
        <time>2020-07-03T11:38:07Z</time>
      </trkpt>
      <trkpt lat="47.26164" lon="1.05884">
        <ele>98.7</ele>
        <time>2020-07-03T11:38:08Z</time>
      </trkpt>
      <trkpt lat="47.26163" lon="1.05878">
        <ele>99</ele>
        <time>2020-07-03T11:38:09Z</time>
      </trkpt>
      <trkpt lat="47.26162" lon="1.05873">
        <ele>99.2</ele>
        <time>2020-07-03T11:38:10Z</time>
      </trkpt>
      <trkpt lat="47.26161" lon="1.05872">
        <ele>99.3</ele>
        <time>2020-07-03T11:38:11Z</time>
      </trkpt>
      <trkpt lat="47.2616" lon="1.0587">
        <ele>99.4</ele>
        <time>2020-07-03T11:38:12Z</time>
      </trkpt>
      <trkpt lat="47.26159" lon="1.05866">
        <ele>99.6</ele>
        <time>2020-07-03T11:38:13Z</time>
      </trkpt>
      <trkpt lat="47.26156" lon="1.0586">
        <ele>100.6</ele>
        <time>2020-07-03T11:38:14Z</time>
      </trkpt>
      <trkpt lat="47.26155" lon="1.05858">
        <ele>100.6</ele>
        <time>2020-07-03T11:38:15Z</time>
      </trkpt>
      <trkpt lat="47.26154" lon="1.05855">
        <ele>100.6</ele>
        <time>2020-07-03T11:38:16Z</time>
      </trkpt>
      <trkpt lat="47.26152" lon="1.05855">
        <ele>100.5</ele>
        <time>2020-07-03T11:38:17Z</time>
      </trkpt>
      <trkpt lat="47.2615" lon="1.05855">
        <ele>100.5</ele>
        <time>2020-07-03T11:38:18Z</time>
      </trkpt>
      <trkpt lat="47.26148" lon="1.05856">
        <ele>100.5</ele>
        <time>2020-07-03T11:38:19Z</time>
      </trkpt>
      <trkpt lat="47.26145" lon="1.05858">
        <ele>100.4</ele>
        <time>2020-07-03T11:38:20Z</time>
      </trkpt>
      <trkpt lat="47.26143" lon="1.05858">
        <ele>100.4</ele>
        <time>2020-07-03T11:38:21Z</time>
      </trkpt>
      <trkpt lat="47.2614" lon="1.05859">
        <ele>100.4</ele>
        <time>2020-07-03T11:38:22Z</time>
      </trkpt>
      <trkpt lat="47.26136" lon="1.0586">
        <ele>100.4</ele>
        <time>2020-07-03T11:38:23Z</time>
      </trkpt>
      <trkpt lat="47.26133" lon="1.05862">
        <ele>100.4</ele>
        <time>2020-07-03T11:38:24Z</time>
      </trkpt>
      <trkpt lat="47.26129" lon="1.05865">
        <ele>100.4</ele>
        <time>2020-07-03T11:38:25Z</time>
      </trkpt>
      <trkpt lat="47.26126" lon="1.05868">
        <ele>100.4</ele>
        <time>2020-07-03T11:38:26Z</time>
      </trkpt>
      <trkpt lat="47.26123" lon="1.05871">
        <ele>100.4</ele>
        <time>2020-07-03T11:38:27Z</time>
      </trkpt>
      <trkpt lat="47.26119" lon="1.05874">
        <ele>100.5</ele>
        <time>2020-07-03T11:38:28Z</time>
      </trkpt>
      <trkpt lat="47.26116" lon="1.05877">
        <ele>100.5</ele>
        <time>2020-07-03T11:38:29Z</time>
      </trkpt>
      <trkpt lat="47.26113" lon="1.0588">
        <ele>100.6</ele>
        <time>2020-07-03T11:38:30Z</time>
      </trkpt>
      <trkpt lat="47.2611" lon="1.05883">
        <ele>100.7</ele>
        <time>2020-07-03T11:38:31Z</time>
      </trkpt>
      <trkpt lat="47.26107" lon="1.05885">
        <ele>100.7</ele>
        <time>2020-07-03T11:38:32Z</time>
      </trkpt>
      <trkpt lat="47.26104" lon="1.05888">
        <ele>100.8</ele>
        <time>2020-07-03T11:38:33Z</time>
      </trkpt>
      <trkpt lat="47.261" lon="1.05891">
        <ele>100.9</ele>
        <time>2020-07-03T11:38:34Z</time>
      </trkpt>
      <trkpt lat="47.26096" lon="1.05895">
        <ele>101</ele>
        <time>2020-07-03T11:38:35Z</time>
      </trkpt>
      <trkpt lat="47.26092" lon="1.05897">
        <ele>101.1</ele>
        <time>2020-07-03T11:38:36Z</time>
      </trkpt>
      <trkpt lat="47.26088" lon="1.05899">
        <ele>101.3</ele>
        <time>2020-07-03T11:38:37Z</time>
      </trkpt>
      <trkpt lat="47.26085" lon="1.059">
        <ele>101.4</ele>
        <time>2020-07-03T11:38:38Z</time>
      </trkpt>
      <trkpt lat="47.26081" lon="1.05901">
        <ele>101.5</ele>
        <time>2020-07-03T11:38:39Z</time>
      </trkpt>
      <trkpt lat="47.26078" lon="1.05903">
        <ele>101.7</ele>
        <time>2020-07-03T11:38:40Z</time>
      </trkpt>
      <trkpt lat="47.26076" lon="1.05904">
        <ele>101.7</ele>
        <time>2020-07-03T11:38:41Z</time>
      </trkpt>
      <trkpt lat="47.26073" lon="1.05904">
        <ele>101.9</ele>
        <time>2020-07-03T11:38:42Z</time>
      </trkpt>
      <trkpt lat="47.26068" lon="1.05905">
        <ele>102.1</ele>
        <time>2020-07-03T11:38:43Z</time>
      </trkpt>
      <trkpt lat="47.26065" lon="1.05905">
        <ele>102.2</ele>
        <time>2020-07-03T11:38:44Z</time>
      </trkpt>
      <trkpt lat="47.26061" lon="1.05902">
        <ele>102.4</ele>
        <time>2020-07-03T11:38:45Z</time>
      </trkpt>
      <trkpt lat="47.26058" lon="1.05899">
        <ele>102.6</ele>
        <time>2020-07-03T11:38:46Z</time>
      </trkpt>
      <trkpt lat="47.26056" lon="1.05899">
        <ele>102.7</ele>
        <time>2020-07-03T11:38:47Z</time>
      </trkpt>
      <trkpt lat="47.26053" lon="1.05897">
        <ele>102.9</ele>
        <time>2020-07-03T11:38:48Z</time>
      </trkpt>
      <trkpt lat="47.2605" lon="1.05896">
        <ele>103</ele>
        <time>2020-07-03T11:38:49Z</time>
      </trkpt>
      <trkpt lat="47.26046" lon="1.05893">
        <ele>103.2</ele>
        <time>2020-07-03T11:38:50Z</time>
      </trkpt>
      <trkpt lat="47.26043" lon="1.05892">
        <ele>103.4</ele>
        <time>2020-07-03T11:38:51Z</time>
      </trkpt>
      <trkpt lat="47.26039" lon="1.05891">
        <ele>103.6</ele>
        <time>2020-07-03T11:38:52Z</time>
      </trkpt>
      <trkpt lat="47.26037" lon="1.0589">
        <ele>103.7</ele>
        <time>2020-07-03T11:38:53Z</time>
      </trkpt>
      <trkpt lat="47.26031" lon="1.05888">
        <ele>104</ele>
        <time>2020-07-03T11:38:54Z</time>
      </trkpt>
      <trkpt lat="47.26029" lon="1.05887">
        <ele>104.1</ele>
        <time>2020-07-03T11:38:55Z</time>
      </trkpt>
      <trkpt lat="47.26025" lon="1.05887">
        <ele>104.3</ele>
        <time>2020-07-03T11:38:56Z</time>
      </trkpt>
      <trkpt lat="47.26021" lon="1.05886">
        <ele>104.5</ele>
        <time>2020-07-03T11:38:57Z</time>
      </trkpt>
      <trkpt lat="47.26018" lon="1.05886">
        <ele>104.7</ele>
        <time>2020-07-03T11:38:58Z</time>
      </trkpt>
      <trkpt lat="47.26015" lon="1.05885">
        <ele>104.8</ele>
        <time>2020-07-03T11:38:59Z</time>
      </trkpt>
      <trkpt lat="47.26014" lon="1.05885">
        <ele>104.9</ele>
        <time>2020-07-03T11:39:00Z</time>
      </trkpt>
      <trkpt lat="47.26009" lon="1.05883">
        <ele>105.1</ele>
        <time>2020-07-03T11:39:01Z</time>
      </trkpt>
      <trkpt lat="47.26006" lon="1.05883">
        <ele>105.2</ele>
        <time>2020-07-03T11:39:02Z</time>
      </trkpt>
      <trkpt lat="47.26002" lon="1.05881">
        <ele>105.4</ele>
        <time>2020-07-03T11:39:03Z</time>
      </trkpt>
      <trkpt lat="47.25999" lon="1.05881">
        <ele>105.5</ele>
        <time>2020-07-03T11:39:04Z</time>
      </trkpt>
      <trkpt lat="47.25997" lon="1.0588">
        <ele>105.6</ele>
        <time>2020-07-03T11:39:05Z</time>
      </trkpt>
      <trkpt lat="47.25994" lon="1.05879">
        <ele>105.7</ele>
        <time>2020-07-03T11:39:06Z</time>
      </trkpt>
      <trkpt lat="47.25993" lon="1.05878">
        <ele>105.8</ele>
        <time>2020-07-03T11:39:07Z</time>
      </trkpt>
      <trkpt lat="47.2599" lon="1.05878">
        <ele>105.9</ele>
        <time>2020-07-03T11:39:08Z</time>
      </trkpt>
      <trkpt lat="47.25987" lon="1.05878">
        <ele>106.1</ele>
        <time>2020-07-03T11:39:09Z</time>
      </trkpt>
      <trkpt lat="47.25984" lon="1.05877">
        <ele>106.2</ele>
        <time>2020-07-03T11:39:10Z</time>
      </trkpt>
      <trkpt lat="47.25981" lon="1.05878">
        <ele>106.4</ele>
        <time>2020-07-03T11:39:11Z</time>
      </trkpt>
      <trkpt lat="47.25976" lon="1.05878">
        <ele>106.6</ele>
        <time>2020-07-03T11:39:12Z</time>
      </trkpt>
      <trkpt lat="47.25973" lon="1.05878">
        <ele>106.7</ele>
        <time>2020-07-03T11:39:13Z</time>
      </trkpt>
      <trkpt lat="47.2597" lon="1.05878">
        <ele>106.8</ele>
        <time>2020-07-03T11:39:14Z</time>
      </trkpt>
      <trkpt lat="47.25965" lon="1.05879">
        <ele>107</ele>
        <time>2020-07-03T11:39:15Z</time>
      </trkpt>
      <trkpt lat="47.25962" lon="1.05879">
        <ele>107.1</ele>
        <time>2020-07-03T11:39:16Z</time>
      </trkpt>
      <trkpt lat="47.25959" lon="1.05879">
        <ele>107.2</ele>
        <time>2020-07-03T11:39:17Z</time>
      </trkpt>
      <trkpt lat="47.25956" lon="1.05878">
        <ele>107.3</ele>
        <time>2020-07-03T11:39:18Z</time>
      </trkpt>
      <trkpt lat="47.25953" lon="1.05878">
        <ele>107.4</ele>
        <time>2020-07-03T11:39:19Z</time>
      </trkpt>
      <trkpt lat="47.2595" lon="1.05876">
        <ele>107.5</ele>
        <time>2020-07-03T11:39:20Z</time>
      </trkpt>
      <trkpt lat="47.25946" lon="1.05876">
        <ele>107.6</ele>
        <time>2020-07-03T11:39:21Z</time>
      </trkpt>
      <trkpt lat="47.25945" lon="1.05876">
        <ele>107.6</ele>
        <time>2020-07-03T11:39:22Z</time>
      </trkpt>
      <trkpt lat="47.25942" lon="1.05876">
        <ele>107.7</ele>
        <time>2020-07-03T11:39:23Z</time>
      </trkpt>
      <trkpt lat="47.25937" lon="1.05875">
        <ele>107.8</ele>
        <time>2020-07-03T11:39:24Z</time>
      </trkpt>
      <trkpt lat="47.25934" lon="1.05874">
        <ele>107.9</ele>
        <time>2020-07-03T11:39:25Z</time>
      </trkpt>
      <trkpt lat="47.25931" lon="1.05872">
        <ele>108</ele>
        <time>2020-07-03T11:39:26Z</time>
      </trkpt>
      <trkpt lat="47.25926" lon="1.05869">
        <ele>108.1</ele>
        <time>2020-07-03T11:39:27Z</time>
      </trkpt>
      <trkpt lat="47.25922" lon="1.05867">
        <ele>108.2</ele>
        <time>2020-07-03T11:39:28Z</time>
      </trkpt>
      <trkpt lat="47.25918" lon="1.05866">
        <ele>108.3</ele>
        <time>2020-07-03T11:39:29Z</time>
      </trkpt>
      <trkpt lat="47.25914" lon="1.05865">
        <ele>108.4</ele>
        <time>2020-07-03T11:39:30Z</time>
      </trkpt>
      <trkpt lat="47.25911" lon="1.05863">
        <ele>108.4</ele>
        <time>2020-07-03T11:39:31Z</time>
      </trkpt>
      <trkpt lat="47.25907" lon="1.05859">
        <ele>108.5</ele>
        <time>2020-07-03T11:39:32Z</time>
      </trkpt>
      <trkpt lat="47.25904" lon="1.05856">
        <ele>108.6</ele>
        <time>2020-07-03T11:39:33Z</time>
      </trkpt>
      <trkpt lat="47.259" lon="1.05854">
        <ele>108.6</ele>
        <time>2020-07-03T11:39:34Z</time>
      </trkpt>
      <trkpt lat="47.25897" lon="1.05851">
        <ele>108.7</ele>
        <time>2020-07-03T11:39:35Z</time>
      </trkpt>
      <trkpt lat="47.25895" lon="1.05849">
        <ele>108.7</ele>
        <time>2020-07-03T11:39:36Z</time>
      </trkpt>
      <trkpt lat="47.25891" lon="1.05845">
        <ele>108.8</ele>
        <time>2020-07-03T11:39:37Z</time>
      </trkpt>
      <trkpt lat="47.25887" lon="1.05841">
        <ele>108.9</ele>
        <time>2020-07-03T11:39:38Z</time>
      </trkpt>
      <trkpt lat="47.25883" lon="1.05837">
        <ele>109</ele>
        <time>2020-07-03T11:39:39Z</time>
      </trkpt>
      <trkpt lat="47.2588" lon="1.05833">
        <ele>109.1</ele>
        <time>2020-07-03T11:39:40Z</time>
      </trkpt>
      <trkpt lat="47.25877" lon="1.05829">
        <ele>109.1</ele>
        <time>2020-07-03T11:39:41Z</time>
      </trkpt>
      <trkpt lat="47.25874" lon="1.05825">
        <ele>109.1</ele>
        <time>2020-07-03T11:39:42Z</time>
      </trkpt>
      <trkpt lat="47.25871" lon="1.05822">
        <ele>109.2</ele>
        <time>2020-07-03T11:39:43Z</time>
      </trkpt>
      <trkpt lat="47.25868" lon="1.05819">
        <ele>109.2</ele>
        <time>2020-07-03T11:39:44Z</time>
      </trkpt>
      <trkpt lat="47.25865" lon="1.05816">
        <ele>109.3</ele>
        <time>2020-07-03T11:39:45Z</time>
      </trkpt>
      <trkpt lat="47.25861" lon="1.05813">
        <ele>109.3</ele>
        <time>2020-07-03T11:39:46Z</time>
      </trkpt>
      <trkpt lat="47.25857" lon="1.05811">
        <ele>109.4</ele>
        <time>2020-07-03T11:39:47Z</time>
      </trkpt>
      <trkpt lat="47.25852" lon="1.05808">
        <ele>109.5</ele>
        <time>2020-07-03T11:39:48Z</time>
      </trkpt>
      <trkpt lat="47.25847" lon="1.05807">
        <ele>109.5</ele>
        <time>2020-07-03T11:39:49Z</time>
      </trkpt>
      <trkpt lat="47.25843" lon="1.05804">
        <ele>109.6</ele>
        <time>2020-07-03T11:39:50Z</time>
      </trkpt>
      <trkpt lat="47.25839" lon="1.05801">
        <ele>109.7</ele>
        <time>2020-07-03T11:39:51Z</time>
      </trkpt>
      <trkpt lat="47.25835" lon="1.058">
        <ele>109.8</ele>
        <time>2020-07-03T11:39:52Z</time>
      </trkpt>
      <trkpt lat="47.25832" lon="1.05798">
        <ele>109.8</ele>
        <time>2020-07-03T11:39:53Z</time>
      </trkpt>
      <trkpt lat="47.25827" lon="1.05795">
        <ele>109.9</ele>
        <time>2020-07-03T11:39:54Z</time>
      </trkpt>
      <trkpt lat="47.25823" lon="1.05793">
        <ele>110</ele>
        <time>2020-07-03T11:39:55Z</time>
      </trkpt>
      <trkpt lat="47.25819" lon="1.0579">
        <ele>110.1</ele>
        <time>2020-07-03T11:39:56Z</time>
      </trkpt>
      <trkpt lat="47.25815" lon="1.05789">
        <ele>110.1</ele>
        <time>2020-07-03T11:39:57Z</time>
      </trkpt>
      <trkpt lat="47.25811" lon="1.05787">
        <ele>110.1</ele>
        <time>2020-07-03T11:39:58Z</time>
      </trkpt>
      <trkpt lat="47.25806" lon="1.05786">
        <ele>110.1</ele>
        <time>2020-07-03T11:39:59Z</time>
      </trkpt>
      <trkpt lat="47.25801" lon="1.05783">
        <ele>110.1</ele>
        <time>2020-07-03T11:40:00Z</time>
      </trkpt>
      <trkpt lat="47.25796" lon="1.0578">
        <ele>110.1</ele>
        <time>2020-07-03T11:40:01Z</time>
      </trkpt>
      <trkpt lat="47.25791" lon="1.05777">
        <ele>110.1</ele>
        <time>2020-07-03T11:40:02Z</time>
      </trkpt>
      <trkpt lat="47.25787" lon="1.05775">
        <ele>110.1</ele>
        <time>2020-07-03T11:40:03Z</time>
      </trkpt>
      <trkpt lat="47.25783" lon="1.05774">
        <ele>110.2</ele>
        <time>2020-07-03T11:40:04Z</time>
      </trkpt>
      <trkpt lat="47.25778" lon="1.05772">
        <ele>110.3</ele>
        <time>2020-07-03T11:40:05Z</time>
      </trkpt>
      <trkpt lat="47.25774" lon="1.0577">
        <ele>110.3</ele>
        <time>2020-07-03T11:40:06Z</time>
      </trkpt>
      <trkpt lat="47.2577" lon="1.05768">
        <ele>110.3</ele>
        <time>2020-07-03T11:40:07Z</time>
      </trkpt>
      <trkpt lat="47.25765" lon="1.05768">
        <ele>110.4</ele>
        <time>2020-07-03T11:40:08Z</time>
      </trkpt>
      <trkpt lat="47.25759" lon="1.05764">
        <ele>110.5</ele>
        <time>2020-07-03T11:40:09Z</time>
      </trkpt>
      <trkpt lat="47.25754" lon="1.05762">
        <ele>110.5</ele>
        <time>2020-07-03T11:40:10Z</time>
      </trkpt>
      <trkpt lat="47.2575" lon="1.05761">
        <ele>110.6</ele>
        <time>2020-07-03T11:40:11Z</time>
      </trkpt>
      <trkpt lat="47.25745" lon="1.05758">
        <ele>110.7</ele>
        <time>2020-07-03T11:40:12Z</time>
      </trkpt>
      <trkpt lat="47.2574" lon="1.05756">
        <ele>110.7</ele>
        <time>2020-07-03T11:40:13Z</time>
      </trkpt>
      <trkpt lat="47.25736" lon="1.05754">
        <ele>110.8</ele>
        <time>2020-07-03T11:40:14Z</time>
      </trkpt>
      <trkpt lat="47.25731" lon="1.05752">
        <ele>110.8</ele>
        <time>2020-07-03T11:40:15Z</time>
      </trkpt>
      <trkpt lat="47.25726" lon="1.05749">
        <ele>110.9</ele>
        <time>2020-07-03T11:40:16Z</time>
      </trkpt>
      <trkpt lat="47.25721" lon="1.05746">
        <ele>111</ele>
        <time>2020-07-03T11:40:17Z</time>
      </trkpt>
      <trkpt lat="47.25716" lon="1.05744">
        <ele>111.1</ele>
        <time>2020-07-03T11:40:18Z</time>
      </trkpt>
      <trkpt lat="47.25711" lon="1.05741">
        <ele>111.2</ele>
        <time>2020-07-03T11:40:19Z</time>
      </trkpt>
      <trkpt lat="47.25707" lon="1.05738">
        <ele>111.3</ele>
        <time>2020-07-03T11:40:20Z</time>
      </trkpt>
      <trkpt lat="47.25703" lon="1.05733">
        <ele>111.4</ele>
        <time>2020-07-03T11:40:21Z</time>
      </trkpt>
      <trkpt lat="47.25698" lon="1.0573">
        <ele>111.5</ele>
        <time>2020-07-03T11:40:22Z</time>
      </trkpt>
      <trkpt lat="47.25694" lon="1.05724">
        <ele>111.6</ele>
        <time>2020-07-03T11:40:23Z</time>
      </trkpt>
      <trkpt lat="47.2569" lon="1.05721">
        <ele>111.7</ele>
        <time>2020-07-03T11:40:24Z</time>
      </trkpt>
      <trkpt lat="47.25687" lon="1.05718">
        <ele>111.7</ele>
        <time>2020-07-03T11:40:25Z</time>
      </trkpt>
      <trkpt lat="47.25683" lon="1.05714">
        <ele>111.8</ele>
        <time>2020-07-03T11:40:26Z</time>
      </trkpt>
      <trkpt lat="47.25679" lon="1.05709">
        <ele>111.9</ele>
        <time>2020-07-03T11:40:27Z</time>
      </trkpt>
      <trkpt lat="47.25676" lon="1.05706">
        <ele>112</ele>
        <time>2020-07-03T11:40:28Z</time>
      </trkpt>
      <trkpt lat="47.25673" lon="1.05702">
        <ele>112.1</ele>
        <time>2020-07-03T11:40:29Z</time>
      </trkpt>
      <trkpt lat="47.25669" lon="1.05698">
        <ele>112.2</ele>
        <time>2020-07-03T11:40:30Z</time>
      </trkpt>
      <trkpt lat="47.25667" lon="1.05693">
        <ele>112.2</ele>
        <time>2020-07-03T11:40:31Z</time>
      </trkpt>
      <trkpt lat="47.25664" lon="1.05688">
        <ele>112.2</ele>
        <time>2020-07-03T11:40:32Z</time>
      </trkpt>
      <trkpt lat="47.25661" lon="1.05685">
        <ele>112.3</ele>
        <time>2020-07-03T11:40:33Z</time>
      </trkpt>
      <trkpt lat="47.25657" lon="1.05681">
        <ele>112.3</ele>
        <time>2020-07-03T11:40:34Z</time>
      </trkpt>
      <trkpt lat="47.25652" lon="1.05677">
        <ele>112.3</ele>
        <time>2020-07-03T11:40:35Z</time>
      </trkpt>
      <trkpt lat="47.25649" lon="1.05673">
        <ele>112.3</ele>
        <time>2020-07-03T11:40:36Z</time>
      </trkpt>
      <trkpt lat="47.25645" lon="1.05668">
        <ele>112.3</ele>
        <time>2020-07-03T11:40:37Z</time>
      </trkpt>
      <trkpt lat="47.25641" lon="1.05665">
        <ele>112.3</ele>
        <time>2020-07-03T11:40:38Z</time>
      </trkpt>
      <trkpt lat="47.25638" lon="1.05661">
        <ele>112.3</ele>
        <time>2020-07-03T11:40:39Z</time>
      </trkpt>
      <trkpt lat="47.25633" lon="1.05657">
        <ele>112.3</ele>
        <time>2020-07-03T11:40:40Z</time>
      </trkpt>
      <trkpt lat="47.2563" lon="1.05653">
        <ele>112.3</ele>
        <time>2020-07-03T11:40:41Z</time>
      </trkpt>
      <trkpt lat="47.25625" lon="1.05647">
        <ele>112.3</ele>
        <time>2020-07-03T11:40:42Z</time>
      </trkpt>
      <trkpt lat="47.25622" lon="1.05643">
        <ele>112.4</ele>
        <time>2020-07-03T11:40:43Z</time>
      </trkpt>
      <trkpt lat="47.25618" lon="1.05639">
        <ele>112.4</ele>
        <time>2020-07-03T11:40:44Z</time>
      </trkpt>
      <trkpt lat="47.25614" lon="1.05634">
        <ele>112.4</ele>
        <time>2020-07-03T11:40:45Z</time>
      </trkpt>
      <trkpt lat="47.25611" lon="1.0563">
        <ele>112.4</ele>
        <time>2020-07-03T11:40:46Z</time>
      </trkpt>
      <trkpt lat="47.25606" lon="1.05625">
        <ele>112.3</ele>
        <time>2020-07-03T11:40:47Z</time>
      </trkpt>
      <trkpt lat="47.25601" lon="1.0562">
        <ele>112.2</ele>
        <time>2020-07-03T11:40:48Z</time>
      </trkpt>
      <trkpt lat="47.25597" lon="1.05615">
        <ele>112.2</ele>
        <time>2020-07-03T11:40:49Z</time>
      </trkpt>
      <trkpt lat="47.25593" lon="1.05611">
        <ele>112.2</ele>
        <time>2020-07-03T11:40:50Z</time>
      </trkpt>
      <trkpt lat="47.25589" lon="1.05607">
        <ele>112.1</ele>
        <time>2020-07-03T11:40:51Z</time>
      </trkpt>
      <trkpt lat="47.25585" lon="1.05602">
        <ele>112.1</ele>
        <time>2020-07-03T11:40:52Z</time>
      </trkpt>
      <trkpt lat="47.25581" lon="1.05598">
        <ele>112.1</ele>
        <time>2020-07-03T11:40:53Z</time>
      </trkpt>
      <trkpt lat="47.25576" lon="1.05595">
        <ele>112.1</ele>
        <time>2020-07-03T11:40:54Z</time>
      </trkpt>
      <trkpt lat="47.25572" lon="1.0559">
        <ele>112</ele>
        <time>2020-07-03T11:40:55Z</time>
      </trkpt>
      <trkpt lat="47.25568" lon="1.05585">
        <ele>112</ele>
        <time>2020-07-03T11:40:56Z</time>
      </trkpt>
      <trkpt lat="47.25565" lon="1.0558">
        <ele>112</ele>
        <time>2020-07-03T11:40:57Z</time>
      </trkpt>
      <trkpt lat="47.25561" lon="1.05575">
        <ele>112</ele>
        <time>2020-07-03T11:40:58Z</time>
      </trkpt>
      <trkpt lat="47.25558" lon="1.05571">
        <ele>112</ele>
        <time>2020-07-03T11:40:59Z</time>
      </trkpt>
      <trkpt lat="47.25554" lon="1.05566">
        <ele>112</ele>
        <time>2020-07-03T11:41:00Z</time>
      </trkpt>
      <trkpt lat="47.25552" lon="1.05562">
        <ele>112</ele>
        <time>2020-07-03T11:41:01Z</time>
      </trkpt>
      <trkpt lat="47.25547" lon="1.05558">
        <ele>112</ele>
        <time>2020-07-03T11:41:02Z</time>
      </trkpt>
      <trkpt lat="47.25543" lon="1.05554">
        <ele>112.1</ele>
        <time>2020-07-03T11:41:03Z</time>
      </trkpt>
      <trkpt lat="47.2554" lon="1.0555">
        <ele>112.1</ele>
        <time>2020-07-03T11:41:04Z</time>
      </trkpt>
      <trkpt lat="47.25536" lon="1.05545">
        <ele>112.1</ele>
        <time>2020-07-03T11:41:05Z</time>
      </trkpt>
      <trkpt lat="47.25532" lon="1.0554">
        <ele>112.1</ele>
        <time>2020-07-03T11:41:06Z</time>
      </trkpt>
      <trkpt lat="47.25527" lon="1.05536">
        <ele>112.1</ele>
        <time>2020-07-03T11:41:07Z</time>
      </trkpt>
      <trkpt lat="47.25523" lon="1.05532">
        <ele>112.2</ele>
        <time>2020-07-03T11:41:08Z</time>
      </trkpt>
      <trkpt lat="47.25519" lon="1.05529">
        <ele>112.2</ele>
        <time>2020-07-03T11:41:09Z</time>
      </trkpt>
      <trkpt lat="47.25515" lon="1.05525">
        <ele>112.2</ele>
        <time>2020-07-03T11:41:10Z</time>
      </trkpt>
      <trkpt lat="47.2551" lon="1.05521">
        <ele>112.2</ele>
        <time>2020-07-03T11:41:11Z</time>
      </trkpt>
      <trkpt lat="47.25507" lon="1.05516">
        <ele>112.2</ele>
        <time>2020-07-03T11:41:12Z</time>
      </trkpt>
      <trkpt lat="47.25504" lon="1.05511">
        <ele>112.2</ele>
        <time>2020-07-03T11:41:13Z</time>
      </trkpt>
      <trkpt lat="47.255" lon="1.05506">
        <ele>112.2</ele>
        <time>2020-07-03T11:41:14Z</time>
      </trkpt>
      <trkpt lat="47.25496" lon="1.05502">
        <ele>112.2</ele>
        <time>2020-07-03T11:41:15Z</time>
      </trkpt>
      <trkpt lat="47.25492" lon="1.05498">
        <ele>112.2</ele>
        <time>2020-07-03T11:41:16Z</time>
      </trkpt>
      <trkpt lat="47.25487" lon="1.05493">
        <ele>112.1</ele>
        <time>2020-07-03T11:41:17Z</time>
      </trkpt>
      <trkpt lat="47.25483" lon="1.05487">
        <ele>112.1</ele>
        <time>2020-07-03T11:41:18Z</time>
      </trkpt>
      <trkpt lat="47.25478" lon="1.05483">
        <ele>112.1</ele>
        <time>2020-07-03T11:41:19Z</time>
      </trkpt>
      <trkpt lat="47.25475" lon="1.0548">
        <ele>112</ele>
        <time>2020-07-03T11:41:20Z</time>
      </trkpt>
      <trkpt lat="47.2547" lon="1.05476">
        <ele>112</ele>
        <time>2020-07-03T11:41:21Z</time>
      </trkpt>
      <trkpt lat="47.25466" lon="1.05471">
        <ele>112</ele>
        <time>2020-07-03T11:41:22Z</time>
      </trkpt>
      <trkpt lat="47.25461" lon="1.05467">
        <ele>111.9</ele>
        <time>2020-07-03T11:41:23Z</time>
      </trkpt>
      <trkpt lat="47.25457" lon="1.05462">
        <ele>111.9</ele>
        <time>2020-07-03T11:41:24Z</time>
      </trkpt>
      <trkpt lat="47.25453" lon="1.05457">
        <ele>111.8</ele>
        <time>2020-07-03T11:41:25Z</time>
      </trkpt>
      <trkpt lat="47.25449" lon="1.05452">
        <ele>111.7</ele>
        <time>2020-07-03T11:41:26Z</time>
      </trkpt>
      <trkpt lat="47.25445" lon="1.05449">
        <ele>111.7</ele>
        <time>2020-07-03T11:41:27Z</time>
      </trkpt>
      <trkpt lat="47.25442" lon="1.05445">
        <ele>111.6</ele>
        <time>2020-07-03T11:41:28Z</time>
      </trkpt>
      <trkpt lat="47.25437" lon="1.0544">
        <ele>111.6</ele>
        <time>2020-07-03T11:41:29Z</time>
      </trkpt>
      <trkpt lat="47.25432" lon="1.05435">
        <ele>111.6</ele>
        <time>2020-07-03T11:41:30Z</time>
      </trkpt>
      <trkpt lat="47.25428" lon="1.0543">
        <ele>111.5</ele>
        <time>2020-07-03T11:41:31Z</time>
      </trkpt>
      <trkpt lat="47.25424" lon="1.05426">
        <ele>111.5</ele>
        <time>2020-07-03T11:41:32Z</time>
      </trkpt>
      <trkpt lat="47.2542" lon="1.05422">
        <ele>111.5</ele>
        <time>2020-07-03T11:41:33Z</time>
      </trkpt>
      <trkpt lat="47.25416" lon="1.05418">
        <ele>111.5</ele>
        <time>2020-07-03T11:41:34Z</time>
      </trkpt>
      <trkpt lat="47.25413" lon="1.05414">
        <ele>111.5</ele>
        <time>2020-07-03T11:41:35Z</time>
      </trkpt>
      <trkpt lat="47.25409" lon="1.0541">
        <ele>111.5</ele>
        <time>2020-07-03T11:41:36Z</time>
      </trkpt>
      <trkpt lat="47.25405" lon="1.05405">
        <ele>111.6</ele>
        <time>2020-07-03T11:41:37Z</time>
      </trkpt>
      <trkpt lat="47.254" lon="1.054">
        <ele>111.6</ele>
        <time>2020-07-03T11:41:38Z</time>
      </trkpt>
      <trkpt lat="47.25397" lon="1.05395">
        <ele>111.6</ele>
        <time>2020-07-03T11:41:39Z</time>
      </trkpt>
      <trkpt lat="47.25392" lon="1.05391">
        <ele>111.6</ele>
        <time>2020-07-03T11:41:40Z</time>
      </trkpt>
      <trkpt lat="47.25388" lon="1.05386">
        <ele>111.6</ele>
        <time>2020-07-03T11:41:41Z</time>
      </trkpt>
      <trkpt lat="47.25385" lon="1.05383">
        <ele>111.7</ele>
        <time>2020-07-03T11:41:42Z</time>
      </trkpt>
      <trkpt lat="47.25382" lon="1.0538">
        <ele>111.7</ele>
        <time>2020-07-03T11:41:43Z</time>
      </trkpt>
      <trkpt lat="47.25378" lon="1.05376">
        <ele>111.7</ele>
        <time>2020-07-03T11:41:44Z</time>
      </trkpt>
      <trkpt lat="47.25375" lon="1.05372">
        <ele>111.8</ele>
        <time>2020-07-03T11:41:45Z</time>
      </trkpt>
      <trkpt lat="47.25371" lon="1.05368">
        <ele>111.8</ele>
        <time>2020-07-03T11:41:46Z</time>
      </trkpt>
      <trkpt lat="47.25367" lon="1.05364">
        <ele>111.9</ele>
        <time>2020-07-03T11:41:47Z</time>
      </trkpt>
      <trkpt lat="47.25363" lon="1.05359">
        <ele>111.9</ele>
        <time>2020-07-03T11:41:48Z</time>
      </trkpt>
      <trkpt lat="47.2536" lon="1.05354">
        <ele>111.9</ele>
        <time>2020-07-03T11:41:49Z</time>
      </trkpt>
      <trkpt lat="47.25356" lon="1.0535">
        <ele>112</ele>
        <time>2020-07-03T11:41:50Z</time>
      </trkpt>
      <trkpt lat="47.25353" lon="1.05346">
        <ele>112</ele>
        <time>2020-07-03T11:41:51Z</time>
      </trkpt>
      <trkpt lat="47.25349" lon="1.05341">
        <ele>112</ele>
        <time>2020-07-03T11:41:52Z</time>
      </trkpt>
      <trkpt lat="47.25345" lon="1.05336">
        <ele>112</ele>
        <time>2020-07-03T11:41:53Z</time>
      </trkpt>
      <trkpt lat="47.25341" lon="1.05331">
        <ele>111.9</ele>
        <time>2020-07-03T11:41:54Z</time>
      </trkpt>
      <trkpt lat="47.25337" lon="1.05326">
        <ele>111.9</ele>
        <time>2020-07-03T11:41:55Z</time>
      </trkpt>
      <trkpt lat="47.25334" lon="1.05321">
        <ele>111.8</ele>
        <time>2020-07-03T11:41:56Z</time>
      </trkpt>
      <trkpt lat="47.2533" lon="1.05316">
        <ele>111.8</ele>
        <time>2020-07-03T11:41:57Z</time>
      </trkpt>
      <trkpt lat="47.25327" lon="1.05312">
        <ele>111.8</ele>
        <time>2020-07-03T11:41:58Z</time>
      </trkpt>
      <trkpt lat="47.25324" lon="1.05308">
        <ele>111.7</ele>
        <time>2020-07-03T11:41:59Z</time>
      </trkpt>
      <trkpt lat="47.2532" lon="1.05303">
        <ele>111.7</ele>
        <time>2020-07-03T11:42:00Z</time>
      </trkpt>
      <trkpt lat="47.25316" lon="1.05298">
        <ele>111.6</ele>
        <time>2020-07-03T11:42:01Z</time>
      </trkpt>
      <trkpt lat="47.25312" lon="1.05293">
        <ele>111.6</ele>
        <time>2020-07-03T11:42:02Z</time>
      </trkpt>
      <trkpt lat="47.25309" lon="1.05289">
        <ele>111.5</ele>
        <time>2020-07-03T11:42:03Z</time>
      </trkpt>
      <trkpt lat="47.25305" lon="1.05284">
        <ele>111.4</ele>
        <time>2020-07-03T11:42:04Z</time>
      </trkpt>
      <trkpt lat="47.25301" lon="1.05279">
        <ele>111.4</ele>
        <time>2020-07-03T11:42:05Z</time>
      </trkpt>
      <trkpt lat="47.25298" lon="1.05274">
        <ele>111.3</ele>
        <time>2020-07-03T11:42:06Z</time>
      </trkpt>
      <trkpt lat="47.25294" lon="1.05269">
        <ele>111.2</ele>
        <time>2020-07-03T11:42:07Z</time>
      </trkpt>
      <trkpt lat="47.2529" lon="1.05264">
        <ele>111.1</ele>
        <time>2020-07-03T11:42:08Z</time>
      </trkpt>
      <trkpt lat="47.25287" lon="1.05259">
        <ele>111</ele>
        <time>2020-07-03T11:42:09Z</time>
      </trkpt>
      <trkpt lat="47.25282" lon="1.05253">
        <ele>110.9</ele>
        <time>2020-07-03T11:42:10Z</time>
      </trkpt>
      <trkpt lat="47.25278" lon="1.05248">
        <ele>110.7</ele>
        <time>2020-07-03T11:42:11Z</time>
      </trkpt>
      <trkpt lat="47.25274" lon="1.05243">
        <ele>110.6</ele>
        <time>2020-07-03T11:42:12Z</time>
      </trkpt>
      <trkpt lat="47.25269" lon="1.05238">
        <ele>110.5</ele>
        <time>2020-07-03T11:42:13Z</time>
      </trkpt>
      <trkpt lat="47.25265" lon="1.05232">
        <ele>110.4</ele>
        <time>2020-07-03T11:42:14Z</time>
      </trkpt>
      <trkpt lat="47.25261" lon="1.05228">
        <ele>110.3</ele>
        <time>2020-07-03T11:42:15Z</time>
      </trkpt>
      <trkpt lat="47.25257" lon="1.05223">
        <ele>110.2</ele>
        <time>2020-07-03T11:42:16Z</time>
      </trkpt>
      <trkpt lat="47.25253" lon="1.05219">
        <ele>110.2</ele>
        <time>2020-07-03T11:42:17Z</time>
      </trkpt>
      <trkpt lat="47.25249" lon="1.05214">
        <ele>110.1</ele>
        <time>2020-07-03T11:42:18Z</time>
      </trkpt>
      <trkpt lat="47.25245" lon="1.0521">
        <ele>110.1</ele>
        <time>2020-07-03T11:42:19Z</time>
      </trkpt>
      <trkpt lat="47.25241" lon="1.05205">
        <ele>110</ele>
        <time>2020-07-03T11:42:20Z</time>
      </trkpt>
      <trkpt lat="47.25236" lon="1.05199">
        <ele>110</ele>
        <time>2020-07-03T11:42:21Z</time>
      </trkpt>
      <trkpt lat="47.25232" lon="1.05195">
        <ele>110</ele>
        <time>2020-07-03T11:42:22Z</time>
      </trkpt>
      <trkpt lat="47.25228" lon="1.05191">
        <ele>110</ele>
        <time>2020-07-03T11:42:23Z</time>
      </trkpt>
      <trkpt lat="47.25222" lon="1.05187">
        <ele>110</ele>
        <time>2020-07-03T11:42:24Z</time>
      </trkpt>
      <trkpt lat="47.25218" lon="1.05184">
        <ele>110</ele>
        <time>2020-07-03T11:42:25Z</time>
      </trkpt>
      <trkpt lat="47.25213" lon="1.05181">
        <ele>110</ele>
        <time>2020-07-03T11:42:26Z</time>
      </trkpt>
      <trkpt lat="47.25209" lon="1.05178">
        <ele>110.1</ele>
        <time>2020-07-03T11:42:27Z</time>
      </trkpt>
      <trkpt lat="47.25204" lon="1.05175">
        <ele>110.1</ele>
        <time>2020-07-03T11:42:28Z</time>
      </trkpt>
      <trkpt lat="47.252" lon="1.05172">
        <ele>110.2</ele>
        <time>2020-07-03T11:42:29Z</time>
      </trkpt>
      <trkpt lat="47.25195" lon="1.05169">
        <ele>110.3</ele>
        <time>2020-07-03T11:42:30Z</time>
      </trkpt>
      <trkpt lat="47.25191" lon="1.05168">
        <ele>110.4</ele>
        <time>2020-07-03T11:42:31Z</time>
      </trkpt>
      <trkpt lat="47.25186" lon="1.05166">
        <ele>110.5</ele>
        <time>2020-07-03T11:42:32Z</time>
      </trkpt>
      <trkpt lat="47.25182" lon="1.05164">
        <ele>110.5</ele>
        <time>2020-07-03T11:42:33Z</time>
      </trkpt>
      <trkpt lat="47.25178" lon="1.05163">
        <ele>110.6</ele>
        <time>2020-07-03T11:42:34Z</time>
      </trkpt>
      <trkpt lat="47.25174" lon="1.0516">
        <ele>110.7</ele>
        <time>2020-07-03T11:42:35Z</time>
      </trkpt>
      <trkpt lat="47.25169" lon="1.05157">
        <ele>110.7</ele>
        <time>2020-07-03T11:42:36Z</time>
      </trkpt>
      <trkpt lat="47.25164" lon="1.05155">
        <ele>110.8</ele>
        <time>2020-07-03T11:42:37Z</time>
      </trkpt>
      <trkpt lat="47.2516" lon="1.05153">
        <ele>110.9</ele>
        <time>2020-07-03T11:42:38Z</time>
      </trkpt>
      <trkpt lat="47.25155" lon="1.0515">
        <ele>111</ele>
        <time>2020-07-03T11:42:39Z</time>
      </trkpt>
      <trkpt lat="47.25151" lon="1.05147">
        <ele>111.2</ele>
        <time>2020-07-03T11:42:40Z</time>
      </trkpt>
      <trkpt lat="47.25148" lon="1.05145">
        <ele>111.2</ele>
        <time>2020-07-03T11:42:41Z</time>
      </trkpt>
      <trkpt lat="47.25144" lon="1.05142">
        <ele>111.4</ele>
        <time>2020-07-03T11:42:42Z</time>
      </trkpt>
      <trkpt lat="47.2514" lon="1.05138">
        <ele>111.5</ele>
        <time>2020-07-03T11:42:43Z</time>
      </trkpt>
      <trkpt lat="47.25136" lon="1.05135">
        <ele>111.6</ele>
        <time>2020-07-03T11:42:44Z</time>
      </trkpt>
      <trkpt lat="47.25133" lon="1.05131">
        <ele>111.7</ele>
        <time>2020-07-03T11:42:45Z</time>
      </trkpt>
      <trkpt lat="47.25129" lon="1.05127">
        <ele>111.8</ele>
        <time>2020-07-03T11:42:46Z</time>
      </trkpt>
      <trkpt lat="47.25125" lon="1.05124">
        <ele>111.9</ele>
        <time>2020-07-03T11:42:47Z</time>
      </trkpt>
      <trkpt lat="47.25122" lon="1.0512">
        <ele>112</ele>
        <time>2020-07-03T11:42:48Z</time>
      </trkpt>
      <trkpt lat="47.25118" lon="1.05116">
        <ele>112</ele>
        <time>2020-07-03T11:42:49Z</time>
      </trkpt>
      <trkpt lat="47.25116" lon="1.05113">
        <ele>112.1</ele>
        <time>2020-07-03T11:42:50Z</time>
      </trkpt>
      <trkpt lat="47.25113" lon="1.05109">
        <ele>112.2</ele>
        <time>2020-07-03T11:42:51Z</time>
      </trkpt>
      <trkpt lat="47.2511" lon="1.05105">
        <ele>112.2</ele>
        <time>2020-07-03T11:42:52Z</time>
      </trkpt>
      <trkpt lat="47.25106" lon="1.05102">
        <ele>112.3</ele>
        <time>2020-07-03T11:42:53Z</time>
      </trkpt>
      <trkpt lat="47.25103" lon="1.05098">
        <ele>112.4</ele>
        <time>2020-07-03T11:42:54Z</time>
      </trkpt>
      <trkpt lat="47.25099" lon="1.05094">
        <ele>112.5</ele>
        <time>2020-07-03T11:42:55Z</time>
      </trkpt>
      <trkpt lat="47.25095" lon="1.05091">
        <ele>112.6</ele>
        <time>2020-07-03T11:42:56Z</time>
      </trkpt>
      <trkpt lat="47.25092" lon="1.05087">
        <ele>112.7</ele>
        <time>2020-07-03T11:42:57Z</time>
      </trkpt>
      <trkpt lat="47.25088" lon="1.05084">
        <ele>112.8</ele>
        <time>2020-07-03T11:42:58Z</time>
      </trkpt>
      <trkpt lat="47.25085" lon="1.05081">
        <ele>112.9</ele>
        <time>2020-07-03T11:42:59Z</time>
      </trkpt>
      <trkpt lat="47.25082" lon="1.05078">
        <ele>113</ele>
        <time>2020-07-03T11:43:00Z</time>
      </trkpt>
      <trkpt lat="47.25078" lon="1.05076">
        <ele>113.1</ele>
        <time>2020-07-03T11:43:01Z</time>
      </trkpt>
      <trkpt lat="47.25074" lon="1.05074">
        <ele>113.1</ele>
        <time>2020-07-03T11:43:02Z</time>
      </trkpt>
      <trkpt lat="47.25071" lon="1.05072">
        <ele>113.2</ele>
        <time>2020-07-03T11:43:03Z</time>
      </trkpt>
      <trkpt lat="47.25067" lon="1.05071">
        <ele>113.3</ele>
        <time>2020-07-03T11:43:04Z</time>
      </trkpt>
      <trkpt lat="47.25064" lon="1.0507">
        <ele>113.4</ele>
        <time>2020-07-03T11:43:05Z</time>
      </trkpt>
      <trkpt lat="47.25059" lon="1.05068">
        <ele>113.4</ele>
        <time>2020-07-03T11:43:06Z</time>
      </trkpt>
      <trkpt lat="47.25055" lon="1.05066">
        <ele>113.5</ele>
        <time>2020-07-03T11:43:07Z</time>
      </trkpt>
      <trkpt lat="47.2505" lon="1.05063">
        <ele>113.6</ele>
        <time>2020-07-03T11:43:08Z</time>
      </trkpt>
      <trkpt lat="47.25046" lon="1.05061">
        <ele>113.6</ele>
        <time>2020-07-03T11:43:09Z</time>
      </trkpt>
      <trkpt lat="47.25042" lon="1.0506">
        <ele>113.6</ele>
        <time>2020-07-03T11:43:10Z</time>
      </trkpt>
      <trkpt lat="47.25039" lon="1.05059">
        <ele>113.7</ele>
        <time>2020-07-03T11:43:11Z</time>
      </trkpt>
      <trkpt lat="47.25033" lon="1.05056">
        <ele>113.7</ele>
        <time>2020-07-03T11:43:12Z</time>
      </trkpt>
      <trkpt lat="47.25029" lon="1.05054">
        <ele>113.8</ele>
        <time>2020-07-03T11:43:13Z</time>
      </trkpt>
      <trkpt lat="47.25024" lon="1.05053">
        <ele>113.9</ele>
        <time>2020-07-03T11:43:14Z</time>
      </trkpt>
      <trkpt lat="47.25019" lon="1.05052">
        <ele>113.9</ele>
        <time>2020-07-03T11:43:15Z</time>
      </trkpt>
      <trkpt lat="47.25014" lon="1.0505">
        <ele>114</ele>
        <time>2020-07-03T11:43:16Z</time>
      </trkpt>
      <trkpt lat="47.25009" lon="1.05048">
        <ele>114</ele>
        <time>2020-07-03T11:43:17Z</time>
      </trkpt>
      <trkpt lat="47.25004" lon="1.05047">
        <ele>114.1</ele>
        <time>2020-07-03T11:43:18Z</time>
      </trkpt>
      <trkpt lat="47.25" lon="1.05046">
        <ele>114.1</ele>
        <time>2020-07-03T11:43:19Z</time>
      </trkpt>
      <trkpt lat="47.24995" lon="1.05045">
        <ele>114.2</ele>
        <time>2020-07-03T11:43:20Z</time>
      </trkpt>
      <trkpt lat="47.24991" lon="1.05044">
        <ele>114.2</ele>
        <time>2020-07-03T11:43:21Z</time>
      </trkpt>
      <trkpt lat="47.24987" lon="1.05044">
        <ele>114.3</ele>
        <time>2020-07-03T11:43:22Z</time>
      </trkpt>
      <trkpt lat="47.24983" lon="1.05043">
        <ele>114.3</ele>
        <time>2020-07-03T11:43:23Z</time>
      </trkpt>
      <trkpt lat="47.24979" lon="1.05042">
        <ele>114.3</ele>
        <time>2020-07-03T11:43:24Z</time>
      </trkpt>
      <trkpt lat="47.24973" lon="1.05039">
        <ele>114.3</ele>
        <time>2020-07-03T11:43:25Z</time>
      </trkpt>
      <trkpt lat="47.24968" lon="1.05039">
        <ele>114.3</ele>
        <time>2020-07-03T11:43:26Z</time>
      </trkpt>
      <trkpt lat="47.24963" lon="1.05038">
        <ele>114.3</ele>
        <time>2020-07-03T11:43:27Z</time>
      </trkpt>
      <trkpt lat="47.24958" lon="1.05036">
        <ele>114.4</ele>
        <time>2020-07-03T11:43:28Z</time>
      </trkpt>
      <trkpt lat="47.24953" lon="1.05034">
        <ele>114.4</ele>
        <time>2020-07-03T11:43:29Z</time>
      </trkpt>
      <trkpt lat="47.24948" lon="1.05033">
        <ele>114.5</ele>
        <time>2020-07-03T11:43:30Z</time>
      </trkpt>
      <trkpt lat="47.24944" lon="1.05032">
        <ele>114.5</ele>
        <time>2020-07-03T11:43:31Z</time>
      </trkpt>
      <trkpt lat="47.2494" lon="1.05032">
        <ele>114.6</ele>
        <time>2020-07-03T11:43:32Z</time>
      </trkpt>
      <trkpt lat="47.24935" lon="1.0503">
        <ele>114.6</ele>
        <time>2020-07-03T11:43:33Z</time>
      </trkpt>
      <trkpt lat="47.2493" lon="1.05031">
        <ele>114.6</ele>
        <time>2020-07-03T11:43:34Z</time>
      </trkpt>
      <trkpt lat="47.24925" lon="1.05032">
        <ele>114.7</ele>
        <time>2020-07-03T11:43:35Z</time>
      </trkpt>
      <trkpt lat="47.24919" lon="1.05032">
        <ele>114.7</ele>
        <time>2020-07-03T11:43:36Z</time>
      </trkpt>
      <trkpt lat="47.24914" lon="1.05032">
        <ele>114.7</ele>
        <time>2020-07-03T11:43:37Z</time>
      </trkpt>
      <trkpt lat="47.24908" lon="1.05031">
        <ele>114.7</ele>
        <time>2020-07-03T11:43:38Z</time>
      </trkpt>
      <trkpt lat="47.24903" lon="1.05028">
        <ele>114.7</ele>
        <time>2020-07-03T11:43:39Z</time>
      </trkpt>
      <trkpt lat="47.24898" lon="1.05028">
        <ele>114.7</ele>
        <time>2020-07-03T11:43:40Z</time>
      </trkpt>
      <trkpt lat="47.24893" lon="1.05025">
        <ele>114.7</ele>
        <time>2020-07-03T11:43:41Z</time>
      </trkpt>
      <trkpt lat="47.24888" lon="1.05023">
        <ele>114.7</ele>
        <time>2020-07-03T11:43:42Z</time>
      </trkpt>
      <trkpt lat="47.24882" lon="1.0502">
        <ele>114.7</ele>
        <time>2020-07-03T11:43:43Z</time>
      </trkpt>
      <trkpt lat="47.24876" lon="1.05017">
        <ele>114.7</ele>
        <time>2020-07-03T11:43:44Z</time>
      </trkpt>
      <trkpt lat="47.24871" lon="1.05013">
        <ele>114.7</ele>
        <time>2020-07-03T11:43:45Z</time>
      </trkpt>
      <trkpt lat="47.24867" lon="1.05009">
        <ele>114.6</ele>
        <time>2020-07-03T11:43:46Z</time>
      </trkpt>
      <trkpt lat="47.24863" lon="1.05005">
        <ele>114.6</ele>
        <time>2020-07-03T11:43:47Z</time>
      </trkpt>
      <trkpt lat="47.2486" lon="1.05001">
        <ele>114.6</ele>
        <time>2020-07-03T11:43:48Z</time>
      </trkpt>
      <trkpt lat="47.24855" lon="1.04999">
        <ele>114.6</ele>
        <time>2020-07-03T11:43:49Z</time>
      </trkpt>
      <trkpt lat="47.2485" lon="1.04996">
        <ele>114.6</ele>
        <time>2020-07-03T11:43:50Z</time>
      </trkpt>
      <trkpt lat="47.24845" lon="1.04993">
        <ele>114.6</ele>
        <time>2020-07-03T11:43:51Z</time>
      </trkpt>
      <trkpt lat="47.24839" lon="1.04992">
        <ele>114.5</ele>
        <time>2020-07-03T11:43:52Z</time>
      </trkpt>
      <trkpt lat="47.24835" lon="1.0499">
        <ele>114.5</ele>
        <time>2020-07-03T11:43:53Z</time>
      </trkpt>
      <trkpt lat="47.24828" lon="1.0499">
        <ele>114.5</ele>
        <time>2020-07-03T11:43:54Z</time>
      </trkpt>
      <trkpt lat="47.24823" lon="1.04991">
        <ele>114.5</ele>
        <time>2020-07-03T11:43:55Z</time>
      </trkpt>
      <trkpt lat="47.24817" lon="1.04992">
        <ele>114.5</ele>
        <time>2020-07-03T11:43:56Z</time>
      </trkpt>
      <trkpt lat="47.24811" lon="1.04991">
        <ele>114.5</ele>
        <time>2020-07-03T11:43:57Z</time>
      </trkpt>
      <trkpt lat="47.24805" lon="1.0499">
        <ele>114.5</ele>
        <time>2020-07-03T11:43:58Z</time>
      </trkpt>
      <trkpt lat="47.24799" lon="1.04988">
        <ele>114.6</ele>
        <time>2020-07-03T11:43:59Z</time>
      </trkpt>
      <trkpt lat="47.24793" lon="1.04985">
        <ele>114.6</ele>
        <time>2020-07-03T11:44:00Z</time>
      </trkpt>
      <trkpt lat="47.24788" lon="1.04981">
        <ele>114.7</ele>
        <time>2020-07-03T11:44:01Z</time>
      </trkpt>
      <trkpt lat="47.24783" lon="1.04976">
        <ele>114.8</ele>
        <time>2020-07-03T11:44:02Z</time>
      </trkpt>
      <trkpt lat="47.24779" lon="1.04972">
        <ele>114.9</ele>
        <time>2020-07-03T11:44:03Z</time>
      </trkpt>
      <trkpt lat="47.24776" lon="1.04969">
        <ele>114.9</ele>
        <time>2020-07-03T11:44:04Z</time>
      </trkpt>
      <trkpt lat="47.24772" lon="1.04965">
        <ele>115</ele>
        <time>2020-07-03T11:44:05Z</time>
      </trkpt>
      <trkpt lat="47.24768" lon="1.04962">
        <ele>115.1</ele>
        <time>2020-07-03T11:44:06Z</time>
      </trkpt>
      <trkpt lat="47.24764" lon="1.04958">
        <ele>115.2</ele>
        <time>2020-07-03T11:44:07Z</time>
      </trkpt>
      <trkpt lat="47.2476" lon="1.04956">
        <ele>115.3</ele>
        <time>2020-07-03T11:44:08Z</time>
      </trkpt>
      <trkpt lat="47.24756" lon="1.04954">
        <ele>115.4</ele>
        <time>2020-07-03T11:44:09Z</time>
      </trkpt>
      <trkpt lat="47.24752" lon="1.04952">
        <ele>115.5</ele>
        <time>2020-07-03T11:44:10Z</time>
      </trkpt>
      <trkpt lat="47.24748" lon="1.0495">
        <ele>115.6</ele>
        <time>2020-07-03T11:44:11Z</time>
      </trkpt>
      <trkpt lat="47.24744" lon="1.04948">
        <ele>115.7</ele>
        <time>2020-07-03T11:44:12Z</time>
      </trkpt>
      <trkpt lat="47.24741" lon="1.04945">
        <ele>115.8</ele>
        <time>2020-07-03T11:44:13Z</time>
      </trkpt>
      <trkpt lat="47.24737" lon="1.04942">
        <ele>115.9</ele>
        <time>2020-07-03T11:44:14Z</time>
      </trkpt>
      <trkpt lat="47.24732" lon="1.04939">
        <ele>116</ele>
        <time>2020-07-03T11:44:15Z</time>
      </trkpt>
      <trkpt lat="47.24728" lon="1.04937">
        <ele>116.1</ele>
        <time>2020-07-03T11:44:16Z</time>
      </trkpt>
      <trkpt lat="47.24724" lon="1.04934">
        <ele>116.2</ele>
        <time>2020-07-03T11:44:17Z</time>
      </trkpt>
      <trkpt lat="47.24719" lon="1.04932">
        <ele>116.3</ele>
        <time>2020-07-03T11:44:18Z</time>
      </trkpt>
      <trkpt lat="47.24715" lon="1.0493">
        <ele>116.4</ele>
        <time>2020-07-03T11:44:19Z</time>
      </trkpt>
      <trkpt lat="47.24711" lon="1.04927">
        <ele>116.4</ele>
        <time>2020-07-03T11:44:20Z</time>
      </trkpt>
      <trkpt lat="47.24707" lon="1.04923">
        <ele>116.5</ele>
        <time>2020-07-03T11:44:21Z</time>
      </trkpt>
      <trkpt lat="47.24703" lon="1.0492">
        <ele>116.6</ele>
        <time>2020-07-03T11:44:22Z</time>
      </trkpt>
      <trkpt lat="47.247" lon="1.04915">
        <ele>116.7</ele>
        <time>2020-07-03T11:44:23Z</time>
      </trkpt>
      <trkpt lat="47.24697" lon="1.04911">
        <ele>116.7</ele>
        <time>2020-07-03T11:44:24Z</time>
      </trkpt>
      <trkpt lat="47.24694" lon="1.04907">
        <ele>116.8</ele>
        <time>2020-07-03T11:44:25Z</time>
      </trkpt>
      <trkpt lat="47.2469" lon="1.04903">
        <ele>116.9</ele>
        <time>2020-07-03T11:44:26Z</time>
      </trkpt>
      <trkpt lat="47.24687" lon="1.04898">
        <ele>116.9</ele>
        <time>2020-07-03T11:44:27Z</time>
      </trkpt>
      <trkpt lat="47.24684" lon="1.04894">
        <ele>117</ele>
        <time>2020-07-03T11:44:28Z</time>
      </trkpt>
      <trkpt lat="47.2468" lon="1.04887">
        <ele>117</ele>
        <time>2020-07-03T11:44:29Z</time>
      </trkpt>
      <trkpt lat="47.24677" lon="1.04882">
        <ele>117</ele>
        <time>2020-07-03T11:44:30Z</time>
      </trkpt>
      <trkpt lat="47.24673" lon="1.04878">
        <ele>117.1</ele>
        <time>2020-07-03T11:44:31Z</time>
      </trkpt>
      <trkpt lat="47.24669" lon="1.04874">
        <ele>117.1</ele>
        <time>2020-07-03T11:44:32Z</time>
      </trkpt>
      <trkpt lat="47.24665" lon="1.04869">
        <ele>117.1</ele>
        <time>2020-07-03T11:44:33Z</time>
      </trkpt>
      <trkpt lat="47.24662" lon="1.04864">
        <ele>117.2</ele>
        <time>2020-07-03T11:44:34Z</time>
      </trkpt>
      <trkpt lat="47.24658" lon="1.04858">
        <ele>117.2</ele>
        <time>2020-07-03T11:44:35Z</time>
      </trkpt>
      <trkpt lat="47.24655" lon="1.04854">
        <ele>117.2</ele>
        <time>2020-07-03T11:44:36Z</time>
      </trkpt>
      <trkpt lat="47.24651" lon="1.04849">
        <ele>117.2</ele>
        <time>2020-07-03T11:44:37Z</time>
      </trkpt>
      <trkpt lat="47.24648" lon="1.04843">
        <ele>117.2</ele>
        <time>2020-07-03T11:44:38Z</time>
      </trkpt>
      <trkpt lat="47.24644" lon="1.04838">
        <ele>117.2</ele>
        <time>2020-07-03T11:44:39Z</time>
      </trkpt>
      <trkpt lat="47.2464" lon="1.04833">
        <ele>117.2</ele>
        <time>2020-07-03T11:44:40Z</time>
      </trkpt>
      <trkpt lat="47.24636" lon="1.04828">
        <ele>117.2</ele>
        <time>2020-07-03T11:44:41Z</time>
      </trkpt>
      <trkpt lat="47.24631" lon="1.04823">
        <ele>117.2</ele>
        <time>2020-07-03T11:44:42Z</time>
      </trkpt>
      <trkpt lat="47.24627" lon="1.04817">
        <ele>117.1</ele>
        <time>2020-07-03T11:44:43Z</time>
      </trkpt>
      <trkpt lat="47.24622" lon="1.04815">
        <ele>117.2</ele>
        <time>2020-07-03T11:44:44Z</time>
      </trkpt>
      <trkpt lat="47.24618" lon="1.04813">
        <ele>117.2</ele>
        <time>2020-07-03T11:44:45Z</time>
      </trkpt>
      <trkpt lat="47.24614" lon="1.0481">
        <ele>117.2</ele>
        <time>2020-07-03T11:44:46Z</time>
      </trkpt>
      <trkpt lat="47.24609" lon="1.04807">
        <ele>117.2</ele>
        <time>2020-07-03T11:44:47Z</time>
      </trkpt>
      <trkpt lat="47.24604" lon="1.04804">
        <ele>117.2</ele>
        <time>2020-07-03T11:44:48Z</time>
      </trkpt>
      <trkpt lat="47.24598" lon="1.04801">
        <ele>117.2</ele>
        <time>2020-07-03T11:44:49Z</time>
      </trkpt>
      <trkpt lat="47.24593" lon="1.04798">
        <ele>117.2</ele>
        <time>2020-07-03T11:44:50Z</time>
      </trkpt>
      <trkpt lat="47.24588" lon="1.04797">
        <ele>117.2</ele>
        <time>2020-07-03T11:44:51Z</time>
      </trkpt>
      <trkpt lat="47.24583" lon="1.04796">
        <ele>117.2</ele>
        <time>2020-07-03T11:44:52Z</time>
      </trkpt>
      <trkpt lat="47.24578" lon="1.04794">
        <ele>117.3</ele>
        <time>2020-07-03T11:44:53Z</time>
      </trkpt>
      <trkpt lat="47.24573" lon="1.04792">
        <ele>117.3</ele>
        <time>2020-07-03T11:44:54Z</time>
      </trkpt>
      <trkpt lat="47.24568" lon="1.04789">
        <ele>117.3</ele>
        <time>2020-07-03T11:44:55Z</time>
      </trkpt>
      <trkpt lat="47.24563" lon="1.04788">
        <ele>117.3</ele>
        <time>2020-07-03T11:44:56Z</time>
      </trkpt>
      <trkpt lat="47.24559" lon="1.04786">
        <ele>117.3</ele>
        <time>2020-07-03T11:44:57Z</time>
      </trkpt>
      <trkpt lat="47.24554" lon="1.04785">
        <ele>117.3</ele>
        <time>2020-07-03T11:44:58Z</time>
      </trkpt>
      <trkpt lat="47.2455" lon="1.04784">
        <ele>117.3</ele>
        <time>2020-07-03T11:44:59Z</time>
      </trkpt>
      <trkpt lat="47.24546" lon="1.04783">
        <ele>117.3</ele>
        <time>2020-07-03T11:45:00Z</time>
      </trkpt>
      <trkpt lat="47.24541" lon="1.0478">
        <ele>117.3</ele>
        <time>2020-07-03T11:45:01Z</time>
      </trkpt>
      <trkpt lat="47.24536" lon="1.04779">
        <ele>117.3</ele>
        <time>2020-07-03T11:45:02Z</time>
      </trkpt>
      <trkpt lat="47.24531" lon="1.04777">
        <ele>117.2</ele>
        <time>2020-07-03T11:45:03Z</time>
      </trkpt>
      <trkpt lat="47.24525" lon="1.04775">
        <ele>117.2</ele>
        <time>2020-07-03T11:45:04Z</time>
      </trkpt>
      <trkpt lat="47.24519" lon="1.04775">
        <ele>117.2</ele>
        <time>2020-07-03T11:45:05Z</time>
      </trkpt>
      <trkpt lat="47.24513" lon="1.04773">
        <ele>117.2</ele>
        <time>2020-07-03T11:45:06Z</time>
      </trkpt>
      <trkpt lat="47.24508" lon="1.04772">
        <ele>117.2</ele>
        <time>2020-07-03T11:45:07Z</time>
      </trkpt>
      <trkpt lat="47.24502" lon="1.04771">
        <ele>117.1</ele>
        <time>2020-07-03T11:45:08Z</time>
      </trkpt>
      <trkpt lat="47.24496" lon="1.04771">
        <ele>117.1</ele>
        <time>2020-07-03T11:45:09Z</time>
      </trkpt>
      <trkpt lat="47.2449" lon="1.04771">
        <ele>117.1</ele>
        <time>2020-07-03T11:45:10Z</time>
      </trkpt>
      <trkpt lat="47.24484" lon="1.04773">
        <ele>117</ele>
        <time>2020-07-03T11:45:11Z</time>
      </trkpt>
      <trkpt lat="47.24479" lon="1.04774">
        <ele>117</ele>
        <time>2020-07-03T11:45:12Z</time>
      </trkpt>
      <trkpt lat="47.24473" lon="1.04776">
        <ele>117</ele>
        <time>2020-07-03T11:45:13Z</time>
      </trkpt>
      <trkpt lat="47.24467" lon="1.04776">
        <ele>116.9</ele>
        <time>2020-07-03T11:45:14Z</time>
      </trkpt>
      <trkpt lat="47.24461" lon="1.04775">
        <ele>116.9</ele>
        <time>2020-07-03T11:45:15Z</time>
      </trkpt>
      <trkpt lat="47.24455" lon="1.04773">
        <ele>116.8</ele>
        <time>2020-07-03T11:45:16Z</time>
      </trkpt>
      <trkpt lat="47.2445" lon="1.04769">
        <ele>116.8</ele>
        <time>2020-07-03T11:45:17Z</time>
      </trkpt>
      <trkpt lat="47.24445" lon="1.04764">
        <ele>116.7</ele>
        <time>2020-07-03T11:45:18Z</time>
      </trkpt>
      <trkpt lat="47.2444" lon="1.04758">
        <ele>116.6</ele>
        <time>2020-07-03T11:45:19Z</time>
      </trkpt>
      <trkpt lat="47.24434" lon="1.04753">
        <ele>116.6</ele>
        <time>2020-07-03T11:45:20Z</time>
      </trkpt>
      <trkpt lat="47.2443" lon="1.04748">
        <ele>116.5</ele>
        <time>2020-07-03T11:45:21Z</time>
      </trkpt>
      <trkpt lat="47.24424" lon="1.04744">
        <ele>116.4</ele>
        <time>2020-07-03T11:45:22Z</time>
      </trkpt>
      <trkpt lat="47.24419" lon="1.0474">
        <ele>116.3</ele>
        <time>2020-07-03T11:45:23Z</time>
      </trkpt>
      <trkpt lat="47.24413" lon="1.04735">
        <ele>116.2</ele>
        <time>2020-07-03T11:45:24Z</time>
      </trkpt>
      <trkpt lat="47.24408" lon="1.04731">
        <ele>116.1</ele>
        <time>2020-07-03T11:45:25Z</time>
      </trkpt>
      <trkpt lat="47.24402" lon="1.04725">
        <ele>116</ele>
        <time>2020-07-03T11:45:26Z</time>
      </trkpt>
      <trkpt lat="47.24396" lon="1.0472">
        <ele>115.8</ele>
        <time>2020-07-03T11:45:27Z</time>
      </trkpt>
      <trkpt lat="47.24392" lon="1.04716">
        <ele>115.8</ele>
        <time>2020-07-03T11:45:28Z</time>
      </trkpt>
      <trkpt lat="47.24386" lon="1.0471">
        <ele>115.7</ele>
        <time>2020-07-03T11:45:29Z</time>
      </trkpt>
      <trkpt lat="47.2438" lon="1.04707">
        <ele>115.6</ele>
        <time>2020-07-03T11:45:30Z</time>
      </trkpt>
      <trkpt lat="47.24375" lon="1.04704">
        <ele>115.5</ele>
        <time>2020-07-03T11:45:31Z</time>
      </trkpt>
      <trkpt lat="47.24369" lon="1.04699">
        <ele>115.4</ele>
        <time>2020-07-03T11:45:32Z</time>
      </trkpt>
      <trkpt lat="47.24362" lon="1.04696">
        <ele>115.3</ele>
        <time>2020-07-03T11:45:33Z</time>
      </trkpt>
      <trkpt lat="47.24356" lon="1.04693">
        <ele>115.2</ele>
        <time>2020-07-03T11:45:34Z</time>
      </trkpt>
      <trkpt lat="47.2435" lon="1.04691">
        <ele>115.1</ele>
        <time>2020-07-03T11:45:35Z</time>
      </trkpt>
      <trkpt lat="47.24344" lon="1.04688">
        <ele>115</ele>
        <time>2020-07-03T11:45:36Z</time>
      </trkpt>
      <trkpt lat="47.24339" lon="1.04686">
        <ele>114.9</ele>
        <time>2020-07-03T11:45:37Z</time>
      </trkpt>
      <trkpt lat="47.24332" lon="1.04684">
        <ele>114.8</ele>
        <time>2020-07-03T11:45:38Z</time>
      </trkpt>
      <trkpt lat="47.24326" lon="1.04683">
        <ele>114.7</ele>
        <time>2020-07-03T11:45:39Z</time>
      </trkpt>
      <trkpt lat="47.2432" lon="1.04682">
        <ele>114.6</ele>
        <time>2020-07-03T11:45:40Z</time>
      </trkpt>
      <trkpt lat="47.24315" lon="1.0468">
        <ele>114.5</ele>
        <time>2020-07-03T11:45:41Z</time>
      </trkpt>
      <trkpt lat="47.24309" lon="1.04678">
        <ele>114.3</ele>
        <time>2020-07-03T11:45:42Z</time>
      </trkpt>
      <trkpt lat="47.24303" lon="1.04677">
        <ele>114.2</ele>
        <time>2020-07-03T11:45:43Z</time>
      </trkpt>
      <trkpt lat="47.24296" lon="1.04675">
        <ele>114</ele>
        <time>2020-07-03T11:45:44Z</time>
      </trkpt>
      <trkpt lat="47.2429" lon="1.04673">
        <ele>113.8</ele>
        <time>2020-07-03T11:45:45Z</time>
      </trkpt>
      <trkpt lat="47.24284" lon="1.0467">
        <ele>113.6</ele>
        <time>2020-07-03T11:45:46Z</time>
      </trkpt>
      <trkpt lat="47.24277" lon="1.04668">
        <ele>113.4</ele>
        <time>2020-07-03T11:45:47Z</time>
      </trkpt>
      <trkpt lat="47.24272" lon="1.04666">
        <ele>113.3</ele>
        <time>2020-07-03T11:45:48Z</time>
      </trkpt>
      <trkpt lat="47.24266" lon="1.04663">
        <ele>113.2</ele>
        <time>2020-07-03T11:45:49Z</time>
      </trkpt>
      <trkpt lat="47.2426" lon="1.04661">
        <ele>113.1</ele>
        <time>2020-07-03T11:45:50Z</time>
      </trkpt>
      <trkpt lat="47.24254" lon="1.04659">
        <ele>113</ele>
        <time>2020-07-03T11:45:51Z</time>
      </trkpt>
      <trkpt lat="47.24249" lon="1.04657">
        <ele>112.9</ele>
        <time>2020-07-03T11:45:52Z</time>
      </trkpt>
      <trkpt lat="47.24243" lon="1.04653">
        <ele>112.7</ele>
        <time>2020-07-03T11:45:53Z</time>
      </trkpt>
      <trkpt lat="47.24238" lon="1.0465">
        <ele>112.5</ele>
        <time>2020-07-03T11:45:54Z</time>
      </trkpt>
      <trkpt lat="47.24231" lon="1.04646">
        <ele>112.3</ele>
        <time>2020-07-03T11:45:55Z</time>
      </trkpt>
      <trkpt lat="47.24225" lon="1.04644">
        <ele>112.2</ele>
        <time>2020-07-03T11:45:56Z</time>
      </trkpt>
      <trkpt lat="47.24219" lon="1.0464">
        <ele>112</ele>
        <time>2020-07-03T11:45:57Z</time>
      </trkpt>
      <trkpt lat="47.24213" lon="1.04636">
        <ele>111.9</ele>
        <time>2020-07-03T11:45:58Z</time>
      </trkpt>
      <trkpt lat="47.24207" lon="1.04631">
        <ele>111.8</ele>
        <time>2020-07-03T11:45:59Z</time>
      </trkpt>
      <trkpt lat="47.24202" lon="1.04627">
        <ele>111.7</ele>
        <time>2020-07-03T11:46:00Z</time>
      </trkpt>
      <trkpt lat="47.24197" lon="1.04623">
        <ele>111.5</ele>
        <time>2020-07-03T11:46:01Z</time>
      </trkpt>
      <trkpt lat="47.24191" lon="1.0462">
        <ele>111.3</ele>
        <time>2020-07-03T11:46:02Z</time>
      </trkpt>
      <trkpt lat="47.24186" lon="1.04616">
        <ele>111.2</ele>
        <time>2020-07-03T11:46:03Z</time>
      </trkpt>
      <trkpt lat="47.2418" lon="1.04613">
        <ele>111</ele>
        <time>2020-07-03T11:46:04Z</time>
      </trkpt>
      <trkpt lat="47.24175" lon="1.04609">
        <ele>110.9</ele>
        <time>2020-07-03T11:46:05Z</time>
      </trkpt>
      <trkpt lat="47.2417" lon="1.04604">
        <ele>110.7</ele>
        <time>2020-07-03T11:46:06Z</time>
      </trkpt>
      <trkpt lat="47.24165" lon="1.04598">
        <ele>110.6</ele>
        <time>2020-07-03T11:46:07Z</time>
      </trkpt>
      <trkpt lat="47.24161" lon="1.04593">
        <ele>110.4</ele>
        <time>2020-07-03T11:46:08Z</time>
      </trkpt>
      <trkpt lat="47.24156" lon="1.04589">
        <ele>110.3</ele>
        <time>2020-07-03T11:46:09Z</time>
      </trkpt>
      <trkpt lat="47.24151" lon="1.04584">
        <ele>110.2</ele>
        <time>2020-07-03T11:46:10Z</time>
      </trkpt>
      <trkpt lat="47.24145" lon="1.04578">
        <ele>110.1</ele>
        <time>2020-07-03T11:46:11Z</time>
      </trkpt>
      <trkpt lat="47.24139" lon="1.04573">
        <ele>110</ele>
        <time>2020-07-03T11:46:12Z</time>
      </trkpt>
      <trkpt lat="47.24134" lon="1.04569">
        <ele>109.9</ele>
        <time>2020-07-03T11:46:13Z</time>
      </trkpt>
      <trkpt lat="47.24128" lon="1.04565">
        <ele>109.8</ele>
        <time>2020-07-03T11:46:14Z</time>
      </trkpt>
      <trkpt lat="47.24123" lon="1.04561">
        <ele>109.7</ele>
        <time>2020-07-03T11:46:15Z</time>
      </trkpt>
      <trkpt lat="47.24118" lon="1.04557">
        <ele>109.7</ele>
        <time>2020-07-03T11:46:16Z</time>
      </trkpt>
      <trkpt lat="47.24113" lon="1.04553">
        <ele>109.7</ele>
        <time>2020-07-03T11:46:17Z</time>
      </trkpt>
      <trkpt lat="47.24108" lon="1.04548">
        <ele>109.6</ele>
        <time>2020-07-03T11:46:18Z</time>
      </trkpt>
      <trkpt lat="47.24104" lon="1.04544">
        <ele>109.6</ele>
        <time>2020-07-03T11:46:19Z</time>
      </trkpt>
      <trkpt lat="47.24099" lon="1.04539">
        <ele>109.6</ele>
        <time>2020-07-03T11:46:20Z</time>
      </trkpt>
      <trkpt lat="47.24095" lon="1.04535">
        <ele>109.6</ele>
        <time>2020-07-03T11:46:21Z</time>
      </trkpt>
      <trkpt lat="47.24091" lon="1.04529">
        <ele>109.5</ele>
        <time>2020-07-03T11:46:22Z</time>
      </trkpt>
      <trkpt lat="47.24086" lon="1.04526">
        <ele>109.5</ele>
        <time>2020-07-03T11:46:23Z</time>
      </trkpt>
      <trkpt lat="47.24081" lon="1.04522">
        <ele>109.5</ele>
        <time>2020-07-03T11:46:24Z</time>
      </trkpt>
      <trkpt lat="47.24077" lon="1.04519">
        <ele>109.5</ele>
        <time>2020-07-03T11:46:25Z</time>
      </trkpt>
      <trkpt lat="47.24072" lon="1.04515">
        <ele>109.5</ele>
        <time>2020-07-03T11:46:26Z</time>
      </trkpt>
      <trkpt lat="47.24066" lon="1.04511">
        <ele>109.5</ele>
        <time>2020-07-03T11:46:27Z</time>
      </trkpt>
      <trkpt lat="47.24062" lon="1.04507">
        <ele>109.5</ele>
        <time>2020-07-03T11:46:28Z</time>
      </trkpt>
      <trkpt lat="47.24057" lon="1.04502">
        <ele>109.6</ele>
        <time>2020-07-03T11:46:29Z</time>
      </trkpt>
      <trkpt lat="47.24051" lon="1.04499">
        <ele>109.6</ele>
        <time>2020-07-03T11:46:30Z</time>
      </trkpt>
      <trkpt lat="47.24046" lon="1.04495">
        <ele>109.6</ele>
        <time>2020-07-03T11:46:31Z</time>
      </trkpt>
      <trkpt lat="47.24041" lon="1.0449">
        <ele>109.7</ele>
        <time>2020-07-03T11:46:32Z</time>
      </trkpt>
      <trkpt lat="47.24035" lon="1.04486">
        <ele>109.8</ele>
        <time>2020-07-03T11:46:33Z</time>
      </trkpt>
      <trkpt lat="47.24031" lon="1.04484">
        <ele>109.8</ele>
        <time>2020-07-03T11:46:34Z</time>
      </trkpt>
      <trkpt lat="47.24026" lon="1.04481">
        <ele>109.9</ele>
        <time>2020-07-03T11:46:35Z</time>
      </trkpt>
      <trkpt lat="47.24021" lon="1.04477">
        <ele>110</ele>
        <time>2020-07-03T11:46:36Z</time>
      </trkpt>
      <trkpt lat="47.24017" lon="1.04474">
        <ele>110</ele>
        <time>2020-07-03T11:46:37Z</time>
      </trkpt>
      <trkpt lat="47.24013" lon="1.04471">
        <ele>110.1</ele>
        <time>2020-07-03T11:46:38Z</time>
      </trkpt>
      <trkpt lat="47.24009" lon="1.04468">
        <ele>110.2</ele>
        <time>2020-07-03T11:46:39Z</time>
      </trkpt>
      <trkpt lat="47.24005" lon="1.04464">
        <ele>110.3</ele>
        <time>2020-07-03T11:46:40Z</time>
      </trkpt>
      <trkpt lat="47.24" lon="1.0446">
        <ele>110.4</ele>
        <time>2020-07-03T11:46:41Z</time>
      </trkpt>
      <trkpt lat="47.23996" lon="1.04456">
        <ele>110.5</ele>
        <time>2020-07-03T11:46:42Z</time>
      </trkpt>
      <trkpt lat="47.23991" lon="1.04453">
        <ele>110.6</ele>
        <time>2020-07-03T11:46:43Z</time>
      </trkpt>
      <trkpt lat="47.23987" lon="1.04449">
        <ele>110.7</ele>
        <time>2020-07-03T11:46:44Z</time>
      </trkpt>
      <trkpt lat="47.23984" lon="1.04444">
        <ele>110.7</ele>
        <time>2020-07-03T11:46:45Z</time>
      </trkpt>
      <trkpt lat="47.2398" lon="1.0444">
        <ele>110.8</ele>
        <time>2020-07-03T11:46:46Z</time>
      </trkpt>
      <trkpt lat="47.23977" lon="1.04434">
        <ele>110.8</ele>
        <time>2020-07-03T11:46:47Z</time>
      </trkpt>
      <trkpt lat="47.23974" lon="1.0443">
        <ele>110.7</ele>
        <time>2020-07-03T11:46:48Z</time>
      </trkpt>
      <trkpt lat="47.23969" lon="1.04426">
        <ele>110.7</ele>
        <time>2020-07-03T11:46:49Z</time>
      </trkpt>
      <trkpt lat="47.23965" lon="1.04422">
        <ele>110.7</ele>
        <time>2020-07-03T11:46:50Z</time>
      </trkpt>
      <trkpt lat="47.2396" lon="1.04419">
        <ele>110.7</ele>
        <time>2020-07-03T11:46:51Z</time>
      </trkpt>
      <trkpt lat="47.23955" lon="1.04416">
        <ele>110.7</ele>
        <time>2020-07-03T11:46:52Z</time>
      </trkpt>
      <trkpt lat="47.2395" lon="1.04414">
        <ele>110.7</ele>
        <time>2020-07-03T11:46:53Z</time>
      </trkpt>
      <trkpt lat="47.23944" lon="1.04412">
        <ele>110.7</ele>
        <time>2020-07-03T11:46:54Z</time>
      </trkpt>
      <trkpt lat="47.2394" lon="1.04409">
        <ele>110.7</ele>
        <time>2020-07-03T11:46:55Z</time>
      </trkpt>
      <trkpt lat="47.23934" lon="1.04406">
        <ele>110.6</ele>
        <time>2020-07-03T11:46:56Z</time>
      </trkpt>
      <trkpt lat="47.23929" lon="1.04403">
        <ele>110.6</ele>
        <time>2020-07-03T11:46:57Z</time>
      </trkpt>
      <trkpt lat="47.23924" lon="1.04399">
        <ele>110.6</ele>
        <time>2020-07-03T11:46:58Z</time>
      </trkpt>
      <trkpt lat="47.23918" lon="1.04396">
        <ele>110.5</ele>
        <time>2020-07-03T11:46:59Z</time>
      </trkpt>
      <trkpt lat="47.23912" lon="1.04392">
        <ele>110.4</ele>
        <time>2020-07-03T11:47:00Z</time>
      </trkpt>
      <trkpt lat="47.23907" lon="1.0439">
        <ele>110.4</ele>
        <time>2020-07-03T11:47:01Z</time>
      </trkpt>
      <trkpt lat="47.23902" lon="1.04385">
        <ele>110.4</ele>
        <time>2020-07-03T11:47:02Z</time>
      </trkpt>
      <trkpt lat="47.23897" lon="1.04382">
        <ele>110.5</ele>
        <time>2020-07-03T11:47:03Z</time>
      </trkpt>
      <trkpt lat="47.23892" lon="1.04378">
        <ele>110.5</ele>
        <time>2020-07-03T11:47:04Z</time>
      </trkpt>
      <trkpt lat="47.23886" lon="1.04375">
        <ele>110.6</ele>
        <time>2020-07-03T11:47:05Z</time>
      </trkpt>
      <trkpt lat="47.23881" lon="1.04372">
        <ele>110.6</ele>
        <time>2020-07-03T11:47:06Z</time>
      </trkpt>
      <trkpt lat="47.23876" lon="1.04369">
        <ele>110.7</ele>
        <time>2020-07-03T11:47:07Z</time>
      </trkpt>
      <trkpt lat="47.23871" lon="1.04365">
        <ele>110.7</ele>
        <time>2020-07-03T11:47:08Z</time>
      </trkpt>
      <trkpt lat="47.23867" lon="1.04363">
        <ele>110.7</ele>
        <time>2020-07-03T11:47:09Z</time>
      </trkpt>
      <trkpt lat="47.23862" lon="1.04361">
        <ele>110.7</ele>
        <time>2020-07-03T11:47:10Z</time>
      </trkpt>
      <trkpt lat="47.23857" lon="1.04359">
        <ele>110.7</ele>
        <time>2020-07-03T11:47:11Z</time>
      </trkpt>
      <trkpt lat="47.23852" lon="1.04357">
        <ele>110.7</ele>
        <time>2020-07-03T11:47:12Z</time>
      </trkpt>
      <trkpt lat="47.23847" lon="1.04355">
        <ele>110.8</ele>
        <time>2020-07-03T11:47:13Z</time>
      </trkpt>
      <trkpt lat="47.23843" lon="1.04352">
        <ele>110.8</ele>
        <time>2020-07-03T11:47:14Z</time>
      </trkpt>
      <trkpt lat="47.23838" lon="1.04349">
        <ele>110.9</ele>
        <time>2020-07-03T11:47:15Z</time>
      </trkpt>
      <trkpt lat="47.23833" lon="1.04345">
        <ele>111</ele>
        <time>2020-07-03T11:47:16Z</time>
      </trkpt>
      <trkpt lat="47.23828" lon="1.04343">
        <ele>111</ele>
        <time>2020-07-03T11:47:17Z</time>
      </trkpt>
      <trkpt lat="47.23823" lon="1.0434">
        <ele>111.1</ele>
        <time>2020-07-03T11:47:18Z</time>
      </trkpt>
      <trkpt lat="47.23819" lon="1.04338">
        <ele>111.2</ele>
        <time>2020-07-03T11:47:19Z</time>
      </trkpt>
      <trkpt lat="47.23815" lon="1.04334">
        <ele>111.3</ele>
        <time>2020-07-03T11:47:20Z</time>
      </trkpt>
      <trkpt lat="47.2381" lon="1.0433">
        <ele>111.4</ele>
        <time>2020-07-03T11:47:21Z</time>
      </trkpt>
      <trkpt lat="47.23806" lon="1.04328">
        <ele>111.5</ele>
        <time>2020-07-03T11:47:22Z</time>
      </trkpt>
      <trkpt lat="47.23802" lon="1.04325">
        <ele>111.5</ele>
        <time>2020-07-03T11:47:23Z</time>
      </trkpt>
      <trkpt lat="47.23797" lon="1.04323">
        <ele>111.6</ele>
        <time>2020-07-03T11:47:24Z</time>
      </trkpt>
      <trkpt lat="47.23793" lon="1.04321">
        <ele>111.7</ele>
        <time>2020-07-03T11:47:25Z</time>
      </trkpt>
      <trkpt lat="47.23789" lon="1.04318">
        <ele>111.8</ele>
        <time>2020-07-03T11:47:26Z</time>
      </trkpt>
      <trkpt lat="47.23784" lon="1.04317">
        <ele>111.9</ele>
        <time>2020-07-03T11:47:27Z</time>
      </trkpt>
      <trkpt lat="47.23779" lon="1.04315">
        <ele>111.9</ele>
        <time>2020-07-03T11:47:28Z</time>
      </trkpt>
      <trkpt lat="47.23775" lon="1.04313">
        <ele>112</ele>
        <time>2020-07-03T11:47:29Z</time>
      </trkpt>
      <trkpt lat="47.23772" lon="1.04312">
        <ele>112</ele>
        <time>2020-07-03T11:47:30Z</time>
      </trkpt>
      <trkpt lat="47.23768" lon="1.04309">
        <ele>112</ele>
        <time>2020-07-03T11:47:31Z</time>
      </trkpt>
      <trkpt lat="47.23765" lon="1.04307">
        <ele>112</ele>
        <time>2020-07-03T11:47:32Z</time>
      </trkpt>
      <trkpt lat="47.2376" lon="1.04304">
        <ele>112</ele>
        <time>2020-07-03T11:47:33Z</time>
      </trkpt>
      <trkpt lat="47.23756" lon="1.04302">
        <ele>112.1</ele>
        <time>2020-07-03T11:47:34Z</time>
      </trkpt>
      <trkpt lat="47.23752" lon="1.043">
        <ele>112.1</ele>
        <time>2020-07-03T11:47:35Z</time>
      </trkpt>
      <trkpt lat="47.23748" lon="1.04298">
        <ele>112.1</ele>
        <time>2020-07-03T11:47:36Z</time>
      </trkpt>
      <trkpt lat="47.23744" lon="1.04296">
        <ele>112.1</ele>
        <time>2020-07-03T11:47:37Z</time>
      </trkpt>
      <trkpt lat="47.23739" lon="1.04291">
        <ele>112.2</ele>
        <time>2020-07-03T11:47:38Z</time>
      </trkpt>
      <trkpt lat="47.23734" lon="1.04287">
        <ele>112.2</ele>
        <time>2020-07-03T11:47:39Z</time>
      </trkpt>
      <trkpt lat="47.2373" lon="1.04284">
        <ele>112.2</ele>
        <time>2020-07-03T11:47:40Z</time>
      </trkpt>
      <trkpt lat="47.23725" lon="1.04281">
        <ele>112.2</ele>
        <time>2020-07-03T11:47:41Z</time>
      </trkpt>
      <trkpt lat="47.23721" lon="1.04278">
        <ele>112.3</ele>
        <time>2020-07-03T11:47:42Z</time>
      </trkpt>
      <trkpt lat="47.23715" lon="1.04275">
        <ele>112.3</ele>
        <time>2020-07-03T11:47:43Z</time>
      </trkpt>
      <trkpt lat="47.23711" lon="1.04273">
        <ele>112.3</ele>
        <time>2020-07-03T11:47:44Z</time>
      </trkpt>
      <trkpt lat="47.23706" lon="1.04271">
        <ele>112.3</ele>
        <time>2020-07-03T11:47:45Z</time>
      </trkpt>
      <trkpt lat="47.23701" lon="1.04269">
        <ele>112.2</ele>
        <time>2020-07-03T11:47:46Z</time>
      </trkpt>
      <trkpt lat="47.23697" lon="1.04267">
        <ele>112.1</ele>
        <time>2020-07-03T11:47:47Z</time>
      </trkpt>
      <trkpt lat="47.23692" lon="1.04264">
        <ele>111.8</ele>
        <time>2020-07-03T11:47:48Z</time>
      </trkpt>
      <trkpt lat="47.23687" lon="1.04261">
        <ele>111.8</ele>
        <time>2020-07-03T11:47:49Z</time>
      </trkpt>
      <trkpt lat="47.23683" lon="1.04258">
        <ele>111.8</ele>
        <time>2020-07-03T11:47:50Z</time>
      </trkpt>
      <trkpt lat="47.23678" lon="1.04255">
        <ele>111.7</ele>
        <time>2020-07-03T11:47:51Z</time>
      </trkpt>
      <trkpt lat="47.23673" lon="1.04252">
        <ele>111.7</ele>
        <time>2020-07-03T11:47:52Z</time>
      </trkpt>
      <trkpt lat="47.23668" lon="1.0425">
        <ele>111.7</ele>
        <time>2020-07-03T11:47:53Z</time>
      </trkpt>
      <trkpt lat="47.23664" lon="1.04248">
        <ele>111.7</ele>
        <time>2020-07-03T11:47:54Z</time>
      </trkpt>
      <trkpt lat="47.23661" lon="1.04245">
        <ele>111.6</ele>
        <time>2020-07-03T11:47:55Z</time>
      </trkpt>
      <trkpt lat="47.23657" lon="1.04242">
        <ele>111.6</ele>
        <time>2020-07-03T11:47:56Z</time>
      </trkpt>
      <trkpt lat="47.23653" lon="1.0424">
        <ele>111.5</ele>
        <time>2020-07-03T11:47:57Z</time>
      </trkpt>
      <trkpt lat="47.23648" lon="1.04238">
        <ele>111.4</ele>
        <time>2020-07-03T11:47:58Z</time>
      </trkpt>
      <trkpt lat="47.23643" lon="1.04235">
        <ele>111.4</ele>
        <time>2020-07-03T11:47:59Z</time>
      </trkpt>
      <trkpt lat="47.23639" lon="1.04232">
        <ele>111.3</ele>
        <time>2020-07-03T11:48:00Z</time>
      </trkpt>
      <trkpt lat="47.23635" lon="1.0423">
        <ele>111.3</ele>
        <time>2020-07-03T11:48:01Z</time>
      </trkpt>
      <trkpt lat="47.23631" lon="1.04227">
        <ele>111.3</ele>
        <time>2020-07-03T11:48:02Z</time>
      </trkpt>
      <trkpt lat="47.23626" lon="1.04224">
        <ele>111.2</ele>
        <time>2020-07-03T11:48:03Z</time>
      </trkpt>
      <trkpt lat="47.23622" lon="1.04221">
        <ele>111.2</ele>
        <time>2020-07-03T11:48:04Z</time>
      </trkpt>
      <trkpt lat="47.23618" lon="1.04218">
        <ele>111.2</ele>
        <time>2020-07-03T11:48:05Z</time>
      </trkpt>
      <trkpt lat="47.23615" lon="1.04215">
        <ele>111.2</ele>
        <time>2020-07-03T11:48:06Z</time>
      </trkpt>
      <trkpt lat="47.23611" lon="1.04212">
        <ele>111.2</ele>
        <time>2020-07-03T11:48:07Z</time>
      </trkpt>
      <trkpt lat="47.23607" lon="1.04209">
        <ele>111.1</ele>
        <time>2020-07-03T11:48:08Z</time>
      </trkpt>
      <trkpt lat="47.23602" lon="1.04207">
        <ele>111.1</ele>
        <time>2020-07-03T11:48:09Z</time>
      </trkpt>
      <trkpt lat="47.23598" lon="1.04204">
        <ele>111</ele>
        <time>2020-07-03T11:48:10Z</time>
      </trkpt>
      <trkpt lat="47.23594" lon="1.04202">
        <ele>111</ele>
        <time>2020-07-03T11:48:11Z</time>
      </trkpt>
      <trkpt lat="47.23589" lon="1.04199">
        <ele>110.9</ele>
        <time>2020-07-03T11:48:12Z</time>
      </trkpt>
      <trkpt lat="47.23584" lon="1.04197">
        <ele>110.8</ele>
        <time>2020-07-03T11:48:13Z</time>
      </trkpt>
      <trkpt lat="47.2358" lon="1.04194">
        <ele>110.7</ele>
        <time>2020-07-03T11:48:14Z</time>
      </trkpt>
      <trkpt lat="47.23575" lon="1.04191">
        <ele>110.5</ele>
        <time>2020-07-03T11:48:15Z</time>
      </trkpt>
      <trkpt lat="47.2357" lon="1.04189">
        <ele>110.3</ele>
        <time>2020-07-03T11:48:16Z</time>
      </trkpt>
      <trkpt lat="47.23564" lon="1.04186">
        <ele>110.2</ele>
        <time>2020-07-03T11:48:17Z</time>
      </trkpt>
      <trkpt lat="47.23559" lon="1.04183">
        <ele>110</ele>
        <time>2020-07-03T11:48:18Z</time>
      </trkpt>
      <trkpt lat="47.23553" lon="1.04181">
        <ele>109.8</ele>
        <time>2020-07-03T11:48:19Z</time>
      </trkpt>
      <trkpt lat="47.23547" lon="1.04178">
        <ele>109.6</ele>
        <time>2020-07-03T11:48:20Z</time>
      </trkpt>
      <trkpt lat="47.23541" lon="1.04176">
        <ele>109.5</ele>
        <time>2020-07-03T11:48:21Z</time>
      </trkpt>
      <trkpt lat="47.23536" lon="1.04175">
        <ele>109.3</ele>
        <time>2020-07-03T11:48:22Z</time>
      </trkpt>
      <trkpt lat="47.2353" lon="1.04173">
        <ele>109.2</ele>
        <time>2020-07-03T11:48:23Z</time>
      </trkpt>
      <trkpt lat="47.23525" lon="1.0417">
        <ele>109</ele>
        <time>2020-07-03T11:48:24Z</time>
      </trkpt>
      <trkpt lat="47.2352" lon="1.04168">
        <ele>108.9</ele>
        <time>2020-07-03T11:48:25Z</time>
      </trkpt>
      <trkpt lat="47.23515" lon="1.04167">
        <ele>108.7</ele>
        <time>2020-07-03T11:48:26Z</time>
      </trkpt>
      <trkpt lat="47.2351" lon="1.04165">
        <ele>108.6</ele>
        <time>2020-07-03T11:48:27Z</time>
      </trkpt>
      <trkpt lat="47.23505" lon="1.04164">
        <ele>108.5</ele>
        <time>2020-07-03T11:48:28Z</time>
      </trkpt>
      <trkpt lat="47.235" lon="1.04163">
        <ele>108.4</ele>
        <time>2020-07-03T11:48:29Z</time>
      </trkpt>
      <trkpt lat="47.23495" lon="1.04161">
        <ele>108.3</ele>
        <time>2020-07-03T11:48:30Z</time>
      </trkpt>
      <trkpt lat="47.2349" lon="1.0416">
        <ele>108.2</ele>
        <time>2020-07-03T11:48:31Z</time>
      </trkpt>
      <trkpt lat="47.23486" lon="1.04159">
        <ele>108.1</ele>
        <time>2020-07-03T11:48:32Z</time>
      </trkpt>
      <trkpt lat="47.2348" lon="1.04158">
        <ele>108</ele>
        <time>2020-07-03T11:48:33Z</time>
      </trkpt>
      <trkpt lat="47.23475" lon="1.04157">
        <ele>108</ele>
        <time>2020-07-03T11:48:34Z</time>
      </trkpt>
      <trkpt lat="47.2347" lon="1.04156">
        <ele>108</ele>
        <time>2020-07-03T11:48:35Z</time>
      </trkpt>
      <trkpt lat="47.23465" lon="1.04155">
        <ele>107.9</ele>
        <time>2020-07-03T11:48:36Z</time>
      </trkpt>
      <trkpt lat="47.2346" lon="1.04154">
        <ele>107.9</ele>
        <time>2020-07-03T11:48:37Z</time>
      </trkpt>
      <trkpt lat="47.23455" lon="1.04153">
        <ele>107.8</ele>
        <time>2020-07-03T11:48:38Z</time>
      </trkpt>
      <trkpt lat="47.2345" lon="1.04151">
        <ele>107.7</ele>
        <time>2020-07-03T11:48:39Z</time>
      </trkpt>
      <trkpt lat="47.23445" lon="1.0415">
        <ele>107.7</ele>
        <time>2020-07-03T11:48:40Z</time>
      </trkpt>
      <trkpt lat="47.2344" lon="1.04149">
        <ele>107.6</ele>
        <time>2020-07-03T11:48:41Z</time>
      </trkpt>
      <trkpt lat="47.23435" lon="1.04147">
        <ele>107.6</ele>
        <time>2020-07-03T11:48:42Z</time>
      </trkpt>
      <trkpt lat="47.2343" lon="1.04147">
        <ele>107.5</ele>
        <time>2020-07-03T11:48:43Z</time>
      </trkpt>
      <trkpt lat="47.23425" lon="1.04145">
        <ele>107.5</ele>
        <time>2020-07-03T11:48:44Z</time>
      </trkpt>
      <trkpt lat="47.2342" lon="1.04144">
        <ele>107.5</ele>
        <time>2020-07-03T11:48:45Z</time>
      </trkpt>
      <trkpt lat="47.23415" lon="1.04143">
        <ele>107.5</ele>
        <time>2020-07-03T11:48:46Z</time>
      </trkpt>
      <trkpt lat="47.2341" lon="1.04143">
        <ele>107.5</ele>
        <time>2020-07-03T11:48:47Z</time>
      </trkpt>
      <trkpt lat="47.23406" lon="1.04143">
        <ele>107.6</ele>
        <time>2020-07-03T11:48:48Z</time>
      </trkpt>
      <trkpt lat="47.23401" lon="1.04142">
        <ele>107.6</ele>
        <time>2020-07-03T11:48:49Z</time>
      </trkpt>
      <trkpt lat="47.23396" lon="1.04141">
        <ele>107.7</ele>
        <time>2020-07-03T11:48:50Z</time>
      </trkpt>
      <trkpt lat="47.23392" lon="1.0414">
        <ele>107.8</ele>
        <time>2020-07-03T11:48:51Z</time>
      </trkpt>
      <trkpt lat="47.23388" lon="1.04139">
        <ele>107.9</ele>
        <time>2020-07-03T11:48:52Z</time>
      </trkpt>
      <trkpt lat="47.23383" lon="1.04138">
        <ele>108</ele>
        <time>2020-07-03T11:48:53Z</time>
      </trkpt>
      <trkpt lat="47.23377" lon="1.04138">
        <ele>108.1</ele>
        <time>2020-07-03T11:48:54Z</time>
      </trkpt>
      <trkpt lat="47.23373" lon="1.04137">
        <ele>108.1</ele>
        <time>2020-07-03T11:48:55Z</time>
      </trkpt>
      <trkpt lat="47.23368" lon="1.04136">
        <ele>108.2</ele>
        <time>2020-07-03T11:48:56Z</time>
      </trkpt>
      <trkpt lat="47.23364" lon="1.04136">
        <ele>108.2</ele>
        <time>2020-07-03T11:48:57Z</time>
      </trkpt>
      <trkpt lat="47.23359" lon="1.04136">
        <ele>108.2</ele>
        <time>2020-07-03T11:48:58Z</time>
      </trkpt>
      <trkpt lat="47.23355" lon="1.04135">
        <ele>108.3</ele>
        <time>2020-07-03T11:48:59Z</time>
      </trkpt>
      <trkpt lat="47.23351" lon="1.04134">
        <ele>108.3</ele>
        <time>2020-07-03T11:49:00Z</time>
      </trkpt>
      <trkpt lat="47.23346" lon="1.04134">
        <ele>108.3</ele>
        <time>2020-07-03T11:49:01Z</time>
      </trkpt>
      <trkpt lat="47.23342" lon="1.04133">
        <ele>108.3</ele>
        <time>2020-07-03T11:49:02Z</time>
      </trkpt>
      <trkpt lat="47.23337" lon="1.04131">
        <ele>108.4</ele>
        <time>2020-07-03T11:49:03Z</time>
      </trkpt>
      <trkpt lat="47.23332" lon="1.04129">
        <ele>108.4</ele>
        <time>2020-07-03T11:49:04Z</time>
      </trkpt>
      <trkpt lat="47.23327" lon="1.04129">
        <ele>108.5</ele>
        <time>2020-07-03T11:49:05Z</time>
      </trkpt>
      <trkpt lat="47.23323" lon="1.04129">
        <ele>108.5</ele>
        <time>2020-07-03T11:49:06Z</time>
      </trkpt>
      <trkpt lat="47.23318" lon="1.04129">
        <ele>108.6</ele>
        <time>2020-07-03T11:49:07Z</time>
      </trkpt>
      <trkpt lat="47.23313" lon="1.04129">
        <ele>108.7</ele>
        <time>2020-07-03T11:49:08Z</time>
      </trkpt>
      <trkpt lat="47.23308" lon="1.04129">
        <ele>108.7</ele>
        <time>2020-07-03T11:49:09Z</time>
      </trkpt>
      <trkpt lat="47.23305" lon="1.04129">
        <ele>108.7</ele>
        <time>2020-07-03T11:49:10Z</time>
      </trkpt>
      <trkpt lat="47.23301" lon="1.04128">
        <ele>108.8</ele>
        <time>2020-07-03T11:49:11Z</time>
      </trkpt>
      <trkpt lat="47.23296" lon="1.04127">
        <ele>108.8</ele>
        <time>2020-07-03T11:49:12Z</time>
      </trkpt>
      <trkpt lat="47.23292" lon="1.04126">
        <ele>108.9</ele>
        <time>2020-07-03T11:49:13Z</time>
      </trkpt>
      <trkpt lat="47.23287" lon="1.04125">
        <ele>108.9</ele>
        <time>2020-07-03T11:49:14Z</time>
      </trkpt>
      <trkpt lat="47.23283" lon="1.04124">
        <ele>108.9</ele>
        <time>2020-07-03T11:49:15Z</time>
      </trkpt>
      <trkpt lat="47.23279" lon="1.04124">
        <ele>109</ele>
        <time>2020-07-03T11:49:16Z</time>
      </trkpt>
      <trkpt lat="47.23275" lon="1.04124">
        <ele>109</ele>
        <time>2020-07-03T11:49:17Z</time>
      </trkpt>
      <trkpt lat="47.2327" lon="1.04124">
        <ele>109</ele>
        <time>2020-07-03T11:49:18Z</time>
      </trkpt>
      <trkpt lat="47.23266" lon="1.04123">
        <ele>109</ele>
        <time>2020-07-03T11:49:19Z</time>
      </trkpt>
      <trkpt lat="47.23262" lon="1.04122">
        <ele>109.1</ele>
        <time>2020-07-03T11:49:20Z</time>
      </trkpt>
      <trkpt lat="47.23258" lon="1.04121">
        <ele>109.1</ele>
        <time>2020-07-03T11:49:21Z</time>
      </trkpt>
      <trkpt lat="47.23254" lon="1.0412">
        <ele>109.1</ele>
        <time>2020-07-03T11:49:22Z</time>
      </trkpt>
      <trkpt lat="47.2325" lon="1.04119">
        <ele>109.2</ele>
        <time>2020-07-03T11:49:23Z</time>
      </trkpt>
      <trkpt lat="47.23246" lon="1.04119">
        <ele>109.2</ele>
        <time>2020-07-03T11:49:24Z</time>
      </trkpt>
      <trkpt lat="47.23242" lon="1.04116">
        <ele>109.2</ele>
        <time>2020-07-03T11:49:25Z</time>
      </trkpt>
      <trkpt lat="47.23238" lon="1.04114">
        <ele>109.2</ele>
        <time>2020-07-03T11:49:26Z</time>
      </trkpt>
      <trkpt lat="47.23234" lon="1.04113">
        <ele>109.2</ele>
        <time>2020-07-03T11:49:27Z</time>
      </trkpt>
      <trkpt lat="47.23233" lon="1.04112">
        <ele>109.2</ele>
        <time>2020-07-03T11:49:28Z</time>
      </trkpt>
      <trkpt lat="47.2323" lon="1.04114">
        <ele>109.2</ele>
        <time>2020-07-03T11:49:29Z</time>
      </trkpt>
      <trkpt lat="47.23229" lon="1.04114">
        <ele>109.2</ele>
        <time>2020-07-03T11:49:30Z</time>
      </trkpt>
      <trkpt lat="47.23226" lon="1.04114">
        <ele>109.1</ele>
        <time>2020-07-03T11:49:31Z</time>
      </trkpt>
      <trkpt lat="47.23224" lon="1.04114">
        <ele>109.1</ele>
        <time>2020-07-03T11:49:32Z</time>
      </trkpt>
      <trkpt lat="47.23221" lon="1.04111">
        <ele>109.1</ele>
        <time>2020-07-03T11:49:33Z</time>
      </trkpt>
      <trkpt lat="47.2322" lon="1.0411">
        <ele>109</ele>
        <time>2020-07-03T11:49:34Z</time>
      </trkpt>
      <trkpt lat="47.23217" lon="1.04111">
        <ele>109</ele>
        <time>2020-07-03T11:49:35Z</time>
      </trkpt>
      <trkpt lat="47.23215" lon="1.04111">
        <ele>109</ele>
        <time>2020-07-03T11:49:36Z</time>
      </trkpt>
      <trkpt lat="47.23213" lon="1.04112">
        <ele>108.9</ele>
        <time>2020-07-03T11:49:37Z</time>
      </trkpt>
      <trkpt lat="47.23209" lon="1.04112">
        <ele>108.9</ele>
        <time>2020-07-03T11:49:38Z</time>
      </trkpt>
      <trkpt lat="47.23208" lon="1.04111">
        <ele>108.9</ele>
        <time>2020-07-03T11:49:39Z</time>
      </trkpt>
      <trkpt lat="47.23205" lon="1.04111">
        <ele>108.8</ele>
        <time>2020-07-03T11:49:40Z</time>
      </trkpt>
      <trkpt lat="47.23204" lon="1.0411">
        <ele>108.8</ele>
        <time>2020-07-03T11:49:41Z</time>
      </trkpt>
      <trkpt lat="47.232" lon="1.04109">
        <ele>108.7</ele>
        <time>2020-07-03T11:49:42Z</time>
      </trkpt>
      <trkpt lat="47.23199" lon="1.04108">
        <ele>108.7</ele>
        <time>2020-07-03T11:49:43Z</time>
      </trkpt>
      <trkpt lat="47.23196" lon="1.04108">
        <ele>108.7</ele>
        <time>2020-07-03T11:49:44Z</time>
      </trkpt>
      <trkpt lat="47.23194" lon="1.04108">
        <ele>108.6</ele>
        <time>2020-07-03T11:49:45Z</time>
      </trkpt>
      <trkpt lat="47.23192" lon="1.04107">
        <ele>108.6</ele>
        <time>2020-07-03T11:49:46Z</time>
      </trkpt>
      <trkpt lat="47.23188" lon="1.04106">
        <ele>108.5</ele>
        <time>2020-07-03T11:49:47Z</time>
      </trkpt>
      <trkpt lat="47.23186" lon="1.04106">
        <ele>108.5</ele>
        <time>2020-07-03T11:49:48Z</time>
      </trkpt>
      <trkpt lat="47.23183" lon="1.04105">
        <ele>108.4</ele>
        <time>2020-07-03T11:49:49Z</time>
      </trkpt>
      <trkpt lat="47.23181" lon="1.04105">
        <ele>108.3</ele>
        <time>2020-07-03T11:49:50Z</time>
      </trkpt>
      <trkpt lat="47.23177" lon="1.04104">
        <ele>108.3</ele>
        <time>2020-07-03T11:49:51Z</time>
      </trkpt>
      <trkpt lat="47.23174" lon="1.04104">
        <ele>108.2</ele>
        <time>2020-07-03T11:49:52Z</time>
      </trkpt>
      <trkpt lat="47.23171" lon="1.04102">
        <ele>108.1</ele>
        <time>2020-07-03T11:49:53Z</time>
      </trkpt>
      <trkpt lat="47.23168" lon="1.041">
        <ele>108.1</ele>
        <time>2020-07-03T11:49:54Z</time>
      </trkpt>
      <trkpt lat="47.23164" lon="1.04099">
        <ele>108</ele>
        <time>2020-07-03T11:49:55Z</time>
      </trkpt>
      <trkpt lat="47.23161" lon="1.04099">
        <ele>108</ele>
        <time>2020-07-03T11:49:56Z</time>
      </trkpt>
      <trkpt lat="47.23158" lon="1.04098">
        <ele>107.9</ele>
        <time>2020-07-03T11:49:57Z</time>
      </trkpt>
      <trkpt lat="47.23155" lon="1.04098">
        <ele>107.9</ele>
        <time>2020-07-03T11:49:58Z</time>
      </trkpt>
      <trkpt lat="47.23152" lon="1.04096">
        <ele>107.9</ele>
        <time>2020-07-03T11:49:59Z</time>
      </trkpt>
      <trkpt lat="47.23149" lon="1.04096">
        <ele>107.8</ele>
        <time>2020-07-03T11:50:00Z</time>
      </trkpt>
      <trkpt lat="47.23146" lon="1.04096">
        <ele>107.8</ele>
        <time>2020-07-03T11:50:01Z</time>
      </trkpt>
      <trkpt lat="47.23141" lon="1.04095">
        <ele>107.7</ele>
        <time>2020-07-03T11:50:02Z</time>
      </trkpt>
      <trkpt lat="47.23138" lon="1.04095">
        <ele>107.6</ele>
        <time>2020-07-03T11:50:03Z</time>
      </trkpt>
      <trkpt lat="47.23134" lon="1.04095">
        <ele>107.5</ele>
        <time>2020-07-03T11:50:04Z</time>
      </trkpt>
      <trkpt lat="47.23131" lon="1.04094">
        <ele>107.4</ele>
        <time>2020-07-03T11:50:05Z</time>
      </trkpt>
      <trkpt lat="47.23128" lon="1.04094">
        <ele>107.4</ele>
        <time>2020-07-03T11:50:06Z</time>
      </trkpt>
      <trkpt lat="47.23124" lon="1.04093">
        <ele>107.3</ele>
        <time>2020-07-03T11:50:07Z</time>
      </trkpt>
      <trkpt lat="47.2312" lon="1.04093">
        <ele>107.2</ele>
        <time>2020-07-03T11:50:08Z</time>
      </trkpt>
      <trkpt lat="47.23116" lon="1.04093">
        <ele>107.1</ele>
        <time>2020-07-03T11:50:09Z</time>
      </trkpt>
      <trkpt lat="47.23113" lon="1.04092">
        <ele>107</ele>
        <time>2020-07-03T11:50:10Z</time>
      </trkpt>
      <trkpt lat="47.23109" lon="1.04092">
        <ele>106.9</ele>
        <time>2020-07-03T11:50:11Z</time>
      </trkpt>
      <trkpt lat="47.23105" lon="1.04091">
        <ele>106.8</ele>
        <time>2020-07-03T11:50:12Z</time>
      </trkpt>
      <trkpt lat="47.23101" lon="1.0409">
        <ele>106.7</ele>
        <time>2020-07-03T11:50:13Z</time>
      </trkpt>
      <trkpt lat="47.23097" lon="1.0409">
        <ele>106.5</ele>
        <time>2020-07-03T11:50:14Z</time>
      </trkpt>
      <trkpt lat="47.23092" lon="1.04088">
        <ele>106.4</ele>
        <time>2020-07-03T11:50:15Z</time>
      </trkpt>
      <trkpt lat="47.23089" lon="1.04088">
        <ele>106.2</ele>
        <time>2020-07-03T11:50:16Z</time>
      </trkpt>
      <trkpt lat="47.23086" lon="1.04088">
        <ele>106.1</ele>
        <time>2020-07-03T11:50:17Z</time>
      </trkpt>
      <trkpt lat="47.23081" lon="1.04086">
        <ele>106</ele>
        <time>2020-07-03T11:50:18Z</time>
      </trkpt>
      <trkpt lat="47.23077" lon="1.04085">
        <ele>105.9</ele>
        <time>2020-07-03T11:50:19Z</time>
      </trkpt>
      <trkpt lat="47.23074" lon="1.04085">
        <ele>105.9</ele>
        <time>2020-07-03T11:50:20Z</time>
      </trkpt>
      <trkpt lat="47.2307" lon="1.04084">
        <ele>105.8</ele>
        <time>2020-07-03T11:50:21Z</time>
      </trkpt>
      <trkpt lat="47.23066" lon="1.04083">
        <ele>105.7</ele>
        <time>2020-07-03T11:50:22Z</time>
      </trkpt>
      <trkpt lat="47.23062" lon="1.04082">
        <ele>105.6</ele>
        <time>2020-07-03T11:50:23Z</time>
      </trkpt>
      <trkpt lat="47.23058" lon="1.04081">
        <ele>105.5</ele>
        <time>2020-07-03T11:50:24Z</time>
      </trkpt>
      <trkpt lat="47.23054" lon="1.0408">
        <ele>105.4</ele>
        <time>2020-07-03T11:50:25Z</time>
      </trkpt>
      <trkpt lat="47.2305" lon="1.04079">
        <ele>105.3</ele>
        <time>2020-07-03T11:50:26Z</time>
      </trkpt>
      <trkpt lat="47.23047" lon="1.04079">
        <ele>105.2</ele>
        <time>2020-07-03T11:50:27Z</time>
      </trkpt>
      <trkpt lat="47.23043" lon="1.04078">
        <ele>105.1</ele>
        <time>2020-07-03T11:50:28Z</time>
      </trkpt>
      <trkpt lat="47.23038" lon="1.04077">
        <ele>105</ele>
        <time>2020-07-03T11:50:29Z</time>
      </trkpt>
      <trkpt lat="47.23034" lon="1.04077">
        <ele>104.9</ele>
        <time>2020-07-03T11:50:30Z</time>
      </trkpt>
      <trkpt lat="47.2303" lon="1.04076">
        <ele>104.8</ele>
        <time>2020-07-03T11:50:31Z</time>
      </trkpt>
      <trkpt lat="47.23026" lon="1.04074">
        <ele>104.8</ele>
        <time>2020-07-03T11:50:32Z</time>
      </trkpt>
      <trkpt lat="47.23022" lon="1.04073">
        <ele>104.7</ele>
        <time>2020-07-03T11:50:33Z</time>
      </trkpt>
      <trkpt lat="47.23018" lon="1.04072">
        <ele>104.6</ele>
        <time>2020-07-03T11:50:34Z</time>
      </trkpt>
      <trkpt lat="47.23015" lon="1.04072">
        <ele>104.6</ele>
        <time>2020-07-03T11:50:35Z</time>
      </trkpt>
      <trkpt lat="47.23012" lon="1.04073">
        <ele>104.5</ele>
        <time>2020-07-03T11:50:36Z</time>
      </trkpt>
      <trkpt lat="47.23009" lon="1.04073">
        <ele>104.4</ele>
        <time>2020-07-03T11:50:37Z</time>
      </trkpt>
      <trkpt lat="47.23004" lon="1.04072">
        <ele>104.3</ele>
        <time>2020-07-03T11:50:38Z</time>
      </trkpt>
      <trkpt lat="47.23" lon="1.04071">
        <ele>104.2</ele>
        <time>2020-07-03T11:50:39Z</time>
      </trkpt>
      <trkpt lat="47.22996" lon="1.04071">
        <ele>104.1</ele>
        <time>2020-07-03T11:50:40Z</time>
      </trkpt>
      <trkpt lat="47.22992" lon="1.0407">
        <ele>104.1</ele>
        <time>2020-07-03T11:50:41Z</time>
      </trkpt>
      <trkpt lat="47.22988" lon="1.04069">
        <ele>104</ele>
        <time>2020-07-03T11:50:42Z</time>
      </trkpt>
      <trkpt lat="47.22984" lon="1.04068">
        <ele>103.9</ele>
        <time>2020-07-03T11:50:43Z</time>
      </trkpt>
      <trkpt lat="47.2298" lon="1.04068">
        <ele>103.8</ele>
        <time>2020-07-03T11:50:44Z</time>
      </trkpt>
      <trkpt lat="47.22976" lon="1.04068">
        <ele>103.7</ele>
        <time>2020-07-03T11:50:45Z</time>
      </trkpt>
      <trkpt lat="47.22974" lon="1.04068">
        <ele>103.7</ele>
        <time>2020-07-03T11:50:46Z</time>
      </trkpt>
      <trkpt lat="47.2297" lon="1.04069">
        <ele>103.6</ele>
        <time>2020-07-03T11:50:47Z</time>
      </trkpt>
      <trkpt lat="47.22966" lon="1.04068">
        <ele>103.5</ele>
        <time>2020-07-03T11:50:48Z</time>
      </trkpt>
      <trkpt lat="47.22962" lon="1.04067">
        <ele>103.4</ele>
        <time>2020-07-03T11:50:49Z</time>
      </trkpt>
      <trkpt lat="47.22958" lon="1.04065">
        <ele>103.3</ele>
        <time>2020-07-03T11:50:50Z</time>
      </trkpt>
      <trkpt lat="47.22954" lon="1.04064">
        <ele>103.2</ele>
        <time>2020-07-03T11:50:51Z</time>
      </trkpt>
      <trkpt lat="47.22949" lon="1.04064">
        <ele>103.1</ele>
        <time>2020-07-03T11:50:52Z</time>
      </trkpt>
      <trkpt lat="47.22944" lon="1.04064">
        <ele>103</ele>
        <time>2020-07-03T11:50:53Z</time>
      </trkpt>
      <trkpt lat="47.22939" lon="1.04062">
        <ele>103</ele>
        <time>2020-07-03T11:50:54Z</time>
      </trkpt>
      <trkpt lat="47.22935" lon="1.04061">
        <ele>102.9</ele>
        <time>2020-07-03T11:50:55Z</time>
      </trkpt>
      <trkpt lat="47.2293" lon="1.0406">
        <ele>102.8</ele>
        <time>2020-07-03T11:50:56Z</time>
      </trkpt>
      <trkpt lat="47.22926" lon="1.04059">
        <ele>102.6</ele>
        <time>2020-07-03T11:50:57Z</time>
      </trkpt>
      <trkpt lat="47.22921" lon="1.04058">
        <ele>102.5</ele>
        <time>2020-07-03T11:50:58Z</time>
      </trkpt>
      <trkpt lat="47.22916" lon="1.04056">
        <ele>102.3</ele>
        <time>2020-07-03T11:50:59Z</time>
      </trkpt>
      <trkpt lat="47.22911" lon="1.04056">
        <ele>102.1</ele>
        <time>2020-07-03T11:51:00Z</time>
      </trkpt>
      <trkpt lat="47.22907" lon="1.04055">
        <ele>101.9</ele>
        <time>2020-07-03T11:51:01Z</time>
      </trkpt>
      <trkpt lat="47.22902" lon="1.04054">
        <ele>101.7</ele>
        <time>2020-07-03T11:51:02Z</time>
      </trkpt>
      <trkpt lat="47.22896" lon="1.04053">
        <ele>101.6</ele>
        <time>2020-07-03T11:51:03Z</time>
      </trkpt>
      <trkpt lat="47.22892" lon="1.04051">
        <ele>101.5</ele>
        <time>2020-07-03T11:51:04Z</time>
      </trkpt>
      <trkpt lat="47.22888" lon="1.0405">
        <ele>101.4</ele>
        <time>2020-07-03T11:51:05Z</time>
      </trkpt>
      <trkpt lat="47.22883" lon="1.04048">
        <ele>101.3</ele>
        <time>2020-07-03T11:51:06Z</time>
      </trkpt>
      <trkpt lat="47.22878" lon="1.04047">
        <ele>101.2</ele>
        <time>2020-07-03T11:51:07Z</time>
      </trkpt>
      <trkpt lat="47.22874" lon="1.04046">
        <ele>101.1</ele>
        <time>2020-07-03T11:51:08Z</time>
      </trkpt>
      <trkpt lat="47.2287" lon="1.04045">
        <ele>101</ele>
        <time>2020-07-03T11:51:09Z</time>
      </trkpt>
      <trkpt lat="47.22865" lon="1.04044">
        <ele>100.8</ele>
        <time>2020-07-03T11:51:10Z</time>
      </trkpt>
      <trkpt lat="47.22859" lon="1.04041">
        <ele>100.6</ele>
        <time>2020-07-03T11:51:11Z</time>
      </trkpt>
      <trkpt lat="47.22854" lon="1.04039">
        <ele>100.4</ele>
        <time>2020-07-03T11:51:12Z</time>
      </trkpt>
      <trkpt lat="47.22849" lon="1.04037">
        <ele>100.2</ele>
        <time>2020-07-03T11:51:13Z</time>
      </trkpt>
      <trkpt lat="47.22845" lon="1.04033">
        <ele>100</ele>
        <time>2020-07-03T11:51:14Z</time>
      </trkpt>
      <trkpt lat="47.2284" lon="1.04031">
        <ele>99.8</ele>
        <time>2020-07-03T11:51:15Z</time>
      </trkpt>
      <trkpt lat="47.22835" lon="1.04027">
        <ele>99.5</ele>
        <time>2020-07-03T11:51:16Z</time>
      </trkpt>
      <trkpt lat="47.22831" lon="1.04023">
        <ele>99.3</ele>
        <time>2020-07-03T11:51:17Z</time>
      </trkpt>
      <trkpt lat="47.22826" lon="1.0402">
        <ele>99</ele>
        <time>2020-07-03T11:51:18Z</time>
      </trkpt>
      <trkpt lat="47.22821" lon="1.04016">
        <ele>98.9</ele>
        <time>2020-07-03T11:51:19Z</time>
      </trkpt>
      <trkpt lat="47.22816" lon="1.04012">
        <ele>98.7</ele>
        <time>2020-07-03T11:51:20Z</time>
      </trkpt>
      <trkpt lat="47.22811" lon="1.04008">
        <ele>98.6</ele>
        <time>2020-07-03T11:51:21Z</time>
      </trkpt>
      <trkpt lat="47.22806" lon="1.04003">
        <ele>98.6</ele>
        <time>2020-07-03T11:51:22Z</time>
      </trkpt>
      <trkpt lat="47.22801" lon="1.04">
        <ele>98.5</ele>
        <time>2020-07-03T11:51:23Z</time>
      </trkpt>
      <trkpt lat="47.22796" lon="1.03995">
        <ele>98.4</ele>
        <time>2020-07-03T11:51:24Z</time>
      </trkpt>
      <trkpt lat="47.22791" lon="1.03991">
        <ele>98.4</ele>
        <time>2020-07-03T11:51:25Z</time>
      </trkpt>
      <trkpt lat="47.22787" lon="1.03987">
        <ele>98.4</ele>
        <time>2020-07-03T11:51:26Z</time>
      </trkpt>
      <trkpt lat="47.22782" lon="1.03984">
        <ele>98.3</ele>
        <time>2020-07-03T11:51:27Z</time>
      </trkpt>
      <trkpt lat="47.22778" lon="1.0398">
        <ele>98.3</ele>
        <time>2020-07-03T11:51:28Z</time>
      </trkpt>
      <trkpt lat="47.22773" lon="1.03977">
        <ele>98.2</ele>
        <time>2020-07-03T11:51:29Z</time>
      </trkpt>
      <trkpt lat="47.22768" lon="1.03972">
        <ele>98.1</ele>
        <time>2020-07-03T11:51:30Z</time>
      </trkpt>
      <trkpt lat="47.22763" lon="1.03967">
        <ele>98</ele>
        <time>2020-07-03T11:51:31Z</time>
      </trkpt>
      <trkpt lat="47.22758" lon="1.03963">
        <ele>98</ele>
        <time>2020-07-03T11:51:32Z</time>
      </trkpt>
      <trkpt lat="47.22752" lon="1.03959">
        <ele>97.9</ele>
        <time>2020-07-03T11:51:33Z</time>
      </trkpt>
      <trkpt lat="47.22746" lon="1.03955">
        <ele>97.9</ele>
        <time>2020-07-03T11:51:34Z</time>
      </trkpt>
      <trkpt lat="47.22739" lon="1.03952">
        <ele>97.9</ele>
        <time>2020-07-03T11:51:35Z</time>
      </trkpt>
      <trkpt lat="47.22734" lon="1.03948">
        <ele>97.9</ele>
        <time>2020-07-03T11:51:36Z</time>
      </trkpt>
      <trkpt lat="47.22728" lon="1.03944">
        <ele>97.9</ele>
        <time>2020-07-03T11:51:37Z</time>
      </trkpt>
      <trkpt lat="47.22722" lon="1.03941">
        <ele>97.8</ele>
        <time>2020-07-03T11:51:38Z</time>
      </trkpt>
      <trkpt lat="47.22717" lon="1.03939">
        <ele>97.8</ele>
        <time>2020-07-03T11:51:39Z</time>
      </trkpt>
      <trkpt lat="47.22712" lon="1.03936">
        <ele>97.7</ele>
        <time>2020-07-03T11:51:40Z</time>
      </trkpt>
      <trkpt lat="47.22708" lon="1.03935">
        <ele>97.7</ele>
        <time>2020-07-03T11:51:41Z</time>
      </trkpt>
      <trkpt lat="47.22703" lon="1.03932">
        <ele>97.8</ele>
        <time>2020-07-03T11:51:42Z</time>
      </trkpt>
      <trkpt lat="47.227" lon="1.03931">
        <ele>97.8</ele>
        <time>2020-07-03T11:51:43Z</time>
      </trkpt>
      <trkpt lat="47.22696" lon="1.03929">
        <ele>97.9</ele>
        <time>2020-07-03T11:51:44Z</time>
      </trkpt>
      <trkpt lat="47.22691" lon="1.03927">
        <ele>98</ele>
        <time>2020-07-03T11:51:45Z</time>
      </trkpt>
      <trkpt lat="47.22686" lon="1.03925">
        <ele>98.1</ele>
        <time>2020-07-03T11:51:46Z</time>
      </trkpt>
      <trkpt lat="47.22682" lon="1.03923">
        <ele>98.2</ele>
        <time>2020-07-03T11:51:47Z</time>
      </trkpt>
      <trkpt lat="47.22679" lon="1.03922">
        <ele>98.3</ele>
        <time>2020-07-03T11:51:48Z</time>
      </trkpt>
      <trkpt lat="47.22676" lon="1.03921">
        <ele>98.3</ele>
        <time>2020-07-03T11:51:49Z</time>
      </trkpt>
      <trkpt lat="47.22672" lon="1.03919">
        <ele>98.4</ele>
        <time>2020-07-03T11:51:50Z</time>
      </trkpt>
      <trkpt lat="47.22668" lon="1.03917">
        <ele>98.5</ele>
        <time>2020-07-03T11:51:51Z</time>
      </trkpt>
      <trkpt lat="47.22665" lon="1.03916">
        <ele>98.6</ele>
        <time>2020-07-03T11:51:52Z</time>
      </trkpt>
      <trkpt lat="47.22662" lon="1.03916">
        <ele>98.6</ele>
        <time>2020-07-03T11:51:53Z</time>
      </trkpt>
      <trkpt lat="47.22657" lon="1.03915">
        <ele>98.7</ele>
        <time>2020-07-03T11:51:54Z</time>
      </trkpt>
      <trkpt lat="47.22653" lon="1.03914">
        <ele>98.8</ele>
        <time>2020-07-03T11:51:55Z</time>
      </trkpt>
      <trkpt lat="47.22649" lon="1.03913">
        <ele>98.8</ele>
        <time>2020-07-03T11:51:56Z</time>
      </trkpt>
      <trkpt lat="47.22646" lon="1.03912">
        <ele>98.8</ele>
        <time>2020-07-03T11:51:57Z</time>
      </trkpt>
      <trkpt lat="47.22642" lon="1.0391">
        <ele>98.9</ele>
        <time>2020-07-03T11:51:58Z</time>
      </trkpt>
      <trkpt lat="47.22638" lon="1.03907">
        <ele>98.9</ele>
        <time>2020-07-03T11:51:59Z</time>
      </trkpt>
      <trkpt lat="47.22635" lon="1.03905">
        <ele>98.9</ele>
        <time>2020-07-03T11:52:00Z</time>
      </trkpt>
      <trkpt lat="47.2263" lon="1.03903">
        <ele>99</ele>
        <time>2020-07-03T11:52:01Z</time>
      </trkpt>
      <trkpt lat="47.22625" lon="1.039">
        <ele>99</ele>
        <time>2020-07-03T11:52:02Z</time>
      </trkpt>
      <trkpt lat="47.22618" lon="1.03895">
        <ele>99.1</ele>
        <time>2020-07-03T11:52:03Z</time>
      </trkpt>
      <trkpt lat="47.22613" lon="1.03891">
        <ele>99.2</ele>
        <time>2020-07-03T11:52:04Z</time>
      </trkpt>
      <trkpt lat="47.22609" lon="1.03887">
        <ele>99.3</ele>
        <time>2020-07-03T11:52:05Z</time>
      </trkpt>
      <trkpt lat="47.22605" lon="1.03883">
        <ele>99.4</ele>
        <time>2020-07-03T11:52:06Z</time>
      </trkpt>
      <trkpt lat="47.22601" lon="1.03879">
        <ele>99.5</ele>
        <time>2020-07-03T11:52:07Z</time>
      </trkpt>
      <trkpt lat="47.22597" lon="1.03875">
        <ele>99.6</ele>
        <time>2020-07-03T11:52:08Z</time>
      </trkpt>
      <trkpt lat="47.22593" lon="1.0387">
        <ele>99.8</ele>
        <time>2020-07-03T11:52:09Z</time>
      </trkpt>
      <trkpt lat="47.22588" lon="1.03868">
        <ele>99.9</ele>
        <time>2020-07-03T11:52:10Z</time>
      </trkpt>
      <trkpt lat="47.22583" lon="1.03866">
        <ele>100.1</ele>
        <time>2020-07-03T11:52:11Z</time>
      </trkpt>
      <trkpt lat="47.22578" lon="1.03863">
        <ele>100.2</ele>
        <time>2020-07-03T11:52:12Z</time>
      </trkpt>
      <trkpt lat="47.22574" lon="1.03859">
        <ele>100.2</ele>
        <time>2020-07-03T11:52:13Z</time>
      </trkpt>
      <trkpt lat="47.22571" lon="1.03855">
        <ele>100.2</ele>
        <time>2020-07-03T11:52:14Z</time>
      </trkpt>
      <trkpt lat="47.22567" lon="1.03851">
        <ele>100.3</ele>
        <time>2020-07-03T11:52:15Z</time>
      </trkpt>
      <trkpt lat="47.22563" lon="1.03849">
        <ele>100.4</ele>
        <time>2020-07-03T11:52:16Z</time>
      </trkpt>
      <trkpt lat="47.22559" lon="1.03846">
        <ele>100.5</ele>
        <time>2020-07-03T11:52:17Z</time>
      </trkpt>
      <trkpt lat="47.22556" lon="1.03844">
        <ele>100.5</ele>
        <time>2020-07-03T11:52:18Z</time>
      </trkpt>
      <trkpt lat="47.22552" lon="1.03841">
        <ele>100.6</ele>
        <time>2020-07-03T11:52:19Z</time>
      </trkpt>
      <trkpt lat="47.22549" lon="1.03839">
        <ele>100.7</ele>
        <time>2020-07-03T11:52:20Z</time>
      </trkpt>
      <trkpt lat="47.22546" lon="1.03837">
        <ele>100.7</ele>
        <time>2020-07-03T11:52:21Z</time>
      </trkpt>
      <trkpt lat="47.22543" lon="1.03835">
        <ele>100.8</ele>
        <time>2020-07-03T11:52:22Z</time>
      </trkpt>
      <trkpt lat="47.22539" lon="1.03832">
        <ele>100.9</ele>
        <time>2020-07-03T11:52:23Z</time>
      </trkpt>
      <trkpt lat="47.22536" lon="1.03829">
        <ele>101</ele>
        <time>2020-07-03T11:52:24Z</time>
      </trkpt>
      <trkpt lat="47.22532" lon="1.03826">
        <ele>101.1</ele>
        <time>2020-07-03T11:52:25Z</time>
      </trkpt>
      <trkpt lat="47.22528" lon="1.03824">
        <ele>101.2</ele>
        <time>2020-07-03T11:52:26Z</time>
      </trkpt>
      <trkpt lat="47.22525" lon="1.03821">
        <ele>101.2</ele>
        <time>2020-07-03T11:52:27Z</time>
      </trkpt>
      <trkpt lat="47.22522" lon="1.03818">
        <ele>101.3</ele>
        <time>2020-07-03T11:52:28Z</time>
      </trkpt>
      <trkpt lat="47.22518" lon="1.03815">
        <ele>101.3</ele>
        <time>2020-07-03T11:52:29Z</time>
      </trkpt>
      <trkpt lat="47.22513" lon="1.03813">
        <ele>101.3</ele>
        <time>2020-07-03T11:52:30Z</time>
      </trkpt>
      <trkpt lat="47.22509" lon="1.0381">
        <ele>101.4</ele>
        <time>2020-07-03T11:52:31Z</time>
      </trkpt>
      <trkpt lat="47.22505" lon="1.03807">
        <ele>101.4</ele>
        <time>2020-07-03T11:52:32Z</time>
      </trkpt>
      <trkpt lat="47.22501" lon="1.03805">
        <ele>101.5</ele>
        <time>2020-07-03T11:52:33Z</time>
      </trkpt>
      <trkpt lat="47.22497" lon="1.03803">
        <ele>101.5</ele>
        <time>2020-07-03T11:52:34Z</time>
      </trkpt>
      <trkpt lat="47.22493" lon="1.03801">
        <ele>101.6</ele>
        <time>2020-07-03T11:52:35Z</time>
      </trkpt>
      <trkpt lat="47.2249" lon="1.03799">
        <ele>101.6</ele>
        <time>2020-07-03T11:52:36Z</time>
      </trkpt>
      <trkpt lat="47.22486" lon="1.03797">
        <ele>101.6</ele>
        <time>2020-07-03T11:52:37Z</time>
      </trkpt>
      <trkpt lat="47.22482" lon="1.03794">
        <ele>101.7</ele>
        <time>2020-07-03T11:52:38Z</time>
      </trkpt>
      <trkpt lat="47.22478" lon="1.03792">
        <ele>101.7</ele>
        <time>2020-07-03T11:52:39Z</time>
      </trkpt>
      <trkpt lat="47.22474" lon="1.0379">
        <ele>101.7</ele>
        <time>2020-07-03T11:52:40Z</time>
      </trkpt>
      <trkpt lat="47.22468" lon="1.03789">
        <ele>101.7</ele>
        <time>2020-07-03T11:52:41Z</time>
      </trkpt>
      <trkpt lat="47.22463" lon="1.03787">
        <ele>101.7</ele>
        <time>2020-07-03T11:52:42Z</time>
      </trkpt>
      <trkpt lat="47.22459" lon="1.03785">
        <ele>101.7</ele>
        <time>2020-07-03T11:52:43Z</time>
      </trkpt>
      <trkpt lat="47.22454" lon="1.03783">
        <ele>101.8</ele>
        <time>2020-07-03T11:52:44Z</time>
      </trkpt>
      <trkpt lat="47.22447" lon="1.03782">
        <ele>101.8</ele>
        <time>2020-07-03T11:52:45Z</time>
      </trkpt>
      <trkpt lat="47.22442" lon="1.0378">
        <ele>101.9</ele>
        <time>2020-07-03T11:52:46Z</time>
      </trkpt>
      <trkpt lat="47.22437" lon="1.03777">
        <ele>101.9</ele>
        <time>2020-07-03T11:52:47Z</time>
      </trkpt>
      <trkpt lat="47.22433" lon="1.03776">
        <ele>101.9</ele>
        <time>2020-07-03T11:52:48Z</time>
      </trkpt>
      <trkpt lat="47.22428" lon="1.03775">
        <ele>101.9</ele>
        <time>2020-07-03T11:52:49Z</time>
      </trkpt>
      <trkpt lat="47.22423" lon="1.03772">
        <ele>102</ele>
        <time>2020-07-03T11:52:50Z</time>
      </trkpt>
      <trkpt lat="47.22417" lon="1.0377">
        <ele>102</ele>
        <time>2020-07-03T11:52:51Z</time>
      </trkpt>
      <trkpt lat="47.22413" lon="1.03767">
        <ele>102</ele>
        <time>2020-07-03T11:52:52Z</time>
      </trkpt>
      <trkpt lat="47.22408" lon="1.03764">
        <ele>102</ele>
        <time>2020-07-03T11:52:53Z</time>
      </trkpt>
      <trkpt lat="47.22404" lon="1.0376">
        <ele>102</ele>
        <time>2020-07-03T11:52:54Z</time>
      </trkpt>
      <trkpt lat="47.224" lon="1.03757">
        <ele>102</ele>
        <time>2020-07-03T11:52:55Z</time>
      </trkpt>
      <trkpt lat="47.22396" lon="1.03753">
        <ele>102</ele>
        <time>2020-07-03T11:52:56Z</time>
      </trkpt>
      <trkpt lat="47.22391" lon="1.03749">
        <ele>102</ele>
        <time>2020-07-03T11:52:57Z</time>
      </trkpt>
      <trkpt lat="47.22383" lon="1.03745">
        <ele>102.1</ele>
        <time>2020-07-03T11:52:58Z</time>
      </trkpt>
      <trkpt lat="47.22381" lon="1.03744">
        <ele>102.1</ele>
        <time>2020-07-03T11:52:59Z</time>
      </trkpt>
      <trkpt lat="47.22376" lon="1.03741">
        <ele>102.2</ele>
        <time>2020-07-03T11:53:00Z</time>
      </trkpt>
      <trkpt lat="47.22371" lon="1.03739">
        <ele>102.2</ele>
        <time>2020-07-03T11:53:01Z</time>
      </trkpt>
      <trkpt lat="47.22366" lon="1.03737">
        <ele>102.3</ele>
        <time>2020-07-03T11:53:02Z</time>
      </trkpt>
      <trkpt lat="47.22362" lon="1.03735">
        <ele>102.3</ele>
        <time>2020-07-03T11:53:03Z</time>
      </trkpt>
      <trkpt lat="47.22357" lon="1.03733">
        <ele>102.4</ele>
        <time>2020-07-03T11:53:04Z</time>
      </trkpt>
      <trkpt lat="47.22353" lon="1.03732">
        <ele>102.5</ele>
        <time>2020-07-03T11:53:05Z</time>
      </trkpt>
      <trkpt lat="47.22349" lon="1.03731">
        <ele>102.6</ele>
        <time>2020-07-03T11:53:06Z</time>
      </trkpt>
      <trkpt lat="47.22345" lon="1.03731">
        <ele>102.6</ele>
        <time>2020-07-03T11:53:07Z</time>
      </trkpt>
      <trkpt lat="47.22341" lon="1.03732">
        <ele>102.7</ele>
        <time>2020-07-03T11:53:08Z</time>
      </trkpt>
      <trkpt lat="47.22336" lon="1.03731">
        <ele>102.8</ele>
        <time>2020-07-03T11:53:09Z</time>
      </trkpt>
      <trkpt lat="47.22332" lon="1.03731">
        <ele>102.8</ele>
        <time>2020-07-03T11:53:10Z</time>
      </trkpt>
      <trkpt lat="47.22327" lon="1.03731">
        <ele>102.9</ele>
        <time>2020-07-03T11:53:11Z</time>
      </trkpt>
      <trkpt lat="47.22323" lon="1.03731">
        <ele>103</ele>
        <time>2020-07-03T11:53:12Z</time>
      </trkpt>
      <trkpt lat="47.22318" lon="1.0373">
        <ele>103</ele>
        <time>2020-07-03T11:53:13Z</time>
      </trkpt>
      <trkpt lat="47.22313" lon="1.03728">
        <ele>103.1</ele>
        <time>2020-07-03T11:53:14Z</time>
      </trkpt>
      <trkpt lat="47.22308" lon="1.03728">
        <ele>103.2</ele>
        <time>2020-07-03T11:53:15Z</time>
      </trkpt>
      <trkpt lat="47.22303" lon="1.03727">
        <ele>103.3</ele>
        <time>2020-07-03T11:53:16Z</time>
      </trkpt>
      <trkpt lat="47.22298" lon="1.03725">
        <ele>103.3</ele>
        <time>2020-07-03T11:53:17Z</time>
      </trkpt>
      <trkpt lat="47.22294" lon="1.03725">
        <ele>103.4</ele>
        <time>2020-07-03T11:53:18Z</time>
      </trkpt>
      <trkpt lat="47.22288" lon="1.03724">
        <ele>103.5</ele>
        <time>2020-07-03T11:53:19Z</time>
      </trkpt>
      <trkpt lat="47.22283" lon="1.03722">
        <ele>103.6</ele>
        <time>2020-07-03T11:53:20Z</time>
      </trkpt>
      <trkpt lat="47.22277" lon="1.03717">
        <ele>103.8</ele>
        <time>2020-07-03T11:53:21Z</time>
      </trkpt>
      <trkpt lat="47.22273" lon="1.03714">
        <ele>103.8</ele>
        <time>2020-07-03T11:53:22Z</time>
      </trkpt>
      <trkpt lat="47.22269" lon="1.03712">
        <ele>103.9</ele>
        <time>2020-07-03T11:53:23Z</time>
      </trkpt>
      <trkpt lat="47.22265" lon="1.03711">
        <ele>104</ele>
        <time>2020-07-03T11:53:24Z</time>
      </trkpt>
      <trkpt lat="47.22261" lon="1.03709">
        <ele>104</ele>
        <time>2020-07-03T11:53:25Z</time>
      </trkpt>
      <trkpt lat="47.22256" lon="1.03706">
        <ele>104.1</ele>
        <time>2020-07-03T11:53:26Z</time>
      </trkpt>
      <trkpt lat="47.22252" lon="1.03703">
        <ele>104.2</ele>
        <time>2020-07-03T11:53:27Z</time>
      </trkpt>
      <trkpt lat="47.22249" lon="1.03699">
        <ele>104.2</ele>
        <time>2020-07-03T11:53:28Z</time>
      </trkpt>
      <trkpt lat="47.22246" lon="1.03696">
        <ele>104.3</ele>
        <time>2020-07-03T11:53:29Z</time>
      </trkpt>
      <trkpt lat="47.22242" lon="1.03693">
        <ele>104.3</ele>
        <time>2020-07-03T11:53:30Z</time>
      </trkpt>
      <trkpt lat="47.22237" lon="1.03691">
        <ele>104.4</ele>
        <time>2020-07-03T11:53:31Z</time>
      </trkpt>
      <trkpt lat="47.22233" lon="1.03689">
        <ele>104.4</ele>
        <time>2020-07-03T11:53:32Z</time>
      </trkpt>
      <trkpt lat="47.2223" lon="1.03687">
        <ele>104.5</ele>
        <time>2020-07-03T11:53:33Z</time>
      </trkpt>
      <trkpt lat="47.22227" lon="1.03684">
        <ele>104.5</ele>
        <time>2020-07-03T11:53:34Z</time>
      </trkpt>
      <trkpt lat="47.22224" lon="1.03681">
        <ele>104.5</ele>
        <time>2020-07-03T11:53:35Z</time>
      </trkpt>
      <trkpt lat="47.22222" lon="1.03679">
        <ele>104.6</ele>
        <time>2020-07-03T11:53:36Z</time>
      </trkpt>
      <trkpt lat="47.22219" lon="1.03676">
        <ele>104.6</ele>
        <time>2020-07-03T11:53:37Z</time>
      </trkpt>
      <trkpt lat="47.22216" lon="1.03674">
        <ele>104.7</ele>
        <time>2020-07-03T11:53:38Z</time>
      </trkpt>
      <trkpt lat="47.22211" lon="1.03672">
        <ele>104.7</ele>
        <time>2020-07-03T11:53:39Z</time>
      </trkpt>
      <trkpt lat="47.22208" lon="1.03668">
        <ele>104.7</ele>
        <time>2020-07-03T11:53:40Z</time>
      </trkpt>
      <trkpt lat="47.22204" lon="1.03664">
        <ele>104.7</ele>
        <time>2020-07-03T11:53:41Z</time>
      </trkpt>
      <trkpt lat="47.22201" lon="1.0366">
        <ele>104.7</ele>
        <time>2020-07-03T11:53:42Z</time>
      </trkpt>
      <trkpt lat="47.22198" lon="1.03657">
        <ele>104.8</ele>
        <time>2020-07-03T11:53:43Z</time>
      </trkpt>
      <trkpt lat="47.22195" lon="1.03654">
        <ele>104.8</ele>
        <time>2020-07-03T11:53:44Z</time>
      </trkpt>
      <trkpt lat="47.22191" lon="1.0365">
        <ele>104.9</ele>
        <time>2020-07-03T11:53:45Z</time>
      </trkpt>
      <trkpt lat="47.22187" lon="1.03647">
        <ele>104.9</ele>
        <time>2020-07-03T11:53:46Z</time>
      </trkpt>
      <trkpt lat="47.22183" lon="1.03646">
        <ele>105</ele>
        <time>2020-07-03T11:53:47Z</time>
      </trkpt>
      <trkpt lat="47.22179" lon="1.03645">
        <ele>105.1</ele>
        <time>2020-07-03T11:53:48Z</time>
      </trkpt>
      <trkpt lat="47.22175" lon="1.03643">
        <ele>105.1</ele>
        <time>2020-07-03T11:53:49Z</time>
      </trkpt>
      <trkpt lat="47.22172" lon="1.03641">
        <ele>105.2</ele>
        <time>2020-07-03T11:53:50Z</time>
      </trkpt>
      <trkpt lat="47.22169" lon="1.03638">
        <ele>105.2</ele>
        <time>2020-07-03T11:53:51Z</time>
      </trkpt>
      <trkpt lat="47.22165" lon="1.03634">
        <ele>105.3</ele>
        <time>2020-07-03T11:53:52Z</time>
      </trkpt>
      <trkpt lat="47.22161" lon="1.03632">
        <ele>105.4</ele>
        <time>2020-07-03T11:53:53Z</time>
      </trkpt>
      <trkpt lat="47.22157" lon="1.03631">
        <ele>105.4</ele>
        <time>2020-07-03T11:53:54Z</time>
      </trkpt>
      <trkpt lat="47.22153" lon="1.03629">
        <ele>105.5</ele>
        <time>2020-07-03T11:53:55Z</time>
      </trkpt>
      <trkpt lat="47.22149" lon="1.03627">
        <ele>105.5</ele>
        <time>2020-07-03T11:53:56Z</time>
      </trkpt>
      <trkpt lat="47.22145" lon="1.03626">
        <ele>105.6</ele>
        <time>2020-07-03T11:53:57Z</time>
      </trkpt>
      <trkpt lat="47.22141" lon="1.03624">
        <ele>105.6</ele>
        <time>2020-07-03T11:53:58Z</time>
      </trkpt>
      <trkpt lat="47.22136" lon="1.03623">
        <ele>105.7</ele>
        <time>2020-07-03T11:53:59Z</time>
      </trkpt>
      <trkpt lat="47.22132" lon="1.03624">
        <ele>105.7</ele>
        <time>2020-07-03T11:54:00Z</time>
      </trkpt>
      <trkpt lat="47.22128" lon="1.03623">
        <ele>105.7</ele>
        <time>2020-07-03T11:54:01Z</time>
      </trkpt>
      <trkpt lat="47.22124" lon="1.03622">
        <ele>105.7</ele>
        <time>2020-07-03T11:54:02Z</time>
      </trkpt>
      <trkpt lat="47.2212" lon="1.03619">
        <ele>105.7</ele>
        <time>2020-07-03T11:54:03Z</time>
      </trkpt>
      <trkpt lat="47.22116" lon="1.03618">
        <ele>105.7</ele>
        <time>2020-07-03T11:54:04Z</time>
      </trkpt>
      <trkpt lat="47.22111" lon="1.03615">
        <ele>105.6</ele>
        <time>2020-07-03T11:54:05Z</time>
      </trkpt>
      <trkpt lat="47.22106" lon="1.03613">
        <ele>105.6</ele>
        <time>2020-07-03T11:54:06Z</time>
      </trkpt>
      <trkpt lat="47.22101" lon="1.0361">
        <ele>105.5</ele>
        <time>2020-07-03T11:54:07Z</time>
      </trkpt>
      <trkpt lat="47.22096" lon="1.03607">
        <ele>105.5</ele>
        <time>2020-07-03T11:54:08Z</time>
      </trkpt>
      <trkpt lat="47.22091" lon="1.03603">
        <ele>105.5</ele>
        <time>2020-07-03T11:54:09Z</time>
      </trkpt>
      <trkpt lat="47.22087" lon="1.03599">
        <ele>105.5</ele>
        <time>2020-07-03T11:54:10Z</time>
      </trkpt>
      <trkpt lat="47.22082" lon="1.03596">
        <ele>105.5</ele>
        <time>2020-07-03T11:54:11Z</time>
      </trkpt>
      <trkpt lat="47.22078" lon="1.03592">
        <ele>105.6</ele>
        <time>2020-07-03T11:54:12Z</time>
      </trkpt>
      <trkpt lat="47.22074" lon="1.03589">
        <ele>105.7</ele>
        <time>2020-07-03T11:54:13Z</time>
      </trkpt>
      <trkpt lat="47.22069" lon="1.03585">
        <ele>105.5</ele>
        <time>2020-07-03T11:54:14Z</time>
      </trkpt>
      <trkpt lat="47.22066" lon="1.0358">
        <ele>105.4</ele>
        <time>2020-07-03T11:54:15Z</time>
      </trkpt>
      <trkpt lat="47.2206" lon="1.03576">
        <ele>105.2</ele>
        <time>2020-07-03T11:54:16Z</time>
      </trkpt>
      <trkpt lat="47.22056" lon="1.03571">
        <ele>105.1</ele>
        <time>2020-07-03T11:54:17Z</time>
      </trkpt>
      <trkpt lat="47.2205" lon="1.03567">
        <ele>104.9</ele>
        <time>2020-07-03T11:54:18Z</time>
      </trkpt>
      <trkpt lat="47.22044" lon="1.03563">
        <ele>104.9</ele>
        <time>2020-07-03T11:54:19Z</time>
      </trkpt>
      <trkpt lat="47.22039" lon="1.03559">
        <ele>104.8</ele>
        <time>2020-07-03T11:54:20Z</time>
      </trkpt>
      <trkpt lat="47.22034" lon="1.03557">
        <ele>104.8</ele>
        <time>2020-07-03T11:54:21Z</time>
      </trkpt>
      <trkpt lat="47.22028" lon="1.03553">
        <ele>104.7</ele>
        <time>2020-07-03T11:54:22Z</time>
      </trkpt>
      <trkpt lat="47.22022" lon="1.03549">
        <ele>104.7</ele>
        <time>2020-07-03T11:54:23Z</time>
      </trkpt>
      <trkpt lat="47.22017" lon="1.03546">
        <ele>104.7</ele>
        <time>2020-07-03T11:54:24Z</time>
      </trkpt>
      <trkpt lat="47.22012" lon="1.03544">
        <ele>104.6</ele>
        <time>2020-07-03T11:54:25Z</time>
      </trkpt>
      <trkpt lat="47.22007" lon="1.03541">
        <ele>104.6</ele>
        <time>2020-07-03T11:54:26Z</time>
      </trkpt>
      <trkpt lat="47.22002" lon="1.03537">
        <ele>104.6</ele>
        <time>2020-07-03T11:54:27Z</time>
      </trkpt>
      <trkpt lat="47.21997" lon="1.03532">
        <ele>104.6</ele>
        <time>2020-07-03T11:54:28Z</time>
      </trkpt>
      <trkpt lat="47.21991" lon="1.03529">
        <ele>104.6</ele>
        <time>2020-07-03T11:54:29Z</time>
      </trkpt>
      <trkpt lat="47.21986" lon="1.03527">
        <ele>104.6</ele>
        <time>2020-07-03T11:54:30Z</time>
      </trkpt>
      <trkpt lat="47.2198" lon="1.03524">
        <ele>104.6</ele>
        <time>2020-07-03T11:54:31Z</time>
      </trkpt>
      <trkpt lat="47.21974" lon="1.03522">
        <ele>104.6</ele>
        <time>2020-07-03T11:54:32Z</time>
      </trkpt>
      <trkpt lat="47.21968" lon="1.03519">
        <ele>104.6</ele>
        <time>2020-07-03T11:54:33Z</time>
      </trkpt>
      <trkpt lat="47.21962" lon="1.03515">
        <ele>104.5</ele>
        <time>2020-07-03T11:54:34Z</time>
      </trkpt>
      <trkpt lat="47.21956" lon="1.03513">
        <ele>104.5</ele>
        <time>2020-07-03T11:54:35Z</time>
      </trkpt>
      <trkpt lat="47.2195" lon="1.0351">
        <ele>104.5</ele>
        <time>2020-07-03T11:54:36Z</time>
      </trkpt>
      <trkpt lat="47.21944" lon="1.03507">
        <ele>104.5</ele>
        <time>2020-07-03T11:54:37Z</time>
      </trkpt>
      <trkpt lat="47.2194" lon="1.03506">
        <ele>104.5</ele>
        <time>2020-07-03T11:54:38Z</time>
      </trkpt>
      <trkpt lat="47.21935" lon="1.03503">
        <ele>104.4</ele>
        <time>2020-07-03T11:54:39Z</time>
      </trkpt>
      <trkpt lat="47.21929" lon="1.035">
        <ele>104.4</ele>
        <time>2020-07-03T11:54:40Z</time>
      </trkpt>
      <trkpt lat="47.21924" lon="1.03496">
        <ele>104.4</ele>
        <time>2020-07-03T11:54:41Z</time>
      </trkpt>
      <trkpt lat="47.21919" lon="1.03494">
        <ele>104.4</ele>
        <time>2020-07-03T11:54:42Z</time>
      </trkpt>
      <trkpt lat="47.21914" lon="1.0349">
        <ele>104.4</ele>
        <time>2020-07-03T11:54:43Z</time>
      </trkpt>
      <trkpt lat="47.21909" lon="1.03486">
        <ele>104.4</ele>
        <time>2020-07-03T11:54:44Z</time>
      </trkpt>
      <trkpt lat="47.21904" lon="1.03482">
        <ele>104.4</ele>
        <time>2020-07-03T11:54:45Z</time>
      </trkpt>
      <trkpt lat="47.21899" lon="1.03479">
        <ele>104.4</ele>
        <time>2020-07-03T11:54:46Z</time>
      </trkpt>
      <trkpt lat="47.21894" lon="1.03474">
        <ele>104.4</ele>
        <time>2020-07-03T11:54:47Z</time>
      </trkpt>
      <trkpt lat="47.21889" lon="1.0347">
        <ele>104.5</ele>
        <time>2020-07-03T11:54:48Z</time>
      </trkpt>
      <trkpt lat="47.21884" lon="1.03466">
        <ele>104.6</ele>
        <time>2020-07-03T11:54:49Z</time>
      </trkpt>
      <trkpt lat="47.21879" lon="1.03461">
        <ele>104.6</ele>
        <time>2020-07-03T11:54:50Z</time>
      </trkpt>
      <trkpt lat="47.21875" lon="1.03455">
        <ele>104.7</ele>
        <time>2020-07-03T11:54:51Z</time>
      </trkpt>
      <trkpt lat="47.21871" lon="1.03452">
        <ele>104.7</ele>
        <time>2020-07-03T11:54:52Z</time>
      </trkpt>
      <trkpt lat="47.21868" lon="1.03446">
        <ele>104.7</ele>
        <time>2020-07-03T11:54:53Z</time>
      </trkpt>
      <trkpt lat="47.21864" lon="1.03442">
        <ele>104.8</ele>
        <time>2020-07-03T11:54:54Z</time>
      </trkpt>
      <trkpt lat="47.2186" lon="1.03438">
        <ele>104.8</ele>
        <time>2020-07-03T11:54:55Z</time>
      </trkpt>
      <trkpt lat="47.21856" lon="1.03433">
        <ele>104.8</ele>
        <time>2020-07-03T11:54:56Z</time>
      </trkpt>
      <trkpt lat="47.21852" lon="1.03429">
        <ele>104.8</ele>
        <time>2020-07-03T11:54:57Z</time>
      </trkpt>
      <trkpt lat="47.21848" lon="1.03425">
        <ele>104.8</ele>
        <time>2020-07-03T11:54:58Z</time>
      </trkpt>
      <trkpt lat="47.21843" lon="1.0342">
        <ele>104.8</ele>
        <time>2020-07-03T11:54:59Z</time>
      </trkpt>
      <trkpt lat="47.21838" lon="1.03416">
        <ele>104.8</ele>
        <time>2020-07-03T11:55:00Z</time>
      </trkpt>
      <trkpt lat="47.21833" lon="1.03412">
        <ele>104.8</ele>
        <time>2020-07-03T11:55:01Z</time>
      </trkpt>
      <trkpt lat="47.21827" lon="1.03407">
        <ele>104.8</ele>
        <time>2020-07-03T11:55:02Z</time>
      </trkpt>
      <trkpt lat="47.21823" lon="1.03402">
        <ele>104.9</ele>
        <time>2020-07-03T11:55:03Z</time>
      </trkpt>
      <trkpt lat="47.21818" lon="1.03398">
        <ele>105</ele>
        <time>2020-07-03T11:55:04Z</time>
      </trkpt>
      <trkpt lat="47.21813" lon="1.03394">
        <ele>105.1</ele>
        <time>2020-07-03T11:55:05Z</time>
      </trkpt>
      <trkpt lat="47.21809" lon="1.0339">
        <ele>105.1</ele>
        <time>2020-07-03T11:55:06Z</time>
      </trkpt>
      <trkpt lat="47.21805" lon="1.03384">
        <ele>105.2</ele>
        <time>2020-07-03T11:55:07Z</time>
      </trkpt>
      <trkpt lat="47.218" lon="1.0338">
        <ele>105.3</ele>
        <time>2020-07-03T11:55:08Z</time>
      </trkpt>
      <trkpt lat="47.21795" lon="1.03375">
        <ele>105.4</ele>
        <time>2020-07-03T11:55:09Z</time>
      </trkpt>
      <trkpt lat="47.21791" lon="1.03371">
        <ele>105.5</ele>
        <time>2020-07-03T11:55:10Z</time>
      </trkpt>
      <trkpt lat="47.21787" lon="1.03368">
        <ele>105.5</ele>
        <time>2020-07-03T11:55:11Z</time>
      </trkpt>
      <trkpt lat="47.21783" lon="1.03365">
        <ele>105.5</ele>
        <time>2020-07-03T11:55:12Z</time>
      </trkpt>
      <trkpt lat="47.21779" lon="1.03359">
        <ele>105.6</ele>
        <time>2020-07-03T11:55:13Z</time>
      </trkpt>
      <trkpt lat="47.21775" lon="1.03355">
        <ele>105.6</ele>
        <time>2020-07-03T11:55:14Z</time>
      </trkpt>
      <trkpt lat="47.2177" lon="1.03352">
        <ele>105.6</ele>
        <time>2020-07-03T11:55:15Z</time>
      </trkpt>
      <trkpt lat="47.21767" lon="1.03347">
        <ele>105.6</ele>
        <time>2020-07-03T11:55:16Z</time>
      </trkpt>
      <trkpt lat="47.21763" lon="1.03343">
        <ele>105.6</ele>
        <time>2020-07-03T11:55:17Z</time>
      </trkpt>
      <trkpt lat="47.21758" lon="1.03337">
        <ele>105.6</ele>
        <time>2020-07-03T11:55:18Z</time>
      </trkpt>
      <trkpt lat="47.21754" lon="1.03332">
        <ele>105.6</ele>
        <time>2020-07-03T11:55:19Z</time>
      </trkpt>
      <trkpt lat="47.2175" lon="1.03328">
        <ele>105.7</ele>
        <time>2020-07-03T11:55:20Z</time>
      </trkpt>
      <trkpt lat="47.21745" lon="1.03325">
        <ele>105.7</ele>
        <time>2020-07-03T11:55:21Z</time>
      </trkpt>
      <trkpt lat="47.2174" lon="1.0332">
        <ele>105.7</ele>
        <time>2020-07-03T11:55:22Z</time>
      </trkpt>
      <trkpt lat="47.21734" lon="1.03316">
        <ele>105.7</ele>
        <time>2020-07-03T11:55:23Z</time>
      </trkpt>
      <trkpt lat="47.21729" lon="1.03312">
        <ele>105.6</ele>
        <time>2020-07-03T11:55:24Z</time>
      </trkpt>
      <trkpt lat="47.21724" lon="1.03308">
        <ele>105.6</ele>
        <time>2020-07-03T11:55:25Z</time>
      </trkpt>
      <trkpt lat="47.2172" lon="1.03303">
        <ele>105.6</ele>
        <time>2020-07-03T11:55:26Z</time>
      </trkpt>
      <trkpt lat="47.21715" lon="1.03299">
        <ele>105.6</ele>
        <time>2020-07-03T11:55:27Z</time>
      </trkpt>
      <trkpt lat="47.21711" lon="1.03295">
        <ele>105.6</ele>
        <time>2020-07-03T11:55:28Z</time>
      </trkpt>
      <trkpt lat="47.21707" lon="1.0329">
        <ele>105.6</ele>
        <time>2020-07-03T11:55:29Z</time>
      </trkpt>
      <trkpt lat="47.21702" lon="1.03285">
        <ele>105.7</ele>
        <time>2020-07-03T11:55:30Z</time>
      </trkpt>
      <trkpt lat="47.21697" lon="1.0328">
        <ele>105.7</ele>
        <time>2020-07-03T11:55:31Z</time>
      </trkpt>
      <trkpt lat="47.21692" lon="1.03275">
        <ele>105.7</ele>
        <time>2020-07-03T11:55:32Z</time>
      </trkpt>
      <trkpt lat="47.21688" lon="1.0327">
        <ele>105.8</ele>
        <time>2020-07-03T11:55:33Z</time>
      </trkpt>
      <trkpt lat="47.21684" lon="1.03265">
        <ele>105.8</ele>
        <time>2020-07-03T11:55:34Z</time>
      </trkpt>
      <trkpt lat="47.21679" lon="1.03261">
        <ele>105.8</ele>
        <time>2020-07-03T11:55:35Z</time>
      </trkpt>
      <trkpt lat="47.21675" lon="1.03257">
        <ele>105.8</ele>
        <time>2020-07-03T11:55:36Z</time>
      </trkpt>
      <trkpt lat="47.21669" lon="1.03252">
        <ele>105.8</ele>
        <time>2020-07-03T11:55:37Z</time>
      </trkpt>
      <trkpt lat="47.21664" lon="1.03249">
        <ele>105.8</ele>
        <time>2020-07-03T11:55:38Z</time>
      </trkpt>
      <trkpt lat="47.21659" lon="1.03244">
        <ele>105.8</ele>
        <time>2020-07-03T11:55:39Z</time>
      </trkpt>
      <trkpt lat="47.21653" lon="1.03239">
        <ele>105.8</ele>
        <time>2020-07-03T11:55:40Z</time>
      </trkpt>
      <trkpt lat="47.21648" lon="1.03233">
        <ele>105.7</ele>
        <time>2020-07-03T11:55:42Z</time>
      </trkpt>
      <trkpt lat="47.21644" lon="1.03228">
        <ele>105.7</ele>
        <time>2020-07-03T11:55:43Z</time>
      </trkpt>
      <trkpt lat="47.21639" lon="1.03222">
        <ele>105.7</ele>
        <time>2020-07-03T11:55:44Z</time>
      </trkpt>
      <trkpt lat="47.21634" lon="1.03216">
        <ele>105.7</ele>
        <time>2020-07-03T11:55:45Z</time>
      </trkpt>
      <trkpt lat="47.21629" lon="1.03211">
        <ele>105.7</ele>
        <time>2020-07-03T11:55:46Z</time>
      </trkpt>
      <trkpt lat="47.21625" lon="1.03206">
        <ele>105.7</ele>
        <time>2020-07-03T11:55:47Z</time>
      </trkpt>
      <trkpt lat="47.21621" lon="1.03201">
        <ele>105.7</ele>
        <time>2020-07-03T11:55:48Z</time>
      </trkpt>
      <trkpt lat="47.21617" lon="1.03196">
        <ele>105.7</ele>
        <time>2020-07-03T11:55:49Z</time>
      </trkpt>
      <trkpt lat="47.21613" lon="1.03188">
        <ele>105.7</ele>
        <time>2020-07-03T11:55:50Z</time>
      </trkpt>
      <trkpt lat="47.2161" lon="1.03181">
        <ele>105.8</ele>
        <time>2020-07-03T11:55:51Z</time>
      </trkpt>
      <trkpt lat="47.21608" lon="1.03172">
        <ele>105.7</ele>
        <time>2020-07-03T11:55:52Z</time>
      </trkpt>
      <trkpt lat="47.21606" lon="1.03165">
        <ele>105.6</ele>
        <time>2020-07-03T11:55:53Z</time>
      </trkpt>
      <trkpt lat="47.21606" lon="1.03159">
        <ele>105.6</ele>
        <time>2020-07-03T11:55:54Z</time>
      </trkpt>
      <trkpt lat="47.21606" lon="1.03152">
        <ele>105.6</ele>
        <time>2020-07-03T11:55:55Z</time>
      </trkpt>
      <trkpt lat="47.21607" lon="1.03145">
        <ele>105.7</ele>
        <time>2020-07-03T11:55:56Z</time>
      </trkpt>
      <trkpt lat="47.21607" lon="1.03138">
        <ele>105.8</ele>
        <time>2020-07-03T11:55:57Z</time>
      </trkpt>
      <trkpt lat="47.21608" lon="1.03132">
        <ele>105.8</ele>
        <time>2020-07-03T11:55:58Z</time>
      </trkpt>
      <trkpt lat="47.21608" lon="1.03124">
        <ele>105.9</ele>
        <time>2020-07-03T11:55:59Z</time>
      </trkpt>
      <trkpt lat="47.21609" lon="1.03117">
        <ele>105.9</ele>
        <time>2020-07-03T11:56:00Z</time>
      </trkpt>
      <trkpt lat="47.21609" lon="1.03112">
        <ele>105.9</ele>
        <time>2020-07-03T11:56:01Z</time>
      </trkpt>
      <trkpt lat="47.21608" lon="1.03107">
        <ele>105.8</ele>
        <time>2020-07-03T11:56:02Z</time>
      </trkpt>
      <trkpt lat="47.21604" lon="1.03103">
        <ele>105.8</ele>
        <time>2020-07-03T11:56:03Z</time>
      </trkpt>
      <trkpt lat="47.21598" lon="1.031">
        <ele>105.7</ele>
        <time>2020-07-03T11:56:04Z</time>
      </trkpt>
      <trkpt lat="47.21593" lon="1.03097">
        <ele>105.6</ele>
        <time>2020-07-03T11:56:05Z</time>
      </trkpt>
      <trkpt lat="47.21588" lon="1.03095">
        <ele>105.5</ele>
        <time>2020-07-03T11:56:06Z</time>
      </trkpt>
      <trkpt lat="47.21582" lon="1.03091">
        <ele>105.4</ele>
        <time>2020-07-03T11:56:07Z</time>
      </trkpt>
      <trkpt lat="47.21577" lon="1.0309">
        <ele>105.3</ele>
        <time>2020-07-03T11:56:08Z</time>
      </trkpt>
      <trkpt lat="47.21572" lon="1.03088">
        <ele>105.2</ele>
        <time>2020-07-03T11:56:09Z</time>
      </trkpt>
      <trkpt lat="47.21566" lon="1.03085">
        <ele>105.1</ele>
        <time>2020-07-03T11:56:10Z</time>
      </trkpt>
      <trkpt lat="47.21561" lon="1.03083">
        <ele>105</ele>
        <time>2020-07-03T11:56:11Z</time>
      </trkpt>
      <trkpt lat="47.21555" lon="1.03081">
        <ele>105</ele>
        <time>2020-07-03T11:56:12Z</time>
      </trkpt>
      <trkpt lat="47.2155" lon="1.03078">
        <ele>104.9</ele>
        <time>2020-07-03T11:56:13Z</time>
      </trkpt>
      <trkpt lat="47.21544" lon="1.03075">
        <ele>104.8</ele>
        <time>2020-07-03T11:56:14Z</time>
      </trkpt>
      <trkpt lat="47.21539" lon="1.03072">
        <ele>104.7</ele>
        <time>2020-07-03T11:56:15Z</time>
      </trkpt>
      <trkpt lat="47.21533" lon="1.0307">
        <ele>104.6</ele>
        <time>2020-07-03T11:56:16Z</time>
      </trkpt>
      <trkpt lat="47.21529" lon="1.03068">
        <ele>104.5</ele>
        <time>2020-07-03T11:56:17Z</time>
      </trkpt>
      <trkpt lat="47.21525" lon="1.03065">
        <ele>104.5</ele>
        <time>2020-07-03T11:56:18Z</time>
      </trkpt>
      <trkpt lat="47.21521" lon="1.03063">
        <ele>104.4</ele>
        <time>2020-07-03T11:56:19Z</time>
      </trkpt>
      <trkpt lat="47.21517" lon="1.0306">
        <ele>104.3</ele>
        <time>2020-07-03T11:56:20Z</time>
      </trkpt>
      <trkpt lat="47.21513" lon="1.03057">
        <ele>104.3</ele>
        <time>2020-07-03T11:56:21Z</time>
      </trkpt>
      <trkpt lat="47.21509" lon="1.03055">
        <ele>104.2</ele>
        <time>2020-07-03T11:56:22Z</time>
      </trkpt>
      <trkpt lat="47.21505" lon="1.03053">
        <ele>104.1</ele>
        <time>2020-07-03T11:56:23Z</time>
      </trkpt>
      <trkpt lat="47.21501" lon="1.0305">
        <ele>104</ele>
        <time>2020-07-03T11:56:24Z</time>
      </trkpt>
      <trkpt lat="47.21497" lon="1.03046">
        <ele>103.9</ele>
        <time>2020-07-03T11:56:25Z</time>
      </trkpt>
      <trkpt lat="47.21493" lon="1.03042">
        <ele>103.8</ele>
        <time>2020-07-03T11:56:26Z</time>
      </trkpt>
      <trkpt lat="47.21487" lon="1.03038">
        <ele>103.6</ele>
        <time>2020-07-03T11:56:27Z</time>
      </trkpt>
      <trkpt lat="47.21483" lon="1.03034">
        <ele>103.4</ele>
        <time>2020-07-03T11:56:28Z</time>
      </trkpt>
      <trkpt lat="47.21478" lon="1.0303">
        <ele>103.3</ele>
        <time>2020-07-03T11:56:29Z</time>
      </trkpt>
      <trkpt lat="47.21474" lon="1.03026">
        <ele>103.2</ele>
        <time>2020-07-03T11:56:30Z</time>
      </trkpt>
      <trkpt lat="47.21469" lon="1.03022">
        <ele>103</ele>
        <time>2020-07-03T11:56:31Z</time>
      </trkpt>
      <trkpt lat="47.21463" lon="1.03017">
        <ele>102.8</ele>
        <time>2020-07-03T11:56:32Z</time>
      </trkpt>
      <trkpt lat="47.21459" lon="1.03014">
        <ele>102.7</ele>
        <time>2020-07-03T11:56:33Z</time>
      </trkpt>
      <trkpt lat="47.21455" lon="1.03011">
        <ele>102.6</ele>
        <time>2020-07-03T11:56:34Z</time>
      </trkpt>
      <trkpt lat="47.21451" lon="1.03007">
        <ele>102.4</ele>
        <time>2020-07-03T11:56:35Z</time>
      </trkpt>
      <trkpt lat="47.21448" lon="1.03003">
        <ele>102.3</ele>
        <time>2020-07-03T11:56:36Z</time>
      </trkpt>
      <trkpt lat="47.21444" lon="1.02998">
        <ele>102.2</ele>
        <time>2020-07-03T11:56:37Z</time>
      </trkpt>
      <trkpt lat="47.21441" lon="1.02993">
        <ele>102.1</ele>
        <time>2020-07-03T11:56:38Z</time>
      </trkpt>
      <trkpt lat="47.21439" lon="1.02986">
        <ele>101.9</ele>
        <time>2020-07-03T11:56:39Z</time>
      </trkpt>
      <trkpt lat="47.2144" lon="1.02979">
        <ele>101.8</ele>
        <time>2020-07-03T11:56:40Z</time>
      </trkpt>
      <trkpt lat="47.21442" lon="1.02972">
        <ele>101.6</ele>
        <time>2020-07-03T11:56:41Z</time>
      </trkpt>
      <trkpt lat="47.21445" lon="1.02966">
        <ele>101.4</ele>
        <time>2020-07-03T11:56:42Z</time>
      </trkpt>
      <trkpt lat="47.21447" lon="1.02959">
        <ele>101.2</ele>
        <time>2020-07-03T11:56:43Z</time>
      </trkpt>
      <trkpt lat="47.21449" lon="1.02952">
        <ele>101</ele>
        <time>2020-07-03T11:56:44Z</time>
      </trkpt>
      <trkpt lat="47.21451" lon="1.02945">
        <ele>100.8</ele>
        <time>2020-07-03T11:56:45Z</time>
      </trkpt>
      <trkpt lat="47.21453" lon="1.02939">
        <ele>100.7</ele>
        <time>2020-07-03T11:56:46Z</time>
      </trkpt>
      <trkpt lat="47.21454" lon="1.02932">
        <ele>100.6</ele>
        <time>2020-07-03T11:56:47Z</time>
      </trkpt>
      <trkpt lat="47.21454" lon="1.02926">
        <ele>100.5</ele>
        <time>2020-07-03T11:56:48Z</time>
      </trkpt>
      <trkpt lat="47.21455" lon="1.02919">
        <ele>100.4</ele>
        <time>2020-07-03T11:56:49Z</time>
      </trkpt>
      <trkpt lat="47.21454" lon="1.0291">
        <ele>100.4</ele>
        <time>2020-07-03T11:56:50Z</time>
      </trkpt>
      <trkpt lat="47.21453" lon="1.02902">
        <ele>100.4</ele>
        <time>2020-07-03T11:56:51Z</time>
      </trkpt>
      <trkpt lat="47.21452" lon="1.02893">
        <ele>100.3</ele>
        <time>2020-07-03T11:56:52Z</time>
      </trkpt>
      <trkpt lat="47.21451" lon="1.02886">
        <ele>100.3</ele>
        <time>2020-07-03T11:56:53Z</time>
      </trkpt>
      <trkpt lat="47.21451" lon="1.02877">
        <ele>100.3</ele>
        <time>2020-07-03T11:56:54Z</time>
      </trkpt>
      <trkpt lat="47.2145" lon="1.02871">
        <ele>100.3</ele>
        <time>2020-07-03T11:56:55Z</time>
      </trkpt>
      <trkpt lat="47.21449" lon="1.02861">
        <ele>100.4</ele>
        <time>2020-07-03T11:56:56Z</time>
      </trkpt>
      <trkpt lat="47.21449" lon="1.02854">
        <ele>100.4</ele>
        <time>2020-07-03T11:56:57Z</time>
      </trkpt>
      <trkpt lat="47.21448" lon="1.02846">
        <ele>100.5</ele>
        <time>2020-07-03T11:56:58Z</time>
      </trkpt>
      <trkpt lat="47.21447" lon="1.02838">
        <ele>100.6</ele>
        <time>2020-07-03T11:56:59Z</time>
      </trkpt>
      <trkpt lat="47.21447" lon="1.0283">
        <ele>100.7</ele>
        <time>2020-07-03T11:57:00Z</time>
      </trkpt>
      <trkpt lat="47.21447" lon="1.02822">
        <ele>100.9</ele>
        <time>2020-07-03T11:57:01Z</time>
      </trkpt>
      <trkpt lat="47.21447" lon="1.02815">
        <ele>101</ele>
        <time>2020-07-03T11:57:02Z</time>
      </trkpt>
      <trkpt lat="47.21446" lon="1.02808">
        <ele>101.1</ele>
        <time>2020-07-03T11:57:03Z</time>
      </trkpt>
      <trkpt lat="47.21445" lon="1.02801">
        <ele>101.2</ele>
        <time>2020-07-03T11:57:04Z</time>
      </trkpt>
      <trkpt lat="47.21443" lon="1.02794">
        <ele>101.2</ele>
        <time>2020-07-03T11:57:05Z</time>
      </trkpt>
      <trkpt lat="47.21443" lon="1.02787">
        <ele>101.2</ele>
        <time>2020-07-03T11:57:06Z</time>
      </trkpt>
      <trkpt lat="47.21442" lon="1.0278">
        <ele>101.2</ele>
        <time>2020-07-03T11:57:07Z</time>
      </trkpt>
      <trkpt lat="47.21442" lon="1.02774">
        <ele>101.3</ele>
        <time>2020-07-03T11:57:08Z</time>
      </trkpt>
      <trkpt lat="47.21442" lon="1.02768">
        <ele>101.3</ele>
        <time>2020-07-03T11:57:09Z</time>
      </trkpt>
      <trkpt lat="47.21442" lon="1.02761">
        <ele>101.3</ele>
        <time>2020-07-03T11:57:10Z</time>
      </trkpt>
      <trkpt lat="47.21442" lon="1.02754">
        <ele>101.3</ele>
        <time>2020-07-03T11:57:11Z</time>
      </trkpt>
      <trkpt lat="47.21442" lon="1.02748">
        <ele>101.3</ele>
        <time>2020-07-03T11:57:12Z</time>
      </trkpt>
      <trkpt lat="47.21442" lon="1.02743">
        <ele>101.3</ele>
        <time>2020-07-03T11:57:13Z</time>
      </trkpt>
      <trkpt lat="47.2144" lon="1.02736">
        <ele>101.4</ele>
        <time>2020-07-03T11:57:14Z</time>
      </trkpt>
      <trkpt lat="47.21439" lon="1.02728">
        <ele>101.6</ele>
        <time>2020-07-03T11:57:15Z</time>
      </trkpt>
      <trkpt lat="47.21438" lon="1.02721">
        <ele>101.7</ele>
        <time>2020-07-03T11:57:16Z</time>
      </trkpt>
      <trkpt lat="47.21438" lon="1.02712">
        <ele>101.7</ele>
        <time>2020-07-03T11:57:17Z</time>
      </trkpt>
      <trkpt lat="47.21437" lon="1.02705">
        <ele>101.7</ele>
        <time>2020-07-03T11:57:18Z</time>
      </trkpt>
      <trkpt lat="47.21437" lon="1.027">
        <ele>101.7</ele>
        <time>2020-07-03T11:57:19Z</time>
      </trkpt>
      <trkpt lat="47.21436" lon="1.02694">
        <ele>101.8</ele>
        <time>2020-07-03T11:57:20Z</time>
      </trkpt>
      <trkpt lat="47.21436" lon="1.02688">
        <ele>101.8</ele>
        <time>2020-07-03T11:57:21Z</time>
      </trkpt>
      <trkpt lat="47.21435" lon="1.02682">
        <ele>101.8</ele>
        <time>2020-07-03T11:57:22Z</time>
      </trkpt>
      <trkpt lat="47.21434" lon="1.02675">
        <ele>101.8</ele>
        <time>2020-07-03T11:57:23Z</time>
      </trkpt>
      <trkpt lat="47.21434" lon="1.02668">
        <ele>101.9</ele>
        <time>2020-07-03T11:57:24Z</time>
      </trkpt>
      <trkpt lat="47.21434" lon="1.0266">
        <ele>101.9</ele>
        <time>2020-07-03T11:57:25Z</time>
      </trkpt>
      <trkpt lat="47.21434" lon="1.02652">
        <ele>101.9</ele>
        <time>2020-07-03T11:57:26Z</time>
      </trkpt>
      <trkpt lat="47.21434" lon="1.02645">
        <ele>101.9</ele>
        <time>2020-07-03T11:57:27Z</time>
      </trkpt>
      <trkpt lat="47.21434" lon="1.02635">
        <ele>101.8</ele>
        <time>2020-07-03T11:57:28Z</time>
      </trkpt>
      <trkpt lat="47.21433" lon="1.02627">
        <ele>101.7</ele>
        <time>2020-07-03T11:57:29Z</time>
      </trkpt>
      <trkpt lat="47.21432" lon="1.0262">
        <ele>101.7</ele>
        <time>2020-07-03T11:57:30Z</time>
      </trkpt>
      <trkpt lat="47.21432" lon="1.02613">
        <ele>101.6</ele>
        <time>2020-07-03T11:57:31Z</time>
      </trkpt>
      <trkpt lat="47.21431" lon="1.02605">
        <ele>101.6</ele>
        <time>2020-07-03T11:57:32Z</time>
      </trkpt>
      <trkpt lat="47.2143" lon="1.02596">
        <ele>101.5</ele>
        <time>2020-07-03T11:57:33Z</time>
      </trkpt>
      <trkpt lat="47.21428" lon="1.02587">
        <ele>101.5</ele>
        <time>2020-07-03T11:57:34Z</time>
      </trkpt>
      <trkpt lat="47.21427" lon="1.0257">
        <ele>101.2</ele>
        <time>2020-07-03T11:57:35Z</time>
      </trkpt>
      <trkpt lat="47.21427" lon="1.02561">
        <ele>101.1</ele>
        <time>2020-07-03T11:57:36Z</time>
      </trkpt>
      <trkpt lat="47.21426" lon="1.02554">
        <ele>101</ele>
        <time>2020-07-03T11:57:37Z</time>
      </trkpt>
      <trkpt lat="47.21426" lon="1.02547">
        <ele>101</ele>
        <time>2020-07-03T11:57:38Z</time>
      </trkpt>
      <trkpt lat="47.21426" lon="1.02539">
        <ele>100.9</ele>
        <time>2020-07-03T11:57:39Z</time>
      </trkpt>
      <trkpt lat="47.21426" lon="1.02531">
        <ele>100.9</ele>
        <time>2020-07-03T11:57:40Z</time>
      </trkpt>
      <trkpt lat="47.21425" lon="1.02523">
        <ele>100.8</ele>
        <time>2020-07-03T11:57:41Z</time>
      </trkpt>
      <trkpt lat="47.21425" lon="1.02515">
        <ele>100.7</ele>
        <time>2020-07-03T11:57:42Z</time>
      </trkpt>
      <trkpt lat="47.21424" lon="1.02508">
        <ele>100.6</ele>
        <time>2020-07-03T11:57:43Z</time>
      </trkpt>
      <trkpt lat="47.21423" lon="1.025">
        <ele>100.4</ele>
        <time>2020-07-03T11:57:44Z</time>
      </trkpt>
      <trkpt lat="47.21422" lon="1.02493">
        <ele>100.2</ele>
        <time>2020-07-03T11:57:45Z</time>
      </trkpt>
      <trkpt lat="47.21421" lon="1.02484">
        <ele>100</ele>
        <time>2020-07-03T11:57:46Z</time>
      </trkpt>
      <trkpt lat="47.21421" lon="1.02476">
        <ele>99.9</ele>
        <time>2020-07-03T11:57:47Z</time>
      </trkpt>
      <trkpt lat="47.2142" lon="1.02468">
        <ele>99.8</ele>
        <time>2020-07-03T11:57:48Z</time>
      </trkpt>
      <trkpt lat="47.21419" lon="1.02461">
        <ele>99.6</ele>
        <time>2020-07-03T11:57:49Z</time>
      </trkpt>
      <trkpt lat="47.21419" lon="1.02452">
        <ele>99.5</ele>
        <time>2020-07-03T11:57:50Z</time>
      </trkpt>
      <trkpt lat="47.21419" lon="1.02443">
        <ele>99.3</ele>
        <time>2020-07-03T11:57:51Z</time>
      </trkpt>
      <trkpt lat="47.21418" lon="1.02435">
        <ele>99.1</ele>
        <time>2020-07-03T11:57:52Z</time>
      </trkpt>
      <trkpt lat="47.21417" lon="1.02425">
        <ele>98.9</ele>
        <time>2020-07-03T11:57:53Z</time>
      </trkpt>
      <trkpt lat="47.21416" lon="1.02417">
        <ele>98.7</ele>
        <time>2020-07-03T11:57:54Z</time>
      </trkpt>
      <trkpt lat="47.21416" lon="1.02408">
        <ele>98.5</ele>
        <time>2020-07-03T11:57:55Z</time>
      </trkpt>
      <trkpt lat="47.21415" lon="1.024">
        <ele>98.4</ele>
        <time>2020-07-03T11:57:56Z</time>
      </trkpt>
      <trkpt lat="47.21414" lon="1.0239">
        <ele>98.2</ele>
        <time>2020-07-03T11:57:57Z</time>
      </trkpt>
      <trkpt lat="47.21414" lon="1.0238">
        <ele>98</ele>
        <time>2020-07-03T11:57:58Z</time>
      </trkpt>
      <trkpt lat="47.21412" lon="1.0237">
        <ele>97.8</ele>
        <time>2020-07-03T11:57:59Z</time>
      </trkpt>
      <trkpt lat="47.21412" lon="1.02361">
        <ele>97.7</ele>
        <time>2020-07-03T11:58:00Z</time>
      </trkpt>
      <trkpt lat="47.21411" lon="1.02352">
        <ele>97.5</ele>
        <time>2020-07-03T11:58:01Z</time>
      </trkpt>
      <trkpt lat="47.21411" lon="1.02343">
        <ele>97.4</ele>
        <time>2020-07-03T11:58:02Z</time>
      </trkpt>
      <trkpt lat="47.2141" lon="1.02335">
        <ele>97.3</ele>
        <time>2020-07-03T11:58:03Z</time>
      </trkpt>
      <trkpt lat="47.2141" lon="1.02325">
        <ele>97.3</ele>
        <time>2020-07-03T11:58:04Z</time>
      </trkpt>
      <trkpt lat="47.21409" lon="1.02316">
        <ele>97.3</ele>
        <time>2020-07-03T11:58:05Z</time>
      </trkpt>
      <trkpt lat="47.21408" lon="1.02308">
        <ele>97.3</ele>
        <time>2020-07-03T11:58:06Z</time>
      </trkpt>
      <trkpt lat="47.21408" lon="1.023">
        <ele>97.4</ele>
        <time>2020-07-03T11:58:07Z</time>
      </trkpt>
      <trkpt lat="47.21407" lon="1.02292">
        <ele>97.4</ele>
        <time>2020-07-03T11:58:08Z</time>
      </trkpt>
      <trkpt lat="47.21407" lon="1.02284">
        <ele>97.5</ele>
        <time>2020-07-03T11:58:09Z</time>
      </trkpt>
      <trkpt lat="47.21406" lon="1.02276">
        <ele>97.5</ele>
        <time>2020-07-03T11:58:10Z</time>
      </trkpt>
      <trkpt lat="47.21405" lon="1.0227">
        <ele>97.6</ele>
        <time>2020-07-03T11:58:11Z</time>
      </trkpt>
      <trkpt lat="47.21404" lon="1.02262">
        <ele>97.7</ele>
        <time>2020-07-03T11:58:12Z</time>
      </trkpt>
      <trkpt lat="47.21402" lon="1.02255">
        <ele>97.7</ele>
        <time>2020-07-03T11:58:13Z</time>
      </trkpt>
      <trkpt lat="47.21402" lon="1.02247">
        <ele>97.8</ele>
        <time>2020-07-03T11:58:14Z</time>
      </trkpt>
      <trkpt lat="47.21401" lon="1.02239">
        <ele>97.9</ele>
        <time>2020-07-03T11:58:15Z</time>
      </trkpt>
      <trkpt lat="47.214" lon="1.02232">
        <ele>98.1</ele>
        <time>2020-07-03T11:58:16Z</time>
      </trkpt>
      <trkpt lat="47.21399" lon="1.02224">
        <ele>98.3</ele>
        <time>2020-07-03T11:58:17Z</time>
      </trkpt>
      <trkpt lat="47.21399" lon="1.02216">
        <ele>98.4</ele>
        <time>2020-07-03T11:58:18Z</time>
      </trkpt>
      <trkpt lat="47.21398" lon="1.02211">
        <ele>98.5</ele>
        <time>2020-07-03T11:58:19Z</time>
      </trkpt>
      <trkpt lat="47.21397" lon="1.02203">
        <ele>98.7</ele>
        <time>2020-07-03T11:58:20Z</time>
      </trkpt>
      <trkpt lat="47.21396" lon="1.02196">
        <ele>98.9</ele>
        <time>2020-07-03T11:58:21Z</time>
      </trkpt>
      <trkpt lat="47.21395" lon="1.02189">
        <ele>99.1</ele>
        <time>2020-07-03T11:58:22Z</time>
      </trkpt>
      <trkpt lat="47.21395" lon="1.02183">
        <ele>99.2</ele>
        <time>2020-07-03T11:58:23Z</time>
      </trkpt>
      <trkpt lat="47.21394" lon="1.02176">
        <ele>99.4</ele>
        <time>2020-07-03T11:58:24Z</time>
      </trkpt>
      <trkpt lat="47.21393" lon="1.02169">
        <ele>99.6</ele>
        <time>2020-07-03T11:58:25Z</time>
      </trkpt>
      <trkpt lat="47.21392" lon="1.02163">
        <ele>99.8</ele>
        <time>2020-07-03T11:58:26Z</time>
      </trkpt>
      <trkpt lat="47.21391" lon="1.02156">
        <ele>100</ele>
        <time>2020-07-03T11:58:27Z</time>
      </trkpt>
      <trkpt lat="47.21391" lon="1.02146">
        <ele>100.3</ele>
        <time>2020-07-03T11:58:28Z</time>
      </trkpt>
      <trkpt lat="47.21391" lon="1.02138">
        <ele>100.5</ele>
        <time>2020-07-03T11:58:29Z</time>
      </trkpt>
      <trkpt lat="47.21389" lon="1.02131">
        <ele>100.8</ele>
        <time>2020-07-03T11:58:30Z</time>
      </trkpt>
      <trkpt lat="47.21389" lon="1.02126">
        <ele>101</ele>
        <time>2020-07-03T11:58:31Z</time>
      </trkpt>
      <trkpt lat="47.21388" lon="1.02119">
        <ele>101.2</ele>
        <time>2020-07-03T11:58:32Z</time>
      </trkpt>
      <trkpt lat="47.21388" lon="1.02112">
        <ele>101.4</ele>
        <time>2020-07-03T11:58:33Z</time>
      </trkpt>
      <trkpt lat="47.21388" lon="1.02104">
        <ele>101.6</ele>
        <time>2020-07-03T11:58:34Z</time>
      </trkpt>
      <trkpt lat="47.21388" lon="1.02097">
        <ele>101.7</ele>
        <time>2020-07-03T11:58:35Z</time>
      </trkpt>
      <trkpt lat="47.21387" lon="1.0209">
        <ele>101.9</ele>
        <time>2020-07-03T11:58:36Z</time>
      </trkpt>
      <trkpt lat="47.21386" lon="1.02086">
        <ele>102</ele>
        <time>2020-07-03T11:58:37Z</time>
      </trkpt>
      <trkpt lat="47.21386" lon="1.02079">
        <ele>102.2</ele>
        <time>2020-07-03T11:58:38Z</time>
      </trkpt>
      <trkpt lat="47.21385" lon="1.02074">
        <ele>102.3</ele>
        <time>2020-07-03T11:58:39Z</time>
      </trkpt>
      <trkpt lat="47.21383" lon="1.0207">
        <ele>102.4</ele>
        <time>2020-07-03T11:58:40Z</time>
      </trkpt>
      <trkpt lat="47.21383" lon="1.02065">
        <ele>102.5</ele>
        <time>2020-07-03T11:58:41Z</time>
      </trkpt>
      <trkpt lat="47.21382" lon="1.0206">
        <ele>102.6</ele>
        <time>2020-07-03T11:58:42Z</time>
      </trkpt>
      <trkpt lat="47.21381" lon="1.02054">
        <ele>102.7</ele>
        <time>2020-07-03T11:58:43Z</time>
      </trkpt>
      <trkpt lat="47.21381" lon="1.02047">
        <ele>102.8</ele>
        <time>2020-07-03T11:58:44Z</time>
      </trkpt>
      <trkpt lat="47.2138" lon="1.02041">
        <ele>102.9</ele>
        <time>2020-07-03T11:58:45Z</time>
      </trkpt>
      <trkpt lat="47.21378" lon="1.02035">
        <ele>103</ele>
        <time>2020-07-03T11:58:46Z</time>
      </trkpt>
      <trkpt lat="47.21376" lon="1.0203">
        <ele>103.1</ele>
        <time>2020-07-03T11:58:47Z</time>
      </trkpt>
      <trkpt lat="47.21375" lon="1.02025">
        <ele>103.2</ele>
        <time>2020-07-03T11:58:48Z</time>
      </trkpt>
      <trkpt lat="47.21374" lon="1.02019">
        <ele>103.3</ele>
        <time>2020-07-03T11:58:49Z</time>
      </trkpt>
      <trkpt lat="47.21373" lon="1.02015">
        <ele>103.3</ele>
        <time>2020-07-03T11:58:50Z</time>
      </trkpt>
      <trkpt lat="47.21373" lon="1.02011">
        <ele>103.4</ele>
        <time>2020-07-03T11:58:51Z</time>
      </trkpt>
      <trkpt lat="47.21371" lon="1.02006">
        <ele>103.4</ele>
        <time>2020-07-03T11:58:52Z</time>
      </trkpt>
      <trkpt lat="47.2137" lon="1.02">
        <ele>103.5</ele>
        <time>2020-07-03T11:58:53Z</time>
      </trkpt>
      <trkpt lat="47.21368" lon="1.01996">
        <ele>103.6</ele>
        <time>2020-07-03T11:58:54Z</time>
      </trkpt>
      <trkpt lat="47.21367" lon="1.0199">
        <ele>103.8</ele>
        <time>2020-07-03T11:58:55Z</time>
      </trkpt>
      <trkpt lat="47.21366" lon="1.01983">
        <ele>103.9</ele>
        <time>2020-07-03T11:58:56Z</time>
      </trkpt>
      <trkpt lat="47.21364" lon="1.01977">
        <ele>104</ele>
        <time>2020-07-03T11:58:57Z</time>
      </trkpt>
      <trkpt lat="47.21363" lon="1.01974">
        <ele>104.1</ele>
        <time>2020-07-03T11:58:58Z</time>
      </trkpt>
      <trkpt lat="47.2136" lon="1.01968">
        <ele>104.1</ele>
        <time>2020-07-03T11:58:59Z</time>
      </trkpt>
      <trkpt lat="47.21358" lon="1.01964">
        <ele>104.1</ele>
        <time>2020-07-03T11:59:00Z</time>
      </trkpt>
      <trkpt lat="47.21355" lon="1.01957">
        <ele>104.1</ele>
        <time>2020-07-03T11:59:01Z</time>
      </trkpt>
      <trkpt lat="47.21353" lon="1.01953">
        <ele>104.1</ele>
        <time>2020-07-03T11:59:02Z</time>
      </trkpt>
      <trkpt lat="47.21351" lon="1.01947">
        <ele>104.1</ele>
        <time>2020-07-03T11:59:03Z</time>
      </trkpt>
      <trkpt lat="47.21348" lon="1.01941">
        <ele>104.1</ele>
        <time>2020-07-03T11:59:04Z</time>
      </trkpt>
      <trkpt lat="47.21346" lon="1.01934">
        <ele>104.1</ele>
        <time>2020-07-03T11:59:05Z</time>
      </trkpt>
      <trkpt lat="47.21344" lon="1.01929">
        <ele>104.1</ele>
        <time>2020-07-03T11:59:06Z</time>
      </trkpt>
      <trkpt lat="47.21342" lon="1.01924">
        <ele>104.1</ele>
        <time>2020-07-03T11:59:07Z</time>
      </trkpt>
      <trkpt lat="47.2134" lon="1.01917">
        <ele>104</ele>
        <time>2020-07-03T11:59:08Z</time>
      </trkpt>
      <trkpt lat="47.21337" lon="1.01911">
        <ele>104</ele>
        <time>2020-07-03T11:59:09Z</time>
      </trkpt>
      <trkpt lat="47.21335" lon="1.01904">
        <ele>103.9</ele>
        <time>2020-07-03T11:59:10Z</time>
      </trkpt>
      <trkpt lat="47.21333" lon="1.01898">
        <ele>103.9</ele>
        <time>2020-07-03T11:59:11Z</time>
      </trkpt>
      <trkpt lat="47.21331" lon="1.01892">
        <ele>103.8</ele>
        <time>2020-07-03T11:59:12Z</time>
      </trkpt>
      <trkpt lat="47.21329" lon="1.01886">
        <ele>103.8</ele>
        <time>2020-07-03T11:59:13Z</time>
      </trkpt>
      <trkpt lat="47.21328" lon="1.0188">
        <ele>103.7</ele>
        <time>2020-07-03T11:59:14Z</time>
      </trkpt>
      <trkpt lat="47.21325" lon="1.01873">
        <ele>103.8</ele>
        <time>2020-07-03T11:59:15Z</time>
      </trkpt>
      <trkpt lat="47.21323" lon="1.01866">
        <ele>103.8</ele>
        <time>2020-07-03T11:59:16Z</time>
      </trkpt>
      <trkpt lat="47.21321" lon="1.01861">
        <ele>103.9</ele>
        <time>2020-07-03T11:59:17Z</time>
      </trkpt>
      <trkpt lat="47.21319" lon="1.01855">
        <ele>104</ele>
        <time>2020-07-03T11:59:18Z</time>
      </trkpt>
      <trkpt lat="47.21318" lon="1.01849">
        <ele>104.1</ele>
        <time>2020-07-03T11:59:19Z</time>
      </trkpt>
      <trkpt lat="47.21317" lon="1.01843">
        <ele>104.2</ele>
        <time>2020-07-03T11:59:20Z</time>
      </trkpt>
      <trkpt lat="47.21315" lon="1.01838">
        <ele>104.2</ele>
        <time>2020-07-03T11:59:21Z</time>
      </trkpt>
      <trkpt lat="47.21314" lon="1.01832">
        <ele>104.2</ele>
        <time>2020-07-03T11:59:22Z</time>
      </trkpt>
      <trkpt lat="47.21313" lon="1.01824">
        <ele>104.2</ele>
        <time>2020-07-03T11:59:23Z</time>
      </trkpt>
      <trkpt lat="47.21311" lon="1.01817">
        <ele>104.2</ele>
        <time>2020-07-03T11:59:24Z</time>
      </trkpt>
      <trkpt lat="47.2131" lon="1.01811">
        <ele>104.2</ele>
        <time>2020-07-03T11:59:25Z</time>
      </trkpt>
      <trkpt lat="47.21309" lon="1.01805">
        <ele>104.2</ele>
        <time>2020-07-03T11:59:26Z</time>
      </trkpt>
      <trkpt lat="47.21307" lon="1.01799">
        <ele>104.2</ele>
        <time>2020-07-03T11:59:27Z</time>
      </trkpt>
      <trkpt lat="47.21306" lon="1.01792">
        <ele>104.2</ele>
        <time>2020-07-03T11:59:28Z</time>
      </trkpt>
      <trkpt lat="47.21305" lon="1.01787">
        <ele>104.2</ele>
        <time>2020-07-03T11:59:29Z</time>
      </trkpt>
      <trkpt lat="47.21304" lon="1.01782">
        <ele>104.2</ele>
        <time>2020-07-03T11:59:30Z</time>
      </trkpt>
      <trkpt lat="47.21304" lon="1.01776">
        <ele>104.2</ele>
        <time>2020-07-03T11:59:31Z</time>
      </trkpt>
      <trkpt lat="47.21304" lon="1.01769">
        <ele>104.3</ele>
        <time>2020-07-03T11:59:32Z</time>
      </trkpt>
      <trkpt lat="47.21303" lon="1.01762">
        <ele>104.3</ele>
        <time>2020-07-03T11:59:33Z</time>
      </trkpt>
      <trkpt lat="47.21303" lon="1.01756">
        <ele>104.3</ele>
        <time>2020-07-03T11:59:34Z</time>
      </trkpt>
      <trkpt lat="47.21303" lon="1.01749">
        <ele>104.4</ele>
        <time>2020-07-03T11:59:35Z</time>
      </trkpt>
      <trkpt lat="47.21302" lon="1.01741">
        <ele>104.4</ele>
        <time>2020-07-03T11:59:36Z</time>
      </trkpt>
      <trkpt lat="47.213" lon="1.01735">
        <ele>104.4</ele>
        <time>2020-07-03T11:59:37Z</time>
      </trkpt>
      <trkpt lat="47.21299" lon="1.01729">
        <ele>104.5</ele>
        <time>2020-07-03T11:59:38Z</time>
      </trkpt>
      <trkpt lat="47.21299" lon="1.01725">
        <ele>104.5</ele>
        <time>2020-07-03T11:59:39Z</time>
      </trkpt>
      <trkpt lat="47.21299" lon="1.01718">
        <ele>104.6</ele>
        <time>2020-07-03T11:59:40Z</time>
      </trkpt>
      <trkpt lat="47.21299" lon="1.01713">
        <ele>104.6</ele>
        <time>2020-07-03T11:59:41Z</time>
      </trkpt>
      <trkpt lat="47.21298" lon="1.01708">
        <ele>104.6</ele>
        <time>2020-07-03T11:59:42Z</time>
      </trkpt>
      <trkpt lat="47.21298" lon="1.01702">
        <ele>104.7</ele>
        <time>2020-07-03T11:59:43Z</time>
      </trkpt>
      <trkpt lat="47.21297" lon="1.01695">
        <ele>104.7</ele>
        <time>2020-07-03T11:59:44Z</time>
      </trkpt>
      <trkpt lat="47.21296" lon="1.01688">
        <ele>104.8</ele>
        <time>2020-07-03T11:59:45Z</time>
      </trkpt>
      <trkpt lat="47.21295" lon="1.01682">
        <ele>104.9</ele>
        <time>2020-07-03T11:59:46Z</time>
      </trkpt>
      <trkpt lat="47.21294" lon="1.01676">
        <ele>105</ele>
        <time>2020-07-03T11:59:47Z</time>
      </trkpt>
      <trkpt lat="47.21293" lon="1.01669">
        <ele>105</ele>
        <time>2020-07-03T11:59:48Z</time>
      </trkpt>
      <trkpt lat="47.21292" lon="1.01662">
        <ele>105.1</ele>
        <time>2020-07-03T11:59:49Z</time>
      </trkpt>
      <trkpt lat="47.21292" lon="1.01656">
        <ele>105.2</ele>
        <time>2020-07-03T11:59:50Z</time>
      </trkpt>
      <trkpt lat="47.21292" lon="1.0165">
        <ele>105.3</ele>
        <time>2020-07-03T11:59:51Z</time>
      </trkpt>
      <trkpt lat="47.21291" lon="1.01645">
        <ele>105.3</ele>
        <time>2020-07-03T11:59:52Z</time>
      </trkpt>
      <trkpt lat="47.21291" lon="1.01638">
        <ele>105.3</ele>
        <time>2020-07-03T11:59:53Z</time>
      </trkpt>
      <trkpt lat="47.21291" lon="1.01633">
        <ele>105.4</ele>
        <time>2020-07-03T11:59:54Z</time>
      </trkpt>
      <trkpt lat="47.21291" lon="1.01627">
        <ele>105.4</ele>
        <time>2020-07-03T11:59:55Z</time>
      </trkpt>
      <trkpt lat="47.21292" lon="1.01621">
        <ele>105.4</ele>
        <time>2020-07-03T11:59:56Z</time>
      </trkpt>
      <trkpt lat="47.21292" lon="1.01614">
        <ele>105.5</ele>
        <time>2020-07-03T11:59:57Z</time>
      </trkpt>
      <trkpt lat="47.21292" lon="1.01609">
        <ele>105.5</ele>
        <time>2020-07-03T11:59:58Z</time>
      </trkpt>
      <trkpt lat="47.21292" lon="1.01602">
        <ele>105.5</ele>
        <time>2020-07-03T11:59:59Z</time>
      </trkpt>
      <trkpt lat="47.21292" lon="1.01597">
        <ele>105.6</ele>
        <time>2020-07-03T12:00:00Z</time>
      </trkpt>
      <trkpt lat="47.21291" lon="1.01591">
        <ele>105.6</ele>
        <time>2020-07-03T12:00:01Z</time>
      </trkpt>
      <trkpt lat="47.2129" lon="1.01585">
        <ele>105.7</ele>
        <time>2020-07-03T12:00:02Z</time>
      </trkpt>
      <trkpt lat="47.2129" lon="1.01578">
        <ele>105.8</ele>
        <time>2020-07-03T12:00:03Z</time>
      </trkpt>
      <trkpt lat="47.2129" lon="1.01572">
        <ele>105.8</ele>
        <time>2020-07-03T12:00:04Z</time>
      </trkpt>
      <trkpt lat="47.21289" lon="1.01565">
        <ele>105.9</ele>
        <time>2020-07-03T12:00:05Z</time>
      </trkpt>
      <trkpt lat="47.21289" lon="1.0156">
        <ele>106</ele>
        <time>2020-07-03T12:00:06Z</time>
      </trkpt>
      <trkpt lat="47.21289" lon="1.01554">
        <ele>106</ele>
        <time>2020-07-03T12:00:07Z</time>
      </trkpt>
      <trkpt lat="47.21289" lon="1.01548">
        <ele>106.1</ele>
        <time>2020-07-03T12:00:08Z</time>
      </trkpt>
      <trkpt lat="47.21289" lon="1.01541">
        <ele>106.2</ele>
        <time>2020-07-03T12:00:09Z</time>
      </trkpt>
      <trkpt lat="47.2129" lon="1.01535">
        <ele>106.3</ele>
        <time>2020-07-03T12:00:10Z</time>
      </trkpt>
      <trkpt lat="47.2129" lon="1.01529">
        <ele>106.3</ele>
        <time>2020-07-03T12:00:11Z</time>
      </trkpt>
      <trkpt lat="47.21289" lon="1.01524">
        <ele>106.4</ele>
        <time>2020-07-03T12:00:12Z</time>
      </trkpt>
      <trkpt lat="47.21288" lon="1.01517">
        <ele>106.5</ele>
        <time>2020-07-03T12:00:13Z</time>
      </trkpt>
      <trkpt lat="47.21288" lon="1.01512">
        <ele>106.5</ele>
        <time>2020-07-03T12:00:14Z</time>
      </trkpt>
      <trkpt lat="47.21287" lon="1.01506">
        <ele>106.6</ele>
        <time>2020-07-03T12:00:15Z</time>
      </trkpt>
      <trkpt lat="47.21287" lon="1.01501">
        <ele>106.6</ele>
        <time>2020-07-03T12:00:16Z</time>
      </trkpt>
      <trkpt lat="47.21286" lon="1.01495">
        <ele>106.5</ele>
        <time>2020-07-03T12:00:17Z</time>
      </trkpt>
      <trkpt lat="47.21285" lon="1.0149">
        <ele>106.5</ele>
        <time>2020-07-03T12:00:18Z</time>
      </trkpt>
      <trkpt lat="47.21284" lon="1.01484">
        <ele>106.5</ele>
        <time>2020-07-03T12:00:19Z</time>
      </trkpt>
      <trkpt lat="47.21283" lon="1.01478">
        <ele>106.5</ele>
        <time>2020-07-03T12:00:20Z</time>
      </trkpt>
      <trkpt lat="47.21282" lon="1.01472">
        <ele>106.4</ele>
        <time>2020-07-03T12:00:21Z</time>
      </trkpt>
      <trkpt lat="47.21281" lon="1.01466">
        <ele>106.4</ele>
        <time>2020-07-03T12:00:22Z</time>
      </trkpt>
      <trkpt lat="47.21281" lon="1.01459">
        <ele>106.4</ele>
        <time>2020-07-03T12:00:23Z</time>
      </trkpt>
      <trkpt lat="47.2128" lon="1.01453">
        <ele>106.3</ele>
        <time>2020-07-03T12:00:24Z</time>
      </trkpt>
      <trkpt lat="47.21279" lon="1.01446">
        <ele>106.2</ele>
        <time>2020-07-03T12:00:25Z</time>
      </trkpt>
      <trkpt lat="47.21277" lon="1.0144">
        <ele>106.2</ele>
        <time>2020-07-03T12:00:26Z</time>
      </trkpt>
      <trkpt lat="47.21276" lon="1.01433">
        <ele>106.1</ele>
        <time>2020-07-03T12:00:27Z</time>
      </trkpt>
      <trkpt lat="47.21274" lon="1.01426">
        <ele>106</ele>
        <time>2020-07-03T12:00:28Z</time>
      </trkpt>
      <trkpt lat="47.21272" lon="1.01419">
        <ele>105.9</ele>
        <time>2020-07-03T12:00:29Z</time>
      </trkpt>
      <trkpt lat="47.2127" lon="1.01412">
        <ele>105.9</ele>
        <time>2020-07-03T12:00:30Z</time>
      </trkpt>
      <trkpt lat="47.21267" lon="1.01405">
        <ele>105.9</ele>
        <time>2020-07-03T12:00:31Z</time>
      </trkpt>
      <trkpt lat="47.21266" lon="1.01398">
        <ele>105.8</ele>
        <time>2020-07-03T12:00:32Z</time>
      </trkpt>
      <trkpt lat="47.21264" lon="1.01392">
        <ele>105.8</ele>
        <time>2020-07-03T12:00:33Z</time>
      </trkpt>
      <trkpt lat="47.21263" lon="1.01386">
        <ele>105.7</ele>
        <time>2020-07-03T12:00:34Z</time>
      </trkpt>
      <trkpt lat="47.21261" lon="1.01379">
        <ele>105.6</ele>
        <time>2020-07-03T12:00:35Z</time>
      </trkpt>
      <trkpt lat="47.21258" lon="1.01372">
        <ele>105.5</ele>
        <time>2020-07-03T12:00:36Z</time>
      </trkpt>
      <trkpt lat="47.21256" lon="1.01365">
        <ele>105.3</ele>
        <time>2020-07-03T12:00:37Z</time>
      </trkpt>
      <trkpt lat="47.21254" lon="1.01358">
        <ele>105.2</ele>
        <time>2020-07-03T12:00:38Z</time>
      </trkpt>
      <trkpt lat="47.21252" lon="1.01351">
        <ele>105.1</ele>
        <time>2020-07-03T12:00:39Z</time>
      </trkpt>
      <trkpt lat="47.2125" lon="1.01345">
        <ele>105.1</ele>
        <time>2020-07-03T12:00:40Z</time>
      </trkpt>
      <trkpt lat="47.21247" lon="1.01337">
        <ele>105</ele>
        <time>2020-07-03T12:00:41Z</time>
      </trkpt>
      <trkpt lat="47.21245" lon="1.01331">
        <ele>104.9</ele>
        <time>2020-07-03T12:00:42Z</time>
      </trkpt>
      <trkpt lat="47.21242" lon="1.01324">
        <ele>104.9</ele>
        <time>2020-07-03T12:00:43Z</time>
      </trkpt>
      <trkpt lat="47.21239" lon="1.01316">
        <ele>104.8</ele>
        <time>2020-07-03T12:00:44Z</time>
      </trkpt>
      <trkpt lat="47.21237" lon="1.01308">
        <ele>104.7</ele>
        <time>2020-07-03T12:00:45Z</time>
      </trkpt>
      <trkpt lat="47.21234" lon="1.013">
        <ele>104.6</ele>
        <time>2020-07-03T12:00:46Z</time>
      </trkpt>
      <trkpt lat="47.21232" lon="1.01294">
        <ele>104.5</ele>
        <time>2020-07-03T12:00:47Z</time>
      </trkpt>
      <trkpt lat="47.21229" lon="1.01286">
        <ele>104.4</ele>
        <time>2020-07-03T12:00:48Z</time>
      </trkpt>
      <trkpt lat="47.21226" lon="1.01279">
        <ele>104.4</ele>
        <time>2020-07-03T12:00:49Z</time>
      </trkpt>
      <trkpt lat="47.21224" lon="1.01271">
        <ele>104.4</ele>
        <time>2020-07-03T12:00:50Z</time>
      </trkpt>
      <trkpt lat="47.21222" lon="1.01263">
        <ele>104.4</ele>
        <time>2020-07-03T12:00:51Z</time>
      </trkpt>
      <trkpt lat="47.21219" lon="1.01256">
        <ele>104.4</ele>
        <time>2020-07-03T12:00:52Z</time>
      </trkpt>
      <trkpt lat="47.21216" lon="1.01248">
        <ele>104.3</ele>
        <time>2020-07-03T12:00:53Z</time>
      </trkpt>
      <trkpt lat="47.21214" lon="1.0124">
        <ele>104.3</ele>
        <time>2020-07-03T12:00:54Z</time>
      </trkpt>
      <trkpt lat="47.21212" lon="1.01234">
        <ele>104.2</ele>
        <time>2020-07-03T12:00:55Z</time>
      </trkpt>
      <trkpt lat="47.21209" lon="1.01227">
        <ele>104.1</ele>
        <time>2020-07-03T12:00:56Z</time>
      </trkpt>
      <trkpt lat="47.21206" lon="1.01221">
        <ele>104</ele>
        <time>2020-07-03T12:00:57Z</time>
      </trkpt>
      <trkpt lat="47.21204" lon="1.01215">
        <ele>103.9</ele>
        <time>2020-07-03T12:00:58Z</time>
      </trkpt>
      <trkpt lat="47.21201" lon="1.01209">
        <ele>103.9</ele>
        <time>2020-07-03T12:00:59Z</time>
      </trkpt>
      <trkpt lat="47.21198" lon="1.01203">
        <ele>103.9</ele>
        <time>2020-07-03T12:01:00Z</time>
      </trkpt>
      <trkpt lat="47.21196" lon="1.01197">
        <ele>103.9</ele>
        <time>2020-07-03T12:01:01Z</time>
      </trkpt>
      <trkpt lat="47.21194" lon="1.01189">
        <ele>104</ele>
        <time>2020-07-03T12:01:02Z</time>
      </trkpt>
      <trkpt lat="47.21191" lon="1.01182">
        <ele>103.9</ele>
        <time>2020-07-03T12:01:03Z</time>
      </trkpt>
      <trkpt lat="47.21188" lon="1.01173">
        <ele>103.8</ele>
        <time>2020-07-03T12:01:04Z</time>
      </trkpt>
      <trkpt lat="47.21186" lon="1.01165">
        <ele>103.7</ele>
        <time>2020-07-03T12:01:05Z</time>
      </trkpt>
      <trkpt lat="47.21184" lon="1.01157">
        <ele>103.6</ele>
        <time>2020-07-03T12:01:06Z</time>
      </trkpt>
      <trkpt lat="47.21181" lon="1.01151">
        <ele>103.6</ele>
        <time>2020-07-03T12:01:07Z</time>
      </trkpt>
      <trkpt lat="47.21178" lon="1.01145">
        <ele>103.6</ele>
        <time>2020-07-03T12:01:08Z</time>
      </trkpt>
      <trkpt lat="47.21176" lon="1.01138">
        <ele>103.5</ele>
        <time>2020-07-03T12:01:09Z</time>
      </trkpt>
      <trkpt lat="47.21173" lon="1.01131">
        <ele>103.5</ele>
        <time>2020-07-03T12:01:10Z</time>
      </trkpt>
      <trkpt lat="47.21171" lon="1.01123">
        <ele>103.4</ele>
        <time>2020-07-03T12:01:11Z</time>
      </trkpt>
      <trkpt lat="47.21168" lon="1.01116">
        <ele>103.4</ele>
        <time>2020-07-03T12:01:12Z</time>
      </trkpt>
      <trkpt lat="47.21165" lon="1.01109">
        <ele>103.4</ele>
        <time>2020-07-03T12:01:13Z</time>
      </trkpt>
      <trkpt lat="47.21163" lon="1.01102">
        <ele>103.3</ele>
        <time>2020-07-03T12:01:14Z</time>
      </trkpt>
      <trkpt lat="47.21161" lon="1.01094">
        <ele>103.3</ele>
        <time>2020-07-03T12:01:15Z</time>
      </trkpt>
      <trkpt lat="47.21158" lon="1.01087">
        <ele>103.2</ele>
        <time>2020-07-03T12:01:16Z</time>
      </trkpt>
      <trkpt lat="47.21156" lon="1.0108">
        <ele>103.2</ele>
        <time>2020-07-03T12:01:17Z</time>
      </trkpt>
      <trkpt lat="47.21153" lon="1.01072">
        <ele>103.1</ele>
        <time>2020-07-03T12:01:18Z</time>
      </trkpt>
      <trkpt lat="47.21151" lon="1.01065">
        <ele>103</ele>
        <time>2020-07-03T12:01:19Z</time>
      </trkpt>
      <trkpt lat="47.21148" lon="1.01057">
        <ele>103</ele>
        <time>2020-07-03T12:01:20Z</time>
      </trkpt>
      <trkpt lat="47.21145" lon="1.0105">
        <ele>102.9</ele>
        <time>2020-07-03T12:01:21Z</time>
      </trkpt>
      <trkpt lat="47.21143" lon="1.01042">
        <ele>102.9</ele>
        <time>2020-07-03T12:01:22Z</time>
      </trkpt>
      <trkpt lat="47.21141" lon="1.01034">
        <ele>102.8</ele>
        <time>2020-07-03T12:01:23Z</time>
      </trkpt>
      <trkpt lat="47.21138" lon="1.01026">
        <ele>102.8</ele>
        <time>2020-07-03T12:01:24Z</time>
      </trkpt>
      <trkpt lat="47.21136" lon="1.0102">
        <ele>102.7</ele>
        <time>2020-07-03T12:01:25Z</time>
      </trkpt>
      <trkpt lat="47.21134" lon="1.01013">
        <ele>102.7</ele>
        <time>2020-07-03T12:01:26Z</time>
      </trkpt>
      <trkpt lat="47.21132" lon="1.01005">
        <ele>102.6</ele>
        <time>2020-07-03T12:01:27Z</time>
      </trkpt>
      <trkpt lat="47.21129" lon="1.00997">
        <ele>102.5</ele>
        <time>2020-07-03T12:01:28Z</time>
      </trkpt>
      <trkpt lat="47.21126" lon="1.00989">
        <ele>102.5</ele>
        <time>2020-07-03T12:01:29Z</time>
      </trkpt>
      <trkpt lat="47.21124" lon="1.00981">
        <ele>102.4</ele>
        <time>2020-07-03T12:01:30Z</time>
      </trkpt>
      <trkpt lat="47.21122" lon="1.00972">
        <ele>102.3</ele>
        <time>2020-07-03T12:01:31Z</time>
      </trkpt>
      <trkpt lat="47.21119" lon="1.00964">
        <ele>102.2</ele>
        <time>2020-07-03T12:01:32Z</time>
      </trkpt>
      <trkpt lat="47.21116" lon="1.00956">
        <ele>102.1</ele>
        <time>2020-07-03T12:01:33Z</time>
      </trkpt>
      <trkpt lat="47.21115" lon="1.00949">
        <ele>102</ele>
        <time>2020-07-03T12:01:34Z</time>
      </trkpt>
      <trkpt lat="47.21113" lon="1.00941">
        <ele>101.9</ele>
        <time>2020-07-03T12:01:35Z</time>
      </trkpt>
      <trkpt lat="47.21111" lon="1.00934">
        <ele>101.8</ele>
        <time>2020-07-03T12:01:36Z</time>
      </trkpt>
      <trkpt lat="47.21109" lon="1.00925">
        <ele>101.7</ele>
        <time>2020-07-03T12:01:37Z</time>
      </trkpt>
      <trkpt lat="47.21107" lon="1.00917">
        <ele>101.6</ele>
        <time>2020-07-03T12:01:38Z</time>
      </trkpt>
      <trkpt lat="47.21106" lon="1.00909">
        <ele>101.5</ele>
        <time>2020-07-03T12:01:39Z</time>
      </trkpt>
      <trkpt lat="47.21104" lon="1.00901">
        <ele>101.5</ele>
        <time>2020-07-03T12:01:40Z</time>
      </trkpt>
      <trkpt lat="47.21101" lon="1.00893">
        <ele>101.5</ele>
        <time>2020-07-03T12:01:41Z</time>
      </trkpt>
      <trkpt lat="47.21099" lon="1.00885">
        <ele>101.4</ele>
        <time>2020-07-03T12:01:42Z</time>
      </trkpt>
      <trkpt lat="47.21097" lon="1.00877">
        <ele>101.3</ele>
        <time>2020-07-03T12:01:43Z</time>
      </trkpt>
      <trkpt lat="47.21095" lon="1.0087">
        <ele>101.3</ele>
        <time>2020-07-03T12:01:44Z</time>
      </trkpt>
      <trkpt lat="47.21093" lon="1.00862">
        <ele>101.4</ele>
        <time>2020-07-03T12:01:45Z</time>
      </trkpt>
      <trkpt lat="47.21092" lon="1.00852">
        <ele>101.4</ele>
        <time>2020-07-03T12:01:46Z</time>
      </trkpt>
      <trkpt lat="47.21091" lon="1.00843">
        <ele>101.4</ele>
        <time>2020-07-03T12:01:47Z</time>
      </trkpt>
      <trkpt lat="47.2109" lon="1.00835">
        <ele>101.4</ele>
        <time>2020-07-03T12:01:48Z</time>
      </trkpt>
      <trkpt lat="47.21089" lon="1.00827">
        <ele>101.4</ele>
        <time>2020-07-03T12:01:49Z</time>
      </trkpt>
      <trkpt lat="47.21088" lon="1.00819">
        <ele>101.4</ele>
        <time>2020-07-03T12:01:50Z</time>
      </trkpt>
      <trkpt lat="47.21086" lon="1.0081">
        <ele>101.4</ele>
        <time>2020-07-03T12:01:51Z</time>
      </trkpt>
      <trkpt lat="47.21085" lon="1.00802">
        <ele>101.3</ele>
        <time>2020-07-03T12:01:52Z</time>
      </trkpt>
      <trkpt lat="47.21084" lon="1.00794">
        <ele>101.3</ele>
        <time>2020-07-03T12:01:53Z</time>
      </trkpt>
      <trkpt lat="47.21083" lon="1.00786">
        <ele>101.4</ele>
        <time>2020-07-03T12:01:54Z</time>
      </trkpt>
      <trkpt lat="47.21081" lon="1.00777">
        <ele>101.4</ele>
        <time>2020-07-03T12:01:55Z</time>
      </trkpt>
      <trkpt lat="47.2108" lon="1.00768">
        <ele>101.4</ele>
        <time>2020-07-03T12:01:56Z</time>
      </trkpt>
      <trkpt lat="47.21079" lon="1.00759">
        <ele>101.4</ele>
        <time>2020-07-03T12:01:57Z</time>
      </trkpt>
      <trkpt lat="47.21079" lon="1.00749">
        <ele>101.4</ele>
        <time>2020-07-03T12:01:58Z</time>
      </trkpt>
      <trkpt lat="47.21077" lon="1.00742">
        <ele>101.5</ele>
        <time>2020-07-03T12:01:59Z</time>
      </trkpt>
      <trkpt lat="47.21076" lon="1.00735">
        <ele>101.5</ele>
        <time>2020-07-03T12:02:00Z</time>
      </trkpt>
      <trkpt lat="47.21074" lon="1.00727">
        <ele>101.5</ele>
        <time>2020-07-03T12:02:01Z</time>
      </trkpt>
      <trkpt lat="47.21073" lon="1.0072">
        <ele>101.5</ele>
        <time>2020-07-03T12:02:02Z</time>
      </trkpt>
      <trkpt lat="47.21072" lon="1.00711">
        <ele>101.5</ele>
        <time>2020-07-03T12:02:03Z</time>
      </trkpt>
      <trkpt lat="47.21071" lon="1.00703">
        <ele>101.5</ele>
        <time>2020-07-03T12:02:04Z</time>
      </trkpt>
      <trkpt lat="47.2107" lon="1.00695">
        <ele>101.5</ele>
        <time>2020-07-03T12:02:05Z</time>
      </trkpt>
      <trkpt lat="47.21069" lon="1.00687">
        <ele>101.5</ele>
        <time>2020-07-03T12:02:06Z</time>
      </trkpt>
      <trkpt lat="47.21068" lon="1.00679">
        <ele>101.4</ele>
        <time>2020-07-03T12:02:07Z</time>
      </trkpt>
      <trkpt lat="47.21068" lon="1.0067">
        <ele>101.4</ele>
        <time>2020-07-03T12:02:08Z</time>
      </trkpt>
      <trkpt lat="47.21067" lon="1.00662">
        <ele>101.3</ele>
        <time>2020-07-03T12:02:09Z</time>
      </trkpt>
      <trkpt lat="47.21066" lon="1.00653">
        <ele>101.2</ele>
        <time>2020-07-03T12:02:10Z</time>
      </trkpt>
      <trkpt lat="47.21064" lon="1.00646">
        <ele>101.1</ele>
        <time>2020-07-03T12:02:11Z</time>
      </trkpt>
      <trkpt lat="47.21063" lon="1.00638">
        <ele>101</ele>
        <time>2020-07-03T12:02:12Z</time>
      </trkpt>
      <trkpt lat="47.21063" lon="1.00631">
        <ele>100.9</ele>
        <time>2020-07-03T12:02:13Z</time>
      </trkpt>
      <trkpt lat="47.21062" lon="1.00623">
        <ele>100.8</ele>
        <time>2020-07-03T12:02:14Z</time>
      </trkpt>
      <trkpt lat="47.21061" lon="1.00615">
        <ele>100.7</ele>
        <time>2020-07-03T12:02:15Z</time>
      </trkpt>
      <trkpt lat="47.21061" lon="1.00607">
        <ele>100.5</ele>
        <time>2020-07-03T12:02:16Z</time>
      </trkpt>
      <trkpt lat="47.2106" lon="1.006">
        <ele>100.3</ele>
        <time>2020-07-03T12:02:17Z</time>
      </trkpt>
      <trkpt lat="47.21059" lon="1.00591">
        <ele>100.1</ele>
        <time>2020-07-03T12:02:18Z</time>
      </trkpt>
      <trkpt lat="47.2106" lon="1.00581">
        <ele>99.8</ele>
        <time>2020-07-03T12:02:19Z</time>
      </trkpt>
      <trkpt lat="47.2106" lon="1.00572">
        <ele>99.6</ele>
        <time>2020-07-03T12:02:20Z</time>
      </trkpt>
      <trkpt lat="47.2106" lon="1.00563">
        <ele>99.4</ele>
        <time>2020-07-03T12:02:21Z</time>
      </trkpt>
      <trkpt lat="47.2106" lon="1.00553">
        <ele>99.2</ele>
        <time>2020-07-03T12:02:22Z</time>
      </trkpt>
      <trkpt lat="47.2106" lon="1.00543">
        <ele>98.9</ele>
        <time>2020-07-03T12:02:23Z</time>
      </trkpt>
      <trkpt lat="47.21061" lon="1.00533">
        <ele>98.7</ele>
        <time>2020-07-03T12:02:24Z</time>
      </trkpt>
      <trkpt lat="47.21062" lon="1.00523">
        <ele>98.4</ele>
        <time>2020-07-03T12:02:25Z</time>
      </trkpt>
      <trkpt lat="47.21062" lon="1.00514">
        <ele>98.2</ele>
        <time>2020-07-03T12:02:26Z</time>
      </trkpt>
      <trkpt lat="47.21063" lon="1.00505">
        <ele>98</ele>
        <time>2020-07-03T12:02:28Z</time>
      </trkpt>
      <trkpt lat="47.21063" lon="1.00497">
        <ele>97.8</ele>
        <time>2020-07-03T12:02:29Z</time>
      </trkpt>
      <trkpt lat="47.21064" lon="1.00488">
        <ele>97.6</ele>
        <time>2020-07-03T12:02:30Z</time>
      </trkpt>
      <trkpt lat="47.21064" lon="1.00477">
        <ele>97.4</ele>
        <time>2020-07-03T12:02:31Z</time>
      </trkpt>
      <trkpt lat="47.21065" lon="1.00467">
        <ele>97.2</ele>
        <time>2020-07-03T12:02:32Z</time>
      </trkpt>
      <trkpt lat="47.21066" lon="1.00458">
        <ele>97</ele>
        <time>2020-07-03T12:02:33Z</time>
      </trkpt>
      <trkpt lat="47.21067" lon="1.0045">
        <ele>96.8</ele>
        <time>2020-07-03T12:02:34Z</time>
      </trkpt>
      <trkpt lat="47.21067" lon="1.00441">
        <ele>96.6</ele>
        <time>2020-07-03T12:02:35Z</time>
      </trkpt>
      <trkpt lat="47.21068" lon="1.00432">
        <ele>96.4</ele>
        <time>2020-07-03T12:02:36Z</time>
      </trkpt>
      <trkpt lat="47.21068" lon="1.00424">
        <ele>96.1</ele>
        <time>2020-07-03T12:02:37Z</time>
      </trkpt>
      <trkpt lat="47.21069" lon="1.00414">
        <ele>95.8</ele>
        <time>2020-07-03T12:02:38Z</time>
      </trkpt>
      <trkpt lat="47.2107" lon="1.00405">
        <ele>95.5</ele>
        <time>2020-07-03T12:02:39Z</time>
      </trkpt>
      <trkpt lat="47.2107" lon="1.00397">
        <ele>95.3</ele>
        <time>2020-07-03T12:02:40Z</time>
      </trkpt>
      <trkpt lat="47.21071" lon="1.00388">
        <ele>94.9</ele>
        <time>2020-07-03T12:02:41Z</time>
      </trkpt>
      <trkpt lat="47.21072" lon="1.00379">
        <ele>94.5</ele>
        <time>2020-07-03T12:02:42Z</time>
      </trkpt>
      <trkpt lat="47.21072" lon="1.0037">
        <ele>94.1</ele>
        <time>2020-07-03T12:02:43Z</time>
      </trkpt>
      <trkpt lat="47.21072" lon="1.00361">
        <ele>93.8</ele>
        <time>2020-07-03T12:02:44Z</time>
      </trkpt>
      <trkpt lat="47.21072" lon="1.00351">
        <ele>93.3</ele>
        <time>2020-07-03T12:02:45Z</time>
      </trkpt>
      <trkpt lat="47.21072" lon="1.00341">
        <ele>92.9</ele>
        <time>2020-07-03T12:02:46Z</time>
      </trkpt>
      <trkpt lat="47.21071" lon="1.00329">
        <ele>92.3</ele>
        <time>2020-07-03T12:02:47Z</time>
      </trkpt>
      <trkpt lat="47.21068" lon="1.00318">
        <ele>91.9</ele>
        <time>2020-07-03T12:02:48Z</time>
      </trkpt>
      <trkpt lat="47.21065" lon="1.00307">
        <ele>91.4</ele>
        <time>2020-07-03T12:02:49Z</time>
      </trkpt>
      <trkpt lat="47.21061" lon="1.00296">
        <ele>90.8</ele>
        <time>2020-07-03T12:02:50Z</time>
      </trkpt>
      <trkpt lat="47.21056" lon="1.00284">
        <ele>90.2</ele>
        <time>2020-07-03T12:02:51Z</time>
      </trkpt>
      <trkpt lat="47.21053" lon="1.00271">
        <ele>89.5</ele>
        <time>2020-07-03T12:02:52Z</time>
      </trkpt>
      <trkpt lat="47.21049" lon="1.00259">
        <ele>88.9</ele>
        <time>2020-07-03T12:02:53Z</time>
      </trkpt>
      <trkpt lat="47.21045" lon="1.00248">
        <ele>88.3</ele>
        <time>2020-07-03T12:02:54Z</time>
      </trkpt>
      <trkpt lat="47.21039" lon="1.00237">
        <ele>87.7</ele>
        <time>2020-07-03T12:02:55Z</time>
      </trkpt>
      <trkpt lat="47.21034" lon="1.00226">
        <ele>87</ele>
        <time>2020-07-03T12:02:56Z</time>
      </trkpt>
      <trkpt lat="47.21028" lon="1.00216">
        <ele>86.2</ele>
        <time>2020-07-03T12:02:57Z</time>
      </trkpt>
      <trkpt lat="47.21022" lon="1.00206">
        <ele>85.5</ele>
        <time>2020-07-03T12:02:58Z</time>
      </trkpt>
      <trkpt lat="47.21016" lon="1.00195">
        <ele>84.7</ele>
        <time>2020-07-03T12:02:59Z</time>
      </trkpt>
      <trkpt lat="47.2101" lon="1.00184">
        <ele>84</ele>
        <time>2020-07-03T12:03:00Z</time>
      </trkpt>
      <trkpt lat="47.21004" lon="1.00173">
        <ele>83.2</ele>
        <time>2020-07-03T12:03:01Z</time>
      </trkpt>
      <trkpt lat="47.20997" lon="1.00162">
        <ele>82.4</ele>
        <time>2020-07-03T12:03:02Z</time>
      </trkpt>
      <trkpt lat="47.20991" lon="1.00152">
        <ele>81.7</ele>
        <time>2020-07-03T12:03:03Z</time>
      </trkpt>
      <trkpt lat="47.20986" lon="1.00141">
        <ele>81.1</ele>
        <time>2020-07-03T12:03:04Z</time>
      </trkpt>
      <trkpt lat="47.20981" lon="1.0013">
        <ele>80.5</ele>
        <time>2020-07-03T12:03:05Z</time>
      </trkpt>
      <trkpt lat="47.20977" lon="1.00118">
        <ele>79.7</ele>
        <time>2020-07-03T12:03:06Z</time>
      </trkpt>
      <trkpt lat="47.20976" lon="1.00105">
        <ele>79</ele>
        <time>2020-07-03T12:03:07Z</time>
      </trkpt>
      <trkpt lat="47.20975" lon="1.00091">
        <ele>78.2</ele>
        <time>2020-07-03T12:03:08Z</time>
      </trkpt>
      <trkpt lat="47.20976" lon="1.00078">
        <ele>77.5</ele>
        <time>2020-07-03T12:03:09Z</time>
      </trkpt>
      <trkpt lat="47.20976" lon="1.00066">
        <ele>76.9</ele>
        <time>2020-07-03T12:03:10Z</time>
      </trkpt>
      <trkpt lat="47.20977" lon="1.00054">
        <ele>76.2</ele>
        <time>2020-07-03T12:03:11Z</time>
      </trkpt>
      <trkpt lat="47.20979" lon="1.00033">
        <ele>75.1</ele>
        <time>2020-07-03T12:03:12Z</time>
      </trkpt>
      <trkpt lat="47.20981" lon="1.00023">
        <ele>74.3</ele>
        <time>2020-07-03T12:03:13Z</time>
      </trkpt>
      <trkpt lat="47.20981" lon="1.00015">
        <ele>74</ele>
        <time>2020-07-03T12:03:14Z</time>
      </trkpt>
      <trkpt lat="47.20981" lon="1.00008">
        <ele>73.8</ele>
        <time>2020-07-03T12:03:15Z</time>
      </trkpt>
      <trkpt lat="47.2098" lon="1.00001">
        <ele>73.5</ele>
        <time>2020-07-03T12:03:16Z</time>
      </trkpt>
      <trkpt lat="47.20981" lon="0.99994">
        <ele>73.3</ele>
        <time>2020-07-03T12:03:17Z</time>
      </trkpt>
      <trkpt lat="47.20981" lon="0.99988">
        <ele>73.1</ele>
        <time>2020-07-03T12:03:18Z</time>
      </trkpt>
      <trkpt lat="47.20981" lon="0.99982">
        <ele>72.9</ele>
        <time>2020-07-03T12:03:19Z</time>
      </trkpt>
      <trkpt lat="47.20982" lon="0.99977">
        <ele>72.8</ele>
        <time>2020-07-03T12:03:20Z</time>
      </trkpt>
      <trkpt lat="47.20982" lon="0.99973">
        <ele>72.6</ele>
        <time>2020-07-03T12:03:21Z</time>
      </trkpt>
      <trkpt lat="47.20981" lon="0.99969">
        <ele>72.5</ele>
        <time>2020-07-03T12:03:22Z</time>
      </trkpt>
      <trkpt lat="47.20979" lon="0.99964">
        <ele>72.4</ele>
        <time>2020-07-03T12:03:23Z</time>
      </trkpt>
      <trkpt lat="47.20977" lon="0.99962">
        <ele>72.3</ele>
        <time>2020-07-03T12:03:24Z</time>
      </trkpt>
      <trkpt lat="47.20973" lon="0.9996">
        <ele>72.1</ele>
        <time>2020-07-03T12:03:25Z</time>
      </trkpt>
      <trkpt lat="47.20969" lon="0.99958">
        <ele>72.1</ele>
        <time>2020-07-03T12:03:26Z</time>
      </trkpt>
      <trkpt lat="47.20965" lon="0.99957">
        <ele>72.1</ele>
        <time>2020-07-03T12:03:27Z</time>
      </trkpt>
      <trkpt lat="47.2096" lon="0.99956">
        <ele>72.1</ele>
        <time>2020-07-03T12:03:28Z</time>
      </trkpt>
      <trkpt lat="47.20957" lon="0.99955">
        <ele>72.1</ele>
        <time>2020-07-03T12:03:29Z</time>
      </trkpt>
      <trkpt lat="47.20953" lon="0.99952">
        <ele>72</ele>
        <time>2020-07-03T12:03:30Z</time>
      </trkpt>
      <trkpt lat="47.2095" lon="0.99948">
        <ele>72</ele>
        <time>2020-07-03T12:03:31Z</time>
      </trkpt>
      <trkpt lat="47.20947" lon="0.99944">
        <ele>72</ele>
        <time>2020-07-03T12:03:32Z</time>
      </trkpt>
      <trkpt lat="47.20944" lon="0.99941">
        <ele>71.9</ele>
        <time>2020-07-03T12:03:33Z</time>
      </trkpt>
      <trkpt lat="47.20941" lon="0.99939">
        <ele>71.9</ele>
        <time>2020-07-03T12:03:34Z</time>
      </trkpt>
      <trkpt lat="47.20938" lon="0.99936">
        <ele>71.8</ele>
        <time>2020-07-03T12:03:35Z</time>
      </trkpt>
      <trkpt lat="47.20935" lon="0.99933">
        <ele>71.8</ele>
        <time>2020-07-03T12:03:36Z</time>
      </trkpt>
      <trkpt lat="47.20931" lon="0.9993">
        <ele>71.7</ele>
        <time>2020-07-03T12:03:37Z</time>
      </trkpt>
      <trkpt lat="47.20927" lon="0.99926">
        <ele>71.7</ele>
        <time>2020-07-03T12:03:38Z</time>
      </trkpt>
      <trkpt lat="47.20924" lon="0.99922">
        <ele>71.6</ele>
        <time>2020-07-03T12:03:39Z</time>
      </trkpt>
      <trkpt lat="47.20922" lon="0.99916">
        <ele>71.5</ele>
        <time>2020-07-03T12:03:40Z</time>
      </trkpt>
      <trkpt lat="47.20919" lon="0.99912">
        <ele>71.4</ele>
        <time>2020-07-03T12:03:41Z</time>
      </trkpt>
      <trkpt lat="47.20916" lon="0.99909">
        <ele>71.4</ele>
        <time>2020-07-03T12:03:42Z</time>
      </trkpt>
      <trkpt lat="47.20912" lon="0.99907">
        <ele>71.3</ele>
        <time>2020-07-03T12:03:43Z</time>
      </trkpt>
      <trkpt lat="47.20908" lon="0.99907">
        <ele>71.2</ele>
        <time>2020-07-03T12:03:44Z</time>
      </trkpt>
      <trkpt lat="47.20904" lon="0.99906">
        <ele>71.1</ele>
        <time>2020-07-03T12:03:45Z</time>
      </trkpt>
      <trkpt lat="47.209" lon="0.99906">
        <ele>71</ele>
        <time>2020-07-03T12:03:46Z</time>
      </trkpt>
      <trkpt lat="47.20896" lon="0.99905">
        <ele>70.9</ele>
        <time>2020-07-03T12:03:47Z</time>
      </trkpt>
      <trkpt lat="47.20892" lon="0.99906">
        <ele>70.8</ele>
        <time>2020-07-03T12:03:48Z</time>
      </trkpt>
      <trkpt lat="47.20889" lon="0.99904">
        <ele>70.7</ele>
        <time>2020-07-03T12:03:49Z</time>
      </trkpt>
      <trkpt lat="47.20887" lon="0.99903">
        <ele>70.6</ele>
        <time>2020-07-03T12:03:50Z</time>
      </trkpt>
      <trkpt lat="47.20883" lon="0.99902">
        <ele>70.6</ele>
        <time>2020-07-03T12:03:51Z</time>
      </trkpt>
      <trkpt lat="47.20882" lon="0.99902">
        <ele>70.5</ele>
        <time>2020-07-03T12:03:52Z</time>
      </trkpt>
      <trkpt lat="47.2088" lon="0.99899">
        <ele>70.5</ele>
        <time>2020-07-03T12:03:53Z</time>
      </trkpt>
      <trkpt lat="47.2088" lon="0.99897">
        <ele>70.4</ele>
        <time>2020-07-03T12:03:54Z</time>
      </trkpt>
      <trkpt lat="47.20879" lon="0.99892">
        <ele>70.3</ele>
        <time>2020-07-03T12:03:55Z</time>
      </trkpt>
      <trkpt lat="47.20879" lon="0.99888">
        <ele>70.2</ele>
        <time>2020-07-03T12:03:56Z</time>
      </trkpt>
      <trkpt lat="47.20879" lon="0.99883">
        <ele>70.1</ele>
        <time>2020-07-03T12:03:57Z</time>
      </trkpt>
      <trkpt lat="47.20879" lon="0.99878">
        <ele>70</ele>
        <time>2020-07-03T12:03:58Z</time>
      </trkpt>
      <trkpt lat="47.20879" lon="0.99871">
        <ele>69.9</ele>
        <time>2020-07-03T12:03:59Z</time>
      </trkpt>
      <trkpt lat="47.20879" lon="0.99865">
        <ele>69.8</ele>
        <time>2020-07-03T12:04:00Z</time>
      </trkpt>
      <trkpt lat="47.20879" lon="0.99858">
        <ele>69.6</ele>
        <time>2020-07-03T12:04:01Z</time>
      </trkpt>
      <trkpt lat="47.20879" lon="0.99851">
        <ele>69.5</ele>
        <time>2020-07-03T12:04:02Z</time>
      </trkpt>
      <trkpt lat="47.20879" lon="0.99844">
        <ele>69.4</ele>
        <time>2020-07-03T12:04:03Z</time>
      </trkpt>
      <trkpt lat="47.20877" lon="0.99838">
        <ele>69.3</ele>
        <time>2020-07-03T12:04:04Z</time>
      </trkpt>
      <trkpt lat="47.20877" lon="0.99831">
        <ele>69.2</ele>
        <time>2020-07-03T12:04:05Z</time>
      </trkpt>
      <trkpt lat="47.20876" lon="0.99824">
        <ele>69.1</ele>
        <time>2020-07-03T12:04:06Z</time>
      </trkpt>
      <trkpt lat="47.20875" lon="0.99815">
        <ele>69.1</ele>
        <time>2020-07-03T12:04:07Z</time>
      </trkpt>
      <trkpt lat="47.20874" lon="0.99806">
        <ele>69</ele>
        <time>2020-07-03T12:04:08Z</time>
      </trkpt>
      <trkpt lat="47.20874" lon="0.99797">
        <ele>68.9</ele>
        <time>2020-07-03T12:04:09Z</time>
      </trkpt>
      <trkpt lat="47.20872" lon="0.99789">
        <ele>68.9</ele>
        <time>2020-07-03T12:04:10Z</time>
      </trkpt>
      <trkpt lat="47.20871" lon="0.9978">
        <ele>68.9</ele>
        <time>2020-07-03T12:04:11Z</time>
      </trkpt>
      <trkpt lat="47.20869" lon="0.99771">
        <ele>68.9</ele>
        <time>2020-07-03T12:04:12Z</time>
      </trkpt>
      <trkpt lat="47.20866" lon="0.99762">
        <ele>69.1</ele>
        <time>2020-07-03T12:04:13Z</time>
      </trkpt>
      <trkpt lat="47.20863" lon="0.99754">
        <ele>69.1</ele>
        <time>2020-07-03T12:04:14Z</time>
      </trkpt>
      <trkpt lat="47.20859" lon="0.99746">
        <ele>68.9</ele>
        <time>2020-07-03T12:04:15Z</time>
      </trkpt>
      <trkpt lat="47.20857" lon="0.99738">
        <ele>68.8</ele>
        <time>2020-07-03T12:04:16Z</time>
      </trkpt>
      <trkpt lat="47.20854" lon="0.99731">
        <ele>68.6</ele>
        <time>2020-07-03T12:04:17Z</time>
      </trkpt>
      <trkpt lat="47.20852" lon="0.99724">
        <ele>68.5</ele>
        <time>2020-07-03T12:04:18Z</time>
      </trkpt>
      <trkpt lat="47.2085" lon="0.99718">
        <ele>68.4</ele>
        <time>2020-07-03T12:04:19Z</time>
      </trkpt>
      <trkpt lat="47.20848" lon="0.99711">
        <ele>68.4</ele>
        <time>2020-07-03T12:04:20Z</time>
      </trkpt>
      <trkpt lat="47.20846" lon="0.99704">
        <ele>68.4</ele>
        <time>2020-07-03T12:04:21Z</time>
      </trkpt>
      <trkpt lat="47.20844" lon="0.99698">
        <ele>68.4</ele>
        <time>2020-07-03T12:04:22Z</time>
      </trkpt>
      <trkpt lat="47.20842" lon="0.99691">
        <ele>68.5</ele>
        <time>2020-07-03T12:04:23Z</time>
      </trkpt>
      <trkpt lat="47.2084" lon="0.99685">
        <ele>68.5</ele>
        <time>2020-07-03T12:04:24Z</time>
      </trkpt>
      <trkpt lat="47.20837" lon="0.99679">
        <ele>68.5</ele>
        <time>2020-07-03T12:04:25Z</time>
      </trkpt>
      <trkpt lat="47.20834" lon="0.99672">
        <ele>68.6</ele>
        <time>2020-07-03T12:04:26Z</time>
      </trkpt>
      <trkpt lat="47.2083" lon="0.99666">
        <ele>68.6</ele>
        <time>2020-07-03T12:04:27Z</time>
      </trkpt>
      <trkpt lat="47.20828" lon="0.9966">
        <ele>68.7</ele>
        <time>2020-07-03T12:04:28Z</time>
      </trkpt>
      <trkpt lat="47.20825" lon="0.99655">
        <ele>68.7</ele>
        <time>2020-07-03T12:04:29Z</time>
      </trkpt>
      <trkpt lat="47.20822" lon="0.99649">
        <ele>68.8</ele>
        <time>2020-07-03T12:04:30Z</time>
      </trkpt>
      <trkpt lat="47.20819" lon="0.99643">
        <ele>68.8</ele>
        <time>2020-07-03T12:04:31Z</time>
      </trkpt>
      <trkpt lat="47.20816" lon="0.99637">
        <ele>68.9</ele>
        <time>2020-07-03T12:04:32Z</time>
      </trkpt>
      <trkpt lat="47.20814" lon="0.99631">
        <ele>68.9</ele>
        <time>2020-07-03T12:04:33Z</time>
      </trkpt>
      <trkpt lat="47.20811" lon="0.99625">
        <ele>69</ele>
        <time>2020-07-03T12:04:34Z</time>
      </trkpt>
      <trkpt lat="47.20808" lon="0.9962">
        <ele>69.1</ele>
        <time>2020-07-03T12:04:35Z</time>
      </trkpt>
      <trkpt lat="47.20806" lon="0.99615">
        <ele>69.2</ele>
        <time>2020-07-03T12:04:36Z</time>
      </trkpt>
      <trkpt lat="47.20805" lon="0.9961">
        <ele>69.2</ele>
        <time>2020-07-03T12:04:37Z</time>
      </trkpt>
      <trkpt lat="47.20802" lon="0.99606">
        <ele>69.3</ele>
        <time>2020-07-03T12:04:38Z</time>
      </trkpt>
      <trkpt lat="47.20799" lon="0.99602">
        <ele>69.4</ele>
        <time>2020-07-03T12:04:39Z</time>
      </trkpt>
      <trkpt lat="47.20797" lon="0.99598">
        <ele>69.4</ele>
        <time>2020-07-03T12:04:40Z</time>
      </trkpt>
      <trkpt lat="47.20795" lon="0.99592">
        <ele>69.5</ele>
        <time>2020-07-03T12:04:41Z</time>
      </trkpt>
      <trkpt lat="47.20793" lon="0.99586">
        <ele>69.5</ele>
        <time>2020-07-03T12:04:42Z</time>
      </trkpt>
      <trkpt lat="47.20791" lon="0.99583">
        <ele>69.5</ele>
        <time>2020-07-03T12:04:43Z</time>
      </trkpt>
      <trkpt lat="47.20788" lon="0.99579">
        <ele>69.6</ele>
        <time>2020-07-03T12:04:44Z</time>
      </trkpt>
      <trkpt lat="47.20786" lon="0.99573">
        <ele>69.7</ele>
        <time>2020-07-03T12:04:45Z</time>
      </trkpt>
      <trkpt lat="47.20785" lon="0.99568">
        <ele>69.7</ele>
        <time>2020-07-03T12:04:46Z</time>
      </trkpt>
      <trkpt lat="47.20782" lon="0.99563">
        <ele>69.8</ele>
        <time>2020-07-03T12:04:47Z</time>
      </trkpt>
      <trkpt lat="47.20779" lon="0.99558">
        <ele>69.8</ele>
        <time>2020-07-03T12:04:48Z</time>
      </trkpt>
      <trkpt lat="47.20777" lon="0.99552">
        <ele>69.8</ele>
        <time>2020-07-03T12:04:49Z</time>
      </trkpt>
      <trkpt lat="47.20774" lon="0.99547">
        <ele>69.8</ele>
        <time>2020-07-03T12:04:50Z</time>
      </trkpt>
      <trkpt lat="47.20772" lon="0.9954">
        <ele>69.9</ele>
        <time>2020-07-03T12:04:51Z</time>
      </trkpt>
      <trkpt lat="47.20769" lon="0.99535">
        <ele>69.9</ele>
        <time>2020-07-03T12:04:52Z</time>
      </trkpt>
      <trkpt lat="47.20766" lon="0.9953">
        <ele>69.9</ele>
        <time>2020-07-03T12:04:53Z</time>
      </trkpt>
      <trkpt lat="47.20764" lon="0.99524">
        <ele>69.9</ele>
        <time>2020-07-03T12:04:54Z</time>
      </trkpt>
      <trkpt lat="47.2076" lon="0.99518">
        <ele>69.9</ele>
        <time>2020-07-03T12:04:55Z</time>
      </trkpt>
      <trkpt lat="47.20759" lon="0.99514">
        <ele>69.9</ele>
        <time>2020-07-03T12:04:56Z</time>
      </trkpt>
      <trkpt lat="47.20755" lon="0.99506">
        <ele>69.8</ele>
        <time>2020-07-03T12:04:57Z</time>
      </trkpt>
      <trkpt lat="47.20752" lon="0.99501">
        <ele>69.8</ele>
        <time>2020-07-03T12:04:58Z</time>
      </trkpt>
      <trkpt lat="47.2075" lon="0.99496">
        <ele>69.8</ele>
        <time>2020-07-03T12:04:59Z</time>
      </trkpt>
      <trkpt lat="47.20747" lon="0.99491">
        <ele>69.7</ele>
        <time>2020-07-03T12:05:00Z</time>
      </trkpt>
      <trkpt lat="47.20744" lon="0.99486">
        <ele>69.6</ele>
        <time>2020-07-03T12:05:01Z</time>
      </trkpt>
      <trkpt lat="47.20741" lon="0.99479">
        <ele>69.6</ele>
        <time>2020-07-03T12:05:02Z</time>
      </trkpt>
      <trkpt lat="47.20738" lon="0.99471">
        <ele>69.5</ele>
        <time>2020-07-03T12:05:03Z</time>
      </trkpt>
      <trkpt lat="47.20735" lon="0.99465">
        <ele>69.5</ele>
        <time>2020-07-03T12:05:04Z</time>
      </trkpt>
      <trkpt lat="47.20731" lon="0.99458">
        <ele>69.4</ele>
        <time>2020-07-03T12:05:05Z</time>
      </trkpt>
      <trkpt lat="47.20729" lon="0.99451">
        <ele>69.4</ele>
        <time>2020-07-03T12:05:06Z</time>
      </trkpt>
      <trkpt lat="47.20726" lon="0.99442">
        <ele>69.5</ele>
        <time>2020-07-03T12:05:07Z</time>
      </trkpt>
      <trkpt lat="47.20723" lon="0.99436">
        <ele>69.5</ele>
        <time>2020-07-03T12:05:08Z</time>
      </trkpt>
      <trkpt lat="47.2072" lon="0.99429">
        <ele>69.5</ele>
        <time>2020-07-03T12:05:09Z</time>
      </trkpt>
      <trkpt lat="47.20716" lon="0.99422">
        <ele>69.5</ele>
        <time>2020-07-03T12:05:10Z</time>
      </trkpt>
      <trkpt lat="47.20712" lon="0.99414">
        <ele>69.7</ele>
        <time>2020-07-03T12:05:11Z</time>
      </trkpt>
      <trkpt lat="47.20708" lon="0.99406">
        <ele>69.8</ele>
        <time>2020-07-03T12:05:12Z</time>
      </trkpt>
      <trkpt lat="47.20704" lon="0.99398">
        <ele>70</ele>
        <time>2020-07-03T12:05:13Z</time>
      </trkpt>
      <trkpt lat="47.207" lon="0.9939">
        <ele>70.2</ele>
        <time>2020-07-03T12:05:14Z</time>
      </trkpt>
      <trkpt lat="47.20696" lon="0.99383">
        <ele>70.5</ele>
        <time>2020-07-03T12:05:15Z</time>
      </trkpt>
      <trkpt lat="47.20693" lon="0.99376">
        <ele>70.7</ele>
        <time>2020-07-03T12:05:16Z</time>
      </trkpt>
      <trkpt lat="47.2069" lon="0.99371">
        <ele>70.9</ele>
        <time>2020-07-03T12:05:17Z</time>
      </trkpt>
      <trkpt lat="47.20688" lon="0.99365">
        <ele>71.1</ele>
        <time>2020-07-03T12:05:18Z</time>
      </trkpt>
      <trkpt lat="47.20686" lon="0.9936">
        <ele>71.4</ele>
        <time>2020-07-03T12:05:19Z</time>
      </trkpt>
      <trkpt lat="47.20683" lon="0.99355">
        <ele>71.8</ele>
        <time>2020-07-03T12:05:20Z</time>
      </trkpt>
      <trkpt lat="47.2068" lon="0.99349">
        <ele>71.9</ele>
        <time>2020-07-03T12:05:21Z</time>
      </trkpt>
      <trkpt lat="47.20677" lon="0.99343">
        <ele>72</ele>
        <time>2020-07-03T12:05:22Z</time>
      </trkpt>
      <trkpt lat="47.20675" lon="0.99338">
        <ele>72.1</ele>
        <time>2020-07-03T12:05:23Z</time>
      </trkpt>
      <trkpt lat="47.20672" lon="0.99334">
        <ele>72.1</ele>
        <time>2020-07-03T12:05:24Z</time>
      </trkpt>
      <trkpt lat="47.20669" lon="0.9933">
        <ele>72.2</ele>
        <time>2020-07-03T12:05:25Z</time>
      </trkpt>
      <trkpt lat="47.20667" lon="0.99328">
        <ele>72.3</ele>
        <time>2020-07-03T12:05:26Z</time>
      </trkpt>
      <trkpt lat="47.20665" lon="0.99324">
        <ele>72.4</ele>
        <time>2020-07-03T12:05:27Z</time>
      </trkpt>
      <trkpt lat="47.20663" lon="0.99321">
        <ele>72.4</ele>
        <time>2020-07-03T12:05:28Z</time>
      </trkpt>
      <trkpt lat="47.20661" lon="0.99318">
        <ele>72.7</ele>
        <time>2020-07-03T12:05:29Z</time>
      </trkpt>
      <trkpt lat="47.20658" lon="0.99315">
        <ele>73</ele>
        <time>2020-07-03T12:05:30Z</time>
      </trkpt>
      <trkpt lat="47.20655" lon="0.99311">
        <ele>73.2</ele>
        <time>2020-07-03T12:05:31Z</time>
      </trkpt>
      <trkpt lat="47.20654" lon="0.9931">
        <ele>73.3</ele>
        <time>2020-07-03T12:05:32Z</time>
      </trkpt>
      <trkpt lat="47.20652" lon="0.99306">
        <ele>73.5</ele>
        <time>2020-07-03T12:05:33Z</time>
      </trkpt>
      <trkpt lat="47.20651" lon="0.99304">
        <ele>73.7</ele>
        <time>2020-07-03T12:05:34Z</time>
      </trkpt>
      <trkpt lat="47.20649" lon="0.993">
        <ele>73.9</ele>
        <time>2020-07-03T12:05:35Z</time>
      </trkpt>
      <trkpt lat="47.20647" lon="0.99296">
        <ele>74.1</ele>
        <time>2020-07-03T12:05:36Z</time>
      </trkpt>
      <trkpt lat="47.20645" lon="0.99293">
        <ele>74.3</ele>
        <time>2020-07-03T12:05:37Z</time>
      </trkpt>
      <trkpt lat="47.20643" lon="0.99289">
        <ele>74.5</ele>
        <time>2020-07-03T12:05:38Z</time>
      </trkpt>
      <trkpt lat="47.20639" lon="0.99284">
        <ele>74.8</ele>
        <time>2020-07-03T12:05:39Z</time>
      </trkpt>
      <trkpt lat="47.20638" lon="0.99282">
        <ele>75</ele>
        <time>2020-07-03T12:05:40Z</time>
      </trkpt>
      <trkpt lat="47.20635" lon="0.99277">
        <ele>75.3</ele>
        <time>2020-07-03T12:05:41Z</time>
      </trkpt>
      <trkpt lat="47.20632" lon="0.99274">
        <ele>75.5</ele>
        <time>2020-07-03T12:05:42Z</time>
      </trkpt>
      <trkpt lat="47.2063" lon="0.9927">
        <ele>75.8</ele>
        <time>2020-07-03T12:05:43Z</time>
      </trkpt>
      <trkpt lat="47.20627" lon="0.99267">
        <ele>76</ele>
        <time>2020-07-03T12:05:44Z</time>
      </trkpt>
      <trkpt lat="47.20626" lon="0.99266">
        <ele>76.1</ele>
        <time>2020-07-03T12:05:45Z</time>
      </trkpt>
      <trkpt lat="47.20623" lon="0.99263">
        <ele>76.3</ele>
        <time>2020-07-03T12:05:46Z</time>
      </trkpt>
      <trkpt lat="47.20621" lon="0.9926">
        <ele>76.5</ele>
        <time>2020-07-03T12:05:47Z</time>
      </trkpt>
      <trkpt lat="47.20619" lon="0.99257">
        <ele>76.7</ele>
        <time>2020-07-03T12:05:48Z</time>
      </trkpt>
      <trkpt lat="47.20618" lon="0.99256">
        <ele>76.8</ele>
        <time>2020-07-03T12:05:49Z</time>
      </trkpt>
      <trkpt lat="47.20615" lon="0.99253">
        <ele>77</ele>
        <time>2020-07-03T12:05:50Z</time>
      </trkpt>
      <trkpt lat="47.20614" lon="0.99252">
        <ele>77.1</ele>
        <time>2020-07-03T12:05:51Z</time>
      </trkpt>
      <trkpt lat="47.20611" lon="0.99248">
        <ele>77.4</ele>
        <time>2020-07-03T12:05:52Z</time>
      </trkpt>
      <trkpt lat="47.2061" lon="0.99246">
        <ele>77.5</ele>
        <time>2020-07-03T12:05:53Z</time>
      </trkpt>
      <trkpt lat="47.20607" lon="0.99241">
        <ele>77.7</ele>
        <time>2020-07-03T12:05:54Z</time>
      </trkpt>
      <trkpt lat="47.20607" lon="0.9924">
        <ele>77.8</ele>
        <time>2020-07-03T12:05:55Z</time>
      </trkpt>
      <trkpt lat="47.20604" lon="0.99236">
        <ele>78.1</ele>
        <time>2020-07-03T12:05:56Z</time>
      </trkpt>
      <trkpt lat="47.20604" lon="0.99235">
        <ele>78.1</ele>
        <time>2020-07-03T12:05:57Z</time>
      </trkpt>
      <trkpt lat="47.20601" lon="0.99232">
        <ele>78.4</ele>
        <time>2020-07-03T12:05:58Z</time>
      </trkpt>
      <trkpt lat="47.206" lon="0.99231">
        <ele>78.4</ele>
        <time>2020-07-03T12:05:59Z</time>
      </trkpt>
      <trkpt lat="47.20598" lon="0.99227">
        <ele>78.7</ele>
        <time>2020-07-03T12:06:00Z</time>
      </trkpt>
      <trkpt lat="47.20596" lon="0.99223">
        <ele>78.9</ele>
        <time>2020-07-03T12:06:01Z</time>
      </trkpt>
      <trkpt lat="47.20595" lon="0.99222">
        <ele>79</ele>
        <time>2020-07-03T12:06:02Z</time>
      </trkpt>
      <trkpt lat="47.20593" lon="0.9922">
        <ele>79.2</ele>
        <time>2020-07-03T12:06:03Z</time>
      </trkpt>
      <trkpt lat="47.20591" lon="0.99216">
        <ele>79.4</ele>
        <time>2020-07-03T12:06:04Z</time>
      </trkpt>
      <trkpt lat="47.20589" lon="0.99212">
        <ele>79.6</ele>
        <time>2020-07-03T12:06:05Z</time>
      </trkpt>
      <trkpt lat="47.20588" lon="0.99211">
        <ele>79.7</ele>
        <time>2020-07-03T12:06:06Z</time>
      </trkpt>
      <trkpt lat="47.20586" lon="0.99208">
        <ele>79.8</ele>
        <time>2020-07-03T12:06:07Z</time>
      </trkpt>
      <trkpt lat="47.20584" lon="0.99205">
        <ele>80.1</ele>
        <time>2020-07-03T12:06:08Z</time>
      </trkpt>
      <trkpt lat="47.20581" lon="0.99202">
        <ele>80.3</ele>
        <time>2020-07-03T12:06:09Z</time>
      </trkpt>
      <trkpt lat="47.20579" lon="0.99199">
        <ele>80.5</ele>
        <time>2020-07-03T12:06:10Z</time>
      </trkpt>
      <trkpt lat="47.20578" lon="0.99197">
        <ele>80.6</ele>
        <time>2020-07-03T12:06:11Z</time>
      </trkpt>
      <trkpt lat="47.20576" lon="0.99193">
        <ele>80.8</ele>
        <time>2020-07-03T12:06:12Z</time>
      </trkpt>
      <trkpt lat="47.20575" lon="0.99191">
        <ele>80.9</ele>
        <time>2020-07-03T12:06:13Z</time>
      </trkpt>
      <trkpt lat="47.20573" lon="0.99188">
        <ele>81.1</ele>
        <time>2020-07-03T12:06:14Z</time>
      </trkpt>
      <trkpt lat="47.20571" lon="0.99186">
        <ele>81.2</ele>
        <time>2020-07-03T12:06:15Z</time>
      </trkpt>
      <trkpt lat="47.20568" lon="0.99182">
        <ele>81.5</ele>
        <time>2020-07-03T12:06:16Z</time>
      </trkpt>
      <trkpt lat="47.20567" lon="0.99181">
        <ele>81.5</ele>
        <time>2020-07-03T12:06:17Z</time>
      </trkpt>
      <trkpt lat="47.20565" lon="0.99176">
        <ele>81.8</ele>
        <time>2020-07-03T12:06:18Z</time>
      </trkpt>
      <trkpt lat="47.20563" lon="0.99174">
        <ele>81.9</ele>
        <time>2020-07-03T12:06:19Z</time>
      </trkpt>
      <trkpt lat="47.2056" lon="0.99171">
        <ele>82.1</ele>
        <time>2020-07-03T12:06:20Z</time>
      </trkpt>
      <trkpt lat="47.20558" lon="0.99168">
        <ele>82.3</ele>
        <time>2020-07-03T12:06:21Z</time>
      </trkpt>
      <trkpt lat="47.20555" lon="0.99165">
        <ele>82.4</ele>
        <time>2020-07-03T12:06:22Z</time>
      </trkpt>
      <trkpt lat="47.20554" lon="0.99164">
        <ele>82.5</ele>
        <time>2020-07-03T12:06:23Z</time>
      </trkpt>
      <trkpt lat="47.20553" lon="0.99161">
        <ele>82.6</ele>
        <time>2020-07-03T12:06:24Z</time>
      </trkpt>
      <trkpt lat="47.2055" lon="0.99157">
        <ele>82.8</ele>
        <time>2020-07-03T12:06:25Z</time>
      </trkpt>
      <trkpt lat="47.20548" lon="0.99154">
        <ele>82.9</ele>
        <time>2020-07-03T12:06:26Z</time>
      </trkpt>
      <trkpt lat="47.20546" lon="0.9915">
        <ele>83.1</ele>
        <time>2020-07-03T12:06:27Z</time>
      </trkpt>
      <trkpt lat="47.20543" lon="0.99146">
        <ele>83.2</ele>
        <time>2020-07-03T12:06:28Z</time>
      </trkpt>
      <trkpt lat="47.2054" lon="0.99143">
        <ele>83.4</ele>
        <time>2020-07-03T12:06:29Z</time>
      </trkpt>
      <trkpt lat="47.20539" lon="0.99141">
        <ele>83.4</ele>
        <time>2020-07-03T12:06:30Z</time>
      </trkpt>
      <trkpt lat="47.20537" lon="0.99137">
        <ele>83.6</ele>
        <time>2020-07-03T12:06:31Z</time>
      </trkpt>
      <trkpt lat="47.20535" lon="0.99135">
        <ele>83.6</ele>
        <time>2020-07-03T12:06:32Z</time>
      </trkpt>
      <trkpt lat="47.20533" lon="0.99132">
        <ele>83.7</ele>
        <time>2020-07-03T12:06:33Z</time>
      </trkpt>
      <trkpt lat="47.2053" lon="0.99129">
        <ele>83.8</ele>
        <time>2020-07-03T12:06:34Z</time>
      </trkpt>
      <trkpt lat="47.20527" lon="0.99126">
        <ele>83.8</ele>
        <time>2020-07-03T12:06:35Z</time>
      </trkpt>
      <trkpt lat="47.20525" lon="0.99123">
        <ele>83.9</ele>
        <time>2020-07-03T12:06:36Z</time>
      </trkpt>
      <trkpt lat="47.20521" lon="0.99118">
        <ele>84</ele>
        <time>2020-07-03T12:06:37Z</time>
      </trkpt>
      <trkpt lat="47.20518" lon="0.99114">
        <ele>84.1</ele>
        <time>2020-07-03T12:06:38Z</time>
      </trkpt>
      <trkpt lat="47.20517" lon="0.99112">
        <ele>84.1</ele>
        <time>2020-07-03T12:06:39Z</time>
      </trkpt>
      <trkpt lat="47.20514" lon="0.99108">
        <ele>84.2</ele>
        <time>2020-07-03T12:06:40Z</time>
      </trkpt>
      <trkpt lat="47.20512" lon="0.99105">
        <ele>84.2</ele>
        <time>2020-07-03T12:06:41Z</time>
      </trkpt>
      <trkpt lat="47.2051" lon="0.99102">
        <ele>84.3</ele>
        <time>2020-07-03T12:06:42Z</time>
      </trkpt>
      <trkpt lat="47.20506" lon="0.99098">
        <ele>84.4</ele>
        <time>2020-07-03T12:06:43Z</time>
      </trkpt>
      <trkpt lat="47.20502" lon="0.99094">
        <ele>84.4</ele>
        <time>2020-07-03T12:06:44Z</time>
      </trkpt>
      <trkpt lat="47.20498" lon="0.9909">
        <ele>84.5</ele>
        <time>2020-07-03T12:06:45Z</time>
      </trkpt>
      <trkpt lat="47.20495" lon="0.99086">
        <ele>84.5</ele>
        <time>2020-07-03T12:06:46Z</time>
      </trkpt>
      <trkpt lat="47.20492" lon="0.99082">
        <ele>84.6</ele>
        <time>2020-07-03T12:06:47Z</time>
      </trkpt>
      <trkpt lat="47.20489" lon="0.99077">
        <ele>84.6</ele>
        <time>2020-07-03T12:06:48Z</time>
      </trkpt>
      <trkpt lat="47.20486" lon="0.99072">
        <ele>84.6</ele>
        <time>2020-07-03T12:06:49Z</time>
      </trkpt>
      <trkpt lat="47.20483" lon="0.99068">
        <ele>84.7</ele>
        <time>2020-07-03T12:06:50Z</time>
      </trkpt>
      <trkpt lat="47.20481" lon="0.99063">
        <ele>84.7</ele>
        <time>2020-07-03T12:06:51Z</time>
      </trkpt>
      <trkpt lat="47.20479" lon="0.99058">
        <ele>84.7</ele>
        <time>2020-07-03T12:06:52Z</time>
      </trkpt>
      <trkpt lat="47.20475" lon="0.99054">
        <ele>84.8</ele>
        <time>2020-07-03T12:06:53Z</time>
      </trkpt>
      <trkpt lat="47.20471" lon="0.99051">
        <ele>84.8</ele>
        <time>2020-07-03T12:06:54Z</time>
      </trkpt>
      <trkpt lat="47.20468" lon="0.99047">
        <ele>84.9</ele>
        <time>2020-07-03T12:06:55Z</time>
      </trkpt>
      <trkpt lat="47.20464" lon="0.99043">
        <ele>84.9</ele>
        <time>2020-07-03T12:06:56Z</time>
      </trkpt>
      <trkpt lat="47.20461" lon="0.9904">
        <ele>84.9</ele>
        <time>2020-07-03T12:06:57Z</time>
      </trkpt>
      <trkpt lat="47.20457" lon="0.99036">
        <ele>84.9</ele>
        <time>2020-07-03T12:06:58Z</time>
      </trkpt>
      <trkpt lat="47.20454" lon="0.99032">
        <ele>84.9</ele>
        <time>2020-07-03T12:06:59Z</time>
      </trkpt>
      <trkpt lat="47.2045" lon="0.99028">
        <ele>84.9</ele>
        <time>2020-07-03T12:07:00Z</time>
      </trkpt>
      <trkpt lat="47.20446" lon="0.99023">
        <ele>84.9</ele>
        <time>2020-07-03T12:07:01Z</time>
      </trkpt>
      <trkpt lat="47.20442" lon="0.99019">
        <ele>85</ele>
        <time>2020-07-03T12:07:02Z</time>
      </trkpt>
      <trkpt lat="47.2044" lon="0.99015">
        <ele>85</ele>
        <time>2020-07-03T12:07:03Z</time>
      </trkpt>
      <trkpt lat="47.20436" lon="0.99012">
        <ele>85</ele>
        <time>2020-07-03T12:07:04Z</time>
      </trkpt>
      <trkpt lat="47.20432" lon="0.99008">
        <ele>85</ele>
        <time>2020-07-03T12:07:05Z</time>
      </trkpt>
      <trkpt lat="47.20427" lon="0.99005">
        <ele>85.1</ele>
        <time>2020-07-03T12:07:06Z</time>
      </trkpt>
      <trkpt lat="47.20422" lon="0.99001">
        <ele>85.1</ele>
        <time>2020-07-03T12:07:07Z</time>
      </trkpt>
      <trkpt lat="47.20417" lon="0.98997">
        <ele>85.1</ele>
        <time>2020-07-03T12:07:08Z</time>
      </trkpt>
      <trkpt lat="47.20412" lon="0.98993">
        <ele>85.1</ele>
        <time>2020-07-03T12:07:09Z</time>
      </trkpt>
      <trkpt lat="47.20408" lon="0.98989">
        <ele>85.1</ele>
        <time>2020-07-03T12:07:10Z</time>
      </trkpt>
      <trkpt lat="47.20403" lon="0.98985">
        <ele>85.1</ele>
        <time>2020-07-03T12:07:11Z</time>
      </trkpt>
      <trkpt lat="47.20398" lon="0.98981">
        <ele>85.2</ele>
        <time>2020-07-03T12:07:12Z</time>
      </trkpt>
      <trkpt lat="47.20392" lon="0.98978">
        <ele>85.3</ele>
        <time>2020-07-03T12:07:13Z</time>
      </trkpt>
      <trkpt lat="47.20386" lon="0.98974">
        <ele>85.4</ele>
        <time>2020-07-03T12:07:14Z</time>
      </trkpt>
      <trkpt lat="47.2038" lon="0.9897">
        <ele>85.5</ele>
        <time>2020-07-03T12:07:15Z</time>
      </trkpt>
      <trkpt lat="47.20374" lon="0.98966">
        <ele>85.5</ele>
        <time>2020-07-03T12:07:16Z</time>
      </trkpt>
      <trkpt lat="47.20368" lon="0.98962">
        <ele>85.5</ele>
        <time>2020-07-03T12:07:17Z</time>
      </trkpt>
      <trkpt lat="47.20363" lon="0.9896">
        <ele>85.6</ele>
        <time>2020-07-03T12:07:18Z</time>
      </trkpt>
      <trkpt lat="47.20357" lon="0.98958">
        <ele>85.6</ele>
        <time>2020-07-03T12:07:19Z</time>
      </trkpt>
      <trkpt lat="47.20353" lon="0.98955">
        <ele>85.7</ele>
        <time>2020-07-03T12:07:20Z</time>
      </trkpt>
      <trkpt lat="47.20348" lon="0.98953">
        <ele>85.8</ele>
        <time>2020-07-03T12:07:21Z</time>
      </trkpt>
      <trkpt lat="47.20342" lon="0.98949">
        <ele>85.9</ele>
        <time>2020-07-03T12:07:22Z</time>
      </trkpt>
      <trkpt lat="47.20339" lon="0.98947">
        <ele>86</ele>
        <time>2020-07-03T12:07:23Z</time>
      </trkpt>
      <trkpt lat="47.20334" lon="0.98945">
        <ele>86.1</ele>
        <time>2020-07-03T12:07:24Z</time>
      </trkpt>
      <trkpt lat="47.2033" lon="0.98943">
        <ele>86.1</ele>
        <time>2020-07-03T12:07:25Z</time>
      </trkpt>
      <trkpt lat="47.20326" lon="0.98942">
        <ele>86.2</ele>
        <time>2020-07-03T12:07:26Z</time>
      </trkpt>
      <trkpt lat="47.20322" lon="0.9894">
        <ele>86.3</ele>
        <time>2020-07-03T12:07:27Z</time>
      </trkpt>
      <trkpt lat="47.20318" lon="0.98938">
        <ele>86.4</ele>
        <time>2020-07-03T12:07:28Z</time>
      </trkpt>
      <trkpt lat="47.20314" lon="0.98937">
        <ele>86.5</ele>
        <time>2020-07-03T12:07:29Z</time>
      </trkpt>
      <trkpt lat="47.20309" lon="0.98936">
        <ele>86.6</ele>
        <time>2020-07-03T12:07:30Z</time>
      </trkpt>
      <trkpt lat="47.20305" lon="0.98934">
        <ele>86.7</ele>
        <time>2020-07-03T12:07:31Z</time>
      </trkpt>
      <trkpt lat="47.203" lon="0.98933">
        <ele>86.9</ele>
        <time>2020-07-03T12:07:32Z</time>
      </trkpt>
      <trkpt lat="47.20296" lon="0.98931">
        <ele>87</ele>
        <time>2020-07-03T12:07:33Z</time>
      </trkpt>
      <trkpt lat="47.20292" lon="0.98929">
        <ele>87.1</ele>
        <time>2020-07-03T12:07:34Z</time>
      </trkpt>
      <trkpt lat="47.20287" lon="0.98927">
        <ele>87.3</ele>
        <time>2020-07-03T12:07:35Z</time>
      </trkpt>
      <trkpt lat="47.20283" lon="0.98925">
        <ele>87.4</ele>
        <time>2020-07-03T12:07:36Z</time>
      </trkpt>
      <trkpt lat="47.20279" lon="0.98923">
        <ele>87.5</ele>
        <time>2020-07-03T12:07:37Z</time>
      </trkpt>
      <trkpt lat="47.20276" lon="0.98922">
        <ele>87.6</ele>
        <time>2020-07-03T12:07:38Z</time>
      </trkpt>
      <trkpt lat="47.20272" lon="0.9892">
        <ele>87.6</ele>
        <time>2020-07-03T12:07:39Z</time>
      </trkpt>
      <trkpt lat="47.20268" lon="0.98919">
        <ele>87.7</ele>
        <time>2020-07-03T12:07:40Z</time>
      </trkpt>
      <trkpt lat="47.20263" lon="0.98917">
        <ele>87.8</ele>
        <time>2020-07-03T12:07:41Z</time>
      </trkpt>
      <trkpt lat="47.20258" lon="0.98916">
        <ele>87.9</ele>
        <time>2020-07-03T12:07:42Z</time>
      </trkpt>
      <trkpt lat="47.20253" lon="0.98915">
        <ele>88</ele>
        <time>2020-07-03T12:07:43Z</time>
      </trkpt>
      <trkpt lat="47.20249" lon="0.98914">
        <ele>88</ele>
        <time>2020-07-03T12:07:44Z</time>
      </trkpt>
      <trkpt lat="47.20244" lon="0.98915">
        <ele>88.1</ele>
        <time>2020-07-03T12:07:45Z</time>
      </trkpt>
      <trkpt lat="47.2024" lon="0.98914">
        <ele>88.2</ele>
        <time>2020-07-03T12:07:46Z</time>
      </trkpt>
      <trkpt lat="47.20236" lon="0.98912">
        <ele>88.3</ele>
        <time>2020-07-03T12:07:47Z</time>
      </trkpt>
      <trkpt lat="47.20231" lon="0.98913">
        <ele>88.3</ele>
        <time>2020-07-03T12:07:48Z</time>
      </trkpt>
      <trkpt lat="47.20225" lon="0.98911">
        <ele>88.4</ele>
        <time>2020-07-03T12:07:49Z</time>
      </trkpt>
      <trkpt lat="47.20219" lon="0.98909">
        <ele>88.5</ele>
        <time>2020-07-03T12:07:50Z</time>
      </trkpt>
      <trkpt lat="47.20214" lon="0.98908">
        <ele>88.6</ele>
        <time>2020-07-03T12:07:51Z</time>
      </trkpt>
      <trkpt lat="47.20209" lon="0.98908">
        <ele>88.7</ele>
        <time>2020-07-03T12:07:52Z</time>
      </trkpt>
      <trkpt lat="47.20203" lon="0.98907">
        <ele>88.7</ele>
        <time>2020-07-03T12:07:53Z</time>
      </trkpt>
      <trkpt lat="47.20198" lon="0.98906">
        <ele>88.8</ele>
        <time>2020-07-03T12:07:54Z</time>
      </trkpt>
      <trkpt lat="47.20193" lon="0.98905">
        <ele>88.8</ele>
        <time>2020-07-03T12:07:55Z</time>
      </trkpt>
      <trkpt lat="47.20189" lon="0.98906">
        <ele>88.9</ele>
        <time>2020-07-03T12:07:56Z</time>
      </trkpt>
      <trkpt lat="47.20184" lon="0.98905">
        <ele>89</ele>
        <time>2020-07-03T12:07:57Z</time>
      </trkpt>
      <trkpt lat="47.20179" lon="0.98904">
        <ele>89</ele>
        <time>2020-07-03T12:07:58Z</time>
      </trkpt>
      <trkpt lat="47.20173" lon="0.98903">
        <ele>89.1</ele>
        <time>2020-07-03T12:07:59Z</time>
      </trkpt>
      <trkpt lat="47.20169" lon="0.98903">
        <ele>89.2</ele>
        <time>2020-07-03T12:08:00Z</time>
      </trkpt>
      <trkpt lat="47.20164" lon="0.98902">
        <ele>89.3</ele>
        <time>2020-07-03T12:08:01Z</time>
      </trkpt>
      <trkpt lat="47.20159" lon="0.98901">
        <ele>89.4</ele>
        <time>2020-07-03T12:08:02Z</time>
      </trkpt>
      <trkpt lat="47.20154" lon="0.98901">
        <ele>89.5</ele>
        <time>2020-07-03T12:08:03Z</time>
      </trkpt>
      <trkpt lat="47.20149" lon="0.98899">
        <ele>89.6</ele>
        <time>2020-07-03T12:08:04Z</time>
      </trkpt>
      <trkpt lat="47.20143" lon="0.989">
        <ele>89.7</ele>
        <time>2020-07-03T12:08:05Z</time>
      </trkpt>
      <trkpt lat="47.20137" lon="0.98898">
        <ele>89.8</ele>
        <time>2020-07-03T12:08:06Z</time>
      </trkpt>
      <trkpt lat="47.20132" lon="0.98898">
        <ele>89.8</ele>
        <time>2020-07-03T12:08:07Z</time>
      </trkpt>
      <trkpt lat="47.20128" lon="0.98897">
        <ele>89.9</ele>
        <time>2020-07-03T12:08:08Z</time>
      </trkpt>
      <trkpt lat="47.20121" lon="0.98896">
        <ele>89.9</ele>
        <time>2020-07-03T12:08:09Z</time>
      </trkpt>
      <trkpt lat="47.20116" lon="0.98896">
        <ele>90</ele>
        <time>2020-07-03T12:08:10Z</time>
      </trkpt>
      <trkpt lat="47.2011" lon="0.98896">
        <ele>89.9</ele>
        <time>2020-07-03T12:08:11Z</time>
      </trkpt>
      <trkpt lat="47.20104" lon="0.98895">
        <ele>89.8</ele>
        <time>2020-07-03T12:08:12Z</time>
      </trkpt>
      <trkpt lat="47.20098" lon="0.98894">
        <ele>89.7</ele>
        <time>2020-07-03T12:08:13Z</time>
      </trkpt>
      <trkpt lat="47.20094" lon="0.98892">
        <ele>89.5</ele>
        <time>2020-07-03T12:08:14Z</time>
      </trkpt>
      <trkpt lat="47.20089" lon="0.9889">
        <ele>89.4</ele>
        <time>2020-07-03T12:08:15Z</time>
      </trkpt>
      <trkpt lat="47.20083" lon="0.98889">
        <ele>89.3</ele>
        <time>2020-07-03T12:08:16Z</time>
      </trkpt>
      <trkpt lat="47.20077" lon="0.98888">
        <ele>89.2</ele>
        <time>2020-07-03T12:08:17Z</time>
      </trkpt>
      <trkpt lat="47.20071" lon="0.98887">
        <ele>89</ele>
        <time>2020-07-03T12:08:18Z</time>
      </trkpt>
      <trkpt lat="47.20065" lon="0.98886">
        <ele>88.9</ele>
        <time>2020-07-03T12:08:19Z</time>
      </trkpt>
      <trkpt lat="47.20059" lon="0.98886">
        <ele>88.8</ele>
        <time>2020-07-03T12:08:20Z</time>
      </trkpt>
      <trkpt lat="47.20052" lon="0.98885">
        <ele>88.7</ele>
        <time>2020-07-03T12:08:21Z</time>
      </trkpt>
      <trkpt lat="47.20045" lon="0.98885">
        <ele>88.6</ele>
        <time>2020-07-03T12:08:22Z</time>
      </trkpt>
      <trkpt lat="47.20038" lon="0.98885">
        <ele>88.5</ele>
        <time>2020-07-03T12:08:23Z</time>
      </trkpt>
      <trkpt lat="47.20031" lon="0.98884">
        <ele>88.4</ele>
        <time>2020-07-03T12:08:24Z</time>
      </trkpt>
      <trkpt lat="47.20024" lon="0.98883">
        <ele>88.3</ele>
        <time>2020-07-03T12:08:25Z</time>
      </trkpt>
      <trkpt lat="47.20017" lon="0.98882">
        <ele>88.2</ele>
        <time>2020-07-03T12:08:26Z</time>
      </trkpt>
      <trkpt lat="47.2001" lon="0.98881">
        <ele>88.2</ele>
        <time>2020-07-03T12:08:27Z</time>
      </trkpt>
      <trkpt lat="47.20004" lon="0.9888">
        <ele>88.2</ele>
        <time>2020-07-03T12:08:28Z</time>
      </trkpt>
      <trkpt lat="47.19998" lon="0.98879">
        <ele>88.2</ele>
        <time>2020-07-03T12:08:29Z</time>
      </trkpt>
      <trkpt lat="47.19991" lon="0.98877">
        <ele>88.1</ele>
        <time>2020-07-03T12:08:30Z</time>
      </trkpt>
      <trkpt lat="47.19985" lon="0.98876">
        <ele>88.1</ele>
        <time>2020-07-03T12:08:31Z</time>
      </trkpt>
      <trkpt lat="47.19979" lon="0.98875">
        <ele>88.1</ele>
        <time>2020-07-03T12:08:32Z</time>
      </trkpt>
      <trkpt lat="47.19973" lon="0.98875">
        <ele>88.1</ele>
        <time>2020-07-03T12:08:33Z</time>
      </trkpt>
      <trkpt lat="47.19966" lon="0.98873">
        <ele>88.2</ele>
        <time>2020-07-03T12:08:34Z</time>
      </trkpt>
      <trkpt lat="47.19961" lon="0.98872">
        <ele>88.2</ele>
        <time>2020-07-03T12:08:35Z</time>
      </trkpt>
      <trkpt lat="47.19956" lon="0.98871">
        <ele>88.2</ele>
        <time>2020-07-03T12:08:36Z</time>
      </trkpt>
      <trkpt lat="47.1995" lon="0.9887">
        <ele>88.2</ele>
        <time>2020-07-03T12:08:37Z</time>
      </trkpt>
      <trkpt lat="47.19944" lon="0.98869">
        <ele>88.2</ele>
        <time>2020-07-03T12:08:38Z</time>
      </trkpt>
      <trkpt lat="47.19938" lon="0.98868">
        <ele>88.3</ele>
        <time>2020-07-03T12:08:39Z</time>
      </trkpt>
      <trkpt lat="47.19931" lon="0.98868">
        <ele>88.3</ele>
        <time>2020-07-03T12:08:40Z</time>
      </trkpt>
      <trkpt lat="47.19925" lon="0.98868">
        <ele>88.4</ele>
        <time>2020-07-03T12:08:41Z</time>
      </trkpt>
      <trkpt lat="47.1992" lon="0.98867">
        <ele>88.4</ele>
        <time>2020-07-03T12:08:42Z</time>
      </trkpt>
      <trkpt lat="47.19914" lon="0.98867">
        <ele>88.5</ele>
        <time>2020-07-03T12:08:43Z</time>
      </trkpt>
      <trkpt lat="47.19909" lon="0.98866">
        <ele>88.5</ele>
        <time>2020-07-03T12:08:44Z</time>
      </trkpt>
      <trkpt lat="47.19905" lon="0.98866">
        <ele>88.6</ele>
        <time>2020-07-03T12:08:45Z</time>
      </trkpt>
      <trkpt lat="47.199" lon="0.98865">
        <ele>88.6</ele>
        <time>2020-07-03T12:08:46Z</time>
      </trkpt>
      <trkpt lat="47.19895" lon="0.98865">
        <ele>88.7</ele>
        <time>2020-07-03T12:08:47Z</time>
      </trkpt>
      <trkpt lat="47.1989" lon="0.98864">
        <ele>88.8</ele>
        <time>2020-07-03T12:08:48Z</time>
      </trkpt>
      <trkpt lat="47.19884" lon="0.98863">
        <ele>88.8</ele>
        <time>2020-07-03T12:08:49Z</time>
      </trkpt>
      <trkpt lat="47.19879" lon="0.98863">
        <ele>88.9</ele>
        <time>2020-07-03T12:08:50Z</time>
      </trkpt>
      <trkpt lat="47.19874" lon="0.98863">
        <ele>89</ele>
        <time>2020-07-03T12:08:51Z</time>
      </trkpt>
      <trkpt lat="47.19868" lon="0.98863">
        <ele>89</ele>
        <time>2020-07-03T12:08:52Z</time>
      </trkpt>
      <trkpt lat="47.19861" lon="0.98863">
        <ele>89</ele>
        <time>2020-07-03T12:08:53Z</time>
      </trkpt>
      <trkpt lat="47.19856" lon="0.98863">
        <ele>89</ele>
        <time>2020-07-03T12:08:54Z</time>
      </trkpt>
      <trkpt lat="47.1985" lon="0.98862">
        <ele>89.1</ele>
        <time>2020-07-03T12:08:55Z</time>
      </trkpt>
      <trkpt lat="47.19846" lon="0.98861">
        <ele>89.1</ele>
        <time>2020-07-03T12:08:56Z</time>
      </trkpt>
      <trkpt lat="47.19841" lon="0.98859">
        <ele>89.1</ele>
        <time>2020-07-03T12:08:57Z</time>
      </trkpt>
      <trkpt lat="47.19836" lon="0.98858">
        <ele>89.1</ele>
        <time>2020-07-03T12:08:58Z</time>
      </trkpt>
      <trkpt lat="47.19831" lon="0.98858">
        <ele>89.2</ele>
        <time>2020-07-03T12:08:59Z</time>
      </trkpt>
      <trkpt lat="47.19826" lon="0.98858">
        <ele>89.2</ele>
        <time>2020-07-03T12:09:00Z</time>
      </trkpt>
      <trkpt lat="47.19822" lon="0.98858">
        <ele>89.3</ele>
        <time>2020-07-03T12:09:01Z</time>
      </trkpt>
      <trkpt lat="47.19817" lon="0.98857">
        <ele>89.3</ele>
        <time>2020-07-03T12:09:02Z</time>
      </trkpt>
      <trkpt lat="47.19811" lon="0.98856">
        <ele>89.4</ele>
        <time>2020-07-03T12:09:03Z</time>
      </trkpt>
      <trkpt lat="47.19806" lon="0.98855">
        <ele>89.4</ele>
        <time>2020-07-03T12:09:04Z</time>
      </trkpt>
      <trkpt lat="47.198" lon="0.98855">
        <ele>89.5</ele>
        <time>2020-07-03T12:09:05Z</time>
      </trkpt>
      <trkpt lat="47.19795" lon="0.98853">
        <ele>89.6</ele>
        <time>2020-07-03T12:09:06Z</time>
      </trkpt>
      <trkpt lat="47.19789" lon="0.98851">
        <ele>89.7</ele>
        <time>2020-07-03T12:09:07Z</time>
      </trkpt>
      <trkpt lat="47.19784" lon="0.9885">
        <ele>89.8</ele>
        <time>2020-07-03T12:09:08Z</time>
      </trkpt>
      <trkpt lat="47.19779" lon="0.98849">
        <ele>89.8</ele>
        <time>2020-07-03T12:09:09Z</time>
      </trkpt>
      <trkpt lat="47.19775" lon="0.98849">
        <ele>89.9</ele>
        <time>2020-07-03T12:09:10Z</time>
      </trkpt>
      <trkpt lat="47.19771" lon="0.98848">
        <ele>89.9</ele>
        <time>2020-07-03T12:09:11Z</time>
      </trkpt>
      <trkpt lat="47.19766" lon="0.98848">
        <ele>90</ele>
        <time>2020-07-03T12:09:12Z</time>
      </trkpt>
      <trkpt lat="47.19761" lon="0.98847">
        <ele>90</ele>
        <time>2020-07-03T12:09:13Z</time>
      </trkpt>
      <trkpt lat="47.19757" lon="0.98847">
        <ele>90.1</ele>
        <time>2020-07-03T12:09:14Z</time>
      </trkpt>
      <trkpt lat="47.19752" lon="0.98847">
        <ele>90.2</ele>
        <time>2020-07-03T12:09:15Z</time>
      </trkpt>
      <trkpt lat="47.19747" lon="0.98847">
        <ele>90.3</ele>
        <time>2020-07-03T12:09:16Z</time>
      </trkpt>
      <trkpt lat="47.19741" lon="0.98845">
        <ele>90.4</ele>
        <time>2020-07-03T12:09:17Z</time>
      </trkpt>
      <trkpt lat="47.19735" lon="0.98844">
        <ele>90.5</ele>
        <time>2020-07-03T12:09:18Z</time>
      </trkpt>
      <trkpt lat="47.19729" lon="0.98844">
        <ele>90.6</ele>
        <time>2020-07-03T12:09:19Z</time>
      </trkpt>
      <trkpt lat="47.19724" lon="0.98843">
        <ele>90.7</ele>
        <time>2020-07-03T12:09:20Z</time>
      </trkpt>
      <trkpt lat="47.19719" lon="0.98843">
        <ele>90.8</ele>
        <time>2020-07-03T12:09:21Z</time>
      </trkpt>
      <trkpt lat="47.19712" lon="0.98842">
        <ele>91</ele>
        <time>2020-07-03T12:09:22Z</time>
      </trkpt>
      <trkpt lat="47.19707" lon="0.98842">
        <ele>91.1</ele>
        <time>2020-07-03T12:09:23Z</time>
      </trkpt>
      <trkpt lat="47.19702" lon="0.98842">
        <ele>91.4</ele>
        <time>2020-07-03T12:09:24Z</time>
      </trkpt>
      <trkpt lat="47.19695" lon="0.98842">
        <ele>91.7</ele>
        <time>2020-07-03T12:09:25Z</time>
      </trkpt>
      <trkpt lat="47.19689" lon="0.98842">
        <ele>92</ele>
        <time>2020-07-03T12:09:26Z</time>
      </trkpt>
      <trkpt lat="47.19685" lon="0.98842">
        <ele>92.2</ele>
        <time>2020-07-03T12:09:27Z</time>
      </trkpt>
      <trkpt lat="47.19679" lon="0.98842">
        <ele>92.4</ele>
        <time>2020-07-03T12:09:28Z</time>
      </trkpt>
      <trkpt lat="47.19674" lon="0.98842">
        <ele>92.7</ele>
        <time>2020-07-03T12:09:29Z</time>
      </trkpt>
      <trkpt lat="47.19668" lon="0.98842">
        <ele>92.9</ele>
        <time>2020-07-03T12:09:30Z</time>
      </trkpt>
      <trkpt lat="47.19663" lon="0.98841">
        <ele>93.1</ele>
        <time>2020-07-03T12:09:31Z</time>
      </trkpt>
      <trkpt lat="47.19658" lon="0.98841">
        <ele>93.2</ele>
        <time>2020-07-03T12:09:32Z</time>
      </trkpt>
      <trkpt lat="47.19653" lon="0.9884">
        <ele>93.4</ele>
        <time>2020-07-03T12:09:33Z</time>
      </trkpt>
      <trkpt lat="47.19647" lon="0.98839">
        <ele>93.6</ele>
        <time>2020-07-03T12:09:34Z</time>
      </trkpt>
      <trkpt lat="47.19643" lon="0.98838">
        <ele>93.7</ele>
        <time>2020-07-03T12:09:35Z</time>
      </trkpt>
      <trkpt lat="47.19637" lon="0.98836">
        <ele>93.8</ele>
        <time>2020-07-03T12:09:36Z</time>
      </trkpt>
      <trkpt lat="47.19633" lon="0.98835">
        <ele>94</ele>
        <time>2020-07-03T12:09:37Z</time>
      </trkpt>
      <trkpt lat="47.19629" lon="0.98834">
        <ele>94.1</ele>
        <time>2020-07-03T12:09:38Z</time>
      </trkpt>
      <trkpt lat="47.19626" lon="0.98833">
        <ele>94.3</ele>
        <time>2020-07-03T12:09:39Z</time>
      </trkpt>
      <trkpt lat="47.19623" lon="0.98831">
        <ele>94.4</ele>
        <time>2020-07-03T12:09:40Z</time>
      </trkpt>
      <trkpt lat="47.19618" lon="0.9883">
        <ele>94.5</ele>
        <time>2020-07-03T12:09:41Z</time>
      </trkpt>
      <trkpt lat="47.19617" lon="0.9883">
        <ele>94.6</ele>
        <time>2020-07-03T12:09:42Z</time>
      </trkpt>
      <trkpt lat="47.19613" lon="0.98831">
        <ele>94.7</ele>
        <time>2020-07-03T12:09:43Z</time>
      </trkpt>
      <trkpt lat="47.19613" lon="0.98831">
        <ele>94.8</ele>
        <time>2020-07-03T12:09:44Z</time>
      </trkpt>
      <trkpt lat="47.1961" lon="0.98831">
        <ele>94.9</ele>
        <time>2020-07-03T12:09:45Z</time>
      </trkpt>
      <trkpt lat="47.19607" lon="0.98831">
        <ele>95</ele>
        <time>2020-07-03T12:09:46Z</time>
      </trkpt>
      <trkpt lat="47.19604" lon="0.98829">
        <ele>95.1</ele>
        <time>2020-07-03T12:09:47Z</time>
      </trkpt>
      <trkpt lat="47.19601" lon="0.98829">
        <ele>95.2</ele>
        <time>2020-07-03T12:09:48Z</time>
      </trkpt>
      <trkpt lat="47.19598" lon="0.98828">
        <ele>95.3</ele>
        <time>2020-07-03T12:09:49Z</time>
      </trkpt>
      <trkpt lat="47.19596" lon="0.98829">
        <ele>95.4</ele>
        <time>2020-07-03T12:09:50Z</time>
      </trkpt>
      <trkpt lat="47.19594" lon="0.98829">
        <ele>95.4</ele>
        <time>2020-07-03T12:09:51Z</time>
      </trkpt>
      <trkpt lat="47.1959" lon="0.98827">
        <ele>95.5</ele>
        <time>2020-07-03T12:09:52Z</time>
      </trkpt>
      <trkpt lat="47.19589" lon="0.98827">
        <ele>95.6</ele>
        <time>2020-07-03T12:09:53Z</time>
      </trkpt>
      <trkpt lat="47.19586" lon="0.98826">
        <ele>95.7</ele>
        <time>2020-07-03T12:09:54Z</time>
      </trkpt>
      <trkpt lat="47.19585" lon="0.98826">
        <ele>95.7</ele>
        <time>2020-07-03T12:09:55Z</time>
      </trkpt>
      <trkpt lat="47.19581" lon="0.98825">
        <ele>95.8</ele>
        <time>2020-07-03T12:09:56Z</time>
      </trkpt>
      <trkpt lat="47.19579" lon="0.98825">
        <ele>95.9</ele>
        <time>2020-07-03T12:09:57Z</time>
      </trkpt>
      <trkpt lat="47.19576" lon="0.98825">
        <ele>96</ele>
        <time>2020-07-03T12:09:58Z</time>
      </trkpt>
      <trkpt lat="47.19575" lon="0.98825">
        <ele>96</ele>
        <time>2020-07-03T12:09:59Z</time>
      </trkpt>
      <trkpt lat="47.19574" lon="0.98825">
        <ele>96</ele>
        <time>2020-07-03T12:10:00Z</time>
      </trkpt>
      <trkpt lat="47.19573" lon="0.98825">
        <ele>96.1</ele>
        <time>2020-07-03T12:10:01Z</time>
      </trkpt>
      <trkpt lat="47.19572" lon="0.98825">
        <ele>96.1</ele>
        <time>2020-07-03T12:10:02Z</time>
      </trkpt>
      <trkpt lat="47.19571" lon="0.98826">
        <ele>96.1</ele>
        <time>2020-07-03T12:10:03Z</time>
      </trkpt>
      <trkpt lat="47.19569" lon="0.98827">
        <ele>96.2</ele>
        <time>2020-07-03T12:10:04Z</time>
      </trkpt>
      <trkpt lat="47.19566" lon="0.98826">
        <ele>96.3</ele>
        <time>2020-07-03T12:10:05Z</time>
      </trkpt>
      <trkpt lat="47.19563" lon="0.98826">
        <ele>96.4</ele>
        <time>2020-07-03T12:10:06Z</time>
      </trkpt>
      <trkpt lat="47.1956" lon="0.98826">
        <ele>96.5</ele>
        <time>2020-07-03T12:10:07Z</time>
      </trkpt>
      <trkpt lat="47.19556" lon="0.98825">
        <ele>96.6</ele>
        <time>2020-07-03T12:10:08Z</time>
      </trkpt>
      <trkpt lat="47.19554" lon="0.98825">
        <ele>96.6</ele>
        <time>2020-07-03T12:10:09Z</time>
      </trkpt>
      <trkpt lat="47.1955" lon="0.98824">
        <ele>96.7</ele>
        <time>2020-07-03T12:10:10Z</time>
      </trkpt>
      <trkpt lat="47.19549" lon="0.98824">
        <ele>96.8</ele>
        <time>2020-07-03T12:10:11Z</time>
      </trkpt>
      <trkpt lat="47.19545" lon="0.98823">
        <ele>96.9</ele>
        <time>2020-07-03T12:10:12Z</time>
      </trkpt>
      <trkpt lat="47.19542" lon="0.98822">
        <ele>97</ele>
        <time>2020-07-03T12:10:13Z</time>
      </trkpt>
      <trkpt lat="47.19539" lon="0.98821">
        <ele>97</ele>
        <time>2020-07-03T12:10:14Z</time>
      </trkpt>
      <trkpt lat="47.19535" lon="0.9882">
        <ele>97.2</ele>
        <time>2020-07-03T12:10:15Z</time>
      </trkpt>
      <trkpt lat="47.1953" lon="0.9882">
        <ele>97.3</ele>
        <time>2020-07-03T12:10:16Z</time>
      </trkpt>
      <trkpt lat="47.19527" lon="0.98819">
        <ele>97.3</ele>
        <time>2020-07-03T12:10:17Z</time>
      </trkpt>
      <trkpt lat="47.19523" lon="0.98819">
        <ele>97.4</ele>
        <time>2020-07-03T12:10:18Z</time>
      </trkpt>
      <trkpt lat="47.19519" lon="0.98819">
        <ele>97.5</ele>
        <time>2020-07-03T12:10:19Z</time>
      </trkpt>
      <trkpt lat="47.19515" lon="0.98818">
        <ele>97.5</ele>
        <time>2020-07-03T12:10:20Z</time>
      </trkpt>
      <trkpt lat="47.19512" lon="0.98817">
        <ele>97.6</ele>
        <time>2020-07-03T12:10:21Z</time>
      </trkpt>
      <trkpt lat="47.19507" lon="0.98817">
        <ele>97.7</ele>
        <time>2020-07-03T12:10:22Z</time>
      </trkpt>
      <trkpt lat="47.19503" lon="0.98816">
        <ele>97.7</ele>
        <time>2020-07-03T12:10:23Z</time>
      </trkpt>
      <trkpt lat="47.19498" lon="0.98815">
        <ele>97.8</ele>
        <time>2020-07-03T12:10:24Z</time>
      </trkpt>
      <trkpt lat="47.19492" lon="0.98814">
        <ele>97.9</ele>
        <time>2020-07-03T12:10:25Z</time>
      </trkpt>
      <trkpt lat="47.19488" lon="0.98812">
        <ele>98</ele>
        <time>2020-07-03T12:10:26Z</time>
      </trkpt>
      <trkpt lat="47.19483" lon="0.98811">
        <ele>98.1</ele>
        <time>2020-07-03T12:10:27Z</time>
      </trkpt>
      <trkpt lat="47.19478" lon="0.9881">
        <ele>98.2</ele>
        <time>2020-07-03T12:10:28Z</time>
      </trkpt>
      <trkpt lat="47.19472" lon="0.98809">
        <ele>98.3</ele>
        <time>2020-07-03T12:10:29Z</time>
      </trkpt>
      <trkpt lat="47.19466" lon="0.98809">
        <ele>98.3</ele>
        <time>2020-07-03T12:10:30Z</time>
      </trkpt>
      <trkpt lat="47.19461" lon="0.98809">
        <ele>98.4</ele>
        <time>2020-07-03T12:10:31Z</time>
      </trkpt>
      <trkpt lat="47.19458" lon="0.98808">
        <ele>98.4</ele>
        <time>2020-07-03T12:10:32Z</time>
      </trkpt>
      <trkpt lat="47.19452" lon="0.98809">
        <ele>98.4</ele>
        <time>2020-07-03T12:10:33Z</time>
      </trkpt>
      <trkpt lat="47.19446" lon="0.98809">
        <ele>98.5</ele>
        <time>2020-07-03T12:10:34Z</time>
      </trkpt>
      <trkpt lat="47.19441" lon="0.98808">
        <ele>98.6</ele>
        <time>2020-07-03T12:10:35Z</time>
      </trkpt>
      <trkpt lat="47.19436" lon="0.98808">
        <ele>98.6</ele>
        <time>2020-07-03T12:10:36Z</time>
      </trkpt>
      <trkpt lat="47.19431" lon="0.98807">
        <ele>98.7</ele>
        <time>2020-07-03T12:10:37Z</time>
      </trkpt>
      <trkpt lat="47.19426" lon="0.98806">
        <ele>98.8</ele>
        <time>2020-07-03T12:10:38Z</time>
      </trkpt>
      <trkpt lat="47.19422" lon="0.98805">
        <ele>98.9</ele>
        <time>2020-07-03T12:10:39Z</time>
      </trkpt>
      <trkpt lat="47.19416" lon="0.98804">
        <ele>99</ele>
        <time>2020-07-03T12:10:40Z</time>
      </trkpt>
      <trkpt lat="47.19411" lon="0.98804">
        <ele>99.1</ele>
        <time>2020-07-03T12:10:41Z</time>
      </trkpt>
      <trkpt lat="47.19406" lon="0.98804">
        <ele>99.2</ele>
        <time>2020-07-03T12:10:42Z</time>
      </trkpt>
      <trkpt lat="47.194" lon="0.98804">
        <ele>99.3</ele>
        <time>2020-07-03T12:10:43Z</time>
      </trkpt>
      <trkpt lat="47.19393" lon="0.98803">
        <ele>99.5</ele>
        <time>2020-07-03T12:10:44Z</time>
      </trkpt>
      <trkpt lat="47.19388" lon="0.98802">
        <ele>99.6</ele>
        <time>2020-07-03T12:10:45Z</time>
      </trkpt>
      <trkpt lat="47.19383" lon="0.98801">
        <ele>99.7</ele>
        <time>2020-07-03T12:10:46Z</time>
      </trkpt>
      <trkpt lat="47.19377" lon="0.988">
        <ele>99.8</ele>
        <time>2020-07-03T12:10:47Z</time>
      </trkpt>
      <trkpt lat="47.19373" lon="0.988">
        <ele>99.9</ele>
        <time>2020-07-03T12:10:48Z</time>
      </trkpt>
      <trkpt lat="47.19368" lon="0.98799">
        <ele>100</ele>
        <time>2020-07-03T12:10:49Z</time>
      </trkpt>
      <trkpt lat="47.19364" lon="0.98799">
        <ele>100.1</ele>
        <time>2020-07-03T12:10:50Z</time>
      </trkpt>
      <trkpt lat="47.19359" lon="0.98799">
        <ele>100.2</ele>
        <time>2020-07-03T12:10:51Z</time>
      </trkpt>
      <trkpt lat="47.19354" lon="0.98799">
        <ele>100.3</ele>
        <time>2020-07-03T12:10:52Z</time>
      </trkpt>
      <trkpt lat="47.19349" lon="0.98799">
        <ele>100.4</ele>
        <time>2020-07-03T12:10:53Z</time>
      </trkpt>
      <trkpt lat="47.19342" lon="0.98799">
        <ele>100.6</ele>
        <time>2020-07-03T12:10:54Z</time>
      </trkpt>
      <trkpt lat="47.19336" lon="0.98799">
        <ele>100.7</ele>
        <time>2020-07-03T12:10:55Z</time>
      </trkpt>
      <trkpt lat="47.19331" lon="0.988">
        <ele>100.8</ele>
        <time>2020-07-03T12:10:56Z</time>
      </trkpt>
      <trkpt lat="47.19327" lon="0.98799">
        <ele>100.9</ele>
        <time>2020-07-03T12:10:57Z</time>
      </trkpt>
      <trkpt lat="47.19322" lon="0.98798">
        <ele>101</ele>
        <time>2020-07-03T12:10:58Z</time>
      </trkpt>
      <trkpt lat="47.19317" lon="0.98797">
        <ele>101.1</ele>
        <time>2020-07-03T12:10:59Z</time>
      </trkpt>
      <trkpt lat="47.19312" lon="0.98796">
        <ele>101.2</ele>
        <time>2020-07-03T12:11:00Z</time>
      </trkpt>
      <trkpt lat="47.19307" lon="0.98795">
        <ele>101.3</ele>
        <time>2020-07-03T12:11:01Z</time>
      </trkpt>
      <trkpt lat="47.19303" lon="0.98794">
        <ele>101.4</ele>
        <time>2020-07-03T12:11:02Z</time>
      </trkpt>
      <trkpt lat="47.19299" lon="0.98793">
        <ele>101.5</ele>
        <time>2020-07-03T12:11:03Z</time>
      </trkpt>
      <trkpt lat="47.19295" lon="0.98793">
        <ele>101.5</ele>
        <time>2020-07-03T12:11:04Z</time>
      </trkpt>
      <trkpt lat="47.19291" lon="0.98791">
        <ele>101.6</ele>
        <time>2020-07-03T12:11:05Z</time>
      </trkpt>
      <trkpt lat="47.19288" lon="0.9879">
        <ele>101.6</ele>
        <time>2020-07-03T12:11:06Z</time>
      </trkpt>
      <trkpt lat="47.19283" lon="0.98788">
        <ele>101.7</ele>
        <time>2020-07-03T12:11:07Z</time>
      </trkpt>
      <trkpt lat="47.19279" lon="0.98788">
        <ele>101.8</ele>
        <time>2020-07-03T12:11:08Z</time>
      </trkpt>
      <trkpt lat="47.19274" lon="0.98787">
        <ele>101.9</ele>
        <time>2020-07-03T12:11:09Z</time>
      </trkpt>
      <trkpt lat="47.19268" lon="0.98786">
        <ele>102.1</ele>
        <time>2020-07-03T12:11:10Z</time>
      </trkpt>
      <trkpt lat="47.19264" lon="0.98785">
        <ele>102.2</ele>
        <time>2020-07-03T12:11:11Z</time>
      </trkpt>
      <trkpt lat="47.1926" lon="0.98784">
        <ele>102.3</ele>
        <time>2020-07-03T12:11:12Z</time>
      </trkpt>
      <trkpt lat="47.19256" lon="0.98783">
        <ele>102.4</ele>
        <time>2020-07-03T12:11:13Z</time>
      </trkpt>
      <trkpt lat="47.19251" lon="0.98782">
        <ele>102.5</ele>
        <time>2020-07-03T12:11:14Z</time>
      </trkpt>
      <trkpt lat="47.19247" lon="0.98783">
        <ele>102.6</ele>
        <time>2020-07-03T12:11:15Z</time>
      </trkpt>
      <trkpt lat="47.19243" lon="0.98783">
        <ele>102.7</ele>
        <time>2020-07-03T12:11:16Z</time>
      </trkpt>
      <trkpt lat="47.1924" lon="0.98782">
        <ele>102.8</ele>
        <time>2020-07-03T12:11:17Z</time>
      </trkpt>
      <trkpt lat="47.19237" lon="0.98781">
        <ele>102.9</ele>
        <time>2020-07-03T12:11:18Z</time>
      </trkpt>
      <trkpt lat="47.19233" lon="0.9878">
        <ele>103</ele>
        <time>2020-07-03T12:11:19Z</time>
      </trkpt>
      <trkpt lat="47.19228" lon="0.9878">
        <ele>103.1</ele>
        <time>2020-07-03T12:11:20Z</time>
      </trkpt>
      <trkpt lat="47.19222" lon="0.9878">
        <ele>103.2</ele>
        <time>2020-07-03T12:11:21Z</time>
      </trkpt>
      <trkpt lat="47.19217" lon="0.9878">
        <ele>103.3</ele>
        <time>2020-07-03T12:11:22Z</time>
      </trkpt>
      <trkpt lat="47.19213" lon="0.98779">
        <ele>103.4</ele>
        <time>2020-07-03T12:11:23Z</time>
      </trkpt>
      <trkpt lat="47.19208" lon="0.98778">
        <ele>103.6</ele>
        <time>2020-07-03T12:11:24Z</time>
      </trkpt>
      <trkpt lat="47.19204" lon="0.98776">
        <ele>103.7</ele>
        <time>2020-07-03T12:11:25Z</time>
      </trkpt>
      <trkpt lat="47.192" lon="0.98776">
        <ele>103.8</ele>
        <time>2020-07-03T12:11:26Z</time>
      </trkpt>
      <trkpt lat="47.19197" lon="0.98775">
        <ele>103.9</ele>
        <time>2020-07-03T12:11:27Z</time>
      </trkpt>
      <trkpt lat="47.19193" lon="0.98775">
        <ele>104</ele>
        <time>2020-07-03T12:11:28Z</time>
      </trkpt>
      <trkpt lat="47.19189" lon="0.98774">
        <ele>104.1</ele>
        <time>2020-07-03T12:11:29Z</time>
      </trkpt>
      <trkpt lat="47.19185" lon="0.98774">
        <ele>104.2</ele>
        <time>2020-07-03T12:11:30Z</time>
      </trkpt>
      <trkpt lat="47.1918" lon="0.98773">
        <ele>104.3</ele>
        <time>2020-07-03T12:11:31Z</time>
      </trkpt>
      <trkpt lat="47.19176" lon="0.98773">
        <ele>104.4</ele>
        <time>2020-07-03T12:11:32Z</time>
      </trkpt>
      <trkpt lat="47.19172" lon="0.98773">
        <ele>104.5</ele>
        <time>2020-07-03T12:11:33Z</time>
      </trkpt>
      <trkpt lat="47.19167" lon="0.98772">
        <ele>104.6</ele>
        <time>2020-07-03T12:11:34Z</time>
      </trkpt>
      <trkpt lat="47.19163" lon="0.98771">
        <ele>104.7</ele>
        <time>2020-07-03T12:11:35Z</time>
      </trkpt>
      <trkpt lat="47.19158" lon="0.9877">
        <ele>104.8</ele>
        <time>2020-07-03T12:11:36Z</time>
      </trkpt>
      <trkpt lat="47.19154" lon="0.98769">
        <ele>104.8</ele>
        <time>2020-07-03T12:11:37Z</time>
      </trkpt>
      <trkpt lat="47.19149" lon="0.98769">
        <ele>104.9</ele>
        <time>2020-07-03T12:11:38Z</time>
      </trkpt>
      <trkpt lat="47.19145" lon="0.9877">
        <ele>105</ele>
        <time>2020-07-03T12:11:39Z</time>
      </trkpt>
      <trkpt lat="47.19142" lon="0.9877">
        <ele>105</ele>
        <time>2020-07-03T12:11:40Z</time>
      </trkpt>
      <trkpt lat="47.19137" lon="0.9877">
        <ele>105.1</ele>
        <time>2020-07-03T12:11:41Z</time>
      </trkpt>
      <trkpt lat="47.19134" lon="0.9877">
        <ele>105.1</ele>
        <time>2020-07-03T12:11:42Z</time>
      </trkpt>
      <trkpt lat="47.19131" lon="0.98771">
        <ele>105.2</ele>
        <time>2020-07-03T12:11:43Z</time>
      </trkpt>
      <trkpt lat="47.19126" lon="0.98771">
        <ele>105.2</ele>
        <time>2020-07-03T12:11:44Z</time>
      </trkpt>
      <trkpt lat="47.19121" lon="0.98769">
        <ele>105.3</ele>
        <time>2020-07-03T12:11:45Z</time>
      </trkpt>
      <trkpt lat="47.19116" lon="0.98768">
        <ele>105.4</ele>
        <time>2020-07-03T12:11:46Z</time>
      </trkpt>
      <trkpt lat="47.19111" lon="0.98767">
        <ele>105.4</ele>
        <time>2020-07-03T12:11:47Z</time>
      </trkpt>
      <trkpt lat="47.19106" lon="0.98766">
        <ele>105.5</ele>
        <time>2020-07-03T12:11:48Z</time>
      </trkpt>
      <trkpt lat="47.19101" lon="0.98766">
        <ele>105.5</ele>
        <time>2020-07-03T12:11:49Z</time>
      </trkpt>
      <trkpt lat="47.19097" lon="0.98765">
        <ele>105.5</ele>
        <time>2020-07-03T12:11:50Z</time>
      </trkpt>
      <trkpt lat="47.19092" lon="0.98765">
        <ele>105.4</ele>
        <time>2020-07-03T12:11:51Z</time>
      </trkpt>
      <trkpt lat="47.19087" lon="0.98764">
        <ele>105.4</ele>
        <time>2020-07-03T12:11:52Z</time>
      </trkpt>
      <trkpt lat="47.19083" lon="0.98764">
        <ele>105.4</ele>
        <time>2020-07-03T12:11:53Z</time>
      </trkpt>
      <trkpt lat="47.19077" lon="0.98763">
        <ele>105.4</ele>
        <time>2020-07-03T12:11:54Z</time>
      </trkpt>
      <trkpt lat="47.19071" lon="0.98761">
        <ele>105.3</ele>
        <time>2020-07-03T12:11:55Z</time>
      </trkpt>
      <trkpt lat="47.19064" lon="0.98761">
        <ele>105.3</ele>
        <time>2020-07-03T12:11:56Z</time>
      </trkpt>
      <trkpt lat="47.1906" lon="0.98761">
        <ele>105.3</ele>
        <time>2020-07-03T12:11:57Z</time>
      </trkpt>
      <trkpt lat="47.19055" lon="0.9876">
        <ele>105.2</ele>
        <time>2020-07-03T12:11:58Z</time>
      </trkpt>
      <trkpt lat="47.19049" lon="0.98758">
        <ele>105.2</ele>
        <time>2020-07-03T12:11:59Z</time>
      </trkpt>
      <trkpt lat="47.19043" lon="0.98757">
        <ele>105.2</ele>
        <time>2020-07-03T12:12:00Z</time>
      </trkpt>
      <trkpt lat="47.19037" lon="0.98755">
        <ele>105.2</ele>
        <time>2020-07-03T12:12:01Z</time>
      </trkpt>
      <trkpt lat="47.19031" lon="0.98752">
        <ele>105.2</ele>
        <time>2020-07-03T12:12:02Z</time>
      </trkpt>
      <trkpt lat="47.19026" lon="0.9875">
        <ele>105.2</ele>
        <time>2020-07-03T12:12:03Z</time>
      </trkpt>
      <trkpt lat="47.1902" lon="0.98746">
        <ele>105.1</ele>
        <time>2020-07-03T12:12:04Z</time>
      </trkpt>
      <trkpt lat="47.19015" lon="0.98743">
        <ele>105.1</ele>
        <time>2020-07-03T12:12:05Z</time>
      </trkpt>
      <trkpt lat="47.19009" lon="0.98736">
        <ele>105</ele>
        <time>2020-07-03T12:12:06Z</time>
      </trkpt>
      <trkpt lat="47.19005" lon="0.98729">
        <ele>104.9</ele>
        <time>2020-07-03T12:12:07Z</time>
      </trkpt>
      <trkpt lat="47.19002" lon="0.98721">
        <ele>104.9</ele>
        <time>2020-07-03T12:12:08Z</time>
      </trkpt>
      <trkpt lat="47.18998" lon="0.98713">
        <ele>104.8</ele>
        <time>2020-07-03T12:12:09Z</time>
      </trkpt>
      <trkpt lat="47.18995" lon="0.98705">
        <ele>104.8</ele>
        <time>2020-07-03T12:12:10Z</time>
      </trkpt>
      <trkpt lat="47.18992" lon="0.98698">
        <ele>104.7</ele>
        <time>2020-07-03T12:12:11Z</time>
      </trkpt>
      <trkpt lat="47.18989" lon="0.98692">
        <ele>104.7</ele>
        <time>2020-07-03T12:12:12Z</time>
      </trkpt>
      <trkpt lat="47.18986" lon="0.98685">
        <ele>104.7</ele>
        <time>2020-07-03T12:12:13Z</time>
      </trkpt>
      <trkpt lat="47.18983" lon="0.98677">
        <ele>104.6</ele>
        <time>2020-07-03T12:12:14Z</time>
      </trkpt>
      <trkpt lat="47.18981" lon="0.9867">
        <ele>104.5</ele>
        <time>2020-07-03T12:12:15Z</time>
      </trkpt>
      <trkpt lat="47.18978" lon="0.98662">
        <ele>104.3</ele>
        <time>2020-07-03T12:12:16Z</time>
      </trkpt>
      <trkpt lat="47.18976" lon="0.98653">
        <ele>104.2</ele>
        <time>2020-07-03T12:12:17Z</time>
      </trkpt>
      <trkpt lat="47.18974" lon="0.98645">
        <ele>104.1</ele>
        <time>2020-07-03T12:12:18Z</time>
      </trkpt>
      <trkpt lat="47.18971" lon="0.98636">
        <ele>104.1</ele>
        <time>2020-07-03T12:12:19Z</time>
      </trkpt>
      <trkpt lat="47.18968" lon="0.98627">
        <ele>104</ele>
        <time>2020-07-03T12:12:20Z</time>
      </trkpt>
      <trkpt lat="47.18966" lon="0.98619">
        <ele>103.9</ele>
        <time>2020-07-03T12:12:21Z</time>
      </trkpt>
      <trkpt lat="47.18963" lon="0.98611">
        <ele>103.8</ele>
        <time>2020-07-03T12:12:22Z</time>
      </trkpt>
      <trkpt lat="47.1896" lon="0.98602">
        <ele>103.7</ele>
        <time>2020-07-03T12:12:23Z</time>
      </trkpt>
      <trkpt lat="47.18957" lon="0.98593">
        <ele>103.6</ele>
        <time>2020-07-03T12:12:24Z</time>
      </trkpt>
      <trkpt lat="47.18954" lon="0.98584">
        <ele>103.5</ele>
        <time>2020-07-03T12:12:25Z</time>
      </trkpt>
      <trkpt lat="47.18951" lon="0.98575">
        <ele>103.4</ele>
        <time>2020-07-03T12:12:26Z</time>
      </trkpt>
      <trkpt lat="47.18948" lon="0.98565">
        <ele>103.3</ele>
        <time>2020-07-03T12:12:27Z</time>
      </trkpt>
      <trkpt lat="47.18946" lon="0.98556">
        <ele>103.2</ele>
        <time>2020-07-03T12:12:28Z</time>
      </trkpt>
      <trkpt lat="47.18944" lon="0.98546">
        <ele>103.1</ele>
        <time>2020-07-03T12:12:29Z</time>
      </trkpt>
      <trkpt lat="47.18942" lon="0.98536">
        <ele>103</ele>
        <time>2020-07-03T12:12:30Z</time>
      </trkpt>
      <trkpt lat="47.1894" lon="0.98528">
        <ele>102.9</ele>
        <time>2020-07-03T12:12:31Z</time>
      </trkpt>
      <trkpt lat="47.18938" lon="0.98518">
        <ele>102.8</ele>
        <time>2020-07-03T12:12:32Z</time>
      </trkpt>
      <trkpt lat="47.18935" lon="0.9851">
        <ele>102.7</ele>
        <time>2020-07-03T12:12:33Z</time>
      </trkpt>
      <trkpt lat="47.18932" lon="0.98501">
        <ele>102.5</ele>
        <time>2020-07-03T12:12:34Z</time>
      </trkpt>
      <trkpt lat="47.1893" lon="0.98492">
        <ele>102.4</ele>
        <time>2020-07-03T12:12:35Z</time>
      </trkpt>
      <trkpt lat="47.18927" lon="0.98484">
        <ele>102.2</ele>
        <time>2020-07-03T12:12:36Z</time>
      </trkpt>
      <trkpt lat="47.18924" lon="0.98474">
        <ele>102</ele>
        <time>2020-07-03T12:12:37Z</time>
      </trkpt>
      <trkpt lat="47.18922" lon="0.98465">
        <ele>101.9</ele>
        <time>2020-07-03T12:12:38Z</time>
      </trkpt>
      <trkpt lat="47.18919" lon="0.98456">
        <ele>101.7</ele>
        <time>2020-07-03T12:12:39Z</time>
      </trkpt>
      <trkpt lat="47.18916" lon="0.98447">
        <ele>101.5</ele>
        <time>2020-07-03T12:12:40Z</time>
      </trkpt>
      <trkpt lat="47.18913" lon="0.98438">
        <ele>101.4</ele>
        <time>2020-07-03T12:12:41Z</time>
      </trkpt>
      <trkpt lat="47.1891" lon="0.98429">
        <ele>101.2</ele>
        <time>2020-07-03T12:12:42Z</time>
      </trkpt>
      <trkpt lat="47.18907" lon="0.98421">
        <ele>101</ele>
        <time>2020-07-03T12:12:43Z</time>
      </trkpt>
      <trkpt lat="47.18904" lon="0.98412">
        <ele>100.8</ele>
        <time>2020-07-03T12:12:44Z</time>
      </trkpt>
      <trkpt lat="47.18901" lon="0.98403">
        <ele>100.6</ele>
        <time>2020-07-03T12:12:45Z</time>
      </trkpt>
      <trkpt lat="47.18899" lon="0.98394">
        <ele>100.5</ele>
        <time>2020-07-03T12:12:46Z</time>
      </trkpt>
      <trkpt lat="47.18896" lon="0.98386">
        <ele>100.3</ele>
        <time>2020-07-03T12:12:47Z</time>
      </trkpt>
      <trkpt lat="47.18894" lon="0.98377">
        <ele>100.1</ele>
        <time>2020-07-03T12:12:48Z</time>
      </trkpt>
      <trkpt lat="47.18891" lon="0.98369">
        <ele>99.9</ele>
        <time>2020-07-03T12:12:49Z</time>
      </trkpt>
      <trkpt lat="47.18888" lon="0.98361">
        <ele>99.7</ele>
        <time>2020-07-03T12:12:50Z</time>
      </trkpt>
      <trkpt lat="47.18886" lon="0.98352">
        <ele>99.5</ele>
        <time>2020-07-03T12:12:51Z</time>
      </trkpt>
      <trkpt lat="47.18883" lon="0.98344">
        <ele>99.3</ele>
        <time>2020-07-03T12:12:52Z</time>
      </trkpt>
      <trkpt lat="47.1888" lon="0.98336">
        <ele>99.1</ele>
        <time>2020-07-03T12:12:53Z</time>
      </trkpt>
      <trkpt lat="47.18877" lon="0.98327">
        <ele>98.9</ele>
        <time>2020-07-03T12:12:54Z</time>
      </trkpt>
      <trkpt lat="47.18874" lon="0.98318">
        <ele>98.7</ele>
        <time>2020-07-03T12:12:55Z</time>
      </trkpt>
      <trkpt lat="47.18871" lon="0.98309">
        <ele>98.5</ele>
        <time>2020-07-03T12:12:56Z</time>
      </trkpt>
      <trkpt lat="47.18868" lon="0.98299">
        <ele>98.3</ele>
        <time>2020-07-03T12:12:57Z</time>
      </trkpt>
      <trkpt lat="47.18866" lon="0.9829">
        <ele>98</ele>
        <time>2020-07-03T12:12:58Z</time>
      </trkpt>
      <trkpt lat="47.18862" lon="0.98281">
        <ele>97.8</ele>
        <time>2020-07-03T12:12:59Z</time>
      </trkpt>
      <trkpt lat="47.18859" lon="0.98271">
        <ele>97.5</ele>
        <time>2020-07-03T12:13:00Z</time>
      </trkpt>
      <trkpt lat="47.18856" lon="0.98261">
        <ele>97.2</ele>
        <time>2020-07-03T12:13:01Z</time>
      </trkpt>
      <trkpt lat="47.18853" lon="0.98251">
        <ele>96.9</ele>
        <time>2020-07-03T12:13:02Z</time>
      </trkpt>
      <trkpt lat="47.1885" lon="0.98242">
        <ele>96.7</ele>
        <time>2020-07-03T12:13:03Z</time>
      </trkpt>
      <trkpt lat="47.18846" lon="0.98232">
        <ele>96.4</ele>
        <time>2020-07-03T12:13:04Z</time>
      </trkpt>
      <trkpt lat="47.18843" lon="0.98222">
        <ele>96.2</ele>
        <time>2020-07-03T12:13:05Z</time>
      </trkpt>
      <trkpt lat="47.1884" lon="0.98212">
        <ele>96</ele>
        <time>2020-07-03T12:13:06Z</time>
      </trkpt>
      <trkpt lat="47.18837" lon="0.98203">
        <ele>95.8</ele>
        <time>2020-07-03T12:13:07Z</time>
      </trkpt>
      <trkpt lat="47.18834" lon="0.98193">
        <ele>95.6</ele>
        <time>2020-07-03T12:13:08Z</time>
      </trkpt>
      <trkpt lat="47.18831" lon="0.98184">
        <ele>95.4</ele>
        <time>2020-07-03T12:13:09Z</time>
      </trkpt>
      <trkpt lat="47.18829" lon="0.98174">
        <ele>95.2</ele>
        <time>2020-07-03T12:13:10Z</time>
      </trkpt>
      <trkpt lat="47.18827" lon="0.98165">
        <ele>95</ele>
        <time>2020-07-03T12:13:11Z</time>
      </trkpt>
      <trkpt lat="47.18824" lon="0.98155">
        <ele>94.7</ele>
        <time>2020-07-03T12:13:12Z</time>
      </trkpt>
      <trkpt lat="47.18822" lon="0.98145">
        <ele>94.4</ele>
        <time>2020-07-03T12:13:13Z</time>
      </trkpt>
      <trkpt lat="47.1882" lon="0.98135">
        <ele>94.1</ele>
        <time>2020-07-03T12:13:14Z</time>
      </trkpt>
      <trkpt lat="47.18817" lon="0.98126">
        <ele>93.9</ele>
        <time>2020-07-03T12:13:15Z</time>
      </trkpt>
      <trkpt lat="47.18815" lon="0.98116">
        <ele>93.6</ele>
        <time>2020-07-03T12:13:16Z</time>
      </trkpt>
      <trkpt lat="47.18813" lon="0.98107">
        <ele>93.4</ele>
        <time>2020-07-03T12:13:17Z</time>
      </trkpt>
      <trkpt lat="47.18811" lon="0.98097">
        <ele>93.1</ele>
        <time>2020-07-03T12:13:18Z</time>
      </trkpt>
      <trkpt lat="47.18808" lon="0.98087">
        <ele>92.8</ele>
        <time>2020-07-03T12:13:19Z</time>
      </trkpt>
      <trkpt lat="47.18806" lon="0.98078">
        <ele>92.4</ele>
        <time>2020-07-03T12:13:20Z</time>
      </trkpt>
      <trkpt lat="47.18804" lon="0.98068">
        <ele>92.1</ele>
        <time>2020-07-03T12:13:21Z</time>
      </trkpt>
      <trkpt lat="47.18803" lon="0.98058">
        <ele>91.8</ele>
        <time>2020-07-03T12:13:22Z</time>
      </trkpt>
      <trkpt lat="47.18801" lon="0.98048">
        <ele>91.5</ele>
        <time>2020-07-03T12:13:23Z</time>
      </trkpt>
      <trkpt lat="47.18799" lon="0.98038">
        <ele>91.2</ele>
        <time>2020-07-03T12:13:24Z</time>
      </trkpt>
      <trkpt lat="47.18797" lon="0.98029">
        <ele>90.8</ele>
        <time>2020-07-03T12:13:25Z</time>
      </trkpt>
      <trkpt lat="47.18794" lon="0.98018">
        <ele>90.3</ele>
        <time>2020-07-03T12:13:26Z</time>
      </trkpt>
      <trkpt lat="47.18792" lon="0.98008">
        <ele>89.8</ele>
        <time>2020-07-03T12:13:27Z</time>
      </trkpt>
      <trkpt lat="47.18789" lon="0.97997">
        <ele>89.2</ele>
        <time>2020-07-03T12:13:28Z</time>
      </trkpt>
      <trkpt lat="47.18787" lon="0.97985">
        <ele>88.5</ele>
        <time>2020-07-03T12:13:29Z</time>
      </trkpt>
      <trkpt lat="47.18784" lon="0.97974">
        <ele>87.8</ele>
        <time>2020-07-03T12:13:30Z</time>
      </trkpt>
      <trkpt lat="47.18782" lon="0.97961">
        <ele>87</ele>
        <time>2020-07-03T12:13:31Z</time>
      </trkpt>
      <trkpt lat="47.18779" lon="0.97949">
        <ele>86.1</ele>
        <time>2020-07-03T12:13:32Z</time>
      </trkpt>
      <trkpt lat="47.18776" lon="0.97935">
        <ele>85.2</ele>
        <time>2020-07-03T12:13:33Z</time>
      </trkpt>
      <trkpt lat="47.18774" lon="0.97922">
        <ele>84.3</ele>
        <time>2020-07-03T12:13:34Z</time>
      </trkpt>
      <trkpt lat="47.18771" lon="0.97908">
        <ele>83.3</ele>
        <time>2020-07-03T12:13:35Z</time>
      </trkpt>
      <trkpt lat="47.18768" lon="0.97894">
        <ele>82.4</ele>
        <time>2020-07-03T12:13:36Z</time>
      </trkpt>
      <trkpt lat="47.18765" lon="0.9788">
        <ele>81.5</ele>
        <time>2020-07-03T12:13:37Z</time>
      </trkpt>
      <trkpt lat="47.18762" lon="0.97865">
        <ele>80.7</ele>
        <time>2020-07-03T12:13:38Z</time>
      </trkpt>
      <trkpt lat="47.18759" lon="0.9785">
        <ele>79.8</ele>
        <time>2020-07-03T12:13:39Z</time>
      </trkpt>
      <trkpt lat="47.18755" lon="0.97836">
        <ele>79.1</ele>
        <time>2020-07-03T12:13:40Z</time>
      </trkpt>
      <trkpt lat="47.18752" lon="0.97821">
        <ele>78.2</ele>
        <time>2020-07-03T12:13:41Z</time>
      </trkpt>
      <trkpt lat="47.18747" lon="0.97806">
        <ele>77.5</ele>
        <time>2020-07-03T12:13:42Z</time>
      </trkpt>
      <trkpt lat="47.18743" lon="0.97792">
        <ele>76.8</ele>
        <time>2020-07-03T12:13:43Z</time>
      </trkpt>
      <trkpt lat="47.18738" lon="0.97778">
        <ele>76.2</ele>
        <time>2020-07-03T12:13:44Z</time>
      </trkpt>
      <trkpt lat="47.18732" lon="0.97764">
        <ele>75.6</ele>
        <time>2020-07-03T12:13:45Z</time>
      </trkpt>
      <trkpt lat="47.18727" lon="0.97749">
        <ele>75.1</ele>
        <time>2020-07-03T12:13:46Z</time>
      </trkpt>
      <trkpt lat="47.18722" lon="0.97735">
        <ele>74.6</ele>
        <time>2020-07-03T12:13:47Z</time>
      </trkpt>
      <trkpt lat="47.18717" lon="0.9772">
        <ele>73.7</ele>
        <time>2020-07-03T12:13:48Z</time>
      </trkpt>
      <trkpt lat="47.18714" lon="0.97705">
        <ele>73</ele>
        <time>2020-07-03T12:13:49Z</time>
      </trkpt>
      <trkpt lat="47.1871" lon="0.9769">
        <ele>72.2</ele>
        <time>2020-07-03T12:13:50Z</time>
      </trkpt>
      <trkpt lat="47.18706" lon="0.97675">
        <ele>71.4</ele>
        <time>2020-07-03T12:13:51Z</time>
      </trkpt>
      <trkpt lat="47.18703" lon="0.97659">
        <ele>70.6</ele>
        <time>2020-07-03T12:13:52Z</time>
      </trkpt>
      <trkpt lat="47.187" lon="0.97644">
        <ele>69.9</ele>
        <time>2020-07-03T12:13:53Z</time>
      </trkpt>
      <trkpt lat="47.18697" lon="0.97629">
        <ele>69.2</ele>
        <time>2020-07-03T12:13:54Z</time>
      </trkpt>
      <trkpt lat="47.18693" lon="0.97614">
        <ele>68.5</ele>
        <time>2020-07-03T12:13:55Z</time>
      </trkpt>
      <trkpt lat="47.18689" lon="0.97599">
        <ele>67.8</ele>
        <time>2020-07-03T12:13:56Z</time>
      </trkpt>
      <trkpt lat="47.18686" lon="0.97584">
        <ele>67.2</ele>
        <time>2020-07-03T12:13:57Z</time>
      </trkpt>
      <trkpt lat="47.18684" lon="0.97569">
        <ele>66.6</ele>
        <time>2020-07-03T12:13:58Z</time>
      </trkpt>
      <trkpt lat="47.18681" lon="0.97554">
        <ele>66.2</ele>
        <time>2020-07-03T12:13:59Z</time>
      </trkpt>
      <trkpt lat="47.18678" lon="0.9754">
        <ele>65.9</ele>
        <time>2020-07-03T12:14:00Z</time>
      </trkpt>
      <trkpt lat="47.18675" lon="0.97526">
        <ele>65.7</ele>
        <time>2020-07-03T12:14:01Z</time>
      </trkpt>
      <trkpt lat="47.18671" lon="0.97513">
        <ele>65.5</ele>
        <time>2020-07-03T12:14:02Z</time>
      </trkpt>
      <trkpt lat="47.18667" lon="0.97501">
        <ele>65.3</ele>
        <time>2020-07-03T12:14:03Z</time>
      </trkpt>
      <trkpt lat="47.18661" lon="0.9749">
        <ele>65.4</ele>
        <time>2020-07-03T12:14:04Z</time>
      </trkpt>
      <trkpt lat="47.18655" lon="0.97481">
        <ele>65.4</ele>
        <time>2020-07-03T12:14:05Z</time>
      </trkpt>
      <trkpt lat="47.18649" lon="0.97471">
        <ele>65.5</ele>
        <time>2020-07-03T12:14:06Z</time>
      </trkpt>
      <trkpt lat="47.18643" lon="0.97462">
        <ele>65.5</ele>
        <time>2020-07-03T12:14:07Z</time>
      </trkpt>
      <trkpt lat="47.18637" lon="0.97454">
        <ele>65.6</ele>
        <time>2020-07-03T12:14:08Z</time>
      </trkpt>
      <trkpt lat="47.1863" lon="0.97446">
        <ele>65.6</ele>
        <time>2020-07-03T12:14:09Z</time>
      </trkpt>
      <trkpt lat="47.18624" lon="0.97439">
        <ele>65.7</ele>
        <time>2020-07-03T12:14:10Z</time>
      </trkpt>
      <trkpt lat="47.18617" lon="0.97431">
        <ele>65.9</ele>
        <time>2020-07-03T12:14:11Z</time>
      </trkpt>
      <trkpt lat="47.18611" lon="0.97424">
        <ele>66</ele>
        <time>2020-07-03T12:14:12Z</time>
      </trkpt>
      <trkpt lat="47.18604" lon="0.97417">
        <ele>66.1</ele>
        <time>2020-07-03T12:14:13Z</time>
      </trkpt>
      <trkpt lat="47.18599" lon="0.9741">
        <ele>66.3</ele>
        <time>2020-07-03T12:14:14Z</time>
      </trkpt>
      <trkpt lat="47.18593" lon="0.97403">
        <ele>66.3</ele>
        <time>2020-07-03T12:14:15Z</time>
      </trkpt>
      <trkpt lat="47.18589" lon="0.97394">
        <ele>66.4</ele>
        <time>2020-07-03T12:14:16Z</time>
      </trkpt>
      <trkpt lat="47.18584" lon="0.97388">
        <ele>66.4</ele>
        <time>2020-07-03T12:14:17Z</time>
      </trkpt>
      <trkpt lat="47.18579" lon="0.97381">
        <ele>66.5</ele>
        <time>2020-07-03T12:14:18Z</time>
      </trkpt>
      <trkpt lat="47.18574" lon="0.97375">
        <ele>66.7</ele>
        <time>2020-07-03T12:14:19Z</time>
      </trkpt>
      <trkpt lat="47.18569" lon="0.9737">
        <ele>66.8</ele>
        <time>2020-07-03T12:14:20Z</time>
      </trkpt>
      <trkpt lat="47.18564" lon="0.97364">
        <ele>67</ele>
        <time>2020-07-03T12:14:21Z</time>
      </trkpt>
      <trkpt lat="47.18561" lon="0.97357">
        <ele>67.1</ele>
        <time>2020-07-03T12:14:22Z</time>
      </trkpt>
      <trkpt lat="47.18557" lon="0.97352">
        <ele>67.3</ele>
        <time>2020-07-03T12:14:23Z</time>
      </trkpt>
      <trkpt lat="47.18553" lon="0.97346">
        <ele>67.4</ele>
        <time>2020-07-03T12:14:24Z</time>
      </trkpt>
      <trkpt lat="47.18548" lon="0.97341">
        <ele>67.5</ele>
        <time>2020-07-03T12:14:25Z</time>
      </trkpt>
      <trkpt lat="47.18545" lon="0.97336">
        <ele>67.7</ele>
        <time>2020-07-03T12:14:26Z</time>
      </trkpt>
      <trkpt lat="47.18541" lon="0.97331">
        <ele>67.8</ele>
        <time>2020-07-03T12:14:27Z</time>
      </trkpt>
      <trkpt lat="47.18538" lon="0.97326">
        <ele>67.9</ele>
        <time>2020-07-03T12:14:28Z</time>
      </trkpt>
      <trkpt lat="47.18535" lon="0.97321">
        <ele>67.9</ele>
        <time>2020-07-03T12:14:29Z</time>
      </trkpt>
      <trkpt lat="47.18532" lon="0.97316">
        <ele>68</ele>
        <time>2020-07-03T12:14:30Z</time>
      </trkpt>
      <trkpt lat="47.18528" lon="0.97311">
        <ele>68.1</ele>
        <time>2020-07-03T12:14:31Z</time>
      </trkpt>
      <trkpt lat="47.18523" lon="0.97308">
        <ele>68.1</ele>
        <time>2020-07-03T12:14:32Z</time>
      </trkpt>
      <trkpt lat="47.1852" lon="0.97304">
        <ele>68.2</ele>
        <time>2020-07-03T12:14:33Z</time>
      </trkpt>
      <trkpt lat="47.18516" lon="0.97299">
        <ele>68.2</ele>
        <time>2020-07-03T12:14:34Z</time>
      </trkpt>
      <trkpt lat="47.18512" lon="0.97294">
        <ele>68.2</ele>
        <time>2020-07-03T12:14:35Z</time>
      </trkpt>
      <trkpt lat="47.18508" lon="0.97289">
        <ele>68.2</ele>
        <time>2020-07-03T12:14:36Z</time>
      </trkpt>
      <trkpt lat="47.18504" lon="0.97284">
        <ele>68.2</ele>
        <time>2020-07-03T12:14:37Z</time>
      </trkpt>
      <trkpt lat="47.185" lon="0.97279">
        <ele>68.2</ele>
        <time>2020-07-03T12:14:38Z</time>
      </trkpt>
      <trkpt lat="47.18496" lon="0.97274">
        <ele>68.2</ele>
        <time>2020-07-03T12:14:39Z</time>
      </trkpt>
      <trkpt lat="47.18493" lon="0.97269">
        <ele>68.2</ele>
        <time>2020-07-03T12:14:40Z</time>
      </trkpt>
      <trkpt lat="47.18489" lon="0.97263">
        <ele>68.3</ele>
        <time>2020-07-03T12:14:41Z</time>
      </trkpt>
      <trkpt lat="47.18486" lon="0.9726">
        <ele>68.3</ele>
        <time>2020-07-03T12:14:42Z</time>
      </trkpt>
      <trkpt lat="47.18482" lon="0.97254">
        <ele>68.3</ele>
        <time>2020-07-03T12:14:43Z</time>
      </trkpt>
      <trkpt lat="47.18478" lon="0.97249">
        <ele>68.3</ele>
        <time>2020-07-03T12:14:44Z</time>
      </trkpt>
      <trkpt lat="47.18474" lon="0.97242">
        <ele>68.4</ele>
        <time>2020-07-03T12:14:45Z</time>
      </trkpt>
      <trkpt lat="47.1847" lon="0.97236">
        <ele>68.4</ele>
        <time>2020-07-03T12:14:46Z</time>
      </trkpt>
      <trkpt lat="47.18466" lon="0.97229">
        <ele>68.4</ele>
        <time>2020-07-03T12:14:47Z</time>
      </trkpt>
      <trkpt lat="47.18462" lon="0.97225">
        <ele>68.5</ele>
        <time>2020-07-03T12:14:48Z</time>
      </trkpt>
      <trkpt lat="47.18457" lon="0.97218">
        <ele>68.5</ele>
        <time>2020-07-03T12:14:49Z</time>
      </trkpt>
      <trkpt lat="47.18452" lon="0.97213">
        <ele>68.5</ele>
        <time>2020-07-03T12:14:50Z</time>
      </trkpt>
      <trkpt lat="47.18447" lon="0.97208">
        <ele>68.4</ele>
        <time>2020-07-03T12:14:51Z</time>
      </trkpt>
      <trkpt lat="47.18442" lon="0.972">
        <ele>68.4</ele>
        <time>2020-07-03T12:14:52Z</time>
      </trkpt>
      <trkpt lat="47.18439" lon="0.97198">
        <ele>68.4</ele>
        <time>2020-07-03T12:14:53Z</time>
      </trkpt>
      <trkpt lat="47.18435" lon="0.97193">
        <ele>68.4</ele>
        <time>2020-07-03T12:14:54Z</time>
      </trkpt>
      <trkpt lat="47.1843" lon="0.97188">
        <ele>68.3</ele>
        <time>2020-07-03T12:14:55Z</time>
      </trkpt>
      <trkpt lat="47.18427" lon="0.97184">
        <ele>68.3</ele>
        <time>2020-07-03T12:14:56Z</time>
      </trkpt>
      <trkpt lat="47.18423" lon="0.97179">
        <ele>68.3</ele>
        <time>2020-07-03T12:14:57Z</time>
      </trkpt>
      <trkpt lat="47.18419" lon="0.97174">
        <ele>68.3</ele>
        <time>2020-07-03T12:14:58Z</time>
      </trkpt>
      <trkpt lat="47.18415" lon="0.97169">
        <ele>68.3</ele>
        <time>2020-07-03T12:14:59Z</time>
      </trkpt>
      <trkpt lat="47.1841" lon="0.97162">
        <ele>68.3</ele>
        <time>2020-07-03T12:15:00Z</time>
      </trkpt>
      <trkpt lat="47.18406" lon="0.97157">
        <ele>68.3</ele>
        <time>2020-07-03T12:15:01Z</time>
      </trkpt>
      <trkpt lat="47.18401" lon="0.97151">
        <ele>68.3</ele>
        <time>2020-07-03T12:15:02Z</time>
      </trkpt>
      <trkpt lat="47.18396" lon="0.97144">
        <ele>68.3</ele>
        <time>2020-07-03T12:15:03Z</time>
      </trkpt>
      <trkpt lat="47.18392" lon="0.97139">
        <ele>68.3</ele>
        <time>2020-07-03T12:15:04Z</time>
      </trkpt>
      <trkpt lat="47.18388" lon="0.97134">
        <ele>68.3</ele>
        <time>2020-07-03T12:15:05Z</time>
      </trkpt>
      <trkpt lat="47.18384" lon="0.97128">
        <ele>68.3</ele>
        <time>2020-07-03T12:15:06Z</time>
      </trkpt>
      <trkpt lat="47.1838" lon="0.97123">
        <ele>68.2</ele>
        <time>2020-07-03T12:15:07Z</time>
      </trkpt>
      <trkpt lat="47.18375" lon="0.97118">
        <ele>68.2</ele>
        <time>2020-07-03T12:15:08Z</time>
      </trkpt>
      <trkpt lat="47.18371" lon="0.97112">
        <ele>68.3</ele>
        <time>2020-07-03T12:15:09Z</time>
      </trkpt>
      <trkpt lat="47.18367" lon="0.97107">
        <ele>68.3</ele>
        <time>2020-07-03T12:15:10Z</time>
      </trkpt>
      <trkpt lat="47.18362" lon="0.97101">
        <ele>68.3</ele>
        <time>2020-07-03T12:15:11Z</time>
      </trkpt>
      <trkpt lat="47.18358" lon="0.97096">
        <ele>68.4</ele>
        <time>2020-07-03T12:15:12Z</time>
      </trkpt>
      <trkpt lat="47.18354" lon="0.9709">
        <ele>68.4</ele>
        <time>2020-07-03T12:15:13Z</time>
      </trkpt>
      <trkpt lat="47.1835" lon="0.97086">
        <ele>68.5</ele>
        <time>2020-07-03T12:15:14Z</time>
      </trkpt>
      <trkpt lat="47.18346" lon="0.9708">
        <ele>68.5</ele>
        <time>2020-07-03T12:15:15Z</time>
      </trkpt>
      <trkpt lat="47.18343" lon="0.97076">
        <ele>68.5</ele>
        <time>2020-07-03T12:15:16Z</time>
      </trkpt>
      <trkpt lat="47.1834" lon="0.97071">
        <ele>68.6</ele>
        <time>2020-07-03T12:15:17Z</time>
      </trkpt>
      <trkpt lat="47.18335" lon="0.97065">
        <ele>68.6</ele>
        <time>2020-07-03T12:15:18Z</time>
      </trkpt>
      <trkpt lat="47.18331" lon="0.97058">
        <ele>68.6</ele>
        <time>2020-07-03T12:15:19Z</time>
      </trkpt>
      <trkpt lat="47.18326" lon="0.9705">
        <ele>68.6</ele>
        <time>2020-07-03T12:15:20Z</time>
      </trkpt>
      <trkpt lat="47.18321" lon="0.97046">
        <ele>68.7</ele>
        <time>2020-07-03T12:15:21Z</time>
      </trkpt>
      <trkpt lat="47.18317" lon="0.9704">
        <ele>68.7</ele>
        <time>2020-07-03T12:15:22Z</time>
      </trkpt>
      <trkpt lat="47.18313" lon="0.97036">
        <ele>68.7</ele>
        <time>2020-07-03T12:15:23Z</time>
      </trkpt>
      <trkpt lat="47.18308" lon="0.97031">
        <ele>68.7</ele>
        <time>2020-07-03T12:15:24Z</time>
      </trkpt>
      <trkpt lat="47.18304" lon="0.97025">
        <ele>68.7</ele>
        <time>2020-07-03T12:15:25Z</time>
      </trkpt>
      <trkpt lat="47.183" lon="0.9702">
        <ele>68.8</ele>
        <time>2020-07-03T12:15:26Z</time>
      </trkpt>
      <trkpt lat="47.18296" lon="0.97014">
        <ele>68.8</ele>
        <time>2020-07-03T12:15:27Z</time>
      </trkpt>
      <trkpt lat="47.18292" lon="0.97008">
        <ele>68.8</ele>
        <time>2020-07-03T12:15:28Z</time>
      </trkpt>
      <trkpt lat="47.18288" lon="0.97002">
        <ele>68.9</ele>
        <time>2020-07-03T12:15:29Z</time>
      </trkpt>
      <trkpt lat="47.18284" lon="0.96997">
        <ele>69</ele>
        <time>2020-07-03T12:15:30Z</time>
      </trkpt>
      <trkpt lat="47.18279" lon="0.9699">
        <ele>68.8</ele>
        <time>2020-07-03T12:15:31Z</time>
      </trkpt>
      <trkpt lat="47.18275" lon="0.96982">
        <ele>68.8</ele>
        <time>2020-07-03T12:15:32Z</time>
      </trkpt>
      <trkpt lat="47.18271" lon="0.96974">
        <ele>68.8</ele>
        <time>2020-07-03T12:15:33Z</time>
      </trkpt>
      <trkpt lat="47.18267" lon="0.96967">
        <ele>68.9</ele>
        <time>2020-07-03T12:15:34Z</time>
      </trkpt>
      <trkpt lat="47.18263" lon="0.96959">
        <ele>69</ele>
        <time>2020-07-03T12:15:35Z</time>
      </trkpt>
      <trkpt lat="47.1826" lon="0.96953">
        <ele>69.2</ele>
        <time>2020-07-03T12:15:36Z</time>
      </trkpt>
      <trkpt lat="47.18258" lon="0.96947">
        <ele>69.4</ele>
        <time>2020-07-03T12:15:37Z</time>
      </trkpt>
      <trkpt lat="47.18255" lon="0.9694">
        <ele>69.6</ele>
        <time>2020-07-03T12:15:38Z</time>
      </trkpt>
      <trkpt lat="47.18252" lon="0.96934">
        <ele>69.8</ele>
        <time>2020-07-03T12:15:39Z</time>
      </trkpt>
      <trkpt lat="47.18249" lon="0.96928">
        <ele>70.1</ele>
        <time>2020-07-03T12:15:40Z</time>
      </trkpt>
      <trkpt lat="47.18247" lon="0.96924">
        <ele>70.3</ele>
        <time>2020-07-03T12:15:41Z</time>
      </trkpt>
      <trkpt lat="47.18245" lon="0.96921">
        <ele>70.5</ele>
        <time>2020-07-03T12:15:42Z</time>
      </trkpt>
      <trkpt lat="47.18243" lon="0.96915">
        <ele>70.7</ele>
        <time>2020-07-03T12:15:43Z</time>
      </trkpt>
      <trkpt lat="47.18241" lon="0.96911">
        <ele>70.9</ele>
        <time>2020-07-03T12:15:44Z</time>
      </trkpt>
      <trkpt lat="47.1824" lon="0.96907">
        <ele>71.1</ele>
        <time>2020-07-03T12:15:45Z</time>
      </trkpt>
      <trkpt lat="47.18239" lon="0.96906">
        <ele>71.2</ele>
        <time>2020-07-03T12:15:46Z</time>
      </trkpt>
      <trkpt lat="47.18236" lon="0.96901">
        <ele>71.5</ele>
        <time>2020-07-03T12:15:47Z</time>
      </trkpt>
      <trkpt lat="47.18234" lon="0.96896">
        <ele>71.9</ele>
        <time>2020-07-03T12:15:48Z</time>
      </trkpt>
      <trkpt lat="47.18231" lon="0.96892">
        <ele>72.1</ele>
        <time>2020-07-03T12:15:49Z</time>
      </trkpt>
      <trkpt lat="47.18228" lon="0.96889">
        <ele>72.4</ele>
        <time>2020-07-03T12:15:50Z</time>
      </trkpt>
      <trkpt lat="47.18227" lon="0.96887">
        <ele>72.5</ele>
        <time>2020-07-03T12:15:51Z</time>
      </trkpt>
      <trkpt lat="47.18226" lon="0.96884">
        <ele>72.7</ele>
        <time>2020-07-03T12:15:52Z</time>
      </trkpt>
      <trkpt lat="47.18224" lon="0.9688">
        <ele>73</ele>
        <time>2020-07-03T12:15:53Z</time>
      </trkpt>
      <trkpt lat="47.18222" lon="0.96877">
        <ele>73.2</ele>
        <time>2020-07-03T12:15:54Z</time>
      </trkpt>
      <trkpt lat="47.1822" lon="0.96875">
        <ele>73.4</ele>
        <time>2020-07-03T12:15:55Z</time>
      </trkpt>
      <trkpt lat="47.18219" lon="0.96873">
        <ele>73.5</ele>
        <time>2020-07-03T12:15:56Z</time>
      </trkpt>
      <trkpt lat="47.18218" lon="0.96872">
        <ele>73.6</ele>
        <time>2020-07-03T12:15:57Z</time>
      </trkpt>
      <trkpt lat="47.18216" lon="0.9687">
        <ele>73.8</ele>
        <time>2020-07-03T12:15:58Z</time>
      </trkpt>
      <trkpt lat="47.18214" lon="0.96866">
        <ele>74</ele>
        <time>2020-07-03T12:15:59Z</time>
      </trkpt>
      <trkpt lat="47.18212" lon="0.96863">
        <ele>74.3</ele>
        <time>2020-07-03T12:16:00Z</time>
      </trkpt>
      <trkpt lat="47.18212" lon="0.96862">
        <ele>74.3</ele>
        <time>2020-07-03T12:16:01Z</time>
      </trkpt>
      <trkpt lat="47.1821" lon="0.96858">
        <ele>74.6</ele>
        <time>2020-07-03T12:16:02Z</time>
      </trkpt>
      <trkpt lat="47.18208" lon="0.96856">
        <ele>74.8</ele>
        <time>2020-07-03T12:16:03Z</time>
      </trkpt>
      <trkpt lat="47.18204" lon="0.96852">
        <ele>75.1</ele>
        <time>2020-07-03T12:16:04Z</time>
      </trkpt>
      <trkpt lat="47.18203" lon="0.9685">
        <ele>75.3</ele>
        <time>2020-07-03T12:16:05Z</time>
      </trkpt>
      <trkpt lat="47.182" lon="0.96847">
        <ele>75.5</ele>
        <time>2020-07-03T12:16:06Z</time>
      </trkpt>
      <trkpt lat="47.18198" lon="0.96843">
        <ele>75.8</ele>
        <time>2020-07-03T12:16:07Z</time>
      </trkpt>
      <trkpt lat="47.18198" lon="0.96842">
        <ele>75.8</ele>
        <time>2020-07-03T12:16:08Z</time>
      </trkpt>
      <trkpt lat="47.18196" lon="0.96838">
        <ele>76.1</ele>
        <time>2020-07-03T12:16:09Z</time>
      </trkpt>
      <trkpt lat="47.18195" lon="0.96834">
        <ele>76.3</ele>
        <time>2020-07-03T12:16:10Z</time>
      </trkpt>
      <trkpt lat="47.18193" lon="0.9683">
        <ele>76.6</ele>
        <time>2020-07-03T12:16:11Z</time>
      </trkpt>
      <trkpt lat="47.18192" lon="0.96829">
        <ele>76.7</ele>
        <time>2020-07-03T12:16:12Z</time>
      </trkpt>
      <trkpt lat="47.18191" lon="0.96823">
        <ele>77</ele>
        <time>2020-07-03T12:16:13Z</time>
      </trkpt>
      <trkpt lat="47.1819" lon="0.96818">
        <ele>77.2</ele>
        <time>2020-07-03T12:16:14Z</time>
      </trkpt>
      <trkpt lat="47.18189" lon="0.96816">
        <ele>77.3</ele>
        <time>2020-07-03T12:16:15Z</time>
      </trkpt>
      <trkpt lat="47.18189" lon="0.9681">
        <ele>77.6</ele>
        <time>2020-07-03T12:16:16Z</time>
      </trkpt>
      <trkpt lat="47.18189" lon="0.96808">
        <ele>77.7</ele>
        <time>2020-07-03T12:16:17Z</time>
      </trkpt>
      <trkpt lat="47.18188" lon="0.96804">
        <ele>77.9</ele>
        <time>2020-07-03T12:16:18Z</time>
      </trkpt>
      <trkpt lat="47.18187" lon="0.96803">
        <ele>78</ele>
        <time>2020-07-03T12:16:19Z</time>
      </trkpt>
      <trkpt lat="47.18184" lon="0.96799">
        <ele>78.3</ele>
        <time>2020-07-03T12:16:20Z</time>
      </trkpt>
      <trkpt lat="47.18183" lon="0.96799">
        <ele>78.3</ele>
        <time>2020-07-03T12:16:21Z</time>
      </trkpt>
      <trkpt lat="47.18181" lon="0.96795">
        <ele>78.4</ele>
        <time>2020-07-03T12:16:22Z</time>
      </trkpt>
      <trkpt lat="47.18179" lon="0.96792">
        <ele>78.4</ele>
        <time>2020-07-03T12:16:23Z</time>
      </trkpt>
      <trkpt lat="47.18176" lon="0.96791">
        <ele>78.5</ele>
        <time>2020-07-03T12:16:24Z</time>
      </trkpt>
      <trkpt lat="47.18174" lon="0.96788">
        <ele>78.5</ele>
        <time>2020-07-03T12:16:25Z</time>
      </trkpt>
      <trkpt lat="47.18171" lon="0.96783">
        <ele>78.6</ele>
        <time>2020-07-03T12:16:26Z</time>
      </trkpt>
      <trkpt lat="47.1817" lon="0.96781">
        <ele>78.6</ele>
        <time>2020-07-03T12:16:27Z</time>
      </trkpt>
      <trkpt lat="47.18168" lon="0.96777">
        <ele>78.7</ele>
        <time>2020-07-03T12:16:28Z</time>
      </trkpt>
      <trkpt lat="47.18165" lon="0.96774">
        <ele>78.8</ele>
        <time>2020-07-03T12:16:29Z</time>
      </trkpt>
      <trkpt lat="47.18162" lon="0.96771">
        <ele>78.8</ele>
        <time>2020-07-03T12:16:30Z</time>
      </trkpt>
      <trkpt lat="47.1816" lon="0.96768">
        <ele>78.9</ele>
        <time>2020-07-03T12:16:31Z</time>
      </trkpt>
      <trkpt lat="47.18157" lon="0.96766">
        <ele>79</ele>
        <time>2020-07-03T12:16:32Z</time>
      </trkpt>
      <trkpt lat="47.18153" lon="0.96765">
        <ele>79.1</ele>
        <time>2020-07-03T12:16:33Z</time>
      </trkpt>
      <trkpt lat="47.1815" lon="0.96762">
        <ele>79.2</ele>
        <time>2020-07-03T12:16:34Z</time>
      </trkpt>
      <trkpt lat="47.18147" lon="0.96761">
        <ele>79.3</ele>
        <time>2020-07-03T12:16:35Z</time>
      </trkpt>
      <trkpt lat="47.18143" lon="0.96759">
        <ele>79.4</ele>
        <time>2020-07-03T12:16:36Z</time>
      </trkpt>
      <trkpt lat="47.1814" lon="0.96757">
        <ele>79.4</ele>
        <time>2020-07-03T12:16:37Z</time>
      </trkpt>
      <trkpt lat="47.18137" lon="0.96755">
        <ele>79.6</ele>
        <time>2020-07-03T12:16:38Z</time>
      </trkpt>
      <trkpt lat="47.18134" lon="0.96755">
        <ele>79.8</ele>
        <time>2020-07-03T12:16:39Z</time>
      </trkpt>
      <trkpt lat="47.18129" lon="0.96757">
        <ele>80.1</ele>
        <time>2020-07-03T12:16:40Z</time>
      </trkpt>
      <trkpt lat="47.18126" lon="0.9676">
        <ele>80.2</ele>
        <time>2020-07-03T12:16:41Z</time>
      </trkpt>
      <trkpt lat="47.18122" lon="0.96762">
        <ele>80.2</ele>
        <time>2020-07-03T12:16:42Z</time>
      </trkpt>
      <trkpt lat="47.18118" lon="0.96765">
        <ele>80.3</ele>
        <time>2020-07-03T12:16:43Z</time>
      </trkpt>
      <trkpt lat="47.18115" lon="0.96769">
        <ele>80.3</ele>
        <time>2020-07-03T12:16:44Z</time>
      </trkpt>
      <trkpt lat="47.18112" lon="0.96771">
        <ele>80.3</ele>
        <time>2020-07-03T12:16:45Z</time>
      </trkpt>
      <trkpt lat="47.18109" lon="0.96775">
        <ele>80.3</ele>
        <time>2020-07-03T12:16:46Z</time>
      </trkpt>
      <trkpt lat="47.18106" lon="0.96778">
        <ele>80.3</ele>
        <time>2020-07-03T12:16:47Z</time>
      </trkpt>
      <trkpt lat="47.18102" lon="0.96782">
        <ele>80.3</ele>
        <time>2020-07-03T12:16:48Z</time>
      </trkpt>
      <trkpt lat="47.18099" lon="0.96785">
        <ele>80.2</ele>
        <time>2020-07-03T12:16:49Z</time>
      </trkpt>
      <trkpt lat="47.18097" lon="0.96789">
        <ele>80.2</ele>
        <time>2020-07-03T12:16:50Z</time>
      </trkpt>
      <trkpt lat="47.18094" lon="0.96794">
        <ele>80.1</ele>
        <time>2020-07-03T12:16:51Z</time>
      </trkpt>
      <trkpt lat="47.18092" lon="0.96799">
        <ele>80.1</ele>
        <time>2020-07-03T12:16:52Z</time>
      </trkpt>
      <trkpt lat="47.18089" lon="0.96803">
        <ele>80</ele>
        <time>2020-07-03T12:16:53Z</time>
      </trkpt>
      <trkpt lat="47.18085" lon="0.96807">
        <ele>80</ele>
        <time>2020-07-03T12:16:54Z</time>
      </trkpt>
      <trkpt lat="47.18082" lon="0.96814">
        <ele>79.9</ele>
        <time>2020-07-03T12:16:55Z</time>
      </trkpt>
      <trkpt lat="47.18079" lon="0.96819">
        <ele>79.8</ele>
        <time>2020-07-03T12:16:56Z</time>
      </trkpt>
      <trkpt lat="47.18075" lon="0.96826">
        <ele>79.7</ele>
        <time>2020-07-03T12:16:57Z</time>
      </trkpt>
      <trkpt lat="47.18072" lon="0.96832">
        <ele>79.5</ele>
        <time>2020-07-03T12:16:58Z</time>
      </trkpt>
      <trkpt lat="47.18069" lon="0.96838">
        <ele>79.3</ele>
        <time>2020-07-03T12:16:59Z</time>
      </trkpt>
      <trkpt lat="47.18065" lon="0.96845">
        <ele>79</ele>
        <time>2020-07-03T12:17:00Z</time>
      </trkpt>
      <trkpt lat="47.18062" lon="0.96853">
        <ele>78.8</ele>
        <time>2020-07-03T12:17:01Z</time>
      </trkpt>
      <trkpt lat="47.18059" lon="0.9686">
        <ele>78.6</ele>
        <time>2020-07-03T12:17:02Z</time>
      </trkpt>
      <trkpt lat="47.18055" lon="0.96868">
        <ele>78.4</ele>
        <time>2020-07-03T12:17:03Z</time>
      </trkpt>
      <trkpt lat="47.18052" lon="0.96875">
        <ele>78.3</ele>
        <time>2020-07-03T12:17:04Z</time>
      </trkpt>
      <trkpt lat="47.18048" lon="0.96882">
        <ele>78.1</ele>
        <time>2020-07-03T12:17:05Z</time>
      </trkpt>
      <trkpt lat="47.18044" lon="0.96889">
        <ele>78</ele>
        <time>2020-07-03T12:17:06Z</time>
      </trkpt>
      <trkpt lat="47.18039" lon="0.96896">
        <ele>77.9</ele>
        <time>2020-07-03T12:17:07Z</time>
      </trkpt>
      <trkpt lat="47.18034" lon="0.96901">
        <ele>77.9</ele>
        <time>2020-07-03T12:17:08Z</time>
      </trkpt>
      <trkpt lat="47.1803" lon="0.96906">
        <ele>77.8</ele>
        <time>2020-07-03T12:17:09Z</time>
      </trkpt>
      <trkpt lat="47.18027" lon="0.96909">
        <ele>77.8</ele>
        <time>2020-07-03T12:17:10Z</time>
      </trkpt>
      <trkpt lat="47.18026" lon="0.96913">
        <ele>77.8</ele>
        <time>2020-07-03T12:17:11Z</time>
      </trkpt>
      <trkpt lat="47.18028" lon="0.96914">
        <ele>77.8</ele>
        <time>2020-07-03T12:17:12Z</time>
      </trkpt>
      <trkpt lat="47.18028" lon="0.96912">
        <ele>77.8</ele>
        <time>2020-07-03T12:17:13Z</time>
      </trkpt>
      <trkpt lat="47.18029" lon="0.96907">
        <ele>77.9</ele>
        <time>2020-07-03T12:17:14Z</time>
      </trkpt>
      <trkpt lat="47.1803" lon="0.96905">
        <ele>77.9</ele>
        <time>2020-07-03T12:17:15Z</time>
      </trkpt>
      <trkpt lat="47.18032" lon="0.96903">
        <ele>77.9</ele>
        <time>2020-07-03T12:17:16Z</time>
      </trkpt>
      <trkpt lat="47.18034" lon="0.969">
        <ele>78</ele>
        <time>2020-07-03T12:17:17Z</time>
      </trkpt>
      <trkpt lat="47.18037" lon="0.96896">
        <ele>78</ele>
        <time>2020-07-03T12:17:18Z</time>
      </trkpt>
      <trkpt lat="47.1804" lon="0.96893">
        <ele>78.1</ele>
        <time>2020-07-03T12:17:19Z</time>
      </trkpt>
      <trkpt lat="47.18042" lon="0.96889">
        <ele>78.1</ele>
        <time>2020-07-03T12:17:20Z</time>
      </trkpt>
      <trkpt lat="47.18044" lon="0.96884">
        <ele>78.2</ele>
        <time>2020-07-03T12:17:21Z</time>
      </trkpt>
      <trkpt lat="47.18046" lon="0.96879">
        <ele>78.3</ele>
        <time>2020-07-03T12:17:22Z</time>
      </trkpt>
      <trkpt lat="47.18049" lon="0.96875">
        <ele>78.4</ele>
        <time>2020-07-03T12:17:23Z</time>
      </trkpt>
      <trkpt lat="47.18053" lon="0.96869">
        <ele>78.5</ele>
        <time>2020-07-03T12:17:24Z</time>
      </trkpt>
      <trkpt lat="47.18056" lon="0.96864">
        <ele>78.6</ele>
        <time>2020-07-03T12:17:25Z</time>
      </trkpt>
      <trkpt lat="47.18061" lon="0.96859">
        <ele>78.8</ele>
        <time>2020-07-03T12:17:26Z</time>
      </trkpt>
      <trkpt lat="47.18064" lon="0.96855">
        <ele>79</ele>
        <time>2020-07-03T12:17:27Z</time>
      </trkpt>
      <trkpt lat="47.18067" lon="0.9685">
        <ele>79.2</ele>
        <time>2020-07-03T12:17:28Z</time>
      </trkpt>
      <trkpt lat="47.1807" lon="0.96846">
        <ele>79.3</ele>
        <time>2020-07-03T12:17:29Z</time>
      </trkpt>
      <trkpt lat="47.18073" lon="0.96839">
        <ele>79.5</ele>
        <time>2020-07-03T12:17:30Z</time>
      </trkpt>
      <trkpt lat="47.18075" lon="0.96834">
        <ele>79.6</ele>
        <time>2020-07-03T12:17:31Z</time>
      </trkpt>
      <trkpt lat="47.18077" lon="0.9683">
        <ele>79.7</ele>
        <time>2020-07-03T12:17:32Z</time>
      </trkpt>
      <trkpt lat="47.18079" lon="0.96827">
        <ele>79.8</ele>
        <time>2020-07-03T12:17:33Z</time>
      </trkpt>
      <trkpt lat="47.1808" lon="0.96823">
        <ele>79.9</ele>
        <time>2020-07-03T12:17:34Z</time>
      </trkpt>
      <trkpt lat="47.18082" lon="0.96819">
        <ele>79.9</ele>
        <time>2020-07-03T12:17:35Z</time>
      </trkpt>
      <trkpt lat="47.18083" lon="0.96815">
        <ele>79.9</ele>
        <time>2020-07-03T12:17:36Z</time>
      </trkpt>
      <trkpt lat="47.18084" lon="0.96811">
        <ele>80</ele>
        <time>2020-07-03T12:17:37Z</time>
      </trkpt>
      <trkpt lat="47.18086" lon="0.96807">
        <ele>80</ele>
        <time>2020-07-03T12:17:38Z</time>
      </trkpt>
      <trkpt lat="47.18088" lon="0.96804">
        <ele>80</ele>
        <time>2020-07-03T12:17:39Z</time>
      </trkpt>
      <trkpt lat="47.1809" lon="0.96802">
        <ele>80.1</ele>
        <time>2020-07-03T12:17:40Z</time>
      </trkpt>
      <trkpt lat="47.18093" lon="0.96799">
        <ele>80.1</ele>
        <time>2020-07-03T12:17:41Z</time>
      </trkpt>
      <trkpt lat="47.18095" lon="0.96796">
        <ele>80.2</ele>
        <time>2020-07-03T12:17:42Z</time>
      </trkpt>
      <trkpt lat="47.18096" lon="0.96795">
        <ele>80.2</ele>
        <time>2020-07-03T12:17:43Z</time>
      </trkpt>
      <trkpt lat="47.181" lon="0.96791">
        <ele>80.2</ele>
        <time>2020-07-03T12:17:44Z</time>
      </trkpt>
      <trkpt lat="47.18101" lon="0.96789">
        <ele>80.2</ele>
        <time>2020-07-03T12:17:45Z</time>
      </trkpt>
      <trkpt lat="47.18104" lon="0.96785">
        <ele>80.3</ele>
        <time>2020-07-03T12:17:46Z</time>
      </trkpt>
      <trkpt lat="47.18107" lon="0.96781">
        <ele>80.3</ele>
        <time>2020-07-03T12:17:47Z</time>
      </trkpt>
      <trkpt lat="47.18109" lon="0.96777">
        <ele>80.3</ele>
        <time>2020-07-03T12:17:48Z</time>
      </trkpt>
      <trkpt lat="47.18111" lon="0.96772">
        <ele>80.3</ele>
        <time>2020-07-03T12:17:49Z</time>
      </trkpt>
      <trkpt lat="47.18114" lon="0.96768">
        <ele>80.3</ele>
        <time>2020-07-03T12:17:50Z</time>
      </trkpt>
      <trkpt lat="47.18117" lon="0.96763">
        <ele>80.3</ele>
        <time>2020-07-03T12:17:51Z</time>
      </trkpt>
      <trkpt lat="47.18121" lon="0.9676">
        <ele>80.3</ele>
        <time>2020-07-03T12:17:52Z</time>
      </trkpt>
      <trkpt lat="47.18124" lon="0.96757">
        <ele>80.2</ele>
        <time>2020-07-03T12:17:53Z</time>
      </trkpt>
      <trkpt lat="47.18127" lon="0.96754">
        <ele>80.2</ele>
        <time>2020-07-03T12:17:54Z</time>
      </trkpt>
      <trkpt lat="47.18129" lon="0.96752">
        <ele>80.1</ele>
        <time>2020-07-03T12:17:55Z</time>
      </trkpt>
      <trkpt lat="47.18132" lon="0.96751">
        <ele>79.6</ele>
        <time>2020-07-03T12:17:56Z</time>
      </trkpt>
      <trkpt lat="47.18134" lon="0.96748">
        <ele>79.6</ele>
        <time>2020-07-03T12:17:57Z</time>
      </trkpt>
      <trkpt lat="47.18136" lon="0.96746">
        <ele>79.7</ele>
        <time>2020-07-03T12:17:58Z</time>
      </trkpt>
      <trkpt lat="47.18136" lon="0.96745">
        <ele>79.7</ele>
        <time>2020-07-03T12:17:59Z</time>
      </trkpt>
      <trkpt lat="47.18137" lon="0.96743">
        <ele>79.7</ele>
        <time>2020-07-03T12:18:00Z</time>
      </trkpt>
      <trkpt lat="47.18135" lon="0.9674">
        <ele>79.8</ele>
        <time>2020-07-03T12:18:01Z</time>
      </trkpt>
      <trkpt lat="47.18133" lon="0.96736">
        <ele>79.9</ele>
        <time>2020-07-03T12:18:02Z</time>
      </trkpt>
      <trkpt lat="47.18131" lon="0.96732">
        <ele>80</ele>
        <time>2020-07-03T12:18:03Z</time>
      </trkpt>
      <trkpt lat="47.1813" lon="0.96731">
        <ele>80</ele>
        <time>2020-07-03T12:18:04Z</time>
      </trkpt>
      <trkpt lat="47.18129" lon="0.96727">
        <ele>80.1</ele>
        <time>2020-07-03T12:18:05Z</time>
      </trkpt>
      <trkpt lat="47.18126" lon="0.96721">
        <ele>80.2</ele>
        <time>2020-07-03T12:18:06Z</time>
      </trkpt>
      <trkpt lat="47.18125" lon="0.96719">
        <ele>80.2</ele>
        <time>2020-07-03T12:18:07Z</time>
      </trkpt>
      <trkpt lat="47.18123" lon="0.96715">
        <ele>80.3</ele>
        <time>2020-07-03T12:18:08Z</time>
      </trkpt>
      <trkpt lat="47.18121" lon="0.9671">
        <ele>80.4</ele>
        <time>2020-07-03T12:18:09Z</time>
      </trkpt>
      <trkpt lat="47.1812" lon="0.96704">
        <ele>80.5</ele>
        <time>2020-07-03T12:18:10Z</time>
      </trkpt>
      <trkpt lat="47.18119" lon="0.967">
        <ele>80.6</ele>
        <time>2020-07-03T12:18:11Z</time>
      </trkpt>
      <trkpt lat="47.18117" lon="0.96695">
        <ele>80.8</ele>
        <time>2020-07-03T12:18:12Z</time>
      </trkpt>
      <trkpt lat="47.18115" lon="0.96689">
        <ele>80.9</ele>
        <time>2020-07-03T12:18:13Z</time>
      </trkpt>
      <trkpt lat="47.18113" lon="0.96684">
        <ele>81.1</ele>
        <time>2020-07-03T12:18:14Z</time>
      </trkpt>
      <trkpt lat="47.18112" lon="0.9668">
        <ele>81.2</ele>
        <time>2020-07-03T12:18:15Z</time>
      </trkpt>
      <trkpt lat="47.1811" lon="0.96675">
        <ele>81.3</ele>
        <time>2020-07-03T12:18:16Z</time>
      </trkpt>
      <trkpt lat="47.18108" lon="0.9667">
        <ele>81.5</ele>
        <time>2020-07-03T12:18:17Z</time>
      </trkpt>
      <trkpt lat="47.18108" lon="0.96669">
        <ele>81.5</ele>
        <time>2020-07-03T12:18:18Z</time>
      </trkpt>
      <trkpt lat="47.18107" lon="0.96664">
        <ele>81.6</ele>
        <time>2020-07-03T12:18:19Z</time>
      </trkpt>
      <trkpt lat="47.18106" lon="0.96662">
        <ele>81.7</ele>
        <time>2020-07-03T12:18:20Z</time>
      </trkpt>
      <trkpt lat="47.18104" lon="0.96658">
        <ele>81.8</ele>
        <time>2020-07-03T12:18:21Z</time>
      </trkpt>
      <trkpt lat="47.18102" lon="0.96653">
        <ele>81.9</ele>
        <time>2020-07-03T12:18:22Z</time>
      </trkpt>
      <trkpt lat="47.181" lon="0.96649">
        <ele>82</ele>
        <time>2020-07-03T12:18:23Z</time>
      </trkpt>
      <trkpt lat="47.18098" lon="0.96645">
        <ele>82</ele>
        <time>2020-07-03T12:18:24Z</time>
      </trkpt>
      <trkpt lat="47.18096" lon="0.96642">
        <ele>82.1</ele>
        <time>2020-07-03T12:18:25Z</time>
      </trkpt>
      <trkpt lat="47.18093" lon="0.96639">
        <ele>82.1</ele>
        <time>2020-07-03T12:18:26Z</time>
      </trkpt>
      <trkpt lat="47.1809" lon="0.96635">
        <ele>82.2</ele>
        <time>2020-07-03T12:18:27Z</time>
      </trkpt>
      <trkpt lat="47.18088" lon="0.9663">
        <ele>82.3</ele>
        <time>2020-07-03T12:18:28Z</time>
      </trkpt>
      <trkpt lat="47.18086" lon="0.96624">
        <ele>82.4</ele>
        <time>2020-07-03T12:18:29Z</time>
      </trkpt>
      <trkpt lat="47.18085" lon="0.9662">
        <ele>82.4</ele>
        <time>2020-07-03T12:18:30Z</time>
      </trkpt>
      <trkpt lat="47.18084" lon="0.96615">
        <ele>82.5</ele>
        <time>2020-07-03T12:18:31Z</time>
      </trkpt>
      <trkpt lat="47.18081" lon="0.9661">
        <ele>82.7</ele>
        <time>2020-07-03T12:18:32Z</time>
      </trkpt>
      <trkpt lat="47.18081" lon="0.96607">
        <ele>82.7</ele>
        <time>2020-07-03T12:18:33Z</time>
      </trkpt>
      <trkpt lat="47.18079" lon="0.96602">
        <ele>82.9</ele>
        <time>2020-07-03T12:18:34Z</time>
      </trkpt>
      <trkpt lat="47.18079" lon="0.96601">
        <ele>82.9</ele>
        <time>2020-07-03T12:18:35Z</time>
      </trkpt>
      <trkpt lat="47.18078" lon="0.96596">
        <ele>83.1</ele>
        <time>2020-07-03T12:18:36Z</time>
      </trkpt>
      <trkpt lat="47.18077" lon="0.96594">
        <ele>83.1</ele>
        <time>2020-07-03T12:18:37Z</time>
      </trkpt>
      <trkpt lat="47.18077" lon="0.96589">
        <ele>83.4</ele>
        <time>2020-07-03T12:18:38Z</time>
      </trkpt>
      <trkpt lat="47.18077" lon="0.96587">
        <ele>83.5</ele>
        <time>2020-07-03T12:18:39Z</time>
      </trkpt>
      <trkpt lat="47.18076" lon="0.96582">
        <ele>83.7</ele>
        <time>2020-07-03T12:18:40Z</time>
      </trkpt>
      <trkpt lat="47.18076" lon="0.96576">
        <ele>84</ele>
        <time>2020-07-03T12:18:41Z</time>
      </trkpt>
      <trkpt lat="47.18076" lon="0.96571">
        <ele>84.2</ele>
        <time>2020-07-03T12:18:42Z</time>
      </trkpt>
      <trkpt lat="47.18077" lon="0.96567">
        <ele>84.3</ele>
        <time>2020-07-03T12:18:43Z</time>
      </trkpt>
      <trkpt lat="47.18078" lon="0.96562">
        <ele>84.5</ele>
        <time>2020-07-03T12:18:44Z</time>
      </trkpt>
      <trkpt lat="47.18079" lon="0.96557">
        <ele>84.6</ele>
        <time>2020-07-03T12:18:45Z</time>
      </trkpt>
      <trkpt lat="47.1808" lon="0.96553">
        <ele>84.7</ele>
        <time>2020-07-03T12:18:46Z</time>
      </trkpt>
      <trkpt lat="47.1808" lon="0.96549">
        <ele>84.9</ele>
        <time>2020-07-03T12:18:47Z</time>
      </trkpt>
      <trkpt lat="47.18081" lon="0.96543">
        <ele>85</ele>
        <time>2020-07-03T12:18:48Z</time>
      </trkpt>
      <trkpt lat="47.18082" lon="0.96541">
        <ele>85.1</ele>
        <time>2020-07-03T12:18:49Z</time>
      </trkpt>
      <trkpt lat="47.18081" lon="0.96536">
        <ele>85.2</ele>
        <time>2020-07-03T12:18:50Z</time>
      </trkpt>
      <trkpt lat="47.18081" lon="0.96531">
        <ele>85.4</ele>
        <time>2020-07-03T12:18:51Z</time>
      </trkpt>
      <trkpt lat="47.18081" lon="0.96529">
        <ele>85.4</ele>
        <time>2020-07-03T12:18:52Z</time>
      </trkpt>
      <trkpt lat="47.18083" lon="0.96524">
        <ele>85.6</ele>
        <time>2020-07-03T12:18:53Z</time>
      </trkpt>
      <trkpt lat="47.18083" lon="0.96521">
        <ele>85.7</ele>
        <time>2020-07-03T12:18:54Z</time>
      </trkpt>
      <trkpt lat="47.18084" lon="0.96516">
        <ele>85.9</ele>
        <time>2020-07-03T12:18:55Z</time>
      </trkpt>
      <trkpt lat="47.18084" lon="0.96514">
        <ele>85.9</ele>
        <time>2020-07-03T12:18:56Z</time>
      </trkpt>
      <trkpt lat="47.18085" lon="0.96509">
        <ele>86.1</ele>
        <time>2020-07-03T12:18:57Z</time>
      </trkpt>
      <trkpt lat="47.18085" lon="0.96507">
        <ele>86.2</ele>
        <time>2020-07-03T12:18:58Z</time>
      </trkpt>
      <trkpt lat="47.18087" lon="0.96502">
        <ele>86.3</ele>
        <time>2020-07-03T12:18:59Z</time>
      </trkpt>
      <trkpt lat="47.18087" lon="0.96498">
        <ele>86.5</ele>
        <time>2020-07-03T12:19:00Z</time>
      </trkpt>
      <trkpt lat="47.18088" lon="0.96494">
        <ele>86.6</ele>
        <time>2020-07-03T12:19:01Z</time>
      </trkpt>
      <trkpt lat="47.18089" lon="0.96487">
        <ele>86.8</ele>
        <time>2020-07-03T12:19:02Z</time>
      </trkpt>
      <trkpt lat="47.18089" lon="0.96483">
        <ele>87</ele>
        <time>2020-07-03T12:19:03Z</time>
      </trkpt>
      <trkpt lat="47.18089" lon="0.96481">
        <ele>87</ele>
        <time>2020-07-03T12:19:04Z</time>
      </trkpt>
      <trkpt lat="47.1809" lon="0.96478">
        <ele>87.2</ele>
        <time>2020-07-03T12:19:05Z</time>
      </trkpt>
      <trkpt lat="47.1809" lon="0.96476">
        <ele>87.2</ele>
        <time>2020-07-03T12:19:06Z</time>
      </trkpt>
      <trkpt lat="47.18091" lon="0.96471">
        <ele>87.4</ele>
        <time>2020-07-03T12:19:07Z</time>
      </trkpt>
      <trkpt lat="47.18091" lon="0.9647">
        <ele>87.4</ele>
        <time>2020-07-03T12:19:08Z</time>
      </trkpt>
      <trkpt lat="47.18092" lon="0.96466">
        <ele>87.5</ele>
        <time>2020-07-03T12:19:09Z</time>
      </trkpt>
      <trkpt lat="47.18092" lon="0.96465">
        <ele>87.6</ele>
        <time>2020-07-03T12:19:10Z</time>
      </trkpt>
      <trkpt lat="47.18093" lon="0.9646">
        <ele>87.7</ele>
        <time>2020-07-03T12:19:11Z</time>
      </trkpt>
      <trkpt lat="47.18094" lon="0.96454">
        <ele>88</ele>
        <time>2020-07-03T12:19:12Z</time>
      </trkpt>
      <trkpt lat="47.18094" lon="0.96452">
        <ele>88.1</ele>
        <time>2020-07-03T12:19:13Z</time>
      </trkpt>
      <trkpt lat="47.18095" lon="0.96446">
        <ele>88.3</ele>
        <time>2020-07-03T12:19:14Z</time>
      </trkpt>
      <trkpt lat="47.18095" lon="0.96444">
        <ele>88.4</ele>
        <time>2020-07-03T12:19:15Z</time>
      </trkpt>
      <trkpt lat="47.18096" lon="0.96439">
        <ele>88.6</ele>
        <time>2020-07-03T12:19:16Z</time>
      </trkpt>
      <trkpt lat="47.18096" lon="0.96435">
        <ele>88.8</ele>
        <time>2020-07-03T12:19:17Z</time>
      </trkpt>
      <trkpt lat="47.18097" lon="0.9643">
        <ele>89</ele>
        <time>2020-07-03T12:19:18Z</time>
      </trkpt>
      <trkpt lat="47.18097" lon="0.96428">
        <ele>89.1</ele>
        <time>2020-07-03T12:19:19Z</time>
      </trkpt>
      <trkpt lat="47.18098" lon="0.96424">
        <ele>89.2</ele>
        <time>2020-07-03T12:19:20Z</time>
      </trkpt>
      <trkpt lat="47.18099" lon="0.96422">
        <ele>89.3</ele>
        <time>2020-07-03T12:19:21Z</time>
      </trkpt>
      <trkpt lat="47.18099" lon="0.9642">
        <ele>89.4</ele>
        <time>2020-07-03T12:19:22Z</time>
      </trkpt>
      <trkpt lat="47.18099" lon="0.96418">
        <ele>89.4</ele>
        <time>2020-07-03T12:19:23Z</time>
      </trkpt>
      <trkpt lat="47.181" lon="0.96413">
        <ele>89.5</ele>
        <time>2020-07-03T12:19:24Z</time>
      </trkpt>
      <trkpt lat="47.181" lon="0.96411">
        <ele>89.6</ele>
        <time>2020-07-03T12:19:25Z</time>
      </trkpt>
      <trkpt lat="47.18101" lon="0.96406">
        <ele>89.8</ele>
        <time>2020-07-03T12:19:26Z</time>
      </trkpt>
      <trkpt lat="47.18102" lon="0.96404">
        <ele>89.8</ele>
        <time>2020-07-03T12:19:27Z</time>
      </trkpt>
      <trkpt lat="47.18103" lon="0.964">
        <ele>90</ele>
        <time>2020-07-03T12:19:28Z</time>
      </trkpt>
      <trkpt lat="47.18104" lon="0.96395">
        <ele>90.1</ele>
        <time>2020-07-03T12:19:29Z</time>
      </trkpt>
      <trkpt lat="47.18105" lon="0.96394">
        <ele>90.2</ele>
        <time>2020-07-03T12:19:30Z</time>
      </trkpt>
      <trkpt lat="47.18106" lon="0.96389">
        <ele>90.4</ele>
        <time>2020-07-03T12:19:31Z</time>
      </trkpt>
      <trkpt lat="47.18107" lon="0.96383">
        <ele>90.6</ele>
        <time>2020-07-03T12:19:32Z</time>
      </trkpt>
      <trkpt lat="47.18107" lon="0.9638">
        <ele>90.7</ele>
        <time>2020-07-03T12:19:33Z</time>
      </trkpt>
      <trkpt lat="47.18107" lon="0.96376">
        <ele>90.9</ele>
        <time>2020-07-03T12:19:34Z</time>
      </trkpt>
      <trkpt lat="47.18108" lon="0.96372">
        <ele>91.1</ele>
        <time>2020-07-03T12:19:35Z</time>
      </trkpt>
      <trkpt lat="47.18109" lon="0.96367">
        <ele>91.3</ele>
        <time>2020-07-03T12:19:36Z</time>
      </trkpt>
      <trkpt lat="47.18109" lon="0.96362">
        <ele>91.5</ele>
        <time>2020-07-03T12:19:37Z</time>
      </trkpt>
      <trkpt lat="47.18111" lon="0.96358">
        <ele>91.6</ele>
        <time>2020-07-03T12:19:38Z</time>
      </trkpt>
      <trkpt lat="47.18111" lon="0.96354">
        <ele>91.8</ele>
        <time>2020-07-03T12:19:39Z</time>
      </trkpt>
      <trkpt lat="47.18111" lon="0.96353">
        <ele>91.8</ele>
        <time>2020-07-03T12:19:40Z</time>
      </trkpt>
      <trkpt lat="47.18112" lon="0.96348">
        <ele>92</ele>
        <time>2020-07-03T12:19:41Z</time>
      </trkpt>
      <trkpt lat="47.18113" lon="0.96344">
        <ele>92.2</ele>
        <time>2020-07-03T12:19:42Z</time>
      </trkpt>
      <trkpt lat="47.18113" lon="0.9634">
        <ele>92.3</ele>
        <time>2020-07-03T12:19:43Z</time>
      </trkpt>
      <trkpt lat="47.18114" lon="0.96336">
        <ele>92.5</ele>
        <time>2020-07-03T12:19:44Z</time>
      </trkpt>
      <trkpt lat="47.18115" lon="0.96332">
        <ele>92.6</ele>
        <time>2020-07-03T12:19:45Z</time>
      </trkpt>
      <trkpt lat="47.18116" lon="0.96326">
        <ele>92.8</ele>
        <time>2020-07-03T12:19:46Z</time>
      </trkpt>
      <trkpt lat="47.18117" lon="0.96324">
        <ele>92.9</ele>
        <time>2020-07-03T12:19:47Z</time>
      </trkpt>
      <trkpt lat="47.18118" lon="0.9632">
        <ele>93</ele>
        <time>2020-07-03T12:19:48Z</time>
      </trkpt>
      <trkpt lat="47.18118" lon="0.96315">
        <ele>93.2</ele>
        <time>2020-07-03T12:19:49Z</time>
      </trkpt>
      <trkpt lat="47.18119" lon="0.96311">
        <ele>93.3</ele>
        <time>2020-07-03T12:19:50Z</time>
      </trkpt>
      <trkpt lat="47.1812" lon="0.96307">
        <ele>93.4</ele>
        <time>2020-07-03T12:19:51Z</time>
      </trkpt>
      <trkpt lat="47.18122" lon="0.96303">
        <ele>93.6</ele>
        <time>2020-07-03T12:19:52Z</time>
      </trkpt>
      <trkpt lat="47.18123" lon="0.96299">
        <ele>93.7</ele>
        <time>2020-07-03T12:19:53Z</time>
      </trkpt>
      <trkpt lat="47.18123" lon="0.96298">
        <ele>93.7</ele>
        <time>2020-07-03T12:19:54Z</time>
      </trkpt>
      <trkpt lat="47.18124" lon="0.96293">
        <ele>93.8</ele>
        <time>2020-07-03T12:19:55Z</time>
      </trkpt>
      <trkpt lat="47.18125" lon="0.96288">
        <ele>94</ele>
        <time>2020-07-03T12:19:56Z</time>
      </trkpt>
      <trkpt lat="47.18126" lon="0.96284">
        <ele>94.1</ele>
        <time>2020-07-03T12:19:57Z</time>
      </trkpt>
      <trkpt lat="47.18127" lon="0.96279">
        <ele>94.2</ele>
        <time>2020-07-03T12:19:58Z</time>
      </trkpt>
      <trkpt lat="47.18127" lon="0.96274">
        <ele>94.4</ele>
        <time>2020-07-03T12:19:59Z</time>
      </trkpt>
      <trkpt lat="47.18128" lon="0.96269">
        <ele>94.6</ele>
        <time>2020-07-03T12:20:00Z</time>
      </trkpt>
      <trkpt lat="47.1813" lon="0.96264">
        <ele>94.7</ele>
        <time>2020-07-03T12:20:01Z</time>
      </trkpt>
      <trkpt lat="47.18131" lon="0.96259">
        <ele>94.8</ele>
        <time>2020-07-03T12:20:02Z</time>
      </trkpt>
      <trkpt lat="47.18131" lon="0.96253">
        <ele>95</ele>
        <time>2020-07-03T12:20:03Z</time>
      </trkpt>
      <trkpt lat="47.18132" lon="0.96248">
        <ele>95.1</ele>
        <time>2020-07-03T12:20:04Z</time>
      </trkpt>
      <trkpt lat="47.18133" lon="0.96244">
        <ele>95.2</ele>
        <time>2020-07-03T12:20:05Z</time>
      </trkpt>
      <trkpt lat="47.18133" lon="0.96239">
        <ele>95.4</ele>
        <time>2020-07-03T12:20:06Z</time>
      </trkpt>
      <trkpt lat="47.18134" lon="0.96233">
        <ele>95.5</ele>
        <time>2020-07-03T12:20:07Z</time>
      </trkpt>
      <trkpt lat="47.18135" lon="0.96228">
        <ele>95.7</ele>
        <time>2020-07-03T12:20:08Z</time>
      </trkpt>
      <trkpt lat="47.18136" lon="0.96224">
        <ele>95.8</ele>
        <time>2020-07-03T12:20:09Z</time>
      </trkpt>
      <trkpt lat="47.18137" lon="0.96219">
        <ele>95.9</ele>
        <time>2020-07-03T12:20:10Z</time>
      </trkpt>
      <trkpt lat="47.18138" lon="0.96214">
        <ele>96.1</ele>
        <time>2020-07-03T12:20:11Z</time>
      </trkpt>
      <trkpt lat="47.18139" lon="0.9621">
        <ele>96.2</ele>
        <time>2020-07-03T12:20:12Z</time>
      </trkpt>
      <trkpt lat="47.1814" lon="0.96204">
        <ele>96.4</ele>
        <time>2020-07-03T12:20:13Z</time>
      </trkpt>
      <trkpt lat="47.1814" lon="0.96199">
        <ele>96.5</ele>
        <time>2020-07-03T12:20:14Z</time>
      </trkpt>
      <trkpt lat="47.18141" lon="0.96193">
        <ele>96.7</ele>
        <time>2020-07-03T12:20:15Z</time>
      </trkpt>
      <trkpt lat="47.18142" lon="0.96188">
        <ele>96.9</ele>
        <time>2020-07-03T12:20:16Z</time>
      </trkpt>
      <trkpt lat="47.18143" lon="0.96184">
        <ele>97</ele>
        <time>2020-07-03T12:20:17Z</time>
      </trkpt>
      <trkpt lat="47.18145" lon="0.9618">
        <ele>97.2</ele>
        <time>2020-07-03T12:20:18Z</time>
      </trkpt>
      <trkpt lat="47.18145" lon="0.96175">
        <ele>97.3</ele>
        <time>2020-07-03T12:20:19Z</time>
      </trkpt>
      <trkpt lat="47.18146" lon="0.9617">
        <ele>97.4</ele>
        <time>2020-07-03T12:20:20Z</time>
      </trkpt>
      <trkpt lat="47.18147" lon="0.96165">
        <ele>97.6</ele>
        <time>2020-07-03T12:20:21Z</time>
      </trkpt>
      <trkpt lat="47.18148" lon="0.9616">
        <ele>97.7</ele>
        <time>2020-07-03T12:20:22Z</time>
      </trkpt>
      <trkpt lat="47.18148" lon="0.96155">
        <ele>97.9</ele>
        <time>2020-07-03T12:20:23Z</time>
      </trkpt>
      <trkpt lat="47.18149" lon="0.9615">
        <ele>98</ele>
        <time>2020-07-03T12:20:24Z</time>
      </trkpt>
      <trkpt lat="47.1815" lon="0.96145">
        <ele>98.1</ele>
        <time>2020-07-03T12:20:25Z</time>
      </trkpt>
      <trkpt lat="47.1815" lon="0.96141">
        <ele>98.2</ele>
        <time>2020-07-03T12:20:26Z</time>
      </trkpt>
      <trkpt lat="47.18151" lon="0.96136">
        <ele>98.3</ele>
        <time>2020-07-03T12:20:27Z</time>
      </trkpt>
      <trkpt lat="47.18152" lon="0.96131">
        <ele>98.3</ele>
        <time>2020-07-03T12:20:28Z</time>
      </trkpt>
      <trkpt lat="47.18154" lon="0.96125">
        <ele>98.4</ele>
        <time>2020-07-03T12:20:29Z</time>
      </trkpt>
      <trkpt lat="47.18155" lon="0.9612">
        <ele>98.5</ele>
        <time>2020-07-03T12:20:30Z</time>
      </trkpt>
      <trkpt lat="47.18155" lon="0.96115">
        <ele>98.5</ele>
        <time>2020-07-03T12:20:31Z</time>
      </trkpt>
      <trkpt lat="47.18157" lon="0.9611">
        <ele>98.5</ele>
        <time>2020-07-03T12:20:32Z</time>
      </trkpt>
      <trkpt lat="47.18158" lon="0.96104">
        <ele>98.6</ele>
        <time>2020-07-03T12:20:33Z</time>
      </trkpt>
      <trkpt lat="47.18159" lon="0.96099">
        <ele>98.6</ele>
        <time>2020-07-03T12:20:34Z</time>
      </trkpt>
      <trkpt lat="47.1816" lon="0.96094">
        <ele>98.6</ele>
        <time>2020-07-03T12:20:35Z</time>
      </trkpt>
      <trkpt lat="47.1816" lon="0.96089">
        <ele>98.7</ele>
        <time>2020-07-03T12:20:36Z</time>
      </trkpt>
      <trkpt lat="47.18161" lon="0.96084">
        <ele>98.7</ele>
        <time>2020-07-03T12:20:37Z</time>
      </trkpt>
      <trkpt lat="47.18161" lon="0.96079">
        <ele>98.6</ele>
        <time>2020-07-03T12:20:38Z</time>
      </trkpt>
      <trkpt lat="47.18163" lon="0.96072">
        <ele>98.6</ele>
        <time>2020-07-03T12:20:39Z</time>
      </trkpt>
      <trkpt lat="47.18163" lon="0.96066">
        <ele>98.6</ele>
        <time>2020-07-03T12:20:40Z</time>
      </trkpt>
      <trkpt lat="47.18163" lon="0.9606">
        <ele>98.5</ele>
        <time>2020-07-03T12:20:41Z</time>
      </trkpt>
      <trkpt lat="47.18164" lon="0.96053">
        <ele>98.5</ele>
        <time>2020-07-03T12:20:42Z</time>
      </trkpt>
      <trkpt lat="47.18165" lon="0.96047">
        <ele>98.4</ele>
        <time>2020-07-03T12:20:43Z</time>
      </trkpt>
      <trkpt lat="47.18166" lon="0.96041">
        <ele>98.3</ele>
        <time>2020-07-03T12:20:44Z</time>
      </trkpt>
      <trkpt lat="47.18166" lon="0.96035">
        <ele>98.2</ele>
        <time>2020-07-03T12:20:45Z</time>
      </trkpt>
      <trkpt lat="47.18166" lon="0.96028">
        <ele>98.1</ele>
        <time>2020-07-03T12:20:46Z</time>
      </trkpt>
      <trkpt lat="47.18167" lon="0.96021">
        <ele>98</ele>
        <time>2020-07-03T12:20:47Z</time>
      </trkpt>
      <trkpt lat="47.18167" lon="0.96014">
        <ele>98</ele>
        <time>2020-07-03T12:20:48Z</time>
      </trkpt>
      <trkpt lat="47.18167" lon="0.96007">
        <ele>98</ele>
        <time>2020-07-03T12:20:49Z</time>
      </trkpt>
      <trkpt lat="47.18167" lon="0.96">
        <ele>97.9</ele>
        <time>2020-07-03T12:20:50Z</time>
      </trkpt>
      <trkpt lat="47.18166" lon="0.95994">
        <ele>97.9</ele>
        <time>2020-07-03T12:20:51Z</time>
      </trkpt>
      <trkpt lat="47.18166" lon="0.95988">
        <ele>97.8</ele>
        <time>2020-07-03T12:20:52Z</time>
      </trkpt>
      <trkpt lat="47.18165" lon="0.95982">
        <ele>97.8</ele>
        <time>2020-07-03T12:20:53Z</time>
      </trkpt>
      <trkpt lat="47.18166" lon="0.95975">
        <ele>97.7</ele>
        <time>2020-07-03T12:20:54Z</time>
      </trkpt>
      <trkpt lat="47.18165" lon="0.95969">
        <ele>97.7</ele>
        <time>2020-07-03T12:20:55Z</time>
      </trkpt>
      <trkpt lat="47.18164" lon="0.95962">
        <ele>97.7</ele>
        <time>2020-07-03T12:20:56Z</time>
      </trkpt>
      <trkpt lat="47.18162" lon="0.95954">
        <ele>97.6</ele>
        <time>2020-07-03T12:20:57Z</time>
      </trkpt>
      <trkpt lat="47.18161" lon="0.95947">
        <ele>97.6</ele>
        <time>2020-07-03T12:20:58Z</time>
      </trkpt>
      <trkpt lat="47.1816" lon="0.95939">
        <ele>97.7</ele>
        <time>2020-07-03T12:20:59Z</time>
      </trkpt>
      <trkpt lat="47.18159" lon="0.95931">
        <ele>97.7</ele>
        <time>2020-07-03T12:21:00Z</time>
      </trkpt>
      <trkpt lat="47.18156" lon="0.95925">
        <ele>97.7</ele>
        <time>2020-07-03T12:21:01Z</time>
      </trkpt>
      <trkpt lat="47.18153" lon="0.95918">
        <ele>97.8</ele>
        <time>2020-07-03T12:21:02Z</time>
      </trkpt>
      <trkpt lat="47.18149" lon="0.95915">
        <ele>97.8</ele>
        <time>2020-07-03T12:21:03Z</time>
      </trkpt>
      <trkpt lat="47.18146" lon="0.95912">
        <ele>97.9</ele>
        <time>2020-07-03T12:21:04Z</time>
      </trkpt>
      <trkpt lat="47.18142" lon="0.95909">
        <ele>97.9</ele>
        <time>2020-07-03T12:21:05Z</time>
      </trkpt>
      <trkpt lat="47.18138" lon="0.95907">
        <ele>97.9</ele>
        <time>2020-07-03T12:21:06Z</time>
      </trkpt>
      <trkpt lat="47.18135" lon="0.95905">
        <ele>97.9</ele>
        <time>2020-07-03T12:21:07Z</time>
      </trkpt>
      <trkpt lat="47.18132" lon="0.95903">
        <ele>97.8</ele>
        <time>2020-07-03T12:21:08Z</time>
      </trkpt>
      <trkpt lat="47.18128" lon="0.959">
        <ele>97.6</ele>
        <time>2020-07-03T12:21:09Z</time>
      </trkpt>
      <trkpt lat="47.18124" lon="0.95897">
        <ele>97.4</ele>
        <time>2020-07-03T12:21:10Z</time>
      </trkpt>
      <trkpt lat="47.1812" lon="0.95893">
        <ele>97.2</ele>
        <time>2020-07-03T12:21:11Z</time>
      </trkpt>
      <trkpt lat="47.18116" lon="0.95889">
        <ele>97</ele>
        <time>2020-07-03T12:21:12Z</time>
      </trkpt>
      <trkpt lat="47.18112" lon="0.95886">
        <ele>96.9</ele>
        <time>2020-07-03T12:21:13Z</time>
      </trkpt>
      <trkpt lat="47.18109" lon="0.9588">
        <ele>96.7</ele>
        <time>2020-07-03T12:21:14Z</time>
      </trkpt>
      <trkpt lat="47.18107" lon="0.95873">
        <ele>96.5</ele>
        <time>2020-07-03T12:21:15Z</time>
      </trkpt>
      <trkpt lat="47.18107" lon="0.95866">
        <ele>96.4</ele>
        <time>2020-07-03T12:21:16Z</time>
      </trkpt>
      <trkpt lat="47.18107" lon="0.95859">
        <ele>96.3</ele>
        <time>2020-07-03T12:21:17Z</time>
      </trkpt>
      <trkpt lat="47.18106" lon="0.95852">
        <ele>96.2</ele>
        <time>2020-07-03T12:21:18Z</time>
      </trkpt>
      <trkpt lat="47.18105" lon="0.95846">
        <ele>96.2</ele>
        <time>2020-07-03T12:21:19Z</time>
      </trkpt>
      <trkpt lat="47.18104" lon="0.95839">
        <ele>96.1</ele>
        <time>2020-07-03T12:21:20Z</time>
      </trkpt>
      <trkpt lat="47.18104" lon="0.95833">
        <ele>96.1</ele>
        <time>2020-07-03T12:21:21Z</time>
      </trkpt>
      <trkpt lat="47.18103" lon="0.95826">
        <ele>96.1</ele>
        <time>2020-07-03T12:21:22Z</time>
      </trkpt>
      <trkpt lat="47.18102" lon="0.95819">
        <ele>96.1</ele>
        <time>2020-07-03T12:21:23Z</time>
      </trkpt>
      <trkpt lat="47.18102" lon="0.95814">
        <ele>96.1</ele>
        <time>2020-07-03T12:21:24Z</time>
      </trkpt>
      <trkpt lat="47.181" lon="0.95807">
        <ele>96.1</ele>
        <time>2020-07-03T12:21:25Z</time>
      </trkpt>
      <trkpt lat="47.18098" lon="0.958">
        <ele>96.1</ele>
        <time>2020-07-03T12:21:26Z</time>
      </trkpt>
      <trkpt lat="47.18096" lon="0.95794">
        <ele>96.1</ele>
        <time>2020-07-03T12:21:27Z</time>
      </trkpt>
      <trkpt lat="47.18093" lon="0.95788">
        <ele>96.1</ele>
        <time>2020-07-03T12:21:28Z</time>
      </trkpt>
      <trkpt lat="47.1809" lon="0.95782">
        <ele>96.2</ele>
        <time>2020-07-03T12:21:29Z</time>
      </trkpt>
      <trkpt lat="47.18088" lon="0.95777">
        <ele>96.2</ele>
        <time>2020-07-03T12:21:30Z</time>
      </trkpt>
      <trkpt lat="47.18085" lon="0.95771">
        <ele>96.2</ele>
        <time>2020-07-03T12:21:31Z</time>
      </trkpt>
      <trkpt lat="47.18082" lon="0.95765">
        <ele>96.2</ele>
        <time>2020-07-03T12:21:32Z</time>
      </trkpt>
      <trkpt lat="47.18079" lon="0.95759">
        <ele>96.3</ele>
        <time>2020-07-03T12:21:33Z</time>
      </trkpt>
      <trkpt lat="47.18076" lon="0.95752">
        <ele>96.3</ele>
        <time>2020-07-03T12:21:34Z</time>
      </trkpt>
      <trkpt lat="47.18073" lon="0.95746">
        <ele>96.4</ele>
        <time>2020-07-03T12:21:35Z</time>
      </trkpt>
      <trkpt lat="47.1807" lon="0.9574">
        <ele>96.5</ele>
        <time>2020-07-03T12:21:36Z</time>
      </trkpt>
      <trkpt lat="47.18068" lon="0.95734">
        <ele>96.6</ele>
        <time>2020-07-03T12:21:37Z</time>
      </trkpt>
      <trkpt lat="47.18065" lon="0.9573">
        <ele>96.8</ele>
        <time>2020-07-03T12:21:38Z</time>
      </trkpt>
      <trkpt lat="47.18062" lon="0.95724">
        <ele>96.9</ele>
        <time>2020-07-03T12:21:39Z</time>
      </trkpt>
      <trkpt lat="47.1806" lon="0.95718">
        <ele>97</ele>
        <time>2020-07-03T12:21:40Z</time>
      </trkpt>
      <trkpt lat="47.18057" lon="0.95713">
        <ele>97.2</ele>
        <time>2020-07-03T12:21:41Z</time>
      </trkpt>
      <trkpt lat="47.18054" lon="0.95708">
        <ele>97.3</ele>
        <time>2020-07-03T12:21:42Z</time>
      </trkpt>
      <trkpt lat="47.18051" lon="0.95702">
        <ele>97.4</ele>
        <time>2020-07-03T12:21:43Z</time>
      </trkpt>
      <trkpt lat="47.18049" lon="0.95696">
        <ele>97.5</ele>
        <time>2020-07-03T12:21:44Z</time>
      </trkpt>
      <trkpt lat="47.18047" lon="0.95691">
        <ele>97.6</ele>
        <time>2020-07-03T12:21:45Z</time>
      </trkpt>
      <trkpt lat="47.18045" lon="0.95685">
        <ele>97.7</ele>
        <time>2020-07-03T12:21:46Z</time>
      </trkpt>
      <trkpt lat="47.18042" lon="0.95681">
        <ele>97.8</ele>
        <time>2020-07-03T12:21:47Z</time>
      </trkpt>
      <trkpt lat="47.18038" lon="0.95677">
        <ele>98</ele>
        <time>2020-07-03T12:21:48Z</time>
      </trkpt>
      <trkpt lat="47.18035" lon="0.95673">
        <ele>98.1</ele>
        <time>2020-07-03T12:21:49Z</time>
      </trkpt>
      <trkpt lat="47.18032" lon="0.95668">
        <ele>98.2</ele>
        <time>2020-07-03T12:21:50Z</time>
      </trkpt>
      <trkpt lat="47.18031" lon="0.95663">
        <ele>98.3</ele>
        <time>2020-07-03T12:21:51Z</time>
      </trkpt>
      <trkpt lat="47.18028" lon="0.95657">
        <ele>98.5</ele>
        <time>2020-07-03T12:21:52Z</time>
      </trkpt>
      <trkpt lat="47.18026" lon="0.95652">
        <ele>98.6</ele>
        <time>2020-07-03T12:21:53Z</time>
      </trkpt>
      <trkpt lat="47.18023" lon="0.95648">
        <ele>98.7</ele>
        <time>2020-07-03T12:21:54Z</time>
      </trkpt>
      <trkpt lat="47.18021" lon="0.95643">
        <ele>98.8</ele>
        <time>2020-07-03T12:21:55Z</time>
      </trkpt>
      <trkpt lat="47.1802" lon="0.95638">
        <ele>98.9</ele>
        <time>2020-07-03T12:21:56Z</time>
      </trkpt>
      <trkpt lat="47.18017" lon="0.95632">
        <ele>99.1</ele>
        <time>2020-07-03T12:21:57Z</time>
      </trkpt>
      <trkpt lat="47.18015" lon="0.95627">
        <ele>99.2</ele>
        <time>2020-07-03T12:21:58Z</time>
      </trkpt>
      <trkpt lat="47.18013" lon="0.95623">
        <ele>99.4</ele>
        <time>2020-07-03T12:21:59Z</time>
      </trkpt>
      <trkpt lat="47.1801" lon="0.9562">
        <ele>99.5</ele>
        <time>2020-07-03T12:22:00Z</time>
      </trkpt>
      <trkpt lat="47.18007" lon="0.95616">
        <ele>99.6</ele>
        <time>2020-07-03T12:22:01Z</time>
      </trkpt>
      <trkpt lat="47.18005" lon="0.9561">
        <ele>99.7</ele>
        <time>2020-07-03T12:22:02Z</time>
      </trkpt>
      <trkpt lat="47.18003" lon="0.95605">
        <ele>99.9</ele>
        <time>2020-07-03T12:22:03Z</time>
      </trkpt>
      <trkpt lat="47.18" lon="0.956">
        <ele>100</ele>
        <time>2020-07-03T12:22:04Z</time>
      </trkpt>
      <trkpt lat="47.17998" lon="0.95595">
        <ele>100.2</ele>
        <time>2020-07-03T12:22:05Z</time>
      </trkpt>
      <trkpt lat="47.17996" lon="0.95591">
        <ele>100.3</ele>
        <time>2020-07-03T12:22:06Z</time>
      </trkpt>
      <trkpt lat="47.17993" lon="0.95587">
        <ele>100.5</ele>
        <time>2020-07-03T12:22:07Z</time>
      </trkpt>
      <trkpt lat="47.17991" lon="0.95583">
        <ele>100.6</ele>
        <time>2020-07-03T12:22:08Z</time>
      </trkpt>
      <trkpt lat="47.17988" lon="0.95579">
        <ele>100.8</ele>
        <time>2020-07-03T12:22:09Z</time>
      </trkpt>
      <trkpt lat="47.17985" lon="0.95575">
        <ele>100.9</ele>
        <time>2020-07-03T12:22:10Z</time>
      </trkpt>
      <trkpt lat="47.17983" lon="0.95571">
        <ele>101.1</ele>
        <time>2020-07-03T12:22:11Z</time>
      </trkpt>
      <trkpt lat="47.17981" lon="0.95567">
        <ele>101.2</ele>
        <time>2020-07-03T12:22:12Z</time>
      </trkpt>
      <trkpt lat="47.17979" lon="0.95561">
        <ele>101.3</ele>
        <time>2020-07-03T12:22:13Z</time>
      </trkpt>
      <trkpt lat="47.17976" lon="0.95556">
        <ele>101.4</ele>
        <time>2020-07-03T12:22:14Z</time>
      </trkpt>
      <trkpt lat="47.17974" lon="0.95552">
        <ele>101.6</ele>
        <time>2020-07-03T12:22:15Z</time>
      </trkpt>
      <trkpt lat="47.17971" lon="0.95548">
        <ele>101.7</ele>
        <time>2020-07-03T12:22:16Z</time>
      </trkpt>
      <trkpt lat="47.17969" lon="0.95544">
        <ele>101.8</ele>
        <time>2020-07-03T12:22:17Z</time>
      </trkpt>
      <trkpt lat="47.17966" lon="0.95539">
        <ele>101.9</ele>
        <time>2020-07-03T12:22:18Z</time>
      </trkpt>
      <trkpt lat="47.17964" lon="0.95536">
        <ele>102</ele>
        <time>2020-07-03T12:22:19Z</time>
      </trkpt>
      <trkpt lat="47.17961" lon="0.95532">
        <ele>102.1</ele>
        <time>2020-07-03T12:22:20Z</time>
      </trkpt>
      <trkpt lat="47.17959" lon="0.95527">
        <ele>102.2</ele>
        <time>2020-07-03T12:22:21Z</time>
      </trkpt>
      <trkpt lat="47.17957" lon="0.95523">
        <ele>102.3</ele>
        <time>2020-07-03T12:22:22Z</time>
      </trkpt>
      <trkpt lat="47.17955" lon="0.95518">
        <ele>102.4</ele>
        <time>2020-07-03T12:22:23Z</time>
      </trkpt>
      <trkpt lat="47.17953" lon="0.95514">
        <ele>102.4</ele>
        <time>2020-07-03T12:22:24Z</time>
      </trkpt>
      <trkpt lat="47.1795" lon="0.95509">
        <ele>102.5</ele>
        <time>2020-07-03T12:22:25Z</time>
      </trkpt>
      <trkpt lat="47.17948" lon="0.95504">
        <ele>102.5</ele>
        <time>2020-07-03T12:22:26Z</time>
      </trkpt>
      <trkpt lat="47.17946" lon="0.95499">
        <ele>102.6</ele>
        <time>2020-07-03T12:22:27Z</time>
      </trkpt>
      <trkpt lat="47.17943" lon="0.95494">
        <ele>102.6</ele>
        <time>2020-07-03T12:22:28Z</time>
      </trkpt>
      <trkpt lat="47.17941" lon="0.95489">
        <ele>102.6</ele>
        <time>2020-07-03T12:22:29Z</time>
      </trkpt>
      <trkpt lat="47.17937" lon="0.95485">
        <ele>102.6</ele>
        <time>2020-07-03T12:22:30Z</time>
      </trkpt>
      <trkpt lat="47.17935" lon="0.9548">
        <ele>102.6</ele>
        <time>2020-07-03T12:22:31Z</time>
      </trkpt>
      <trkpt lat="47.17933" lon="0.95475">
        <ele>102.6</ele>
        <time>2020-07-03T12:22:32Z</time>
      </trkpt>
      <trkpt lat="47.17931" lon="0.9547">
        <ele>102.7</ele>
        <time>2020-07-03T12:22:33Z</time>
      </trkpt>
      <trkpt lat="47.17929" lon="0.95465">
        <ele>102.7</ele>
        <time>2020-07-03T12:22:34Z</time>
      </trkpt>
      <trkpt lat="47.17926" lon="0.95461">
        <ele>102.8</ele>
        <time>2020-07-03T12:22:35Z</time>
      </trkpt>
      <trkpt lat="47.17924" lon="0.95456">
        <ele>102.8</ele>
        <time>2020-07-03T12:22:36Z</time>
      </trkpt>
      <trkpt lat="47.17921" lon="0.95451">
        <ele>102.8</ele>
        <time>2020-07-03T12:22:37Z</time>
      </trkpt>
      <trkpt lat="47.17919" lon="0.95446">
        <ele>102.8</ele>
        <time>2020-07-03T12:22:38Z</time>
      </trkpt>
      <trkpt lat="47.17917" lon="0.95441">
        <ele>102.8</ele>
        <time>2020-07-03T12:22:39Z</time>
      </trkpt>
      <trkpt lat="47.17914" lon="0.95437">
        <ele>102.8</ele>
        <time>2020-07-03T12:22:40Z</time>
      </trkpt>
      <trkpt lat="47.17911" lon="0.95431">
        <ele>102.7</ele>
        <time>2020-07-03T12:22:41Z</time>
      </trkpt>
      <trkpt lat="47.17909" lon="0.95426">
        <ele>102.7</ele>
        <time>2020-07-03T12:22:42Z</time>
      </trkpt>
      <trkpt lat="47.17907" lon="0.9542">
        <ele>102.7</ele>
        <time>2020-07-03T12:22:43Z</time>
      </trkpt>
      <trkpt lat="47.17905" lon="0.95414">
        <ele>102.6</ele>
        <time>2020-07-03T12:22:44Z</time>
      </trkpt>
      <trkpt lat="47.17902" lon="0.95407">
        <ele>102.5</ele>
        <time>2020-07-03T12:22:45Z</time>
      </trkpt>
      <trkpt lat="47.179" lon="0.95401">
        <ele>102.5</ele>
        <time>2020-07-03T12:22:46Z</time>
      </trkpt>
      <trkpt lat="47.17899" lon="0.95394">
        <ele>102.4</ele>
        <time>2020-07-03T12:22:47Z</time>
      </trkpt>
      <trkpt lat="47.17897" lon="0.95388">
        <ele>102.4</ele>
        <time>2020-07-03T12:22:48Z</time>
      </trkpt>
      <trkpt lat="47.17895" lon="0.95382">
        <ele>102.4</ele>
        <time>2020-07-03T12:22:49Z</time>
      </trkpt>
      <trkpt lat="47.17892" lon="0.95376">
        <ele>102.3</ele>
        <time>2020-07-03T12:22:50Z</time>
      </trkpt>
      <trkpt lat="47.1789" lon="0.95369">
        <ele>102.3</ele>
        <time>2020-07-03T12:22:51Z</time>
      </trkpt>
      <trkpt lat="47.17888" lon="0.95362">
        <ele>102.3</ele>
        <time>2020-07-03T12:22:52Z</time>
      </trkpt>
      <trkpt lat="47.17887" lon="0.95355">
        <ele>102.2</ele>
        <time>2020-07-03T12:22:53Z</time>
      </trkpt>
      <trkpt lat="47.17885" lon="0.95348">
        <ele>102.2</ele>
        <time>2020-07-03T12:22:54Z</time>
      </trkpt>
      <trkpt lat="47.17883" lon="0.95342">
        <ele>102.2</ele>
        <time>2020-07-03T12:22:55Z</time>
      </trkpt>
      <trkpt lat="47.17882" lon="0.95337">
        <ele>102.2</ele>
        <time>2020-07-03T12:22:56Z</time>
      </trkpt>
      <trkpt lat="47.17881" lon="0.9533">
        <ele>102.3</ele>
        <time>2020-07-03T12:22:57Z</time>
      </trkpt>
      <trkpt lat="47.1788" lon="0.95323">
        <ele>102.3</ele>
        <time>2020-07-03T12:22:58Z</time>
      </trkpt>
      <trkpt lat="47.17879" lon="0.95317">
        <ele>102.4</ele>
        <time>2020-07-03T12:22:59Z</time>
      </trkpt>
      <trkpt lat="47.17878" lon="0.9531">
        <ele>102.5</ele>
        <time>2020-07-03T12:23:00Z</time>
      </trkpt>
      <trkpt lat="47.17877" lon="0.95303">
        <ele>102.6</ele>
        <time>2020-07-03T12:23:01Z</time>
      </trkpt>
      <trkpt lat="47.17875" lon="0.95297">
        <ele>102.6</ele>
        <time>2020-07-03T12:23:02Z</time>
      </trkpt>
      <trkpt lat="47.17874" lon="0.9529">
        <ele>102.7</ele>
        <time>2020-07-03T12:23:03Z</time>
      </trkpt>
      <trkpt lat="47.17872" lon="0.95282">
        <ele>102.8</ele>
        <time>2020-07-03T12:23:04Z</time>
      </trkpt>
      <trkpt lat="47.17871" lon="0.95276">
        <ele>102.8</ele>
        <time>2020-07-03T12:23:05Z</time>
      </trkpt>
      <trkpt lat="47.17869" lon="0.9527">
        <ele>102.8</ele>
        <time>2020-07-03T12:23:06Z</time>
      </trkpt>
      <trkpt lat="47.17868" lon="0.95264">
        <ele>102.8</ele>
        <time>2020-07-03T12:23:07Z</time>
      </trkpt>
      <trkpt lat="47.17866" lon="0.95257">
        <ele>102.9</ele>
        <time>2020-07-03T12:23:08Z</time>
      </trkpt>
      <trkpt lat="47.17864" lon="0.9525">
        <ele>102.9</ele>
        <time>2020-07-03T12:23:09Z</time>
      </trkpt>
      <trkpt lat="47.17863" lon="0.95244">
        <ele>102.9</ele>
        <time>2020-07-03T12:23:10Z</time>
      </trkpt>
      <trkpt lat="47.17861" lon="0.95238">
        <ele>103</ele>
        <time>2020-07-03T12:23:11Z</time>
      </trkpt>
      <trkpt lat="47.17859" lon="0.95232">
        <ele>103</ele>
        <time>2020-07-03T12:23:12Z</time>
      </trkpt>
      <trkpt lat="47.17858" lon="0.95227">
        <ele>103.1</ele>
        <time>2020-07-03T12:23:13Z</time>
      </trkpt>
      <trkpt lat="47.17856" lon="0.9522">
        <ele>103.1</ele>
        <time>2020-07-03T12:23:14Z</time>
      </trkpt>
      <trkpt lat="47.17855" lon="0.95214">
        <ele>103.2</ele>
        <time>2020-07-03T12:23:15Z</time>
      </trkpt>
      <trkpt lat="47.17854" lon="0.95208">
        <ele>103.3</ele>
        <time>2020-07-03T12:23:16Z</time>
      </trkpt>
      <trkpt lat="47.17853" lon="0.95203">
        <ele>103.3</ele>
        <time>2020-07-03T12:23:17Z</time>
      </trkpt>
      <trkpt lat="47.17852" lon="0.95196">
        <ele>103.4</ele>
        <time>2020-07-03T12:23:18Z</time>
      </trkpt>
      <trkpt lat="47.17852" lon="0.9519">
        <ele>103.5</ele>
        <time>2020-07-03T12:23:19Z</time>
      </trkpt>
      <trkpt lat="47.1785" lon="0.95186">
        <ele>103.6</ele>
        <time>2020-07-03T12:23:20Z</time>
      </trkpt>
      <trkpt lat="47.1785" lon="0.9518">
        <ele>103.6</ele>
        <time>2020-07-03T12:23:21Z</time>
      </trkpt>
      <trkpt lat="47.17848" lon="0.95175">
        <ele>103.7</ele>
        <time>2020-07-03T12:23:22Z</time>
      </trkpt>
      <trkpt lat="47.17847" lon="0.95169">
        <ele>103.7</ele>
        <time>2020-07-03T12:23:23Z</time>
      </trkpt>
      <trkpt lat="47.17845" lon="0.95163">
        <ele>103.7</ele>
        <time>2020-07-03T12:23:24Z</time>
      </trkpt>
      <trkpt lat="47.17844" lon="0.95158">
        <ele>103.7</ele>
        <time>2020-07-03T12:23:25Z</time>
      </trkpt>
      <trkpt lat="47.17842" lon="0.95152">
        <ele>103.7</ele>
        <time>2020-07-03T12:23:26Z</time>
      </trkpt>
      <trkpt lat="47.17842" lon="0.95147">
        <ele>103.8</ele>
        <time>2020-07-03T12:23:27Z</time>
      </trkpt>
      <trkpt lat="47.17841" lon="0.9514">
        <ele>103.8</ele>
        <time>2020-07-03T12:23:28Z</time>
      </trkpt>
      <trkpt lat="47.1784" lon="0.95134">
        <ele>103.7</ele>
        <time>2020-07-03T12:23:29Z</time>
      </trkpt>
      <trkpt lat="47.17838" lon="0.95127">
        <ele>103.7</ele>
        <time>2020-07-03T12:23:30Z</time>
      </trkpt>
      <trkpt lat="47.17837" lon="0.95121">
        <ele>103.6</ele>
        <time>2020-07-03T12:23:31Z</time>
      </trkpt>
      <trkpt lat="47.17835" lon="0.95115">
        <ele>103.5</ele>
        <time>2020-07-03T12:23:32Z</time>
      </trkpt>
      <trkpt lat="47.17833" lon="0.95109">
        <ele>103.5</ele>
        <time>2020-07-03T12:23:33Z</time>
      </trkpt>
      <trkpt lat="47.17831" lon="0.95103">
        <ele>103.4</ele>
        <time>2020-07-03T12:23:34Z</time>
      </trkpt>
      <trkpt lat="47.1783" lon="0.95097">
        <ele>103.3</ele>
        <time>2020-07-03T12:23:35Z</time>
      </trkpt>
      <trkpt lat="47.17828" lon="0.9509">
        <ele>103.2</ele>
        <time>2020-07-03T12:23:36Z</time>
      </trkpt>
      <trkpt lat="47.17827" lon="0.95083">
        <ele>103.1</ele>
        <time>2020-07-03T12:23:37Z</time>
      </trkpt>
      <trkpt lat="47.17825" lon="0.95077">
        <ele>102.9</ele>
        <time>2020-07-03T12:23:38Z</time>
      </trkpt>
      <trkpt lat="47.17824" lon="0.9507">
        <ele>102.7</ele>
        <time>2020-07-03T12:23:39Z</time>
      </trkpt>
      <trkpt lat="47.17822" lon="0.95064">
        <ele>102.6</ele>
        <time>2020-07-03T12:23:40Z</time>
      </trkpt>
      <trkpt lat="47.1782" lon="0.95057">
        <ele>102.4</ele>
        <time>2020-07-03T12:23:41Z</time>
      </trkpt>
      <trkpt lat="47.17818" lon="0.9505">
        <ele>102.3</ele>
        <time>2020-07-03T12:23:42Z</time>
      </trkpt>
      <trkpt lat="47.17816" lon="0.95042">
        <ele>102.1</ele>
        <time>2020-07-03T12:23:43Z</time>
      </trkpt>
      <trkpt lat="47.17815" lon="0.95034">
        <ele>101.9</ele>
        <time>2020-07-03T12:23:44Z</time>
      </trkpt>
      <trkpt lat="47.17814" lon="0.95025">
        <ele>101.7</ele>
        <time>2020-07-03T12:23:45Z</time>
      </trkpt>
      <trkpt lat="47.17812" lon="0.95017">
        <ele>101.6</ele>
        <time>2020-07-03T12:23:46Z</time>
      </trkpt>
      <trkpt lat="47.1781" lon="0.95009">
        <ele>101.4</ele>
        <time>2020-07-03T12:23:47Z</time>
      </trkpt>
      <trkpt lat="47.17808" lon="0.95001">
        <ele>101.3</ele>
        <time>2020-07-03T12:23:48Z</time>
      </trkpt>
      <trkpt lat="47.17807" lon="0.94993">
        <ele>101.1</ele>
        <time>2020-07-03T12:23:49Z</time>
      </trkpt>
      <trkpt lat="47.17805" lon="0.94984">
        <ele>100.9</ele>
        <time>2020-07-03T12:23:50Z</time>
      </trkpt>
      <trkpt lat="47.17803" lon="0.94975">
        <ele>100.8</ele>
        <time>2020-07-03T12:23:51Z</time>
      </trkpt>
      <trkpt lat="47.17801" lon="0.94967">
        <ele>100.6</ele>
        <time>2020-07-03T12:23:52Z</time>
      </trkpt>
      <trkpt lat="47.17799" lon="0.94958">
        <ele>100.5</ele>
        <time>2020-07-03T12:23:53Z</time>
      </trkpt>
      <trkpt lat="47.17797" lon="0.94948">
        <ele>100.3</ele>
        <time>2020-07-03T12:23:54Z</time>
      </trkpt>
      <trkpt lat="47.17795" lon="0.94939">
        <ele>100</ele>
        <time>2020-07-03T12:23:55Z</time>
      </trkpt>
      <trkpt lat="47.17793" lon="0.94928">
        <ele>99.8</ele>
        <time>2020-07-03T12:23:56Z</time>
      </trkpt>
      <trkpt lat="47.1779" lon="0.94919">
        <ele>99.7</ele>
        <time>2020-07-03T12:23:57Z</time>
      </trkpt>
      <trkpt lat="47.17788" lon="0.94911">
        <ele>99.6</ele>
        <time>2020-07-03T12:23:58Z</time>
      </trkpt>
      <trkpt lat="47.17786" lon="0.94901">
        <ele>99.5</ele>
        <time>2020-07-03T12:23:59Z</time>
      </trkpt>
      <trkpt lat="47.17784" lon="0.94891">
        <ele>99.4</ele>
        <time>2020-07-03T12:24:00Z</time>
      </trkpt>
      <trkpt lat="47.17782" lon="0.94881">
        <ele>99.3</ele>
        <time>2020-07-03T12:24:01Z</time>
      </trkpt>
      <trkpt lat="47.1778" lon="0.94872">
        <ele>99.3</ele>
        <time>2020-07-03T12:24:02Z</time>
      </trkpt>
      <trkpt lat="47.17778" lon="0.94863">
        <ele>99.2</ele>
        <time>2020-07-03T12:24:03Z</time>
      </trkpt>
      <trkpt lat="47.17775" lon="0.94855">
        <ele>99.1</ele>
        <time>2020-07-03T12:24:04Z</time>
      </trkpt>
      <trkpt lat="47.17774" lon="0.94846">
        <ele>99.1</ele>
        <time>2020-07-03T12:24:05Z</time>
      </trkpt>
      <trkpt lat="47.17772" lon="0.94838">
        <ele>99</ele>
        <time>2020-07-03T12:24:06Z</time>
      </trkpt>
      <trkpt lat="47.1777" lon="0.9483">
        <ele>99</ele>
        <time>2020-07-03T12:24:07Z</time>
      </trkpt>
      <trkpt lat="47.17767" lon="0.94821">
        <ele>99</ele>
        <time>2020-07-03T12:24:08Z</time>
      </trkpt>
      <trkpt lat="47.17765" lon="0.94813">
        <ele>99</ele>
        <time>2020-07-03T12:24:09Z</time>
      </trkpt>
      <trkpt lat="47.17763" lon="0.94804">
        <ele>99</ele>
        <time>2020-07-03T12:24:10Z</time>
      </trkpt>
      <trkpt lat="47.17761" lon="0.94796">
        <ele>98.9</ele>
        <time>2020-07-03T12:24:11Z</time>
      </trkpt>
      <trkpt lat="47.17759" lon="0.94787">
        <ele>98.9</ele>
        <time>2020-07-03T12:24:12Z</time>
      </trkpt>
      <trkpt lat="47.17757" lon="0.94779">
        <ele>98.9</ele>
        <time>2020-07-03T12:24:13Z</time>
      </trkpt>
      <trkpt lat="47.17755" lon="0.9477">
        <ele>98.9</ele>
        <time>2020-07-03T12:24:14Z</time>
      </trkpt>
      <trkpt lat="47.17753" lon="0.94761">
        <ele>99</ele>
        <time>2020-07-03T12:24:15Z</time>
      </trkpt>
      <trkpt lat="47.17751" lon="0.94753">
        <ele>99.1</ele>
        <time>2020-07-03T12:24:16Z</time>
      </trkpt>
      <trkpt lat="47.17749" lon="0.94745">
        <ele>99.2</ele>
        <time>2020-07-03T12:24:17Z</time>
      </trkpt>
      <trkpt lat="47.17747" lon="0.94738">
        <ele>99.3</ele>
        <time>2020-07-03T12:24:18Z</time>
      </trkpt>
      <trkpt lat="47.17746" lon="0.94728">
        <ele>99.5</ele>
        <time>2020-07-03T12:24:19Z</time>
      </trkpt>
      <trkpt lat="47.17745" lon="0.9472">
        <ele>99.7</ele>
        <time>2020-07-03T12:24:20Z</time>
      </trkpt>
      <trkpt lat="47.17744" lon="0.94714">
        <ele>99.8</ele>
        <time>2020-07-03T12:24:21Z</time>
      </trkpt>
      <trkpt lat="47.17742" lon="0.94707">
        <ele>99.9</ele>
        <time>2020-07-03T12:24:22Z</time>
      </trkpt>
      <trkpt lat="47.17741" lon="0.94702">
        <ele>100.1</ele>
        <time>2020-07-03T12:24:23Z</time>
      </trkpt>
      <trkpt lat="47.17741" lon="0.94696">
        <ele>100.2</ele>
        <time>2020-07-03T12:24:24Z</time>
      </trkpt>
      <trkpt lat="47.17739" lon="0.94691">
        <ele>100.4</ele>
        <time>2020-07-03T12:24:25Z</time>
      </trkpt>
      <trkpt lat="47.17738" lon="0.94684">
        <ele>100.5</ele>
        <time>2020-07-03T12:24:26Z</time>
      </trkpt>
      <trkpt lat="47.17737" lon="0.9468">
        <ele>100.5</ele>
        <time>2020-07-03T12:24:27Z</time>
      </trkpt>
      <trkpt lat="47.17736" lon="0.94674">
        <ele>100.6</ele>
        <time>2020-07-03T12:24:28Z</time>
      </trkpt>
      <trkpt lat="47.17735" lon="0.94668">
        <ele>100.7</ele>
        <time>2020-07-03T12:24:29Z</time>
      </trkpt>
      <trkpt lat="47.17734" lon="0.94662">
        <ele>100.7</ele>
        <time>2020-07-03T12:24:30Z</time>
      </trkpt>
      <trkpt lat="47.17732" lon="0.94657">
        <ele>100.7</ele>
        <time>2020-07-03T12:24:31Z</time>
      </trkpt>
      <trkpt lat="47.17731" lon="0.94652">
        <ele>100.7</ele>
        <time>2020-07-03T12:24:32Z</time>
      </trkpt>
      <trkpt lat="47.17729" lon="0.94646">
        <ele>100.8</ele>
        <time>2020-07-03T12:24:33Z</time>
      </trkpt>
      <trkpt lat="47.17728" lon="0.94641">
        <ele>100.8</ele>
        <time>2020-07-03T12:24:34Z</time>
      </trkpt>
      <trkpt lat="47.17727" lon="0.94634">
        <ele>100.8</ele>
        <time>2020-07-03T12:24:35Z</time>
      </trkpt>
      <trkpt lat="47.17725" lon="0.94627">
        <ele>100.9</ele>
        <time>2020-07-03T12:24:36Z</time>
      </trkpt>
      <trkpt lat="47.17724" lon="0.9462">
        <ele>101</ele>
        <time>2020-07-03T12:24:37Z</time>
      </trkpt>
      <trkpt lat="47.17722" lon="0.94613">
        <ele>101.1</ele>
        <time>2020-07-03T12:24:38Z</time>
      </trkpt>
      <trkpt lat="47.17721" lon="0.94607">
        <ele>101.1</ele>
        <time>2020-07-03T12:24:39Z</time>
      </trkpt>
      <trkpt lat="47.17719" lon="0.946">
        <ele>101.2</ele>
        <time>2020-07-03T12:24:40Z</time>
      </trkpt>
      <trkpt lat="47.17718" lon="0.94593">
        <ele>101.3</ele>
        <time>2020-07-03T12:24:41Z</time>
      </trkpt>
      <trkpt lat="47.17716" lon="0.94586">
        <ele>101.3</ele>
        <time>2020-07-03T12:24:42Z</time>
      </trkpt>
      <trkpt lat="47.17715" lon="0.94578">
        <ele>101.4</ele>
        <time>2020-07-03T12:24:43Z</time>
      </trkpt>
      <trkpt lat="47.17713" lon="0.94571">
        <ele>101.5</ele>
        <time>2020-07-03T12:24:44Z</time>
      </trkpt>
      <trkpt lat="47.17712" lon="0.94562">
        <ele>101.6</ele>
        <time>2020-07-03T12:24:45Z</time>
      </trkpt>
      <trkpt lat="47.17709" lon="0.94554">
        <ele>101.7</ele>
        <time>2020-07-03T12:24:46Z</time>
      </trkpt>
      <trkpt lat="47.17707" lon="0.94544">
        <ele>101.9</ele>
        <time>2020-07-03T12:24:47Z</time>
      </trkpt>
      <trkpt lat="47.17705" lon="0.94535">
        <ele>102</ele>
        <time>2020-07-03T12:24:48Z</time>
      </trkpt>
      <trkpt lat="47.17703" lon="0.94527">
        <ele>102</ele>
        <time>2020-07-03T12:24:49Z</time>
      </trkpt>
      <trkpt lat="47.17702" lon="0.94519">
        <ele>102.1</ele>
        <time>2020-07-03T12:24:50Z</time>
      </trkpt>
      <trkpt lat="47.177" lon="0.94513">
        <ele>102.1</ele>
        <time>2020-07-03T12:24:51Z</time>
      </trkpt>
      <trkpt lat="47.17698" lon="0.94507">
        <ele>102.2</ele>
        <time>2020-07-03T12:24:52Z</time>
      </trkpt>
      <trkpt lat="47.17696" lon="0.945">
        <ele>102.4</ele>
        <time>2020-07-03T12:24:53Z</time>
      </trkpt>
      <trkpt lat="47.17695" lon="0.94495">
        <ele>102.6</ele>
        <time>2020-07-03T12:24:54Z</time>
      </trkpt>
      <trkpt lat="47.17694" lon="0.94489">
        <ele>102.7</ele>
        <time>2020-07-03T12:24:55Z</time>
      </trkpt>
      <trkpt lat="47.17693" lon="0.94484">
        <ele>102.9</ele>
        <time>2020-07-03T12:24:56Z</time>
      </trkpt>
      <trkpt lat="47.17692" lon="0.94479">
        <ele>103</ele>
        <time>2020-07-03T12:24:57Z</time>
      </trkpt>
      <trkpt lat="47.17691" lon="0.94475">
        <ele>103.1</ele>
        <time>2020-07-03T12:24:58Z</time>
      </trkpt>
      <trkpt lat="47.1769" lon="0.94469">
        <ele>103.2</ele>
        <time>2020-07-03T12:24:59Z</time>
      </trkpt>
      <trkpt lat="47.17688" lon="0.94465">
        <ele>103.3</ele>
        <time>2020-07-03T12:25:00Z</time>
      </trkpt>
      <trkpt lat="47.17686" lon="0.94461">
        <ele>103.4</ele>
        <time>2020-07-03T12:25:01Z</time>
      </trkpt>
      <trkpt lat="47.17685" lon="0.94456">
        <ele>103.5</ele>
        <time>2020-07-03T12:25:02Z</time>
      </trkpt>
      <trkpt lat="47.17685" lon="0.94454">
        <ele>103.6</ele>
        <time>2020-07-03T12:25:03Z</time>
      </trkpt>
      <trkpt lat="47.17685" lon="0.94449">
        <ele>103.7</ele>
        <time>2020-07-03T12:25:04Z</time>
      </trkpt>
      <trkpt lat="47.17685" lon="0.94444">
        <ele>103.8</ele>
        <time>2020-07-03T12:25:05Z</time>
      </trkpt>
      <trkpt lat="47.17684" lon="0.94438">
        <ele>103.9</ele>
        <time>2020-07-03T12:25:06Z</time>
      </trkpt>
      <trkpt lat="47.17683" lon="0.94432">
        <ele>104</ele>
        <time>2020-07-03T12:25:07Z</time>
      </trkpt>
      <trkpt lat="47.17682" lon="0.94426">
        <ele>104.2</ele>
        <time>2020-07-03T12:25:08Z</time>
      </trkpt>
      <trkpt lat="47.1768" lon="0.94421">
        <ele>104.3</ele>
        <time>2020-07-03T12:25:09Z</time>
      </trkpt>
      <trkpt lat="47.17679" lon="0.94417">
        <ele>104.4</ele>
        <time>2020-07-03T12:25:10Z</time>
      </trkpt>
      <trkpt lat="47.17679" lon="0.94412">
        <ele>104.5</ele>
        <time>2020-07-03T12:25:11Z</time>
      </trkpt>
      <trkpt lat="47.17678" lon="0.94407">
        <ele>104.5</ele>
        <time>2020-07-03T12:25:12Z</time>
      </trkpt>
      <trkpt lat="47.17677" lon="0.94401">
        <ele>104.6</ele>
        <time>2020-07-03T12:25:13Z</time>
      </trkpt>
      <trkpt lat="47.17675" lon="0.94396">
        <ele>104.6</ele>
        <time>2020-07-03T12:25:14Z</time>
      </trkpt>
      <trkpt lat="47.17674" lon="0.94391">
        <ele>104.7</ele>
        <time>2020-07-03T12:25:15Z</time>
      </trkpt>
      <trkpt lat="47.17673" lon="0.94386">
        <ele>104.7</ele>
        <time>2020-07-03T12:25:16Z</time>
      </trkpt>
      <trkpt lat="47.17672" lon="0.9438">
        <ele>104.7</ele>
        <time>2020-07-03T12:25:17Z</time>
      </trkpt>
      <trkpt lat="47.17671" lon="0.94374">
        <ele>104.7</ele>
        <time>2020-07-03T12:25:18Z</time>
      </trkpt>
      <trkpt lat="47.1767" lon="0.9437">
        <ele>104.8</ele>
        <time>2020-07-03T12:25:19Z</time>
      </trkpt>
      <trkpt lat="47.17669" lon="0.94365">
        <ele>104.8</ele>
        <time>2020-07-03T12:25:20Z</time>
      </trkpt>
      <trkpt lat="47.17667" lon="0.94359">
        <ele>104.9</ele>
        <time>2020-07-03T12:25:21Z</time>
      </trkpt>
      <trkpt lat="47.17666" lon="0.94353">
        <ele>104.9</ele>
        <time>2020-07-03T12:25:22Z</time>
      </trkpt>
      <trkpt lat="47.17665" lon="0.94348">
        <ele>105</ele>
        <time>2020-07-03T12:25:23Z</time>
      </trkpt>
      <trkpt lat="47.17664" lon="0.94343">
        <ele>105</ele>
        <time>2020-07-03T12:25:24Z</time>
      </trkpt>
      <trkpt lat="47.17663" lon="0.9434">
        <ele>105.1</ele>
        <time>2020-07-03T12:25:25Z</time>
      </trkpt>
      <trkpt lat="47.17661" lon="0.94335">
        <ele>105.1</ele>
        <time>2020-07-03T12:25:26Z</time>
      </trkpt>
      <trkpt lat="47.17659" lon="0.94329">
        <ele>105.1</ele>
        <time>2020-07-03T12:25:27Z</time>
      </trkpt>
      <trkpt lat="47.17658" lon="0.94323">
        <ele>105.1</ele>
        <time>2020-07-03T12:25:28Z</time>
      </trkpt>
      <trkpt lat="47.17657" lon="0.94317">
        <ele>105.1</ele>
        <time>2020-07-03T12:25:29Z</time>
      </trkpt>
      <trkpt lat="47.17656" lon="0.9431">
        <ele>105</ele>
        <time>2020-07-03T12:25:30Z</time>
      </trkpt>
      <trkpt lat="47.17655" lon="0.94304">
        <ele>105</ele>
        <time>2020-07-03T12:25:31Z</time>
      </trkpt>
      <trkpt lat="47.17653" lon="0.94297">
        <ele>105</ele>
        <time>2020-07-03T12:25:32Z</time>
      </trkpt>
      <trkpt lat="47.17652" lon="0.94291">
        <ele>105</ele>
        <time>2020-07-03T12:25:33Z</time>
      </trkpt>
      <trkpt lat="47.17651" lon="0.94284">
        <ele>105</ele>
        <time>2020-07-03T12:25:34Z</time>
      </trkpt>
      <trkpt lat="47.17649" lon="0.94276">
        <ele>105</ele>
        <time>2020-07-03T12:25:35Z</time>
      </trkpt>
      <trkpt lat="47.17648" lon="0.9427">
        <ele>105</ele>
        <time>2020-07-03T12:25:36Z</time>
      </trkpt>
      <trkpt lat="47.17647" lon="0.94264">
        <ele>104.9</ele>
        <time>2020-07-03T12:25:37Z</time>
      </trkpt>
      <trkpt lat="47.17646" lon="0.94257">
        <ele>104.9</ele>
        <time>2020-07-03T12:25:38Z</time>
      </trkpt>
      <trkpt lat="47.17645" lon="0.94251">
        <ele>104.8</ele>
        <time>2020-07-03T12:25:39Z</time>
      </trkpt>
      <trkpt lat="47.17643" lon="0.94244">
        <ele>104.8</ele>
        <time>2020-07-03T12:25:40Z</time>
      </trkpt>
      <trkpt lat="47.17641" lon="0.94238">
        <ele>104.7</ele>
        <time>2020-07-03T12:25:41Z</time>
      </trkpt>
      <trkpt lat="47.17639" lon="0.94232">
        <ele>104.7</ele>
        <time>2020-07-03T12:25:42Z</time>
      </trkpt>
      <trkpt lat="47.17638" lon="0.94226">
        <ele>104.6</ele>
        <time>2020-07-03T12:25:43Z</time>
      </trkpt>
      <trkpt lat="47.17637" lon="0.94219">
        <ele>104.6</ele>
        <time>2020-07-03T12:25:44Z</time>
      </trkpt>
      <trkpt lat="47.17636" lon="0.94213">
        <ele>104.5</ele>
        <time>2020-07-03T12:25:45Z</time>
      </trkpt>
      <trkpt lat="47.17634" lon="0.94207">
        <ele>104.5</ele>
        <time>2020-07-03T12:25:46Z</time>
      </trkpt>
      <trkpt lat="47.17632" lon="0.94201">
        <ele>104.4</ele>
        <time>2020-07-03T12:25:47Z</time>
      </trkpt>
      <trkpt lat="47.17631" lon="0.94194">
        <ele>104.4</ele>
        <time>2020-07-03T12:25:48Z</time>
      </trkpt>
      <trkpt lat="47.17629" lon="0.94186">
        <ele>104.3</ele>
        <time>2020-07-03T12:25:49Z</time>
      </trkpt>
      <trkpt lat="47.17627" lon="0.94179">
        <ele>104.2</ele>
        <time>2020-07-03T12:25:50Z</time>
      </trkpt>
      <trkpt lat="47.17626" lon="0.94172">
        <ele>104.1</ele>
        <time>2020-07-03T12:25:51Z</time>
      </trkpt>
      <trkpt lat="47.17624" lon="0.94164">
        <ele>104</ele>
        <time>2020-07-03T12:25:52Z</time>
      </trkpt>
      <trkpt lat="47.17622" lon="0.94156">
        <ele>104</ele>
        <time>2020-07-03T12:25:53Z</time>
      </trkpt>
      <trkpt lat="47.1762" lon="0.94148">
        <ele>103.9</ele>
        <time>2020-07-03T12:25:54Z</time>
      </trkpt>
      <trkpt lat="47.17618" lon="0.94142">
        <ele>103.9</ele>
        <time>2020-07-03T12:25:55Z</time>
      </trkpt>
      <trkpt lat="47.17616" lon="0.94136">
        <ele>103.8</ele>
        <time>2020-07-03T12:25:56Z</time>
      </trkpt>
      <trkpt lat="47.17614" lon="0.9413">
        <ele>103.7</ele>
        <time>2020-07-03T12:25:57Z</time>
      </trkpt>
      <trkpt lat="47.17613" lon="0.94122">
        <ele>103.6</ele>
        <time>2020-07-03T12:25:58Z</time>
      </trkpt>
      <trkpt lat="47.17611" lon="0.94115">
        <ele>103.5</ele>
        <time>2020-07-03T12:25:59Z</time>
      </trkpt>
      <trkpt lat="47.1761" lon="0.94109">
        <ele>103.4</ele>
        <time>2020-07-03T12:26:00Z</time>
      </trkpt>
      <trkpt lat="47.17608" lon="0.94101">
        <ele>103.3</ele>
        <time>2020-07-03T12:26:01Z</time>
      </trkpt>
      <trkpt lat="47.17606" lon="0.94094">
        <ele>103.1</ele>
        <time>2020-07-03T12:26:02Z</time>
      </trkpt>
      <trkpt lat="47.17605" lon="0.94085">
        <ele>103</ele>
        <time>2020-07-03T12:26:03Z</time>
      </trkpt>
      <trkpt lat="47.17602" lon="0.94076">
        <ele>102.8</ele>
        <time>2020-07-03T12:26:04Z</time>
      </trkpt>
      <trkpt lat="47.176" lon="0.94068">
        <ele>102.7</ele>
        <time>2020-07-03T12:26:05Z</time>
      </trkpt>
      <trkpt lat="47.17597" lon="0.9406">
        <ele>102.6</ele>
        <time>2020-07-03T12:26:06Z</time>
      </trkpt>
      <trkpt lat="47.17595" lon="0.94052">
        <ele>102.6</ele>
        <time>2020-07-03T12:26:07Z</time>
      </trkpt>
      <trkpt lat="47.17592" lon="0.94045">
        <ele>102.5</ele>
        <time>2020-07-03T12:26:08Z</time>
      </trkpt>
      <trkpt lat="47.1759" lon="0.94037">
        <ele>102.4</ele>
        <time>2020-07-03T12:26:09Z</time>
      </trkpt>
      <trkpt lat="47.17587" lon="0.9403">
        <ele>102.4</ele>
        <time>2020-07-03T12:26:10Z</time>
      </trkpt>
      <trkpt lat="47.17585" lon="0.94022">
        <ele>102.4</ele>
        <time>2020-07-03T12:26:11Z</time>
      </trkpt>
      <trkpt lat="47.17582" lon="0.94015">
        <ele>102.4</ele>
        <time>2020-07-03T12:26:12Z</time>
      </trkpt>
      <trkpt lat="47.1758" lon="0.94007">
        <ele>102.4</ele>
        <time>2020-07-03T12:26:13Z</time>
      </trkpt>
      <trkpt lat="47.17578" lon="0.94001">
        <ele>102.5</ele>
        <time>2020-07-03T12:26:14Z</time>
      </trkpt>
      <trkpt lat="47.17576" lon="0.93993">
        <ele>102.6</ele>
        <time>2020-07-03T12:26:15Z</time>
      </trkpt>
      <trkpt lat="47.17573" lon="0.93986">
        <ele>102.7</ele>
        <time>2020-07-03T12:26:16Z</time>
      </trkpt>
      <trkpt lat="47.17572" lon="0.93979">
        <ele>102.8</ele>
        <time>2020-07-03T12:26:17Z</time>
      </trkpt>
      <trkpt lat="47.1757" lon="0.93972">
        <ele>102.9</ele>
        <time>2020-07-03T12:26:18Z</time>
      </trkpt>
      <trkpt lat="47.17567" lon="0.93965">
        <ele>103</ele>
        <time>2020-07-03T12:26:19Z</time>
      </trkpt>
      <trkpt lat="47.17565" lon="0.93959">
        <ele>103.1</ele>
        <time>2020-07-03T12:26:20Z</time>
      </trkpt>
      <trkpt lat="47.17563" lon="0.93952">
        <ele>103.2</ele>
        <time>2020-07-03T12:26:21Z</time>
      </trkpt>
      <trkpt lat="47.17561" lon="0.93945">
        <ele>103.3</ele>
        <time>2020-07-03T12:26:22Z</time>
      </trkpt>
      <trkpt lat="47.17559" lon="0.93941">
        <ele>103.3</ele>
        <time>2020-07-03T12:26:23Z</time>
      </trkpt>
      <trkpt lat="47.17558" lon="0.93934">
        <ele>103.4</ele>
        <time>2020-07-03T12:26:24Z</time>
      </trkpt>
      <trkpt lat="47.17556" lon="0.93929">
        <ele>103.5</ele>
        <time>2020-07-03T12:26:25Z</time>
      </trkpt>
      <trkpt lat="47.17554" lon="0.93922">
        <ele>103.6</ele>
        <time>2020-07-03T12:26:26Z</time>
      </trkpt>
      <trkpt lat="47.17553" lon="0.93915">
        <ele>103.7</ele>
        <time>2020-07-03T12:26:27Z</time>
      </trkpt>
      <trkpt lat="47.17551" lon="0.93908">
        <ele>103.9</ele>
        <time>2020-07-03T12:26:28Z</time>
      </trkpt>
      <trkpt lat="47.1755" lon="0.93901">
        <ele>104</ele>
        <time>2020-07-03T12:26:29Z</time>
      </trkpt>
      <trkpt lat="47.17548" lon="0.93895">
        <ele>104.2</ele>
        <time>2020-07-03T12:26:30Z</time>
      </trkpt>
      <trkpt lat="47.17546" lon="0.93889">
        <ele>104.3</ele>
        <time>2020-07-03T12:26:31Z</time>
      </trkpt>
      <trkpt lat="47.17543" lon="0.93883">
        <ele>104.5</ele>
        <time>2020-07-03T12:26:32Z</time>
      </trkpt>
      <trkpt lat="47.17541" lon="0.93877">
        <ele>104.7</ele>
        <time>2020-07-03T12:26:33Z</time>
      </trkpt>
      <trkpt lat="47.17538" lon="0.93869">
        <ele>104.9</ele>
        <time>2020-07-03T12:26:34Z</time>
      </trkpt>
      <trkpt lat="47.17536" lon="0.93861">
        <ele>105</ele>
        <time>2020-07-03T12:26:35Z</time>
      </trkpt>
      <trkpt lat="47.17534" lon="0.93855">
        <ele>105.1</ele>
        <time>2020-07-03T12:26:36Z</time>
      </trkpt>
      <trkpt lat="47.17531" lon="0.93848">
        <ele>105.3</ele>
        <time>2020-07-03T12:26:37Z</time>
      </trkpt>
      <trkpt lat="47.17529" lon="0.93842">
        <ele>105.4</ele>
        <time>2020-07-03T12:26:38Z</time>
      </trkpt>
      <trkpt lat="47.17527" lon="0.93836">
        <ele>105.5</ele>
        <time>2020-07-03T12:26:39Z</time>
      </trkpt>
      <trkpt lat="47.17525" lon="0.9383">
        <ele>105.6</ele>
        <time>2020-07-03T12:26:40Z</time>
      </trkpt>
      <trkpt lat="47.17524" lon="0.93824">
        <ele>105.7</ele>
        <time>2020-07-03T12:26:41Z</time>
      </trkpt>
      <trkpt lat="47.17522" lon="0.93819">
        <ele>105.8</ele>
        <time>2020-07-03T12:26:42Z</time>
      </trkpt>
      <trkpt lat="47.1752" lon="0.93814">
        <ele>106</ele>
        <time>2020-07-03T12:26:43Z</time>
      </trkpt>
      <trkpt lat="47.17518" lon="0.93808">
        <ele>106.1</ele>
        <time>2020-07-03T12:26:44Z</time>
      </trkpt>
      <trkpt lat="47.17517" lon="0.93802">
        <ele>106.3</ele>
        <time>2020-07-03T12:26:45Z</time>
      </trkpt>
      <trkpt lat="47.17515" lon="0.93797">
        <ele>106.4</ele>
        <time>2020-07-03T12:26:46Z</time>
      </trkpt>
      <trkpt lat="47.17513" lon="0.93792">
        <ele>106.5</ele>
        <time>2020-07-03T12:26:47Z</time>
      </trkpt>
      <trkpt lat="47.17512" lon="0.93787">
        <ele>106.6</ele>
        <time>2020-07-03T12:26:48Z</time>
      </trkpt>
      <trkpt lat="47.1751" lon="0.93783">
        <ele>106.7</ele>
        <time>2020-07-03T12:26:49Z</time>
      </trkpt>
      <trkpt lat="47.17509" lon="0.93779">
        <ele>106.8</ele>
        <time>2020-07-03T12:26:50Z</time>
      </trkpt>
      <trkpt lat="47.17507" lon="0.93775">
        <ele>106.9</ele>
        <time>2020-07-03T12:26:51Z</time>
      </trkpt>
      <trkpt lat="47.17505" lon="0.93772">
        <ele>107</ele>
        <time>2020-07-03T12:26:52Z</time>
      </trkpt>
      <trkpt lat="47.17504" lon="0.93768">
        <ele>107.1</ele>
        <time>2020-07-03T12:26:53Z</time>
      </trkpt>
      <trkpt lat="47.17502" lon="0.93763">
        <ele>107.2</ele>
        <time>2020-07-03T12:26:54Z</time>
      </trkpt>
      <trkpt lat="47.17501" lon="0.93761">
        <ele>107.3</ele>
        <time>2020-07-03T12:26:55Z</time>
      </trkpt>
      <trkpt lat="47.175" lon="0.93757">
        <ele>107.4</ele>
        <time>2020-07-03T12:26:56Z</time>
      </trkpt>
      <trkpt lat="47.17499" lon="0.93753">
        <ele>107.5</ele>
        <time>2020-07-03T12:26:57Z</time>
      </trkpt>
      <trkpt lat="47.17498" lon="0.93748">
        <ele>107.6</ele>
        <time>2020-07-03T12:26:58Z</time>
      </trkpt>
      <trkpt lat="47.17497" lon="0.93741">
        <ele>107.8</ele>
        <time>2020-07-03T12:26:59Z</time>
      </trkpt>
      <trkpt lat="47.17495" lon="0.93737">
        <ele>107.9</ele>
        <time>2020-07-03T12:27:00Z</time>
      </trkpt>
      <trkpt lat="47.17494" lon="0.93733">
        <ele>108</ele>
        <time>2020-07-03T12:27:01Z</time>
      </trkpt>
      <trkpt lat="47.17492" lon="0.93729">
        <ele>108</ele>
        <time>2020-07-03T12:27:02Z</time>
      </trkpt>
      <trkpt lat="47.17491" lon="0.93725">
        <ele>108.1</ele>
        <time>2020-07-03T12:27:03Z</time>
      </trkpt>
      <trkpt lat="47.17489" lon="0.9372">
        <ele>108.3</ele>
        <time>2020-07-03T12:27:04Z</time>
      </trkpt>
      <trkpt lat="47.17488" lon="0.93715">
        <ele>108.4</ele>
        <time>2020-07-03T12:27:05Z</time>
      </trkpt>
      <trkpt lat="47.17486" lon="0.93709">
        <ele>108.6</ele>
        <time>2020-07-03T12:27:06Z</time>
      </trkpt>
      <trkpt lat="47.17484" lon="0.93704">
        <ele>108.7</ele>
        <time>2020-07-03T12:27:07Z</time>
      </trkpt>
      <trkpt lat="47.17483" lon="0.93699">
        <ele>109</ele>
        <time>2020-07-03T12:27:08Z</time>
      </trkpt>
      <trkpt lat="47.17481" lon="0.93695">
        <ele>109</ele>
        <time>2020-07-03T12:27:09Z</time>
      </trkpt>
      <trkpt lat="47.1748" lon="0.93691">
        <ele>109</ele>
        <time>2020-07-03T12:27:10Z</time>
      </trkpt>
      <trkpt lat="47.17478" lon="0.93688">
        <ele>109</ele>
        <time>2020-07-03T12:27:11Z</time>
      </trkpt>
      <trkpt lat="47.17476" lon="0.93683">
        <ele>109</ele>
        <time>2020-07-03T12:27:12Z</time>
      </trkpt>
      <trkpt lat="47.17474" lon="0.93678">
        <ele>109</ele>
        <time>2020-07-03T12:27:13Z</time>
      </trkpt>
      <trkpt lat="47.17472" lon="0.93672">
        <ele>109</ele>
        <time>2020-07-03T12:27:14Z</time>
      </trkpt>
      <trkpt lat="47.17471" lon="0.93667">
        <ele>109.1</ele>
        <time>2020-07-03T12:27:15Z</time>
      </trkpt>
      <trkpt lat="47.17469" lon="0.93663">
        <ele>109.1</ele>
        <time>2020-07-03T12:27:16Z</time>
      </trkpt>
      <trkpt lat="47.17468" lon="0.93659">
        <ele>109.2</ele>
        <time>2020-07-03T12:27:17Z</time>
      </trkpt>
      <trkpt lat="47.17466" lon="0.93653">
        <ele>109.2</ele>
        <time>2020-07-03T12:27:18Z</time>
      </trkpt>
      <trkpt lat="47.17465" lon="0.93648">
        <ele>109.3</ele>
        <time>2020-07-03T12:27:19Z</time>
      </trkpt>
      <trkpt lat="47.17463" lon="0.93642">
        <ele>109.3</ele>
        <time>2020-07-03T12:27:20Z</time>
      </trkpt>
      <trkpt lat="47.17461" lon="0.93635">
        <ele>109.3</ele>
        <time>2020-07-03T12:27:21Z</time>
      </trkpt>
      <trkpt lat="47.17458" lon="0.93629">
        <ele>109.4</ele>
        <time>2020-07-03T12:27:22Z</time>
      </trkpt>
      <trkpt lat="47.17456" lon="0.93624">
        <ele>109.4</ele>
        <time>2020-07-03T12:27:23Z</time>
      </trkpt>
      <trkpt lat="47.17454" lon="0.93619">
        <ele>109.4</ele>
        <time>2020-07-03T12:27:24Z</time>
      </trkpt>
      <trkpt lat="47.17453" lon="0.93613">
        <ele>109.4</ele>
        <time>2020-07-03T12:27:25Z</time>
      </trkpt>
      <trkpt lat="47.17451" lon="0.93607">
        <ele>109.4</ele>
        <time>2020-07-03T12:27:26Z</time>
      </trkpt>
      <trkpt lat="47.17449" lon="0.93601">
        <ele>109.5</ele>
        <time>2020-07-03T12:27:27Z</time>
      </trkpt>
      <trkpt lat="47.17448" lon="0.93594">
        <ele>109.4</ele>
        <time>2020-07-03T12:27:28Z</time>
      </trkpt>
      <trkpt lat="47.17446" lon="0.93589">
        <ele>109.4</ele>
        <time>2020-07-03T12:27:29Z</time>
      </trkpt>
      <trkpt lat="47.17445" lon="0.93583">
        <ele>109.4</ele>
        <time>2020-07-03T12:27:30Z</time>
      </trkpt>
      <trkpt lat="47.17443" lon="0.93578">
        <ele>109.4</ele>
        <time>2020-07-03T12:27:31Z</time>
      </trkpt>
      <trkpt lat="47.17441" lon="0.93572">
        <ele>109.4</ele>
        <time>2020-07-03T12:27:32Z</time>
      </trkpt>
      <trkpt lat="47.17439" lon="0.93565">
        <ele>109.3</ele>
        <time>2020-07-03T12:27:33Z</time>
      </trkpt>
      <trkpt lat="47.17437" lon="0.93558">
        <ele>109.3</ele>
        <time>2020-07-03T12:27:34Z</time>
      </trkpt>
      <trkpt lat="47.17435" lon="0.93553">
        <ele>109.3</ele>
        <time>2020-07-03T12:27:35Z</time>
      </trkpt>
      <trkpt lat="47.17433" lon="0.93546">
        <ele>109.2</ele>
        <time>2020-07-03T12:27:36Z</time>
      </trkpt>
      <trkpt lat="47.17432" lon="0.9354">
        <ele>109.1</ele>
        <time>2020-07-03T12:27:37Z</time>
      </trkpt>
      <trkpt lat="47.17431" lon="0.93535">
        <ele>109.1</ele>
        <time>2020-07-03T12:27:38Z</time>
      </trkpt>
      <trkpt lat="47.1743" lon="0.93528">
        <ele>109.2</ele>
        <time>2020-07-03T12:27:39Z</time>
      </trkpt>
      <trkpt lat="47.17428" lon="0.93522">
        <ele>109.6</ele>
        <time>2020-07-03T12:27:40Z</time>
      </trkpt>
      <trkpt lat="47.17427" lon="0.93515">
        <ele>109.8</ele>
        <time>2020-07-03T12:27:41Z</time>
      </trkpt>
      <trkpt lat="47.17426" lon="0.93507">
        <ele>109.9</ele>
        <time>2020-07-03T12:27:42Z</time>
      </trkpt>
      <trkpt lat="47.17426" lon="0.93499">
        <ele>109.8</ele>
        <time>2020-07-03T12:27:43Z</time>
      </trkpt>
      <trkpt lat="47.17424" lon="0.93491">
        <ele>109.6</ele>
        <time>2020-07-03T12:27:44Z</time>
      </trkpt>
      <trkpt lat="47.17423" lon="0.93482">
        <ele>109.5</ele>
        <time>2020-07-03T12:27:45Z</time>
      </trkpt>
      <trkpt lat="47.17422" lon="0.93475">
        <ele>109.3</ele>
        <time>2020-07-03T12:27:46Z</time>
      </trkpt>
      <trkpt lat="47.1742" lon="0.93467">
        <ele>109.2</ele>
        <time>2020-07-03T12:27:47Z</time>
      </trkpt>
      <trkpt lat="47.17418" lon="0.93459">
        <ele>109.1</ele>
        <time>2020-07-03T12:27:48Z</time>
      </trkpt>
      <trkpt lat="47.17417" lon="0.93451">
        <ele>109</ele>
        <time>2020-07-03T12:27:49Z</time>
      </trkpt>
      <trkpt lat="47.17416" lon="0.93442">
        <ele>108.8</ele>
        <time>2020-07-03T12:27:50Z</time>
      </trkpt>
      <trkpt lat="47.17414" lon="0.93434">
        <ele>108.6</ele>
        <time>2020-07-03T12:27:51Z</time>
      </trkpt>
      <trkpt lat="47.17413" lon="0.93424">
        <ele>108.4</ele>
        <time>2020-07-03T12:27:52Z</time>
      </trkpt>
      <trkpt lat="47.17412" lon="0.93419">
        <ele>108.2</ele>
        <time>2020-07-03T12:27:53Z</time>
      </trkpt>
      <trkpt lat="47.1741" lon="0.93412">
        <ele>108</ele>
        <time>2020-07-03T12:27:54Z</time>
      </trkpt>
      <trkpt lat="47.17409" lon="0.93403">
        <ele>107.8</ele>
        <time>2020-07-03T12:27:55Z</time>
      </trkpt>
      <trkpt lat="47.17407" lon="0.93395">
        <ele>107.6</ele>
        <time>2020-07-03T12:27:56Z</time>
      </trkpt>
      <trkpt lat="47.17407" lon="0.93387">
        <ele>107.4</ele>
        <time>2020-07-03T12:27:57Z</time>
      </trkpt>
      <trkpt lat="47.17406" lon="0.93379">
        <ele>107.2</ele>
        <time>2020-07-03T12:27:58Z</time>
      </trkpt>
      <trkpt lat="47.17405" lon="0.93372">
        <ele>107</ele>
        <time>2020-07-03T12:27:59Z</time>
      </trkpt>
      <trkpt lat="47.17404" lon="0.93365">
        <ele>106.9</ele>
        <time>2020-07-03T12:28:00Z</time>
      </trkpt>
      <trkpt lat="47.17403" lon="0.93357">
        <ele>106.7</ele>
        <time>2020-07-03T12:28:01Z</time>
      </trkpt>
      <trkpt lat="47.17401" lon="0.93349">
        <ele>106.6</ele>
        <time>2020-07-03T12:28:02Z</time>
      </trkpt>
      <trkpt lat="47.174" lon="0.93339">
        <ele>106.5</ele>
        <time>2020-07-03T12:28:03Z</time>
      </trkpt>
      <trkpt lat="47.17398" lon="0.93328">
        <ele>106.3</ele>
        <time>2020-07-03T12:28:04Z</time>
      </trkpt>
      <trkpt lat="47.17397" lon="0.93319">
        <ele>106.1</ele>
        <time>2020-07-03T12:28:05Z</time>
      </trkpt>
      <trkpt lat="47.17395" lon="0.93312">
        <ele>105.9</ele>
        <time>2020-07-03T12:28:06Z</time>
      </trkpt>
      <trkpt lat="47.17394" lon="0.93303">
        <ele>105.7</ele>
        <time>2020-07-03T12:28:07Z</time>
      </trkpt>
      <trkpt lat="47.17392" lon="0.93295">
        <ele>105.5</ele>
        <time>2020-07-03T12:28:08Z</time>
      </trkpt>
      <trkpt lat="47.17391" lon="0.93285">
        <ele>105.3</ele>
        <time>2020-07-03T12:28:09Z</time>
      </trkpt>
      <trkpt lat="47.17388" lon="0.93276">
        <ele>105.2</ele>
        <time>2020-07-03T12:28:10Z</time>
      </trkpt>
      <trkpt lat="47.17387" lon="0.93267">
        <ele>105.1</ele>
        <time>2020-07-03T12:28:11Z</time>
      </trkpt>
      <trkpt lat="47.17386" lon="0.93259">
        <ele>105</ele>
        <time>2020-07-03T12:28:12Z</time>
      </trkpt>
      <trkpt lat="47.17384" lon="0.93252">
        <ele>104.9</ele>
        <time>2020-07-03T12:28:13Z</time>
      </trkpt>
      <trkpt lat="47.17382" lon="0.93244">
        <ele>104.9</ele>
        <time>2020-07-03T12:28:14Z</time>
      </trkpt>
      <trkpt lat="47.17379" lon="0.93236">
        <ele>104.8</ele>
        <time>2020-07-03T12:28:15Z</time>
      </trkpt>
      <trkpt lat="47.17378" lon="0.93228">
        <ele>104.8</ele>
        <time>2020-07-03T12:28:16Z</time>
      </trkpt>
      <trkpt lat="47.17375" lon="0.9322">
        <ele>104.8</ele>
        <time>2020-07-03T12:28:17Z</time>
      </trkpt>
      <trkpt lat="47.17373" lon="0.93213">
        <ele>104.8</ele>
        <time>2020-07-03T12:28:18Z</time>
      </trkpt>
      <trkpt lat="47.17371" lon="0.93205">
        <ele>104.9</ele>
        <time>2020-07-03T12:28:19Z</time>
      </trkpt>
      <trkpt lat="47.17369" lon="0.93198">
        <ele>104.9</ele>
        <time>2020-07-03T12:28:20Z</time>
      </trkpt>
      <trkpt lat="47.17368" lon="0.93189">
        <ele>105</ele>
        <time>2020-07-03T12:28:21Z</time>
      </trkpt>
      <trkpt lat="47.17366" lon="0.93182">
        <ele>105.1</ele>
        <time>2020-07-03T12:28:22Z</time>
      </trkpt>
      <trkpt lat="47.17365" lon="0.93176">
        <ele>105.2</ele>
        <time>2020-07-03T12:28:23Z</time>
      </trkpt>
      <trkpt lat="47.17363" lon="0.93169">
        <ele>105.2</ele>
        <time>2020-07-03T12:28:24Z</time>
      </trkpt>
      <trkpt lat="47.17362" lon="0.93163">
        <ele>105.2</ele>
        <time>2020-07-03T12:28:25Z</time>
      </trkpt>
      <trkpt lat="47.1736" lon="0.93156">
        <ele>105.2</ele>
        <time>2020-07-03T12:28:26Z</time>
      </trkpt>
      <trkpt lat="47.17358" lon="0.93148">
        <ele>105.2</ele>
        <time>2020-07-03T12:28:27Z</time>
      </trkpt>
      <trkpt lat="47.17357" lon="0.93143">
        <ele>105.3</ele>
        <time>2020-07-03T12:28:28Z</time>
      </trkpt>
      <trkpt lat="47.17355" lon="0.93137">
        <ele>105.3</ele>
        <time>2020-07-03T12:28:29Z</time>
      </trkpt>
      <trkpt lat="47.17354" lon="0.93132">
        <ele>105.4</ele>
        <time>2020-07-03T12:28:30Z</time>
      </trkpt>
      <trkpt lat="47.17353" lon="0.93126">
        <ele>105.5</ele>
        <time>2020-07-03T12:28:31Z</time>
      </trkpt>
      <trkpt lat="47.17351" lon="0.93119">
        <ele>105.6</ele>
        <time>2020-07-03T12:28:32Z</time>
      </trkpt>
      <trkpt lat="47.1735" lon="0.93112">
        <ele>105.7</ele>
        <time>2020-07-03T12:28:33Z</time>
      </trkpt>
      <trkpt lat="47.17349" lon="0.93107">
        <ele>105.7</ele>
        <time>2020-07-03T12:28:34Z</time>
      </trkpt>
      <trkpt lat="47.17348" lon="0.93101">
        <ele>105.8</ele>
        <time>2020-07-03T12:28:35Z</time>
      </trkpt>
      <trkpt lat="47.17346" lon="0.93094">
        <ele>105.8</ele>
        <time>2020-07-03T12:28:36Z</time>
      </trkpt>
      <trkpt lat="47.17344" lon="0.93088">
        <ele>105.9</ele>
        <time>2020-07-03T12:28:37Z</time>
      </trkpt>
      <trkpt lat="47.17342" lon="0.93082">
        <ele>106</ele>
        <time>2020-07-03T12:28:38Z</time>
      </trkpt>
      <trkpt lat="47.1734" lon="0.93074">
        <ele>106.1</ele>
        <time>2020-07-03T12:28:39Z</time>
      </trkpt>
      <trkpt lat="47.17339" lon="0.93068">
        <ele>106.2</ele>
        <time>2020-07-03T12:28:40Z</time>
      </trkpt>
      <trkpt lat="47.17337" lon="0.93062">
        <ele>106.2</ele>
        <time>2020-07-03T12:28:41Z</time>
      </trkpt>
      <trkpt lat="47.17336" lon="0.93056">
        <ele>106.3</ele>
        <time>2020-07-03T12:28:42Z</time>
      </trkpt>
      <trkpt lat="47.17335" lon="0.93051">
        <ele>106.4</ele>
        <time>2020-07-03T12:28:43Z</time>
      </trkpt>
      <trkpt lat="47.17333" lon="0.93045">
        <ele>106.5</ele>
        <time>2020-07-03T12:28:44Z</time>
      </trkpt>
      <trkpt lat="47.1733" lon="0.93039">
        <ele>106.7</ele>
        <time>2020-07-03T12:28:45Z</time>
      </trkpt>
      <trkpt lat="47.17329" lon="0.93034">
        <ele>106.8</ele>
        <time>2020-07-03T12:28:46Z</time>
      </trkpt>
      <trkpt lat="47.17327" lon="0.93027">
        <ele>106.9</ele>
        <time>2020-07-03T12:28:47Z</time>
      </trkpt>
      <trkpt lat="47.17326" lon="0.9302">
        <ele>107</ele>
        <time>2020-07-03T12:28:48Z</time>
      </trkpt>
      <trkpt lat="47.17325" lon="0.93014">
        <ele>107.1</ele>
        <time>2020-07-03T12:28:49Z</time>
      </trkpt>
      <trkpt lat="47.17324" lon="0.93007">
        <ele>107.2</ele>
        <time>2020-07-03T12:28:50Z</time>
      </trkpt>
      <trkpt lat="47.17323" lon="0.93001">
        <ele>107.3</ele>
        <time>2020-07-03T12:28:51Z</time>
      </trkpt>
      <trkpt lat="47.17322" lon="0.92996">
        <ele>107.4</ele>
        <time>2020-07-03T12:28:52Z</time>
      </trkpt>
      <trkpt lat="47.1732" lon="0.92991">
        <ele>107.5</ele>
        <time>2020-07-03T12:28:53Z</time>
      </trkpt>
      <trkpt lat="47.1732" lon="0.92985">
        <ele>107.6</ele>
        <time>2020-07-03T12:28:54Z</time>
      </trkpt>
      <trkpt lat="47.17319" lon="0.92981">
        <ele>107.7</ele>
        <time>2020-07-03T12:28:55Z</time>
      </trkpt>
      <trkpt lat="47.17317" lon="0.92977">
        <ele>107.7</ele>
        <time>2020-07-03T12:28:56Z</time>
      </trkpt>
      <trkpt lat="47.17315" lon="0.92972">
        <ele>107.8</ele>
        <time>2020-07-03T12:28:57Z</time>
      </trkpt>
      <trkpt lat="47.17313" lon="0.92966">
        <ele>108</ele>
        <time>2020-07-03T12:28:58Z</time>
      </trkpt>
      <trkpt lat="47.17312" lon="0.9296">
        <ele>108.1</ele>
        <time>2020-07-03T12:28:59Z</time>
      </trkpt>
      <trkpt lat="47.1731" lon="0.92955">
        <ele>108.2</ele>
        <time>2020-07-03T12:29:00Z</time>
      </trkpt>
      <trkpt lat="47.17308" lon="0.92949">
        <ele>108.4</ele>
        <time>2020-07-03T12:29:01Z</time>
      </trkpt>
      <trkpt lat="47.17307" lon="0.92943">
        <ele>108.5</ele>
        <time>2020-07-03T12:29:02Z</time>
      </trkpt>
      <trkpt lat="47.17305" lon="0.92937">
        <ele>108.6</ele>
        <time>2020-07-03T12:29:03Z</time>
      </trkpt>
      <trkpt lat="47.17304" lon="0.92931">
        <ele>108.8</ele>
        <time>2020-07-03T12:29:04Z</time>
      </trkpt>
      <trkpt lat="47.17302" lon="0.92926">
        <ele>108.9</ele>
        <time>2020-07-03T12:29:05Z</time>
      </trkpt>
      <trkpt lat="47.17301" lon="0.9292">
        <ele>109</ele>
        <time>2020-07-03T12:29:06Z</time>
      </trkpt>
      <trkpt lat="47.17299" lon="0.92915">
        <ele>109.1</ele>
        <time>2020-07-03T12:29:07Z</time>
      </trkpt>
      <trkpt lat="47.17298" lon="0.9291">
        <ele>109.3</ele>
        <time>2020-07-03T12:29:08Z</time>
      </trkpt>
      <trkpt lat="47.17297" lon="0.92905">
        <ele>109.3</ele>
        <time>2020-07-03T12:29:09Z</time>
      </trkpt>
      <trkpt lat="47.17295" lon="0.92899">
        <ele>109.5</ele>
        <time>2020-07-03T12:29:10Z</time>
      </trkpt>
      <trkpt lat="47.17295" lon="0.92896">
        <ele>109.5</ele>
        <time>2020-07-03T12:29:11Z</time>
      </trkpt>
      <trkpt lat="47.17293" lon="0.9289">
        <ele>109.5</ele>
        <time>2020-07-03T12:29:12Z</time>
      </trkpt>
      <trkpt lat="47.17292" lon="0.92885">
        <ele>109.6</ele>
        <time>2020-07-03T12:29:13Z</time>
      </trkpt>
      <trkpt lat="47.17291" lon="0.9288">
        <ele>109.6</ele>
        <time>2020-07-03T12:29:14Z</time>
      </trkpt>
      <trkpt lat="47.17289" lon="0.92876">
        <ele>109.6</ele>
        <time>2020-07-03T12:29:15Z</time>
      </trkpt>
      <trkpt lat="47.17287" lon="0.92871">
        <ele>109.6</ele>
        <time>2020-07-03T12:29:16Z</time>
      </trkpt>
      <trkpt lat="47.17286" lon="0.92865">
        <ele>109.6</ele>
        <time>2020-07-03T12:29:17Z</time>
      </trkpt>
      <trkpt lat="47.17285" lon="0.92859">
        <ele>109.7</ele>
        <time>2020-07-03T12:29:18Z</time>
      </trkpt>
      <trkpt lat="47.17283" lon="0.92853">
        <ele>109.7</ele>
        <time>2020-07-03T12:29:19Z</time>
      </trkpt>
      <trkpt lat="47.17282" lon="0.92848">
        <ele>109.7</ele>
        <time>2020-07-03T12:29:20Z</time>
      </trkpt>
      <trkpt lat="47.1728" lon="0.92842">
        <ele>109.7</ele>
        <time>2020-07-03T12:29:21Z</time>
      </trkpt>
      <trkpt lat="47.17278" lon="0.92836">
        <ele>109.7</ele>
        <time>2020-07-03T12:29:22Z</time>
      </trkpt>
      <trkpt lat="47.17277" lon="0.9283">
        <ele>109.8</ele>
        <time>2020-07-03T12:29:23Z</time>
      </trkpt>
      <trkpt lat="47.17275" lon="0.92824">
        <ele>109.8</ele>
        <time>2020-07-03T12:29:24Z</time>
      </trkpt>
      <trkpt lat="47.17274" lon="0.92818">
        <ele>109.9</ele>
        <time>2020-07-03T12:29:25Z</time>
      </trkpt>
      <trkpt lat="47.17272" lon="0.92813">
        <ele>109.9</ele>
        <time>2020-07-03T12:29:26Z</time>
      </trkpt>
      <trkpt lat="47.17271" lon="0.92809">
        <ele>110</ele>
        <time>2020-07-03T12:29:27Z</time>
      </trkpt>
      <trkpt lat="47.1727" lon="0.92804">
        <ele>110.1</ele>
        <time>2020-07-03T12:29:28Z</time>
      </trkpt>
      <trkpt lat="47.17268" lon="0.92797">
        <ele>110.1</ele>
        <time>2020-07-03T12:29:29Z</time>
      </trkpt>
      <trkpt lat="47.17267" lon="0.92791">
        <ele>110.2</ele>
        <time>2020-07-03T12:29:30Z</time>
      </trkpt>
      <trkpt lat="47.17265" lon="0.92785">
        <ele>110.3</ele>
        <time>2020-07-03T12:29:31Z</time>
      </trkpt>
      <trkpt lat="47.17263" lon="0.92779">
        <ele>110.4</ele>
        <time>2020-07-03T12:29:32Z</time>
      </trkpt>
      <trkpt lat="47.17262" lon="0.92772">
        <ele>110.4</ele>
        <time>2020-07-03T12:29:33Z</time>
      </trkpt>
      <trkpt lat="47.1726" lon="0.92765">
        <ele>110.5</ele>
        <time>2020-07-03T12:29:34Z</time>
      </trkpt>
      <trkpt lat="47.17258" lon="0.92758">
        <ele>110.6</ele>
        <time>2020-07-03T12:29:35Z</time>
      </trkpt>
      <trkpt lat="47.17257" lon="0.92753">
        <ele>110.7</ele>
        <time>2020-07-03T12:29:36Z</time>
      </trkpt>
      <trkpt lat="47.17255" lon="0.92745">
        <ele>110.9</ele>
        <time>2020-07-03T12:29:37Z</time>
      </trkpt>
      <trkpt lat="47.17253" lon="0.92739">
        <ele>111</ele>
        <time>2020-07-03T12:29:38Z</time>
      </trkpt>
      <trkpt lat="47.17252" lon="0.92733">
        <ele>111.1</ele>
        <time>2020-07-03T12:29:39Z</time>
      </trkpt>
      <trkpt lat="47.1725" lon="0.92727">
        <ele>111.2</ele>
        <time>2020-07-03T12:29:40Z</time>
      </trkpt>
      <trkpt lat="47.17249" lon="0.92722">
        <ele>111.3</ele>
        <time>2020-07-03T12:29:41Z</time>
      </trkpt>
      <trkpt lat="47.17247" lon="0.92716">
        <ele>111.4</ele>
        <time>2020-07-03T12:29:42Z</time>
      </trkpt>
      <trkpt lat="47.17246" lon="0.9271">
        <ele>111.4</ele>
        <time>2020-07-03T12:29:43Z</time>
      </trkpt>
      <trkpt lat="47.17244" lon="0.92704">
        <ele>111.4</ele>
        <time>2020-07-03T12:29:44Z</time>
      </trkpt>
      <trkpt lat="47.17242" lon="0.92698">
        <ele>111.4</ele>
        <time>2020-07-03T12:29:45Z</time>
      </trkpt>
      <trkpt lat="47.1724" lon="0.92691">
        <ele>111.4</ele>
        <time>2020-07-03T12:29:46Z</time>
      </trkpt>
      <trkpt lat="47.17238" lon="0.92683">
        <ele>111.3</ele>
        <time>2020-07-03T12:29:47Z</time>
      </trkpt>
      <trkpt lat="47.17236" lon="0.92677">
        <ele>111.3</ele>
        <time>2020-07-03T12:29:48Z</time>
      </trkpt>
      <trkpt lat="47.17234" lon="0.92671">
        <ele>111.3</ele>
        <time>2020-07-03T12:29:49Z</time>
      </trkpt>
      <trkpt lat="47.17233" lon="0.92663">
        <ele>111.3</ele>
        <time>2020-07-03T12:29:50Z</time>
      </trkpt>
      <trkpt lat="47.17231" lon="0.92656">
        <ele>111.4</ele>
        <time>2020-07-03T12:29:51Z</time>
      </trkpt>
      <trkpt lat="47.1723" lon="0.92649">
        <ele>111.4</ele>
        <time>2020-07-03T12:29:52Z</time>
      </trkpt>
      <trkpt lat="47.17228" lon="0.92642">
        <ele>111.5</ele>
        <time>2020-07-03T12:29:53Z</time>
      </trkpt>
      <trkpt lat="47.17226" lon="0.92637">
        <ele>111.5</ele>
        <time>2020-07-03T12:29:54Z</time>
      </trkpt>
      <trkpt lat="47.17224" lon="0.9263">
        <ele>111.5</ele>
        <time>2020-07-03T12:29:55Z</time>
      </trkpt>
      <trkpt lat="47.17222" lon="0.92623">
        <ele>111.5</ele>
        <time>2020-07-03T12:29:56Z</time>
      </trkpt>
      <trkpt lat="47.17221" lon="0.92616">
        <ele>111.6</ele>
        <time>2020-07-03T12:29:57Z</time>
      </trkpt>
      <trkpt lat="47.1722" lon="0.92609">
        <ele>111.7</ele>
        <time>2020-07-03T12:29:58Z</time>
      </trkpt>
      <trkpt lat="47.17218" lon="0.92602">
        <ele>111.7</ele>
        <time>2020-07-03T12:29:59Z</time>
      </trkpt>
      <trkpt lat="47.17216" lon="0.92595">
        <ele>111.9</ele>
        <time>2020-07-03T12:30:00Z</time>
      </trkpt>
      <trkpt lat="47.17214" lon="0.92588">
        <ele>112</ele>
        <time>2020-07-03T12:30:01Z</time>
      </trkpt>
      <trkpt lat="47.17212" lon="0.9258">
        <ele>112.2</ele>
        <time>2020-07-03T12:30:02Z</time>
      </trkpt>
      <trkpt lat="47.1721" lon="0.92571">
        <ele>112.4</ele>
        <time>2020-07-03T12:30:03Z</time>
      </trkpt>
      <trkpt lat="47.17208" lon="0.92564">
        <ele>112.5</ele>
        <time>2020-07-03T12:30:04Z</time>
      </trkpt>
      <trkpt lat="47.17206" lon="0.92557">
        <ele>112.6</ele>
        <time>2020-07-03T12:30:05Z</time>
      </trkpt>
      <trkpt lat="47.17204" lon="0.92551">
        <ele>112.6</ele>
        <time>2020-07-03T12:30:06Z</time>
      </trkpt>
      <trkpt lat="47.17202" lon="0.92544">
        <ele>112.6</ele>
        <time>2020-07-03T12:30:07Z</time>
      </trkpt>
      <trkpt lat="47.172" lon="0.92536">
        <ele>112.5</ele>
        <time>2020-07-03T12:30:08Z</time>
      </trkpt>
      <trkpt lat="47.17198" lon="0.92528">
        <ele>112.5</ele>
        <time>2020-07-03T12:30:09Z</time>
      </trkpt>
      <trkpt lat="47.17196" lon="0.9252">
        <ele>112.5</ele>
        <time>2020-07-03T12:30:10Z</time>
      </trkpt>
      <trkpt lat="47.17194" lon="0.92513">
        <ele>112.5</ele>
        <time>2020-07-03T12:30:11Z</time>
      </trkpt>
      <trkpt lat="47.17192" lon="0.92506">
        <ele>112.5</ele>
        <time>2020-07-03T12:30:12Z</time>
      </trkpt>
      <trkpt lat="47.1719" lon="0.92498">
        <ele>112.5</ele>
        <time>2020-07-03T12:30:13Z</time>
      </trkpt>
      <trkpt lat="47.17188" lon="0.9249">
        <ele>112.5</ele>
        <time>2020-07-03T12:30:14Z</time>
      </trkpt>
      <trkpt lat="47.17186" lon="0.92482">
        <ele>112.5</ele>
        <time>2020-07-03T12:30:15Z</time>
      </trkpt>
      <trkpt lat="47.17184" lon="0.92476">
        <ele>112.5</ele>
        <time>2020-07-03T12:30:16Z</time>
      </trkpt>
      <trkpt lat="47.17184" lon="0.92468">
        <ele>112.5</ele>
        <time>2020-07-03T12:30:17Z</time>
      </trkpt>
      <trkpt lat="47.17181" lon="0.92461">
        <ele>112.6</ele>
        <time>2020-07-03T12:30:18Z</time>
      </trkpt>
      <trkpt lat="47.17179" lon="0.92454">
        <ele>112.6</ele>
        <time>2020-07-03T12:30:19Z</time>
      </trkpt>
      <trkpt lat="47.17178" lon="0.92447">
        <ele>112.6</ele>
        <time>2020-07-03T12:30:20Z</time>
      </trkpt>
      <trkpt lat="47.17176" lon="0.9244">
        <ele>112.7</ele>
        <time>2020-07-03T12:30:21Z</time>
      </trkpt>
      <trkpt lat="47.17174" lon="0.92432">
        <ele>112.7</ele>
        <time>2020-07-03T12:30:22Z</time>
      </trkpt>
      <trkpt lat="47.17172" lon="0.92425">
        <ele>112.7</ele>
        <time>2020-07-03T12:30:23Z</time>
      </trkpt>
      <trkpt lat="47.1717" lon="0.92418">
        <ele>112.7</ele>
        <time>2020-07-03T12:30:24Z</time>
      </trkpt>
      <trkpt lat="47.17168" lon="0.92411">
        <ele>112.6</ele>
        <time>2020-07-03T12:30:25Z</time>
      </trkpt>
      <trkpt lat="47.17166" lon="0.92404">
        <ele>112.6</ele>
        <time>2020-07-03T12:30:26Z</time>
      </trkpt>
      <trkpt lat="47.17164" lon="0.92397">
        <ele>112.5</ele>
        <time>2020-07-03T12:30:27Z</time>
      </trkpt>
      <trkpt lat="47.17162" lon="0.92389">
        <ele>112.5</ele>
        <time>2020-07-03T12:30:28Z</time>
      </trkpt>
      <trkpt lat="47.1716" lon="0.92381">
        <ele>112.4</ele>
        <time>2020-07-03T12:30:29Z</time>
      </trkpt>
      <trkpt lat="47.17158" lon="0.92373">
        <ele>112.4</ele>
        <time>2020-07-03T12:30:30Z</time>
      </trkpt>
      <trkpt lat="47.17155" lon="0.92365">
        <ele>112.3</ele>
        <time>2020-07-03T12:30:31Z</time>
      </trkpt>
      <trkpt lat="47.17153" lon="0.92359">
        <ele>112.2</ele>
        <time>2020-07-03T12:30:32Z</time>
      </trkpt>
      <trkpt lat="47.17151" lon="0.92351">
        <ele>112.1</ele>
        <time>2020-07-03T12:30:33Z</time>
      </trkpt>
      <trkpt lat="47.17149" lon="0.92343">
        <ele>112</ele>
        <time>2020-07-03T12:30:34Z</time>
      </trkpt>
      <trkpt lat="47.17147" lon="0.92334">
        <ele>111.9</ele>
        <time>2020-07-03T12:30:35Z</time>
      </trkpt>
      <trkpt lat="47.17145" lon="0.92326">
        <ele>111.9</ele>
        <time>2020-07-03T12:30:36Z</time>
      </trkpt>
      <trkpt lat="47.17143" lon="0.92317">
        <ele>111.8</ele>
        <time>2020-07-03T12:30:37Z</time>
      </trkpt>
      <trkpt lat="47.17141" lon="0.92309">
        <ele>111.8</ele>
        <time>2020-07-03T12:30:38Z</time>
      </trkpt>
      <trkpt lat="47.17139" lon="0.92301">
        <ele>111.7</ele>
        <time>2020-07-03T12:30:39Z</time>
      </trkpt>
      <trkpt lat="47.17137" lon="0.92292">
        <ele>111.6</ele>
        <time>2020-07-03T12:30:40Z</time>
      </trkpt>
      <trkpt lat="47.17135" lon="0.92283">
        <ele>111.5</ele>
        <time>2020-07-03T12:30:41Z</time>
      </trkpt>
      <trkpt lat="47.17133" lon="0.92273">
        <ele>111.6</ele>
        <time>2020-07-03T12:30:42Z</time>
      </trkpt>
      <trkpt lat="47.17131" lon="0.92264">
        <ele>111.6</ele>
        <time>2020-07-03T12:30:43Z</time>
      </trkpt>
      <trkpt lat="47.17128" lon="0.92254">
        <ele>111.5</ele>
        <time>2020-07-03T12:30:44Z</time>
      </trkpt>
      <trkpt lat="47.17125" lon="0.92244">
        <ele>111.4</ele>
        <time>2020-07-03T12:30:45Z</time>
      </trkpt>
      <trkpt lat="47.17123" lon="0.92236">
        <ele>111.3</ele>
        <time>2020-07-03T12:30:46Z</time>
      </trkpt>
      <trkpt lat="47.17121" lon="0.92226">
        <ele>111.2</ele>
        <time>2020-07-03T12:30:47Z</time>
      </trkpt>
      <trkpt lat="47.17119" lon="0.92217">
        <ele>111</ele>
        <time>2020-07-03T12:30:48Z</time>
      </trkpt>
      <trkpt lat="47.17116" lon="0.92208">
        <ele>110.9</ele>
        <time>2020-07-03T12:30:49Z</time>
      </trkpt>
      <trkpt lat="47.17114" lon="0.92198">
        <ele>110.9</ele>
        <time>2020-07-03T12:30:50Z</time>
      </trkpt>
      <trkpt lat="47.17112" lon="0.92189">
        <ele>110.9</ele>
        <time>2020-07-03T12:30:51Z</time>
      </trkpt>
      <trkpt lat="47.1711" lon="0.9218">
        <ele>110.8</ele>
        <time>2020-07-03T12:30:52Z</time>
      </trkpt>
      <trkpt lat="47.17108" lon="0.9217">
        <ele>110.8</ele>
        <time>2020-07-03T12:30:53Z</time>
      </trkpt>
      <trkpt lat="47.17107" lon="0.9216">
        <ele>110.7</ele>
        <time>2020-07-03T12:30:54Z</time>
      </trkpt>
      <trkpt lat="47.17105" lon="0.92151">
        <ele>110.6</ele>
        <time>2020-07-03T12:30:55Z</time>
      </trkpt>
      <trkpt lat="47.17104" lon="0.92141">
        <ele>110.6</ele>
        <time>2020-07-03T12:30:56Z</time>
      </trkpt>
      <trkpt lat="47.17103" lon="0.92131">
        <ele>110.6</ele>
        <time>2020-07-03T12:30:57Z</time>
      </trkpt>
      <trkpt lat="47.17102" lon="0.92122">
        <ele>110.6</ele>
        <time>2020-07-03T12:30:58Z</time>
      </trkpt>
      <trkpt lat="47.17103" lon="0.92114">
        <ele>110.7</ele>
        <time>2020-07-03T12:30:59Z</time>
      </trkpt>
      <trkpt lat="47.17102" lon="0.92105">
        <ele>110.7</ele>
        <time>2020-07-03T12:31:00Z</time>
      </trkpt>
      <trkpt lat="47.17102" lon="0.92097">
        <ele>110.8</ele>
        <time>2020-07-03T12:31:01Z</time>
      </trkpt>
      <trkpt lat="47.17102" lon="0.92088">
        <ele>110.8</ele>
        <time>2020-07-03T12:31:02Z</time>
      </trkpt>
      <trkpt lat="47.17101" lon="0.9208">
        <ele>110.8</ele>
        <time>2020-07-03T12:31:03Z</time>
      </trkpt>
      <trkpt lat="47.17101" lon="0.92071">
        <ele>110.8</ele>
        <time>2020-07-03T12:31:04Z</time>
      </trkpt>
      <trkpt lat="47.17101" lon="0.92062">
        <ele>110.9</ele>
        <time>2020-07-03T12:31:05Z</time>
      </trkpt>
      <trkpt lat="47.171" lon="0.92053">
        <ele>110.9</ele>
        <time>2020-07-03T12:31:06Z</time>
      </trkpt>
      <trkpt lat="47.171" lon="0.92044">
        <ele>110.8</ele>
        <time>2020-07-03T12:31:07Z</time>
      </trkpt>
      <trkpt lat="47.17099" lon="0.92037">
        <ele>110.8</ele>
        <time>2020-07-03T12:31:08Z</time>
      </trkpt>
      <trkpt lat="47.17098" lon="0.92028">
        <ele>110.8</ele>
        <time>2020-07-03T12:31:09Z</time>
      </trkpt>
      <trkpt lat="47.17098" lon="0.92021">
        <ele>110.8</ele>
        <time>2020-07-03T12:31:10Z</time>
      </trkpt>
      <trkpt lat="47.17097" lon="0.92014">
        <ele>110.9</ele>
        <time>2020-07-03T12:31:11Z</time>
      </trkpt>
      <trkpt lat="47.17097" lon="0.92006">
        <ele>110.9</ele>
        <time>2020-07-03T12:31:12Z</time>
      </trkpt>
      <trkpt lat="47.17097" lon="0.91998">
        <ele>110.9</ele>
        <time>2020-07-03T12:31:13Z</time>
      </trkpt>
      <trkpt lat="47.17097" lon="0.9199">
        <ele>110.9</ele>
        <time>2020-07-03T12:31:14Z</time>
      </trkpt>
      <trkpt lat="47.17097" lon="0.91983">
        <ele>110.9</ele>
        <time>2020-07-03T12:31:15Z</time>
      </trkpt>
      <trkpt lat="47.17096" lon="0.91975">
        <ele>110.9</ele>
        <time>2020-07-03T12:31:16Z</time>
      </trkpt>
      <trkpt lat="47.17096" lon="0.91966">
        <ele>110.9</ele>
        <time>2020-07-03T12:31:17Z</time>
      </trkpt>
      <trkpt lat="47.17095" lon="0.91958">
        <ele>110.9</ele>
        <time>2020-07-03T12:31:18Z</time>
      </trkpt>
      <trkpt lat="47.17094" lon="0.9195">
        <ele>110.9</ele>
        <time>2020-07-03T12:31:19Z</time>
      </trkpt>
      <trkpt lat="47.17094" lon="0.91942">
        <ele>110.9</ele>
        <time>2020-07-03T12:31:20Z</time>
      </trkpt>
      <trkpt lat="47.17094" lon="0.91933">
        <ele>111</ele>
        <time>2020-07-03T12:31:21Z</time>
      </trkpt>
      <trkpt lat="47.17094" lon="0.91925">
        <ele>111</ele>
        <time>2020-07-03T12:31:22Z</time>
      </trkpt>
      <trkpt lat="47.17093" lon="0.91918">
        <ele>111</ele>
        <time>2020-07-03T12:31:23Z</time>
      </trkpt>
      <trkpt lat="47.17093" lon="0.91909">
        <ele>111</ele>
        <time>2020-07-03T12:31:24Z</time>
      </trkpt>
      <trkpt lat="47.17093" lon="0.919">
        <ele>111</ele>
        <time>2020-07-03T12:31:25Z</time>
      </trkpt>
      <trkpt lat="47.17093" lon="0.91892">
        <ele>111.1</ele>
        <time>2020-07-03T12:31:26Z</time>
      </trkpt>
      <trkpt lat="47.17093" lon="0.91884">
        <ele>111.1</ele>
        <time>2020-07-03T12:31:27Z</time>
      </trkpt>
      <trkpt lat="47.17092" lon="0.91877">
        <ele>111</ele>
        <time>2020-07-03T12:31:28Z</time>
      </trkpt>
      <trkpt lat="47.17091" lon="0.9187">
        <ele>111</ele>
        <time>2020-07-03T12:31:29Z</time>
      </trkpt>
      <trkpt lat="47.17091" lon="0.91862">
        <ele>111</ele>
        <time>2020-07-03T12:31:30Z</time>
      </trkpt>
      <trkpt lat="47.1709" lon="0.91855">
        <ele>111</ele>
        <time>2020-07-03T12:31:31Z</time>
      </trkpt>
      <trkpt lat="47.17089" lon="0.91847">
        <ele>111</ele>
        <time>2020-07-03T12:31:32Z</time>
      </trkpt>
      <trkpt lat="47.17089" lon="0.91839">
        <ele>111</ele>
        <time>2020-07-03T12:31:33Z</time>
      </trkpt>
      <trkpt lat="47.17088" lon="0.91832">
        <ele>111</ele>
        <time>2020-07-03T12:31:34Z</time>
      </trkpt>
      <trkpt lat="47.17087" lon="0.91825">
        <ele>111</ele>
        <time>2020-07-03T12:31:35Z</time>
      </trkpt>
      <trkpt lat="47.17087" lon="0.91818">
        <ele>111</ele>
        <time>2020-07-03T12:31:36Z</time>
      </trkpt>
      <trkpt lat="47.17086" lon="0.9181">
        <ele>111</ele>
        <time>2020-07-03T12:31:37Z</time>
      </trkpt>
      <trkpt lat="47.17085" lon="0.91803">
        <ele>111</ele>
        <time>2020-07-03T12:31:38Z</time>
      </trkpt>
      <trkpt lat="47.17085" lon="0.91796">
        <ele>111</ele>
        <time>2020-07-03T12:31:39Z</time>
      </trkpt>
      <trkpt lat="47.17085" lon="0.91789">
        <ele>111</ele>
        <time>2020-07-03T12:31:40Z</time>
      </trkpt>
      <trkpt lat="47.17085" lon="0.91781">
        <ele>111</ele>
        <time>2020-07-03T12:31:41Z</time>
      </trkpt>
      <trkpt lat="47.17085" lon="0.91773">
        <ele>110.9</ele>
        <time>2020-07-03T12:31:42Z</time>
      </trkpt>
      <trkpt lat="47.17085" lon="0.91765">
        <ele>110.9</ele>
        <time>2020-07-03T12:31:43Z</time>
      </trkpt>
      <trkpt lat="47.17084" lon="0.91759">
        <ele>110.9</ele>
        <time>2020-07-03T12:31:44Z</time>
      </trkpt>
      <trkpt lat="47.17083" lon="0.91752">
        <ele>110.8</ele>
        <time>2020-07-03T12:31:45Z</time>
      </trkpt>
      <trkpt lat="47.17082" lon="0.91746">
        <ele>110.8</ele>
        <time>2020-07-03T12:31:46Z</time>
      </trkpt>
      <trkpt lat="47.17082" lon="0.91739">
        <ele>110.7</ele>
        <time>2020-07-03T12:31:47Z</time>
      </trkpt>
      <trkpt lat="47.17082" lon="0.91733">
        <ele>110.7</ele>
        <time>2020-07-03T12:31:48Z</time>
      </trkpt>
      <trkpt lat="47.17082" lon="0.91725">
        <ele>110.6</ele>
        <time>2020-07-03T12:31:49Z</time>
      </trkpt>
      <trkpt lat="47.17082" lon="0.91718">
        <ele>110.6</ele>
        <time>2020-07-03T12:31:50Z</time>
      </trkpt>
      <trkpt lat="47.17082" lon="0.9171">
        <ele>110.5</ele>
        <time>2020-07-03T12:31:51Z</time>
      </trkpt>
      <trkpt lat="47.17081" lon="0.91702">
        <ele>110.5</ele>
        <time>2020-07-03T12:31:52Z</time>
      </trkpt>
      <trkpt lat="47.17081" lon="0.91693">
        <ele>110.4</ele>
        <time>2020-07-03T12:31:53Z</time>
      </trkpt>
      <trkpt lat="47.17081" lon="0.91685">
        <ele>110.4</ele>
        <time>2020-07-03T12:31:54Z</time>
      </trkpt>
      <trkpt lat="47.17081" lon="0.91677">
        <ele>110.3</ele>
        <time>2020-07-03T12:31:55Z</time>
      </trkpt>
      <trkpt lat="47.17081" lon="0.9167">
        <ele>110.3</ele>
        <time>2020-07-03T12:31:56Z</time>
      </trkpt>
      <trkpt lat="47.17081" lon="0.91663">
        <ele>110.2</ele>
        <time>2020-07-03T12:31:57Z</time>
      </trkpt>
      <trkpt lat="47.17081" lon="0.91656">
        <ele>110.1</ele>
        <time>2020-07-03T12:31:58Z</time>
      </trkpt>
      <trkpt lat="47.17081" lon="0.91649">
        <ele>110.1</ele>
        <time>2020-07-03T12:31:59Z</time>
      </trkpt>
      <trkpt lat="47.17081" lon="0.91642">
        <ele>110</ele>
        <time>2020-07-03T12:32:00Z</time>
      </trkpt>
      <trkpt lat="47.17081" lon="0.91634">
        <ele>110</ele>
        <time>2020-07-03T12:32:01Z</time>
      </trkpt>
      <trkpt lat="47.1708" lon="0.91625">
        <ele>110</ele>
        <time>2020-07-03T12:32:02Z</time>
      </trkpt>
      <trkpt lat="47.17079" lon="0.91616">
        <ele>110.1</ele>
        <time>2020-07-03T12:32:03Z</time>
      </trkpt>
      <trkpt lat="47.17078" lon="0.91607">
        <ele>110.2</ele>
        <time>2020-07-03T12:32:04Z</time>
      </trkpt>
      <trkpt lat="47.17078" lon="0.91597">
        <ele>109.9</ele>
        <time>2020-07-03T12:32:05Z</time>
      </trkpt>
      <trkpt lat="47.17077" lon="0.91589">
        <ele>109.7</ele>
        <time>2020-07-03T12:32:06Z</time>
      </trkpt>
      <trkpt lat="47.17077" lon="0.91581">
        <ele>109.5</ele>
        <time>2020-07-03T12:32:07Z</time>
      </trkpt>
      <trkpt lat="47.17076" lon="0.91573">
        <ele>109.3</ele>
        <time>2020-07-03T12:32:08Z</time>
      </trkpt>
      <trkpt lat="47.17076" lon="0.91563">
        <ele>109.1</ele>
        <time>2020-07-03T12:32:09Z</time>
      </trkpt>
      <trkpt lat="47.17075" lon="0.91555">
        <ele>109</ele>
        <time>2020-07-03T12:32:10Z</time>
      </trkpt>
      <trkpt lat="47.17075" lon="0.91546">
        <ele>108.9</ele>
        <time>2020-07-03T12:32:11Z</time>
      </trkpt>
      <trkpt lat="47.17075" lon="0.91538">
        <ele>108.8</ele>
        <time>2020-07-03T12:32:12Z</time>
      </trkpt>
      <trkpt lat="47.17075" lon="0.91529">
        <ele>108.7</ele>
        <time>2020-07-03T12:32:13Z</time>
      </trkpt>
      <trkpt lat="47.17075" lon="0.91521">
        <ele>108.5</ele>
        <time>2020-07-03T12:32:14Z</time>
      </trkpt>
      <trkpt lat="47.17075" lon="0.91511">
        <ele>108.4</ele>
        <time>2020-07-03T12:32:15Z</time>
      </trkpt>
      <trkpt lat="47.17075" lon="0.91502">
        <ele>108.2</ele>
        <time>2020-07-03T12:32:16Z</time>
      </trkpt>
      <trkpt lat="47.17074" lon="0.91492">
        <ele>108.1</ele>
        <time>2020-07-03T12:32:17Z</time>
      </trkpt>
      <trkpt lat="47.17073" lon="0.91484">
        <ele>108</ele>
        <time>2020-07-03T12:32:18Z</time>
      </trkpt>
      <trkpt lat="47.17073" lon="0.91475">
        <ele>107.9</ele>
        <time>2020-07-03T12:32:19Z</time>
      </trkpt>
      <trkpt lat="47.17072" lon="0.91465">
        <ele>107.7</ele>
        <time>2020-07-03T12:32:20Z</time>
      </trkpt>
      <trkpt lat="47.17072" lon="0.91456">
        <ele>107.5</ele>
        <time>2020-07-03T12:32:21Z</time>
      </trkpt>
      <trkpt lat="47.17072" lon="0.91448">
        <ele>107.3</ele>
        <time>2020-07-03T12:32:22Z</time>
      </trkpt>
      <trkpt lat="47.17071" lon="0.91439">
        <ele>107.1</ele>
        <time>2020-07-03T12:32:23Z</time>
      </trkpt>
      <trkpt lat="47.17071" lon="0.91431">
        <ele>107</ele>
        <time>2020-07-03T12:32:24Z</time>
      </trkpt>
      <trkpt lat="47.17071" lon="0.91421">
        <ele>106.8</ele>
        <time>2020-07-03T12:32:25Z</time>
      </trkpt>
      <trkpt lat="47.17071" lon="0.91411">
        <ele>106.6</ele>
        <time>2020-07-03T12:32:26Z</time>
      </trkpt>
      <trkpt lat="47.17071" lon="0.91401">
        <ele>106.4</ele>
        <time>2020-07-03T12:32:27Z</time>
      </trkpt>
      <trkpt lat="47.1707" lon="0.91392">
        <ele>106.2</ele>
        <time>2020-07-03T12:32:28Z</time>
      </trkpt>
      <trkpt lat="47.1707" lon="0.91382">
        <ele>106</ele>
        <time>2020-07-03T12:32:29Z</time>
      </trkpt>
      <trkpt lat="47.1707" lon="0.91372">
        <ele>105.9</ele>
        <time>2020-07-03T12:32:30Z</time>
      </trkpt>
      <trkpt lat="47.17069" lon="0.91362">
        <ele>105.7</ele>
        <time>2020-07-03T12:32:31Z</time>
      </trkpt>
      <trkpt lat="47.17069" lon="0.91353">
        <ele>105.6</ele>
        <time>2020-07-03T12:32:32Z</time>
      </trkpt>
      <trkpt lat="47.17068" lon="0.91342">
        <ele>105.4</ele>
        <time>2020-07-03T12:32:33Z</time>
      </trkpt>
      <trkpt lat="47.17067" lon="0.91332">
        <ele>105.3</ele>
        <time>2020-07-03T12:32:34Z</time>
      </trkpt>
      <trkpt lat="47.17065" lon="0.91323">
        <ele>105.2</ele>
        <time>2020-07-03T12:32:35Z</time>
      </trkpt>
      <trkpt lat="47.17064" lon="0.91312">
        <ele>105.2</ele>
        <time>2020-07-03T12:32:36Z</time>
      </trkpt>
      <trkpt lat="47.17063" lon="0.91302">
        <ele>105.1</ele>
        <time>2020-07-03T12:32:37Z</time>
      </trkpt>
      <trkpt lat="47.17062" lon="0.91294">
        <ele>105.1</ele>
        <time>2020-07-03T12:32:38Z</time>
      </trkpt>
      <trkpt lat="47.1706" lon="0.91285">
        <ele>105</ele>
        <time>2020-07-03T12:32:39Z</time>
      </trkpt>
      <trkpt lat="47.17058" lon="0.91277">
        <ele>104.9</ele>
        <time>2020-07-03T12:32:40Z</time>
      </trkpt>
      <trkpt lat="47.17056" lon="0.91268">
        <ele>104.9</ele>
        <time>2020-07-03T12:32:41Z</time>
      </trkpt>
      <trkpt lat="47.17054" lon="0.9126">
        <ele>104.8</ele>
        <time>2020-07-03T12:32:42Z</time>
      </trkpt>
      <trkpt lat="47.17052" lon="0.91251">
        <ele>104.7</ele>
        <time>2020-07-03T12:32:43Z</time>
      </trkpt>
      <trkpt lat="47.17049" lon="0.91243">
        <ele>104.7</ele>
        <time>2020-07-03T12:32:44Z</time>
      </trkpt>
      <trkpt lat="47.17047" lon="0.91233">
        <ele>104.6</ele>
        <time>2020-07-03T12:32:45Z</time>
      </trkpt>
      <trkpt lat="47.17045" lon="0.91225">
        <ele>104.6</ele>
        <time>2020-07-03T12:32:46Z</time>
      </trkpt>
      <trkpt lat="47.17043" lon="0.91217">
        <ele>104.6</ele>
        <time>2020-07-03T12:32:47Z</time>
      </trkpt>
      <trkpt lat="47.17041" lon="0.91209">
        <ele>104.5</ele>
        <time>2020-07-03T12:32:48Z</time>
      </trkpt>
      <trkpt lat="47.17038" lon="0.91202">
        <ele>104.5</ele>
        <time>2020-07-03T12:32:49Z</time>
      </trkpt>
      <trkpt lat="47.17035" lon="0.91195">
        <ele>104.5</ele>
        <time>2020-07-03T12:32:50Z</time>
      </trkpt>
      <trkpt lat="47.17033" lon="0.91188">
        <ele>104.5</ele>
        <time>2020-07-03T12:32:51Z</time>
      </trkpt>
      <trkpt lat="47.1703" lon="0.9118">
        <ele>104.5</ele>
        <time>2020-07-03T12:32:52Z</time>
      </trkpt>
      <trkpt lat="47.17028" lon="0.91173">
        <ele>104.5</ele>
        <time>2020-07-03T12:32:53Z</time>
      </trkpt>
      <trkpt lat="47.17025" lon="0.91167">
        <ele>104.5</ele>
        <time>2020-07-03T12:32:54Z</time>
      </trkpt>
      <trkpt lat="47.17023" lon="0.9116">
        <ele>104.6</ele>
        <time>2020-07-03T12:32:55Z</time>
      </trkpt>
      <trkpt lat="47.1702" lon="0.91153">
        <ele>104.6</ele>
        <time>2020-07-03T12:32:56Z</time>
      </trkpt>
      <trkpt lat="47.17017" lon="0.91145">
        <ele>104.7</ele>
        <time>2020-07-03T12:32:57Z</time>
      </trkpt>
      <trkpt lat="47.17014" lon="0.9114">
        <ele>104.8</ele>
        <time>2020-07-03T12:32:58Z</time>
      </trkpt>
      <trkpt lat="47.17011" lon="0.91134">
        <ele>104.8</ele>
        <time>2020-07-03T12:32:59Z</time>
      </trkpt>
      <trkpt lat="47.17008" lon="0.91128">
        <ele>104.8</ele>
        <time>2020-07-03T12:33:00Z</time>
      </trkpt>
      <trkpt lat="47.17006" lon="0.91122">
        <ele>104.8</ele>
        <time>2020-07-03T12:33:01Z</time>
      </trkpt>
      <trkpt lat="47.17002" lon="0.91116">
        <ele>104.8</ele>
        <time>2020-07-03T12:33:02Z</time>
      </trkpt>
      <trkpt lat="47.16999" lon="0.91108">
        <ele>104.8</ele>
        <time>2020-07-03T12:33:03Z</time>
      </trkpt>
      <trkpt lat="47.16995" lon="0.91101">
        <ele>104.8</ele>
        <time>2020-07-03T12:33:04Z</time>
      </trkpt>
      <trkpt lat="47.16992" lon="0.91094">
        <ele>104.8</ele>
        <time>2020-07-03T12:33:05Z</time>
      </trkpt>
      <trkpt lat="47.16989" lon="0.91088">
        <ele>104.8</ele>
        <time>2020-07-03T12:33:06Z</time>
      </trkpt>
      <trkpt lat="47.16985" lon="0.91081">
        <ele>104.8</ele>
        <time>2020-07-03T12:33:07Z</time>
      </trkpt>
      <trkpt lat="47.16982" lon="0.91075">
        <ele>104.8</ele>
        <time>2020-07-03T12:33:08Z</time>
      </trkpt>
      <trkpt lat="47.1698" lon="0.91067">
        <ele>104.8</ele>
        <time>2020-07-03T12:33:09Z</time>
      </trkpt>
      <trkpt lat="47.16977" lon="0.9106">
        <ele>104.8</ele>
        <time>2020-07-03T12:33:10Z</time>
      </trkpt>
      <trkpt lat="47.16973" lon="0.91055">
        <ele>104.9</ele>
        <time>2020-07-03T12:33:11Z</time>
      </trkpt>
      <trkpt lat="47.1697" lon="0.91048">
        <ele>104.9</ele>
        <time>2020-07-03T12:33:12Z</time>
      </trkpt>
      <trkpt lat="47.16968" lon="0.91041">
        <ele>104.9</ele>
        <time>2020-07-03T12:33:13Z</time>
      </trkpt>
      <trkpt lat="47.16964" lon="0.91034">
        <ele>105</ele>
        <time>2020-07-03T12:33:14Z</time>
      </trkpt>
      <trkpt lat="47.16962" lon="0.91029">
        <ele>105</ele>
        <time>2020-07-03T12:33:15Z</time>
      </trkpt>
      <trkpt lat="47.16958" lon="0.91022">
        <ele>105</ele>
        <time>2020-07-03T12:33:16Z</time>
      </trkpt>
      <trkpt lat="47.16955" lon="0.91015">
        <ele>105</ele>
        <time>2020-07-03T12:33:17Z</time>
      </trkpt>
      <trkpt lat="47.16952" lon="0.91008">
        <ele>105</ele>
        <time>2020-07-03T12:33:18Z</time>
      </trkpt>
      <trkpt lat="47.16949" lon="0.91002">
        <ele>105.1</ele>
        <time>2020-07-03T12:33:19Z</time>
      </trkpt>
      <trkpt lat="47.16946" lon="0.90995">
        <ele>105.1</ele>
        <time>2020-07-03T12:33:20Z</time>
      </trkpt>
      <trkpt lat="47.16944" lon="0.90988">
        <ele>105.2</ele>
        <time>2020-07-03T12:33:21Z</time>
      </trkpt>
      <trkpt lat="47.16941" lon="0.90981">
        <ele>105.3</ele>
        <time>2020-07-03T12:33:22Z</time>
      </trkpt>
      <trkpt lat="47.16938" lon="0.90975">
        <ele>105.4</ele>
        <time>2020-07-03T12:33:23Z</time>
      </trkpt>
      <trkpt lat="47.16935" lon="0.90968">
        <ele>105.5</ele>
        <time>2020-07-03T12:33:24Z</time>
      </trkpt>
      <trkpt lat="47.16933" lon="0.90962">
        <ele>105.6</ele>
        <time>2020-07-03T12:33:25Z</time>
      </trkpt>
      <trkpt lat="47.1693" lon="0.90955">
        <ele>105.7</ele>
        <time>2020-07-03T12:33:26Z</time>
      </trkpt>
      <trkpt lat="47.16927" lon="0.90948">
        <ele>105.9</ele>
        <time>2020-07-03T12:33:27Z</time>
      </trkpt>
      <trkpt lat="47.16924" lon="0.90941">
        <ele>106.4</ele>
        <time>2020-07-03T12:33:28Z</time>
      </trkpt>
      <trkpt lat="47.1692" lon="0.90935">
        <ele>106.2</ele>
        <time>2020-07-03T12:33:29Z</time>
      </trkpt>
      <trkpt lat="47.16917" lon="0.90928">
        <ele>106.1</ele>
        <time>2020-07-03T12:33:30Z</time>
      </trkpt>
      <trkpt lat="47.16915" lon="0.90922">
        <ele>106</ele>
        <time>2020-07-03T12:33:31Z</time>
      </trkpt>
      <trkpt lat="47.16913" lon="0.90917">
        <ele>105.9</ele>
        <time>2020-07-03T12:33:32Z</time>
      </trkpt>
      <trkpt lat="47.1691" lon="0.90911">
        <ele>105.9</ele>
        <time>2020-07-03T12:33:33Z</time>
      </trkpt>
      <trkpt lat="47.16908" lon="0.90905">
        <ele>105.9</ele>
        <time>2020-07-03T12:33:34Z</time>
      </trkpt>
      <trkpt lat="47.16906" lon="0.90899">
        <ele>105.9</ele>
        <time>2020-07-03T12:33:35Z</time>
      </trkpt>
      <trkpt lat="47.16903" lon="0.90892">
        <ele>105.9</ele>
        <time>2020-07-03T12:33:36Z</time>
      </trkpt>
      <trkpt lat="47.169" lon="0.90885">
        <ele>105.9</ele>
        <time>2020-07-03T12:33:37Z</time>
      </trkpt>
      <trkpt lat="47.16898" lon="0.90878">
        <ele>106</ele>
        <time>2020-07-03T12:33:38Z</time>
      </trkpt>
      <trkpt lat="47.16895" lon="0.90872">
        <ele>106</ele>
        <time>2020-07-03T12:33:39Z</time>
      </trkpt>
      <trkpt lat="47.16893" lon="0.90866">
        <ele>106</ele>
        <time>2020-07-03T12:33:40Z</time>
      </trkpt>
      <trkpt lat="47.16889" lon="0.9086">
        <ele>106.1</ele>
        <time>2020-07-03T12:33:41Z</time>
      </trkpt>
      <trkpt lat="47.16887" lon="0.90853">
        <ele>106.1</ele>
        <time>2020-07-03T12:33:42Z</time>
      </trkpt>
      <trkpt lat="47.16884" lon="0.90847">
        <ele>106.1</ele>
        <time>2020-07-03T12:33:43Z</time>
      </trkpt>
      <trkpt lat="47.16881" lon="0.9084">
        <ele>106.2</ele>
        <time>2020-07-03T12:33:44Z</time>
      </trkpt>
      <trkpt lat="47.16878" lon="0.90834">
        <ele>106.3</ele>
        <time>2020-07-03T12:33:45Z</time>
      </trkpt>
      <trkpt lat="47.16877" lon="0.9083">
        <ele>106.3</ele>
        <time>2020-07-03T12:33:46Z</time>
      </trkpt>
      <trkpt lat="47.16874" lon="0.90823">
        <ele>106.4</ele>
        <time>2020-07-03T12:33:47Z</time>
      </trkpt>
      <trkpt lat="47.16872" lon="0.90817">
        <ele>106.5</ele>
        <time>2020-07-03T12:33:48Z</time>
      </trkpt>
      <trkpt lat="47.16869" lon="0.90811">
        <ele>106.5</ele>
        <time>2020-07-03T12:33:49Z</time>
      </trkpt>
      <trkpt lat="47.16866" lon="0.90805">
        <ele>106.5</ele>
        <time>2020-07-03T12:33:50Z</time>
      </trkpt>
      <trkpt lat="47.16863" lon="0.90798">
        <ele>106.6</ele>
        <time>2020-07-03T12:33:51Z</time>
      </trkpt>
      <trkpt lat="47.1686" lon="0.90792">
        <ele>106.6</ele>
        <time>2020-07-03T12:33:52Z</time>
      </trkpt>
      <trkpt lat="47.16857" lon="0.90785">
        <ele>106.6</ele>
        <time>2020-07-03T12:33:53Z</time>
      </trkpt>
      <trkpt lat="47.16855" lon="0.9078">
        <ele>106.7</ele>
        <time>2020-07-03T12:33:54Z</time>
      </trkpt>
      <trkpt lat="47.16852" lon="0.90774">
        <ele>106.8</ele>
        <time>2020-07-03T12:33:55Z</time>
      </trkpt>
      <trkpt lat="47.16849" lon="0.90768">
        <ele>106.8</ele>
        <time>2020-07-03T12:33:56Z</time>
      </trkpt>
      <trkpt lat="47.16846" lon="0.90762">
        <ele>106.9</ele>
        <time>2020-07-03T12:33:57Z</time>
      </trkpt>
      <trkpt lat="47.16843" lon="0.90756">
        <ele>106.9</ele>
        <time>2020-07-03T12:33:58Z</time>
      </trkpt>
      <trkpt lat="47.1684" lon="0.90749">
        <ele>107</ele>
        <time>2020-07-03T12:33:59Z</time>
      </trkpt>
      <trkpt lat="47.16837" lon="0.90743">
        <ele>107</ele>
        <time>2020-07-03T12:34:00Z</time>
      </trkpt>
      <trkpt lat="47.16835" lon="0.90737">
        <ele>107.1</ele>
        <time>2020-07-03T12:34:01Z</time>
      </trkpt>
      <trkpt lat="47.16833" lon="0.90732">
        <ele>107.2</ele>
        <time>2020-07-03T12:34:02Z</time>
      </trkpt>
      <trkpt lat="47.1683" lon="0.90726">
        <ele>107.3</ele>
        <time>2020-07-03T12:34:03Z</time>
      </trkpt>
      <trkpt lat="47.16826" lon="0.90719">
        <ele>107.4</ele>
        <time>2020-07-03T12:34:04Z</time>
      </trkpt>
      <trkpt lat="47.16823" lon="0.90712">
        <ele>107.4</ele>
        <time>2020-07-03T12:34:05Z</time>
      </trkpt>
      <trkpt lat="47.1682" lon="0.90706">
        <ele>107.3</ele>
        <time>2020-07-03T12:34:06Z</time>
      </trkpt>
      <trkpt lat="47.16817" lon="0.907">
        <ele>107.2</ele>
        <time>2020-07-03T12:34:07Z</time>
      </trkpt>
      <trkpt lat="47.16815" lon="0.90693">
        <ele>107.2</ele>
        <time>2020-07-03T12:34:08Z</time>
      </trkpt>
      <trkpt lat="47.16813" lon="0.90687">
        <ele>107.2</ele>
        <time>2020-07-03T12:34:09Z</time>
      </trkpt>
      <trkpt lat="47.16811" lon="0.90682">
        <ele>107.3</ele>
        <time>2020-07-03T12:34:10Z</time>
      </trkpt>
      <trkpt lat="47.16808" lon="0.90676">
        <ele>107.3</ele>
        <time>2020-07-03T12:34:11Z</time>
      </trkpt>
      <trkpt lat="47.16805" lon="0.90669">
        <ele>107.3</ele>
        <time>2020-07-03T12:34:12Z</time>
      </trkpt>
      <trkpt lat="47.16802" lon="0.90661">
        <ele>107.4</ele>
        <time>2020-07-03T12:34:13Z</time>
      </trkpt>
      <trkpt lat="47.16798" lon="0.90654">
        <ele>107.4</ele>
        <time>2020-07-03T12:34:14Z</time>
      </trkpt>
      <trkpt lat="47.16796" lon="0.90648">
        <ele>107.5</ele>
        <time>2020-07-03T12:34:15Z</time>
      </trkpt>
      <trkpt lat="47.16792" lon="0.90643">
        <ele>107.6</ele>
        <time>2020-07-03T12:34:16Z</time>
      </trkpt>
      <trkpt lat="47.1679" lon="0.90637">
        <ele>107.6</ele>
        <time>2020-07-03T12:34:17Z</time>
      </trkpt>
      <trkpt lat="47.16787" lon="0.9063">
        <ele>107.7</ele>
        <time>2020-07-03T12:34:18Z</time>
      </trkpt>
      <trkpt lat="47.16785" lon="0.90623">
        <ele>107.8</ele>
        <time>2020-07-03T12:34:19Z</time>
      </trkpt>
      <trkpt lat="47.16783" lon="0.90617">
        <ele>107.9</ele>
        <time>2020-07-03T12:34:20Z</time>
      </trkpt>
      <trkpt lat="47.16781" lon="0.90612">
        <ele>108</ele>
        <time>2020-07-03T12:34:21Z</time>
      </trkpt>
      <trkpt lat="47.16779" lon="0.90607">
        <ele>108</ele>
        <time>2020-07-03T12:34:22Z</time>
      </trkpt>
      <trkpt lat="47.16776" lon="0.90603">
        <ele>108.1</ele>
        <time>2020-07-03T12:34:23Z</time>
      </trkpt>
      <trkpt lat="47.16773" lon="0.90597">
        <ele>108.1</ele>
        <time>2020-07-03T12:34:24Z</time>
      </trkpt>
      <trkpt lat="47.1677" lon="0.90592">
        <ele>108.2</ele>
        <time>2020-07-03T12:34:25Z</time>
      </trkpt>
      <trkpt lat="47.16766" lon="0.90585">
        <ele>108.3</ele>
        <time>2020-07-03T12:34:26Z</time>
      </trkpt>
      <trkpt lat="47.16763" lon="0.90578">
        <ele>108.4</ele>
        <time>2020-07-03T12:34:27Z</time>
      </trkpt>
      <trkpt lat="47.1676" lon="0.90572">
        <ele>108.5</ele>
        <time>2020-07-03T12:34:28Z</time>
      </trkpt>
      <trkpt lat="47.16759" lon="0.90566">
        <ele>108.5</ele>
        <time>2020-07-03T12:34:29Z</time>
      </trkpt>
      <trkpt lat="47.16756" lon="0.90561">
        <ele>108.6</ele>
        <time>2020-07-03T12:34:30Z</time>
      </trkpt>
      <trkpt lat="47.16754" lon="0.90556">
        <ele>108.7</ele>
        <time>2020-07-03T12:34:31Z</time>
      </trkpt>
      <trkpt lat="47.16751" lon="0.90549">
        <ele>108.8</ele>
        <time>2020-07-03T12:34:32Z</time>
      </trkpt>
      <trkpt lat="47.16749" lon="0.90544">
        <ele>108.8</ele>
        <time>2020-07-03T12:34:33Z</time>
      </trkpt>
      <trkpt lat="47.16747" lon="0.90539">
        <ele>108.9</ele>
        <time>2020-07-03T12:34:34Z</time>
      </trkpt>
      <trkpt lat="47.16745" lon="0.90533">
        <ele>109</ele>
        <time>2020-07-03T12:34:35Z</time>
      </trkpt>
      <trkpt lat="47.16743" lon="0.90527">
        <ele>109.1</ele>
        <time>2020-07-03T12:34:36Z</time>
      </trkpt>
      <trkpt lat="47.1674" lon="0.90522">
        <ele>109.2</ele>
        <time>2020-07-03T12:34:37Z</time>
      </trkpt>
      <trkpt lat="47.16737" lon="0.90514">
        <ele>109.4</ele>
        <time>2020-07-03T12:34:38Z</time>
      </trkpt>
      <trkpt lat="47.16734" lon="0.90508">
        <ele>109.5</ele>
        <time>2020-07-03T12:34:39Z</time>
      </trkpt>
      <trkpt lat="47.16731" lon="0.90502">
        <ele>109.6</ele>
        <time>2020-07-03T12:34:40Z</time>
      </trkpt>
      <trkpt lat="47.16728" lon="0.90495">
        <ele>109.8</ele>
        <time>2020-07-03T12:34:41Z</time>
      </trkpt>
      <trkpt lat="47.16725" lon="0.90488">
        <ele>110</ele>
        <time>2020-07-03T12:34:42Z</time>
      </trkpt>
      <trkpt lat="47.16721" lon="0.90481">
        <ele>110.3</ele>
        <time>2020-07-03T12:34:43Z</time>
      </trkpt>
      <trkpt lat="47.16718" lon="0.90475">
        <ele>110.5</ele>
        <time>2020-07-03T12:34:44Z</time>
      </trkpt>
      <trkpt lat="47.16715" lon="0.9047">
        <ele>110.7</ele>
        <time>2020-07-03T12:34:45Z</time>
      </trkpt>
      <trkpt lat="47.16712" lon="0.90464">
        <ele>110.8</ele>
        <time>2020-07-03T12:34:46Z</time>
      </trkpt>
      <trkpt lat="47.1671" lon="0.90459">
        <ele>111</ele>
        <time>2020-07-03T12:34:47Z</time>
      </trkpt>
      <trkpt lat="47.16708" lon="0.90453">
        <ele>111.1</ele>
        <time>2020-07-03T12:34:48Z</time>
      </trkpt>
      <trkpt lat="47.16706" lon="0.90449">
        <ele>111.1</ele>
        <time>2020-07-03T12:34:49Z</time>
      </trkpt>
      <trkpt lat="47.16704" lon="0.90445">
        <ele>111.2</ele>
        <time>2020-07-03T12:34:50Z</time>
      </trkpt>
      <trkpt lat="47.16701" lon="0.9044">
        <ele>111.3</ele>
        <time>2020-07-03T12:34:51Z</time>
      </trkpt>
      <trkpt lat="47.167" lon="0.90438">
        <ele>111.3</ele>
        <time>2020-07-03T12:34:52Z</time>
      </trkpt>
      <trkpt lat="47.16699" lon="0.90434">
        <ele>111.4</ele>
        <time>2020-07-03T12:34:53Z</time>
      </trkpt>
      <trkpt lat="47.16696" lon="0.90428">
        <ele>111.5</ele>
        <time>2020-07-03T12:34:54Z</time>
      </trkpt>
      <trkpt lat="47.16694" lon="0.90422">
        <ele>111.6</ele>
        <time>2020-07-03T12:34:55Z</time>
      </trkpt>
      <trkpt lat="47.16692" lon="0.90417">
        <ele>111.7</ele>
        <time>2020-07-03T12:34:56Z</time>
      </trkpt>
      <trkpt lat="47.1669" lon="0.90412">
        <ele>111.8</ele>
        <time>2020-07-03T12:34:57Z</time>
      </trkpt>
      <trkpt lat="47.16688" lon="0.90408">
        <ele>111.9</ele>
        <time>2020-07-03T12:34:58Z</time>
      </trkpt>
      <trkpt lat="47.16686" lon="0.90404">
        <ele>112</ele>
        <time>2020-07-03T12:34:59Z</time>
      </trkpt>
      <trkpt lat="47.16684" lon="0.904">
        <ele>112.1</ele>
        <time>2020-07-03T12:35:00Z</time>
      </trkpt>
      <trkpt lat="47.16682" lon="0.90395">
        <ele>112.2</ele>
        <time>2020-07-03T12:35:01Z</time>
      </trkpt>
      <trkpt lat="47.1668" lon="0.9039">
        <ele>112.2</ele>
        <time>2020-07-03T12:35:02Z</time>
      </trkpt>
      <trkpt lat="47.16677" lon="0.90385">
        <ele>112.3</ele>
        <time>2020-07-03T12:35:03Z</time>
      </trkpt>
      <trkpt lat="47.16676" lon="0.90382">
        <ele>112.3</ele>
        <time>2020-07-03T12:35:04Z</time>
      </trkpt>
      <trkpt lat="47.16674" lon="0.90377">
        <ele>112.4</ele>
        <time>2020-07-03T12:35:05Z</time>
      </trkpt>
      <trkpt lat="47.16671" lon="0.9037">
        <ele>112.4</ele>
        <time>2020-07-03T12:35:06Z</time>
      </trkpt>
      <trkpt lat="47.16668" lon="0.90365">
        <ele>112.5</ele>
        <time>2020-07-03T12:35:07Z</time>
      </trkpt>
      <trkpt lat="47.16666" lon="0.9036">
        <ele>112.5</ele>
        <time>2020-07-03T12:35:08Z</time>
      </trkpt>
      <trkpt lat="47.16663" lon="0.90355">
        <ele>112.6</ele>
        <time>2020-07-03T12:35:09Z</time>
      </trkpt>
      <trkpt lat="47.16661" lon="0.9035">
        <ele>112.7</ele>
        <time>2020-07-03T12:35:10Z</time>
      </trkpt>
      <trkpt lat="47.16658" lon="0.90345">
        <ele>112.7</ele>
        <time>2020-07-03T12:35:11Z</time>
      </trkpt>
      <trkpt lat="47.16656" lon="0.9034">
        <ele>112.8</ele>
        <time>2020-07-03T12:35:12Z</time>
      </trkpt>
      <trkpt lat="47.16654" lon="0.90335">
        <ele>112.9</ele>
        <time>2020-07-03T12:35:13Z</time>
      </trkpt>
      <trkpt lat="47.16652" lon="0.90329">
        <ele>113</ele>
        <time>2020-07-03T12:35:14Z</time>
      </trkpt>
      <trkpt lat="47.16649" lon="0.90324">
        <ele>113.1</ele>
        <time>2020-07-03T12:35:15Z</time>
      </trkpt>
      <trkpt lat="47.16646" lon="0.90319">
        <ele>113.1</ele>
        <time>2020-07-03T12:35:16Z</time>
      </trkpt>
      <trkpt lat="47.16644" lon="0.90314">
        <ele>113.2</ele>
        <time>2020-07-03T12:35:17Z</time>
      </trkpt>
      <trkpt lat="47.16642" lon="0.90309">
        <ele>113.2</ele>
        <time>2020-07-03T12:35:18Z</time>
      </trkpt>
      <trkpt lat="47.16641" lon="0.90302">
        <ele>113.2</ele>
        <time>2020-07-03T12:35:19Z</time>
      </trkpt>
      <trkpt lat="47.16638" lon="0.90296">
        <ele>113.2</ele>
        <time>2020-07-03T12:35:20Z</time>
      </trkpt>
      <trkpt lat="47.16636" lon="0.9029">
        <ele>113.2</ele>
        <time>2020-07-03T12:35:21Z</time>
      </trkpt>
      <trkpt lat="47.16633" lon="0.90285">
        <ele>113.3</ele>
        <time>2020-07-03T12:35:22Z</time>
      </trkpt>
      <trkpt lat="47.16631" lon="0.9028">
        <ele>113.3</ele>
        <time>2020-07-03T12:35:23Z</time>
      </trkpt>
      <trkpt lat="47.16628" lon="0.90275">
        <ele>113.3</ele>
        <time>2020-07-03T12:35:24Z</time>
      </trkpt>
      <trkpt lat="47.16626" lon="0.9027">
        <ele>113.4</ele>
        <time>2020-07-03T12:35:25Z</time>
      </trkpt>
      <trkpt lat="47.16623" lon="0.90265">
        <ele>113.4</ele>
        <time>2020-07-03T12:35:26Z</time>
      </trkpt>
      <trkpt lat="47.16622" lon="0.9026">
        <ele>113.5</ele>
        <time>2020-07-03T12:35:27Z</time>
      </trkpt>
      <trkpt lat="47.1662" lon="0.90255">
        <ele>113.5</ele>
        <time>2020-07-03T12:35:28Z</time>
      </trkpt>
      <trkpt lat="47.16618" lon="0.90249">
        <ele>113.5</ele>
        <time>2020-07-03T12:35:29Z</time>
      </trkpt>
      <trkpt lat="47.16616" lon="0.90244">
        <ele>113.5</ele>
        <time>2020-07-03T12:35:30Z</time>
      </trkpt>
      <trkpt lat="47.16613" lon="0.90238">
        <ele>113.6</ele>
        <time>2020-07-03T12:35:31Z</time>
      </trkpt>
      <trkpt lat="47.1661" lon="0.90232">
        <ele>113.6</ele>
        <time>2020-07-03T12:35:32Z</time>
      </trkpt>
      <trkpt lat="47.16608" lon="0.90227">
        <ele>113.6</ele>
        <time>2020-07-03T12:35:33Z</time>
      </trkpt>
      <trkpt lat="47.16605" lon="0.90221">
        <ele>113.6</ele>
        <time>2020-07-03T12:35:34Z</time>
      </trkpt>
      <trkpt lat="47.16603" lon="0.90217">
        <ele>113.6</ele>
        <time>2020-07-03T12:35:35Z</time>
      </trkpt>
      <trkpt lat="47.16601" lon="0.90211">
        <ele>113.7</ele>
        <time>2020-07-03T12:35:36Z</time>
      </trkpt>
      <trkpt lat="47.16598" lon="0.90205">
        <ele>113.7</ele>
        <time>2020-07-03T12:35:37Z</time>
      </trkpt>
      <trkpt lat="47.16595" lon="0.90198">
        <ele>113.7</ele>
        <time>2020-07-03T12:35:38Z</time>
      </trkpt>
      <trkpt lat="47.16593" lon="0.90191">
        <ele>113.8</ele>
        <time>2020-07-03T12:35:39Z</time>
      </trkpt>
      <trkpt lat="47.1659" lon="0.90184">
        <ele>113.8</ele>
        <time>2020-07-03T12:35:40Z</time>
      </trkpt>
      <trkpt lat="47.16588" lon="0.90177">
        <ele>113.7</ele>
        <time>2020-07-03T12:35:41Z</time>
      </trkpt>
      <trkpt lat="47.16585" lon="0.90171">
        <ele>113.7</ele>
        <time>2020-07-03T12:35:42Z</time>
      </trkpt>
      <trkpt lat="47.16583" lon="0.90165">
        <ele>113.7</ele>
        <time>2020-07-03T12:35:43Z</time>
      </trkpt>
      <trkpt lat="47.1658" lon="0.90157">
        <ele>113.6</ele>
        <time>2020-07-03T12:35:44Z</time>
      </trkpt>
      <trkpt lat="47.16578" lon="0.9015">
        <ele>113.6</ele>
        <time>2020-07-03T12:35:45Z</time>
      </trkpt>
      <trkpt lat="47.16577" lon="0.90144">
        <ele>113.6</ele>
        <time>2020-07-03T12:35:46Z</time>
      </trkpt>
      <trkpt lat="47.16575" lon="0.90136">
        <ele>113.6</ele>
        <time>2020-07-03T12:35:47Z</time>
      </trkpt>
      <trkpt lat="47.16574" lon="0.90129">
        <ele>113.5</ele>
        <time>2020-07-03T12:35:48Z</time>
      </trkpt>
      <trkpt lat="47.16573" lon="0.90122">
        <ele>113.5</ele>
        <time>2020-07-03T12:35:49Z</time>
      </trkpt>
      <trkpt lat="47.16571" lon="0.90113">
        <ele>113.5</ele>
        <time>2020-07-03T12:35:50Z</time>
      </trkpt>
      <trkpt lat="47.1657" lon="0.90107">
        <ele>113.6</ele>
        <time>2020-07-03T12:35:51Z</time>
      </trkpt>
      <trkpt lat="47.16568" lon="0.90099">
        <ele>113.6</ele>
        <time>2020-07-03T12:35:52Z</time>
      </trkpt>
      <trkpt lat="47.16567" lon="0.90092">
        <ele>113.7</ele>
        <time>2020-07-03T12:35:53Z</time>
      </trkpt>
      <trkpt lat="47.16566" lon="0.90085">
        <ele>113.7</ele>
        <time>2020-07-03T12:35:54Z</time>
      </trkpt>
      <trkpt lat="47.16565" lon="0.90077">
        <ele>113.7</ele>
        <time>2020-07-03T12:35:55Z</time>
      </trkpt>
      <trkpt lat="47.16564" lon="0.9007">
        <ele>113.7</ele>
        <time>2020-07-03T12:35:56Z</time>
      </trkpt>
      <trkpt lat="47.16563" lon="0.90064">
        <ele>113.7</ele>
        <time>2020-07-03T12:35:57Z</time>
      </trkpt>
      <trkpt lat="47.16562" lon="0.90056">
        <ele>113.7</ele>
        <time>2020-07-03T12:35:58Z</time>
      </trkpt>
      <trkpt lat="47.16561" lon="0.90049">
        <ele>113.7</ele>
        <time>2020-07-03T12:35:59Z</time>
      </trkpt>
      <trkpt lat="47.1656" lon="0.9004">
        <ele>113.8</ele>
        <time>2020-07-03T12:36:00Z</time>
      </trkpt>
      <trkpt lat="47.1656" lon="0.90031">
        <ele>113.8</ele>
        <time>2020-07-03T12:36:01Z</time>
      </trkpt>
      <trkpt lat="47.16559" lon="0.90023">
        <ele>113.7</ele>
        <time>2020-07-03T12:36:02Z</time>
      </trkpt>
      <trkpt lat="47.16558" lon="0.90015">
        <ele>113.7</ele>
        <time>2020-07-03T12:36:03Z</time>
      </trkpt>
      <trkpt lat="47.16557" lon="0.90007">
        <ele>113.7</ele>
        <time>2020-07-03T12:36:04Z</time>
      </trkpt>
      <trkpt lat="47.16556" lon="0.89999">
        <ele>113.7</ele>
        <time>2020-07-03T12:36:05Z</time>
      </trkpt>
      <trkpt lat="47.16554" lon="0.89992">
        <ele>113.6</ele>
        <time>2020-07-03T12:36:06Z</time>
      </trkpt>
      <trkpt lat="47.16553" lon="0.89985">
        <ele>113.6</ele>
        <time>2020-07-03T12:36:07Z</time>
      </trkpt>
      <trkpt lat="47.16551" lon="0.89977">
        <ele>113.6</ele>
        <time>2020-07-03T12:36:08Z</time>
      </trkpt>
      <trkpt lat="47.1655" lon="0.8997">
        <ele>113.6</ele>
        <time>2020-07-03T12:36:09Z</time>
      </trkpt>
      <trkpt lat="47.16549" lon="0.89964">
        <ele>113.6</ele>
        <time>2020-07-03T12:36:10Z</time>
      </trkpt>
      <trkpt lat="47.16548" lon="0.89956">
        <ele>113.6</ele>
        <time>2020-07-03T12:36:11Z</time>
      </trkpt>
      <trkpt lat="47.16547" lon="0.89948">
        <ele>113.5</ele>
        <time>2020-07-03T12:36:12Z</time>
      </trkpt>
      <trkpt lat="47.16545" lon="0.89942">
        <ele>113.5</ele>
        <time>2020-07-03T12:36:13Z</time>
      </trkpt>
      <trkpt lat="47.16545" lon="0.89934">
        <ele>113.4</ele>
        <time>2020-07-03T12:36:14Z</time>
      </trkpt>
      <trkpt lat="47.16544" lon="0.89929">
        <ele>113.4</ele>
        <time>2020-07-03T12:36:15Z</time>
      </trkpt>
      <trkpt lat="47.16543" lon="0.89921">
        <ele>113.3</ele>
        <time>2020-07-03T12:36:16Z</time>
      </trkpt>
      <trkpt lat="47.16542" lon="0.89914">
        <ele>113.3</ele>
        <time>2020-07-03T12:36:17Z</time>
      </trkpt>
      <trkpt lat="47.16541" lon="0.89905">
        <ele>113.2</ele>
        <time>2020-07-03T12:36:18Z</time>
      </trkpt>
      <trkpt lat="47.16541" lon="0.89897">
        <ele>113.2</ele>
        <time>2020-07-03T12:36:19Z</time>
      </trkpt>
      <trkpt lat="47.16539" lon="0.89886">
        <ele>113.2</ele>
        <time>2020-07-03T12:36:20Z</time>
      </trkpt>
      <trkpt lat="47.16538" lon="0.89876">
        <ele>113.1</ele>
        <time>2020-07-03T12:36:21Z</time>
      </trkpt>
      <trkpt lat="47.16537" lon="0.89868">
        <ele>113.1</ele>
        <time>2020-07-03T12:36:22Z</time>
      </trkpt>
      <trkpt lat="47.16536" lon="0.89861">
        <ele>113.1</ele>
        <time>2020-07-03T12:36:23Z</time>
      </trkpt>
      <trkpt lat="47.16534" lon="0.89853">
        <ele>113</ele>
        <time>2020-07-03T12:36:24Z</time>
      </trkpt>
      <trkpt lat="47.16533" lon="0.89844">
        <ele>112.9</ele>
        <time>2020-07-03T12:36:25Z</time>
      </trkpt>
      <trkpt lat="47.16531" lon="0.89839">
        <ele>112.8</ele>
        <time>2020-07-03T12:36:26Z</time>
      </trkpt>
      <trkpt lat="47.1653" lon="0.8983">
        <ele>112.7</ele>
        <time>2020-07-03T12:36:27Z</time>
      </trkpt>
      <trkpt lat="47.16529" lon="0.89821">
        <ele>112.7</ele>
        <time>2020-07-03T12:36:28Z</time>
      </trkpt>
      <trkpt lat="47.16527" lon="0.89813">
        <ele>112.6</ele>
        <time>2020-07-03T12:36:29Z</time>
      </trkpt>
      <trkpt lat="47.16526" lon="0.89805">
        <ele>112.5</ele>
        <time>2020-07-03T12:36:30Z</time>
      </trkpt>
      <trkpt lat="47.16524" lon="0.89797">
        <ele>112.4</ele>
        <time>2020-07-03T12:36:31Z</time>
      </trkpt>
      <trkpt lat="47.16522" lon="0.8979">
        <ele>112.3</ele>
        <time>2020-07-03T12:36:32Z</time>
      </trkpt>
      <trkpt lat="47.16522" lon="0.89784">
        <ele>112.3</ele>
        <time>2020-07-03T12:36:33Z</time>
      </trkpt>
      <trkpt lat="47.16521" lon="0.89776">
        <ele>112.2</ele>
        <time>2020-07-03T12:36:34Z</time>
      </trkpt>
      <trkpt lat="47.16519" lon="0.89768">
        <ele>112.1</ele>
        <time>2020-07-03T12:36:35Z</time>
      </trkpt>
      <trkpt lat="47.16517" lon="0.89759">
        <ele>112</ele>
        <time>2020-07-03T12:36:36Z</time>
      </trkpt>
      <trkpt lat="47.16515" lon="0.8975">
        <ele>111.9</ele>
        <time>2020-07-03T12:36:37Z</time>
      </trkpt>
      <trkpt lat="47.16513" lon="0.89741">
        <ele>111.7</ele>
        <time>2020-07-03T12:36:38Z</time>
      </trkpt>
      <trkpt lat="47.16512" lon="0.89732">
        <ele>111.6</ele>
        <time>2020-07-03T12:36:39Z</time>
      </trkpt>
      <trkpt lat="47.1651" lon="0.89725">
        <ele>111.5</ele>
        <time>2020-07-03T12:36:40Z</time>
      </trkpt>
      <trkpt lat="47.16508" lon="0.89717">
        <ele>111.4</ele>
        <time>2020-07-03T12:36:41Z</time>
      </trkpt>
      <trkpt lat="47.16506" lon="0.8971">
        <ele>111.3</ele>
        <time>2020-07-03T12:36:42Z</time>
      </trkpt>
      <trkpt lat="47.16504" lon="0.89702">
        <ele>111.2</ele>
        <time>2020-07-03T12:36:43Z</time>
      </trkpt>
      <trkpt lat="47.16503" lon="0.89694">
        <ele>111.1</ele>
        <time>2020-07-03T12:36:44Z</time>
      </trkpt>
      <trkpt lat="47.16502" lon="0.89685">
        <ele>111</ele>
        <time>2020-07-03T12:36:45Z</time>
      </trkpt>
      <trkpt lat="47.16501" lon="0.89677">
        <ele>110.8</ele>
        <time>2020-07-03T12:36:46Z</time>
      </trkpt>
      <trkpt lat="47.16499" lon="0.89671">
        <ele>110.7</ele>
        <time>2020-07-03T12:36:47Z</time>
      </trkpt>
      <trkpt lat="47.16497" lon="0.89661">
        <ele>110.6</ele>
        <time>2020-07-03T12:36:48Z</time>
      </trkpt>
      <trkpt lat="47.16496" lon="0.89653">
        <ele>110.5</ele>
        <time>2020-07-03T12:36:49Z</time>
      </trkpt>
      <trkpt lat="47.16495" lon="0.89644">
        <ele>110.4</ele>
        <time>2020-07-03T12:36:50Z</time>
      </trkpt>
      <trkpt lat="47.16493" lon="0.89635">
        <ele>110.3</ele>
        <time>2020-07-03T12:36:51Z</time>
      </trkpt>
      <trkpt lat="47.16491" lon="0.89625">
        <ele>110.1</ele>
        <time>2020-07-03T12:36:52Z</time>
      </trkpt>
      <trkpt lat="47.16489" lon="0.89618">
        <ele>110</ele>
        <time>2020-07-03T12:36:53Z</time>
      </trkpt>
      <trkpt lat="47.16488" lon="0.8961">
        <ele>109.9</ele>
        <time>2020-07-03T12:36:54Z</time>
      </trkpt>
      <trkpt lat="47.16487" lon="0.89603">
        <ele>109.8</ele>
        <time>2020-07-03T12:36:55Z</time>
      </trkpt>
      <trkpt lat="47.16485" lon="0.89592">
        <ele>109.6</ele>
        <time>2020-07-03T12:36:56Z</time>
      </trkpt>
      <trkpt lat="47.16484" lon="0.89585">
        <ele>109.5</ele>
        <time>2020-07-03T12:36:57Z</time>
      </trkpt>
      <trkpt lat="47.16483" lon="0.89577">
        <ele>109.5</ele>
        <time>2020-07-03T12:36:58Z</time>
      </trkpt>
      <trkpt lat="47.16481" lon="0.89569">
        <ele>109.4</ele>
        <time>2020-07-03T12:36:59Z</time>
      </trkpt>
      <trkpt lat="47.1648" lon="0.89559">
        <ele>109.4</ele>
        <time>2020-07-03T12:37:00Z</time>
      </trkpt>
      <trkpt lat="47.16479" lon="0.8955">
        <ele>109.4</ele>
        <time>2020-07-03T12:37:01Z</time>
      </trkpt>
      <trkpt lat="47.16479" lon="0.89543">
        <ele>109.4</ele>
        <time>2020-07-03T12:37:02Z</time>
      </trkpt>
      <trkpt lat="47.1648" lon="0.89537">
        <ele>109.3</ele>
        <time>2020-07-03T12:37:03Z</time>
      </trkpt>
      <trkpt lat="47.1648" lon="0.89529">
        <ele>109.3</ele>
        <time>2020-07-03T12:37:04Z</time>
      </trkpt>
      <trkpt lat="47.16481" lon="0.89522">
        <ele>109.3</ele>
        <time>2020-07-03T12:37:05Z</time>
      </trkpt>
      <trkpt lat="47.16481" lon="0.89513">
        <ele>109.3</ele>
        <time>2020-07-03T12:37:06Z</time>
      </trkpt>
      <trkpt lat="47.1648" lon="0.89507">
        <ele>109.3</ele>
        <time>2020-07-03T12:37:07Z</time>
      </trkpt>
      <trkpt lat="47.1648" lon="0.89499">
        <ele>109.3</ele>
        <time>2020-07-03T12:37:08Z</time>
      </trkpt>
      <trkpt lat="47.1648" lon="0.89492">
        <ele>109.3</ele>
        <time>2020-07-03T12:37:09Z</time>
      </trkpt>
      <trkpt lat="47.16479" lon="0.89485">
        <ele>109.3</ele>
        <time>2020-07-03T12:37:10Z</time>
      </trkpt>
      <trkpt lat="47.16479" lon="0.89479">
        <ele>109.3</ele>
        <time>2020-07-03T12:37:11Z</time>
      </trkpt>
      <trkpt lat="47.16478" lon="0.89472">
        <ele>109.2</ele>
        <time>2020-07-03T12:37:12Z</time>
      </trkpt>
      <trkpt lat="47.16477" lon="0.89465">
        <ele>109.2</ele>
        <time>2020-07-03T12:37:13Z</time>
      </trkpt>
      <trkpt lat="47.16476" lon="0.89458">
        <ele>109.2</ele>
        <time>2020-07-03T12:37:14Z</time>
      </trkpt>
      <trkpt lat="47.16475" lon="0.89451">
        <ele>109.1</ele>
        <time>2020-07-03T12:37:15Z</time>
      </trkpt>
      <trkpt lat="47.16475" lon="0.89444">
        <ele>109.1</ele>
        <time>2020-07-03T12:37:16Z</time>
      </trkpt>
      <trkpt lat="47.16475" lon="0.89437">
        <ele>109</ele>
        <time>2020-07-03T12:37:17Z</time>
      </trkpt>
      <trkpt lat="47.16475" lon="0.89429">
        <ele>109</ele>
        <time>2020-07-03T12:37:18Z</time>
      </trkpt>
      <trkpt lat="47.16475" lon="0.89422">
        <ele>109</ele>
        <time>2020-07-03T12:37:19Z</time>
      </trkpt>
      <trkpt lat="47.16474" lon="0.89416">
        <ele>109</ele>
        <time>2020-07-03T12:37:20Z</time>
      </trkpt>
      <trkpt lat="47.16474" lon="0.8941">
        <ele>109</ele>
        <time>2020-07-03T12:37:21Z</time>
      </trkpt>
      <trkpt lat="47.16473" lon="0.89405">
        <ele>109</ele>
        <time>2020-07-03T12:37:22Z</time>
      </trkpt>
      <trkpt lat="47.16473" lon="0.894">
        <ele>109</ele>
        <time>2020-07-03T12:37:23Z</time>
      </trkpt>
      <trkpt lat="47.16472" lon="0.89396">
        <ele>109</ele>
        <time>2020-07-03T12:37:24Z</time>
      </trkpt>
      <trkpt lat="47.1647" lon="0.8939">
        <ele>109</ele>
        <time>2020-07-03T12:37:25Z</time>
      </trkpt>
      <trkpt lat="47.1647" lon="0.89386">
        <ele>109</ele>
        <time>2020-07-03T12:37:26Z</time>
      </trkpt>
      <trkpt lat="47.16469" lon="0.89381">
        <ele>108.9</ele>
        <time>2020-07-03T12:37:27Z</time>
      </trkpt>
      <trkpt lat="47.16468" lon="0.89376">
        <ele>108.8</ele>
        <time>2020-07-03T12:37:28Z</time>
      </trkpt>
      <trkpt lat="47.16467" lon="0.8937">
        <ele>108.7</ele>
        <time>2020-07-03T12:37:29Z</time>
      </trkpt>
      <trkpt lat="47.16467" lon="0.89366">
        <ele>108.6</ele>
        <time>2020-07-03T12:37:30Z</time>
      </trkpt>
      <trkpt lat="47.16468" lon="0.89361">
        <ele>108.5</ele>
        <time>2020-07-03T12:37:31Z</time>
      </trkpt>
      <trkpt lat="47.16469" lon="0.89355">
        <ele>108.3</ele>
        <time>2020-07-03T12:37:32Z</time>
      </trkpt>
      <trkpt lat="47.1647" lon="0.89348">
        <ele>108.2</ele>
        <time>2020-07-03T12:37:33Z</time>
      </trkpt>
      <trkpt lat="47.16471" lon="0.89341">
        <ele>108.2</ele>
        <time>2020-07-03T12:37:34Z</time>
      </trkpt>
      <trkpt lat="47.16472" lon="0.89335">
        <ele>108.1</ele>
        <time>2020-07-03T12:37:35Z</time>
      </trkpt>
      <trkpt lat="47.16473" lon="0.8933">
        <ele>108.1</ele>
        <time>2020-07-03T12:37:36Z</time>
      </trkpt>
      <trkpt lat="47.16474" lon="0.89323">
        <ele>108</ele>
        <time>2020-07-03T12:37:37Z</time>
      </trkpt>
      <trkpt lat="47.16476" lon="0.89317">
        <ele>108</ele>
        <time>2020-07-03T12:37:38Z</time>
      </trkpt>
      <trkpt lat="47.16477" lon="0.89311">
        <ele>107.9</ele>
        <time>2020-07-03T12:37:39Z</time>
      </trkpt>
      <trkpt lat="47.16478" lon="0.89306">
        <ele>107.9</ele>
        <time>2020-07-03T12:37:40Z</time>
      </trkpt>
      <trkpt lat="47.1648" lon="0.89301">
        <ele>107.9</ele>
        <time>2020-07-03T12:37:41Z</time>
      </trkpt>
      <trkpt lat="47.1648" lon="0.89295">
        <ele>107.9</ele>
        <time>2020-07-03T12:37:42Z</time>
      </trkpt>
      <trkpt lat="47.1648" lon="0.89292">
        <ele>107.9</ele>
        <time>2020-07-03T12:37:43Z</time>
      </trkpt>
      <trkpt lat="47.1648" lon="0.89288">
        <ele>107.9</ele>
        <time>2020-07-03T12:37:44Z</time>
      </trkpt>
      <trkpt lat="47.1648" lon="0.89282">
        <ele>107.9</ele>
        <time>2020-07-03T12:37:45Z</time>
      </trkpt>
      <trkpt lat="47.16481" lon="0.89277">
        <ele>107.8</ele>
        <time>2020-07-03T12:37:46Z</time>
      </trkpt>
      <trkpt lat="47.16483" lon="0.89271">
        <ele>107.8</ele>
        <time>2020-07-03T12:37:47Z</time>
      </trkpt>
      <trkpt lat="47.16485" lon="0.89265">
        <ele>107.8</ele>
        <time>2020-07-03T12:37:48Z</time>
      </trkpt>
      <trkpt lat="47.16486" lon="0.89259">
        <ele>107.8</ele>
        <time>2020-07-03T12:37:49Z</time>
      </trkpt>
      <trkpt lat="47.16488" lon="0.89253">
        <ele>107.8</ele>
        <time>2020-07-03T12:37:50Z</time>
      </trkpt>
      <trkpt lat="47.16489" lon="0.89246">
        <ele>107.7</ele>
        <time>2020-07-03T12:37:51Z</time>
      </trkpt>
      <trkpt lat="47.16489" lon="0.89239">
        <ele>107.7</ele>
        <time>2020-07-03T12:37:52Z</time>
      </trkpt>
      <trkpt lat="47.1649" lon="0.89232">
        <ele>107.7</ele>
        <time>2020-07-03T12:37:53Z</time>
      </trkpt>
      <trkpt lat="47.16491" lon="0.89224">
        <ele>107.7</ele>
        <time>2020-07-03T12:37:54Z</time>
      </trkpt>
      <trkpt lat="47.16492" lon="0.89218">
        <ele>107.8</ele>
        <time>2020-07-03T12:37:55Z</time>
      </trkpt>
      <trkpt lat="47.16493" lon="0.89211">
        <ele>107.8</ele>
        <time>2020-07-03T12:37:56Z</time>
      </trkpt>
      <trkpt lat="47.16494" lon="0.89205">
        <ele>107.8</ele>
        <time>2020-07-03T12:37:57Z</time>
      </trkpt>
      <trkpt lat="47.16495" lon="0.89199">
        <ele>107.8</ele>
        <time>2020-07-03T12:37:58Z</time>
      </trkpt>
      <trkpt lat="47.16496" lon="0.89192">
        <ele>107.9</ele>
        <time>2020-07-03T12:37:59Z</time>
      </trkpt>
      <trkpt lat="47.16498" lon="0.89186">
        <ele>107.9</ele>
        <time>2020-07-03T12:38:00Z</time>
      </trkpt>
      <trkpt lat="47.165" lon="0.89179">
        <ele>108</ele>
        <time>2020-07-03T12:38:01Z</time>
      </trkpt>
      <trkpt lat="47.16502" lon="0.89172">
        <ele>108</ele>
        <time>2020-07-03T12:38:02Z</time>
      </trkpt>
      <trkpt lat="47.16503" lon="0.89165">
        <ele>108.1</ele>
        <time>2020-07-03T12:38:03Z</time>
      </trkpt>
      <trkpt lat="47.16504" lon="0.89158">
        <ele>108.1</ele>
        <time>2020-07-03T12:38:04Z</time>
      </trkpt>
      <trkpt lat="47.16505" lon="0.89151">
        <ele>108.2</ele>
        <time>2020-07-03T12:38:05Z</time>
      </trkpt>
      <trkpt lat="47.16506" lon="0.89144">
        <ele>108.2</ele>
        <time>2020-07-03T12:38:06Z</time>
      </trkpt>
      <trkpt lat="47.16507" lon="0.89137">
        <ele>108.3</ele>
        <time>2020-07-03T12:38:07Z</time>
      </trkpt>
      <trkpt lat="47.16509" lon="0.8913">
        <ele>108.3</ele>
        <time>2020-07-03T12:38:08Z</time>
      </trkpt>
      <trkpt lat="47.1651" lon="0.89123">
        <ele>108.4</ele>
        <time>2020-07-03T12:38:09Z</time>
      </trkpt>
      <trkpt lat="47.16511" lon="0.89116">
        <ele>108.5</ele>
        <time>2020-07-03T12:38:10Z</time>
      </trkpt>
      <trkpt lat="47.16513" lon="0.8911">
        <ele>108.6</ele>
        <time>2020-07-03T12:38:11Z</time>
      </trkpt>
      <trkpt lat="47.16514" lon="0.89104">
        <ele>108.7</ele>
        <time>2020-07-03T12:38:12Z</time>
      </trkpt>
      <trkpt lat="47.16512" lon="0.89102">
        <ele>108.7</ele>
        <time>2020-07-03T12:38:13Z</time>
      </trkpt>
      <trkpt lat="47.16508" lon="0.89101">
        <ele>108.8</ele>
        <time>2020-07-03T12:38:14Z</time>
      </trkpt>
      <trkpt lat="47.16504" lon="0.89103">
        <ele>108.5</ele>
        <time>2020-07-03T12:38:15Z</time>
      </trkpt>
      <trkpt lat="47.16499" lon="0.89105">
        <ele>108.4</ele>
        <time>2020-07-03T12:38:16Z</time>
      </trkpt>
      <trkpt lat="47.16495" lon="0.89106">
        <ele>108.3</ele>
        <time>2020-07-03T12:38:17Z</time>
      </trkpt>
      <trkpt lat="47.1649" lon="0.89105">
        <ele>108.2</ele>
        <time>2020-07-03T12:38:18Z</time>
      </trkpt>
      <trkpt lat="47.16486" lon="0.89104">
        <ele>108.1</ele>
        <time>2020-07-03T12:38:19Z</time>
      </trkpt>
      <trkpt lat="47.16483" lon="0.89102">
        <ele>108</ele>
        <time>2020-07-03T12:38:20Z</time>
      </trkpt>
      <trkpt lat="47.16478" lon="0.89099">
        <ele>108</ele>
        <time>2020-07-03T12:38:21Z</time>
      </trkpt>
      <trkpt lat="47.16473" lon="0.89098">
        <ele>107.9</ele>
        <time>2020-07-03T12:38:22Z</time>
      </trkpt>
      <trkpt lat="47.16469" lon="0.89097">
        <ele>107.9</ele>
        <time>2020-07-03T12:38:23Z</time>
      </trkpt>
      <trkpt lat="47.16465" lon="0.89096">
        <ele>107.9</ele>
        <time>2020-07-03T12:38:24Z</time>
      </trkpt>
      <trkpt lat="47.16461" lon="0.89094">
        <ele>107.9</ele>
        <time>2020-07-03T12:38:25Z</time>
      </trkpt>
      <trkpt lat="47.16457" lon="0.89094">
        <ele>107.8</ele>
        <time>2020-07-03T12:38:26Z</time>
      </trkpt>
      <trkpt lat="47.16453" lon="0.89094">
        <ele>107.8</ele>
        <time>2020-07-03T12:38:27Z</time>
      </trkpt>
      <trkpt lat="47.16451" lon="0.89093">
        <ele>107.8</ele>
        <time>2020-07-03T12:38:28Z</time>
      </trkpt>
      <trkpt lat="47.16448" lon="0.89091">
        <ele>107.8</ele>
        <time>2020-07-03T12:38:29Z</time>
      </trkpt>
      <trkpt lat="47.16444" lon="0.89089">
        <ele>107.7</ele>
        <time>2020-07-03T12:38:30Z</time>
      </trkpt>
      <trkpt lat="47.16442" lon="0.89088">
        <ele>107.7</ele>
        <time>2020-07-03T12:38:31Z</time>
      </trkpt>
      <trkpt lat="47.16438" lon="0.89088">
        <ele>107.7</ele>
        <time>2020-07-03T12:38:32Z</time>
      </trkpt>
      <trkpt lat="47.16434" lon="0.89087">
        <ele>107.6</ele>
        <time>2020-07-03T12:38:33Z</time>
      </trkpt>
      <trkpt lat="47.1643" lon="0.89085">
        <ele>107.6</ele>
        <time>2020-07-03T12:38:34Z</time>
      </trkpt>
      <trkpt lat="47.16424" lon="0.89083">
        <ele>107.6</ele>
        <time>2020-07-03T12:38:35Z</time>
      </trkpt>
      <trkpt lat="47.1642" lon="0.89081">
        <ele>107.6</ele>
        <time>2020-07-03T12:38:36Z</time>
      </trkpt>
      <trkpt lat="47.16415" lon="0.8908">
        <ele>107.7</ele>
        <time>2020-07-03T12:38:37Z</time>
      </trkpt>
      <trkpt lat="47.16409" lon="0.89078">
        <ele>107.7</ele>
        <time>2020-07-03T12:38:38Z</time>
      </trkpt>
      <trkpt lat="47.16405" lon="0.89077">
        <ele>107.8</ele>
        <time>2020-07-03T12:38:39Z</time>
      </trkpt>
      <trkpt lat="47.164" lon="0.89075">
        <ele>107.8</ele>
        <time>2020-07-03T12:38:40Z</time>
      </trkpt>
      <trkpt lat="47.16396" lon="0.89074">
        <ele>107.8</ele>
        <time>2020-07-03T12:38:41Z</time>
      </trkpt>
      <trkpt lat="47.16392" lon="0.89073">
        <ele>107.8</ele>
        <time>2020-07-03T12:38:42Z</time>
      </trkpt>
      <trkpt lat="47.16388" lon="0.8907">
        <ele>107.9</ele>
        <time>2020-07-03T12:38:43Z</time>
      </trkpt>
      <trkpt lat="47.16385" lon="0.89068">
        <ele>107.9</ele>
        <time>2020-07-03T12:38:44Z</time>
      </trkpt>
      <trkpt lat="47.16382" lon="0.89066">
        <ele>107.9</ele>
        <time>2020-07-03T12:38:45Z</time>
      </trkpt>
      <trkpt lat="47.16378" lon="0.89066">
        <ele>107.9</ele>
        <time>2020-07-03T12:38:46Z</time>
      </trkpt>
      <trkpt lat="47.16375" lon="0.89065">
        <ele>107.9</ele>
        <time>2020-07-03T12:38:47Z</time>
      </trkpt>
      <trkpt lat="47.16374" lon="0.89064">
        <ele>107.9</ele>
        <time>2020-07-03T12:38:48Z</time>
      </trkpt>
      <trkpt lat="47.16373" lon="0.89065">
        <ele>107.9</ele>
        <time>2020-07-03T12:38:49Z</time>
      </trkpt>
      <trkpt lat="47.16374" lon="0.89065">
        <ele>107.9</ele>
        <time>2020-07-03T12:38:50Z</time>
      </trkpt>
      <trkpt lat="47.16373" lon="0.89065">
        <ele>107.9</ele>
        <time>2020-07-03T12:38:51Z</time>
      </trkpt>
      <trkpt lat="47.16372" lon="0.89065">
        <ele>107.9</ele>
        <time>2020-07-03T12:38:52Z</time>
      </trkpt>
      <trkpt lat="47.16372" lon="0.89065">
        <ele>107.9</ele>
        <time>2020-07-03T12:38:53Z</time>
      </trkpt>
      <trkpt lat="47.16372" lon="0.89064">
        <ele>107.9</ele>
        <time>2020-07-03T12:38:54Z</time>
      </trkpt>
      <trkpt lat="47.16371" lon="0.89064">
        <ele>107.9</ele>
        <time>2020-07-03T12:38:55Z</time>
      </trkpt>
      <trkpt lat="47.16371" lon="0.89064">
        <ele>107.9</ele>
        <time>2020-07-03T12:38:56Z</time>
      </trkpt>
      <trkpt lat="47.16371" lon="0.89064">
        <ele>107.9</ele>
        <time>2020-07-03T12:38:57Z</time>
      </trkpt>
      <trkpt lat="47.1637" lon="0.89064">
        <ele>107.9</ele>
        <time>2020-07-03T12:38:58Z</time>
      </trkpt>
      <trkpt lat="47.1637" lon="0.89064">
        <ele>107.9</ele>
        <time>2020-07-03T12:38:59Z</time>
      </trkpt>
      <trkpt lat="47.1637" lon="0.89064">
        <ele>107.9</ele>
        <time>2020-07-03T12:43:35Z</time>
      </trkpt>
      <trkpt lat="47.16369" lon="0.89063">
        <ele>107.9</ele>
        <time>2020-07-03T12:43:36Z</time>
      </trkpt>
      <trkpt lat="47.16369" lon="0.89063">
        <ele>107.9</ele>
        <time>2020-07-03T12:43:37Z</time>
      </trkpt>
      <trkpt lat="47.16369" lon="0.89063">
        <ele>107.9</ele>
        <time>2020-07-03T12:43:38Z</time>
      </trkpt>
      <trkpt lat="47.16368" lon="0.89063">
        <ele>107.9</ele>
        <time>2020-07-03T12:43:39Z</time>
      </trkpt>
      <trkpt lat="47.16368" lon="0.89063">
        <ele>107.9</ele>
        <time>2020-07-03T12:43:40Z</time>
      </trkpt>
      <trkpt lat="47.16368" lon="0.89063">
        <ele>107.9</ele>
        <time>2020-07-03T12:43:41Z</time>
      </trkpt>
      <trkpt lat="47.16367" lon="0.89063">
        <ele>107.9</ele>
        <time>2020-07-03T12:43:42Z</time>
      </trkpt>
      <trkpt lat="47.16367" lon="0.89062">
        <ele>107.9</ele>
        <time>2020-07-03T12:43:43Z</time>
      </trkpt>
      <trkpt lat="47.16366" lon="0.89062">
        <ele>107.9</ele>
        <time>2020-07-03T12:43:44Z</time>
      </trkpt>
      <trkpt lat="47.16366" lon="0.89062">
        <ele>107.9</ele>
        <time>2020-07-03T12:43:45Z</time>
      </trkpt>
      <trkpt lat="47.16366" lon="0.89062">
        <ele>107.9</ele>
        <time>2020-07-03T12:43:46Z</time>
      </trkpt>
      <trkpt lat="47.16365" lon="0.89062">
        <ele>107.9</ele>
        <time>2020-07-03T12:43:47Z</time>
      </trkpt>
      <trkpt lat="47.16365" lon="0.89062">
        <ele>107.9</ele>
        <time>2020-07-03T12:43:48Z</time>
      </trkpt>
      <trkpt lat="47.16365" lon="0.89061">
        <ele>107.9</ele>
        <time>2020-07-03T12:43:49Z</time>
      </trkpt>
      <trkpt lat="47.16364" lon="0.89061">
        <ele>107.9</ele>
        <time>2020-07-03T12:43:50Z</time>
      </trkpt>
      <trkpt lat="47.16364" lon="0.89061">
        <ele>108</ele>
        <time>2020-07-03T12:48:23Z</time>
      </trkpt>
      <trkpt lat="47.16364" lon="0.89061">
        <ele>108</ele>
        <time>2020-07-03T12:48:24Z</time>
      </trkpt>
      <trkpt lat="47.1636" lon="0.89061">
        <ele>108</ele>
        <time>2020-07-03T12:48:25Z</time>
      </trkpt>
      <trkpt lat="47.16358" lon="0.89061">
        <ele>108</ele>
        <time>2020-07-03T12:48:26Z</time>
      </trkpt>
      <trkpt lat="47.16355" lon="0.8906">
        <ele>108.1</ele>
        <time>2020-07-03T12:48:27Z</time>
      </trkpt>
      <trkpt lat="47.16352" lon="0.89059">
        <ele>108.1</ele>
        <time>2020-07-03T12:48:28Z</time>
      </trkpt>
      <trkpt lat="47.16349" lon="0.89058">
        <ele>108.2</ele>
        <time>2020-07-03T12:48:29Z</time>
      </trkpt>
      <trkpt lat="47.16346" lon="0.89056">
        <ele>108.2</ele>
        <time>2020-07-03T12:48:30Z</time>
      </trkpt>
      <trkpt lat="47.16343" lon="0.89055">
        <ele>108.2</ele>
        <time>2020-07-03T12:48:31Z</time>
      </trkpt>
      <trkpt lat="47.16339" lon="0.89054">
        <ele>108.2</ele>
        <time>2020-07-03T12:48:32Z</time>
      </trkpt>
      <trkpt lat="47.16335" lon="0.89052">
        <ele>108.2</ele>
        <time>2020-07-03T12:48:33Z</time>
      </trkpt>
      <trkpt lat="47.16332" lon="0.8905">
        <ele>108.2</ele>
        <time>2020-07-03T12:48:34Z</time>
      </trkpt>
      <trkpt lat="47.16327" lon="0.89049">
        <ele>108.2</ele>
        <time>2020-07-03T12:48:35Z</time>
      </trkpt>
      <trkpt lat="47.16324" lon="0.89047">
        <ele>108.2</ele>
        <time>2020-07-03T12:48:36Z</time>
      </trkpt>
      <trkpt lat="47.1632" lon="0.89045">
        <ele>108.3</ele>
        <time>2020-07-03T12:48:37Z</time>
      </trkpt>
      <trkpt lat="47.16315" lon="0.89044">
        <ele>108.3</ele>
        <time>2020-07-03T12:48:38Z</time>
      </trkpt>
      <trkpt lat="47.1631" lon="0.89043">
        <ele>108.4</ele>
        <time>2020-07-03T12:48:39Z</time>
      </trkpt>
      <trkpt lat="47.16305" lon="0.89041">
        <ele>108.5</ele>
        <time>2020-07-03T12:48:40Z</time>
      </trkpt>
      <trkpt lat="47.163" lon="0.89038">
        <ele>108.6</ele>
        <time>2020-07-03T12:48:41Z</time>
      </trkpt>
      <trkpt lat="47.16296" lon="0.89038">
        <ele>108.7</ele>
        <time>2020-07-03T12:48:42Z</time>
      </trkpt>
      <trkpt lat="47.16292" lon="0.89037">
        <ele>108.7</ele>
        <time>2020-07-03T12:48:43Z</time>
      </trkpt>
      <trkpt lat="47.16286" lon="0.89036">
        <ele>108.8</ele>
        <time>2020-07-03T12:48:44Z</time>
      </trkpt>
      <trkpt lat="47.16281" lon="0.89036">
        <ele>108.9</ele>
        <time>2020-07-03T12:48:45Z</time>
      </trkpt>
      <trkpt lat="47.16276" lon="0.89035">
        <ele>109</ele>
        <time>2020-07-03T12:48:46Z</time>
      </trkpt>
      <trkpt lat="47.16271" lon="0.89033">
        <ele>109.1</ele>
        <time>2020-07-03T12:48:47Z</time>
      </trkpt>
      <trkpt lat="47.16267" lon="0.89031">
        <ele>109.1</ele>
        <time>2020-07-03T12:48:48Z</time>
      </trkpt>
      <trkpt lat="47.16262" lon="0.89028">
        <ele>109.2</ele>
        <time>2020-07-03T12:48:49Z</time>
      </trkpt>
      <trkpt lat="47.16256" lon="0.89028">
        <ele>109.4</ele>
        <time>2020-07-03T12:48:50Z</time>
      </trkpt>
      <trkpt lat="47.16251" lon="0.89025">
        <ele>109.5</ele>
        <time>2020-07-03T12:48:51Z</time>
      </trkpt>
      <trkpt lat="47.16247" lon="0.89024">
        <ele>109.6</ele>
        <time>2020-07-03T12:48:52Z</time>
      </trkpt>
      <trkpt lat="47.16242" lon="0.89022">
        <ele>109.7</ele>
        <time>2020-07-03T12:48:53Z</time>
      </trkpt>
      <trkpt lat="47.16237" lon="0.8902">
        <ele>109.7</ele>
        <time>2020-07-03T12:48:54Z</time>
      </trkpt>
      <trkpt lat="47.16233" lon="0.89018">
        <ele>109.8</ele>
        <time>2020-07-03T12:48:55Z</time>
      </trkpt>
      <trkpt lat="47.16228" lon="0.89016">
        <ele>109.9</ele>
        <time>2020-07-03T12:48:56Z</time>
      </trkpt>
      <trkpt lat="47.16223" lon="0.89015">
        <ele>109.9</ele>
        <time>2020-07-03T12:48:57Z</time>
      </trkpt>
      <trkpt lat="47.16218" lon="0.89013">
        <ele>110</ele>
        <time>2020-07-03T12:48:58Z</time>
      </trkpt>
      <trkpt lat="47.16213" lon="0.89011">
        <ele>110.1</ele>
        <time>2020-07-03T12:48:59Z</time>
      </trkpt>
      <trkpt lat="47.16208" lon="0.8901">
        <ele>110.2</ele>
        <time>2020-07-03T12:49:00Z</time>
      </trkpt>
      <trkpt lat="47.16203" lon="0.89008">
        <ele>110.3</ele>
        <time>2020-07-03T12:49:01Z</time>
      </trkpt>
      <trkpt lat="47.16199" lon="0.89006">
        <ele>110.4</ele>
        <time>2020-07-03T12:49:02Z</time>
      </trkpt>
      <trkpt lat="47.16194" lon="0.89004">
        <ele>110.6</ele>
        <time>2020-07-03T12:49:03Z</time>
      </trkpt>
      <trkpt lat="47.16189" lon="0.89002">
        <ele>110.7</ele>
        <time>2020-07-03T12:49:04Z</time>
      </trkpt>
      <trkpt lat="47.16183" lon="0.88999">
        <ele>110.8</ele>
        <time>2020-07-03T12:49:05Z</time>
      </trkpt>
      <trkpt lat="47.16178" lon="0.88998">
        <ele>110.9</ele>
        <time>2020-07-03T12:49:06Z</time>
      </trkpt>
      <trkpt lat="47.16173" lon="0.88998">
        <ele>111</ele>
        <time>2020-07-03T12:49:07Z</time>
      </trkpt>
      <trkpt lat="47.16168" lon="0.88996">
        <ele>111</ele>
        <time>2020-07-03T12:49:08Z</time>
      </trkpt>
      <trkpt lat="47.16164" lon="0.88995">
        <ele>111.1</ele>
        <time>2020-07-03T12:49:09Z</time>
      </trkpt>
      <trkpt lat="47.16159" lon="0.88993">
        <ele>111.1</ele>
        <time>2020-07-03T12:49:10Z</time>
      </trkpt>
      <trkpt lat="47.16154" lon="0.88991">
        <ele>111.1</ele>
        <time>2020-07-03T12:49:11Z</time>
      </trkpt>
      <trkpt lat="47.1615" lon="0.88989">
        <ele>111.2</ele>
        <time>2020-07-03T12:49:12Z</time>
      </trkpt>
      <trkpt lat="47.16144" lon="0.88988">
        <ele>111.2</ele>
        <time>2020-07-03T12:49:13Z</time>
      </trkpt>
      <trkpt lat="47.16139" lon="0.88986">
        <ele>111.3</ele>
        <time>2020-07-03T12:49:14Z</time>
      </trkpt>
      <trkpt lat="47.16134" lon="0.88986">
        <ele>111.3</ele>
        <time>2020-07-03T12:49:15Z</time>
      </trkpt>
      <trkpt lat="47.16131" lon="0.88985">
        <ele>111.3</ele>
        <time>2020-07-03T12:49:16Z</time>
      </trkpt>
      <trkpt lat="47.16127" lon="0.88985">
        <ele>111.4</ele>
        <time>2020-07-03T12:49:17Z</time>
      </trkpt>
      <trkpt lat="47.16123" lon="0.88983">
        <ele>111.4</ele>
        <time>2020-07-03T12:49:18Z</time>
      </trkpt>
      <trkpt lat="47.16119" lon="0.88981">
        <ele>111.4</ele>
        <time>2020-07-03T12:49:19Z</time>
      </trkpt>
      <trkpt lat="47.16114" lon="0.88979">
        <ele>111.4</ele>
        <time>2020-07-03T12:49:20Z</time>
      </trkpt>
      <trkpt lat="47.16111" lon="0.88977">
        <ele>111.5</ele>
        <time>2020-07-03T12:49:21Z</time>
      </trkpt>
      <trkpt lat="47.16108" lon="0.88977">
        <ele>111.5</ele>
        <time>2020-07-03T12:49:22Z</time>
      </trkpt>
      <trkpt lat="47.16106" lon="0.88976">
        <ele>111.5</ele>
        <time>2020-07-03T12:49:23Z</time>
      </trkpt>
      <trkpt lat="47.16105" lon="0.88974">
        <ele>111.5</ele>
        <time>2020-07-03T12:49:24Z</time>
      </trkpt>
      <trkpt lat="47.16105" lon="0.88974">
        <ele>111.5</ele>
        <time>2020-07-03T12:49:25Z</time>
      </trkpt>
      <trkpt lat="47.16105" lon="0.88976">
        <ele>111.5</ele>
        <time>2020-07-03T12:49:26Z</time>
      </trkpt>
      <trkpt lat="47.16106" lon="0.88977">
        <ele>111.5</ele>
        <time>2020-07-03T12:49:27Z</time>
      </trkpt>
      <trkpt lat="47.16107" lon="0.88976">
        <ele>111.5</ele>
        <time>2020-07-03T12:49:28Z</time>
      </trkpt>
      <trkpt lat="47.16108" lon="0.88976">
        <ele>111.6</ele>
        <time>2020-07-03T12:49:29Z</time>
      </trkpt>
      <trkpt lat="47.16107" lon="0.88975">
        <ele>111.6</ele>
        <time>2020-07-03T12:49:30Z</time>
      </trkpt>
      <trkpt lat="47.16107" lon="0.88975">
        <ele>111.6</ele>
        <time>2020-07-03T12:49:31Z</time>
      </trkpt>
      <trkpt lat="47.16107" lon="0.88975">
        <ele>111.6</ele>
        <time>2020-07-03T12:49:32Z</time>
      </trkpt>
      <trkpt lat="47.16106" lon="0.88975">
        <ele>111.6</ele>
        <time>2020-07-03T12:49:33Z</time>
      </trkpt>
      <trkpt lat="47.16106" lon="0.88975">
        <ele>111.6</ele>
        <time>2020-07-03T12:49:34Z</time>
      </trkpt>
      <trkpt lat="47.16106" lon="0.88975">
        <ele>111.6</ele>
        <time>2020-07-03T12:49:35Z</time>
      </trkpt>
      <trkpt lat="47.16105" lon="0.88975">
        <ele>111.6</ele>
        <time>2020-07-03T12:49:36Z</time>
      </trkpt>
      <trkpt lat="47.16105" lon="0.88975">
        <ele>111.6</ele>
        <time>2020-07-03T12:49:37Z</time>
      </trkpt>
      <trkpt lat="47.16105" lon="0.88975">
        <ele>111.6</ele>
        <time>2020-07-03T12:49:38Z</time>
      </trkpt>
      <trkpt lat="47.16104" lon="0.88974">
        <ele>111.6</ele>
        <time>2020-07-03T12:49:39Z</time>
      </trkpt>
      <trkpt lat="47.16104" lon="0.88974">
        <ele>111.6</ele>
        <time>2020-07-03T12:49:40Z</time>
      </trkpt>
      <trkpt lat="47.16104" lon="0.88974">
        <ele>111.6</ele>
        <time>2020-07-03T12:50:44Z</time>
      </trkpt>
      <trkpt lat="47.16103" lon="0.88974">
        <ele>111.6</ele>
        <time>2020-07-03T12:50:45Z</time>
      </trkpt>
      <trkpt lat="47.161" lon="0.88973">
        <ele>111.6</ele>
        <time>2020-07-03T12:50:46Z</time>
      </trkpt>
      <trkpt lat="47.16099" lon="0.88973">
        <ele>111.6</ele>
        <time>2020-07-03T12:50:47Z</time>
      </trkpt>
      <trkpt lat="47.16095" lon="0.88972">
        <ele>111.7</ele>
        <time>2020-07-03T12:50:48Z</time>
      </trkpt>
      <trkpt lat="47.16094" lon="0.88971">
        <ele>111.7</ele>
        <time>2020-07-03T12:50:49Z</time>
      </trkpt>
      <trkpt lat="47.16091" lon="0.8897">
        <ele>111.7</ele>
        <time>2020-07-03T12:50:50Z</time>
      </trkpt>
      <trkpt lat="47.16088" lon="0.8897">
        <ele>111.7</ele>
        <time>2020-07-03T12:50:51Z</time>
      </trkpt>
      <trkpt lat="47.16084" lon="0.88969">
        <ele>111.8</ele>
        <time>2020-07-03T12:50:52Z</time>
      </trkpt>
      <trkpt lat="47.1608" lon="0.88967">
        <ele>111.8</ele>
        <time>2020-07-03T12:50:53Z</time>
      </trkpt>
      <trkpt lat="47.16076" lon="0.88964">
        <ele>111.8</ele>
        <time>2020-07-03T12:50:54Z</time>
      </trkpt>
      <trkpt lat="47.16071" lon="0.88961">
        <ele>111.8</ele>
        <time>2020-07-03T12:50:55Z</time>
      </trkpt>
      <trkpt lat="47.16065" lon="0.88958">
        <ele>111.8</ele>
        <time>2020-07-03T12:50:56Z</time>
      </trkpt>
      <trkpt lat="47.16059" lon="0.88957">
        <ele>111.9</ele>
        <time>2020-07-03T12:50:57Z</time>
      </trkpt>
      <trkpt lat="47.16054" lon="0.88956">
        <ele>111.9</ele>
        <time>2020-07-03T12:50:58Z</time>
      </trkpt>
      <trkpt lat="47.16048" lon="0.88955">
        <ele>111.9</ele>
        <time>2020-07-03T12:50:59Z</time>
      </trkpt>
      <trkpt lat="47.16044" lon="0.88953">
        <ele>111.9</ele>
        <time>2020-07-03T12:51:00Z</time>
      </trkpt>
      <trkpt lat="47.16039" lon="0.88952">
        <ele>111.9</ele>
        <time>2020-07-03T12:51:01Z</time>
      </trkpt>
      <trkpt lat="47.16035" lon="0.88949">
        <ele>111.9</ele>
        <time>2020-07-03T12:51:02Z</time>
      </trkpt>
      <trkpt lat="47.16031" lon="0.88946">
        <ele>111.9</ele>
        <time>2020-07-03T12:51:03Z</time>
      </trkpt>
      <trkpt lat="47.16026" lon="0.88944">
        <ele>111.9</ele>
        <time>2020-07-03T12:51:04Z</time>
      </trkpt>
      <trkpt lat="47.16022" lon="0.88942">
        <ele>112</ele>
        <time>2020-07-03T12:51:05Z</time>
      </trkpt>
      <trkpt lat="47.16018" lon="0.88939">
        <ele>112</ele>
        <time>2020-07-03T12:51:06Z</time>
      </trkpt>
      <trkpt lat="47.16013" lon="0.88937">
        <ele>112</ele>
        <time>2020-07-03T12:51:07Z</time>
      </trkpt>
      <trkpt lat="47.16008" lon="0.88934">
        <ele>111.9</ele>
        <time>2020-07-03T12:51:08Z</time>
      </trkpt>
      <trkpt lat="47.16003" lon="0.88933">
        <ele>111.9</ele>
        <time>2020-07-03T12:51:09Z</time>
      </trkpt>
      <trkpt lat="47.15998" lon="0.88931">
        <ele>111.9</ele>
        <time>2020-07-03T12:51:10Z</time>
      </trkpt>
      <trkpt lat="47.15993" lon="0.88928">
        <ele>111.9</ele>
        <time>2020-07-03T12:51:11Z</time>
      </trkpt>
      <trkpt lat="47.15988" lon="0.88925">
        <ele>111.9</ele>
        <time>2020-07-03T12:51:12Z</time>
      </trkpt>
      <trkpt lat="47.15984" lon="0.88922">
        <ele>111.9</ele>
        <time>2020-07-03T12:51:13Z</time>
      </trkpt>
      <trkpt lat="47.1598" lon="0.88918">
        <ele>111.9</ele>
        <time>2020-07-03T12:51:14Z</time>
      </trkpt>
      <trkpt lat="47.15975" lon="0.88915">
        <ele>111.9</ele>
        <time>2020-07-03T12:51:15Z</time>
      </trkpt>
      <trkpt lat="47.15969" lon="0.8891">
        <ele>111.9</ele>
        <time>2020-07-03T12:51:16Z</time>
      </trkpt>
      <trkpt lat="47.15964" lon="0.88907">
        <ele>111.9</ele>
        <time>2020-07-03T12:51:17Z</time>
      </trkpt>
      <trkpt lat="47.15959" lon="0.88905">
        <ele>111.9</ele>
        <time>2020-07-03T12:51:18Z</time>
      </trkpt>
      <trkpt lat="47.15954" lon="0.88902">
        <ele>111.9</ele>
        <time>2020-07-03T12:51:19Z</time>
      </trkpt>
      <trkpt lat="47.15949" lon="0.88898">
        <ele>111.9</ele>
        <time>2020-07-03T12:51:20Z</time>
      </trkpt>
      <trkpt lat="47.15943" lon="0.88893">
        <ele>111.8</ele>
        <time>2020-07-03T12:51:21Z</time>
      </trkpt>
      <trkpt lat="47.15938" lon="0.88889">
        <ele>111.8</ele>
        <time>2020-07-03T12:51:22Z</time>
      </trkpt>
      <trkpt lat="47.15933" lon="0.88886">
        <ele>111.8</ele>
        <time>2020-07-03T12:51:23Z</time>
      </trkpt>
      <trkpt lat="47.15928" lon="0.88883">
        <ele>111.7</ele>
        <time>2020-07-03T12:51:24Z</time>
      </trkpt>
      <trkpt lat="47.15923" lon="0.88879">
        <ele>111.6</ele>
        <time>2020-07-03T12:51:25Z</time>
      </trkpt>
      <trkpt lat="47.15917" lon="0.88875">
        <ele>111.4</ele>
        <time>2020-07-03T12:51:26Z</time>
      </trkpt>
      <trkpt lat="47.15912" lon="0.88871">
        <ele>111.4</ele>
        <time>2020-07-03T12:51:27Z</time>
      </trkpt>
      <trkpt lat="47.15907" lon="0.88867">
        <ele>111.3</ele>
        <time>2020-07-03T12:51:28Z</time>
      </trkpt>
      <trkpt lat="47.15901" lon="0.88863">
        <ele>111.2</ele>
        <time>2020-07-03T12:51:29Z</time>
      </trkpt>
      <trkpt lat="47.15896" lon="0.88859">
        <ele>111.2</ele>
        <time>2020-07-03T12:51:30Z</time>
      </trkpt>
      <trkpt lat="47.15892" lon="0.88854">
        <ele>111.2</ele>
        <time>2020-07-03T12:51:31Z</time>
      </trkpt>
      <trkpt lat="47.15888" lon="0.88851">
        <ele>111.2</ele>
        <time>2020-07-03T12:51:32Z</time>
      </trkpt>
      <trkpt lat="47.15883" lon="0.88846">
        <ele>111.2</ele>
        <time>2020-07-03T12:51:33Z</time>
      </trkpt>
      <trkpt lat="47.15878" lon="0.88842">
        <ele>111.2</ele>
        <time>2020-07-03T12:51:34Z</time>
      </trkpt>
      <trkpt lat="47.15873" lon="0.88839">
        <ele>111.2</ele>
        <time>2020-07-03T12:51:35Z</time>
      </trkpt>
      <trkpt lat="47.15868" lon="0.88835">
        <ele>111.2</ele>
        <time>2020-07-03T12:51:36Z</time>
      </trkpt>
      <trkpt lat="47.15863" lon="0.88831">
        <ele>111.2</ele>
        <time>2020-07-03T12:51:37Z</time>
      </trkpt>
      <trkpt lat="47.15858" lon="0.88829">
        <ele>111.3</ele>
        <time>2020-07-03T12:51:38Z</time>
      </trkpt>
      <trkpt lat="47.15853" lon="0.88825">
        <ele>111.3</ele>
        <time>2020-07-03T12:51:39Z</time>
      </trkpt>
      <trkpt lat="47.15847" lon="0.88821">
        <ele>111.3</ele>
        <time>2020-07-03T12:51:40Z</time>
      </trkpt>
      <trkpt lat="47.15841" lon="0.88816">
        <ele>111.4</ele>
        <time>2020-07-03T12:51:41Z</time>
      </trkpt>
      <trkpt lat="47.15837" lon="0.88811">
        <ele>111.4</ele>
        <time>2020-07-03T12:51:42Z</time>
      </trkpt>
      <trkpt lat="47.15832" lon="0.88807">
        <ele>111.5</ele>
        <time>2020-07-03T12:51:43Z</time>
      </trkpt>
      <trkpt lat="47.15827" lon="0.88803">
        <ele>111.5</ele>
        <time>2020-07-03T12:51:44Z</time>
      </trkpt>
      <trkpt lat="47.15822" lon="0.88798">
        <ele>111.5</ele>
        <time>2020-07-03T12:51:45Z</time>
      </trkpt>
      <trkpt lat="47.15818" lon="0.88795">
        <ele>111.6</ele>
        <time>2020-07-03T12:51:46Z</time>
      </trkpt>
      <trkpt lat="47.15813" lon="0.88791">
        <ele>111.6</ele>
        <time>2020-07-03T12:51:47Z</time>
      </trkpt>
      <trkpt lat="47.15808" lon="0.88787">
        <ele>111.6</ele>
        <time>2020-07-03T12:51:48Z</time>
      </trkpt>
      <trkpt lat="47.15804" lon="0.88784">
        <ele>111.6</ele>
        <time>2020-07-03T12:51:49Z</time>
      </trkpt>
      <trkpt lat="47.15798" lon="0.8878">
        <ele>111.6</ele>
        <time>2020-07-03T12:51:50Z</time>
      </trkpt>
      <trkpt lat="47.15793" lon="0.88775">
        <ele>111.6</ele>
        <time>2020-07-03T12:51:51Z</time>
      </trkpt>
      <trkpt lat="47.15789" lon="0.88771">
        <ele>111.6</ele>
        <time>2020-07-03T12:51:52Z</time>
      </trkpt>
      <trkpt lat="47.15784" lon="0.88766">
        <ele>111.6</ele>
        <time>2020-07-03T12:51:53Z</time>
      </trkpt>
      <trkpt lat="47.15779" lon="0.88762">
        <ele>111.6</ele>
        <time>2020-07-03T12:51:54Z</time>
      </trkpt>
      <trkpt lat="47.15773" lon="0.88758">
        <ele>111.7</ele>
        <time>2020-07-03T12:51:55Z</time>
      </trkpt>
      <trkpt lat="47.15768" lon="0.88754">
        <ele>111.7</ele>
        <time>2020-07-03T12:51:56Z</time>
      </trkpt>
      <trkpt lat="47.15762" lon="0.8875">
        <ele>111.7</ele>
        <time>2020-07-03T12:51:57Z</time>
      </trkpt>
      <trkpt lat="47.15757" lon="0.88745">
        <ele>111.7</ele>
        <time>2020-07-03T12:51:58Z</time>
      </trkpt>
      <trkpt lat="47.15752" lon="0.88741">
        <ele>111.8</ele>
        <time>2020-07-03T12:51:59Z</time>
      </trkpt>
      <trkpt lat="47.15748" lon="0.88736">
        <ele>111.8</ele>
        <time>2020-07-03T12:52:00Z</time>
      </trkpt>
      <trkpt lat="47.15743" lon="0.88733">
        <ele>111.8</ele>
        <time>2020-07-03T12:52:01Z</time>
      </trkpt>
      <trkpt lat="47.15738" lon="0.88729">
        <ele>111.8</ele>
        <time>2020-07-03T12:52:02Z</time>
      </trkpt>
      <trkpt lat="47.15734" lon="0.88725">
        <ele>111.9</ele>
        <time>2020-07-03T12:52:03Z</time>
      </trkpt>
      <trkpt lat="47.15729" lon="0.88721">
        <ele>111.9</ele>
        <time>2020-07-03T12:52:04Z</time>
      </trkpt>
      <trkpt lat="47.15724" lon="0.88717">
        <ele>111.9</ele>
        <time>2020-07-03T12:52:05Z</time>
      </trkpt>
      <trkpt lat="47.1572" lon="0.88713">
        <ele>111.9</ele>
        <time>2020-07-03T12:52:06Z</time>
      </trkpt>
      <trkpt lat="47.15716" lon="0.8871">
        <ele>112</ele>
        <time>2020-07-03T12:52:07Z</time>
      </trkpt>
      <trkpt lat="47.15711" lon="0.88706">
        <ele>112</ele>
        <time>2020-07-03T12:52:08Z</time>
      </trkpt>
      <trkpt lat="47.15707" lon="0.88702">
        <ele>112.1</ele>
        <time>2020-07-03T12:52:09Z</time>
      </trkpt>
      <trkpt lat="47.15703" lon="0.88697">
        <ele>112.2</ele>
        <time>2020-07-03T12:52:10Z</time>
      </trkpt>
      <trkpt lat="47.15699" lon="0.88694">
        <ele>112.3</ele>
        <time>2020-07-03T12:52:11Z</time>
      </trkpt>
      <trkpt lat="47.15695" lon="0.8869">
        <ele>112.3</ele>
        <time>2020-07-03T12:52:12Z</time>
      </trkpt>
      <trkpt lat="47.15691" lon="0.88686">
        <ele>112.4</ele>
        <time>2020-07-03T12:52:13Z</time>
      </trkpt>
      <trkpt lat="47.15687" lon="0.88682">
        <ele>112.5</ele>
        <time>2020-07-03T12:52:14Z</time>
      </trkpt>
      <trkpt lat="47.15682" lon="0.88677">
        <ele>112.5</ele>
        <time>2020-07-03T12:52:15Z</time>
      </trkpt>
      <trkpt lat="47.15678" lon="0.88675">
        <ele>112.6</ele>
        <time>2020-07-03T12:52:16Z</time>
      </trkpt>
      <trkpt lat="47.15673" lon="0.88672">
        <ele>112.7</ele>
        <time>2020-07-03T12:52:17Z</time>
      </trkpt>
      <trkpt lat="47.15669" lon="0.88668">
        <ele>112.7</ele>
        <time>2020-07-03T12:52:18Z</time>
      </trkpt>
      <trkpt lat="47.15666" lon="0.88664">
        <ele>112.8</ele>
        <time>2020-07-03T12:52:19Z</time>
      </trkpt>
      <trkpt lat="47.15662" lon="0.88661">
        <ele>112.9</ele>
        <time>2020-07-03T12:52:20Z</time>
      </trkpt>
      <trkpt lat="47.15658" lon="0.88658">
        <ele>113</ele>
        <time>2020-07-03T12:52:21Z</time>
      </trkpt>
      <trkpt lat="47.15653" lon="0.88655">
        <ele>113.1</ele>
        <time>2020-07-03T12:52:22Z</time>
      </trkpt>
      <trkpt lat="47.1565" lon="0.88653">
        <ele>113.2</ele>
        <time>2020-07-03T12:52:23Z</time>
      </trkpt>
      <trkpt lat="47.15646" lon="0.8865">
        <ele>113.2</ele>
        <time>2020-07-03T12:52:24Z</time>
      </trkpt>
      <trkpt lat="47.15642" lon="0.88646">
        <ele>113.3</ele>
        <time>2020-07-03T12:52:25Z</time>
      </trkpt>
      <trkpt lat="47.15638" lon="0.88642">
        <ele>113.3</ele>
        <time>2020-07-03T12:52:26Z</time>
      </trkpt>
      <trkpt lat="47.15633" lon="0.88638">
        <ele>113.4</ele>
        <time>2020-07-03T12:52:27Z</time>
      </trkpt>
      <trkpt lat="47.15629" lon="0.88635">
        <ele>113.5</ele>
        <time>2020-07-03T12:52:28Z</time>
      </trkpt>
      <trkpt lat="47.15625" lon="0.88632">
        <ele>113.6</ele>
        <time>2020-07-03T12:52:29Z</time>
      </trkpt>
      <trkpt lat="47.15621" lon="0.88629">
        <ele>113.7</ele>
        <time>2020-07-03T12:52:30Z</time>
      </trkpt>
      <trkpt lat="47.15617" lon="0.88625">
        <ele>113.7</ele>
        <time>2020-07-03T12:52:31Z</time>
      </trkpt>
      <trkpt lat="47.15613" lon="0.88622">
        <ele>113.8</ele>
        <time>2020-07-03T12:52:32Z</time>
      </trkpt>
      <trkpt lat="47.15609" lon="0.88618">
        <ele>113.9</ele>
        <time>2020-07-03T12:52:33Z</time>
      </trkpt>
      <trkpt lat="47.15605" lon="0.88615">
        <ele>114</ele>
        <time>2020-07-03T12:52:34Z</time>
      </trkpt>
      <trkpt lat="47.15602" lon="0.88611">
        <ele>114</ele>
        <time>2020-07-03T12:52:35Z</time>
      </trkpt>
      <trkpt lat="47.15598" lon="0.88607">
        <ele>114.1</ele>
        <time>2020-07-03T12:52:36Z</time>
      </trkpt>
      <trkpt lat="47.15593" lon="0.88604">
        <ele>114.3</ele>
        <time>2020-07-03T12:52:37Z</time>
      </trkpt>
      <trkpt lat="47.15589" lon="0.88601">
        <ele>114.4</ele>
        <time>2020-07-03T12:52:38Z</time>
      </trkpt>
      <trkpt lat="47.15584" lon="0.88597">
        <ele>114.6</ele>
        <time>2020-07-03T12:52:39Z</time>
      </trkpt>
      <trkpt lat="47.15579" lon="0.88595">
        <ele>114.7</ele>
        <time>2020-07-03T12:52:40Z</time>
      </trkpt>
      <trkpt lat="47.15575" lon="0.88591">
        <ele>114.8</ele>
        <time>2020-07-03T12:52:41Z</time>
      </trkpt>
      <trkpt lat="47.1557" lon="0.88588">
        <ele>114.8</ele>
        <time>2020-07-03T12:52:42Z</time>
      </trkpt>
      <trkpt lat="47.15566" lon="0.88585">
        <ele>114.9</ele>
        <time>2020-07-03T12:52:43Z</time>
      </trkpt>
      <trkpt lat="47.15561" lon="0.88584">
        <ele>114.9</ele>
        <time>2020-07-03T12:52:44Z</time>
      </trkpt>
      <trkpt lat="47.15556" lon="0.88581">
        <ele>115</ele>
        <time>2020-07-03T12:52:45Z</time>
      </trkpt>
      <trkpt lat="47.15552" lon="0.88577">
        <ele>115</ele>
        <time>2020-07-03T12:52:46Z</time>
      </trkpt>
      <trkpt lat="47.15548" lon="0.88571">
        <ele>115.1</ele>
        <time>2020-07-03T12:52:47Z</time>
      </trkpt>
      <trkpt lat="47.15545" lon="0.88568">
        <ele>115.2</ele>
        <time>2020-07-03T12:52:48Z</time>
      </trkpt>
      <trkpt lat="47.15541" lon="0.88565">
        <ele>115.3</ele>
        <time>2020-07-03T12:52:49Z</time>
      </trkpt>
      <trkpt lat="47.15537" lon="0.88561">
        <ele>115.3</ele>
        <time>2020-07-03T12:52:50Z</time>
      </trkpt>
      <trkpt lat="47.15532" lon="0.88557">
        <ele>115.4</ele>
        <time>2020-07-03T12:52:51Z</time>
      </trkpt>
      <trkpt lat="47.15529" lon="0.88552">
        <ele>115.5</ele>
        <time>2020-07-03T12:52:52Z</time>
      </trkpt>
      <trkpt lat="47.15525" lon="0.88549">
        <ele>115.6</ele>
        <time>2020-07-03T12:52:53Z</time>
      </trkpt>
      <trkpt lat="47.15521" lon="0.88545">
        <ele>115.6</ele>
        <time>2020-07-03T12:52:54Z</time>
      </trkpt>
      <trkpt lat="47.15516" lon="0.88543">
        <ele>115.7</ele>
        <time>2020-07-03T12:52:55Z</time>
      </trkpt>
      <trkpt lat="47.15511" lon="0.8854">
        <ele>115.7</ele>
        <time>2020-07-03T12:52:56Z</time>
      </trkpt>
      <trkpt lat="47.15506" lon="0.88537">
        <ele>115.8</ele>
        <time>2020-07-03T12:52:57Z</time>
      </trkpt>
      <trkpt lat="47.15503" lon="0.88534">
        <ele>115.9</ele>
        <time>2020-07-03T12:52:58Z</time>
      </trkpt>
      <trkpt lat="47.15499" lon="0.8853">
        <ele>115.9</ele>
        <time>2020-07-03T12:52:59Z</time>
      </trkpt>
      <trkpt lat="47.15495" lon="0.88527">
        <ele>116</ele>
        <time>2020-07-03T12:53:00Z</time>
      </trkpt>
      <trkpt lat="47.15492" lon="0.88524">
        <ele>116.1</ele>
        <time>2020-07-03T12:53:01Z</time>
      </trkpt>
      <trkpt lat="47.15488" lon="0.8852">
        <ele>116.1</ele>
        <time>2020-07-03T12:53:02Z</time>
      </trkpt>
      <trkpt lat="47.15484" lon="0.88516">
        <ele>116.2</ele>
        <time>2020-07-03T12:53:03Z</time>
      </trkpt>
      <trkpt lat="47.1548" lon="0.88513">
        <ele>116.2</ele>
        <time>2020-07-03T12:53:04Z</time>
      </trkpt>
      <trkpt lat="47.15476" lon="0.8851">
        <ele>116.3</ele>
        <time>2020-07-03T12:53:05Z</time>
      </trkpt>
      <trkpt lat="47.15472" lon="0.88507">
        <ele>116.4</ele>
        <time>2020-07-03T12:53:06Z</time>
      </trkpt>
      <trkpt lat="47.15469" lon="0.88504">
        <ele>116.4</ele>
        <time>2020-07-03T12:53:07Z</time>
      </trkpt>
      <trkpt lat="47.15465" lon="0.885">
        <ele>116.5</ele>
        <time>2020-07-03T12:53:08Z</time>
      </trkpt>
      <trkpt lat="47.15461" lon="0.88498">
        <ele>116.6</ele>
        <time>2020-07-03T12:53:09Z</time>
      </trkpt>
      <trkpt lat="47.15457" lon="0.88495">
        <ele>116.6</ele>
        <time>2020-07-03T12:53:10Z</time>
      </trkpt>
      <trkpt lat="47.15453" lon="0.88494">
        <ele>116.7</ele>
        <time>2020-07-03T12:53:11Z</time>
      </trkpt>
      <trkpt lat="47.1545" lon="0.88492">
        <ele>116.7</ele>
        <time>2020-07-03T12:53:12Z</time>
      </trkpt>
      <trkpt lat="47.15445" lon="0.88486">
        <ele>116.8</ele>
        <time>2020-07-03T12:53:13Z</time>
      </trkpt>
      <trkpt lat="47.15442" lon="0.88482">
        <ele>116.9</ele>
        <time>2020-07-03T12:53:14Z</time>
      </trkpt>
      <trkpt lat="47.15438" lon="0.88478">
        <ele>117</ele>
        <time>2020-07-03T12:53:15Z</time>
      </trkpt>
      <trkpt lat="47.15434" lon="0.88475">
        <ele>117.1</ele>
        <time>2020-07-03T12:53:16Z</time>
      </trkpt>
      <trkpt lat="47.1543" lon="0.8847">
        <ele>117.2</ele>
        <time>2020-07-03T12:53:17Z</time>
      </trkpt>
      <trkpt lat="47.15427" lon="0.88468">
        <ele>117.2</ele>
        <time>2020-07-03T12:53:18Z</time>
      </trkpt>
      <trkpt lat="47.15423" lon="0.88464">
        <ele>117.3</ele>
        <time>2020-07-03T12:53:19Z</time>
      </trkpt>
      <trkpt lat="47.15419" lon="0.88461">
        <ele>117.3</ele>
        <time>2020-07-03T12:53:20Z</time>
      </trkpt>
      <trkpt lat="47.15415" lon="0.88458">
        <ele>117.4</ele>
        <time>2020-07-03T12:53:21Z</time>
      </trkpt>
      <trkpt lat="47.15411" lon="0.88454">
        <ele>117.4</ele>
        <time>2020-07-03T12:53:22Z</time>
      </trkpt>
      <trkpt lat="47.15406" lon="0.88451">
        <ele>117.4</ele>
        <time>2020-07-03T12:53:23Z</time>
      </trkpt>
      <trkpt lat="47.15402" lon="0.88447">
        <ele>117.5</ele>
        <time>2020-07-03T12:53:24Z</time>
      </trkpt>
      <trkpt lat="47.15397" lon="0.88444">
        <ele>117.5</ele>
        <time>2020-07-03T12:53:25Z</time>
      </trkpt>
      <trkpt lat="47.15393" lon="0.88441">
        <ele>117.6</ele>
        <time>2020-07-03T12:53:26Z</time>
      </trkpt>
      <trkpt lat="47.15388" lon="0.88438">
        <ele>117.6</ele>
        <time>2020-07-03T12:53:27Z</time>
      </trkpt>
      <trkpt lat="47.15384" lon="0.88435">
        <ele>117.6</ele>
        <time>2020-07-03T12:53:28Z</time>
      </trkpt>
      <trkpt lat="47.15379" lon="0.88431">
        <ele>117.7</ele>
        <time>2020-07-03T12:53:29Z</time>
      </trkpt>
      <trkpt lat="47.15375" lon="0.88428">
        <ele>117.7</ele>
        <time>2020-07-03T12:53:30Z</time>
      </trkpt>
      <trkpt lat="47.15371" lon="0.88424">
        <ele>117.7</ele>
        <time>2020-07-03T12:53:31Z</time>
      </trkpt>
      <trkpt lat="47.15367" lon="0.88421">
        <ele>117.6</ele>
        <time>2020-07-03T12:53:32Z</time>
      </trkpt>
      <trkpt lat="47.15364" lon="0.88418">
        <ele>117.5</ele>
        <time>2020-07-03T12:53:33Z</time>
      </trkpt>
      <trkpt lat="47.1536" lon="0.88416">
        <ele>117.3</ele>
        <time>2020-07-03T12:53:34Z</time>
      </trkpt>
      <trkpt lat="47.15356" lon="0.88413">
        <ele>116.5</ele>
        <time>2020-07-03T12:53:35Z</time>
      </trkpt>
      <trkpt lat="47.15352" lon="0.8841">
        <ele>116.4</ele>
        <time>2020-07-03T12:53:36Z</time>
      </trkpt>
      <trkpt lat="47.15348" lon="0.88406">
        <ele>116.3</ele>
        <time>2020-07-03T12:53:37Z</time>
      </trkpt>
      <trkpt lat="47.15344" lon="0.88403">
        <ele>116.3</ele>
        <time>2020-07-03T12:53:38Z</time>
      </trkpt>
      <trkpt lat="47.1534" lon="0.88398">
        <ele>116.2</ele>
        <time>2020-07-03T12:53:39Z</time>
      </trkpt>
      <trkpt lat="47.15336" lon="0.88395">
        <ele>116.2</ele>
        <time>2020-07-03T12:53:40Z</time>
      </trkpt>
      <trkpt lat="47.15332" lon="0.88391">
        <ele>116.2</ele>
        <time>2020-07-03T12:53:41Z</time>
      </trkpt>
      <trkpt lat="47.15327" lon="0.88387">
        <ele>116.2</ele>
        <time>2020-07-03T12:53:42Z</time>
      </trkpt>
      <trkpt lat="47.15322" lon="0.88383">
        <ele>116.2</ele>
        <time>2020-07-03T12:53:43Z</time>
      </trkpt>
      <trkpt lat="47.15318" lon="0.8838">
        <ele>116.1</ele>
        <time>2020-07-03T12:53:44Z</time>
      </trkpt>
      <trkpt lat="47.15313" lon="0.88377">
        <ele>116.1</ele>
        <time>2020-07-03T12:53:45Z</time>
      </trkpt>
      <trkpt lat="47.15309" lon="0.88373">
        <ele>116</ele>
        <time>2020-07-03T12:53:46Z</time>
      </trkpt>
      <trkpt lat="47.15304" lon="0.88369">
        <ele>115.9</ele>
        <time>2020-07-03T12:53:47Z</time>
      </trkpt>
      <trkpt lat="47.153" lon="0.88365">
        <ele>115.8</ele>
        <time>2020-07-03T12:53:48Z</time>
      </trkpt>
      <trkpt lat="47.15295" lon="0.8836">
        <ele>115.7</ele>
        <time>2020-07-03T12:53:49Z</time>
      </trkpt>
      <trkpt lat="47.1529" lon="0.88356">
        <ele>115.6</ele>
        <time>2020-07-03T12:53:50Z</time>
      </trkpt>
      <trkpt lat="47.15285" lon="0.88351">
        <ele>115.5</ele>
        <time>2020-07-03T12:53:51Z</time>
      </trkpt>
      <trkpt lat="47.1528" lon="0.88348">
        <ele>115.5</ele>
        <time>2020-07-03T12:53:52Z</time>
      </trkpt>
      <trkpt lat="47.15274" lon="0.88343">
        <ele>115.4</ele>
        <time>2020-07-03T12:53:53Z</time>
      </trkpt>
      <trkpt lat="47.15269" lon="0.88339">
        <ele>115.3</ele>
        <time>2020-07-03T12:53:54Z</time>
      </trkpt>
      <trkpt lat="47.15264" lon="0.88334">
        <ele>115.3</ele>
        <time>2020-07-03T12:53:55Z</time>
      </trkpt>
      <trkpt lat="47.15258" lon="0.88329">
        <ele>115.2</ele>
        <time>2020-07-03T12:53:56Z</time>
      </trkpt>
      <trkpt lat="47.15252" lon="0.88325">
        <ele>115.2</ele>
        <time>2020-07-03T12:53:57Z</time>
      </trkpt>
      <trkpt lat="47.15246" lon="0.8832">
        <ele>115.2</ele>
        <time>2020-07-03T12:53:58Z</time>
      </trkpt>
      <trkpt lat="47.15241" lon="0.88316">
        <ele>115.2</ele>
        <time>2020-07-03T12:53:59Z</time>
      </trkpt>
      <trkpt lat="47.15236" lon="0.88311">
        <ele>115.1</ele>
        <time>2020-07-03T12:54:00Z</time>
      </trkpt>
      <trkpt lat="47.15231" lon="0.88306">
        <ele>115</ele>
        <time>2020-07-03T12:54:01Z</time>
      </trkpt>
      <trkpt lat="47.15226" lon="0.88301">
        <ele>115</ele>
        <time>2020-07-03T12:54:02Z</time>
      </trkpt>
      <trkpt lat="47.1522" lon="0.88296">
        <ele>114.9</ele>
        <time>2020-07-03T12:54:03Z</time>
      </trkpt>
      <trkpt lat="47.15214" lon="0.88291">
        <ele>114.9</ele>
        <time>2020-07-03T12:54:04Z</time>
      </trkpt>
      <trkpt lat="47.15208" lon="0.88286">
        <ele>115</ele>
        <time>2020-07-03T12:54:05Z</time>
      </trkpt>
      <trkpt lat="47.15203" lon="0.88283">
        <ele>115.1</ele>
        <time>2020-07-03T12:54:06Z</time>
      </trkpt>
      <trkpt lat="47.15198" lon="0.88279">
        <ele>115.2</ele>
        <time>2020-07-03T12:54:07Z</time>
      </trkpt>
      <trkpt lat="47.15193" lon="0.88274">
        <ele>115.2</ele>
        <time>2020-07-03T12:54:08Z</time>
      </trkpt>
      <trkpt lat="47.15188" lon="0.8827">
        <ele>115.1</ele>
        <time>2020-07-03T12:54:09Z</time>
      </trkpt>
      <trkpt lat="47.15182" lon="0.88267">
        <ele>115.1</ele>
        <time>2020-07-03T12:54:10Z</time>
      </trkpt>
      <trkpt lat="47.15176" lon="0.88263">
        <ele>115</ele>
        <time>2020-07-03T12:54:11Z</time>
      </trkpt>
      <trkpt lat="47.15171" lon="0.88259">
        <ele>114.8</ele>
        <time>2020-07-03T12:54:12Z</time>
      </trkpt>
      <trkpt lat="47.15166" lon="0.88254">
        <ele>114.7</ele>
        <time>2020-07-03T12:54:13Z</time>
      </trkpt>
      <trkpt lat="47.1516" lon="0.88249">
        <ele>114.6</ele>
        <time>2020-07-03T12:54:14Z</time>
      </trkpt>
      <trkpt lat="47.15153" lon="0.88244">
        <ele>114.6</ele>
        <time>2020-07-03T12:54:15Z</time>
      </trkpt>
      <trkpt lat="47.15148" lon="0.8824">
        <ele>114.5</ele>
        <time>2020-07-03T12:54:16Z</time>
      </trkpt>
      <trkpt lat="47.15142" lon="0.88235">
        <ele>114.5</ele>
        <time>2020-07-03T12:54:17Z</time>
      </trkpt>
      <trkpt lat="47.15136" lon="0.8823">
        <ele>114.4</ele>
        <time>2020-07-03T12:54:18Z</time>
      </trkpt>
      <trkpt lat="47.1513" lon="0.88224">
        <ele>114.4</ele>
        <time>2020-07-03T12:54:19Z</time>
      </trkpt>
      <trkpt lat="47.15124" lon="0.8822">
        <ele>114.3</ele>
        <time>2020-07-03T12:54:20Z</time>
      </trkpt>
      <trkpt lat="47.15119" lon="0.88215">
        <ele>114.3</ele>
        <time>2020-07-03T12:54:21Z</time>
      </trkpt>
      <trkpt lat="47.15113" lon="0.8821">
        <ele>114.2</ele>
        <time>2020-07-03T12:54:22Z</time>
      </trkpt>
      <trkpt lat="47.15107" lon="0.88205">
        <ele>114.2</ele>
        <time>2020-07-03T12:54:23Z</time>
      </trkpt>
      <trkpt lat="47.15101" lon="0.882">
        <ele>114.1</ele>
        <time>2020-07-03T12:54:24Z</time>
      </trkpt>
      <trkpt lat="47.15096" lon="0.88194">
        <ele>114.1</ele>
        <time>2020-07-03T12:54:25Z</time>
      </trkpt>
      <trkpt lat="47.15091" lon="0.8819">
        <ele>114</ele>
        <time>2020-07-03T12:54:26Z</time>
      </trkpt>
      <trkpt lat="47.15084" lon="0.88185">
        <ele>114</ele>
        <time>2020-07-03T12:54:27Z</time>
      </trkpt>
      <trkpt lat="47.15078" lon="0.8818">
        <ele>114</ele>
        <time>2020-07-03T12:54:28Z</time>
      </trkpt>
      <trkpt lat="47.15073" lon="0.88176">
        <ele>114</ele>
        <time>2020-07-03T12:54:29Z</time>
      </trkpt>
      <trkpt lat="47.15066" lon="0.88171">
        <ele>114</ele>
        <time>2020-07-03T12:54:30Z</time>
      </trkpt>
      <trkpt lat="47.1506" lon="0.88165">
        <ele>114.1</ele>
        <time>2020-07-03T12:54:31Z</time>
      </trkpt>
      <trkpt lat="47.15054" lon="0.8816">
        <ele>114.1</ele>
        <time>2020-07-03T12:54:32Z</time>
      </trkpt>
      <trkpt lat="47.15048" lon="0.88155">
        <ele>114.1</ele>
        <time>2020-07-03T12:54:33Z</time>
      </trkpt>
      <trkpt lat="47.15042" lon="0.88151">
        <ele>114.1</ele>
        <time>2020-07-03T12:54:34Z</time>
      </trkpt>
      <trkpt lat="47.15037" lon="0.88146">
        <ele>114.1</ele>
        <time>2020-07-03T12:54:35Z</time>
      </trkpt>
      <trkpt lat="47.15031" lon="0.88141">
        <ele>114.1</ele>
        <time>2020-07-03T12:54:36Z</time>
      </trkpt>
      <trkpt lat="47.15025" lon="0.88137">
        <ele>114.1</ele>
        <time>2020-07-03T12:54:37Z</time>
      </trkpt>
      <trkpt lat="47.1502" lon="0.88133">
        <ele>114.1</ele>
        <time>2020-07-03T12:54:38Z</time>
      </trkpt>
      <trkpt lat="47.15014" lon="0.88128">
        <ele>114.1</ele>
        <time>2020-07-03T12:54:39Z</time>
      </trkpt>
      <trkpt lat="47.15008" lon="0.88124">
        <ele>114.1</ele>
        <time>2020-07-03T12:54:40Z</time>
      </trkpt>
      <trkpt lat="47.15003" lon="0.88118">
        <ele>114</ele>
        <time>2020-07-03T12:54:41Z</time>
      </trkpt>
      <trkpt lat="47.14998" lon="0.88113">
        <ele>114</ele>
        <time>2020-07-03T12:54:42Z</time>
      </trkpt>
      <trkpt lat="47.14992" lon="0.88109">
        <ele>113.9</ele>
        <time>2020-07-03T12:54:43Z</time>
      </trkpt>
      <trkpt lat="47.14987" lon="0.88104">
        <ele>113.8</ele>
        <time>2020-07-03T12:54:44Z</time>
      </trkpt>
      <trkpt lat="47.14981" lon="0.88098">
        <ele>113.7</ele>
        <time>2020-07-03T12:54:45Z</time>
      </trkpt>
      <trkpt lat="47.14975" lon="0.88094">
        <ele>113.7</ele>
        <time>2020-07-03T12:54:46Z</time>
      </trkpt>
      <trkpt lat="47.14969" lon="0.88089">
        <ele>113.6</ele>
        <time>2020-07-03T12:54:47Z</time>
      </trkpt>
      <trkpt lat="47.14963" lon="0.88084">
        <ele>113.4</ele>
        <time>2020-07-03T12:54:48Z</time>
      </trkpt>
      <trkpt lat="47.14957" lon="0.8808">
        <ele>113.3</ele>
        <time>2020-07-03T12:54:49Z</time>
      </trkpt>
      <trkpt lat="47.14951" lon="0.88075">
        <ele>113.2</ele>
        <time>2020-07-03T12:54:50Z</time>
      </trkpt>
      <trkpt lat="47.14945" lon="0.88071">
        <ele>113</ele>
        <time>2020-07-03T12:54:51Z</time>
      </trkpt>
      <trkpt lat="47.14939" lon="0.88066">
        <ele>112.9</ele>
        <time>2020-07-03T12:54:52Z</time>
      </trkpt>
      <trkpt lat="47.14934" lon="0.88061">
        <ele>112.7</ele>
        <time>2020-07-03T12:54:53Z</time>
      </trkpt>
      <trkpt lat="47.14928" lon="0.88056">
        <ele>112.5</ele>
        <time>2020-07-03T12:54:54Z</time>
      </trkpt>
      <trkpt lat="47.14922" lon="0.88051">
        <ele>112.4</ele>
        <time>2020-07-03T12:54:55Z</time>
      </trkpt>
      <trkpt lat="47.14916" lon="0.88046">
        <ele>112.2</ele>
        <time>2020-07-03T12:54:56Z</time>
      </trkpt>
      <trkpt lat="47.1491" lon="0.88041">
        <ele>112.1</ele>
        <time>2020-07-03T12:54:57Z</time>
      </trkpt>
      <trkpt lat="47.14904" lon="0.88036">
        <ele>111.9</ele>
        <time>2020-07-03T12:54:58Z</time>
      </trkpt>
      <trkpt lat="47.14898" lon="0.88031">
        <ele>111.9</ele>
        <time>2020-07-03T12:54:59Z</time>
      </trkpt>
      <trkpt lat="47.14892" lon="0.88026">
        <ele>111.8</ele>
        <time>2020-07-03T12:55:00Z</time>
      </trkpt>
      <trkpt lat="47.14886" lon="0.8802">
        <ele>111.7</ele>
        <time>2020-07-03T12:55:01Z</time>
      </trkpt>
      <trkpt lat="47.1488" lon="0.88015">
        <ele>111.6</ele>
        <time>2020-07-03T12:55:02Z</time>
      </trkpt>
      <trkpt lat="47.14873" lon="0.8801">
        <ele>111.5</ele>
        <time>2020-07-03T12:55:03Z</time>
      </trkpt>
      <trkpt lat="47.14867" lon="0.88005">
        <ele>111.4</ele>
        <time>2020-07-03T12:55:04Z</time>
      </trkpt>
      <trkpt lat="47.14861" lon="0.88">
        <ele>111.3</ele>
        <time>2020-07-03T12:55:05Z</time>
      </trkpt>
      <trkpt lat="47.14855" lon="0.87995">
        <ele>111.2</ele>
        <time>2020-07-03T12:55:06Z</time>
      </trkpt>
      <trkpt lat="47.14849" lon="0.8799">
        <ele>111.1</ele>
        <time>2020-07-03T12:55:07Z</time>
      </trkpt>
      <trkpt lat="47.14842" lon="0.87985">
        <ele>111</ele>
        <time>2020-07-03T12:55:08Z</time>
      </trkpt>
      <trkpt lat="47.14836" lon="0.8798">
        <ele>110.9</ele>
        <time>2020-07-03T12:55:09Z</time>
      </trkpt>
      <trkpt lat="47.1483" lon="0.87975">
        <ele>110.8</ele>
        <time>2020-07-03T12:55:10Z</time>
      </trkpt>
      <trkpt lat="47.14823" lon="0.8797">
        <ele>110.7</ele>
        <time>2020-07-03T12:55:11Z</time>
      </trkpt>
      <trkpt lat="47.14818" lon="0.87965">
        <ele>110.7</ele>
        <time>2020-07-03T12:55:12Z</time>
      </trkpt>
      <trkpt lat="47.14812" lon="0.87959">
        <ele>110.7</ele>
        <time>2020-07-03T12:55:13Z</time>
      </trkpt>
      <trkpt lat="47.14806" lon="0.87954">
        <ele>110.7</ele>
        <time>2020-07-03T12:55:14Z</time>
      </trkpt>
      <trkpt lat="47.148" lon="0.87949">
        <ele>110.7</ele>
        <time>2020-07-03T12:55:15Z</time>
      </trkpt>
      <trkpt lat="47.14795" lon="0.87944">
        <ele>110.7</ele>
        <time>2020-07-03T12:55:16Z</time>
      </trkpt>
      <trkpt lat="47.14789" lon="0.87939">
        <ele>110.7</ele>
        <time>2020-07-03T12:55:17Z</time>
      </trkpt>
      <trkpt lat="47.14783" lon="0.87935">
        <ele>110.7</ele>
        <time>2020-07-03T12:55:18Z</time>
      </trkpt>
      <trkpt lat="47.14778" lon="0.8793">
        <ele>110.7</ele>
        <time>2020-07-03T12:55:19Z</time>
      </trkpt>
      <trkpt lat="47.14772" lon="0.87926">
        <ele>110.7</ele>
        <time>2020-07-03T12:55:20Z</time>
      </trkpt>
      <trkpt lat="47.14767" lon="0.87922">
        <ele>110.7</ele>
        <time>2020-07-03T12:55:21Z</time>
      </trkpt>
      <trkpt lat="47.14761" lon="0.87917">
        <ele>110.8</ele>
        <time>2020-07-03T12:55:22Z</time>
      </trkpt>
      <trkpt lat="47.14755" lon="0.87912">
        <ele>110.9</ele>
        <time>2020-07-03T12:55:23Z</time>
      </trkpt>
      <trkpt lat="47.1475" lon="0.87907">
        <ele>111</ele>
        <time>2020-07-03T12:55:24Z</time>
      </trkpt>
      <trkpt lat="47.14745" lon="0.87902">
        <ele>110.9</ele>
        <time>2020-07-03T12:55:25Z</time>
      </trkpt>
      <trkpt lat="47.14739" lon="0.87897">
        <ele>110.7</ele>
        <time>2020-07-03T12:55:26Z</time>
      </trkpt>
      <trkpt lat="47.14734" lon="0.87893">
        <ele>110.7</ele>
        <time>2020-07-03T12:55:27Z</time>
      </trkpt>
      <trkpt lat="47.14728" lon="0.87889">
        <ele>110.6</ele>
        <time>2020-07-03T12:55:28Z</time>
      </trkpt>
      <trkpt lat="47.14722" lon="0.87885">
        <ele>110.6</ele>
        <time>2020-07-03T12:55:29Z</time>
      </trkpt>
      <trkpt lat="47.14717" lon="0.87881">
        <ele>110.5</ele>
        <time>2020-07-03T12:55:30Z</time>
      </trkpt>
      <trkpt lat="47.14712" lon="0.87877">
        <ele>110.6</ele>
        <time>2020-07-03T12:55:31Z</time>
      </trkpt>
      <trkpt lat="47.14707" lon="0.87872">
        <ele>110.6</ele>
        <time>2020-07-03T12:55:32Z</time>
      </trkpt>
      <trkpt lat="47.14701" lon="0.87868">
        <ele>110.6</ele>
        <time>2020-07-03T12:55:33Z</time>
      </trkpt>
      <trkpt lat="47.14696" lon="0.87863">
        <ele>110.6</ele>
        <time>2020-07-03T12:55:34Z</time>
      </trkpt>
      <trkpt lat="47.14691" lon="0.8786">
        <ele>110.6</ele>
        <time>2020-07-03T12:55:35Z</time>
      </trkpt>
      <trkpt lat="47.14686" lon="0.87855">
        <ele>110.5</ele>
        <time>2020-07-03T12:55:36Z</time>
      </trkpt>
      <trkpt lat="47.14681" lon="0.87851">
        <ele>110.6</ele>
        <time>2020-07-03T12:55:37Z</time>
      </trkpt>
      <trkpt lat="47.14676" lon="0.87847">
        <ele>110.6</ele>
        <time>2020-07-03T12:55:38Z</time>
      </trkpt>
      <trkpt lat="47.14672" lon="0.87843">
        <ele>110.6</ele>
        <time>2020-07-03T12:55:39Z</time>
      </trkpt>
      <trkpt lat="47.14666" lon="0.87839">
        <ele>110.7</ele>
        <time>2020-07-03T12:55:40Z</time>
      </trkpt>
      <trkpt lat="47.14661" lon="0.87835">
        <ele>110.7</ele>
        <time>2020-07-03T12:55:41Z</time>
      </trkpt>
      <trkpt lat="47.14656" lon="0.87831">
        <ele>110.8</ele>
        <time>2020-07-03T12:55:42Z</time>
      </trkpt>
      <trkpt lat="47.14652" lon="0.87827">
        <ele>110.8</ele>
        <time>2020-07-03T12:55:43Z</time>
      </trkpt>
      <trkpt lat="47.14648" lon="0.87824">
        <ele>110.8</ele>
        <time>2020-07-03T12:55:44Z</time>
      </trkpt>
      <trkpt lat="47.14643" lon="0.8782">
        <ele>110.9</ele>
        <time>2020-07-03T12:55:45Z</time>
      </trkpt>
      <trkpt lat="47.14639" lon="0.87816">
        <ele>110.9</ele>
        <time>2020-07-03T12:55:46Z</time>
      </trkpt>
      <trkpt lat="47.14634" lon="0.87812">
        <ele>110.9</ele>
        <time>2020-07-03T12:55:47Z</time>
      </trkpt>
      <trkpt lat="47.1463" lon="0.87808">
        <ele>111</ele>
        <time>2020-07-03T12:55:48Z</time>
      </trkpt>
      <trkpt lat="47.14626" lon="0.87805">
        <ele>111</ele>
        <time>2020-07-03T12:55:49Z</time>
      </trkpt>
      <trkpt lat="47.14621" lon="0.87801">
        <ele>111</ele>
        <time>2020-07-03T12:55:50Z</time>
      </trkpt>
      <trkpt lat="47.14615" lon="0.87796">
        <ele>111.1</ele>
        <time>2020-07-03T12:55:51Z</time>
      </trkpt>
      <trkpt lat="47.1461" lon="0.87793">
        <ele>111.1</ele>
        <time>2020-07-03T12:55:52Z</time>
      </trkpt>
      <trkpt lat="47.14606" lon="0.8779">
        <ele>111.1</ele>
        <time>2020-07-03T12:55:53Z</time>
      </trkpt>
      <trkpt lat="47.14601" lon="0.87787">
        <ele>111.1</ele>
        <time>2020-07-03T12:55:54Z</time>
      </trkpt>
      <trkpt lat="47.14597" lon="0.87783">
        <ele>111.1</ele>
        <time>2020-07-03T12:55:55Z</time>
      </trkpt>
      <trkpt lat="47.14592" lon="0.8778">
        <ele>111.1</ele>
        <time>2020-07-03T12:55:56Z</time>
      </trkpt>
      <trkpt lat="47.14588" lon="0.87775">
        <ele>111.1</ele>
        <time>2020-07-03T12:55:57Z</time>
      </trkpt>
      <trkpt lat="47.14582" lon="0.87771">
        <ele>111.1</ele>
        <time>2020-07-03T12:55:58Z</time>
      </trkpt>
      <trkpt lat="47.14578" lon="0.87766">
        <ele>111</ele>
        <time>2020-07-03T12:55:59Z</time>
      </trkpt>
      <trkpt lat="47.14573" lon="0.87763">
        <ele>110.9</ele>
        <time>2020-07-03T12:56:00Z</time>
      </trkpt>
      <trkpt lat="47.14568" lon="0.87759">
        <ele>110.8</ele>
        <time>2020-07-03T12:56:01Z</time>
      </trkpt>
      <trkpt lat="47.14563" lon="0.87754">
        <ele>110.7</ele>
        <time>2020-07-03T12:56:02Z</time>
      </trkpt>
      <trkpt lat="47.14558" lon="0.8775">
        <ele>110.6</ele>
        <time>2020-07-03T12:56:03Z</time>
      </trkpt>
      <trkpt lat="47.14553" lon="0.87745">
        <ele>110.5</ele>
        <time>2020-07-03T12:56:04Z</time>
      </trkpt>
      <trkpt lat="47.14548" lon="0.87741">
        <ele>110.4</ele>
        <time>2020-07-03T12:56:05Z</time>
      </trkpt>
      <trkpt lat="47.14544" lon="0.87737">
        <ele>110.3</ele>
        <time>2020-07-03T12:56:06Z</time>
      </trkpt>
      <trkpt lat="47.14539" lon="0.87733">
        <ele>110.2</ele>
        <time>2020-07-03T12:56:07Z</time>
      </trkpt>
      <trkpt lat="47.14535" lon="0.87729">
        <ele>110.1</ele>
        <time>2020-07-03T12:56:08Z</time>
      </trkpt>
      <trkpt lat="47.1453" lon="0.87725">
        <ele>110</ele>
        <time>2020-07-03T12:56:09Z</time>
      </trkpt>
      <trkpt lat="47.14524" lon="0.87721">
        <ele>109.9</ele>
        <time>2020-07-03T12:56:10Z</time>
      </trkpt>
      <trkpt lat="47.14519" lon="0.87717">
        <ele>109.8</ele>
        <time>2020-07-03T12:56:11Z</time>
      </trkpt>
      <trkpt lat="47.14512" lon="0.87713">
        <ele>109.7</ele>
        <time>2020-07-03T12:56:12Z</time>
      </trkpt>
      <trkpt lat="47.14506" lon="0.87708">
        <ele>109.7</ele>
        <time>2020-07-03T12:56:13Z</time>
      </trkpt>
      <trkpt lat="47.14501" lon="0.87703">
        <ele>109.6</ele>
        <time>2020-07-03T12:56:14Z</time>
      </trkpt>
      <trkpt lat="47.14495" lon="0.87698">
        <ele>109.5</ele>
        <time>2020-07-03T12:56:15Z</time>
      </trkpt>
      <trkpt lat="47.14488" lon="0.87693">
        <ele>109.5</ele>
        <time>2020-07-03T12:56:16Z</time>
      </trkpt>
      <trkpt lat="47.14482" lon="0.87688">
        <ele>109.4</ele>
        <time>2020-07-03T12:56:17Z</time>
      </trkpt>
      <trkpt lat="47.14475" lon="0.87682">
        <ele>109.4</ele>
        <time>2020-07-03T12:56:18Z</time>
      </trkpt>
      <trkpt lat="47.14469" lon="0.87676">
        <ele>109.4</ele>
        <time>2020-07-03T12:56:19Z</time>
      </trkpt>
      <trkpt lat="47.14463" lon="0.8767">
        <ele>109.3</ele>
        <time>2020-07-03T12:56:20Z</time>
      </trkpt>
      <trkpt lat="47.14457" lon="0.87666">
        <ele>109.4</ele>
        <time>2020-07-03T12:56:21Z</time>
      </trkpt>
      <trkpt lat="47.14451" lon="0.87661">
        <ele>109.4</ele>
        <time>2020-07-03T12:56:22Z</time>
      </trkpt>
      <trkpt lat="47.14446" lon="0.87657">
        <ele>109.5</ele>
        <time>2020-07-03T12:56:23Z</time>
      </trkpt>
      <trkpt lat="47.14441" lon="0.87651">
        <ele>109.6</ele>
        <time>2020-07-03T12:56:24Z</time>
      </trkpt>
      <trkpt lat="47.14436" lon="0.87647">
        <ele>109.8</ele>
        <time>2020-07-03T12:56:25Z</time>
      </trkpt>
      <trkpt lat="47.14431" lon="0.87643">
        <ele>109.9</ele>
        <time>2020-07-03T12:56:26Z</time>
      </trkpt>
      <trkpt lat="47.14426" lon="0.87639">
        <ele>110</ele>
        <time>2020-07-03T12:56:27Z</time>
      </trkpt>
      <trkpt lat="47.14421" lon="0.87637">
        <ele>110.2</ele>
        <time>2020-07-03T12:56:28Z</time>
      </trkpt>
      <trkpt lat="47.14417" lon="0.87634">
        <ele>110.3</ele>
        <time>2020-07-03T12:56:29Z</time>
      </trkpt>
      <trkpt lat="47.14413" lon="0.8763">
        <ele>110.5</ele>
        <time>2020-07-03T12:56:30Z</time>
      </trkpt>
      <trkpt lat="47.14409" lon="0.87627">
        <ele>110.6</ele>
        <time>2020-07-03T12:56:31Z</time>
      </trkpt>
      <trkpt lat="47.14404" lon="0.87623">
        <ele>110.8</ele>
        <time>2020-07-03T12:56:32Z</time>
      </trkpt>
      <trkpt lat="47.14401" lon="0.8762">
        <ele>110.9</ele>
        <time>2020-07-03T12:56:33Z</time>
      </trkpt>
      <trkpt lat="47.14397" lon="0.87618">
        <ele>111</ele>
        <time>2020-07-03T12:56:34Z</time>
      </trkpt>
      <trkpt lat="47.14394" lon="0.87615">
        <ele>111.1</ele>
        <time>2020-07-03T12:56:35Z</time>
      </trkpt>
      <trkpt lat="47.1439" lon="0.87613">
        <ele>111.3</ele>
        <time>2020-07-03T12:56:36Z</time>
      </trkpt>
      <trkpt lat="47.14385" lon="0.8761">
        <ele>111.2</ele>
        <time>2020-07-03T12:56:37Z</time>
      </trkpt>
      <trkpt lat="47.14381" lon="0.87607">
        <ele>111.2</ele>
        <time>2020-07-03T12:56:38Z</time>
      </trkpt>
      <trkpt lat="47.14377" lon="0.87604">
        <ele>111.2</ele>
        <time>2020-07-03T12:56:39Z</time>
      </trkpt>
      <trkpt lat="47.14372" lon="0.876">
        <ele>111.2</ele>
        <time>2020-07-03T12:56:40Z</time>
      </trkpt>
      <trkpt lat="47.14367" lon="0.87598">
        <ele>111.3</ele>
        <time>2020-07-03T12:56:41Z</time>
      </trkpt>
      <trkpt lat="47.14363" lon="0.87595">
        <ele>111.3</ele>
        <time>2020-07-03T12:56:42Z</time>
      </trkpt>
      <trkpt lat="47.1436" lon="0.87593">
        <ele>111.4</ele>
        <time>2020-07-03T12:56:43Z</time>
      </trkpt>
      <trkpt lat="47.14356" lon="0.8759">
        <ele>111.4</ele>
        <time>2020-07-03T12:56:44Z</time>
      </trkpt>
      <trkpt lat="47.14351" lon="0.87586">
        <ele>111.5</ele>
        <time>2020-07-03T12:56:45Z</time>
      </trkpt>
      <trkpt lat="47.14345" lon="0.87583">
        <ele>111.6</ele>
        <time>2020-07-03T12:56:46Z</time>
      </trkpt>
      <trkpt lat="47.1434" lon="0.8758">
        <ele>111.6</ele>
        <time>2020-07-03T12:56:47Z</time>
      </trkpt>
      <trkpt lat="47.14334" lon="0.87578">
        <ele>111.7</ele>
        <time>2020-07-03T12:56:48Z</time>
      </trkpt>
      <trkpt lat="47.14329" lon="0.87575">
        <ele>111.8</ele>
        <time>2020-07-03T12:56:49Z</time>
      </trkpt>
      <trkpt lat="47.14324" lon="0.87571">
        <ele>111.9</ele>
        <time>2020-07-03T12:56:50Z</time>
      </trkpt>
      <trkpt lat="47.14319" lon="0.87568">
        <ele>111.9</ele>
        <time>2020-07-03T12:56:51Z</time>
      </trkpt>
      <trkpt lat="47.14313" lon="0.87564">
        <ele>112</ele>
        <time>2020-07-03T12:56:52Z</time>
      </trkpt>
      <trkpt lat="47.14306" lon="0.87561">
        <ele>112.1</ele>
        <time>2020-07-03T12:56:53Z</time>
      </trkpt>
      <trkpt lat="47.143" lon="0.87558">
        <ele>112.2</ele>
        <time>2020-07-03T12:56:54Z</time>
      </trkpt>
      <trkpt lat="47.14296" lon="0.87555">
        <ele>112.2</ele>
        <time>2020-07-03T12:56:55Z</time>
      </trkpt>
      <trkpt lat="47.1429" lon="0.87552">
        <ele>112.3</ele>
        <time>2020-07-03T12:56:56Z</time>
      </trkpt>
      <trkpt lat="47.14283" lon="0.87549">
        <ele>112.4</ele>
        <time>2020-07-03T12:56:57Z</time>
      </trkpt>
      <trkpt lat="47.14278" lon="0.87547">
        <ele>112.4</ele>
        <time>2020-07-03T12:56:58Z</time>
      </trkpt>
      <trkpt lat="47.14273" lon="0.87544">
        <ele>112.5</ele>
        <time>2020-07-03T12:56:59Z</time>
      </trkpt>
      <trkpt lat="47.14269" lon="0.87541">
        <ele>112.6</ele>
        <time>2020-07-03T12:57:00Z</time>
      </trkpt>
      <trkpt lat="47.14265" lon="0.8754">
        <ele>112.6</ele>
        <time>2020-07-03T12:57:01Z</time>
      </trkpt>
      <trkpt lat="47.1426" lon="0.87536">
        <ele>112.6</ele>
        <time>2020-07-03T12:57:02Z</time>
      </trkpt>
      <trkpt lat="47.14255" lon="0.87533">
        <ele>112.7</ele>
        <time>2020-07-03T12:57:03Z</time>
      </trkpt>
      <trkpt lat="47.1425" lon="0.87529">
        <ele>112.7</ele>
        <time>2020-07-03T12:57:04Z</time>
      </trkpt>
      <trkpt lat="47.14245" lon="0.87525">
        <ele>112.7</ele>
        <time>2020-07-03T12:57:05Z</time>
      </trkpt>
      <trkpt lat="47.1424" lon="0.87521">
        <ele>112.7</ele>
        <time>2020-07-03T12:57:06Z</time>
      </trkpt>
      <trkpt lat="47.14234" lon="0.87518">
        <ele>112.7</ele>
        <time>2020-07-03T12:57:07Z</time>
      </trkpt>
      <trkpt lat="47.14226" lon="0.87516">
        <ele>112.7</ele>
        <time>2020-07-03T12:57:08Z</time>
      </trkpt>
      <trkpt lat="47.1422" lon="0.87514">
        <ele>112.6</ele>
        <time>2020-07-03T12:57:09Z</time>
      </trkpt>
      <trkpt lat="47.14214" lon="0.87512">
        <ele>112.6</ele>
        <time>2020-07-03T12:57:10Z</time>
      </trkpt>
      <trkpt lat="47.14209" lon="0.8751">
        <ele>112.6</ele>
        <time>2020-07-03T12:57:11Z</time>
      </trkpt>
      <trkpt lat="47.14204" lon="0.87507">
        <ele>112.7</ele>
        <time>2020-07-03T12:57:12Z</time>
      </trkpt>
      <trkpt lat="47.14199" lon="0.87505">
        <ele>112.7</ele>
        <time>2020-07-03T12:57:13Z</time>
      </trkpt>
      <trkpt lat="47.14195" lon="0.87503">
        <ele>112.7</ele>
        <time>2020-07-03T12:57:14Z</time>
      </trkpt>
      <trkpt lat="47.14189" lon="0.875">
        <ele>112.7</ele>
        <time>2020-07-03T12:57:15Z</time>
      </trkpt>
      <trkpt lat="47.14182" lon="0.87498">
        <ele>112.7</ele>
        <time>2020-07-03T12:57:16Z</time>
      </trkpt>
      <trkpt lat="47.14178" lon="0.87497">
        <ele>112.7</ele>
        <time>2020-07-03T12:57:17Z</time>
      </trkpt>
      <trkpt lat="47.14172" lon="0.87495">
        <ele>112.7</ele>
        <time>2020-07-03T12:57:18Z</time>
      </trkpt>
      <trkpt lat="47.14167" lon="0.87493">
        <ele>112.7</ele>
        <time>2020-07-03T12:57:19Z</time>
      </trkpt>
      <trkpt lat="47.1416" lon="0.8749">
        <ele>112.6</ele>
        <time>2020-07-03T12:57:20Z</time>
      </trkpt>
      <trkpt lat="47.14153" lon="0.87487">
        <ele>112.6</ele>
        <time>2020-07-03T12:57:21Z</time>
      </trkpt>
      <trkpt lat="47.14148" lon="0.87484">
        <ele>112.5</ele>
        <time>2020-07-03T12:57:22Z</time>
      </trkpt>
      <trkpt lat="47.14143" lon="0.87481">
        <ele>112.5</ele>
        <time>2020-07-03T12:57:23Z</time>
      </trkpt>
      <trkpt lat="47.14137" lon="0.87479">
        <ele>112.5</ele>
        <time>2020-07-03T12:57:24Z</time>
      </trkpt>
      <trkpt lat="47.14133" lon="0.87476">
        <ele>112.5</ele>
        <time>2020-07-03T12:57:25Z</time>
      </trkpt>
      <trkpt lat="47.14129" lon="0.87473">
        <ele>112.5</ele>
        <time>2020-07-03T12:57:26Z</time>
      </trkpt>
      <trkpt lat="47.14123" lon="0.8747">
        <ele>112.5</ele>
        <time>2020-07-03T12:57:27Z</time>
      </trkpt>
      <trkpt lat="47.14117" lon="0.87467">
        <ele>112.5</ele>
        <time>2020-07-03T12:57:28Z</time>
      </trkpt>
      <trkpt lat="47.14111" lon="0.87464">
        <ele>112.5</ele>
        <time>2020-07-03T12:57:29Z</time>
      </trkpt>
      <trkpt lat="47.14105" lon="0.87461">
        <ele>112.5</ele>
        <time>2020-07-03T12:57:30Z</time>
      </trkpt>
      <trkpt lat="47.14099" lon="0.87456">
        <ele>112.4</ele>
        <time>2020-07-03T12:57:31Z</time>
      </trkpt>
      <trkpt lat="47.14094" lon="0.87453">
        <ele>112.4</ele>
        <time>2020-07-03T12:57:32Z</time>
      </trkpt>
      <trkpt lat="47.14089" lon="0.87451">
        <ele>112.3</ele>
        <time>2020-07-03T12:57:33Z</time>
      </trkpt>
      <trkpt lat="47.14083" lon="0.87448">
        <ele>112.2</ele>
        <time>2020-07-03T12:57:34Z</time>
      </trkpt>
      <trkpt lat="47.14078" lon="0.87445">
        <ele>112.1</ele>
        <time>2020-07-03T12:57:35Z</time>
      </trkpt>
      <trkpt lat="47.14072" lon="0.87441">
        <ele>112</ele>
        <time>2020-07-03T12:57:36Z</time>
      </trkpt>
      <trkpt lat="47.14064" lon="0.87437">
        <ele>111.9</ele>
        <time>2020-07-03T12:57:37Z</time>
      </trkpt>
      <trkpt lat="47.14059" lon="0.87434">
        <ele>111.9</ele>
        <time>2020-07-03T12:57:38Z</time>
      </trkpt>
      <trkpt lat="47.14052" lon="0.87431">
        <ele>111.8</ele>
        <time>2020-07-03T12:57:39Z</time>
      </trkpt>
      <trkpt lat="47.14045" lon="0.87427">
        <ele>111.7</ele>
        <time>2020-07-03T12:57:40Z</time>
      </trkpt>
      <trkpt lat="47.14038" lon="0.87425">
        <ele>111.5</ele>
        <time>2020-07-03T12:57:41Z</time>
      </trkpt>
      <trkpt lat="47.14033" lon="0.87421">
        <ele>111.4</ele>
        <time>2020-07-03T12:57:42Z</time>
      </trkpt>
      <trkpt lat="47.14027" lon="0.87418">
        <ele>111.3</ele>
        <time>2020-07-03T12:57:43Z</time>
      </trkpt>
      <trkpt lat="47.14021" lon="0.87415">
        <ele>111.3</ele>
        <time>2020-07-03T12:57:44Z</time>
      </trkpt>
      <trkpt lat="47.14015" lon="0.87412">
        <ele>111.3</ele>
        <time>2020-07-03T12:57:45Z</time>
      </trkpt>
      <trkpt lat="47.14008" lon="0.87408">
        <ele>111.3</ele>
        <time>2020-07-03T12:57:46Z</time>
      </trkpt>
      <trkpt lat="47.14001" lon="0.87406">
        <ele>111.4</ele>
        <time>2020-07-03T12:57:47Z</time>
      </trkpt>
      <trkpt lat="47.13997" lon="0.87403">
        <ele>111.4</ele>
        <time>2020-07-03T12:57:48Z</time>
      </trkpt>
      <trkpt lat="47.13991" lon="0.874">
        <ele>111.5</ele>
        <time>2020-07-03T12:57:49Z</time>
      </trkpt>
      <trkpt lat="47.13987" lon="0.87398">
        <ele>111.6</ele>
        <time>2020-07-03T12:57:50Z</time>
      </trkpt>
      <trkpt lat="47.13983" lon="0.87395">
        <ele>111.7</ele>
        <time>2020-07-03T12:57:51Z</time>
      </trkpt>
      <trkpt lat="47.13977" lon="0.87393">
        <ele>111.7</ele>
        <time>2020-07-03T12:57:52Z</time>
      </trkpt>
      <trkpt lat="47.13971" lon="0.8739">
        <ele>111.8</ele>
        <time>2020-07-03T12:57:53Z</time>
      </trkpt>
      <trkpt lat="47.13965" lon="0.87388">
        <ele>111.9</ele>
        <time>2020-07-03T12:57:54Z</time>
      </trkpt>
      <trkpt lat="47.13959" lon="0.87386">
        <ele>111.9</ele>
        <time>2020-07-03T12:57:55Z</time>
      </trkpt>
      <trkpt lat="47.13952" lon="0.87383">
        <ele>111.9</ele>
        <time>2020-07-03T12:57:56Z</time>
      </trkpt>
      <trkpt lat="47.13946" lon="0.8738">
        <ele>111.9</ele>
        <time>2020-07-03T12:57:57Z</time>
      </trkpt>
      <trkpt lat="47.13939" lon="0.87377">
        <ele>111.8</ele>
        <time>2020-07-03T12:57:58Z</time>
      </trkpt>
      <trkpt lat="47.13934" lon="0.87375">
        <ele>111.8</ele>
        <time>2020-07-03T12:57:59Z</time>
      </trkpt>
      <trkpt lat="47.13929" lon="0.87373">
        <ele>111.8</ele>
        <time>2020-07-03T12:58:00Z</time>
      </trkpt>
      <trkpt lat="47.13923" lon="0.87371">
        <ele>111.8</ele>
        <time>2020-07-03T12:58:01Z</time>
      </trkpt>
      <trkpt lat="47.13918" lon="0.87369">
        <ele>111.7</ele>
        <time>2020-07-03T12:58:02Z</time>
      </trkpt>
      <trkpt lat="47.13912" lon="0.87365">
        <ele>111.7</ele>
        <time>2020-07-03T12:58:03Z</time>
      </trkpt>
      <trkpt lat="47.13906" lon="0.87361">
        <ele>111.7</ele>
        <time>2020-07-03T12:58:04Z</time>
      </trkpt>
      <trkpt lat="47.139" lon="0.87357">
        <ele>111.8</ele>
        <time>2020-07-03T12:58:05Z</time>
      </trkpt>
      <trkpt lat="47.13895" lon="0.87354">
        <ele>111.9</ele>
        <time>2020-07-03T12:58:06Z</time>
      </trkpt>
      <trkpt lat="47.13889" lon="0.87352">
        <ele>112</ele>
        <time>2020-07-03T12:58:07Z</time>
      </trkpt>
      <trkpt lat="47.13884" lon="0.87349">
        <ele>112.1</ele>
        <time>2020-07-03T12:58:08Z</time>
      </trkpt>
      <trkpt lat="47.13879" lon="0.87346">
        <ele>112.1</ele>
        <time>2020-07-03T12:58:09Z</time>
      </trkpt>
      <trkpt lat="47.13874" lon="0.87343">
        <ele>112.1</ele>
        <time>2020-07-03T12:58:10Z</time>
      </trkpt>
      <trkpt lat="47.13868" lon="0.87341">
        <ele>112.1</ele>
        <time>2020-07-03T12:58:11Z</time>
      </trkpt>
      <trkpt lat="47.13863" lon="0.87338">
        <ele>112.1</ele>
        <time>2020-07-03T12:58:12Z</time>
      </trkpt>
      <trkpt lat="47.13858" lon="0.87335">
        <ele>112.2</ele>
        <time>2020-07-03T12:58:13Z</time>
      </trkpt>
      <trkpt lat="47.13853" lon="0.87332">
        <ele>112.2</ele>
        <time>2020-07-03T12:58:14Z</time>
      </trkpt>
      <trkpt lat="47.13847" lon="0.8733">
        <ele>112.3</ele>
        <time>2020-07-03T12:58:15Z</time>
      </trkpt>
      <trkpt lat="47.13843" lon="0.87327">
        <ele>112.3</ele>
        <time>2020-07-03T12:58:16Z</time>
      </trkpt>
      <trkpt lat="47.13839" lon="0.87325">
        <ele>112.4</ele>
        <time>2020-07-03T12:58:17Z</time>
      </trkpt>
      <trkpt lat="47.13834" lon="0.87323">
        <ele>112.4</ele>
        <time>2020-07-03T12:58:18Z</time>
      </trkpt>
      <trkpt lat="47.13829" lon="0.87321">
        <ele>112.5</ele>
        <time>2020-07-03T12:58:19Z</time>
      </trkpt>
      <trkpt lat="47.13824" lon="0.87318">
        <ele>112.5</ele>
        <time>2020-07-03T12:58:20Z</time>
      </trkpt>
      <trkpt lat="47.13818" lon="0.87315">
        <ele>112.6</ele>
        <time>2020-07-03T12:58:21Z</time>
      </trkpt>
      <trkpt lat="47.13813" lon="0.87312">
        <ele>112.7</ele>
        <time>2020-07-03T12:58:22Z</time>
      </trkpt>
      <trkpt lat="47.13808" lon="0.87309">
        <ele>112.7</ele>
        <time>2020-07-03T12:58:23Z</time>
      </trkpt>
      <trkpt lat="47.13803" lon="0.87305">
        <ele>112.8</ele>
        <time>2020-07-03T12:58:24Z</time>
      </trkpt>
      <trkpt lat="47.13797" lon="0.87302">
        <ele>112.7</ele>
        <time>2020-07-03T12:58:25Z</time>
      </trkpt>
      <trkpt lat="47.13792" lon="0.873">
        <ele>112.6</ele>
        <time>2020-07-03T12:58:26Z</time>
      </trkpt>
      <trkpt lat="47.13787" lon="0.87298">
        <ele>112.6</ele>
        <time>2020-07-03T12:58:27Z</time>
      </trkpt>
      <trkpt lat="47.13783" lon="0.87295">
        <ele>112.6</ele>
        <time>2020-07-03T12:58:28Z</time>
      </trkpt>
      <trkpt lat="47.13778" lon="0.87292">
        <ele>112.5</ele>
        <time>2020-07-03T12:58:29Z</time>
      </trkpt>
      <trkpt lat="47.13774" lon="0.8729">
        <ele>112.5</ele>
        <time>2020-07-03T12:58:30Z</time>
      </trkpt>
      <trkpt lat="47.13768" lon="0.87287">
        <ele>112.5</ele>
        <time>2020-07-03T12:58:31Z</time>
      </trkpt>
      <trkpt lat="47.13762" lon="0.87283">
        <ele>112.5</ele>
        <time>2020-07-03T12:58:32Z</time>
      </trkpt>
      <trkpt lat="47.13757" lon="0.8728">
        <ele>112.5</ele>
        <time>2020-07-03T12:58:33Z</time>
      </trkpt>
      <trkpt lat="47.13752" lon="0.87276">
        <ele>112.5</ele>
        <time>2020-07-03T12:58:34Z</time>
      </trkpt>
      <trkpt lat="47.13747" lon="0.87273">
        <ele>112.6</ele>
        <time>2020-07-03T12:58:35Z</time>
      </trkpt>
      <trkpt lat="47.13741" lon="0.87271">
        <ele>112.6</ele>
        <time>2020-07-03T12:58:36Z</time>
      </trkpt>
      <trkpt lat="47.13736" lon="0.87268">
        <ele>112.6</ele>
        <time>2020-07-03T12:58:37Z</time>
      </trkpt>
      <trkpt lat="47.13731" lon="0.87265">
        <ele>112.7</ele>
        <time>2020-07-03T12:58:38Z</time>
      </trkpt>
      <trkpt lat="47.13725" lon="0.87263">
        <ele>112.7</ele>
        <time>2020-07-03T12:58:39Z</time>
      </trkpt>
      <trkpt lat="47.1372" lon="0.8726">
        <ele>112.7</ele>
        <time>2020-07-03T12:58:40Z</time>
      </trkpt>
      <trkpt lat="47.13714" lon="0.87257">
        <ele>112.8</ele>
        <time>2020-07-03T12:58:41Z</time>
      </trkpt>
      <trkpt lat="47.13708" lon="0.87254">
        <ele>112.8</ele>
        <time>2020-07-03T12:58:42Z</time>
      </trkpt>
      <trkpt lat="47.13703" lon="0.87251">
        <ele>112.8</ele>
        <time>2020-07-03T12:58:43Z</time>
      </trkpt>
      <trkpt lat="47.13698" lon="0.87248">
        <ele>112.9</ele>
        <time>2020-07-03T12:58:44Z</time>
      </trkpt>
      <trkpt lat="47.13692" lon="0.87244">
        <ele>112.9</ele>
        <time>2020-07-03T12:58:45Z</time>
      </trkpt>
      <trkpt lat="47.13686" lon="0.87241">
        <ele>113</ele>
        <time>2020-07-03T12:58:46Z</time>
      </trkpt>
      <trkpt lat="47.1368" lon="0.87239">
        <ele>113</ele>
        <time>2020-07-03T12:58:47Z</time>
      </trkpt>
      <trkpt lat="47.13674" lon="0.87236">
        <ele>113</ele>
        <time>2020-07-03T12:58:48Z</time>
      </trkpt>
      <trkpt lat="47.13669" lon="0.87234">
        <ele>112.9</ele>
        <time>2020-07-03T12:58:49Z</time>
      </trkpt>
      <trkpt lat="47.13663" lon="0.87231">
        <ele>112.9</ele>
        <time>2020-07-03T12:58:50Z</time>
      </trkpt>
      <trkpt lat="47.13657" lon="0.87228">
        <ele>112.9</ele>
        <time>2020-07-03T12:58:51Z</time>
      </trkpt>
      <trkpt lat="47.13652" lon="0.87225">
        <ele>112.9</ele>
        <time>2020-07-03T12:58:52Z</time>
      </trkpt>
      <trkpt lat="47.13646" lon="0.87222">
        <ele>112.9</ele>
        <time>2020-07-03T12:58:53Z</time>
      </trkpt>
      <trkpt lat="47.13639" lon="0.87219">
        <ele>113</ele>
        <time>2020-07-03T12:58:54Z</time>
      </trkpt>
      <trkpt lat="47.13634" lon="0.87217">
        <ele>113.1</ele>
        <time>2020-07-03T12:58:55Z</time>
      </trkpt>
      <trkpt lat="47.1363" lon="0.87214">
        <ele>113.2</ele>
        <time>2020-07-03T12:58:56Z</time>
      </trkpt>
      <trkpt lat="47.13624" lon="0.87212">
        <ele>113.3</ele>
        <time>2020-07-03T12:58:57Z</time>
      </trkpt>
      <trkpt lat="47.13618" lon="0.87209">
        <ele>113.2</ele>
        <time>2020-07-03T12:58:58Z</time>
      </trkpt>
      <trkpt lat="47.13612" lon="0.87208">
        <ele>113.1</ele>
        <time>2020-07-03T12:58:59Z</time>
      </trkpt>
      <trkpt lat="47.13607" lon="0.87205">
        <ele>113.1</ele>
        <time>2020-07-03T12:59:00Z</time>
      </trkpt>
      <trkpt lat="47.13601" lon="0.87201">
        <ele>113.1</ele>
        <time>2020-07-03T12:59:01Z</time>
      </trkpt>
      <trkpt lat="47.13595" lon="0.87198">
        <ele>113.1</ele>
        <time>2020-07-03T12:59:02Z</time>
      </trkpt>
      <trkpt lat="47.13589" lon="0.87195">
        <ele>113.1</ele>
        <time>2020-07-03T12:59:03Z</time>
      </trkpt>
      <trkpt lat="47.13583" lon="0.87192">
        <ele>113.2</ele>
        <time>2020-07-03T12:59:04Z</time>
      </trkpt>
      <trkpt lat="47.13577" lon="0.87189">
        <ele>113.2</ele>
        <time>2020-07-03T12:59:05Z</time>
      </trkpt>
      <trkpt lat="47.1357" lon="0.87185">
        <ele>113.3</ele>
        <time>2020-07-03T12:59:06Z</time>
      </trkpt>
      <trkpt lat="47.13565" lon="0.87183">
        <ele>113.3</ele>
        <time>2020-07-03T12:59:07Z</time>
      </trkpt>
      <trkpt lat="47.13559" lon="0.87178">
        <ele>113.3</ele>
        <time>2020-07-03T12:59:08Z</time>
      </trkpt>
      <trkpt lat="47.13553" lon="0.87175">
        <ele>113.3</ele>
        <time>2020-07-03T12:59:09Z</time>
      </trkpt>
      <trkpt lat="47.13548" lon="0.87173">
        <ele>113.4</ele>
        <time>2020-07-03T12:59:10Z</time>
      </trkpt>
      <trkpt lat="47.13544" lon="0.87171">
        <ele>113.4</ele>
        <time>2020-07-03T12:59:11Z</time>
      </trkpt>
      <trkpt lat="47.13539" lon="0.87169">
        <ele>113.4</ele>
        <time>2020-07-03T12:59:12Z</time>
      </trkpt>
      <trkpt lat="47.13534" lon="0.87165">
        <ele>113.4</ele>
        <time>2020-07-03T12:59:13Z</time>
      </trkpt>
      <trkpt lat="47.1353" lon="0.87163">
        <ele>113.5</ele>
        <time>2020-07-03T12:59:14Z</time>
      </trkpt>
      <trkpt lat="47.13525" lon="0.8716">
        <ele>113.5</ele>
        <time>2020-07-03T12:59:15Z</time>
      </trkpt>
      <trkpt lat="47.1352" lon="0.87157">
        <ele>113.5</ele>
        <time>2020-07-03T12:59:16Z</time>
      </trkpt>
      <trkpt lat="47.13515" lon="0.87154">
        <ele>113.6</ele>
        <time>2020-07-03T12:59:17Z</time>
      </trkpt>
      <trkpt lat="47.13508" lon="0.87151">
        <ele>113.6</ele>
        <time>2020-07-03T12:59:18Z</time>
      </trkpt>
      <trkpt lat="47.13503" lon="0.87148">
        <ele>113.6</ele>
        <time>2020-07-03T12:59:19Z</time>
      </trkpt>
      <trkpt lat="47.13498" lon="0.87146">
        <ele>113.6</ele>
        <time>2020-07-03T12:59:20Z</time>
      </trkpt>
      <trkpt lat="47.13493" lon="0.87142">
        <ele>113.5</ele>
        <time>2020-07-03T12:59:21Z</time>
      </trkpt>
      <trkpt lat="47.13487" lon="0.87139">
        <ele>113.5</ele>
        <time>2020-07-03T12:59:22Z</time>
      </trkpt>
      <trkpt lat="47.1348" lon="0.87136">
        <ele>113.5</ele>
        <time>2020-07-03T12:59:23Z</time>
      </trkpt>
      <trkpt lat="47.13475" lon="0.87133">
        <ele>113.5</ele>
        <time>2020-07-03T12:59:24Z</time>
      </trkpt>
      <trkpt lat="47.1347" lon="0.8713">
        <ele>113.5</ele>
        <time>2020-07-03T12:59:25Z</time>
      </trkpt>
      <trkpt lat="47.13463" lon="0.87127">
        <ele>113.6</ele>
        <time>2020-07-03T12:59:26Z</time>
      </trkpt>
      <trkpt lat="47.13458" lon="0.87125">
        <ele>113.6</ele>
        <time>2020-07-03T12:59:27Z</time>
      </trkpt>
      <trkpt lat="47.13453" lon="0.87122">
        <ele>113.6</ele>
        <time>2020-07-03T12:59:28Z</time>
      </trkpt>
      <trkpt lat="47.13448" lon="0.87121">
        <ele>113.6</ele>
        <time>2020-07-03T12:59:29Z</time>
      </trkpt>
      <trkpt lat="47.13441" lon="0.87116">
        <ele>113.7</ele>
        <time>2020-07-03T12:59:30Z</time>
      </trkpt>
      <trkpt lat="47.13435" lon="0.87113">
        <ele>113.7</ele>
        <time>2020-07-03T12:59:31Z</time>
      </trkpt>
      <trkpt lat="47.1343" lon="0.8711">
        <ele>113.8</ele>
        <time>2020-07-03T12:59:32Z</time>
      </trkpt>
      <trkpt lat="47.13426" lon="0.87107">
        <ele>113.8</ele>
        <time>2020-07-03T12:59:33Z</time>
      </trkpt>
      <trkpt lat="47.1342" lon="0.87104">
        <ele>113.9</ele>
        <time>2020-07-03T12:59:34Z</time>
      </trkpt>
      <trkpt lat="47.13415" lon="0.87102">
        <ele>113.9</ele>
        <time>2020-07-03T12:59:35Z</time>
      </trkpt>
      <trkpt lat="47.1341" lon="0.871">
        <ele>114</ele>
        <time>2020-07-03T12:59:36Z</time>
      </trkpt>
      <trkpt lat="47.13403" lon="0.87097">
        <ele>114</ele>
        <time>2020-07-03T12:59:37Z</time>
      </trkpt>
      <trkpt lat="47.13398" lon="0.87095">
        <ele>114.1</ele>
        <time>2020-07-03T12:59:38Z</time>
      </trkpt>
      <trkpt lat="47.13394" lon="0.87092">
        <ele>114.2</ele>
        <time>2020-07-03T12:59:39Z</time>
      </trkpt>
      <trkpt lat="47.13389" lon="0.8709">
        <ele>114.3</ele>
        <time>2020-07-03T12:59:40Z</time>
      </trkpt>
      <trkpt lat="47.13384" lon="0.87085">
        <ele>114.4</ele>
        <time>2020-07-03T12:59:41Z</time>
      </trkpt>
      <trkpt lat="47.13379" lon="0.87082">
        <ele>114.4</ele>
        <time>2020-07-03T12:59:42Z</time>
      </trkpt>
      <trkpt lat="47.13373" lon="0.87081">
        <ele>114.5</ele>
        <time>2020-07-03T12:59:43Z</time>
      </trkpt>
      <trkpt lat="47.13369" lon="0.8708">
        <ele>114.6</ele>
        <time>2020-07-03T12:59:44Z</time>
      </trkpt>
      <trkpt lat="47.13364" lon="0.87078">
        <ele>114.6</ele>
        <time>2020-07-03T12:59:45Z</time>
      </trkpt>
      <trkpt lat="47.1336" lon="0.87075">
        <ele>114.6</ele>
        <time>2020-07-03T12:59:46Z</time>
      </trkpt>
      <trkpt lat="47.13354" lon="0.87073">
        <ele>114.7</ele>
        <time>2020-07-03T12:59:47Z</time>
      </trkpt>
      <trkpt lat="47.13349" lon="0.8707">
        <ele>114.8</ele>
        <time>2020-07-03T12:59:48Z</time>
      </trkpt>
      <trkpt lat="47.13346" lon="0.87068">
        <ele>114.8</ele>
        <time>2020-07-03T12:59:49Z</time>
      </trkpt>
      <trkpt lat="47.13342" lon="0.87066">
        <ele>114.8</ele>
        <time>2020-07-03T12:59:50Z</time>
      </trkpt>
      <trkpt lat="47.13337" lon="0.87063">
        <ele>114.9</ele>
        <time>2020-07-03T12:59:51Z</time>
      </trkpt>
      <trkpt lat="47.13332" lon="0.8706">
        <ele>114.9</ele>
        <time>2020-07-03T12:59:52Z</time>
      </trkpt>
      <trkpt lat="47.13328" lon="0.87057">
        <ele>114.9</ele>
        <time>2020-07-03T12:59:53Z</time>
      </trkpt>
      <trkpt lat="47.13323" lon="0.87054">
        <ele>114.9</ele>
        <time>2020-07-03T12:59:54Z</time>
      </trkpt>
      <trkpt lat="47.13318" lon="0.87051">
        <ele>115</ele>
        <time>2020-07-03T12:59:55Z</time>
      </trkpt>
      <trkpt lat="47.13314" lon="0.8705">
        <ele>115</ele>
        <time>2020-07-03T12:59:56Z</time>
      </trkpt>
      <trkpt lat="47.13308" lon="0.87048">
        <ele>115</ele>
        <time>2020-07-03T12:59:57Z</time>
      </trkpt>
      <trkpt lat="47.13302" lon="0.87046">
        <ele>115.1</ele>
        <time>2020-07-03T12:59:58Z</time>
      </trkpt>
      <trkpt lat="47.13296" lon="0.87043">
        <ele>115.1</ele>
        <time>2020-07-03T12:59:59Z</time>
      </trkpt>
      <trkpt lat="47.1329" lon="0.87041">
        <ele>115.1</ele>
        <time>2020-07-03T13:00:00Z</time>
      </trkpt>
      <trkpt lat="47.13284" lon="0.87038">
        <ele>115.2</ele>
        <time>2020-07-03T13:00:01Z</time>
      </trkpt>
      <trkpt lat="47.13279" lon="0.87035">
        <ele>115.2</ele>
        <time>2020-07-03T13:00:02Z</time>
      </trkpt>
      <trkpt lat="47.13273" lon="0.87033">
        <ele>115.2</ele>
        <time>2020-07-03T13:00:03Z</time>
      </trkpt>
      <trkpt lat="47.13269" lon="0.87031">
        <ele>115.2</ele>
        <time>2020-07-03T13:00:04Z</time>
      </trkpt>
      <trkpt lat="47.13264" lon="0.87028">
        <ele>115.3</ele>
        <time>2020-07-03T13:00:05Z</time>
      </trkpt>
      <trkpt lat="47.13258" lon="0.87025">
        <ele>115.3</ele>
        <time>2020-07-03T13:00:06Z</time>
      </trkpt>
      <trkpt lat="47.13254" lon="0.87023">
        <ele>115.3</ele>
        <time>2020-07-03T13:00:07Z</time>
      </trkpt>
      <trkpt lat="47.13249" lon="0.87021">
        <ele>115.4</ele>
        <time>2020-07-03T13:00:08Z</time>
      </trkpt>
      <trkpt lat="47.13244" lon="0.87019">
        <ele>115.4</ele>
        <time>2020-07-03T13:00:09Z</time>
      </trkpt>
      <trkpt lat="47.13238" lon="0.87016">
        <ele>115.4</ele>
        <time>2020-07-03T13:00:10Z</time>
      </trkpt>
      <trkpt lat="47.13233" lon="0.87014">
        <ele>115.5</ele>
        <time>2020-07-03T13:00:11Z</time>
      </trkpt>
      <trkpt lat="47.13227" lon="0.87012">
        <ele>115.5</ele>
        <time>2020-07-03T13:00:12Z</time>
      </trkpt>
      <trkpt lat="47.13221" lon="0.8701">
        <ele>115.6</ele>
        <time>2020-07-03T13:00:13Z</time>
      </trkpt>
      <trkpt lat="47.13216" lon="0.87006">
        <ele>115.6</ele>
        <time>2020-07-03T13:00:14Z</time>
      </trkpt>
      <trkpt lat="47.13209" lon="0.87003">
        <ele>115.7</ele>
        <time>2020-07-03T13:00:15Z</time>
      </trkpt>
      <trkpt lat="47.13204" lon="0.87">
        <ele>115.8</ele>
        <time>2020-07-03T13:00:16Z</time>
      </trkpt>
      <trkpt lat="47.13199" lon="0.86997">
        <ele>115.8</ele>
        <time>2020-07-03T13:00:17Z</time>
      </trkpt>
      <trkpt lat="47.13194" lon="0.86994">
        <ele>115.9</ele>
        <time>2020-07-03T13:00:18Z</time>
      </trkpt>
      <trkpt lat="47.13189" lon="0.86991">
        <ele>116</ele>
        <time>2020-07-03T13:00:19Z</time>
      </trkpt>
      <trkpt lat="47.13184" lon="0.86989">
        <ele>116.1</ele>
        <time>2020-07-03T13:00:20Z</time>
      </trkpt>
      <trkpt lat="47.13179" lon="0.86986">
        <ele>116.1</ele>
        <time>2020-07-03T13:00:21Z</time>
      </trkpt>
      <trkpt lat="47.13174" lon="0.86983">
        <ele>116.1</ele>
        <time>2020-07-03T13:00:22Z</time>
      </trkpt>
      <trkpt lat="47.13169" lon="0.8698">
        <ele>116.1</ele>
        <time>2020-07-03T13:00:23Z</time>
      </trkpt>
      <trkpt lat="47.13164" lon="0.86978">
        <ele>116.2</ele>
        <time>2020-07-03T13:00:24Z</time>
      </trkpt>
      <trkpt lat="47.1316" lon="0.86976">
        <ele>116.2</ele>
        <time>2020-07-03T13:00:25Z</time>
      </trkpt>
      <trkpt lat="47.13156" lon="0.86974">
        <ele>116.2</ele>
        <time>2020-07-03T13:00:26Z</time>
      </trkpt>
      <trkpt lat="47.13152" lon="0.86971">
        <ele>116.3</ele>
        <time>2020-07-03T13:00:27Z</time>
      </trkpt>
      <trkpt lat="47.13147" lon="0.86969">
        <ele>116.3</ele>
        <time>2020-07-03T13:00:28Z</time>
      </trkpt>
      <trkpt lat="47.13142" lon="0.86966">
        <ele>116.3</ele>
        <time>2020-07-03T13:00:29Z</time>
      </trkpt>
      <trkpt lat="47.13136" lon="0.86962">
        <ele>116.3</ele>
        <time>2020-07-03T13:00:30Z</time>
      </trkpt>
      <trkpt lat="47.13131" lon="0.8696">
        <ele>116.4</ele>
        <time>2020-07-03T13:00:31Z</time>
      </trkpt>
      <trkpt lat="47.13126" lon="0.86958">
        <ele>116.4</ele>
        <time>2020-07-03T13:00:32Z</time>
      </trkpt>
      <trkpt lat="47.1312" lon="0.86955">
        <ele>116.5</ele>
        <time>2020-07-03T13:00:33Z</time>
      </trkpt>
      <trkpt lat="47.13115" lon="0.86952">
        <ele>116.6</ele>
        <time>2020-07-03T13:00:34Z</time>
      </trkpt>
      <trkpt lat="47.13109" lon="0.86949">
        <ele>116.6</ele>
        <time>2020-07-03T13:00:35Z</time>
      </trkpt>
      <trkpt lat="47.13105" lon="0.86946">
        <ele>116.7</ele>
        <time>2020-07-03T13:00:36Z</time>
      </trkpt>
      <trkpt lat="47.131" lon="0.86944">
        <ele>116.7</ele>
        <time>2020-07-03T13:00:37Z</time>
      </trkpt>
      <trkpt lat="47.13095" lon="0.86942">
        <ele>116.7</ele>
        <time>2020-07-03T13:00:38Z</time>
      </trkpt>
      <trkpt lat="47.13091" lon="0.8694">
        <ele>116.7</ele>
        <time>2020-07-03T13:00:39Z</time>
      </trkpt>
      <trkpt lat="47.13086" lon="0.86937">
        <ele>116.8</ele>
        <time>2020-07-03T13:00:40Z</time>
      </trkpt>
      <trkpt lat="47.13081" lon="0.86934">
        <ele>116.8</ele>
        <time>2020-07-03T13:00:41Z</time>
      </trkpt>
      <trkpt lat="47.13074" lon="0.86932">
        <ele>116.9</ele>
        <time>2020-07-03T13:00:42Z</time>
      </trkpt>
      <trkpt lat="47.13069" lon="0.86929">
        <ele>117</ele>
        <time>2020-07-03T13:00:43Z</time>
      </trkpt>
      <trkpt lat="47.13064" lon="0.86926">
        <ele>117</ele>
        <time>2020-07-03T13:00:44Z</time>
      </trkpt>
      <trkpt lat="47.13058" lon="0.86923">
        <ele>117</ele>
        <time>2020-07-03T13:00:45Z</time>
      </trkpt>
      <trkpt lat="47.13054" lon="0.86921">
        <ele>117</ele>
        <time>2020-07-03T13:00:46Z</time>
      </trkpt>
      <trkpt lat="47.13049" lon="0.86918">
        <ele>117.1</ele>
        <time>2020-07-03T13:00:47Z</time>
      </trkpt>
      <trkpt lat="47.13044" lon="0.86915">
        <ele>117.1</ele>
        <time>2020-07-03T13:00:48Z</time>
      </trkpt>
      <trkpt lat="47.13039" lon="0.86912">
        <ele>117.2</ele>
        <time>2020-07-03T13:00:49Z</time>
      </trkpt>
      <trkpt lat="47.13035" lon="0.86909">
        <ele>117.2</ele>
        <time>2020-07-03T13:00:50Z</time>
      </trkpt>
      <trkpt lat="47.1303" lon="0.86907">
        <ele>117.3</ele>
        <time>2020-07-03T13:00:51Z</time>
      </trkpt>
      <trkpt lat="47.13025" lon="0.86905">
        <ele>117.4</ele>
        <time>2020-07-03T13:00:52Z</time>
      </trkpt>
      <trkpt lat="47.1302" lon="0.86902">
        <ele>117.4</ele>
        <time>2020-07-03T13:00:53Z</time>
      </trkpt>
      <trkpt lat="47.13015" lon="0.869">
        <ele>117.5</ele>
        <time>2020-07-03T13:00:54Z</time>
      </trkpt>
      <trkpt lat="47.1301" lon="0.86898">
        <ele>117.6</ele>
        <time>2020-07-03T13:00:55Z</time>
      </trkpt>
      <trkpt lat="47.13006" lon="0.86895">
        <ele>117.6</ele>
        <time>2020-07-03T13:00:56Z</time>
      </trkpt>
      <trkpt lat="47.13001" lon="0.86893">
        <ele>117.7</ele>
        <time>2020-07-03T13:00:57Z</time>
      </trkpt>
      <trkpt lat="47.12997" lon="0.86891">
        <ele>117.8</ele>
        <time>2020-07-03T13:00:58Z</time>
      </trkpt>
      <trkpt lat="47.12993" lon="0.8689">
        <ele>117.8</ele>
        <time>2020-07-03T13:00:59Z</time>
      </trkpt>
      <trkpt lat="47.12987" lon="0.86887">
        <ele>117.9</ele>
        <time>2020-07-03T13:01:00Z</time>
      </trkpt>
      <trkpt lat="47.12982" lon="0.86886">
        <ele>117.9</ele>
        <time>2020-07-03T13:01:01Z</time>
      </trkpt>
      <trkpt lat="47.12978" lon="0.86884">
        <ele>118</ele>
        <time>2020-07-03T13:01:02Z</time>
      </trkpt>
      <trkpt lat="47.12974" lon="0.8688">
        <ele>118.1</ele>
        <time>2020-07-03T13:01:03Z</time>
      </trkpt>
      <trkpt lat="47.12969" lon="0.86877">
        <ele>118.2</ele>
        <time>2020-07-03T13:01:04Z</time>
      </trkpt>
      <trkpt lat="47.12964" lon="0.86873">
        <ele>118.4</ele>
        <time>2020-07-03T13:01:05Z</time>
      </trkpt>
      <trkpt lat="47.12958" lon="0.8687">
        <ele>118.5</ele>
        <time>2020-07-03T13:01:06Z</time>
      </trkpt>
      <trkpt lat="47.12953" lon="0.86867">
        <ele>118.5</ele>
        <time>2020-07-03T13:01:07Z</time>
      </trkpt>
      <trkpt lat="47.12949" lon="0.86865">
        <ele>118.5</ele>
        <time>2020-07-03T13:01:08Z</time>
      </trkpt>
      <trkpt lat="47.12945" lon="0.86863">
        <ele>118.5</ele>
        <time>2020-07-03T13:01:09Z</time>
      </trkpt>
      <trkpt lat="47.1294" lon="0.86861">
        <ele>118.6</ele>
        <time>2020-07-03T13:01:10Z</time>
      </trkpt>
      <trkpt lat="47.12935" lon="0.86858">
        <ele>118.6</ele>
        <time>2020-07-03T13:01:11Z</time>
      </trkpt>
      <trkpt lat="47.12931" lon="0.86857">
        <ele>118.6</ele>
        <time>2020-07-03T13:01:12Z</time>
      </trkpt>
      <trkpt lat="47.12927" lon="0.86854">
        <ele>118.7</ele>
        <time>2020-07-03T13:01:13Z</time>
      </trkpt>
      <trkpt lat="47.12921" lon="0.86852">
        <ele>118.7</ele>
        <time>2020-07-03T13:01:14Z</time>
      </trkpt>
      <trkpt lat="47.12915" lon="0.8685">
        <ele>118.7</ele>
        <time>2020-07-03T13:01:15Z</time>
      </trkpt>
      <trkpt lat="47.12909" lon="0.86847">
        <ele>118.7</ele>
        <time>2020-07-03T13:01:16Z</time>
      </trkpt>
      <trkpt lat="47.12904" lon="0.86844">
        <ele>118.7</ele>
        <time>2020-07-03T13:01:17Z</time>
      </trkpt>
      <trkpt lat="47.12898" lon="0.86841">
        <ele>118.8</ele>
        <time>2020-07-03T13:01:18Z</time>
      </trkpt>
      <trkpt lat="47.12894" lon="0.86839">
        <ele>118.8</ele>
        <time>2020-07-03T13:01:19Z</time>
      </trkpt>
      <trkpt lat="47.1289" lon="0.86837">
        <ele>118.8</ele>
        <time>2020-07-03T13:01:20Z</time>
      </trkpt>
      <trkpt lat="47.12884" lon="0.86835">
        <ele>118.8</ele>
        <time>2020-07-03T13:01:21Z</time>
      </trkpt>
      <trkpt lat="47.12878" lon="0.86832">
        <ele>118.8</ele>
        <time>2020-07-03T13:01:22Z</time>
      </trkpt>
      <trkpt lat="47.12873" lon="0.8683">
        <ele>118.8</ele>
        <time>2020-07-03T13:01:23Z</time>
      </trkpt>
      <trkpt lat="47.12868" lon="0.86827">
        <ele>118.7</ele>
        <time>2020-07-03T13:01:24Z</time>
      </trkpt>
      <trkpt lat="47.12862" lon="0.86825">
        <ele>118.7</ele>
        <time>2020-07-03T13:01:25Z</time>
      </trkpt>
      <trkpt lat="47.12858" lon="0.86823">
        <ele>118.7</ele>
        <time>2020-07-03T13:01:26Z</time>
      </trkpt>
      <trkpt lat="47.12852" lon="0.86821">
        <ele>118.7</ele>
        <time>2020-07-03T13:01:27Z</time>
      </trkpt>
      <trkpt lat="47.12847" lon="0.86819">
        <ele>118.7</ele>
        <time>2020-07-03T13:01:28Z</time>
      </trkpt>
      <trkpt lat="47.12842" lon="0.86817">
        <ele>118.7</ele>
        <time>2020-07-03T13:01:29Z</time>
      </trkpt>
      <trkpt lat="47.12837" lon="0.86814">
        <ele>118.7</ele>
        <time>2020-07-03T13:01:30Z</time>
      </trkpt>
      <trkpt lat="47.12831" lon="0.86812">
        <ele>118.7</ele>
        <time>2020-07-03T13:01:31Z</time>
      </trkpt>
      <trkpt lat="47.12826" lon="0.86809">
        <ele>118.7</ele>
        <time>2020-07-03T13:01:32Z</time>
      </trkpt>
      <trkpt lat="47.12821" lon="0.86806">
        <ele>118.7</ele>
        <time>2020-07-03T13:01:33Z</time>
      </trkpt>
      <trkpt lat="47.12815" lon="0.86803">
        <ele>118.7</ele>
        <time>2020-07-03T13:01:34Z</time>
      </trkpt>
      <trkpt lat="47.1281" lon="0.868">
        <ele>118.7</ele>
        <time>2020-07-03T13:01:35Z</time>
      </trkpt>
      <trkpt lat="47.12805" lon="0.86797">
        <ele>118.7</ele>
        <time>2020-07-03T13:01:36Z</time>
      </trkpt>
      <trkpt lat="47.12799" lon="0.86794">
        <ele>118.7</ele>
        <time>2020-07-03T13:01:37Z</time>
      </trkpt>
      <trkpt lat="47.12793" lon="0.8679">
        <ele>118.6</ele>
        <time>2020-07-03T13:01:38Z</time>
      </trkpt>
      <trkpt lat="47.12787" lon="0.86786">
        <ele>118.6</ele>
        <time>2020-07-03T13:01:39Z</time>
      </trkpt>
      <trkpt lat="47.12782" lon="0.86782">
        <ele>118.6</ele>
        <time>2020-07-03T13:01:40Z</time>
      </trkpt>
      <trkpt lat="47.12777" lon="0.86779">
        <ele>118.7</ele>
        <time>2020-07-03T13:01:41Z</time>
      </trkpt>
      <trkpt lat="47.12772" lon="0.86775">
        <ele>118.7</ele>
        <time>2020-07-03T13:01:42Z</time>
      </trkpt>
      <trkpt lat="47.12768" lon="0.86772">
        <ele>118.7</ele>
        <time>2020-07-03T13:01:43Z</time>
      </trkpt>
      <trkpt lat="47.12764" lon="0.86769">
        <ele>118.7</ele>
        <time>2020-07-03T13:01:44Z</time>
      </trkpt>
      <trkpt lat="47.12759" lon="0.86766">
        <ele>118.7</ele>
        <time>2020-07-03T13:01:45Z</time>
      </trkpt>
      <trkpt lat="47.12754" lon="0.86762">
        <ele>118.6</ele>
        <time>2020-07-03T13:01:46Z</time>
      </trkpt>
      <trkpt lat="47.12749" lon="0.86757">
        <ele>118.6</ele>
        <time>2020-07-03T13:01:47Z</time>
      </trkpt>
      <trkpt lat="47.12743" lon="0.8675">
        <ele>118.6</ele>
        <time>2020-07-03T13:01:48Z</time>
      </trkpt>
      <trkpt lat="47.12737" lon="0.86744">
        <ele>118.6</ele>
        <time>2020-07-03T13:01:49Z</time>
      </trkpt>
      <trkpt lat="47.12733" lon="0.86737">
        <ele>118.6</ele>
        <time>2020-07-03T13:01:50Z</time>
      </trkpt>
      <trkpt lat="47.12729" lon="0.86731">
        <ele>118.6</ele>
        <time>2020-07-03T13:01:51Z</time>
      </trkpt>
      <trkpt lat="47.12725" lon="0.86726">
        <ele>118.6</ele>
        <time>2020-07-03T13:01:52Z</time>
      </trkpt>
      <trkpt lat="47.1272" lon="0.86722">
        <ele>118.7</ele>
        <time>2020-07-03T13:01:53Z</time>
      </trkpt>
      <trkpt lat="47.12715" lon="0.86717">
        <ele>118.7</ele>
        <time>2020-07-03T13:01:54Z</time>
      </trkpt>
      <trkpt lat="47.1271" lon="0.86712">
        <ele>118.7</ele>
        <time>2020-07-03T13:01:55Z</time>
      </trkpt>
      <trkpt lat="47.12706" lon="0.86708">
        <ele>118.7</ele>
        <time>2020-07-03T13:01:56Z</time>
      </trkpt>
      <trkpt lat="47.12701" lon="0.86704">
        <ele>118.7</ele>
        <time>2020-07-03T13:01:57Z</time>
      </trkpt>
      <trkpt lat="47.12696" lon="0.867">
        <ele>118.8</ele>
        <time>2020-07-03T13:01:58Z</time>
      </trkpt>
      <trkpt lat="47.12693" lon="0.86695">
        <ele>118.8</ele>
        <time>2020-07-03T13:01:59Z</time>
      </trkpt>
      <trkpt lat="47.12689" lon="0.86691">
        <ele>118.9</ele>
        <time>2020-07-03T13:02:00Z</time>
      </trkpt>
      <trkpt lat="47.12684" lon="0.86689">
        <ele>119</ele>
        <time>2020-07-03T13:02:01Z</time>
      </trkpt>
      <trkpt lat="47.12677" lon="0.86692">
        <ele>119.1</ele>
        <time>2020-07-03T13:02:02Z</time>
      </trkpt>
      <trkpt lat="47.12672" lon="0.86697">
        <ele>119.3</ele>
        <time>2020-07-03T13:02:03Z</time>
      </trkpt>
      <trkpt lat="47.12666" lon="0.86702">
        <ele>118.9</ele>
        <time>2020-07-03T13:02:04Z</time>
      </trkpt>
      <trkpt lat="47.12661" lon="0.86704">
        <ele>119</ele>
        <time>2020-07-03T13:02:05Z</time>
      </trkpt>
      <trkpt lat="47.12656" lon="0.86705">
        <ele>119.1</ele>
        <time>2020-07-03T13:02:06Z</time>
      </trkpt>
      <trkpt lat="47.12652" lon="0.86706">
        <ele>119.1</ele>
        <time>2020-07-03T13:02:07Z</time>
      </trkpt>
      <trkpt lat="47.12647" lon="0.86706">
        <ele>119.2</ele>
        <time>2020-07-03T13:02:08Z</time>
      </trkpt>
      <trkpt lat="47.12642" lon="0.86705">
        <ele>119.3</ele>
        <time>2020-07-03T13:02:09Z</time>
      </trkpt>
      <trkpt lat="47.12637" lon="0.86704">
        <ele>119.4</ele>
        <time>2020-07-03T13:02:10Z</time>
      </trkpt>
      <trkpt lat="47.12631" lon="0.86703">
        <ele>119.5</ele>
        <time>2020-07-03T13:02:11Z</time>
      </trkpt>
      <trkpt lat="47.12625" lon="0.86702">
        <ele>119.6</ele>
        <time>2020-07-03T13:02:12Z</time>
      </trkpt>
      <trkpt lat="47.12621" lon="0.867">
        <ele>119.6</ele>
        <time>2020-07-03T13:02:13Z</time>
      </trkpt>
      <trkpt lat="47.12615" lon="0.86697">
        <ele>119.7</ele>
        <time>2020-07-03T13:02:14Z</time>
      </trkpt>
      <trkpt lat="47.1261" lon="0.86694">
        <ele>119.7</ele>
        <time>2020-07-03T13:02:15Z</time>
      </trkpt>
      <trkpt lat="47.12607" lon="0.86692">
        <ele>119.8</ele>
        <time>2020-07-03T13:02:16Z</time>
      </trkpt>
      <trkpt lat="47.12601" lon="0.86688">
        <ele>119.8</ele>
        <time>2020-07-03T13:02:17Z</time>
      </trkpt>
      <trkpt lat="47.12595" lon="0.86685">
        <ele>119.9</ele>
        <time>2020-07-03T13:02:18Z</time>
      </trkpt>
      <trkpt lat="47.12589" lon="0.86682">
        <ele>119.9</ele>
        <time>2020-07-03T13:02:19Z</time>
      </trkpt>
      <trkpt lat="47.12585" lon="0.86679">
        <ele>120</ele>
        <time>2020-07-03T13:02:20Z</time>
      </trkpt>
      <trkpt lat="47.1258" lon="0.86678">
        <ele>120</ele>
        <time>2020-07-03T13:02:21Z</time>
      </trkpt>
      <trkpt lat="47.12575" lon="0.86676">
        <ele>120.1</ele>
        <time>2020-07-03T13:02:22Z</time>
      </trkpt>
      <trkpt lat="47.1257" lon="0.86674">
        <ele>120.2</ele>
        <time>2020-07-03T13:02:23Z</time>
      </trkpt>
      <trkpt lat="47.12565" lon="0.86671">
        <ele>120.2</ele>
        <time>2020-07-03T13:02:24Z</time>
      </trkpt>
      <trkpt lat="47.1256" lon="0.86667">
        <ele>120.2</ele>
        <time>2020-07-03T13:02:25Z</time>
      </trkpt>
      <trkpt lat="47.12556" lon="0.86665">
        <ele>120.3</ele>
        <time>2020-07-03T13:02:26Z</time>
      </trkpt>
      <trkpt lat="47.12552" lon="0.86663">
        <ele>120.3</ele>
        <time>2020-07-03T13:02:27Z</time>
      </trkpt>
      <trkpt lat="47.12547" lon="0.8666">
        <ele>120.3</ele>
        <time>2020-07-03T13:02:28Z</time>
      </trkpt>
      <trkpt lat="47.12542" lon="0.86659">
        <ele>120.3</ele>
        <time>2020-07-03T13:02:29Z</time>
      </trkpt>
      <trkpt lat="47.12538" lon="0.86657">
        <ele>120.4</ele>
        <time>2020-07-03T13:02:30Z</time>
      </trkpt>
      <trkpt lat="47.12532" lon="0.86655">
        <ele>120.4</ele>
        <time>2020-07-03T13:02:31Z</time>
      </trkpt>
      <trkpt lat="47.12528" lon="0.86653">
        <ele>120.4</ele>
        <time>2020-07-03T13:02:32Z</time>
      </trkpt>
      <trkpt lat="47.12522" lon="0.86651">
        <ele>120.5</ele>
        <time>2020-07-03T13:02:33Z</time>
      </trkpt>
      <trkpt lat="47.12517" lon="0.86648">
        <ele>120.5</ele>
        <time>2020-07-03T13:02:34Z</time>
      </trkpt>
      <trkpt lat="47.12513" lon="0.86645">
        <ele>120.6</ele>
        <time>2020-07-03T13:02:35Z</time>
      </trkpt>
      <trkpt lat="47.12509" lon="0.86642">
        <ele>120.7</ele>
        <time>2020-07-03T13:02:36Z</time>
      </trkpt>
      <trkpt lat="47.12505" lon="0.86639">
        <ele>120.7</ele>
        <time>2020-07-03T13:02:37Z</time>
      </trkpt>
      <trkpt lat="47.12502" lon="0.86636">
        <ele>120.8</ele>
        <time>2020-07-03T13:02:38Z</time>
      </trkpt>
      <trkpt lat="47.12497" lon="0.86634">
        <ele>120.9</ele>
        <time>2020-07-03T13:02:39Z</time>
      </trkpt>
      <trkpt lat="47.12492" lon="0.86632">
        <ele>121</ele>
        <time>2020-07-03T13:02:40Z</time>
      </trkpt>
      <trkpt lat="47.12487" lon="0.8663">
        <ele>121</ele>
        <time>2020-07-03T13:02:41Z</time>
      </trkpt>
      <trkpt lat="47.12485" lon="0.86628">
        <ele>121.1</ele>
        <time>2020-07-03T13:02:42Z</time>
      </trkpt>
      <trkpt lat="47.12482" lon="0.86627">
        <ele>121.1</ele>
        <time>2020-07-03T13:02:43Z</time>
      </trkpt>
      <trkpt lat="47.12476" lon="0.86624">
        <ele>121.2</ele>
        <time>2020-07-03T13:02:44Z</time>
      </trkpt>
      <trkpt lat="47.12473" lon="0.86621">
        <ele>121.2</ele>
        <time>2020-07-03T13:02:45Z</time>
      </trkpt>
      <trkpt lat="47.12469" lon="0.86618">
        <ele>121.3</ele>
        <time>2020-07-03T13:02:46Z</time>
      </trkpt>
      <trkpt lat="47.12464" lon="0.86616">
        <ele>121.3</ele>
        <time>2020-07-03T13:02:47Z</time>
      </trkpt>
      <trkpt lat="47.12459" lon="0.86613">
        <ele>121.3</ele>
        <time>2020-07-03T13:02:48Z</time>
      </trkpt>
      <trkpt lat="47.12453" lon="0.8661">
        <ele>121.4</ele>
        <time>2020-07-03T13:02:49Z</time>
      </trkpt>
      <trkpt lat="47.12447" lon="0.86607">
        <ele>121.4</ele>
        <time>2020-07-03T13:02:50Z</time>
      </trkpt>
      <trkpt lat="47.12443" lon="0.86604">
        <ele>121.4</ele>
        <time>2020-07-03T13:02:51Z</time>
      </trkpt>
      <trkpt lat="47.12438" lon="0.86602">
        <ele>121.4</ele>
        <time>2020-07-03T13:02:52Z</time>
      </trkpt>
      <trkpt lat="47.12434" lon="0.866">
        <ele>121.5</ele>
        <time>2020-07-03T13:02:53Z</time>
      </trkpt>
      <trkpt lat="47.1243" lon="0.86597">
        <ele>121.5</ele>
        <time>2020-07-03T13:02:54Z</time>
      </trkpt>
      <trkpt lat="47.12425" lon="0.86594">
        <ele>121.6</ele>
        <time>2020-07-03T13:02:55Z</time>
      </trkpt>
      <trkpt lat="47.12421" lon="0.86591">
        <ele>121.6</ele>
        <time>2020-07-03T13:02:56Z</time>
      </trkpt>
      <trkpt lat="47.12416" lon="0.86589">
        <ele>121.7</ele>
        <time>2020-07-03T13:02:57Z</time>
      </trkpt>
      <trkpt lat="47.12412" lon="0.86587">
        <ele>121.7</ele>
        <time>2020-07-03T13:02:58Z</time>
      </trkpt>
      <trkpt lat="47.12408" lon="0.86585">
        <ele>121.8</ele>
        <time>2020-07-03T13:02:59Z</time>
      </trkpt>
      <trkpt lat="47.12404" lon="0.86583">
        <ele>121.8</ele>
        <time>2020-07-03T13:03:00Z</time>
      </trkpt>
      <trkpt lat="47.124" lon="0.86581">
        <ele>121.8</ele>
        <time>2020-07-03T13:03:01Z</time>
      </trkpt>
      <trkpt lat="47.12396" lon="0.86579">
        <ele>121.8</ele>
        <time>2020-07-03T13:03:02Z</time>
      </trkpt>
      <trkpt lat="47.12391" lon="0.86577">
        <ele>121.8</ele>
        <time>2020-07-03T13:03:03Z</time>
      </trkpt>
      <trkpt lat="47.12385" lon="0.86573">
        <ele>121.9</ele>
        <time>2020-07-03T13:03:04Z</time>
      </trkpt>
      <trkpt lat="47.1238" lon="0.8657">
        <ele>121.9</ele>
        <time>2020-07-03T13:03:05Z</time>
      </trkpt>
      <trkpt lat="47.12374" lon="0.86567">
        <ele>121.9</ele>
        <time>2020-07-03T13:03:06Z</time>
      </trkpt>
      <trkpt lat="47.1237" lon="0.86565">
        <ele>121.9</ele>
        <time>2020-07-03T13:03:07Z</time>
      </trkpt>
      <trkpt lat="47.12365" lon="0.86563">
        <ele>121.9</ele>
        <time>2020-07-03T13:03:08Z</time>
      </trkpt>
      <trkpt lat="47.1236" lon="0.86561">
        <ele>121.9</ele>
        <time>2020-07-03T13:03:09Z</time>
      </trkpt>
      <trkpt lat="47.12355" lon="0.86559">
        <ele>121.9</ele>
        <time>2020-07-03T13:03:10Z</time>
      </trkpt>
      <trkpt lat="47.12349" lon="0.86557">
        <ele>121.9</ele>
        <time>2020-07-03T13:03:11Z</time>
      </trkpt>
      <trkpt lat="47.12343" lon="0.86554">
        <ele>121.9</ele>
        <time>2020-07-03T13:03:12Z</time>
      </trkpt>
      <trkpt lat="47.12338" lon="0.86553">
        <ele>121.9</ele>
        <time>2020-07-03T13:03:13Z</time>
      </trkpt>
      <trkpt lat="47.12334" lon="0.8655">
        <ele>122</ele>
        <time>2020-07-03T13:03:14Z</time>
      </trkpt>
      <trkpt lat="47.12329" lon="0.86548">
        <ele>122</ele>
        <time>2020-07-03T13:03:15Z</time>
      </trkpt>
      <trkpt lat="47.12324" lon="0.86546">
        <ele>122.1</ele>
        <time>2020-07-03T13:03:16Z</time>
      </trkpt>
      <trkpt lat="47.1232" lon="0.86544">
        <ele>122.1</ele>
        <time>2020-07-03T13:03:17Z</time>
      </trkpt>
      <trkpt lat="47.12316" lon="0.86542">
        <ele>122.2</ele>
        <time>2020-07-03T13:03:18Z</time>
      </trkpt>
      <trkpt lat="47.12311" lon="0.86539">
        <ele>122.3</ele>
        <time>2020-07-03T13:03:19Z</time>
      </trkpt>
      <trkpt lat="47.12306" lon="0.86538">
        <ele>122.3</ele>
        <time>2020-07-03T13:03:20Z</time>
      </trkpt>
      <trkpt lat="47.12301" lon="0.86536">
        <ele>122.3</ele>
        <time>2020-07-03T13:03:21Z</time>
      </trkpt>
      <trkpt lat="47.12297" lon="0.86534">
        <ele>122.4</ele>
        <time>2020-07-03T13:03:22Z</time>
      </trkpt>
      <trkpt lat="47.12292" lon="0.86531">
        <ele>122.4</ele>
        <time>2020-07-03T13:03:23Z</time>
      </trkpt>
      <trkpt lat="47.12288" lon="0.86528">
        <ele>122.5</ele>
        <time>2020-07-03T13:03:24Z</time>
      </trkpt>
      <trkpt lat="47.12283" lon="0.86525">
        <ele>122.5</ele>
        <time>2020-07-03T13:03:25Z</time>
      </trkpt>
      <trkpt lat="47.12278" lon="0.86523">
        <ele>122.5</ele>
        <time>2020-07-03T13:03:26Z</time>
      </trkpt>
      <trkpt lat="47.12273" lon="0.8652">
        <ele>122.6</ele>
        <time>2020-07-03T13:03:27Z</time>
      </trkpt>
      <trkpt lat="47.12269" lon="0.86517">
        <ele>122.6</ele>
        <time>2020-07-03T13:03:28Z</time>
      </trkpt>
      <trkpt lat="47.12265" lon="0.86516">
        <ele>122.7</ele>
        <time>2020-07-03T13:03:29Z</time>
      </trkpt>
      <trkpt lat="47.12261" lon="0.86513">
        <ele>122.7</ele>
        <time>2020-07-03T13:03:30Z</time>
      </trkpt>
      <trkpt lat="47.12256" lon="0.86511">
        <ele>122.8</ele>
        <time>2020-07-03T13:03:31Z</time>
      </trkpt>
      <trkpt lat="47.12251" lon="0.8651">
        <ele>122.8</ele>
        <time>2020-07-03T13:03:32Z</time>
      </trkpt>
      <trkpt lat="47.12247" lon="0.86507">
        <ele>122.9</ele>
        <time>2020-07-03T13:03:33Z</time>
      </trkpt>
      <trkpt lat="47.12243" lon="0.86505">
        <ele>122.9</ele>
        <time>2020-07-03T13:03:34Z</time>
      </trkpt>
      <trkpt lat="47.12238" lon="0.86502">
        <ele>122.9</ele>
        <time>2020-07-03T13:03:35Z</time>
      </trkpt>
      <trkpt lat="47.12234" lon="0.865">
        <ele>123</ele>
        <time>2020-07-03T13:03:36Z</time>
      </trkpt>
      <trkpt lat="47.12231" lon="0.86499">
        <ele>123</ele>
        <time>2020-07-03T13:03:37Z</time>
      </trkpt>
      <trkpt lat="47.12226" lon="0.86497">
        <ele>123</ele>
        <time>2020-07-03T13:03:38Z</time>
      </trkpt>
      <trkpt lat="47.12221" lon="0.86494">
        <ele>123.1</ele>
        <time>2020-07-03T13:03:39Z</time>
      </trkpt>
      <trkpt lat="47.12217" lon="0.8649">
        <ele>123.1</ele>
        <time>2020-07-03T13:03:40Z</time>
      </trkpt>
      <trkpt lat="47.12212" lon="0.86488">
        <ele>123.2</ele>
        <time>2020-07-03T13:03:41Z</time>
      </trkpt>
      <trkpt lat="47.12208" lon="0.86486">
        <ele>123.2</ele>
        <time>2020-07-03T13:03:42Z</time>
      </trkpt>
      <trkpt lat="47.12204" lon="0.86484">
        <ele>123.3</ele>
        <time>2020-07-03T13:03:43Z</time>
      </trkpt>
      <trkpt lat="47.122" lon="0.8648">
        <ele>123.3</ele>
        <time>2020-07-03T13:03:44Z</time>
      </trkpt>
      <trkpt lat="47.12199" lon="0.86478">
        <ele>123.4</ele>
        <time>2020-07-03T13:03:45Z</time>
      </trkpt>
      <trkpt lat="47.12199" lon="0.86476">
        <ele>123.4</ele>
        <time>2020-07-03T13:03:46Z</time>
      </trkpt>
      <trkpt lat="47.12199" lon="0.86473">
        <ele>123.4</ele>
        <time>2020-07-03T13:03:47Z</time>
      </trkpt>
      <trkpt lat="47.12199" lon="0.8647">
        <ele>123.5</ele>
        <time>2020-07-03T13:03:48Z</time>
      </trkpt>
      <trkpt lat="47.12199" lon="0.86468">
        <ele>123.5</ele>
        <time>2020-07-03T13:03:49Z</time>
      </trkpt>
      <trkpt lat="47.12199" lon="0.86467">
        <ele>123.5</ele>
        <time>2020-07-03T13:03:50Z</time>
      </trkpt>
      <trkpt lat="47.122" lon="0.86463">
        <ele>123.5</ele>
        <time>2020-07-03T13:03:51Z</time>
      </trkpt>
      <trkpt lat="47.122" lon="0.86462">
        <ele>123.5</ele>
        <time>2020-07-03T13:03:52Z</time>
      </trkpt>
      <trkpt lat="47.122" lon="0.8646">
        <ele>123.6</ele>
        <time>2020-07-03T13:03:53Z</time>
      </trkpt>
      <trkpt lat="47.122" lon="0.8646">
        <ele>123.6</ele>
        <time>2020-07-03T13:03:54Z</time>
      </trkpt>
      <trkpt lat="47.122" lon="0.86459">
        <ele>123.6</ele>
        <time>2020-07-03T13:03:55Z</time>
      </trkpt>
      <trkpt lat="47.122" lon="0.86459">
        <ele>123.6</ele>
        <time>2020-07-03T13:03:56Z</time>
      </trkpt>
      <trkpt lat="47.12199" lon="0.8646">
        <ele>123.6</ele>
        <time>2020-07-03T13:03:57Z</time>
      </trkpt>
      <trkpt lat="47.12199" lon="0.86459">
        <ele>123.6</ele>
        <time>2020-07-03T13:03:58Z</time>
      </trkpt>
      <trkpt lat="47.12199" lon="0.8646">
        <ele>123.6</ele>
        <time>2020-07-03T13:03:59Z</time>
      </trkpt>
      <trkpt lat="47.12199" lon="0.86461">
        <ele>123.6</ele>
        <time>2020-07-03T13:04:00Z</time>
      </trkpt>
      <trkpt lat="47.12199" lon="0.86461">
        <ele>123.6</ele>
        <time>2020-07-03T13:04:01Z</time>
      </trkpt>
      <trkpt lat="47.12199" lon="0.86461">
        <ele>123.6</ele>
        <time>2020-07-03T13:04:02Z</time>
      </trkpt>
      <trkpt lat="47.12199" lon="0.86461">
        <ele>123.6</ele>
        <time>2020-07-03T13:04:03Z</time>
      </trkpt>
      <trkpt lat="47.122" lon="0.86461">
        <ele>123.6</ele>
        <time>2020-07-03T13:04:04Z</time>
      </trkpt>
      <trkpt lat="47.12199" lon="0.86461">
        <ele>123.6</ele>
        <time>2020-07-03T13:04:05Z</time>
      </trkpt>
      <trkpt lat="47.12199" lon="0.86462">
        <ele>123.7</ele>
        <time>2020-07-03T13:04:06Z</time>
      </trkpt>
      <trkpt lat="47.12197" lon="0.86463">
        <ele>123.7</ele>
        <time>2020-07-03T13:04:07Z</time>
      </trkpt>
      <trkpt lat="47.12197" lon="0.8646">
        <ele>123.7</ele>
        <time>2020-07-03T13:04:08Z</time>
      </trkpt>
      <trkpt lat="47.12198" lon="0.86458">
        <ele>123.7</ele>
        <time>2020-07-03T13:04:09Z</time>
      </trkpt>
      <trkpt lat="47.12198" lon="0.86457">
        <ele>123.7</ele>
        <time>2020-07-03T13:04:10Z</time>
      </trkpt>
      <trkpt lat="47.12199" lon="0.86455">
        <ele>123.7</ele>
        <time>2020-07-03T13:04:11Z</time>
      </trkpt>
      <trkpt lat="47.12199" lon="0.86453">
        <ele>123.7</ele>
        <time>2020-07-03T13:04:12Z</time>
      </trkpt>
      <trkpt lat="47.122" lon="0.86451">
        <ele>123.8</ele>
        <time>2020-07-03T13:06:04Z</time>
      </trkpt>
      <trkpt lat="47.122" lon="0.86449">
        <ele>123.8</ele>
        <time>2020-07-03T13:06:05Z</time>
      </trkpt>
      <trkpt lat="47.12201" lon="0.86448">
        <ele>123.8</ele>
        <time>2020-07-03T13:06:06Z</time>
      </trkpt>
      <trkpt lat="47.12201" lon="0.86448">
        <ele>123.8</ele>
        <time>2020-07-03T13:06:07Z</time>
      </trkpt>
      <trkpt lat="47.12201" lon="0.86447">
        <ele>123.8</ele>
        <time>2020-07-03T13:06:08Z</time>
      </trkpt>
      <trkpt lat="47.12201" lon="0.86447">
        <ele>123.8</ele>
        <time>2020-07-03T13:06:09Z</time>
      </trkpt>
      <trkpt lat="47.122" lon="0.86444">
        <ele>123.8</ele>
        <time>2020-07-03T13:06:10Z</time>
      </trkpt>
      <trkpt lat="47.122" lon="0.86443">
        <ele>123.8</ele>
        <time>2020-07-03T13:06:11Z</time>
      </trkpt>
      <trkpt lat="47.122" lon="0.86444">
        <ele>123.8</ele>
        <time>2020-07-03T13:06:12Z</time>
      </trkpt>
      <trkpt lat="47.122" lon="0.86443">
        <ele>123.8</ele>
        <time>2020-07-03T13:06:13Z</time>
      </trkpt>
      <trkpt lat="47.12199" lon="0.86446">
        <ele>123.8</ele>
        <time>2020-07-03T13:06:14Z</time>
      </trkpt>
      <trkpt lat="47.12199" lon="0.86449">
        <ele>123.8</ele>
        <time>2020-07-03T13:06:15Z</time>
      </trkpt>
      <trkpt lat="47.12199" lon="0.86451">
        <ele>123.9</ele>
        <time>2020-07-03T13:06:16Z</time>
      </trkpt>
      <trkpt lat="47.122" lon="0.86453">
        <ele>123.9</ele>
        <time>2020-07-03T13:06:17Z</time>
      </trkpt>
      <trkpt lat="47.122" lon="0.86455">
        <ele>123.9</ele>
        <time>2020-07-03T13:06:18Z</time>
      </trkpt>
      <trkpt lat="47.122" lon="0.86457">
        <ele>123.9</ele>
        <time>2020-07-03T13:06:19Z</time>
      </trkpt>
      <trkpt lat="47.12201" lon="0.8646">
        <ele>123.9</ele>
        <time>2020-07-03T13:06:20Z</time>
      </trkpt>
      <trkpt lat="47.12201" lon="0.86462">
        <ele>123.9</ele>
        <time>2020-07-03T13:06:21Z</time>
      </trkpt>
      <trkpt lat="47.12201" lon="0.86465">
        <ele>123.9</ele>
        <time>2020-07-03T13:06:22Z</time>
      </trkpt>
      <trkpt lat="47.12201" lon="0.86466">
        <ele>123.9</ele>
        <time>2020-07-03T13:06:23Z</time>
      </trkpt>
      <trkpt lat="47.12201" lon="0.86467">
        <ele>124</ele>
        <time>2020-07-03T13:06:24Z</time>
      </trkpt>
      <trkpt lat="47.12201" lon="0.86469">
        <ele>124</ele>
        <time>2020-07-03T13:06:25Z</time>
      </trkpt>
      <trkpt lat="47.122" lon="0.8647">
        <ele>124</ele>
        <time>2020-07-03T13:06:26Z</time>
      </trkpt>
      <trkpt lat="47.122" lon="0.86471">
        <ele>124</ele>
        <time>2020-07-03T13:06:27Z</time>
      </trkpt>
      <trkpt lat="47.12199" lon="0.86472">
        <ele>124</ele>
        <time>2020-07-03T13:06:28Z</time>
      </trkpt>
      <trkpt lat="47.12199" lon="0.86474">
        <ele>124</ele>
        <time>2020-07-03T13:06:29Z</time>
      </trkpt>
      <trkpt lat="47.12199" lon="0.86476">
        <ele>124</ele>
        <time>2020-07-03T13:06:30Z</time>
      </trkpt>
      <trkpt lat="47.12197" lon="0.86479">
        <ele>124</ele>
        <time>2020-07-03T13:06:31Z</time>
      </trkpt>
      <trkpt lat="47.12197" lon="0.86481">
        <ele>124.1</ele>
        <time>2020-07-03T13:06:32Z</time>
      </trkpt>
      <trkpt lat="47.12197" lon="0.86482">
        <ele>124.1</ele>
        <time>2020-07-03T13:06:33Z</time>
      </trkpt>
      <trkpt lat="47.12198" lon="0.8648">
        <ele>124.1</ele>
        <time>2020-07-03T13:06:34Z</time>
      </trkpt>
      <trkpt lat="47.12198" lon="0.86479">
        <ele>124.1</ele>
        <time>2020-07-03T13:06:35Z</time>
      </trkpt>
      <trkpt lat="47.12198" lon="0.86478">
        <ele>124.1</ele>
        <time>2020-07-03T13:06:36Z</time>
      </trkpt>
      <trkpt lat="47.12198" lon="0.86477">
        <ele>124.1</ele>
        <time>2020-07-03T13:06:37Z</time>
      </trkpt>
      <trkpt lat="47.12198" lon="0.86476">
        <ele>124.1</ele>
        <time>2020-07-03T13:06:38Z</time>
      </trkpt>
      <trkpt lat="47.12198" lon="0.86475">
        <ele>124.1</ele>
        <time>2020-07-03T13:06:39Z</time>
      </trkpt>
      <trkpt lat="47.12198" lon="0.86473">
        <ele>124.1</ele>
        <time>2020-07-03T13:06:40Z</time>
      </trkpt>
      <trkpt lat="47.12198" lon="0.8647">
        <ele>124.1</ele>
        <time>2020-07-03T13:06:41Z</time>
      </trkpt>
      <trkpt lat="47.12199" lon="0.86469">
        <ele>124.2</ele>
        <time>2020-07-03T13:06:42Z</time>
      </trkpt>
      <trkpt lat="47.12199" lon="0.86467">
        <ele>124.2</ele>
        <time>2020-07-03T13:06:43Z</time>
      </trkpt>
      <trkpt lat="47.12199" lon="0.86466">
        <ele>124.2</ele>
        <time>2020-07-03T13:06:44Z</time>
      </trkpt>
      <trkpt lat="47.12199" lon="0.86465">
        <ele>124.2</ele>
        <time>2020-07-03T13:06:45Z</time>
      </trkpt>
      <trkpt lat="47.12199" lon="0.86465">
        <ele>124.2</ele>
        <time>2020-07-03T13:06:46Z</time>
      </trkpt>
      <trkpt lat="47.12199" lon="0.86464">
        <ele>124.2</ele>
        <time>2020-07-03T13:06:47Z</time>
      </trkpt>
      <trkpt lat="47.12199" lon="0.86464">
        <ele>124.2</ele>
        <time>2020-07-03T13:06:48Z</time>
      </trkpt>
      <trkpt lat="47.12199" lon="0.86464">
        <ele>124.2</ele>
        <time>2020-07-03T13:06:49Z</time>
      </trkpt>
      <trkpt lat="47.12199" lon="0.86463">
        <ele>124.2</ele>
        <time>2020-07-03T13:06:50Z</time>
      </trkpt>
      <trkpt lat="47.12199" lon="0.86463">
        <ele>124.2</ele>
        <time>2020-07-03T13:06:51Z</time>
      </trkpt>
      <trkpt lat="47.12198" lon="0.86463">
        <ele>124.2</ele>
        <time>2020-07-03T13:06:52Z</time>
      </trkpt>
      <trkpt lat="47.12199" lon="0.86463">
        <ele>124.2</ele>
        <time>2020-07-03T13:06:53Z</time>
      </trkpt>
      <trkpt lat="47.12199" lon="0.86464">
        <ele>124.2</ele>
        <time>2020-07-03T13:06:54Z</time>
      </trkpt>
      <trkpt lat="47.12199" lon="0.86464">
        <ele>124.3</ele>
        <time>2020-07-03T13:06:55Z</time>
      </trkpt>
      <trkpt lat="47.12199" lon="0.86465">
        <ele>124.3</ele>
        <time>2020-07-03T13:06:56Z</time>
      </trkpt>
      <trkpt lat="47.12199" lon="0.86465">
        <ele>124.3</ele>
        <time>2020-07-03T13:06:57Z</time>
      </trkpt>
      <trkpt lat="47.12199" lon="0.86465">
        <ele>124.3</ele>
        <time>2020-07-03T13:06:58Z</time>
      </trkpt>
      <trkpt lat="47.12199" lon="0.86465">
        <ele>124.3</ele>
        <time>2020-07-03T13:06:59Z</time>
      </trkpt>
      <trkpt lat="47.12199" lon="0.86465">
        <ele>124.3</ele>
        <time>2020-07-03T13:07:00Z</time>
      </trkpt>
      <trkpt lat="47.12199" lon="0.86465">
        <ele>124.3</ele>
        <time>2020-07-03T13:07:01Z</time>
      </trkpt>
      <trkpt lat="47.12205" lon="0.86459">
        <ele>124.4</ele>
        <time>2020-07-03T13:07:33Z</time>
      </trkpt>
      <trkpt lat="47.12206" lon="0.86461">
        <ele>124.4</ele>
        <time>2020-07-03T13:07:34Z</time>
      </trkpt>
      <trkpt lat="47.12207" lon="0.86461">
        <ele>124.4</ele>
        <time>2020-07-03T13:07:35Z</time>
      </trkpt>
      <trkpt lat="47.12208" lon="0.86462">
        <ele>124.4</ele>
        <time>2020-07-03T13:07:36Z</time>
      </trkpt>
      <trkpt lat="47.12209" lon="0.86463">
        <ele>124.5</ele>
        <time>2020-07-03T13:07:37Z</time>
      </trkpt>
      <trkpt lat="47.12209" lon="0.86465">
        <ele>124.5</ele>
        <time>2020-07-03T13:07:38Z</time>
      </trkpt>
      <trkpt lat="47.1221" lon="0.86466">
        <ele>124.5</ele>
        <time>2020-07-03T13:07:39Z</time>
      </trkpt>
      <trkpt lat="47.12211" lon="0.86467">
        <ele>124.5</ele>
        <time>2020-07-03T13:07:40Z</time>
      </trkpt>
      <trkpt lat="47.12212" lon="0.86468">
        <ele>124.5</ele>
        <time>2020-07-03T13:07:41Z</time>
      </trkpt>
      <trkpt lat="47.12213" lon="0.86469">
        <ele>124.5</ele>
        <time>2020-07-03T13:07:42Z</time>
      </trkpt>
      <trkpt lat="47.12214" lon="0.8647">
        <ele>124.6</ele>
        <time>2020-07-03T13:07:43Z</time>
      </trkpt>
      <trkpt lat="47.12215" lon="0.86471">
        <ele>124.6</ele>
        <time>2020-07-03T13:07:44Z</time>
      </trkpt>
      <trkpt lat="47.12215" lon="0.86471">
        <ele>124.6</ele>
        <time>2020-07-03T13:07:45Z</time>
      </trkpt>
      <trkpt lat="47.12215" lon="0.86472">
        <ele>124.6</ele>
        <time>2020-07-03T13:07:46Z</time>
      </trkpt>
      <trkpt lat="47.12215" lon="0.86472">
        <ele>124.6</ele>
        <time>2020-07-03T13:07:47Z</time>
      </trkpt>
      <trkpt lat="47.12216" lon="0.86473">
        <ele>124.6</ele>
        <time>2020-07-03T13:07:48Z</time>
      </trkpt>
      <trkpt lat="47.12216" lon="0.86473">
        <ele>124.6</ele>
        <time>2020-07-03T13:07:49Z</time>
      </trkpt>
      <trkpt lat="47.12216" lon="0.86473">
        <ele>124.6</ele>
        <time>2020-07-03T13:07:50Z</time>
      </trkpt>
      <trkpt lat="47.12216" lon="0.86473">
        <ele>124.6</ele>
        <time>2020-07-03T13:07:51Z</time>
      </trkpt>
      <trkpt lat="47.12216" lon="0.86473">
        <ele>124.6</ele>
        <time>2020-07-03T13:07:52Z</time>
      </trkpt>
      <trkpt lat="47.12216" lon="0.86473">
        <ele>124.6</ele>
        <time>2020-07-03T13:07:53Z</time>
      </trkpt>
      <trkpt lat="47.12217" lon="0.86473">
        <ele>124.6</ele>
        <time>2020-07-03T13:07:54Z</time>
      </trkpt>
      <trkpt lat="47.12217" lon="0.86474">
        <ele>124.6</ele>
        <time>2020-07-03T13:07:55Z</time>
      </trkpt>
      <trkpt lat="47.12218" lon="0.86475">
        <ele>124.6</ele>
        <time>2020-07-03T13:07:56Z</time>
      </trkpt>
      <trkpt lat="47.12218" lon="0.86476">
        <ele>124.7</ele>
        <time>2020-07-03T13:07:57Z</time>
      </trkpt>
      <trkpt lat="47.12218" lon="0.86478">
        <ele>124.7</ele>
        <time>2020-07-03T13:07:58Z</time>
      </trkpt>
      <trkpt lat="47.12217" lon="0.86478">
        <ele>124.7</ele>
        <time>2020-07-03T13:07:59Z</time>
      </trkpt>
      <trkpt lat="47.12217" lon="0.86479">
        <ele>124.7</ele>
        <time>2020-07-03T13:08:00Z</time>
      </trkpt>
      <trkpt lat="47.12217" lon="0.86479">
        <ele>124.7</ele>
        <time>2020-07-03T13:08:01Z</time>
      </trkpt>
      <trkpt lat="47.12217" lon="0.86479">
        <ele>124.7</ele>
        <time>2020-07-03T13:08:02Z</time>
      </trkpt>
      <trkpt lat="47.12217" lon="0.86478">
        <ele>124.7</ele>
        <time>2020-07-03T13:08:03Z</time>
      </trkpt>
      <trkpt lat="47.12217" lon="0.86478">
        <ele>124.7</ele>
        <time>2020-07-03T13:08:04Z</time>
      </trkpt>
      <trkpt lat="47.12218" lon="0.86477">
        <ele>124.7</ele>
        <time>2020-07-03T13:08:05Z</time>
      </trkpt>
      <trkpt lat="47.12218" lon="0.86478">
        <ele>124.7</ele>
        <time>2020-07-03T13:08:06Z</time>
      </trkpt>
      <trkpt lat="47.12217" lon="0.86478">
        <ele>124.7</ele>
        <time>2020-07-03T13:08:07Z</time>
      </trkpt>
      <trkpt lat="47.12217" lon="0.86478">
        <ele>124.7</ele>
        <time>2020-07-03T13:08:08Z</time>
      </trkpt>
      <trkpt lat="47.12217" lon="0.86478">
        <ele>124.7</ele>
        <time>2020-07-03T13:08:09Z</time>
      </trkpt>
      <trkpt lat="47.12217" lon="0.86478">
        <ele>124.7</ele>
        <time>2020-07-03T13:08:10Z</time>
      </trkpt>
      <trkpt lat="47.12217" lon="0.86478">
        <ele>124.7</ele>
        <time>2020-07-03T13:08:11Z</time>
      </trkpt>
      <trkpt lat="47.12217" lon="0.86478">
        <ele>124.7</ele>
        <time>2020-07-03T13:08:12Z</time>
      </trkpt>
      <trkpt lat="47.12217" lon="0.86478">
        <ele>124.7</ele>
        <time>2020-07-03T13:08:13Z</time>
      </trkpt>
      <trkpt lat="47.12217" lon="0.86478">
        <ele>124.7</ele>
        <time>2020-07-03T13:08:14Z</time>
      </trkpt>
      <trkpt lat="47.12216" lon="0.86471">
        <ele>124.8</ele>
        <time>2020-07-03T13:09:30Z</time>
      </trkpt>
      <trkpt lat="47.12216" lon="0.8647">
        <ele>124.8</ele>
        <time>2020-07-03T13:09:31Z</time>
      </trkpt>
      <trkpt lat="47.12215" lon="0.86469">
        <ele>124.9</ele>
        <time>2020-07-03T13:09:32Z</time>
      </trkpt>
      <trkpt lat="47.12215" lon="0.86469">
        <ele>124.9</ele>
        <time>2020-07-03T13:09:33Z</time>
      </trkpt>
      <trkpt lat="47.12215" lon="0.86468">
        <ele>124.9</ele>
        <time>2020-07-03T13:09:34Z</time>
      </trkpt>
      <trkpt lat="47.12214" lon="0.86467">
        <ele>124.9</ele>
        <time>2020-07-03T13:09:35Z</time>
      </trkpt>
      <trkpt lat="47.12213" lon="0.86467">
        <ele>124.9</ele>
        <time>2020-07-03T13:09:36Z</time>
      </trkpt>
      <trkpt lat="47.12212" lon="0.86467">
        <ele>124.9</ele>
        <time>2020-07-03T13:09:37Z</time>
      </trkpt>
      <trkpt lat="47.12211" lon="0.86466">
        <ele>125</ele>
        <time>2020-07-03T13:09:38Z</time>
      </trkpt>
      <trkpt lat="47.1221" lon="0.86466">
        <ele>125</ele>
        <time>2020-07-03T13:09:39Z</time>
      </trkpt>
      <trkpt lat="47.1221" lon="0.86466">
        <ele>125</ele>
        <time>2020-07-03T13:09:40Z</time>
      </trkpt>
      <trkpt lat="47.1221" lon="0.86465">
        <ele>125</ele>
        <time>2020-07-03T13:09:41Z</time>
      </trkpt>
      <trkpt lat="47.1221" lon="0.86465">
        <ele>125</ele>
        <time>2020-07-03T13:09:42Z</time>
      </trkpt>
      <trkpt lat="47.1221" lon="0.86465">
        <ele>125</ele>
        <time>2020-07-03T13:09:43Z</time>
      </trkpt>
      <trkpt lat="47.1221" lon="0.86465">
        <ele>125</ele>
        <time>2020-07-03T13:09:44Z</time>
      </trkpt>
      <trkpt lat="47.1221" lon="0.86466">
        <ele>125</ele>
        <time>2020-07-03T13:09:45Z</time>
      </trkpt>
      <trkpt lat="47.1221" lon="0.86465">
        <ele>125</ele>
        <time>2020-07-03T13:09:46Z</time>
      </trkpt>
      <trkpt lat="47.1221" lon="0.86465">
        <ele>125</ele>
        <time>2020-07-03T13:09:47Z</time>
      </trkpt>
      <trkpt lat="47.1221" lon="0.86465">
        <ele>125</ele>
        <time>2020-07-03T13:09:48Z</time>
      </trkpt>
      <trkpt lat="47.1221" lon="0.86465">
        <ele>125</ele>
        <time>2020-07-03T13:09:49Z</time>
      </trkpt>
      <trkpt lat="47.1221" lon="0.86465">
        <ele>125</ele>
        <time>2020-07-03T13:09:50Z</time>
      </trkpt>
      <trkpt lat="47.12198" lon="0.86471">
        <ele>125.3</ele>
        <time>2020-07-03T13:14:13Z</time>
      </trkpt>
      <trkpt lat="47.12198" lon="0.86471">
        <ele>125.3</ele>
        <time>2020-07-03T13:14:14Z</time>
      </trkpt>
      <trkpt lat="47.12198" lon="0.8647">
        <ele>125.3</ele>
        <time>2020-07-03T13:14:15Z</time>
      </trkpt>
      <trkpt lat="47.12198" lon="0.86468">
        <ele>125.4</ele>
        <time>2020-07-03T13:14:16Z</time>
      </trkpt>
      <trkpt lat="47.12198" lon="0.86467">
        <ele>125.4</ele>
        <time>2020-07-03T13:14:17Z</time>
      </trkpt>
      <trkpt lat="47.12197" lon="0.86468">
        <ele>125.4</ele>
        <time>2020-07-03T13:14:18Z</time>
      </trkpt>
      <trkpt lat="47.12196" lon="0.86468">
        <ele>125.4</ele>
        <time>2020-07-03T13:14:19Z</time>
      </trkpt>
      <trkpt lat="47.12196" lon="0.86467">
        <ele>125.4</ele>
        <time>2020-07-03T13:14:20Z</time>
      </trkpt>
      <trkpt lat="47.12196" lon="0.86467">
        <ele>125.4</ele>
        <time>2020-07-03T13:14:21Z</time>
      </trkpt>
      <trkpt lat="47.12196" lon="0.86467">
        <ele>125.4</ele>
        <time>2020-07-03T13:14:22Z</time>
      </trkpt>
      <trkpt lat="47.12195" lon="0.86467">
        <ele>125.4</ele>
        <time>2020-07-03T13:14:23Z</time>
      </trkpt>
      <trkpt lat="47.12195" lon="0.86467">
        <ele>125.4</ele>
        <time>2020-07-03T13:14:24Z</time>
      </trkpt>
      <trkpt lat="47.12195" lon="0.86467">
        <ele>125.4</ele>
        <time>2020-07-03T13:14:25Z</time>
      </trkpt>
      <trkpt lat="47.12196" lon="0.86468">
        <ele>125.5</ele>
        <time>2020-07-03T13:14:26Z</time>
      </trkpt>
      <trkpt lat="47.12195" lon="0.86469">
        <ele>125.5</ele>
        <time>2020-07-03T13:14:27Z</time>
      </trkpt>
      <trkpt lat="47.12196" lon="0.86469">
        <ele>125.5</ele>
        <time>2020-07-03T13:14:28Z</time>
      </trkpt>
      <trkpt lat="47.12196" lon="0.8647">
        <ele>125.5</ele>
        <time>2020-07-03T13:14:29Z</time>
      </trkpt>
      <trkpt lat="47.12196" lon="0.86471">
        <ele>125.5</ele>
        <time>2020-07-03T13:14:30Z</time>
      </trkpt>
      <trkpt lat="47.12196" lon="0.86472">
        <ele>125.5</ele>
        <time>2020-07-03T13:14:31Z</time>
      </trkpt>
      <trkpt lat="47.12196" lon="0.86473">
        <ele>125.6</ele>
        <time>2020-07-03T13:14:32Z</time>
      </trkpt>
      <trkpt lat="47.12195" lon="0.86474">
        <ele>125.6</ele>
        <time>2020-07-03T13:14:33Z</time>
      </trkpt>
      <trkpt lat="47.12194" lon="0.86475">
        <ele>125.6</ele>
        <time>2020-07-03T13:14:34Z</time>
      </trkpt>
      <trkpt lat="47.12194" lon="0.86475">
        <ele>125.6</ele>
        <time>2020-07-03T13:14:35Z</time>
      </trkpt>
      <trkpt lat="47.12194" lon="0.86475">
        <ele>125.6</ele>
        <time>2020-07-03T13:14:36Z</time>
      </trkpt>
      <trkpt lat="47.12194" lon="0.86476">
        <ele>125.6</ele>
        <time>2020-07-03T13:14:37Z</time>
      </trkpt>
      <trkpt lat="47.12192" lon="0.86476">
        <ele>125.7</ele>
        <time>2020-07-03T13:14:38Z</time>
      </trkpt>
      <trkpt lat="47.12192" lon="0.86477">
        <ele>125.7</ele>
        <time>2020-07-03T13:14:39Z</time>
      </trkpt>
      <trkpt lat="47.12191" lon="0.86476">
        <ele>125.7</ele>
        <time>2020-07-03T13:14:40Z</time>
      </trkpt>
      <trkpt lat="47.1219" lon="0.86476">
        <ele>125.7</ele>
        <time>2020-07-03T13:14:41Z</time>
      </trkpt>
      <trkpt lat="47.12189" lon="0.86476">
        <ele>125.7</ele>
        <time>2020-07-03T13:14:42Z</time>
      </trkpt>
      <trkpt lat="47.12189" lon="0.86476">
        <ele>125.7</ele>
        <time>2020-07-03T13:14:43Z</time>
      </trkpt>
      <trkpt lat="47.12188" lon="0.86476">
        <ele>125.8</ele>
        <time>2020-07-03T13:14:44Z</time>
      </trkpt>
      <trkpt lat="47.12187" lon="0.86476">
        <ele>125.8</ele>
        <time>2020-07-03T13:14:45Z</time>
      </trkpt>
      <trkpt lat="47.12186" lon="0.86476">
        <ele>125.8</ele>
        <time>2020-07-03T13:14:46Z</time>
      </trkpt>
      <trkpt lat="47.12186" lon="0.86476">
        <ele>125.8</ele>
        <time>2020-07-03T13:14:47Z</time>
      </trkpt>
      <trkpt lat="47.12185" lon="0.86476">
        <ele>125.8</ele>
        <time>2020-07-03T13:14:48Z</time>
      </trkpt>
      <trkpt lat="47.12184" lon="0.86476">
        <ele>125.8</ele>
        <time>2020-07-03T13:14:49Z</time>
      </trkpt>
      <trkpt lat="47.12183" lon="0.86476">
        <ele>125.8</ele>
        <time>2020-07-03T13:14:50Z</time>
      </trkpt>
      <trkpt lat="47.12183" lon="0.86475">
        <ele>125.8</ele>
        <time>2020-07-03T13:14:51Z</time>
      </trkpt>
      <trkpt lat="47.12182" lon="0.86475">
        <ele>125.9</ele>
        <time>2020-07-03T13:15:48Z</time>
      </trkpt>
      <trkpt lat="47.12181" lon="0.86475">
        <ele>125.9</ele>
        <time>2020-07-03T13:15:49Z</time>
      </trkpt>
      <trkpt lat="47.12178" lon="0.86473">
        <ele>125.9</ele>
        <time>2020-07-03T13:15:50Z</time>
      </trkpt>
      <trkpt lat="47.12176" lon="0.86472">
        <ele>126</ele>
        <time>2020-07-03T13:15:51Z</time>
      </trkpt>
      <trkpt lat="47.12173" lon="0.8647">
        <ele>126</ele>
        <time>2020-07-03T13:15:52Z</time>
      </trkpt>
      <trkpt lat="47.12172" lon="0.86469">
        <ele>126.1</ele>
        <time>2020-07-03T13:15:53Z</time>
      </trkpt>
      <trkpt lat="47.12168" lon="0.86467">
        <ele>126.2</ele>
        <time>2020-07-03T13:15:54Z</time>
      </trkpt>
      <trkpt lat="47.12164" lon="0.86464">
        <ele>126.2</ele>
        <time>2020-07-03T13:15:55Z</time>
      </trkpt>
      <trkpt lat="47.12161" lon="0.86462">
        <ele>126.3</ele>
        <time>2020-07-03T13:15:56Z</time>
      </trkpt>
      <trkpt lat="47.12158" lon="0.8646">
        <ele>126.4</ele>
        <time>2020-07-03T13:15:57Z</time>
      </trkpt>
      <trkpt lat="47.12155" lon="0.86458">
        <ele>126.5</ele>
        <time>2020-07-03T13:15:58Z</time>
      </trkpt>
      <trkpt lat="47.12153" lon="0.86456">
        <ele>126.6</ele>
        <time>2020-07-03T13:15:59Z</time>
      </trkpt>
      <trkpt lat="47.1215" lon="0.86454">
        <ele>126.7</ele>
        <time>2020-07-03T13:16:00Z</time>
      </trkpt>
      <trkpt lat="47.12146" lon="0.86453">
        <ele>126.8</ele>
        <time>2020-07-03T13:16:01Z</time>
      </trkpt>
      <trkpt lat="47.12141" lon="0.8645">
        <ele>127</ele>
        <time>2020-07-03T13:16:02Z</time>
      </trkpt>
      <trkpt lat="47.12137" lon="0.86448">
        <ele>127.1</ele>
        <time>2020-07-03T13:16:03Z</time>
      </trkpt>
      <trkpt lat="47.12133" lon="0.86445">
        <ele>127.2</ele>
        <time>2020-07-03T13:16:04Z</time>
      </trkpt>
      <trkpt lat="47.12129" lon="0.86443">
        <ele>127.3</ele>
        <time>2020-07-03T13:16:05Z</time>
      </trkpt>
      <trkpt lat="47.12125" lon="0.86441">
        <ele>127.4</ele>
        <time>2020-07-03T13:16:06Z</time>
      </trkpt>
      <trkpt lat="47.12121" lon="0.86439">
        <ele>127.5</ele>
        <time>2020-07-03T13:16:07Z</time>
      </trkpt>
      <trkpt lat="47.12118" lon="0.86437">
        <ele>127.6</ele>
        <time>2020-07-03T13:16:08Z</time>
      </trkpt>
      <trkpt lat="47.12113" lon="0.86435">
        <ele>127.7</ele>
        <time>2020-07-03T13:16:09Z</time>
      </trkpt>
      <trkpt lat="47.12109" lon="0.86434">
        <ele>127.8</ele>
        <time>2020-07-03T13:16:10Z</time>
      </trkpt>
      <trkpt lat="47.12106" lon="0.86433">
        <ele>127.9</ele>
        <time>2020-07-03T13:16:11Z</time>
      </trkpt>
      <trkpt lat="47.12102" lon="0.8643">
        <ele>128</ele>
        <time>2020-07-03T13:16:12Z</time>
      </trkpt>
      <trkpt lat="47.12098" lon="0.86428">
        <ele>128.1</ele>
        <time>2020-07-03T13:16:13Z</time>
      </trkpt>
      <trkpt lat="47.12094" lon="0.86427">
        <ele>128.2</ele>
        <time>2020-07-03T13:16:14Z</time>
      </trkpt>
      <trkpt lat="47.12089" lon="0.86425">
        <ele>128.3</ele>
        <time>2020-07-03T13:16:15Z</time>
      </trkpt>
      <trkpt lat="47.12085" lon="0.86424">
        <ele>128.4</ele>
        <time>2020-07-03T13:16:16Z</time>
      </trkpt>
      <trkpt lat="47.12081" lon="0.86422">
        <ele>128.4</ele>
        <time>2020-07-03T13:16:17Z</time>
      </trkpt>
      <trkpt lat="47.12078" lon="0.8642">
        <ele>128.5</ele>
        <time>2020-07-03T13:16:18Z</time>
      </trkpt>
      <trkpt lat="47.12075" lon="0.86418">
        <ele>128.6</ele>
        <time>2020-07-03T13:16:19Z</time>
      </trkpt>
      <trkpt lat="47.12072" lon="0.86416">
        <ele>128.6</ele>
        <time>2020-07-03T13:16:20Z</time>
      </trkpt>
      <trkpt lat="47.12069" lon="0.86414">
        <ele>128.7</ele>
        <time>2020-07-03T13:16:21Z</time>
      </trkpt>
      <trkpt lat="47.12064" lon="0.86412">
        <ele>128.8</ele>
        <time>2020-07-03T13:16:22Z</time>
      </trkpt>
      <trkpt lat="47.1206" lon="0.8641">
        <ele>128.9</ele>
        <time>2020-07-03T13:16:23Z</time>
      </trkpt>
      <trkpt lat="47.12056" lon="0.86407">
        <ele>129</ele>
        <time>2020-07-03T13:16:24Z</time>
      </trkpt>
      <trkpt lat="47.12054" lon="0.86405">
        <ele>129</ele>
        <time>2020-07-03T13:16:25Z</time>
      </trkpt>
      <trkpt lat="47.1205" lon="0.86402">
        <ele>129.1</ele>
        <time>2020-07-03T13:16:26Z</time>
      </trkpt>
      <trkpt lat="47.12046" lon="0.864">
        <ele>129.3</ele>
        <time>2020-07-03T13:16:27Z</time>
      </trkpt>
      <trkpt lat="47.12042" lon="0.86397">
        <ele>129.4</ele>
        <time>2020-07-03T13:16:28Z</time>
      </trkpt>
      <trkpt lat="47.12038" lon="0.86395">
        <ele>129.5</ele>
        <time>2020-07-03T13:16:29Z</time>
      </trkpt>
      <trkpt lat="47.12034" lon="0.86391">
        <ele>129.6</ele>
        <time>2020-07-03T13:16:30Z</time>
      </trkpt>
      <trkpt lat="47.1203" lon="0.86389">
        <ele>129.7</ele>
        <time>2020-07-03T13:16:31Z</time>
      </trkpt>
      <trkpt lat="47.12027" lon="0.86386">
        <ele>129.9</ele>
        <time>2020-07-03T13:16:32Z</time>
      </trkpt>
      <trkpt lat="47.12021" lon="0.86385">
        <ele>129.8</ele>
        <time>2020-07-03T13:16:33Z</time>
      </trkpt>
      <trkpt lat="47.12015" lon="0.86381">
        <ele>129.8</ele>
        <time>2020-07-03T13:16:34Z</time>
      </trkpt>
      <trkpt lat="47.12011" lon="0.8638">
        <ele>129.7</ele>
        <time>2020-07-03T13:16:35Z</time>
      </trkpt>
      <trkpt lat="47.12006" lon="0.86378">
        <ele>129.7</ele>
        <time>2020-07-03T13:16:36Z</time>
      </trkpt>
      <trkpt lat="47.12001" lon="0.86377">
        <ele>129.7</ele>
        <time>2020-07-03T13:16:37Z</time>
      </trkpt>
      <trkpt lat="47.11995" lon="0.86374">
        <ele>129.7</ele>
        <time>2020-07-03T13:16:38Z</time>
      </trkpt>
      <trkpt lat="47.11988" lon="0.86371">
        <ele>129.8</ele>
        <time>2020-07-03T13:16:39Z</time>
      </trkpt>
      <trkpt lat="47.11982" lon="0.86368">
        <ele>129.8</ele>
        <time>2020-07-03T13:16:40Z</time>
      </trkpt>
      <trkpt lat="47.11977" lon="0.86366">
        <ele>129.9</ele>
        <time>2020-07-03T13:16:41Z</time>
      </trkpt>
      <trkpt lat="47.11972" lon="0.86363">
        <ele>130</ele>
        <time>2020-07-03T13:16:42Z</time>
      </trkpt>
      <trkpt lat="47.11967" lon="0.86361">
        <ele>130.1</ele>
        <time>2020-07-03T13:16:43Z</time>
      </trkpt>
      <trkpt lat="47.11962" lon="0.86358">
        <ele>130.1</ele>
        <time>2020-07-03T13:16:44Z</time>
      </trkpt>
      <trkpt lat="47.11957" lon="0.86356">
        <ele>130.2</ele>
        <time>2020-07-03T13:16:45Z</time>
      </trkpt>
      <trkpt lat="47.11952" lon="0.86354">
        <ele>130.2</ele>
        <time>2020-07-03T13:16:46Z</time>
      </trkpt>
      <trkpt lat="47.11948" lon="0.86353">
        <ele>130.3</ele>
        <time>2020-07-03T13:16:47Z</time>
      </trkpt>
      <trkpt lat="47.11943" lon="0.8635">
        <ele>130.3</ele>
        <time>2020-07-03T13:16:48Z</time>
      </trkpt>
      <trkpt lat="47.11938" lon="0.86348">
        <ele>130.3</ele>
        <time>2020-07-03T13:16:49Z</time>
      </trkpt>
      <trkpt lat="47.11934" lon="0.86346">
        <ele>130.3</ele>
        <time>2020-07-03T13:16:50Z</time>
      </trkpt>
      <trkpt lat="47.1193" lon="0.86344">
        <ele>130.3</ele>
        <time>2020-07-03T13:16:51Z</time>
      </trkpt>
      <trkpt lat="47.11926" lon="0.86341">
        <ele>130.3</ele>
        <time>2020-07-03T13:16:52Z</time>
      </trkpt>
      <trkpt lat="47.11922" lon="0.86338">
        <ele>130.2</ele>
        <time>2020-07-03T13:16:53Z</time>
      </trkpt>
      <trkpt lat="47.11917" lon="0.86336">
        <ele>130.2</ele>
        <time>2020-07-03T13:16:54Z</time>
      </trkpt>
      <trkpt lat="47.11912" lon="0.86333">
        <ele>130.1</ele>
        <time>2020-07-03T13:16:55Z</time>
      </trkpt>
      <trkpt lat="47.11907" lon="0.86331">
        <ele>130</ele>
        <time>2020-07-03T13:16:56Z</time>
      </trkpt>
      <trkpt lat="47.11902" lon="0.86328">
        <ele>130</ele>
        <time>2020-07-03T13:16:57Z</time>
      </trkpt>
      <trkpt lat="47.11895" lon="0.86326">
        <ele>129.9</ele>
        <time>2020-07-03T13:16:58Z</time>
      </trkpt>
      <trkpt lat="47.11889" lon="0.86323">
        <ele>129.7</ele>
        <time>2020-07-03T13:16:59Z</time>
      </trkpt>
      <trkpt lat="47.11883" lon="0.8632">
        <ele>129.6</ele>
        <time>2020-07-03T13:17:00Z</time>
      </trkpt>
      <trkpt lat="47.11877" lon="0.86317">
        <ele>129.5</ele>
        <time>2020-07-03T13:17:01Z</time>
      </trkpt>
      <trkpt lat="47.11871" lon="0.86314">
        <ele>129.4</ele>
        <time>2020-07-03T13:17:02Z</time>
      </trkpt>
      <trkpt lat="47.11865" lon="0.86311">
        <ele>129.3</ele>
        <time>2020-07-03T13:17:03Z</time>
      </trkpt>
      <trkpt lat="47.1186" lon="0.86308">
        <ele>129.1</ele>
        <time>2020-07-03T13:17:04Z</time>
      </trkpt>
      <trkpt lat="47.11853" lon="0.86304">
        <ele>128.9</ele>
        <time>2020-07-03T13:17:05Z</time>
      </trkpt>
      <trkpt lat="47.11847" lon="0.86301">
        <ele>128.7</ele>
        <time>2020-07-03T13:17:06Z</time>
      </trkpt>
      <trkpt lat="47.1184" lon="0.86298">
        <ele>128.6</ele>
        <time>2020-07-03T13:17:07Z</time>
      </trkpt>
      <trkpt lat="47.11834" lon="0.86295">
        <ele>128.4</ele>
        <time>2020-07-03T13:17:08Z</time>
      </trkpt>
      <trkpt lat="47.11828" lon="0.86292">
        <ele>128.3</ele>
        <time>2020-07-03T13:17:09Z</time>
      </trkpt>
      <trkpt lat="47.11822" lon="0.86288">
        <ele>128.1</ele>
        <time>2020-07-03T13:17:10Z</time>
      </trkpt>
      <trkpt lat="47.11815" lon="0.86285">
        <ele>127.9</ele>
        <time>2020-07-03T13:17:11Z</time>
      </trkpt>
      <trkpt lat="47.11809" lon="0.86281">
        <ele>127.8</ele>
        <time>2020-07-03T13:17:12Z</time>
      </trkpt>
      <trkpt lat="47.11803" lon="0.86277">
        <ele>127.7</ele>
        <time>2020-07-03T13:17:13Z</time>
      </trkpt>
      <trkpt lat="47.11798" lon="0.86273">
        <ele>127.7</ele>
        <time>2020-07-03T13:17:14Z</time>
      </trkpt>
      <trkpt lat="47.11792" lon="0.8627">
        <ele>127.6</ele>
        <time>2020-07-03T13:17:15Z</time>
      </trkpt>
      <trkpt lat="47.11786" lon="0.86267">
        <ele>127.5</ele>
        <time>2020-07-03T13:17:16Z</time>
      </trkpt>
      <trkpt lat="47.1178" lon="0.86264">
        <ele>127.3</ele>
        <time>2020-07-03T13:17:17Z</time>
      </trkpt>
      <trkpt lat="47.11775" lon="0.86261">
        <ele>127.2</ele>
        <time>2020-07-03T13:17:18Z</time>
      </trkpt>
      <trkpt lat="47.1177" lon="0.86257">
        <ele>127.1</ele>
        <time>2020-07-03T13:17:19Z</time>
      </trkpt>
      <trkpt lat="47.11764" lon="0.86254">
        <ele>127</ele>
        <time>2020-07-03T13:17:20Z</time>
      </trkpt>
      <trkpt lat="47.1176" lon="0.86252">
        <ele>126.9</ele>
        <time>2020-07-03T13:17:21Z</time>
      </trkpt>
      <trkpt lat="47.11754" lon="0.86248">
        <ele>126.8</ele>
        <time>2020-07-03T13:17:22Z</time>
      </trkpt>
      <trkpt lat="47.11748" lon="0.86246">
        <ele>126.8</ele>
        <time>2020-07-03T13:17:23Z</time>
      </trkpt>
      <trkpt lat="47.11742" lon="0.86244">
        <ele>126.7</ele>
        <time>2020-07-03T13:17:24Z</time>
      </trkpt>
      <trkpt lat="47.11736" lon="0.86241">
        <ele>126.6</ele>
        <time>2020-07-03T13:17:25Z</time>
      </trkpt>
      <trkpt lat="47.1173" lon="0.86239">
        <ele>126.5</ele>
        <time>2020-07-03T13:17:26Z</time>
      </trkpt>
      <trkpt lat="47.11725" lon="0.86236">
        <ele>126.4</ele>
        <time>2020-07-03T13:17:27Z</time>
      </trkpt>
      <trkpt lat="47.1172" lon="0.86234">
        <ele>126.3</ele>
        <time>2020-07-03T13:17:28Z</time>
      </trkpt>
      <trkpt lat="47.11714" lon="0.86231">
        <ele>126.3</ele>
        <time>2020-07-03T13:17:29Z</time>
      </trkpt>
      <trkpt lat="47.11708" lon="0.86229">
        <ele>126.2</ele>
        <time>2020-07-03T13:17:30Z</time>
      </trkpt>
      <trkpt lat="47.11702" lon="0.86227">
        <ele>126.2</ele>
        <time>2020-07-03T13:17:31Z</time>
      </trkpt>
      <trkpt lat="47.11696" lon="0.86224">
        <ele>126.3</ele>
        <time>2020-07-03T13:17:32Z</time>
      </trkpt>
      <trkpt lat="47.1169" lon="0.86221">
        <ele>126.3</ele>
        <time>2020-07-03T13:17:33Z</time>
      </trkpt>
      <trkpt lat="47.11684" lon="0.86217">
        <ele>126.3</ele>
        <time>2020-07-03T13:17:34Z</time>
      </trkpt>
      <trkpt lat="47.11678" lon="0.86214">
        <ele>126.4</ele>
        <time>2020-07-03T13:17:35Z</time>
      </trkpt>
      <trkpt lat="47.11673" lon="0.86212">
        <ele>126.4</ele>
        <time>2020-07-03T13:17:36Z</time>
      </trkpt>
      <trkpt lat="47.11668" lon="0.86209">
        <ele>126.4</ele>
        <time>2020-07-03T13:17:37Z</time>
      </trkpt>
      <trkpt lat="47.11663" lon="0.86206">
        <ele>126.4</ele>
        <time>2020-07-03T13:17:38Z</time>
      </trkpt>
      <trkpt lat="47.11658" lon="0.86204">
        <ele>126.5</ele>
        <time>2020-07-03T13:17:39Z</time>
      </trkpt>
      <trkpt lat="47.11652" lon="0.862">
        <ele>126.5</ele>
        <time>2020-07-03T13:17:40Z</time>
      </trkpt>
      <trkpt lat="47.11647" lon="0.86198">
        <ele>126.6</ele>
        <time>2020-07-03T13:17:41Z</time>
      </trkpt>
      <trkpt lat="47.11642" lon="0.86195">
        <ele>126.6</ele>
        <time>2020-07-03T13:17:42Z</time>
      </trkpt>
      <trkpt lat="47.11637" lon="0.86192">
        <ele>126.7</ele>
        <time>2020-07-03T13:17:43Z</time>
      </trkpt>
      <trkpt lat="47.11632" lon="0.86189">
        <ele>126.8</ele>
        <time>2020-07-03T13:17:44Z</time>
      </trkpt>
      <trkpt lat="47.11627" lon="0.86187">
        <ele>126.9</ele>
        <time>2020-07-03T13:17:45Z</time>
      </trkpt>
      <trkpt lat="47.11621" lon="0.86184">
        <ele>127</ele>
        <time>2020-07-03T13:17:46Z</time>
      </trkpt>
      <trkpt lat="47.11615" lon="0.86182">
        <ele>127.1</ele>
        <time>2020-07-03T13:17:47Z</time>
      </trkpt>
      <trkpt lat="47.1161" lon="0.8618">
        <ele>127.2</ele>
        <time>2020-07-03T13:17:48Z</time>
      </trkpt>
      <trkpt lat="47.11605" lon="0.86177">
        <ele>127.2</ele>
        <time>2020-07-03T13:17:49Z</time>
      </trkpt>
      <trkpt lat="47.116" lon="0.86173">
        <ele>127.3</ele>
        <time>2020-07-03T13:17:50Z</time>
      </trkpt>
      <trkpt lat="47.11594" lon="0.8617">
        <ele>127.4</ele>
        <time>2020-07-03T13:17:51Z</time>
      </trkpt>
      <trkpt lat="47.11589" lon="0.86168">
        <ele>127.4</ele>
        <time>2020-07-03T13:17:52Z</time>
      </trkpt>
      <trkpt lat="47.11584" lon="0.86165">
        <ele>127.4</ele>
        <time>2020-07-03T13:17:53Z</time>
      </trkpt>
      <trkpt lat="47.11579" lon="0.86162">
        <ele>127.5</ele>
        <time>2020-07-03T13:17:54Z</time>
      </trkpt>
      <trkpt lat="47.11574" lon="0.8616">
        <ele>127.5</ele>
        <time>2020-07-03T13:17:55Z</time>
      </trkpt>
      <trkpt lat="47.1157" lon="0.86158">
        <ele>127.5</ele>
        <time>2020-07-03T13:17:56Z</time>
      </trkpt>
      <trkpt lat="47.11565" lon="0.86155">
        <ele>127.5</ele>
        <time>2020-07-03T13:17:57Z</time>
      </trkpt>
      <trkpt lat="47.1156" lon="0.86152">
        <ele>127.6</ele>
        <time>2020-07-03T13:17:58Z</time>
      </trkpt>
      <trkpt lat="47.11555" lon="0.86149">
        <ele>127.6</ele>
        <time>2020-07-03T13:17:59Z</time>
      </trkpt>
      <trkpt lat="47.1155" lon="0.86146">
        <ele>127.6</ele>
        <time>2020-07-03T13:18:00Z</time>
      </trkpt>
      <trkpt lat="47.11546" lon="0.86143">
        <ele>127.5</ele>
        <time>2020-07-03T13:18:01Z</time>
      </trkpt>
      <trkpt lat="47.1154" lon="0.86141">
        <ele>127.5</ele>
        <time>2020-07-03T13:18:02Z</time>
      </trkpt>
      <trkpt lat="47.11534" lon="0.86138">
        <ele>127.5</ele>
        <time>2020-07-03T13:18:03Z</time>
      </trkpt>
      <trkpt lat="47.11528" lon="0.86135">
        <ele>127.5</ele>
        <time>2020-07-03T13:18:04Z</time>
      </trkpt>
      <trkpt lat="47.11523" lon="0.86132">
        <ele>127.5</ele>
        <time>2020-07-03T13:18:05Z</time>
      </trkpt>
      <trkpt lat="47.11518" lon="0.86129">
        <ele>127.4</ele>
        <time>2020-07-03T13:18:06Z</time>
      </trkpt>
      <trkpt lat="47.11512" lon="0.86126">
        <ele>127.4</ele>
        <time>2020-07-03T13:18:07Z</time>
      </trkpt>
      <trkpt lat="47.11506" lon="0.86122">
        <ele>127.3</ele>
        <time>2020-07-03T13:18:08Z</time>
      </trkpt>
      <trkpt lat="47.115" lon="0.86119">
        <ele>127.3</ele>
        <time>2020-07-03T13:18:09Z</time>
      </trkpt>
      <trkpt lat="47.11493" lon="0.86115">
        <ele>127.2</ele>
        <time>2020-07-03T13:18:10Z</time>
      </trkpt>
      <trkpt lat="47.11486" lon="0.86111">
        <ele>127.1</ele>
        <time>2020-07-03T13:18:11Z</time>
      </trkpt>
      <trkpt lat="47.11479" lon="0.86108">
        <ele>127</ele>
        <time>2020-07-03T13:18:12Z</time>
      </trkpt>
      <trkpt lat="47.11471" lon="0.86105">
        <ele>126.9</ele>
        <time>2020-07-03T13:18:13Z</time>
      </trkpt>
      <trkpt lat="47.11464" lon="0.86102">
        <ele>126.8</ele>
        <time>2020-07-03T13:18:14Z</time>
      </trkpt>
      <trkpt lat="47.11458" lon="0.86098">
        <ele>126.7</ele>
        <time>2020-07-03T13:18:15Z</time>
      </trkpt>
      <trkpt lat="47.11451" lon="0.86095">
        <ele>126.7</ele>
        <time>2020-07-03T13:18:16Z</time>
      </trkpt>
      <trkpt lat="47.11444" lon="0.86091">
        <ele>126.7</ele>
        <time>2020-07-03T13:18:17Z</time>
      </trkpt>
      <trkpt lat="47.11437" lon="0.86088">
        <ele>126.6</ele>
        <time>2020-07-03T13:18:18Z</time>
      </trkpt>
      <trkpt lat="47.11429" lon="0.86084">
        <ele>126.6</ele>
        <time>2020-07-03T13:18:19Z</time>
      </trkpt>
      <trkpt lat="47.11423" lon="0.86081">
        <ele>126.6</ele>
        <time>2020-07-03T13:18:20Z</time>
      </trkpt>
      <trkpt lat="47.11416" lon="0.86077">
        <ele>126.6</ele>
        <time>2020-07-03T13:18:21Z</time>
      </trkpt>
      <trkpt lat="47.1141" lon="0.86074">
        <ele>126.6</ele>
        <time>2020-07-03T13:18:22Z</time>
      </trkpt>
      <trkpt lat="47.11403" lon="0.86071">
        <ele>126.6</ele>
        <time>2020-07-03T13:18:23Z</time>
      </trkpt>
      <trkpt lat="47.11397" lon="0.86067">
        <ele>126.6</ele>
        <time>2020-07-03T13:18:24Z</time>
      </trkpt>
      <trkpt lat="47.1139" lon="0.86063">
        <ele>126.5</ele>
        <time>2020-07-03T13:18:25Z</time>
      </trkpt>
      <trkpt lat="47.11384" lon="0.8606">
        <ele>126.5</ele>
        <time>2020-07-03T13:18:26Z</time>
      </trkpt>
      <trkpt lat="47.11377" lon="0.86057">
        <ele>126.5</ele>
        <time>2020-07-03T13:18:27Z</time>
      </trkpt>
      <trkpt lat="47.1137" lon="0.86054">
        <ele>126.5</ele>
        <time>2020-07-03T13:18:28Z</time>
      </trkpt>
      <trkpt lat="47.11364" lon="0.86051">
        <ele>126.6</ele>
        <time>2020-07-03T13:18:29Z</time>
      </trkpt>
      <trkpt lat="47.11357" lon="0.86047">
        <ele>126.6</ele>
        <time>2020-07-03T13:18:30Z</time>
      </trkpt>
      <trkpt lat="47.1135" lon="0.86045">
        <ele>126.7</ele>
        <time>2020-07-03T13:18:31Z</time>
      </trkpt>
      <trkpt lat="47.11343" lon="0.86042">
        <ele>126.6</ele>
        <time>2020-07-03T13:18:32Z</time>
      </trkpt>
      <trkpt lat="47.11337" lon="0.86039">
        <ele>126.6</ele>
        <time>2020-07-03T13:18:33Z</time>
      </trkpt>
      <trkpt lat="47.11331" lon="0.86035">
        <ele>126.5</ele>
        <time>2020-07-03T13:18:34Z</time>
      </trkpt>
      <trkpt lat="47.11326" lon="0.86033">
        <ele>126.4</ele>
        <time>2020-07-03T13:18:35Z</time>
      </trkpt>
      <trkpt lat="47.11321" lon="0.8603">
        <ele>126.4</ele>
        <time>2020-07-03T13:18:36Z</time>
      </trkpt>
      <trkpt lat="47.11315" lon="0.86028">
        <ele>126.3</ele>
        <time>2020-07-03T13:18:37Z</time>
      </trkpt>
      <trkpt lat="47.1131" lon="0.86025">
        <ele>126.3</ele>
        <time>2020-07-03T13:18:38Z</time>
      </trkpt>
      <trkpt lat="47.11304" lon="0.86022">
        <ele>126.3</ele>
        <time>2020-07-03T13:18:39Z</time>
      </trkpt>
      <trkpt lat="47.11298" lon="0.8602">
        <ele>126.3</ele>
        <time>2020-07-03T13:18:40Z</time>
      </trkpt>
      <trkpt lat="47.11292" lon="0.86017">
        <ele>126.3</ele>
        <time>2020-07-03T13:18:41Z</time>
      </trkpt>
      <trkpt lat="47.11287" lon="0.86013">
        <ele>126.2</ele>
        <time>2020-07-03T13:18:42Z</time>
      </trkpt>
      <trkpt lat="47.11282" lon="0.86009">
        <ele>126.1</ele>
        <time>2020-07-03T13:18:43Z</time>
      </trkpt>
      <trkpt lat="47.11276" lon="0.86005">
        <ele>126</ele>
        <time>2020-07-03T13:18:44Z</time>
      </trkpt>
      <trkpt lat="47.11269" lon="0.86002">
        <ele>125.9</ele>
        <time>2020-07-03T13:18:45Z</time>
      </trkpt>
      <trkpt lat="47.11262" lon="0.85998">
        <ele>125.8</ele>
        <time>2020-07-03T13:18:46Z</time>
      </trkpt>
      <trkpt lat="47.11257" lon="0.85995">
        <ele>125.7</ele>
        <time>2020-07-03T13:18:47Z</time>
      </trkpt>
      <trkpt lat="47.11251" lon="0.85992">
        <ele>125.6</ele>
        <time>2020-07-03T13:18:48Z</time>
      </trkpt>
      <trkpt lat="47.11243" lon="0.85988">
        <ele>125.4</ele>
        <time>2020-07-03T13:18:49Z</time>
      </trkpt>
      <trkpt lat="47.11236" lon="0.85984">
        <ele>125.2</ele>
        <time>2020-07-03T13:18:50Z</time>
      </trkpt>
      <trkpt lat="47.11229" lon="0.85979">
        <ele>125</ele>
        <time>2020-07-03T13:18:51Z</time>
      </trkpt>
      <trkpt lat="47.11223" lon="0.85976">
        <ele>124.8</ele>
        <time>2020-07-03T13:18:52Z</time>
      </trkpt>
      <trkpt lat="47.11218" lon="0.85972">
        <ele>124.7</ele>
        <time>2020-07-03T13:18:53Z</time>
      </trkpt>
      <trkpt lat="47.11212" lon="0.85969">
        <ele>124.6</ele>
        <time>2020-07-03T13:18:54Z</time>
      </trkpt>
      <trkpt lat="47.11207" lon="0.85967">
        <ele>124.5</ele>
        <time>2020-07-03T13:18:55Z</time>
      </trkpt>
      <trkpt lat="47.11202" lon="0.85963">
        <ele>124.4</ele>
        <time>2020-07-03T13:18:56Z</time>
      </trkpt>
      <trkpt lat="47.11195" lon="0.8596">
        <ele>124.3</ele>
        <time>2020-07-03T13:18:57Z</time>
      </trkpt>
      <trkpt lat="47.1119" lon="0.85958">
        <ele>124.2</ele>
        <time>2020-07-03T13:18:58Z</time>
      </trkpt>
      <trkpt lat="47.11183" lon="0.85954">
        <ele>124.1</ele>
        <time>2020-07-03T13:18:59Z</time>
      </trkpt>
      <trkpt lat="47.11177" lon="0.8595">
        <ele>123.9</ele>
        <time>2020-07-03T13:19:00Z</time>
      </trkpt>
      <trkpt lat="47.11171" lon="0.85947">
        <ele>123.7</ele>
        <time>2020-07-03T13:19:01Z</time>
      </trkpt>
      <trkpt lat="47.11165" lon="0.85943">
        <ele>123.6</ele>
        <time>2020-07-03T13:19:02Z</time>
      </trkpt>
      <trkpt lat="47.11161" lon="0.8594">
        <ele>123.5</ele>
        <time>2020-07-03T13:19:03Z</time>
      </trkpt>
      <trkpt lat="47.11154" lon="0.85936">
        <ele>123.4</ele>
        <time>2020-07-03T13:19:04Z</time>
      </trkpt>
      <trkpt lat="47.11146" lon="0.85933">
        <ele>123.2</ele>
        <time>2020-07-03T13:19:05Z</time>
      </trkpt>
      <trkpt lat="47.11139" lon="0.85929">
        <ele>123.1</ele>
        <time>2020-07-03T13:19:06Z</time>
      </trkpt>
      <trkpt lat="47.11133" lon="0.85926">
        <ele>123</ele>
        <time>2020-07-03T13:19:07Z</time>
      </trkpt>
      <trkpt lat="47.11129" lon="0.85924">
        <ele>123</ele>
        <time>2020-07-03T13:19:08Z</time>
      </trkpt>
      <trkpt lat="47.11123" lon="0.85918">
        <ele>122.9</ele>
        <time>2020-07-03T13:19:09Z</time>
      </trkpt>
      <trkpt lat="47.11117" lon="0.85915">
        <ele>122.8</ele>
        <time>2020-07-03T13:19:10Z</time>
      </trkpt>
      <trkpt lat="47.11109" lon="0.85912">
        <ele>122.8</ele>
        <time>2020-07-03T13:19:11Z</time>
      </trkpt>
      <trkpt lat="47.11101" lon="0.85909">
        <ele>122.8</ele>
        <time>2020-07-03T13:19:12Z</time>
      </trkpt>
      <trkpt lat="47.11095" lon="0.85905">
        <ele>122.9</ele>
        <time>2020-07-03T13:19:13Z</time>
      </trkpt>
      <trkpt lat="47.11088" lon="0.859">
        <ele>123</ele>
        <time>2020-07-03T13:19:14Z</time>
      </trkpt>
      <trkpt lat="47.11081" lon="0.85898">
        <ele>123.1</ele>
        <time>2020-07-03T13:19:15Z</time>
      </trkpt>
      <trkpt lat="47.11074" lon="0.85896">
        <ele>123.2</ele>
        <time>2020-07-03T13:19:16Z</time>
      </trkpt>
      <trkpt lat="47.11068" lon="0.85893">
        <ele>123.2</ele>
        <time>2020-07-03T13:19:17Z</time>
      </trkpt>
      <trkpt lat="47.11061" lon="0.85891">
        <ele>123.3</ele>
        <time>2020-07-03T13:19:18Z</time>
      </trkpt>
      <trkpt lat="47.11054" lon="0.85888">
        <ele>123.3</ele>
        <time>2020-07-03T13:19:19Z</time>
      </trkpt>
      <trkpt lat="47.11047" lon="0.85885">
        <ele>123.4</ele>
        <time>2020-07-03T13:19:20Z</time>
      </trkpt>
      <trkpt lat="47.1104" lon="0.85882">
        <ele>123.5</ele>
        <time>2020-07-03T13:19:21Z</time>
      </trkpt>
      <trkpt lat="47.11034" lon="0.85879">
        <ele>123.6</ele>
        <time>2020-07-03T13:19:22Z</time>
      </trkpt>
      <trkpt lat="47.11027" lon="0.85877">
        <ele>123.7</ele>
        <time>2020-07-03T13:19:23Z</time>
      </trkpt>
      <trkpt lat="47.11021" lon="0.85874">
        <ele>123.8</ele>
        <time>2020-07-03T13:19:24Z</time>
      </trkpt>
      <trkpt lat="47.11016" lon="0.85871">
        <ele>123.9</ele>
        <time>2020-07-03T13:19:25Z</time>
      </trkpt>
      <trkpt lat="47.1101" lon="0.85869">
        <ele>124</ele>
        <time>2020-07-03T13:19:26Z</time>
      </trkpt>
      <trkpt lat="47.11004" lon="0.85867">
        <ele>124</ele>
        <time>2020-07-03T13:19:27Z</time>
      </trkpt>
      <trkpt lat="47.10998" lon="0.85864">
        <ele>124</ele>
        <time>2020-07-03T13:19:28Z</time>
      </trkpt>
      <trkpt lat="47.10992" lon="0.85862">
        <ele>124.1</ele>
        <time>2020-07-03T13:19:29Z</time>
      </trkpt>
      <trkpt lat="47.10987" lon="0.85859">
        <ele>124.1</ele>
        <time>2020-07-03T13:19:30Z</time>
      </trkpt>
      <trkpt lat="47.10982" lon="0.85857">
        <ele>124.2</ele>
        <time>2020-07-03T13:19:31Z</time>
      </trkpt>
      <trkpt lat="47.10976" lon="0.85854">
        <ele>124.2</ele>
        <time>2020-07-03T13:19:32Z</time>
      </trkpt>
      <trkpt lat="47.10971" lon="0.85852">
        <ele>124.3</ele>
        <time>2020-07-03T13:19:33Z</time>
      </trkpt>
      <trkpt lat="47.10965" lon="0.8585">
        <ele>124.4</ele>
        <time>2020-07-03T13:19:34Z</time>
      </trkpt>
      <trkpt lat="47.10958" lon="0.85847">
        <ele>124.5</ele>
        <time>2020-07-03T13:19:35Z</time>
      </trkpt>
      <trkpt lat="47.10954" lon="0.85844">
        <ele>124.6</ele>
        <time>2020-07-03T13:19:36Z</time>
      </trkpt>
      <trkpt lat="47.10948" lon="0.8584">
        <ele>124.7</ele>
        <time>2020-07-03T13:19:37Z</time>
      </trkpt>
      <trkpt lat="47.10943" lon="0.85838">
        <ele>124.8</ele>
        <time>2020-07-03T13:19:38Z</time>
      </trkpt>
      <trkpt lat="47.10938" lon="0.85835">
        <ele>124.9</ele>
        <time>2020-07-03T13:19:39Z</time>
      </trkpt>
      <trkpt lat="47.10934" lon="0.85832">
        <ele>125</ele>
        <time>2020-07-03T13:19:40Z</time>
      </trkpt>
      <trkpt lat="47.10929" lon="0.85829">
        <ele>125.1</ele>
        <time>2020-07-03T13:19:41Z</time>
      </trkpt>
      <trkpt lat="47.10923" lon="0.85826">
        <ele>125.1</ele>
        <time>2020-07-03T13:19:42Z</time>
      </trkpt>
      <trkpt lat="47.10917" lon="0.85822">
        <ele>125.2</ele>
        <time>2020-07-03T13:19:43Z</time>
      </trkpt>
      <trkpt lat="47.10912" lon="0.8582">
        <ele>125.3</ele>
        <time>2020-07-03T13:19:44Z</time>
      </trkpt>
      <trkpt lat="47.10907" lon="0.85817">
        <ele>125.3</ele>
        <time>2020-07-03T13:19:45Z</time>
      </trkpt>
      <trkpt lat="47.10903" lon="0.85815">
        <ele>125.4</ele>
        <time>2020-07-03T13:19:46Z</time>
      </trkpt>
      <trkpt lat="47.10898" lon="0.85812">
        <ele>125.5</ele>
        <time>2020-07-03T13:19:47Z</time>
      </trkpt>
      <trkpt lat="47.10894" lon="0.8581">
        <ele>125.5</ele>
        <time>2020-07-03T13:19:48Z</time>
      </trkpt>
      <trkpt lat="47.10889" lon="0.85807">
        <ele>125.6</ele>
        <time>2020-07-03T13:19:49Z</time>
      </trkpt>
      <trkpt lat="47.10883" lon="0.85805">
        <ele>125.7</ele>
        <time>2020-07-03T13:19:50Z</time>
      </trkpt>
      <trkpt lat="47.10878" lon="0.85802">
        <ele>125.7</ele>
        <time>2020-07-03T13:19:51Z</time>
      </trkpt>
      <trkpt lat="47.10874" lon="0.858">
        <ele>125.8</ele>
        <time>2020-07-03T13:19:52Z</time>
      </trkpt>
      <trkpt lat="47.10869" lon="0.85797">
        <ele>125.8</ele>
        <time>2020-07-03T13:19:53Z</time>
      </trkpt>
      <trkpt lat="47.10863" lon="0.85795">
        <ele>125.9</ele>
        <time>2020-07-03T13:19:54Z</time>
      </trkpt>
      <trkpt lat="47.10858" lon="0.85792">
        <ele>126</ele>
        <time>2020-07-03T13:19:55Z</time>
      </trkpt>
      <trkpt lat="47.10853" lon="0.8579">
        <ele>126.1</ele>
        <time>2020-07-03T13:19:56Z</time>
      </trkpt>
      <trkpt lat="47.10848" lon="0.85788">
        <ele>126.3</ele>
        <time>2020-07-03T13:19:57Z</time>
      </trkpt>
      <trkpt lat="47.10842" lon="0.85785">
        <ele>126.4</ele>
        <time>2020-07-03T13:19:58Z</time>
      </trkpt>
      <trkpt lat="47.10836" lon="0.85782">
        <ele>126.6</ele>
        <time>2020-07-03T13:19:59Z</time>
      </trkpt>
      <trkpt lat="47.1083" lon="0.8578">
        <ele>126.7</ele>
        <time>2020-07-03T13:20:00Z</time>
      </trkpt>
      <trkpt lat="47.10825" lon="0.85779">
        <ele>126.8</ele>
        <time>2020-07-03T13:20:01Z</time>
      </trkpt>
      <trkpt lat="47.1082" lon="0.85776">
        <ele>126.9</ele>
        <time>2020-07-03T13:20:02Z</time>
      </trkpt>
      <trkpt lat="47.10816" lon="0.85774">
        <ele>127.1</ele>
        <time>2020-07-03T13:20:03Z</time>
      </trkpt>
      <trkpt lat="47.1081" lon="0.85772">
        <ele>127.2</ele>
        <time>2020-07-03T13:20:04Z</time>
      </trkpt>
      <trkpt lat="47.10806" lon="0.8577">
        <ele>127.4</ele>
        <time>2020-07-03T13:20:05Z</time>
      </trkpt>
      <trkpt lat="47.10801" lon="0.8577">
        <ele>127.5</ele>
        <time>2020-07-03T13:20:06Z</time>
      </trkpt>
      <trkpt lat="47.10796" lon="0.85769">
        <ele>127.6</ele>
        <time>2020-07-03T13:20:07Z</time>
      </trkpt>
      <trkpt lat="47.10789" lon="0.85767">
        <ele>127.7</ele>
        <time>2020-07-03T13:20:08Z</time>
      </trkpt>
      <trkpt lat="47.10784" lon="0.85766">
        <ele>127.8</ele>
        <time>2020-07-03T13:20:09Z</time>
      </trkpt>
      <trkpt lat="47.10779" lon="0.85765">
        <ele>127.9</ele>
        <time>2020-07-03T13:20:10Z</time>
      </trkpt>
      <trkpt lat="47.10775" lon="0.85763">
        <ele>128</ele>
        <time>2020-07-03T13:20:11Z</time>
      </trkpt>
      <trkpt lat="47.1077" lon="0.85762">
        <ele>128.1</ele>
        <time>2020-07-03T13:20:12Z</time>
      </trkpt>
      <trkpt lat="47.10765" lon="0.85761">
        <ele>128.2</ele>
        <time>2020-07-03T13:20:13Z</time>
      </trkpt>
      <trkpt lat="47.1076" lon="0.85759">
        <ele>128.3</ele>
        <time>2020-07-03T13:20:14Z</time>
      </trkpt>
      <trkpt lat="47.10757" lon="0.85758">
        <ele>128.4</ele>
        <time>2020-07-03T13:20:15Z</time>
      </trkpt>
      <trkpt lat="47.10753" lon="0.85757">
        <ele>128.5</ele>
        <time>2020-07-03T13:20:16Z</time>
      </trkpt>
      <trkpt lat="47.10748" lon="0.85755">
        <ele>128.5</ele>
        <time>2020-07-03T13:20:17Z</time>
      </trkpt>
      <trkpt lat="47.10746" lon="0.85754">
        <ele>128.6</ele>
        <time>2020-07-03T13:20:18Z</time>
      </trkpt>
      <trkpt lat="47.1074" lon="0.85754">
        <ele>128.7</ele>
        <time>2020-07-03T13:20:19Z</time>
      </trkpt>
      <trkpt lat="47.10735" lon="0.85754">
        <ele>128.8</ele>
        <time>2020-07-03T13:20:20Z</time>
      </trkpt>
      <trkpt lat="47.10729" lon="0.85753">
        <ele>128.9</ele>
        <time>2020-07-03T13:20:21Z</time>
      </trkpt>
      <trkpt lat="47.10724" lon="0.85753">
        <ele>128.9</ele>
        <time>2020-07-03T13:20:22Z</time>
      </trkpt>
      <trkpt lat="47.10719" lon="0.85752">
        <ele>129</ele>
        <time>2020-07-03T13:20:23Z</time>
      </trkpt>
      <trkpt lat="47.10715" lon="0.85751">
        <ele>129.1</ele>
        <time>2020-07-03T13:20:24Z</time>
      </trkpt>
      <trkpt lat="47.1071" lon="0.85751">
        <ele>129.1</ele>
        <time>2020-07-03T13:20:25Z</time>
      </trkpt>
      <trkpt lat="47.10705" lon="0.8575">
        <ele>129.2</ele>
        <time>2020-07-03T13:20:26Z</time>
      </trkpt>
      <trkpt lat="47.10701" lon="0.85749">
        <ele>129.2</ele>
        <time>2020-07-03T13:20:27Z</time>
      </trkpt>
      <trkpt lat="47.10695" lon="0.85748">
        <ele>129.3</ele>
        <time>2020-07-03T13:20:28Z</time>
      </trkpt>
      <trkpt lat="47.10691" lon="0.85747">
        <ele>129.3</ele>
        <time>2020-07-03T13:20:29Z</time>
      </trkpt>
      <trkpt lat="47.10686" lon="0.85747">
        <ele>129.4</ele>
        <time>2020-07-03T13:20:30Z</time>
      </trkpt>
      <trkpt lat="47.10681" lon="0.85747">
        <ele>129.4</ele>
        <time>2020-07-03T13:20:31Z</time>
      </trkpt>
      <trkpt lat="47.10677" lon="0.85748">
        <ele>129.4</ele>
        <time>2020-07-03T13:20:32Z</time>
      </trkpt>
      <trkpt lat="47.1067" lon="0.85747">
        <ele>129.4</ele>
        <time>2020-07-03T13:20:33Z</time>
      </trkpt>
      <trkpt lat="47.10666" lon="0.85748">
        <ele>129.4</ele>
        <time>2020-07-03T13:20:34Z</time>
      </trkpt>
      <trkpt lat="47.10661" lon="0.85747">
        <ele>129.4</ele>
        <time>2020-07-03T13:20:35Z</time>
      </trkpt>
      <trkpt lat="47.10655" lon="0.85746">
        <ele>129.4</ele>
        <time>2020-07-03T13:20:36Z</time>
      </trkpt>
      <trkpt lat="47.1065" lon="0.85745">
        <ele>129.4</ele>
        <time>2020-07-03T13:20:37Z</time>
      </trkpt>
      <trkpt lat="47.10645" lon="0.85745">
        <ele>129.5</ele>
        <time>2020-07-03T13:20:38Z</time>
      </trkpt>
      <trkpt lat="47.10641" lon="0.85743">
        <ele>129.5</ele>
        <time>2020-07-03T13:20:39Z</time>
      </trkpt>
      <trkpt lat="47.10637" lon="0.85743">
        <ele>129.6</ele>
        <time>2020-07-03T13:20:40Z</time>
      </trkpt>
      <trkpt lat="47.1063" lon="0.85741">
        <ele>129.6</ele>
        <time>2020-07-03T13:20:41Z</time>
      </trkpt>
      <trkpt lat="47.10625" lon="0.85741">
        <ele>129.6</ele>
        <time>2020-07-03T13:20:42Z</time>
      </trkpt>
      <trkpt lat="47.10616" lon="0.8574">
        <ele>129.6</ele>
        <time>2020-07-03T13:20:43Z</time>
      </trkpt>
      <trkpt lat="47.1061" lon="0.85739">
        <ele>129.6</ele>
        <time>2020-07-03T13:20:44Z</time>
      </trkpt>
      <trkpt lat="47.10605" lon="0.85739">
        <ele>129.7</ele>
        <time>2020-07-03T13:20:45Z</time>
      </trkpt>
      <trkpt lat="47.106" lon="0.85738">
        <ele>129.7</ele>
        <time>2020-07-03T13:20:46Z</time>
      </trkpt>
      <trkpt lat="47.10594" lon="0.85738">
        <ele>129.7</ele>
        <time>2020-07-03T13:20:47Z</time>
      </trkpt>
      <trkpt lat="47.10588" lon="0.85737">
        <ele>129.8</ele>
        <time>2020-07-03T13:20:48Z</time>
      </trkpt>
      <trkpt lat="47.10582" lon="0.85735">
        <ele>129.8</ele>
        <time>2020-07-03T13:20:49Z</time>
      </trkpt>
      <trkpt lat="47.10577" lon="0.85734">
        <ele>129.9</ele>
        <time>2020-07-03T13:20:50Z</time>
      </trkpt>
      <trkpt lat="47.10571" lon="0.85735">
        <ele>129.9</ele>
        <time>2020-07-03T13:20:51Z</time>
      </trkpt>
      <trkpt lat="47.10565" lon="0.85736">
        <ele>129.9</ele>
        <time>2020-07-03T13:20:52Z</time>
      </trkpt>
      <trkpt lat="47.10559" lon="0.85737">
        <ele>129.9</ele>
        <time>2020-07-03T13:20:53Z</time>
      </trkpt>
      <trkpt lat="47.10554" lon="0.85737">
        <ele>129.9</ele>
        <time>2020-07-03T13:20:54Z</time>
      </trkpt>
      <trkpt lat="47.10549" lon="0.85737">
        <ele>129.9</ele>
        <time>2020-07-03T13:20:55Z</time>
      </trkpt>
      <trkpt lat="47.10544" lon="0.85735">
        <ele>129.9</ele>
        <time>2020-07-03T13:20:56Z</time>
      </trkpt>
      <trkpt lat="47.10538" lon="0.85734">
        <ele>129.8</ele>
        <time>2020-07-03T13:20:57Z</time>
      </trkpt>
      <trkpt lat="47.10532" lon="0.85733">
        <ele>129.7</ele>
        <time>2020-07-03T13:20:58Z</time>
      </trkpt>
      <trkpt lat="47.10527" lon="0.85732">
        <ele>129.5</ele>
        <time>2020-07-03T13:20:59Z</time>
      </trkpt>
      <trkpt lat="47.1052" lon="0.8573">
        <ele>129.3</ele>
        <time>2020-07-03T13:21:00Z</time>
      </trkpt>
      <trkpt lat="47.10514" lon="0.85729">
        <ele>129.1</ele>
        <time>2020-07-03T13:21:01Z</time>
      </trkpt>
      <trkpt lat="47.10509" lon="0.85727">
        <ele>128.9</ele>
        <time>2020-07-03T13:21:02Z</time>
      </trkpt>
      <trkpt lat="47.10503" lon="0.85727">
        <ele>128.7</ele>
        <time>2020-07-03T13:21:03Z</time>
      </trkpt>
      <trkpt lat="47.10497" lon="0.85726">
        <ele>128.4</ele>
        <time>2020-07-03T13:21:04Z</time>
      </trkpt>
      <trkpt lat="47.10491" lon="0.85724">
        <ele>128.2</ele>
        <time>2020-07-03T13:21:05Z</time>
      </trkpt>
      <trkpt lat="47.10483" lon="0.85723">
        <ele>127.9</ele>
        <time>2020-07-03T13:21:06Z</time>
      </trkpt>
      <trkpt lat="47.10476" lon="0.85721">
        <ele>127.6</ele>
        <time>2020-07-03T13:21:07Z</time>
      </trkpt>
      <trkpt lat="47.10469" lon="0.8572">
        <ele>127.3</ele>
        <time>2020-07-03T13:21:08Z</time>
      </trkpt>
      <trkpt lat="47.10462" lon="0.85719">
        <ele>126.8</ele>
        <time>2020-07-03T13:21:09Z</time>
      </trkpt>
      <trkpt lat="47.10455" lon="0.85718">
        <ele>126.2</ele>
        <time>2020-07-03T13:21:10Z</time>
      </trkpt>
      <trkpt lat="47.10448" lon="0.85717">
        <ele>125.6</ele>
        <time>2020-07-03T13:21:11Z</time>
      </trkpt>
      <trkpt lat="47.1044" lon="0.85715">
        <ele>125.3</ele>
        <time>2020-07-03T13:21:12Z</time>
      </trkpt>
      <trkpt lat="47.10432" lon="0.85715">
        <ele>125</ele>
        <time>2020-07-03T13:21:13Z</time>
      </trkpt>
      <trkpt lat="47.10424" lon="0.85714">
        <ele>124.6</ele>
        <time>2020-07-03T13:21:14Z</time>
      </trkpt>
      <trkpt lat="47.10416" lon="0.85713">
        <ele>124.3</ele>
        <time>2020-07-03T13:21:15Z</time>
      </trkpt>
      <trkpt lat="47.10407" lon="0.85711">
        <ele>123.9</ele>
        <time>2020-07-03T13:21:16Z</time>
      </trkpt>
      <trkpt lat="47.10398" lon="0.8571">
        <ele>123.5</ele>
        <time>2020-07-03T13:21:17Z</time>
      </trkpt>
      <trkpt lat="47.1039" lon="0.8571">
        <ele>123.2</ele>
        <time>2020-07-03T13:21:18Z</time>
      </trkpt>
      <trkpt lat="47.10381" lon="0.85708">
        <ele>122.8</ele>
        <time>2020-07-03T13:21:19Z</time>
      </trkpt>
      <trkpt lat="47.10372" lon="0.85708">
        <ele>122.5</ele>
        <time>2020-07-03T13:21:20Z</time>
      </trkpt>
      <trkpt lat="47.10364" lon="0.85707">
        <ele>122.2</ele>
        <time>2020-07-03T13:21:21Z</time>
      </trkpt>
      <trkpt lat="47.10355" lon="0.85707">
        <ele>121.8</ele>
        <time>2020-07-03T13:21:22Z</time>
      </trkpt>
      <trkpt lat="47.10347" lon="0.85706">
        <ele>121.5</ele>
        <time>2020-07-03T13:21:23Z</time>
      </trkpt>
      <trkpt lat="47.1034" lon="0.85705">
        <ele>121.3</ele>
        <time>2020-07-03T13:21:24Z</time>
      </trkpt>
      <trkpt lat="47.10332" lon="0.85705">
        <ele>121</ele>
        <time>2020-07-03T13:21:25Z</time>
      </trkpt>
      <trkpt lat="47.10324" lon="0.85704">
        <ele>120.7</ele>
        <time>2020-07-03T13:21:26Z</time>
      </trkpt>
      <trkpt lat="47.10317" lon="0.85703">
        <ele>120.5</ele>
        <time>2020-07-03T13:21:27Z</time>
      </trkpt>
      <trkpt lat="47.1031" lon="0.85702">
        <ele>120.3</ele>
        <time>2020-07-03T13:21:28Z</time>
      </trkpt>
      <trkpt lat="47.10303" lon="0.857">
        <ele>120.1</ele>
        <time>2020-07-03T13:21:29Z</time>
      </trkpt>
      <trkpt lat="47.10295" lon="0.85699">
        <ele>119.9</ele>
        <time>2020-07-03T13:21:30Z</time>
      </trkpt>
      <trkpt lat="47.10287" lon="0.85699">
        <ele>119.6</ele>
        <time>2020-07-03T13:21:31Z</time>
      </trkpt>
      <trkpt lat="47.10279" lon="0.85698">
        <ele>119.4</ele>
        <time>2020-07-03T13:21:32Z</time>
      </trkpt>
      <trkpt lat="47.10272" lon="0.85697">
        <ele>119.2</ele>
        <time>2020-07-03T13:21:33Z</time>
      </trkpt>
      <trkpt lat="47.10264" lon="0.85696">
        <ele>119</ele>
        <time>2020-07-03T13:21:34Z</time>
      </trkpt>
      <trkpt lat="47.10257" lon="0.85696">
        <ele>118.8</ele>
        <time>2020-07-03T13:21:35Z</time>
      </trkpt>
      <trkpt lat="47.10249" lon="0.85695">
        <ele>118.4</ele>
        <time>2020-07-03T13:21:36Z</time>
      </trkpt>
      <trkpt lat="47.10241" lon="0.85694">
        <ele>118.4</ele>
        <time>2020-07-03T13:21:37Z</time>
      </trkpt>
      <trkpt lat="47.10234" lon="0.85693">
        <ele>118.3</ele>
        <time>2020-07-03T13:21:38Z</time>
      </trkpt>
      <trkpt lat="47.10226" lon="0.85692">
        <ele>118.2</ele>
        <time>2020-07-03T13:21:39Z</time>
      </trkpt>
      <trkpt lat="47.10219" lon="0.85691">
        <ele>118.2</ele>
        <time>2020-07-03T13:21:40Z</time>
      </trkpt>
      <trkpt lat="47.10212" lon="0.85691">
        <ele>118.1</ele>
        <time>2020-07-03T13:21:41Z</time>
      </trkpt>
      <trkpt lat="47.10204" lon="0.8569">
        <ele>118.1</ele>
        <time>2020-07-03T13:21:42Z</time>
      </trkpt>
      <trkpt lat="47.10197" lon="0.85689">
        <ele>118</ele>
        <time>2020-07-03T13:21:43Z</time>
      </trkpt>
      <trkpt lat="47.10189" lon="0.85688">
        <ele>117.9</ele>
        <time>2020-07-03T13:21:44Z</time>
      </trkpt>
      <trkpt lat="47.10182" lon="0.85687">
        <ele>117.8</ele>
        <time>2020-07-03T13:21:45Z</time>
      </trkpt>
      <trkpt lat="47.10174" lon="0.85686">
        <ele>117.6</ele>
        <time>2020-07-03T13:21:46Z</time>
      </trkpt>
      <trkpt lat="47.10166" lon="0.85685">
        <ele>117.5</ele>
        <time>2020-07-03T13:21:47Z</time>
      </trkpt>
      <trkpt lat="47.10158" lon="0.85684">
        <ele>117.4</ele>
        <time>2020-07-03T13:21:48Z</time>
      </trkpt>
      <trkpt lat="47.1015" lon="0.85683">
        <ele>117.3</ele>
        <time>2020-07-03T13:21:49Z</time>
      </trkpt>
      <trkpt lat="47.10143" lon="0.85682">
        <ele>117.2</ele>
        <time>2020-07-03T13:21:50Z</time>
      </trkpt>
      <trkpt lat="47.10135" lon="0.85682">
        <ele>117</ele>
        <time>2020-07-03T13:21:51Z</time>
      </trkpt>
      <trkpt lat="47.10127" lon="0.85681">
        <ele>116.9</ele>
        <time>2020-07-03T13:21:52Z</time>
      </trkpt>
      <trkpt lat="47.10119" lon="0.85681">
        <ele>116.8</ele>
        <time>2020-07-03T13:21:53Z</time>
      </trkpt>
      <trkpt lat="47.10112" lon="0.8568">
        <ele>116.8</ele>
        <time>2020-07-03T13:21:54Z</time>
      </trkpt>
      <trkpt lat="47.10104" lon="0.8568">
        <ele>116.7</ele>
        <time>2020-07-03T13:21:55Z</time>
      </trkpt>
      <trkpt lat="47.10096" lon="0.85678">
        <ele>116.7</ele>
        <time>2020-07-03T13:21:56Z</time>
      </trkpt>
      <trkpt lat="47.10088" lon="0.85677">
        <ele>116.5</ele>
        <time>2020-07-03T13:21:57Z</time>
      </trkpt>
      <trkpt lat="47.1008" lon="0.85676">
        <ele>116.4</ele>
        <time>2020-07-03T13:21:58Z</time>
      </trkpt>
      <trkpt lat="47.10073" lon="0.85675">
        <ele>116.3</ele>
        <time>2020-07-03T13:21:59Z</time>
      </trkpt>
      <trkpt lat="47.10066" lon="0.85673">
        <ele>116.2</ele>
        <time>2020-07-03T13:22:00Z</time>
      </trkpt>
      <trkpt lat="47.10058" lon="0.85672">
        <ele>116.1</ele>
        <time>2020-07-03T13:22:01Z</time>
      </trkpt>
      <trkpt lat="47.1005" lon="0.85671">
        <ele>116.1</ele>
        <time>2020-07-03T13:22:02Z</time>
      </trkpt>
      <trkpt lat="47.10043" lon="0.85671">
        <ele>116</ele>
        <time>2020-07-03T13:22:03Z</time>
      </trkpt>
      <trkpt lat="47.10035" lon="0.8567">
        <ele>115.9</ele>
        <time>2020-07-03T13:22:04Z</time>
      </trkpt>
      <trkpt lat="47.10028" lon="0.85669">
        <ele>115.8</ele>
        <time>2020-07-03T13:22:05Z</time>
      </trkpt>
      <trkpt lat="47.1002" lon="0.85669">
        <ele>115.7</ele>
        <time>2020-07-03T13:22:06Z</time>
      </trkpt>
      <trkpt lat="47.10012" lon="0.85668">
        <ele>115.6</ele>
        <time>2020-07-03T13:22:07Z</time>
      </trkpt>
      <trkpt lat="47.10005" lon="0.85667">
        <ele>115.4</ele>
        <time>2020-07-03T13:22:08Z</time>
      </trkpt>
      <trkpt lat="47.09997" lon="0.85666">
        <ele>115.3</ele>
        <time>2020-07-03T13:22:09Z</time>
      </trkpt>
      <trkpt lat="47.0999" lon="0.85665">
        <ele>115.2</ele>
        <time>2020-07-03T13:22:10Z</time>
      </trkpt>
      <trkpt lat="47.09982" lon="0.85664">
        <ele>115.1</ele>
        <time>2020-07-03T13:22:11Z</time>
      </trkpt>
      <trkpt lat="47.09974" lon="0.85663">
        <ele>115.1</ele>
        <time>2020-07-03T13:22:12Z</time>
      </trkpt>
      <trkpt lat="47.09967" lon="0.85662">
        <ele>115.1</ele>
        <time>2020-07-03T13:22:13Z</time>
      </trkpt>
      <trkpt lat="47.0996" lon="0.85661">
        <ele>115.1</ele>
        <time>2020-07-03T13:22:14Z</time>
      </trkpt>
      <trkpt lat="47.09952" lon="0.85661">
        <ele>115.1</ele>
        <time>2020-07-03T13:22:15Z</time>
      </trkpt>
      <trkpt lat="47.09945" lon="0.8566">
        <ele>115</ele>
        <time>2020-07-03T13:22:16Z</time>
      </trkpt>
      <trkpt lat="47.09937" lon="0.85659">
        <ele>115</ele>
        <time>2020-07-03T13:22:17Z</time>
      </trkpt>
      <trkpt lat="47.0993" lon="0.85658">
        <ele>114.9</ele>
        <time>2020-07-03T13:22:18Z</time>
      </trkpt>
      <trkpt lat="47.09923" lon="0.85657">
        <ele>114.8</ele>
        <time>2020-07-03T13:22:19Z</time>
      </trkpt>
      <trkpt lat="47.09916" lon="0.85656">
        <ele>114.7</ele>
        <time>2020-07-03T13:22:20Z</time>
      </trkpt>
      <trkpt lat="47.09908" lon="0.85655">
        <ele>114.5</ele>
        <time>2020-07-03T13:22:21Z</time>
      </trkpt>
      <trkpt lat="47.09901" lon="0.85654">
        <ele>114.5</ele>
        <time>2020-07-03T13:22:22Z</time>
      </trkpt>
      <trkpt lat="47.09894" lon="0.85653">
        <ele>114.5</ele>
        <time>2020-07-03T13:22:23Z</time>
      </trkpt>
      <trkpt lat="47.09887" lon="0.85652">
        <ele>114.5</ele>
        <time>2020-07-03T13:22:24Z</time>
      </trkpt>
      <trkpt lat="47.0988" lon="0.85651">
        <ele>114.5</ele>
        <time>2020-07-03T13:22:25Z</time>
      </trkpt>
      <trkpt lat="47.09873" lon="0.8565">
        <ele>114.4</ele>
        <time>2020-07-03T13:22:26Z</time>
      </trkpt>
      <trkpt lat="47.09866" lon="0.8565">
        <ele>114.4</ele>
        <time>2020-07-03T13:22:27Z</time>
      </trkpt>
      <trkpt lat="47.09859" lon="0.85648">
        <ele>114.4</ele>
        <time>2020-07-03T13:22:28Z</time>
      </trkpt>
      <trkpt lat="47.09852" lon="0.85648">
        <ele>114.3</ele>
        <time>2020-07-03T13:22:29Z</time>
      </trkpt>
      <trkpt lat="47.09845" lon="0.85647">
        <ele>114.3</ele>
        <time>2020-07-03T13:22:30Z</time>
      </trkpt>
      <trkpt lat="47.09838" lon="0.85646">
        <ele>114.2</ele>
        <time>2020-07-03T13:22:31Z</time>
      </trkpt>
      <trkpt lat="47.09831" lon="0.85645">
        <ele>114.2</ele>
        <time>2020-07-03T13:22:32Z</time>
      </trkpt>
      <trkpt lat="47.09825" lon="0.85645">
        <ele>114.1</ele>
        <time>2020-07-03T13:22:33Z</time>
      </trkpt>
      <trkpt lat="47.09818" lon="0.85643">
        <ele>114.1</ele>
        <time>2020-07-03T13:22:34Z</time>
      </trkpt>
      <trkpt lat="47.09811" lon="0.85643">
        <ele>114</ele>
        <time>2020-07-03T13:22:35Z</time>
      </trkpt>
      <trkpt lat="47.09804" lon="0.85641">
        <ele>113.9</ele>
        <time>2020-07-03T13:22:36Z</time>
      </trkpt>
      <trkpt lat="47.09798" lon="0.85641">
        <ele>113.8</ele>
        <time>2020-07-03T13:22:37Z</time>
      </trkpt>
      <trkpt lat="47.09791" lon="0.8564">
        <ele>113.7</ele>
        <time>2020-07-03T13:22:38Z</time>
      </trkpt>
      <trkpt lat="47.09784" lon="0.8564">
        <ele>113.6</ele>
        <time>2020-07-03T13:22:39Z</time>
      </trkpt>
      <trkpt lat="47.09777" lon="0.85638">
        <ele>113.5</ele>
        <time>2020-07-03T13:22:40Z</time>
      </trkpt>
      <trkpt lat="47.0977" lon="0.85638">
        <ele>113.4</ele>
        <time>2020-07-03T13:22:41Z</time>
      </trkpt>
      <trkpt lat="47.09763" lon="0.85636">
        <ele>113.2</ele>
        <time>2020-07-03T13:22:42Z</time>
      </trkpt>
      <trkpt lat="47.09756" lon="0.85635">
        <ele>113.1</ele>
        <time>2020-07-03T13:22:43Z</time>
      </trkpt>
      <trkpt lat="47.09749" lon="0.85634">
        <ele>113</ele>
        <time>2020-07-03T13:22:44Z</time>
      </trkpt>
      <trkpt lat="47.09742" lon="0.85634">
        <ele>112.9</ele>
        <time>2020-07-03T13:22:45Z</time>
      </trkpt>
      <trkpt lat="47.09734" lon="0.85634">
        <ele>112.8</ele>
        <time>2020-07-03T13:22:46Z</time>
      </trkpt>
      <trkpt lat="47.09727" lon="0.85633">
        <ele>112.7</ele>
        <time>2020-07-03T13:22:47Z</time>
      </trkpt>
      <trkpt lat="47.0972" lon="0.85632">
        <ele>112.5</ele>
        <time>2020-07-03T13:22:48Z</time>
      </trkpt>
      <trkpt lat="47.09712" lon="0.85631">
        <ele>112.2</ele>
        <time>2020-07-03T13:22:49Z</time>
      </trkpt>
      <trkpt lat="47.09704" lon="0.8563">
        <ele>111.5</ele>
        <time>2020-07-03T13:22:50Z</time>
      </trkpt>
      <trkpt lat="47.09697" lon="0.85629">
        <ele>110.7</ele>
        <time>2020-07-03T13:22:51Z</time>
      </trkpt>
      <trkpt lat="47.09689" lon="0.85628">
        <ele>110.5</ele>
        <time>2020-07-03T13:22:52Z</time>
      </trkpt>
      <trkpt lat="47.09681" lon="0.85627">
        <ele>110.3</ele>
        <time>2020-07-03T13:22:53Z</time>
      </trkpt>
      <trkpt lat="47.09673" lon="0.85626">
        <ele>110.1</ele>
        <time>2020-07-03T13:22:54Z</time>
      </trkpt>
      <trkpt lat="47.09665" lon="0.85624">
        <ele>109.9</ele>
        <time>2020-07-03T13:22:55Z</time>
      </trkpt>
      <trkpt lat="47.09658" lon="0.85624">
        <ele>109.8</ele>
        <time>2020-07-03T13:22:56Z</time>
      </trkpt>
      <trkpt lat="47.0965" lon="0.85623">
        <ele>109.7</ele>
        <time>2020-07-03T13:22:57Z</time>
      </trkpt>
      <trkpt lat="47.09642" lon="0.85622">
        <ele>109.6</ele>
        <time>2020-07-03T13:22:58Z</time>
      </trkpt>
      <trkpt lat="47.09634" lon="0.85621">
        <ele>109.5</ele>
        <time>2020-07-03T13:22:59Z</time>
      </trkpt>
      <trkpt lat="47.09626" lon="0.8562">
        <ele>109.3</ele>
        <time>2020-07-03T13:23:00Z</time>
      </trkpt>
      <trkpt lat="47.09618" lon="0.85619">
        <ele>109.3</ele>
        <time>2020-07-03T13:23:01Z</time>
      </trkpt>
      <trkpt lat="47.0961" lon="0.85618">
        <ele>109.2</ele>
        <time>2020-07-03T13:23:02Z</time>
      </trkpt>
      <trkpt lat="47.09602" lon="0.85618">
        <ele>109.3</ele>
        <time>2020-07-03T13:23:03Z</time>
      </trkpt>
      <trkpt lat="47.09595" lon="0.85617">
        <ele>109.5</ele>
        <time>2020-07-03T13:23:04Z</time>
      </trkpt>
      <trkpt lat="47.09587" lon="0.85616">
        <ele>109.5</ele>
        <time>2020-07-03T13:23:05Z</time>
      </trkpt>
      <trkpt lat="47.0958" lon="0.85616">
        <ele>109.6</ele>
        <time>2020-07-03T13:23:06Z</time>
      </trkpt>
      <trkpt lat="47.09572" lon="0.85615">
        <ele>109.6</ele>
        <time>2020-07-03T13:23:07Z</time>
      </trkpt>
      <trkpt lat="47.09565" lon="0.85614">
        <ele>109.7</ele>
        <time>2020-07-03T13:23:08Z</time>
      </trkpt>
      <trkpt lat="47.09558" lon="0.85612">
        <ele>109.8</ele>
        <time>2020-07-03T13:23:09Z</time>
      </trkpt>
      <trkpt lat="47.0955" lon="0.85611">
        <ele>109.9</ele>
        <time>2020-07-03T13:23:10Z</time>
      </trkpt>
      <trkpt lat="47.09544" lon="0.8561">
        <ele>110</ele>
        <time>2020-07-03T13:23:11Z</time>
      </trkpt>
      <trkpt lat="47.09537" lon="0.85609">
        <ele>110.1</ele>
        <time>2020-07-03T13:23:12Z</time>
      </trkpt>
      <trkpt lat="47.0953" lon="0.85608">
        <ele>110.1</ele>
        <time>2020-07-03T13:23:13Z</time>
      </trkpt>
      <trkpt lat="47.09524" lon="0.85607">
        <ele>110.2</ele>
        <time>2020-07-03T13:23:14Z</time>
      </trkpt>
      <trkpt lat="47.09517" lon="0.85605">
        <ele>110.3</ele>
        <time>2020-07-03T13:23:15Z</time>
      </trkpt>
      <trkpt lat="47.09511" lon="0.85605">
        <ele>110.3</ele>
        <time>2020-07-03T13:23:16Z</time>
      </trkpt>
      <trkpt lat="47.09505" lon="0.85604">
        <ele>110.4</ele>
        <time>2020-07-03T13:23:17Z</time>
      </trkpt>
      <trkpt lat="47.09499" lon="0.85603">
        <ele>110.5</ele>
        <time>2020-07-03T13:23:18Z</time>
      </trkpt>
      <trkpt lat="47.09493" lon="0.85603">
        <ele>110.6</ele>
        <time>2020-07-03T13:23:19Z</time>
      </trkpt>
      <trkpt lat="47.09487" lon="0.85603">
        <ele>110.7</ele>
        <time>2020-07-03T13:23:20Z</time>
      </trkpt>
      <trkpt lat="47.09481" lon="0.85602">
        <ele>110.8</ele>
        <time>2020-07-03T13:23:21Z</time>
      </trkpt>
      <trkpt lat="47.09475" lon="0.85601">
        <ele>110.9</ele>
        <time>2020-07-03T13:23:22Z</time>
      </trkpt>
      <trkpt lat="47.09469" lon="0.856">
        <ele>110.9</ele>
        <time>2020-07-03T13:23:23Z</time>
      </trkpt>
      <trkpt lat="47.09463" lon="0.85597">
        <ele>110.9</ele>
        <time>2020-07-03T13:23:24Z</time>
      </trkpt>
      <trkpt lat="47.09457" lon="0.85597">
        <ele>110.9</ele>
        <time>2020-07-03T13:23:25Z</time>
      </trkpt>
      <trkpt lat="47.09451" lon="0.85597">
        <ele>110.9</ele>
        <time>2020-07-03T13:23:26Z</time>
      </trkpt>
      <trkpt lat="47.09445" lon="0.85597">
        <ele>110.8</ele>
        <time>2020-07-03T13:23:27Z</time>
      </trkpt>
      <trkpt lat="47.09438" lon="0.85596">
        <ele>110.8</ele>
        <time>2020-07-03T13:23:28Z</time>
      </trkpt>
      <trkpt lat="47.09432" lon="0.85595">
        <ele>110.8</ele>
        <time>2020-07-03T13:23:29Z</time>
      </trkpt>
      <trkpt lat="47.09426" lon="0.85595">
        <ele>110.7</ele>
        <time>2020-07-03T13:23:30Z</time>
      </trkpt>
      <trkpt lat="47.0942" lon="0.85595">
        <ele>110.6</ele>
        <time>2020-07-03T13:23:31Z</time>
      </trkpt>
      <trkpt lat="47.09415" lon="0.85594">
        <ele>110.5</ele>
        <time>2020-07-03T13:23:32Z</time>
      </trkpt>
      <trkpt lat="47.09409" lon="0.85594">
        <ele>110.4</ele>
        <time>2020-07-03T13:23:33Z</time>
      </trkpt>
      <trkpt lat="47.09403" lon="0.85594">
        <ele>110.2</ele>
        <time>2020-07-03T13:23:34Z</time>
      </trkpt>
      <trkpt lat="47.09397" lon="0.85593">
        <ele>110.1</ele>
        <time>2020-07-03T13:23:35Z</time>
      </trkpt>
      <trkpt lat="47.09392" lon="0.85592">
        <ele>110</ele>
        <time>2020-07-03T13:23:36Z</time>
      </trkpt>
      <trkpt lat="47.09384" lon="0.8559">
        <ele>109.8</ele>
        <time>2020-07-03T13:23:37Z</time>
      </trkpt>
      <trkpt lat="47.09377" lon="0.85588">
        <ele>109.6</ele>
        <time>2020-07-03T13:23:38Z</time>
      </trkpt>
      <trkpt lat="47.09371" lon="0.85587">
        <ele>109.5</ele>
        <time>2020-07-03T13:23:39Z</time>
      </trkpt>
      <trkpt lat="47.09365" lon="0.85586">
        <ele>109.3</ele>
        <time>2020-07-03T13:23:40Z</time>
      </trkpt>
      <trkpt lat="47.09358" lon="0.85585">
        <ele>109</ele>
        <time>2020-07-03T13:23:41Z</time>
      </trkpt>
      <trkpt lat="47.0935" lon="0.85584">
        <ele>108.7</ele>
        <time>2020-07-03T13:23:42Z</time>
      </trkpt>
      <trkpt lat="47.09343" lon="0.85583">
        <ele>108.4</ele>
        <time>2020-07-03T13:23:43Z</time>
      </trkpt>
      <trkpt lat="47.09335" lon="0.85582">
        <ele>108.1</ele>
        <time>2020-07-03T13:23:44Z</time>
      </trkpt>
      <trkpt lat="47.09327" lon="0.85581">
        <ele>107.8</ele>
        <time>2020-07-03T13:23:45Z</time>
      </trkpt>
      <trkpt lat="47.09319" lon="0.8558">
        <ele>107.5</ele>
        <time>2020-07-03T13:23:46Z</time>
      </trkpt>
      <trkpt lat="47.09311" lon="0.85579">
        <ele>107.1</ele>
        <time>2020-07-03T13:23:47Z</time>
      </trkpt>
      <trkpt lat="47.09303" lon="0.85577">
        <ele>106.7</ele>
        <time>2020-07-03T13:23:48Z</time>
      </trkpt>
      <trkpt lat="47.09294" lon="0.85576">
        <ele>106.4</ele>
        <time>2020-07-03T13:23:49Z</time>
      </trkpt>
      <trkpt lat="47.09285" lon="0.85575">
        <ele>106</ele>
        <time>2020-07-03T13:23:50Z</time>
      </trkpt>
      <trkpt lat="47.09277" lon="0.85574">
        <ele>105.6</ele>
        <time>2020-07-03T13:23:51Z</time>
      </trkpt>
      <trkpt lat="47.09268" lon="0.85573">
        <ele>105.1</ele>
        <time>2020-07-03T13:23:52Z</time>
      </trkpt>
      <trkpt lat="47.0926" lon="0.85572">
        <ele>104.8</ele>
        <time>2020-07-03T13:23:53Z</time>
      </trkpt>
      <trkpt lat="47.09251" lon="0.85571">
        <ele>104.4</ele>
        <time>2020-07-03T13:23:54Z</time>
      </trkpt>
      <trkpt lat="47.09242" lon="0.8557">
        <ele>104</ele>
        <time>2020-07-03T13:23:55Z</time>
      </trkpt>
      <trkpt lat="47.09234" lon="0.85569">
        <ele>103.7</ele>
        <time>2020-07-03T13:23:56Z</time>
      </trkpt>
      <trkpt lat="47.09225" lon="0.85568">
        <ele>103.3</ele>
        <time>2020-07-03T13:23:57Z</time>
      </trkpt>
      <trkpt lat="47.09217" lon="0.85567">
        <ele>103</ele>
        <time>2020-07-03T13:23:58Z</time>
      </trkpt>
      <trkpt lat="47.09208" lon="0.85566">
        <ele>102.6</ele>
        <time>2020-07-03T13:23:59Z</time>
      </trkpt>
      <trkpt lat="47.09199" lon="0.85565">
        <ele>102.3</ele>
        <time>2020-07-03T13:24:00Z</time>
      </trkpt>
      <trkpt lat="47.0919" lon="0.85564">
        <ele>102</ele>
        <time>2020-07-03T13:24:01Z</time>
      </trkpt>
      <trkpt lat="47.09181" lon="0.85563">
        <ele>101.7</ele>
        <time>2020-07-03T13:24:02Z</time>
      </trkpt>
      <trkpt lat="47.09173" lon="0.85561">
        <ele>101.4</ele>
        <time>2020-07-03T13:24:03Z</time>
      </trkpt>
      <trkpt lat="47.09164" lon="0.8556">
        <ele>101</ele>
        <time>2020-07-03T13:24:04Z</time>
      </trkpt>
      <trkpt lat="47.09155" lon="0.85559">
        <ele>100.7</ele>
        <time>2020-07-03T13:24:05Z</time>
      </trkpt>
      <trkpt lat="47.09146" lon="0.85558">
        <ele>100.3</ele>
        <time>2020-07-03T13:24:06Z</time>
      </trkpt>
      <trkpt lat="47.09137" lon="0.85558">
        <ele>100</ele>
        <time>2020-07-03T13:24:07Z</time>
      </trkpt>
      <trkpt lat="47.09128" lon="0.85558">
        <ele>99.5</ele>
        <time>2020-07-03T13:24:08Z</time>
      </trkpt>
      <trkpt lat="47.0912" lon="0.85556">
        <ele>99.1</ele>
        <time>2020-07-03T13:24:09Z</time>
      </trkpt>
      <trkpt lat="47.09111" lon="0.85554">
        <ele>98.8</ele>
        <time>2020-07-03T13:24:10Z</time>
      </trkpt>
      <trkpt lat="47.09102" lon="0.85552">
        <ele>98.6</ele>
        <time>2020-07-03T13:24:11Z</time>
      </trkpt>
      <trkpt lat="47.09093" lon="0.85551">
        <ele>98.3</ele>
        <time>2020-07-03T13:24:12Z</time>
      </trkpt>
      <trkpt lat="47.09084" lon="0.8555">
        <ele>98</ele>
        <time>2020-07-03T13:24:13Z</time>
      </trkpt>
      <trkpt lat="47.09076" lon="0.85549">
        <ele>97.8</ele>
        <time>2020-07-03T13:24:14Z</time>
      </trkpt>
      <trkpt lat="47.09067" lon="0.85547">
        <ele>97.6</ele>
        <time>2020-07-03T13:24:15Z</time>
      </trkpt>
      <trkpt lat="47.09058" lon="0.85548">
        <ele>97.4</ele>
        <time>2020-07-03T13:24:16Z</time>
      </trkpt>
      <trkpt lat="47.09049" lon="0.85549">
        <ele>97.3</ele>
        <time>2020-07-03T13:24:17Z</time>
      </trkpt>
      <trkpt lat="47.09041" lon="0.85552">
        <ele>97.1</ele>
        <time>2020-07-03T13:24:18Z</time>
      </trkpt>
      <trkpt lat="47.09033" lon="0.85554">
        <ele>96.4</ele>
        <time>2020-07-03T13:24:19Z</time>
      </trkpt>
      <trkpt lat="47.09025" lon="0.85557">
        <ele>95</ele>
        <time>2020-07-03T13:24:20Z</time>
      </trkpt>
      <trkpt lat="47.09018" lon="0.85561">
        <ele>95</ele>
        <time>2020-07-03T13:24:21Z</time>
      </trkpt>
      <trkpt lat="47.09011" lon="0.85566">
        <ele>95.1</ele>
        <time>2020-07-03T13:24:22Z</time>
      </trkpt>
      <trkpt lat="47.09005" lon="0.85571">
        <ele>95.1</ele>
        <time>2020-07-03T13:24:23Z</time>
      </trkpt>
      <trkpt lat="47.08999" lon="0.85576">
        <ele>95.2</ele>
        <time>2020-07-03T13:24:24Z</time>
      </trkpt>
      <trkpt lat="47.08994" lon="0.85582">
        <ele>95.2</ele>
        <time>2020-07-03T13:24:25Z</time>
      </trkpt>
      <trkpt lat="47.08989" lon="0.85588">
        <ele>95.2</ele>
        <time>2020-07-03T13:24:26Z</time>
      </trkpt>
      <trkpt lat="47.08984" lon="0.85593">
        <ele>95.2</ele>
        <time>2020-07-03T13:24:27Z</time>
      </trkpt>
      <trkpt lat="47.08979" lon="0.85598">
        <ele>95.2</ele>
        <time>2020-07-03T13:24:28Z</time>
      </trkpt>
      <trkpt lat="47.08973" lon="0.85604">
        <ele>95.2</ele>
        <time>2020-07-03T13:24:29Z</time>
      </trkpt>
      <trkpt lat="47.08968" lon="0.8561">
        <ele>95.1</ele>
        <time>2020-07-03T13:24:30Z</time>
      </trkpt>
      <trkpt lat="47.08963" lon="0.85615">
        <ele>94.9</ele>
        <time>2020-07-03T13:24:31Z</time>
      </trkpt>
      <trkpt lat="47.08957" lon="0.85621">
        <ele>94.8</ele>
        <time>2020-07-03T13:24:32Z</time>
      </trkpt>
      <trkpt lat="47.08951" lon="0.85625">
        <ele>94.6</ele>
        <time>2020-07-03T13:24:33Z</time>
      </trkpt>
      <trkpt lat="47.08945" lon="0.8563">
        <ele>94.5</ele>
        <time>2020-07-03T13:24:34Z</time>
      </trkpt>
      <trkpt lat="47.08939" lon="0.85635">
        <ele>94.4</ele>
        <time>2020-07-03T13:24:35Z</time>
      </trkpt>
      <trkpt lat="47.08932" lon="0.85639">
        <ele>94.3</ele>
        <time>2020-07-03T13:24:36Z</time>
      </trkpt>
      <trkpt lat="47.08926" lon="0.85643">
        <ele>94.3</ele>
        <time>2020-07-03T13:24:37Z</time>
      </trkpt>
      <trkpt lat="47.08919" lon="0.85646">
        <ele>94.2</ele>
        <time>2020-07-03T13:24:38Z</time>
      </trkpt>
      <trkpt lat="47.08913" lon="0.85649">
        <ele>94.1</ele>
        <time>2020-07-03T13:24:39Z</time>
      </trkpt>
      <trkpt lat="47.08906" lon="0.85653">
        <ele>94.1</ele>
        <time>2020-07-03T13:24:40Z</time>
      </trkpt>
      <trkpt lat="47.08899" lon="0.85656">
        <ele>94</ele>
        <time>2020-07-03T13:24:41Z</time>
      </trkpt>
      <trkpt lat="47.08893" lon="0.85659">
        <ele>94</ele>
        <time>2020-07-03T13:24:42Z</time>
      </trkpt>
      <trkpt lat="47.08886" lon="0.85662">
        <ele>93.9</ele>
        <time>2020-07-03T13:24:43Z</time>
      </trkpt>
      <trkpt lat="47.0888" lon="0.85666">
        <ele>93.8</ele>
        <time>2020-07-03T13:24:44Z</time>
      </trkpt>
      <trkpt lat="47.08874" lon="0.85669">
        <ele>93.8</ele>
        <time>2020-07-03T13:24:45Z</time>
      </trkpt>
      <trkpt lat="47.08868" lon="0.85673">
        <ele>93.7</ele>
        <time>2020-07-03T13:24:46Z</time>
      </trkpt>
      <trkpt lat="47.08862" lon="0.85677">
        <ele>93.7</ele>
        <time>2020-07-03T13:24:47Z</time>
      </trkpt>
      <trkpt lat="47.08856" lon="0.8568">
        <ele>93.7</ele>
        <time>2020-07-03T13:24:48Z</time>
      </trkpt>
      <trkpt lat="47.0885" lon="0.85684">
        <ele>93.3</ele>
        <time>2020-07-03T13:24:49Z</time>
      </trkpt>
      <trkpt lat="47.08843" lon="0.85687">
        <ele>93.1</ele>
        <time>2020-07-03T13:24:50Z</time>
      </trkpt>
      <trkpt lat="47.08837" lon="0.85692">
        <ele>92.9</ele>
        <time>2020-07-03T13:24:51Z</time>
      </trkpt>
      <trkpt lat="47.08831" lon="0.85696">
        <ele>92.8</ele>
        <time>2020-07-03T13:24:52Z</time>
      </trkpt>
      <trkpt lat="47.08825" lon="0.85702">
        <ele>92.6</ele>
        <time>2020-07-03T13:24:53Z</time>
      </trkpt>
      <trkpt lat="47.0882" lon="0.85707">
        <ele>92.5</ele>
        <time>2020-07-03T13:24:54Z</time>
      </trkpt>
      <trkpt lat="47.08814" lon="0.85712">
        <ele>92.3</ele>
        <time>2020-07-03T13:24:55Z</time>
      </trkpt>
      <trkpt lat="47.08809" lon="0.85718">
        <ele>92.1</ele>
        <time>2020-07-03T13:24:56Z</time>
      </trkpt>
      <trkpt lat="47.08804" lon="0.85724">
        <ele>91.9</ele>
        <time>2020-07-03T13:24:57Z</time>
      </trkpt>
      <trkpt lat="47.08798" lon="0.85731">
        <ele>91.7</ele>
        <time>2020-07-03T13:24:58Z</time>
      </trkpt>
      <trkpt lat="47.08793" lon="0.85739">
        <ele>91.4</ele>
        <time>2020-07-03T13:24:59Z</time>
      </trkpt>
      <trkpt lat="47.08788" lon="0.85746">
        <ele>91.2</ele>
        <time>2020-07-03T13:25:00Z</time>
      </trkpt>
      <trkpt lat="47.08783" lon="0.85754">
        <ele>90.9</ele>
        <time>2020-07-03T13:25:01Z</time>
      </trkpt>
      <trkpt lat="47.08778" lon="0.85761">
        <ele>90.8</ele>
        <time>2020-07-03T13:25:02Z</time>
      </trkpt>
      <trkpt lat="47.08773" lon="0.85769">
        <ele>90.6</ele>
        <time>2020-07-03T13:25:03Z</time>
      </trkpt>
      <trkpt lat="47.08769" lon="0.85777">
        <ele>90.5</ele>
        <time>2020-07-03T13:25:04Z</time>
      </trkpt>
      <trkpt lat="47.08764" lon="0.85785">
        <ele>90.5</ele>
        <time>2020-07-03T13:25:05Z</time>
      </trkpt>
      <trkpt lat="47.0876" lon="0.85793">
        <ele>90.4</ele>
        <time>2020-07-03T13:25:06Z</time>
      </trkpt>
      <trkpt lat="47.08755" lon="0.85801">
        <ele>90.3</ele>
        <time>2020-07-03T13:25:07Z</time>
      </trkpt>
      <trkpt lat="47.0875" lon="0.85808">
        <ele>90.3</ele>
        <time>2020-07-03T13:25:08Z</time>
      </trkpt>
      <trkpt lat="47.08746" lon="0.85816">
        <ele>90.3</ele>
        <time>2020-07-03T13:25:09Z</time>
      </trkpt>
      <trkpt lat="47.08741" lon="0.85824">
        <ele>90.3</ele>
        <time>2020-07-03T13:25:10Z</time>
      </trkpt>
      <trkpt lat="47.08737" lon="0.85832">
        <ele>90.3</ele>
        <time>2020-07-03T13:25:11Z</time>
      </trkpt>
      <trkpt lat="47.08732" lon="0.85839">
        <ele>90.3</ele>
        <time>2020-07-03T13:25:12Z</time>
      </trkpt>
      <trkpt lat="47.08727" lon="0.85846">
        <ele>90.4</ele>
        <time>2020-07-03T13:25:13Z</time>
      </trkpt>
      <trkpt lat="47.08722" lon="0.85854">
        <ele>90.4</ele>
        <time>2020-07-03T13:25:14Z</time>
      </trkpt>
      <trkpt lat="47.08718" lon="0.85862">
        <ele>90.4</ele>
        <time>2020-07-03T13:25:15Z</time>
      </trkpt>
      <trkpt lat="47.08714" lon="0.85869">
        <ele>90.5</ele>
        <time>2020-07-03T13:25:16Z</time>
      </trkpt>
      <trkpt lat="47.0871" lon="0.85876">
        <ele>90.5</ele>
        <time>2020-07-03T13:25:17Z</time>
      </trkpt>
      <trkpt lat="47.08705" lon="0.85882">
        <ele>90.6</ele>
        <time>2020-07-03T13:25:18Z</time>
      </trkpt>
      <trkpt lat="47.087" lon="0.85887">
        <ele>90.6</ele>
        <time>2020-07-03T13:25:19Z</time>
      </trkpt>
      <trkpt lat="47.08694" lon="0.85891">
        <ele>90.7</ele>
        <time>2020-07-03T13:25:20Z</time>
      </trkpt>
      <trkpt lat="47.08688" lon="0.85896">
        <ele>90.7</ele>
        <time>2020-07-03T13:25:21Z</time>
      </trkpt>
      <trkpt lat="47.08682" lon="0.85902">
        <ele>90.8</ele>
        <time>2020-07-03T13:25:22Z</time>
      </trkpt>
      <trkpt lat="47.08676" lon="0.85907">
        <ele>90.8</ele>
        <time>2020-07-03T13:25:23Z</time>
      </trkpt>
      <trkpt lat="47.0867" lon="0.85911">
        <ele>90.9</ele>
        <time>2020-07-03T13:25:24Z</time>
      </trkpt>
      <trkpt lat="47.08663" lon="0.85914">
        <ele>91</ele>
        <time>2020-07-03T13:25:25Z</time>
      </trkpt>
      <trkpt lat="47.08657" lon="0.85917">
        <ele>91.1</ele>
        <time>2020-07-03T13:25:26Z</time>
      </trkpt>
      <trkpt lat="47.0865" lon="0.85919">
        <ele>91.3</ele>
        <time>2020-07-03T13:25:27Z</time>
      </trkpt>
      <trkpt lat="47.08644" lon="0.85921">
        <ele>91.4</ele>
        <time>2020-07-03T13:25:28Z</time>
      </trkpt>
      <trkpt lat="47.08638" lon="0.85922">
        <ele>91.6</ele>
        <time>2020-07-03T13:25:29Z</time>
      </trkpt>
      <trkpt lat="47.08633" lon="0.85923">
        <ele>91.8</ele>
        <time>2020-07-03T13:25:30Z</time>
      </trkpt>
      <trkpt lat="47.08627" lon="0.85925">
        <ele>91.9</ele>
        <time>2020-07-03T13:25:31Z</time>
      </trkpt>
      <trkpt lat="47.08622" lon="0.85925">
        <ele>92.1</ele>
        <time>2020-07-03T13:25:32Z</time>
      </trkpt>
      <trkpt lat="47.08618" lon="0.85922">
        <ele>92.1</ele>
        <time>2020-07-03T13:25:33Z</time>
      </trkpt>
      <trkpt lat="47.08615" lon="0.85916">
        <ele>92.1</ele>
        <time>2020-07-03T13:25:34Z</time>
      </trkpt>
      <trkpt lat="47.08615" lon="0.85908">
        <ele>92.1</ele>
        <time>2020-07-03T13:25:35Z</time>
      </trkpt>
      <trkpt lat="47.08614" lon="0.85899">
        <ele>92.1</ele>
        <time>2020-07-03T13:25:36Z</time>
      </trkpt>
      <trkpt lat="47.08612" lon="0.85891">
        <ele>92.1</ele>
        <time>2020-07-03T13:25:37Z</time>
      </trkpt>
      <trkpt lat="47.08609" lon="0.85884">
        <ele>92.1</ele>
        <time>2020-07-03T13:25:38Z</time>
      </trkpt>
      <trkpt lat="47.08605" lon="0.85879">
        <ele>92.1</ele>
        <time>2020-07-03T13:25:39Z</time>
      </trkpt>
      <trkpt lat="47.086" lon="0.85875">
        <ele>92.2</ele>
        <time>2020-07-03T13:25:40Z</time>
      </trkpt>
      <trkpt lat="47.08594" lon="0.85871">
        <ele>92.2</ele>
        <time>2020-07-03T13:25:41Z</time>
      </trkpt>
      <trkpt lat="47.08589" lon="0.85867">
        <ele>92.3</ele>
        <time>2020-07-03T13:25:42Z</time>
      </trkpt>
      <trkpt lat="47.08583" lon="0.85865">
        <ele>92.4</ele>
        <time>2020-07-03T13:25:43Z</time>
      </trkpt>
      <trkpt lat="47.08578" lon="0.85861">
        <ele>92.6</ele>
        <time>2020-07-03T13:25:44Z</time>
      </trkpt>
      <trkpt lat="47.08573" lon="0.85858">
        <ele>92.7</ele>
        <time>2020-07-03T13:25:45Z</time>
      </trkpt>
      <trkpt lat="47.08567" lon="0.85855">
        <ele>92.9</ele>
        <time>2020-07-03T13:25:46Z</time>
      </trkpt>
      <trkpt lat="47.08561" lon="0.85853">
        <ele>93.2</ele>
        <time>2020-07-03T13:25:47Z</time>
      </trkpt>
      <trkpt lat="47.08556" lon="0.85852">
        <ele>93.5</ele>
        <time>2020-07-03T13:25:48Z</time>
      </trkpt>
      <trkpt lat="47.08552" lon="0.8585">
        <ele>93.6</ele>
        <time>2020-07-03T13:25:49Z</time>
      </trkpt>
      <trkpt lat="47.08548" lon="0.8585">
        <ele>93.8</ele>
        <time>2020-07-03T13:25:50Z</time>
      </trkpt>
      <trkpt lat="47.08544" lon="0.85849">
        <ele>93.9</ele>
        <time>2020-07-03T13:25:51Z</time>
      </trkpt>
      <trkpt lat="47.0854" lon="0.85848">
        <ele>94</ele>
        <time>2020-07-03T13:25:52Z</time>
      </trkpt>
      <trkpt lat="47.08537" lon="0.85848">
        <ele>94.1</ele>
        <time>2020-07-03T13:25:53Z</time>
      </trkpt>
      <trkpt lat="47.08534" lon="0.85849">
        <ele>94.2</ele>
        <time>2020-07-03T13:25:54Z</time>
      </trkpt>
      <trkpt lat="47.0853" lon="0.85851">
        <ele>94.3</ele>
        <time>2020-07-03T13:25:55Z</time>
      </trkpt>
      <trkpt lat="47.08529" lon="0.85852">
        <ele>94.3</ele>
        <time>2020-07-03T13:25:56Z</time>
      </trkpt>
      <trkpt lat="47.08527" lon="0.85854">
        <ele>94.4</ele>
        <time>2020-07-03T13:25:57Z</time>
      </trkpt>
      <trkpt lat="47.08523" lon="0.85856">
        <ele>94.3</ele>
        <time>2020-07-03T13:25:58Z</time>
      </trkpt>
      <trkpt lat="47.08521" lon="0.85857">
        <ele>94.3</ele>
        <time>2020-07-03T13:25:59Z</time>
      </trkpt>
      <trkpt lat="47.08518" lon="0.85858">
        <ele>94.2</ele>
        <time>2020-07-03T13:26:00Z</time>
      </trkpt>
      <trkpt lat="47.08516" lon="0.85858">
        <ele>94.1</ele>
        <time>2020-07-03T13:26:01Z</time>
      </trkpt>
      <trkpt lat="47.08512" lon="0.85856">
        <ele>93.9</ele>
        <time>2020-07-03T13:26:02Z</time>
      </trkpt>
      <trkpt lat="47.08507" lon="0.85851">
        <ele>93.6</ele>
        <time>2020-07-03T13:26:03Z</time>
      </trkpt>
      <trkpt lat="47.08503" lon="0.85845">
        <ele>93.4</ele>
        <time>2020-07-03T13:26:04Z</time>
      </trkpt>
      <trkpt lat="47.08499" lon="0.8584">
        <ele>93.2</ele>
        <time>2020-07-03T13:26:05Z</time>
      </trkpt>
      <trkpt lat="47.08497" lon="0.85836">
        <ele>93.1</ele>
        <time>2020-07-03T13:26:06Z</time>
      </trkpt>
      <trkpt lat="47.08493" lon="0.85831">
        <ele>92.9</ele>
        <time>2020-07-03T13:26:07Z</time>
      </trkpt>
      <trkpt lat="47.08489" lon="0.85827">
        <ele>92.8</ele>
        <time>2020-07-03T13:26:08Z</time>
      </trkpt>
      <trkpt lat="47.08485" lon="0.85823">
        <ele>92.6</ele>
        <time>2020-07-03T13:26:09Z</time>
      </trkpt>
      <trkpt lat="47.08481" lon="0.85818">
        <ele>92.5</ele>
        <time>2020-07-03T13:26:10Z</time>
      </trkpt>
      <trkpt lat="47.08477" lon="0.85814">
        <ele>92.4</ele>
        <time>2020-07-03T13:26:11Z</time>
      </trkpt>
      <trkpt lat="47.08473" lon="0.85808">
        <ele>92.4</ele>
        <time>2020-07-03T13:26:12Z</time>
      </trkpt>
      <trkpt lat="47.08469" lon="0.85804">
        <ele>92.3</ele>
        <time>2020-07-03T13:26:13Z</time>
      </trkpt>
      <trkpt lat="47.08466" lon="0.85799">
        <ele>92.3</ele>
        <time>2020-07-03T13:26:14Z</time>
      </trkpt>
      <trkpt lat="47.08463" lon="0.85794">
        <ele>92.2</ele>
        <time>2020-07-03T13:26:15Z</time>
      </trkpt>
      <trkpt lat="47.08459" lon="0.85791">
        <ele>92.2</ele>
        <time>2020-07-03T13:26:16Z</time>
      </trkpt>
      <trkpt lat="47.08454" lon="0.85786">
        <ele>92.2</ele>
        <time>2020-07-03T13:26:17Z</time>
      </trkpt>
      <trkpt lat="47.08449" lon="0.85782">
        <ele>92.2</ele>
        <time>2020-07-03T13:26:18Z</time>
      </trkpt>
      <trkpt lat="47.08444" lon="0.85778">
        <ele>92.2</ele>
        <time>2020-07-03T13:26:19Z</time>
      </trkpt>
      <trkpt lat="47.08439" lon="0.85776">
        <ele>92.3</ele>
        <time>2020-07-03T13:26:20Z</time>
      </trkpt>
      <trkpt lat="47.08434" lon="0.85774">
        <ele>92.4</ele>
        <time>2020-07-03T13:26:21Z</time>
      </trkpt>
      <trkpt lat="47.0843" lon="0.85773">
        <ele>92.5</ele>
        <time>2020-07-03T13:26:22Z</time>
      </trkpt>
      <trkpt lat="47.08425" lon="0.85772">
        <ele>92.6</ele>
        <time>2020-07-03T13:26:23Z</time>
      </trkpt>
      <trkpt lat="47.0842" lon="0.85773">
        <ele>92.7</ele>
        <time>2020-07-03T13:26:24Z</time>
      </trkpt>
      <trkpt lat="47.08416" lon="0.85772">
        <ele>92.8</ele>
        <time>2020-07-03T13:26:25Z</time>
      </trkpt>
      <trkpt lat="47.08411" lon="0.85771">
        <ele>92.9</ele>
        <time>2020-07-03T13:26:26Z</time>
      </trkpt>
      <trkpt lat="47.08406" lon="0.85768">
        <ele>93</ele>
        <time>2020-07-03T13:26:27Z</time>
      </trkpt>
      <trkpt lat="47.08402" lon="0.85764">
        <ele>93.1</ele>
        <time>2020-07-03T13:26:28Z</time>
      </trkpt>
      <trkpt lat="47.08398" lon="0.8576">
        <ele>93.1</ele>
        <time>2020-07-03T13:26:29Z</time>
      </trkpt>
      <trkpt lat="47.08394" lon="0.85755">
        <ele>92.8</ele>
        <time>2020-07-03T13:26:30Z</time>
      </trkpt>
      <trkpt lat="47.08391" lon="0.85748">
        <ele>92.5</ele>
        <time>2020-07-03T13:26:31Z</time>
      </trkpt>
      <trkpt lat="47.08388" lon="0.85741">
        <ele>92.3</ele>
        <time>2020-07-03T13:26:32Z</time>
      </trkpt>
      <trkpt lat="47.08385" lon="0.85735">
        <ele>92.1</ele>
        <time>2020-07-03T13:26:33Z</time>
      </trkpt>
      <trkpt lat="47.08383" lon="0.85729">
        <ele>92</ele>
        <time>2020-07-03T13:26:34Z</time>
      </trkpt>
      <trkpt lat="47.08381" lon="0.85723">
        <ele>91.8</ele>
        <time>2020-07-03T13:26:35Z</time>
      </trkpt>
      <trkpt lat="47.08379" lon="0.85717">
        <ele>91.7</ele>
        <time>2020-07-03T13:26:36Z</time>
      </trkpt>
      <trkpt lat="47.08378" lon="0.85712">
        <ele>91.6</ele>
        <time>2020-07-03T13:26:37Z</time>
      </trkpt>
      <trkpt lat="47.08376" lon="0.85705">
        <ele>91.4</ele>
        <time>2020-07-03T13:26:38Z</time>
      </trkpt>
      <trkpt lat="47.08374" lon="0.85697">
        <ele>91.3</ele>
        <time>2020-07-03T13:26:39Z</time>
      </trkpt>
      <trkpt lat="47.08372" lon="0.85688">
        <ele>91.1</ele>
        <time>2020-07-03T13:26:40Z</time>
      </trkpt>
      <trkpt lat="47.0837" lon="0.8568">
        <ele>91</ele>
        <time>2020-07-03T13:26:41Z</time>
      </trkpt>
      <trkpt lat="47.08367" lon="0.85672">
        <ele>90.9</ele>
        <time>2020-07-03T13:26:42Z</time>
      </trkpt>
      <trkpt lat="47.08365" lon="0.85664">
        <ele>90.9</ele>
        <time>2020-07-03T13:26:43Z</time>
      </trkpt>
      <trkpt lat="47.08361" lon="0.85656">
        <ele>90.8</ele>
        <time>2020-07-03T13:26:44Z</time>
      </trkpt>
      <trkpt lat="47.08358" lon="0.85647">
        <ele>90.8</ele>
        <time>2020-07-03T13:26:45Z</time>
      </trkpt>
      <trkpt lat="47.08355" lon="0.85639">
        <ele>90.8</ele>
        <time>2020-07-03T13:26:46Z</time>
      </trkpt>
      <trkpt lat="47.08351" lon="0.85631">
        <ele>90.8</ele>
        <time>2020-07-03T13:26:47Z</time>
      </trkpt>
      <trkpt lat="47.08347" lon="0.85624">
        <ele>90.9</ele>
        <time>2020-07-03T13:26:48Z</time>
      </trkpt>
      <trkpt lat="47.08344" lon="0.85618">
        <ele>91</ele>
        <time>2020-07-03T13:26:49Z</time>
      </trkpt>
      <trkpt lat="47.08341" lon="0.8561">
        <ele>91.1</ele>
        <time>2020-07-03T13:26:50Z</time>
      </trkpt>
      <trkpt lat="47.08338" lon="0.85604">
        <ele>91.3</ele>
        <time>2020-07-03T13:26:51Z</time>
      </trkpt>
      <trkpt lat="47.08335" lon="0.85598">
        <ele>91.5</ele>
        <time>2020-07-03T13:26:52Z</time>
      </trkpt>
      <trkpt lat="47.0833" lon="0.85591">
        <ele>91.8</ele>
        <time>2020-07-03T13:26:53Z</time>
      </trkpt>
      <trkpt lat="47.08326" lon="0.85585">
        <ele>92</ele>
        <time>2020-07-03T13:26:54Z</time>
      </trkpt>
      <trkpt lat="47.08323" lon="0.85579">
        <ele>92.1</ele>
        <time>2020-07-03T13:26:55Z</time>
      </trkpt>
      <trkpt lat="47.08321" lon="0.85574">
        <ele>92.2</ele>
        <time>2020-07-03T13:26:56Z</time>
      </trkpt>
      <trkpt lat="47.08318" lon="0.85571">
        <ele>92.3</ele>
        <time>2020-07-03T13:26:57Z</time>
      </trkpt>
      <trkpt lat="47.08314" lon="0.85564">
        <ele>92.6</ele>
        <time>2020-07-03T13:26:58Z</time>
      </trkpt>
      <trkpt lat="47.0831" lon="0.85556">
        <ele>92.9</ele>
        <time>2020-07-03T13:26:59Z</time>
      </trkpt>
      <trkpt lat="47.08306" lon="0.85551">
        <ele>93.2</ele>
        <time>2020-07-03T13:27:00Z</time>
      </trkpt>
      <trkpt lat="47.08302" lon="0.85544">
        <ele>93.5</ele>
        <time>2020-07-03T13:27:01Z</time>
      </trkpt>
      <trkpt lat="47.08299" lon="0.85539">
        <ele>93.8</ele>
        <time>2020-07-03T13:27:02Z</time>
      </trkpt>
      <trkpt lat="47.08295" lon="0.85534">
        <ele>94.1</ele>
        <time>2020-07-03T13:27:03Z</time>
      </trkpt>
      <trkpt lat="47.08292" lon="0.85529">
        <ele>94.4</ele>
        <time>2020-07-03T13:27:04Z</time>
      </trkpt>
      <trkpt lat="47.08289" lon="0.85524">
        <ele>94.7</ele>
        <time>2020-07-03T13:27:05Z</time>
      </trkpt>
      <trkpt lat="47.08286" lon="0.85519">
        <ele>95</ele>
        <time>2020-07-03T13:27:06Z</time>
      </trkpt>
      <trkpt lat="47.08283" lon="0.85516">
        <ele>95.2</ele>
        <time>2020-07-03T13:27:07Z</time>
      </trkpt>
      <trkpt lat="47.08282" lon="0.85512">
        <ele>95.4</ele>
        <time>2020-07-03T13:27:08Z</time>
      </trkpt>
      <trkpt lat="47.08279" lon="0.85509">
        <ele>95.5</ele>
        <time>2020-07-03T13:27:09Z</time>
      </trkpt>
      <trkpt lat="47.08279" lon="0.85508">
        <ele>95.6</ele>
        <time>2020-07-03T13:27:10Z</time>
      </trkpt>
      <trkpt lat="47.08276" lon="0.85505">
        <ele>95.8</ele>
        <time>2020-07-03T13:27:11Z</time>
      </trkpt>
      <trkpt lat="47.08275" lon="0.85503">
        <ele>95.9</ele>
        <time>2020-07-03T13:27:12Z</time>
      </trkpt>
      <trkpt lat="47.08273" lon="0.85498">
        <ele>96.1</ele>
        <time>2020-07-03T13:27:13Z</time>
      </trkpt>
      <trkpt lat="47.08272" lon="0.85497">
        <ele>96.2</ele>
        <time>2020-07-03T13:27:14Z</time>
      </trkpt>
      <trkpt lat="47.0827" lon="0.85492">
        <ele>96.5</ele>
        <time>2020-07-03T13:27:15Z</time>
      </trkpt>
      <trkpt lat="47.08268" lon="0.8549">
        <ele>96.6</ele>
        <time>2020-07-03T13:27:16Z</time>
      </trkpt>
      <trkpt lat="47.08266" lon="0.85486">
        <ele>96.8</ele>
        <time>2020-07-03T13:27:17Z</time>
      </trkpt>
      <trkpt lat="47.08265" lon="0.85484">
        <ele>96.9</ele>
        <time>2020-07-03T13:27:18Z</time>
      </trkpt>
      <trkpt lat="47.08262" lon="0.8548">
        <ele>97.2</ele>
        <time>2020-07-03T13:27:19Z</time>
      </trkpt>
      <trkpt lat="47.08262" lon="0.85478">
        <ele>97.3</ele>
        <time>2020-07-03T13:27:20Z</time>
      </trkpt>
      <trkpt lat="47.08259" lon="0.85476">
        <ele>97.6</ele>
        <time>2020-07-03T13:27:21Z</time>
      </trkpt>
      <trkpt lat="47.08258" lon="0.85475">
        <ele>97.7</ele>
        <time>2020-07-03T13:27:22Z</time>
      </trkpt>
      <trkpt lat="47.08256" lon="0.85472">
        <ele>97.9</ele>
        <time>2020-07-03T13:27:23Z</time>
      </trkpt>
      <trkpt lat="47.08253" lon="0.85467">
        <ele>98.2</ele>
        <time>2020-07-03T13:27:24Z</time>
      </trkpt>
      <trkpt lat="47.08251" lon="0.85464">
        <ele>98.5</ele>
        <time>2020-07-03T13:27:25Z</time>
      </trkpt>
      <trkpt lat="47.08249" lon="0.85461">
        <ele>98.8</ele>
        <time>2020-07-03T13:27:26Z</time>
      </trkpt>
      <trkpt lat="47.08247" lon="0.85458">
        <ele>99</ele>
        <time>2020-07-03T13:27:27Z</time>
      </trkpt>
      <trkpt lat="47.08244" lon="0.85455">
        <ele>99.3</ele>
        <time>2020-07-03T13:27:28Z</time>
      </trkpt>
      <trkpt lat="47.08242" lon="0.85453">
        <ele>99.5</ele>
        <time>2020-07-03T13:27:29Z</time>
      </trkpt>
      <trkpt lat="47.0824" lon="0.8545">
        <ele>99.7</ele>
        <time>2020-07-03T13:27:30Z</time>
      </trkpt>
      <trkpt lat="47.08236" lon="0.85446">
        <ele>100</ele>
        <time>2020-07-03T13:27:31Z</time>
      </trkpt>
      <trkpt lat="47.08234" lon="0.85444">
        <ele>100.2</ele>
        <time>2020-07-03T13:27:32Z</time>
      </trkpt>
      <trkpt lat="47.08232" lon="0.85441">
        <ele>100.4</ele>
        <time>2020-07-03T13:27:33Z</time>
      </trkpt>
      <trkpt lat="47.0823" lon="0.85439">
        <ele>100.5</ele>
        <time>2020-07-03T13:27:34Z</time>
      </trkpt>
      <trkpt lat="47.08227" lon="0.85435">
        <ele>100.8</ele>
        <time>2020-07-03T13:27:35Z</time>
      </trkpt>
      <trkpt lat="47.08226" lon="0.85433">
        <ele>100.9</ele>
        <time>2020-07-03T13:27:36Z</time>
      </trkpt>
      <trkpt lat="47.08225" lon="0.85432">
        <ele>101</ele>
        <time>2020-07-03T13:27:37Z</time>
      </trkpt>
      <trkpt lat="47.08223" lon="0.85431">
        <ele>101.1</ele>
        <time>2020-07-03T13:27:38Z</time>
      </trkpt>
      <trkpt lat="47.0822" lon="0.8543">
        <ele>101.3</ele>
        <time>2020-07-03T13:27:39Z</time>
      </trkpt>
      <trkpt lat="47.08217" lon="0.85428">
        <ele>101.4</ele>
        <time>2020-07-03T13:27:40Z</time>
      </trkpt>
      <trkpt lat="47.08214" lon="0.85426">
        <ele>101.6</ele>
        <time>2020-07-03T13:27:41Z</time>
      </trkpt>
      <trkpt lat="47.08213" lon="0.85425">
        <ele>101.7</ele>
        <time>2020-07-03T13:27:42Z</time>
      </trkpt>
      <trkpt lat="47.0821" lon="0.85423">
        <ele>101.9</ele>
        <time>2020-07-03T13:27:43Z</time>
      </trkpt>
      <trkpt lat="47.08209" lon="0.85422">
        <ele>102</ele>
        <time>2020-07-03T13:27:44Z</time>
      </trkpt>
      <trkpt lat="47.08206" lon="0.8542">
        <ele>102.1</ele>
        <time>2020-07-03T13:27:45Z</time>
      </trkpt>
      <trkpt lat="47.08205" lon="0.85419">
        <ele>102.2</ele>
        <time>2020-07-03T13:27:46Z</time>
      </trkpt>
      <trkpt lat="47.08203" lon="0.85417">
        <ele>102.4</ele>
        <time>2020-07-03T13:27:47Z</time>
      </trkpt>
      <trkpt lat="47.08202" lon="0.85417">
        <ele>102.4</ele>
        <time>2020-07-03T13:27:48Z</time>
      </trkpt>
      <trkpt lat="47.08199" lon="0.85416">
        <ele>102.7</ele>
        <time>2020-07-03T13:27:49Z</time>
      </trkpt>
      <trkpt lat="47.08196" lon="0.85414">
        <ele>102.9</ele>
        <time>2020-07-03T13:27:50Z</time>
      </trkpt>
      <trkpt lat="47.08192" lon="0.85412">
        <ele>103.2</ele>
        <time>2020-07-03T13:27:51Z</time>
      </trkpt>
      <trkpt lat="47.08189" lon="0.85409">
        <ele>103.6</ele>
        <time>2020-07-03T13:27:52Z</time>
      </trkpt>
      <trkpt lat="47.08185" lon="0.85408">
        <ele>104</ele>
        <time>2020-07-03T13:27:53Z</time>
      </trkpt>
      <trkpt lat="47.08182" lon="0.85407">
        <ele>104.3</ele>
        <time>2020-07-03T13:27:54Z</time>
      </trkpt>
      <trkpt lat="47.08179" lon="0.85405">
        <ele>104.6</ele>
        <time>2020-07-03T13:27:55Z</time>
      </trkpt>
      <trkpt lat="47.08176" lon="0.85404">
        <ele>104.8</ele>
        <time>2020-07-03T13:27:56Z</time>
      </trkpt>
      <trkpt lat="47.08173" lon="0.85402">
        <ele>105</ele>
        <time>2020-07-03T13:27:57Z</time>
      </trkpt>
      <trkpt lat="47.0817" lon="0.854">
        <ele>105.3</ele>
        <time>2020-07-03T13:27:58Z</time>
      </trkpt>
      <trkpt lat="47.08168" lon="0.85397">
        <ele>105.5</ele>
        <time>2020-07-03T13:27:59Z</time>
      </trkpt>
      <trkpt lat="47.08165" lon="0.85396">
        <ele>105.8</ele>
        <time>2020-07-03T13:28:00Z</time>
      </trkpt>
      <trkpt lat="47.08164" lon="0.85395">
        <ele>105.8</ele>
        <time>2020-07-03T13:28:01Z</time>
      </trkpt>
      <trkpt lat="47.0816" lon="0.85392">
        <ele>106.1</ele>
        <time>2020-07-03T13:28:02Z</time>
      </trkpt>
      <trkpt lat="47.08159" lon="0.85392">
        <ele>106.2</ele>
        <time>2020-07-03T13:28:03Z</time>
      </trkpt>
      <trkpt lat="47.08156" lon="0.8539">
        <ele>106.4</ele>
        <time>2020-07-03T13:28:04Z</time>
      </trkpt>
      <trkpt lat="47.08155" lon="0.8539">
        <ele>106.5</ele>
        <time>2020-07-03T13:28:05Z</time>
      </trkpt>
      <trkpt lat="47.08152" lon="0.85389">
        <ele>106.8</ele>
        <time>2020-07-03T13:28:06Z</time>
      </trkpt>
      <trkpt lat="47.0815" lon="0.85388">
        <ele>106.9</ele>
        <time>2020-07-03T13:28:07Z</time>
      </trkpt>
      <trkpt lat="47.08147" lon="0.85385">
        <ele>107.1</ele>
        <time>2020-07-03T13:28:08Z</time>
      </trkpt>
      <trkpt lat="47.08146" lon="0.85384">
        <ele>107.2</ele>
        <time>2020-07-03T13:28:09Z</time>
      </trkpt>
      <trkpt lat="47.08143" lon="0.85381">
        <ele>107.5</ele>
        <time>2020-07-03T13:28:10Z</time>
      </trkpt>
      <trkpt lat="47.08142" lon="0.8538">
        <ele>107.6</ele>
        <time>2020-07-03T13:28:11Z</time>
      </trkpt>
      <trkpt lat="47.08138" lon="0.85378">
        <ele>107.9</ele>
        <time>2020-07-03T13:28:12Z</time>
      </trkpt>
      <trkpt lat="47.08137" lon="0.85377">
        <ele>108</ele>
        <time>2020-07-03T13:28:13Z</time>
      </trkpt>
      <trkpt lat="47.08134" lon="0.85375">
        <ele>108.2</ele>
        <time>2020-07-03T13:28:14Z</time>
      </trkpt>
      <trkpt lat="47.08133" lon="0.85375">
        <ele>108.3</ele>
        <time>2020-07-03T13:28:15Z</time>
      </trkpt>
      <trkpt lat="47.0813" lon="0.85373">
        <ele>108.6</ele>
        <time>2020-07-03T13:28:16Z</time>
      </trkpt>
      <trkpt lat="47.08129" lon="0.85373">
        <ele>108.7</ele>
        <time>2020-07-03T13:28:17Z</time>
      </trkpt>
      <trkpt lat="47.08125" lon="0.85371">
        <ele>109</ele>
        <time>2020-07-03T13:28:18Z</time>
      </trkpt>
      <trkpt lat="47.08124" lon="0.85371">
        <ele>109.1</ele>
        <time>2020-07-03T13:28:19Z</time>
      </trkpt>
      <trkpt lat="47.08121" lon="0.8537">
        <ele>109.4</ele>
        <time>2020-07-03T13:28:20Z</time>
      </trkpt>
      <trkpt lat="47.08117" lon="0.85368">
        <ele>109.8</ele>
        <time>2020-07-03T13:28:21Z</time>
      </trkpt>
      <trkpt lat="47.08114" lon="0.85366">
        <ele>110</ele>
        <time>2020-07-03T13:28:22Z</time>
      </trkpt>
      <trkpt lat="47.08111" lon="0.85363">
        <ele>110.3</ele>
        <time>2020-07-03T13:28:23Z</time>
      </trkpt>
      <trkpt lat="47.08108" lon="0.85362">
        <ele>110.5</ele>
        <time>2020-07-03T13:28:24Z</time>
      </trkpt>
      <trkpt lat="47.08106" lon="0.8536">
        <ele>110.7</ele>
        <time>2020-07-03T13:28:25Z</time>
      </trkpt>
      <trkpt lat="47.08104" lon="0.8536">
        <ele>110.8</ele>
        <time>2020-07-03T13:28:26Z</time>
      </trkpt>
      <trkpt lat="47.08101" lon="0.85358">
        <ele>111</ele>
        <time>2020-07-03T13:28:27Z</time>
      </trkpt>
      <trkpt lat="47.08099" lon="0.85357">
        <ele>111.2</ele>
        <time>2020-07-03T13:28:28Z</time>
      </trkpt>
      <trkpt lat="47.08096" lon="0.85357">
        <ele>111.3</ele>
        <time>2020-07-03T13:28:29Z</time>
      </trkpt>
      <trkpt lat="47.08093" lon="0.85356">
        <ele>111.5</ele>
        <time>2020-07-03T13:28:30Z</time>
      </trkpt>
      <trkpt lat="47.0809" lon="0.85355">
        <ele>111.7</ele>
        <time>2020-07-03T13:28:31Z</time>
      </trkpt>
      <trkpt lat="47.08088" lon="0.85354">
        <ele>111.9</ele>
        <time>2020-07-03T13:28:32Z</time>
      </trkpt>
      <trkpt lat="47.08086" lon="0.85353">
        <ele>111.9</ele>
        <time>2020-07-03T13:28:33Z</time>
      </trkpt>
      <trkpt lat="47.08084" lon="0.85351">
        <ele>112.1</ele>
        <time>2020-07-03T13:28:34Z</time>
      </trkpt>
      <trkpt lat="47.08083" lon="0.8535">
        <ele>112.2</ele>
        <time>2020-07-03T13:28:35Z</time>
      </trkpt>
      <trkpt lat="47.08079" lon="0.8535">
        <ele>112.4</ele>
        <time>2020-07-03T13:28:36Z</time>
      </trkpt>
      <trkpt lat="47.08078" lon="0.85349">
        <ele>112.5</ele>
        <time>2020-07-03T13:28:37Z</time>
      </trkpt>
      <trkpt lat="47.08074" lon="0.85347">
        <ele>112.7</ele>
        <time>2020-07-03T13:28:38Z</time>
      </trkpt>
      <trkpt lat="47.08073" lon="0.85346">
        <ele>112.8</ele>
        <time>2020-07-03T13:28:39Z</time>
      </trkpt>
      <trkpt lat="47.08068" lon="0.85344">
        <ele>113.1</ele>
        <time>2020-07-03T13:28:40Z</time>
      </trkpt>
      <trkpt lat="47.08066" lon="0.85343">
        <ele>113.3</ele>
        <time>2020-07-03T13:28:41Z</time>
      </trkpt>
      <trkpt lat="47.08063" lon="0.85342">
        <ele>113.5</ele>
        <time>2020-07-03T13:28:42Z</time>
      </trkpt>
      <trkpt lat="47.08061" lon="0.85339">
        <ele>113.8</ele>
        <time>2020-07-03T13:28:43Z</time>
      </trkpt>
      <trkpt lat="47.08057" lon="0.85338">
        <ele>114</ele>
        <time>2020-07-03T13:28:44Z</time>
      </trkpt>
      <trkpt lat="47.08056" lon="0.85337">
        <ele>114.1</ele>
        <time>2020-07-03T13:28:45Z</time>
      </trkpt>
      <trkpt lat="47.08053" lon="0.85336">
        <ele>114.4</ele>
        <time>2020-07-03T13:28:46Z</time>
      </trkpt>
      <trkpt lat="47.0805" lon="0.85335">
        <ele>114.7</ele>
        <time>2020-07-03T13:28:47Z</time>
      </trkpt>
      <trkpt lat="47.08049" lon="0.85335">
        <ele>114.8</ele>
        <time>2020-07-03T13:28:48Z</time>
      </trkpt>
      <trkpt lat="47.08046" lon="0.85333">
        <ele>115</ele>
        <time>2020-07-03T13:28:49Z</time>
      </trkpt>
      <trkpt lat="47.08042" lon="0.85331">
        <ele>115.3</ele>
        <time>2020-07-03T13:28:50Z</time>
      </trkpt>
      <trkpt lat="47.0804" lon="0.8533">
        <ele>115.4</ele>
        <time>2020-07-03T13:28:51Z</time>
      </trkpt>
      <trkpt lat="47.08039" lon="0.8533">
        <ele>115.5</ele>
        <time>2020-07-03T13:28:52Z</time>
      </trkpt>
      <trkpt lat="47.08036" lon="0.85328">
        <ele>115.7</ele>
        <time>2020-07-03T13:28:53Z</time>
      </trkpt>
      <trkpt lat="47.08033" lon="0.85327">
        <ele>115.9</ele>
        <time>2020-07-03T13:28:54Z</time>
      </trkpt>
      <trkpt lat="47.0803" lon="0.85326">
        <ele>116.1</ele>
        <time>2020-07-03T13:28:55Z</time>
      </trkpt>
      <trkpt lat="47.08027" lon="0.85325">
        <ele>116.3</ele>
        <time>2020-07-03T13:28:56Z</time>
      </trkpt>
      <trkpt lat="47.08024" lon="0.85325">
        <ele>116.5</ele>
        <time>2020-07-03T13:28:57Z</time>
      </trkpt>
      <trkpt lat="47.08021" lon="0.85324">
        <ele>116.7</ele>
        <time>2020-07-03T13:28:58Z</time>
      </trkpt>
      <trkpt lat="47.0802" lon="0.85324">
        <ele>116.8</ele>
        <time>2020-07-03T13:28:59Z</time>
      </trkpt>
      <trkpt lat="47.08016" lon="0.85322">
        <ele>117.2</ele>
        <time>2020-07-03T13:29:00Z</time>
      </trkpt>
      <trkpt lat="47.08013" lon="0.8532">
        <ele>117.4</ele>
        <time>2020-07-03T13:29:01Z</time>
      </trkpt>
      <trkpt lat="47.08012" lon="0.85319">
        <ele>117.5</ele>
        <time>2020-07-03T13:29:02Z</time>
      </trkpt>
      <trkpt lat="47.08008" lon="0.85318">
        <ele>117.7</ele>
        <time>2020-07-03T13:29:03Z</time>
      </trkpt>
      <trkpt lat="47.08007" lon="0.85318">
        <ele>117.9</ele>
        <time>2020-07-03T13:29:04Z</time>
      </trkpt>
      <trkpt lat="47.08003" lon="0.85316">
        <ele>118.1</ele>
        <time>2020-07-03T13:29:05Z</time>
      </trkpt>
      <trkpt lat="47.07999" lon="0.85314">
        <ele>118.4</ele>
        <time>2020-07-03T13:29:06Z</time>
      </trkpt>
      <trkpt lat="47.07995" lon="0.85312">
        <ele>118.7</ele>
        <time>2020-07-03T13:29:07Z</time>
      </trkpt>
      <trkpt lat="47.07992" lon="0.8531">
        <ele>118.9</ele>
        <time>2020-07-03T13:29:08Z</time>
      </trkpt>
      <trkpt lat="47.07988" lon="0.85308">
        <ele>119.1</ele>
        <time>2020-07-03T13:29:09Z</time>
      </trkpt>
      <trkpt lat="47.07984" lon="0.85307">
        <ele>119.2</ele>
        <time>2020-07-03T13:29:10Z</time>
      </trkpt>
      <trkpt lat="47.0798" lon="0.85305">
        <ele>119.4</ele>
        <time>2020-07-03T13:29:11Z</time>
      </trkpt>
      <trkpt lat="47.07976" lon="0.85303">
        <ele>119.5</ele>
        <time>2020-07-03T13:29:12Z</time>
      </trkpt>
      <trkpt lat="47.07972" lon="0.85303">
        <ele>119.6</ele>
        <time>2020-07-03T13:29:13Z</time>
      </trkpt>
      <trkpt lat="47.07972" lon="0.85303">
        <ele>119.6</ele>
        <time>2020-07-03T13:29:14Z</time>
      </trkpt>
      <trkpt lat="47.07969" lon="0.85302">
        <ele>119.6</ele>
        <time>2020-07-03T13:29:15Z</time>
      </trkpt>
      <trkpt lat="47.07966" lon="0.85303">
        <ele>119.6</ele>
        <time>2020-07-03T13:29:16Z</time>
      </trkpt>
      <trkpt lat="47.07962" lon="0.85302">
        <ele>119.7</ele>
        <time>2020-07-03T13:29:17Z</time>
      </trkpt>
      <trkpt lat="47.07959" lon="0.85299">
        <ele>119.9</ele>
        <time>2020-07-03T13:29:18Z</time>
      </trkpt>
      <trkpt lat="47.07956" lon="0.85298">
        <ele>120.1</ele>
        <time>2020-07-03T13:29:19Z</time>
      </trkpt>
      <trkpt lat="47.07955" lon="0.85297">
        <ele>120.2</ele>
        <time>2020-07-03T13:29:20Z</time>
      </trkpt>
      <trkpt lat="47.07952" lon="0.85296">
        <ele>120.4</ele>
        <time>2020-07-03T13:29:21Z</time>
      </trkpt>
      <trkpt lat="47.07951" lon="0.85295">
        <ele>120.4</ele>
        <time>2020-07-03T13:29:22Z</time>
      </trkpt>
      <trkpt lat="47.07947" lon="0.85293">
        <ele>120.6</ele>
        <time>2020-07-03T13:29:23Z</time>
      </trkpt>
      <trkpt lat="47.07946" lon="0.85293">
        <ele>120.6</ele>
        <time>2020-07-03T13:29:24Z</time>
      </trkpt>
      <trkpt lat="47.07943" lon="0.85292">
        <ele>120.7</ele>
        <time>2020-07-03T13:29:25Z</time>
      </trkpt>
      <trkpt lat="47.0794" lon="0.85292">
        <ele>120.8</ele>
        <time>2020-07-03T13:29:26Z</time>
      </trkpt>
      <trkpt lat="47.07936" lon="0.85292">
        <ele>120.9</ele>
        <time>2020-07-03T13:29:27Z</time>
      </trkpt>
      <trkpt lat="47.07933" lon="0.85291">
        <ele>121</ele>
        <time>2020-07-03T13:29:28Z</time>
      </trkpt>
      <trkpt lat="47.07929" lon="0.8529">
        <ele>121.1</ele>
        <time>2020-07-03T13:29:29Z</time>
      </trkpt>
      <trkpt lat="47.07927" lon="0.85289">
        <ele>121.2</ele>
        <time>2020-07-03T13:29:30Z</time>
      </trkpt>
      <trkpt lat="47.07924" lon="0.85288">
        <ele>121.2</ele>
        <time>2020-07-03T13:29:31Z</time>
      </trkpt>
      <trkpt lat="47.07921" lon="0.85287">
        <ele>121.3</ele>
        <time>2020-07-03T13:29:32Z</time>
      </trkpt>
      <trkpt lat="47.07917" lon="0.85287">
        <ele>121.3</ele>
        <time>2020-07-03T13:29:33Z</time>
      </trkpt>
      <trkpt lat="47.07913" lon="0.85286">
        <ele>121.3</ele>
        <time>2020-07-03T13:29:34Z</time>
      </trkpt>
      <trkpt lat="47.07908" lon="0.85286">
        <ele>121.3</ele>
        <time>2020-07-03T13:29:35Z</time>
      </trkpt>
      <trkpt lat="47.07906" lon="0.85285">
        <ele>121.3</ele>
        <time>2020-07-03T13:29:36Z</time>
      </trkpt>
      <trkpt lat="47.07903" lon="0.85285">
        <ele>121.3</ele>
        <time>2020-07-03T13:29:37Z</time>
      </trkpt>
      <trkpt lat="47.079" lon="0.85285">
        <ele>121.3</ele>
        <time>2020-07-03T13:29:38Z</time>
      </trkpt>
      <trkpt lat="47.07895" lon="0.85283">
        <ele>121.3</ele>
        <time>2020-07-03T13:29:39Z</time>
      </trkpt>
      <trkpt lat="47.0789" lon="0.85282">
        <ele>121.4</ele>
        <time>2020-07-03T13:29:40Z</time>
      </trkpt>
      <trkpt lat="47.07886" lon="0.85281">
        <ele>121.4</ele>
        <time>2020-07-03T13:29:41Z</time>
      </trkpt>
      <trkpt lat="47.07881" lon="0.85281">
        <ele>121.4</ele>
        <time>2020-07-03T13:29:42Z</time>
      </trkpt>
      <trkpt lat="47.07876" lon="0.8528">
        <ele>121.5</ele>
        <time>2020-07-03T13:29:43Z</time>
      </trkpt>
      <trkpt lat="47.07872" lon="0.8528">
        <ele>121.6</ele>
        <time>2020-07-03T13:29:44Z</time>
      </trkpt>
      <trkpt lat="47.07868" lon="0.85279">
        <ele>121.6</ele>
        <time>2020-07-03T13:29:45Z</time>
      </trkpt>
      <trkpt lat="47.07863" lon="0.85278">
        <ele>121.6</ele>
        <time>2020-07-03T13:29:46Z</time>
      </trkpt>
      <trkpt lat="47.07859" lon="0.85276">
        <ele>121.6</ele>
        <time>2020-07-03T13:29:47Z</time>
      </trkpt>
      <trkpt lat="47.07856" lon="0.85275">
        <ele>121.6</ele>
        <time>2020-07-03T13:29:48Z</time>
      </trkpt>
      <trkpt lat="47.07851" lon="0.85275">
        <ele>121.6</ele>
        <time>2020-07-03T13:29:49Z</time>
      </trkpt>
      <trkpt lat="47.07846" lon="0.85275">
        <ele>121.6</ele>
        <time>2020-07-03T13:29:50Z</time>
      </trkpt>
      <trkpt lat="47.07841" lon="0.85275">
        <ele>121.6</ele>
        <time>2020-07-03T13:29:51Z</time>
      </trkpt>
      <trkpt lat="47.07836" lon="0.85274">
        <ele>121.6</ele>
        <time>2020-07-03T13:29:52Z</time>
      </trkpt>
      <trkpt lat="47.07832" lon="0.85273">
        <ele>121.6</ele>
        <time>2020-07-03T13:29:53Z</time>
      </trkpt>
      <trkpt lat="47.07827" lon="0.85271">
        <ele>121.7</ele>
        <time>2020-07-03T13:29:54Z</time>
      </trkpt>
      <trkpt lat="47.07822" lon="0.8527">
        <ele>121.7</ele>
        <time>2020-07-03T13:29:55Z</time>
      </trkpt>
      <trkpt lat="47.07818" lon="0.85268">
        <ele>121.7</ele>
        <time>2020-07-03T13:29:56Z</time>
      </trkpt>
      <trkpt lat="47.07812" lon="0.85267">
        <ele>121.7</ele>
        <time>2020-07-03T13:29:57Z</time>
      </trkpt>
      <trkpt lat="47.07806" lon="0.85265">
        <ele>121.7</ele>
        <time>2020-07-03T13:29:58Z</time>
      </trkpt>
      <trkpt lat="47.078" lon="0.85263">
        <ele>121.7</ele>
        <time>2020-07-03T13:29:59Z</time>
      </trkpt>
      <trkpt lat="47.07794" lon="0.85261">
        <ele>121.6</ele>
        <time>2020-07-03T13:30:00Z</time>
      </trkpt>
      <trkpt lat="47.07788" lon="0.85259">
        <ele>121.4</ele>
        <time>2020-07-03T13:30:01Z</time>
      </trkpt>
      <trkpt lat="47.07783" lon="0.85256">
        <ele>121.3</ele>
        <time>2020-07-03T13:30:02Z</time>
      </trkpt>
      <trkpt lat="47.07778" lon="0.85253">
        <ele>121.3</ele>
        <time>2020-07-03T13:30:03Z</time>
      </trkpt>
      <trkpt lat="47.07773" lon="0.85249">
        <ele>121.3</ele>
        <time>2020-07-03T13:30:04Z</time>
      </trkpt>
      <trkpt lat="47.07768" lon="0.85244">
        <ele>121.3</ele>
        <time>2020-07-03T13:30:05Z</time>
      </trkpt>
      <trkpt lat="47.07763" lon="0.8524">
        <ele>121.3</ele>
        <time>2020-07-03T13:30:06Z</time>
      </trkpt>
      <trkpt lat="47.0776" lon="0.85237">
        <ele>121.3</ele>
        <time>2020-07-03T13:30:07Z</time>
      </trkpt>
      <trkpt lat="47.07756" lon="0.85234">
        <ele>121.3</ele>
        <time>2020-07-03T13:30:08Z</time>
      </trkpt>
      <trkpt lat="47.07752" lon="0.85229">
        <ele>121.3</ele>
        <time>2020-07-03T13:30:09Z</time>
      </trkpt>
      <trkpt lat="47.07748" lon="0.85225">
        <ele>121.3</ele>
        <time>2020-07-03T13:30:10Z</time>
      </trkpt>
      <trkpt lat="47.07744" lon="0.8522">
        <ele>121.3</ele>
        <time>2020-07-03T13:30:11Z</time>
      </trkpt>
      <trkpt lat="47.07739" lon="0.85214">
        <ele>121.4</ele>
        <time>2020-07-03T13:30:12Z</time>
      </trkpt>
      <trkpt lat="47.07734" lon="0.85209">
        <ele>121.5</ele>
        <time>2020-07-03T13:30:13Z</time>
      </trkpt>
      <trkpt lat="47.0773" lon="0.85206">
        <ele>121.5</ele>
        <time>2020-07-03T13:30:14Z</time>
      </trkpt>
      <trkpt lat="47.07725" lon="0.852">
        <ele>121.5</ele>
        <time>2020-07-03T13:30:15Z</time>
      </trkpt>
      <trkpt lat="47.07721" lon="0.85195">
        <ele>121.5</ele>
        <time>2020-07-03T13:30:16Z</time>
      </trkpt>
      <trkpt lat="47.07716" lon="0.85191">
        <ele>121.5</ele>
        <time>2020-07-03T13:30:17Z</time>
      </trkpt>
      <trkpt lat="47.07712" lon="0.85185">
        <ele>121.5</ele>
        <time>2020-07-03T13:30:18Z</time>
      </trkpt>
      <trkpt lat="47.07709" lon="0.85183">
        <ele>121.5</ele>
        <time>2020-07-03T13:30:19Z</time>
      </trkpt>
      <trkpt lat="47.07705" lon="0.85179">
        <ele>121.6</ele>
        <time>2020-07-03T13:30:20Z</time>
      </trkpt>
      <trkpt lat="47.07702" lon="0.85175">
        <ele>121.6</ele>
        <time>2020-07-03T13:30:21Z</time>
      </trkpt>
      <trkpt lat="47.07697" lon="0.8517">
        <ele>121.8</ele>
        <time>2020-07-03T13:30:22Z</time>
      </trkpt>
      <trkpt lat="47.07692" lon="0.85166">
        <ele>122</ele>
        <time>2020-07-03T13:30:23Z</time>
      </trkpt>
      <trkpt lat="47.07687" lon="0.85162">
        <ele>122.1</ele>
        <time>2020-07-03T13:30:24Z</time>
      </trkpt>
      <trkpt lat="47.07682" lon="0.85158">
        <ele>122.2</ele>
        <time>2020-07-03T13:30:25Z</time>
      </trkpt>
      <trkpt lat="47.07677" lon="0.85154">
        <ele>122.3</ele>
        <time>2020-07-03T13:30:26Z</time>
      </trkpt>
      <trkpt lat="47.07673" lon="0.85149">
        <ele>122.4</ele>
        <time>2020-07-03T13:30:27Z</time>
      </trkpt>
      <trkpt lat="47.07668" lon="0.85146">
        <ele>122.4</ele>
        <time>2020-07-03T13:30:28Z</time>
      </trkpt>
      <trkpt lat="47.07664" lon="0.85141">
        <ele>122.5</ele>
        <time>2020-07-03T13:30:29Z</time>
      </trkpt>
      <trkpt lat="47.07659" lon="0.85137">
        <ele>122.6</ele>
        <time>2020-07-03T13:30:30Z</time>
      </trkpt>
      <trkpt lat="47.07655" lon="0.85132">
        <ele>122.7</ele>
        <time>2020-07-03T13:30:31Z</time>
      </trkpt>
      <trkpt lat="47.0765" lon="0.85128">
        <ele>122.8</ele>
        <time>2020-07-03T13:30:32Z</time>
      </trkpt>
      <trkpt lat="47.07645" lon="0.85124">
        <ele>122.9</ele>
        <time>2020-07-03T13:30:33Z</time>
      </trkpt>
      <trkpt lat="47.07641" lon="0.85119">
        <ele>123</ele>
        <time>2020-07-03T13:30:34Z</time>
      </trkpt>
      <trkpt lat="47.07637" lon="0.85115">
        <ele>123</ele>
        <time>2020-07-03T13:30:35Z</time>
      </trkpt>
      <trkpt lat="47.07633" lon="0.85111">
        <ele>123.2</ele>
        <time>2020-07-03T13:30:36Z</time>
      </trkpt>
      <trkpt lat="47.07628" lon="0.85106">
        <ele>123.3</ele>
        <time>2020-07-03T13:30:37Z</time>
      </trkpt>
      <trkpt lat="47.07623" lon="0.85102">
        <ele>123.4</ele>
        <time>2020-07-03T13:30:38Z</time>
      </trkpt>
      <trkpt lat="47.07619" lon="0.85098">
        <ele>123.5</ele>
        <time>2020-07-03T13:30:39Z</time>
      </trkpt>
      <trkpt lat="47.07615" lon="0.85094">
        <ele>123.6</ele>
        <time>2020-07-03T13:30:40Z</time>
      </trkpt>
      <trkpt lat="47.07611" lon="0.85091">
        <ele>123.7</ele>
        <time>2020-07-03T13:30:41Z</time>
      </trkpt>
      <trkpt lat="47.07608" lon="0.85088">
        <ele>123.8</ele>
        <time>2020-07-03T13:30:42Z</time>
      </trkpt>
      <trkpt lat="47.07603" lon="0.85081">
        <ele>123.9</ele>
        <time>2020-07-03T13:30:43Z</time>
      </trkpt>
      <trkpt lat="47.07599" lon="0.85077">
        <ele>124</ele>
        <time>2020-07-03T13:30:44Z</time>
      </trkpt>
      <trkpt lat="47.07595" lon="0.85074">
        <ele>124.1</ele>
        <time>2020-07-03T13:30:45Z</time>
      </trkpt>
      <trkpt lat="47.07589" lon="0.85068">
        <ele>124.3</ele>
        <time>2020-07-03T13:30:46Z</time>
      </trkpt>
      <trkpt lat="47.07585" lon="0.85064">
        <ele>124.4</ele>
        <time>2020-07-03T13:30:47Z</time>
      </trkpt>
      <trkpt lat="47.07582" lon="0.85061">
        <ele>124.5</ele>
        <time>2020-07-03T13:30:48Z</time>
      </trkpt>
      <trkpt lat="47.07577" lon="0.85056">
        <ele>124.6</ele>
        <time>2020-07-03T13:30:49Z</time>
      </trkpt>
      <trkpt lat="47.07573" lon="0.85052">
        <ele>124.6</ele>
        <time>2020-07-03T13:30:50Z</time>
      </trkpt>
      <trkpt lat="47.0757" lon="0.85048">
        <ele>124.7</ele>
        <time>2020-07-03T13:30:51Z</time>
      </trkpt>
      <trkpt lat="47.07565" lon="0.85043">
        <ele>124.7</ele>
        <time>2020-07-03T13:30:52Z</time>
      </trkpt>
      <trkpt lat="47.07561" lon="0.8504">
        <ele>124.7</ele>
        <time>2020-07-03T13:30:53Z</time>
      </trkpt>
      <trkpt lat="47.07557" lon="0.85036">
        <ele>124.7</ele>
        <time>2020-07-03T13:30:54Z</time>
      </trkpt>
      <trkpt lat="47.07552" lon="0.85031">
        <ele>124.7</ele>
        <time>2020-07-03T13:30:55Z</time>
      </trkpt>
      <trkpt lat="47.07548" lon="0.85026">
        <ele>124.6</ele>
        <time>2020-07-03T13:30:56Z</time>
      </trkpt>
      <trkpt lat="47.07543" lon="0.85022">
        <ele>124.6</ele>
        <time>2020-07-03T13:30:57Z</time>
      </trkpt>
      <trkpt lat="47.07538" lon="0.85017">
        <ele>124.5</ele>
        <time>2020-07-03T13:30:58Z</time>
      </trkpt>
      <trkpt lat="47.07533" lon="0.85012">
        <ele>124.5</ele>
        <time>2020-07-03T13:30:59Z</time>
      </trkpt>
      <trkpt lat="47.07527" lon="0.85007">
        <ele>124.4</ele>
        <time>2020-07-03T13:31:00Z</time>
      </trkpt>
      <trkpt lat="47.07523" lon="0.85002">
        <ele>124.4</ele>
        <time>2020-07-03T13:31:01Z</time>
      </trkpt>
      <trkpt lat="47.07518" lon="0.84998">
        <ele>124.4</ele>
        <time>2020-07-03T13:31:02Z</time>
      </trkpt>
      <trkpt lat="47.07514" lon="0.84993">
        <ele>124.3</ele>
        <time>2020-07-03T13:31:03Z</time>
      </trkpt>
      <trkpt lat="47.0751" lon="0.84988">
        <ele>124.3</ele>
        <time>2020-07-03T13:31:04Z</time>
      </trkpt>
      <trkpt lat="47.07506" lon="0.84982">
        <ele>124.2</ele>
        <time>2020-07-03T13:31:05Z</time>
      </trkpt>
      <trkpt lat="47.07503" lon="0.84977">
        <ele>124.1</ele>
        <time>2020-07-03T13:31:06Z</time>
      </trkpt>
      <trkpt lat="47.075" lon="0.84971">
        <ele>124</ele>
        <time>2020-07-03T13:31:07Z</time>
      </trkpt>
      <trkpt lat="47.07496" lon="0.84965">
        <ele>123.9</ele>
        <time>2020-07-03T13:31:08Z</time>
      </trkpt>
      <trkpt lat="47.07493" lon="0.84959">
        <ele>123.7</ele>
        <time>2020-07-03T13:31:09Z</time>
      </trkpt>
      <trkpt lat="47.0749" lon="0.84953">
        <ele>123.6</ele>
        <time>2020-07-03T13:31:10Z</time>
      </trkpt>
      <trkpt lat="47.07487" lon="0.84947">
        <ele>123.5</ele>
        <time>2020-07-03T13:31:11Z</time>
      </trkpt>
      <trkpt lat="47.07483" lon="0.8494">
        <ele>123.3</ele>
        <time>2020-07-03T13:31:12Z</time>
      </trkpt>
      <trkpt lat="47.0748" lon="0.84933">
        <ele>123.2</ele>
        <time>2020-07-03T13:31:13Z</time>
      </trkpt>
      <trkpt lat="47.07477" lon="0.84927">
        <ele>123.1</ele>
        <time>2020-07-03T13:31:14Z</time>
      </trkpt>
      <trkpt lat="47.07473" lon="0.8492">
        <ele>122.9</ele>
        <time>2020-07-03T13:31:15Z</time>
      </trkpt>
      <trkpt lat="47.0747" lon="0.84913">
        <ele>122.8</ele>
        <time>2020-07-03T13:31:16Z</time>
      </trkpt>
      <trkpt lat="47.07465" lon="0.84903">
        <ele>122.5</ele>
        <time>2020-07-03T13:31:17Z</time>
      </trkpt>
      <trkpt lat="47.07462" lon="0.84896">
        <ele>122.4</ele>
        <time>2020-07-03T13:31:18Z</time>
      </trkpt>
      <trkpt lat="47.07459" lon="0.8489">
        <ele>122.2</ele>
        <time>2020-07-03T13:31:19Z</time>
      </trkpt>
      <trkpt lat="47.07456" lon="0.84883">
        <ele>122</ele>
        <time>2020-07-03T13:31:20Z</time>
      </trkpt>
      <trkpt lat="47.07452" lon="0.84877">
        <ele>121.8</ele>
        <time>2020-07-03T13:31:21Z</time>
      </trkpt>
      <trkpt lat="47.07448" lon="0.84868">
        <ele>121.4</ele>
        <time>2020-07-03T13:31:22Z</time>
      </trkpt>
      <trkpt lat="47.07445" lon="0.84859">
        <ele>120.9</ele>
        <time>2020-07-03T13:31:23Z</time>
      </trkpt>
      <trkpt lat="47.07441" lon="0.84851">
        <ele>118.8</ele>
        <time>2020-07-03T13:31:24Z</time>
      </trkpt>
      <trkpt lat="47.07438" lon="0.84843">
        <ele>118.4</ele>
        <time>2020-07-03T13:31:25Z</time>
      </trkpt>
      <trkpt lat="47.07434" lon="0.84835">
        <ele>118.1</ele>
        <time>2020-07-03T13:31:26Z</time>
      </trkpt>
      <trkpt lat="47.07428" lon="0.84825">
        <ele>117.5</ele>
        <time>2020-07-03T13:31:27Z</time>
      </trkpt>
      <trkpt lat="47.07423" lon="0.84817">
        <ele>117.1</ele>
        <time>2020-07-03T13:31:28Z</time>
      </trkpt>
      <trkpt lat="47.07418" lon="0.84808">
        <ele>116.6</ele>
        <time>2020-07-03T13:31:29Z</time>
      </trkpt>
      <trkpt lat="47.07413" lon="0.848">
        <ele>116.2</ele>
        <time>2020-07-03T13:31:30Z</time>
      </trkpt>
      <trkpt lat="47.07408" lon="0.84791">
        <ele>115.8</ele>
        <time>2020-07-03T13:31:31Z</time>
      </trkpt>
      <trkpt lat="47.07403" lon="0.84783">
        <ele>115.5</ele>
        <time>2020-07-03T13:31:32Z</time>
      </trkpt>
      <trkpt lat="47.07398" lon="0.84774">
        <ele>115.1</ele>
        <time>2020-07-03T13:31:33Z</time>
      </trkpt>
      <trkpt lat="47.07392" lon="0.84765">
        <ele>114.6</ele>
        <time>2020-07-03T13:31:34Z</time>
      </trkpt>
      <trkpt lat="47.07386" lon="0.84757">
        <ele>114.2</ele>
        <time>2020-07-03T13:31:35Z</time>
      </trkpt>
      <trkpt lat="47.0738" lon="0.84748">
        <ele>113.7</ele>
        <time>2020-07-03T13:31:36Z</time>
      </trkpt>
      <trkpt lat="47.07374" lon="0.84739">
        <ele>113.2</ele>
        <time>2020-07-03T13:31:37Z</time>
      </trkpt>
      <trkpt lat="47.07368" lon="0.8473">
        <ele>112.8</ele>
        <time>2020-07-03T13:31:38Z</time>
      </trkpt>
      <trkpt lat="47.07362" lon="0.84721">
        <ele>112.4</ele>
        <time>2020-07-03T13:31:39Z</time>
      </trkpt>
      <trkpt lat="47.07356" lon="0.84711">
        <ele>112.1</ele>
        <time>2020-07-03T13:31:40Z</time>
      </trkpt>
      <trkpt lat="47.0735" lon="0.84702">
        <ele>111.9</ele>
        <time>2020-07-03T13:31:41Z</time>
      </trkpt>
      <trkpt lat="47.07344" lon="0.84693">
        <ele>111.7</ele>
        <time>2020-07-03T13:31:42Z</time>
      </trkpt>
      <trkpt lat="47.07338" lon="0.84685">
        <ele>111.6</ele>
        <time>2020-07-03T13:31:43Z</time>
      </trkpt>
      <trkpt lat="47.07332" lon="0.84677">
        <ele>111.5</ele>
        <time>2020-07-03T13:31:44Z</time>
      </trkpt>
      <trkpt lat="47.07325" lon="0.84672">
        <ele>111.4</ele>
        <time>2020-07-03T13:31:45Z</time>
      </trkpt>
      <trkpt lat="47.07317" lon="0.84668">
        <ele>111.4</ele>
        <time>2020-07-03T13:31:46Z</time>
      </trkpt>
      <trkpt lat="47.07309" lon="0.84664">
        <ele>111.4</ele>
        <time>2020-07-03T13:31:47Z</time>
      </trkpt>
      <trkpt lat="47.07302" lon="0.8466">
        <ele>111.4</ele>
        <time>2020-07-03T13:31:48Z</time>
      </trkpt>
      <trkpt lat="47.07295" lon="0.84657">
        <ele>111.4</ele>
        <time>2020-07-03T13:31:49Z</time>
      </trkpt>
      <trkpt lat="47.07287" lon="0.84656">
        <ele>111.2</ele>
        <time>2020-07-03T13:31:50Z</time>
      </trkpt>
      <trkpt lat="47.0728" lon="0.84656">
        <ele>111.2</ele>
        <time>2020-07-03T13:31:51Z</time>
      </trkpt>
      <trkpt lat="47.07273" lon="0.84656">
        <ele>111.3</ele>
        <time>2020-07-03T13:31:52Z</time>
      </trkpt>
      <trkpt lat="47.07266" lon="0.84656">
        <ele>110.7</ele>
        <time>2020-07-03T13:31:53Z</time>
      </trkpt>
      <trkpt lat="47.07259" lon="0.84655">
        <ele>110.4</ele>
        <time>2020-07-03T13:31:54Z</time>
      </trkpt>
      <trkpt lat="47.07252" lon="0.84655">
        <ele>110</ele>
        <time>2020-07-03T13:31:55Z</time>
      </trkpt>
      <trkpt lat="47.07244" lon="0.84654">
        <ele>109.5</ele>
        <time>2020-07-03T13:31:56Z</time>
      </trkpt>
      <trkpt lat="47.07236" lon="0.84653">
        <ele>109</ele>
        <time>2020-07-03T13:31:57Z</time>
      </trkpt>
      <trkpt lat="47.07227" lon="0.84654">
        <ele>108.4</ele>
        <time>2020-07-03T13:31:58Z</time>
      </trkpt>
      <trkpt lat="47.07219" lon="0.84654">
        <ele>107.9</ele>
        <time>2020-07-03T13:31:59Z</time>
      </trkpt>
      <trkpt lat="47.0721" lon="0.84654">
        <ele>107.4</ele>
        <time>2020-07-03T13:32:00Z</time>
      </trkpt>
      <trkpt lat="47.07201" lon="0.84653">
        <ele>106.9</ele>
        <time>2020-07-03T13:32:01Z</time>
      </trkpt>
      <trkpt lat="47.07192" lon="0.84653">
        <ele>106.5</ele>
        <time>2020-07-03T13:32:02Z</time>
      </trkpt>
      <trkpt lat="47.07182" lon="0.84652">
        <ele>106.1</ele>
        <time>2020-07-03T13:32:03Z</time>
      </trkpt>
      <trkpt lat="47.07173" lon="0.84652">
        <ele>105.7</ele>
        <time>2020-07-03T13:32:04Z</time>
      </trkpt>
      <trkpt lat="47.07164" lon="0.84651">
        <ele>105.3</ele>
        <time>2020-07-03T13:32:05Z</time>
      </trkpt>
      <trkpt lat="47.07154" lon="0.8465">
        <ele>105.1</ele>
        <time>2020-07-03T13:32:06Z</time>
      </trkpt>
      <trkpt lat="47.07145" lon="0.84649">
        <ele>104.8</ele>
        <time>2020-07-03T13:32:07Z</time>
      </trkpt>
      <trkpt lat="47.07136" lon="0.84649">
        <ele>104.6</ele>
        <time>2020-07-03T13:32:08Z</time>
      </trkpt>
      <trkpt lat="47.07128" lon="0.84649">
        <ele>104.5</ele>
        <time>2020-07-03T13:32:09Z</time>
      </trkpt>
      <trkpt lat="47.07119" lon="0.8465">
        <ele>104.4</ele>
        <time>2020-07-03T13:32:10Z</time>
      </trkpt>
      <trkpt lat="47.07111" lon="0.84649">
        <ele>104.4</ele>
        <time>2020-07-03T13:32:11Z</time>
      </trkpt>
      <trkpt lat="47.07102" lon="0.84648">
        <ele>104.5</ele>
        <time>2020-07-03T13:32:12Z</time>
      </trkpt>
      <trkpt lat="47.07094" lon="0.84648">
        <ele>104.4</ele>
        <time>2020-07-03T13:32:13Z</time>
      </trkpt>
      <trkpt lat="47.07086" lon="0.84647">
        <ele>104.4</ele>
        <time>2020-07-03T13:32:14Z</time>
      </trkpt>
      <trkpt lat="47.07078" lon="0.84647">
        <ele>104.3</ele>
        <time>2020-07-03T13:32:15Z</time>
      </trkpt>
      <trkpt lat="47.0707" lon="0.84646">
        <ele>104.2</ele>
        <time>2020-07-03T13:32:16Z</time>
      </trkpt>
      <trkpt lat="47.07062" lon="0.84645">
        <ele>104.1</ele>
        <time>2020-07-03T13:32:17Z</time>
      </trkpt>
      <trkpt lat="47.07054" lon="0.84644">
        <ele>103.9</ele>
        <time>2020-07-03T13:32:18Z</time>
      </trkpt>
      <trkpt lat="47.07046" lon="0.84642">
        <ele>103.7</ele>
        <time>2020-07-03T13:32:19Z</time>
      </trkpt>
      <trkpt lat="47.07038" lon="0.8464">
        <ele>103.5</ele>
        <time>2020-07-03T13:32:20Z</time>
      </trkpt>
      <trkpt lat="47.0703" lon="0.84637">
        <ele>103.4</ele>
        <time>2020-07-03T13:32:21Z</time>
      </trkpt>
      <trkpt lat="47.07023" lon="0.84634">
        <ele>103.2</ele>
        <time>2020-07-03T13:32:22Z</time>
      </trkpt>
      <trkpt lat="47.07015" lon="0.84631">
        <ele>103.1</ele>
        <time>2020-07-03T13:32:23Z</time>
      </trkpt>
      <trkpt lat="47.07007" lon="0.84628">
        <ele>103</ele>
        <time>2020-07-03T13:32:24Z</time>
      </trkpt>
      <trkpt lat="47.07" lon="0.84624">
        <ele>102.8</ele>
        <time>2020-07-03T13:32:25Z</time>
      </trkpt>
      <trkpt lat="47.06992" lon="0.8462">
        <ele>102.6</ele>
        <time>2020-07-03T13:32:26Z</time>
      </trkpt>
      <trkpt lat="47.06984" lon="0.84615">
        <ele>102.5</ele>
        <time>2020-07-03T13:32:27Z</time>
      </trkpt>
      <trkpt lat="47.06977" lon="0.84611">
        <ele>102.5</ele>
        <time>2020-07-03T13:32:28Z</time>
      </trkpt>
      <trkpt lat="47.0697" lon="0.84605">
        <ele>102.5</ele>
        <time>2020-07-03T13:32:29Z</time>
      </trkpt>
      <trkpt lat="47.06963" lon="0.846">
        <ele>102.5</ele>
        <time>2020-07-03T13:32:30Z</time>
      </trkpt>
      <trkpt lat="47.06956" lon="0.84595">
        <ele>102.5</ele>
        <time>2020-07-03T13:32:31Z</time>
      </trkpt>
      <trkpt lat="47.06949" lon="0.84591">
        <ele>102.4</ele>
        <time>2020-07-03T13:32:32Z</time>
      </trkpt>
      <trkpt lat="47.06942" lon="0.84586">
        <ele>102.3</ele>
        <time>2020-07-03T13:32:33Z</time>
      </trkpt>
      <trkpt lat="47.06936" lon="0.84581">
        <ele>102.3</ele>
        <time>2020-07-03T13:32:34Z</time>
      </trkpt>
      <trkpt lat="47.06929" lon="0.84576">
        <ele>102.2</ele>
        <time>2020-07-03T13:32:35Z</time>
      </trkpt>
      <trkpt lat="47.06922" lon="0.84572">
        <ele>102.1</ele>
        <time>2020-07-03T13:32:36Z</time>
      </trkpt>
      <trkpt lat="47.06914" lon="0.84568">
        <ele>101.9</ele>
        <time>2020-07-03T13:32:37Z</time>
      </trkpt>
      <trkpt lat="47.06907" lon="0.84563">
        <ele>101.7</ele>
        <time>2020-07-03T13:32:38Z</time>
      </trkpt>
      <trkpt lat="47.069" lon="0.84558">
        <ele>101.5</ele>
        <time>2020-07-03T13:32:39Z</time>
      </trkpt>
      <trkpt lat="47.06893" lon="0.84552">
        <ele>101.4</ele>
        <time>2020-07-03T13:32:40Z</time>
      </trkpt>
      <trkpt lat="47.06886" lon="0.84547">
        <ele>101.3</ele>
        <time>2020-07-03T13:32:41Z</time>
      </trkpt>
      <trkpt lat="47.06879" lon="0.84542">
        <ele>101.2</ele>
        <time>2020-07-03T13:32:42Z</time>
      </trkpt>
      <trkpt lat="47.06872" lon="0.84538">
        <ele>101.1</ele>
        <time>2020-07-03T13:32:43Z</time>
      </trkpt>
      <trkpt lat="47.06865" lon="0.84533">
        <ele>101.1</ele>
        <time>2020-07-03T13:32:44Z</time>
      </trkpt>
      <trkpt lat="47.06858" lon="0.8453">
        <ele>101.1</ele>
        <time>2020-07-03T13:32:45Z</time>
      </trkpt>
      <trkpt lat="47.06851" lon="0.84525">
        <ele>101</ele>
        <time>2020-07-03T13:32:46Z</time>
      </trkpt>
      <trkpt lat="47.06844" lon="0.8452">
        <ele>100.2</ele>
        <time>2020-07-03T13:32:47Z</time>
      </trkpt>
      <trkpt lat="47.06838" lon="0.84515">
        <ele>100</ele>
        <time>2020-07-03T13:32:48Z</time>
      </trkpt>
      <trkpt lat="47.06832" lon="0.8451">
        <ele>99.9</ele>
        <time>2020-07-03T13:32:49Z</time>
      </trkpt>
      <trkpt lat="47.06827" lon="0.84503">
        <ele>99.7</ele>
        <time>2020-07-03T13:32:50Z</time>
      </trkpt>
      <trkpt lat="47.06821" lon="0.84499">
        <ele>99.6</ele>
        <time>2020-07-03T13:32:51Z</time>
      </trkpt>
      <trkpt lat="47.06815" lon="0.84494">
        <ele>99.5</ele>
        <time>2020-07-03T13:32:52Z</time>
      </trkpt>
      <trkpt lat="47.0681" lon="0.84488">
        <ele>99.4</ele>
        <time>2020-07-03T13:32:53Z</time>
      </trkpt>
      <trkpt lat="47.06805" lon="0.84482">
        <ele>99.3</ele>
        <time>2020-07-03T13:32:54Z</time>
      </trkpt>
      <trkpt lat="47.06799" lon="0.84477">
        <ele>99.2</ele>
        <time>2020-07-03T13:32:55Z</time>
      </trkpt>
      <trkpt lat="47.06793" lon="0.84471">
        <ele>99.1</ele>
        <time>2020-07-03T13:32:56Z</time>
      </trkpt>
      <trkpt lat="47.06787" lon="0.84467">
        <ele>99</ele>
        <time>2020-07-03T13:32:57Z</time>
      </trkpt>
      <trkpt lat="47.06781" lon="0.84461">
        <ele>98.9</ele>
        <time>2020-07-03T13:32:58Z</time>
      </trkpt>
      <trkpt lat="47.06775" lon="0.84455">
        <ele>98.8</ele>
        <time>2020-07-03T13:32:59Z</time>
      </trkpt>
      <trkpt lat="47.0677" lon="0.84449">
        <ele>98.8</ele>
        <time>2020-07-03T13:33:00Z</time>
      </trkpt>
      <trkpt lat="47.06764" lon="0.84444">
        <ele>98.7</ele>
        <time>2020-07-03T13:33:01Z</time>
      </trkpt>
      <trkpt lat="47.06758" lon="0.84439">
        <ele>98.6</ele>
        <time>2020-07-03T13:33:02Z</time>
      </trkpt>
      <trkpt lat="47.06752" lon="0.84432">
        <ele>98.6</ele>
        <time>2020-07-03T13:33:03Z</time>
      </trkpt>
      <trkpt lat="47.06747" lon="0.84426">
        <ele>98.5</ele>
        <time>2020-07-03T13:33:04Z</time>
      </trkpt>
      <trkpt lat="47.06741" lon="0.84419">
        <ele>98.4</ele>
        <time>2020-07-03T13:33:05Z</time>
      </trkpt>
      <trkpt lat="47.06736" lon="0.84412">
        <ele>98.3</ele>
        <time>2020-07-03T13:33:06Z</time>
      </trkpt>
      <trkpt lat="47.0673" lon="0.84405">
        <ele>98.2</ele>
        <time>2020-07-03T13:33:07Z</time>
      </trkpt>
      <trkpt lat="47.06725" lon="0.84399">
        <ele>98</ele>
        <time>2020-07-03T13:33:08Z</time>
      </trkpt>
      <trkpt lat="47.06719" lon="0.84392">
        <ele>97.9</ele>
        <time>2020-07-03T13:33:09Z</time>
      </trkpt>
      <trkpt lat="47.06714" lon="0.84385">
        <ele>97.8</ele>
        <time>2020-07-03T13:33:10Z</time>
      </trkpt>
      <trkpt lat="47.06708" lon="0.84378">
        <ele>97.7</ele>
        <time>2020-07-03T13:33:11Z</time>
      </trkpt>
      <trkpt lat="47.06703" lon="0.84371">
        <ele>97.5</ele>
        <time>2020-07-03T13:33:12Z</time>
      </trkpt>
      <trkpt lat="47.06697" lon="0.84364">
        <ele>97.3</ele>
        <time>2020-07-03T13:33:13Z</time>
      </trkpt>
      <trkpt lat="47.06692" lon="0.84357">
        <ele>97.2</ele>
        <time>2020-07-03T13:33:14Z</time>
      </trkpt>
      <trkpt lat="47.06685" lon="0.84351">
        <ele>97</ele>
        <time>2020-07-03T13:33:15Z</time>
      </trkpt>
      <trkpt lat="47.06679" lon="0.84344">
        <ele>96.9</ele>
        <time>2020-07-03T13:33:16Z</time>
      </trkpt>
      <trkpt lat="47.06674" lon="0.84336">
        <ele>96.9</ele>
        <time>2020-07-03T13:33:17Z</time>
      </trkpt>
      <trkpt lat="47.06668" lon="0.8433">
        <ele>96.8</ele>
        <time>2020-07-03T13:33:18Z</time>
      </trkpt>
      <trkpt lat="47.06662" lon="0.84323">
        <ele>96.6</ele>
        <time>2020-07-03T13:33:19Z</time>
      </trkpt>
      <trkpt lat="47.06656" lon="0.84316">
        <ele>96.4</ele>
        <time>2020-07-03T13:33:20Z</time>
      </trkpt>
      <trkpt lat="47.06651" lon="0.84309">
        <ele>96.2</ele>
        <time>2020-07-03T13:33:21Z</time>
      </trkpt>
      <trkpt lat="47.06645" lon="0.84302">
        <ele>96</ele>
        <time>2020-07-03T13:33:22Z</time>
      </trkpt>
      <trkpt lat="47.06638" lon="0.84295">
        <ele>95.8</ele>
        <time>2020-07-03T13:33:23Z</time>
      </trkpt>
      <trkpt lat="47.06632" lon="0.84288">
        <ele>95.5</ele>
        <time>2020-07-03T13:33:24Z</time>
      </trkpt>
      <trkpt lat="47.06625" lon="0.84281">
        <ele>95.2</ele>
        <time>2020-07-03T13:33:25Z</time>
      </trkpt>
      <trkpt lat="47.06619" lon="0.84275">
        <ele>95</ele>
        <time>2020-07-03T13:33:26Z</time>
      </trkpt>
      <trkpt lat="47.06612" lon="0.84268">
        <ele>94.8</ele>
        <time>2020-07-03T13:33:27Z</time>
      </trkpt>
      <trkpt lat="47.06606" lon="0.84261">
        <ele>94.7</ele>
        <time>2020-07-03T13:33:28Z</time>
      </trkpt>
      <trkpt lat="47.06599" lon="0.84253">
        <ele>94.5</ele>
        <time>2020-07-03T13:33:29Z</time>
      </trkpt>
      <trkpt lat="47.06593" lon="0.84245">
        <ele>94</ele>
        <time>2020-07-03T13:33:30Z</time>
      </trkpt>
      <trkpt lat="47.06587" lon="0.84237">
        <ele>93.8</ele>
        <time>2020-07-03T13:33:31Z</time>
      </trkpt>
      <trkpt lat="47.0658" lon="0.8423">
        <ele>93.6</ele>
        <time>2020-07-03T13:33:32Z</time>
      </trkpt>
      <trkpt lat="47.06574" lon="0.84222">
        <ele>93.5</ele>
        <time>2020-07-03T13:33:33Z</time>
      </trkpt>
      <trkpt lat="47.06567" lon="0.84214">
        <ele>93.3</ele>
        <time>2020-07-03T13:33:34Z</time>
      </trkpt>
      <trkpt lat="47.06561" lon="0.84207">
        <ele>93.1</ele>
        <time>2020-07-03T13:33:35Z</time>
      </trkpt>
      <trkpt lat="47.06554" lon="0.84199">
        <ele>92.9</ele>
        <time>2020-07-03T13:33:36Z</time>
      </trkpt>
      <trkpt lat="47.06548" lon="0.84192">
        <ele>92.8</ele>
        <time>2020-07-03T13:33:37Z</time>
      </trkpt>
      <trkpt lat="47.06542" lon="0.84185">
        <ele>92.7</ele>
        <time>2020-07-03T13:33:38Z</time>
      </trkpt>
      <trkpt lat="47.06535" lon="0.84177">
        <ele>92.6</ele>
        <time>2020-07-03T13:33:39Z</time>
      </trkpt>
      <trkpt lat="47.06528" lon="0.84171">
        <ele>92.6</ele>
        <time>2020-07-03T13:33:40Z</time>
      </trkpt>
      <trkpt lat="47.06522" lon="0.84164">
        <ele>92.6</ele>
        <time>2020-07-03T13:33:41Z</time>
      </trkpt>
      <trkpt lat="47.06516" lon="0.84157">
        <ele>92.6</ele>
        <time>2020-07-03T13:33:42Z</time>
      </trkpt>
      <trkpt lat="47.06509" lon="0.8415">
        <ele>92.6</ele>
        <time>2020-07-03T13:33:43Z</time>
      </trkpt>
      <trkpt lat="47.06503" lon="0.84143">
        <ele>92.4</ele>
        <time>2020-07-03T13:33:44Z</time>
      </trkpt>
      <trkpt lat="47.06498" lon="0.84135">
        <ele>92.2</ele>
        <time>2020-07-03T13:33:45Z</time>
      </trkpt>
      <trkpt lat="47.06491" lon="0.84129">
        <ele>92</ele>
        <time>2020-07-03T13:33:46Z</time>
      </trkpt>
      <trkpt lat="47.06485" lon="0.84123">
        <ele>91.8</ele>
        <time>2020-07-03T13:33:47Z</time>
      </trkpt>
      <trkpt lat="47.06478" lon="0.84116">
        <ele>91.5</ele>
        <time>2020-07-03T13:33:48Z</time>
      </trkpt>
      <trkpt lat="47.06471" lon="0.8411">
        <ele>91.4</ele>
        <time>2020-07-03T13:33:49Z</time>
      </trkpt>
      <trkpt lat="47.06464" lon="0.84105">
        <ele>91.3</ele>
        <time>2020-07-03T13:33:50Z</time>
      </trkpt>
      <trkpt lat="47.06458" lon="0.84098">
        <ele>91.3</ele>
        <time>2020-07-03T13:33:51Z</time>
      </trkpt>
      <trkpt lat="47.06451" lon="0.84093">
        <ele>91.2</ele>
        <time>2020-07-03T13:33:52Z</time>
      </trkpt>
      <trkpt lat="47.06444" lon="0.84087">
        <ele>91.2</ele>
        <time>2020-07-03T13:33:53Z</time>
      </trkpt>
      <trkpt lat="47.06438" lon="0.84082">
        <ele>91.1</ele>
        <time>2020-07-03T13:33:54Z</time>
      </trkpt>
      <trkpt lat="47.06431" lon="0.84076">
        <ele>91.2</ele>
        <time>2020-07-03T13:33:55Z</time>
      </trkpt>
      <trkpt lat="47.06425" lon="0.8407">
        <ele>91.2</ele>
        <time>2020-07-03T13:33:56Z</time>
      </trkpt>
      <trkpt lat="47.06419" lon="0.84064">
        <ele>91.2</ele>
        <time>2020-07-03T13:33:57Z</time>
      </trkpt>
      <trkpt lat="47.06412" lon="0.84059">
        <ele>91.2</ele>
        <time>2020-07-03T13:33:58Z</time>
      </trkpt>
      <trkpt lat="47.06406" lon="0.84054">
        <ele>91.3</ele>
        <time>2020-07-03T13:33:59Z</time>
      </trkpt>
      <trkpt lat="47.064" lon="0.84049">
        <ele>91.3</ele>
        <time>2020-07-03T13:34:00Z</time>
      </trkpt>
      <trkpt lat="47.06395" lon="0.84045">
        <ele>91.3</ele>
        <time>2020-07-03T13:34:01Z</time>
      </trkpt>
      <trkpt lat="47.06389" lon="0.84039">
        <ele>91.4</ele>
        <time>2020-07-03T13:34:02Z</time>
      </trkpt>
      <trkpt lat="47.06383" lon="0.84035">
        <ele>91.4</ele>
        <time>2020-07-03T13:34:03Z</time>
      </trkpt>
      <trkpt lat="47.06378" lon="0.84029">
        <ele>91.5</ele>
        <time>2020-07-03T13:34:04Z</time>
      </trkpt>
      <trkpt lat="47.06373" lon="0.84024">
        <ele>91.7</ele>
        <time>2020-07-03T13:34:05Z</time>
      </trkpt>
      <trkpt lat="47.06368" lon="0.84019">
        <ele>91.9</ele>
        <time>2020-07-03T13:34:06Z</time>
      </trkpt>
      <trkpt lat="47.06363" lon="0.84014">
        <ele>92.1</ele>
        <time>2020-07-03T13:34:07Z</time>
      </trkpt>
      <trkpt lat="47.06359" lon="0.84008">
        <ele>92.3</ele>
        <time>2020-07-03T13:34:08Z</time>
      </trkpt>
      <trkpt lat="47.06355" lon="0.84002">
        <ele>92.4</ele>
        <time>2020-07-03T13:34:09Z</time>
      </trkpt>
      <trkpt lat="47.0635" lon="0.83998">
        <ele>92.6</ele>
        <time>2020-07-03T13:34:10Z</time>
      </trkpt>
      <trkpt lat="47.06345" lon="0.83993">
        <ele>92.7</ele>
        <time>2020-07-03T13:34:11Z</time>
      </trkpt>
      <trkpt lat="47.0634" lon="0.83988">
        <ele>92.9</ele>
        <time>2020-07-03T13:34:12Z</time>
      </trkpt>
      <trkpt lat="47.06336" lon="0.83983">
        <ele>93</ele>
        <time>2020-07-03T13:34:13Z</time>
      </trkpt>
      <trkpt lat="47.06331" lon="0.83978">
        <ele>93.1</ele>
        <time>2020-07-03T13:34:14Z</time>
      </trkpt>
      <trkpt lat="47.06327" lon="0.83974">
        <ele>93.2</ele>
        <time>2020-07-03T13:34:15Z</time>
      </trkpt>
      <trkpt lat="47.06324" lon="0.83969">
        <ele>93.3</ele>
        <time>2020-07-03T13:34:16Z</time>
      </trkpt>
      <trkpt lat="47.06321" lon="0.83965">
        <ele>93.4</ele>
        <time>2020-07-03T13:34:17Z</time>
      </trkpt>
      <trkpt lat="47.06317" lon="0.8396">
        <ele>93.6</ele>
        <time>2020-07-03T13:34:18Z</time>
      </trkpt>
      <trkpt lat="47.06313" lon="0.83955">
        <ele>93.7</ele>
        <time>2020-07-03T13:34:19Z</time>
      </trkpt>
      <trkpt lat="47.0631" lon="0.83951">
        <ele>93.8</ele>
        <time>2020-07-03T13:34:20Z</time>
      </trkpt>
      <trkpt lat="47.06306" lon="0.83947">
        <ele>93.9</ele>
        <time>2020-07-03T13:34:21Z</time>
      </trkpt>
      <trkpt lat="47.06303" lon="0.83942">
        <ele>94</ele>
        <time>2020-07-03T13:34:22Z</time>
      </trkpt>
      <trkpt lat="47.06299" lon="0.83938">
        <ele>94.2</ele>
        <time>2020-07-03T13:34:23Z</time>
      </trkpt>
      <trkpt lat="47.06296" lon="0.83933">
        <ele>94.4</ele>
        <time>2020-07-03T13:34:24Z</time>
      </trkpt>
      <trkpt lat="47.06292" lon="0.83929">
        <ele>94.6</ele>
        <time>2020-07-03T13:34:25Z</time>
      </trkpt>
      <trkpt lat="47.06288" lon="0.83924">
        <ele>94.7</ele>
        <time>2020-07-03T13:34:26Z</time>
      </trkpt>
      <trkpt lat="47.06285" lon="0.83919">
        <ele>94.8</ele>
        <time>2020-07-03T13:34:27Z</time>
      </trkpt>
      <trkpt lat="47.06281" lon="0.83915">
        <ele>94.9</ele>
        <time>2020-07-03T13:34:28Z</time>
      </trkpt>
      <trkpt lat="47.06277" lon="0.83911">
        <ele>95.1</ele>
        <time>2020-07-03T13:34:29Z</time>
      </trkpt>
      <trkpt lat="47.06273" lon="0.83905">
        <ele>95.2</ele>
        <time>2020-07-03T13:34:30Z</time>
      </trkpt>
      <trkpt lat="47.06269" lon="0.839">
        <ele>95.5</ele>
        <time>2020-07-03T13:34:31Z</time>
      </trkpt>
      <trkpt lat="47.06265" lon="0.83897">
        <ele>95.6</ele>
        <time>2020-07-03T13:34:32Z</time>
      </trkpt>
      <trkpt lat="47.0626" lon="0.83894">
        <ele>95.8</ele>
        <time>2020-07-03T13:34:33Z</time>
      </trkpt>
      <trkpt lat="47.06256" lon="0.83891">
        <ele>96</ele>
        <time>2020-07-03T13:34:34Z</time>
      </trkpt>
      <trkpt lat="47.06253" lon="0.83886">
        <ele>96.2</ele>
        <time>2020-07-03T13:34:35Z</time>
      </trkpt>
      <trkpt lat="47.0625" lon="0.83882">
        <ele>96.3</ele>
        <time>2020-07-03T13:34:36Z</time>
      </trkpt>
      <trkpt lat="47.06246" lon="0.83879">
        <ele>96.5</ele>
        <time>2020-07-03T13:34:37Z</time>
      </trkpt>
      <trkpt lat="47.06242" lon="0.83874">
        <ele>96.6</ele>
        <time>2020-07-03T13:34:38Z</time>
      </trkpt>
      <trkpt lat="47.06239" lon="0.8387">
        <ele>96.7</ele>
        <time>2020-07-03T13:34:39Z</time>
      </trkpt>
      <trkpt lat="47.06236" lon="0.83866">
        <ele>96.8</ele>
        <time>2020-07-03T13:34:40Z</time>
      </trkpt>
      <trkpt lat="47.06232" lon="0.83862">
        <ele>96.8</ele>
        <time>2020-07-03T13:34:41Z</time>
      </trkpt>
      <trkpt lat="47.06229" lon="0.83857">
        <ele>96.9</ele>
        <time>2020-07-03T13:34:42Z</time>
      </trkpt>
      <trkpt lat="47.06225" lon="0.83852">
        <ele>97</ele>
        <time>2020-07-03T13:34:43Z</time>
      </trkpt>
      <trkpt lat="47.06223" lon="0.83847">
        <ele>97.1</ele>
        <time>2020-07-03T13:34:44Z</time>
      </trkpt>
      <trkpt lat="47.06219" lon="0.83843">
        <ele>97.2</ele>
        <time>2020-07-03T13:34:45Z</time>
      </trkpt>
      <trkpt lat="47.06215" lon="0.83838">
        <ele>97.3</ele>
        <time>2020-07-03T13:34:46Z</time>
      </trkpt>
      <trkpt lat="47.06211" lon="0.83834">
        <ele>97.4</ele>
        <time>2020-07-03T13:34:47Z</time>
      </trkpt>
      <trkpt lat="47.06207" lon="0.8383">
        <ele>97.5</ele>
        <time>2020-07-03T13:34:48Z</time>
      </trkpt>
      <trkpt lat="47.06202" lon="0.83826">
        <ele>97.6</ele>
        <time>2020-07-03T13:34:49Z</time>
      </trkpt>
      <trkpt lat="47.06199" lon="0.83822">
        <ele>97.6</ele>
        <time>2020-07-03T13:34:50Z</time>
      </trkpt>
      <trkpt lat="47.06195" lon="0.83817">
        <ele>97.7</ele>
        <time>2020-07-03T13:34:51Z</time>
      </trkpt>
      <trkpt lat="47.06192" lon="0.83813">
        <ele>97.8</ele>
        <time>2020-07-03T13:34:52Z</time>
      </trkpt>
      <trkpt lat="47.06188" lon="0.83809">
        <ele>97.8</ele>
        <time>2020-07-03T13:34:53Z</time>
      </trkpt>
      <trkpt lat="47.06183" lon="0.83805">
        <ele>97.9</ele>
        <time>2020-07-03T13:34:54Z</time>
      </trkpt>
      <trkpt lat="47.0618" lon="0.83801">
        <ele>97.9</ele>
        <time>2020-07-03T13:34:55Z</time>
      </trkpt>
      <trkpt lat="47.06177" lon="0.83797">
        <ele>97.9</ele>
        <time>2020-07-03T13:34:56Z</time>
      </trkpt>
      <trkpt lat="47.06174" lon="0.83792">
        <ele>97.9</ele>
        <time>2020-07-03T13:34:57Z</time>
      </trkpt>
      <trkpt lat="47.06171" lon="0.83789">
        <ele>97.9</ele>
        <time>2020-07-03T13:34:58Z</time>
      </trkpt>
      <trkpt lat="47.06167" lon="0.83784">
        <ele>97.9</ele>
        <time>2020-07-03T13:34:59Z</time>
      </trkpt>
      <trkpt lat="47.06165" lon="0.8378">
        <ele>97.9</ele>
        <time>2020-07-03T13:35:00Z</time>
      </trkpt>
      <trkpt lat="47.06161" lon="0.83775">
        <ele>97.9</ele>
        <time>2020-07-03T13:35:01Z</time>
      </trkpt>
      <trkpt lat="47.06158" lon="0.83771">
        <ele>97.9</ele>
        <time>2020-07-03T13:35:02Z</time>
      </trkpt>
      <trkpt lat="47.06155" lon="0.83767">
        <ele>97.9</ele>
        <time>2020-07-03T13:35:03Z</time>
      </trkpt>
      <trkpt lat="47.06151" lon="0.83764">
        <ele>97.9</ele>
        <time>2020-07-03T13:35:04Z</time>
      </trkpt>
      <trkpt lat="47.06147" lon="0.83759">
        <ele>97.9</ele>
        <time>2020-07-03T13:35:05Z</time>
      </trkpt>
      <trkpt lat="47.06143" lon="0.83755">
        <ele>97.9</ele>
        <time>2020-07-03T13:35:06Z</time>
      </trkpt>
      <trkpt lat="47.06139" lon="0.8375">
        <ele>97.8</ele>
        <time>2020-07-03T13:35:07Z</time>
      </trkpt>
      <trkpt lat="47.06134" lon="0.83744">
        <ele>97.5</ele>
        <time>2020-07-03T13:35:08Z</time>
      </trkpt>
      <trkpt lat="47.0613" lon="0.83738">
        <ele>97.1</ele>
        <time>2020-07-03T13:35:09Z</time>
      </trkpt>
      <trkpt lat="47.06126" lon="0.83733">
        <ele>96.8</ele>
        <time>2020-07-03T13:35:10Z</time>
      </trkpt>
      <trkpt lat="47.06122" lon="0.83728">
        <ele>96.6</ele>
        <time>2020-07-03T13:35:11Z</time>
      </trkpt>
      <trkpt lat="47.06118" lon="0.83723">
        <ele>96.4</ele>
        <time>2020-07-03T13:35:12Z</time>
      </trkpt>
      <trkpt lat="47.06113" lon="0.83716">
        <ele>96.2</ele>
        <time>2020-07-03T13:35:13Z</time>
      </trkpt>
      <trkpt lat="47.06107" lon="0.8371">
        <ele>95.9</ele>
        <time>2020-07-03T13:35:14Z</time>
      </trkpt>
      <trkpt lat="47.06102" lon="0.83704">
        <ele>95.6</ele>
        <time>2020-07-03T13:35:15Z</time>
      </trkpt>
      <trkpt lat="47.06097" lon="0.83698">
        <ele>95.3</ele>
        <time>2020-07-03T13:35:16Z</time>
      </trkpt>
      <trkpt lat="47.06091" lon="0.83689">
        <ele>94.9</ele>
        <time>2020-07-03T13:35:17Z</time>
      </trkpt>
      <trkpt lat="47.06085" lon="0.83683">
        <ele>94.6</ele>
        <time>2020-07-03T13:35:18Z</time>
      </trkpt>
      <trkpt lat="47.0608" lon="0.83676">
        <ele>94.1</ele>
        <time>2020-07-03T13:35:19Z</time>
      </trkpt>
      <trkpt lat="47.06074" lon="0.83669">
        <ele>93.6</ele>
        <time>2020-07-03T13:35:20Z</time>
      </trkpt>
      <trkpt lat="47.06067" lon="0.83661">
        <ele>93</ele>
        <time>2020-07-03T13:35:21Z</time>
      </trkpt>
      <trkpt lat="47.06061" lon="0.83654">
        <ele>92.7</ele>
        <time>2020-07-03T13:35:22Z</time>
      </trkpt>
      <trkpt lat="47.06055" lon="0.83647">
        <ele>92.4</ele>
        <time>2020-07-03T13:35:23Z</time>
      </trkpt>
      <trkpt lat="47.06049" lon="0.8364">
        <ele>92.3</ele>
        <time>2020-07-03T13:35:24Z</time>
      </trkpt>
      <trkpt lat="47.06043" lon="0.83633">
        <ele>92.1</ele>
        <time>2020-07-03T13:35:25Z</time>
      </trkpt>
      <trkpt lat="47.06038" lon="0.83627">
        <ele>91.9</ele>
        <time>2020-07-03T13:35:26Z</time>
      </trkpt>
      <trkpt lat="47.06032" lon="0.8362">
        <ele>91.8</ele>
        <time>2020-07-03T13:35:27Z</time>
      </trkpt>
      <trkpt lat="47.06025" lon="0.83612">
        <ele>91.7</ele>
        <time>2020-07-03T13:35:28Z</time>
      </trkpt>
      <trkpt lat="47.06018" lon="0.83605">
        <ele>91.6</ele>
        <time>2020-07-03T13:35:29Z</time>
      </trkpt>
      <trkpt lat="47.06012" lon="0.83597">
        <ele>91.3</ele>
        <time>2020-07-03T13:35:30Z</time>
      </trkpt>
      <trkpt lat="47.06005" lon="0.83589">
        <ele>91.2</ele>
        <time>2020-07-03T13:35:31Z</time>
      </trkpt>
      <trkpt lat="47.05999" lon="0.83581">
        <ele>91.2</ele>
        <time>2020-07-03T13:35:32Z</time>
      </trkpt>
      <trkpt lat="47.05992" lon="0.83574">
        <ele>91.2</ele>
        <time>2020-07-03T13:35:33Z</time>
      </trkpt>
      <trkpt lat="47.05985" lon="0.83567">
        <ele>91.1</ele>
        <time>2020-07-03T13:35:34Z</time>
      </trkpt>
      <trkpt lat="47.05979" lon="0.83559">
        <ele>91.1</ele>
        <time>2020-07-03T13:35:35Z</time>
      </trkpt>
      <trkpt lat="47.05973" lon="0.83552">
        <ele>91</ele>
        <time>2020-07-03T13:35:36Z</time>
      </trkpt>
      <trkpt lat="47.05966" lon="0.83545">
        <ele>90.9</ele>
        <time>2020-07-03T13:35:37Z</time>
      </trkpt>
      <trkpt lat="47.0596" lon="0.83538">
        <ele>90.9</ele>
        <time>2020-07-03T13:35:38Z</time>
      </trkpt>
      <trkpt lat="47.05954" lon="0.83531">
        <ele>90.8</ele>
        <time>2020-07-03T13:35:39Z</time>
      </trkpt>
      <trkpt lat="47.05948" lon="0.83524">
        <ele>90.8</ele>
        <time>2020-07-03T13:35:40Z</time>
      </trkpt>
      <trkpt lat="47.05942" lon="0.83518">
        <ele>90.8</ele>
        <time>2020-07-03T13:35:41Z</time>
      </trkpt>
      <trkpt lat="47.05937" lon="0.83511">
        <ele>90.9</ele>
        <time>2020-07-03T13:35:42Z</time>
      </trkpt>
      <trkpt lat="47.05931" lon="0.83504">
        <ele>91</ele>
        <time>2020-07-03T13:35:43Z</time>
      </trkpt>
      <trkpt lat="47.05925" lon="0.83497">
        <ele>91.1</ele>
        <time>2020-07-03T13:35:44Z</time>
      </trkpt>
      <trkpt lat="47.0592" lon="0.83491">
        <ele>91.2</ele>
        <time>2020-07-03T13:35:45Z</time>
      </trkpt>
      <trkpt lat="47.05914" lon="0.83485">
        <ele>91.2</ele>
        <time>2020-07-03T13:35:46Z</time>
      </trkpt>
      <trkpt lat="47.05909" lon="0.83479">
        <ele>91.3</ele>
        <time>2020-07-03T13:35:47Z</time>
      </trkpt>
      <trkpt lat="47.05904" lon="0.83473">
        <ele>91.4</ele>
        <time>2020-07-03T13:35:48Z</time>
      </trkpt>
      <trkpt lat="47.05899" lon="0.83467">
        <ele>91.5</ele>
        <time>2020-07-03T13:35:49Z</time>
      </trkpt>
      <trkpt lat="47.05895" lon="0.83461">
        <ele>91.6</ele>
        <time>2020-07-03T13:35:50Z</time>
      </trkpt>
      <trkpt lat="47.0589" lon="0.83456">
        <ele>91.8</ele>
        <time>2020-07-03T13:35:51Z</time>
      </trkpt>
      <trkpt lat="47.05885" lon="0.8345">
        <ele>91.9</ele>
        <time>2020-07-03T13:35:52Z</time>
      </trkpt>
      <trkpt lat="47.0588" lon="0.83445">
        <ele>92</ele>
        <time>2020-07-03T13:35:53Z</time>
      </trkpt>
      <trkpt lat="47.05874" lon="0.8344">
        <ele>92.1</ele>
        <time>2020-07-03T13:35:54Z</time>
      </trkpt>
      <trkpt lat="47.05869" lon="0.83435">
        <ele>92.2</ele>
        <time>2020-07-03T13:35:55Z</time>
      </trkpt>
      <trkpt lat="47.05864" lon="0.8343">
        <ele>92.2</ele>
        <time>2020-07-03T13:35:56Z</time>
      </trkpt>
      <trkpt lat="47.05859" lon="0.83425">
        <ele>92.2</ele>
        <time>2020-07-03T13:35:57Z</time>
      </trkpt>
      <trkpt lat="47.05854" lon="0.8342">
        <ele>92.2</ele>
        <time>2020-07-03T13:35:58Z</time>
      </trkpt>
      <trkpt lat="47.05849" lon="0.83415">
        <ele>92.1</ele>
        <time>2020-07-03T13:35:59Z</time>
      </trkpt>
      <trkpt lat="47.05844" lon="0.8341">
        <ele>92.1</ele>
        <time>2020-07-03T13:36:00Z</time>
      </trkpt>
      <trkpt lat="47.05839" lon="0.83405">
        <ele>92</ele>
        <time>2020-07-03T13:36:01Z</time>
      </trkpt>
      <trkpt lat="47.05834" lon="0.83401">
        <ele>91.9</ele>
        <time>2020-07-03T13:36:02Z</time>
      </trkpt>
      <trkpt lat="47.05829" lon="0.83396">
        <ele>91.9</ele>
        <time>2020-07-03T13:36:03Z</time>
      </trkpt>
      <trkpt lat="47.05824" lon="0.83393">
        <ele>91.9</ele>
        <time>2020-07-03T13:36:04Z</time>
      </trkpt>
      <trkpt lat="47.0582" lon="0.83389">
        <ele>91.9</ele>
        <time>2020-07-03T13:36:05Z</time>
      </trkpt>
      <trkpt lat="47.05816" lon="0.83384">
        <ele>92</ele>
        <time>2020-07-03T13:36:06Z</time>
      </trkpt>
      <trkpt lat="47.05812" lon="0.83379">
        <ele>92.2</ele>
        <time>2020-07-03T13:36:07Z</time>
      </trkpt>
      <trkpt lat="47.05807" lon="0.83373">
        <ele>92.4</ele>
        <time>2020-07-03T13:36:08Z</time>
      </trkpt>
      <trkpt lat="47.05803" lon="0.83369">
        <ele>92.6</ele>
        <time>2020-07-03T13:36:09Z</time>
      </trkpt>
      <trkpt lat="47.05798" lon="0.83364">
        <ele>92.8</ele>
        <time>2020-07-03T13:36:10Z</time>
      </trkpt>
      <trkpt lat="47.05792" lon="0.83358">
        <ele>93.2</ele>
        <time>2020-07-03T13:36:11Z</time>
      </trkpt>
      <trkpt lat="47.05788" lon="0.83354">
        <ele>93.5</ele>
        <time>2020-07-03T13:36:12Z</time>
      </trkpt>
      <trkpt lat="47.05784" lon="0.8335">
        <ele>93.8</ele>
        <time>2020-07-03T13:36:13Z</time>
      </trkpt>
      <trkpt lat="47.0578" lon="0.83347">
        <ele>94</ele>
        <time>2020-07-03T13:36:14Z</time>
      </trkpt>
      <trkpt lat="47.05776" lon="0.83343">
        <ele>94.2</ele>
        <time>2020-07-03T13:36:15Z</time>
      </trkpt>
      <trkpt lat="47.05772" lon="0.83339">
        <ele>94.5</ele>
        <time>2020-07-03T13:36:16Z</time>
      </trkpt>
      <trkpt lat="47.05768" lon="0.83334">
        <ele>94.8</ele>
        <time>2020-07-03T13:36:17Z</time>
      </trkpt>
      <trkpt lat="47.05765" lon="0.8333">
        <ele>95.1</ele>
        <time>2020-07-03T13:36:18Z</time>
      </trkpt>
      <trkpt lat="47.05762" lon="0.83326">
        <ele>95.4</ele>
        <time>2020-07-03T13:36:19Z</time>
      </trkpt>
      <trkpt lat="47.05759" lon="0.83322">
        <ele>95.6</ele>
        <time>2020-07-03T13:36:20Z</time>
      </trkpt>
      <trkpt lat="47.05757" lon="0.83318">
        <ele>95.9</ele>
        <time>2020-07-03T13:36:21Z</time>
      </trkpt>
      <trkpt lat="47.05755" lon="0.83314">
        <ele>96.1</ele>
        <time>2020-07-03T13:36:22Z</time>
      </trkpt>
      <trkpt lat="47.05752" lon="0.83309">
        <ele>96.3</ele>
        <time>2020-07-03T13:36:23Z</time>
      </trkpt>
      <trkpt lat="47.05749" lon="0.83304">
        <ele>96.5</ele>
        <time>2020-07-03T13:36:24Z</time>
      </trkpt>
      <trkpt lat="47.05747" lon="0.83301">
        <ele>96.7</ele>
        <time>2020-07-03T13:36:25Z</time>
      </trkpt>
      <trkpt lat="47.05745" lon="0.83296">
        <ele>96.8</ele>
        <time>2020-07-03T13:36:26Z</time>
      </trkpt>
      <trkpt lat="47.05742" lon="0.8329">
        <ele>97</ele>
        <time>2020-07-03T13:36:27Z</time>
      </trkpt>
      <trkpt lat="47.05739" lon="0.83285">
        <ele>97.2</ele>
        <time>2020-07-03T13:36:28Z</time>
      </trkpt>
      <trkpt lat="47.05736" lon="0.83277">
        <ele>97.3</ele>
        <time>2020-07-03T13:36:29Z</time>
      </trkpt>
      <trkpt lat="47.05734" lon="0.83271">
        <ele>97.4</ele>
        <time>2020-07-03T13:36:30Z</time>
      </trkpt>
      <trkpt lat="47.05732" lon="0.83265">
        <ele>97.5</ele>
        <time>2020-07-03T13:36:31Z</time>
      </trkpt>
      <trkpt lat="47.0573" lon="0.8326">
        <ele>97.6</ele>
        <time>2020-07-03T13:36:32Z</time>
      </trkpt>
      <trkpt lat="47.05728" lon="0.83254">
        <ele>97.7</ele>
        <time>2020-07-03T13:36:33Z</time>
      </trkpt>
      <trkpt lat="47.05725" lon="0.83247">
        <ele>97.9</ele>
        <time>2020-07-03T13:36:34Z</time>
      </trkpt>
      <trkpt lat="47.05723" lon="0.8324">
        <ele>98</ele>
        <time>2020-07-03T13:36:35Z</time>
      </trkpt>
      <trkpt lat="47.0572" lon="0.83233">
        <ele>98.1</ele>
        <time>2020-07-03T13:36:36Z</time>
      </trkpt>
      <trkpt lat="47.05717" lon="0.83226">
        <ele>98.2</ele>
        <time>2020-07-03T13:36:37Z</time>
      </trkpt>
      <trkpt lat="47.05714" lon="0.8322">
        <ele>98.2</ele>
        <time>2020-07-03T13:36:38Z</time>
      </trkpt>
      <trkpt lat="47.05712" lon="0.83214">
        <ele>98.2</ele>
        <time>2020-07-03T13:36:39Z</time>
      </trkpt>
      <trkpt lat="47.05709" lon="0.83207">
        <ele>98.2</ele>
        <time>2020-07-03T13:36:40Z</time>
      </trkpt>
      <trkpt lat="47.05706" lon="0.83202">
        <ele>98.2</ele>
        <time>2020-07-03T13:36:41Z</time>
      </trkpt>
      <trkpt lat="47.05703" lon="0.83197">
        <ele>98.3</ele>
        <time>2020-07-03T13:36:42Z</time>
      </trkpt>
      <trkpt lat="47.057" lon="0.8319">
        <ele>98.5</ele>
        <time>2020-07-03T13:36:43Z</time>
      </trkpt>
      <trkpt lat="47.05697" lon="0.83184">
        <ele>98.6</ele>
        <time>2020-07-03T13:36:44Z</time>
      </trkpt>
      <trkpt lat="47.05694" lon="0.83177">
        <ele>98.9</ele>
        <time>2020-07-03T13:36:45Z</time>
      </trkpt>
      <trkpt lat="47.05692" lon="0.83172">
        <ele>99</ele>
        <time>2020-07-03T13:36:46Z</time>
      </trkpt>
      <trkpt lat="47.05689" lon="0.83166">
        <ele>99.2</ele>
        <time>2020-07-03T13:36:47Z</time>
      </trkpt>
      <trkpt lat="47.05686" lon="0.83161">
        <ele>99.4</ele>
        <time>2020-07-03T13:36:48Z</time>
      </trkpt>
      <trkpt lat="47.05684" lon="0.83157">
        <ele>99.7</ele>
        <time>2020-07-03T13:36:49Z</time>
      </trkpt>
      <trkpt lat="47.05682" lon="0.83152">
        <ele>99.9</ele>
        <time>2020-07-03T13:36:50Z</time>
      </trkpt>
      <trkpt lat="47.0568" lon="0.83147">
        <ele>100.1</ele>
        <time>2020-07-03T13:36:51Z</time>
      </trkpt>
      <trkpt lat="47.05676" lon="0.8314">
        <ele>100.4</ele>
        <time>2020-07-03T13:36:52Z</time>
      </trkpt>
      <trkpt lat="47.05674" lon="0.83137">
        <ele>100.6</ele>
        <time>2020-07-03T13:36:53Z</time>
      </trkpt>
      <trkpt lat="47.05671" lon="0.83133">
        <ele>100.8</ele>
        <time>2020-07-03T13:36:54Z</time>
      </trkpt>
      <trkpt lat="47.05668" lon="0.83128">
        <ele>101</ele>
        <time>2020-07-03T13:36:55Z</time>
      </trkpt>
      <trkpt lat="47.05665" lon="0.83124">
        <ele>101.2</ele>
        <time>2020-07-03T13:36:56Z</time>
      </trkpt>
      <trkpt lat="47.05663" lon="0.8312">
        <ele>101.5</ele>
        <time>2020-07-03T13:36:57Z</time>
      </trkpt>
      <trkpt lat="47.0566" lon="0.83117">
        <ele>101.6</ele>
        <time>2020-07-03T13:36:58Z</time>
      </trkpt>
      <trkpt lat="47.05657" lon="0.83113">
        <ele>101.9</ele>
        <time>2020-07-03T13:36:59Z</time>
      </trkpt>
      <trkpt lat="47.05655" lon="0.8311">
        <ele>102.1</ele>
        <time>2020-07-03T13:37:00Z</time>
      </trkpt>
      <trkpt lat="47.05652" lon="0.83107">
        <ele>102.3</ele>
        <time>2020-07-03T13:37:01Z</time>
      </trkpt>
      <trkpt lat="47.05649" lon="0.83104">
        <ele>102.5</ele>
        <time>2020-07-03T13:37:02Z</time>
      </trkpt>
      <trkpt lat="47.05646" lon="0.83102">
        <ele>102.8</ele>
        <time>2020-07-03T13:37:03Z</time>
      </trkpt>
      <trkpt lat="47.05644" lon="0.83099">
        <ele>103.1</ele>
        <time>2020-07-03T13:37:04Z</time>
      </trkpt>
      <trkpt lat="47.05641" lon="0.83097">
        <ele>103.4</ele>
        <time>2020-07-03T13:37:05Z</time>
      </trkpt>
      <trkpt lat="47.05638" lon="0.83096">
        <ele>103.6</ele>
        <time>2020-07-03T13:37:06Z</time>
      </trkpt>
      <trkpt lat="47.05635" lon="0.83092">
        <ele>104</ele>
        <time>2020-07-03T13:37:07Z</time>
      </trkpt>
      <trkpt lat="47.05634" lon="0.83091">
        <ele>104.2</ele>
        <time>2020-07-03T13:37:08Z</time>
      </trkpt>
      <trkpt lat="47.05631" lon="0.83088">
        <ele>104.5</ele>
        <time>2020-07-03T13:37:09Z</time>
      </trkpt>
      <trkpt lat="47.05628" lon="0.83085">
        <ele>104.9</ele>
        <time>2020-07-03T13:37:10Z</time>
      </trkpt>
      <trkpt lat="47.05625" lon="0.83083">
        <ele>105.2</ele>
        <time>2020-07-03T13:37:11Z</time>
      </trkpt>
      <trkpt lat="47.05622" lon="0.83081">
        <ele>105.4</ele>
        <time>2020-07-03T13:37:12Z</time>
      </trkpt>
      <trkpt lat="47.05619" lon="0.83079">
        <ele>105.7</ele>
        <time>2020-07-03T13:37:13Z</time>
      </trkpt>
      <trkpt lat="47.05617" lon="0.83076">
        <ele>106</ele>
        <time>2020-07-03T13:37:14Z</time>
      </trkpt>
      <trkpt lat="47.05613" lon="0.83072">
        <ele>106.4</ele>
        <time>2020-07-03T13:37:15Z</time>
      </trkpt>
      <trkpt lat="47.0561" lon="0.83069">
        <ele>106.7</ele>
        <time>2020-07-03T13:37:16Z</time>
      </trkpt>
      <trkpt lat="47.05608" lon="0.83067">
        <ele>106.9</ele>
        <time>2020-07-03T13:37:17Z</time>
      </trkpt>
      <trkpt lat="47.05605" lon="0.83065">
        <ele>107.2</ele>
        <time>2020-07-03T13:37:18Z</time>
      </trkpt>
      <trkpt lat="47.05605" lon="0.83064">
        <ele>107.3</ele>
        <time>2020-07-03T13:37:19Z</time>
      </trkpt>
      <trkpt lat="47.05603" lon="0.83061">
        <ele>107.5</ele>
        <time>2020-07-03T13:37:20Z</time>
      </trkpt>
      <trkpt lat="47.05601" lon="0.83058">
        <ele>107.8</ele>
        <time>2020-07-03T13:37:21Z</time>
      </trkpt>
      <trkpt lat="47.056" lon="0.83057">
        <ele>107.9</ele>
        <time>2020-07-03T13:37:22Z</time>
      </trkpt>
      <trkpt lat="47.05598" lon="0.83053">
        <ele>108.2</ele>
        <time>2020-07-03T13:37:23Z</time>
      </trkpt>
      <trkpt lat="47.05597" lon="0.83053">
        <ele>108.3</ele>
        <time>2020-07-03T13:37:24Z</time>
      </trkpt>
      <trkpt lat="47.05594" lon="0.83052">
        <ele>108.5</ele>
        <time>2020-07-03T13:37:25Z</time>
      </trkpt>
      <trkpt lat="47.05593" lon="0.83051">
        <ele>108.7</ele>
        <time>2020-07-03T13:37:26Z</time>
      </trkpt>
      <trkpt lat="47.0559" lon="0.83049">
        <ele>109</ele>
        <time>2020-07-03T13:37:27Z</time>
      </trkpt>
      <trkpt lat="47.05588" lon="0.83048">
        <ele>109.1</ele>
        <time>2020-07-03T13:37:28Z</time>
      </trkpt>
      <trkpt lat="47.05585" lon="0.83047">
        <ele>109.4</ele>
        <time>2020-07-03T13:37:29Z</time>
      </trkpt>
      <trkpt lat="47.05584" lon="0.83046">
        <ele>109.5</ele>
        <time>2020-07-03T13:37:30Z</time>
      </trkpt>
      <trkpt lat="47.05581" lon="0.83046">
        <ele>109.8</ele>
        <time>2020-07-03T13:37:31Z</time>
      </trkpt>
      <trkpt lat="47.0558" lon="0.83046">
        <ele>109.9</ele>
        <time>2020-07-03T13:37:32Z</time>
      </trkpt>
      <trkpt lat="47.05576" lon="0.83047">
        <ele>110.2</ele>
        <time>2020-07-03T13:37:33Z</time>
      </trkpt>
      <trkpt lat="47.05575" lon="0.83047">
        <ele>110.3</ele>
        <time>2020-07-03T13:37:34Z</time>
      </trkpt>
      <trkpt lat="47.05571" lon="0.83045">
        <ele>110.5</ele>
        <time>2020-07-03T13:37:35Z</time>
      </trkpt>
      <trkpt lat="47.0557" lon="0.83045">
        <ele>110.6</ele>
        <time>2020-07-03T13:37:36Z</time>
      </trkpt>
      <trkpt lat="47.05566" lon="0.83044">
        <ele>110.8</ele>
        <time>2020-07-03T13:37:37Z</time>
      </trkpt>
      <trkpt lat="47.05565" lon="0.83044">
        <ele>110.8</ele>
        <time>2020-07-03T13:37:38Z</time>
      </trkpt>
      <trkpt lat="47.05562" lon="0.83044">
        <ele>110.9</ele>
        <time>2020-07-03T13:37:39Z</time>
      </trkpt>
      <trkpt lat="47.05561" lon="0.83044">
        <ele>110.9</ele>
        <time>2020-07-03T13:37:40Z</time>
      </trkpt>
      <trkpt lat="47.05557" lon="0.83044">
        <ele>111.1</ele>
        <time>2020-07-03T13:37:41Z</time>
      </trkpt>
      <trkpt lat="47.05556" lon="0.83044">
        <ele>111.1</ele>
        <time>2020-07-03T13:37:42Z</time>
      </trkpt>
      <trkpt lat="47.05552" lon="0.83045">
        <ele>111.3</ele>
        <time>2020-07-03T13:37:43Z</time>
      </trkpt>
      <trkpt lat="47.0555" lon="0.83045">
        <ele>111.3</ele>
        <time>2020-07-03T13:37:44Z</time>
      </trkpt>
      <trkpt lat="47.05547" lon="0.83045">
        <ele>111.4</ele>
        <time>2020-07-03T13:37:45Z</time>
      </trkpt>
      <trkpt lat="47.05544" lon="0.83046">
        <ele>111.5</ele>
        <time>2020-07-03T13:37:46Z</time>
      </trkpt>
      <trkpt lat="47.05541" lon="0.83045">
        <ele>111.6</ele>
        <time>2020-07-03T13:37:47Z</time>
      </trkpt>
      <trkpt lat="47.05538" lon="0.83046">
        <ele>111.7</ele>
        <time>2020-07-03T13:37:48Z</time>
      </trkpt>
      <trkpt lat="47.05535" lon="0.83047">
        <ele>111.8</ele>
        <time>2020-07-03T13:37:49Z</time>
      </trkpt>
      <trkpt lat="47.05532" lon="0.83046">
        <ele>111.9</ele>
        <time>2020-07-03T13:37:50Z</time>
      </trkpt>
      <trkpt lat="47.05528" lon="0.83047">
        <ele>112</ele>
        <time>2020-07-03T13:37:51Z</time>
      </trkpt>
      <trkpt lat="47.05524" lon="0.83046">
        <ele>112.1</ele>
        <time>2020-07-03T13:37:52Z</time>
      </trkpt>
      <trkpt lat="47.05521" lon="0.83046">
        <ele>112.1</ele>
        <time>2020-07-03T13:37:53Z</time>
      </trkpt>
      <trkpt lat="47.05517" lon="0.83045">
        <ele>112.2</ele>
        <time>2020-07-03T13:37:54Z</time>
      </trkpt>
      <trkpt lat="47.05513" lon="0.83044">
        <ele>112.2</ele>
        <time>2020-07-03T13:37:55Z</time>
      </trkpt>
      <trkpt lat="47.0551" lon="0.83044">
        <ele>112.3</ele>
        <time>2020-07-03T13:37:56Z</time>
      </trkpt>
      <trkpt lat="47.05506" lon="0.83042">
        <ele>112.3</ele>
        <time>2020-07-03T13:37:57Z</time>
      </trkpt>
      <trkpt lat="47.05503" lon="0.83041">
        <ele>112.3</ele>
        <time>2020-07-03T13:37:58Z</time>
      </trkpt>
      <trkpt lat="47.05499" lon="0.83038">
        <ele>112.4</ele>
        <time>2020-07-03T13:37:59Z</time>
      </trkpt>
      <trkpt lat="47.05495" lon="0.83036">
        <ele>112.4</ele>
        <time>2020-07-03T13:38:00Z</time>
      </trkpt>
      <trkpt lat="47.05492" lon="0.83035">
        <ele>112.4</ele>
        <time>2020-07-03T13:38:01Z</time>
      </trkpt>
      <trkpt lat="47.05489" lon="0.83033">
        <ele>112.4</ele>
        <time>2020-07-03T13:38:02Z</time>
      </trkpt>
      <trkpt lat="47.05486" lon="0.83031">
        <ele>112.5</ele>
        <time>2020-07-03T13:38:03Z</time>
      </trkpt>
      <trkpt lat="47.05483" lon="0.83026">
        <ele>112.6</ele>
        <time>2020-07-03T13:38:04Z</time>
      </trkpt>
      <trkpt lat="47.0548" lon="0.83023">
        <ele>112.7</ele>
        <time>2020-07-03T13:38:05Z</time>
      </trkpt>
      <trkpt lat="47.05478" lon="0.83018">
        <ele>112.8</ele>
        <time>2020-07-03T13:38:06Z</time>
      </trkpt>
      <trkpt lat="47.05476" lon="0.83014">
        <ele>112.9</ele>
        <time>2020-07-03T13:38:07Z</time>
      </trkpt>
      <trkpt lat="47.05474" lon="0.8301">
        <ele>113</ele>
        <time>2020-07-03T13:38:08Z</time>
      </trkpt>
      <trkpt lat="47.05472" lon="0.83006">
        <ele>113.1</ele>
        <time>2020-07-03T13:38:09Z</time>
      </trkpt>
      <trkpt lat="47.05468" lon="0.83004">
        <ele>113.2</ele>
        <time>2020-07-03T13:38:10Z</time>
      </trkpt>
      <trkpt lat="47.05464" lon="0.83002">
        <ele>113.2</ele>
        <time>2020-07-03T13:38:11Z</time>
      </trkpt>
      <trkpt lat="47.0546" lon="0.83001">
        <ele>113.3</ele>
        <time>2020-07-03T13:38:12Z</time>
      </trkpt>
      <trkpt lat="47.05456" lon="0.83002">
        <ele>113.3</ele>
        <time>2020-07-03T13:38:13Z</time>
      </trkpt>
      <trkpt lat="47.05452" lon="0.83004">
        <ele>113.3</ele>
        <time>2020-07-03T13:38:14Z</time>
      </trkpt>
      <trkpt lat="47.05448" lon="0.83006">
        <ele>113.3</ele>
        <time>2020-07-03T13:38:15Z</time>
      </trkpt>
      <trkpt lat="47.05445" lon="0.8301">
        <ele>112.8</ele>
        <time>2020-07-03T13:38:16Z</time>
      </trkpt>
      <trkpt lat="47.05442" lon="0.83015">
        <ele>112.7</ele>
        <time>2020-07-03T13:38:17Z</time>
      </trkpt>
      <trkpt lat="47.05438" lon="0.8302">
        <ele>112.5</ele>
        <time>2020-07-03T13:38:18Z</time>
      </trkpt>
      <trkpt lat="47.05436" lon="0.83025">
        <ele>112</ele>
        <time>2020-07-03T13:38:19Z</time>
      </trkpt>
      <trkpt lat="47.05432" lon="0.83029">
        <ele>111.8</ele>
        <time>2020-07-03T13:38:20Z</time>
      </trkpt>
      <trkpt lat="47.05427" lon="0.83034">
        <ele>111.6</ele>
        <time>2020-07-03T13:38:21Z</time>
      </trkpt>
      <trkpt lat="47.05423" lon="0.83036">
        <ele>111.4</ele>
        <time>2020-07-03T13:38:22Z</time>
      </trkpt>
      <trkpt lat="47.05418" lon="0.83036">
        <ele>111.2</ele>
        <time>2020-07-03T13:38:23Z</time>
      </trkpt>
      <trkpt lat="47.05413" lon="0.83035">
        <ele>111</ele>
        <time>2020-07-03T13:38:24Z</time>
      </trkpt>
      <trkpt lat="47.0541" lon="0.83035">
        <ele>110.8</ele>
        <time>2020-07-03T13:38:25Z</time>
      </trkpt>
      <trkpt lat="47.05406" lon="0.83034">
        <ele>110.7</ele>
        <time>2020-07-03T13:38:26Z</time>
      </trkpt>
      <trkpt lat="47.05403" lon="0.83034">
        <ele>110.6</ele>
        <time>2020-07-03T13:38:27Z</time>
      </trkpt>
      <trkpt lat="47.05403" lon="0.83039">
        <ele>110.5</ele>
        <time>2020-07-03T13:38:28Z</time>
      </trkpt>
      <trkpt lat="47.05404" lon="0.8304">
        <ele>110.4</ele>
        <time>2020-07-03T13:38:29Z</time>
      </trkpt>
      <trkpt lat="47.05408" lon="0.8304">
        <ele>110.3</ele>
        <time>2020-07-03T13:38:30Z</time>
      </trkpt>
      <trkpt lat="47.05409" lon="0.83039">
        <ele>110.2</ele>
        <time>2020-07-03T13:38:31Z</time>
      </trkpt>
      <trkpt lat="47.05412" lon="0.83039">
        <ele>110.1</ele>
        <time>2020-07-03T13:38:32Z</time>
      </trkpt>
      <trkpt lat="47.05414" lon="0.83039">
        <ele>110</ele>
        <time>2020-07-03T13:38:33Z</time>
      </trkpt>
      <trkpt lat="47.05418" lon="0.83039">
        <ele>109.9</ele>
        <time>2020-07-03T13:38:34Z</time>
      </trkpt>
      <trkpt lat="47.05419" lon="0.83039">
        <ele>109.8</ele>
        <time>2020-07-03T13:38:35Z</time>
      </trkpt>
      <trkpt lat="47.05422" lon="0.83038">
        <ele>109.7</ele>
        <time>2020-07-03T13:38:36Z</time>
      </trkpt>
      <trkpt lat="47.05423" lon="0.83037">
        <ele>109.6</ele>
        <time>2020-07-03T13:38:37Z</time>
      </trkpt>
      <trkpt lat="47.05426" lon="0.83037">
        <ele>109.5</ele>
        <time>2020-07-03T13:38:38Z</time>
      </trkpt>
      <trkpt lat="47.05429" lon="0.83036">
        <ele>109.4</ele>
        <time>2020-07-03T13:38:39Z</time>
      </trkpt>
      <trkpt lat="47.0543" lon="0.83036">
        <ele>109.3</ele>
        <time>2020-07-03T13:38:40Z</time>
      </trkpt>
      <trkpt lat="47.05429" lon="0.83034">
        <ele>109.3</ele>
        <time>2020-07-03T13:38:41Z</time>
      </trkpt>
      <trkpt lat="47.05428" lon="0.83033">
        <ele>109.2</ele>
        <time>2020-07-03T13:38:42Z</time>
      </trkpt>
      <trkpt lat="47.05426" lon="0.83031">
        <ele>109.1</ele>
        <time>2020-07-03T13:38:43Z</time>
      </trkpt>
      <trkpt lat="47.05425" lon="0.83029">
        <ele>109</ele>
        <time>2020-07-03T13:38:44Z</time>
      </trkpt>
      <trkpt lat="47.05419" lon="0.8303">
        <ele>108.7</ele>
        <time>2020-07-03T13:38:45Z</time>
      </trkpt>
      <trkpt lat="47.05415" lon="0.83032">
        <ele>108.5</ele>
        <time>2020-07-03T13:38:46Z</time>
      </trkpt>
      <trkpt lat="47.05411" lon="0.83032">
        <ele>108.3</ele>
        <time>2020-07-03T13:38:47Z</time>
      </trkpt>
      <trkpt lat="47.05406" lon="0.83031">
        <ele>108</ele>
        <time>2020-07-03T13:38:48Z</time>
      </trkpt>
      <trkpt lat="47.054" lon="0.83028">
        <ele>107.7</ele>
        <time>2020-07-03T13:38:49Z</time>
      </trkpt>
      <trkpt lat="47.05395" lon="0.83025">
        <ele>107.4</ele>
        <time>2020-07-03T13:38:50Z</time>
      </trkpt>
      <trkpt lat="47.0539" lon="0.83021">
        <ele>107.2</ele>
        <time>2020-07-03T13:38:51Z</time>
      </trkpt>
      <trkpt lat="47.05386" lon="0.83015">
        <ele>106.9</ele>
        <time>2020-07-03T13:38:52Z</time>
      </trkpt>
      <trkpt lat="47.05381" lon="0.83009">
        <ele>106.7</ele>
        <time>2020-07-03T13:38:53Z</time>
      </trkpt>
      <trkpt lat="47.05378" lon="0.83">
        <ele>106.5</ele>
        <time>2020-07-03T13:38:54Z</time>
      </trkpt>
      <trkpt lat="47.05375" lon="0.82991">
        <ele>106.3</ele>
        <time>2020-07-03T13:38:55Z</time>
      </trkpt>
      <trkpt lat="47.05374" lon="0.82979">
        <ele>106.1</ele>
        <time>2020-07-03T13:38:56Z</time>
      </trkpt>
      <trkpt lat="47.05373" lon="0.82969">
        <ele>106</ele>
        <time>2020-07-03T13:38:57Z</time>
      </trkpt>
      <trkpt lat="47.05371" lon="0.82958">
        <ele>106</ele>
        <time>2020-07-03T13:38:58Z</time>
      </trkpt>
      <trkpt lat="47.05369" lon="0.82947">
        <ele>106</ele>
        <time>2020-07-03T13:38:59Z</time>
      </trkpt>
      <trkpt lat="47.05367" lon="0.82936">
        <ele>106</ele>
        <time>2020-07-03T13:39:00Z</time>
      </trkpt>
      <trkpt lat="47.05365" lon="0.82925">
        <ele>106.1</ele>
        <time>2020-07-03T13:39:01Z</time>
      </trkpt>
      <trkpt lat="47.05364" lon="0.82914">
        <ele>106.1</ele>
        <time>2020-07-03T13:39:02Z</time>
      </trkpt>
      <trkpt lat="47.05362" lon="0.82903">
        <ele>106.3</ele>
        <time>2020-07-03T13:39:03Z</time>
      </trkpt>
      <trkpt lat="47.05361" lon="0.82892">
        <ele>106.5</ele>
        <time>2020-07-03T13:39:04Z</time>
      </trkpt>
      <trkpt lat="47.05359" lon="0.82881">
        <ele>106.7</ele>
        <time>2020-07-03T13:39:05Z</time>
      </trkpt>
      <trkpt lat="47.05358" lon="0.82872">
        <ele>106.9</ele>
        <time>2020-07-03T13:39:06Z</time>
      </trkpt>
      <trkpt lat="47.05357" lon="0.82861">
        <ele>107.2</ele>
        <time>2020-07-03T13:39:07Z</time>
      </trkpt>
      <trkpt lat="47.05355" lon="0.82852">
        <ele>107.5</ele>
        <time>2020-07-03T13:39:08Z</time>
      </trkpt>
      <trkpt lat="47.05355" lon="0.82843">
        <ele>107.8</ele>
        <time>2020-07-03T13:39:09Z</time>
      </trkpt>
      <trkpt lat="47.05354" lon="0.82834">
        <ele>108.1</ele>
        <time>2020-07-03T13:39:10Z</time>
      </trkpt>
      <trkpt lat="47.05353" lon="0.82826">
        <ele>108.4</ele>
        <time>2020-07-03T13:39:11Z</time>
      </trkpt>
      <trkpt lat="47.05352" lon="0.82818">
        <ele>108.7</ele>
        <time>2020-07-03T13:39:12Z</time>
      </trkpt>
      <trkpt lat="47.05351" lon="0.8281">
        <ele>109</ele>
        <time>2020-07-03T13:39:13Z</time>
      </trkpt>
      <trkpt lat="47.0535" lon="0.82803">
        <ele>109.2</ele>
        <time>2020-07-03T13:39:14Z</time>
      </trkpt>
      <trkpt lat="47.05349" lon="0.82797">
        <ele>109.5</ele>
        <time>2020-07-03T13:39:15Z</time>
      </trkpt>
      <trkpt lat="47.05348" lon="0.8279">
        <ele>109.7</ele>
        <time>2020-07-03T13:39:16Z</time>
      </trkpt>
      <trkpt lat="47.05347" lon="0.82784">
        <ele>109.9</ele>
        <time>2020-07-03T13:39:17Z</time>
      </trkpt>
      <trkpt lat="47.05346" lon="0.82777">
        <ele>110.1</ele>
        <time>2020-07-03T13:39:18Z</time>
      </trkpt>
      <trkpt lat="47.05346" lon="0.82771">
        <ele>110.3</ele>
        <time>2020-07-03T13:39:19Z</time>
      </trkpt>
      <trkpt lat="47.05346" lon="0.82765">
        <ele>110.5</ele>
        <time>2020-07-03T13:39:20Z</time>
      </trkpt>
      <trkpt lat="47.05345" lon="0.8276">
        <ele>110.6</ele>
        <time>2020-07-03T13:39:21Z</time>
      </trkpt>
      <trkpt lat="47.05345" lon="0.82755">
        <ele>110.8</ele>
        <time>2020-07-03T13:39:22Z</time>
      </trkpt>
      <trkpt lat="47.05343" lon="0.8275">
        <ele>111</ele>
        <time>2020-07-03T13:39:23Z</time>
      </trkpt>
      <trkpt lat="47.05342" lon="0.82745">
        <ele>111.1</ele>
        <time>2020-07-03T13:39:24Z</time>
      </trkpt>
      <trkpt lat="47.0534" lon="0.82741">
        <ele>111.3</ele>
        <time>2020-07-03T13:39:25Z</time>
      </trkpt>
      <trkpt lat="47.05339" lon="0.82735">
        <ele>111.4</ele>
        <time>2020-07-03T13:39:26Z</time>
      </trkpt>
      <trkpt lat="47.05338" lon="0.82729">
        <ele>111.6</ele>
        <time>2020-07-03T13:39:27Z</time>
      </trkpt>
      <trkpt lat="47.05337" lon="0.82727">
        <ele>111.7</ele>
        <time>2020-07-03T13:39:28Z</time>
      </trkpt>
      <trkpt lat="47.05336" lon="0.82722">
        <ele>111.8</ele>
        <time>2020-07-03T13:39:29Z</time>
      </trkpt>
      <trkpt lat="47.05334" lon="0.82717">
        <ele>111.9</ele>
        <time>2020-07-03T13:39:30Z</time>
      </trkpt>
      <trkpt lat="47.05333" lon="0.82715">
        <ele>112</ele>
        <time>2020-07-03T13:39:31Z</time>
      </trkpt>
      <trkpt lat="47.05331" lon="0.82711">
        <ele>112.1</ele>
        <time>2020-07-03T13:39:32Z</time>
      </trkpt>
      <trkpt lat="47.0533" lon="0.82706">
        <ele>112.1</ele>
        <time>2020-07-03T13:39:33Z</time>
      </trkpt>
      <trkpt lat="47.05328" lon="0.82701">
        <ele>112.3</ele>
        <time>2020-07-03T13:39:34Z</time>
      </trkpt>
      <trkpt lat="47.05327" lon="0.82695">
        <ele>112.4</ele>
        <time>2020-07-03T13:39:35Z</time>
      </trkpt>
      <trkpt lat="47.05325" lon="0.8269">
        <ele>112.6</ele>
        <time>2020-07-03T13:39:36Z</time>
      </trkpt>
      <trkpt lat="47.05323" lon="0.82686">
        <ele>112.7</ele>
        <time>2020-07-03T13:39:37Z</time>
      </trkpt>
      <trkpt lat="47.0532" lon="0.82681">
        <ele>112.9</ele>
        <time>2020-07-03T13:39:38Z</time>
      </trkpt>
      <trkpt lat="47.05317" lon="0.82675">
        <ele>113.1</ele>
        <time>2020-07-03T13:39:39Z</time>
      </trkpt>
      <trkpt lat="47.05314" lon="0.8267">
        <ele>113.2</ele>
        <time>2020-07-03T13:39:40Z</time>
      </trkpt>
      <trkpt lat="47.05313" lon="0.82665">
        <ele>113.3</ele>
        <time>2020-07-03T13:39:41Z</time>
      </trkpt>
      <trkpt lat="47.05312" lon="0.82661">
        <ele>113.4</ele>
        <time>2020-07-03T13:39:42Z</time>
      </trkpt>
      <trkpt lat="47.0531" lon="0.82656">
        <ele>113.5</ele>
        <time>2020-07-03T13:39:43Z</time>
      </trkpt>
      <trkpt lat="47.05307" lon="0.82653">
        <ele>113.5</ele>
        <time>2020-07-03T13:39:44Z</time>
      </trkpt>
      <trkpt lat="47.05305" lon="0.82649">
        <ele>113.6</ele>
        <time>2020-07-03T13:39:45Z</time>
      </trkpt>
      <trkpt lat="47.05303" lon="0.82643">
        <ele>113.7</ele>
        <time>2020-07-03T13:39:46Z</time>
      </trkpt>
      <trkpt lat="47.05302" lon="0.82639">
        <ele>113.8</ele>
        <time>2020-07-03T13:39:47Z</time>
      </trkpt>
      <trkpt lat="47.053" lon="0.82633">
        <ele>113.9</ele>
        <time>2020-07-03T13:39:48Z</time>
      </trkpt>
      <trkpt lat="47.05297" lon="0.82628">
        <ele>114</ele>
        <time>2020-07-03T13:39:49Z</time>
      </trkpt>
      <trkpt lat="47.05295" lon="0.82623">
        <ele>114.1</ele>
        <time>2020-07-03T13:39:50Z</time>
      </trkpt>
      <trkpt lat="47.05292" lon="0.82618">
        <ele>114.3</ele>
        <time>2020-07-03T13:39:51Z</time>
      </trkpt>
      <trkpt lat="47.05288" lon="0.82613">
        <ele>114.4</ele>
        <time>2020-07-03T13:39:52Z</time>
      </trkpt>
      <trkpt lat="47.05285" lon="0.82607">
        <ele>114.5</ele>
        <time>2020-07-03T13:39:53Z</time>
      </trkpt>
      <trkpt lat="47.05282" lon="0.82604">
        <ele>114.5</ele>
        <time>2020-07-03T13:39:54Z</time>
      </trkpt>
      <trkpt lat="47.05279" lon="0.82599">
        <ele>114.6</ele>
        <time>2020-07-03T13:39:55Z</time>
      </trkpt>
      <trkpt lat="47.05277" lon="0.82595">
        <ele>114.6</ele>
        <time>2020-07-03T13:39:56Z</time>
      </trkpt>
      <trkpt lat="47.05273" lon="0.8259">
        <ele>114.7</ele>
        <time>2020-07-03T13:39:57Z</time>
      </trkpt>
      <trkpt lat="47.05271" lon="0.82583">
        <ele>114.7</ele>
        <time>2020-07-03T13:39:58Z</time>
      </trkpt>
      <trkpt lat="47.05268" lon="0.82576">
        <ele>114.8</ele>
        <time>2020-07-03T13:39:59Z</time>
      </trkpt>
      <trkpt lat="47.05266" lon="0.82571">
        <ele>114.8</ele>
        <time>2020-07-03T13:40:00Z</time>
      </trkpt>
      <trkpt lat="47.05263" lon="0.82567">
        <ele>114.8</ele>
        <time>2020-07-03T13:40:01Z</time>
      </trkpt>
      <trkpt lat="47.05261" lon="0.82561">
        <ele>114.7</ele>
        <time>2020-07-03T13:40:02Z</time>
      </trkpt>
      <trkpt lat="47.05259" lon="0.82556">
        <ele>114.7</ele>
        <time>2020-07-03T13:40:03Z</time>
      </trkpt>
      <trkpt lat="47.05256" lon="0.82551">
        <ele>114.6</ele>
        <time>2020-07-03T13:40:04Z</time>
      </trkpt>
      <trkpt lat="47.05253" lon="0.82544">
        <ele>114.5</ele>
        <time>2020-07-03T13:40:05Z</time>
      </trkpt>
      <trkpt lat="47.05249" lon="0.82536">
        <ele>114.4</ele>
        <time>2020-07-03T13:40:06Z</time>
      </trkpt>
      <trkpt lat="47.05245" lon="0.82528">
        <ele>114.3</ele>
        <time>2020-07-03T13:40:07Z</time>
      </trkpt>
      <trkpt lat="47.05242" lon="0.82521">
        <ele>114.1</ele>
        <time>2020-07-03T13:40:08Z</time>
      </trkpt>
      <trkpt lat="47.05239" lon="0.82513">
        <ele>114</ele>
        <time>2020-07-03T13:40:09Z</time>
      </trkpt>
      <trkpt lat="47.05236" lon="0.82506">
        <ele>114</ele>
        <time>2020-07-03T13:40:10Z</time>
      </trkpt>
      <trkpt lat="47.05233" lon="0.82498">
        <ele>113.9</ele>
        <time>2020-07-03T13:40:11Z</time>
      </trkpt>
      <trkpt lat="47.0523" lon="0.82492">
        <ele>113.8</ele>
        <time>2020-07-03T13:40:12Z</time>
      </trkpt>
      <trkpt lat="47.05227" lon="0.82486">
        <ele>113.6</ele>
        <time>2020-07-03T13:40:13Z</time>
      </trkpt>
      <trkpt lat="47.05223" lon="0.82477">
        <ele>113.4</ele>
        <time>2020-07-03T13:40:14Z</time>
      </trkpt>
      <trkpt lat="47.05218" lon="0.82471">
        <ele>113.2</ele>
        <time>2020-07-03T13:40:15Z</time>
      </trkpt>
      <trkpt lat="47.05214" lon="0.82464">
        <ele>113</ele>
        <time>2020-07-03T13:40:16Z</time>
      </trkpt>
      <trkpt lat="47.05211" lon="0.82456">
        <ele>112.8</ele>
        <time>2020-07-03T13:40:17Z</time>
      </trkpt>
      <trkpt lat="47.05207" lon="0.82449">
        <ele>112.6</ele>
        <time>2020-07-03T13:40:18Z</time>
      </trkpt>
      <trkpt lat="47.05203" lon="0.82441">
        <ele>112.5</ele>
        <time>2020-07-03T13:40:19Z</time>
      </trkpt>
      <trkpt lat="47.052" lon="0.82433">
        <ele>112.3</ele>
        <time>2020-07-03T13:40:20Z</time>
      </trkpt>
      <trkpt lat="47.05197" lon="0.82426">
        <ele>112.1</ele>
        <time>2020-07-03T13:40:21Z</time>
      </trkpt>
      <trkpt lat="47.05193" lon="0.82418">
        <ele>111.9</ele>
        <time>2020-07-03T13:40:22Z</time>
      </trkpt>
      <trkpt lat="47.05189" lon="0.8241">
        <ele>111.7</ele>
        <time>2020-07-03T13:40:23Z</time>
      </trkpt>
      <trkpt lat="47.05186" lon="0.82402">
        <ele>111.5</ele>
        <time>2020-07-03T13:40:24Z</time>
      </trkpt>
      <trkpt lat="47.05183" lon="0.82394">
        <ele>111.3</ele>
        <time>2020-07-03T13:40:25Z</time>
      </trkpt>
      <trkpt lat="47.05179" lon="0.82385">
        <ele>111</ele>
        <time>2020-07-03T13:40:26Z</time>
      </trkpt>
      <trkpt lat="47.05174" lon="0.82376">
        <ele>110.3</ele>
        <time>2020-07-03T13:40:27Z</time>
      </trkpt>
      <trkpt lat="47.05171" lon="0.82368">
        <ele>109.6</ele>
        <time>2020-07-03T13:40:28Z</time>
      </trkpt>
      <trkpt lat="47.05167" lon="0.82359">
        <ele>109.2</ele>
        <time>2020-07-03T13:40:29Z</time>
      </trkpt>
      <trkpt lat="47.05163" lon="0.82351">
        <ele>109</ele>
        <time>2020-07-03T13:40:30Z</time>
      </trkpt>
      <trkpt lat="47.0516" lon="0.82342">
        <ele>108.9</ele>
        <time>2020-07-03T13:40:31Z</time>
      </trkpt>
      <trkpt lat="47.05156" lon="0.82333">
        <ele>108.8</ele>
        <time>2020-07-03T13:40:32Z</time>
      </trkpt>
      <trkpt lat="47.05153" lon="0.82325">
        <ele>108.7</ele>
        <time>2020-07-03T13:40:33Z</time>
      </trkpt>
      <trkpt lat="47.05149" lon="0.82316">
        <ele>108.6</ele>
        <time>2020-07-03T13:40:34Z</time>
      </trkpt>
      <trkpt lat="47.05145" lon="0.82307">
        <ele>108.5</ele>
        <time>2020-07-03T13:40:35Z</time>
      </trkpt>
      <trkpt lat="47.05141" lon="0.82299">
        <ele>108.4</ele>
        <time>2020-07-03T13:40:36Z</time>
      </trkpt>
      <trkpt lat="47.05137" lon="0.82291">
        <ele>108.3</ele>
        <time>2020-07-03T13:40:37Z</time>
      </trkpt>
      <trkpt lat="47.05134" lon="0.82283">
        <ele>108.2</ele>
        <time>2020-07-03T13:40:38Z</time>
      </trkpt>
      <trkpt lat="47.05131" lon="0.82274">
        <ele>108</ele>
        <time>2020-07-03T13:40:39Z</time>
      </trkpt>
      <trkpt lat="47.05128" lon="0.82266">
        <ele>107.9</ele>
        <time>2020-07-03T13:40:40Z</time>
      </trkpt>
      <trkpt lat="47.05124" lon="0.82258">
        <ele>107.7</ele>
        <time>2020-07-03T13:40:41Z</time>
      </trkpt>
      <trkpt lat="47.05121" lon="0.82249">
        <ele>107.4</ele>
        <time>2020-07-03T13:40:42Z</time>
      </trkpt>
      <trkpt lat="47.05118" lon="0.82241">
        <ele>107.1</ele>
        <time>2020-07-03T13:40:43Z</time>
      </trkpt>
      <trkpt lat="47.05114" lon="0.82232">
        <ele>106.8</ele>
        <time>2020-07-03T13:40:44Z</time>
      </trkpt>
      <trkpt lat="47.0511" lon="0.82223">
        <ele>106.5</ele>
        <time>2020-07-03T13:40:45Z</time>
      </trkpt>
      <trkpt lat="47.05107" lon="0.82215">
        <ele>106.2</ele>
        <time>2020-07-03T13:40:46Z</time>
      </trkpt>
      <trkpt lat="47.05103" lon="0.82206">
        <ele>105.8</ele>
        <time>2020-07-03T13:40:47Z</time>
      </trkpt>
      <trkpt lat="47.05098" lon="0.82197">
        <ele>105.3</ele>
        <time>2020-07-03T13:40:48Z</time>
      </trkpt>
      <trkpt lat="47.05094" lon="0.82187">
        <ele>104.7</ele>
        <time>2020-07-03T13:40:49Z</time>
      </trkpt>
      <trkpt lat="47.0509" lon="0.82178">
        <ele>104.2</ele>
        <time>2020-07-03T13:40:50Z</time>
      </trkpt>
      <trkpt lat="47.05086" lon="0.82168">
        <ele>103.7</ele>
        <time>2020-07-03T13:40:51Z</time>
      </trkpt>
      <trkpt lat="47.05081" lon="0.82159">
        <ele>103.3</ele>
        <time>2020-07-03T13:40:52Z</time>
      </trkpt>
      <trkpt lat="47.05077" lon="0.82149">
        <ele>102.8</ele>
        <time>2020-07-03T13:40:53Z</time>
      </trkpt>
      <trkpt lat="47.05072" lon="0.8214">
        <ele>101.9</ele>
        <time>2020-07-03T13:40:54Z</time>
      </trkpt>
      <trkpt lat="47.05066" lon="0.8213">
        <ele>101.5</ele>
        <time>2020-07-03T13:40:55Z</time>
      </trkpt>
      <trkpt lat="47.05061" lon="0.82122">
        <ele>101</ele>
        <time>2020-07-03T13:40:56Z</time>
      </trkpt>
      <trkpt lat="47.05055" lon="0.82113">
        <ele>100.6</ele>
        <time>2020-07-03T13:40:57Z</time>
      </trkpt>
      <trkpt lat="47.05049" lon="0.82104">
        <ele>100.2</ele>
        <time>2020-07-03T13:40:58Z</time>
      </trkpt>
      <trkpt lat="47.05043" lon="0.82095">
        <ele>99.9</ele>
        <time>2020-07-03T13:40:59Z</time>
      </trkpt>
      <trkpt lat="47.05036" lon="0.82088">
        <ele>99.5</ele>
        <time>2020-07-03T13:41:00Z</time>
      </trkpt>
      <trkpt lat="47.0503" lon="0.82079">
        <ele>99.1</ele>
        <time>2020-07-03T13:41:01Z</time>
      </trkpt>
      <trkpt lat="47.05024" lon="0.82071">
        <ele>98.7</ele>
        <time>2020-07-03T13:41:02Z</time>
      </trkpt>
      <trkpt lat="47.05017" lon="0.82063">
        <ele>98.3</ele>
        <time>2020-07-03T13:41:03Z</time>
      </trkpt>
      <trkpt lat="47.05011" lon="0.82055">
        <ele>97.9</ele>
        <time>2020-07-03T13:41:04Z</time>
      </trkpt>
      <trkpt lat="47.05004" lon="0.82047">
        <ele>97.5</ele>
        <time>2020-07-03T13:41:05Z</time>
      </trkpt>
      <trkpt lat="47.04997" lon="0.82039">
        <ele>97.1</ele>
        <time>2020-07-03T13:41:06Z</time>
      </trkpt>
      <trkpt lat="47.0499" lon="0.82032">
        <ele>96.7</ele>
        <time>2020-07-03T13:41:07Z</time>
      </trkpt>
      <trkpt lat="47.04983" lon="0.82024">
        <ele>96.4</ele>
        <time>2020-07-03T13:41:08Z</time>
      </trkpt>
      <trkpt lat="47.04976" lon="0.82017">
        <ele>95.9</ele>
        <time>2020-07-03T13:41:09Z</time>
      </trkpt>
      <trkpt lat="47.04968" lon="0.8201">
        <ele>95.4</ele>
        <time>2020-07-03T13:41:10Z</time>
      </trkpt>
      <trkpt lat="47.04961" lon="0.82002">
        <ele>94.9</ele>
        <time>2020-07-03T13:41:11Z</time>
      </trkpt>
      <trkpt lat="47.04953" lon="0.81995">
        <ele>94.4</ele>
        <time>2020-07-03T13:41:12Z</time>
      </trkpt>
      <trkpt lat="47.04946" lon="0.81987">
        <ele>93.8</ele>
        <time>2020-07-03T13:41:13Z</time>
      </trkpt>
      <trkpt lat="47.04938" lon="0.81978">
        <ele>93.1</ele>
        <time>2020-07-03T13:41:14Z</time>
      </trkpt>
      <trkpt lat="47.04931" lon="0.8197">
        <ele>92.5</ele>
        <time>2020-07-03T13:41:15Z</time>
      </trkpt>
      <trkpt lat="47.04923" lon="0.81961">
        <ele>91.9</ele>
        <time>2020-07-03T13:41:16Z</time>
      </trkpt>
      <trkpt lat="47.04915" lon="0.81953">
        <ele>91.3</ele>
        <time>2020-07-03T13:41:17Z</time>
      </trkpt>
      <trkpt lat="47.04907" lon="0.81944">
        <ele>90.9</ele>
        <time>2020-07-03T13:41:18Z</time>
      </trkpt>
      <trkpt lat="47.04899" lon="0.81935">
        <ele>90.5</ele>
        <time>2020-07-03T13:41:19Z</time>
      </trkpt>
      <trkpt lat="47.04891" lon="0.81926">
        <ele>89.9</ele>
        <time>2020-07-03T13:41:20Z</time>
      </trkpt>
      <trkpt lat="47.04884" lon="0.81917">
        <ele>89.3</ele>
        <time>2020-07-03T13:41:21Z</time>
      </trkpt>
      <trkpt lat="47.04876" lon="0.81907">
        <ele>88.7</ele>
        <time>2020-07-03T13:41:22Z</time>
      </trkpt>
      <trkpt lat="47.04868" lon="0.81897">
        <ele>88.2</ele>
        <time>2020-07-03T13:41:23Z</time>
      </trkpt>
      <trkpt lat="47.04861" lon="0.81888">
        <ele>87.6</ele>
        <time>2020-07-03T13:41:24Z</time>
      </trkpt>
      <trkpt lat="47.04853" lon="0.81878">
        <ele>87</ele>
        <time>2020-07-03T13:41:25Z</time>
      </trkpt>
      <trkpt lat="47.04845" lon="0.81869">
        <ele>86.2</ele>
        <time>2020-07-03T13:41:26Z</time>
      </trkpt>
      <trkpt lat="47.04837" lon="0.81861">
        <ele>85.6</ele>
        <time>2020-07-03T13:41:27Z</time>
      </trkpt>
      <trkpt lat="47.04829" lon="0.81852">
        <ele>85</ele>
        <time>2020-07-03T13:41:28Z</time>
      </trkpt>
      <trkpt lat="47.04822" lon="0.81842">
        <ele>84.4</ele>
        <time>2020-07-03T13:41:29Z</time>
      </trkpt>
      <trkpt lat="47.04815" lon="0.81832">
        <ele>83.8</ele>
        <time>2020-07-03T13:41:30Z</time>
      </trkpt>
      <trkpt lat="47.04807" lon="0.81823">
        <ele>83.3</ele>
        <time>2020-07-03T13:41:31Z</time>
      </trkpt>
      <trkpt lat="47.04799" lon="0.81815">
        <ele>82.8</ele>
        <time>2020-07-03T13:41:32Z</time>
      </trkpt>
      <trkpt lat="47.04793" lon="0.81805">
        <ele>82.4</ele>
        <time>2020-07-03T13:41:33Z</time>
      </trkpt>
      <trkpt lat="47.04787" lon="0.81796">
        <ele>82</ele>
        <time>2020-07-03T13:41:34Z</time>
      </trkpt>
      <trkpt lat="47.0478" lon="0.81787">
        <ele>81.4</ele>
        <time>2020-07-03T13:41:35Z</time>
      </trkpt>
      <trkpt lat="47.04773" lon="0.8178">
        <ele>80.9</ele>
        <time>2020-07-03T13:41:36Z</time>
      </trkpt>
      <trkpt lat="47.04766" lon="0.81773">
        <ele>80.3</ele>
        <time>2020-07-03T13:41:37Z</time>
      </trkpt>
      <trkpt lat="47.04759" lon="0.81766">
        <ele>79.7</ele>
        <time>2020-07-03T13:41:38Z</time>
      </trkpt>
      <trkpt lat="47.04751" lon="0.81761">
        <ele>79.2</ele>
        <time>2020-07-03T13:41:39Z</time>
      </trkpt>
      <trkpt lat="47.04744" lon="0.81755">
        <ele>78.7</ele>
        <time>2020-07-03T13:41:40Z</time>
      </trkpt>
      <trkpt lat="47.04736" lon="0.81749">
        <ele>78.2</ele>
        <time>2020-07-03T13:41:41Z</time>
      </trkpt>
      <trkpt lat="47.04729" lon="0.81743">
        <ele>77.7</ele>
        <time>2020-07-03T13:41:42Z</time>
      </trkpt>
      <trkpt lat="47.04722" lon="0.81738">
        <ele>77.3</ele>
        <time>2020-07-03T13:41:43Z</time>
      </trkpt>
      <trkpt lat="47.04715" lon="0.81732">
        <ele>76.9</ele>
        <time>2020-07-03T13:41:44Z</time>
      </trkpt>
      <trkpt lat="47.04708" lon="0.81728">
        <ele>76.7</ele>
        <time>2020-07-03T13:41:45Z</time>
      </trkpt>
      <trkpt lat="47.04702" lon="0.81723">
        <ele>76.5</ele>
        <time>2020-07-03T13:41:46Z</time>
      </trkpt>
      <trkpt lat="47.04696" lon="0.81721">
        <ele>76.4</ele>
        <time>2020-07-03T13:41:47Z</time>
      </trkpt>
      <trkpt lat="47.04691" lon="0.81717">
        <ele>76.4</ele>
        <time>2020-07-03T13:41:48Z</time>
      </trkpt>
      <trkpt lat="47.04687" lon="0.81712">
        <ele>76.4</ele>
        <time>2020-07-03T13:41:49Z</time>
      </trkpt>
      <trkpt lat="47.04684" lon="0.81705">
        <ele>76.4</ele>
        <time>2020-07-03T13:41:50Z</time>
      </trkpt>
      <trkpt lat="47.04682" lon="0.817">
        <ele>76.4</ele>
        <time>2020-07-03T13:41:51Z</time>
      </trkpt>
      <trkpt lat="47.0468" lon="0.81696">
        <ele>76.4</ele>
        <time>2020-07-03T13:41:52Z</time>
      </trkpt>
      <trkpt lat="47.04679" lon="0.81694">
        <ele>76.4</ele>
        <time>2020-07-03T13:41:53Z</time>
      </trkpt>
      <trkpt lat="47.04678" lon="0.81696">
        <ele>76.4</ele>
        <time>2020-07-03T13:41:54Z</time>
      </trkpt>
      <trkpt lat="47.04678" lon="0.81697">
        <ele>76.4</ele>
        <time>2020-07-03T13:41:55Z</time>
      </trkpt>
      <trkpt lat="47.04678" lon="0.81697">
        <ele>76.4</ele>
        <time>2020-07-03T13:41:56Z</time>
      </trkpt>
      <trkpt lat="47.04677" lon="0.81697">
        <ele>76.4</ele>
        <time>2020-07-03T13:41:57Z</time>
      </trkpt>
      <trkpt lat="47.04677" lon="0.81696">
        <ele>76.4</ele>
        <time>2020-07-03T13:41:58Z</time>
      </trkpt>
      <trkpt lat="47.04675" lon="0.81695">
        <ele>76.4</ele>
        <time>2020-07-03T13:41:59Z</time>
      </trkpt>
      <trkpt lat="47.04674" lon="0.81695">
        <ele>76.4</ele>
        <time>2020-07-03T13:42:00Z</time>
      </trkpt>
      <trkpt lat="47.04673" lon="0.81694">
        <ele>76.4</ele>
        <time>2020-07-03T13:42:01Z</time>
      </trkpt>
      <trkpt lat="47.0467" lon="0.81696">
        <ele>76.4</ele>
        <time>2020-07-03T13:42:02Z</time>
      </trkpt>
      <trkpt lat="47.04668" lon="0.81698">
        <ele>76.5</ele>
        <time>2020-07-03T13:42:03Z</time>
      </trkpt>
      <trkpt lat="47.04665" lon="0.81697">
        <ele>76.4</ele>
        <time>2020-07-03T13:42:04Z</time>
      </trkpt>
      <trkpt lat="47.04662" lon="0.81697">
        <ele>76.3</ele>
        <time>2020-07-03T13:42:05Z</time>
      </trkpt>
      <trkpt lat="47.04658" lon="0.81698">
        <ele>76.1</ele>
        <time>2020-07-03T13:42:06Z</time>
      </trkpt>
      <trkpt lat="47.04654" lon="0.817">
        <ele>76</ele>
        <time>2020-07-03T13:42:07Z</time>
      </trkpt>
      <trkpt lat="47.0465" lon="0.81701">
        <ele>75.9</ele>
        <time>2020-07-03T13:42:08Z</time>
      </trkpt>
      <trkpt lat="47.04646" lon="0.81704">
        <ele>75.8</ele>
        <time>2020-07-03T13:42:09Z</time>
      </trkpt>
      <trkpt lat="47.04642" lon="0.81706">
        <ele>75.7</ele>
        <time>2020-07-03T13:42:10Z</time>
      </trkpt>
      <trkpt lat="47.04637" lon="0.81707">
        <ele>75.6</ele>
        <time>2020-07-03T13:42:11Z</time>
      </trkpt>
      <trkpt lat="47.04633" lon="0.81708">
        <ele>75.5</ele>
        <time>2020-07-03T13:42:12Z</time>
      </trkpt>
      <trkpt lat="47.04627" lon="0.81706">
        <ele>75.4</ele>
        <time>2020-07-03T13:42:13Z</time>
      </trkpt>
      <trkpt lat="47.04623" lon="0.81709">
        <ele>75.3</ele>
        <time>2020-07-03T13:42:14Z</time>
      </trkpt>
      <trkpt lat="47.04618" lon="0.81712">
        <ele>75.2</ele>
        <time>2020-07-03T13:42:15Z</time>
      </trkpt>
      <trkpt lat="47.04612" lon="0.81716">
        <ele>75.2</ele>
        <time>2020-07-03T13:42:16Z</time>
      </trkpt>
      <trkpt lat="47.04607" lon="0.81717">
        <ele>75.2</ele>
        <time>2020-07-03T13:42:17Z</time>
      </trkpt>
      <trkpt lat="47.04602" lon="0.8172">
        <ele>75.2</ele>
        <time>2020-07-03T13:42:18Z</time>
      </trkpt>
      <trkpt lat="47.04596" lon="0.81723">
        <ele>75.2</ele>
        <time>2020-07-03T13:42:19Z</time>
      </trkpt>
      <trkpt lat="47.04591" lon="0.81726">
        <ele>75.2</ele>
        <time>2020-07-03T13:42:20Z</time>
      </trkpt>
      <trkpt lat="47.04586" lon="0.81728">
        <ele>75.2</ele>
        <time>2020-07-03T13:42:21Z</time>
      </trkpt>
      <trkpt lat="47.04582" lon="0.81731">
        <ele>75.2</ele>
        <time>2020-07-03T13:42:22Z</time>
      </trkpt>
      <trkpt lat="47.04578" lon="0.81734">
        <ele>75.2</ele>
        <time>2020-07-03T13:42:23Z</time>
      </trkpt>
      <trkpt lat="47.04573" lon="0.81739">
        <ele>75.2</ele>
        <time>2020-07-03T13:42:24Z</time>
      </trkpt>
      <trkpt lat="47.04568" lon="0.8174">
        <ele>75.3</ele>
        <time>2020-07-03T13:42:25Z</time>
      </trkpt>
      <trkpt lat="47.04561" lon="0.81739">
        <ele>75.3</ele>
        <time>2020-07-03T13:42:26Z</time>
      </trkpt>
      <trkpt lat="47.04556" lon="0.81741">
        <ele>75.3</ele>
        <time>2020-07-03T13:42:27Z</time>
      </trkpt>
      <trkpt lat="47.04549" lon="0.81743">
        <ele>75.3</ele>
        <time>2020-07-03T13:42:28Z</time>
      </trkpt>
      <trkpt lat="47.04542" lon="0.81745">
        <ele>75.3</ele>
        <time>2020-07-03T13:42:29Z</time>
      </trkpt>
      <trkpt lat="47.04536" lon="0.81746">
        <ele>75.3</ele>
        <time>2020-07-03T13:42:30Z</time>
      </trkpt>
      <trkpt lat="47.0453" lon="0.81742">
        <ele>75.3</ele>
        <time>2020-07-03T13:42:31Z</time>
      </trkpt>
      <trkpt lat="47.04525" lon="0.81741">
        <ele>75.4</ele>
        <time>2020-07-03T13:42:32Z</time>
      </trkpt>
      <trkpt lat="47.04519" lon="0.8174">
        <ele>75.4</ele>
        <time>2020-07-03T13:42:33Z</time>
      </trkpt>
      <trkpt lat="47.04515" lon="0.8174">
        <ele>75.4</ele>
        <time>2020-07-03T13:42:34Z</time>
      </trkpt>
      <trkpt lat="47.04509" lon="0.81741">
        <ele>75.5</ele>
        <time>2020-07-03T13:42:35Z</time>
      </trkpt>
      <trkpt lat="47.04503" lon="0.81742">
        <ele>75.6</ele>
        <time>2020-07-03T13:42:36Z</time>
      </trkpt>
      <trkpt lat="47.04497" lon="0.81742">
        <ele>75.6</ele>
        <time>2020-07-03T13:42:37Z</time>
      </trkpt>
      <trkpt lat="47.04492" lon="0.81742">
        <ele>75.7</ele>
        <time>2020-07-03T13:42:38Z</time>
      </trkpt>
      <trkpt lat="47.04486" lon="0.81742">
        <ele>75.8</ele>
        <time>2020-07-03T13:42:39Z</time>
      </trkpt>
      <trkpt lat="47.04481" lon="0.81741">
        <ele>75.8</ele>
        <time>2020-07-03T13:42:40Z</time>
      </trkpt>
      <trkpt lat="47.04475" lon="0.8174">
        <ele>75.8</ele>
        <time>2020-07-03T13:42:41Z</time>
      </trkpt>
      <trkpt lat="47.0447" lon="0.81738">
        <ele>75.8</ele>
        <time>2020-07-03T13:42:42Z</time>
      </trkpt>
      <trkpt lat="47.04464" lon="0.81737">
        <ele>75.8</ele>
        <time>2020-07-03T13:42:43Z</time>
      </trkpt>
      <trkpt lat="47.04459" lon="0.81733">
        <ele>75.8</ele>
        <time>2020-07-03T13:42:44Z</time>
      </trkpt>
      <trkpt lat="47.04453" lon="0.8173">
        <ele>75.9</ele>
        <time>2020-07-03T13:42:45Z</time>
      </trkpt>
      <trkpt lat="47.04447" lon="0.81727">
        <ele>75.9</ele>
        <time>2020-07-03T13:42:46Z</time>
      </trkpt>
      <trkpt lat="47.04441" lon="0.81725">
        <ele>75.9</ele>
        <time>2020-07-03T13:42:47Z</time>
      </trkpt>
      <trkpt lat="47.04434" lon="0.81723">
        <ele>76</ele>
        <time>2020-07-03T13:42:48Z</time>
      </trkpt>
      <trkpt lat="47.04428" lon="0.81722">
        <ele>76</ele>
        <time>2020-07-03T13:42:49Z</time>
      </trkpt>
      <trkpt lat="47.04421" lon="0.81723">
        <ele>76.1</ele>
        <time>2020-07-03T13:42:50Z</time>
      </trkpt>
      <trkpt lat="47.04414" lon="0.81724">
        <ele>76.2</ele>
        <time>2020-07-03T13:42:51Z</time>
      </trkpt>
      <trkpt lat="47.04411" lon="0.81727">
        <ele>76.2</ele>
        <time>2020-07-03T13:42:52Z</time>
      </trkpt>
      <trkpt lat="47.04405" lon="0.81727">
        <ele>76.3</ele>
        <time>2020-07-03T13:42:53Z</time>
      </trkpt>
      <trkpt lat="47.04399" lon="0.81727">
        <ele>76.4</ele>
        <time>2020-07-03T13:42:54Z</time>
      </trkpt>
      <trkpt lat="47.04395" lon="0.81729">
        <ele>76.5</ele>
        <time>2020-07-03T13:42:55Z</time>
      </trkpt>
      <trkpt lat="47.0439" lon="0.8173">
        <ele>76.6</ele>
        <time>2020-07-03T13:42:56Z</time>
      </trkpt>
      <trkpt lat="47.04385" lon="0.81731">
        <ele>76.7</ele>
        <time>2020-07-03T13:42:57Z</time>
      </trkpt>
      <trkpt lat="47.0438" lon="0.81731">
        <ele>76.9</ele>
        <time>2020-07-03T13:42:58Z</time>
      </trkpt>
      <trkpt lat="47.04376" lon="0.81731">
        <ele>77</ele>
        <time>2020-07-03T13:42:59Z</time>
      </trkpt>
      <trkpt lat="47.0437" lon="0.81731">
        <ele>77.2</ele>
        <time>2020-07-03T13:43:00Z</time>
      </trkpt>
      <trkpt lat="47.04365" lon="0.81733">
        <ele>77.3</ele>
        <time>2020-07-03T13:43:01Z</time>
      </trkpt>
      <trkpt lat="47.04361" lon="0.81734">
        <ele>77.4</ele>
        <time>2020-07-03T13:43:02Z</time>
      </trkpt>
      <trkpt lat="47.04357" lon="0.81735">
        <ele>77.5</ele>
        <time>2020-07-03T13:43:03Z</time>
      </trkpt>
      <trkpt lat="47.04354" lon="0.81735">
        <ele>77.5</ele>
        <time>2020-07-03T13:43:04Z</time>
      </trkpt>
      <trkpt lat="47.0435" lon="0.81736">
        <ele>77.5</ele>
        <time>2020-07-03T13:43:05Z</time>
      </trkpt>
      <trkpt lat="47.04345" lon="0.81734">
        <ele>77.7</ele>
        <time>2020-07-03T13:43:06Z</time>
      </trkpt>
      <trkpt lat="47.04343" lon="0.81734">
        <ele>77.8</ele>
        <time>2020-07-03T13:43:07Z</time>
      </trkpt>
      <trkpt lat="47.04339" lon="0.81734">
        <ele>77.9</ele>
        <time>2020-07-03T13:43:08Z</time>
      </trkpt>
      <trkpt lat="47.04336" lon="0.81734">
        <ele>77.9</ele>
        <time>2020-07-03T13:43:09Z</time>
      </trkpt>
      <trkpt lat="47.04333" lon="0.81734">
        <ele>78</ele>
        <time>2020-07-03T13:43:10Z</time>
      </trkpt>
      <trkpt lat="47.04332" lon="0.81733">
        <ele>78.1</ele>
        <time>2020-07-03T13:43:11Z</time>
      </trkpt>
      <trkpt lat="47.04329" lon="0.81733">
        <ele>78.2</ele>
        <time>2020-07-03T13:43:12Z</time>
      </trkpt>
      <trkpt lat="47.04327" lon="0.81733">
        <ele>78.2</ele>
        <time>2020-07-03T13:43:13Z</time>
      </trkpt>
      <trkpt lat="47.04324" lon="0.81733">
        <ele>78.3</ele>
        <time>2020-07-03T13:43:14Z</time>
      </trkpt>
      <trkpt lat="47.04321" lon="0.81733">
        <ele>78.3</ele>
        <time>2020-07-03T13:43:15Z</time>
      </trkpt>
      <trkpt lat="47.04318" lon="0.81734">
        <ele>78.4</ele>
        <time>2020-07-03T13:43:16Z</time>
      </trkpt>
      <trkpt lat="47.04314" lon="0.81737">
        <ele>78.6</ele>
        <time>2020-07-03T13:43:17Z</time>
      </trkpt>
      <trkpt lat="47.04313" lon="0.81738">
        <ele>78.6</ele>
        <time>2020-07-03T13:43:18Z</time>
      </trkpt>
      <trkpt lat="47.0431" lon="0.81741">
        <ele>78.7</ele>
        <time>2020-07-03T13:43:19Z</time>
      </trkpt>
      <trkpt lat="47.04307" lon="0.81744">
        <ele>78.8</ele>
        <time>2020-07-03T13:43:20Z</time>
      </trkpt>
      <trkpt lat="47.04304" lon="0.81748">
        <ele>78.9</ele>
        <time>2020-07-03T13:43:21Z</time>
      </trkpt>
      <trkpt lat="47.043" lon="0.81753">
        <ele>79.1</ele>
        <time>2020-07-03T13:43:22Z</time>
      </trkpt>
      <trkpt lat="47.04297" lon="0.81757">
        <ele>79.2</ele>
        <time>2020-07-03T13:43:23Z</time>
      </trkpt>
      <trkpt lat="47.04293" lon="0.81761">
        <ele>79.3</ele>
        <time>2020-07-03T13:43:24Z</time>
      </trkpt>
      <trkpt lat="47.04289" lon="0.81764">
        <ele>79.4</ele>
        <time>2020-07-03T13:43:25Z</time>
      </trkpt>
      <trkpt lat="47.04286" lon="0.81768">
        <ele>79.5</ele>
        <time>2020-07-03T13:43:26Z</time>
      </trkpt>
      <trkpt lat="47.04282" lon="0.81772">
        <ele>79.6</ele>
        <time>2020-07-03T13:43:27Z</time>
      </trkpt>
      <trkpt lat="47.04278" lon="0.81776">
        <ele>79.8</ele>
        <time>2020-07-03T13:43:28Z</time>
      </trkpt>
      <trkpt lat="47.04275" lon="0.81779">
        <ele>79.9</ele>
        <time>2020-07-03T13:43:29Z</time>
      </trkpt>
      <trkpt lat="47.04272" lon="0.81783">
        <ele>80</ele>
        <time>2020-07-03T13:43:30Z</time>
      </trkpt>
      <trkpt lat="47.0427" lon="0.81788">
        <ele>80.1</ele>
        <time>2020-07-03T13:43:31Z</time>
      </trkpt>
      <trkpt lat="47.04267" lon="0.81793">
        <ele>80.2</ele>
        <time>2020-07-03T13:43:32Z</time>
      </trkpt>
      <trkpt lat="47.04264" lon="0.81796">
        <ele>80.2</ele>
        <time>2020-07-03T13:43:33Z</time>
      </trkpt>
      <trkpt lat="47.04262" lon="0.81799">
        <ele>80.3</ele>
        <time>2020-07-03T13:43:34Z</time>
      </trkpt>
      <trkpt lat="47.04262" lon="0.81806">
        <ele>80.3</ele>
        <time>2020-07-03T13:43:35Z</time>
      </trkpt>
      <trkpt lat="47.04259" lon="0.81808">
        <ele>80.4</ele>
        <time>2020-07-03T13:43:36Z</time>
      </trkpt>
      <trkpt lat="47.04256" lon="0.8181">
        <ele>80.4</ele>
        <time>2020-07-03T13:43:37Z</time>
      </trkpt>
      <trkpt lat="47.04253" lon="0.81812">
        <ele>80.5</ele>
        <time>2020-07-03T13:43:38Z</time>
      </trkpt>
      <trkpt lat="47.04251" lon="0.81813">
        <ele>80.5</ele>
        <time>2020-07-03T13:43:39Z</time>
      </trkpt>
      <trkpt lat="47.04249" lon="0.81819">
        <ele>80.5</ele>
        <time>2020-07-03T13:43:40Z</time>
      </trkpt>
      <trkpt lat="47.04247" lon="0.81822">
        <ele>80.5</ele>
        <time>2020-07-03T13:43:41Z</time>
      </trkpt>
      <trkpt lat="47.04244" lon="0.81824">
        <ele>80.5</ele>
        <time>2020-07-03T13:43:42Z</time>
      </trkpt>
      <trkpt lat="47.04241" lon="0.81826">
        <ele>80.5</ele>
        <time>2020-07-03T13:43:43Z</time>
      </trkpt>
      <trkpt lat="47.04238" lon="0.81828">
        <ele>80.5</ele>
        <time>2020-07-03T13:43:44Z</time>
      </trkpt>
      <trkpt lat="47.04234" lon="0.81832">
        <ele>80.5</ele>
        <time>2020-07-03T13:43:45Z</time>
      </trkpt>
      <trkpt lat="47.04233" lon="0.81836">
        <ele>80.3</ele>
        <time>2020-07-03T13:43:46Z</time>
      </trkpt>
      <trkpt lat="47.04232" lon="0.81841">
        <ele>80.2</ele>
        <time>2020-07-03T13:43:47Z</time>
      </trkpt>
      <trkpt lat="47.04233" lon="0.81842">
        <ele>80.2</ele>
        <time>2020-07-03T13:43:48Z</time>
      </trkpt>
      <trkpt lat="47.04235" lon="0.81846">
        <ele>80.1</ele>
        <time>2020-07-03T13:43:49Z</time>
      </trkpt>
      <trkpt lat="47.04235" lon="0.81848">
        <ele>80</ele>
        <time>2020-07-03T13:43:50Z</time>
      </trkpt>
      <trkpt lat="47.04236" lon="0.81853">
        <ele>79.9</ele>
        <time>2020-07-03T13:43:51Z</time>
      </trkpt>
      <trkpt lat="47.04236" lon="0.81855">
        <ele>79.9</ele>
        <time>2020-07-03T13:43:52Z</time>
      </trkpt>
      <trkpt lat="47.04238" lon="0.81858">
        <ele>79.7</ele>
        <time>2020-07-03T13:43:53Z</time>
      </trkpt>
      <trkpt lat="47.0424" lon="0.81861">
        <ele>79.6</ele>
        <time>2020-07-03T13:43:54Z</time>
      </trkpt>
      <trkpt lat="47.0424" lon="0.81862">
        <ele>79.6</ele>
        <time>2020-07-03T13:43:55Z</time>
      </trkpt>
      <trkpt lat="47.04241" lon="0.81862">
        <ele>79.6</ele>
        <time>2020-07-03T13:43:56Z</time>
      </trkpt>
      <trkpt lat="47.04242" lon="0.81864">
        <ele>79.6</ele>
        <time>2020-07-03T13:43:57Z</time>
      </trkpt>
      <trkpt lat="47.04243" lon="0.81866">
        <ele>79.5</ele>
        <time>2020-07-03T13:43:58Z</time>
      </trkpt>
      <trkpt lat="47.04245" lon="0.81871">
        <ele>79.5</ele>
        <time>2020-07-03T13:43:59Z</time>
      </trkpt>
      <trkpt lat="47.04245" lon="0.81873">
        <ele>79.4</ele>
        <time>2020-07-03T13:44:00Z</time>
      </trkpt>
      <trkpt lat="47.04245" lon="0.81876">
        <ele>79.4</ele>
        <time>2020-07-03T13:44:01Z</time>
      </trkpt>
      <trkpt lat="47.04245" lon="0.81878">
        <ele>79.4</ele>
        <time>2020-07-03T13:44:02Z</time>
      </trkpt>
      <trkpt lat="47.04247" lon="0.81883">
        <ele>79.3</ele>
        <time>2020-07-03T13:44:03Z</time>
      </trkpt>
      <trkpt lat="47.04247" lon="0.81885">
        <ele>79.3</ele>
        <time>2020-07-03T13:44:04Z</time>
      </trkpt>
      <trkpt lat="47.04248" lon="0.81887">
        <ele>79.2</ele>
        <time>2020-07-03T13:44:05Z</time>
      </trkpt>
      <trkpt lat="47.04249" lon="0.81889">
        <ele>79.2</ele>
        <time>2020-07-03T13:44:06Z</time>
      </trkpt>
      <trkpt lat="47.04249" lon="0.81891">
        <ele>79.3</ele>
        <time>2020-07-03T13:44:07Z</time>
      </trkpt>
      <trkpt lat="47.04249" lon="0.81891">
        <ele>79.3</ele>
        <time>2020-07-03T13:44:08Z</time>
      </trkpt>
      <trkpt lat="47.04248" lon="0.81891">
        <ele>79.3</ele>
        <time>2020-07-03T13:44:09Z</time>
      </trkpt>
      <trkpt lat="47.04247" lon="0.81891">
        <ele>79.3</ele>
        <time>2020-07-03T13:44:10Z</time>
      </trkpt>
      <trkpt lat="47.04247" lon="0.81891">
        <ele>79.3</ele>
        <time>2020-07-03T13:44:11Z</time>
      </trkpt>
      <trkpt lat="47.04248" lon="0.81891">
        <ele>79.3</ele>
        <time>2020-07-03T13:44:12Z</time>
      </trkpt>
      <trkpt lat="47.04248" lon="0.81892">
        <ele>79.3</ele>
        <time>2020-07-03T13:44:13Z</time>
      </trkpt>
      <trkpt lat="47.04248" lon="0.81892">
        <ele>79.3</ele>
        <time>2020-07-03T13:44:14Z</time>
      </trkpt>
      <trkpt lat="47.04248" lon="0.81892">
        <ele>79.3</ele>
        <time>2020-07-03T13:44:15Z</time>
      </trkpt>
      <trkpt lat="47.04248" lon="0.81893">
        <ele>79.3</ele>
        <time>2020-07-03T13:44:16Z</time>
      </trkpt>
      <trkpt lat="47.04247" lon="0.81887">
        <ele>79.4</ele>
        <time>2020-07-03T13:44:17Z</time>
      </trkpt>
      <trkpt lat="47.04246" lon="0.81881">
        <ele>79.4</ele>
        <time>2020-07-03T13:44:23Z</time>
      </trkpt>
      <trkpt lat="47.04246" lon="0.81875">
        <ele>79.5</ele>
        <time>2020-07-03T13:44:24Z</time>
      </trkpt>
      <trkpt lat="47.04246" lon="0.81871">
        <ele>79.5</ele>
        <time>2020-07-03T13:44:25Z</time>
      </trkpt>
      <trkpt lat="47.04246" lon="0.81865">
        <ele>79.7</ele>
        <time>2020-07-03T13:44:26Z</time>
      </trkpt>
      <trkpt lat="47.04247" lon="0.81862">
        <ele>79.7</ele>
        <time>2020-07-03T13:44:27Z</time>
      </trkpt>
      <trkpt lat="47.04247" lon="0.81858">
        <ele>79.8</ele>
        <time>2020-07-03T13:44:28Z</time>
      </trkpt>
      <trkpt lat="47.04247" lon="0.81854">
        <ele>79.9</ele>
        <time>2020-07-03T13:44:29Z</time>
      </trkpt>
      <trkpt lat="47.04247" lon="0.81852">
        <ele>79.9</ele>
        <time>2020-07-03T13:44:30Z</time>
      </trkpt>
      <trkpt lat="47.04246" lon="0.81848">
        <ele>80</ele>
        <time>2020-07-03T13:44:31Z</time>
      </trkpt>
      <trkpt lat="47.04246" lon="0.81843">
        <ele>80</ele>
        <time>2020-07-03T13:44:32Z</time>
      </trkpt>
      <trkpt lat="47.04247" lon="0.81839">
        <ele>80.5</ele>
        <time>2020-07-03T13:44:33Z</time>
      </trkpt>
      <trkpt lat="47.04247" lon="0.81834">
        <ele>80.5</ele>
        <time>2020-07-03T13:44:34Z</time>
      </trkpt>
      <trkpt lat="47.04247" lon="0.8183">
        <ele>80.5</ele>
        <time>2020-07-03T13:44:35Z</time>
      </trkpt>
      <trkpt lat="47.04246" lon="0.81826">
        <ele>80.5</ele>
        <time>2020-07-03T13:44:36Z</time>
      </trkpt>
      <trkpt lat="47.04245" lon="0.81824">
        <ele>80.5</ele>
        <time>2020-07-03T13:44:37Z</time>
      </trkpt>
      <trkpt lat="47.04246" lon="0.81823">
        <ele>80.5</ele>
        <time>2020-07-03T13:44:38Z</time>
      </trkpt>
      <trkpt lat="47.04246" lon="0.81822">
        <ele>80.5</ele>
        <time>2020-07-03T13:44:39Z</time>
      </trkpt>
      <trkpt lat="47.04247" lon="0.81821">
        <ele>80.5</ele>
        <time>2020-07-03T13:44:40Z</time>
      </trkpt>
      <trkpt lat="47.04247" lon="0.81821">
        <ele>80.5</ele>
        <time>2020-07-03T13:44:41Z</time>
      </trkpt>
      <trkpt lat="47.04247" lon="0.8182">
        <ele>80.5</ele>
        <time>2020-07-03T13:44:42Z</time>
      </trkpt>
      <trkpt lat="47.04248" lon="0.81819">
        <ele>80.5</ele>
        <time>2020-07-03T13:44:43Z</time>
      </trkpt>
      <trkpt lat="47.04249" lon="0.81814">
        <ele>80.5</ele>
        <time>2020-07-03T13:44:44Z</time>
      </trkpt>
      <trkpt lat="47.0425" lon="0.81813">
        <ele>80.5</ele>
        <time>2020-07-03T13:44:45Z</time>
      </trkpt>
      <trkpt lat="47.04252" lon="0.81809">
        <ele>80.4</ele>
        <time>2020-07-03T13:44:46Z</time>
      </trkpt>
      <trkpt lat="47.04253" lon="0.81808">
        <ele>80.4</ele>
        <time>2020-07-03T13:44:47Z</time>
      </trkpt>
      <trkpt lat="47.04255" lon="0.81806">
        <ele>80.4</ele>
        <time>2020-07-03T13:44:48Z</time>
      </trkpt>
      <trkpt lat="47.04258" lon="0.81802">
        <ele>80.3</ele>
        <time>2020-07-03T13:44:49Z</time>
      </trkpt>
      <trkpt lat="47.04261" lon="0.81797">
        <ele>80.3</ele>
        <time>2020-07-03T13:44:50Z</time>
      </trkpt>
      <trkpt lat="47.04264" lon="0.81792">
        <ele>80.2</ele>
        <time>2020-07-03T13:44:51Z</time>
      </trkpt>
      <trkpt lat="47.04267" lon="0.81789">
        <ele>80.1</ele>
        <time>2020-07-03T13:44:52Z</time>
      </trkpt>
      <trkpt lat="47.04271" lon="0.81785">
        <ele>80</ele>
        <time>2020-07-03T13:44:53Z</time>
      </trkpt>
      <trkpt lat="47.04273" lon="0.8178">
        <ele>79.9</ele>
        <time>2020-07-03T13:44:54Z</time>
      </trkpt>
      <trkpt lat="47.04276" lon="0.81776">
        <ele>79.8</ele>
        <time>2020-07-03T13:44:55Z</time>
      </trkpt>
      <trkpt lat="47.04279" lon="0.81772">
        <ele>79.7</ele>
        <time>2020-07-03T13:44:56Z</time>
      </trkpt>
      <trkpt lat="47.04282" lon="0.81767">
        <ele>79.5</ele>
        <time>2020-07-03T13:44:57Z</time>
      </trkpt>
      <trkpt lat="47.04287" lon="0.81765">
        <ele>79.4</ele>
        <time>2020-07-03T13:44:58Z</time>
      </trkpt>
      <trkpt lat="47.04288" lon="0.81758">
        <ele>79.3</ele>
        <time>2020-07-03T13:44:59Z</time>
      </trkpt>
      <trkpt lat="47.04291" lon="0.81754">
        <ele>79.1</ele>
        <time>2020-07-03T13:45:00Z</time>
      </trkpt>
      <trkpt lat="47.04295" lon="0.8175">
        <ele>79</ele>
        <time>2020-07-03T13:45:01Z</time>
      </trkpt>
      <trkpt lat="47.04298" lon="0.81747">
        <ele>79</ele>
        <time>2020-07-03T13:45:02Z</time>
      </trkpt>
      <trkpt lat="47.04301" lon="0.81744">
        <ele>78.9</ele>
        <time>2020-07-03T13:45:03Z</time>
      </trkpt>
      <trkpt lat="47.04303" lon="0.81742">
        <ele>78.9</ele>
        <time>2020-07-03T13:45:04Z</time>
      </trkpt>
      <trkpt lat="47.04307" lon="0.81738">
        <ele>78.9</ele>
        <time>2020-07-03T13:45:05Z</time>
      </trkpt>
      <trkpt lat="47.04308" lon="0.81737">
        <ele>78.8</ele>
        <time>2020-07-03T13:45:06Z</time>
      </trkpt>
      <trkpt lat="47.04311" lon="0.81736">
        <ele>78.8</ele>
        <time>2020-07-03T13:45:07Z</time>
      </trkpt>
      <trkpt lat="47.04314" lon="0.81735">
        <ele>78.8</ele>
        <time>2020-07-03T13:45:08Z</time>
      </trkpt>
      <trkpt lat="47.04317" lon="0.81736">
        <ele>78.7</ele>
        <time>2020-07-03T13:45:09Z</time>
      </trkpt>
      <trkpt lat="47.0432" lon="0.81736">
        <ele>78.7</ele>
        <time>2020-07-03T13:45:10Z</time>
      </trkpt>
      <trkpt lat="47.04324" lon="0.8174">
        <ele>78.6</ele>
        <time>2020-07-03T13:45:11Z</time>
      </trkpt>
      <trkpt lat="47.04326" lon="0.81742">
        <ele>78.6</ele>
        <time>2020-07-03T13:45:12Z</time>
      </trkpt>
      <trkpt lat="47.0433" lon="0.81744">
        <ele>78.5</ele>
        <time>2020-07-03T13:45:13Z</time>
      </trkpt>
      <trkpt lat="47.04331" lon="0.81744">
        <ele>78.5</ele>
        <time>2020-07-03T13:45:14Z</time>
      </trkpt>
      <trkpt lat="47.04333" lon="0.81747">
        <ele>78.4</ele>
        <time>2020-07-03T13:45:15Z</time>
      </trkpt>
      <trkpt lat="47.04333" lon="0.8175">
        <ele>78.4</ele>
        <time>2020-07-03T13:45:16Z</time>
      </trkpt>
      <trkpt lat="47.04334" lon="0.81751">
        <ele>78.4</ele>
        <time>2020-07-03T13:45:17Z</time>
      </trkpt>
      <trkpt lat="47.04335" lon="0.81755">
        <ele>78.4</ele>
        <time>2020-07-03T13:45:18Z</time>
      </trkpt>
      <trkpt lat="47.04335" lon="0.81756">
        <ele>78.3</ele>
        <time>2020-07-03T13:45:19Z</time>
      </trkpt>
      <trkpt lat="47.04336" lon="0.8176">
        <ele>78.3</ele>
        <time>2020-07-03T13:45:20Z</time>
      </trkpt>
      <trkpt lat="47.04337" lon="0.81762">
        <ele>78.3</ele>
        <time>2020-07-03T13:45:21Z</time>
      </trkpt>
      <trkpt lat="47.04338" lon="0.81764">
        <ele>78.3</ele>
        <time>2020-07-03T13:45:22Z</time>
      </trkpt>
      <trkpt lat="47.04338" lon="0.81766">
        <ele>78.2</ele>
        <time>2020-07-03T13:45:23Z</time>
      </trkpt>
      <trkpt lat="47.04339" lon="0.81771">
        <ele>78.2</ele>
        <time>2020-07-03T13:45:24Z</time>
      </trkpt>
      <trkpt lat="47.0434" lon="0.81773">
        <ele>78.2</ele>
        <time>2020-07-03T13:45:25Z</time>
      </trkpt>
      <trkpt lat="47.0434" lon="0.81775">
        <ele>78.2</ele>
        <time>2020-07-03T13:45:26Z</time>
      </trkpt>
      <trkpt lat="47.0434" lon="0.81778">
        <ele>78.1</ele>
        <time>2020-07-03T13:45:27Z</time>
      </trkpt>
      <trkpt lat="47.04339" lon="0.81781">
        <ele>78.1</ele>
        <time>2020-07-03T13:45:28Z</time>
      </trkpt>
      <trkpt lat="47.04339" lon="0.81782">
        <ele>78.1</ele>
        <time>2020-07-03T13:45:29Z</time>
      </trkpt>
      <trkpt lat="47.04338" lon="0.81783">
        <ele>78.1</ele>
        <time>2020-07-03T13:45:30Z</time>
      </trkpt>
      <trkpt lat="47.04336" lon="0.81785">
        <ele>78</ele>
        <time>2020-07-03T13:45:31Z</time>
      </trkpt>
      <trkpt lat="47.04335" lon="0.81786">
        <ele>78</ele>
        <time>2020-07-03T13:45:32Z</time>
      </trkpt>
      <trkpt lat="47.04334" lon="0.81787">
        <ele>78</ele>
        <time>2020-07-03T13:45:33Z</time>
      </trkpt>
      <trkpt lat="47.04332" lon="0.81787">
        <ele>78</ele>
        <time>2020-07-03T13:45:34Z</time>
      </trkpt>
      <trkpt lat="47.04331" lon="0.81788">
        <ele>78</ele>
        <time>2020-07-03T13:45:35Z</time>
      </trkpt>
      <trkpt lat="47.04331" lon="0.81788">
        <ele>78</ele>
        <time>2020-07-03T13:45:36Z</time>
      </trkpt>
      <trkpt lat="47.0433" lon="0.81789">
        <ele>78</ele>
        <time>2020-07-03T13:45:37Z</time>
      </trkpt>
      <trkpt lat="47.0433" lon="0.81789">
        <ele>77.9</ele>
        <time>2020-07-03T13:45:38Z</time>
      </trkpt>
      <trkpt lat="47.0433" lon="0.81789">
        <ele>77.9</ele>
        <time>2020-07-03T13:45:39Z</time>
      </trkpt>
      <trkpt lat="47.0433" lon="0.81789">
        <ele>77.9</ele>
        <time>2020-07-03T13:45:40Z</time>
      </trkpt>
      <trkpt lat="47.0433" lon="0.81789">
        <ele>77.9</ele>
        <time>2020-07-03T13:45:41Z</time>
      </trkpt>
      <trkpt lat="47.0433" lon="0.81789">
        <ele>77.9</ele>
        <time>2020-07-03T13:45:42Z</time>
      </trkpt>
      <trkpt lat="47.0433" lon="0.81789">
        <ele>77.9</ele>
        <time>2020-07-03T13:45:43Z</time>
      </trkpt>
      <trkpt lat="47.0433" lon="0.81789">
        <ele>77.9</ele>
        <time>2020-07-03T13:45:44Z</time>
      </trkpt>
      <trkpt lat="47.04329" lon="0.81789">
        <ele>77.9</ele>
        <time>2020-07-03T13:45:45Z</time>
      </trkpt>
      <trkpt lat="47.04329" lon="0.8179">
        <ele>77.9</ele>
        <time>2020-07-03T13:45:46Z</time>
      </trkpt>
      <trkpt lat="47.04329" lon="0.8179">
        <ele>77.9</ele>
        <time>2020-07-03T13:45:47Z</time>
      </trkpt>
      <trkpt lat="47.04329" lon="0.8179">
        <ele>77.9</ele>
        <time>2020-07-03T13:45:48Z</time>
      </trkpt>
      <trkpt lat="47.04329" lon="0.8179">
        <ele>77.9</ele>
        <time>2020-07-03T13:45:49Z</time>
      </trkpt>
      <trkpt lat="47.04336" lon="0.81799">
        <ele>77.8</ele>
        <time>2020-07-03T14:02:35Z</time>
      </trkpt>
      <trkpt lat="47.04338" lon="0.81799">
        <ele>77.8</ele>
        <time>2020-07-03T14:02:36Z</time>
      </trkpt>
      <trkpt lat="47.04341" lon="0.81797">
        <ele>77.7</ele>
        <time>2020-07-03T14:02:37Z</time>
      </trkpt>
      <trkpt lat="47.04343" lon="0.81794">
        <ele>77.7</ele>
        <time>2020-07-03T14:02:38Z</time>
      </trkpt>
      <trkpt lat="47.04346" lon="0.8179">
        <ele>77.6</ele>
        <time>2020-07-03T14:02:39Z</time>
      </trkpt>
      <trkpt lat="47.04347" lon="0.81789">
        <ele>77.6</ele>
        <time>2020-07-03T14:02:40Z</time>
      </trkpt>
      <trkpt lat="47.04348" lon="0.81787">
        <ele>77.6</ele>
        <time>2020-07-03T14:02:41Z</time>
      </trkpt>
      <trkpt lat="47.0435" lon="0.81787">
        <ele>77.6</ele>
        <time>2020-07-03T14:02:42Z</time>
      </trkpt>
      <trkpt lat="47.04352" lon="0.81787">
        <ele>77.6</ele>
        <time>2020-07-03T14:02:43Z</time>
      </trkpt>
      <trkpt lat="47.04353" lon="0.81787">
        <ele>77.5</ele>
        <time>2020-07-03T14:02:44Z</time>
      </trkpt>
      <trkpt lat="47.04355" lon="0.81787">
        <ele>77.5</ele>
        <time>2020-07-03T14:02:45Z</time>
      </trkpt>
      <trkpt lat="47.04357" lon="0.81786">
        <ele>77.5</ele>
        <time>2020-07-03T14:02:46Z</time>
      </trkpt>
      <trkpt lat="47.04357" lon="0.81786">
        <ele>77.5</ele>
        <time>2020-07-03T14:02:47Z</time>
      </trkpt>
      <trkpt lat="47.04358" lon="0.81785">
        <ele>77.5</ele>
        <time>2020-07-03T14:02:48Z</time>
      </trkpt>
      <trkpt lat="47.04359" lon="0.81784">
        <ele>77.5</ele>
        <time>2020-07-03T14:02:49Z</time>
      </trkpt>
      <trkpt lat="47.0436" lon="0.81781">
        <ele>77.5</ele>
        <time>2020-07-03T14:02:50Z</time>
      </trkpt>
      <trkpt lat="47.0436" lon="0.8178">
        <ele>77.4</ele>
        <time>2020-07-03T14:02:51Z</time>
      </trkpt>
      <trkpt lat="47.04361" lon="0.81778">
        <ele>77.4</ele>
        <time>2020-07-03T14:02:52Z</time>
      </trkpt>
      <trkpt lat="47.04362" lon="0.81775">
        <ele>77.4</ele>
        <time>2020-07-03T14:02:53Z</time>
      </trkpt>
      <trkpt lat="47.04362" lon="0.8177">
        <ele>77.4</ele>
        <time>2020-07-03T14:02:54Z</time>
      </trkpt>
      <trkpt lat="47.04362" lon="0.81765">
        <ele>77.4</ele>
        <time>2020-07-03T14:02:55Z</time>
      </trkpt>
      <trkpt lat="47.04361" lon="0.81758">
        <ele>77.4</ele>
        <time>2020-07-03T14:02:56Z</time>
      </trkpt>
      <trkpt lat="47.04361" lon="0.81751">
        <ele>77.5</ele>
        <time>2020-07-03T14:02:57Z</time>
      </trkpt>
      <trkpt lat="47.0436" lon="0.81746">
        <ele>77.5</ele>
        <time>2020-07-03T14:02:58Z</time>
      </trkpt>
      <trkpt lat="47.04359" lon="0.81742">
        <ele>77.5</ele>
        <time>2020-07-03T14:02:59Z</time>
      </trkpt>
      <trkpt lat="47.04358" lon="0.81741">
        <ele>77.5</ele>
        <time>2020-07-03T14:03:00Z</time>
      </trkpt>
      <trkpt lat="47.04358" lon="0.8174">
        <ele>77.5</ele>
        <time>2020-07-03T14:03:01Z</time>
      </trkpt>
      <trkpt lat="47.04358" lon="0.81739">
        <ele>77.5</ele>
        <time>2020-07-03T14:03:02Z</time>
      </trkpt>
      <trkpt lat="47.04357" lon="0.81738">
        <ele>77.5</ele>
        <time>2020-07-03T14:03:03Z</time>
      </trkpt>
      <trkpt lat="47.04355" lon="0.81737">
        <ele>77.5</ele>
        <time>2020-07-03T14:03:04Z</time>
      </trkpt>
      <trkpt lat="47.04354" lon="0.81737">
        <ele>77.6</ele>
        <time>2020-07-03T14:03:05Z</time>
      </trkpt>
      <trkpt lat="47.04353" lon="0.81736">
        <ele>77.6</ele>
        <time>2020-07-03T14:03:06Z</time>
      </trkpt>
      <trkpt lat="47.04351" lon="0.81735">
        <ele>77.6</ele>
        <time>2020-07-03T14:03:07Z</time>
      </trkpt>
      <trkpt lat="47.04347" lon="0.81734">
        <ele>77.7</ele>
        <time>2020-07-03T14:03:08Z</time>
      </trkpt>
      <trkpt lat="47.04346" lon="0.81734">
        <ele>77.8</ele>
        <time>2020-07-03T14:03:09Z</time>
      </trkpt>
      <trkpt lat="47.04343" lon="0.81733">
        <ele>77.8</ele>
        <time>2020-07-03T14:03:10Z</time>
      </trkpt>
      <trkpt lat="47.04339" lon="0.81732">
        <ele>77.9</ele>
        <time>2020-07-03T14:03:11Z</time>
      </trkpt>
      <trkpt lat="47.04335" lon="0.81731">
        <ele>78</ele>
        <time>2020-07-03T14:03:12Z</time>
      </trkpt>
      <trkpt lat="47.04333" lon="0.81731">
        <ele>78.1</ele>
        <time>2020-07-03T14:03:13Z</time>
      </trkpt>
      <trkpt lat="47.04329" lon="0.81732">
        <ele>78.2</ele>
        <time>2020-07-03T14:03:14Z</time>
      </trkpt>
      <trkpt lat="47.04324" lon="0.81731">
        <ele>78.3</ele>
        <time>2020-07-03T14:03:15Z</time>
      </trkpt>
      <trkpt lat="47.04321" lon="0.81732">
        <ele>78.4</ele>
        <time>2020-07-03T14:03:16Z</time>
      </trkpt>
      <trkpt lat="47.04317" lon="0.81734">
        <ele>78.5</ele>
        <time>2020-07-03T14:03:17Z</time>
      </trkpt>
      <trkpt lat="47.04314" lon="0.81737">
        <ele>78.6</ele>
        <time>2020-07-03T14:03:18Z</time>
      </trkpt>
      <trkpt lat="47.04311" lon="0.81741">
        <ele>78.7</ele>
        <time>2020-07-03T14:03:19Z</time>
      </trkpt>
      <trkpt lat="47.04308" lon="0.81744">
        <ele>78.8</ele>
        <time>2020-07-03T14:03:20Z</time>
      </trkpt>
      <trkpt lat="47.04305" lon="0.81748">
        <ele>78.8</ele>
        <time>2020-07-03T14:03:21Z</time>
      </trkpt>
      <trkpt lat="47.04303" lon="0.81752">
        <ele>78.9</ele>
        <time>2020-07-03T14:03:22Z</time>
      </trkpt>
      <trkpt lat="47.043" lon="0.81756">
        <ele>79</ele>
        <time>2020-07-03T14:03:23Z</time>
      </trkpt>
      <trkpt lat="47.04298" lon="0.81761">
        <ele>79.1</ele>
        <time>2020-07-03T14:03:24Z</time>
      </trkpt>
      <trkpt lat="47.04295" lon="0.81765">
        <ele>79.2</ele>
        <time>2020-07-03T14:03:25Z</time>
      </trkpt>
      <trkpt lat="47.04292" lon="0.81769">
        <ele>79.4</ele>
        <time>2020-07-03T14:03:26Z</time>
      </trkpt>
      <trkpt lat="47.04289" lon="0.81774">
        <ele>79.5</ele>
        <time>2020-07-03T14:03:27Z</time>
      </trkpt>
      <trkpt lat="47.04286" lon="0.81779">
        <ele>79.6</ele>
        <time>2020-07-03T14:03:28Z</time>
      </trkpt>
      <trkpt lat="47.04283" lon="0.81783">
        <ele>79.7</ele>
        <time>2020-07-03T14:03:29Z</time>
      </trkpt>
      <trkpt lat="47.0428" lon="0.81789">
        <ele>79.9</ele>
        <time>2020-07-03T14:03:30Z</time>
      </trkpt>
      <trkpt lat="47.04278" lon="0.81793">
        <ele>80</ele>
        <time>2020-07-03T14:03:31Z</time>
      </trkpt>
      <trkpt lat="47.04274" lon="0.81797">
        <ele>80.1</ele>
        <time>2020-07-03T14:03:32Z</time>
      </trkpt>
      <trkpt lat="47.0427" lon="0.81801">
        <ele>80.2</ele>
        <time>2020-07-03T14:03:33Z</time>
      </trkpt>
      <trkpt lat="47.04267" lon="0.81805">
        <ele>80.2</ele>
        <time>2020-07-03T14:03:34Z</time>
      </trkpt>
      <trkpt lat="47.04264" lon="0.8181">
        <ele>80.3</ele>
        <time>2020-07-03T14:03:35Z</time>
      </trkpt>
      <trkpt lat="47.0426" lon="0.81813">
        <ele>80.3</ele>
        <time>2020-07-03T14:03:36Z</time>
      </trkpt>
      <trkpt lat="47.04256" lon="0.81815">
        <ele>80.4</ele>
        <time>2020-07-03T14:03:37Z</time>
      </trkpt>
      <trkpt lat="47.04252" lon="0.81818">
        <ele>80.5</ele>
        <time>2020-07-03T14:03:38Z</time>
      </trkpt>
      <trkpt lat="47.04249" lon="0.81821">
        <ele>80.5</ele>
        <time>2020-07-03T14:03:39Z</time>
      </trkpt>
      <trkpt lat="47.04245" lon="0.81823">
        <ele>80.5</ele>
        <time>2020-07-03T14:03:40Z</time>
      </trkpt>
      <trkpt lat="47.0424" lon="0.81826">
        <ele>80.5</ele>
        <time>2020-07-03T14:03:41Z</time>
      </trkpt>
      <trkpt lat="47.04237" lon="0.8183">
        <ele>80.5</ele>
        <time>2020-07-03T14:03:42Z</time>
      </trkpt>
      <trkpt lat="47.04233" lon="0.81834">
        <ele>80.5</ele>
        <time>2020-07-03T14:03:43Z</time>
      </trkpt>
      <trkpt lat="47.04229" lon="0.81836">
        <ele>80.5</ele>
        <time>2020-07-03T14:03:44Z</time>
      </trkpt>
      <trkpt lat="47.04225" lon="0.81839">
        <ele>80.5</ele>
        <time>2020-07-03T14:03:45Z</time>
      </trkpt>
      <trkpt lat="47.04221" lon="0.81842">
        <ele>80.5</ele>
        <time>2020-07-03T14:03:46Z</time>
      </trkpt>
      <trkpt lat="47.04216" lon="0.81845">
        <ele>80.5</ele>
        <time>2020-07-03T14:03:47Z</time>
      </trkpt>
      <trkpt lat="47.04213" lon="0.81848">
        <ele>80.6</ele>
        <time>2020-07-03T14:03:48Z</time>
      </trkpt>
      <trkpt lat="47.04208" lon="0.8185">
        <ele>80.6</ele>
        <time>2020-07-03T14:03:49Z</time>
      </trkpt>
      <trkpt lat="47.04204" lon="0.81851">
        <ele>80.6</ele>
        <time>2020-07-03T14:03:50Z</time>
      </trkpt>
      <trkpt lat="47.04199" lon="0.81853">
        <ele>80.6</ele>
        <time>2020-07-03T14:03:51Z</time>
      </trkpt>
      <trkpt lat="47.04193" lon="0.81855">
        <ele>80.6</ele>
        <time>2020-07-03T14:03:52Z</time>
      </trkpt>
      <trkpt lat="47.04188" lon="0.81857">
        <ele>80.7</ele>
        <time>2020-07-03T14:03:53Z</time>
      </trkpt>
      <trkpt lat="47.04183" lon="0.81859">
        <ele>80.7</ele>
        <time>2020-07-03T14:03:54Z</time>
      </trkpt>
      <trkpt lat="47.04179" lon="0.81861">
        <ele>80.8</ele>
        <time>2020-07-03T14:03:55Z</time>
      </trkpt>
      <trkpt lat="47.04174" lon="0.81862">
        <ele>80.8</ele>
        <time>2020-07-03T14:03:56Z</time>
      </trkpt>
      <trkpt lat="47.04168" lon="0.81863">
        <ele>80.9</ele>
        <time>2020-07-03T14:03:57Z</time>
      </trkpt>
      <trkpt lat="47.04162" lon="0.81864">
        <ele>81</ele>
        <time>2020-07-03T14:03:58Z</time>
      </trkpt>
      <trkpt lat="47.04157" lon="0.81865">
        <ele>81.2</ele>
        <time>2020-07-03T14:03:59Z</time>
      </trkpt>
      <trkpt lat="47.04152" lon="0.81866">
        <ele>81.3</ele>
        <time>2020-07-03T14:04:00Z</time>
      </trkpt>
      <trkpt lat="47.04147" lon="0.81866">
        <ele>81.5</ele>
        <time>2020-07-03T14:04:01Z</time>
      </trkpt>
      <trkpt lat="47.04141" lon="0.81865">
        <ele>81.7</ele>
        <time>2020-07-03T14:04:02Z</time>
      </trkpt>
      <trkpt lat="47.04137" lon="0.81865">
        <ele>81.9</ele>
        <time>2020-07-03T14:04:03Z</time>
      </trkpt>
      <trkpt lat="47.04132" lon="0.81864">
        <ele>82</ele>
        <time>2020-07-03T14:04:04Z</time>
      </trkpt>
      <trkpt lat="47.04128" lon="0.81863">
        <ele>82.2</ele>
        <time>2020-07-03T14:04:05Z</time>
      </trkpt>
      <trkpt lat="47.04125" lon="0.81862">
        <ele>82.3</ele>
        <time>2020-07-03T14:04:06Z</time>
      </trkpt>
      <trkpt lat="47.04122" lon="0.81858">
        <ele>82.5</ele>
        <time>2020-07-03T14:04:07Z</time>
      </trkpt>
      <trkpt lat="47.04121" lon="0.81854">
        <ele>82.5</ele>
        <time>2020-07-03T14:04:08Z</time>
      </trkpt>
      <trkpt lat="47.04119" lon="0.81851">
        <ele>82.5</ele>
        <time>2020-07-03T14:04:09Z</time>
      </trkpt>
      <trkpt lat="47.04118" lon="0.81847">
        <ele>82.5</ele>
        <time>2020-07-03T14:04:10Z</time>
      </trkpt>
      <trkpt lat="47.04117" lon="0.81846">
        <ele>82.5</ele>
        <time>2020-07-03T14:04:11Z</time>
      </trkpt>
      <trkpt lat="47.04117" lon="0.81844">
        <ele>82.4</ele>
        <time>2020-07-03T14:04:12Z</time>
      </trkpt>
      <trkpt lat="47.04116" lon="0.81843">
        <ele>82.3</ele>
        <time>2020-07-03T14:04:13Z</time>
      </trkpt>
      <trkpt lat="47.04115" lon="0.81841">
        <ele>82.2</ele>
        <time>2020-07-03T14:04:14Z</time>
      </trkpt>
      <trkpt lat="47.04114" lon="0.81839">
        <ele>82.1</ele>
        <time>2020-07-03T14:04:15Z</time>
      </trkpt>
      <trkpt lat="47.04114" lon="0.81836">
        <ele>82</ele>
        <time>2020-07-03T14:04:16Z</time>
      </trkpt>
      <trkpt lat="47.04113" lon="0.81834">
        <ele>81.9</ele>
        <time>2020-07-03T14:04:17Z</time>
      </trkpt>
      <trkpt lat="47.04112" lon="0.8183">
        <ele>81.8</ele>
        <time>2020-07-03T14:04:18Z</time>
      </trkpt>
      <trkpt lat="47.04111" lon="0.81828">
        <ele>81.8</ele>
        <time>2020-07-03T14:04:19Z</time>
      </trkpt>
      <trkpt lat="47.0411" lon="0.81824">
        <ele>81.8</ele>
        <time>2020-07-03T14:04:20Z</time>
      </trkpt>
      <trkpt lat="47.0411" lon="0.81822">
        <ele>81.8</ele>
        <time>2020-07-03T14:04:21Z</time>
      </trkpt>
      <trkpt lat="47.0411" lon="0.81818">
        <ele>81.8</ele>
        <time>2020-07-03T14:04:22Z</time>
      </trkpt>
      <trkpt lat="47.0411" lon="0.81816">
        <ele>81.8</ele>
        <time>2020-07-03T14:04:23Z</time>
      </trkpt>
      <trkpt lat="47.04108" lon="0.81812">
        <ele>81.8</ele>
        <time>2020-07-03T14:04:24Z</time>
      </trkpt>
      <trkpt lat="47.04108" lon="0.81811">
        <ele>81.8</ele>
        <time>2020-07-03T14:04:25Z</time>
      </trkpt>
      <trkpt lat="47.04108" lon="0.81806">
        <ele>81.8</ele>
        <time>2020-07-03T14:04:26Z</time>
      </trkpt>
      <trkpt lat="47.04108" lon="0.81804">
        <ele>81.8</ele>
        <time>2020-07-03T14:04:27Z</time>
      </trkpt>
      <trkpt lat="47.04107" lon="0.81799">
        <ele>81.8</ele>
        <time>2020-07-03T14:04:28Z</time>
      </trkpt>
      <trkpt lat="47.04107" lon="0.81798">
        <ele>81.8</ele>
        <time>2020-07-03T14:04:29Z</time>
      </trkpt>
      <trkpt lat="47.04107" lon="0.81793">
        <ele>81.8</ele>
        <time>2020-07-03T14:04:30Z</time>
      </trkpt>
      <trkpt lat="47.04107" lon="0.81792">
        <ele>81.8</ele>
        <time>2020-07-03T14:04:31Z</time>
      </trkpt>
      <trkpt lat="47.04105" lon="0.81786">
        <ele>81.8</ele>
        <time>2020-07-03T14:04:32Z</time>
      </trkpt>
      <trkpt lat="47.04103" lon="0.81781">
        <ele>82.2</ele>
        <time>2020-07-03T14:04:33Z</time>
      </trkpt>
      <trkpt lat="47.04102" lon="0.81775">
        <ele>82.5</ele>
        <time>2020-07-03T14:04:34Z</time>
      </trkpt>
      <trkpt lat="47.04101" lon="0.81769">
        <ele>82.7</ele>
        <time>2020-07-03T14:04:35Z</time>
      </trkpt>
      <trkpt lat="47.041" lon="0.81763">
        <ele>82.8</ele>
        <time>2020-07-03T14:04:36Z</time>
      </trkpt>
      <trkpt lat="47.04099" lon="0.81756">
        <ele>82.8</ele>
        <time>2020-07-03T14:04:37Z</time>
      </trkpt>
      <trkpt lat="47.04098" lon="0.81749">
        <ele>82.7</ele>
        <time>2020-07-03T14:04:38Z</time>
      </trkpt>
      <trkpt lat="47.04097" lon="0.8174">
        <ele>82.6</ele>
        <time>2020-07-03T14:04:39Z</time>
      </trkpt>
      <trkpt lat="47.04096" lon="0.81733">
        <ele>82.6</ele>
        <time>2020-07-03T14:04:40Z</time>
      </trkpt>
      <trkpt lat="47.04096" lon="0.81725">
        <ele>82.6</ele>
        <time>2020-07-03T14:04:41Z</time>
      </trkpt>
      <trkpt lat="47.04095" lon="0.81716">
        <ele>82.6</ele>
        <time>2020-07-03T14:04:42Z</time>
      </trkpt>
      <trkpt lat="47.04095" lon="0.81709">
        <ele>82.7</ele>
        <time>2020-07-03T14:04:43Z</time>
      </trkpt>
      <trkpt lat="47.04094" lon="0.81702">
        <ele>82.7</ele>
        <time>2020-07-03T14:04:44Z</time>
      </trkpt>
      <trkpt lat="47.04093" lon="0.81695">
        <ele>82.8</ele>
        <time>2020-07-03T14:04:45Z</time>
      </trkpt>
      <trkpt lat="47.04093" lon="0.81688">
        <ele>82.8</ele>
        <time>2020-07-03T14:04:46Z</time>
      </trkpt>
      <trkpt lat="47.04093" lon="0.8168">
        <ele>82.9</ele>
        <time>2020-07-03T14:04:47Z</time>
      </trkpt>
      <trkpt lat="47.04092" lon="0.81671">
        <ele>83</ele>
        <time>2020-07-03T14:04:48Z</time>
      </trkpt>
      <trkpt lat="47.0409" lon="0.81662">
        <ele>83</ele>
        <time>2020-07-03T14:04:49Z</time>
      </trkpt>
      <trkpt lat="47.04089" lon="0.81654">
        <ele>83.1</ele>
        <time>2020-07-03T14:04:50Z</time>
      </trkpt>
      <trkpt lat="47.04088" lon="0.81648">
        <ele>83.1</ele>
        <time>2020-07-03T14:04:51Z</time>
      </trkpt>
      <trkpt lat="47.04087" lon="0.8164">
        <ele>83.1</ele>
        <time>2020-07-03T14:04:52Z</time>
      </trkpt>
      <trkpt lat="47.04086" lon="0.81632">
        <ele>83.2</ele>
        <time>2020-07-03T14:04:53Z</time>
      </trkpt>
      <trkpt lat="47.04084" lon="0.81625">
        <ele>83.2</ele>
        <time>2020-07-03T14:04:54Z</time>
      </trkpt>
      <trkpt lat="47.04083" lon="0.81617">
        <ele>83.2</ele>
        <time>2020-07-03T14:04:55Z</time>
      </trkpt>
      <trkpt lat="47.04083" lon="0.8161">
        <ele>83.2</ele>
        <time>2020-07-03T14:04:56Z</time>
      </trkpt>
      <trkpt lat="47.04082" lon="0.81603">
        <ele>83.2</ele>
        <time>2020-07-03T14:04:57Z</time>
      </trkpt>
      <trkpt lat="47.04081" lon="0.81597">
        <ele>83.2</ele>
        <time>2020-07-03T14:04:58Z</time>
      </trkpt>
      <trkpt lat="47.0408" lon="0.81591">
        <ele>83.2</ele>
        <time>2020-07-03T14:04:59Z</time>
      </trkpt>
      <trkpt lat="47.04079" lon="0.81585">
        <ele>83.2</ele>
        <time>2020-07-03T14:05:00Z</time>
      </trkpt>
      <trkpt lat="47.04077" lon="0.81578">
        <ele>83.2</ele>
        <time>2020-07-03T14:05:01Z</time>
      </trkpt>
      <trkpt lat="47.04075" lon="0.81572">
        <ele>83.2</ele>
        <time>2020-07-03T14:05:02Z</time>
      </trkpt>
      <trkpt lat="47.04075" lon="0.81569">
        <ele>83.2</ele>
        <time>2020-07-03T14:05:03Z</time>
      </trkpt>
      <trkpt lat="47.04076" lon="0.81568">
        <ele>83.2</ele>
        <time>2020-07-03T14:05:04Z</time>
      </trkpt>
      <trkpt lat="47.04075" lon="0.81567">
        <ele>83.2</ele>
        <time>2020-07-03T14:05:05Z</time>
      </trkpt>
      <trkpt lat="47.04075" lon="0.81567">
        <ele>83.2</ele>
        <time>2020-07-03T14:05:06Z</time>
      </trkpt>
      <trkpt lat="47.04074" lon="0.81567">
        <ele>83.2</ele>
        <time>2020-07-03T14:05:07Z</time>
      </trkpt>
      <trkpt lat="47.04074" lon="0.81566">
        <ele>83.2</ele>
        <time>2020-07-03T14:05:08Z</time>
      </trkpt>
      <trkpt lat="47.04074" lon="0.81566">
        <ele>83.2</ele>
        <time>2020-07-03T14:05:09Z</time>
      </trkpt>
      <trkpt lat="47.04075" lon="0.81565">
        <ele>83.2</ele>
        <time>2020-07-03T14:05:10Z</time>
      </trkpt>
      <trkpt lat="47.04074" lon="0.81566">
        <ele>83.1</ele>
        <time>2020-07-03T14:05:11Z</time>
      </trkpt>
      <trkpt lat="47.04074" lon="0.81566">
        <ele>83.1</ele>
        <time>2020-07-03T14:05:12Z</time>
      </trkpt>
      <trkpt lat="47.04074" lon="0.81566">
        <ele>83.1</ele>
        <time>2020-07-03T14:05:13Z</time>
      </trkpt>
      <trkpt lat="47.04074" lon="0.81566">
        <ele>83.1</ele>
        <time>2020-07-03T14:05:14Z</time>
      </trkpt>
      <trkpt lat="47.04074" lon="0.81561">
        <ele>83.1</ele>
        <time>2020-07-03T14:06:16Z</time>
      </trkpt>
      <trkpt lat="47.04074" lon="0.81559">
        <ele>83.1</ele>
        <time>2020-07-03T14:06:17Z</time>
      </trkpt>
      <trkpt lat="47.04073" lon="0.81554">
        <ele>83.1</ele>
        <time>2020-07-03T14:06:18Z</time>
      </trkpt>
      <trkpt lat="47.04073" lon="0.81553">
        <ele>83.1</ele>
        <time>2020-07-03T14:06:19Z</time>
      </trkpt>
      <trkpt lat="47.04072" lon="0.81549">
        <ele>83.1</ele>
        <time>2020-07-03T14:06:20Z</time>
      </trkpt>
      <trkpt lat="47.04072" lon="0.81547">
        <ele>83.1</ele>
        <time>2020-07-03T14:06:21Z</time>
      </trkpt>
      <trkpt lat="47.04071" lon="0.81545">
        <ele>83.1</ele>
        <time>2020-07-03T14:06:22Z</time>
      </trkpt>
      <trkpt lat="47.0407" lon="0.81543">
        <ele>83.1</ele>
        <time>2020-07-03T14:06:23Z</time>
      </trkpt>
      <trkpt lat="47.04069" lon="0.81539">
        <ele>83.1</ele>
        <time>2020-07-03T14:06:24Z</time>
      </trkpt>
      <trkpt lat="47.04069" lon="0.81537">
        <ele>83.1</ele>
        <time>2020-07-03T14:06:25Z</time>
      </trkpt>
      <trkpt lat="47.04067" lon="0.81532">
        <ele>83.1</ele>
        <time>2020-07-03T14:06:26Z</time>
      </trkpt>
      <trkpt lat="47.04066" lon="0.8153">
        <ele>83.1</ele>
        <time>2020-07-03T14:06:27Z</time>
      </trkpt>
      <trkpt lat="47.04065" lon="0.81527">
        <ele>83.1</ele>
        <time>2020-07-03T14:06:28Z</time>
      </trkpt>
      <trkpt lat="47.04062" lon="0.81522">
        <ele>83.1</ele>
        <time>2020-07-03T14:06:29Z</time>
      </trkpt>
      <trkpt lat="47.0406" lon="0.81517">
        <ele>83.1</ele>
        <time>2020-07-03T14:06:30Z</time>
      </trkpt>
      <trkpt lat="47.04058" lon="0.81513">
        <ele>83.1</ele>
        <time>2020-07-03T14:06:31Z</time>
      </trkpt>
      <trkpt lat="47.04057" lon="0.81507">
        <ele>83.1</ele>
        <time>2020-07-03T14:06:32Z</time>
      </trkpt>
      <trkpt lat="47.04056" lon="0.815">
        <ele>83.2</ele>
        <time>2020-07-03T14:06:33Z</time>
      </trkpt>
      <trkpt lat="47.04054" lon="0.81493">
        <ele>83.3</ele>
        <time>2020-07-03T14:06:34Z</time>
      </trkpt>
      <trkpt lat="47.04052" lon="0.81487">
        <ele>83.4</ele>
        <time>2020-07-03T14:06:35Z</time>
      </trkpt>
      <trkpt lat="47.04052" lon="0.8148">
        <ele>83.4</ele>
        <time>2020-07-03T14:06:36Z</time>
      </trkpt>
      <trkpt lat="47.0405" lon="0.81473">
        <ele>83.5</ele>
        <time>2020-07-03T14:06:37Z</time>
      </trkpt>
      <trkpt lat="47.04048" lon="0.81466">
        <ele>83.6</ele>
        <time>2020-07-03T14:06:38Z</time>
      </trkpt>
      <trkpt lat="47.04047" lon="0.8146">
        <ele>83.7</ele>
        <time>2020-07-03T14:06:39Z</time>
      </trkpt>
      <trkpt lat="47.04044" lon="0.81453">
        <ele>83.7</ele>
        <time>2020-07-03T14:06:40Z</time>
      </trkpt>
      <trkpt lat="47.04043" lon="0.81447">
        <ele>83.8</ele>
        <time>2020-07-03T14:06:41Z</time>
      </trkpt>
      <trkpt lat="47.04041" lon="0.81441">
        <ele>83.8</ele>
        <time>2020-07-03T14:06:42Z</time>
      </trkpt>
      <trkpt lat="47.04039" lon="0.81436">
        <ele>83.9</ele>
        <time>2020-07-03T14:06:43Z</time>
      </trkpt>
      <trkpt lat="47.04038" lon="0.81431">
        <ele>84</ele>
        <time>2020-07-03T14:06:44Z</time>
      </trkpt>
      <trkpt lat="47.04036" lon="0.81426">
        <ele>84.1</ele>
        <time>2020-07-03T14:06:45Z</time>
      </trkpt>
      <trkpt lat="47.04034" lon="0.81421">
        <ele>84.2</ele>
        <time>2020-07-03T14:06:46Z</time>
      </trkpt>
      <trkpt lat="47.04033" lon="0.81416">
        <ele>84.3</ele>
        <time>2020-07-03T14:06:47Z</time>
      </trkpt>
      <trkpt lat="47.04031" lon="0.81412">
        <ele>84.4</ele>
        <time>2020-07-03T14:06:48Z</time>
      </trkpt>
      <trkpt lat="47.04028" lon="0.81408">
        <ele>84.6</ele>
        <time>2020-07-03T14:06:49Z</time>
      </trkpt>
      <trkpt lat="47.04027" lon="0.81403">
        <ele>84.8</ele>
        <time>2020-07-03T14:06:50Z</time>
      </trkpt>
      <trkpt lat="47.04025" lon="0.81399">
        <ele>84.9</ele>
        <time>2020-07-03T14:06:51Z</time>
      </trkpt>
      <trkpt lat="47.04024" lon="0.81397">
        <ele>85</ele>
        <time>2020-07-03T14:06:52Z</time>
      </trkpt>
      <trkpt lat="47.04022" lon="0.81393">
        <ele>85.1</ele>
        <time>2020-07-03T14:06:53Z</time>
      </trkpt>
      <trkpt lat="47.04021" lon="0.81389">
        <ele>85.2</ele>
        <time>2020-07-03T14:06:54Z</time>
      </trkpt>
      <trkpt lat="47.0402" lon="0.81385">
        <ele>85.4</ele>
        <time>2020-07-03T14:06:55Z</time>
      </trkpt>
      <trkpt lat="47.04018" lon="0.81381">
        <ele>85.5</ele>
        <time>2020-07-03T14:06:56Z</time>
      </trkpt>
      <trkpt lat="47.04017" lon="0.81378">
        <ele>85.7</ele>
        <time>2020-07-03T14:06:57Z</time>
      </trkpt>
      <trkpt lat="47.04014" lon="0.81373">
        <ele>86</ele>
        <time>2020-07-03T14:06:58Z</time>
      </trkpt>
      <trkpt lat="47.04013" lon="0.81371">
        <ele>86.1</ele>
        <time>2020-07-03T14:06:59Z</time>
      </trkpt>
      <trkpt lat="47.04011" lon="0.81367">
        <ele>86.3</ele>
        <time>2020-07-03T14:07:00Z</time>
      </trkpt>
      <trkpt lat="47.04011" lon="0.81365">
        <ele>86.4</ele>
        <time>2020-07-03T14:07:01Z</time>
      </trkpt>
      <trkpt lat="47.0401" lon="0.81361">
        <ele>86.6</ele>
        <time>2020-07-03T14:07:02Z</time>
      </trkpt>
      <trkpt lat="47.04008" lon="0.81357">
        <ele>86.9</ele>
        <time>2020-07-03T14:07:03Z</time>
      </trkpt>
      <trkpt lat="47.04008" lon="0.81355">
        <ele>87</ele>
        <time>2020-07-03T14:07:04Z</time>
      </trkpt>
      <trkpt lat="47.04007" lon="0.81354">
        <ele>87.1</ele>
        <time>2020-07-03T14:07:05Z</time>
      </trkpt>
      <trkpt lat="47.04006" lon="0.81351">
        <ele>87.3</ele>
        <time>2020-07-03T14:07:06Z</time>
      </trkpt>
      <trkpt lat="47.04005" lon="0.81347">
        <ele>87.5</ele>
        <time>2020-07-03T14:07:07Z</time>
      </trkpt>
      <trkpt lat="47.04003" lon="0.81342">
        <ele>87.8</ele>
        <time>2020-07-03T14:07:08Z</time>
      </trkpt>
      <trkpt lat="47.04002" lon="0.81341">
        <ele>87.9</ele>
        <time>2020-07-03T14:07:09Z</time>
      </trkpt>
      <trkpt lat="47.04001" lon="0.81337">
        <ele>88.2</ele>
        <time>2020-07-03T14:07:10Z</time>
      </trkpt>
      <trkpt lat="47.03999" lon="0.81334">
        <ele>88.8</ele>
        <time>2020-07-03T14:07:11Z</time>
      </trkpt>
      <trkpt lat="47.03997" lon="0.81332">
        <ele>88.9</ele>
        <time>2020-07-03T14:07:12Z</time>
      </trkpt>
      <trkpt lat="47.03996" lon="0.81328">
        <ele>89.1</ele>
        <time>2020-07-03T14:07:13Z</time>
      </trkpt>
      <trkpt lat="47.03994" lon="0.81324">
        <ele>89.3</ele>
        <time>2020-07-03T14:07:14Z</time>
      </trkpt>
      <trkpt lat="47.03992" lon="0.81321">
        <ele>89.5</ele>
        <time>2020-07-03T14:07:15Z</time>
      </trkpt>
      <trkpt lat="47.0399" lon="0.81317">
        <ele>89.8</ele>
        <time>2020-07-03T14:07:16Z</time>
      </trkpt>
      <trkpt lat="47.03989" lon="0.81313">
        <ele>90</ele>
        <time>2020-07-03T14:07:17Z</time>
      </trkpt>
      <trkpt lat="47.03987" lon="0.8131">
        <ele>90.2</ele>
        <time>2020-07-03T14:07:18Z</time>
      </trkpt>
      <trkpt lat="47.03986" lon="0.81305">
        <ele>90.5</ele>
        <time>2020-07-03T14:07:19Z</time>
      </trkpt>
      <trkpt lat="47.03984" lon="0.81299">
        <ele>90.8</ele>
        <time>2020-07-03T14:07:20Z</time>
      </trkpt>
      <trkpt lat="47.03984" lon="0.81297">
        <ele>90.9</ele>
        <time>2020-07-03T14:07:21Z</time>
      </trkpt>
      <trkpt lat="47.03982" lon="0.81293">
        <ele>91.2</ele>
        <time>2020-07-03T14:07:22Z</time>
      </trkpt>
      <trkpt lat="47.03981" lon="0.81291">
        <ele>91.3</ele>
        <time>2020-07-03T14:07:23Z</time>
      </trkpt>
      <trkpt lat="47.03979" lon="0.81287">
        <ele>91.6</ele>
        <time>2020-07-03T14:07:24Z</time>
      </trkpt>
      <trkpt lat="47.03978" lon="0.81283">
        <ele>91.8</ele>
        <time>2020-07-03T14:07:25Z</time>
      </trkpt>
      <trkpt lat="47.03976" lon="0.81279">
        <ele>92</ele>
        <time>2020-07-03T14:07:26Z</time>
      </trkpt>
      <trkpt lat="47.03976" lon="0.81277">
        <ele>92.1</ele>
        <time>2020-07-03T14:07:27Z</time>
      </trkpt>
      <trkpt lat="47.03974" lon="0.81274">
        <ele>92.3</ele>
        <time>2020-07-03T14:07:28Z</time>
      </trkpt>
      <trkpt lat="47.03974" lon="0.81272">
        <ele>92.3</ele>
        <time>2020-07-03T14:07:29Z</time>
      </trkpt>
      <trkpt lat="47.03973" lon="0.81267">
        <ele>92.5</ele>
        <time>2020-07-03T14:07:30Z</time>
      </trkpt>
      <trkpt lat="47.03973" lon="0.81266">
        <ele>92.6</ele>
        <time>2020-07-03T14:07:31Z</time>
      </trkpt>
      <trkpt lat="47.03972" lon="0.81261">
        <ele>92.8</ele>
        <time>2020-07-03T14:07:32Z</time>
      </trkpt>
      <trkpt lat="47.03971" lon="0.81259">
        <ele>92.9</ele>
        <time>2020-07-03T14:07:33Z</time>
      </trkpt>
      <trkpt lat="47.03971" lon="0.81253">
        <ele>93.1</ele>
        <time>2020-07-03T14:07:34Z</time>
      </trkpt>
      <trkpt lat="47.0397" lon="0.81252">
        <ele>93.2</ele>
        <time>2020-07-03T14:07:35Z</time>
      </trkpt>
      <trkpt lat="47.03968" lon="0.81247">
        <ele>93.4</ele>
        <time>2020-07-03T14:07:36Z</time>
      </trkpt>
      <trkpt lat="47.03967" lon="0.81245">
        <ele>93.4</ele>
        <time>2020-07-03T14:07:37Z</time>
      </trkpt>
      <trkpt lat="47.03966" lon="0.81241">
        <ele>93.6</ele>
        <time>2020-07-03T14:07:38Z</time>
      </trkpt>
      <trkpt lat="47.03965" lon="0.81239">
        <ele>93.6</ele>
        <time>2020-07-03T14:07:39Z</time>
      </trkpt>
      <trkpt lat="47.03963" lon="0.81235">
        <ele>93.7</ele>
        <time>2020-07-03T14:07:40Z</time>
      </trkpt>
      <trkpt lat="47.03961" lon="0.81231">
        <ele>93.9</ele>
        <time>2020-07-03T14:07:41Z</time>
      </trkpt>
      <trkpt lat="47.03959" lon="0.81227">
        <ele>94</ele>
        <time>2020-07-03T14:07:42Z</time>
      </trkpt>
      <trkpt lat="47.03957" lon="0.81223">
        <ele>94.1</ele>
        <time>2020-07-03T14:07:43Z</time>
      </trkpt>
      <trkpt lat="47.03955" lon="0.81218">
        <ele>94.3</ele>
        <time>2020-07-03T14:07:44Z</time>
      </trkpt>
      <trkpt lat="47.03953" lon="0.81213">
        <ele>94.4</ele>
        <time>2020-07-03T14:07:45Z</time>
      </trkpt>
      <trkpt lat="47.03951" lon="0.81208">
        <ele>94.5</ele>
        <time>2020-07-03T14:07:46Z</time>
      </trkpt>
      <trkpt lat="47.03949" lon="0.81203">
        <ele>94.6</ele>
        <time>2020-07-03T14:07:47Z</time>
      </trkpt>
      <trkpt lat="47.03946" lon="0.812">
        <ele>94.8</ele>
        <time>2020-07-03T14:07:48Z</time>
      </trkpt>
      <trkpt lat="47.03943" lon="0.81193">
        <ele>94.9</ele>
        <time>2020-07-03T14:07:49Z</time>
      </trkpt>
      <trkpt lat="47.03942" lon="0.8119">
        <ele>95</ele>
        <time>2020-07-03T14:07:50Z</time>
      </trkpt>
      <trkpt lat="47.03939" lon="0.81186">
        <ele>95</ele>
        <time>2020-07-03T14:07:51Z</time>
      </trkpt>
      <trkpt lat="47.03938" lon="0.8118">
        <ele>95.1</ele>
        <time>2020-07-03T14:07:52Z</time>
      </trkpt>
      <trkpt lat="47.03936" lon="0.81174">
        <ele>95.2</ele>
        <time>2020-07-03T14:07:53Z</time>
      </trkpt>
      <trkpt lat="47.03933" lon="0.81169">
        <ele>95.2</ele>
        <time>2020-07-03T14:07:54Z</time>
      </trkpt>
      <trkpt lat="47.03931" lon="0.81164">
        <ele>95.3</ele>
        <time>2020-07-03T14:07:55Z</time>
      </trkpt>
      <trkpt lat="47.03928" lon="0.81159">
        <ele>95.3</ele>
        <time>2020-07-03T14:07:56Z</time>
      </trkpt>
      <trkpt lat="47.03926" lon="0.81154">
        <ele>95.3</ele>
        <time>2020-07-03T14:07:57Z</time>
      </trkpt>
      <trkpt lat="47.03923" lon="0.81148">
        <ele>95.4</ele>
        <time>2020-07-03T14:07:58Z</time>
      </trkpt>
      <trkpt lat="47.0392" lon="0.81143">
        <ele>95.4</ele>
        <time>2020-07-03T14:07:59Z</time>
      </trkpt>
      <trkpt lat="47.03917" lon="0.81137">
        <ele>95.5</ele>
        <time>2020-07-03T14:08:00Z</time>
      </trkpt>
      <trkpt lat="47.03915" lon="0.81131">
        <ele>95.5</ele>
        <time>2020-07-03T14:08:01Z</time>
      </trkpt>
      <trkpt lat="47.03912" lon="0.81126">
        <ele>95.5</ele>
        <time>2020-07-03T14:08:02Z</time>
      </trkpt>
      <trkpt lat="47.03909" lon="0.81119">
        <ele>95.6</ele>
        <time>2020-07-03T14:08:03Z</time>
      </trkpt>
      <trkpt lat="47.03906" lon="0.81113">
        <ele>95.6</ele>
        <time>2020-07-03T14:08:04Z</time>
      </trkpt>
      <trkpt lat="47.03902" lon="0.81108">
        <ele>95.6</ele>
        <time>2020-07-03T14:08:05Z</time>
      </trkpt>
      <trkpt lat="47.03897" lon="0.81103">
        <ele>95.6</ele>
        <time>2020-07-03T14:08:06Z</time>
      </trkpt>
      <trkpt lat="47.03893" lon="0.81096">
        <ele>95.7</ele>
        <time>2020-07-03T14:08:07Z</time>
      </trkpt>
      <trkpt lat="47.03889" lon="0.8109">
        <ele>95.7</ele>
        <time>2020-07-03T14:08:08Z</time>
      </trkpt>
      <trkpt lat="47.03885" lon="0.81083">
        <ele>95.8</ele>
        <time>2020-07-03T14:08:09Z</time>
      </trkpt>
      <trkpt lat="47.03882" lon="0.81077">
        <ele>95.8</ele>
        <time>2020-07-03T14:08:10Z</time>
      </trkpt>
      <trkpt lat="47.03879" lon="0.81071">
        <ele>95.8</ele>
        <time>2020-07-03T14:08:11Z</time>
      </trkpt>
      <trkpt lat="47.03877" lon="0.81067">
        <ele>95.9</ele>
        <time>2020-07-03T14:08:12Z</time>
      </trkpt>
      <trkpt lat="47.03874" lon="0.81063">
        <ele>95.9</ele>
        <time>2020-07-03T14:08:13Z</time>
      </trkpt>
      <trkpt lat="47.03871" lon="0.81058">
        <ele>95.9</ele>
        <time>2020-07-03T14:08:14Z</time>
      </trkpt>
      <trkpt lat="47.0387" lon="0.81053">
        <ele>95.9</ele>
        <time>2020-07-03T14:08:15Z</time>
      </trkpt>
      <trkpt lat="47.03867" lon="0.81045">
        <ele>95.9</ele>
        <time>2020-07-03T14:08:16Z</time>
      </trkpt>
      <trkpt lat="47.03865" lon="0.81039">
        <ele>95.9</ele>
        <time>2020-07-03T14:08:17Z</time>
      </trkpt>
      <trkpt lat="47.03863" lon="0.81031">
        <ele>95.8</ele>
        <time>2020-07-03T14:08:18Z</time>
      </trkpt>
      <trkpt lat="47.03859" lon="0.81024">
        <ele>95.8</ele>
        <time>2020-07-03T14:08:19Z</time>
      </trkpt>
      <trkpt lat="47.03856" lon="0.81018">
        <ele>95.7</ele>
        <time>2020-07-03T14:08:20Z</time>
      </trkpt>
      <trkpt lat="47.03853" lon="0.81011">
        <ele>95.7</ele>
        <time>2020-07-03T14:08:21Z</time>
      </trkpt>
      <trkpt lat="47.0385" lon="0.81005">
        <ele>95.7</ele>
        <time>2020-07-03T14:08:22Z</time>
      </trkpt>
      <trkpt lat="47.03846" lon="0.80998">
        <ele>95.6</ele>
        <time>2020-07-03T14:08:23Z</time>
      </trkpt>
      <trkpt lat="47.03842" lon="0.80992">
        <ele>95.6</ele>
        <time>2020-07-03T14:08:24Z</time>
      </trkpt>
      <trkpt lat="47.03839" lon="0.80985">
        <ele>95.6</ele>
        <time>2020-07-03T14:08:25Z</time>
      </trkpt>
      <trkpt lat="47.03836" lon="0.80977">
        <ele>95.6</ele>
        <time>2020-07-03T14:08:26Z</time>
      </trkpt>
      <trkpt lat="47.03832" lon="0.80972">
        <ele>95.7</ele>
        <time>2020-07-03T14:08:27Z</time>
      </trkpt>
      <trkpt lat="47.03829" lon="0.80964">
        <ele>95.7</ele>
        <time>2020-07-03T14:08:28Z</time>
      </trkpt>
      <trkpt lat="47.03825" lon="0.80958">
        <ele>95.8</ele>
        <time>2020-07-03T14:08:29Z</time>
      </trkpt>
      <trkpt lat="47.03821" lon="0.80953">
        <ele>95.8</ele>
        <time>2020-07-03T14:08:30Z</time>
      </trkpt>
      <trkpt lat="47.03817" lon="0.80945">
        <ele>95.8</ele>
        <time>2020-07-03T14:08:31Z</time>
      </trkpt>
      <trkpt lat="47.03814" lon="0.80938">
        <ele>95.8</ele>
        <time>2020-07-03T14:08:32Z</time>
      </trkpt>
      <trkpt lat="47.03811" lon="0.80932">
        <ele>95.8</ele>
        <time>2020-07-03T14:08:33Z</time>
      </trkpt>
      <trkpt lat="47.03808" lon="0.80927">
        <ele>95.9</ele>
        <time>2020-07-03T14:08:34Z</time>
      </trkpt>
      <trkpt lat="47.03805" lon="0.8092">
        <ele>95.9</ele>
        <time>2020-07-03T14:08:35Z</time>
      </trkpt>
      <trkpt lat="47.03802" lon="0.80913">
        <ele>95.9</ele>
        <time>2020-07-03T14:08:36Z</time>
      </trkpt>
      <trkpt lat="47.03799" lon="0.80907">
        <ele>95.9</ele>
        <time>2020-07-03T14:08:37Z</time>
      </trkpt>
      <trkpt lat="47.03796" lon="0.80899">
        <ele>95.8</ele>
        <time>2020-07-03T14:08:38Z</time>
      </trkpt>
      <trkpt lat="47.03792" lon="0.80893">
        <ele>95.8</ele>
        <time>2020-07-03T14:08:39Z</time>
      </trkpt>
      <trkpt lat="47.03788" lon="0.80885">
        <ele>95.8</ele>
        <time>2020-07-03T14:08:40Z</time>
      </trkpt>
      <trkpt lat="47.03785" lon="0.80878">
        <ele>95.8</ele>
        <time>2020-07-03T14:08:41Z</time>
      </trkpt>
      <trkpt lat="47.03781" lon="0.80869">
        <ele>95.8</ele>
        <time>2020-07-03T14:08:42Z</time>
      </trkpt>
      <trkpt lat="47.03777" lon="0.80864">
        <ele>95.8</ele>
        <time>2020-07-03T14:08:43Z</time>
      </trkpt>
      <trkpt lat="47.03774" lon="0.80856">
        <ele>95.8</ele>
        <time>2020-07-03T14:08:44Z</time>
      </trkpt>
      <trkpt lat="47.03771" lon="0.80848">
        <ele>95.8</ele>
        <time>2020-07-03T14:08:45Z</time>
      </trkpt>
      <trkpt lat="47.03768" lon="0.80841">
        <ele>95.8</ele>
        <time>2020-07-03T14:08:46Z</time>
      </trkpt>
      <trkpt lat="47.03764" lon="0.80834">
        <ele>95.7</ele>
        <time>2020-07-03T14:08:47Z</time>
      </trkpt>
      <trkpt lat="47.03761" lon="0.80829">
        <ele>95.7</ele>
        <time>2020-07-03T14:08:48Z</time>
      </trkpt>
      <trkpt lat="47.03758" lon="0.80823">
        <ele>95.7</ele>
        <time>2020-07-03T14:08:49Z</time>
      </trkpt>
      <trkpt lat="47.03753" lon="0.80815">
        <ele>95.7</ele>
        <time>2020-07-03T14:08:50Z</time>
      </trkpt>
      <trkpt lat="47.03749" lon="0.80807">
        <ele>95.7</ele>
        <time>2020-07-03T14:08:51Z</time>
      </trkpt>
      <trkpt lat="47.03745" lon="0.808">
        <ele>95.7</ele>
        <time>2020-07-03T14:08:52Z</time>
      </trkpt>
      <trkpt lat="47.03741" lon="0.80794">
        <ele>95.6</ele>
        <time>2020-07-03T14:08:53Z</time>
      </trkpt>
      <trkpt lat="47.03736" lon="0.80787">
        <ele>95.6</ele>
        <time>2020-07-03T14:08:54Z</time>
      </trkpt>
      <trkpt lat="47.03733" lon="0.8078">
        <ele>95.6</ele>
        <time>2020-07-03T14:08:55Z</time>
      </trkpt>
      <trkpt lat="47.03729" lon="0.80773">
        <ele>95.5</ele>
        <time>2020-07-03T14:08:56Z</time>
      </trkpt>
      <trkpt lat="47.03726" lon="0.80767">
        <ele>95.5</ele>
        <time>2020-07-03T14:08:57Z</time>
      </trkpt>
      <trkpt lat="47.03722" lon="0.80757">
        <ele>95.5</ele>
        <time>2020-07-03T14:08:58Z</time>
      </trkpt>
      <trkpt lat="47.03719" lon="0.8075">
        <ele>95.5</ele>
        <time>2020-07-03T14:08:59Z</time>
      </trkpt>
      <trkpt lat="47.03716" lon="0.80743">
        <ele>95.5</ele>
        <time>2020-07-03T14:09:00Z</time>
      </trkpt>
      <trkpt lat="47.03712" lon="0.80738">
        <ele>95.5</ele>
        <time>2020-07-03T14:09:01Z</time>
      </trkpt>
      <trkpt lat="47.03708" lon="0.80731">
        <ele>95.6</ele>
        <time>2020-07-03T14:09:02Z</time>
      </trkpt>
      <trkpt lat="47.03705" lon="0.80723">
        <ele>95.7</ele>
        <time>2020-07-03T14:09:03Z</time>
      </trkpt>
      <trkpt lat="47.03701" lon="0.80716">
        <ele>95.8</ele>
        <time>2020-07-03T14:09:04Z</time>
      </trkpt>
      <trkpt lat="47.03698" lon="0.8071">
        <ele>96</ele>
        <time>2020-07-03T14:09:05Z</time>
      </trkpt>
      <trkpt lat="47.03695" lon="0.80704">
        <ele>96</ele>
        <time>2020-07-03T14:09:06Z</time>
      </trkpt>
      <trkpt lat="47.03693" lon="0.807">
        <ele>96.1</ele>
        <time>2020-07-03T14:09:07Z</time>
      </trkpt>
      <trkpt lat="47.0369" lon="0.80693">
        <ele>96.2</ele>
        <time>2020-07-03T14:09:08Z</time>
      </trkpt>
      <trkpt lat="47.03688" lon="0.80686">
        <ele>96.3</ele>
        <time>2020-07-03T14:09:09Z</time>
      </trkpt>
      <trkpt lat="47.03685" lon="0.80681">
        <ele>96.4</ele>
        <time>2020-07-03T14:09:10Z</time>
      </trkpt>
      <trkpt lat="47.03682" lon="0.80677">
        <ele>96.5</ele>
        <time>2020-07-03T14:09:11Z</time>
      </trkpt>
      <trkpt lat="47.0368" lon="0.80671">
        <ele>96.6</ele>
        <time>2020-07-03T14:09:12Z</time>
      </trkpt>
      <trkpt lat="47.03677" lon="0.80666">
        <ele>96.7</ele>
        <time>2020-07-03T14:09:13Z</time>
      </trkpt>
      <trkpt lat="47.03675" lon="0.8066">
        <ele>96.8</ele>
        <time>2020-07-03T14:09:14Z</time>
      </trkpt>
      <trkpt lat="47.03673" lon="0.80655">
        <ele>96.9</ele>
        <time>2020-07-03T14:09:15Z</time>
      </trkpt>
      <trkpt lat="47.0367" lon="0.8065">
        <ele>97</ele>
        <time>2020-07-03T14:09:16Z</time>
      </trkpt>
      <trkpt lat="47.03666" lon="0.80644">
        <ele>97.1</ele>
        <time>2020-07-03T14:09:17Z</time>
      </trkpt>
      <trkpt lat="47.03664" lon="0.80639">
        <ele>97.2</ele>
        <time>2020-07-03T14:09:18Z</time>
      </trkpt>
      <trkpt lat="47.0366" lon="0.80633">
        <ele>97.2</ele>
        <time>2020-07-03T14:09:19Z</time>
      </trkpt>
      <trkpt lat="47.03657" lon="0.80626">
        <ele>97.3</ele>
        <time>2020-07-03T14:09:20Z</time>
      </trkpt>
      <trkpt lat="47.03654" lon="0.8062">
        <ele>97.4</ele>
        <time>2020-07-03T14:09:21Z</time>
      </trkpt>
      <trkpt lat="47.03651" lon="0.80619">
        <ele>97.5</ele>
        <time>2020-07-03T14:09:22Z</time>
      </trkpt>
      <trkpt lat="47.03648" lon="0.80611">
        <ele>97.6</ele>
        <time>2020-07-03T14:09:23Z</time>
      </trkpt>
      <trkpt lat="47.03645" lon="0.80605">
        <ele>97.6</ele>
        <time>2020-07-03T14:09:24Z</time>
      </trkpt>
      <trkpt lat="47.03641" lon="0.80599">
        <ele>97.7</ele>
        <time>2020-07-03T14:09:25Z</time>
      </trkpt>
      <trkpt lat="47.03637" lon="0.80593">
        <ele>97.9</ele>
        <time>2020-07-03T14:09:26Z</time>
      </trkpt>
      <trkpt lat="47.03634" lon="0.80586">
        <ele>98</ele>
        <time>2020-07-03T14:09:27Z</time>
      </trkpt>
      <trkpt lat="47.0363" lon="0.8058">
        <ele>98.2</ele>
        <time>2020-07-03T14:09:28Z</time>
      </trkpt>
      <trkpt lat="47.03626" lon="0.80575">
        <ele>98.3</ele>
        <time>2020-07-03T14:09:29Z</time>
      </trkpt>
      <trkpt lat="47.03623" lon="0.80568">
        <ele>98.4</ele>
        <time>2020-07-03T14:09:30Z</time>
      </trkpt>
      <trkpt lat="47.03621" lon="0.80563">
        <ele>98.4</ele>
        <time>2020-07-03T14:09:31Z</time>
      </trkpt>
      <trkpt lat="47.03619" lon="0.80559">
        <ele>98.5</ele>
        <time>2020-07-03T14:09:32Z</time>
      </trkpt>
      <trkpt lat="47.03616" lon="0.80553">
        <ele>98.5</ele>
        <time>2020-07-03T14:09:33Z</time>
      </trkpt>
      <trkpt lat="47.03613" lon="0.80547">
        <ele>98.6</ele>
        <time>2020-07-03T14:09:34Z</time>
      </trkpt>
      <trkpt lat="47.0361" lon="0.80541">
        <ele>98.6</ele>
        <time>2020-07-03T14:09:35Z</time>
      </trkpt>
      <trkpt lat="47.03607" lon="0.80536">
        <ele>98.7</ele>
        <time>2020-07-03T14:09:36Z</time>
      </trkpt>
      <trkpt lat="47.03605" lon="0.8053">
        <ele>98.8</ele>
        <time>2020-07-03T14:09:37Z</time>
      </trkpt>
      <trkpt lat="47.03602" lon="0.80523">
        <ele>98.9</ele>
        <time>2020-07-03T14:09:38Z</time>
      </trkpt>
      <trkpt lat="47.03599" lon="0.8052">
        <ele>99</ele>
        <time>2020-07-03T14:09:39Z</time>
      </trkpt>
      <trkpt lat="47.03597" lon="0.80515">
        <ele>99</ele>
        <time>2020-07-03T14:09:40Z</time>
      </trkpt>
      <trkpt lat="47.03594" lon="0.80509">
        <ele>99.1</ele>
        <time>2020-07-03T14:09:41Z</time>
      </trkpt>
      <trkpt lat="47.03591" lon="0.80504">
        <ele>99.2</ele>
        <time>2020-07-03T14:09:42Z</time>
      </trkpt>
      <trkpt lat="47.03588" lon="0.80499">
        <ele>99.3</ele>
        <time>2020-07-03T14:09:43Z</time>
      </trkpt>
      <trkpt lat="47.03585" lon="0.80492">
        <ele>99.4</ele>
        <time>2020-07-03T14:09:44Z</time>
      </trkpt>
      <trkpt lat="47.03582" lon="0.80486">
        <ele>99.5</ele>
        <time>2020-07-03T14:09:45Z</time>
      </trkpt>
      <trkpt lat="47.03579" lon="0.80481">
        <ele>99.7</ele>
        <time>2020-07-03T14:09:46Z</time>
      </trkpt>
      <trkpt lat="47.03576" lon="0.80476">
        <ele>99.8</ele>
        <time>2020-07-03T14:09:47Z</time>
      </trkpt>
      <trkpt lat="47.03573" lon="0.8047">
        <ele>99.9</ele>
        <time>2020-07-03T14:09:48Z</time>
      </trkpt>
      <trkpt lat="47.03571" lon="0.80465">
        <ele>100</ele>
        <time>2020-07-03T14:09:49Z</time>
      </trkpt>
      <trkpt lat="47.03569" lon="0.8046">
        <ele>100.1</ele>
        <time>2020-07-03T14:09:50Z</time>
      </trkpt>
      <trkpt lat="47.03565" lon="0.80454">
        <ele>100.2</ele>
        <time>2020-07-03T14:09:51Z</time>
      </trkpt>
      <trkpt lat="47.03562" lon="0.80449">
        <ele>100.3</ele>
        <time>2020-07-03T14:09:52Z</time>
      </trkpt>
      <trkpt lat="47.03559" lon="0.80443">
        <ele>100.5</ele>
        <time>2020-07-03T14:09:53Z</time>
      </trkpt>
      <trkpt lat="47.03557" lon="0.80439">
        <ele>100.5</ele>
        <time>2020-07-03T14:09:54Z</time>
      </trkpt>
      <trkpt lat="47.03555" lon="0.80434">
        <ele>100.6</ele>
        <time>2020-07-03T14:09:55Z</time>
      </trkpt>
      <trkpt lat="47.03553" lon="0.8043">
        <ele>100.7</ele>
        <time>2020-07-03T14:09:56Z</time>
      </trkpt>
      <trkpt lat="47.03551" lon="0.80425">
        <ele>100.8</ele>
        <time>2020-07-03T14:09:57Z</time>
      </trkpt>
      <trkpt lat="47.03549" lon="0.80421">
        <ele>100.9</ele>
        <time>2020-07-03T14:09:58Z</time>
      </trkpt>
      <trkpt lat="47.03546" lon="0.80416">
        <ele>100.9</ele>
        <time>2020-07-03T14:09:59Z</time>
      </trkpt>
      <trkpt lat="47.03543" lon="0.80409">
        <ele>101.1</ele>
        <time>2020-07-03T14:10:00Z</time>
      </trkpt>
      <trkpt lat="47.03541" lon="0.80403">
        <ele>101.2</ele>
        <time>2020-07-03T14:10:01Z</time>
      </trkpt>
      <trkpt lat="47.03539" lon="0.80397">
        <ele>101.4</ele>
        <time>2020-07-03T14:10:02Z</time>
      </trkpt>
      <trkpt lat="47.03536" lon="0.80393">
        <ele>101.5</ele>
        <time>2020-07-03T14:10:03Z</time>
      </trkpt>
      <trkpt lat="47.03534" lon="0.8039">
        <ele>101.6</ele>
        <time>2020-07-03T14:10:04Z</time>
      </trkpt>
      <trkpt lat="47.03531" lon="0.80384">
        <ele>101.7</ele>
        <time>2020-07-03T14:10:05Z</time>
      </trkpt>
      <trkpt lat="47.03528" lon="0.80379">
        <ele>101.8</ele>
        <time>2020-07-03T14:10:06Z</time>
      </trkpt>
      <trkpt lat="47.03525" lon="0.80374">
        <ele>102</ele>
        <time>2020-07-03T14:10:07Z</time>
      </trkpt>
      <trkpt lat="47.03522" lon="0.80369">
        <ele>102.1</ele>
        <time>2020-07-03T14:10:08Z</time>
      </trkpt>
      <trkpt lat="47.0352" lon="0.80362">
        <ele>102.2</ele>
        <time>2020-07-03T14:10:09Z</time>
      </trkpt>
      <trkpt lat="47.03517" lon="0.80358">
        <ele>102.3</ele>
        <time>2020-07-03T14:10:10Z</time>
      </trkpt>
      <trkpt lat="47.03514" lon="0.80353">
        <ele>102.5</ele>
        <time>2020-07-03T14:10:11Z</time>
      </trkpt>
      <trkpt lat="47.03511" lon="0.80348">
        <ele>102.6</ele>
        <time>2020-07-03T14:10:12Z</time>
      </trkpt>
      <trkpt lat="47.03509" lon="0.80342">
        <ele>102.7</ele>
        <time>2020-07-03T14:10:13Z</time>
      </trkpt>
      <trkpt lat="47.03507" lon="0.80337">
        <ele>102.7</ele>
        <time>2020-07-03T14:10:14Z</time>
      </trkpt>
      <trkpt lat="47.03504" lon="0.80333">
        <ele>102.8</ele>
        <time>2020-07-03T14:10:15Z</time>
      </trkpt>
      <trkpt lat="47.03501" lon="0.80327">
        <ele>102.9</ele>
        <time>2020-07-03T14:10:16Z</time>
      </trkpt>
      <trkpt lat="47.03498" lon="0.80322">
        <ele>103</ele>
        <time>2020-07-03T14:10:17Z</time>
      </trkpt>
      <trkpt lat="47.03496" lon="0.80316">
        <ele>103.1</ele>
        <time>2020-07-03T14:10:18Z</time>
      </trkpt>
      <trkpt lat="47.03493" lon="0.8031">
        <ele>103.1</ele>
        <time>2020-07-03T14:10:19Z</time>
      </trkpt>
      <trkpt lat="47.0349" lon="0.80305">
        <ele>103.2</ele>
        <time>2020-07-03T14:10:20Z</time>
      </trkpt>
      <trkpt lat="47.03487" lon="0.803">
        <ele>103.2</ele>
        <time>2020-07-03T14:10:21Z</time>
      </trkpt>
      <trkpt lat="47.03484" lon="0.80294">
        <ele>103.2</ele>
        <time>2020-07-03T14:10:22Z</time>
      </trkpt>
      <trkpt lat="47.03481" lon="0.80289">
        <ele>103.1</ele>
        <time>2020-07-03T14:10:23Z</time>
      </trkpt>
      <trkpt lat="47.03478" lon="0.80283">
        <ele>103.1</ele>
        <time>2020-07-03T14:10:24Z</time>
      </trkpt>
      <trkpt lat="47.03475" lon="0.80276">
        <ele>103</ele>
        <time>2020-07-03T14:10:25Z</time>
      </trkpt>
      <trkpt lat="47.03472" lon="0.8027">
        <ele>103</ele>
        <time>2020-07-03T14:10:26Z</time>
      </trkpt>
      <trkpt lat="47.03469" lon="0.80265">
        <ele>103</ele>
        <time>2020-07-03T14:10:27Z</time>
      </trkpt>
      <trkpt lat="47.03464" lon="0.80255">
        <ele>102.9</ele>
        <time>2020-07-03T14:10:28Z</time>
      </trkpt>
      <trkpt lat="47.03461" lon="0.80248">
        <ele>102.9</ele>
        <time>2020-07-03T14:10:29Z</time>
      </trkpt>
      <trkpt lat="47.03457" lon="0.80243">
        <ele>102.9</ele>
        <time>2020-07-03T14:10:30Z</time>
      </trkpt>
      <trkpt lat="47.03455" lon="0.8024">
        <ele>102.8</ele>
        <time>2020-07-03T14:10:31Z</time>
      </trkpt>
      <trkpt lat="47.03451" lon="0.80233">
        <ele>102.7</ele>
        <time>2020-07-03T14:10:32Z</time>
      </trkpt>
      <trkpt lat="47.03447" lon="0.80227">
        <ele>102.6</ele>
        <time>2020-07-03T14:10:33Z</time>
      </trkpt>
      <trkpt lat="47.03443" lon="0.8022">
        <ele>102.5</ele>
        <time>2020-07-03T14:10:34Z</time>
      </trkpt>
      <trkpt lat="47.03439" lon="0.80213">
        <ele>102.4</ele>
        <time>2020-07-03T14:10:35Z</time>
      </trkpt>
      <trkpt lat="47.03435" lon="0.80206">
        <ele>102.3</ele>
        <time>2020-07-03T14:10:36Z</time>
      </trkpt>
      <trkpt lat="47.03431" lon="0.80199">
        <ele>102.2</ele>
        <time>2020-07-03T14:10:37Z</time>
      </trkpt>
      <trkpt lat="47.03427" lon="0.8019">
        <ele>102.1</ele>
        <time>2020-07-03T14:10:38Z</time>
      </trkpt>
      <trkpt lat="47.03423" lon="0.80182">
        <ele>102</ele>
        <time>2020-07-03T14:10:39Z</time>
      </trkpt>
      <trkpt lat="47.03419" lon="0.80174">
        <ele>101.9</ele>
        <time>2020-07-03T14:10:40Z</time>
      </trkpt>
      <trkpt lat="47.03415" lon="0.80167">
        <ele>101.8</ele>
        <time>2020-07-03T14:10:41Z</time>
      </trkpt>
      <trkpt lat="47.03411" lon="0.8016">
        <ele>101.7</ele>
        <time>2020-07-03T14:10:42Z</time>
      </trkpt>
      <trkpt lat="47.03406" lon="0.80151">
        <ele>101.6</ele>
        <time>2020-07-03T14:10:43Z</time>
      </trkpt>
      <trkpt lat="47.03402" lon="0.80143">
        <ele>101.6</ele>
        <time>2020-07-03T14:10:44Z</time>
      </trkpt>
      <trkpt lat="47.03398" lon="0.80136">
        <ele>101.6</ele>
        <time>2020-07-03T14:10:45Z</time>
      </trkpt>
      <trkpt lat="47.03394" lon="0.80129">
        <ele>101.6</ele>
        <time>2020-07-03T14:10:46Z</time>
      </trkpt>
      <trkpt lat="47.0339" lon="0.80122">
        <ele>101.6</ele>
        <time>2020-07-03T14:10:47Z</time>
      </trkpt>
      <trkpt lat="47.03387" lon="0.80115">
        <ele>101.6</ele>
        <time>2020-07-03T14:10:48Z</time>
      </trkpt>
      <trkpt lat="47.03383" lon="0.80108">
        <ele>101.6</ele>
        <time>2020-07-03T14:10:49Z</time>
      </trkpt>
      <trkpt lat="47.03379" lon="0.801">
        <ele>101.6</ele>
        <time>2020-07-03T14:10:50Z</time>
      </trkpt>
      <trkpt lat="47.03375" lon="0.80095">
        <ele>101.6</ele>
        <time>2020-07-03T14:10:51Z</time>
      </trkpt>
      <trkpt lat="47.03371" lon="0.80087">
        <ele>101.6</ele>
        <time>2020-07-03T14:10:52Z</time>
      </trkpt>
      <trkpt lat="47.03367" lon="0.80082">
        <ele>101.6</ele>
        <time>2020-07-03T14:10:53Z</time>
      </trkpt>
      <trkpt lat="47.03364" lon="0.80075">
        <ele>101.7</ele>
        <time>2020-07-03T14:10:54Z</time>
      </trkpt>
      <trkpt lat="47.0336" lon="0.80068">
        <ele>101.7</ele>
        <time>2020-07-03T14:10:55Z</time>
      </trkpt>
      <trkpt lat="47.03357" lon="0.80062">
        <ele>101.7</ele>
        <time>2020-07-03T14:10:56Z</time>
      </trkpt>
      <trkpt lat="47.03354" lon="0.80055">
        <ele>101.8</ele>
        <time>2020-07-03T14:10:57Z</time>
      </trkpt>
      <trkpt lat="47.03351" lon="0.80048">
        <ele>101.9</ele>
        <time>2020-07-03T14:10:58Z</time>
      </trkpt>
      <trkpt lat="47.03348" lon="0.80041">
        <ele>101.9</ele>
        <time>2020-07-03T14:10:59Z</time>
      </trkpt>
      <trkpt lat="47.03345" lon="0.80035">
        <ele>102</ele>
        <time>2020-07-03T14:11:00Z</time>
      </trkpt>
      <trkpt lat="47.03342" lon="0.80029">
        <ele>102.1</ele>
        <time>2020-07-03T14:11:01Z</time>
      </trkpt>
      <trkpt lat="47.03338" lon="0.80021">
        <ele>102.2</ele>
        <time>2020-07-03T14:11:02Z</time>
      </trkpt>
      <trkpt lat="47.03335" lon="0.80015">
        <ele>102.3</ele>
        <time>2020-07-03T14:11:03Z</time>
      </trkpt>
      <trkpt lat="47.03331" lon="0.80011">
        <ele>102.3</ele>
        <time>2020-07-03T14:11:04Z</time>
      </trkpt>
      <trkpt lat="47.03329" lon="0.80003">
        <ele>102.4</ele>
        <time>2020-07-03T14:11:05Z</time>
      </trkpt>
      <trkpt lat="47.03326" lon="0.79997">
        <ele>102.4</ele>
        <time>2020-07-03T14:11:06Z</time>
      </trkpt>
      <trkpt lat="47.03323" lon="0.79993">
        <ele>102.4</ele>
        <time>2020-07-03T14:11:07Z</time>
      </trkpt>
      <trkpt lat="47.0332" lon="0.79986">
        <ele>102.4</ele>
        <time>2020-07-03T14:11:08Z</time>
      </trkpt>
      <trkpt lat="47.03317" lon="0.79981">
        <ele>102.5</ele>
        <time>2020-07-03T14:11:09Z</time>
      </trkpt>
      <trkpt lat="47.03314" lon="0.79975">
        <ele>102.5</ele>
        <time>2020-07-03T14:11:10Z</time>
      </trkpt>
      <trkpt lat="47.03311" lon="0.79971">
        <ele>102.5</ele>
        <time>2020-07-03T14:11:11Z</time>
      </trkpt>
      <trkpt lat="47.03307" lon="0.79965">
        <ele>102.6</ele>
        <time>2020-07-03T14:11:12Z</time>
      </trkpt>
      <trkpt lat="47.03303" lon="0.79958">
        <ele>102.6</ele>
        <time>2020-07-03T14:11:13Z</time>
      </trkpt>
      <trkpt lat="47.033" lon="0.79953">
        <ele>102.6</ele>
        <time>2020-07-03T14:11:14Z</time>
      </trkpt>
      <trkpt lat="47.03297" lon="0.79946">
        <ele>102.6</ele>
        <time>2020-07-03T14:11:15Z</time>
      </trkpt>
      <trkpt lat="47.03294" lon="0.79942">
        <ele>102.6</ele>
        <time>2020-07-03T14:11:16Z</time>
      </trkpt>
      <trkpt lat="47.03291" lon="0.79934">
        <ele>102.6</ele>
        <time>2020-07-03T14:11:17Z</time>
      </trkpt>
      <trkpt lat="47.03288" lon="0.79928">
        <ele>102.6</ele>
        <time>2020-07-03T14:11:18Z</time>
      </trkpt>
      <trkpt lat="47.03285" lon="0.79922">
        <ele>102.7</ele>
        <time>2020-07-03T14:11:19Z</time>
      </trkpt>
      <trkpt lat="47.03282" lon="0.79916">
        <ele>102.7</ele>
        <time>2020-07-03T14:11:20Z</time>
      </trkpt>
      <trkpt lat="47.03279" lon="0.7991">
        <ele>102.8</ele>
        <time>2020-07-03T14:11:21Z</time>
      </trkpt>
      <trkpt lat="47.03277" lon="0.79902">
        <ele>102.8</ele>
        <time>2020-07-03T14:11:22Z</time>
      </trkpt>
      <trkpt lat="47.03275" lon="0.79893">
        <ele>103</ele>
        <time>2020-07-03T14:11:23Z</time>
      </trkpt>
      <trkpt lat="47.03274" lon="0.79885">
        <ele>102.9</ele>
        <time>2020-07-03T14:11:24Z</time>
      </trkpt>
      <trkpt lat="47.03271" lon="0.79878">
        <ele>102.7</ele>
        <time>2020-07-03T14:11:25Z</time>
      </trkpt>
      <trkpt lat="47.03268" lon="0.79871">
        <ele>102.4</ele>
        <time>2020-07-03T14:11:26Z</time>
      </trkpt>
      <trkpt lat="47.03265" lon="0.79866">
        <ele>103.5</ele>
        <time>2020-07-03T14:11:27Z</time>
      </trkpt>
      <trkpt lat="47.03261" lon="0.79863">
        <ele>103.5</ele>
        <time>2020-07-03T14:11:28Z</time>
      </trkpt>
      <trkpt lat="47.03256" lon="0.79859">
        <ele>103.5</ele>
        <time>2020-07-03T14:11:29Z</time>
      </trkpt>
      <trkpt lat="47.03252" lon="0.79854">
        <ele>103.5</ele>
        <time>2020-07-03T14:11:30Z</time>
      </trkpt>
      <trkpt lat="47.03248" lon="0.79849">
        <ele>103.6</ele>
        <time>2020-07-03T14:11:31Z</time>
      </trkpt>
      <trkpt lat="47.03244" lon="0.79845">
        <ele>103.6</ele>
        <time>2020-07-03T14:11:32Z</time>
      </trkpt>
      <trkpt lat="47.0324" lon="0.79839">
        <ele>103.7</ele>
        <time>2020-07-03T14:11:33Z</time>
      </trkpt>
      <trkpt lat="47.03237" lon="0.79834">
        <ele>103.7</ele>
        <time>2020-07-03T14:11:34Z</time>
      </trkpt>
      <trkpt lat="47.03234" lon="0.79831">
        <ele>103.7</ele>
        <time>2020-07-03T14:11:35Z</time>
      </trkpt>
      <trkpt lat="47.0323" lon="0.79824">
        <ele>103.7</ele>
        <time>2020-07-03T14:11:36Z</time>
      </trkpt>
      <trkpt lat="47.03226" lon="0.79818">
        <ele>103.7</ele>
        <time>2020-07-03T14:11:37Z</time>
      </trkpt>
      <trkpt lat="47.03223" lon="0.79811">
        <ele>103.7</ele>
        <time>2020-07-03T14:11:38Z</time>
      </trkpt>
      <trkpt lat="47.0322" lon="0.79807">
        <ele>103.7</ele>
        <time>2020-07-03T14:11:39Z</time>
      </trkpt>
      <trkpt lat="47.03218" lon="0.798">
        <ele>103.8</ele>
        <time>2020-07-03T14:11:40Z</time>
      </trkpt>
      <trkpt lat="47.03215" lon="0.79794">
        <ele>103.8</ele>
        <time>2020-07-03T14:11:41Z</time>
      </trkpt>
      <trkpt lat="47.03212" lon="0.79788">
        <ele>103.8</ele>
        <time>2020-07-03T14:11:42Z</time>
      </trkpt>
      <trkpt lat="47.03209" lon="0.79782">
        <ele>103.9</ele>
        <time>2020-07-03T14:11:43Z</time>
      </trkpt>
      <trkpt lat="47.03206" lon="0.79778">
        <ele>103.9</ele>
        <time>2020-07-03T14:11:44Z</time>
      </trkpt>
      <trkpt lat="47.03203" lon="0.79773">
        <ele>104</ele>
        <time>2020-07-03T14:11:45Z</time>
      </trkpt>
      <trkpt lat="47.03199" lon="0.79767">
        <ele>104</ele>
        <time>2020-07-03T14:11:46Z</time>
      </trkpt>
      <trkpt lat="47.03195" lon="0.79761">
        <ele>104.1</ele>
        <time>2020-07-03T14:11:47Z</time>
      </trkpt>
      <trkpt lat="47.03191" lon="0.79754">
        <ele>104.2</ele>
        <time>2020-07-03T14:11:48Z</time>
      </trkpt>
      <trkpt lat="47.03188" lon="0.79747">
        <ele>104.2</ele>
        <time>2020-07-03T14:11:49Z</time>
      </trkpt>
      <trkpt lat="47.03185" lon="0.79742">
        <ele>104.2</ele>
        <time>2020-07-03T14:11:50Z</time>
      </trkpt>
      <trkpt lat="47.03182" lon="0.79736">
        <ele>104.3</ele>
        <time>2020-07-03T14:11:51Z</time>
      </trkpt>
      <trkpt lat="47.03179" lon="0.79729">
        <ele>104.3</ele>
        <time>2020-07-03T14:11:52Z</time>
      </trkpt>
      <trkpt lat="47.03176" lon="0.79723">
        <ele>104.4</ele>
        <time>2020-07-03T14:11:53Z</time>
      </trkpt>
      <trkpt lat="47.03174" lon="0.79717">
        <ele>104.4</ele>
        <time>2020-07-03T14:11:54Z</time>
      </trkpt>
      <trkpt lat="47.03171" lon="0.79713">
        <ele>104.4</ele>
        <time>2020-07-03T14:11:55Z</time>
      </trkpt>
      <trkpt lat="47.03168" lon="0.79707">
        <ele>104.5</ele>
        <time>2020-07-03T14:11:56Z</time>
      </trkpt>
      <trkpt lat="47.03164" lon="0.797">
        <ele>104.5</ele>
        <time>2020-07-03T14:11:57Z</time>
      </trkpt>
      <trkpt lat="47.03162" lon="0.79696">
        <ele>104.6</ele>
        <time>2020-07-03T14:11:58Z</time>
      </trkpt>
      <trkpt lat="47.03158" lon="0.7969">
        <ele>104.6</ele>
        <time>2020-07-03T14:11:59Z</time>
      </trkpt>
      <trkpt lat="47.03155" lon="0.79683">
        <ele>104.6</ele>
        <time>2020-07-03T14:12:00Z</time>
      </trkpt>
      <trkpt lat="47.03152" lon="0.79677">
        <ele>104.6</ele>
        <time>2020-07-03T14:12:01Z</time>
      </trkpt>
      <trkpt lat="47.03149" lon="0.79671">
        <ele>104.5</ele>
        <time>2020-07-03T14:12:02Z</time>
      </trkpt>
      <trkpt lat="47.03146" lon="0.79665">
        <ele>104.5</ele>
        <time>2020-07-03T14:12:03Z</time>
      </trkpt>
      <trkpt lat="47.03143" lon="0.79659">
        <ele>104.5</ele>
        <time>2020-07-03T14:12:04Z</time>
      </trkpt>
      <trkpt lat="47.0314" lon="0.79652">
        <ele>104.4</ele>
        <time>2020-07-03T14:12:05Z</time>
      </trkpt>
      <trkpt lat="47.03136" lon="0.79647">
        <ele>104.5</ele>
        <time>2020-07-03T14:12:06Z</time>
      </trkpt>
      <trkpt lat="47.03133" lon="0.79639">
        <ele>104.5</ele>
        <time>2020-07-03T14:12:07Z</time>
      </trkpt>
      <trkpt lat="47.03129" lon="0.79632">
        <ele>104.5</ele>
        <time>2020-07-03T14:12:08Z</time>
      </trkpt>
      <trkpt lat="47.03125" lon="0.79624">
        <ele>104.5</ele>
        <time>2020-07-03T14:12:09Z</time>
      </trkpt>
      <trkpt lat="47.03121" lon="0.79618">
        <ele>104.5</ele>
        <time>2020-07-03T14:12:10Z</time>
      </trkpt>
      <trkpt lat="47.03118" lon="0.79612">
        <ele>104.4</ele>
        <time>2020-07-03T14:12:11Z</time>
      </trkpt>
      <trkpt lat="47.03114" lon="0.79606">
        <ele>104.4</ele>
        <time>2020-07-03T14:12:12Z</time>
      </trkpt>
      <trkpt lat="47.0311" lon="0.796">
        <ele>104.3</ele>
        <time>2020-07-03T14:12:13Z</time>
      </trkpt>
      <trkpt lat="47.03107" lon="0.79594">
        <ele>104.3</ele>
        <time>2020-07-03T14:12:14Z</time>
      </trkpt>
      <trkpt lat="47.03104" lon="0.79586">
        <ele>104.2</ele>
        <time>2020-07-03T14:12:15Z</time>
      </trkpt>
      <trkpt lat="47.03101" lon="0.7958">
        <ele>104.2</ele>
        <time>2020-07-03T14:12:16Z</time>
      </trkpt>
      <trkpt lat="47.03097" lon="0.79573">
        <ele>104.1</ele>
        <time>2020-07-03T14:12:17Z</time>
      </trkpt>
      <trkpt lat="47.03093" lon="0.79564">
        <ele>104</ele>
        <time>2020-07-03T14:12:18Z</time>
      </trkpt>
      <trkpt lat="47.0309" lon="0.79558">
        <ele>103.9</ele>
        <time>2020-07-03T14:12:19Z</time>
      </trkpt>
      <trkpt lat="47.03087" lon="0.79552">
        <ele>103.9</ele>
        <time>2020-07-03T14:12:20Z</time>
      </trkpt>
      <trkpt lat="47.03083" lon="0.79545">
        <ele>103.7</ele>
        <time>2020-07-03T14:12:21Z</time>
      </trkpt>
      <trkpt lat="47.03079" lon="0.79537">
        <ele>103.5</ele>
        <time>2020-07-03T14:12:22Z</time>
      </trkpt>
      <trkpt lat="47.03074" lon="0.79529">
        <ele>103.3</ele>
        <time>2020-07-03T14:12:23Z</time>
      </trkpt>
      <trkpt lat="47.0307" lon="0.79519">
        <ele>103</ele>
        <time>2020-07-03T14:12:24Z</time>
      </trkpt>
      <trkpt lat="47.03066" lon="0.79513">
        <ele>102.9</ele>
        <time>2020-07-03T14:12:25Z</time>
      </trkpt>
      <trkpt lat="47.03062" lon="0.79504">
        <ele>102.7</ele>
        <time>2020-07-03T14:12:26Z</time>
      </trkpt>
      <trkpt lat="47.03058" lon="0.79497">
        <ele>102.5</ele>
        <time>2020-07-03T14:12:27Z</time>
      </trkpt>
      <trkpt lat="47.03054" lon="0.7949">
        <ele>102.3</ele>
        <time>2020-07-03T14:12:28Z</time>
      </trkpt>
      <trkpt lat="47.03051" lon="0.79482">
        <ele>102</ele>
        <time>2020-07-03T14:12:29Z</time>
      </trkpt>
      <trkpt lat="47.03047" lon="0.79474">
        <ele>101.7</ele>
        <time>2020-07-03T14:12:30Z</time>
      </trkpt>
      <trkpt lat="47.03044" lon="0.79466">
        <ele>101.4</ele>
        <time>2020-07-03T14:12:31Z</time>
      </trkpt>
      <trkpt lat="47.0304" lon="0.79457">
        <ele>101</ele>
        <time>2020-07-03T14:12:32Z</time>
      </trkpt>
      <trkpt lat="47.03036" lon="0.79448">
        <ele>100.6</ele>
        <time>2020-07-03T14:12:33Z</time>
      </trkpt>
      <trkpt lat="47.03032" lon="0.79438">
        <ele>100.2</ele>
        <time>2020-07-03T14:12:34Z</time>
      </trkpt>
      <trkpt lat="47.03028" lon="0.79429">
        <ele>99.8</ele>
        <time>2020-07-03T14:12:35Z</time>
      </trkpt>
      <trkpt lat="47.03025" lon="0.79419">
        <ele>99.3</ele>
        <time>2020-07-03T14:12:36Z</time>
      </trkpt>
      <trkpt lat="47.03021" lon="0.79409">
        <ele>98.7</ele>
        <time>2020-07-03T14:12:37Z</time>
      </trkpt>
      <trkpt lat="47.03017" lon="0.79399">
        <ele>98.2</ele>
        <time>2020-07-03T14:12:38Z</time>
      </trkpt>
      <trkpt lat="47.03013" lon="0.79388">
        <ele>97.6</ele>
        <time>2020-07-03T14:12:39Z</time>
      </trkpt>
      <trkpt lat="47.03009" lon="0.79378">
        <ele>96.9</ele>
        <time>2020-07-03T14:12:40Z</time>
      </trkpt>
      <trkpt lat="47.03005" lon="0.79367">
        <ele>96.3</ele>
        <time>2020-07-03T14:12:41Z</time>
      </trkpt>
      <trkpt lat="47.03001" lon="0.79355">
        <ele>95.6</ele>
        <time>2020-07-03T14:12:42Z</time>
      </trkpt>
      <trkpt lat="47.02997" lon="0.79344">
        <ele>94.9</ele>
        <time>2020-07-03T14:12:43Z</time>
      </trkpt>
      <trkpt lat="47.02992" lon="0.79333">
        <ele>94.3</ele>
        <time>2020-07-03T14:12:44Z</time>
      </trkpt>
      <trkpt lat="47.02988" lon="0.79322">
        <ele>93.8</ele>
        <time>2020-07-03T14:12:45Z</time>
      </trkpt>
      <trkpt lat="47.02984" lon="0.79311">
        <ele>93.4</ele>
        <time>2020-07-03T14:12:46Z</time>
      </trkpt>
      <trkpt lat="47.02979" lon="0.793">
        <ele>93</ele>
        <time>2020-07-03T14:12:47Z</time>
      </trkpt>
      <trkpt lat="47.02975" lon="0.79289">
        <ele>92.6</ele>
        <time>2020-07-03T14:12:48Z</time>
      </trkpt>
      <trkpt lat="47.0297" lon="0.79278">
        <ele>92.1</ele>
        <time>2020-07-03T14:12:49Z</time>
      </trkpt>
      <trkpt lat="47.02965" lon="0.79268">
        <ele>91.8</ele>
        <time>2020-07-03T14:12:50Z</time>
      </trkpt>
      <trkpt lat="47.0296" lon="0.79258">
        <ele>91.5</ele>
        <time>2020-07-03T14:12:51Z</time>
      </trkpt>
      <trkpt lat="47.02955" lon="0.79248">
        <ele>91.3</ele>
        <time>2020-07-03T14:12:52Z</time>
      </trkpt>
      <trkpt lat="47.0295" lon="0.79239">
        <ele>91.1</ele>
        <time>2020-07-03T14:12:53Z</time>
      </trkpt>
      <trkpt lat="47.02944" lon="0.79229">
        <ele>90.8</ele>
        <time>2020-07-03T14:12:54Z</time>
      </trkpt>
      <trkpt lat="47.02938" lon="0.7922">
        <ele>90.5</ele>
        <time>2020-07-03T14:12:55Z</time>
      </trkpt>
      <trkpt lat="47.02933" lon="0.79211">
        <ele>90.2</ele>
        <time>2020-07-03T14:12:56Z</time>
      </trkpt>
      <trkpt lat="47.02927" lon="0.79202">
        <ele>90</ele>
        <time>2020-07-03T14:12:57Z</time>
      </trkpt>
      <trkpt lat="47.02922" lon="0.79193">
        <ele>89.7</ele>
        <time>2020-07-03T14:12:58Z</time>
      </trkpt>
      <trkpt lat="47.02916" lon="0.79185">
        <ele>89.5</ele>
        <time>2020-07-03T14:12:59Z</time>
      </trkpt>
      <trkpt lat="47.0291" lon="0.79178">
        <ele>89.2</ele>
        <time>2020-07-03T14:13:00Z</time>
      </trkpt>
      <trkpt lat="47.02905" lon="0.7917">
        <ele>89</ele>
        <time>2020-07-03T14:13:01Z</time>
      </trkpt>
      <trkpt lat="47.02899" lon="0.79163">
        <ele>88.9</ele>
        <time>2020-07-03T14:13:02Z</time>
      </trkpt>
      <trkpt lat="47.02893" lon="0.79156">
        <ele>88.8</ele>
        <time>2020-07-03T14:13:03Z</time>
      </trkpt>
      <trkpt lat="47.02886" lon="0.7915">
        <ele>88.7</ele>
        <time>2020-07-03T14:13:04Z</time>
      </trkpt>
      <trkpt lat="47.0288" lon="0.79144">
        <ele>88.7</ele>
        <time>2020-07-03T14:13:05Z</time>
      </trkpt>
      <trkpt lat="47.02874" lon="0.79138">
        <ele>88.6</ele>
        <time>2020-07-03T14:13:06Z</time>
      </trkpt>
      <trkpt lat="47.02867" lon="0.79132">
        <ele>88.2</ele>
        <time>2020-07-03T14:13:07Z</time>
      </trkpt>
      <trkpt lat="47.02861" lon="0.79126">
        <ele>87.8</ele>
        <time>2020-07-03T14:13:08Z</time>
      </trkpt>
      <trkpt lat="47.02855" lon="0.7912">
        <ele>87.8</ele>
        <time>2020-07-03T14:13:09Z</time>
      </trkpt>
      <trkpt lat="47.02848" lon="0.79114">
        <ele>87.8</ele>
        <time>2020-07-03T14:13:10Z</time>
      </trkpt>
      <trkpt lat="47.02842" lon="0.79107">
        <ele>87.8</ele>
        <time>2020-07-03T14:13:11Z</time>
      </trkpt>
      <trkpt lat="47.02835" lon="0.79101">
        <ele>87.8</ele>
        <time>2020-07-03T14:13:12Z</time>
      </trkpt>
      <trkpt lat="47.02829" lon="0.79095">
        <ele>87.9</ele>
        <time>2020-07-03T14:13:13Z</time>
      </trkpt>
      <trkpt lat="47.02823" lon="0.7909">
        <ele>88.1</ele>
        <time>2020-07-03T14:13:14Z</time>
      </trkpt>
      <trkpt lat="47.02817" lon="0.79084">
        <ele>88.3</ele>
        <time>2020-07-03T14:13:15Z</time>
      </trkpt>
      <trkpt lat="47.02812" lon="0.79078">
        <ele>88.4</ele>
        <time>2020-07-03T14:13:16Z</time>
      </trkpt>
      <trkpt lat="47.02806" lon="0.79073">
        <ele>88.6</ele>
        <time>2020-07-03T14:13:17Z</time>
      </trkpt>
      <trkpt lat="47.02801" lon="0.79067">
        <ele>88.9</ele>
        <time>2020-07-03T14:13:18Z</time>
      </trkpt>
      <trkpt lat="47.02796" lon="0.79062">
        <ele>89</ele>
        <time>2020-07-03T14:13:19Z</time>
      </trkpt>
      <trkpt lat="47.02791" lon="0.79056">
        <ele>89.2</ele>
        <time>2020-07-03T14:13:20Z</time>
      </trkpt>
      <trkpt lat="47.02787" lon="0.7905">
        <ele>89.3</ele>
        <time>2020-07-03T14:13:21Z</time>
      </trkpt>
      <trkpt lat="47.02782" lon="0.79045">
        <ele>89.4</ele>
        <time>2020-07-03T14:13:22Z</time>
      </trkpt>
      <trkpt lat="47.02777" lon="0.7904">
        <ele>89.6</ele>
        <time>2020-07-03T14:13:23Z</time>
      </trkpt>
      <trkpt lat="47.02772" lon="0.79035">
        <ele>89.8</ele>
        <time>2020-07-03T14:13:24Z</time>
      </trkpt>
      <trkpt lat="47.02768" lon="0.79029">
        <ele>90</ele>
        <time>2020-07-03T14:13:25Z</time>
      </trkpt>
      <trkpt lat="47.02763" lon="0.79025">
        <ele>90.2</ele>
        <time>2020-07-03T14:13:26Z</time>
      </trkpt>
      <trkpt lat="47.02758" lon="0.7902">
        <ele>90.4</ele>
        <time>2020-07-03T14:13:27Z</time>
      </trkpt>
      <trkpt lat="47.02753" lon="0.79016">
        <ele>90.6</ele>
        <time>2020-07-03T14:13:28Z</time>
      </trkpt>
      <trkpt lat="47.02748" lon="0.79013">
        <ele>90.9</ele>
        <time>2020-07-03T14:13:29Z</time>
      </trkpt>
      <trkpt lat="47.02744" lon="0.79009">
        <ele>91.1</ele>
        <time>2020-07-03T14:13:30Z</time>
      </trkpt>
      <trkpt lat="47.02739" lon="0.79006">
        <ele>91.3</ele>
        <time>2020-07-03T14:13:31Z</time>
      </trkpt>
      <trkpt lat="47.02735" lon="0.79003">
        <ele>91.6</ele>
        <time>2020-07-03T14:13:32Z</time>
      </trkpt>
      <trkpt lat="47.0273" lon="0.78999">
        <ele>91.8</ele>
        <time>2020-07-03T14:13:33Z</time>
      </trkpt>
      <trkpt lat="47.02728" lon="0.78995">
        <ele>92</ele>
        <time>2020-07-03T14:13:34Z</time>
      </trkpt>
      <trkpt lat="47.02723" lon="0.7899">
        <ele>92.2</ele>
        <time>2020-07-03T14:13:35Z</time>
      </trkpt>
      <trkpt lat="47.0272" lon="0.78986">
        <ele>92.4</ele>
        <time>2020-07-03T14:13:36Z</time>
      </trkpt>
      <trkpt lat="47.02717" lon="0.78983">
        <ele>92.5</ele>
        <time>2020-07-03T14:13:37Z</time>
      </trkpt>
      <trkpt lat="47.02714" lon="0.78981">
        <ele>92.6</ele>
        <time>2020-07-03T14:13:38Z</time>
      </trkpt>
      <trkpt lat="47.0271" lon="0.78978">
        <ele>92.8</ele>
        <time>2020-07-03T14:13:39Z</time>
      </trkpt>
      <trkpt lat="47.02707" lon="0.78974">
        <ele>92.9</ele>
        <time>2020-07-03T14:13:40Z</time>
      </trkpt>
      <trkpt lat="47.02704" lon="0.7897">
        <ele>93.1</ele>
        <time>2020-07-03T14:13:41Z</time>
      </trkpt>
      <trkpt lat="47.02701" lon="0.78967">
        <ele>93.2</ele>
        <time>2020-07-03T14:13:42Z</time>
      </trkpt>
      <trkpt lat="47.02698" lon="0.78965">
        <ele>93.4</ele>
        <time>2020-07-03T14:13:43Z</time>
      </trkpt>
      <trkpt lat="47.02694" lon="0.78961">
        <ele>93.5</ele>
        <time>2020-07-03T14:13:44Z</time>
      </trkpt>
      <trkpt lat="47.02691" lon="0.7896">
        <ele>93.6</ele>
        <time>2020-07-03T14:13:45Z</time>
      </trkpt>
      <trkpt lat="47.02687" lon="0.78956">
        <ele>93.8</ele>
        <time>2020-07-03T14:13:46Z</time>
      </trkpt>
      <trkpt lat="47.02684" lon="0.78951">
        <ele>93.8</ele>
        <time>2020-07-03T14:13:47Z</time>
      </trkpt>
      <trkpt lat="47.02682" lon="0.78949">
        <ele>93.9</ele>
        <time>2020-07-03T14:13:48Z</time>
      </trkpt>
      <trkpt lat="47.02679" lon="0.78945">
        <ele>94</ele>
        <time>2020-07-03T14:13:49Z</time>
      </trkpt>
      <trkpt lat="47.02676" lon="0.78942">
        <ele>94</ele>
        <time>2020-07-03T14:13:50Z</time>
      </trkpt>
      <trkpt lat="47.02672" lon="0.78939">
        <ele>94.1</ele>
        <time>2020-07-03T14:13:51Z</time>
      </trkpt>
      <trkpt lat="47.02669" lon="0.78936">
        <ele>94.2</ele>
        <time>2020-07-03T14:13:52Z</time>
      </trkpt>
      <trkpt lat="47.02666" lon="0.78933">
        <ele>94.2</ele>
        <time>2020-07-03T14:13:53Z</time>
      </trkpt>
      <trkpt lat="47.02663" lon="0.78932">
        <ele>94.3</ele>
        <time>2020-07-03T14:13:54Z</time>
      </trkpt>
      <trkpt lat="47.02657" lon="0.78928">
        <ele>94.4</ele>
        <time>2020-07-03T14:13:55Z</time>
      </trkpt>
      <trkpt lat="47.02653" lon="0.78923">
        <ele>94.4</ele>
        <time>2020-07-03T14:13:56Z</time>
      </trkpt>
      <trkpt lat="47.02649" lon="0.7892">
        <ele>94.5</ele>
        <time>2020-07-03T14:13:57Z</time>
      </trkpt>
      <trkpt lat="47.02645" lon="0.78916">
        <ele>94.5</ele>
        <time>2020-07-03T14:13:58Z</time>
      </trkpt>
      <trkpt lat="47.0264" lon="0.7891">
        <ele>94.6</ele>
        <time>2020-07-03T14:13:59Z</time>
      </trkpt>
      <trkpt lat="47.02637" lon="0.78906">
        <ele>94.6</ele>
        <time>2020-07-03T14:14:00Z</time>
      </trkpt>
      <trkpt lat="47.02632" lon="0.78901">
        <ele>94.6</ele>
        <time>2020-07-03T14:14:01Z</time>
      </trkpt>
      <trkpt lat="47.02627" lon="0.78896">
        <ele>94.6</ele>
        <time>2020-07-03T14:14:02Z</time>
      </trkpt>
      <trkpt lat="47.02623" lon="0.78893">
        <ele>94.6</ele>
        <time>2020-07-03T14:14:03Z</time>
      </trkpt>
      <trkpt lat="47.02618" lon="0.78887">
        <ele>94.6</ele>
        <time>2020-07-03T14:14:04Z</time>
      </trkpt>
      <trkpt lat="47.02614" lon="0.78882">
        <ele>94.6</ele>
        <time>2020-07-03T14:14:05Z</time>
      </trkpt>
      <trkpt lat="47.02608" lon="0.78878">
        <ele>94.6</ele>
        <time>2020-07-03T14:14:06Z</time>
      </trkpt>
      <trkpt lat="47.02602" lon="0.78873">
        <ele>94.6</ele>
        <time>2020-07-03T14:14:07Z</time>
      </trkpt>
      <trkpt lat="47.02598" lon="0.78869">
        <ele>94.6</ele>
        <time>2020-07-03T14:14:08Z</time>
      </trkpt>
      <trkpt lat="47.02594" lon="0.78865">
        <ele>94.6</ele>
        <time>2020-07-03T14:14:09Z</time>
      </trkpt>
      <trkpt lat="47.02589" lon="0.7886">
        <ele>94.6</ele>
        <time>2020-07-03T14:14:10Z</time>
      </trkpt>
      <trkpt lat="47.02585" lon="0.78855">
        <ele>94.5</ele>
        <time>2020-07-03T14:14:11Z</time>
      </trkpt>
      <trkpt lat="47.02581" lon="0.7885">
        <ele>94.5</ele>
        <time>2020-07-03T14:14:12Z</time>
      </trkpt>
      <trkpt lat="47.02576" lon="0.78843">
        <ele>94.4</ele>
        <time>2020-07-03T14:14:13Z</time>
      </trkpt>
      <trkpt lat="47.02572" lon="0.78837">
        <ele>94.3</ele>
        <time>2020-07-03T14:14:14Z</time>
      </trkpt>
      <trkpt lat="47.02568" lon="0.78831">
        <ele>94.3</ele>
        <time>2020-07-03T14:14:15Z</time>
      </trkpt>
      <trkpt lat="47.02564" lon="0.78826">
        <ele>94.2</ele>
        <time>2020-07-03T14:14:16Z</time>
      </trkpt>
      <trkpt lat="47.02559" lon="0.7882">
        <ele>94.2</ele>
        <time>2020-07-03T14:14:17Z</time>
      </trkpt>
      <trkpt lat="47.02555" lon="0.78816">
        <ele>94.1</ele>
        <time>2020-07-03T14:14:18Z</time>
      </trkpt>
      <trkpt lat="47.02549" lon="0.78812">
        <ele>94.1</ele>
        <time>2020-07-03T14:14:19Z</time>
      </trkpt>
      <trkpt lat="47.02544" lon="0.78808">
        <ele>94</ele>
        <time>2020-07-03T14:14:20Z</time>
      </trkpt>
      <trkpt lat="47.02539" lon="0.78804">
        <ele>94</ele>
        <time>2020-07-03T14:14:21Z</time>
      </trkpt>
      <trkpt lat="47.02534" lon="0.78799">
        <ele>93.9</ele>
        <time>2020-07-03T14:14:22Z</time>
      </trkpt>
      <trkpt lat="47.02529" lon="0.78794">
        <ele>93.8</ele>
        <time>2020-07-03T14:14:23Z</time>
      </trkpt>
      <trkpt lat="47.02524" lon="0.78787">
        <ele>93.7</ele>
        <time>2020-07-03T14:14:24Z</time>
      </trkpt>
      <trkpt lat="47.02518" lon="0.78781">
        <ele>93.7</ele>
        <time>2020-07-03T14:14:25Z</time>
      </trkpt>
      <trkpt lat="47.02513" lon="0.78775">
        <ele>93.6</ele>
        <time>2020-07-03T14:14:26Z</time>
      </trkpt>
      <trkpt lat="47.02506" lon="0.78769">
        <ele>93.6</ele>
        <time>2020-07-03T14:14:27Z</time>
      </trkpt>
      <trkpt lat="47.025" lon="0.78763">
        <ele>93.5</ele>
        <time>2020-07-03T14:14:28Z</time>
      </trkpt>
      <trkpt lat="47.02496" lon="0.78758">
        <ele>93.5</ele>
        <time>2020-07-03T14:14:29Z</time>
      </trkpt>
      <trkpt lat="47.02493" lon="0.78752">
        <ele>93.4</ele>
        <time>2020-07-03T14:14:30Z</time>
      </trkpt>
      <trkpt lat="47.02487" lon="0.78747">
        <ele>93.4</ele>
        <time>2020-07-03T14:14:31Z</time>
      </trkpt>
      <trkpt lat="47.02482" lon="0.78743">
        <ele>93.4</ele>
        <time>2020-07-03T14:14:32Z</time>
      </trkpt>
      <trkpt lat="47.02477" lon="0.78737">
        <ele>93.2</ele>
        <time>2020-07-03T14:14:33Z</time>
      </trkpt>
      <trkpt lat="47.02471" lon="0.78733">
        <ele>93</ele>
        <time>2020-07-03T14:14:34Z</time>
      </trkpt>
      <trkpt lat="47.02465" lon="0.78727">
        <ele>92.8</ele>
        <time>2020-07-03T14:14:35Z</time>
      </trkpt>
      <trkpt lat="47.02461" lon="0.78721">
        <ele>92.7</ele>
        <time>2020-07-03T14:14:36Z</time>
      </trkpt>
      <trkpt lat="47.02456" lon="0.78716">
        <ele>92.7</ele>
        <time>2020-07-03T14:14:37Z</time>
      </trkpt>
      <trkpt lat="47.02452" lon="0.78712">
        <ele>92.6</ele>
        <time>2020-07-03T14:14:38Z</time>
      </trkpt>
      <trkpt lat="47.02446" lon="0.78707">
        <ele>92.5</ele>
        <time>2020-07-03T14:14:39Z</time>
      </trkpt>
      <trkpt lat="47.0244" lon="0.78703">
        <ele>92.5</ele>
        <time>2020-07-03T14:14:40Z</time>
      </trkpt>
      <trkpt lat="47.02434" lon="0.787">
        <ele>92.5</ele>
        <time>2020-07-03T14:14:41Z</time>
      </trkpt>
      <trkpt lat="47.0243" lon="0.78697">
        <ele>92.5</ele>
        <time>2020-07-03T14:14:42Z</time>
      </trkpt>
      <trkpt lat="47.02424" lon="0.78694">
        <ele>92.4</ele>
        <time>2020-07-03T14:14:43Z</time>
      </trkpt>
      <trkpt lat="47.02419" lon="0.78689">
        <ele>92.4</ele>
        <time>2020-07-03T14:14:44Z</time>
      </trkpt>
      <trkpt lat="47.02414" lon="0.78686">
        <ele>92.4</ele>
        <time>2020-07-03T14:14:45Z</time>
      </trkpt>
      <trkpt lat="47.02408" lon="0.78682">
        <ele>92.4</ele>
        <time>2020-07-03T14:14:46Z</time>
      </trkpt>
      <trkpt lat="47.02403" lon="0.78677">
        <ele>92.3</ele>
        <time>2020-07-03T14:14:47Z</time>
      </trkpt>
      <trkpt lat="47.02398" lon="0.78673">
        <ele>92.3</ele>
        <time>2020-07-03T14:14:48Z</time>
      </trkpt>
      <trkpt lat="47.02393" lon="0.78669">
        <ele>92.2</ele>
        <time>2020-07-03T14:14:49Z</time>
      </trkpt>
      <trkpt lat="47.02387" lon="0.78664">
        <ele>92.2</ele>
        <time>2020-07-03T14:14:50Z</time>
      </trkpt>
      <trkpt lat="47.02381" lon="0.78657">
        <ele>91.9</ele>
        <time>2020-07-03T14:14:51Z</time>
      </trkpt>
      <trkpt lat="47.02376" lon="0.78652">
        <ele>91.8</ele>
        <time>2020-07-03T14:14:52Z</time>
      </trkpt>
      <trkpt lat="47.02372" lon="0.78646">
        <ele>91.7</ele>
        <time>2020-07-03T14:14:53Z</time>
      </trkpt>
      <trkpt lat="47.02368" lon="0.78639">
        <ele>91.7</ele>
        <time>2020-07-03T14:14:54Z</time>
      </trkpt>
      <trkpt lat="47.02364" lon="0.78633">
        <ele>91.6</ele>
        <time>2020-07-03T14:14:55Z</time>
      </trkpt>
      <trkpt lat="47.02359" lon="0.78625">
        <ele>91.7</ele>
        <time>2020-07-03T14:14:56Z</time>
      </trkpt>
      <trkpt lat="47.02355" lon="0.78617">
        <ele>91.7</ele>
        <time>2020-07-03T14:14:57Z</time>
      </trkpt>
      <trkpt lat="47.02352" lon="0.7861">
        <ele>91.7</ele>
        <time>2020-07-03T14:14:58Z</time>
      </trkpt>
      <trkpt lat="47.02349" lon="0.78602">
        <ele>91.7</ele>
        <time>2020-07-03T14:14:59Z</time>
      </trkpt>
      <trkpt lat="47.02347" lon="0.78594">
        <ele>91.7</ele>
        <time>2020-07-03T14:15:00Z</time>
      </trkpt>
      <trkpt lat="47.02345" lon="0.78584">
        <ele>91.8</ele>
        <time>2020-07-03T14:15:01Z</time>
      </trkpt>
      <trkpt lat="47.02344" lon="0.78576">
        <ele>91.8</ele>
        <time>2020-07-03T14:15:02Z</time>
      </trkpt>
      <trkpt lat="47.02343" lon="0.78569">
        <ele>91.9</ele>
        <time>2020-07-03T14:15:03Z</time>
      </trkpt>
      <trkpt lat="47.02342" lon="0.78559">
        <ele>92</ele>
        <time>2020-07-03T14:15:04Z</time>
      </trkpt>
      <trkpt lat="47.02341" lon="0.78553">
        <ele>92.1</ele>
        <time>2020-07-03T14:15:05Z</time>
      </trkpt>
      <trkpt lat="47.0234" lon="0.78545">
        <ele>92.2</ele>
        <time>2020-07-03T14:15:06Z</time>
      </trkpt>
      <trkpt lat="47.02339" lon="0.78537">
        <ele>92.3</ele>
        <time>2020-07-03T14:15:07Z</time>
      </trkpt>
      <trkpt lat="47.02338" lon="0.78529">
        <ele>92.5</ele>
        <time>2020-07-03T14:15:08Z</time>
      </trkpt>
      <trkpt lat="47.02337" lon="0.78521">
        <ele>92.6</ele>
        <time>2020-07-03T14:15:09Z</time>
      </trkpt>
      <trkpt lat="47.02336" lon="0.78515">
        <ele>92.8</ele>
        <time>2020-07-03T14:15:10Z</time>
      </trkpt>
      <trkpt lat="47.02335" lon="0.78507">
        <ele>93</ele>
        <time>2020-07-03T14:15:11Z</time>
      </trkpt>
      <trkpt lat="47.02333" lon="0.78499">
        <ele>93.2</ele>
        <time>2020-07-03T14:15:12Z</time>
      </trkpt>
      <trkpt lat="47.02331" lon="0.78493">
        <ele>93.4</ele>
        <time>2020-07-03T14:15:13Z</time>
      </trkpt>
      <trkpt lat="47.02329" lon="0.78485">
        <ele>93.6</ele>
        <time>2020-07-03T14:15:14Z</time>
      </trkpt>
      <trkpt lat="47.02328" lon="0.78478">
        <ele>93.8</ele>
        <time>2020-07-03T14:15:15Z</time>
      </trkpt>
      <trkpt lat="47.02327" lon="0.7847">
        <ele>94</ele>
        <time>2020-07-03T14:15:16Z</time>
      </trkpt>
      <trkpt lat="47.02325" lon="0.78466">
        <ele>94.1</ele>
        <time>2020-07-03T14:15:17Z</time>
      </trkpt>
      <trkpt lat="47.02324" lon="0.78459">
        <ele>94.3</ele>
        <time>2020-07-03T14:15:18Z</time>
      </trkpt>
      <trkpt lat="47.02323" lon="0.78453">
        <ele>94.4</ele>
        <time>2020-07-03T14:15:19Z</time>
      </trkpt>
      <trkpt lat="47.02322" lon="0.78447">
        <ele>94.6</ele>
        <time>2020-07-03T14:15:20Z</time>
      </trkpt>
      <trkpt lat="47.02321" lon="0.78442">
        <ele>94.7</ele>
        <time>2020-07-03T14:15:21Z</time>
      </trkpt>
      <trkpt lat="47.0232" lon="0.78436">
        <ele>94.8</ele>
        <time>2020-07-03T14:15:22Z</time>
      </trkpt>
      <trkpt lat="47.02318" lon="0.78433">
        <ele>94.9</ele>
        <time>2020-07-03T14:15:23Z</time>
      </trkpt>
      <trkpt lat="47.02315" lon="0.78427">
        <ele>95.2</ele>
        <time>2020-07-03T14:15:24Z</time>
      </trkpt>
      <trkpt lat="47.02313" lon="0.78423">
        <ele>95.3</ele>
        <time>2020-07-03T14:15:25Z</time>
      </trkpt>
      <trkpt lat="47.02312" lon="0.78418">
        <ele>95.5</ele>
        <time>2020-07-03T14:15:26Z</time>
      </trkpt>
      <trkpt lat="47.02311" lon="0.78412">
        <ele>95.7</ele>
        <time>2020-07-03T14:15:27Z</time>
      </trkpt>
      <trkpt lat="47.0231" lon="0.78406">
        <ele>96</ele>
        <time>2020-07-03T14:15:28Z</time>
      </trkpt>
      <trkpt lat="47.02308" lon="0.78401">
        <ele>96.2</ele>
        <time>2020-07-03T14:15:29Z</time>
      </trkpt>
      <trkpt lat="47.02307" lon="0.78396">
        <ele>96.4</ele>
        <time>2020-07-03T14:15:30Z</time>
      </trkpt>
      <trkpt lat="47.02306" lon="0.78391">
        <ele>96.6</ele>
        <time>2020-07-03T14:15:31Z</time>
      </trkpt>
      <trkpt lat="47.02306" lon="0.78388">
        <ele>96.7</ele>
        <time>2020-07-03T14:15:32Z</time>
      </trkpt>
      <trkpt lat="47.02305" lon="0.78383">
        <ele>96.9</ele>
        <time>2020-07-03T14:15:33Z</time>
      </trkpt>
      <trkpt lat="47.02303" lon="0.78379">
        <ele>97</ele>
        <time>2020-07-03T14:15:34Z</time>
      </trkpt>
      <trkpt lat="47.02302" lon="0.78377">
        <ele>97.1</ele>
        <time>2020-07-03T14:15:35Z</time>
      </trkpt>
      <trkpt lat="47.023" lon="0.78371">
        <ele>97.3</ele>
        <time>2020-07-03T14:15:36Z</time>
      </trkpt>
      <trkpt lat="47.02299" lon="0.78369">
        <ele>97.4</ele>
        <time>2020-07-03T14:15:37Z</time>
      </trkpt>
      <trkpt lat="47.02297" lon="0.78365">
        <ele>97.5</ele>
        <time>2020-07-03T14:15:38Z</time>
      </trkpt>
      <trkpt lat="47.02295" lon="0.78359">
        <ele>97.6</ele>
        <time>2020-07-03T14:15:39Z</time>
      </trkpt>
      <trkpt lat="47.02293" lon="0.78354">
        <ele>97.8</ele>
        <time>2020-07-03T14:15:40Z</time>
      </trkpt>
      <trkpt lat="47.02292" lon="0.78349">
        <ele>97.9</ele>
        <time>2020-07-03T14:15:41Z</time>
      </trkpt>
      <trkpt lat="47.0229" lon="0.78345">
        <ele>98.1</ele>
        <time>2020-07-03T14:15:42Z</time>
      </trkpt>
      <trkpt lat="47.02287" lon="0.7834">
        <ele>98.2</ele>
        <time>2020-07-03T14:15:43Z</time>
      </trkpt>
      <trkpt lat="47.02285" lon="0.78334">
        <ele>98.4</ele>
        <time>2020-07-03T14:15:44Z</time>
      </trkpt>
      <trkpt lat="47.02283" lon="0.78328">
        <ele>98.6</ele>
        <time>2020-07-03T14:15:45Z</time>
      </trkpt>
      <trkpt lat="47.02281" lon="0.78324">
        <ele>98.7</ele>
        <time>2020-07-03T14:15:46Z</time>
      </trkpt>
      <trkpt lat="47.02279" lon="0.7832">
        <ele>98.8</ele>
        <time>2020-07-03T14:15:47Z</time>
      </trkpt>
      <trkpt lat="47.02277" lon="0.78314">
        <ele>99</ele>
        <time>2020-07-03T14:15:48Z</time>
      </trkpt>
      <trkpt lat="47.02275" lon="0.78309">
        <ele>99.1</ele>
        <time>2020-07-03T14:15:49Z</time>
      </trkpt>
      <trkpt lat="47.02273" lon="0.78305">
        <ele>99.2</ele>
        <time>2020-07-03T14:15:50Z</time>
      </trkpt>
      <trkpt lat="47.0227" lon="0.78301">
        <ele>99.4</ele>
        <time>2020-07-03T14:15:51Z</time>
      </trkpt>
      <trkpt lat="47.02269" lon="0.78299">
        <ele>99.4</ele>
        <time>2020-07-03T14:15:52Z</time>
      </trkpt>
      <trkpt lat="47.02266" lon="0.78295">
        <ele>99.6</ele>
        <time>2020-07-03T14:15:53Z</time>
      </trkpt>
      <trkpt lat="47.02264" lon="0.7829">
        <ele>99.7</ele>
        <time>2020-07-03T14:15:54Z</time>
      </trkpt>
      <trkpt lat="47.02262" lon="0.78286">
        <ele>99.8</ele>
        <time>2020-07-03T14:15:55Z</time>
      </trkpt>
      <trkpt lat="47.02259" lon="0.78283">
        <ele>100</ele>
        <time>2020-07-03T14:15:56Z</time>
      </trkpt>
      <trkpt lat="47.02256" lon="0.78278">
        <ele>100.1</ele>
        <time>2020-07-03T14:15:57Z</time>
      </trkpt>
      <trkpt lat="47.02253" lon="0.78273">
        <ele>100.3</ele>
        <time>2020-07-03T14:15:58Z</time>
      </trkpt>
      <trkpt lat="47.02251" lon="0.78271">
        <ele>100.4</ele>
        <time>2020-07-03T14:15:59Z</time>
      </trkpt>
      <trkpt lat="47.02249" lon="0.78268">
        <ele>100.5</ele>
        <time>2020-07-03T14:16:00Z</time>
      </trkpt>
      <trkpt lat="47.02247" lon="0.78265">
        <ele>100.6</ele>
        <time>2020-07-03T14:16:01Z</time>
      </trkpt>
      <trkpt lat="47.02243" lon="0.78261">
        <ele>101.1</ele>
        <time>2020-07-03T14:16:02Z</time>
      </trkpt>
      <trkpt lat="47.02242" lon="0.78259">
        <ele>101.2</ele>
        <time>2020-07-03T14:16:03Z</time>
      </trkpt>
      <trkpt lat="47.02238" lon="0.78254">
        <ele>101.5</ele>
        <time>2020-07-03T14:16:04Z</time>
      </trkpt>
      <trkpt lat="47.02236" lon="0.78251">
        <ele>101.7</ele>
        <time>2020-07-03T14:16:05Z</time>
      </trkpt>
      <trkpt lat="47.02233" lon="0.78247">
        <ele>101.8</ele>
        <time>2020-07-03T14:16:06Z</time>
      </trkpt>
      <trkpt lat="47.02228" lon="0.7824">
        <ele>101.9</ele>
        <time>2020-07-03T14:16:07Z</time>
      </trkpt>
      <trkpt lat="47.02225" lon="0.78237">
        <ele>102</ele>
        <time>2020-07-03T14:16:08Z</time>
      </trkpt>
      <trkpt lat="47.02223" lon="0.78235">
        <ele>102</ele>
        <time>2020-07-03T14:16:09Z</time>
      </trkpt>
      <trkpt lat="47.0222" lon="0.78232">
        <ele>102.1</ele>
        <time>2020-07-03T14:16:10Z</time>
      </trkpt>
      <trkpt lat="47.02216" lon="0.78229">
        <ele>102.2</ele>
        <time>2020-07-03T14:16:11Z</time>
      </trkpt>
      <trkpt lat="47.02213" lon="0.78227">
        <ele>102.3</ele>
        <time>2020-07-03T14:16:12Z</time>
      </trkpt>
      <trkpt lat="47.0221" lon="0.78225">
        <ele>102.4</ele>
        <time>2020-07-03T14:16:13Z</time>
      </trkpt>
      <trkpt lat="47.02207" lon="0.78222">
        <ele>102.5</ele>
        <time>2020-07-03T14:16:14Z</time>
      </trkpt>
      <trkpt lat="47.02205" lon="0.7822">
        <ele>102.6</ele>
        <time>2020-07-03T14:16:15Z</time>
      </trkpt>
      <trkpt lat="47.02203" lon="0.78217">
        <ele>102.6</ele>
        <time>2020-07-03T14:16:16Z</time>
      </trkpt>
      <trkpt lat="47.022" lon="0.78213">
        <ele>102.7</ele>
        <time>2020-07-03T14:16:17Z</time>
      </trkpt>
      <trkpt lat="47.02197" lon="0.78209">
        <ele>102.8</ele>
        <time>2020-07-03T14:16:18Z</time>
      </trkpt>
      <trkpt lat="47.02193" lon="0.78206">
        <ele>102.9</ele>
        <time>2020-07-03T14:16:19Z</time>
      </trkpt>
      <trkpt lat="47.0219" lon="0.78203">
        <ele>103</ele>
        <time>2020-07-03T14:16:20Z</time>
      </trkpt>
      <trkpt lat="47.02186" lon="0.78199">
        <ele>103.1</ele>
        <time>2020-07-03T14:16:21Z</time>
      </trkpt>
      <trkpt lat="47.02182" lon="0.78196">
        <ele>103.3</ele>
        <time>2020-07-03T14:16:22Z</time>
      </trkpt>
      <trkpt lat="47.02179" lon="0.78192">
        <ele>103.5</ele>
        <time>2020-07-03T14:16:23Z</time>
      </trkpt>
      <trkpt lat="47.02176" lon="0.78189">
        <ele>103.6</ele>
        <time>2020-07-03T14:16:24Z</time>
      </trkpt>
      <trkpt lat="47.02173" lon="0.78186">
        <ele>103.8</ele>
        <time>2020-07-03T14:16:25Z</time>
      </trkpt>
      <trkpt lat="47.0217" lon="0.78184">
        <ele>104</ele>
        <time>2020-07-03T14:16:26Z</time>
      </trkpt>
      <trkpt lat="47.02167" lon="0.78182">
        <ele>104.1</ele>
        <time>2020-07-03T14:16:27Z</time>
      </trkpt>
      <trkpt lat="47.02164" lon="0.78179">
        <ele>104.3</ele>
        <time>2020-07-03T14:16:28Z</time>
      </trkpt>
      <trkpt lat="47.0216" lon="0.78175">
        <ele>104.5</ele>
        <time>2020-07-03T14:16:29Z</time>
      </trkpt>
      <trkpt lat="47.02156" lon="0.78172">
        <ele>104.6</ele>
        <time>2020-07-03T14:16:30Z</time>
      </trkpt>
      <trkpt lat="47.02152" lon="0.7817">
        <ele>104.8</ele>
        <time>2020-07-03T14:16:31Z</time>
      </trkpt>
      <trkpt lat="47.02148" lon="0.78168">
        <ele>105</ele>
        <time>2020-07-03T14:16:32Z</time>
      </trkpt>
      <trkpt lat="47.02144" lon="0.78163">
        <ele>105.1</ele>
        <time>2020-07-03T14:16:33Z</time>
      </trkpt>
      <trkpt lat="47.02141" lon="0.7816">
        <ele>105.3</ele>
        <time>2020-07-03T14:16:34Z</time>
      </trkpt>
      <trkpt lat="47.02138" lon="0.78158">
        <ele>105.4</ele>
        <time>2020-07-03T14:16:35Z</time>
      </trkpt>
      <trkpt lat="47.02134" lon="0.78155">
        <ele>105.5</ele>
        <time>2020-07-03T14:16:36Z</time>
      </trkpt>
      <trkpt lat="47.02132" lon="0.78153">
        <ele>105.6</ele>
        <time>2020-07-03T14:16:37Z</time>
      </trkpt>
      <trkpt lat="47.02128" lon="0.78151">
        <ele>105.7</ele>
        <time>2020-07-03T14:16:38Z</time>
      </trkpt>
      <trkpt lat="47.02124" lon="0.78149">
        <ele>105.7</ele>
        <time>2020-07-03T14:16:39Z</time>
      </trkpt>
      <trkpt lat="47.02122" lon="0.78147">
        <ele>105.8</ele>
        <time>2020-07-03T14:16:40Z</time>
      </trkpt>
      <trkpt lat="47.02118" lon="0.78145">
        <ele>105.8</ele>
        <time>2020-07-03T14:16:41Z</time>
      </trkpt>
      <trkpt lat="47.02115" lon="0.78143">
        <ele>105.9</ele>
        <time>2020-07-03T14:16:42Z</time>
      </trkpt>
      <trkpt lat="47.02111" lon="0.7814">
        <ele>105.9</ele>
        <time>2020-07-03T14:16:43Z</time>
      </trkpt>
      <trkpt lat="47.02108" lon="0.78138">
        <ele>106</ele>
        <time>2020-07-03T14:16:44Z</time>
      </trkpt>
      <trkpt lat="47.02104" lon="0.78135">
        <ele>106.1</ele>
        <time>2020-07-03T14:16:45Z</time>
      </trkpt>
      <trkpt lat="47.021" lon="0.78132">
        <ele>106.2</ele>
        <time>2020-07-03T14:16:46Z</time>
      </trkpt>
      <trkpt lat="47.02097" lon="0.78129">
        <ele>106.3</ele>
        <time>2020-07-03T14:16:47Z</time>
      </trkpt>
      <trkpt lat="47.02093" lon="0.78127">
        <ele>106.5</ele>
        <time>2020-07-03T14:16:48Z</time>
      </trkpt>
      <trkpt lat="47.02089" lon="0.78124">
        <ele>106.6</ele>
        <time>2020-07-03T14:16:49Z</time>
      </trkpt>
      <trkpt lat="47.02084" lon="0.78122">
        <ele>106.8</ele>
        <time>2020-07-03T14:16:50Z</time>
      </trkpt>
      <trkpt lat="47.0208" lon="0.7812">
        <ele>107</ele>
        <time>2020-07-03T14:16:51Z</time>
      </trkpt>
      <trkpt lat="47.02076" lon="0.78118">
        <ele>107.1</ele>
        <time>2020-07-03T14:16:52Z</time>
      </trkpt>
      <trkpt lat="47.02072" lon="0.78116">
        <ele>107.2</ele>
        <time>2020-07-03T14:16:53Z</time>
      </trkpt>
      <trkpt lat="47.0207" lon="0.78116">
        <ele>107.3</ele>
        <time>2020-07-03T14:16:54Z</time>
      </trkpt>
      <trkpt lat="47.02065" lon="0.78114">
        <ele>107.4</ele>
        <time>2020-07-03T14:16:55Z</time>
      </trkpt>
      <trkpt lat="47.0206" lon="0.78112">
        <ele>107.5</ele>
        <time>2020-07-03T14:16:56Z</time>
      </trkpt>
      <trkpt lat="47.02056" lon="0.7811">
        <ele>107.6</ele>
        <time>2020-07-03T14:16:57Z</time>
      </trkpt>
      <trkpt lat="47.02052" lon="0.78109">
        <ele>107.7</ele>
        <time>2020-07-03T14:16:58Z</time>
      </trkpt>
      <trkpt lat="47.02048" lon="0.78107">
        <ele>107.7</ele>
        <time>2020-07-03T14:16:59Z</time>
      </trkpt>
      <trkpt lat="47.02044" lon="0.78103">
        <ele>107.8</ele>
        <time>2020-07-03T14:17:00Z</time>
      </trkpt>
      <trkpt lat="47.02039" lon="0.781">
        <ele>107.9</ele>
        <time>2020-07-03T14:17:01Z</time>
      </trkpt>
      <trkpt lat="47.02035" lon="0.78098">
        <ele>107.9</ele>
        <time>2020-07-03T14:17:02Z</time>
      </trkpt>
      <trkpt lat="47.02031" lon="0.78096">
        <ele>108</ele>
        <time>2020-07-03T14:17:03Z</time>
      </trkpt>
      <trkpt lat="47.02027" lon="0.78094">
        <ele>108.1</ele>
        <time>2020-07-03T14:17:04Z</time>
      </trkpt>
      <trkpt lat="47.02022" lon="0.78091">
        <ele>108.2</ele>
        <time>2020-07-03T14:17:05Z</time>
      </trkpt>
      <trkpt lat="47.02018" lon="0.78089">
        <ele>108.4</ele>
        <time>2020-07-03T14:17:06Z</time>
      </trkpt>
      <trkpt lat="47.02014" lon="0.78086">
        <ele>108.5</ele>
        <time>2020-07-03T14:17:07Z</time>
      </trkpt>
      <trkpt lat="47.0201" lon="0.78083">
        <ele>108.6</ele>
        <time>2020-07-03T14:17:08Z</time>
      </trkpt>
      <trkpt lat="47.02006" lon="0.7808">
        <ele>108.7</ele>
        <time>2020-07-03T14:17:09Z</time>
      </trkpt>
      <trkpt lat="47.02002" lon="0.78078">
        <ele>108.8</ele>
        <time>2020-07-03T14:17:10Z</time>
      </trkpt>
      <trkpt lat="47.01999" lon="0.78077">
        <ele>108.8</ele>
        <time>2020-07-03T14:17:11Z</time>
      </trkpt>
      <trkpt lat="47.01995" lon="0.78076">
        <ele>108.9</ele>
        <time>2020-07-03T14:17:12Z</time>
      </trkpt>
      <trkpt lat="47.0199" lon="0.78074">
        <ele>109</ele>
        <time>2020-07-03T14:17:13Z</time>
      </trkpt>
      <trkpt lat="47.01984" lon="0.7807">
        <ele>109.2</ele>
        <time>2020-07-03T14:17:14Z</time>
      </trkpt>
      <trkpt lat="47.01979" lon="0.78069">
        <ele>109.4</ele>
        <time>2020-07-03T14:17:15Z</time>
      </trkpt>
      <trkpt lat="47.01975" lon="0.78069">
        <ele>109.5</ele>
        <time>2020-07-03T14:17:16Z</time>
      </trkpt>
      <trkpt lat="47.01971" lon="0.78068">
        <ele>109.7</ele>
        <time>2020-07-03T14:17:17Z</time>
      </trkpt>
      <trkpt lat="47.01967" lon="0.78065">
        <ele>109.9</ele>
        <time>2020-07-03T14:17:18Z</time>
      </trkpt>
      <trkpt lat="47.01963" lon="0.78063">
        <ele>110.1</ele>
        <time>2020-07-03T14:17:19Z</time>
      </trkpt>
      <trkpt lat="47.01959" lon="0.78061">
        <ele>110.4</ele>
        <time>2020-07-03T14:17:20Z</time>
      </trkpt>
      <trkpt lat="47.01955" lon="0.7806">
        <ele>110.7</ele>
        <time>2020-07-03T14:17:21Z</time>
      </trkpt>
      <trkpt lat="47.01952" lon="0.78058">
        <ele>111</ele>
        <time>2020-07-03T14:17:22Z</time>
      </trkpt>
      <trkpt lat="47.01948" lon="0.78056">
        <ele>111.3</ele>
        <time>2020-07-03T14:17:23Z</time>
      </trkpt>
      <trkpt lat="47.01944" lon="0.78053">
        <ele>111.6</ele>
        <time>2020-07-03T14:17:24Z</time>
      </trkpt>
      <trkpt lat="47.01941" lon="0.78051">
        <ele>111.8</ele>
        <time>2020-07-03T14:17:25Z</time>
      </trkpt>
      <trkpt lat="47.01938" lon="0.7805">
        <ele>111.9</ele>
        <time>2020-07-03T14:17:26Z</time>
      </trkpt>
      <trkpt lat="47.01935" lon="0.78048">
        <ele>112</ele>
        <time>2020-07-03T14:17:27Z</time>
      </trkpt>
      <trkpt lat="47.01931" lon="0.78046">
        <ele>112.1</ele>
        <time>2020-07-03T14:17:28Z</time>
      </trkpt>
      <trkpt lat="47.01927" lon="0.78043">
        <ele>112.2</ele>
        <time>2020-07-03T14:17:29Z</time>
      </trkpt>
      <trkpt lat="47.01922" lon="0.78041">
        <ele>112.3</ele>
        <time>2020-07-03T14:17:30Z</time>
      </trkpt>
      <trkpt lat="47.01919" lon="0.78038">
        <ele>112.4</ele>
        <time>2020-07-03T14:17:31Z</time>
      </trkpt>
      <trkpt lat="47.01916" lon="0.78035">
        <ele>112.4</ele>
        <time>2020-07-03T14:17:32Z</time>
      </trkpt>
      <trkpt lat="47.01913" lon="0.78033">
        <ele>112.5</ele>
        <time>2020-07-03T14:17:33Z</time>
      </trkpt>
      <trkpt lat="47.0191" lon="0.78031">
        <ele>112.6</ele>
        <time>2020-07-03T14:17:34Z</time>
      </trkpt>
      <trkpt lat="47.01906" lon="0.78028">
        <ele>112.7</ele>
        <time>2020-07-03T14:17:35Z</time>
      </trkpt>
      <trkpt lat="47.01902" lon="0.78026">
        <ele>112.8</ele>
        <time>2020-07-03T14:17:36Z</time>
      </trkpt>
      <trkpt lat="47.01898" lon="0.78023">
        <ele>112.9</ele>
        <time>2020-07-03T14:17:37Z</time>
      </trkpt>
      <trkpt lat="47.01894" lon="0.78021">
        <ele>113</ele>
        <time>2020-07-03T14:17:38Z</time>
      </trkpt>
      <trkpt lat="47.0189" lon="0.78019">
        <ele>113.1</ele>
        <time>2020-07-03T14:17:39Z</time>
      </trkpt>
      <trkpt lat="47.01886" lon="0.78016">
        <ele>113.2</ele>
        <time>2020-07-03T14:17:40Z</time>
      </trkpt>
      <trkpt lat="47.01883" lon="0.78015">
        <ele>113.3</ele>
        <time>2020-07-03T14:17:41Z</time>
      </trkpt>
      <trkpt lat="47.01879" lon="0.78011">
        <ele>113.4</ele>
        <time>2020-07-03T14:17:42Z</time>
      </trkpt>
      <trkpt lat="47.01875" lon="0.78009">
        <ele>113.5</ele>
        <time>2020-07-03T14:17:43Z</time>
      </trkpt>
      <trkpt lat="47.01872" lon="0.78006">
        <ele>113.7</ele>
        <time>2020-07-03T14:17:44Z</time>
      </trkpt>
      <trkpt lat="47.01868" lon="0.78005">
        <ele>113.8</ele>
        <time>2020-07-03T14:17:45Z</time>
      </trkpt>
      <trkpt lat="47.01865" lon="0.78002">
        <ele>113.9</ele>
        <time>2020-07-03T14:17:46Z</time>
      </trkpt>
      <trkpt lat="47.01862" lon="0.78">
        <ele>114</ele>
        <time>2020-07-03T14:17:47Z</time>
      </trkpt>
      <trkpt lat="47.01859" lon="0.77998">
        <ele>114.1</ele>
        <time>2020-07-03T14:17:48Z</time>
      </trkpt>
      <trkpt lat="47.01854" lon="0.77994">
        <ele>114.2</ele>
        <time>2020-07-03T14:17:49Z</time>
      </trkpt>
      <trkpt lat="47.01851" lon="0.77991">
        <ele>114.3</ele>
        <time>2020-07-03T14:17:50Z</time>
      </trkpt>
      <trkpt lat="47.01847" lon="0.77989">
        <ele>114.4</ele>
        <time>2020-07-03T14:17:51Z</time>
      </trkpt>
      <trkpt lat="47.01843" lon="0.77986">
        <ele>114.5</ele>
        <time>2020-07-03T14:17:52Z</time>
      </trkpt>
      <trkpt lat="47.01839" lon="0.77984">
        <ele>114.6</ele>
        <time>2020-07-03T14:17:53Z</time>
      </trkpt>
      <trkpt lat="47.01838" lon="0.77983">
        <ele>114.6</ele>
        <time>2020-07-03T14:17:54Z</time>
      </trkpt>
      <trkpt lat="47.01834" lon="0.77981">
        <ele>114.7</ele>
        <time>2020-07-03T14:17:55Z</time>
      </trkpt>
      <trkpt lat="47.0183" lon="0.77978">
        <ele>114.8</ele>
        <time>2020-07-03T14:17:56Z</time>
      </trkpt>
      <trkpt lat="47.01826" lon="0.77973">
        <ele>115</ele>
        <time>2020-07-03T14:17:57Z</time>
      </trkpt>
      <trkpt lat="47.01822" lon="0.77971">
        <ele>115</ele>
        <time>2020-07-03T14:17:58Z</time>
      </trkpt>
      <trkpt lat="47.01818" lon="0.77968">
        <ele>115.1</ele>
        <time>2020-07-03T14:17:59Z</time>
      </trkpt>
      <trkpt lat="47.01814" lon="0.77967">
        <ele>115.2</ele>
        <time>2020-07-03T14:18:00Z</time>
      </trkpt>
      <trkpt lat="47.0181" lon="0.77964">
        <ele>115.2</ele>
        <time>2020-07-03T14:18:01Z</time>
      </trkpt>
      <trkpt lat="47.01806" lon="0.7796">
        <ele>115.4</ele>
        <time>2020-07-03T14:18:02Z</time>
      </trkpt>
      <trkpt lat="47.018" lon="0.77958">
        <ele>115.5</ele>
        <time>2020-07-03T14:18:03Z</time>
      </trkpt>
      <trkpt lat="47.01797" lon="0.77956">
        <ele>115.6</ele>
        <time>2020-07-03T14:18:04Z</time>
      </trkpt>
      <trkpt lat="47.01792" lon="0.77952">
        <ele>115.6</ele>
        <time>2020-07-03T14:18:05Z</time>
      </trkpt>
      <trkpt lat="47.01788" lon="0.77949">
        <ele>115.6</ele>
        <time>2020-07-03T14:18:06Z</time>
      </trkpt>
      <trkpt lat="47.01785" lon="0.77946">
        <ele>115.6</ele>
        <time>2020-07-03T14:18:07Z</time>
      </trkpt>
      <trkpt lat="47.01781" lon="0.77942">
        <ele>115.6</ele>
        <time>2020-07-03T14:18:08Z</time>
      </trkpt>
      <trkpt lat="47.01777" lon="0.77939">
        <ele>115.6</ele>
        <time>2020-07-03T14:18:09Z</time>
      </trkpt>
      <trkpt lat="47.01774" lon="0.77937">
        <ele>115.6</ele>
        <time>2020-07-03T14:18:10Z</time>
      </trkpt>
      <trkpt lat="47.0177" lon="0.77933">
        <ele>115.6</ele>
        <time>2020-07-03T14:18:11Z</time>
      </trkpt>
      <trkpt lat="47.01766" lon="0.7793">
        <ele>115.6</ele>
        <time>2020-07-03T14:18:12Z</time>
      </trkpt>
      <trkpt lat="47.01761" lon="0.77927">
        <ele>115.6</ele>
        <time>2020-07-03T14:18:13Z</time>
      </trkpt>
      <trkpt lat="47.01756" lon="0.77924">
        <ele>115.7</ele>
        <time>2020-07-03T14:18:14Z</time>
      </trkpt>
      <trkpt lat="47.01752" lon="0.77921">
        <ele>115.7</ele>
        <time>2020-07-03T14:18:15Z</time>
      </trkpt>
      <trkpt lat="47.01748" lon="0.77918">
        <ele>115.7</ele>
        <time>2020-07-03T14:18:16Z</time>
      </trkpt>
      <trkpt lat="47.01744" lon="0.77915">
        <ele>115.7</ele>
        <time>2020-07-03T14:18:17Z</time>
      </trkpt>
      <trkpt lat="47.0174" lon="0.77913">
        <ele>115.8</ele>
        <time>2020-07-03T14:18:18Z</time>
      </trkpt>
      <trkpt lat="47.01736" lon="0.77911">
        <ele>115.8</ele>
        <time>2020-07-03T14:18:19Z</time>
      </trkpt>
      <trkpt lat="47.01732" lon="0.77909">
        <ele>115.9</ele>
        <time>2020-07-03T14:18:20Z</time>
      </trkpt>
      <trkpt lat="47.01727" lon="0.77906">
        <ele>116</ele>
        <time>2020-07-03T14:18:21Z</time>
      </trkpt>
      <trkpt lat="47.01722" lon="0.77905">
        <ele>116</ele>
        <time>2020-07-03T14:18:22Z</time>
      </trkpt>
      <trkpt lat="47.01717" lon="0.77902">
        <ele>116.1</ele>
        <time>2020-07-03T14:18:23Z</time>
      </trkpt>
      <trkpt lat="47.01713" lon="0.77899">
        <ele>116.1</ele>
        <time>2020-07-03T14:18:24Z</time>
      </trkpt>
      <trkpt lat="47.01709" lon="0.77896">
        <ele>116.1</ele>
        <time>2020-07-03T14:18:25Z</time>
      </trkpt>
      <trkpt lat="47.01706" lon="0.77893">
        <ele>116.1</ele>
        <time>2020-07-03T14:18:26Z</time>
      </trkpt>
      <trkpt lat="47.01701" lon="0.7789">
        <ele>116.2</ele>
        <time>2020-07-03T14:18:27Z</time>
      </trkpt>
      <trkpt lat="47.01696" lon="0.77887">
        <ele>116.2</ele>
        <time>2020-07-03T14:18:28Z</time>
      </trkpt>
      <trkpt lat="47.01691" lon="0.77883">
        <ele>116.3</ele>
        <time>2020-07-03T14:18:29Z</time>
      </trkpt>
      <trkpt lat="47.01686" lon="0.7788">
        <ele>116.3</ele>
        <time>2020-07-03T14:18:30Z</time>
      </trkpt>
      <trkpt lat="47.01681" lon="0.77877">
        <ele>116.3</ele>
        <time>2020-07-03T14:18:31Z</time>
      </trkpt>
      <trkpt lat="47.01676" lon="0.77875">
        <ele>116.3</ele>
        <time>2020-07-03T14:18:32Z</time>
      </trkpt>
      <trkpt lat="47.01672" lon="0.77874">
        <ele>116.3</ele>
        <time>2020-07-03T14:18:33Z</time>
      </trkpt>
      <trkpt lat="47.01668" lon="0.77872">
        <ele>116.3</ele>
        <time>2020-07-03T14:18:34Z</time>
      </trkpt>
      <trkpt lat="47.01663" lon="0.77871">
        <ele>116.3</ele>
        <time>2020-07-03T14:18:35Z</time>
      </trkpt>
      <trkpt lat="47.01659" lon="0.77869">
        <ele>116.3</ele>
        <time>2020-07-03T14:18:36Z</time>
      </trkpt>
      <trkpt lat="47.01655" lon="0.77867">
        <ele>116.4</ele>
        <time>2020-07-03T14:18:37Z</time>
      </trkpt>
      <trkpt lat="47.0165" lon="0.77864">
        <ele>116.4</ele>
        <time>2020-07-03T14:18:38Z</time>
      </trkpt>
      <trkpt lat="47.01644" lon="0.77861">
        <ele>116.5</ele>
        <time>2020-07-03T14:18:39Z</time>
      </trkpt>
      <trkpt lat="47.01641" lon="0.77858">
        <ele>116.6</ele>
        <time>2020-07-03T14:18:40Z</time>
      </trkpt>
      <trkpt lat="47.01635" lon="0.77856">
        <ele>116.7</ele>
        <time>2020-07-03T14:18:41Z</time>
      </trkpt>
      <trkpt lat="47.01631" lon="0.77855">
        <ele>116.8</ele>
        <time>2020-07-03T14:18:42Z</time>
      </trkpt>
      <trkpt lat="47.01627" lon="0.77854">
        <ele>116.9</ele>
        <time>2020-07-03T14:18:43Z</time>
      </trkpt>
      <trkpt lat="47.01623" lon="0.77852">
        <ele>116.9</ele>
        <time>2020-07-03T14:18:44Z</time>
      </trkpt>
      <trkpt lat="47.01617" lon="0.77849">
        <ele>117</ele>
        <time>2020-07-03T14:18:45Z</time>
      </trkpt>
      <trkpt lat="47.01612" lon="0.77847">
        <ele>117</ele>
        <time>2020-07-03T14:18:46Z</time>
      </trkpt>
      <trkpt lat="47.01608" lon="0.77844">
        <ele>117</ele>
        <time>2020-07-03T14:18:47Z</time>
      </trkpt>
      <trkpt lat="47.01602" lon="0.77842">
        <ele>117</ele>
        <time>2020-07-03T14:18:48Z</time>
      </trkpt>
      <trkpt lat="47.01597" lon="0.77839">
        <ele>116.9</ele>
        <time>2020-07-03T14:18:49Z</time>
      </trkpt>
      <trkpt lat="47.01592" lon="0.77837">
        <ele>116.9</ele>
        <time>2020-07-03T14:18:50Z</time>
      </trkpt>
      <trkpt lat="47.01587" lon="0.77834">
        <ele>116.8</ele>
        <time>2020-07-03T14:18:51Z</time>
      </trkpt>
      <trkpt lat="47.01581" lon="0.77831">
        <ele>116.8</ele>
        <time>2020-07-03T14:18:52Z</time>
      </trkpt>
      <trkpt lat="47.01576" lon="0.77828">
        <ele>116.8</ele>
        <time>2020-07-03T14:18:53Z</time>
      </trkpt>
      <trkpt lat="47.01572" lon="0.77826">
        <ele>116.8</ele>
        <time>2020-07-03T14:18:54Z</time>
      </trkpt>
      <trkpt lat="47.01568" lon="0.77823">
        <ele>116.8</ele>
        <time>2020-07-03T14:18:55Z</time>
      </trkpt>
      <trkpt lat="47.01562" lon="0.77819">
        <ele>116.9</ele>
        <time>2020-07-03T14:18:56Z</time>
      </trkpt>
      <trkpt lat="47.01557" lon="0.77816">
        <ele>117</ele>
        <time>2020-07-03T14:18:57Z</time>
      </trkpt>
      <trkpt lat="47.01552" lon="0.77812">
        <ele>117.1</ele>
        <time>2020-07-03T14:18:58Z</time>
      </trkpt>
      <trkpt lat="47.01547" lon="0.77809">
        <ele>117.1</ele>
        <time>2020-07-03T14:18:59Z</time>
      </trkpt>
      <trkpt lat="47.01542" lon="0.77805">
        <ele>117.1</ele>
        <time>2020-07-03T14:19:00Z</time>
      </trkpt>
      <trkpt lat="47.01537" lon="0.77801">
        <ele>117.1</ele>
        <time>2020-07-03T14:19:01Z</time>
      </trkpt>
      <trkpt lat="47.01532" lon="0.77797">
        <ele>117.1</ele>
        <time>2020-07-03T14:19:02Z</time>
      </trkpt>
      <trkpt lat="47.01527" lon="0.77794">
        <ele>117.1</ele>
        <time>2020-07-03T14:19:03Z</time>
      </trkpt>
      <trkpt lat="47.01522" lon="0.77791">
        <ele>117.1</ele>
        <time>2020-07-03T14:19:04Z</time>
      </trkpt>
      <trkpt lat="47.01519" lon="0.77788">
        <ele>117.1</ele>
        <time>2020-07-03T14:19:05Z</time>
      </trkpt>
      <trkpt lat="47.01515" lon="0.77785">
        <ele>117.2</ele>
        <time>2020-07-03T14:19:06Z</time>
      </trkpt>
      <trkpt lat="47.01511" lon="0.77781">
        <ele>117.2</ele>
        <time>2020-07-03T14:19:07Z</time>
      </trkpt>
      <trkpt lat="47.01506" lon="0.77777">
        <ele>117.2</ele>
        <time>2020-07-03T14:19:08Z</time>
      </trkpt>
      <trkpt lat="47.01501" lon="0.77773">
        <ele>117.2</ele>
        <time>2020-07-03T14:19:09Z</time>
      </trkpt>
      <trkpt lat="47.01496" lon="0.77768">
        <ele>117.3</ele>
        <time>2020-07-03T14:19:10Z</time>
      </trkpt>
      <trkpt lat="47.01491" lon="0.77763">
        <ele>117.3</ele>
        <time>2020-07-03T14:19:11Z</time>
      </trkpt>
      <trkpt lat="47.01486" lon="0.77758">
        <ele>117.3</ele>
        <time>2020-07-03T14:19:12Z</time>
      </trkpt>
      <trkpt lat="47.01482" lon="0.77754">
        <ele>117.4</ele>
        <time>2020-07-03T14:19:13Z</time>
      </trkpt>
      <trkpt lat="47.01478" lon="0.7775">
        <ele>117.4</ele>
        <time>2020-07-03T14:19:14Z</time>
      </trkpt>
      <trkpt lat="47.01474" lon="0.77745">
        <ele>117.4</ele>
        <time>2020-07-03T14:19:15Z</time>
      </trkpt>
      <trkpt lat="47.0147" lon="0.77741">
        <ele>117.3</ele>
        <time>2020-07-03T14:19:16Z</time>
      </trkpt>
      <trkpt lat="47.01465" lon="0.77737">
        <ele>117.3</ele>
        <time>2020-07-03T14:19:17Z</time>
      </trkpt>
      <trkpt lat="47.01458" lon="0.7773">
        <ele>117.3</ele>
        <time>2020-07-03T14:19:18Z</time>
      </trkpt>
      <trkpt lat="47.01454" lon="0.77726">
        <ele>117.3</ele>
        <time>2020-07-03T14:19:19Z</time>
      </trkpt>
      <trkpt lat="47.01451" lon="0.77722">
        <ele>117.3</ele>
        <time>2020-07-03T14:19:20Z</time>
      </trkpt>
      <trkpt lat="47.01446" lon="0.77718">
        <ele>117.3</ele>
        <time>2020-07-03T14:19:21Z</time>
      </trkpt>
      <trkpt lat="47.01442" lon="0.77712">
        <ele>117.4</ele>
        <time>2020-07-03T14:19:22Z</time>
      </trkpt>
      <trkpt lat="47.01439" lon="0.77708">
        <ele>117.4</ele>
        <time>2020-07-03T14:19:23Z</time>
      </trkpt>
      <trkpt lat="47.01435" lon="0.77704">
        <ele>117.4</ele>
        <time>2020-07-03T14:19:24Z</time>
      </trkpt>
      <trkpt lat="47.0143" lon="0.77699">
        <ele>117.5</ele>
        <time>2020-07-03T14:19:25Z</time>
      </trkpt>
      <trkpt lat="47.01425" lon="0.77693">
        <ele>117.7</ele>
        <time>2020-07-03T14:19:26Z</time>
      </trkpt>
      <trkpt lat="47.01422" lon="0.7769">
        <ele>117.6</ele>
        <time>2020-07-03T14:19:27Z</time>
      </trkpt>
      <trkpt lat="47.01418" lon="0.77687">
        <ele>117.6</ele>
        <time>2020-07-03T14:19:28Z</time>
      </trkpt>
      <trkpt lat="47.01414" lon="0.77682">
        <ele>117.6</ele>
        <time>2020-07-03T14:19:29Z</time>
      </trkpt>
      <trkpt lat="47.01409" lon="0.77678">
        <ele>117.6</ele>
        <time>2020-07-03T14:19:30Z</time>
      </trkpt>
      <trkpt lat="47.01404" lon="0.77674">
        <ele>117.6</ele>
        <time>2020-07-03T14:19:31Z</time>
      </trkpt>
      <trkpt lat="47.014" lon="0.7767">
        <ele>117.6</ele>
        <time>2020-07-03T14:19:32Z</time>
      </trkpt>
      <trkpt lat="47.01397" lon="0.77665">
        <ele>117.7</ele>
        <time>2020-07-03T14:19:33Z</time>
      </trkpt>
      <trkpt lat="47.01393" lon="0.7766">
        <ele>117.7</ele>
        <time>2020-07-03T14:19:34Z</time>
      </trkpt>
      <trkpt lat="47.01389" lon="0.77657">
        <ele>117.8</ele>
        <time>2020-07-03T14:19:35Z</time>
      </trkpt>
      <trkpt lat="47.01385" lon="0.77653">
        <ele>117.9</ele>
        <time>2020-07-03T14:19:36Z</time>
      </trkpt>
      <trkpt lat="47.0138" lon="0.77649">
        <ele>117.9</ele>
        <time>2020-07-03T14:19:37Z</time>
      </trkpt>
      <trkpt lat="47.01376" lon="0.77645">
        <ele>118</ele>
        <time>2020-07-03T14:19:38Z</time>
      </trkpt>
      <trkpt lat="47.01371" lon="0.7764">
        <ele>118</ele>
        <time>2020-07-03T14:19:39Z</time>
      </trkpt>
      <trkpt lat="47.01366" lon="0.77636">
        <ele>118</ele>
        <time>2020-07-03T14:19:40Z</time>
      </trkpt>
      <trkpt lat="47.01364" lon="0.77633">
        <ele>118</ele>
        <time>2020-07-03T14:19:41Z</time>
      </trkpt>
      <trkpt lat="47.0136" lon="0.77629">
        <ele>118</ele>
        <time>2020-07-03T14:19:42Z</time>
      </trkpt>
      <trkpt lat="47.01356" lon="0.77624">
        <ele>118</ele>
        <time>2020-07-03T14:19:43Z</time>
      </trkpt>
      <trkpt lat="47.01351" lon="0.77619">
        <ele>118</ele>
        <time>2020-07-03T14:19:44Z</time>
      </trkpt>
      <trkpt lat="47.01348" lon="0.77614">
        <ele>118</ele>
        <time>2020-07-03T14:19:45Z</time>
      </trkpt>
      <trkpt lat="47.01343" lon="0.77608">
        <ele>117.9</ele>
        <time>2020-07-03T14:19:46Z</time>
      </trkpt>
      <trkpt lat="47.01338" lon="0.77603">
        <ele>117.9</ele>
        <time>2020-07-03T14:19:47Z</time>
      </trkpt>
      <trkpt lat="47.01333" lon="0.77599">
        <ele>117.9</ele>
        <time>2020-07-03T14:19:48Z</time>
      </trkpt>
      <trkpt lat="47.01329" lon="0.77595">
        <ele>117.9</ele>
        <time>2020-07-03T14:19:49Z</time>
      </trkpt>
      <trkpt lat="47.01324" lon="0.77591">
        <ele>117.8</ele>
        <time>2020-07-03T14:19:50Z</time>
      </trkpt>
      <trkpt lat="47.0132" lon="0.77585">
        <ele>117.8</ele>
        <time>2020-07-03T14:19:51Z</time>
      </trkpt>
      <trkpt lat="47.01315" lon="0.7758">
        <ele>117.8</ele>
        <time>2020-07-03T14:19:52Z</time>
      </trkpt>
      <trkpt lat="47.01311" lon="0.77576">
        <ele>117.8</ele>
        <time>2020-07-03T14:19:53Z</time>
      </trkpt>
      <trkpt lat="47.01306" lon="0.77571">
        <ele>117.8</ele>
        <time>2020-07-03T14:19:54Z</time>
      </trkpt>
      <trkpt lat="47.01301" lon="0.77566">
        <ele>117.8</ele>
        <time>2020-07-03T14:19:55Z</time>
      </trkpt>
      <trkpt lat="47.01297" lon="0.77561">
        <ele>117.8</ele>
        <time>2020-07-03T14:19:56Z</time>
      </trkpt>
      <trkpt lat="47.01292" lon="0.77557">
        <ele>117.8</ele>
        <time>2020-07-03T14:19:57Z</time>
      </trkpt>
      <trkpt lat="47.01287" lon="0.77552">
        <ele>117.9</ele>
        <time>2020-07-03T14:19:58Z</time>
      </trkpt>
      <trkpt lat="47.01282" lon="0.77547">
        <ele>117.9</ele>
        <time>2020-07-03T14:19:59Z</time>
      </trkpt>
      <trkpt lat="47.01277" lon="0.77541">
        <ele>117.9</ele>
        <time>2020-07-03T14:20:00Z</time>
      </trkpt>
      <trkpt lat="47.01273" lon="0.77535">
        <ele>117.9</ele>
        <time>2020-07-03T14:20:01Z</time>
      </trkpt>
      <trkpt lat="47.01268" lon="0.7753">
        <ele>117.9</ele>
        <time>2020-07-03T14:20:02Z</time>
      </trkpt>
      <trkpt lat="47.01264" lon="0.77525">
        <ele>117.9</ele>
        <time>2020-07-03T14:20:03Z</time>
      </trkpt>
      <trkpt lat="47.0126" lon="0.77521">
        <ele>117.9</ele>
        <time>2020-07-03T14:20:04Z</time>
      </trkpt>
      <trkpt lat="47.01255" lon="0.77516">
        <ele>117.9</ele>
        <time>2020-07-03T14:20:05Z</time>
      </trkpt>
      <trkpt lat="47.0125" lon="0.77512">
        <ele>117.8</ele>
        <time>2020-07-03T14:20:06Z</time>
      </trkpt>
      <trkpt lat="47.01246" lon="0.77507">
        <ele>117.8</ele>
        <time>2020-07-03T14:20:07Z</time>
      </trkpt>
      <trkpt lat="47.01241" lon="0.77503">
        <ele>117.8</ele>
        <time>2020-07-03T14:20:08Z</time>
      </trkpt>
      <trkpt lat="47.01237" lon="0.77497">
        <ele>117.8</ele>
        <time>2020-07-03T14:20:09Z</time>
      </trkpt>
      <trkpt lat="47.01233" lon="0.77493">
        <ele>117.8</ele>
        <time>2020-07-03T14:20:10Z</time>
      </trkpt>
      <trkpt lat="47.01228" lon="0.77489">
        <ele>117.7</ele>
        <time>2020-07-03T14:20:11Z</time>
      </trkpt>
      <trkpt lat="47.01223" lon="0.77484">
        <ele>117.7</ele>
        <time>2020-07-03T14:20:12Z</time>
      </trkpt>
      <trkpt lat="47.01219" lon="0.7748">
        <ele>117.6</ele>
        <time>2020-07-03T14:20:13Z</time>
      </trkpt>
      <trkpt lat="47.01215" lon="0.77475">
        <ele>117.6</ele>
        <time>2020-07-03T14:20:14Z</time>
      </trkpt>
      <trkpt lat="47.0121" lon="0.77471">
        <ele>117.6</ele>
        <time>2020-07-03T14:20:15Z</time>
      </trkpt>
      <trkpt lat="47.01206" lon="0.77466">
        <ele>117.5</ele>
        <time>2020-07-03T14:20:16Z</time>
      </trkpt>
      <trkpt lat="47.01201" lon="0.77461">
        <ele>117.5</ele>
        <time>2020-07-03T14:20:17Z</time>
      </trkpt>
      <trkpt lat="47.01197" lon="0.77456">
        <ele>117.5</ele>
        <time>2020-07-03T14:20:18Z</time>
      </trkpt>
      <trkpt lat="47.01192" lon="0.77452">
        <ele>117.5</ele>
        <time>2020-07-03T14:20:19Z</time>
      </trkpt>
      <trkpt lat="47.01188" lon="0.77446">
        <ele>117.4</ele>
        <time>2020-07-03T14:20:20Z</time>
      </trkpt>
      <trkpt lat="47.01183" lon="0.77441">
        <ele>117.4</ele>
        <time>2020-07-03T14:20:21Z</time>
      </trkpt>
      <trkpt lat="47.01177" lon="0.77437">
        <ele>117.4</ele>
        <time>2020-07-03T14:20:22Z</time>
      </trkpt>
      <trkpt lat="47.01172" lon="0.77432">
        <ele>117.4</ele>
        <time>2020-07-03T14:20:23Z</time>
      </trkpt>
      <trkpt lat="47.01166" lon="0.77428">
        <ele>117.4</ele>
        <time>2020-07-03T14:20:24Z</time>
      </trkpt>
      <trkpt lat="47.01161" lon="0.77423">
        <ele>117.3</ele>
        <time>2020-07-03T14:20:25Z</time>
      </trkpt>
      <trkpt lat="47.01156" lon="0.77417">
        <ele>117.2</ele>
        <time>2020-07-03T14:20:26Z</time>
      </trkpt>
      <trkpt lat="47.01151" lon="0.77413">
        <ele>117.2</ele>
        <time>2020-07-03T14:20:27Z</time>
      </trkpt>
      <trkpt lat="47.01146" lon="0.77407">
        <ele>117.2</ele>
        <time>2020-07-03T14:20:28Z</time>
      </trkpt>
      <trkpt lat="47.01142" lon="0.77402">
        <ele>117.2</ele>
        <time>2020-07-03T14:20:29Z</time>
      </trkpt>
      <trkpt lat="47.01138" lon="0.77395">
        <ele>117.1</ele>
        <time>2020-07-03T14:20:30Z</time>
      </trkpt>
      <trkpt lat="47.01133" lon="0.7739">
        <ele>117.1</ele>
        <time>2020-07-03T14:20:31Z</time>
      </trkpt>
      <trkpt lat="47.01129" lon="0.77385">
        <ele>117</ele>
        <time>2020-07-03T14:20:32Z</time>
      </trkpt>
      <trkpt lat="47.01124" lon="0.7738">
        <ele>116.9</ele>
        <time>2020-07-03T14:20:33Z</time>
      </trkpt>
      <trkpt lat="47.01119" lon="0.77375">
        <ele>116.7</ele>
        <time>2020-07-03T14:20:34Z</time>
      </trkpt>
      <trkpt lat="47.01114" lon="0.7737">
        <ele>116.6</ele>
        <time>2020-07-03T14:20:35Z</time>
      </trkpt>
      <trkpt lat="47.01108" lon="0.77365">
        <ele>116.4</ele>
        <time>2020-07-03T14:20:36Z</time>
      </trkpt>
      <trkpt lat="47.01103" lon="0.7736">
        <ele>116.3</ele>
        <time>2020-07-03T14:20:37Z</time>
      </trkpt>
      <trkpt lat="47.01098" lon="0.77355">
        <ele>116.1</ele>
        <time>2020-07-03T14:20:38Z</time>
      </trkpt>
      <trkpt lat="47.01093" lon="0.77348">
        <ele>116</ele>
        <time>2020-07-03T14:20:39Z</time>
      </trkpt>
      <trkpt lat="47.01087" lon="0.77343">
        <ele>115.9</ele>
        <time>2020-07-03T14:20:40Z</time>
      </trkpt>
      <trkpt lat="47.01082" lon="0.77338">
        <ele>115.7</ele>
        <time>2020-07-03T14:20:41Z</time>
      </trkpt>
      <trkpt lat="47.01076" lon="0.77333">
        <ele>115.6</ele>
        <time>2020-07-03T14:20:42Z</time>
      </trkpt>
      <trkpt lat="47.01069" lon="0.77326">
        <ele>115.4</ele>
        <time>2020-07-03T14:20:43Z</time>
      </trkpt>
      <trkpt lat="47.01064" lon="0.77321">
        <ele>115.3</ele>
        <time>2020-07-03T14:20:44Z</time>
      </trkpt>
      <trkpt lat="47.01058" lon="0.77315">
        <ele>115.2</ele>
        <time>2020-07-03T14:20:45Z</time>
      </trkpt>
      <trkpt lat="47.01053" lon="0.77309">
        <ele>115.1</ele>
        <time>2020-07-03T14:20:46Z</time>
      </trkpt>
      <trkpt lat="47.01047" lon="0.77303">
        <ele>115</ele>
        <time>2020-07-03T14:20:47Z</time>
      </trkpt>
      <trkpt lat="47.01042" lon="0.77297">
        <ele>114.9</ele>
        <time>2020-07-03T14:20:48Z</time>
      </trkpt>
      <trkpt lat="47.01037" lon="0.77292">
        <ele>114.9</ele>
        <time>2020-07-03T14:20:49Z</time>
      </trkpt>
      <trkpt lat="47.01031" lon="0.77286">
        <ele>115</ele>
        <time>2020-07-03T14:20:50Z</time>
      </trkpt>
      <trkpt lat="47.01026" lon="0.77281">
        <ele>115.1</ele>
        <time>2020-07-03T14:20:51Z</time>
      </trkpt>
      <trkpt lat="47.0102" lon="0.77275">
        <ele>115.2</ele>
        <time>2020-07-03T14:20:52Z</time>
      </trkpt>
      <trkpt lat="47.01016" lon="0.7727">
        <ele>115.3</ele>
        <time>2020-07-03T14:20:53Z</time>
      </trkpt>
      <trkpt lat="47.0101" lon="0.77265">
        <ele>115.5</ele>
        <time>2020-07-03T14:20:54Z</time>
      </trkpt>
      <trkpt lat="47.01005" lon="0.7726">
        <ele>115.6</ele>
        <time>2020-07-03T14:20:55Z</time>
      </trkpt>
      <trkpt lat="47.01" lon="0.77255">
        <ele>115.8</ele>
        <time>2020-07-03T14:20:56Z</time>
      </trkpt>
      <trkpt lat="47.00995" lon="0.77251">
        <ele>115.9</ele>
        <time>2020-07-03T14:20:57Z</time>
      </trkpt>
      <trkpt lat="47.0099" lon="0.77246">
        <ele>116</ele>
        <time>2020-07-03T14:20:58Z</time>
      </trkpt>
      <trkpt lat="47.00985" lon="0.77241">
        <ele>116</ele>
        <time>2020-07-03T14:20:59Z</time>
      </trkpt>
      <trkpt lat="47.0098" lon="0.77235">
        <ele>116.1</ele>
        <time>2020-07-03T14:21:00Z</time>
      </trkpt>
      <trkpt lat="47.00975" lon="0.77229">
        <ele>116.2</ele>
        <time>2020-07-03T14:21:01Z</time>
      </trkpt>
      <trkpt lat="47.0097" lon="0.77224">
        <ele>116.3</ele>
        <time>2020-07-03T14:21:02Z</time>
      </trkpt>
      <trkpt lat="47.00965" lon="0.77219">
        <ele>116.4</ele>
        <time>2020-07-03T14:21:03Z</time>
      </trkpt>
      <trkpt lat="47.0096" lon="0.77213">
        <ele>116.5</ele>
        <time>2020-07-03T14:21:04Z</time>
      </trkpt>
      <trkpt lat="47.00956" lon="0.77208">
        <ele>116.5</ele>
        <time>2020-07-03T14:21:05Z</time>
      </trkpt>
      <trkpt lat="47.0095" lon="0.77204">
        <ele>116.6</ele>
        <time>2020-07-03T14:21:06Z</time>
      </trkpt>
      <trkpt lat="47.00946" lon="0.772">
        <ele>116.7</ele>
        <time>2020-07-03T14:21:07Z</time>
      </trkpt>
      <trkpt lat="47.00941" lon="0.77196">
        <ele>116.8</ele>
        <time>2020-07-03T14:21:08Z</time>
      </trkpt>
      <trkpt lat="47.00937" lon="0.7719">
        <ele>116.9</ele>
        <time>2020-07-03T14:21:09Z</time>
      </trkpt>
      <trkpt lat="47.00933" lon="0.77186">
        <ele>117</ele>
        <time>2020-07-03T14:21:10Z</time>
      </trkpt>
      <trkpt lat="47.00929" lon="0.77182">
        <ele>117.1</ele>
        <time>2020-07-03T14:21:11Z</time>
      </trkpt>
      <trkpt lat="47.00924" lon="0.77178">
        <ele>117.2</ele>
        <time>2020-07-03T14:21:12Z</time>
      </trkpt>
      <trkpt lat="47.0092" lon="0.77173">
        <ele>117.2</ele>
        <time>2020-07-03T14:21:13Z</time>
      </trkpt>
      <trkpt lat="47.00916" lon="0.77168">
        <ele>117.3</ele>
        <time>2020-07-03T14:21:14Z</time>
      </trkpt>
      <trkpt lat="47.00911" lon="0.77165">
        <ele>117.3</ele>
        <time>2020-07-03T14:21:15Z</time>
      </trkpt>
      <trkpt lat="47.00906" lon="0.7716">
        <ele>117.4</ele>
        <time>2020-07-03T14:21:16Z</time>
      </trkpt>
      <trkpt lat="47.00901" lon="0.77156">
        <ele>117.6</ele>
        <time>2020-07-03T14:21:17Z</time>
      </trkpt>
      <trkpt lat="47.00897" lon="0.77151">
        <ele>117.7</ele>
        <time>2020-07-03T14:21:18Z</time>
      </trkpt>
      <trkpt lat="47.00892" lon="0.77147">
        <ele>117.8</ele>
        <time>2020-07-03T14:21:19Z</time>
      </trkpt>
      <trkpt lat="47.00888" lon="0.77143">
        <ele>117.9</ele>
        <time>2020-07-03T14:21:20Z</time>
      </trkpt>
      <trkpt lat="47.00884" lon="0.7714">
        <ele>118</ele>
        <time>2020-07-03T14:21:21Z</time>
      </trkpt>
      <trkpt lat="47.0088" lon="0.77136">
        <ele>118.1</ele>
        <time>2020-07-03T14:21:22Z</time>
      </trkpt>
      <trkpt lat="47.00875" lon="0.77131">
        <ele>118.1</ele>
        <time>2020-07-03T14:21:23Z</time>
      </trkpt>
      <trkpt lat="47.00873" lon="0.77128">
        <ele>118.1</ele>
        <time>2020-07-03T14:21:24Z</time>
      </trkpt>
      <trkpt lat="47.00868" lon="0.77124">
        <ele>118.2</ele>
        <time>2020-07-03T14:21:25Z</time>
      </trkpt>
      <trkpt lat="47.00863" lon="0.7712">
        <ele>118.2</ele>
        <time>2020-07-03T14:21:26Z</time>
      </trkpt>
      <trkpt lat="47.00858" lon="0.77115">
        <ele>118.3</ele>
        <time>2020-07-03T14:21:27Z</time>
      </trkpt>
      <trkpt lat="47.00852" lon="0.77109">
        <ele>118.4</ele>
        <time>2020-07-03T14:21:28Z</time>
      </trkpt>
      <trkpt lat="47.00847" lon="0.77106">
        <ele>118.5</ele>
        <time>2020-07-03T14:21:29Z</time>
      </trkpt>
      <trkpt lat="47.00842" lon="0.77102">
        <ele>118.6</ele>
        <time>2020-07-03T14:21:30Z</time>
      </trkpt>
      <trkpt lat="47.00836" lon="0.77098">
        <ele>118.7</ele>
        <time>2020-07-03T14:21:31Z</time>
      </trkpt>
      <trkpt lat="47.00831" lon="0.77094">
        <ele>118.8</ele>
        <time>2020-07-03T14:21:32Z</time>
      </trkpt>
      <trkpt lat="47.00826" lon="0.7709">
        <ele>118.8</ele>
        <time>2020-07-03T14:21:33Z</time>
      </trkpt>
      <trkpt lat="47.00821" lon="0.77087">
        <ele>118.9</ele>
        <time>2020-07-03T14:21:34Z</time>
      </trkpt>
      <trkpt lat="47.00817" lon="0.77083">
        <ele>119</ele>
        <time>2020-07-03T14:21:35Z</time>
      </trkpt>
      <trkpt lat="47.00812" lon="0.77079">
        <ele>119.5</ele>
        <time>2020-07-03T14:21:36Z</time>
      </trkpt>
      <trkpt lat="47.00806" lon="0.77073">
        <ele>119.9</ele>
        <time>2020-07-03T14:21:37Z</time>
      </trkpt>
      <trkpt lat="47.00801" lon="0.7707">
        <ele>120.1</ele>
        <time>2020-07-03T14:21:38Z</time>
      </trkpt>
      <trkpt lat="47.00797" lon="0.77067">
        <ele>120.3</ele>
        <time>2020-07-03T14:21:39Z</time>
      </trkpt>
      <trkpt lat="47.00792" lon="0.77064">
        <ele>120.4</ele>
        <time>2020-07-03T14:21:40Z</time>
      </trkpt>
      <trkpt lat="47.00788" lon="0.7706">
        <ele>120.4</ele>
        <time>2020-07-03T14:21:41Z</time>
      </trkpt>
      <trkpt lat="47.00784" lon="0.77055">
        <ele>120.5</ele>
        <time>2020-07-03T14:21:42Z</time>
      </trkpt>
      <trkpt lat="47.00779" lon="0.77051">
        <ele>120.5</ele>
        <time>2020-07-03T14:21:43Z</time>
      </trkpt>
      <trkpt lat="47.00775" lon="0.77047">
        <ele>120.5</ele>
        <time>2020-07-03T14:21:44Z</time>
      </trkpt>
      <trkpt lat="47.0077" lon="0.77042">
        <ele>120.5</ele>
        <time>2020-07-03T14:21:45Z</time>
      </trkpt>
      <trkpt lat="47.00765" lon="0.77038">
        <ele>120.6</ele>
        <time>2020-07-03T14:21:46Z</time>
      </trkpt>
      <trkpt lat="47.0076" lon="0.77033">
        <ele>120.7</ele>
        <time>2020-07-03T14:21:47Z</time>
      </trkpt>
      <trkpt lat="47.00755" lon="0.77027">
        <ele>120.7</ele>
        <time>2020-07-03T14:21:48Z</time>
      </trkpt>
      <trkpt lat="47.00752" lon="0.77021">
        <ele>120.8</ele>
        <time>2020-07-03T14:21:49Z</time>
      </trkpt>
      <trkpt lat="47.00747" lon="0.77016">
        <ele>120.8</ele>
        <time>2020-07-03T14:21:50Z</time>
      </trkpt>
      <trkpt lat="47.00743" lon="0.77012">
        <ele>120.8</ele>
        <time>2020-07-03T14:21:51Z</time>
      </trkpt>
      <trkpt lat="47.00739" lon="0.77007">
        <ele>120.7</ele>
        <time>2020-07-03T14:21:52Z</time>
      </trkpt>
      <trkpt lat="47.00735" lon="0.77004">
        <ele>120.7</ele>
        <time>2020-07-03T14:21:53Z</time>
      </trkpt>
      <trkpt lat="47.00732" lon="0.77">
        <ele>120.6</ele>
        <time>2020-07-03T14:21:54Z</time>
      </trkpt>
      <trkpt lat="47.00728" lon="0.76995">
        <ele>120.6</ele>
        <time>2020-07-03T14:21:55Z</time>
      </trkpt>
      <trkpt lat="47.00723" lon="0.76987">
        <ele>120.5</ele>
        <time>2020-07-03T14:21:56Z</time>
      </trkpt>
      <trkpt lat="47.0072" lon="0.76981">
        <ele>120.5</ele>
        <time>2020-07-03T14:21:57Z</time>
      </trkpt>
      <trkpt lat="47.00717" lon="0.76976">
        <ele>120.5</ele>
        <time>2020-07-03T14:21:58Z</time>
      </trkpt>
      <trkpt lat="47.00711" lon="0.76971">
        <ele>120.5</ele>
        <time>2020-07-03T14:21:59Z</time>
      </trkpt>
      <trkpt lat="47.00707" lon="0.76963">
        <ele>120.6</ele>
        <time>2020-07-03T14:22:00Z</time>
      </trkpt>
      <trkpt lat="47.00704" lon="0.76957">
        <ele>120.6</ele>
        <time>2020-07-03T14:22:01Z</time>
      </trkpt>
      <trkpt lat="47.00701" lon="0.76952">
        <ele>120.6</ele>
        <time>2020-07-03T14:22:02Z</time>
      </trkpt>
      <trkpt lat="47.00698" lon="0.76945">
        <ele>120.6</ele>
        <time>2020-07-03T14:22:03Z</time>
      </trkpt>
      <trkpt lat="47.00695" lon="0.7694">
        <ele>120.7</ele>
        <time>2020-07-03T14:22:04Z</time>
      </trkpt>
      <trkpt lat="47.00692" lon="0.76934">
        <ele>120.7</ele>
        <time>2020-07-03T14:22:05Z</time>
      </trkpt>
      <trkpt lat="47.00688" lon="0.76927">
        <ele>120.7</ele>
        <time>2020-07-03T14:22:06Z</time>
      </trkpt>
      <trkpt lat="47.00685" lon="0.76923">
        <ele>120.8</ele>
        <time>2020-07-03T14:22:07Z</time>
      </trkpt>
      <trkpt lat="47.00682" lon="0.76917">
        <ele>120.8</ele>
        <time>2020-07-03T14:22:08Z</time>
      </trkpt>
      <trkpt lat="47.00679" lon="0.7691">
        <ele>120.9</ele>
        <time>2020-07-03T14:22:09Z</time>
      </trkpt>
      <trkpt lat="47.00676" lon="0.76903">
        <ele>120.8</ele>
        <time>2020-07-03T14:22:10Z</time>
      </trkpt>
      <trkpt lat="47.00673" lon="0.76894">
        <ele>120.8</ele>
        <time>2020-07-03T14:22:11Z</time>
      </trkpt>
      <trkpt lat="47.0067" lon="0.76889">
        <ele>120.8</ele>
        <time>2020-07-03T14:22:12Z</time>
      </trkpt>
      <trkpt lat="47.00667" lon="0.76883">
        <ele>120.8</ele>
        <time>2020-07-03T14:22:13Z</time>
      </trkpt>
      <trkpt lat="47.00664" lon="0.76877">
        <ele>120.8</ele>
        <time>2020-07-03T14:22:14Z</time>
      </trkpt>
      <trkpt lat="47.00662" lon="0.76868">
        <ele>121</ele>
        <time>2020-07-03T14:22:15Z</time>
      </trkpt>
      <trkpt lat="47.00659" lon="0.7686">
        <ele>121.1</ele>
        <time>2020-07-03T14:22:16Z</time>
      </trkpt>
      <trkpt lat="47.00657" lon="0.76853">
        <ele>121.2</ele>
        <time>2020-07-03T14:22:17Z</time>
      </trkpt>
      <trkpt lat="47.00655" lon="0.76846">
        <ele>121.2</ele>
        <time>2020-07-03T14:22:18Z</time>
      </trkpt>
      <trkpt lat="47.00653" lon="0.76841">
        <ele>121.3</ele>
        <time>2020-07-03T14:22:19Z</time>
      </trkpt>
      <trkpt lat="47.00651" lon="0.76833">
        <ele>121.4</ele>
        <time>2020-07-03T14:22:20Z</time>
      </trkpt>
      <trkpt lat="47.00648" lon="0.76825">
        <ele>121.5</ele>
        <time>2020-07-03T14:22:21Z</time>
      </trkpt>
      <trkpt lat="47.00645" lon="0.76817">
        <ele>121.6</ele>
        <time>2020-07-03T14:22:22Z</time>
      </trkpt>
      <trkpt lat="47.00643" lon="0.76809">
        <ele>121.6</ele>
        <time>2020-07-03T14:22:23Z</time>
      </trkpt>
      <trkpt lat="47.0064" lon="0.76801">
        <ele>121.6</ele>
        <time>2020-07-03T14:22:24Z</time>
      </trkpt>
      <trkpt lat="47.00639" lon="0.76794">
        <ele>121.6</ele>
        <time>2020-07-03T14:22:25Z</time>
      </trkpt>
      <trkpt lat="47.00638" lon="0.76788">
        <ele>121.6</ele>
        <time>2020-07-03T14:22:26Z</time>
      </trkpt>
      <trkpt lat="47.00635" lon="0.76779">
        <ele>121.6</ele>
        <time>2020-07-03T14:22:27Z</time>
      </trkpt>
      <trkpt lat="47.00633" lon="0.76773">
        <ele>121.7</ele>
        <time>2020-07-03T14:22:28Z</time>
      </trkpt>
      <trkpt lat="47.00631" lon="0.76765">
        <ele>121.7</ele>
        <time>2020-07-03T14:22:29Z</time>
      </trkpt>
      <trkpt lat="47.0063" lon="0.76758">
        <ele>121.7</ele>
        <time>2020-07-03T14:22:30Z</time>
      </trkpt>
      <trkpt lat="47.00628" lon="0.76752">
        <ele>121.7</ele>
        <time>2020-07-03T14:22:31Z</time>
      </trkpt>
      <trkpt lat="47.00626" lon="0.76746">
        <ele>121.7</ele>
        <time>2020-07-03T14:22:32Z</time>
      </trkpt>
      <trkpt lat="47.00625" lon="0.7674">
        <ele>121.7</ele>
        <time>2020-07-03T14:22:33Z</time>
      </trkpt>
      <trkpt lat="47.00623" lon="0.76733">
        <ele>121.7</ele>
        <time>2020-07-03T14:22:34Z</time>
      </trkpt>
      <trkpt lat="47.00622" lon="0.76726">
        <ele>121.8</ele>
        <time>2020-07-03T14:22:35Z</time>
      </trkpt>
      <trkpt lat="47.0062" lon="0.76718">
        <ele>121.8</ele>
        <time>2020-07-03T14:22:36Z</time>
      </trkpt>
      <trkpt lat="47.00618" lon="0.76711">
        <ele>121.9</ele>
        <time>2020-07-03T14:22:37Z</time>
      </trkpt>
      <trkpt lat="47.00617" lon="0.76705">
        <ele>121.9</ele>
        <time>2020-07-03T14:22:38Z</time>
      </trkpt>
      <trkpt lat="47.00615" lon="0.76699">
        <ele>122</ele>
        <time>2020-07-03T14:22:39Z</time>
      </trkpt>
      <trkpt lat="47.00613" lon="0.76692">
        <ele>122</ele>
        <time>2020-07-03T14:22:40Z</time>
      </trkpt>
      <trkpt lat="47.00611" lon="0.76687">
        <ele>122</ele>
        <time>2020-07-03T14:22:41Z</time>
      </trkpt>
      <trkpt lat="47.00609" lon="0.76681">
        <ele>122</ele>
        <time>2020-07-03T14:22:42Z</time>
      </trkpt>
      <trkpt lat="47.00607" lon="0.76674">
        <ele>122</ele>
        <time>2020-07-03T14:22:43Z</time>
      </trkpt>
      <trkpt lat="47.00605" lon="0.76668">
        <ele>122</ele>
        <time>2020-07-03T14:22:44Z</time>
      </trkpt>
      <trkpt lat="47.00603" lon="0.7666">
        <ele>122</ele>
        <time>2020-07-03T14:22:45Z</time>
      </trkpt>
      <trkpt lat="47.006" lon="0.76652">
        <ele>122</ele>
        <time>2020-07-03T14:22:46Z</time>
      </trkpt>
      <trkpt lat="47.00598" lon="0.76645">
        <ele>122</ele>
        <time>2020-07-03T14:22:47Z</time>
      </trkpt>
      <trkpt lat="47.00596" lon="0.76636">
        <ele>121.9</ele>
        <time>2020-07-03T14:22:48Z</time>
      </trkpt>
      <trkpt lat="47.00594" lon="0.76628">
        <ele>121.8</ele>
        <time>2020-07-03T14:22:49Z</time>
      </trkpt>
      <trkpt lat="47.00592" lon="0.76619">
        <ele>121.8</ele>
        <time>2020-07-03T14:22:50Z</time>
      </trkpt>
      <trkpt lat="47.0059" lon="0.76611">
        <ele>121.8</ele>
        <time>2020-07-03T14:22:51Z</time>
      </trkpt>
      <trkpt lat="47.00588" lon="0.76605">
        <ele>121.8</ele>
        <time>2020-07-03T14:22:52Z</time>
      </trkpt>
      <trkpt lat="47.00586" lon="0.76596">
        <ele>121.8</ele>
        <time>2020-07-03T14:22:53Z</time>
      </trkpt>
      <trkpt lat="47.00584" lon="0.76588">
        <ele>121.8</ele>
        <time>2020-07-03T14:22:54Z</time>
      </trkpt>
      <trkpt lat="47.00583" lon="0.7658">
        <ele>121.7</ele>
        <time>2020-07-03T14:22:55Z</time>
      </trkpt>
      <trkpt lat="47.00581" lon="0.76571">
        <ele>121.6</ele>
        <time>2020-07-03T14:22:56Z</time>
      </trkpt>
      <trkpt lat="47.00579" lon="0.76562">
        <ele>121.6</ele>
        <time>2020-07-03T14:22:57Z</time>
      </trkpt>
      <trkpt lat="47.00577" lon="0.76552">
        <ele>121.5</ele>
        <time>2020-07-03T14:22:58Z</time>
      </trkpt>
      <trkpt lat="47.00576" lon="0.76544">
        <ele>121.5</ele>
        <time>2020-07-03T14:22:59Z</time>
      </trkpt>
      <trkpt lat="47.00574" lon="0.76536">
        <ele>121.4</ele>
        <time>2020-07-03T14:23:00Z</time>
      </trkpt>
      <trkpt lat="47.00571" lon="0.76528">
        <ele>121.4</ele>
        <time>2020-07-03T14:23:01Z</time>
      </trkpt>
      <trkpt lat="47.00569" lon="0.7652">
        <ele>121.3</ele>
        <time>2020-07-03T14:23:02Z</time>
      </trkpt>
      <trkpt lat="47.00567" lon="0.76511">
        <ele>121.2</ele>
        <time>2020-07-03T14:23:03Z</time>
      </trkpt>
      <trkpt lat="47.00565" lon="0.76505">
        <ele>121.2</ele>
        <time>2020-07-03T14:23:04Z</time>
      </trkpt>
      <trkpt lat="47.00562" lon="0.76495">
        <ele>121.3</ele>
        <time>2020-07-03T14:23:05Z</time>
      </trkpt>
      <trkpt lat="47.0056" lon="0.76489">
        <ele>121.3</ele>
        <time>2020-07-03T14:23:06Z</time>
      </trkpt>
      <trkpt lat="47.00558" lon="0.76482">
        <ele>121.5</ele>
        <time>2020-07-03T14:23:07Z</time>
      </trkpt>
      <trkpt lat="47.00556" lon="0.76475">
        <ele>121.6</ele>
        <time>2020-07-03T14:23:08Z</time>
      </trkpt>
      <trkpt lat="47.00554" lon="0.76468">
        <ele>121.8</ele>
        <time>2020-07-03T14:23:09Z</time>
      </trkpt>
      <trkpt lat="47.00552" lon="0.76459">
        <ele>121.8</ele>
        <time>2020-07-03T14:23:10Z</time>
      </trkpt>
      <trkpt lat="47.0055" lon="0.76451">
        <ele>121.9</ele>
        <time>2020-07-03T14:23:11Z</time>
      </trkpt>
      <trkpt lat="47.00548" lon="0.76443">
        <ele>121.9</ele>
        <time>2020-07-03T14:23:12Z</time>
      </trkpt>
      <trkpt lat="47.00545" lon="0.76435">
        <ele>121.9</ele>
        <time>2020-07-03T14:23:13Z</time>
      </trkpt>
      <trkpt lat="47.00543" lon="0.76429">
        <ele>122</ele>
        <time>2020-07-03T14:23:14Z</time>
      </trkpt>
      <trkpt lat="47.00541" lon="0.76422">
        <ele>122.1</ele>
        <time>2020-07-03T14:23:15Z</time>
      </trkpt>
      <trkpt lat="47.00538" lon="0.76414">
        <ele>122.2</ele>
        <time>2020-07-03T14:23:16Z</time>
      </trkpt>
      <trkpt lat="47.00536" lon="0.76407">
        <ele>122.3</ele>
        <time>2020-07-03T14:23:17Z</time>
      </trkpt>
      <trkpt lat="47.00533" lon="0.76399">
        <ele>122.3</ele>
        <time>2020-07-03T14:23:18Z</time>
      </trkpt>
      <trkpt lat="47.00532" lon="0.76392">
        <ele>122.3</ele>
        <time>2020-07-03T14:23:19Z</time>
      </trkpt>
      <trkpt lat="47.0053" lon="0.76387">
        <ele>122.3</ele>
        <time>2020-07-03T14:23:20Z</time>
      </trkpt>
      <trkpt lat="47.00527" lon="0.76381">
        <ele>122.2</ele>
        <time>2020-07-03T14:23:21Z</time>
      </trkpt>
      <trkpt lat="47.00525" lon="0.76373">
        <ele>122.2</ele>
        <time>2020-07-03T14:23:22Z</time>
      </trkpt>
      <trkpt lat="47.00523" lon="0.76366">
        <ele>122.2</ele>
        <time>2020-07-03T14:23:23Z</time>
      </trkpt>
      <trkpt lat="47.00521" lon="0.76359">
        <ele>122.3</ele>
        <time>2020-07-03T14:23:24Z</time>
      </trkpt>
      <trkpt lat="47.0052" lon="0.76352">
        <ele>122.3</ele>
        <time>2020-07-03T14:23:25Z</time>
      </trkpt>
      <trkpt lat="47.00517" lon="0.76343">
        <ele>122.4</ele>
        <time>2020-07-03T14:23:26Z</time>
      </trkpt>
      <trkpt lat="47.00515" lon="0.76334">
        <ele>122.5</ele>
        <time>2020-07-03T14:23:27Z</time>
      </trkpt>
      <trkpt lat="47.00513" lon="0.76327">
        <ele>122.6</ele>
        <time>2020-07-03T14:23:28Z</time>
      </trkpt>
      <trkpt lat="47.00511" lon="0.76321">
        <ele>122.6</ele>
        <time>2020-07-03T14:23:29Z</time>
      </trkpt>
      <trkpt lat="47.00509" lon="0.76314">
        <ele>122.7</ele>
        <time>2020-07-03T14:23:30Z</time>
      </trkpt>
      <trkpt lat="47.00506" lon="0.76305">
        <ele>122.5</ele>
        <time>2020-07-03T14:23:31Z</time>
      </trkpt>
      <trkpt lat="47.00503" lon="0.76298">
        <ele>122.5</ele>
        <time>2020-07-03T14:23:32Z</time>
      </trkpt>
      <trkpt lat="47.00501" lon="0.76292">
        <ele>122.5</ele>
        <time>2020-07-03T14:23:33Z</time>
      </trkpt>
      <trkpt lat="47.00498" lon="0.76284">
        <ele>122.5</ele>
        <time>2020-07-03T14:23:34Z</time>
      </trkpt>
      <trkpt lat="47.00496" lon="0.76278">
        <ele>122.5</ele>
        <time>2020-07-03T14:23:35Z</time>
      </trkpt>
      <trkpt lat="47.00493" lon="0.76272">
        <ele>122.6</ele>
        <time>2020-07-03T14:23:36Z</time>
      </trkpt>
      <trkpt lat="47.00491" lon="0.76265">
        <ele>122.6</ele>
        <time>2020-07-03T14:23:37Z</time>
      </trkpt>
      <trkpt lat="47.00489" lon="0.76259">
        <ele>122.6</ele>
        <time>2020-07-03T14:23:38Z</time>
      </trkpt>
      <trkpt lat="47.00487" lon="0.76251">
        <ele>122.7</ele>
        <time>2020-07-03T14:23:39Z</time>
      </trkpt>
      <trkpt lat="47.00485" lon="0.76243">
        <ele>122.8</ele>
        <time>2020-07-03T14:23:40Z</time>
      </trkpt>
      <trkpt lat="47.00484" lon="0.76238">
        <ele>122.8</ele>
        <time>2020-07-03T14:23:41Z</time>
      </trkpt>
      <trkpt lat="47.00483" lon="0.76232">
        <ele>122.8</ele>
        <time>2020-07-03T14:23:42Z</time>
      </trkpt>
      <trkpt lat="47.00482" lon="0.76225">
        <ele>122.9</ele>
        <time>2020-07-03T14:23:43Z</time>
      </trkpt>
      <trkpt lat="47.0048" lon="0.76219">
        <ele>123</ele>
        <time>2020-07-03T14:23:44Z</time>
      </trkpt>
      <trkpt lat="47.00478" lon="0.76212">
        <ele>123</ele>
        <time>2020-07-03T14:23:45Z</time>
      </trkpt>
      <trkpt lat="47.00476" lon="0.76204">
        <ele>123</ele>
        <time>2020-07-03T14:23:46Z</time>
      </trkpt>
      <trkpt lat="47.00473" lon="0.76197">
        <ele>123</ele>
        <time>2020-07-03T14:23:47Z</time>
      </trkpt>
      <trkpt lat="47.0047" lon="0.7619">
        <ele>123</ele>
        <time>2020-07-03T14:23:48Z</time>
      </trkpt>
      <trkpt lat="47.00467" lon="0.76182">
        <ele>123</ele>
        <time>2020-07-03T14:23:49Z</time>
      </trkpt>
      <trkpt lat="47.00464" lon="0.76175">
        <ele>123</ele>
        <time>2020-07-03T14:23:50Z</time>
      </trkpt>
      <trkpt lat="47.00461" lon="0.76166">
        <ele>122.9</ele>
        <time>2020-07-03T14:23:51Z</time>
      </trkpt>
      <trkpt lat="47.00459" lon="0.7616">
        <ele>122.9</ele>
        <time>2020-07-03T14:23:52Z</time>
      </trkpt>
      <trkpt lat="47.00456" lon="0.76151">
        <ele>122.9</ele>
        <time>2020-07-03T14:23:53Z</time>
      </trkpt>
      <trkpt lat="47.00454" lon="0.76143">
        <ele>122.9</ele>
        <time>2020-07-03T14:23:54Z</time>
      </trkpt>
      <trkpt lat="47.00451" lon="0.76136">
        <ele>122.9</ele>
        <time>2020-07-03T14:23:55Z</time>
      </trkpt>
      <trkpt lat="47.00449" lon="0.76129">
        <ele>122.9</ele>
        <time>2020-07-03T14:23:56Z</time>
      </trkpt>
      <trkpt lat="47.00447" lon="0.76122">
        <ele>122.9</ele>
        <time>2020-07-03T14:23:57Z</time>
      </trkpt>
      <trkpt lat="47.00444" lon="0.76115">
        <ele>123</ele>
        <time>2020-07-03T14:23:58Z</time>
      </trkpt>
      <trkpt lat="47.00442" lon="0.76109">
        <ele>122.9</ele>
        <time>2020-07-03T14:23:59Z</time>
      </trkpt>
      <trkpt lat="47.00439" lon="0.76102">
        <ele>122.9</ele>
        <time>2020-07-03T14:24:00Z</time>
      </trkpt>
      <trkpt lat="47.00437" lon="0.76095">
        <ele>122.9</ele>
        <time>2020-07-03T14:24:01Z</time>
      </trkpt>
      <trkpt lat="47.00435" lon="0.76087">
        <ele>122.9</ele>
        <time>2020-07-03T14:24:02Z</time>
      </trkpt>
      <trkpt lat="47.00433" lon="0.76079">
        <ele>122.9</ele>
        <time>2020-07-03T14:24:03Z</time>
      </trkpt>
      <trkpt lat="47.0043" lon="0.76071">
        <ele>122.9</ele>
        <time>2020-07-03T14:24:04Z</time>
      </trkpt>
      <trkpt lat="47.00427" lon="0.76063">
        <ele>122.8</ele>
        <time>2020-07-03T14:24:05Z</time>
      </trkpt>
      <trkpt lat="47.00424" lon="0.76053">
        <ele>122.8</ele>
        <time>2020-07-03T14:24:06Z</time>
      </trkpt>
      <trkpt lat="47.00422" lon="0.76045">
        <ele>122.7</ele>
        <time>2020-07-03T14:24:07Z</time>
      </trkpt>
      <trkpt lat="47.00419" lon="0.76038">
        <ele>122.7</ele>
        <time>2020-07-03T14:24:08Z</time>
      </trkpt>
      <trkpt lat="47.00417" lon="0.7603">
        <ele>122.6</ele>
        <time>2020-07-03T14:24:09Z</time>
      </trkpt>
      <trkpt lat="47.00414" lon="0.76023">
        <ele>122.6</ele>
        <time>2020-07-03T14:24:10Z</time>
      </trkpt>
      <trkpt lat="47.00411" lon="0.76014">
        <ele>122.5</ele>
        <time>2020-07-03T14:24:11Z</time>
      </trkpt>
      <trkpt lat="47.00409" lon="0.76006">
        <ele>122.5</ele>
        <time>2020-07-03T14:24:12Z</time>
      </trkpt>
      <trkpt lat="47.00407" lon="0.75999">
        <ele>122.5</ele>
        <time>2020-07-03T14:24:13Z</time>
      </trkpt>
      <trkpt lat="47.00404" lon="0.7599">
        <ele>122.5</ele>
        <time>2020-07-03T14:24:14Z</time>
      </trkpt>
      <trkpt lat="47.00402" lon="0.75982">
        <ele>122.6</ele>
        <time>2020-07-03T14:24:15Z</time>
      </trkpt>
      <trkpt lat="47.004" lon="0.75974">
        <ele>122.6</ele>
        <time>2020-07-03T14:24:16Z</time>
      </trkpt>
      <trkpt lat="47.00398" lon="0.75967">
        <ele>122.6</ele>
        <time>2020-07-03T14:24:17Z</time>
      </trkpt>
      <trkpt lat="47.00395" lon="0.75957">
        <ele>122.6</ele>
        <time>2020-07-03T14:24:18Z</time>
      </trkpt>
      <trkpt lat="47.00393" lon="0.75949">
        <ele>122.6</ele>
        <time>2020-07-03T14:24:19Z</time>
      </trkpt>
      <trkpt lat="47.0039" lon="0.7594">
        <ele>122.6</ele>
        <time>2020-07-03T14:24:20Z</time>
      </trkpt>
      <trkpt lat="47.00386" lon="0.75932">
        <ele>122.6</ele>
        <time>2020-07-03T14:24:21Z</time>
      </trkpt>
      <trkpt lat="47.00381" lon="0.75925">
        <ele>122.7</ele>
        <time>2020-07-03T14:24:22Z</time>
      </trkpt>
      <trkpt lat="47.00378" lon="0.75917">
        <ele>122.7</ele>
        <time>2020-07-03T14:24:23Z</time>
      </trkpt>
      <trkpt lat="47.00375" lon="0.7591">
        <ele>122.7</ele>
        <time>2020-07-03T14:24:24Z</time>
      </trkpt>
      <trkpt lat="47.00371" lon="0.75902">
        <ele>122.6</ele>
        <time>2020-07-03T14:24:25Z</time>
      </trkpt>
      <trkpt lat="47.00367" lon="0.75893">
        <ele>122.5</ele>
        <time>2020-07-03T14:24:26Z</time>
      </trkpt>
      <trkpt lat="47.00363" lon="0.75884">
        <ele>122.4</ele>
        <time>2020-07-03T14:24:27Z</time>
      </trkpt>
      <trkpt lat="47.0036" lon="0.75876">
        <ele>122.3</ele>
        <time>2020-07-03T14:24:28Z</time>
      </trkpt>
      <trkpt lat="47.00357" lon="0.75867">
        <ele>122.3</ele>
        <time>2020-07-03T14:24:29Z</time>
      </trkpt>
      <trkpt lat="47.00353" lon="0.7586">
        <ele>122.2</ele>
        <time>2020-07-03T14:24:30Z</time>
      </trkpt>
      <trkpt lat="47.00349" lon="0.75852">
        <ele>122.2</ele>
        <time>2020-07-03T14:24:31Z</time>
      </trkpt>
      <trkpt lat="47.00345" lon="0.75844">
        <ele>122.1</ele>
        <time>2020-07-03T14:24:32Z</time>
      </trkpt>
      <trkpt lat="47.00341" lon="0.75836">
        <ele>122.1</ele>
        <time>2020-07-03T14:24:33Z</time>
      </trkpt>
      <trkpt lat="47.00337" lon="0.75828">
        <ele>122.2</ele>
        <time>2020-07-03T14:24:34Z</time>
      </trkpt>
      <trkpt lat="47.00333" lon="0.75821">
        <ele>122.2</ele>
        <time>2020-07-03T14:24:35Z</time>
      </trkpt>
      <trkpt lat="47.00329" lon="0.75813">
        <ele>122.2</ele>
        <time>2020-07-03T14:24:36Z</time>
      </trkpt>
      <trkpt lat="47.00326" lon="0.75805">
        <ele>122.2</ele>
        <time>2020-07-03T14:24:37Z</time>
      </trkpt>
      <trkpt lat="47.00323" lon="0.75797">
        <ele>122.1</ele>
        <time>2020-07-03T14:24:38Z</time>
      </trkpt>
      <trkpt lat="47.00318" lon="0.75789">
        <ele>122.1</ele>
        <time>2020-07-03T14:24:39Z</time>
      </trkpt>
      <trkpt lat="47.00315" lon="0.75781">
        <ele>122</ele>
        <time>2020-07-03T14:24:40Z</time>
      </trkpt>
      <trkpt lat="47.0031" lon="0.75772">
        <ele>121.9</ele>
        <time>2020-07-03T14:24:41Z</time>
      </trkpt>
      <trkpt lat="47.00306" lon="0.75763">
        <ele>121.8</ele>
        <time>2020-07-03T14:24:42Z</time>
      </trkpt>
      <trkpt lat="47.00302" lon="0.75755">
        <ele>121.6</ele>
        <time>2020-07-03T14:24:43Z</time>
      </trkpt>
      <trkpt lat="47.00298" lon="0.75748">
        <ele>121.5</ele>
        <time>2020-07-03T14:24:44Z</time>
      </trkpt>
      <trkpt lat="47.00294" lon="0.75741">
        <ele>121.4</ele>
        <time>2020-07-03T14:24:45Z</time>
      </trkpt>
      <trkpt lat="47.0029" lon="0.75734">
        <ele>121.2</ele>
        <time>2020-07-03T14:24:46Z</time>
      </trkpt>
      <trkpt lat="47.00286" lon="0.75726">
        <ele>121.1</ele>
        <time>2020-07-03T14:24:47Z</time>
      </trkpt>
      <trkpt lat="47.00282" lon="0.75719">
        <ele>121</ele>
        <time>2020-07-03T14:24:48Z</time>
      </trkpt>
      <trkpt lat="47.00278" lon="0.75711">
        <ele>120.9</ele>
        <time>2020-07-03T14:24:49Z</time>
      </trkpt>
      <trkpt lat="47.00273" lon="0.75704">
        <ele>120.8</ele>
        <time>2020-07-03T14:24:50Z</time>
      </trkpt>
      <trkpt lat="47.00268" lon="0.75697">
        <ele>120.7</ele>
        <time>2020-07-03T14:24:51Z</time>
      </trkpt>
      <trkpt lat="47.00263" lon="0.75689">
        <ele>120.7</ele>
        <time>2020-07-03T14:24:52Z</time>
      </trkpt>
      <trkpt lat="47.00258" lon="0.75681">
        <ele>120.6</ele>
        <time>2020-07-03T14:24:53Z</time>
      </trkpt>
      <trkpt lat="47.00254" lon="0.75673">
        <ele>120.5</ele>
        <time>2020-07-03T14:24:54Z</time>
      </trkpt>
      <trkpt lat="47.0025" lon="0.75666">
        <ele>120.5</ele>
        <time>2020-07-03T14:24:55Z</time>
      </trkpt>
      <trkpt lat="47.00245" lon="0.75658">
        <ele>120.4</ele>
        <time>2020-07-03T14:24:56Z</time>
      </trkpt>
      <trkpt lat="47.0024" lon="0.75651">
        <ele>120.3</ele>
        <time>2020-07-03T14:24:57Z</time>
      </trkpt>
      <trkpt lat="47.00235" lon="0.75644">
        <ele>120.2</ele>
        <time>2020-07-03T14:24:58Z</time>
      </trkpt>
      <trkpt lat="47.0023" lon="0.75636">
        <ele>120</ele>
        <time>2020-07-03T14:24:59Z</time>
      </trkpt>
      <trkpt lat="47.00226" lon="0.75629">
        <ele>119.9</ele>
        <time>2020-07-03T14:25:00Z</time>
      </trkpt>
      <trkpt lat="47.00221" lon="0.75622">
        <ele>119.8</ele>
        <time>2020-07-03T14:25:01Z</time>
      </trkpt>
      <trkpt lat="47.00216" lon="0.75615">
        <ele>119.7</ele>
        <time>2020-07-03T14:25:02Z</time>
      </trkpt>
      <trkpt lat="47.00211" lon="0.75607">
        <ele>119.7</ele>
        <time>2020-07-03T14:25:03Z</time>
      </trkpt>
      <trkpt lat="47.00207" lon="0.756">
        <ele>119.7</ele>
        <time>2020-07-03T14:25:04Z</time>
      </trkpt>
      <trkpt lat="47.00201" lon="0.75593">
        <ele>119.7</ele>
        <time>2020-07-03T14:25:05Z</time>
      </trkpt>
      <trkpt lat="47.00196" lon="0.75586">
        <ele>119.6</ele>
        <time>2020-07-03T14:25:06Z</time>
      </trkpt>
      <trkpt lat="47.00192" lon="0.75578">
        <ele>119.6</ele>
        <time>2020-07-03T14:25:07Z</time>
      </trkpt>
      <trkpt lat="47.00187" lon="0.7557">
        <ele>119.5</ele>
        <time>2020-07-03T14:25:08Z</time>
      </trkpt>
      <trkpt lat="47.00182" lon="0.75562">
        <ele>119.4</ele>
        <time>2020-07-03T14:25:09Z</time>
      </trkpt>
      <trkpt lat="47.00177" lon="0.75555">
        <ele>119.3</ele>
        <time>2020-07-03T14:25:10Z</time>
      </trkpt>
      <trkpt lat="47.00172" lon="0.75548">
        <ele>119</ele>
        <time>2020-07-03T14:25:11Z</time>
      </trkpt>
      <trkpt lat="47.00167" lon="0.7554">
        <ele>118.8</ele>
        <time>2020-07-03T14:25:12Z</time>
      </trkpt>
      <trkpt lat="47.00162" lon="0.75533">
        <ele>118.7</ele>
        <time>2020-07-03T14:25:13Z</time>
      </trkpt>
      <trkpt lat="47.00157" lon="0.75525">
        <ele>118.6</ele>
        <time>2020-07-03T14:25:14Z</time>
      </trkpt>
      <trkpt lat="47.00153" lon="0.75517">
        <ele>118.6</ele>
        <time>2020-07-03T14:25:15Z</time>
      </trkpt>
      <trkpt lat="47.00148" lon="0.75509">
        <ele>118.5</ele>
        <time>2020-07-03T14:25:16Z</time>
      </trkpt>
      <trkpt lat="47.00143" lon="0.75502">
        <ele>118.4</ele>
        <time>2020-07-03T14:25:17Z</time>
      </trkpt>
      <trkpt lat="47.00138" lon="0.75495">
        <ele>118.3</ele>
        <time>2020-07-03T14:25:18Z</time>
      </trkpt>
      <trkpt lat="47.00134" lon="0.75487">
        <ele>118.2</ele>
        <time>2020-07-03T14:25:19Z</time>
      </trkpt>
      <trkpt lat="47.0013" lon="0.7548">
        <ele>118.1</ele>
        <time>2020-07-03T14:25:20Z</time>
      </trkpt>
      <trkpt lat="47.00125" lon="0.75472">
        <ele>118</ele>
        <time>2020-07-03T14:25:21Z</time>
      </trkpt>
      <trkpt lat="47.00121" lon="0.75465">
        <ele>117.9</ele>
        <time>2020-07-03T14:25:22Z</time>
      </trkpt>
      <trkpt lat="47.00116" lon="0.75458">
        <ele>117.8</ele>
        <time>2020-07-03T14:25:23Z</time>
      </trkpt>
      <trkpt lat="47.00112" lon="0.7545">
        <ele>117.8</ele>
        <time>2020-07-03T14:25:24Z</time>
      </trkpt>
      <trkpt lat="47.00108" lon="0.75443">
        <ele>117.8</ele>
        <time>2020-07-03T14:25:25Z</time>
      </trkpt>
      <trkpt lat="47.00103" lon="0.75435">
        <ele>117.7</ele>
        <time>2020-07-03T14:25:26Z</time>
      </trkpt>
      <trkpt lat="47.00099" lon="0.75428">
        <ele>117.7</ele>
        <time>2020-07-03T14:25:27Z</time>
      </trkpt>
      <trkpt lat="47.00095" lon="0.75421">
        <ele>117.6</ele>
        <time>2020-07-03T14:25:28Z</time>
      </trkpt>
      <trkpt lat="47.00091" lon="0.75413">
        <ele>117.6</ele>
        <time>2020-07-03T14:25:29Z</time>
      </trkpt>
      <trkpt lat="47.00087" lon="0.75406">
        <ele>117.4</ele>
        <time>2020-07-03T14:25:30Z</time>
      </trkpt>
      <trkpt lat="47.00083" lon="0.75399">
        <ele>117.3</ele>
        <time>2020-07-03T14:25:31Z</time>
      </trkpt>
      <trkpt lat="47.00078" lon="0.75391">
        <ele>117.1</ele>
        <time>2020-07-03T14:25:32Z</time>
      </trkpt>
      <trkpt lat="47.00074" lon="0.75384">
        <ele>117</ele>
        <time>2020-07-03T14:25:33Z</time>
      </trkpt>
      <trkpt lat="47.0007" lon="0.75377">
        <ele>116.8</ele>
        <time>2020-07-03T14:25:34Z</time>
      </trkpt>
      <trkpt lat="47.00066" lon="0.7537">
        <ele>116.8</ele>
        <time>2020-07-03T14:25:35Z</time>
      </trkpt>
      <trkpt lat="47.00062" lon="0.75363">
        <ele>116.7</ele>
        <time>2020-07-03T14:25:36Z</time>
      </trkpt>
      <trkpt lat="47.00057" lon="0.75356">
        <ele>116.7</ele>
        <time>2020-07-03T14:25:37Z</time>
      </trkpt>
      <trkpt lat="47.00053" lon="0.75349">
        <ele>116.7</ele>
        <time>2020-07-03T14:25:38Z</time>
      </trkpt>
      <trkpt lat="47.00049" lon="0.75341">
        <ele>116.6</ele>
        <time>2020-07-03T14:25:39Z</time>
      </trkpt>
      <trkpt lat="47.00044" lon="0.75334">
        <ele>116.4</ele>
        <time>2020-07-03T14:25:40Z</time>
      </trkpt>
      <trkpt lat="47.0004" lon="0.75326">
        <ele>116.3</ele>
        <time>2020-07-03T14:25:41Z</time>
      </trkpt>
      <trkpt lat="47.00036" lon="0.75318">
        <ele>116.2</ele>
        <time>2020-07-03T14:25:42Z</time>
      </trkpt>
      <trkpt lat="47.00031" lon="0.75311">
        <ele>116</ele>
        <time>2020-07-03T14:25:43Z</time>
      </trkpt>
      <trkpt lat="47.00027" lon="0.75303">
        <ele>115.9</ele>
        <time>2020-07-03T14:25:44Z</time>
      </trkpt>
      <trkpt lat="47.00023" lon="0.75296">
        <ele>115.7</ele>
        <time>2020-07-03T14:25:45Z</time>
      </trkpt>
      <trkpt lat="47.00018" lon="0.75288">
        <ele>115.5</ele>
        <time>2020-07-03T14:25:46Z</time>
      </trkpt>
      <trkpt lat="47.00014" lon="0.7528">
        <ele>115.2</ele>
        <time>2020-07-03T14:25:47Z</time>
      </trkpt>
      <trkpt lat="47.00009" lon="0.75272">
        <ele>114.9</ele>
        <time>2020-07-03T14:25:48Z</time>
      </trkpt>
      <trkpt lat="47.00005" lon="0.75264">
        <ele>114.7</ele>
        <time>2020-07-03T14:25:49Z</time>
      </trkpt>
      <trkpt lat="47" lon="0.75256">
        <ele>114.5</ele>
        <time>2020-07-03T14:25:50Z</time>
      </trkpt>
      <trkpt lat="46.99995" lon="0.75248">
        <ele>114.4</ele>
        <time>2020-07-03T14:25:51Z</time>
      </trkpt>
      <trkpt lat="46.99991" lon="0.75241">
        <ele>114.2</ele>
        <time>2020-07-03T14:25:52Z</time>
      </trkpt>
      <trkpt lat="46.99986" lon="0.75233">
        <ele>114.2</ele>
        <time>2020-07-03T14:25:53Z</time>
      </trkpt>
      <trkpt lat="46.99981" lon="0.75225">
        <ele>114.1</ele>
        <time>2020-07-03T14:25:54Z</time>
      </trkpt>
      <trkpt lat="46.99977" lon="0.75216">
        <ele>114.1</ele>
        <time>2020-07-03T14:25:55Z</time>
      </trkpt>
      <trkpt lat="46.99973" lon="0.75208">
        <ele>114</ele>
        <time>2020-07-03T14:25:56Z</time>
      </trkpt>
      <trkpt lat="46.99969" lon="0.752">
        <ele>114</ele>
        <time>2020-07-03T14:25:57Z</time>
      </trkpt>
      <trkpt lat="46.99965" lon="0.75191">
        <ele>113.7</ele>
        <time>2020-07-03T14:25:58Z</time>
      </trkpt>
      <trkpt lat="46.99961" lon="0.75182">
        <ele>113.5</ele>
        <time>2020-07-03T14:25:59Z</time>
      </trkpt>
      <trkpt lat="46.99957" lon="0.75173">
        <ele>113.4</ele>
        <time>2020-07-03T14:26:00Z</time>
      </trkpt>
      <trkpt lat="46.99953" lon="0.75164">
        <ele>113.3</ele>
        <time>2020-07-03T14:26:01Z</time>
      </trkpt>
      <trkpt lat="46.99949" lon="0.75155">
        <ele>113.2</ele>
        <time>2020-07-03T14:26:02Z</time>
      </trkpt>
      <trkpt lat="46.99944" lon="0.75146">
        <ele>113.1</ele>
        <time>2020-07-03T14:26:03Z</time>
      </trkpt>
      <trkpt lat="46.9994" lon="0.75138">
        <ele>113.1</ele>
        <time>2020-07-03T14:26:04Z</time>
      </trkpt>
      <trkpt lat="46.99936" lon="0.7513">
        <ele>113.2</ele>
        <time>2020-07-03T14:26:05Z</time>
      </trkpt>
      <trkpt lat="46.99932" lon="0.75121">
        <ele>113.2</ele>
        <time>2020-07-03T14:26:06Z</time>
      </trkpt>
      <trkpt lat="46.99928" lon="0.75113">
        <ele>113.3</ele>
        <time>2020-07-03T14:26:07Z</time>
      </trkpt>
      <trkpt lat="46.99924" lon="0.75105">
        <ele>113.3</ele>
        <time>2020-07-03T14:26:08Z</time>
      </trkpt>
      <trkpt lat="46.99919" lon="0.75097">
        <ele>113.3</ele>
        <time>2020-07-03T14:26:09Z</time>
      </trkpt>
      <trkpt lat="46.99915" lon="0.75089">
        <ele>113.3</ele>
        <time>2020-07-03T14:26:10Z</time>
      </trkpt>
      <trkpt lat="46.99911" lon="0.75081">
        <ele>113.4</ele>
        <time>2020-07-03T14:26:11Z</time>
      </trkpt>
      <trkpt lat="46.99907" lon="0.75073">
        <ele>113.4</ele>
        <time>2020-07-03T14:26:12Z</time>
      </trkpt>
      <trkpt lat="46.99903" lon="0.75065">
        <ele>113.6</ele>
        <time>2020-07-03T14:26:13Z</time>
      </trkpt>
      <trkpt lat="46.99899" lon="0.75057">
        <ele>113.7</ele>
        <time>2020-07-03T14:26:14Z</time>
      </trkpt>
      <trkpt lat="46.99896" lon="0.75049">
        <ele>113.7</ele>
        <time>2020-07-03T14:26:15Z</time>
      </trkpt>
      <trkpt lat="46.99892" lon="0.75041">
        <ele>113.7</ele>
        <time>2020-07-03T14:26:16Z</time>
      </trkpt>
      <trkpt lat="46.99889" lon="0.75033">
        <ele>113.8</ele>
        <time>2020-07-03T14:26:17Z</time>
      </trkpt>
      <trkpt lat="46.99885" lon="0.75026">
        <ele>114</ele>
        <time>2020-07-03T14:26:18Z</time>
      </trkpt>
      <trkpt lat="46.99881" lon="0.75018">
        <ele>114.1</ele>
        <time>2020-07-03T14:26:19Z</time>
      </trkpt>
      <trkpt lat="46.99877" lon="0.75012">
        <ele>114.2</ele>
        <time>2020-07-03T14:26:20Z</time>
      </trkpt>
      <trkpt lat="46.99873" lon="0.75005">
        <ele>114.4</ele>
        <time>2020-07-03T14:26:21Z</time>
      </trkpt>
      <trkpt lat="46.9987" lon="0.74998">
        <ele>114.5</ele>
        <time>2020-07-03T14:26:22Z</time>
      </trkpt>
      <trkpt lat="46.99867" lon="0.74991">
        <ele>114.6</ele>
        <time>2020-07-03T14:26:23Z</time>
      </trkpt>
      <trkpt lat="46.99864" lon="0.74984">
        <ele>114.7</ele>
        <time>2020-07-03T14:26:24Z</time>
      </trkpt>
      <trkpt lat="46.9986" lon="0.74978">
        <ele>114.8</ele>
        <time>2020-07-03T14:26:25Z</time>
      </trkpt>
      <trkpt lat="46.99857" lon="0.74971">
        <ele>115</ele>
        <time>2020-07-03T14:26:26Z</time>
      </trkpt>
      <trkpt lat="46.99854" lon="0.74964">
        <ele>115.2</ele>
        <time>2020-07-03T14:26:27Z</time>
      </trkpt>
      <trkpt lat="46.9985" lon="0.74958">
        <ele>115.4</ele>
        <time>2020-07-03T14:26:28Z</time>
      </trkpt>
      <trkpt lat="46.99847" lon="0.74952">
        <ele>115.5</ele>
        <time>2020-07-03T14:26:29Z</time>
      </trkpt>
      <trkpt lat="46.99843" lon="0.74946">
        <ele>115.7</ele>
        <time>2020-07-03T14:26:30Z</time>
      </trkpt>
      <trkpt lat="46.9984" lon="0.74938">
        <ele>115.8</ele>
        <time>2020-07-03T14:26:31Z</time>
      </trkpt>
      <trkpt lat="46.99836" lon="0.74931">
        <ele>115.9</ele>
        <time>2020-07-03T14:26:32Z</time>
      </trkpt>
      <trkpt lat="46.99833" lon="0.74925">
        <ele>116</ele>
        <time>2020-07-03T14:26:33Z</time>
      </trkpt>
      <trkpt lat="46.9983" lon="0.7492">
        <ele>116.1</ele>
        <time>2020-07-03T14:26:34Z</time>
      </trkpt>
      <trkpt lat="46.99827" lon="0.74913">
        <ele>116.3</ele>
        <time>2020-07-03T14:26:35Z</time>
      </trkpt>
      <trkpt lat="46.99824" lon="0.74907">
        <ele>116.4</ele>
        <time>2020-07-03T14:26:36Z</time>
      </trkpt>
      <trkpt lat="46.99822" lon="0.74901">
        <ele>116.5</ele>
        <time>2020-07-03T14:26:37Z</time>
      </trkpt>
      <trkpt lat="46.9982" lon="0.74895">
        <ele>116.6</ele>
        <time>2020-07-03T14:26:38Z</time>
      </trkpt>
      <trkpt lat="46.99817" lon="0.7489">
        <ele>116.7</ele>
        <time>2020-07-03T14:26:39Z</time>
      </trkpt>
      <trkpt lat="46.99814" lon="0.74884">
        <ele>116.8</ele>
        <time>2020-07-03T14:26:40Z</time>
      </trkpt>
      <trkpt lat="46.9981" lon="0.74878">
        <ele>116.9</ele>
        <time>2020-07-03T14:26:41Z</time>
      </trkpt>
      <trkpt lat="46.99807" lon="0.74872">
        <ele>117</ele>
        <time>2020-07-03T14:26:42Z</time>
      </trkpt>
      <trkpt lat="46.99803" lon="0.74865">
        <ele>117</ele>
        <time>2020-07-03T14:26:43Z</time>
      </trkpt>
      <trkpt lat="46.99799" lon="0.7486">
        <ele>117.1</ele>
        <time>2020-07-03T14:26:44Z</time>
      </trkpt>
      <trkpt lat="46.99796" lon="0.74855">
        <ele>117.2</ele>
        <time>2020-07-03T14:26:45Z</time>
      </trkpt>
      <trkpt lat="46.99793" lon="0.7485">
        <ele>117.3</ele>
        <time>2020-07-03T14:26:46Z</time>
      </trkpt>
      <trkpt lat="46.99789" lon="0.74844">
        <ele>117.3</ele>
        <time>2020-07-03T14:26:47Z</time>
      </trkpt>
      <trkpt lat="46.99786" lon="0.74838">
        <ele>117.4</ele>
        <time>2020-07-03T14:26:48Z</time>
      </trkpt>
      <trkpt lat="46.99784" lon="0.74835">
        <ele>117.5</ele>
        <time>2020-07-03T14:26:49Z</time>
      </trkpt>
      <trkpt lat="46.9978" lon="0.74828">
        <ele>117.6</ele>
        <time>2020-07-03T14:26:50Z</time>
      </trkpt>
      <trkpt lat="46.99777" lon="0.74823">
        <ele>117.7</ele>
        <time>2020-07-03T14:26:51Z</time>
      </trkpt>
      <trkpt lat="46.99775" lon="0.74817">
        <ele>117.7</ele>
        <time>2020-07-03T14:26:52Z</time>
      </trkpt>
      <trkpt lat="46.99772" lon="0.74812">
        <ele>117.8</ele>
        <time>2020-07-03T14:26:53Z</time>
      </trkpt>
      <trkpt lat="46.9977" lon="0.74806">
        <ele>117.9</ele>
        <time>2020-07-03T14:26:54Z</time>
      </trkpt>
      <trkpt lat="46.99766" lon="0.748">
        <ele>118</ele>
        <time>2020-07-03T14:26:55Z</time>
      </trkpt>
      <trkpt lat="46.99764" lon="0.74795">
        <ele>118.1</ele>
        <time>2020-07-03T14:26:56Z</time>
      </trkpt>
      <trkpt lat="46.99761" lon="0.74789">
        <ele>118.2</ele>
        <time>2020-07-03T14:26:57Z</time>
      </trkpt>
      <trkpt lat="46.99758" lon="0.74783">
        <ele>118.4</ele>
        <time>2020-07-03T14:26:58Z</time>
      </trkpt>
      <trkpt lat="46.99754" lon="0.7478">
        <ele>118.4</ele>
        <time>2020-07-03T14:26:59Z</time>
      </trkpt>
      <trkpt lat="46.99751" lon="0.74774">
        <ele>118.4</ele>
        <time>2020-07-03T14:27:00Z</time>
      </trkpt>
      <trkpt lat="46.99747" lon="0.74768">
        <ele>118.5</ele>
        <time>2020-07-03T14:27:01Z</time>
      </trkpt>
      <trkpt lat="46.99744" lon="0.74762">
        <ele>118.5</ele>
        <time>2020-07-03T14:27:02Z</time>
      </trkpt>
      <trkpt lat="46.99741" lon="0.74757">
        <ele>118.6</ele>
        <time>2020-07-03T14:27:03Z</time>
      </trkpt>
      <trkpt lat="46.99738" lon="0.74753">
        <ele>118.6</ele>
        <time>2020-07-03T14:27:04Z</time>
      </trkpt>
      <trkpt lat="46.99735" lon="0.74748">
        <ele>118.7</ele>
        <time>2020-07-03T14:27:05Z</time>
      </trkpt>
      <trkpt lat="46.99732" lon="0.74743">
        <ele>118.8</ele>
        <time>2020-07-03T14:27:06Z</time>
      </trkpt>
      <trkpt lat="46.99729" lon="0.74738">
        <ele>118.9</ele>
        <time>2020-07-03T14:27:07Z</time>
      </trkpt>
      <trkpt lat="46.99726" lon="0.74733">
        <ele>118.9</ele>
        <time>2020-07-03T14:27:08Z</time>
      </trkpt>
      <trkpt lat="46.99722" lon="0.74727">
        <ele>118.9</ele>
        <time>2020-07-03T14:27:09Z</time>
      </trkpt>
      <trkpt lat="46.99719" lon="0.74722">
        <ele>118.9</ele>
        <time>2020-07-03T14:27:10Z</time>
      </trkpt>
      <trkpt lat="46.99716" lon="0.74716">
        <ele>118.9</ele>
        <time>2020-07-03T14:27:11Z</time>
      </trkpt>
      <trkpt lat="46.99712" lon="0.74711">
        <ele>119</ele>
        <time>2020-07-03T14:27:12Z</time>
      </trkpt>
      <trkpt lat="46.99709" lon="0.74705">
        <ele>119</ele>
        <time>2020-07-03T14:27:13Z</time>
      </trkpt>
      <trkpt lat="46.99705" lon="0.74699">
        <ele>119</ele>
        <time>2020-07-03T14:27:14Z</time>
      </trkpt>
      <trkpt lat="46.99702" lon="0.74694">
        <ele>119</ele>
        <time>2020-07-03T14:27:15Z</time>
      </trkpt>
      <trkpt lat="46.99698" lon="0.74689">
        <ele>119</ele>
        <time>2020-07-03T14:27:16Z</time>
      </trkpt>
      <trkpt lat="46.99694" lon="0.74683">
        <ele>119</ele>
        <time>2020-07-03T14:27:17Z</time>
      </trkpt>
      <trkpt lat="46.9969" lon="0.74678">
        <ele>118.9</ele>
        <time>2020-07-03T14:27:18Z</time>
      </trkpt>
      <trkpt lat="46.99687" lon="0.74674">
        <ele>118.9</ele>
        <time>2020-07-03T14:27:19Z</time>
      </trkpt>
      <trkpt lat="46.99684" lon="0.74669">
        <ele>118.8</ele>
        <time>2020-07-03T14:27:20Z</time>
      </trkpt>
      <trkpt lat="46.99681" lon="0.74663">
        <ele>118.8</ele>
        <time>2020-07-03T14:27:21Z</time>
      </trkpt>
      <trkpt lat="46.99677" lon="0.74656">
        <ele>118.8</ele>
        <time>2020-07-03T14:27:22Z</time>
      </trkpt>
      <trkpt lat="46.99675" lon="0.7465">
        <ele>118.7</ele>
        <time>2020-07-03T14:27:23Z</time>
      </trkpt>
      <trkpt lat="46.99672" lon="0.74644">
        <ele>118.7</ele>
        <time>2020-07-03T14:27:24Z</time>
      </trkpt>
      <trkpt lat="46.99669" lon="0.74639">
        <ele>118.7</ele>
        <time>2020-07-03T14:27:25Z</time>
      </trkpt>
      <trkpt lat="46.99665" lon="0.74631">
        <ele>118.6</ele>
        <time>2020-07-03T14:27:26Z</time>
      </trkpt>
      <trkpt lat="46.99662" lon="0.74626">
        <ele>118.6</ele>
        <time>2020-07-03T14:27:27Z</time>
      </trkpt>
      <trkpt lat="46.99659" lon="0.7462">
        <ele>118.6</ele>
        <time>2020-07-03T14:27:28Z</time>
      </trkpt>
      <trkpt lat="46.99655" lon="0.74612">
        <ele>118.6</ele>
        <time>2020-07-03T14:27:29Z</time>
      </trkpt>
      <trkpt lat="46.99652" lon="0.74606">
        <ele>118.5</ele>
        <time>2020-07-03T14:27:30Z</time>
      </trkpt>
      <trkpt lat="46.99649" lon="0.74599">
        <ele>118.5</ele>
        <time>2020-07-03T14:27:31Z</time>
      </trkpt>
      <trkpt lat="46.99646" lon="0.74594">
        <ele>118.4</ele>
        <time>2020-07-03T14:27:32Z</time>
      </trkpt>
      <trkpt lat="46.99642" lon="0.74588">
        <ele>118.4</ele>
        <time>2020-07-03T14:27:33Z</time>
      </trkpt>
      <trkpt lat="46.99639" lon="0.74582">
        <ele>118.3</ele>
        <time>2020-07-03T14:27:34Z</time>
      </trkpt>
      <trkpt lat="46.99636" lon="0.74575">
        <ele>118.3</ele>
        <time>2020-07-03T14:27:35Z</time>
      </trkpt>
      <trkpt lat="46.99632" lon="0.74568">
        <ele>118.3</ele>
        <time>2020-07-03T14:27:36Z</time>
      </trkpt>
      <trkpt lat="46.99629" lon="0.74562">
        <ele>118.3</ele>
        <time>2020-07-03T14:27:37Z</time>
      </trkpt>
      <trkpt lat="46.99625" lon="0.74553">
        <ele>118.2</ele>
        <time>2020-07-03T14:27:38Z</time>
      </trkpt>
      <trkpt lat="46.99622" lon="0.74548">
        <ele>118.2</ele>
        <time>2020-07-03T14:27:39Z</time>
      </trkpt>
      <trkpt lat="46.99618" lon="0.74541">
        <ele>118.2</ele>
        <time>2020-07-03T14:27:40Z</time>
      </trkpt>
      <trkpt lat="46.99615" lon="0.74534">
        <ele>118.2</ele>
        <time>2020-07-03T14:27:41Z</time>
      </trkpt>
      <trkpt lat="46.99612" lon="0.74527">
        <ele>118.1</ele>
        <time>2020-07-03T14:27:42Z</time>
      </trkpt>
      <trkpt lat="46.99609" lon="0.7452">
        <ele>118.1</ele>
        <time>2020-07-03T14:27:43Z</time>
      </trkpt>
      <trkpt lat="46.99606" lon="0.74512">
        <ele>118</ele>
        <time>2020-07-03T14:27:44Z</time>
      </trkpt>
      <trkpt lat="46.99603" lon="0.74505">
        <ele>118</ele>
        <time>2020-07-03T14:27:45Z</time>
      </trkpt>
      <trkpt lat="46.99601" lon="0.74498">
        <ele>117.9</ele>
        <time>2020-07-03T14:27:46Z</time>
      </trkpt>
      <trkpt lat="46.99599" lon="0.74491">
        <ele>117.9</ele>
        <time>2020-07-03T14:27:47Z</time>
      </trkpt>
      <trkpt lat="46.99597" lon="0.74483">
        <ele>117.9</ele>
        <time>2020-07-03T14:27:48Z</time>
      </trkpt>
      <trkpt lat="46.99595" lon="0.74477">
        <ele>117.9</ele>
        <time>2020-07-03T14:27:49Z</time>
      </trkpt>
      <trkpt lat="46.99592" lon="0.74469">
        <ele>117.9</ele>
        <time>2020-07-03T14:27:50Z</time>
      </trkpt>
      <trkpt lat="46.99589" lon="0.74461">
        <ele>118</ele>
        <time>2020-07-03T14:27:51Z</time>
      </trkpt>
      <trkpt lat="46.99586" lon="0.74453">
        <ele>118</ele>
        <time>2020-07-03T14:27:52Z</time>
      </trkpt>
      <trkpt lat="46.99583" lon="0.74445">
        <ele>117.9</ele>
        <time>2020-07-03T14:27:53Z</time>
      </trkpt>
      <trkpt lat="46.9958" lon="0.74439">
        <ele>117.9</ele>
        <time>2020-07-03T14:27:54Z</time>
      </trkpt>
      <trkpt lat="46.99578" lon="0.74433">
        <ele>117.9</ele>
        <time>2020-07-03T14:27:55Z</time>
      </trkpt>
      <trkpt lat="46.99576" lon="0.74425">
        <ele>117.9</ele>
        <time>2020-07-03T14:27:56Z</time>
      </trkpt>
      <trkpt lat="46.99573" lon="0.74418">
        <ele>117.9</ele>
        <time>2020-07-03T14:27:57Z</time>
      </trkpt>
      <trkpt lat="46.99571" lon="0.7441">
        <ele>117.9</ele>
        <time>2020-07-03T14:27:58Z</time>
      </trkpt>
      <trkpt lat="46.9957" lon="0.74406">
        <ele>117.9</ele>
        <time>2020-07-03T14:27:59Z</time>
      </trkpt>
      <trkpt lat="46.99567" lon="0.74399">
        <ele>117.9</ele>
        <time>2020-07-03T14:28:00Z</time>
      </trkpt>
      <trkpt lat="46.99566" lon="0.74391">
        <ele>117.9</ele>
        <time>2020-07-03T14:28:01Z</time>
      </trkpt>
      <trkpt lat="46.99564" lon="0.74384">
        <ele>118</ele>
        <time>2020-07-03T14:28:02Z</time>
      </trkpt>
      <trkpt lat="46.99562" lon="0.74376">
        <ele>118</ele>
        <time>2020-07-03T14:28:03Z</time>
      </trkpt>
      <trkpt lat="46.99561" lon="0.74369">
        <ele>118.1</ele>
        <time>2020-07-03T14:28:04Z</time>
      </trkpt>
      <trkpt lat="46.99559" lon="0.7436">
        <ele>118.1</ele>
        <time>2020-07-03T14:28:05Z</time>
      </trkpt>
      <trkpt lat="46.99557" lon="0.74352">
        <ele>118.1</ele>
        <time>2020-07-03T14:28:06Z</time>
      </trkpt>
      <trkpt lat="46.99555" lon="0.74343">
        <ele>118.1</ele>
        <time>2020-07-03T14:28:07Z</time>
      </trkpt>
      <trkpt lat="46.99554" lon="0.74335">
        <ele>118</ele>
        <time>2020-07-03T14:28:08Z</time>
      </trkpt>
      <trkpt lat="46.99552" lon="0.74328">
        <ele>118</ele>
        <time>2020-07-03T14:28:09Z</time>
      </trkpt>
      <trkpt lat="46.9955" lon="0.74321">
        <ele>118</ele>
        <time>2020-07-03T14:28:10Z</time>
      </trkpt>
      <trkpt lat="46.99548" lon="0.74313">
        <ele>118</ele>
        <time>2020-07-03T14:28:11Z</time>
      </trkpt>
      <trkpt lat="46.99547" lon="0.74304">
        <ele>118</ele>
        <time>2020-07-03T14:28:12Z</time>
      </trkpt>
      <trkpt lat="46.99546" lon="0.74295">
        <ele>118</ele>
        <time>2020-07-03T14:28:13Z</time>
      </trkpt>
      <trkpt lat="46.99546" lon="0.74286">
        <ele>118.1</ele>
        <time>2020-07-03T14:28:14Z</time>
      </trkpt>
      <trkpt lat="46.99544" lon="0.74276">
        <ele>118.2</ele>
        <time>2020-07-03T14:28:15Z</time>
      </trkpt>
      <trkpt lat="46.99544" lon="0.74267">
        <ele>118.2</ele>
        <time>2020-07-03T14:28:16Z</time>
      </trkpt>
      <trkpt lat="46.99544" lon="0.74261">
        <ele>118.2</ele>
        <time>2020-07-03T14:28:17Z</time>
      </trkpt>
      <trkpt lat="46.99543" lon="0.74254">
        <ele>118.2</ele>
        <time>2020-07-03T14:28:18Z</time>
      </trkpt>
      <trkpt lat="46.99541" lon="0.74245">
        <ele>118.2</ele>
        <time>2020-07-03T14:28:19Z</time>
      </trkpt>
      <trkpt lat="46.9954" lon="0.74237">
        <ele>118.2</ele>
        <time>2020-07-03T14:28:20Z</time>
      </trkpt>
      <trkpt lat="46.99538" lon="0.7423">
        <ele>118.2</ele>
        <time>2020-07-03T14:28:21Z</time>
      </trkpt>
      <trkpt lat="46.99537" lon="0.74222">
        <ele>118.2</ele>
        <time>2020-07-03T14:28:22Z</time>
      </trkpt>
      <trkpt lat="46.99537" lon="0.74215">
        <ele>118.2</ele>
        <time>2020-07-03T14:28:23Z</time>
      </trkpt>
      <trkpt lat="46.99537" lon="0.74205">
        <ele>118.2</ele>
        <time>2020-07-03T14:28:24Z</time>
      </trkpt>
      <trkpt lat="46.99536" lon="0.74199">
        <ele>118.2</ele>
        <time>2020-07-03T14:28:25Z</time>
      </trkpt>
      <trkpt lat="46.99535" lon="0.74192">
        <ele>118.2</ele>
        <time>2020-07-03T14:28:26Z</time>
      </trkpt>
      <trkpt lat="46.99534" lon="0.74183">
        <ele>118.2</ele>
        <time>2020-07-03T14:28:27Z</time>
      </trkpt>
      <trkpt lat="46.99533" lon="0.74175">
        <ele>118.2</ele>
        <time>2020-07-03T14:28:28Z</time>
      </trkpt>
      <trkpt lat="46.99532" lon="0.74167">
        <ele>118.2</ele>
        <time>2020-07-03T14:28:29Z</time>
      </trkpt>
      <trkpt lat="46.99531" lon="0.74159">
        <ele>118.2</ele>
        <time>2020-07-03T14:28:30Z</time>
      </trkpt>
      <trkpt lat="46.9953" lon="0.74151">
        <ele>118.3</ele>
        <time>2020-07-03T14:28:31Z</time>
      </trkpt>
      <trkpt lat="46.99529" lon="0.74144">
        <ele>118.3</ele>
        <time>2020-07-03T14:28:32Z</time>
      </trkpt>
      <trkpt lat="46.99528" lon="0.74139">
        <ele>118.3</ele>
        <time>2020-07-03T14:28:33Z</time>
      </trkpt>
      <trkpt lat="46.99528" lon="0.74132">
        <ele>118.4</ele>
        <time>2020-07-03T14:28:34Z</time>
      </trkpt>
      <trkpt lat="46.99527" lon="0.74124">
        <ele>118.4</ele>
        <time>2020-07-03T14:28:35Z</time>
      </trkpt>
      <trkpt lat="46.99526" lon="0.74116">
        <ele>118.5</ele>
        <time>2020-07-03T14:28:36Z</time>
      </trkpt>
      <trkpt lat="46.99526" lon="0.74109">
        <ele>118.5</ele>
        <time>2020-07-03T14:28:37Z</time>
      </trkpt>
      <trkpt lat="46.99524" lon="0.74102">
        <ele>118.5</ele>
        <time>2020-07-03T14:28:38Z</time>
      </trkpt>
      <trkpt lat="46.99523" lon="0.74094">
        <ele>118.6</ele>
        <time>2020-07-03T14:28:39Z</time>
      </trkpt>
      <trkpt lat="46.99523" lon="0.74087">
        <ele>118.6</ele>
        <time>2020-07-03T14:28:40Z</time>
      </trkpt>
      <trkpt lat="46.99522" lon="0.74081">
        <ele>118.6</ele>
        <time>2020-07-03T14:28:41Z</time>
      </trkpt>
      <trkpt lat="46.99522" lon="0.74073">
        <ele>118.7</ele>
        <time>2020-07-03T14:28:42Z</time>
      </trkpt>
      <trkpt lat="46.99521" lon="0.74066">
        <ele>118.7</ele>
        <time>2020-07-03T14:28:43Z</time>
      </trkpt>
      <trkpt lat="46.9952" lon="0.7406">
        <ele>118.7</ele>
        <time>2020-07-03T14:28:44Z</time>
      </trkpt>
      <trkpt lat="46.99518" lon="0.74053">
        <ele>118.7</ele>
        <time>2020-07-03T14:28:45Z</time>
      </trkpt>
      <trkpt lat="46.99517" lon="0.74045">
        <ele>118.7</ele>
        <time>2020-07-03T14:28:46Z</time>
      </trkpt>
      <trkpt lat="46.99516" lon="0.74037">
        <ele>118.7</ele>
        <time>2020-07-03T14:28:47Z</time>
      </trkpt>
      <trkpt lat="46.99515" lon="0.7403">
        <ele>118.6</ele>
        <time>2020-07-03T14:28:48Z</time>
      </trkpt>
      <trkpt lat="46.99514" lon="0.74023">
        <ele>118.6</ele>
        <time>2020-07-03T14:28:49Z</time>
      </trkpt>
      <trkpt lat="46.99513" lon="0.74016">
        <ele>118.5</ele>
        <time>2020-07-03T14:28:50Z</time>
      </trkpt>
      <trkpt lat="46.99512" lon="0.74011">
        <ele>118.5</ele>
        <time>2020-07-03T14:28:51Z</time>
      </trkpt>
      <trkpt lat="46.99511" lon="0.74003">
        <ele>118.5</ele>
        <time>2020-07-03T14:28:52Z</time>
      </trkpt>
      <trkpt lat="46.9951" lon="0.73996">
        <ele>118.5</ele>
        <time>2020-07-03T14:28:53Z</time>
      </trkpt>
      <trkpt lat="46.99508" lon="0.73988">
        <ele>118.6</ele>
        <time>2020-07-03T14:28:54Z</time>
      </trkpt>
      <trkpt lat="46.99507" lon="0.73982">
        <ele>118.6</ele>
        <time>2020-07-03T14:28:55Z</time>
      </trkpt>
      <trkpt lat="46.99505" lon="0.73974">
        <ele>118.6</ele>
        <time>2020-07-03T14:28:56Z</time>
      </trkpt>
      <trkpt lat="46.99503" lon="0.73965">
        <ele>118.6</ele>
        <time>2020-07-03T14:28:57Z</time>
      </trkpt>
      <trkpt lat="46.99502" lon="0.73958">
        <ele>118.7</ele>
        <time>2020-07-03T14:28:58Z</time>
      </trkpt>
      <trkpt lat="46.995" lon="0.7395">
        <ele>118.7</ele>
        <time>2020-07-03T14:28:59Z</time>
      </trkpt>
      <trkpt lat="46.99498" lon="0.73943">
        <ele>118.7</ele>
        <time>2020-07-03T14:29:00Z</time>
      </trkpt>
      <trkpt lat="46.99497" lon="0.73936">
        <ele>118.7</ele>
        <time>2020-07-03T14:29:01Z</time>
      </trkpt>
      <trkpt lat="46.99495" lon="0.73929">
        <ele>118.7</ele>
        <time>2020-07-03T14:29:02Z</time>
      </trkpt>
      <trkpt lat="46.99494" lon="0.73921">
        <ele>118.6</ele>
        <time>2020-07-03T14:29:03Z</time>
      </trkpt>
      <trkpt lat="46.99492" lon="0.73914">
        <ele>118.6</ele>
        <time>2020-07-03T14:29:04Z</time>
      </trkpt>
      <trkpt lat="46.99491" lon="0.73906">
        <ele>118.6</ele>
        <time>2020-07-03T14:29:05Z</time>
      </trkpt>
      <trkpt lat="46.9949" lon="0.73896">
        <ele>118.6</ele>
        <time>2020-07-03T14:29:06Z</time>
      </trkpt>
      <trkpt lat="46.99488" lon="0.7389">
        <ele>118.5</ele>
        <time>2020-07-03T14:29:07Z</time>
      </trkpt>
      <trkpt lat="46.99486" lon="0.7388">
        <ele>118.5</ele>
        <time>2020-07-03T14:29:08Z</time>
      </trkpt>
      <trkpt lat="46.99484" lon="0.73872">
        <ele>118.4</ele>
        <time>2020-07-03T14:29:09Z</time>
      </trkpt>
      <trkpt lat="46.99481" lon="0.73865">
        <ele>118.4</ele>
        <time>2020-07-03T14:29:10Z</time>
      </trkpt>
      <trkpt lat="46.9948" lon="0.73858">
        <ele>118.4</ele>
        <time>2020-07-03T14:29:11Z</time>
      </trkpt>
      <trkpt lat="46.99478" lon="0.73851">
        <ele>118.4</ele>
        <time>2020-07-03T14:29:12Z</time>
      </trkpt>
      <trkpt lat="46.99477" lon="0.73844">
        <ele>118.4</ele>
        <time>2020-07-03T14:29:13Z</time>
      </trkpt>
      <trkpt lat="46.99475" lon="0.73836">
        <ele>118.4</ele>
        <time>2020-07-03T14:29:14Z</time>
      </trkpt>
      <trkpt lat="46.99474" lon="0.73828">
        <ele>118.4</ele>
        <time>2020-07-03T14:29:15Z</time>
      </trkpt>
      <trkpt lat="46.99472" lon="0.73817">
        <ele>118.4</ele>
        <time>2020-07-03T14:29:16Z</time>
      </trkpt>
      <trkpt lat="46.9947" lon="0.73807">
        <ele>118.4</ele>
        <time>2020-07-03T14:29:17Z</time>
      </trkpt>
      <trkpt lat="46.99469" lon="0.73799">
        <ele>118.4</ele>
        <time>2020-07-03T14:29:18Z</time>
      </trkpt>
      <trkpt lat="46.99468" lon="0.73791">
        <ele>118.4</ele>
        <time>2020-07-03T14:29:19Z</time>
      </trkpt>
      <trkpt lat="46.99466" lon="0.73783">
        <ele>118.4</ele>
        <time>2020-07-03T14:29:20Z</time>
      </trkpt>
      <trkpt lat="46.99464" lon="0.73775">
        <ele>118.4</ele>
        <time>2020-07-03T14:29:21Z</time>
      </trkpt>
      <trkpt lat="46.99463" lon="0.73769">
        <ele>118.4</ele>
        <time>2020-07-03T14:29:22Z</time>
      </trkpt>
      <trkpt lat="46.99461" lon="0.73761">
        <ele>118.4</ele>
        <time>2020-07-03T14:29:23Z</time>
      </trkpt>
      <trkpt lat="46.99459" lon="0.73754">
        <ele>118.5</ele>
        <time>2020-07-03T14:29:24Z</time>
      </trkpt>
      <trkpt lat="46.99457" lon="0.73744">
        <ele>118.5</ele>
        <time>2020-07-03T14:29:25Z</time>
      </trkpt>
      <trkpt lat="46.99455" lon="0.73737">
        <ele>118.4</ele>
        <time>2020-07-03T14:29:26Z</time>
      </trkpt>
      <trkpt lat="46.99454" lon="0.73729">
        <ele>118.4</ele>
        <time>2020-07-03T14:29:27Z</time>
      </trkpt>
      <trkpt lat="46.99452" lon="0.73721">
        <ele>118.4</ele>
        <time>2020-07-03T14:29:28Z</time>
      </trkpt>
      <trkpt lat="46.99451" lon="0.73712">
        <ele>118.4</ele>
        <time>2020-07-03T14:29:29Z</time>
      </trkpt>
      <trkpt lat="46.99449" lon="0.73704">
        <ele>118.4</ele>
        <time>2020-07-03T14:29:30Z</time>
      </trkpt>
      <trkpt lat="46.99447" lon="0.73695">
        <ele>118.4</ele>
        <time>2020-07-03T14:29:31Z</time>
      </trkpt>
      <trkpt lat="46.99445" lon="0.73687">
        <ele>118.4</ele>
        <time>2020-07-03T14:29:32Z</time>
      </trkpt>
      <trkpt lat="46.99443" lon="0.73678">
        <ele>118.4</ele>
        <time>2020-07-03T14:29:33Z</time>
      </trkpt>
      <trkpt lat="46.99442" lon="0.73671">
        <ele>118.4</ele>
        <time>2020-07-03T14:29:34Z</time>
      </trkpt>
      <trkpt lat="46.9944" lon="0.73663">
        <ele>118.4</ele>
        <time>2020-07-03T14:29:35Z</time>
      </trkpt>
      <trkpt lat="46.99439" lon="0.73654">
        <ele>118.5</ele>
        <time>2020-07-03T14:29:36Z</time>
      </trkpt>
      <trkpt lat="46.99437" lon="0.73647">
        <ele>118.5</ele>
        <time>2020-07-03T14:29:37Z</time>
      </trkpt>
      <trkpt lat="46.99436" lon="0.73638">
        <ele>118.4</ele>
        <time>2020-07-03T14:29:38Z</time>
      </trkpt>
      <trkpt lat="46.99434" lon="0.7363">
        <ele>118.4</ele>
        <time>2020-07-03T14:29:39Z</time>
      </trkpt>
      <trkpt lat="46.99433" lon="0.73623">
        <ele>118.4</ele>
        <time>2020-07-03T14:29:40Z</time>
      </trkpt>
      <trkpt lat="46.99432" lon="0.73614">
        <ele>118.3</ele>
        <time>2020-07-03T14:29:41Z</time>
      </trkpt>
      <trkpt lat="46.99431" lon="0.73606">
        <ele>118.2</ele>
        <time>2020-07-03T14:29:42Z</time>
      </trkpt>
      <trkpt lat="46.99429" lon="0.73597">
        <ele>118.2</ele>
        <time>2020-07-03T14:29:43Z</time>
      </trkpt>
      <trkpt lat="46.99427" lon="0.7359">
        <ele>118.2</ele>
        <time>2020-07-03T14:29:44Z</time>
      </trkpt>
      <trkpt lat="46.99425" lon="0.73582">
        <ele>118.2</ele>
        <time>2020-07-03T14:29:45Z</time>
      </trkpt>
      <trkpt lat="46.99423" lon="0.73574">
        <ele>118.2</ele>
        <time>2020-07-03T14:29:46Z</time>
      </trkpt>
      <trkpt lat="46.99421" lon="0.73564">
        <ele>118.1</ele>
        <time>2020-07-03T14:29:47Z</time>
      </trkpt>
      <trkpt lat="46.99419" lon="0.73556">
        <ele>118.1</ele>
        <time>2020-07-03T14:29:48Z</time>
      </trkpt>
      <trkpt lat="46.99417" lon="0.73548">
        <ele>118.1</ele>
        <time>2020-07-03T14:29:49Z</time>
      </trkpt>
      <trkpt lat="46.99416" lon="0.73539">
        <ele>118.1</ele>
        <time>2020-07-03T14:29:50Z</time>
      </trkpt>
      <trkpt lat="46.99414" lon="0.73532">
        <ele>118.1</ele>
        <time>2020-07-03T14:29:51Z</time>
      </trkpt>
      <trkpt lat="46.99412" lon="0.73524">
        <ele>118.2</ele>
        <time>2020-07-03T14:29:52Z</time>
      </trkpt>
      <trkpt lat="46.9941" lon="0.73515">
        <ele>118.2</ele>
        <time>2020-07-03T14:29:53Z</time>
      </trkpt>
      <trkpt lat="46.99408" lon="0.73507">
        <ele>118.2</ele>
        <time>2020-07-03T14:29:54Z</time>
      </trkpt>
      <trkpt lat="46.99407" lon="0.73499">
        <ele>118.2</ele>
        <time>2020-07-03T14:29:55Z</time>
      </trkpt>
      <trkpt lat="46.99405" lon="0.73492">
        <ele>118.2</ele>
        <time>2020-07-03T14:29:56Z</time>
      </trkpt>
      <trkpt lat="46.99404" lon="0.73483">
        <ele>118.1</ele>
        <time>2020-07-03T14:29:57Z</time>
      </trkpt>
      <trkpt lat="46.99403" lon="0.73475">
        <ele>118.1</ele>
        <time>2020-07-03T14:29:58Z</time>
      </trkpt>
      <trkpt lat="46.99401" lon="0.73467">
        <ele>118.1</ele>
        <time>2020-07-03T14:29:59Z</time>
      </trkpt>
      <trkpt lat="46.994" lon="0.73459">
        <ele>118.1</ele>
        <time>2020-07-03T14:30:00Z</time>
      </trkpt>
      <trkpt lat="46.99398" lon="0.7345">
        <ele>118.1</ele>
        <time>2020-07-03T14:30:01Z</time>
      </trkpt>
      <trkpt lat="46.99397" lon="0.73441">
        <ele>118.1</ele>
        <time>2020-07-03T14:30:02Z</time>
      </trkpt>
      <trkpt lat="46.99395" lon="0.73433">
        <ele>118.1</ele>
        <time>2020-07-03T14:30:03Z</time>
      </trkpt>
      <trkpt lat="46.99393" lon="0.73425">
        <ele>118.1</ele>
        <time>2020-07-03T14:30:04Z</time>
      </trkpt>
      <trkpt lat="46.99392" lon="0.73418">
        <ele>118</ele>
        <time>2020-07-03T14:30:05Z</time>
      </trkpt>
      <trkpt lat="46.99389" lon="0.73411">
        <ele>118</ele>
        <time>2020-07-03T14:30:06Z</time>
      </trkpt>
      <trkpt lat="46.99388" lon="0.73404">
        <ele>117.9</ele>
        <time>2020-07-03T14:30:07Z</time>
      </trkpt>
      <trkpt lat="46.99386" lon="0.73396">
        <ele>117.9</ele>
        <time>2020-07-03T14:30:08Z</time>
      </trkpt>
      <trkpt lat="46.99384" lon="0.73388">
        <ele>117.8</ele>
        <time>2020-07-03T14:30:09Z</time>
      </trkpt>
      <trkpt lat="46.99383" lon="0.73379">
        <ele>117.8</ele>
        <time>2020-07-03T14:30:10Z</time>
      </trkpt>
      <trkpt lat="46.99381" lon="0.7337">
        <ele>117.7</ele>
        <time>2020-07-03T14:30:11Z</time>
      </trkpt>
      <trkpt lat="46.99379" lon="0.7336">
        <ele>117.7</ele>
        <time>2020-07-03T14:30:12Z</time>
      </trkpt>
      <trkpt lat="46.99377" lon="0.73353">
        <ele>117.7</ele>
        <time>2020-07-03T14:30:13Z</time>
      </trkpt>
      <trkpt lat="46.99374" lon="0.73344">
        <ele>117.8</ele>
        <time>2020-07-03T14:30:14Z</time>
      </trkpt>
      <trkpt lat="46.99372" lon="0.73336">
        <ele>117.8</ele>
        <time>2020-07-03T14:30:15Z</time>
      </trkpt>
      <trkpt lat="46.99369" lon="0.73326">
        <ele>117.8</ele>
        <time>2020-07-03T14:30:16Z</time>
      </trkpt>
      <trkpt lat="46.99368" lon="0.73319">
        <ele>117.7</ele>
        <time>2020-07-03T14:30:17Z</time>
      </trkpt>
      <trkpt lat="46.99367" lon="0.7331">
        <ele>117.6</ele>
        <time>2020-07-03T14:30:18Z</time>
      </trkpt>
      <trkpt lat="46.99365" lon="0.73302">
        <ele>117.5</ele>
        <time>2020-07-03T14:30:19Z</time>
      </trkpt>
      <trkpt lat="46.99364" lon="0.73293">
        <ele>117.4</ele>
        <time>2020-07-03T14:30:20Z</time>
      </trkpt>
      <trkpt lat="46.99363" lon="0.73284">
        <ele>117.3</ele>
        <time>2020-07-03T14:30:21Z</time>
      </trkpt>
      <trkpt lat="46.9936" lon="0.73275">
        <ele>117.2</ele>
        <time>2020-07-03T14:30:22Z</time>
      </trkpt>
      <trkpt lat="46.99359" lon="0.73266">
        <ele>117</ele>
        <time>2020-07-03T14:30:23Z</time>
      </trkpt>
      <trkpt lat="46.99357" lon="0.73257">
        <ele>116.9</ele>
        <time>2020-07-03T14:30:24Z</time>
      </trkpt>
      <trkpt lat="46.99355" lon="0.73248">
        <ele>116.8</ele>
        <time>2020-07-03T14:30:25Z</time>
      </trkpt>
      <trkpt lat="46.99353" lon="0.73239">
        <ele>116.7</ele>
        <time>2020-07-03T14:30:26Z</time>
      </trkpt>
      <trkpt lat="46.99352" lon="0.73232">
        <ele>116.6</ele>
        <time>2020-07-03T14:30:27Z</time>
      </trkpt>
      <trkpt lat="46.9935" lon="0.73223">
        <ele>116.6</ele>
        <time>2020-07-03T14:30:28Z</time>
      </trkpt>
      <trkpt lat="46.99348" lon="0.73214">
        <ele>116.6</ele>
        <time>2020-07-03T14:30:29Z</time>
      </trkpt>
      <trkpt lat="46.99346" lon="0.73206">
        <ele>116.6</ele>
        <time>2020-07-03T14:30:30Z</time>
      </trkpt>
      <trkpt lat="46.99345" lon="0.73198">
        <ele>116.5</ele>
        <time>2020-07-03T14:30:31Z</time>
      </trkpt>
      <trkpt lat="46.99343" lon="0.73189">
        <ele>116.5</ele>
        <time>2020-07-03T14:30:32Z</time>
      </trkpt>
      <trkpt lat="46.99341" lon="0.7318">
        <ele>116.5</ele>
        <time>2020-07-03T14:30:33Z</time>
      </trkpt>
      <trkpt lat="46.99339" lon="0.73171">
        <ele>116.4</ele>
        <time>2020-07-03T14:30:34Z</time>
      </trkpt>
      <trkpt lat="46.99337" lon="0.73162">
        <ele>116.3</ele>
        <time>2020-07-03T14:30:35Z</time>
      </trkpt>
      <trkpt lat="46.99336" lon="0.73153">
        <ele>116.2</ele>
        <time>2020-07-03T14:30:36Z</time>
      </trkpt>
      <trkpt lat="46.99334" lon="0.73145">
        <ele>116.2</ele>
        <time>2020-07-03T14:30:37Z</time>
      </trkpt>
      <trkpt lat="46.99332" lon="0.73136">
        <ele>116.1</ele>
        <time>2020-07-03T14:30:38Z</time>
      </trkpt>
      <trkpt lat="46.9933" lon="0.73127">
        <ele>116</ele>
        <time>2020-07-03T14:30:39Z</time>
      </trkpt>
      <trkpt lat="46.99329" lon="0.73118">
        <ele>116</ele>
        <time>2020-07-03T14:30:40Z</time>
      </trkpt>
      <trkpt lat="46.99327" lon="0.7311">
        <ele>115.9</ele>
        <time>2020-07-03T14:30:41Z</time>
      </trkpt>
      <trkpt lat="46.99326" lon="0.73101">
        <ele>115.9</ele>
        <time>2020-07-03T14:30:42Z</time>
      </trkpt>
      <trkpt lat="46.99324" lon="0.73092">
        <ele>115.9</ele>
        <time>2020-07-03T14:30:43Z</time>
      </trkpt>
      <trkpt lat="46.99323" lon="0.73083">
        <ele>115.9</ele>
        <time>2020-07-03T14:30:44Z</time>
      </trkpt>
      <trkpt lat="46.99321" lon="0.73075">
        <ele>115.8</ele>
        <time>2020-07-03T14:30:45Z</time>
      </trkpt>
      <trkpt lat="46.99319" lon="0.73066">
        <ele>115.7</ele>
        <time>2020-07-03T14:30:46Z</time>
      </trkpt>
      <trkpt lat="46.99317" lon="0.73058">
        <ele>115.6</ele>
        <time>2020-07-03T14:30:47Z</time>
      </trkpt>
      <trkpt lat="46.99315" lon="0.7305">
        <ele>115.5</ele>
        <time>2020-07-03T14:30:48Z</time>
      </trkpt>
      <trkpt lat="46.99313" lon="0.73041">
        <ele>115.3</ele>
        <time>2020-07-03T14:30:49Z</time>
      </trkpt>
      <trkpt lat="46.99311" lon="0.73032">
        <ele>115.2</ele>
        <time>2020-07-03T14:30:50Z</time>
      </trkpt>
      <trkpt lat="46.99309" lon="0.73022">
        <ele>115.1</ele>
        <time>2020-07-03T14:30:51Z</time>
      </trkpt>
      <trkpt lat="46.99307" lon="0.73014">
        <ele>115.1</ele>
        <time>2020-07-03T14:30:52Z</time>
      </trkpt>
      <trkpt lat="46.99305" lon="0.73007">
        <ele>115.1</ele>
        <time>2020-07-03T14:30:53Z</time>
      </trkpt>
      <trkpt lat="46.99304" lon="0.72998">
        <ele>115.1</ele>
        <time>2020-07-03T14:30:54Z</time>
      </trkpt>
      <trkpt lat="46.99302" lon="0.7299">
        <ele>115.1</ele>
        <time>2020-07-03T14:30:55Z</time>
      </trkpt>
      <trkpt lat="46.993" lon="0.72981">
        <ele>115.1</ele>
        <time>2020-07-03T14:30:56Z</time>
      </trkpt>
      <trkpt lat="46.99298" lon="0.72972">
        <ele>115.1</ele>
        <time>2020-07-03T14:30:57Z</time>
      </trkpt>
      <trkpt lat="46.99297" lon="0.72964">
        <ele>115.1</ele>
        <time>2020-07-03T14:30:58Z</time>
      </trkpt>
      <trkpt lat="46.99295" lon="0.72955">
        <ele>115.1</ele>
        <time>2020-07-03T14:30:59Z</time>
      </trkpt>
      <trkpt lat="46.99294" lon="0.72947">
        <ele>115</ele>
        <time>2020-07-03T14:31:00Z</time>
      </trkpt>
      <trkpt lat="46.99292" lon="0.72938">
        <ele>115</ele>
        <time>2020-07-03T14:31:01Z</time>
      </trkpt>
      <trkpt lat="46.99291" lon="0.7293">
        <ele>115</ele>
        <time>2020-07-03T14:31:02Z</time>
      </trkpt>
      <trkpt lat="46.99289" lon="0.72922">
        <ele>114.9</ele>
        <time>2020-07-03T14:31:03Z</time>
      </trkpt>
      <trkpt lat="46.99288" lon="0.72914">
        <ele>114.9</ele>
        <time>2020-07-03T14:31:04Z</time>
      </trkpt>
      <trkpt lat="46.99286" lon="0.72906">
        <ele>114.9</ele>
        <time>2020-07-03T14:31:05Z</time>
      </trkpt>
      <trkpt lat="46.99284" lon="0.72896">
        <ele>114.9</ele>
        <time>2020-07-03T14:31:06Z</time>
      </trkpt>
      <trkpt lat="46.99282" lon="0.72889">
        <ele>114.8</ele>
        <time>2020-07-03T14:31:07Z</time>
      </trkpt>
      <trkpt lat="46.9928" lon="0.72881">
        <ele>114.9</ele>
        <time>2020-07-03T14:31:08Z</time>
      </trkpt>
      <trkpt lat="46.99279" lon="0.72874">
        <ele>114.9</ele>
        <time>2020-07-03T14:31:09Z</time>
      </trkpt>
      <trkpt lat="46.99277" lon="0.72866">
        <ele>114.9</ele>
        <time>2020-07-03T14:31:10Z</time>
      </trkpt>
      <trkpt lat="46.99275" lon="0.72859">
        <ele>115</ele>
        <time>2020-07-03T14:31:11Z</time>
      </trkpt>
      <trkpt lat="46.99273" lon="0.7285">
        <ele>115</ele>
        <time>2020-07-03T14:31:12Z</time>
      </trkpt>
      <trkpt lat="46.99271" lon="0.72842">
        <ele>115</ele>
        <time>2020-07-03T14:31:13Z</time>
      </trkpt>
      <trkpt lat="46.99269" lon="0.72834">
        <ele>115</ele>
        <time>2020-07-03T14:31:14Z</time>
      </trkpt>
      <trkpt lat="46.99267" lon="0.72827">
        <ele>115</ele>
        <time>2020-07-03T14:31:15Z</time>
      </trkpt>
      <trkpt lat="46.99265" lon="0.72819">
        <ele>115</ele>
        <time>2020-07-03T14:31:16Z</time>
      </trkpt>
      <trkpt lat="46.99263" lon="0.72811">
        <ele>115.1</ele>
        <time>2020-07-03T14:31:17Z</time>
      </trkpt>
      <trkpt lat="46.99261" lon="0.72804">
        <ele>115.1</ele>
        <time>2020-07-03T14:31:18Z</time>
      </trkpt>
      <trkpt lat="46.99259" lon="0.72796">
        <ele>115.2</ele>
        <time>2020-07-03T14:31:19Z</time>
      </trkpt>
      <trkpt lat="46.99257" lon="0.7279">
        <ele>115.3</ele>
        <time>2020-07-03T14:31:20Z</time>
      </trkpt>
      <trkpt lat="46.99256" lon="0.72782">
        <ele>115.3</ele>
        <time>2020-07-03T14:31:21Z</time>
      </trkpt>
      <trkpt lat="46.99254" lon="0.72775">
        <ele>115.3</ele>
        <time>2020-07-03T14:31:22Z</time>
      </trkpt>
      <trkpt lat="46.99252" lon="0.72768">
        <ele>115.4</ele>
        <time>2020-07-03T14:31:23Z</time>
      </trkpt>
      <trkpt lat="46.9925" lon="0.7276">
        <ele>115.4</ele>
        <time>2020-07-03T14:31:24Z</time>
      </trkpt>
      <trkpt lat="46.99248" lon="0.72753">
        <ele>115.5</ele>
        <time>2020-07-03T14:31:25Z</time>
      </trkpt>
      <trkpt lat="46.99246" lon="0.72745">
        <ele>115.5</ele>
        <time>2020-07-03T14:31:26Z</time>
      </trkpt>
      <trkpt lat="46.99244" lon="0.72738">
        <ele>115.5</ele>
        <time>2020-07-03T14:31:27Z</time>
      </trkpt>
      <trkpt lat="46.99241" lon="0.72731">
        <ele>115.4</ele>
        <time>2020-07-03T14:31:28Z</time>
      </trkpt>
      <trkpt lat="46.99239" lon="0.72724">
        <ele>115.4</ele>
        <time>2020-07-03T14:31:29Z</time>
      </trkpt>
      <trkpt lat="46.99237" lon="0.72717">
        <ele>115.4</ele>
        <time>2020-07-03T14:31:30Z</time>
      </trkpt>
      <trkpt lat="46.99234" lon="0.72711">
        <ele>115.4</ele>
        <time>2020-07-03T14:31:31Z</time>
      </trkpt>
      <trkpt lat="46.99232" lon="0.72703">
        <ele>115.4</ele>
        <time>2020-07-03T14:31:32Z</time>
      </trkpt>
      <trkpt lat="46.9923" lon="0.72694">
        <ele>115.4</ele>
        <time>2020-07-03T14:31:33Z</time>
      </trkpt>
      <trkpt lat="46.99228" lon="0.72687">
        <ele>115.4</ele>
        <time>2020-07-03T14:31:34Z</time>
      </trkpt>
      <trkpt lat="46.99226" lon="0.72679">
        <ele>115.4</ele>
        <time>2020-07-03T14:31:35Z</time>
      </trkpt>
      <trkpt lat="46.99223" lon="0.72671">
        <ele>115.4</ele>
        <time>2020-07-03T14:31:36Z</time>
      </trkpt>
      <trkpt lat="46.99221" lon="0.72665">
        <ele>115.4</ele>
        <time>2020-07-03T14:31:37Z</time>
      </trkpt>
      <trkpt lat="46.99219" lon="0.72658">
        <ele>115.4</ele>
        <time>2020-07-03T14:31:38Z</time>
      </trkpt>
      <trkpt lat="46.99216" lon="0.72653">
        <ele>115.4</ele>
        <time>2020-07-03T14:31:39Z</time>
      </trkpt>
      <trkpt lat="46.99214" lon="0.72646">
        <ele>115.4</ele>
        <time>2020-07-03T14:31:40Z</time>
      </trkpt>
      <trkpt lat="46.99211" lon="0.7264">
        <ele>115.4</ele>
        <time>2020-07-03T14:31:41Z</time>
      </trkpt>
      <trkpt lat="46.99208" lon="0.72633">
        <ele>115.5</ele>
        <time>2020-07-03T14:31:42Z</time>
      </trkpt>
      <trkpt lat="46.99205" lon="0.72627">
        <ele>115.5</ele>
        <time>2020-07-03T14:31:43Z</time>
      </trkpt>
      <trkpt lat="46.99202" lon="0.72619">
        <ele>115.5</ele>
        <time>2020-07-03T14:31:44Z</time>
      </trkpt>
      <trkpt lat="46.99199" lon="0.72612">
        <ele>115.5</ele>
        <time>2020-07-03T14:31:45Z</time>
      </trkpt>
      <trkpt lat="46.99197" lon="0.72606">
        <ele>115.6</ele>
        <time>2020-07-03T14:31:46Z</time>
      </trkpt>
      <trkpt lat="46.99194" lon="0.72599">
        <ele>115.6</ele>
        <time>2020-07-03T14:31:47Z</time>
      </trkpt>
      <trkpt lat="46.99191" lon="0.72591">
        <ele>115.5</ele>
        <time>2020-07-03T14:31:48Z</time>
      </trkpt>
      <trkpt lat="46.99188" lon="0.72584">
        <ele>115.5</ele>
        <time>2020-07-03T14:31:49Z</time>
      </trkpt>
      <trkpt lat="46.99186" lon="0.72578">
        <ele>115.4</ele>
        <time>2020-07-03T14:31:50Z</time>
      </trkpt>
      <trkpt lat="46.99183" lon="0.72571">
        <ele>115.4</ele>
        <time>2020-07-03T14:31:51Z</time>
      </trkpt>
      <trkpt lat="46.99181" lon="0.72565">
        <ele>115.4</ele>
        <time>2020-07-03T14:31:52Z</time>
      </trkpt>
      <trkpt lat="46.99177" lon="0.72557">
        <ele>115.4</ele>
        <time>2020-07-03T14:31:53Z</time>
      </trkpt>
      <trkpt lat="46.99175" lon="0.7255">
        <ele>115.4</ele>
        <time>2020-07-03T14:31:54Z</time>
      </trkpt>
      <trkpt lat="46.99172" lon="0.72544">
        <ele>115.4</ele>
        <time>2020-07-03T14:31:55Z</time>
      </trkpt>
      <trkpt lat="46.99169" lon="0.72538">
        <ele>115.4</ele>
        <time>2020-07-03T14:31:56Z</time>
      </trkpt>
      <trkpt lat="46.99166" lon="0.72532">
        <ele>115.4</ele>
        <time>2020-07-03T14:31:57Z</time>
      </trkpt>
      <trkpt lat="46.99163" lon="0.72524">
        <ele>115.4</ele>
        <time>2020-07-03T14:31:58Z</time>
      </trkpt>
      <trkpt lat="46.9916" lon="0.72517">
        <ele>115.4</ele>
        <time>2020-07-03T14:31:59Z</time>
      </trkpt>
      <trkpt lat="46.99157" lon="0.7251">
        <ele>115.4</ele>
        <time>2020-07-03T14:32:00Z</time>
      </trkpt>
      <trkpt lat="46.99154" lon="0.72504">
        <ele>115.4</ele>
        <time>2020-07-03T14:32:01Z</time>
      </trkpt>
      <trkpt lat="46.99151" lon="0.72498">
        <ele>115.4</ele>
        <time>2020-07-03T14:32:02Z</time>
      </trkpt>
      <trkpt lat="46.99148" lon="0.72491">
        <ele>115.4</ele>
        <time>2020-07-03T14:32:03Z</time>
      </trkpt>
      <trkpt lat="46.99145" lon="0.72483">
        <ele>115.4</ele>
        <time>2020-07-03T14:32:04Z</time>
      </trkpt>
      <trkpt lat="46.99142" lon="0.72476">
        <ele>115.4</ele>
        <time>2020-07-03T14:32:05Z</time>
      </trkpt>
      <trkpt lat="46.99139" lon="0.72469">
        <ele>115.4</ele>
        <time>2020-07-03T14:32:06Z</time>
      </trkpt>
      <trkpt lat="46.99137" lon="0.72463">
        <ele>115.4</ele>
        <time>2020-07-03T14:32:07Z</time>
      </trkpt>
      <trkpt lat="46.99134" lon="0.72456">
        <ele>115.3</ele>
        <time>2020-07-03T14:32:08Z</time>
      </trkpt>
      <trkpt lat="46.99131" lon="0.72449">
        <ele>115.3</ele>
        <time>2020-07-03T14:32:09Z</time>
      </trkpt>
      <trkpt lat="46.99128" lon="0.72442">
        <ele>115.3</ele>
        <time>2020-07-03T14:32:10Z</time>
      </trkpt>
      <trkpt lat="46.99125" lon="0.72436">
        <ele>115.4</ele>
        <time>2020-07-03T14:32:11Z</time>
      </trkpt>
      <trkpt lat="46.99121" lon="0.72425">
        <ele>115.4</ele>
        <time>2020-07-03T14:32:12Z</time>
      </trkpt>
      <trkpt lat="46.99118" lon="0.72418">
        <ele>115.6</ele>
        <time>2020-07-03T14:32:13Z</time>
      </trkpt>
      <trkpt lat="46.99114" lon="0.7241">
        <ele>115.9</ele>
        <time>2020-07-03T14:32:14Z</time>
      </trkpt>
      <trkpt lat="46.99111" lon="0.72402">
        <ele>116</ele>
        <time>2020-07-03T14:32:15Z</time>
      </trkpt>
      <trkpt lat="46.99107" lon="0.72395">
        <ele>115.9</ele>
        <time>2020-07-03T14:32:16Z</time>
      </trkpt>
      <trkpt lat="46.99104" lon="0.72389">
        <ele>115.8</ele>
        <time>2020-07-03T14:32:17Z</time>
      </trkpt>
      <trkpt lat="46.99099" lon="0.72379">
        <ele>115.8</ele>
        <time>2020-07-03T14:32:18Z</time>
      </trkpt>
      <trkpt lat="46.99096" lon="0.72373">
        <ele>115.7</ele>
        <time>2020-07-03T14:32:19Z</time>
      </trkpt>
      <trkpt lat="46.99092" lon="0.72365">
        <ele>115.7</ele>
        <time>2020-07-03T14:32:20Z</time>
      </trkpt>
      <trkpt lat="46.99088" lon="0.72354">
        <ele>115.5</ele>
        <time>2020-07-03T14:32:21Z</time>
      </trkpt>
      <trkpt lat="46.99085" lon="0.72349">
        <ele>115.4</ele>
        <time>2020-07-03T14:32:22Z</time>
      </trkpt>
      <trkpt lat="46.99082" lon="0.72342">
        <ele>115.3</ele>
        <time>2020-07-03T14:32:23Z</time>
      </trkpt>
      <trkpt lat="46.99079" lon="0.72336">
        <ele>115.2</ele>
        <time>2020-07-03T14:32:24Z</time>
      </trkpt>
      <trkpt lat="46.99076" lon="0.72329">
        <ele>115.1</ele>
        <time>2020-07-03T14:32:25Z</time>
      </trkpt>
      <trkpt lat="46.99073" lon="0.72322">
        <ele>115.1</ele>
        <time>2020-07-03T14:32:26Z</time>
      </trkpt>
      <trkpt lat="46.9907" lon="0.72314">
        <ele>115.1</ele>
        <time>2020-07-03T14:32:27Z</time>
      </trkpt>
      <trkpt lat="46.99066" lon="0.72307">
        <ele>115</ele>
        <time>2020-07-03T14:32:28Z</time>
      </trkpt>
      <trkpt lat="46.99062" lon="0.72299">
        <ele>115</ele>
        <time>2020-07-03T14:32:29Z</time>
      </trkpt>
      <trkpt lat="46.99058" lon="0.72292">
        <ele>114.9</ele>
        <time>2020-07-03T14:32:30Z</time>
      </trkpt>
      <trkpt lat="46.99053" lon="0.72284">
        <ele>114.9</ele>
        <time>2020-07-03T14:32:31Z</time>
      </trkpt>
      <trkpt lat="46.9905" lon="0.72277">
        <ele>114.8</ele>
        <time>2020-07-03T14:32:32Z</time>
      </trkpt>
      <trkpt lat="46.99045" lon="0.72268">
        <ele>114.7</ele>
        <time>2020-07-03T14:32:33Z</time>
      </trkpt>
      <trkpt lat="46.99042" lon="0.72261">
        <ele>114.6</ele>
        <time>2020-07-03T14:32:34Z</time>
      </trkpt>
      <trkpt lat="46.99038" lon="0.72254">
        <ele>114.6</ele>
        <time>2020-07-03T14:32:35Z</time>
      </trkpt>
      <trkpt lat="46.99035" lon="0.72247">
        <ele>114.5</ele>
        <time>2020-07-03T14:32:36Z</time>
      </trkpt>
      <trkpt lat="46.99031" lon="0.72239">
        <ele>114.4</ele>
        <time>2020-07-03T14:32:37Z</time>
      </trkpt>
      <trkpt lat="46.99027" lon="0.72231">
        <ele>114.3</ele>
        <time>2020-07-03T14:32:38Z</time>
      </trkpt>
      <trkpt lat="46.99023" lon="0.72223">
        <ele>114.2</ele>
        <time>2020-07-03T14:32:39Z</time>
      </trkpt>
      <trkpt lat="46.9902" lon="0.72215">
        <ele>114.1</ele>
        <time>2020-07-03T14:32:40Z</time>
      </trkpt>
      <trkpt lat="46.99016" lon="0.72207">
        <ele>114.1</ele>
        <time>2020-07-03T14:32:41Z</time>
      </trkpt>
      <trkpt lat="46.99012" lon="0.72198">
        <ele>114</ele>
        <time>2020-07-03T14:32:42Z</time>
      </trkpt>
      <trkpt lat="46.99008" lon="0.7219">
        <ele>114</ele>
        <time>2020-07-03T14:32:43Z</time>
      </trkpt>
      <trkpt lat="46.99005" lon="0.72183">
        <ele>113.9</ele>
        <time>2020-07-03T14:32:44Z</time>
      </trkpt>
      <trkpt lat="46.99002" lon="0.72175">
        <ele>113.9</ele>
        <time>2020-07-03T14:32:45Z</time>
      </trkpt>
      <trkpt lat="46.98998" lon="0.72168">
        <ele>113.8</ele>
        <time>2020-07-03T14:32:46Z</time>
      </trkpt>
      <trkpt lat="46.98995" lon="0.72161">
        <ele>113.6</ele>
        <time>2020-07-03T14:32:47Z</time>
      </trkpt>
      <trkpt lat="46.98992" lon="0.72154">
        <ele>113.4</ele>
        <time>2020-07-03T14:32:48Z</time>
      </trkpt>
      <trkpt lat="46.98988" lon="0.72145">
        <ele>112.9</ele>
        <time>2020-07-03T14:32:49Z</time>
      </trkpt>
      <trkpt lat="46.98984" lon="0.72136">
        <ele>112.7</ele>
        <time>2020-07-03T14:32:50Z</time>
      </trkpt>
      <trkpt lat="46.9898" lon="0.72129">
        <ele>112.5</ele>
        <time>2020-07-03T14:32:51Z</time>
      </trkpt>
      <trkpt lat="46.98977" lon="0.72122">
        <ele>112.4</ele>
        <time>2020-07-03T14:32:52Z</time>
      </trkpt>
      <trkpt lat="46.98973" lon="0.72113">
        <ele>112.4</ele>
        <time>2020-07-03T14:32:53Z</time>
      </trkpt>
      <trkpt lat="46.98969" lon="0.72105">
        <ele>112.3</ele>
        <time>2020-07-03T14:32:54Z</time>
      </trkpt>
      <trkpt lat="46.98965" lon="0.72097">
        <ele>112.2</ele>
        <time>2020-07-03T14:32:55Z</time>
      </trkpt>
      <trkpt lat="46.98962" lon="0.72089">
        <ele>112.1</ele>
        <time>2020-07-03T14:32:56Z</time>
      </trkpt>
      <trkpt lat="46.98958" lon="0.72081">
        <ele>112.1</ele>
        <time>2020-07-03T14:32:57Z</time>
      </trkpt>
      <trkpt lat="46.98955" lon="0.72073">
        <ele>112.1</ele>
        <time>2020-07-03T14:32:58Z</time>
      </trkpt>
      <trkpt lat="46.98951" lon="0.72065">
        <ele>112.1</ele>
        <time>2020-07-03T14:32:59Z</time>
      </trkpt>
      <trkpt lat="46.98947" lon="0.72057">
        <ele>112</ele>
        <time>2020-07-03T14:33:00Z</time>
      </trkpt>
      <trkpt lat="46.98943" lon="0.72049">
        <ele>112</ele>
        <time>2020-07-03T14:33:01Z</time>
      </trkpt>
      <trkpt lat="46.98939" lon="0.72041">
        <ele>112</ele>
        <time>2020-07-03T14:33:02Z</time>
      </trkpt>
      <trkpt lat="46.98935" lon="0.72034">
        <ele>112</ele>
        <time>2020-07-03T14:33:03Z</time>
      </trkpt>
      <trkpt lat="46.98931" lon="0.72026">
        <ele>112</ele>
        <time>2020-07-03T14:33:04Z</time>
      </trkpt>
      <trkpt lat="46.98928" lon="0.72019">
        <ele>112</ele>
        <time>2020-07-03T14:33:05Z</time>
      </trkpt>
      <trkpt lat="46.98924" lon="0.72011">
        <ele>112</ele>
        <time>2020-07-03T14:33:06Z</time>
      </trkpt>
      <trkpt lat="46.9892" lon="0.72003">
        <ele>111.9</ele>
        <time>2020-07-03T14:33:07Z</time>
      </trkpt>
      <trkpt lat="46.98916" lon="0.71996">
        <ele>111.9</ele>
        <time>2020-07-03T14:33:08Z</time>
      </trkpt>
      <trkpt lat="46.98912" lon="0.71988">
        <ele>111.9</ele>
        <time>2020-07-03T14:33:09Z</time>
      </trkpt>
      <trkpt lat="46.98908" lon="0.71981">
        <ele>111.9</ele>
        <time>2020-07-03T14:33:10Z</time>
      </trkpt>
      <trkpt lat="46.98904" lon="0.71974">
        <ele>112</ele>
        <time>2020-07-03T14:33:11Z</time>
      </trkpt>
      <trkpt lat="46.98901" lon="0.71967">
        <ele>112</ele>
        <time>2020-07-03T14:33:12Z</time>
      </trkpt>
      <trkpt lat="46.98898" lon="0.7196">
        <ele>112</ele>
        <time>2020-07-03T14:33:13Z</time>
      </trkpt>
      <trkpt lat="46.98894" lon="0.71952">
        <ele>112</ele>
        <time>2020-07-03T14:33:14Z</time>
      </trkpt>
      <trkpt lat="46.98891" lon="0.71945">
        <ele>112</ele>
        <time>2020-07-03T14:33:15Z</time>
      </trkpt>
      <trkpt lat="46.98887" lon="0.71937">
        <ele>112</ele>
        <time>2020-07-03T14:33:16Z</time>
      </trkpt>
      <trkpt lat="46.98883" lon="0.71929">
        <ele>112</ele>
        <time>2020-07-03T14:33:17Z</time>
      </trkpt>
      <trkpt lat="46.98878" lon="0.71921">
        <ele>112</ele>
        <time>2020-07-03T14:33:18Z</time>
      </trkpt>
      <trkpt lat="46.98874" lon="0.71913">
        <ele>112.1</ele>
        <time>2020-07-03T14:33:19Z</time>
      </trkpt>
      <trkpt lat="46.9887" lon="0.71904">
        <ele>112.2</ele>
        <time>2020-07-03T14:33:20Z</time>
      </trkpt>
      <trkpt lat="46.98866" lon="0.71897">
        <ele>112.2</ele>
        <time>2020-07-03T14:33:21Z</time>
      </trkpt>
      <trkpt lat="46.98861" lon="0.7189">
        <ele>112.3</ele>
        <time>2020-07-03T14:33:22Z</time>
      </trkpt>
      <trkpt lat="46.98856" lon="0.71883">
        <ele>112.3</ele>
        <time>2020-07-03T14:33:23Z</time>
      </trkpt>
      <trkpt lat="46.98851" lon="0.71876">
        <ele>112.3</ele>
        <time>2020-07-03T14:33:24Z</time>
      </trkpt>
      <trkpt lat="46.98847" lon="0.71869">
        <ele>112.4</ele>
        <time>2020-07-03T14:33:25Z</time>
      </trkpt>
      <trkpt lat="46.98842" lon="0.71863">
        <ele>112.5</ele>
        <time>2020-07-03T14:33:26Z</time>
      </trkpt>
      <trkpt lat="46.98838" lon="0.71857">
        <ele>112.6</ele>
        <time>2020-07-03T14:33:27Z</time>
      </trkpt>
      <trkpt lat="46.98833" lon="0.71851">
        <ele>112.6</ele>
        <time>2020-07-03T14:33:28Z</time>
      </trkpt>
      <trkpt lat="46.98829" lon="0.71844">
        <ele>112.7</ele>
        <time>2020-07-03T14:33:29Z</time>
      </trkpt>
      <trkpt lat="46.98823" lon="0.71836">
        <ele>112.7</ele>
        <time>2020-07-03T14:33:30Z</time>
      </trkpt>
      <trkpt lat="46.98818" lon="0.71829">
        <ele>112.8</ele>
        <time>2020-07-03T14:33:31Z</time>
      </trkpt>
      <trkpt lat="46.98813" lon="0.71822">
        <ele>112.8</ele>
        <time>2020-07-03T14:33:32Z</time>
      </trkpt>
      <trkpt lat="46.98808" lon="0.71815">
        <ele>112.8</ele>
        <time>2020-07-03T14:33:33Z</time>
      </trkpt>
      <trkpt lat="46.98803" lon="0.71808">
        <ele>112.8</ele>
        <time>2020-07-03T14:33:34Z</time>
      </trkpt>
      <trkpt lat="46.98799" lon="0.71801">
        <ele>112.8</ele>
        <time>2020-07-03T14:33:35Z</time>
      </trkpt>
      <trkpt lat="46.98794" lon="0.71794">
        <ele>112.8</ele>
        <time>2020-07-03T14:33:36Z</time>
      </trkpt>
      <trkpt lat="46.98789" lon="0.71788">
        <ele>112.8</ele>
        <time>2020-07-03T14:33:37Z</time>
      </trkpt>
      <trkpt lat="46.98783" lon="0.71781">
        <ele>112.8</ele>
        <time>2020-07-03T14:33:38Z</time>
      </trkpt>
      <trkpt lat="46.98778" lon="0.71775">
        <ele>112.8</ele>
        <time>2020-07-03T14:33:39Z</time>
      </trkpt>
      <trkpt lat="46.98773" lon="0.71769">
        <ele>112.8</ele>
        <time>2020-07-03T14:33:40Z</time>
      </trkpt>
      <trkpt lat="46.98769" lon="0.71763">
        <ele>112.8</ele>
        <time>2020-07-03T14:33:41Z</time>
      </trkpt>
      <trkpt lat="46.98764" lon="0.71757">
        <ele>112.8</ele>
        <time>2020-07-03T14:33:42Z</time>
      </trkpt>
      <trkpt lat="46.98759" lon="0.71749">
        <ele>112.8</ele>
        <time>2020-07-03T14:33:43Z</time>
      </trkpt>
      <trkpt lat="46.98754" lon="0.71742">
        <ele>112.8</ele>
        <time>2020-07-03T14:33:44Z</time>
      </trkpt>
      <trkpt lat="46.9875" lon="0.71736">
        <ele>112.8</ele>
        <time>2020-07-03T14:33:45Z</time>
      </trkpt>
      <trkpt lat="46.98745" lon="0.71729">
        <ele>112.8</ele>
        <time>2020-07-03T14:33:46Z</time>
      </trkpt>
      <trkpt lat="46.9874" lon="0.71722">
        <ele>112.8</ele>
        <time>2020-07-03T14:33:47Z</time>
      </trkpt>
      <trkpt lat="46.98735" lon="0.71716">
        <ele>112.8</ele>
        <time>2020-07-03T14:33:48Z</time>
      </trkpt>
      <trkpt lat="46.9873" lon="0.7171">
        <ele>112.8</ele>
        <time>2020-07-03T14:33:49Z</time>
      </trkpt>
      <trkpt lat="46.98725" lon="0.71704">
        <ele>112.8</ele>
        <time>2020-07-03T14:33:50Z</time>
      </trkpt>
      <trkpt lat="46.9872" lon="0.71697">
        <ele>112.8</ele>
        <time>2020-07-03T14:33:51Z</time>
      </trkpt>
      <trkpt lat="46.98716" lon="0.71691">
        <ele>112.7</ele>
        <time>2020-07-03T14:33:52Z</time>
      </trkpt>
      <trkpt lat="46.98711" lon="0.71686">
        <ele>112.6</ele>
        <time>2020-07-03T14:33:53Z</time>
      </trkpt>
      <trkpt lat="46.98706" lon="0.71679">
        <ele>112.5</ele>
        <time>2020-07-03T14:33:54Z</time>
      </trkpt>
      <trkpt lat="46.98701" lon="0.71672">
        <ele>112.4</ele>
        <time>2020-07-03T14:33:55Z</time>
      </trkpt>
      <trkpt lat="46.98696" lon="0.71665">
        <ele>112.3</ele>
        <time>2020-07-03T14:33:56Z</time>
      </trkpt>
      <trkpt lat="46.9869" lon="0.71658">
        <ele>112.3</ele>
        <time>2020-07-03T14:33:57Z</time>
      </trkpt>
      <trkpt lat="46.98685" lon="0.71651">
        <ele>112.3</ele>
        <time>2020-07-03T14:33:58Z</time>
      </trkpt>
      <trkpt lat="46.98681" lon="0.71645">
        <ele>112.3</ele>
        <time>2020-07-03T14:33:59Z</time>
      </trkpt>
      <trkpt lat="46.98676" lon="0.71639">
        <ele>112.3</ele>
        <time>2020-07-03T14:34:00Z</time>
      </trkpt>
      <trkpt lat="46.98671" lon="0.71632">
        <ele>112.4</ele>
        <time>2020-07-03T14:34:01Z</time>
      </trkpt>
      <trkpt lat="46.98665" lon="0.71626">
        <ele>112.4</ele>
        <time>2020-07-03T14:34:02Z</time>
      </trkpt>
      <trkpt lat="46.98659" lon="0.7162">
        <ele>112.4</ele>
        <time>2020-07-03T14:34:03Z</time>
      </trkpt>
      <trkpt lat="46.98655" lon="0.71613">
        <ele>112.3</ele>
        <time>2020-07-03T14:34:04Z</time>
      </trkpt>
      <trkpt lat="46.9865" lon="0.71608">
        <ele>112.3</ele>
        <time>2020-07-03T14:34:05Z</time>
      </trkpt>
      <trkpt lat="46.98645" lon="0.71603">
        <ele>112.2</ele>
        <time>2020-07-03T14:34:06Z</time>
      </trkpt>
      <trkpt lat="46.9864" lon="0.71597">
        <ele>112.2</ele>
        <time>2020-07-03T14:34:07Z</time>
      </trkpt>
      <trkpt lat="46.98635" lon="0.7159">
        <ele>112.2</ele>
        <time>2020-07-03T14:34:08Z</time>
      </trkpt>
      <trkpt lat="46.98629" lon="0.71585">
        <ele>112.2</ele>
        <time>2020-07-03T14:34:09Z</time>
      </trkpt>
      <trkpt lat="46.98624" lon="0.71579">
        <ele>112.3</ele>
        <time>2020-07-03T14:34:10Z</time>
      </trkpt>
      <trkpt lat="46.98619" lon="0.71574">
        <ele>112.3</ele>
        <time>2020-07-03T14:34:11Z</time>
      </trkpt>
      <trkpt lat="46.98613" lon="0.71567">
        <ele>112.3</ele>
        <time>2020-07-03T14:34:12Z</time>
      </trkpt>
      <trkpt lat="46.98608" lon="0.71562">
        <ele>112.2</ele>
        <time>2020-07-03T14:34:13Z</time>
      </trkpt>
      <trkpt lat="46.98602" lon="0.71557">
        <ele>112.1</ele>
        <time>2020-07-03T14:34:14Z</time>
      </trkpt>
      <trkpt lat="46.98596" lon="0.71552">
        <ele>112.1</ele>
        <time>2020-07-03T14:34:15Z</time>
      </trkpt>
      <trkpt lat="46.98589" lon="0.71548">
        <ele>112</ele>
        <time>2020-07-03T14:34:16Z</time>
      </trkpt>
      <trkpt lat="46.98583" lon="0.71543">
        <ele>111.9</ele>
        <time>2020-07-03T14:34:17Z</time>
      </trkpt>
      <trkpt lat="46.98576" lon="0.71539">
        <ele>111.8</ele>
        <time>2020-07-03T14:34:18Z</time>
      </trkpt>
      <trkpt lat="46.9857" lon="0.71533">
        <ele>111.7</ele>
        <time>2020-07-03T14:34:19Z</time>
      </trkpt>
      <trkpt lat="46.98564" lon="0.71528">
        <ele>111.7</ele>
        <time>2020-07-03T14:34:20Z</time>
      </trkpt>
      <trkpt lat="46.98557" lon="0.71524">
        <ele>111.6</ele>
        <time>2020-07-03T14:34:21Z</time>
      </trkpt>
      <trkpt lat="46.98551" lon="0.71519">
        <ele>111.5</ele>
        <time>2020-07-03T14:34:22Z</time>
      </trkpt>
      <trkpt lat="46.98544" lon="0.71515">
        <ele>111.4</ele>
        <time>2020-07-03T14:34:23Z</time>
      </trkpt>
      <trkpt lat="46.98537" lon="0.71512">
        <ele>111.3</ele>
        <time>2020-07-03T14:34:24Z</time>
      </trkpt>
      <trkpt lat="46.98531" lon="0.71508">
        <ele>111.3</ele>
        <time>2020-07-03T14:34:25Z</time>
      </trkpt>
      <trkpt lat="46.98524" lon="0.71504">
        <ele>111.2</ele>
        <time>2020-07-03T14:34:26Z</time>
      </trkpt>
      <trkpt lat="46.98518" lon="0.715">
        <ele>111.2</ele>
        <time>2020-07-03T14:34:27Z</time>
      </trkpt>
      <trkpt lat="46.98511" lon="0.71496">
        <ele>111.2</ele>
        <time>2020-07-03T14:34:28Z</time>
      </trkpt>
      <trkpt lat="46.98504" lon="0.71493">
        <ele>111.2</ele>
        <time>2020-07-03T14:34:29Z</time>
      </trkpt>
      <trkpt lat="46.98497" lon="0.71488">
        <ele>111.1</ele>
        <time>2020-07-03T14:34:30Z</time>
      </trkpt>
      <trkpt lat="46.98491" lon="0.71485">
        <ele>111</ele>
        <time>2020-07-03T14:34:31Z</time>
      </trkpt>
      <trkpt lat="46.98484" lon="0.71482">
        <ele>110.9</ele>
        <time>2020-07-03T14:34:32Z</time>
      </trkpt>
      <trkpt lat="46.98477" lon="0.71479">
        <ele>110.7</ele>
        <time>2020-07-03T14:34:33Z</time>
      </trkpt>
      <trkpt lat="46.9847" lon="0.71475">
        <ele>110.6</ele>
        <time>2020-07-03T14:34:34Z</time>
      </trkpt>
      <trkpt lat="46.98463" lon="0.71471">
        <ele>110.6</ele>
        <time>2020-07-03T14:34:35Z</time>
      </trkpt>
      <trkpt lat="46.98456" lon="0.71468">
        <ele>110.5</ele>
        <time>2020-07-03T14:34:36Z</time>
      </trkpt>
      <trkpt lat="46.98449" lon="0.71464">
        <ele>110.5</ele>
        <time>2020-07-03T14:34:37Z</time>
      </trkpt>
      <trkpt lat="46.98442" lon="0.71462">
        <ele>110.4</ele>
        <time>2020-07-03T14:34:38Z</time>
      </trkpt>
      <trkpt lat="46.98435" lon="0.71459">
        <ele>110.3</ele>
        <time>2020-07-03T14:34:39Z</time>
      </trkpt>
      <trkpt lat="46.98429" lon="0.71455">
        <ele>110.3</ele>
        <time>2020-07-03T14:34:40Z</time>
      </trkpt>
      <trkpt lat="46.98422" lon="0.71451">
        <ele>110.2</ele>
        <time>2020-07-03T14:34:41Z</time>
      </trkpt>
      <trkpt lat="46.98416" lon="0.71448">
        <ele>110.1</ele>
        <time>2020-07-03T14:34:42Z</time>
      </trkpt>
      <trkpt lat="46.98409" lon="0.71444">
        <ele>110</ele>
        <time>2020-07-03T14:34:43Z</time>
      </trkpt>
      <trkpt lat="46.98403" lon="0.71441">
        <ele>109.9</ele>
        <time>2020-07-03T14:34:44Z</time>
      </trkpt>
      <trkpt lat="46.98396" lon="0.71438">
        <ele>109.8</ele>
        <time>2020-07-03T14:34:45Z</time>
      </trkpt>
      <trkpt lat="46.9839" lon="0.71435">
        <ele>109.8</ele>
        <time>2020-07-03T14:34:46Z</time>
      </trkpt>
      <trkpt lat="46.98383" lon="0.71432">
        <ele>109.7</ele>
        <time>2020-07-03T14:34:47Z</time>
      </trkpt>
      <trkpt lat="46.98377" lon="0.71428">
        <ele>109.7</ele>
        <time>2020-07-03T14:34:48Z</time>
      </trkpt>
      <trkpt lat="46.9837" lon="0.71424">
        <ele>109.6</ele>
        <time>2020-07-03T14:34:49Z</time>
      </trkpt>
      <trkpt lat="46.98364" lon="0.7142">
        <ele>109.6</ele>
        <time>2020-07-03T14:34:50Z</time>
      </trkpt>
      <trkpt lat="46.98358" lon="0.71416">
        <ele>109.6</ele>
        <time>2020-07-03T14:34:51Z</time>
      </trkpt>
      <trkpt lat="46.98351" lon="0.71412">
        <ele>109.5</ele>
        <time>2020-07-03T14:34:52Z</time>
      </trkpt>
      <trkpt lat="46.98345" lon="0.71409">
        <ele>109.5</ele>
        <time>2020-07-03T14:34:53Z</time>
      </trkpt>
      <trkpt lat="46.98339" lon="0.71405">
        <ele>109.4</ele>
        <time>2020-07-03T14:34:54Z</time>
      </trkpt>
      <trkpt lat="46.98332" lon="0.714">
        <ele>109.4</ele>
        <time>2020-07-03T14:34:55Z</time>
      </trkpt>
      <trkpt lat="46.98326" lon="0.71394">
        <ele>109.3</ele>
        <time>2020-07-03T14:34:56Z</time>
      </trkpt>
      <trkpt lat="46.9832" lon="0.71389">
        <ele>109.2</ele>
        <time>2020-07-03T14:34:57Z</time>
      </trkpt>
      <trkpt lat="46.98314" lon="0.71384">
        <ele>109.2</ele>
        <time>2020-07-03T14:34:58Z</time>
      </trkpt>
      <trkpt lat="46.98308" lon="0.71379">
        <ele>109.2</ele>
        <time>2020-07-03T14:34:59Z</time>
      </trkpt>
      <trkpt lat="46.98303" lon="0.71372">
        <ele>109.2</ele>
        <time>2020-07-03T14:35:00Z</time>
      </trkpt>
      <trkpt lat="46.98297" lon="0.71367">
        <ele>109.2</ele>
        <time>2020-07-03T14:35:01Z</time>
      </trkpt>
      <trkpt lat="46.98291" lon="0.71361">
        <ele>109.2</ele>
        <time>2020-07-03T14:35:02Z</time>
      </trkpt>
      <trkpt lat="46.98285" lon="0.71355">
        <ele>109.2</ele>
        <time>2020-07-03T14:35:03Z</time>
      </trkpt>
      <trkpt lat="46.9828" lon="0.71349">
        <ele>109.1</ele>
        <time>2020-07-03T14:35:04Z</time>
      </trkpt>
      <trkpt lat="46.98274" lon="0.71342">
        <ele>109.1</ele>
        <time>2020-07-03T14:35:05Z</time>
      </trkpt>
      <trkpt lat="46.98269" lon="0.71335">
        <ele>109</ele>
        <time>2020-07-03T14:35:06Z</time>
      </trkpt>
      <trkpt lat="46.98263" lon="0.71329">
        <ele>109</ele>
        <time>2020-07-03T14:35:07Z</time>
      </trkpt>
      <trkpt lat="46.98258" lon="0.71323">
        <ele>108.9</ele>
        <time>2020-07-03T14:35:08Z</time>
      </trkpt>
      <trkpt lat="46.98252" lon="0.71316">
        <ele>108.9</ele>
        <time>2020-07-03T14:35:09Z</time>
      </trkpt>
      <trkpt lat="46.98247" lon="0.71309">
        <ele>108.8</ele>
        <time>2020-07-03T14:35:10Z</time>
      </trkpt>
      <trkpt lat="46.98241" lon="0.71303">
        <ele>108.8</ele>
        <time>2020-07-03T14:35:11Z</time>
      </trkpt>
      <trkpt lat="46.98236" lon="0.71296">
        <ele>108.7</ele>
        <time>2020-07-03T14:35:12Z</time>
      </trkpt>
      <trkpt lat="46.98232" lon="0.71288">
        <ele>108.8</ele>
        <time>2020-07-03T14:35:13Z</time>
      </trkpt>
      <trkpt lat="46.98227" lon="0.71281">
        <ele>108.8</ele>
        <time>2020-07-03T14:35:14Z</time>
      </trkpt>
      <trkpt lat="46.98222" lon="0.71274">
        <ele>108.8</ele>
        <time>2020-07-03T14:35:15Z</time>
      </trkpt>
      <trkpt lat="46.98217" lon="0.71267">
        <ele>108.7</ele>
        <time>2020-07-03T14:35:16Z</time>
      </trkpt>
      <trkpt lat="46.98211" lon="0.7126">
        <ele>108.6</ele>
        <time>2020-07-03T14:35:17Z</time>
      </trkpt>
      <trkpt lat="46.98207" lon="0.71252">
        <ele>108.5</ele>
        <time>2020-07-03T14:35:18Z</time>
      </trkpt>
      <trkpt lat="46.98203" lon="0.71244">
        <ele>108.5</ele>
        <time>2020-07-03T14:35:19Z</time>
      </trkpt>
      <trkpt lat="46.98199" lon="0.71237">
        <ele>108.5</ele>
        <time>2020-07-03T14:35:20Z</time>
      </trkpt>
      <trkpt lat="46.98194" lon="0.71229">
        <ele>108.6</ele>
        <time>2020-07-03T14:35:21Z</time>
      </trkpt>
      <trkpt lat="46.98189" lon="0.71222">
        <ele>108.6</ele>
        <time>2020-07-03T14:35:22Z</time>
      </trkpt>
      <trkpt lat="46.98185" lon="0.71215">
        <ele>108.6</ele>
        <time>2020-07-03T14:35:23Z</time>
      </trkpt>
      <trkpt lat="46.9818" lon="0.71207">
        <ele>108.6</ele>
        <time>2020-07-03T14:35:24Z</time>
      </trkpt>
      <trkpt lat="46.98176" lon="0.712">
        <ele>108.6</ele>
        <time>2020-07-03T14:35:25Z</time>
      </trkpt>
      <trkpt lat="46.98172" lon="0.71192">
        <ele>108.6</ele>
        <time>2020-07-03T14:35:26Z</time>
      </trkpt>
      <trkpt lat="46.98168" lon="0.71185">
        <ele>108.6</ele>
        <time>2020-07-03T14:35:27Z</time>
      </trkpt>
      <trkpt lat="46.98164" lon="0.71178">
        <ele>108.6</ele>
        <time>2020-07-03T14:35:28Z</time>
      </trkpt>
      <trkpt lat="46.9816" lon="0.71171">
        <ele>108.6</ele>
        <time>2020-07-03T14:35:29Z</time>
      </trkpt>
      <trkpt lat="46.98155" lon="0.71164">
        <ele>108.6</ele>
        <time>2020-07-03T14:35:30Z</time>
      </trkpt>
      <trkpt lat="46.98151" lon="0.71157">
        <ele>108.6</ele>
        <time>2020-07-03T14:35:31Z</time>
      </trkpt>
      <trkpt lat="46.98147" lon="0.7115">
        <ele>108.5</ele>
        <time>2020-07-03T14:35:32Z</time>
      </trkpt>
      <trkpt lat="46.98143" lon="0.71143">
        <ele>108.5</ele>
        <time>2020-07-03T14:35:33Z</time>
      </trkpt>
      <trkpt lat="46.98139" lon="0.71136">
        <ele>108.6</ele>
        <time>2020-07-03T14:35:34Z</time>
      </trkpt>
      <trkpt lat="46.98135" lon="0.71128">
        <ele>108.6</ele>
        <time>2020-07-03T14:35:35Z</time>
      </trkpt>
      <trkpt lat="46.98132" lon="0.71121">
        <ele>108.6</ele>
        <time>2020-07-03T14:35:36Z</time>
      </trkpt>
      <trkpt lat="46.98128" lon="0.71113">
        <ele>108.7</ele>
        <time>2020-07-03T14:35:37Z</time>
      </trkpt>
      <trkpt lat="46.98124" lon="0.71105">
        <ele>108.7</ele>
        <time>2020-07-03T14:35:38Z</time>
      </trkpt>
      <trkpt lat="46.98121" lon="0.71097">
        <ele>108.7</ele>
        <time>2020-07-03T14:35:39Z</time>
      </trkpt>
      <trkpt lat="46.98116" lon="0.7109">
        <ele>108.8</ele>
        <time>2020-07-03T14:35:40Z</time>
      </trkpt>
      <trkpt lat="46.98112" lon="0.71081">
        <ele>108.8</ele>
        <time>2020-07-03T14:35:41Z</time>
      </trkpt>
      <trkpt lat="46.98108" lon="0.71073">
        <ele>108.9</ele>
        <time>2020-07-03T14:35:42Z</time>
      </trkpt>
      <trkpt lat="46.98103" lon="0.71065">
        <ele>108.9</ele>
        <time>2020-07-03T14:35:43Z</time>
      </trkpt>
      <trkpt lat="46.98099" lon="0.71057">
        <ele>109</ele>
        <time>2020-07-03T14:35:44Z</time>
      </trkpt>
      <trkpt lat="46.98095" lon="0.71051">
        <ele>109</ele>
        <time>2020-07-03T14:35:45Z</time>
      </trkpt>
      <trkpt lat="46.98092" lon="0.71044">
        <ele>109</ele>
        <time>2020-07-03T14:35:46Z</time>
      </trkpt>
      <trkpt lat="46.98088" lon="0.71036">
        <ele>109.1</ele>
        <time>2020-07-03T14:35:47Z</time>
      </trkpt>
      <trkpt lat="46.98085" lon="0.71029">
        <ele>109.1</ele>
        <time>2020-07-03T14:35:48Z</time>
      </trkpt>
      <trkpt lat="46.98083" lon="0.71023">
        <ele>109.2</ele>
        <time>2020-07-03T14:35:49Z</time>
      </trkpt>
      <trkpt lat="46.9808" lon="0.71016">
        <ele>109.2</ele>
        <time>2020-07-03T14:35:50Z</time>
      </trkpt>
      <trkpt lat="46.98077" lon="0.71011">
        <ele>109.3</ele>
        <time>2020-07-03T14:35:51Z</time>
      </trkpt>
      <trkpt lat="46.98073" lon="0.71004">
        <ele>109.3</ele>
        <time>2020-07-03T14:35:52Z</time>
      </trkpt>
      <trkpt lat="46.98071" lon="0.70998">
        <ele>109.3</ele>
        <time>2020-07-03T14:35:53Z</time>
      </trkpt>
      <trkpt lat="46.98068" lon="0.70991">
        <ele>109.3</ele>
        <time>2020-07-03T14:35:54Z</time>
      </trkpt>
      <trkpt lat="46.98065" lon="0.70986">
        <ele>109.3</ele>
        <time>2020-07-03T14:35:55Z</time>
      </trkpt>
      <trkpt lat="46.98062" lon="0.7098">
        <ele>109.3</ele>
        <time>2020-07-03T14:35:56Z</time>
      </trkpt>
      <trkpt lat="46.98059" lon="0.70973">
        <ele>109.3</ele>
        <time>2020-07-03T14:35:57Z</time>
      </trkpt>
      <trkpt lat="46.98056" lon="0.70967">
        <ele>109.3</ele>
        <time>2020-07-03T14:35:58Z</time>
      </trkpt>
      <trkpt lat="46.98053" lon="0.7096">
        <ele>109.2</ele>
        <time>2020-07-03T14:35:59Z</time>
      </trkpt>
      <trkpt lat="46.98052" lon="0.70956">
        <ele>109.1</ele>
        <time>2020-07-03T14:36:00Z</time>
      </trkpt>
      <trkpt lat="46.98049" lon="0.70949">
        <ele>109</ele>
        <time>2020-07-03T14:36:01Z</time>
      </trkpt>
      <trkpt lat="46.98046" lon="0.70942">
        <ele>109</ele>
        <time>2020-07-03T14:36:02Z</time>
      </trkpt>
      <trkpt lat="46.98044" lon="0.70935">
        <ele>109</ele>
        <time>2020-07-03T14:36:03Z</time>
      </trkpt>
      <trkpt lat="46.98042" lon="0.70929">
        <ele>109</ele>
        <time>2020-07-03T14:36:04Z</time>
      </trkpt>
      <trkpt lat="46.9804" lon="0.70923">
        <ele>109.1</ele>
        <time>2020-07-03T14:36:05Z</time>
      </trkpt>
      <trkpt lat="46.98037" lon="0.70916">
        <ele>109.1</ele>
        <time>2020-07-03T14:36:06Z</time>
      </trkpt>
      <trkpt lat="46.98036" lon="0.70909">
        <ele>109.1</ele>
        <time>2020-07-03T14:36:07Z</time>
      </trkpt>
      <trkpt lat="46.98036" lon="0.70903">
        <ele>109.2</ele>
        <time>2020-07-03T14:36:08Z</time>
      </trkpt>
      <trkpt lat="46.98036" lon="0.70897">
        <ele>109.2</ele>
        <time>2020-07-03T14:36:09Z</time>
      </trkpt>
      <trkpt lat="46.98036" lon="0.7089">
        <ele>109.2</ele>
        <time>2020-07-03T14:36:10Z</time>
      </trkpt>
      <trkpt lat="46.9804" lon="0.70883">
        <ele>109.3</ele>
        <time>2020-07-03T14:36:11Z</time>
      </trkpt>
      <trkpt lat="46.98043" lon="0.70876">
        <ele>109.3</ele>
        <time>2020-07-03T14:36:12Z</time>
      </trkpt>
      <trkpt lat="46.98045" lon="0.7087">
        <ele>109.4</ele>
        <time>2020-07-03T14:36:13Z</time>
      </trkpt>
      <trkpt lat="46.98046" lon="0.70863">
        <ele>109.4</ele>
        <time>2020-07-03T14:36:14Z</time>
      </trkpt>
      <trkpt lat="46.98047" lon="0.70854">
        <ele>109.5</ele>
        <time>2020-07-03T14:36:15Z</time>
      </trkpt>
      <trkpt lat="46.98047" lon="0.70847">
        <ele>109.6</ele>
        <time>2020-07-03T14:36:16Z</time>
      </trkpt>
      <trkpt lat="46.98047" lon="0.70841">
        <ele>109.6</ele>
        <time>2020-07-03T14:36:17Z</time>
      </trkpt>
      <trkpt lat="46.98046" lon="0.70836">
        <ele>109.8</ele>
        <time>2020-07-03T14:36:18Z</time>
      </trkpt>
      <trkpt lat="46.98045" lon="0.7083">
        <ele>109.9</ele>
        <time>2020-07-03T14:36:19Z</time>
      </trkpt>
      <trkpt lat="46.98044" lon="0.70824">
        <ele>110</ele>
        <time>2020-07-03T14:36:20Z</time>
      </trkpt>
      <trkpt lat="46.98042" lon="0.70817">
        <ele>110</ele>
        <time>2020-07-03T14:36:21Z</time>
      </trkpt>
      <trkpt lat="46.98039" lon="0.70813">
        <ele>110</ele>
        <time>2020-07-03T14:36:22Z</time>
      </trkpt>
      <trkpt lat="46.98036" lon="0.70809">
        <ele>110.1</ele>
        <time>2020-07-03T14:36:23Z</time>
      </trkpt>
      <trkpt lat="46.98033" lon="0.70806">
        <ele>110.1</ele>
        <time>2020-07-03T14:36:24Z</time>
      </trkpt>
      <trkpt lat="46.9803" lon="0.70803">
        <ele>110.1</ele>
        <time>2020-07-03T14:36:25Z</time>
      </trkpt>
      <trkpt lat="46.98025" lon="0.708">
        <ele>110</ele>
        <time>2020-07-03T14:36:26Z</time>
      </trkpt>
      <trkpt lat="46.9802" lon="0.70798">
        <ele>110</ele>
        <time>2020-07-03T14:36:27Z</time>
      </trkpt>
      <trkpt lat="46.98016" lon="0.70796">
        <ele>110</ele>
        <time>2020-07-03T14:36:28Z</time>
      </trkpt>
      <trkpt lat="46.9801" lon="0.70795">
        <ele>110</ele>
        <time>2020-07-03T14:36:29Z</time>
      </trkpt>
      <trkpt lat="46.98005" lon="0.70795">
        <ele>109.9</ele>
        <time>2020-07-03T14:36:30Z</time>
      </trkpt>
      <trkpt lat="46.98001" lon="0.70797">
        <ele>109.9</ele>
        <time>2020-07-03T14:36:31Z</time>
      </trkpt>
      <trkpt lat="46.97996" lon="0.708">
        <ele>109.8</ele>
        <time>2020-07-03T14:36:32Z</time>
      </trkpt>
      <trkpt lat="46.97992" lon="0.70803">
        <ele>109.8</ele>
        <time>2020-07-03T14:36:33Z</time>
      </trkpt>
      <trkpt lat="46.97989" lon="0.70807">
        <ele>109.7</ele>
        <time>2020-07-03T14:36:34Z</time>
      </trkpt>
      <trkpt lat="46.97986" lon="0.7081">
        <ele>109.7</ele>
        <time>2020-07-03T14:36:35Z</time>
      </trkpt>
      <trkpt lat="46.97984" lon="0.70815">
        <ele>109.6</ele>
        <time>2020-07-03T14:36:36Z</time>
      </trkpt>
      <trkpt lat="46.97983" lon="0.70821">
        <ele>109.6</ele>
        <time>2020-07-03T14:36:37Z</time>
      </trkpt>
      <trkpt lat="46.9798" lon="0.70827">
        <ele>109.7</ele>
        <time>2020-07-03T14:36:38Z</time>
      </trkpt>
      <trkpt lat="46.97977" lon="0.70833">
        <ele>109.7</ele>
        <time>2020-07-03T14:36:39Z</time>
      </trkpt>
      <trkpt lat="46.97975" lon="0.70837">
        <ele>109.7</ele>
        <time>2020-07-03T14:36:40Z</time>
      </trkpt>
      <trkpt lat="46.97973" lon="0.70841">
        <ele>109.7</ele>
        <time>2020-07-03T14:36:41Z</time>
      </trkpt>
      <trkpt lat="46.97972" lon="0.70846">
        <ele>109.8</ele>
        <time>2020-07-03T14:36:42Z</time>
      </trkpt>
      <trkpt lat="46.97972" lon="0.70853">
        <ele>109.8</ele>
        <time>2020-07-03T14:36:43Z</time>
      </trkpt>
      <trkpt lat="46.97974" lon="0.70858">
        <ele>109.8</ele>
        <time>2020-07-03T14:36:44Z</time>
      </trkpt>
      <trkpt lat="46.97974" lon="0.70864">
        <ele>109.8</ele>
        <time>2020-07-03T14:36:45Z</time>
      </trkpt>
      <trkpt lat="46.97976" lon="0.70868">
        <ele>109.8</ele>
        <time>2020-07-03T14:36:46Z</time>
      </trkpt>
      <trkpt lat="46.97977" lon="0.70875">
        <ele>109.8</ele>
        <time>2020-07-03T14:36:47Z</time>
      </trkpt>
      <trkpt lat="46.97979" lon="0.7088">
        <ele>109.8</ele>
        <time>2020-07-03T14:36:48Z</time>
      </trkpt>
      <trkpt lat="46.97981" lon="0.70885">
        <ele>109.8</ele>
        <time>2020-07-03T14:36:49Z</time>
      </trkpt>
      <trkpt lat="46.97983" lon="0.70889">
        <ele>109.8</ele>
        <time>2020-07-03T14:36:50Z</time>
      </trkpt>
      <trkpt lat="46.97986" lon="0.70894">
        <ele>109.7</ele>
        <time>2020-07-03T14:36:51Z</time>
      </trkpt>
      <trkpt lat="46.97989" lon="0.70899">
        <ele>109.7</ele>
        <time>2020-07-03T14:36:52Z</time>
      </trkpt>
      <trkpt lat="46.97992" lon="0.70903">
        <ele>109.8</ele>
        <time>2020-07-03T14:36:53Z</time>
      </trkpt>
      <trkpt lat="46.97997" lon="0.70908">
        <ele>109.7</ele>
        <time>2020-07-03T14:36:54Z</time>
      </trkpt>
      <trkpt lat="46.98002" lon="0.70909">
        <ele>109.7</ele>
        <time>2020-07-03T14:36:55Z</time>
      </trkpt>
      <trkpt lat="46.98007" lon="0.7091">
        <ele>109.6</ele>
        <time>2020-07-03T14:36:56Z</time>
      </trkpt>
      <trkpt lat="46.98013" lon="0.70908">
        <ele>109.6</ele>
        <time>2020-07-03T14:36:57Z</time>
      </trkpt>
      <trkpt lat="46.98017" lon="0.70906">
        <ele>109.5</ele>
        <time>2020-07-03T14:36:58Z</time>
      </trkpt>
      <trkpt lat="46.98022" lon="0.70904">
        <ele>109.4</ele>
        <time>2020-07-03T14:36:59Z</time>
      </trkpt>
      <trkpt lat="46.98027" lon="0.70902">
        <ele>109.4</ele>
        <time>2020-07-03T14:37:00Z</time>
      </trkpt>
      <trkpt lat="46.98032" lon="0.709">
        <ele>109.3</ele>
        <time>2020-07-03T14:37:01Z</time>
      </trkpt>
      <trkpt lat="46.98037" lon="0.70895">
        <ele>109.3</ele>
        <time>2020-07-03T14:37:02Z</time>
      </trkpt>
      <trkpt lat="46.98042" lon="0.70888">
        <ele>109.2</ele>
        <time>2020-07-03T14:37:03Z</time>
      </trkpt>
      <trkpt lat="46.98045" lon="0.70881">
        <ele>109.3</ele>
        <time>2020-07-03T14:37:04Z</time>
      </trkpt>
      <trkpt lat="46.98048" lon="0.70874">
        <ele>109.4</ele>
        <time>2020-07-03T14:37:05Z</time>
      </trkpt>
      <trkpt lat="46.98049" lon="0.70866">
        <ele>109.4</ele>
        <time>2020-07-03T14:37:06Z</time>
      </trkpt>
      <trkpt lat="46.9805" lon="0.70859">
        <ele>109.5</ele>
        <time>2020-07-03T14:37:07Z</time>
      </trkpt>
      <trkpt lat="46.98049" lon="0.70851">
        <ele>109.5</ele>
        <time>2020-07-03T14:37:08Z</time>
      </trkpt>
      <trkpt lat="46.98048" lon="0.70844">
        <ele>109.6</ele>
        <time>2020-07-03T14:37:09Z</time>
      </trkpt>
      <trkpt lat="46.98047" lon="0.70837">
        <ele>109.8</ele>
        <time>2020-07-03T14:37:10Z</time>
      </trkpt>
      <trkpt lat="46.98045" lon="0.70832">
        <ele>109.9</ele>
        <time>2020-07-03T14:37:11Z</time>
      </trkpt>
      <trkpt lat="46.98042" lon="0.70826">
        <ele>110</ele>
        <time>2020-07-03T14:37:12Z</time>
      </trkpt>
      <trkpt lat="46.9804" lon="0.7082">
        <ele>110</ele>
        <time>2020-07-03T14:37:13Z</time>
      </trkpt>
      <trkpt lat="46.98038" lon="0.70815">
        <ele>110</ele>
        <time>2020-07-03T14:37:14Z</time>
      </trkpt>
      <trkpt lat="46.98036" lon="0.70808">
        <ele>110.1</ele>
        <time>2020-07-03T14:37:15Z</time>
      </trkpt>
      <trkpt lat="46.98034" lon="0.70805">
        <ele>110.1</ele>
        <time>2020-07-03T14:37:16Z</time>
      </trkpt>
      <trkpt lat="46.9803" lon="0.70801">
        <ele>110.1</ele>
        <time>2020-07-03T14:37:17Z</time>
      </trkpt>
      <trkpt lat="46.98024" lon="0.708">
        <ele>110</ele>
        <time>2020-07-03T14:37:18Z</time>
      </trkpt>
      <trkpt lat="46.98018" lon="0.70798">
        <ele>110</ele>
        <time>2020-07-03T14:37:19Z</time>
      </trkpt>
      <trkpt lat="46.98014" lon="0.70796">
        <ele>110</ele>
        <time>2020-07-03T14:37:20Z</time>
      </trkpt>
      <trkpt lat="46.98009" lon="0.70796">
        <ele>109.9</ele>
        <time>2020-07-03T14:37:21Z</time>
      </trkpt>
      <trkpt lat="46.98004" lon="0.70795">
        <ele>109.9</ele>
        <time>2020-07-03T14:37:22Z</time>
      </trkpt>
      <trkpt lat="46.97998" lon="0.70795">
        <ele>109.8</ele>
        <time>2020-07-03T14:37:23Z</time>
      </trkpt>
      <trkpt lat="46.97994" lon="0.70795">
        <ele>109.6</ele>
        <time>2020-07-03T14:37:24Z</time>
      </trkpt>
      <trkpt lat="46.97989" lon="0.70791">
        <ele>109.4</ele>
        <time>2020-07-03T14:37:25Z</time>
      </trkpt>
      <trkpt lat="46.97984" lon="0.70785">
        <ele>109.2</ele>
        <time>2020-07-03T14:37:26Z</time>
      </trkpt>
      <trkpt lat="46.97981" lon="0.70777">
        <ele>109</ele>
        <time>2020-07-03T14:37:27Z</time>
      </trkpt>
      <trkpt lat="46.97978" lon="0.70769">
        <ele>108.8</ele>
        <time>2020-07-03T14:37:28Z</time>
      </trkpt>
      <trkpt lat="46.97975" lon="0.70761">
        <ele>108.6</ele>
        <time>2020-07-03T14:37:29Z</time>
      </trkpt>
      <trkpt lat="46.97971" lon="0.70752">
        <ele>108.4</ele>
        <time>2020-07-03T14:37:30Z</time>
      </trkpt>
      <trkpt lat="46.97968" lon="0.70745">
        <ele>108.3</ele>
        <time>2020-07-03T14:37:31Z</time>
      </trkpt>
      <trkpt lat="46.97965" lon="0.70738">
        <ele>108.2</ele>
        <time>2020-07-03T14:37:32Z</time>
      </trkpt>
      <trkpt lat="46.97963" lon="0.70729">
        <ele>108</ele>
        <time>2020-07-03T14:37:33Z</time>
      </trkpt>
      <trkpt lat="46.97959" lon="0.7072">
        <ele>107.9</ele>
        <time>2020-07-03T14:37:34Z</time>
      </trkpt>
      <trkpt lat="46.97956" lon="0.70712">
        <ele>107.8</ele>
        <time>2020-07-03T14:37:35Z</time>
      </trkpt>
      <trkpt lat="46.97952" lon="0.70704">
        <ele>107.7</ele>
        <time>2020-07-03T14:37:36Z</time>
      </trkpt>
      <trkpt lat="46.97949" lon="0.70697">
        <ele>107.7</ele>
        <time>2020-07-03T14:37:37Z</time>
      </trkpt>
      <trkpt lat="46.97946" lon="0.70689">
        <ele>107.6</ele>
        <time>2020-07-03T14:37:38Z</time>
      </trkpt>
      <trkpt lat="46.97943" lon="0.70682">
        <ele>107.5</ele>
        <time>2020-07-03T14:37:39Z</time>
      </trkpt>
      <trkpt lat="46.9794" lon="0.70675">
        <ele>107.5</ele>
        <time>2020-07-03T14:37:40Z</time>
      </trkpt>
      <trkpt lat="46.97936" lon="0.70668">
        <ele>107.4</ele>
        <time>2020-07-03T14:37:41Z</time>
      </trkpt>
      <trkpt lat="46.97932" lon="0.70661">
        <ele>107.3</ele>
        <time>2020-07-03T14:37:42Z</time>
      </trkpt>
      <trkpt lat="46.97928" lon="0.70654">
        <ele>107.2</ele>
        <time>2020-07-03T14:37:43Z</time>
      </trkpt>
      <trkpt lat="46.97924" lon="0.70646">
        <ele>107.1</ele>
        <time>2020-07-03T14:37:44Z</time>
      </trkpt>
      <trkpt lat="46.97921" lon="0.70638">
        <ele>107</ele>
        <time>2020-07-03T14:37:45Z</time>
      </trkpt>
      <trkpt lat="46.97918" lon="0.70631">
        <ele>106.9</ele>
        <time>2020-07-03T14:37:46Z</time>
      </trkpt>
      <trkpt lat="46.97915" lon="0.70624">
        <ele>106.9</ele>
        <time>2020-07-03T14:37:47Z</time>
      </trkpt>
      <trkpt lat="46.97912" lon="0.70616">
        <ele>106.7</ele>
        <time>2020-07-03T14:37:48Z</time>
      </trkpt>
      <trkpt lat="46.97909" lon="0.70608">
        <ele>106.6</ele>
        <time>2020-07-03T14:37:49Z</time>
      </trkpt>
      <trkpt lat="46.97906" lon="0.70601">
        <ele>106.5</ele>
        <time>2020-07-03T14:37:50Z</time>
      </trkpt>
      <trkpt lat="46.97903" lon="0.70594">
        <ele>106.3</ele>
        <time>2020-07-03T14:37:51Z</time>
      </trkpt>
      <trkpt lat="46.979" lon="0.70586">
        <ele>106.2</ele>
        <time>2020-07-03T14:37:52Z</time>
      </trkpt>
      <trkpt lat="46.97897" lon="0.70578">
        <ele>106</ele>
        <time>2020-07-03T14:37:53Z</time>
      </trkpt>
      <trkpt lat="46.97894" lon="0.7057">
        <ele>105.9</ele>
        <time>2020-07-03T14:37:54Z</time>
      </trkpt>
      <trkpt lat="46.97891" lon="0.7056">
        <ele>105.7</ele>
        <time>2020-07-03T14:37:55Z</time>
      </trkpt>
      <trkpt lat="46.97888" lon="0.70551">
        <ele>105.5</ele>
        <time>2020-07-03T14:37:56Z</time>
      </trkpt>
      <trkpt lat="46.97886" lon="0.70543">
        <ele>105.4</ele>
        <time>2020-07-03T14:37:57Z</time>
      </trkpt>
      <trkpt lat="46.97883" lon="0.70535">
        <ele>105.2</ele>
        <time>2020-07-03T14:37:58Z</time>
      </trkpt>
      <trkpt lat="46.9788" lon="0.70527">
        <ele>105</ele>
        <time>2020-07-03T14:37:59Z</time>
      </trkpt>
      <trkpt lat="46.97877" lon="0.70518">
        <ele>104.8</ele>
        <time>2020-07-03T14:38:00Z</time>
      </trkpt>
      <trkpt lat="46.97873" lon="0.70509">
        <ele>104.6</ele>
        <time>2020-07-03T14:38:01Z</time>
      </trkpt>
      <trkpt lat="46.97869" lon="0.705">
        <ele>104</ele>
        <time>2020-07-03T14:38:02Z</time>
      </trkpt>
      <trkpt lat="46.97865" lon="0.70492">
        <ele>103.6</ele>
        <time>2020-07-03T14:38:03Z</time>
      </trkpt>
      <trkpt lat="46.9786" lon="0.70484">
        <ele>103.2</ele>
        <time>2020-07-03T14:38:04Z</time>
      </trkpt>
      <trkpt lat="46.97856" lon="0.70476">
        <ele>102.8</ele>
        <time>2020-07-03T14:38:05Z</time>
      </trkpt>
      <trkpt lat="46.97852" lon="0.70467">
        <ele>102.3</ele>
        <time>2020-07-03T14:38:06Z</time>
      </trkpt>
      <trkpt lat="46.97847" lon="0.70457">
        <ele>101.8</ele>
        <time>2020-07-03T14:38:07Z</time>
      </trkpt>
      <trkpt lat="46.97843" lon="0.70448">
        <ele>101.2</ele>
        <time>2020-07-03T14:38:08Z</time>
      </trkpt>
      <trkpt lat="46.97839" lon="0.70438">
        <ele>100.6</ele>
        <time>2020-07-03T14:38:09Z</time>
      </trkpt>
      <trkpt lat="46.97834" lon="0.70428">
        <ele>99.9</ele>
        <time>2020-07-03T14:38:10Z</time>
      </trkpt>
      <trkpt lat="46.97829" lon="0.70419">
        <ele>99.3</ele>
        <time>2020-07-03T14:38:11Z</time>
      </trkpt>
      <trkpt lat="46.97824" lon="0.7041">
        <ele>98.6</ele>
        <time>2020-07-03T14:38:12Z</time>
      </trkpt>
      <trkpt lat="46.97819" lon="0.704">
        <ele>97.8</ele>
        <time>2020-07-03T14:38:13Z</time>
      </trkpt>
      <trkpt lat="46.97812" lon="0.7039">
        <ele>97.1</ele>
        <time>2020-07-03T14:38:14Z</time>
      </trkpt>
      <trkpt lat="46.97806" lon="0.7038">
        <ele>96.4</ele>
        <time>2020-07-03T14:38:15Z</time>
      </trkpt>
      <trkpt lat="46.978" lon="0.7037">
        <ele>95.6</ele>
        <time>2020-07-03T14:38:16Z</time>
      </trkpt>
      <trkpt lat="46.97794" lon="0.7036">
        <ele>95</ele>
        <time>2020-07-03T14:38:17Z</time>
      </trkpt>
      <trkpt lat="46.97787" lon="0.7035">
        <ele>94.2</ele>
        <time>2020-07-03T14:38:18Z</time>
      </trkpt>
      <trkpt lat="46.9778" lon="0.7034">
        <ele>93.3</ele>
        <time>2020-07-03T14:38:19Z</time>
      </trkpt>
      <trkpt lat="46.97773" lon="0.70331">
        <ele>92.3</ele>
        <time>2020-07-03T14:38:20Z</time>
      </trkpt>
      <trkpt lat="46.97765" lon="0.7032">
        <ele>91.3</ele>
        <time>2020-07-03T14:38:21Z</time>
      </trkpt>
      <trkpt lat="46.97758" lon="0.7031">
        <ele>90.3</ele>
        <time>2020-07-03T14:38:22Z</time>
      </trkpt>
      <trkpt lat="46.9775" lon="0.70299">
        <ele>89.4</ele>
        <time>2020-07-03T14:38:23Z</time>
      </trkpt>
      <trkpt lat="46.97742" lon="0.70288">
        <ele>88.4</ele>
        <time>2020-07-03T14:38:24Z</time>
      </trkpt>
      <trkpt lat="46.97734" lon="0.70277">
        <ele>87.3</ele>
        <time>2020-07-03T14:38:25Z</time>
      </trkpt>
      <trkpt lat="46.97726" lon="0.70267">
        <ele>86.5</ele>
        <time>2020-07-03T14:38:26Z</time>
      </trkpt>
      <trkpt lat="46.9772" lon="0.70255">
        <ele>85.6</ele>
        <time>2020-07-03T14:38:27Z</time>
      </trkpt>
      <trkpt lat="46.97713" lon="0.70242">
        <ele>84.6</ele>
        <time>2020-07-03T14:38:28Z</time>
      </trkpt>
      <trkpt lat="46.97706" lon="0.7023">
        <ele>83.5</ele>
        <time>2020-07-03T14:38:29Z</time>
      </trkpt>
      <trkpt lat="46.97699" lon="0.70217">
        <ele>82.4</ele>
        <time>2020-07-03T14:38:30Z</time>
      </trkpt>
      <trkpt lat="46.97692" lon="0.70204">
        <ele>81.2</ele>
        <time>2020-07-03T14:38:31Z</time>
      </trkpt>
      <trkpt lat="46.97685" lon="0.70192">
        <ele>80</ele>
        <time>2020-07-03T14:38:32Z</time>
      </trkpt>
      <trkpt lat="46.97677" lon="0.7018">
        <ele>78.9</ele>
        <time>2020-07-03T14:38:33Z</time>
      </trkpt>
      <trkpt lat="46.97669" lon="0.70168">
        <ele>77.7</ele>
        <time>2020-07-03T14:38:34Z</time>
      </trkpt>
      <trkpt lat="46.97661" lon="0.70156">
        <ele>76.6</ele>
        <time>2020-07-03T14:38:35Z</time>
      </trkpt>
      <trkpt lat="46.97652" lon="0.70144">
        <ele>75.7</ele>
        <time>2020-07-03T14:38:36Z</time>
      </trkpt>
      <trkpt lat="46.97643" lon="0.70134">
        <ele>74.7</ele>
        <time>2020-07-03T14:38:37Z</time>
      </trkpt>
      <trkpt lat="46.97634" lon="0.70122">
        <ele>73.8</ele>
        <time>2020-07-03T14:38:38Z</time>
      </trkpt>
      <trkpt lat="46.97626" lon="0.7011">
        <ele>73</ele>
        <time>2020-07-03T14:38:39Z</time>
      </trkpt>
      <trkpt lat="46.97617" lon="0.70099">
        <ele>72.2</ele>
        <time>2020-07-03T14:38:40Z</time>
      </trkpt>
      <trkpt lat="46.97608" lon="0.70089">
        <ele>71.6</ele>
        <time>2020-07-03T14:38:41Z</time>
      </trkpt>
      <trkpt lat="46.97599" lon="0.70079">
        <ele>71.1</ele>
        <time>2020-07-03T14:38:42Z</time>
      </trkpt>
      <trkpt lat="46.97591" lon="0.70069">
        <ele>70.5</ele>
        <time>2020-07-03T14:38:43Z</time>
      </trkpt>
      <trkpt lat="46.97583" lon="0.70061">
        <ele>70.1</ele>
        <time>2020-07-03T14:38:44Z</time>
      </trkpt>
      <trkpt lat="46.97575" lon="0.70054">
        <ele>69.7</ele>
        <time>2020-07-03T14:38:45Z</time>
      </trkpt>
      <trkpt lat="46.97568" lon="0.70048">
        <ele>69.4</ele>
        <time>2020-07-03T14:38:46Z</time>
      </trkpt>
      <trkpt lat="46.97562" lon="0.70043">
        <ele>69.1</ele>
        <time>2020-07-03T14:38:47Z</time>
      </trkpt>
      <trkpt lat="46.97558" lon="0.70037">
        <ele>68.9</ele>
        <time>2020-07-03T14:38:48Z</time>
      </trkpt>
      <trkpt lat="46.97553" lon="0.70034">
        <ele>68.7</ele>
        <time>2020-07-03T14:38:49Z</time>
      </trkpt>
      <trkpt lat="46.9755" lon="0.70033">
        <ele>68.6</ele>
        <time>2020-07-03T14:38:50Z</time>
      </trkpt>
      <trkpt lat="46.97547" lon="0.70031">
        <ele>68.5</ele>
        <time>2020-07-03T14:38:51Z</time>
      </trkpt>
      <trkpt lat="46.97544" lon="0.70028">
        <ele>68.4</ele>
        <time>2020-07-03T14:38:52Z</time>
      </trkpt>
      <trkpt lat="46.97541" lon="0.70025">
        <ele>68.3</ele>
        <time>2020-07-03T14:38:53Z</time>
      </trkpt>
      <trkpt lat="46.97538" lon="0.70023">
        <ele>68.2</ele>
        <time>2020-07-03T14:38:54Z</time>
      </trkpt>
      <trkpt lat="46.97536" lon="0.70022">
        <ele>68.2</ele>
        <time>2020-07-03T14:38:55Z</time>
      </trkpt>
      <trkpt lat="46.97535" lon="0.70021">
        <ele>68.1</ele>
        <time>2020-07-03T14:38:56Z</time>
      </trkpt>
      <trkpt lat="46.97535" lon="0.7002">
        <ele>68.1</ele>
        <time>2020-07-03T14:38:57Z</time>
      </trkpt>
      <trkpt lat="46.97535" lon="0.7002">
        <ele>68.1</ele>
        <time>2020-07-03T14:38:58Z</time>
      </trkpt>
      <trkpt lat="46.97534" lon="0.70019">
        <ele>68.1</ele>
        <time>2020-07-03T14:38:59Z</time>
      </trkpt>
      <trkpt lat="46.97533" lon="0.70019">
        <ele>68.1</ele>
        <time>2020-07-03T14:39:00Z</time>
      </trkpt>
      <trkpt lat="46.97533" lon="0.70018">
        <ele>68.1</ele>
        <time>2020-07-03T14:39:01Z</time>
      </trkpt>
      <trkpt lat="46.97532" lon="0.70018">
        <ele>68.1</ele>
        <time>2020-07-03T14:39:02Z</time>
      </trkpt>
      <trkpt lat="46.97531" lon="0.70018">
        <ele>68</ele>
        <time>2020-07-03T14:39:03Z</time>
      </trkpt>
      <trkpt lat="46.97528" lon="0.70017">
        <ele>68</ele>
        <time>2020-07-03T14:39:04Z</time>
      </trkpt>
      <trkpt lat="46.97526" lon="0.70017">
        <ele>67.9</ele>
        <time>2020-07-03T14:39:05Z</time>
      </trkpt>
      <trkpt lat="46.97524" lon="0.7002">
        <ele>67.9</ele>
        <time>2020-07-03T14:39:06Z</time>
      </trkpt>
      <trkpt lat="46.97521" lon="0.70024">
        <ele>67.6</ele>
        <time>2020-07-03T14:39:07Z</time>
      </trkpt>
      <trkpt lat="46.97519" lon="0.70029">
        <ele>67.5</ele>
        <time>2020-07-03T14:39:08Z</time>
      </trkpt>
      <trkpt lat="46.97516" lon="0.70034">
        <ele>67.3</ele>
        <time>2020-07-03T14:39:09Z</time>
      </trkpt>
      <trkpt lat="46.97513" lon="0.7004">
        <ele>67.2</ele>
        <time>2020-07-03T14:39:10Z</time>
      </trkpt>
      <trkpt lat="46.97511" lon="0.70046">
        <ele>67</ele>
        <time>2020-07-03T14:39:11Z</time>
      </trkpt>
      <trkpt lat="46.97507" lon="0.7005">
        <ele>66.9</ele>
        <time>2020-07-03T14:39:12Z</time>
      </trkpt>
      <trkpt lat="46.97504" lon="0.70054">
        <ele>66.8</ele>
        <time>2020-07-03T14:39:13Z</time>
      </trkpt>
      <trkpt lat="46.97502" lon="0.70058">
        <ele>66.8</ele>
        <time>2020-07-03T14:39:14Z</time>
      </trkpt>
      <trkpt lat="46.97499" lon="0.70058">
        <ele>66.7</ele>
        <time>2020-07-03T14:39:15Z</time>
      </trkpt>
      <trkpt lat="46.97498" lon="0.70058">
        <ele>66.7</ele>
        <time>2020-07-03T14:39:16Z</time>
      </trkpt>
      <trkpt lat="46.97496" lon="0.70054">
        <ele>66.7</ele>
        <time>2020-07-03T14:39:17Z</time>
      </trkpt>
      <trkpt lat="46.97494" lon="0.7005">
        <ele>66.5</ele>
        <time>2020-07-03T14:39:18Z</time>
      </trkpt>
      <trkpt lat="46.97492" lon="0.70046">
        <ele>66.4</ele>
        <time>2020-07-03T14:39:19Z</time>
      </trkpt>
      <trkpt lat="46.97489" lon="0.70043">
        <ele>66.2</ele>
        <time>2020-07-03T14:39:20Z</time>
      </trkpt>
      <trkpt lat="46.97487" lon="0.70038">
        <ele>66.1</ele>
        <time>2020-07-03T14:39:21Z</time>
      </trkpt>
      <trkpt lat="46.97485" lon="0.70033">
        <ele>66</ele>
        <time>2020-07-03T14:39:22Z</time>
      </trkpt>
      <trkpt lat="46.97483" lon="0.70026">
        <ele>65.8</ele>
        <time>2020-07-03T14:39:23Z</time>
      </trkpt>
      <trkpt lat="46.9748" lon="0.70019">
        <ele>65.6</ele>
        <time>2020-07-03T14:39:24Z</time>
      </trkpt>
      <trkpt lat="46.97477" lon="0.70012">
        <ele>65.3</ele>
        <time>2020-07-03T14:39:25Z</time>
      </trkpt>
      <trkpt lat="46.97474" lon="0.70007">
        <ele>65.1</ele>
        <time>2020-07-03T14:39:26Z</time>
      </trkpt>
      <trkpt lat="46.97472" lon="0.70003">
        <ele>65</ele>
        <time>2020-07-03T14:39:27Z</time>
      </trkpt>
      <trkpt lat="46.9747" lon="0.69997">
        <ele>65</ele>
        <time>2020-07-03T14:39:28Z</time>
      </trkpt>
      <trkpt lat="46.97468" lon="0.69993">
        <ele>65.3</ele>
        <time>2020-07-03T14:39:29Z</time>
      </trkpt>
      <trkpt lat="46.97466" lon="0.69987">
        <ele>65.5</ele>
        <time>2020-07-03T14:39:30Z</time>
      </trkpt>
      <trkpt lat="46.97464" lon="0.69982">
        <ele>65.7</ele>
        <time>2020-07-03T14:39:31Z</time>
      </trkpt>
      <trkpt lat="46.97462" lon="0.69978">
        <ele>65.8</ele>
        <time>2020-07-03T14:39:32Z</time>
      </trkpt>
      <trkpt lat="46.9746" lon="0.69974">
        <ele>65.9</ele>
        <time>2020-07-03T14:39:33Z</time>
      </trkpt>
      <trkpt lat="46.97459" lon="0.69971">
        <ele>66</ele>
        <time>2020-07-03T14:39:34Z</time>
      </trkpt>
      <trkpt lat="46.97456" lon="0.69968">
        <ele>65.7</ele>
        <time>2020-07-03T14:39:35Z</time>
      </trkpt>
      <trkpt lat="46.97455" lon="0.69967">
        <ele>65.6</ele>
        <time>2020-07-03T14:39:36Z</time>
      </trkpt>
      <trkpt lat="46.97453" lon="0.69963">
        <ele>65.4</ele>
        <time>2020-07-03T14:39:37Z</time>
      </trkpt>
      <trkpt lat="46.97451" lon="0.69961">
        <ele>65.3</ele>
        <time>2020-07-03T14:39:38Z</time>
      </trkpt>
      <trkpt lat="46.97449" lon="0.6996">
        <ele>65.1</ele>
        <time>2020-07-03T14:39:39Z</time>
      </trkpt>
      <trkpt lat="46.97448" lon="0.69958">
        <ele>65.1</ele>
        <time>2020-07-03T14:39:40Z</time>
      </trkpt>
      <trkpt lat="46.97446" lon="0.69955">
        <ele>64.9</ele>
        <time>2020-07-03T14:39:41Z</time>
      </trkpt>
      <trkpt lat="46.97445" lon="0.69953">
        <ele>64.8</ele>
        <time>2020-07-03T14:39:42Z</time>
      </trkpt>
      <trkpt lat="46.97442" lon="0.69951">
        <ele>64.2</ele>
        <time>2020-07-03T14:39:43Z</time>
      </trkpt>
      <trkpt lat="46.97441" lon="0.6995">
        <ele>64.1</ele>
        <time>2020-07-03T14:39:44Z</time>
      </trkpt>
      <trkpt lat="46.97438" lon="0.69951">
        <ele>63.7</ele>
        <time>2020-07-03T14:39:45Z</time>
      </trkpt>
      <trkpt lat="46.97437" lon="0.69951">
        <ele>63.6</ele>
        <time>2020-07-03T14:39:46Z</time>
      </trkpt>
      <trkpt lat="46.97435" lon="0.69954">
        <ele>63.3</ele>
        <time>2020-07-03T14:39:47Z</time>
      </trkpt>
      <trkpt lat="46.97431" lon="0.69956">
        <ele>62.8</ele>
        <time>2020-07-03T14:39:48Z</time>
      </trkpt>
      <trkpt lat="46.9743" lon="0.69957">
        <ele>62.7</ele>
        <time>2020-07-03T14:39:49Z</time>
      </trkpt>
      <trkpt lat="46.97427" lon="0.69959">
        <ele>62.3</ele>
        <time>2020-07-03T14:39:50Z</time>
      </trkpt>
      <trkpt lat="46.97426" lon="0.69959">
        <ele>62.1</ele>
        <time>2020-07-03T14:39:51Z</time>
      </trkpt>
      <trkpt lat="46.97424" lon="0.69959">
        <ele>61.9</ele>
        <time>2020-07-03T14:39:52Z</time>
      </trkpt>
      <trkpt lat="46.97423" lon="0.69959">
        <ele>61.8</ele>
        <time>2020-07-03T14:39:53Z</time>
      </trkpt>
      <trkpt lat="46.97422" lon="0.69958">
        <ele>61.7</ele>
        <time>2020-07-03T14:39:54Z</time>
      </trkpt>
      <trkpt lat="46.97421" lon="0.69958">
        <ele>61.5</ele>
        <time>2020-07-03T14:39:55Z</time>
      </trkpt>
      <trkpt lat="46.97421" lon="0.69957">
        <ele>61.5</ele>
        <time>2020-07-03T14:39:56Z</time>
      </trkpt>
      <trkpt lat="46.9742" lon="0.69958">
        <ele>61.4</ele>
        <time>2020-07-03T14:39:57Z</time>
      </trkpt>
      <trkpt lat="46.9742" lon="0.69959">
        <ele>61.3</ele>
        <time>2020-07-03T14:39:58Z</time>
      </trkpt>
      <trkpt lat="46.9742" lon="0.6996">
        <ele>61.3</ele>
        <time>2020-07-03T14:39:59Z</time>
      </trkpt>
      <trkpt lat="46.9742" lon="0.6996">
        <ele>61.2</ele>
        <time>2020-07-03T14:40:00Z</time>
      </trkpt>
      <trkpt lat="46.9742" lon="0.69961">
        <ele>61.2</ele>
        <time>2020-07-03T14:40:01Z</time>
      </trkpt>
      <trkpt lat="46.9742" lon="0.69961">
        <ele>61.2</ele>
        <time>2020-07-03T14:40:02Z</time>
      </trkpt>
      <trkpt lat="46.9742" lon="0.69962">
        <ele>61.1</ele>
        <time>2020-07-03T14:40:03Z</time>
      </trkpt>
      <trkpt lat="46.97419" lon="0.69962">
        <ele>61.1</ele>
        <time>2020-07-03T14:40:04Z</time>
      </trkpt>
      <trkpt lat="46.97419" lon="0.69962">
        <ele>61.1</ele>
        <time>2020-07-03T14:40:05Z</time>
      </trkpt>
      <trkpt lat="46.97419" lon="0.69963">
        <ele>61</ele>
        <time>2020-07-03T14:40:06Z</time>
      </trkpt>
      <trkpt lat="46.97419" lon="0.69963">
        <ele>61</ele>
        <time>2020-07-03T14:40:07Z</time>
      </trkpt>
      <trkpt lat="46.97419" lon="0.69964">
        <ele>61</ele>
        <time>2020-07-03T14:40:08Z</time>
      </trkpt>
      <trkpt lat="46.9742" lon="0.69964">
        <ele>60.9</ele>
        <time>2020-07-03T14:40:09Z</time>
      </trkpt>
      <trkpt lat="46.9742" lon="0.69965">
        <ele>60.8</ele>
        <time>2020-07-03T14:40:10Z</time>
      </trkpt>
      <trkpt lat="46.9742" lon="0.69965">
        <ele>60.7</ele>
        <time>2020-07-03T14:40:11Z</time>
      </trkpt>
      <trkpt lat="46.9742" lon="0.69964">
        <ele>60.6</ele>
        <time>2020-07-03T14:40:12Z</time>
      </trkpt>
      <trkpt lat="46.97419" lon="0.69962">
        <ele>60.5</ele>
        <time>2020-07-03T14:40:13Z</time>
      </trkpt>
      <trkpt lat="46.97419" lon="0.69959">
        <ele>60.2</ele>
        <time>2020-07-03T14:40:14Z</time>
      </trkpt>
      <trkpt lat="46.97417" lon="0.69956">
        <ele>59.8</ele>
        <time>2020-07-03T14:40:15Z</time>
      </trkpt>
      <trkpt lat="46.97415" lon="0.69953">
        <ele>59.6</ele>
        <time>2020-07-03T14:40:16Z</time>
      </trkpt>
      <trkpt lat="46.97413" lon="0.69949">
        <ele>59.5</ele>
        <time>2020-07-03T14:40:17Z</time>
      </trkpt>
      <trkpt lat="46.9741" lon="0.69945">
        <ele>59.3</ele>
        <time>2020-07-03T14:40:18Z</time>
      </trkpt>
      <trkpt lat="46.97409" lon="0.6994">
        <ele>59</ele>
        <time>2020-07-03T14:40:19Z</time>
      </trkpt>
      <trkpt lat="46.97408" lon="0.69935">
        <ele>58.7</ele>
        <time>2020-07-03T14:40:20Z</time>
      </trkpt>
      <trkpt lat="46.97407" lon="0.6993">
        <ele>58.5</ele>
        <time>2020-07-03T14:40:21Z</time>
      </trkpt>
      <trkpt lat="46.97405" lon="0.69926">
        <ele>58.3</ele>
        <time>2020-07-03T14:40:22Z</time>
      </trkpt>
      <trkpt lat="46.97404" lon="0.69924">
        <ele>58.2</ele>
        <time>2020-07-03T14:40:23Z</time>
      </trkpt>
      <trkpt lat="46.97404" lon="0.69922">
        <ele>58.1</ele>
        <time>2020-07-03T14:40:24Z</time>
      </trkpt>
      <trkpt lat="46.97404" lon="0.6992">
        <ele>58</ele>
        <time>2020-07-03T14:40:25Z</time>
      </trkpt>
      <trkpt lat="46.97404" lon="0.69917">
        <ele>57.9</ele>
        <time>2020-07-03T14:40:26Z</time>
      </trkpt>
      <trkpt lat="46.97404" lon="0.69915">
        <ele>57.8</ele>
        <time>2020-07-03T14:40:27Z</time>
      </trkpt>
      <trkpt lat="46.97404" lon="0.69913">
        <ele>57.7</ele>
        <time>2020-07-03T14:40:28Z</time>
      </trkpt>
      <trkpt lat="46.97403" lon="0.6991">
        <ele>57.6</ele>
        <time>2020-07-03T14:40:29Z</time>
      </trkpt>
      <trkpt lat="46.974" lon="0.69911">
        <ele>57.3</ele>
        <time>2020-07-03T14:40:30Z</time>
      </trkpt>
      <trkpt lat="46.97399" lon="0.69912">
        <ele>57.3</ele>
        <time>2020-07-03T14:40:31Z</time>
      </trkpt>
      <trkpt lat="46.97396" lon="0.69914">
        <ele>57.3</ele>
        <time>2020-07-03T14:40:32Z</time>
      </trkpt>
      <trkpt lat="46.97393" lon="0.69916">
        <ele>57.3</ele>
        <time>2020-07-03T14:40:33Z</time>
      </trkpt>
      <trkpt lat="46.97389" lon="0.69918">
        <ele>57.3</ele>
        <time>2020-07-03T14:40:34Z</time>
      </trkpt>
      <trkpt lat="46.97386" lon="0.69921">
        <ele>57.4</ele>
        <time>2020-07-03T14:40:35Z</time>
      </trkpt>
      <trkpt lat="46.97383" lon="0.69924">
        <ele>57.4</ele>
        <time>2020-07-03T14:40:36Z</time>
      </trkpt>
      <trkpt lat="46.9738" lon="0.69927">
        <ele>57.4</ele>
        <time>2020-07-03T14:40:37Z</time>
      </trkpt>
      <trkpt lat="46.97377" lon="0.6993">
        <ele>57.5</ele>
        <time>2020-07-03T14:40:38Z</time>
      </trkpt>
      <trkpt lat="46.97373" lon="0.69931">
        <ele>57.5</ele>
        <time>2020-07-03T14:40:39Z</time>
      </trkpt>
      <trkpt lat="46.9737" lon="0.69934">
        <ele>57.6</ele>
        <time>2020-07-03T14:40:40Z</time>
      </trkpt>
      <trkpt lat="46.97369" lon="0.69935">
        <ele>57.6</ele>
        <time>2020-07-03T14:40:41Z</time>
      </trkpt>
      <trkpt lat="46.97366" lon="0.69938">
        <ele>57.7</ele>
        <time>2020-07-03T14:40:42Z</time>
      </trkpt>
      <trkpt lat="46.97365" lon="0.69939">
        <ele>57.7</ele>
        <time>2020-07-03T14:40:43Z</time>
      </trkpt>
      <trkpt lat="46.97362" lon="0.69942">
        <ele>57.7</ele>
        <time>2020-07-03T14:40:44Z</time>
      </trkpt>
      <trkpt lat="46.97361" lon="0.69943">
        <ele>57.8</ele>
        <time>2020-07-03T14:40:45Z</time>
      </trkpt>
      <trkpt lat="46.97358" lon="0.69943">
        <ele>57.8</ele>
        <time>2020-07-03T14:40:46Z</time>
      </trkpt>
      <trkpt lat="46.97356" lon="0.69944">
        <ele>57.8</ele>
        <time>2020-07-03T14:40:47Z</time>
      </trkpt>
      <trkpt lat="46.97354" lon="0.69946">
        <ele>57.9</ele>
        <time>2020-07-03T14:40:48Z</time>
      </trkpt>
      <trkpt lat="46.97352" lon="0.69948">
        <ele>57.9</ele>
        <time>2020-07-03T14:40:49Z</time>
      </trkpt>
      <trkpt lat="46.97349" lon="0.6995">
        <ele>58</ele>
        <time>2020-07-03T14:40:50Z</time>
      </trkpt>
      <trkpt lat="46.97345" lon="0.6995">
        <ele>57.9</ele>
        <time>2020-07-03T14:40:51Z</time>
      </trkpt>
      <trkpt lat="46.97344" lon="0.6995">
        <ele>57.9</ele>
        <time>2020-07-03T14:40:52Z</time>
      </trkpt>
      <trkpt lat="46.97343" lon="0.69946">
        <ele>57.8</ele>
        <time>2020-07-03T14:40:53Z</time>
      </trkpt>
      <trkpt lat="46.97344" lon="0.69944">
        <ele>57.7</ele>
        <time>2020-07-03T14:40:54Z</time>
      </trkpt>
      <trkpt lat="46.97344" lon="0.69938">
        <ele>57.6</ele>
        <time>2020-07-03T14:40:55Z</time>
      </trkpt>
      <trkpt lat="46.97343" lon="0.69932">
        <ele>57.4</ele>
        <time>2020-07-03T14:40:56Z</time>
      </trkpt>
      <trkpt lat="46.97341" lon="0.69927">
        <ele>57.3</ele>
        <time>2020-07-03T14:40:57Z</time>
      </trkpt>
      <trkpt lat="46.97338" lon="0.69921">
        <ele>57.1</ele>
        <time>2020-07-03T14:40:58Z</time>
      </trkpt>
      <trkpt lat="46.97334" lon="0.69915">
        <ele>56.9</ele>
        <time>2020-07-03T14:40:59Z</time>
      </trkpt>
      <trkpt lat="46.97331" lon="0.6991">
        <ele>56.7</ele>
        <time>2020-07-03T14:41:00Z</time>
      </trkpt>
      <trkpt lat="46.97328" lon="0.69904">
        <ele>56.5</ele>
        <time>2020-07-03T14:41:01Z</time>
      </trkpt>
      <trkpt lat="46.97326" lon="0.69899">
        <ele>56.3</ele>
        <time>2020-07-03T14:41:02Z</time>
      </trkpt>
      <trkpt lat="46.97324" lon="0.69892">
        <ele>56.1</ele>
        <time>2020-07-03T14:41:03Z</time>
      </trkpt>
      <trkpt lat="46.97321" lon="0.69888">
        <ele>55.9</ele>
        <time>2020-07-03T14:41:04Z</time>
      </trkpt>
      <trkpt lat="46.97318" lon="0.69883">
        <ele>55.7</ele>
        <time>2020-07-03T14:41:05Z</time>
      </trkpt>
      <trkpt lat="46.97316" lon="0.69879">
        <ele>55.6</ele>
        <time>2020-07-03T14:41:06Z</time>
      </trkpt>
      <trkpt lat="46.97314" lon="0.69875">
        <ele>55.4</ele>
        <time>2020-07-03T14:41:07Z</time>
      </trkpt>
      <trkpt lat="46.9731" lon="0.6987">
        <ele>54.8</ele>
        <time>2020-07-03T14:41:08Z</time>
      </trkpt>
      <trkpt lat="46.97307" lon="0.69864">
        <ele>54.5</ele>
        <time>2020-07-03T14:41:09Z</time>
      </trkpt>
      <trkpt lat="46.97304" lon="0.6986">
        <ele>54.1</ele>
        <time>2020-07-03T14:41:10Z</time>
      </trkpt>
      <trkpt lat="46.97301" lon="0.69854">
        <ele>53.7</ele>
        <time>2020-07-03T14:41:11Z</time>
      </trkpt>
      <trkpt lat="46.97297" lon="0.69848">
        <ele>53.3</ele>
        <time>2020-07-03T14:41:12Z</time>
      </trkpt>
      <trkpt lat="46.97294" lon="0.69843">
        <ele>52.9</ele>
        <time>2020-07-03T14:41:13Z</time>
      </trkpt>
      <trkpt lat="46.97292" lon="0.69835">
        <ele>52.5</ele>
        <time>2020-07-03T14:41:14Z</time>
      </trkpt>
      <trkpt lat="46.9729" lon="0.69827">
        <ele>52.2</ele>
        <time>2020-07-03T14:41:15Z</time>
      </trkpt>
      <trkpt lat="46.97285" lon="0.69819">
        <ele>51.6</ele>
        <time>2020-07-03T14:41:16Z</time>
      </trkpt>
      <trkpt lat="46.97282" lon="0.69813">
        <ele>51.4</ele>
        <time>2020-07-03T14:41:17Z</time>
      </trkpt>
      <trkpt lat="46.97279" lon="0.69805">
        <ele>51.1</ele>
        <time>2020-07-03T14:41:18Z</time>
      </trkpt>
      <trkpt lat="46.97274" lon="0.69798">
        <ele>50.9</ele>
        <time>2020-07-03T14:41:19Z</time>
      </trkpt>
      <trkpt lat="46.97271" lon="0.69791">
        <ele>50.7</ele>
        <time>2020-07-03T14:41:20Z</time>
      </trkpt>
      <trkpt lat="46.97268" lon="0.69785">
        <ele>50.6</ele>
        <time>2020-07-03T14:41:21Z</time>
      </trkpt>
      <trkpt lat="46.97265" lon="0.69778">
        <ele>50.5</ele>
        <time>2020-07-03T14:41:22Z</time>
      </trkpt>
      <trkpt lat="46.97263" lon="0.69771">
        <ele>50.3</ele>
        <time>2020-07-03T14:41:23Z</time>
      </trkpt>
      <trkpt lat="46.97261" lon="0.69764">
        <ele>50.2</ele>
        <time>2020-07-03T14:41:24Z</time>
      </trkpt>
      <trkpt lat="46.97258" lon="0.69757">
        <ele>50.1</ele>
        <time>2020-07-03T14:41:25Z</time>
      </trkpt>
      <trkpt lat="46.97256" lon="0.6975">
        <ele>50</ele>
        <time>2020-07-03T14:41:26Z</time>
      </trkpt>
      <trkpt lat="46.97253" lon="0.69743">
        <ele>49.9</ele>
        <time>2020-07-03T14:41:27Z</time>
      </trkpt>
      <trkpt lat="46.9725" lon="0.69738">
        <ele>49.8</ele>
        <time>2020-07-03T14:41:28Z</time>
      </trkpt>
      <trkpt lat="46.97249" lon="0.69733">
        <ele>49.7</ele>
        <time>2020-07-03T14:41:29Z</time>
      </trkpt>
      <trkpt lat="46.97247" lon="0.69729">
        <ele>49.6</ele>
        <time>2020-07-03T14:41:30Z</time>
      </trkpt>
      <trkpt lat="46.97246" lon="0.69728">
        <ele>49.5</ele>
        <time>2020-07-03T14:41:31Z</time>
      </trkpt>
      <trkpt lat="46.97246" lon="0.69727">
        <ele>49.5</ele>
        <time>2020-07-03T14:41:32Z</time>
      </trkpt>
      <trkpt lat="46.97245" lon="0.69726">
        <ele>49.5</ele>
        <time>2020-07-03T14:41:33Z</time>
      </trkpt>
      <trkpt lat="46.97244" lon="0.69724">
        <ele>49.4</ele>
        <time>2020-07-03T14:41:34Z</time>
      </trkpt>
      <trkpt lat="46.97241" lon="0.69723">
        <ele>49.3</ele>
        <time>2020-07-03T14:41:35Z</time>
      </trkpt>
      <trkpt lat="46.9724" lon="0.69722">
        <ele>49.3</ele>
        <time>2020-07-03T14:41:36Z</time>
      </trkpt>
      <trkpt lat="46.97238" lon="0.69717">
        <ele>49.2</ele>
        <time>2020-07-03T14:41:37Z</time>
      </trkpt>
      <trkpt lat="46.97236" lon="0.69713">
        <ele>49.1</ele>
        <time>2020-07-03T14:41:38Z</time>
      </trkpt>
      <trkpt lat="46.97235" lon="0.69708">
        <ele>49</ele>
        <time>2020-07-03T14:41:39Z</time>
      </trkpt>
      <trkpt lat="46.97233" lon="0.69703">
        <ele>48.9</ele>
        <time>2020-07-03T14:41:40Z</time>
      </trkpt>
      <trkpt lat="46.97232" lon="0.69698">
        <ele>48.8</ele>
        <time>2020-07-03T14:41:41Z</time>
      </trkpt>
      <trkpt lat="46.9723" lon="0.69693">
        <ele>48.6</ele>
        <time>2020-07-03T14:41:42Z</time>
      </trkpt>
      <trkpt lat="46.97229" lon="0.69688">
        <ele>48.6</ele>
        <time>2020-07-03T14:41:43Z</time>
      </trkpt>
      <trkpt lat="46.97227" lon="0.69683">
        <ele>48.5</ele>
        <time>2020-07-03T14:41:44Z</time>
      </trkpt>
      <trkpt lat="46.97226" lon="0.69678">
        <ele>48.5</ele>
        <time>2020-07-03T14:41:45Z</time>
      </trkpt>
      <trkpt lat="46.97226" lon="0.69672">
        <ele>48.4</ele>
        <time>2020-07-03T14:41:46Z</time>
      </trkpt>
      <trkpt lat="46.97225" lon="0.69667">
        <ele>48.4</ele>
        <time>2020-07-03T14:41:47Z</time>
      </trkpt>
      <trkpt lat="46.97223" lon="0.69663">
        <ele>48.4</ele>
        <time>2020-07-03T14:41:48Z</time>
      </trkpt>
      <trkpt lat="46.97222" lon="0.69657">
        <ele>48.3</ele>
        <time>2020-07-03T14:41:49Z</time>
      </trkpt>
      <trkpt lat="46.9722" lon="0.69652">
        <ele>48.3</ele>
        <time>2020-07-03T14:41:50Z</time>
      </trkpt>
      <trkpt lat="46.97219" lon="0.69649">
        <ele>48.3</ele>
        <time>2020-07-03T14:41:51Z</time>
      </trkpt>
      <trkpt lat="46.97218" lon="0.69646">
        <ele>48.2</ele>
        <time>2020-07-03T14:41:52Z</time>
      </trkpt>
      <trkpt lat="46.97217" lon="0.69645">
        <ele>48.2</ele>
        <time>2020-07-03T14:41:53Z</time>
      </trkpt>
      <trkpt lat="46.97217" lon="0.69644">
        <ele>48.2</ele>
        <time>2020-07-03T14:41:54Z</time>
      </trkpt>
      <trkpt lat="46.97214" lon="0.6964">
        <ele>48.2</ele>
        <time>2020-07-03T14:41:55Z</time>
      </trkpt>
      <trkpt lat="46.97213" lon="0.69638">
        <ele>48.1</ele>
        <time>2020-07-03T14:41:56Z</time>
      </trkpt>
      <trkpt lat="46.97211" lon="0.69635">
        <ele>48.1</ele>
        <time>2020-07-03T14:41:57Z</time>
      </trkpt>
      <trkpt lat="46.97209" lon="0.6963">
        <ele>48</ele>
        <time>2020-07-03T14:41:58Z</time>
      </trkpt>
      <trkpt lat="46.97207" lon="0.69625">
        <ele>47.8</ele>
        <time>2020-07-03T14:41:59Z</time>
      </trkpt>
      <trkpt lat="46.97206" lon="0.69619">
        <ele>47.7</ele>
        <time>2020-07-03T14:42:00Z</time>
      </trkpt>
      <trkpt lat="46.97206" lon="0.69611">
        <ele>47.7</ele>
        <time>2020-07-03T14:42:01Z</time>
      </trkpt>
      <trkpt lat="46.97205" lon="0.69603">
        <ele>47.6</ele>
        <time>2020-07-03T14:42:02Z</time>
      </trkpt>
      <trkpt lat="46.97205" lon="0.69595">
        <ele>47.5</ele>
        <time>2020-07-03T14:42:03Z</time>
      </trkpt>
      <trkpt lat="46.97204" lon="0.69588">
        <ele>47.5</ele>
        <time>2020-07-03T14:42:04Z</time>
      </trkpt>
      <trkpt lat="46.97204" lon="0.69581">
        <ele>47.5</ele>
        <time>2020-07-03T14:42:05Z</time>
      </trkpt>
      <trkpt lat="46.97205" lon="0.69575">
        <ele>47.5</ele>
        <time>2020-07-03T14:42:06Z</time>
      </trkpt>
      <trkpt lat="46.97205" lon="0.69569">
        <ele>47.5</ele>
        <time>2020-07-03T14:42:07Z</time>
      </trkpt>
      <trkpt lat="46.97205" lon="0.69563">
        <ele>47.5</ele>
        <time>2020-07-03T14:42:08Z</time>
      </trkpt>
      <trkpt lat="46.97206" lon="0.69558">
        <ele>47.6</ele>
        <time>2020-07-03T14:42:09Z</time>
      </trkpt>
      <trkpt lat="46.97209" lon="0.69553">
        <ele>47.7</ele>
        <time>2020-07-03T14:42:10Z</time>
      </trkpt>
      <trkpt lat="46.97213" lon="0.69551">
        <ele>47.8</ele>
        <time>2020-07-03T14:42:11Z</time>
      </trkpt>
      <trkpt lat="46.97215" lon="0.69547">
        <ele>47.9</ele>
        <time>2020-07-03T14:42:12Z</time>
      </trkpt>
      <trkpt lat="46.97216" lon="0.69545">
        <ele>47.9</ele>
        <time>2020-07-03T14:42:13Z</time>
      </trkpt>
      <trkpt lat="46.97217" lon="0.6954">
        <ele>48</ele>
        <time>2020-07-03T14:42:14Z</time>
      </trkpt>
      <trkpt lat="46.97218" lon="0.69535">
        <ele>48</ele>
        <time>2020-07-03T14:42:15Z</time>
      </trkpt>
      <trkpt lat="46.97218" lon="0.6953">
        <ele>48</ele>
        <time>2020-07-03T14:42:16Z</time>
      </trkpt>
      <trkpt lat="46.97217" lon="0.69525">
        <ele>48</ele>
        <time>2020-07-03T14:42:17Z</time>
      </trkpt>
      <trkpt lat="46.97216" lon="0.6952">
        <ele>48</ele>
        <time>2020-07-03T14:42:18Z</time>
      </trkpt>
      <trkpt lat="46.97215" lon="0.69515">
        <ele>48.1</ele>
        <time>2020-07-03T14:42:19Z</time>
      </trkpt>
      <trkpt lat="46.97214" lon="0.6951">
        <ele>48.1</ele>
        <time>2020-07-03T14:42:20Z</time>
      </trkpt>
      <trkpt lat="46.97213" lon="0.69505">
        <ele>48.1</ele>
        <time>2020-07-03T14:42:21Z</time>
      </trkpt>
      <trkpt lat="46.97213" lon="0.695">
        <ele>48.2</ele>
        <time>2020-07-03T14:42:22Z</time>
      </trkpt>
      <trkpt lat="46.97211" lon="0.69495">
        <ele>48.3</ele>
        <time>2020-07-03T14:42:23Z</time>
      </trkpt>
      <trkpt lat="46.97211" lon="0.6949">
        <ele>48.3</ele>
        <time>2020-07-03T14:42:24Z</time>
      </trkpt>
      <trkpt lat="46.9721" lon="0.69485">
        <ele>48.4</ele>
        <time>2020-07-03T14:42:25Z</time>
      </trkpt>
      <trkpt lat="46.97209" lon="0.6948">
        <ele>48.5</ele>
        <time>2020-07-03T14:42:26Z</time>
      </trkpt>
      <trkpt lat="46.97208" lon="0.69474">
        <ele>48.5</ele>
        <time>2020-07-03T14:42:27Z</time>
      </trkpt>
      <trkpt lat="46.97207" lon="0.69468">
        <ele>48.6</ele>
        <time>2020-07-03T14:42:28Z</time>
      </trkpt>
      <trkpt lat="46.97206" lon="0.69463">
        <ele>48.6</ele>
        <time>2020-07-03T14:42:29Z</time>
      </trkpt>
      <trkpt lat="46.97205" lon="0.69458">
        <ele>48.7</ele>
        <time>2020-07-03T14:42:30Z</time>
      </trkpt>
      <trkpt lat="46.97204" lon="0.69452">
        <ele>48.7</ele>
        <time>2020-07-03T14:42:31Z</time>
      </trkpt>
      <trkpt lat="46.97203" lon="0.69446">
        <ele>48.7</ele>
        <time>2020-07-03T14:42:32Z</time>
      </trkpt>
      <trkpt lat="46.97202" lon="0.6944">
        <ele>48.6</ele>
        <time>2020-07-03T14:42:33Z</time>
      </trkpt>
      <trkpt lat="46.97201" lon="0.69433">
        <ele>48.6</ele>
        <time>2020-07-03T14:42:34Z</time>
      </trkpt>
      <trkpt lat="46.972" lon="0.69429">
        <ele>48.7</ele>
        <time>2020-07-03T14:42:35Z</time>
      </trkpt>
      <trkpt lat="46.97198" lon="0.69424">
        <ele>48.7</ele>
        <time>2020-07-03T14:42:36Z</time>
      </trkpt>
      <trkpt lat="46.97197" lon="0.69418">
        <ele>48.8</ele>
        <time>2020-07-03T14:42:37Z</time>
      </trkpt>
      <trkpt lat="46.97195" lon="0.69414">
        <ele>48.8</ele>
        <time>2020-07-03T14:42:38Z</time>
      </trkpt>
      <trkpt lat="46.97194" lon="0.69407">
        <ele>48.8</ele>
        <time>2020-07-03T14:42:39Z</time>
      </trkpt>
      <trkpt lat="46.97192" lon="0.694">
        <ele>48.8</ele>
        <time>2020-07-03T14:42:40Z</time>
      </trkpt>
      <trkpt lat="46.9719" lon="0.69391">
        <ele>48.7</ele>
        <time>2020-07-03T14:42:41Z</time>
      </trkpt>
      <trkpt lat="46.97188" lon="0.69382">
        <ele>48.5</ele>
        <time>2020-07-03T14:42:42Z</time>
      </trkpt>
      <trkpt lat="46.97187" lon="0.69374">
        <ele>48.4</ele>
        <time>2020-07-03T14:42:43Z</time>
      </trkpt>
      <trkpt lat="46.97185" lon="0.69366">
        <ele>48.1</ele>
        <time>2020-07-03T14:42:44Z</time>
      </trkpt>
      <trkpt lat="46.97182" lon="0.69357">
        <ele>47.9</ele>
        <time>2020-07-03T14:42:45Z</time>
      </trkpt>
      <trkpt lat="46.97181" lon="0.69349">
        <ele>47.8</ele>
        <time>2020-07-03T14:42:46Z</time>
      </trkpt>
      <trkpt lat="46.97178" lon="0.6934">
        <ele>47.5</ele>
        <time>2020-07-03T14:42:47Z</time>
      </trkpt>
      <trkpt lat="46.97177" lon="0.69332">
        <ele>47.3</ele>
        <time>2020-07-03T14:42:48Z</time>
      </trkpt>
      <trkpt lat="46.97174" lon="0.69323">
        <ele>47</ele>
        <time>2020-07-03T14:42:49Z</time>
      </trkpt>
      <trkpt lat="46.97171" lon="0.69312">
        <ele>46.7</ele>
        <time>2020-07-03T14:42:50Z</time>
      </trkpt>
      <trkpt lat="46.97168" lon="0.69302">
        <ele>46.4</ele>
        <time>2020-07-03T14:42:51Z</time>
      </trkpt>
      <trkpt lat="46.97166" lon="0.69293">
        <ele>46.2</ele>
        <time>2020-07-03T14:42:52Z</time>
      </trkpt>
      <trkpt lat="46.97164" lon="0.69285">
        <ele>46.1</ele>
        <time>2020-07-03T14:42:53Z</time>
      </trkpt>
      <trkpt lat="46.97165" lon="0.69276">
        <ele>46</ele>
        <time>2020-07-03T14:42:54Z</time>
      </trkpt>
      <trkpt lat="46.97167" lon="0.69267">
        <ele>45.9</ele>
        <time>2020-07-03T14:42:55Z</time>
      </trkpt>
      <trkpt lat="46.9717" lon="0.69259">
        <ele>46.1</ele>
        <time>2020-07-03T14:42:56Z</time>
      </trkpt>
      <trkpt lat="46.97174" lon="0.69254">
        <ele>46.2</ele>
        <time>2020-07-03T14:42:57Z</time>
      </trkpt>
      <trkpt lat="46.97177" lon="0.69247">
        <ele>46.3</ele>
        <time>2020-07-03T14:42:58Z</time>
      </trkpt>
      <trkpt lat="46.9718" lon="0.69242">
        <ele>46.4</ele>
        <time>2020-07-03T14:42:59Z</time>
      </trkpt>
      <trkpt lat="46.97183" lon="0.69238">
        <ele>46.6</ele>
        <time>2020-07-03T14:43:00Z</time>
      </trkpt>
      <trkpt lat="46.97187" lon="0.69232">
        <ele>46.7</ele>
        <time>2020-07-03T14:43:01Z</time>
      </trkpt>
      <trkpt lat="46.97191" lon="0.69226">
        <ele>46.9</ele>
        <time>2020-07-03T14:43:02Z</time>
      </trkpt>
      <trkpt lat="46.97193" lon="0.69222">
        <ele>47</ele>
        <time>2020-07-03T14:43:03Z</time>
      </trkpt>
      <trkpt lat="46.97194" lon="0.69216">
        <ele>47.2</ele>
        <time>2020-07-03T14:43:04Z</time>
      </trkpt>
      <trkpt lat="46.97195" lon="0.69211">
        <ele>47.3</ele>
        <time>2020-07-03T14:43:05Z</time>
      </trkpt>
      <trkpt lat="46.97196" lon="0.69205">
        <ele>47.4</ele>
        <time>2020-07-03T14:43:06Z</time>
      </trkpt>
      <trkpt lat="46.97195" lon="0.69198">
        <ele>47.5</ele>
        <time>2020-07-03T14:43:07Z</time>
      </trkpt>
      <trkpt lat="46.97195" lon="0.69189">
        <ele>47.6</ele>
        <time>2020-07-03T14:43:08Z</time>
      </trkpt>
      <trkpt lat="46.97196" lon="0.6918">
        <ele>47.8</ele>
        <time>2020-07-03T14:43:09Z</time>
      </trkpt>
      <trkpt lat="46.97196" lon="0.6917">
        <ele>47.9</ele>
        <time>2020-07-03T14:43:10Z</time>
      </trkpt>
      <trkpt lat="46.97197" lon="0.69161">
        <ele>48</ele>
        <time>2020-07-03T14:43:11Z</time>
      </trkpt>
      <trkpt lat="46.97197" lon="0.69152">
        <ele>48</ele>
        <time>2020-07-03T14:43:12Z</time>
      </trkpt>
      <trkpt lat="46.972" lon="0.69146">
        <ele>48.1</ele>
        <time>2020-07-03T14:43:13Z</time>
      </trkpt>
      <trkpt lat="46.97201" lon="0.69138">
        <ele>48.1</ele>
        <time>2020-07-03T14:43:14Z</time>
      </trkpt>
      <trkpt lat="46.97201" lon="0.69129">
        <ele>48.1</ele>
        <time>2020-07-03T14:43:15Z</time>
      </trkpt>
      <trkpt lat="46.97201" lon="0.69121">
        <ele>48.2</ele>
        <time>2020-07-03T14:43:16Z</time>
      </trkpt>
      <trkpt lat="46.97202" lon="0.69113">
        <ele>48.2</ele>
        <time>2020-07-03T14:43:17Z</time>
      </trkpt>
      <trkpt lat="46.97202" lon="0.69107">
        <ele>48.2</ele>
        <time>2020-07-03T14:43:18Z</time>
      </trkpt>
      <trkpt lat="46.97203" lon="0.69099">
        <ele>48.2</ele>
        <time>2020-07-03T14:43:19Z</time>
      </trkpt>
      <trkpt lat="46.97204" lon="0.69093">
        <ele>48.2</ele>
        <time>2020-07-03T14:43:20Z</time>
      </trkpt>
      <trkpt lat="46.97204" lon="0.69084">
        <ele>48.2</ele>
        <time>2020-07-03T14:43:21Z</time>
      </trkpt>
      <trkpt lat="46.97204" lon="0.69078">
        <ele>48.2</ele>
        <time>2020-07-03T14:43:22Z</time>
      </trkpt>
      <trkpt lat="46.97204" lon="0.6907">
        <ele>48.2</ele>
        <time>2020-07-03T14:43:23Z</time>
      </trkpt>
      <trkpt lat="46.97204" lon="0.69062">
        <ele>48.2</ele>
        <time>2020-07-03T14:43:24Z</time>
      </trkpt>
      <trkpt lat="46.97204" lon="0.69055">
        <ele>48.2</ele>
        <time>2020-07-03T14:43:25Z</time>
      </trkpt>
      <trkpt lat="46.97205" lon="0.69048">
        <ele>48.2</ele>
        <time>2020-07-03T14:43:26Z</time>
      </trkpt>
      <trkpt lat="46.97206" lon="0.6904">
        <ele>48.2</ele>
        <time>2020-07-03T14:43:27Z</time>
      </trkpt>
      <trkpt lat="46.97207" lon="0.69032">
        <ele>48.3</ele>
        <time>2020-07-03T14:43:28Z</time>
      </trkpt>
      <trkpt lat="46.97207" lon="0.69026">
        <ele>48.3</ele>
        <time>2020-07-03T14:43:29Z</time>
      </trkpt>
      <trkpt lat="46.97208" lon="0.69019">
        <ele>48.3</ele>
        <time>2020-07-03T14:43:30Z</time>
      </trkpt>
      <trkpt lat="46.97207" lon="0.69012">
        <ele>48.3</ele>
        <time>2020-07-03T14:43:31Z</time>
      </trkpt>
      <trkpt lat="46.97207" lon="0.69004">
        <ele>48.3</ele>
        <time>2020-07-03T14:43:32Z</time>
      </trkpt>
      <trkpt lat="46.97207" lon="0.68997">
        <ele>48.4</ele>
        <time>2020-07-03T14:43:33Z</time>
      </trkpt>
      <trkpt lat="46.97206" lon="0.68989">
        <ele>48.4</ele>
        <time>2020-07-03T14:43:34Z</time>
      </trkpt>
      <trkpt lat="46.97206" lon="0.68981">
        <ele>48.4</ele>
        <time>2020-07-03T14:43:35Z</time>
      </trkpt>
      <trkpt lat="46.97206" lon="0.68974">
        <ele>48.3</ele>
        <time>2020-07-03T14:43:36Z</time>
      </trkpt>
      <trkpt lat="46.97206" lon="0.68967">
        <ele>48.3</ele>
        <time>2020-07-03T14:43:37Z</time>
      </trkpt>
      <trkpt lat="46.97206" lon="0.6896">
        <ele>48.3</ele>
        <time>2020-07-03T14:43:38Z</time>
      </trkpt>
      <trkpt lat="46.97205" lon="0.68953">
        <ele>48.3</ele>
        <time>2020-07-03T14:43:39Z</time>
      </trkpt>
      <trkpt lat="46.97204" lon="0.68947">
        <ele>48.3</ele>
        <time>2020-07-03T14:43:40Z</time>
      </trkpt>
      <trkpt lat="46.97203" lon="0.68938">
        <ele>48.3</ele>
        <time>2020-07-03T14:43:41Z</time>
      </trkpt>
      <trkpt lat="46.97202" lon="0.6893">
        <ele>48.2</ele>
        <time>2020-07-03T14:43:42Z</time>
      </trkpt>
      <trkpt lat="46.97201" lon="0.68923">
        <ele>48.2</ele>
        <time>2020-07-03T14:43:43Z</time>
      </trkpt>
      <trkpt lat="46.97199" lon="0.68915">
        <ele>48.1</ele>
        <time>2020-07-03T14:43:44Z</time>
      </trkpt>
      <trkpt lat="46.97199" lon="0.68905">
        <ele>48.1</ele>
        <time>2020-07-03T14:43:45Z</time>
      </trkpt>
      <trkpt lat="46.97199" lon="0.68897">
        <ele>48.1</ele>
        <time>2020-07-03T14:43:46Z</time>
      </trkpt>
      <trkpt lat="46.97198" lon="0.6889">
        <ele>48.1</ele>
        <time>2020-07-03T14:43:47Z</time>
      </trkpt>
      <trkpt lat="46.97198" lon="0.68882">
        <ele>48</ele>
        <time>2020-07-03T14:43:48Z</time>
      </trkpt>
      <trkpt lat="46.97196" lon="0.68878">
        <ele>48</ele>
        <time>2020-07-03T14:43:49Z</time>
      </trkpt>
      <trkpt lat="46.97195" lon="0.68868">
        <ele>48</ele>
        <time>2020-07-03T14:43:50Z</time>
      </trkpt>
      <trkpt lat="46.97192" lon="0.6886">
        <ele>48</ele>
        <time>2020-07-03T14:43:51Z</time>
      </trkpt>
      <trkpt lat="46.9719" lon="0.68853">
        <ele>48</ele>
        <time>2020-07-03T14:43:52Z</time>
      </trkpt>
      <trkpt lat="46.97187" lon="0.68845">
        <ele>48</ele>
        <time>2020-07-03T14:43:53Z</time>
      </trkpt>
      <trkpt lat="46.97184" lon="0.68837">
        <ele>47.9</ele>
        <time>2020-07-03T14:43:54Z</time>
      </trkpt>
      <trkpt lat="46.97182" lon="0.68827">
        <ele>47.9</ele>
        <time>2020-07-03T14:43:55Z</time>
      </trkpt>
      <trkpt lat="46.9718" lon="0.68824">
        <ele>47.9</ele>
        <time>2020-07-03T14:43:56Z</time>
      </trkpt>
      <trkpt lat="46.97178" lon="0.68816">
        <ele>47.8</ele>
        <time>2020-07-03T14:43:57Z</time>
      </trkpt>
      <trkpt lat="46.97177" lon="0.68812">
        <ele>47.8</ele>
        <time>2020-07-03T14:43:58Z</time>
      </trkpt>
      <trkpt lat="46.97175" lon="0.68805">
        <ele>47.8</ele>
        <time>2020-07-03T14:43:59Z</time>
      </trkpt>
      <trkpt lat="46.97172" lon="0.68799">
        <ele>47.8</ele>
        <time>2020-07-03T14:44:00Z</time>
      </trkpt>
      <trkpt lat="46.9717" lon="0.68792">
        <ele>47.9</ele>
        <time>2020-07-03T14:44:01Z</time>
      </trkpt>
      <trkpt lat="46.97167" lon="0.68787">
        <ele>47.9</ele>
        <time>2020-07-03T14:44:02Z</time>
      </trkpt>
      <trkpt lat="46.97164" lon="0.68781">
        <ele>47.9</ele>
        <time>2020-07-03T14:44:03Z</time>
      </trkpt>
      <trkpt lat="46.97161" lon="0.68774">
        <ele>48</ele>
        <time>2020-07-03T14:44:04Z</time>
      </trkpt>
      <trkpt lat="46.97158" lon="0.68766">
        <ele>48</ele>
        <time>2020-07-03T14:44:05Z</time>
      </trkpt>
      <trkpt lat="46.97155" lon="0.68758">
        <ele>48</ele>
        <time>2020-07-03T14:44:06Z</time>
      </trkpt>
      <trkpt lat="46.97154" lon="0.68752">
        <ele>48</ele>
        <time>2020-07-03T14:44:07Z</time>
      </trkpt>
      <trkpt lat="46.97152" lon="0.68746">
        <ele>48</ele>
        <time>2020-07-03T14:44:08Z</time>
      </trkpt>
      <trkpt lat="46.97149" lon="0.6874">
        <ele>48.1</ele>
        <time>2020-07-03T14:44:09Z</time>
      </trkpt>
      <trkpt lat="46.97148" lon="0.68737">
        <ele>48.1</ele>
        <time>2020-07-03T14:44:10Z</time>
      </trkpt>
      <trkpt lat="46.97144" lon="0.6873">
        <ele>48.1</ele>
        <time>2020-07-03T14:44:11Z</time>
      </trkpt>
      <trkpt lat="46.97141" lon="0.68724">
        <ele>48.1</ele>
        <time>2020-07-03T14:44:12Z</time>
      </trkpt>
      <trkpt lat="46.97138" lon="0.68719">
        <ele>48.1</ele>
        <time>2020-07-03T14:44:13Z</time>
      </trkpt>
      <trkpt lat="46.97135" lon="0.68713">
        <ele>48.1</ele>
        <time>2020-07-03T14:44:14Z</time>
      </trkpt>
      <trkpt lat="46.97132" lon="0.68707">
        <ele>48</ele>
        <time>2020-07-03T14:44:15Z</time>
      </trkpt>
      <trkpt lat="46.97128" lon="0.687">
        <ele>48</ele>
        <time>2020-07-03T14:44:16Z</time>
      </trkpt>
      <trkpt lat="46.97125" lon="0.68693">
        <ele>48</ele>
        <time>2020-07-03T14:44:17Z</time>
      </trkpt>
      <trkpt lat="46.97122" lon="0.68688">
        <ele>48.1</ele>
        <time>2020-07-03T14:44:18Z</time>
      </trkpt>
      <trkpt lat="46.9712" lon="0.68682">
        <ele>48.1</ele>
        <time>2020-07-03T14:44:19Z</time>
      </trkpt>
      <trkpt lat="46.97116" lon="0.68674">
        <ele>48</ele>
        <time>2020-07-03T14:44:20Z</time>
      </trkpt>
      <trkpt lat="46.97114" lon="0.68668">
        <ele>48</ele>
        <time>2020-07-03T14:44:21Z</time>
      </trkpt>
      <trkpt lat="46.97112" lon="0.68662">
        <ele>48</ele>
        <time>2020-07-03T14:44:22Z</time>
      </trkpt>
      <trkpt lat="46.97108" lon="0.68656">
        <ele>48</ele>
        <time>2020-07-03T14:44:23Z</time>
      </trkpt>
      <trkpt lat="46.97105" lon="0.68648">
        <ele>48</ele>
        <time>2020-07-03T14:44:24Z</time>
      </trkpt>
      <trkpt lat="46.97101" lon="0.68641">
        <ele>48</ele>
        <time>2020-07-03T14:44:25Z</time>
      </trkpt>
      <trkpt lat="46.97098" lon="0.68635">
        <ele>48</ele>
        <time>2020-07-03T14:44:26Z</time>
      </trkpt>
      <trkpt lat="46.97094" lon="0.68628">
        <ele>48.1</ele>
        <time>2020-07-03T14:44:27Z</time>
      </trkpt>
      <trkpt lat="46.97092" lon="0.68623">
        <ele>48.1</ele>
        <time>2020-07-03T14:44:28Z</time>
      </trkpt>
      <trkpt lat="46.9709" lon="0.68617">
        <ele>48.2</ele>
        <time>2020-07-03T14:44:29Z</time>
      </trkpt>
      <trkpt lat="46.97087" lon="0.6861">
        <ele>48.2</ele>
        <time>2020-07-03T14:44:30Z</time>
      </trkpt>
      <trkpt lat="46.97085" lon="0.68605">
        <ele>48.2</ele>
        <time>2020-07-03T14:44:31Z</time>
      </trkpt>
      <trkpt lat="46.97082" lon="0.68598">
        <ele>48.2</ele>
        <time>2020-07-03T14:44:32Z</time>
      </trkpt>
      <trkpt lat="46.97078" lon="0.68592">
        <ele>48.1</ele>
        <time>2020-07-03T14:44:33Z</time>
      </trkpt>
      <trkpt lat="46.97074" lon="0.68587">
        <ele>48.1</ele>
        <time>2020-07-03T14:44:34Z</time>
      </trkpt>
      <trkpt lat="46.9707" lon="0.68581">
        <ele>48</ele>
        <time>2020-07-03T14:44:35Z</time>
      </trkpt>
      <trkpt lat="46.97066" lon="0.68575">
        <ele>48</ele>
        <time>2020-07-03T14:44:36Z</time>
      </trkpt>
      <trkpt lat="46.97062" lon="0.6857">
        <ele>47.9</ele>
        <time>2020-07-03T14:44:37Z</time>
      </trkpt>
      <trkpt lat="46.97059" lon="0.68564">
        <ele>47.9</ele>
        <time>2020-07-03T14:44:38Z</time>
      </trkpt>
      <trkpt lat="46.97055" lon="0.68559">
        <ele>47.9</ele>
        <time>2020-07-03T14:44:39Z</time>
      </trkpt>
      <trkpt lat="46.97052" lon="0.68553">
        <ele>48</ele>
        <time>2020-07-03T14:44:40Z</time>
      </trkpt>
      <trkpt lat="46.97047" lon="0.68547">
        <ele>48</ele>
        <time>2020-07-03T14:44:41Z</time>
      </trkpt>
      <trkpt lat="46.97044" lon="0.68542">
        <ele>48</ele>
        <time>2020-07-03T14:44:42Z</time>
      </trkpt>
      <trkpt lat="46.97041" lon="0.68537">
        <ele>48</ele>
        <time>2020-07-03T14:44:43Z</time>
      </trkpt>
      <trkpt lat="46.97038" lon="0.68531">
        <ele>47.9</ele>
        <time>2020-07-03T14:44:44Z</time>
      </trkpt>
      <trkpt lat="46.97034" lon="0.68524">
        <ele>47.9</ele>
        <time>2020-07-03T14:44:45Z</time>
      </trkpt>
      <trkpt lat="46.97033" lon="0.68518">
        <ele>47.9</ele>
        <time>2020-07-03T14:44:46Z</time>
      </trkpt>
      <trkpt lat="46.97034" lon="0.6851">
        <ele>47.9</ele>
        <time>2020-07-03T14:44:47Z</time>
      </trkpt>
      <trkpt lat="46.97036" lon="0.68505">
        <ele>48</ele>
        <time>2020-07-03T14:44:48Z</time>
      </trkpt>
      <trkpt lat="46.97038" lon="0.685">
        <ele>48</ele>
        <time>2020-07-03T14:44:49Z</time>
      </trkpt>
      <trkpt lat="46.97041" lon="0.68494">
        <ele>48</ele>
        <time>2020-07-03T14:44:50Z</time>
      </trkpt>
      <trkpt lat="46.97044" lon="0.6849">
        <ele>48</ele>
        <time>2020-07-03T14:44:51Z</time>
      </trkpt>
      <trkpt lat="46.97048" lon="0.68485">
        <ele>48</ele>
        <time>2020-07-03T14:44:52Z</time>
      </trkpt>
      <trkpt lat="46.97052" lon="0.6848">
        <ele>48</ele>
        <time>2020-07-03T14:44:53Z</time>
      </trkpt>
      <trkpt lat="46.97055" lon="0.68474">
        <ele>48</ele>
        <time>2020-07-03T14:44:54Z</time>
      </trkpt>
      <trkpt lat="46.97058" lon="0.68469">
        <ele>48</ele>
        <time>2020-07-03T14:44:55Z</time>
      </trkpt>
      <trkpt lat="46.97062" lon="0.68464">
        <ele>48</ele>
        <time>2020-07-03T14:44:56Z</time>
      </trkpt>
      <trkpt lat="46.97065" lon="0.6846">
        <ele>48</ele>
        <time>2020-07-03T14:44:57Z</time>
      </trkpt>
      <trkpt lat="46.97069" lon="0.68455">
        <ele>48</ele>
        <time>2020-07-03T14:44:58Z</time>
      </trkpt>
      <trkpt lat="46.97072" lon="0.6845">
        <ele>48</ele>
        <time>2020-07-03T14:44:59Z</time>
      </trkpt>
      <trkpt lat="46.97076" lon="0.68446">
        <ele>48</ele>
        <time>2020-07-03T14:45:00Z</time>
      </trkpt>
      <trkpt lat="46.97079" lon="0.68441">
        <ele>48</ele>
        <time>2020-07-03T14:45:01Z</time>
      </trkpt>
      <trkpt lat="46.97082" lon="0.68435">
        <ele>48</ele>
        <time>2020-07-03T14:45:02Z</time>
      </trkpt>
      <trkpt lat="46.97084" lon="0.68431">
        <ele>48</ele>
        <time>2020-07-03T14:45:03Z</time>
      </trkpt>
      <trkpt lat="46.97088" lon="0.68426">
        <ele>48</ele>
        <time>2020-07-03T14:45:04Z</time>
      </trkpt>
      <trkpt lat="46.9709" lon="0.68422">
        <ele>48</ele>
        <time>2020-07-03T14:45:05Z</time>
      </trkpt>
      <trkpt lat="46.97093" lon="0.68416">
        <ele>48</ele>
        <time>2020-07-03T14:45:06Z</time>
      </trkpt>
      <trkpt lat="46.97095" lon="0.68411">
        <ele>48</ele>
        <time>2020-07-03T14:45:07Z</time>
      </trkpt>
      <trkpt lat="46.97098" lon="0.68406">
        <ele>48</ele>
        <time>2020-07-03T14:45:08Z</time>
      </trkpt>
      <trkpt lat="46.97101" lon="0.68401">
        <ele>48</ele>
        <time>2020-07-03T14:45:09Z</time>
      </trkpt>
      <trkpt lat="46.97105" lon="0.68395">
        <ele>48</ele>
        <time>2020-07-03T14:45:10Z</time>
      </trkpt>
      <trkpt lat="46.97108" lon="0.6839">
        <ele>48.1</ele>
        <time>2020-07-03T14:45:11Z</time>
      </trkpt>
      <trkpt lat="46.97111" lon="0.68384">
        <ele>48.1</ele>
        <time>2020-07-03T14:45:12Z</time>
      </trkpt>
      <trkpt lat="46.97114" lon="0.68379">
        <ele>48.1</ele>
        <time>2020-07-03T14:45:13Z</time>
      </trkpt>
      <trkpt lat="46.97117" lon="0.68373">
        <ele>48</ele>
        <time>2020-07-03T14:45:14Z</time>
      </trkpt>
      <trkpt lat="46.9712" lon="0.68368">
        <ele>48</ele>
        <time>2020-07-03T14:45:15Z</time>
      </trkpt>
      <trkpt lat="46.97124" lon="0.68362">
        <ele>48</ele>
        <time>2020-07-03T14:45:16Z</time>
      </trkpt>
      <trkpt lat="46.97128" lon="0.68356">
        <ele>48</ele>
        <time>2020-07-03T14:45:17Z</time>
      </trkpt>
      <trkpt lat="46.97131" lon="0.68351">
        <ele>47.9</ele>
        <time>2020-07-03T14:45:18Z</time>
      </trkpt>
      <trkpt lat="46.97135" lon="0.68345">
        <ele>47.9</ele>
        <time>2020-07-03T14:45:19Z</time>
      </trkpt>
      <trkpt lat="46.97138" lon="0.6834">
        <ele>47.9</ele>
        <time>2020-07-03T14:45:20Z</time>
      </trkpt>
      <trkpt lat="46.97141" lon="0.68334">
        <ele>47.8</ele>
        <time>2020-07-03T14:45:21Z</time>
      </trkpt>
      <trkpt lat="46.97144" lon="0.6833">
        <ele>47.8</ele>
        <time>2020-07-03T14:45:22Z</time>
      </trkpt>
      <trkpt lat="46.97148" lon="0.68323">
        <ele>47.8</ele>
        <time>2020-07-03T14:45:23Z</time>
      </trkpt>
      <trkpt lat="46.97151" lon="0.68317">
        <ele>47.8</ele>
        <time>2020-07-03T14:45:24Z</time>
      </trkpt>
      <trkpt lat="46.97155" lon="0.68311">
        <ele>47.8</ele>
        <time>2020-07-03T14:45:25Z</time>
      </trkpt>
      <trkpt lat="46.97158" lon="0.68305">
        <ele>47.8</ele>
        <time>2020-07-03T14:45:26Z</time>
      </trkpt>
      <trkpt lat="46.97161" lon="0.683">
        <ele>47.8</ele>
        <time>2020-07-03T14:45:27Z</time>
      </trkpt>
      <trkpt lat="46.97165" lon="0.68295">
        <ele>47.8</ele>
        <time>2020-07-03T14:45:28Z</time>
      </trkpt>
      <trkpt lat="46.97169" lon="0.68288">
        <ele>47.7</ele>
        <time>2020-07-03T14:45:29Z</time>
      </trkpt>
      <trkpt lat="46.97174" lon="0.68283">
        <ele>47.7</ele>
        <time>2020-07-03T14:45:30Z</time>
      </trkpt>
      <trkpt lat="46.97178" lon="0.68277">
        <ele>47.6</ele>
        <time>2020-07-03T14:45:31Z</time>
      </trkpt>
      <trkpt lat="46.97182" lon="0.68271">
        <ele>47.6</ele>
        <time>2020-07-03T14:45:32Z</time>
      </trkpt>
      <trkpt lat="46.97186" lon="0.68264">
        <ele>47.5</ele>
        <time>2020-07-03T14:45:33Z</time>
      </trkpt>
      <trkpt lat="46.9719" lon="0.68258">
        <ele>47.5</ele>
        <time>2020-07-03T14:45:34Z</time>
      </trkpt>
      <trkpt lat="46.97192" lon="0.68253">
        <ele>47.5</ele>
        <time>2020-07-03T14:45:35Z</time>
      </trkpt>
      <trkpt lat="46.97195" lon="0.68248">
        <ele>47.5</ele>
        <time>2020-07-03T14:45:36Z</time>
      </trkpt>
      <trkpt lat="46.97199" lon="0.68242">
        <ele>47.4</ele>
        <time>2020-07-03T14:45:37Z</time>
      </trkpt>
      <trkpt lat="46.97202" lon="0.68236">
        <ele>47.4</ele>
        <time>2020-07-03T14:45:38Z</time>
      </trkpt>
      <trkpt lat="46.97205" lon="0.68229">
        <ele>47.3</ele>
        <time>2020-07-03T14:45:39Z</time>
      </trkpt>
      <trkpt lat="46.97208" lon="0.68222">
        <ele>47.3</ele>
        <time>2020-07-03T14:45:40Z</time>
      </trkpt>
      <trkpt lat="46.97211" lon="0.68215">
        <ele>47.3</ele>
        <time>2020-07-03T14:45:41Z</time>
      </trkpt>
      <trkpt lat="46.97214" lon="0.68208">
        <ele>47.3</ele>
        <time>2020-07-03T14:45:42Z</time>
      </trkpt>
      <trkpt lat="46.97216" lon="0.68202">
        <ele>47.4</ele>
        <time>2020-07-03T14:45:43Z</time>
      </trkpt>
      <trkpt lat="46.97219" lon="0.68196">
        <ele>47.4</ele>
        <time>2020-07-03T14:45:44Z</time>
      </trkpt>
      <trkpt lat="46.97222" lon="0.6819">
        <ele>47.4</ele>
        <time>2020-07-03T14:45:45Z</time>
      </trkpt>
      <trkpt lat="46.97224" lon="0.68185">
        <ele>47.4</ele>
        <time>2020-07-03T14:45:46Z</time>
      </trkpt>
      <trkpt lat="46.97227" lon="0.68179">
        <ele>47.4</ele>
        <time>2020-07-03T14:45:47Z</time>
      </trkpt>
      <trkpt lat="46.97229" lon="0.68172">
        <ele>47.4</ele>
        <time>2020-07-03T14:45:48Z</time>
      </trkpt>
      <trkpt lat="46.97232" lon="0.68165">
        <ele>47.5</ele>
        <time>2020-07-03T14:45:49Z</time>
      </trkpt>
      <trkpt lat="46.97235" lon="0.68159">
        <ele>47.5</ele>
        <time>2020-07-03T14:45:50Z</time>
      </trkpt>
      <trkpt lat="46.97238" lon="0.68152">
        <ele>47.5</ele>
        <time>2020-07-03T14:45:51Z</time>
      </trkpt>
      <trkpt lat="46.97241" lon="0.68146">
        <ele>47.5</ele>
        <time>2020-07-03T14:45:52Z</time>
      </trkpt>
      <trkpt lat="46.97244" lon="0.6814">
        <ele>47.5</ele>
        <time>2020-07-03T14:45:53Z</time>
      </trkpt>
      <trkpt lat="46.97247" lon="0.68135">
        <ele>47.5</ele>
        <time>2020-07-03T14:45:54Z</time>
      </trkpt>
      <trkpt lat="46.9725" lon="0.6813">
        <ele>47.6</ele>
        <time>2020-07-03T14:45:55Z</time>
      </trkpt>
      <trkpt lat="46.97254" lon="0.68124">
        <ele>47.6</ele>
        <time>2020-07-03T14:45:56Z</time>
      </trkpt>
      <trkpt lat="46.97257" lon="0.6812">
        <ele>47.6</ele>
        <time>2020-07-03T14:45:57Z</time>
      </trkpt>
      <trkpt lat="46.97261" lon="0.68116">
        <ele>48</ele>
        <time>2020-07-03T14:45:58Z</time>
      </trkpt>
      <trkpt lat="46.97265" lon="0.68114">
        <ele>48</ele>
        <time>2020-07-03T14:45:59Z</time>
      </trkpt>
      <trkpt lat="46.97267" lon="0.68109">
        <ele>48</ele>
        <time>2020-07-03T14:46:00Z</time>
      </trkpt>
      <trkpt lat="46.97267" lon="0.68104">
        <ele>48.1</ele>
        <time>2020-07-03T14:46:01Z</time>
      </trkpt>
      <trkpt lat="46.97266" lon="0.68097">
        <ele>48.1</ele>
        <time>2020-07-03T14:46:02Z</time>
      </trkpt>
      <trkpt lat="46.97265" lon="0.68093">
        <ele>48.1</ele>
        <time>2020-07-03T14:46:03Z</time>
      </trkpt>
      <trkpt lat="46.97262" lon="0.68088">
        <ele>48</ele>
        <time>2020-07-03T14:46:04Z</time>
      </trkpt>
      <trkpt lat="46.97258" lon="0.68086">
        <ele>47.9</ele>
        <time>2020-07-03T14:46:05Z</time>
      </trkpt>
      <trkpt lat="46.97254" lon="0.68086">
        <ele>48.2</ele>
        <time>2020-07-03T14:46:06Z</time>
      </trkpt>
      <trkpt lat="46.97249" lon="0.68086">
        <ele>48</ele>
        <time>2020-07-03T14:46:07Z</time>
      </trkpt>
      <trkpt lat="46.97244" lon="0.68085">
        <ele>47.9</ele>
        <time>2020-07-03T14:46:08Z</time>
      </trkpt>
      <trkpt lat="46.97239" lon="0.68085">
        <ele>47.8</ele>
        <time>2020-07-03T14:46:09Z</time>
      </trkpt>
      <trkpt lat="46.97235" lon="0.68083">
        <ele>47.7</ele>
        <time>2020-07-03T14:46:10Z</time>
      </trkpt>
      <trkpt lat="46.9723" lon="0.68079">
        <ele>47.5</ele>
        <time>2020-07-03T14:46:11Z</time>
      </trkpt>
      <trkpt lat="46.97226" lon="0.68076">
        <ele>47.4</ele>
        <time>2020-07-03T14:46:12Z</time>
      </trkpt>
      <trkpt lat="46.97221" lon="0.68071">
        <ele>47.3</ele>
        <time>2020-07-03T14:46:13Z</time>
      </trkpt>
      <trkpt lat="46.97216" lon="0.68069">
        <ele>47.2</ele>
        <time>2020-07-03T14:46:14Z</time>
      </trkpt>
      <trkpt lat="46.97211" lon="0.68066">
        <ele>47.2</ele>
        <time>2020-07-03T14:46:15Z</time>
      </trkpt>
      <trkpt lat="46.97207" lon="0.68062">
        <ele>47.2</ele>
        <time>2020-07-03T14:46:16Z</time>
      </trkpt>
      <trkpt lat="46.97203" lon="0.68059">
        <ele>47.2</ele>
        <time>2020-07-03T14:46:17Z</time>
      </trkpt>
      <trkpt lat="46.97199" lon="0.68057">
        <ele>47.2</ele>
        <time>2020-07-03T14:46:18Z</time>
      </trkpt>
      <trkpt lat="46.97195" lon="0.68054">
        <ele>47.2</ele>
        <time>2020-07-03T14:46:19Z</time>
      </trkpt>
      <trkpt lat="46.9719" lon="0.68051">
        <ele>47.2</ele>
        <time>2020-07-03T14:46:20Z</time>
      </trkpt>
      <trkpt lat="46.97187" lon="0.68048">
        <ele>47.3</ele>
        <time>2020-07-03T14:46:21Z</time>
      </trkpt>
      <trkpt lat="46.97183" lon="0.68046">
        <ele>47.3</ele>
        <time>2020-07-03T14:46:22Z</time>
      </trkpt>
      <trkpt lat="46.97178" lon="0.68042">
        <ele>47.4</ele>
        <time>2020-07-03T14:46:23Z</time>
      </trkpt>
      <trkpt lat="46.97174" lon="0.68039">
        <ele>47.4</ele>
        <time>2020-07-03T14:46:24Z</time>
      </trkpt>
      <trkpt lat="46.97168" lon="0.68034">
        <ele>47.5</ele>
        <time>2020-07-03T14:46:25Z</time>
      </trkpt>
      <trkpt lat="46.97165" lon="0.6803">
        <ele>47.6</ele>
        <time>2020-07-03T14:46:26Z</time>
      </trkpt>
      <trkpt lat="46.97161" lon="0.68026">
        <ele>47.6</ele>
        <time>2020-07-03T14:46:27Z</time>
      </trkpt>
      <trkpt lat="46.97158" lon="0.68022">
        <ele>47.6</ele>
        <time>2020-07-03T14:46:28Z</time>
      </trkpt>
      <trkpt lat="46.97154" lon="0.68019">
        <ele>47.6</ele>
        <time>2020-07-03T14:46:29Z</time>
      </trkpt>
      <trkpt lat="46.97151" lon="0.68016">
        <ele>47.6</ele>
        <time>2020-07-03T14:46:30Z</time>
      </trkpt>
      <trkpt lat="46.97148" lon="0.68013">
        <ele>47.7</ele>
        <time>2020-07-03T14:46:31Z</time>
      </trkpt>
      <trkpt lat="46.97143" lon="0.68009">
        <ele>47.7</ele>
        <time>2020-07-03T14:46:32Z</time>
      </trkpt>
      <trkpt lat="46.97138" lon="0.68005">
        <ele>47.8</ele>
        <time>2020-07-03T14:46:33Z</time>
      </trkpt>
      <trkpt lat="46.97134" lon="0.68002">
        <ele>47.9</ele>
        <time>2020-07-03T14:46:34Z</time>
      </trkpt>
      <trkpt lat="46.9713" lon="0.67998">
        <ele>48</ele>
        <time>2020-07-03T14:46:35Z</time>
      </trkpt>
      <trkpt lat="46.97126" lon="0.67994">
        <ele>48.1</ele>
        <time>2020-07-03T14:46:36Z</time>
      </trkpt>
      <trkpt lat="46.97121" lon="0.67991">
        <ele>48.2</ele>
        <time>2020-07-03T14:46:37Z</time>
      </trkpt>
      <trkpt lat="46.97118" lon="0.67988">
        <ele>48.3</ele>
        <time>2020-07-03T14:46:38Z</time>
      </trkpt>
      <trkpt lat="46.97114" lon="0.67985">
        <ele>48.3</ele>
        <time>2020-07-03T14:46:39Z</time>
      </trkpt>
      <trkpt lat="46.9711" lon="0.67982">
        <ele>48.4</ele>
        <time>2020-07-03T14:46:40Z</time>
      </trkpt>
      <trkpt lat="46.97105" lon="0.67979">
        <ele>48.5</ele>
        <time>2020-07-03T14:46:41Z</time>
      </trkpt>
      <trkpt lat="46.97101" lon="0.67976">
        <ele>48.6</ele>
        <time>2020-07-03T14:46:42Z</time>
      </trkpt>
      <trkpt lat="46.97097" lon="0.67973">
        <ele>48.6</ele>
        <time>2020-07-03T14:46:43Z</time>
      </trkpt>
      <trkpt lat="46.97094" lon="0.67968">
        <ele>48.7</ele>
        <time>2020-07-03T14:46:44Z</time>
      </trkpt>
      <trkpt lat="46.9709" lon="0.67964">
        <ele>48.7</ele>
        <time>2020-07-03T14:46:45Z</time>
      </trkpt>
      <trkpt lat="46.97087" lon="0.67961">
        <ele>48.8</ele>
        <time>2020-07-03T14:46:46Z</time>
      </trkpt>
      <trkpt lat="46.97083" lon="0.67957">
        <ele>48.8</ele>
        <time>2020-07-03T14:46:47Z</time>
      </trkpt>
      <trkpt lat="46.97081" lon="0.67955">
        <ele>48.9</ele>
        <time>2020-07-03T14:46:48Z</time>
      </trkpt>
      <trkpt lat="46.97078" lon="0.67952">
        <ele>48.9</ele>
        <time>2020-07-03T14:46:49Z</time>
      </trkpt>
      <trkpt lat="46.97074" lon="0.67948">
        <ele>49</ele>
        <time>2020-07-03T14:46:50Z</time>
      </trkpt>
      <trkpt lat="46.97071" lon="0.67946">
        <ele>49.1</ele>
        <time>2020-07-03T14:46:51Z</time>
      </trkpt>
      <trkpt lat="46.97067" lon="0.67942">
        <ele>49.2</ele>
        <time>2020-07-03T14:46:52Z</time>
      </trkpt>
      <trkpt lat="46.97064" lon="0.67939">
        <ele>49.3</ele>
        <time>2020-07-03T14:46:53Z</time>
      </trkpt>
      <trkpt lat="46.9706" lon="0.67935">
        <ele>49.5</ele>
        <time>2020-07-03T14:46:54Z</time>
      </trkpt>
      <trkpt lat="46.97058" lon="0.67934">
        <ele>49.5</ele>
        <time>2020-07-03T14:46:55Z</time>
      </trkpt>
      <trkpt lat="46.97055" lon="0.6793">
        <ele>49.6</ele>
        <time>2020-07-03T14:46:56Z</time>
      </trkpt>
      <trkpt lat="46.97052" lon="0.67927">
        <ele>49.7</ele>
        <time>2020-07-03T14:46:57Z</time>
      </trkpt>
      <trkpt lat="46.97049" lon="0.67925">
        <ele>49.8</ele>
        <time>2020-07-03T14:46:58Z</time>
      </trkpt>
      <trkpt lat="46.97046" lon="0.67921">
        <ele>49.9</ele>
        <time>2020-07-03T14:46:59Z</time>
      </trkpt>
      <trkpt lat="46.97042" lon="0.67918">
        <ele>50</ele>
        <time>2020-07-03T14:47:00Z</time>
      </trkpt>
      <trkpt lat="46.97039" lon="0.67916">
        <ele>50.1</ele>
        <time>2020-07-03T14:47:01Z</time>
      </trkpt>
      <trkpt lat="46.97036" lon="0.67913">
        <ele>50.2</ele>
        <time>2020-07-03T14:47:02Z</time>
      </trkpt>
      <trkpt lat="46.97033" lon="0.67911">
        <ele>50.3</ele>
        <time>2020-07-03T14:47:03Z</time>
      </trkpt>
      <trkpt lat="46.9703" lon="0.67909">
        <ele>50.4</ele>
        <time>2020-07-03T14:47:04Z</time>
      </trkpt>
      <trkpt lat="46.97026" lon="0.67903">
        <ele>50.5</ele>
        <time>2020-07-03T14:47:05Z</time>
      </trkpt>
      <trkpt lat="46.97023" lon="0.679">
        <ele>50.6</ele>
        <time>2020-07-03T14:47:06Z</time>
      </trkpt>
      <trkpt lat="46.97019" lon="0.67897">
        <ele>50.7</ele>
        <time>2020-07-03T14:47:07Z</time>
      </trkpt>
      <trkpt lat="46.97016" lon="0.67896">
        <ele>50.8</ele>
        <time>2020-07-03T14:47:08Z</time>
      </trkpt>
      <trkpt lat="46.97012" lon="0.67893">
        <ele>50.9</ele>
        <time>2020-07-03T14:47:09Z</time>
      </trkpt>
      <trkpt lat="46.97011" lon="0.67892">
        <ele>51</ele>
        <time>2020-07-03T14:47:10Z</time>
      </trkpt>
      <trkpt lat="46.97008" lon="0.67888">
        <ele>51.1</ele>
        <time>2020-07-03T14:47:11Z</time>
      </trkpt>
      <trkpt lat="46.97005" lon="0.67885">
        <ele>51.1</ele>
        <time>2020-07-03T14:47:12Z</time>
      </trkpt>
      <trkpt lat="46.97003" lon="0.67883">
        <ele>51.2</ele>
        <time>2020-07-03T14:47:13Z</time>
      </trkpt>
      <trkpt lat="46.97" lon="0.6788">
        <ele>51.3</ele>
        <time>2020-07-03T14:47:14Z</time>
      </trkpt>
      <trkpt lat="46.96998" lon="0.67877">
        <ele>51.4</ele>
        <time>2020-07-03T14:47:15Z</time>
      </trkpt>
      <trkpt lat="46.96995" lon="0.67874">
        <ele>51.5</ele>
        <time>2020-07-03T14:47:16Z</time>
      </trkpt>
      <trkpt lat="46.96992" lon="0.67871">
        <ele>51.6</ele>
        <time>2020-07-03T14:47:17Z</time>
      </trkpt>
      <trkpt lat="46.96989" lon="0.67869">
        <ele>51.7</ele>
        <time>2020-07-03T14:47:18Z</time>
      </trkpt>
      <trkpt lat="46.96986" lon="0.67866">
        <ele>51.8</ele>
        <time>2020-07-03T14:47:19Z</time>
      </trkpt>
      <trkpt lat="46.96985" lon="0.67865">
        <ele>51.8</ele>
        <time>2020-07-03T14:47:20Z</time>
      </trkpt>
      <trkpt lat="46.96982" lon="0.67861">
        <ele>51.9</ele>
        <time>2020-07-03T14:47:21Z</time>
      </trkpt>
      <trkpt lat="46.96981" lon="0.6786">
        <ele>52</ele>
        <time>2020-07-03T14:47:22Z</time>
      </trkpt>
      <trkpt lat="46.96978" lon="0.67857">
        <ele>52.1</ele>
        <time>2020-07-03T14:47:23Z</time>
      </trkpt>
      <trkpt lat="46.96975" lon="0.67854">
        <ele>52.2</ele>
        <time>2020-07-03T14:47:24Z</time>
      </trkpt>
      <trkpt lat="46.96972" lon="0.67851">
        <ele>52.4</ele>
        <time>2020-07-03T14:47:25Z</time>
      </trkpt>
      <trkpt lat="46.96971" lon="0.6785">
        <ele>52.4</ele>
        <time>2020-07-03T14:47:26Z</time>
      </trkpt>
      <trkpt lat="46.9697" lon="0.67846">
        <ele>52.5</ele>
        <time>2020-07-03T14:47:27Z</time>
      </trkpt>
      <trkpt lat="46.96969" lon="0.67845">
        <ele>52.6</ele>
        <time>2020-07-03T14:47:28Z</time>
      </trkpt>
      <trkpt lat="46.96967" lon="0.67844">
        <ele>52.7</ele>
        <time>2020-07-03T14:47:29Z</time>
      </trkpt>
      <trkpt lat="46.96966" lon="0.67843">
        <ele>52.7</ele>
        <time>2020-07-03T14:47:30Z</time>
      </trkpt>
      <trkpt lat="46.96965" lon="0.67842">
        <ele>52.8</ele>
        <time>2020-07-03T14:47:31Z</time>
      </trkpt>
      <trkpt lat="46.96963" lon="0.6784">
        <ele>52.9</ele>
        <time>2020-07-03T14:47:32Z</time>
      </trkpt>
      <trkpt lat="46.96962" lon="0.6784">
        <ele>52.9</ele>
        <time>2020-07-03T14:47:33Z</time>
      </trkpt>
      <trkpt lat="46.9696" lon="0.67837">
        <ele>53</ele>
        <time>2020-07-03T14:47:34Z</time>
      </trkpt>
      <trkpt lat="46.96958" lon="0.67834">
        <ele>53.1</ele>
        <time>2020-07-03T14:47:35Z</time>
      </trkpt>
      <trkpt lat="46.96955" lon="0.67831">
        <ele>53.3</ele>
        <time>2020-07-03T14:47:36Z</time>
      </trkpt>
      <trkpt lat="46.96953" lon="0.6783">
        <ele>53.3</ele>
        <time>2020-07-03T14:47:37Z</time>
      </trkpt>
      <trkpt lat="46.9695" lon="0.67827">
        <ele>53.5</ele>
        <time>2020-07-03T14:47:38Z</time>
      </trkpt>
      <trkpt lat="46.96948" lon="0.67826">
        <ele>53.5</ele>
        <time>2020-07-03T14:47:39Z</time>
      </trkpt>
      <trkpt lat="46.96946" lon="0.67823">
        <ele>53.6</ele>
        <time>2020-07-03T14:47:40Z</time>
      </trkpt>
      <trkpt lat="46.96944" lon="0.6782">
        <ele>53.7</ele>
        <time>2020-07-03T14:47:41Z</time>
      </trkpt>
      <trkpt lat="46.9694" lon="0.67816">
        <ele>53.9</ele>
        <time>2020-07-03T14:47:42Z</time>
      </trkpt>
      <trkpt lat="46.96937" lon="0.67812">
        <ele>54</ele>
        <time>2020-07-03T14:47:43Z</time>
      </trkpt>
      <trkpt lat="46.96936" lon="0.67811">
        <ele>54.1</ele>
        <time>2020-07-03T14:47:44Z</time>
      </trkpt>
      <trkpt lat="46.96934" lon="0.67808">
        <ele>54.2</ele>
        <time>2020-07-03T14:47:45Z</time>
      </trkpt>
      <trkpt lat="46.96931" lon="0.67805">
        <ele>54.3</ele>
        <time>2020-07-03T14:47:46Z</time>
      </trkpt>
      <trkpt lat="46.96927" lon="0.67801">
        <ele>54.4</ele>
        <time>2020-07-03T14:47:47Z</time>
      </trkpt>
      <trkpt lat="46.96924" lon="0.678">
        <ele>54.5</ele>
        <time>2020-07-03T14:47:48Z</time>
      </trkpt>
      <trkpt lat="46.96921" lon="0.67797">
        <ele>54.6</ele>
        <time>2020-07-03T14:47:49Z</time>
      </trkpt>
      <trkpt lat="46.96919" lon="0.67794">
        <ele>54.7</ele>
        <time>2020-07-03T14:47:50Z</time>
      </trkpt>
      <trkpt lat="46.96916" lon="0.6779">
        <ele>54.9</ele>
        <time>2020-07-03T14:47:51Z</time>
      </trkpt>
      <trkpt lat="46.96913" lon="0.67786">
        <ele>55.1</ele>
        <time>2020-07-03T14:47:52Z</time>
      </trkpt>
      <trkpt lat="46.9691" lon="0.67782">
        <ele>55.3</ele>
        <time>2020-07-03T14:47:53Z</time>
      </trkpt>
      <trkpt lat="46.96908" lon="0.67778">
        <ele>55.4</ele>
        <time>2020-07-03T14:47:54Z</time>
      </trkpt>
      <trkpt lat="46.96905" lon="0.67774">
        <ele>55.6</ele>
        <time>2020-07-03T14:47:55Z</time>
      </trkpt>
      <trkpt lat="46.96902" lon="0.6777">
        <ele>55.8</ele>
        <time>2020-07-03T14:47:56Z</time>
      </trkpt>
      <trkpt lat="46.96897" lon="0.67767">
        <ele>56</ele>
        <time>2020-07-03T14:47:57Z</time>
      </trkpt>
      <trkpt lat="46.96894" lon="0.67762">
        <ele>56.2</ele>
        <time>2020-07-03T14:47:58Z</time>
      </trkpt>
      <trkpt lat="46.96891" lon="0.67758">
        <ele>56.4</ele>
        <time>2020-07-03T14:47:59Z</time>
      </trkpt>
      <trkpt lat="46.96887" lon="0.67754">
        <ele>56.6</ele>
        <time>2020-07-03T14:48:00Z</time>
      </trkpt>
      <trkpt lat="46.96885" lon="0.67752">
        <ele>56.7</ele>
        <time>2020-07-03T14:48:01Z</time>
      </trkpt>
      <trkpt lat="46.96883" lon="0.67749">
        <ele>56.8</ele>
        <time>2020-07-03T14:48:02Z</time>
      </trkpt>
      <trkpt lat="46.9688" lon="0.67746">
        <ele>57</ele>
        <time>2020-07-03T14:48:03Z</time>
      </trkpt>
      <trkpt lat="46.96878" lon="0.67744">
        <ele>57.1</ele>
        <time>2020-07-03T14:48:04Z</time>
      </trkpt>
      <trkpt lat="46.96875" lon="0.6774">
        <ele>57.3</ele>
        <time>2020-07-03T14:48:05Z</time>
      </trkpt>
      <trkpt lat="46.96872" lon="0.67736">
        <ele>57.5</ele>
        <time>2020-07-03T14:48:06Z</time>
      </trkpt>
      <trkpt lat="46.96869" lon="0.67734">
        <ele>57.6</ele>
        <time>2020-07-03T14:48:07Z</time>
      </trkpt>
      <trkpt lat="46.96867" lon="0.6773">
        <ele>57.8</ele>
        <time>2020-07-03T14:48:08Z</time>
      </trkpt>
      <trkpt lat="46.96864" lon="0.67727">
        <ele>57.9</ele>
        <time>2020-07-03T14:48:09Z</time>
      </trkpt>
      <trkpt lat="46.96861" lon="0.67724">
        <ele>58.1</ele>
        <time>2020-07-03T14:48:10Z</time>
      </trkpt>
      <trkpt lat="46.9686" lon="0.67722">
        <ele>58.2</ele>
        <time>2020-07-03T14:48:11Z</time>
      </trkpt>
      <trkpt lat="46.96858" lon="0.67719">
        <ele>58.3</ele>
        <time>2020-07-03T14:48:12Z</time>
      </trkpt>
      <trkpt lat="46.96855" lon="0.67715">
        <ele>58.5</ele>
        <time>2020-07-03T14:48:13Z</time>
      </trkpt>
      <trkpt lat="46.96854" lon="0.67713">
        <ele>58.6</ele>
        <time>2020-07-03T14:48:14Z</time>
      </trkpt>
      <trkpt lat="46.96851" lon="0.6771">
        <ele>58.8</ele>
        <time>2020-07-03T14:48:15Z</time>
      </trkpt>
      <trkpt lat="46.96847" lon="0.67708">
        <ele>59</ele>
        <time>2020-07-03T14:48:16Z</time>
      </trkpt>
      <trkpt lat="46.96845" lon="0.67706">
        <ele>59.2</ele>
        <time>2020-07-03T14:48:17Z</time>
      </trkpt>
      <trkpt lat="46.96842" lon="0.67703">
        <ele>59.4</ele>
        <time>2020-07-03T14:48:18Z</time>
      </trkpt>
      <trkpt lat="46.96839" lon="0.677">
        <ele>59.5</ele>
        <time>2020-07-03T14:48:19Z</time>
      </trkpt>
      <trkpt lat="46.96837" lon="0.67697">
        <ele>59.7</ele>
        <time>2020-07-03T14:48:20Z</time>
      </trkpt>
      <trkpt lat="46.96836" lon="0.67696">
        <ele>59.7</ele>
        <time>2020-07-03T14:48:21Z</time>
      </trkpt>
      <trkpt lat="46.96834" lon="0.67693">
        <ele>59.9</ele>
        <time>2020-07-03T14:48:22Z</time>
      </trkpt>
      <trkpt lat="46.96832" lon="0.6769">
        <ele>60</ele>
        <time>2020-07-03T14:48:23Z</time>
      </trkpt>
      <trkpt lat="46.96829" lon="0.67687">
        <ele>60.2</ele>
        <time>2020-07-03T14:48:24Z</time>
      </trkpt>
      <trkpt lat="46.96826" lon="0.67684">
        <ele>60.3</ele>
        <time>2020-07-03T14:48:25Z</time>
      </trkpt>
      <trkpt lat="46.96824" lon="0.6768">
        <ele>60.5</ele>
        <time>2020-07-03T14:48:26Z</time>
      </trkpt>
      <trkpt lat="46.96821" lon="0.67678">
        <ele>60.6</ele>
        <time>2020-07-03T14:48:27Z</time>
      </trkpt>
      <trkpt lat="46.96818" lon="0.67675">
        <ele>60.8</ele>
        <time>2020-07-03T14:48:28Z</time>
      </trkpt>
      <trkpt lat="46.96817" lon="0.67673">
        <ele>60.9</ele>
        <time>2020-07-03T14:48:29Z</time>
      </trkpt>
      <trkpt lat="46.96814" lon="0.67671">
        <ele>61.1</ele>
        <time>2020-07-03T14:48:30Z</time>
      </trkpt>
      <trkpt lat="46.96812" lon="0.67669">
        <ele>61.2</ele>
        <time>2020-07-03T14:48:31Z</time>
      </trkpt>
      <trkpt lat="46.96809" lon="0.67666">
        <ele>61.4</ele>
        <time>2020-07-03T14:48:32Z</time>
      </trkpt>
      <trkpt lat="46.96806" lon="0.67663">
        <ele>61.5</ele>
        <time>2020-07-03T14:48:33Z</time>
      </trkpt>
      <trkpt lat="46.96803" lon="0.67661">
        <ele>61.7</ele>
        <time>2020-07-03T14:48:34Z</time>
      </trkpt>
      <trkpt lat="46.96801" lon="0.67657">
        <ele>61.9</ele>
        <time>2020-07-03T14:48:35Z</time>
      </trkpt>
      <trkpt lat="46.96798" lon="0.67653">
        <ele>62.1</ele>
        <time>2020-07-03T14:48:36Z</time>
      </trkpt>
      <trkpt lat="46.96797" lon="0.67652">
        <ele>62.1</ele>
        <time>2020-07-03T14:48:37Z</time>
      </trkpt>
      <trkpt lat="46.96794" lon="0.67649">
        <ele>62.3</ele>
        <time>2020-07-03T14:48:38Z</time>
      </trkpt>
      <trkpt lat="46.96792" lon="0.67646">
        <ele>62.4</ele>
        <time>2020-07-03T14:48:39Z</time>
      </trkpt>
      <trkpt lat="46.96789" lon="0.67642">
        <ele>62.6</ele>
        <time>2020-07-03T14:48:40Z</time>
      </trkpt>
      <trkpt lat="46.96787" lon="0.67639">
        <ele>62.8</ele>
        <time>2020-07-03T14:48:41Z</time>
      </trkpt>
      <trkpt lat="46.96785" lon="0.67634">
        <ele>63</ele>
        <time>2020-07-03T14:48:42Z</time>
      </trkpt>
      <trkpt lat="46.96783" lon="0.67631">
        <ele>63.1</ele>
        <time>2020-07-03T14:48:43Z</time>
      </trkpt>
      <trkpt lat="46.9678" lon="0.67627">
        <ele>63.4</ele>
        <time>2020-07-03T14:48:44Z</time>
      </trkpt>
      <trkpt lat="46.96779" lon="0.67625">
        <ele>63.4</ele>
        <time>2020-07-03T14:48:45Z</time>
      </trkpt>
      <trkpt lat="46.96776" lon="0.67621">
        <ele>63.6</ele>
        <time>2020-07-03T14:48:46Z</time>
      </trkpt>
      <trkpt lat="46.96773" lon="0.67618">
        <ele>63.8</ele>
        <time>2020-07-03T14:48:47Z</time>
      </trkpt>
      <trkpt lat="46.96771" lon="0.67614">
        <ele>64</ele>
        <time>2020-07-03T14:48:48Z</time>
      </trkpt>
      <trkpt lat="46.96769" lon="0.6761">
        <ele>64.2</ele>
        <time>2020-07-03T14:48:49Z</time>
      </trkpt>
      <trkpt lat="46.96765" lon="0.67606">
        <ele>64.4</ele>
        <time>2020-07-03T14:48:50Z</time>
      </trkpt>
      <trkpt lat="46.96763" lon="0.67603">
        <ele>64.7</ele>
        <time>2020-07-03T14:48:51Z</time>
      </trkpt>
      <trkpt lat="46.9676" lon="0.67599">
        <ele>64.9</ele>
        <time>2020-07-03T14:48:52Z</time>
      </trkpt>
      <trkpt lat="46.96757" lon="0.67597">
        <ele>65.1</ele>
        <time>2020-07-03T14:48:53Z</time>
      </trkpt>
      <trkpt lat="46.96754" lon="0.67594">
        <ele>65.3</ele>
        <time>2020-07-03T14:48:54Z</time>
      </trkpt>
      <trkpt lat="46.96751" lon="0.67592">
        <ele>65.5</ele>
        <time>2020-07-03T14:48:55Z</time>
      </trkpt>
      <trkpt lat="46.96748" lon="0.67588">
        <ele>65.6</ele>
        <time>2020-07-03T14:48:56Z</time>
      </trkpt>
      <trkpt lat="46.96746" lon="0.67586">
        <ele>65.8</ele>
        <time>2020-07-03T14:48:57Z</time>
      </trkpt>
      <trkpt lat="46.96743" lon="0.67584">
        <ele>66</ele>
        <time>2020-07-03T14:48:58Z</time>
      </trkpt>
      <trkpt lat="46.96742" lon="0.67583">
        <ele>66.1</ele>
        <time>2020-07-03T14:48:59Z</time>
      </trkpt>
      <trkpt lat="46.96739" lon="0.6758">
        <ele>66.3</ele>
        <time>2020-07-03T14:49:00Z</time>
      </trkpt>
      <trkpt lat="46.96738" lon="0.67579">
        <ele>66.3</ele>
        <time>2020-07-03T14:49:01Z</time>
      </trkpt>
      <trkpt lat="46.96735" lon="0.67578">
        <ele>66.5</ele>
        <time>2020-07-03T14:49:02Z</time>
      </trkpt>
      <trkpt lat="46.96734" lon="0.67578">
        <ele>66.5</ele>
        <time>2020-07-03T14:49:03Z</time>
      </trkpt>
      <trkpt lat="46.96732" lon="0.67576">
        <ele>66.7</ele>
        <time>2020-07-03T14:49:04Z</time>
      </trkpt>
      <trkpt lat="46.9673" lon="0.67574">
        <ele>66.8</ele>
        <time>2020-07-03T14:49:05Z</time>
      </trkpt>
      <trkpt lat="46.96726" lon="0.67572">
        <ele>67</ele>
        <time>2020-07-03T14:49:06Z</time>
      </trkpt>
      <trkpt lat="46.96725" lon="0.67571">
        <ele>67.1</ele>
        <time>2020-07-03T14:49:07Z</time>
      </trkpt>
      <trkpt lat="46.96722" lon="0.6757">
        <ele>67.3</ele>
        <time>2020-07-03T14:49:08Z</time>
      </trkpt>
      <trkpt lat="46.96719" lon="0.67568">
        <ele>67.4</ele>
        <time>2020-07-03T14:49:09Z</time>
      </trkpt>
      <trkpt lat="46.96715" lon="0.67567">
        <ele>67.6</ele>
        <time>2020-07-03T14:49:10Z</time>
      </trkpt>
      <trkpt lat="46.96713" lon="0.67567">
        <ele>67.7</ele>
        <time>2020-07-03T14:49:11Z</time>
      </trkpt>
      <trkpt lat="46.96709" lon="0.67566">
        <ele>67.9</ele>
        <time>2020-07-03T14:49:12Z</time>
      </trkpt>
      <trkpt lat="46.96708" lon="0.67565">
        <ele>67.9</ele>
        <time>2020-07-03T14:49:13Z</time>
      </trkpt>
      <trkpt lat="46.96705" lon="0.67564">
        <ele>68.1</ele>
        <time>2020-07-03T14:49:14Z</time>
      </trkpt>
      <trkpt lat="46.96702" lon="0.67562">
        <ele>68.2</ele>
        <time>2020-07-03T14:49:15Z</time>
      </trkpt>
      <trkpt lat="46.96702" lon="0.67561">
        <ele>68.3</ele>
        <time>2020-07-03T14:49:16Z</time>
      </trkpt>
      <trkpt lat="46.96698" lon="0.67559">
        <ele>68.5</ele>
        <time>2020-07-03T14:49:17Z</time>
      </trkpt>
      <trkpt lat="46.96697" lon="0.67558">
        <ele>68.5</ele>
        <time>2020-07-03T14:49:18Z</time>
      </trkpt>
      <trkpt lat="46.96693" lon="0.67557">
        <ele>68.7</ele>
        <time>2020-07-03T14:49:19Z</time>
      </trkpt>
      <trkpt lat="46.9669" lon="0.67555">
        <ele>68.9</ele>
        <time>2020-07-03T14:49:20Z</time>
      </trkpt>
      <trkpt lat="46.96687" lon="0.67552">
        <ele>69.1</ele>
        <time>2020-07-03T14:49:21Z</time>
      </trkpt>
      <trkpt lat="46.96683" lon="0.6755">
        <ele>69.3</ele>
        <time>2020-07-03T14:49:22Z</time>
      </trkpt>
      <trkpt lat="46.9668" lon="0.67548">
        <ele>69.5</ele>
        <time>2020-07-03T14:49:23Z</time>
      </trkpt>
      <trkpt lat="46.96676" lon="0.67545">
        <ele>69.7</ele>
        <time>2020-07-03T14:49:24Z</time>
      </trkpt>
      <trkpt lat="46.96673" lon="0.67542">
        <ele>69.8</ele>
        <time>2020-07-03T14:49:25Z</time>
      </trkpt>
      <trkpt lat="46.9667" lon="0.6754">
        <ele>70</ele>
        <time>2020-07-03T14:49:26Z</time>
      </trkpt>
      <trkpt lat="46.96667" lon="0.67536">
        <ele>70.2</ele>
        <time>2020-07-03T14:49:27Z</time>
      </trkpt>
      <trkpt lat="46.96665" lon="0.67533">
        <ele>70.4</ele>
        <time>2020-07-03T14:49:28Z</time>
      </trkpt>
      <trkpt lat="46.96662" lon="0.6753">
        <ele>70.5</ele>
        <time>2020-07-03T14:49:29Z</time>
      </trkpt>
      <trkpt lat="46.9666" lon="0.67527">
        <ele>70.7</ele>
        <time>2020-07-03T14:49:30Z</time>
      </trkpt>
      <trkpt lat="46.96657" lon="0.67524">
        <ele>70.8</ele>
        <time>2020-07-03T14:49:31Z</time>
      </trkpt>
      <trkpt lat="46.96654" lon="0.67523">
        <ele>71</ele>
        <time>2020-07-03T14:49:32Z</time>
      </trkpt>
      <trkpt lat="46.96652" lon="0.6752">
        <ele>71.2</ele>
        <time>2020-07-03T14:49:33Z</time>
      </trkpt>
      <trkpt lat="46.9665" lon="0.67518">
        <ele>71.3</ele>
        <time>2020-07-03T14:49:34Z</time>
      </trkpt>
      <trkpt lat="46.96647" lon="0.67514">
        <ele>71.5</ele>
        <time>2020-07-03T14:49:35Z</time>
      </trkpt>
      <trkpt lat="46.96646" lon="0.67513">
        <ele>71.6</ele>
        <time>2020-07-03T14:49:36Z</time>
      </trkpt>
      <trkpt lat="46.96643" lon="0.6751">
        <ele>71.8</ele>
        <time>2020-07-03T14:49:37Z</time>
      </trkpt>
      <trkpt lat="46.96642" lon="0.67509">
        <ele>71.9</ele>
        <time>2020-07-03T14:49:38Z</time>
      </trkpt>
      <trkpt lat="46.96639" lon="0.67505">
        <ele>72.1</ele>
        <time>2020-07-03T14:49:39Z</time>
      </trkpt>
      <trkpt lat="46.96638" lon="0.67504">
        <ele>72.2</ele>
        <time>2020-07-03T14:49:40Z</time>
      </trkpt>
      <trkpt lat="46.96635" lon="0.67501">
        <ele>72.4</ele>
        <time>2020-07-03T14:49:41Z</time>
      </trkpt>
      <trkpt lat="46.96634" lon="0.675">
        <ele>72.4</ele>
        <time>2020-07-03T14:49:42Z</time>
      </trkpt>
      <trkpt lat="46.96631" lon="0.67498">
        <ele>72.6</ele>
        <time>2020-07-03T14:49:43Z</time>
      </trkpt>
      <trkpt lat="46.96629" lon="0.67497">
        <ele>72.7</ele>
        <time>2020-07-03T14:49:44Z</time>
      </trkpt>
      <trkpt lat="46.96627" lon="0.67494">
        <ele>72.9</ele>
        <time>2020-07-03T14:49:45Z</time>
      </trkpt>
      <trkpt lat="46.96626" lon="0.67493">
        <ele>73</ele>
        <time>2020-07-03T14:49:46Z</time>
      </trkpt>
      <trkpt lat="46.96624" lon="0.6749">
        <ele>73.1</ele>
        <time>2020-07-03T14:49:47Z</time>
      </trkpt>
      <trkpt lat="46.96621" lon="0.67487">
        <ele>73.3</ele>
        <time>2020-07-03T14:49:48Z</time>
      </trkpt>
      <trkpt lat="46.96621" lon="0.67486">
        <ele>73.3</ele>
        <time>2020-07-03T14:49:49Z</time>
      </trkpt>
      <trkpt lat="46.96618" lon="0.67483">
        <ele>73.5</ele>
        <time>2020-07-03T14:49:50Z</time>
      </trkpt>
      <trkpt lat="46.96616" lon="0.67482">
        <ele>73.5</ele>
        <time>2020-07-03T14:49:51Z</time>
      </trkpt>
      <trkpt lat="46.96613" lon="0.67479">
        <ele>73.7</ele>
        <time>2020-07-03T14:49:52Z</time>
      </trkpt>
      <trkpt lat="46.96609" lon="0.67479">
        <ele>73.9</ele>
        <time>2020-07-03T14:49:53Z</time>
      </trkpt>
      <trkpt lat="46.96607" lon="0.67478">
        <ele>74</ele>
        <time>2020-07-03T14:49:54Z</time>
      </trkpt>
      <trkpt lat="46.96604" lon="0.67477">
        <ele>74.1</ele>
        <time>2020-07-03T14:49:55Z</time>
      </trkpt>
      <trkpt lat="46.966" lon="0.67475">
        <ele>74.3</ele>
        <time>2020-07-03T14:49:56Z</time>
      </trkpt>
      <trkpt lat="46.96597" lon="0.67474">
        <ele>74.5</ele>
        <time>2020-07-03T14:49:57Z</time>
      </trkpt>
      <trkpt lat="46.96596" lon="0.67473">
        <ele>74.6</ele>
        <time>2020-07-03T14:49:58Z</time>
      </trkpt>
      <trkpt lat="46.96593" lon="0.67471">
        <ele>74.7</ele>
        <time>2020-07-03T14:49:59Z</time>
      </trkpt>
      <trkpt lat="46.96592" lon="0.6747">
        <ele>74.8</ele>
        <time>2020-07-03T14:50:00Z</time>
      </trkpt>
      <trkpt lat="46.96589" lon="0.67467">
        <ele>75</ele>
        <time>2020-07-03T14:50:01Z</time>
      </trkpt>
      <trkpt lat="46.96587" lon="0.67467">
        <ele>75.1</ele>
        <time>2020-07-03T14:50:02Z</time>
      </trkpt>
      <trkpt lat="46.96584" lon="0.67466">
        <ele>75.2</ele>
        <time>2020-07-03T14:50:03Z</time>
      </trkpt>
      <trkpt lat="46.9658" lon="0.67465">
        <ele>75.4</ele>
        <time>2020-07-03T14:50:04Z</time>
      </trkpt>
      <trkpt lat="46.96576" lon="0.67463">
        <ele>75.6</ele>
        <time>2020-07-03T14:50:05Z</time>
      </trkpt>
      <trkpt lat="46.96572" lon="0.67462">
        <ele>75.8</ele>
        <time>2020-07-03T14:50:06Z</time>
      </trkpt>
      <trkpt lat="46.9657" lon="0.67462">
        <ele>75.9</ele>
        <time>2020-07-03T14:50:07Z</time>
      </trkpt>
      <trkpt lat="46.96566" lon="0.67461">
        <ele>76</ele>
        <time>2020-07-03T14:50:08Z</time>
      </trkpt>
      <trkpt lat="46.96563" lon="0.67461">
        <ele>76.2</ele>
        <time>2020-07-03T14:50:09Z</time>
      </trkpt>
      <trkpt lat="46.96559" lon="0.6746">
        <ele>76.3</ele>
        <time>2020-07-03T14:50:10Z</time>
      </trkpt>
      <trkpt lat="46.96556" lon="0.67458">
        <ele>76.5</ele>
        <time>2020-07-03T14:50:11Z</time>
      </trkpt>
      <trkpt lat="46.96552" lon="0.67457">
        <ele>76.6</ele>
        <time>2020-07-03T14:50:12Z</time>
      </trkpt>
      <trkpt lat="46.96548" lon="0.67456">
        <ele>76.8</ele>
        <time>2020-07-03T14:50:13Z</time>
      </trkpt>
      <trkpt lat="46.96545" lon="0.67455">
        <ele>76.9</ele>
        <time>2020-07-03T14:50:14Z</time>
      </trkpt>
      <trkpt lat="46.96541" lon="0.67454">
        <ele>77.1</ele>
        <time>2020-07-03T14:50:15Z</time>
      </trkpt>
      <trkpt lat="46.96539" lon="0.67454">
        <ele>77.2</ele>
        <time>2020-07-03T14:50:16Z</time>
      </trkpt>
      <trkpt lat="46.96537" lon="0.67452">
        <ele>77.3</ele>
        <time>2020-07-03T14:50:17Z</time>
      </trkpt>
      <trkpt lat="46.96534" lon="0.6745">
        <ele>77.5</ele>
        <time>2020-07-03T14:50:18Z</time>
      </trkpt>
      <trkpt lat="46.96531" lon="0.67446">
        <ele>77.7</ele>
        <time>2020-07-03T14:50:19Z</time>
      </trkpt>
      <trkpt lat="46.96527" lon="0.67443">
        <ele>77.9</ele>
        <time>2020-07-03T14:50:20Z</time>
      </trkpt>
      <trkpt lat="46.96524" lon="0.67437">
        <ele>78.1</ele>
        <time>2020-07-03T14:50:21Z</time>
      </trkpt>
      <trkpt lat="46.96521" lon="0.67434">
        <ele>78.3</ele>
        <time>2020-07-03T14:50:22Z</time>
      </trkpt>
      <trkpt lat="46.96519" lon="0.67432">
        <ele>78.4</ele>
        <time>2020-07-03T14:50:23Z</time>
      </trkpt>
      <trkpt lat="46.96516" lon="0.67431">
        <ele>78.6</ele>
        <time>2020-07-03T14:50:24Z</time>
      </trkpt>
      <trkpt lat="46.96512" lon="0.67428">
        <ele>78.8</ele>
        <time>2020-07-03T14:50:25Z</time>
      </trkpt>
      <trkpt lat="46.96511" lon="0.67427">
        <ele>78.8</ele>
        <time>2020-07-03T14:50:26Z</time>
      </trkpt>
      <trkpt lat="46.96509" lon="0.67424">
        <ele>79</ele>
        <time>2020-07-03T14:50:27Z</time>
      </trkpt>
      <trkpt lat="46.96506" lon="0.6742">
        <ele>79.1</ele>
        <time>2020-07-03T14:50:28Z</time>
      </trkpt>
      <trkpt lat="46.96504" lon="0.67416">
        <ele>79.3</ele>
        <time>2020-07-03T14:50:29Z</time>
      </trkpt>
      <trkpt lat="46.96501" lon="0.67412">
        <ele>79.5</ele>
        <time>2020-07-03T14:50:30Z</time>
      </trkpt>
      <trkpt lat="46.96498" lon="0.67409">
        <ele>79.6</ele>
        <time>2020-07-03T14:50:31Z</time>
      </trkpt>
      <trkpt lat="46.96495" lon="0.67405">
        <ele>79.8</ele>
        <time>2020-07-03T14:50:32Z</time>
      </trkpt>
      <trkpt lat="46.96492" lon="0.67402">
        <ele>80</ele>
        <time>2020-07-03T14:50:33Z</time>
      </trkpt>
      <trkpt lat="46.96491" lon="0.674">
        <ele>80</ele>
        <time>2020-07-03T14:50:34Z</time>
      </trkpt>
      <trkpt lat="46.96488" lon="0.67398">
        <ele>80.2</ele>
        <time>2020-07-03T14:50:35Z</time>
      </trkpt>
      <trkpt lat="46.96486" lon="0.67394">
        <ele>80.3</ele>
        <time>2020-07-03T14:50:36Z</time>
      </trkpt>
      <trkpt lat="46.96484" lon="0.6739">
        <ele>80.5</ele>
        <time>2020-07-03T14:50:37Z</time>
      </trkpt>
      <trkpt lat="46.96482" lon="0.67386">
        <ele>80.7</ele>
        <time>2020-07-03T14:50:38Z</time>
      </trkpt>
      <trkpt lat="46.96481" lon="0.67384">
        <ele>80.7</ele>
        <time>2020-07-03T14:50:39Z</time>
      </trkpt>
      <trkpt lat="46.96479" lon="0.67381">
        <ele>80.9</ele>
        <time>2020-07-03T14:50:40Z</time>
      </trkpt>
      <trkpt lat="46.96477" lon="0.67377">
        <ele>81</ele>
        <time>2020-07-03T14:50:41Z</time>
      </trkpt>
      <trkpt lat="46.96475" lon="0.67374">
        <ele>81.2</ele>
        <time>2020-07-03T14:50:42Z</time>
      </trkpt>
      <trkpt lat="46.96473" lon="0.67369">
        <ele>81.4</ele>
        <time>2020-07-03T14:50:43Z</time>
      </trkpt>
      <trkpt lat="46.96471" lon="0.67364">
        <ele>81.6</ele>
        <time>2020-07-03T14:50:44Z</time>
      </trkpt>
      <trkpt lat="46.96468" lon="0.67359">
        <ele>81.8</ele>
        <time>2020-07-03T14:50:45Z</time>
      </trkpt>
      <trkpt lat="46.96465" lon="0.67353">
        <ele>82</ele>
        <time>2020-07-03T14:50:46Z</time>
      </trkpt>
      <trkpt lat="46.96463" lon="0.67348">
        <ele>82.2</ele>
        <time>2020-07-03T14:50:47Z</time>
      </trkpt>
      <trkpt lat="46.9646" lon="0.67344">
        <ele>82.4</ele>
        <time>2020-07-03T14:50:48Z</time>
      </trkpt>
      <trkpt lat="46.96456" lon="0.67339">
        <ele>82.7</ele>
        <time>2020-07-03T14:50:49Z</time>
      </trkpt>
      <trkpt lat="46.96453" lon="0.67333">
        <ele>82.9</ele>
        <time>2020-07-03T14:50:50Z</time>
      </trkpt>
      <trkpt lat="46.9645" lon="0.6733">
        <ele>83.1</ele>
        <time>2020-07-03T14:50:51Z</time>
      </trkpt>
      <trkpt lat="46.96447" lon="0.67325">
        <ele>83.3</ele>
        <time>2020-07-03T14:50:52Z</time>
      </trkpt>
      <trkpt lat="46.96445" lon="0.67322">
        <ele>83.5</ele>
        <time>2020-07-03T14:50:53Z</time>
      </trkpt>
      <trkpt lat="46.96442" lon="0.6732">
        <ele>83.7</ele>
        <time>2020-07-03T14:50:54Z</time>
      </trkpt>
      <trkpt lat="46.96438" lon="0.67319">
        <ele>83.9</ele>
        <time>2020-07-03T14:50:55Z</time>
      </trkpt>
      <trkpt lat="46.96436" lon="0.67319">
        <ele>83.9</ele>
        <time>2020-07-03T14:50:56Z</time>
      </trkpt>
      <trkpt lat="46.96432" lon="0.67318">
        <ele>84.3</ele>
        <time>2020-07-03T14:50:57Z</time>
      </trkpt>
      <trkpt lat="46.96429" lon="0.67314">
        <ele>84.7</ele>
        <time>2020-07-03T14:50:58Z</time>
      </trkpt>
      <trkpt lat="46.96426" lon="0.67311">
        <ele>84.9</ele>
        <time>2020-07-03T14:50:59Z</time>
      </trkpt>
      <trkpt lat="46.96424" lon="0.67308">
        <ele>85.1</ele>
        <time>2020-07-03T14:51:00Z</time>
      </trkpt>
      <trkpt lat="46.96421" lon="0.67306">
        <ele>85.2</ele>
        <time>2020-07-03T14:51:01Z</time>
      </trkpt>
      <trkpt lat="46.96418" lon="0.67304">
        <ele>85.4</ele>
        <time>2020-07-03T14:51:02Z</time>
      </trkpt>
      <trkpt lat="46.96417" lon="0.67303">
        <ele>85.5</ele>
        <time>2020-07-03T14:51:03Z</time>
      </trkpt>
      <trkpt lat="46.96414" lon="0.67301">
        <ele>85.7</ele>
        <time>2020-07-03T14:51:04Z</time>
      </trkpt>
      <trkpt lat="46.96411" lon="0.67298">
        <ele>85.9</ele>
        <time>2020-07-03T14:51:05Z</time>
      </trkpt>
      <trkpt lat="46.96408" lon="0.67296">
        <ele>86</ele>
        <time>2020-07-03T14:51:06Z</time>
      </trkpt>
      <trkpt lat="46.96405" lon="0.67294">
        <ele>86.2</ele>
        <time>2020-07-03T14:51:07Z</time>
      </trkpt>
      <trkpt lat="46.96402" lon="0.67292">
        <ele>86.3</ele>
        <time>2020-07-03T14:51:08Z</time>
      </trkpt>
      <trkpt lat="46.96398" lon="0.6729">
        <ele>86.5</ele>
        <time>2020-07-03T14:51:09Z</time>
      </trkpt>
      <trkpt lat="46.96397" lon="0.67289">
        <ele>86.6</ele>
        <time>2020-07-03T14:51:10Z</time>
      </trkpt>
      <trkpt lat="46.96394" lon="0.67287">
        <ele>86.7</ele>
        <time>2020-07-03T14:51:11Z</time>
      </trkpt>
      <trkpt lat="46.96391" lon="0.67284">
        <ele>86.8</ele>
        <time>2020-07-03T14:51:12Z</time>
      </trkpt>
      <trkpt lat="46.96389" lon="0.67282">
        <ele>87</ele>
        <time>2020-07-03T14:51:13Z</time>
      </trkpt>
      <trkpt lat="46.96386" lon="0.67279">
        <ele>87.1</ele>
        <time>2020-07-03T14:51:14Z</time>
      </trkpt>
      <trkpt lat="46.96382" lon="0.67276">
        <ele>87.3</ele>
        <time>2020-07-03T14:51:15Z</time>
      </trkpt>
      <trkpt lat="46.9638" lon="0.67273">
        <ele>87.4</ele>
        <time>2020-07-03T14:51:16Z</time>
      </trkpt>
      <trkpt lat="46.96378" lon="0.67271">
        <ele>87.6</ele>
        <time>2020-07-03T14:51:17Z</time>
      </trkpt>
      <trkpt lat="46.96375" lon="0.67268">
        <ele>87.7</ele>
        <time>2020-07-03T14:51:18Z</time>
      </trkpt>
      <trkpt lat="46.96371" lon="0.67265">
        <ele>87.9</ele>
        <time>2020-07-03T14:51:19Z</time>
      </trkpt>
      <trkpt lat="46.9637" lon="0.67263">
        <ele>88</ele>
        <time>2020-07-03T14:51:20Z</time>
      </trkpt>
      <trkpt lat="46.96367" lon="0.67259">
        <ele>88.2</ele>
        <time>2020-07-03T14:51:21Z</time>
      </trkpt>
      <trkpt lat="46.96366" lon="0.67257">
        <ele>88.3</ele>
        <time>2020-07-03T14:51:22Z</time>
      </trkpt>
      <trkpt lat="46.96363" lon="0.67253">
        <ele>88.5</ele>
        <time>2020-07-03T14:51:23Z</time>
      </trkpt>
      <trkpt lat="46.96361" lon="0.67251">
        <ele>88.5</ele>
        <time>2020-07-03T14:51:24Z</time>
      </trkpt>
      <trkpt lat="46.96359" lon="0.67247">
        <ele>88.7</ele>
        <time>2020-07-03T14:51:25Z</time>
      </trkpt>
      <trkpt lat="46.96356" lon="0.67244">
        <ele>88.8</ele>
        <time>2020-07-03T14:51:26Z</time>
      </trkpt>
      <trkpt lat="46.96354" lon="0.67243">
        <ele>88.9</ele>
        <time>2020-07-03T14:51:27Z</time>
      </trkpt>
      <trkpt lat="46.96351" lon="0.6724">
        <ele>89</ele>
        <time>2020-07-03T14:51:28Z</time>
      </trkpt>
      <trkpt lat="46.9635" lon="0.67239">
        <ele>89.1</ele>
        <time>2020-07-03T14:51:29Z</time>
      </trkpt>
      <trkpt lat="46.96348" lon="0.67236">
        <ele>89.2</ele>
        <time>2020-07-03T14:51:30Z</time>
      </trkpt>
      <trkpt lat="46.96345" lon="0.67233">
        <ele>89.4</ele>
        <time>2020-07-03T14:51:31Z</time>
      </trkpt>
      <trkpt lat="46.96343" lon="0.67229">
        <ele>89.6</ele>
        <time>2020-07-03T14:51:32Z</time>
      </trkpt>
      <trkpt lat="46.96341" lon="0.67226">
        <ele>89.7</ele>
        <time>2020-07-03T14:51:33Z</time>
      </trkpt>
      <trkpt lat="46.96338" lon="0.67222">
        <ele>89.9</ele>
        <time>2020-07-03T14:51:34Z</time>
      </trkpt>
      <trkpt lat="46.96337" lon="0.67222">
        <ele>90</ele>
        <time>2020-07-03T14:51:35Z</time>
      </trkpt>
      <trkpt lat="46.96335" lon="0.67218">
        <ele>90.1</ele>
        <time>2020-07-03T14:51:36Z</time>
      </trkpt>
      <trkpt lat="46.96333" lon="0.67215">
        <ele>90.3</ele>
        <time>2020-07-03T14:51:37Z</time>
      </trkpt>
      <trkpt lat="46.96331" lon="0.67212">
        <ele>90.4</ele>
        <time>2020-07-03T14:51:38Z</time>
      </trkpt>
      <trkpt lat="46.96329" lon="0.67209">
        <ele>90.5</ele>
        <time>2020-07-03T14:51:39Z</time>
      </trkpt>
      <trkpt lat="46.96327" lon="0.67205">
        <ele>90.7</ele>
        <time>2020-07-03T14:51:40Z</time>
      </trkpt>
      <trkpt lat="46.96324" lon="0.67199">
        <ele>90.8</ele>
        <time>2020-07-03T14:51:41Z</time>
      </trkpt>
      <trkpt lat="46.96323" lon="0.67197">
        <ele>90.9</ele>
        <time>2020-07-03T14:51:42Z</time>
      </trkpt>
      <trkpt lat="46.96322" lon="0.67194">
        <ele>91</ele>
        <time>2020-07-03T14:51:43Z</time>
      </trkpt>
      <trkpt lat="46.9632" lon="0.6719">
        <ele>91.1</ele>
        <time>2020-07-03T14:51:44Z</time>
      </trkpt>
      <trkpt lat="46.96318" lon="0.67186">
        <ele>91.3</ele>
        <time>2020-07-03T14:51:45Z</time>
      </trkpt>
      <trkpt lat="46.96316" lon="0.67182">
        <ele>91.5</ele>
        <time>2020-07-03T14:51:46Z</time>
      </trkpt>
      <trkpt lat="46.96313" lon="0.67178">
        <ele>91.7</ele>
        <time>2020-07-03T14:51:47Z</time>
      </trkpt>
      <trkpt lat="46.96312" lon="0.67174">
        <ele>91.9</ele>
        <time>2020-07-03T14:51:48Z</time>
      </trkpt>
      <trkpt lat="46.9631" lon="0.67169">
        <ele>92.1</ele>
        <time>2020-07-03T14:51:49Z</time>
      </trkpt>
      <trkpt lat="46.96309" lon="0.67166">
        <ele>92.3</ele>
        <time>2020-07-03T14:51:50Z</time>
      </trkpt>
      <trkpt lat="46.96307" lon="0.67162">
        <ele>92.4</ele>
        <time>2020-07-03T14:51:51Z</time>
      </trkpt>
      <trkpt lat="46.96305" lon="0.67158">
        <ele>92.5</ele>
        <time>2020-07-03T14:51:52Z</time>
      </trkpt>
      <trkpt lat="46.96303" lon="0.67154">
        <ele>92.7</ele>
        <time>2020-07-03T14:51:53Z</time>
      </trkpt>
      <trkpt lat="46.96302" lon="0.67151">
        <ele>92.8</ele>
        <time>2020-07-03T14:51:54Z</time>
      </trkpt>
      <trkpt lat="46.963" lon="0.67147">
        <ele>92.9</ele>
        <time>2020-07-03T14:51:55Z</time>
      </trkpt>
      <trkpt lat="46.96298" lon="0.67142">
        <ele>93.1</ele>
        <time>2020-07-03T14:51:56Z</time>
      </trkpt>
      <trkpt lat="46.96297" lon="0.67138">
        <ele>93.2</ele>
        <time>2020-07-03T14:51:57Z</time>
      </trkpt>
      <trkpt lat="46.96295" lon="0.67133">
        <ele>93.4</ele>
        <time>2020-07-03T14:51:58Z</time>
      </trkpt>
      <trkpt lat="46.96295" lon="0.67132">
        <ele>93.5</ele>
        <time>2020-07-03T14:51:59Z</time>
      </trkpt>
      <trkpt lat="46.96294" lon="0.67127">
        <ele>93.7</ele>
        <time>2020-07-03T14:52:00Z</time>
      </trkpt>
      <trkpt lat="46.96293" lon="0.67125">
        <ele>93.7</ele>
        <time>2020-07-03T14:52:01Z</time>
      </trkpt>
      <trkpt lat="46.96292" lon="0.67121">
        <ele>93.9</ele>
        <time>2020-07-03T14:52:02Z</time>
      </trkpt>
      <trkpt lat="46.9629" lon="0.67117">
        <ele>94</ele>
        <time>2020-07-03T14:52:03Z</time>
      </trkpt>
      <trkpt lat="46.96289" lon="0.67113">
        <ele>94.2</ele>
        <time>2020-07-03T14:52:04Z</time>
      </trkpt>
      <trkpt lat="46.96288" lon="0.67108">
        <ele>94.4</ele>
        <time>2020-07-03T14:52:05Z</time>
      </trkpt>
      <trkpt lat="46.96286" lon="0.67104">
        <ele>94.6</ele>
        <time>2020-07-03T14:52:06Z</time>
      </trkpt>
      <trkpt lat="46.96285" lon="0.67102">
        <ele>94.6</ele>
        <time>2020-07-03T14:52:07Z</time>
      </trkpt>
      <trkpt lat="46.96284" lon="0.67097">
        <ele>94.9</ele>
        <time>2020-07-03T14:52:08Z</time>
      </trkpt>
      <trkpt lat="46.96283" lon="0.67096">
        <ele>94.9</ele>
        <time>2020-07-03T14:52:09Z</time>
      </trkpt>
      <trkpt lat="46.96282" lon="0.67092">
        <ele>95.1</ele>
        <time>2020-07-03T14:52:10Z</time>
      </trkpt>
      <trkpt lat="46.96281" lon="0.67088">
        <ele>95.3</ele>
        <time>2020-07-03T14:52:11Z</time>
      </trkpt>
      <trkpt lat="46.9628" lon="0.67084">
        <ele>95.4</ele>
        <time>2020-07-03T14:52:12Z</time>
      </trkpt>
      <trkpt lat="46.96279" lon="0.67082">
        <ele>95.5</ele>
        <time>2020-07-03T14:52:13Z</time>
      </trkpt>
      <trkpt lat="46.96278" lon="0.67078">
        <ele>95.7</ele>
        <time>2020-07-03T14:52:14Z</time>
      </trkpt>
      <trkpt lat="46.96276" lon="0.67074">
        <ele>95.8</ele>
        <time>2020-07-03T14:52:15Z</time>
      </trkpt>
      <trkpt lat="46.96275" lon="0.6707">
        <ele>96</ele>
        <time>2020-07-03T14:52:16Z</time>
      </trkpt>
      <trkpt lat="46.96273" lon="0.67066">
        <ele>96.1</ele>
        <time>2020-07-03T14:52:17Z</time>
      </trkpt>
      <trkpt lat="46.9627" lon="0.67061">
        <ele>96.3</ele>
        <time>2020-07-03T14:52:18Z</time>
      </trkpt>
      <trkpt lat="46.96269" lon="0.67059">
        <ele>96.4</ele>
        <time>2020-07-03T14:52:19Z</time>
      </trkpt>
      <trkpt lat="46.96267" lon="0.67053">
        <ele>96.7</ele>
        <time>2020-07-03T14:52:20Z</time>
      </trkpt>
      <trkpt lat="46.96266" lon="0.67051">
        <ele>96.8</ele>
        <time>2020-07-03T14:52:21Z</time>
      </trkpt>
      <trkpt lat="46.96265" lon="0.67046">
        <ele>97</ele>
        <time>2020-07-03T14:52:22Z</time>
      </trkpt>
      <trkpt lat="46.96264" lon="0.67042">
        <ele>97.2</ele>
        <time>2020-07-03T14:52:23Z</time>
      </trkpt>
      <trkpt lat="46.96261" lon="0.67037">
        <ele>97.4</ele>
        <time>2020-07-03T14:52:24Z</time>
      </trkpt>
      <trkpt lat="46.96258" lon="0.67032">
        <ele>97.6</ele>
        <time>2020-07-03T14:52:25Z</time>
      </trkpt>
      <trkpt lat="46.96256" lon="0.67027">
        <ele>97.8</ele>
        <time>2020-07-03T14:52:26Z</time>
      </trkpt>
      <trkpt lat="46.96254" lon="0.67022">
        <ele>98</ele>
        <time>2020-07-03T14:52:27Z</time>
      </trkpt>
      <trkpt lat="46.96252" lon="0.67017">
        <ele>98.3</ele>
        <time>2020-07-03T14:52:28Z</time>
      </trkpt>
      <trkpt lat="46.96249" lon="0.67012">
        <ele>98.5</ele>
        <time>2020-07-03T14:52:29Z</time>
      </trkpt>
      <trkpt lat="46.96248" lon="0.67007">
        <ele>98.7</ele>
        <time>2020-07-03T14:52:30Z</time>
      </trkpt>
      <trkpt lat="46.96246" lon="0.67002">
        <ele>98.8</ele>
        <time>2020-07-03T14:52:31Z</time>
      </trkpt>
      <trkpt lat="46.96244" lon="0.66996">
        <ele>99</ele>
        <time>2020-07-03T14:52:32Z</time>
      </trkpt>
      <trkpt lat="46.96242" lon="0.66992">
        <ele>99.1</ele>
        <time>2020-07-03T14:52:33Z</time>
      </trkpt>
      <trkpt lat="46.96241" lon="0.66987">
        <ele>99.3</ele>
        <time>2020-07-03T14:52:34Z</time>
      </trkpt>
      <trkpt lat="46.96239" lon="0.66982">
        <ele>99.5</ele>
        <time>2020-07-03T14:52:35Z</time>
      </trkpt>
      <trkpt lat="46.96237" lon="0.66978">
        <ele>99.6</ele>
        <time>2020-07-03T14:52:36Z</time>
      </trkpt>
      <trkpt lat="46.96236" lon="0.66974">
        <ele>99.8</ele>
        <time>2020-07-03T14:52:37Z</time>
      </trkpt>
      <trkpt lat="46.96236" lon="0.66969">
        <ele>99.9</ele>
        <time>2020-07-03T14:52:38Z</time>
      </trkpt>
      <trkpt lat="46.96234" lon="0.66965">
        <ele>100.1</ele>
        <time>2020-07-03T14:52:39Z</time>
      </trkpt>
      <trkpt lat="46.96233" lon="0.66961">
        <ele>100.2</ele>
        <time>2020-07-03T14:52:40Z</time>
      </trkpt>
      <trkpt lat="46.96232" lon="0.66956">
        <ele>100.4</ele>
        <time>2020-07-03T14:52:41Z</time>
      </trkpt>
      <trkpt lat="46.96231" lon="0.66953">
        <ele>100.5</ele>
        <time>2020-07-03T14:52:42Z</time>
      </trkpt>
      <trkpt lat="46.96229" lon="0.66948">
        <ele>100.6</ele>
        <time>2020-07-03T14:52:43Z</time>
      </trkpt>
      <trkpt lat="46.96228" lon="0.66946">
        <ele>100.7</ele>
        <time>2020-07-03T14:52:44Z</time>
      </trkpt>
      <trkpt lat="46.96227" lon="0.66942">
        <ele>100.8</ele>
        <time>2020-07-03T14:52:45Z</time>
      </trkpt>
      <trkpt lat="46.96226" lon="0.66938">
        <ele>101</ele>
        <time>2020-07-03T14:52:46Z</time>
      </trkpt>
      <trkpt lat="46.96225" lon="0.66933">
        <ele>101.1</ele>
        <time>2020-07-03T14:52:47Z</time>
      </trkpt>
      <trkpt lat="46.96223" lon="0.66929">
        <ele>101.2</ele>
        <time>2020-07-03T14:52:48Z</time>
      </trkpt>
      <trkpt lat="46.96222" lon="0.66923">
        <ele>101.4</ele>
        <time>2020-07-03T14:52:49Z</time>
      </trkpt>
      <trkpt lat="46.9622" lon="0.66918">
        <ele>101.5</ele>
        <time>2020-07-03T14:52:50Z</time>
      </trkpt>
      <trkpt lat="46.96219" lon="0.66915">
        <ele>101.6</ele>
        <time>2020-07-03T14:52:51Z</time>
      </trkpt>
      <trkpt lat="46.96216" lon="0.66911">
        <ele>101.7</ele>
        <time>2020-07-03T14:52:52Z</time>
      </trkpt>
      <trkpt lat="46.96214" lon="0.66906">
        <ele>101.8</ele>
        <time>2020-07-03T14:52:53Z</time>
      </trkpt>
      <trkpt lat="46.96212" lon="0.669">
        <ele>101.9</ele>
        <time>2020-07-03T14:52:54Z</time>
      </trkpt>
      <trkpt lat="46.96211" lon="0.66896">
        <ele>102</ele>
        <time>2020-07-03T14:52:55Z</time>
      </trkpt>
      <trkpt lat="46.96209" lon="0.66892">
        <ele>102</ele>
        <time>2020-07-03T14:52:56Z</time>
      </trkpt>
      <trkpt lat="46.96207" lon="0.66888">
        <ele>102.1</ele>
        <time>2020-07-03T14:52:57Z</time>
      </trkpt>
      <trkpt lat="46.96206" lon="0.66883">
        <ele>102.2</ele>
        <time>2020-07-03T14:52:58Z</time>
      </trkpt>
      <trkpt lat="46.96204" lon="0.66878">
        <ele>102.3</ele>
        <time>2020-07-03T14:52:59Z</time>
      </trkpt>
      <trkpt lat="46.96202" lon="0.66874">
        <ele>102.4</ele>
        <time>2020-07-03T14:53:00Z</time>
      </trkpt>
      <trkpt lat="46.96201" lon="0.66869">
        <ele>102.5</ele>
        <time>2020-07-03T14:53:01Z</time>
      </trkpt>
      <trkpt lat="46.96199" lon="0.66865">
        <ele>102.5</ele>
        <time>2020-07-03T14:53:02Z</time>
      </trkpt>
      <trkpt lat="46.96197" lon="0.6686">
        <ele>102.6</ele>
        <time>2020-07-03T14:53:03Z</time>
      </trkpt>
      <trkpt lat="46.96195" lon="0.66854">
        <ele>102.6</ele>
        <time>2020-07-03T14:53:04Z</time>
      </trkpt>
      <trkpt lat="46.96194" lon="0.66848">
        <ele>102.7</ele>
        <time>2020-07-03T14:53:05Z</time>
      </trkpt>
      <trkpt lat="46.96193" lon="0.66842">
        <ele>102.7</ele>
        <time>2020-07-03T14:53:06Z</time>
      </trkpt>
      <trkpt lat="46.96192" lon="0.66835">
        <ele>102.8</ele>
        <time>2020-07-03T14:53:07Z</time>
      </trkpt>
      <trkpt lat="46.9619" lon="0.6683">
        <ele>102.8</ele>
        <time>2020-07-03T14:53:08Z</time>
      </trkpt>
      <trkpt lat="46.96188" lon="0.66824">
        <ele>102.8</ele>
        <time>2020-07-03T14:53:09Z</time>
      </trkpt>
      <trkpt lat="46.96185" lon="0.66817">
        <ele>102.9</ele>
        <time>2020-07-03T14:53:10Z</time>
      </trkpt>
      <trkpt lat="46.96185" lon="0.66812">
        <ele>102.9</ele>
        <time>2020-07-03T14:53:11Z</time>
      </trkpt>
      <trkpt lat="46.96184" lon="0.66807">
        <ele>102.9</ele>
        <time>2020-07-03T14:53:12Z</time>
      </trkpt>
      <trkpt lat="46.96182" lon="0.66802">
        <ele>102.9</ele>
        <time>2020-07-03T14:53:13Z</time>
      </trkpt>
      <trkpt lat="46.96181" lon="0.66797">
        <ele>102.9</ele>
        <time>2020-07-03T14:53:14Z</time>
      </trkpt>
      <trkpt lat="46.96182" lon="0.66792">
        <ele>103</ele>
        <time>2020-07-03T14:53:15Z</time>
      </trkpt>
      <trkpt lat="46.96182" lon="0.66785">
        <ele>103</ele>
        <time>2020-07-03T14:53:16Z</time>
      </trkpt>
      <trkpt lat="46.96182" lon="0.66778">
        <ele>103</ele>
        <time>2020-07-03T14:53:17Z</time>
      </trkpt>
      <trkpt lat="46.96181" lon="0.6677">
        <ele>103</ele>
        <time>2020-07-03T14:53:18Z</time>
      </trkpt>
      <trkpt lat="46.96181" lon="0.66763">
        <ele>103.1</ele>
        <time>2020-07-03T14:53:19Z</time>
      </trkpt>
      <trkpt lat="46.96181" lon="0.66757">
        <ele>103.1</ele>
        <time>2020-07-03T14:53:20Z</time>
      </trkpt>
      <trkpt lat="46.96182" lon="0.6675">
        <ele>103.1</ele>
        <time>2020-07-03T14:53:21Z</time>
      </trkpt>
      <trkpt lat="46.96181" lon="0.66744">
        <ele>103.1</ele>
        <time>2020-07-03T14:53:22Z</time>
      </trkpt>
      <trkpt lat="46.96181" lon="0.66738">
        <ele>103.1</ele>
        <time>2020-07-03T14:53:23Z</time>
      </trkpt>
      <trkpt lat="46.9618" lon="0.66732">
        <ele>103.1</ele>
        <time>2020-07-03T14:53:24Z</time>
      </trkpt>
      <trkpt lat="46.9618" lon="0.66726">
        <ele>103.1</ele>
        <time>2020-07-03T14:53:25Z</time>
      </trkpt>
      <trkpt lat="46.96179" lon="0.66719">
        <ele>103</ele>
        <time>2020-07-03T14:53:26Z</time>
      </trkpt>
      <trkpt lat="46.96178" lon="0.66712">
        <ele>103</ele>
        <time>2020-07-03T14:53:27Z</time>
      </trkpt>
      <trkpt lat="46.96178" lon="0.66705">
        <ele>103</ele>
        <time>2020-07-03T14:53:28Z</time>
      </trkpt>
      <trkpt lat="46.96177" lon="0.66698">
        <ele>103</ele>
        <time>2020-07-03T14:53:29Z</time>
      </trkpt>
      <trkpt lat="46.96177" lon="0.66692">
        <ele>103</ele>
        <time>2020-07-03T14:53:30Z</time>
      </trkpt>
      <trkpt lat="46.96177" lon="0.66685">
        <ele>103</ele>
        <time>2020-07-03T14:53:31Z</time>
      </trkpt>
      <trkpt lat="46.96177" lon="0.66678">
        <ele>102.9</ele>
        <time>2020-07-03T14:53:32Z</time>
      </trkpt>
      <trkpt lat="46.96176" lon="0.66673">
        <ele>102.9</ele>
        <time>2020-07-03T14:53:33Z</time>
      </trkpt>
      <trkpt lat="46.96177" lon="0.66666">
        <ele>102.9</ele>
        <time>2020-07-03T14:53:34Z</time>
      </trkpt>
      <trkpt lat="46.96177" lon="0.66659">
        <ele>102.9</ele>
        <time>2020-07-03T14:53:35Z</time>
      </trkpt>
      <trkpt lat="46.96177" lon="0.66652">
        <ele>102.9</ele>
        <time>2020-07-03T14:53:36Z</time>
      </trkpt>
      <trkpt lat="46.96176" lon="0.66644">
        <ele>102.9</ele>
        <time>2020-07-03T14:53:37Z</time>
      </trkpt>
      <trkpt lat="46.96175" lon="0.66637">
        <ele>102.8</ele>
        <time>2020-07-03T14:53:38Z</time>
      </trkpt>
      <trkpt lat="46.96174" lon="0.6663">
        <ele>102.8</ele>
        <time>2020-07-03T14:53:39Z</time>
      </trkpt>
      <trkpt lat="46.96174" lon="0.66624">
        <ele>102.8</ele>
        <time>2020-07-03T14:53:40Z</time>
      </trkpt>
      <trkpt lat="46.96173" lon="0.66617">
        <ele>102.7</ele>
        <time>2020-07-03T14:53:41Z</time>
      </trkpt>
      <trkpt lat="46.96174" lon="0.6661">
        <ele>102.7</ele>
        <time>2020-07-03T14:53:42Z</time>
      </trkpt>
      <trkpt lat="46.96174" lon="0.66602">
        <ele>102.7</ele>
        <time>2020-07-03T14:53:43Z</time>
      </trkpt>
      <trkpt lat="46.96174" lon="0.66594">
        <ele>102.7</ele>
        <time>2020-07-03T14:53:44Z</time>
      </trkpt>
      <trkpt lat="46.96175" lon="0.66587">
        <ele>102.7</ele>
        <time>2020-07-03T14:53:45Z</time>
      </trkpt>
      <trkpt lat="46.96175" lon="0.6658">
        <ele>102.8</ele>
        <time>2020-07-03T14:53:46Z</time>
      </trkpt>
      <trkpt lat="46.96175" lon="0.66572">
        <ele>102.8</ele>
        <time>2020-07-03T14:53:47Z</time>
      </trkpt>
      <trkpt lat="46.96176" lon="0.66564">
        <ele>102.8</ele>
        <time>2020-07-03T14:53:48Z</time>
      </trkpt>
      <trkpt lat="46.96176" lon="0.66556">
        <ele>102.9</ele>
        <time>2020-07-03T14:53:49Z</time>
      </trkpt>
      <trkpt lat="46.96176" lon="0.66549">
        <ele>102.9</ele>
        <time>2020-07-03T14:53:50Z</time>
      </trkpt>
      <trkpt lat="46.96176" lon="0.66542">
        <ele>103</ele>
        <time>2020-07-03T14:53:51Z</time>
      </trkpt>
      <trkpt lat="46.96177" lon="0.66536">
        <ele>103</ele>
        <time>2020-07-03T14:53:52Z</time>
      </trkpt>
      <trkpt lat="46.96177" lon="0.66529">
        <ele>103.1</ele>
        <time>2020-07-03T14:53:53Z</time>
      </trkpt>
      <trkpt lat="46.96177" lon="0.66521">
        <ele>103.1</ele>
        <time>2020-07-03T14:53:54Z</time>
      </trkpt>
      <trkpt lat="46.96176" lon="0.66514">
        <ele>103.2</ele>
        <time>2020-07-03T14:53:55Z</time>
      </trkpt>
      <trkpt lat="46.96177" lon="0.66506">
        <ele>103.2</ele>
        <time>2020-07-03T14:53:56Z</time>
      </trkpt>
      <trkpt lat="46.96177" lon="0.665">
        <ele>103.3</ele>
        <time>2020-07-03T14:53:57Z</time>
      </trkpt>
      <trkpt lat="46.96176" lon="0.66492">
        <ele>103.4</ele>
        <time>2020-07-03T14:53:58Z</time>
      </trkpt>
      <trkpt lat="46.96176" lon="0.66485">
        <ele>103.5</ele>
        <time>2020-07-03T14:53:59Z</time>
      </trkpt>
      <trkpt lat="46.96176" lon="0.66479">
        <ele>103.6</ele>
        <time>2020-07-03T14:54:00Z</time>
      </trkpt>
      <trkpt lat="46.96176" lon="0.66472">
        <ele>103.8</ele>
        <time>2020-07-03T14:54:01Z</time>
      </trkpt>
      <trkpt lat="46.96176" lon="0.66466">
        <ele>104</ele>
        <time>2020-07-03T14:54:02Z</time>
      </trkpt>
      <trkpt lat="46.96175" lon="0.6646">
        <ele>104.1</ele>
        <time>2020-07-03T14:54:03Z</time>
      </trkpt>
      <trkpt lat="46.96175" lon="0.66454">
        <ele>104.3</ele>
        <time>2020-07-03T14:54:04Z</time>
      </trkpt>
      <trkpt lat="46.96175" lon="0.66448">
        <ele>104.4</ele>
        <time>2020-07-03T14:54:05Z</time>
      </trkpt>
      <trkpt lat="46.96174" lon="0.66442">
        <ele>104.6</ele>
        <time>2020-07-03T14:54:06Z</time>
      </trkpt>
      <trkpt lat="46.96174" lon="0.66435">
        <ele>104.6</ele>
        <time>2020-07-03T14:54:07Z</time>
      </trkpt>
      <trkpt lat="46.96174" lon="0.66429">
        <ele>104.7</ele>
        <time>2020-07-03T14:54:08Z</time>
      </trkpt>
      <trkpt lat="46.96175" lon="0.66422">
        <ele>104.8</ele>
        <time>2020-07-03T14:54:09Z</time>
      </trkpt>
      <trkpt lat="46.96175" lon="0.66415">
        <ele>104.9</ele>
        <time>2020-07-03T14:54:10Z</time>
      </trkpt>
      <trkpt lat="46.96176" lon="0.6641">
        <ele>104.9</ele>
        <time>2020-07-03T14:54:11Z</time>
      </trkpt>
      <trkpt lat="46.96176" lon="0.66404">
        <ele>105</ele>
        <time>2020-07-03T14:54:12Z</time>
      </trkpt>
      <trkpt lat="46.96176" lon="0.66397">
        <ele>105.1</ele>
        <time>2020-07-03T14:54:13Z</time>
      </trkpt>
      <trkpt lat="46.96176" lon="0.66392">
        <ele>105.2</ele>
        <time>2020-07-03T14:54:14Z</time>
      </trkpt>
      <trkpt lat="46.96176" lon="0.66386">
        <ele>105.3</ele>
        <time>2020-07-03T14:54:15Z</time>
      </trkpt>
      <trkpt lat="46.96177" lon="0.66381">
        <ele>105.4</ele>
        <time>2020-07-03T14:54:16Z</time>
      </trkpt>
      <trkpt lat="46.96177" lon="0.66374">
        <ele>105.4</ele>
        <time>2020-07-03T14:54:17Z</time>
      </trkpt>
      <trkpt lat="46.96176" lon="0.66366">
        <ele>105.5</ele>
        <time>2020-07-03T14:54:18Z</time>
      </trkpt>
      <trkpt lat="46.96176" lon="0.66361">
        <ele>105.6</ele>
        <time>2020-07-03T14:54:19Z</time>
      </trkpt>
      <trkpt lat="46.96176" lon="0.66353">
        <ele>105.7</ele>
        <time>2020-07-03T14:54:20Z</time>
      </trkpt>
      <trkpt lat="46.96176" lon="0.66346">
        <ele>105.8</ele>
        <time>2020-07-03T14:54:21Z</time>
      </trkpt>
      <trkpt lat="46.96175" lon="0.6634">
        <ele>105.8</ele>
        <time>2020-07-03T14:54:22Z</time>
      </trkpt>
      <trkpt lat="46.96175" lon="0.66334">
        <ele>105.9</ele>
        <time>2020-07-03T14:54:23Z</time>
      </trkpt>
      <trkpt lat="46.96175" lon="0.66328">
        <ele>105.9</ele>
        <time>2020-07-03T14:54:24Z</time>
      </trkpt>
      <trkpt lat="46.96175" lon="0.66322">
        <ele>105.9</ele>
        <time>2020-07-03T14:54:25Z</time>
      </trkpt>
      <trkpt lat="46.96175" lon="0.66316">
        <ele>106</ele>
        <time>2020-07-03T14:54:26Z</time>
      </trkpt>
      <trkpt lat="46.96174" lon="0.6631">
        <ele>106</ele>
        <time>2020-07-03T14:54:27Z</time>
      </trkpt>
      <trkpt lat="46.96174" lon="0.66304">
        <ele>106.1</ele>
        <time>2020-07-03T14:54:28Z</time>
      </trkpt>
      <trkpt lat="46.96174" lon="0.66298">
        <ele>106.1</ele>
        <time>2020-07-03T14:54:29Z</time>
      </trkpt>
      <trkpt lat="46.96174" lon="0.66292">
        <ele>106.1</ele>
        <time>2020-07-03T14:54:30Z</time>
      </trkpt>
      <trkpt lat="46.96174" lon="0.66286">
        <ele>106.2</ele>
        <time>2020-07-03T14:54:31Z</time>
      </trkpt>
      <trkpt lat="46.96174" lon="0.6628">
        <ele>106.2</ele>
        <time>2020-07-03T14:54:32Z</time>
      </trkpt>
      <trkpt lat="46.96174" lon="0.66274">
        <ele>106.2</ele>
        <time>2020-07-03T14:54:33Z</time>
      </trkpt>
      <trkpt lat="46.96174" lon="0.66268">
        <ele>106.3</ele>
        <time>2020-07-03T14:54:34Z</time>
      </trkpt>
      <trkpt lat="46.96174" lon="0.66261">
        <ele>106.3</ele>
        <time>2020-07-03T14:54:35Z</time>
      </trkpt>
      <trkpt lat="46.96175" lon="0.66254">
        <ele>106.4</ele>
        <time>2020-07-03T14:54:36Z</time>
      </trkpt>
      <trkpt lat="46.96174" lon="0.66248">
        <ele>106.4</ele>
        <time>2020-07-03T14:54:37Z</time>
      </trkpt>
      <trkpt lat="46.96174" lon="0.66242">
        <ele>106.4</ele>
        <time>2020-07-03T14:54:38Z</time>
      </trkpt>
      <trkpt lat="46.96174" lon="0.66236">
        <ele>106.5</ele>
        <time>2020-07-03T14:54:39Z</time>
      </trkpt>
      <trkpt lat="46.96173" lon="0.6623">
        <ele>106.5</ele>
        <time>2020-07-03T14:54:40Z</time>
      </trkpt>
      <trkpt lat="46.96173" lon="0.66224">
        <ele>106.6</ele>
        <time>2020-07-03T14:54:41Z</time>
      </trkpt>
      <trkpt lat="46.96172" lon="0.66218">
        <ele>106.6</ele>
        <time>2020-07-03T14:54:42Z</time>
      </trkpt>
      <trkpt lat="46.96171" lon="0.66212">
        <ele>106.6</ele>
        <time>2020-07-03T14:54:43Z</time>
      </trkpt>
      <trkpt lat="46.96171" lon="0.66207">
        <ele>106.7</ele>
        <time>2020-07-03T14:54:44Z</time>
      </trkpt>
      <trkpt lat="46.9617" lon="0.66201">
        <ele>106.7</ele>
        <time>2020-07-03T14:54:45Z</time>
      </trkpt>
      <trkpt lat="46.96169" lon="0.66196">
        <ele>106.8</ele>
        <time>2020-07-03T14:54:46Z</time>
      </trkpt>
      <trkpt lat="46.96167" lon="0.6619">
        <ele>107</ele>
        <time>2020-07-03T14:54:47Z</time>
      </trkpt>
      <trkpt lat="46.96167" lon="0.66185">
        <ele>107.1</ele>
        <time>2020-07-03T14:54:48Z</time>
      </trkpt>
      <trkpt lat="46.96166" lon="0.66178">
        <ele>107.3</ele>
        <time>2020-07-03T14:54:49Z</time>
      </trkpt>
      <trkpt lat="46.96164" lon="0.66173">
        <ele>107.4</ele>
        <time>2020-07-03T14:54:50Z</time>
      </trkpt>
      <trkpt lat="46.96163" lon="0.66166">
        <ele>107.6</ele>
        <time>2020-07-03T14:54:51Z</time>
      </trkpt>
      <trkpt lat="46.96161" lon="0.6616">
        <ele>107.6</ele>
        <time>2020-07-03T14:54:52Z</time>
      </trkpt>
      <trkpt lat="46.9616" lon="0.66155">
        <ele>107.7</ele>
        <time>2020-07-03T14:54:53Z</time>
      </trkpt>
      <trkpt lat="46.96158" lon="0.66148">
        <ele>107.7</ele>
        <time>2020-07-03T14:54:54Z</time>
      </trkpt>
      <trkpt lat="46.96156" lon="0.66143">
        <ele>107.8</ele>
        <time>2020-07-03T14:54:55Z</time>
      </trkpt>
      <trkpt lat="46.96155" lon="0.66139">
        <ele>107.8</ele>
        <time>2020-07-03T14:54:56Z</time>
      </trkpt>
      <trkpt lat="46.96153" lon="0.66134">
        <ele>107.8</ele>
        <time>2020-07-03T14:54:57Z</time>
      </trkpt>
      <trkpt lat="46.96152" lon="0.6613">
        <ele>107.8</ele>
        <time>2020-07-03T14:54:58Z</time>
      </trkpt>
      <trkpt lat="46.96151" lon="0.66123">
        <ele>107.9</ele>
        <time>2020-07-03T14:54:59Z</time>
      </trkpt>
      <trkpt lat="46.96149" lon="0.66118">
        <ele>107.9</ele>
        <time>2020-07-03T14:55:00Z</time>
      </trkpt>
      <trkpt lat="46.96148" lon="0.66112">
        <ele>107.9</ele>
        <time>2020-07-03T14:55:01Z</time>
      </trkpt>
      <trkpt lat="46.96147" lon="0.66106">
        <ele>107.9</ele>
        <time>2020-07-03T14:55:02Z</time>
      </trkpt>
      <trkpt lat="46.96145" lon="0.66101">
        <ele>108</ele>
        <time>2020-07-03T14:55:03Z</time>
      </trkpt>
      <trkpt lat="46.96143" lon="0.66096">
        <ele>108</ele>
        <time>2020-07-03T14:55:04Z</time>
      </trkpt>
      <trkpt lat="46.9614" lon="0.66093">
        <ele>108</ele>
        <time>2020-07-03T14:55:05Z</time>
      </trkpt>
      <trkpt lat="46.96138" lon="0.66087">
        <ele>108.1</ele>
        <time>2020-07-03T14:55:06Z</time>
      </trkpt>
      <trkpt lat="46.96136" lon="0.66081">
        <ele>108.1</ele>
        <time>2020-07-03T14:55:07Z</time>
      </trkpt>
      <trkpt lat="46.96134" lon="0.66075">
        <ele>108.2</ele>
        <time>2020-07-03T14:55:08Z</time>
      </trkpt>
      <trkpt lat="46.96132" lon="0.66071">
        <ele>108.2</ele>
        <time>2020-07-03T14:55:09Z</time>
      </trkpt>
      <trkpt lat="46.9613" lon="0.66066">
        <ele>108.2</ele>
        <time>2020-07-03T14:55:10Z</time>
      </trkpt>
      <trkpt lat="46.96128" lon="0.66061">
        <ele>108.3</ele>
        <time>2020-07-03T14:55:11Z</time>
      </trkpt>
      <trkpt lat="46.96126" lon="0.66054">
        <ele>108.4</ele>
        <time>2020-07-03T14:55:12Z</time>
      </trkpt>
      <trkpt lat="46.96124" lon="0.66048">
        <ele>108.4</ele>
        <time>2020-07-03T14:55:13Z</time>
      </trkpt>
      <trkpt lat="46.96121" lon="0.66043">
        <ele>108.5</ele>
        <time>2020-07-03T14:55:14Z</time>
      </trkpt>
      <trkpt lat="46.96118" lon="0.66038">
        <ele>108.6</ele>
        <time>2020-07-03T14:55:15Z</time>
      </trkpt>
      <trkpt lat="46.96115" lon="0.66032">
        <ele>108.6</ele>
        <time>2020-07-03T14:55:16Z</time>
      </trkpt>
      <trkpt lat="46.96112" lon="0.66028">
        <ele>108.7</ele>
        <time>2020-07-03T14:55:17Z</time>
      </trkpt>
      <trkpt lat="46.96109" lon="0.66023">
        <ele>108.7</ele>
        <time>2020-07-03T14:55:18Z</time>
      </trkpt>
      <trkpt lat="46.96106" lon="0.66018">
        <ele>108.8</ele>
        <time>2020-07-03T14:55:19Z</time>
      </trkpt>
      <trkpt lat="46.96103" lon="0.66012">
        <ele>108.9</ele>
        <time>2020-07-03T14:55:20Z</time>
      </trkpt>
      <trkpt lat="46.961" lon="0.66004">
        <ele>109</ele>
        <time>2020-07-03T14:55:21Z</time>
      </trkpt>
      <trkpt lat="46.96097" lon="0.65998">
        <ele>109</ele>
        <time>2020-07-03T14:55:22Z</time>
      </trkpt>
      <trkpt lat="46.96094" lon="0.65993">
        <ele>109.1</ele>
        <time>2020-07-03T14:55:23Z</time>
      </trkpt>
      <trkpt lat="46.9609" lon="0.65989">
        <ele>109.2</ele>
        <time>2020-07-03T14:55:24Z</time>
      </trkpt>
      <trkpt lat="46.96086" lon="0.65983">
        <ele>109.2</ele>
        <time>2020-07-03T14:55:25Z</time>
      </trkpt>
      <trkpt lat="46.96083" lon="0.65977">
        <ele>109.3</ele>
        <time>2020-07-03T14:55:26Z</time>
      </trkpt>
      <trkpt lat="46.9608" lon="0.65971">
        <ele>109.4</ele>
        <time>2020-07-03T14:55:27Z</time>
      </trkpt>
      <trkpt lat="46.96077" lon="0.65964">
        <ele>109.4</ele>
        <time>2020-07-03T14:55:28Z</time>
      </trkpt>
      <trkpt lat="46.96075" lon="0.65958">
        <ele>109.5</ele>
        <time>2020-07-03T14:55:29Z</time>
      </trkpt>
      <trkpt lat="46.96073" lon="0.65952">
        <ele>109.5</ele>
        <time>2020-07-03T14:55:30Z</time>
      </trkpt>
      <trkpt lat="46.96071" lon="0.65947">
        <ele>109.6</ele>
        <time>2020-07-03T14:55:31Z</time>
      </trkpt>
      <trkpt lat="46.96068" lon="0.65942">
        <ele>109.7</ele>
        <time>2020-07-03T14:55:32Z</time>
      </trkpt>
      <trkpt lat="46.96065" lon="0.65938">
        <ele>109.7</ele>
        <time>2020-07-03T14:55:33Z</time>
      </trkpt>
      <trkpt lat="46.96063" lon="0.65932">
        <ele>109.8</ele>
        <time>2020-07-03T14:55:34Z</time>
      </trkpt>
      <trkpt lat="46.9606" lon="0.65927">
        <ele>109.9</ele>
        <time>2020-07-03T14:55:35Z</time>
      </trkpt>
      <trkpt lat="46.96057" lon="0.65922">
        <ele>110</ele>
        <time>2020-07-03T14:55:36Z</time>
      </trkpt>
      <trkpt lat="46.96055" lon="0.65916">
        <ele>110</ele>
        <time>2020-07-03T14:55:37Z</time>
      </trkpt>
      <trkpt lat="46.96052" lon="0.65911">
        <ele>110.1</ele>
        <time>2020-07-03T14:55:38Z</time>
      </trkpt>
      <trkpt lat="46.96049" lon="0.65906">
        <ele>110.1</ele>
        <time>2020-07-03T14:55:39Z</time>
      </trkpt>
      <trkpt lat="46.96046" lon="0.65899">
        <ele>110.1</ele>
        <time>2020-07-03T14:55:40Z</time>
      </trkpt>
      <trkpt lat="46.96043" lon="0.65894">
        <ele>110.2</ele>
        <time>2020-07-03T14:55:41Z</time>
      </trkpt>
      <trkpt lat="46.96041" lon="0.65888">
        <ele>110.2</ele>
        <time>2020-07-03T14:55:42Z</time>
      </trkpt>
      <trkpt lat="46.96038" lon="0.65882">
        <ele>110.2</ele>
        <time>2020-07-03T14:55:43Z</time>
      </trkpt>
      <trkpt lat="46.96036" lon="0.65877">
        <ele>110.2</ele>
        <time>2020-07-03T14:55:44Z</time>
      </trkpt>
      <trkpt lat="46.96033" lon="0.65871">
        <ele>110.3</ele>
        <time>2020-07-03T14:55:45Z</time>
      </trkpt>
      <trkpt lat="46.9603" lon="0.65865">
        <ele>110.3</ele>
        <time>2020-07-03T14:55:46Z</time>
      </trkpt>
      <trkpt lat="46.96028" lon="0.65862">
        <ele>110.3</ele>
        <time>2020-07-03T14:55:47Z</time>
      </trkpt>
      <trkpt lat="46.96026" lon="0.65854">
        <ele>110.3</ele>
        <time>2020-07-03T14:55:48Z</time>
      </trkpt>
      <trkpt lat="46.96023" lon="0.65848">
        <ele>110.3</ele>
        <time>2020-07-03T14:55:49Z</time>
      </trkpt>
      <trkpt lat="46.96019" lon="0.65842">
        <ele>110.3</ele>
        <time>2020-07-03T14:55:50Z</time>
      </trkpt>
      <trkpt lat="46.96017" lon="0.65837">
        <ele>110.3</ele>
        <time>2020-07-03T14:55:51Z</time>
      </trkpt>
      <trkpt lat="46.96014" lon="0.65831">
        <ele>110.3</ele>
        <time>2020-07-03T14:55:52Z</time>
      </trkpt>
      <trkpt lat="46.96011" lon="0.65826">
        <ele>110.3</ele>
        <time>2020-07-03T14:55:53Z</time>
      </trkpt>
      <trkpt lat="46.96008" lon="0.6582">
        <ele>110.2</ele>
        <time>2020-07-03T14:55:54Z</time>
      </trkpt>
      <trkpt lat="46.96006" lon="0.65815">
        <ele>110.2</ele>
        <time>2020-07-03T14:55:55Z</time>
      </trkpt>
      <trkpt lat="46.96003" lon="0.65809">
        <ele>110.2</ele>
        <time>2020-07-03T14:55:56Z</time>
      </trkpt>
      <trkpt lat="46.96" lon="0.65804">
        <ele>110.2</ele>
        <time>2020-07-03T14:55:57Z</time>
      </trkpt>
      <trkpt lat="46.95997" lon="0.65798">
        <ele>110.3</ele>
        <time>2020-07-03T14:55:58Z</time>
      </trkpt>
      <trkpt lat="46.95994" lon="0.65792">
        <ele>110.3</ele>
        <time>2020-07-03T14:55:59Z</time>
      </trkpt>
      <trkpt lat="46.95991" lon="0.65787">
        <ele>110.4</ele>
        <time>2020-07-03T14:56:00Z</time>
      </trkpt>
      <trkpt lat="46.95988" lon="0.65781">
        <ele>110.4</ele>
        <time>2020-07-03T14:56:01Z</time>
      </trkpt>
      <trkpt lat="46.95986" lon="0.65775">
        <ele>110.5</ele>
        <time>2020-07-03T14:56:02Z</time>
      </trkpt>
      <trkpt lat="46.95984" lon="0.65769">
        <ele>110.6</ele>
        <time>2020-07-03T14:56:03Z</time>
      </trkpt>
      <trkpt lat="46.95981" lon="0.65763">
        <ele>110.6</ele>
        <time>2020-07-03T14:56:04Z</time>
      </trkpt>
      <trkpt lat="46.95978" lon="0.65758">
        <ele>110.6</ele>
        <time>2020-07-03T14:56:05Z</time>
      </trkpt>
      <trkpt lat="46.95975" lon="0.65753">
        <ele>110.7</ele>
        <time>2020-07-03T14:56:06Z</time>
      </trkpt>
      <trkpt lat="46.95972" lon="0.65748">
        <ele>110.7</ele>
        <time>2020-07-03T14:56:07Z</time>
      </trkpt>
      <trkpt lat="46.95968" lon="0.65742">
        <ele>110.7</ele>
        <time>2020-07-03T14:56:08Z</time>
      </trkpt>
      <trkpt lat="46.95965" lon="0.65736">
        <ele>110.7</ele>
        <time>2020-07-03T14:56:09Z</time>
      </trkpt>
      <trkpt lat="46.95962" lon="0.6573">
        <ele>110.7</ele>
        <time>2020-07-03T14:56:10Z</time>
      </trkpt>
      <trkpt lat="46.95959" lon="0.65725">
        <ele>110.8</ele>
        <time>2020-07-03T14:56:11Z</time>
      </trkpt>
      <trkpt lat="46.95955" lon="0.65719">
        <ele>110.8</ele>
        <time>2020-07-03T14:56:12Z</time>
      </trkpt>
      <trkpt lat="46.95952" lon="0.65713">
        <ele>110.8</ele>
        <time>2020-07-03T14:56:13Z</time>
      </trkpt>
      <trkpt lat="46.95949" lon="0.65708">
        <ele>110.8</ele>
        <time>2020-07-03T14:56:14Z</time>
      </trkpt>
      <trkpt lat="46.95946" lon="0.65702">
        <ele>110.8</ele>
        <time>2020-07-03T14:56:15Z</time>
      </trkpt>
      <trkpt lat="46.95943" lon="0.65695">
        <ele>110.8</ele>
        <time>2020-07-03T14:56:16Z</time>
      </trkpt>
      <trkpt lat="46.95941" lon="0.65689">
        <ele>110.8</ele>
        <time>2020-07-03T14:56:17Z</time>
      </trkpt>
      <trkpt lat="46.95939" lon="0.65682">
        <ele>110.8</ele>
        <time>2020-07-03T14:56:18Z</time>
      </trkpt>
      <trkpt lat="46.95936" lon="0.65675">
        <ele>110.8</ele>
        <time>2020-07-03T14:56:19Z</time>
      </trkpt>
      <trkpt lat="46.95932" lon="0.6567">
        <ele>110.8</ele>
        <time>2020-07-03T14:56:20Z</time>
      </trkpt>
      <trkpt lat="46.95929" lon="0.65665">
        <ele>110.8</ele>
        <time>2020-07-03T14:56:21Z</time>
      </trkpt>
      <trkpt lat="46.95926" lon="0.65661">
        <ele>110.8</ele>
        <time>2020-07-03T14:56:22Z</time>
      </trkpt>
      <trkpt lat="46.95924" lon="0.65656">
        <ele>110.8</ele>
        <time>2020-07-03T14:56:23Z</time>
      </trkpt>
      <trkpt lat="46.95921" lon="0.6565">
        <ele>110.8</ele>
        <time>2020-07-03T14:56:24Z</time>
      </trkpt>
      <trkpt lat="46.95919" lon="0.65645">
        <ele>110.8</ele>
        <time>2020-07-03T14:56:25Z</time>
      </trkpt>
      <trkpt lat="46.95917" lon="0.6564">
        <ele>110.8</ele>
        <time>2020-07-03T14:56:26Z</time>
      </trkpt>
      <trkpt lat="46.95914" lon="0.65634">
        <ele>110.8</ele>
        <time>2020-07-03T14:56:27Z</time>
      </trkpt>
      <trkpt lat="46.95911" lon="0.65629">
        <ele>110.8</ele>
        <time>2020-07-03T14:56:28Z</time>
      </trkpt>
      <trkpt lat="46.95908" lon="0.65623">
        <ele>110.8</ele>
        <time>2020-07-03T14:56:29Z</time>
      </trkpt>
      <trkpt lat="46.95905" lon="0.65618">
        <ele>110.8</ele>
        <time>2020-07-03T14:56:30Z</time>
      </trkpt>
      <trkpt lat="46.95903" lon="0.65612">
        <ele>110.8</ele>
        <time>2020-07-03T14:56:31Z</time>
      </trkpt>
      <trkpt lat="46.959" lon="0.65607">
        <ele>110.8</ele>
        <time>2020-07-03T14:56:32Z</time>
      </trkpt>
      <trkpt lat="46.95898" lon="0.65601">
        <ele>110.7</ele>
        <time>2020-07-03T14:56:33Z</time>
      </trkpt>
      <trkpt lat="46.95895" lon="0.65596">
        <ele>110.7</ele>
        <time>2020-07-03T14:56:34Z</time>
      </trkpt>
      <trkpt lat="46.95893" lon="0.65591">
        <ele>110.7</ele>
        <time>2020-07-03T14:56:35Z</time>
      </trkpt>
      <trkpt lat="46.95889" lon="0.65586">
        <ele>110.7</ele>
        <time>2020-07-03T14:56:36Z</time>
      </trkpt>
      <trkpt lat="46.95888" lon="0.65582">
        <ele>110.6</ele>
        <time>2020-07-03T14:56:37Z</time>
      </trkpt>
      <trkpt lat="46.95887" lon="0.65579">
        <ele>110.6</ele>
        <time>2020-07-03T14:56:38Z</time>
      </trkpt>
      <trkpt lat="46.95887" lon="0.65578">
        <ele>110.6</ele>
        <time>2020-07-03T14:56:39Z</time>
      </trkpt>
      <trkpt lat="46.95886" lon="0.65578">
        <ele>110.6</ele>
        <time>2020-07-03T14:56:40Z</time>
      </trkpt>
      <trkpt lat="46.95886" lon="0.65577">
        <ele>110.6</ele>
        <time>2020-07-03T14:56:41Z</time>
      </trkpt>
      <trkpt lat="46.95886" lon="0.65576">
        <ele>110.6</ele>
        <time>2020-07-03T14:56:42Z</time>
      </trkpt>
      <trkpt lat="46.95885" lon="0.65576">
        <ele>110.6</ele>
        <time>2020-07-03T14:56:43Z</time>
      </trkpt>
      <trkpt lat="46.95884" lon="0.65572">
        <ele>110.5</ele>
        <time>2020-07-03T14:56:44Z</time>
      </trkpt>
      <trkpt lat="46.95883" lon="0.65571">
        <ele>110.5</ele>
        <time>2020-07-03T14:56:45Z</time>
      </trkpt>
      <trkpt lat="46.95881" lon="0.65568">
        <ele>110.5</ele>
        <time>2020-07-03T14:56:46Z</time>
      </trkpt>
      <trkpt lat="46.95879" lon="0.65563">
        <ele>110.4</ele>
        <time>2020-07-03T14:56:47Z</time>
      </trkpt>
      <trkpt lat="46.95875" lon="0.6556">
        <ele>110.4</ele>
        <time>2020-07-03T14:56:48Z</time>
      </trkpt>
      <trkpt lat="46.95872" lon="0.65555">
        <ele>110.3</ele>
        <time>2020-07-03T14:56:49Z</time>
      </trkpt>
      <trkpt lat="46.95869" lon="0.65549">
        <ele>110.3</ele>
        <time>2020-07-03T14:56:50Z</time>
      </trkpt>
      <trkpt lat="46.95865" lon="0.65543">
        <ele>110.2</ele>
        <time>2020-07-03T14:56:51Z</time>
      </trkpt>
      <trkpt lat="46.95863" lon="0.65536">
        <ele>110.2</ele>
        <time>2020-07-03T14:56:52Z</time>
      </trkpt>
      <trkpt lat="46.9586" lon="0.6553">
        <ele>110.1</ele>
        <time>2020-07-03T14:56:53Z</time>
      </trkpt>
      <trkpt lat="46.95857" lon="0.65525">
        <ele>110.1</ele>
        <time>2020-07-03T14:56:54Z</time>
      </trkpt>
      <trkpt lat="46.95854" lon="0.65519">
        <ele>110.1</ele>
        <time>2020-07-03T14:56:55Z</time>
      </trkpt>
      <trkpt lat="46.95851" lon="0.65514">
        <ele>110</ele>
        <time>2020-07-03T14:56:56Z</time>
      </trkpt>
      <trkpt lat="46.95848" lon="0.65507">
        <ele>110</ele>
        <time>2020-07-03T14:56:57Z</time>
      </trkpt>
      <trkpt lat="46.95845" lon="0.655">
        <ele>110</ele>
        <time>2020-07-03T14:56:58Z</time>
      </trkpt>
      <trkpt lat="46.95842" lon="0.65495">
        <ele>109.9</ele>
        <time>2020-07-03T14:56:59Z</time>
      </trkpt>
      <trkpt lat="46.95839" lon="0.65489">
        <ele>109.9</ele>
        <time>2020-07-03T14:57:00Z</time>
      </trkpt>
      <trkpt lat="46.95836" lon="0.65483">
        <ele>109.8</ele>
        <time>2020-07-03T14:57:01Z</time>
      </trkpt>
      <trkpt lat="46.95833" lon="0.65477">
        <ele>109.8</ele>
        <time>2020-07-03T14:57:02Z</time>
      </trkpt>
      <trkpt lat="46.9583" lon="0.65471">
        <ele>109.7</ele>
        <time>2020-07-03T14:57:03Z</time>
      </trkpt>
      <trkpt lat="46.95827" lon="0.65465">
        <ele>109.6</ele>
        <time>2020-07-03T14:57:04Z</time>
      </trkpt>
      <trkpt lat="46.95824" lon="0.65461">
        <ele>109.6</ele>
        <time>2020-07-03T14:57:05Z</time>
      </trkpt>
      <trkpt lat="46.9582" lon="0.65452">
        <ele>109.4</ele>
        <time>2020-07-03T14:57:06Z</time>
      </trkpt>
      <trkpt lat="46.95818" lon="0.65446">
        <ele>109.3</ele>
        <time>2020-07-03T14:57:07Z</time>
      </trkpt>
      <trkpt lat="46.95815" lon="0.6544">
        <ele>109.2</ele>
        <time>2020-07-03T14:57:08Z</time>
      </trkpt>
      <trkpt lat="46.95812" lon="0.65434">
        <ele>109.1</ele>
        <time>2020-07-03T14:57:09Z</time>
      </trkpt>
      <trkpt lat="46.95809" lon="0.65428">
        <ele>108.9</ele>
        <time>2020-07-03T14:57:10Z</time>
      </trkpt>
      <trkpt lat="46.95806" lon="0.65421">
        <ele>108.8</ele>
        <time>2020-07-03T14:57:11Z</time>
      </trkpt>
      <trkpt lat="46.95803" lon="0.65415">
        <ele>108.6</ele>
        <time>2020-07-03T14:57:12Z</time>
      </trkpt>
      <trkpt lat="46.958" lon="0.65409">
        <ele>108.6</ele>
        <time>2020-07-03T14:57:13Z</time>
      </trkpt>
      <trkpt lat="46.95797" lon="0.65403">
        <ele>108.5</ele>
        <time>2020-07-03T14:57:14Z</time>
      </trkpt>
      <trkpt lat="46.95794" lon="0.65396">
        <ele>108.3</ele>
        <time>2020-07-03T14:57:15Z</time>
      </trkpt>
      <trkpt lat="46.9579" lon="0.6539">
        <ele>108.2</ele>
        <time>2020-07-03T14:57:16Z</time>
      </trkpt>
      <trkpt lat="46.95786" lon="0.65382">
        <ele>108.1</ele>
        <time>2020-07-03T14:57:17Z</time>
      </trkpt>
      <trkpt lat="46.95783" lon="0.65375">
        <ele>108</ele>
        <time>2020-07-03T14:57:18Z</time>
      </trkpt>
      <trkpt lat="46.95779" lon="0.65367">
        <ele>107.8</ele>
        <time>2020-07-03T14:57:19Z</time>
      </trkpt>
      <trkpt lat="46.95776" lon="0.6536">
        <ele>107.7</ele>
        <time>2020-07-03T14:57:20Z</time>
      </trkpt>
      <trkpt lat="46.95772" lon="0.65354">
        <ele>107.5</ele>
        <time>2020-07-03T14:57:21Z</time>
      </trkpt>
      <trkpt lat="46.95769" lon="0.65346">
        <ele>107.3</ele>
        <time>2020-07-03T14:57:22Z</time>
      </trkpt>
      <trkpt lat="46.95766" lon="0.65339">
        <ele>107.1</ele>
        <time>2020-07-03T14:57:23Z</time>
      </trkpt>
      <trkpt lat="46.95762" lon="0.65332">
        <ele>107</ele>
        <time>2020-07-03T14:57:24Z</time>
      </trkpt>
      <trkpt lat="46.95759" lon="0.65324">
        <ele>106.8</ele>
        <time>2020-07-03T14:57:25Z</time>
      </trkpt>
      <trkpt lat="46.95755" lon="0.65317">
        <ele>106.5</ele>
        <time>2020-07-03T14:57:26Z</time>
      </trkpt>
      <trkpt lat="46.95751" lon="0.65308">
        <ele>106.2</ele>
        <time>2020-07-03T14:57:27Z</time>
      </trkpt>
      <trkpt lat="46.95748" lon="0.65302">
        <ele>106</ele>
        <time>2020-07-03T14:57:28Z</time>
      </trkpt>
      <trkpt lat="46.95744" lon="0.65294">
        <ele>105.7</ele>
        <time>2020-07-03T14:57:29Z</time>
      </trkpt>
      <trkpt lat="46.95739" lon="0.65285">
        <ele>105.4</ele>
        <time>2020-07-03T14:57:30Z</time>
      </trkpt>
      <trkpt lat="46.95734" lon="0.65278">
        <ele>104.9</ele>
        <time>2020-07-03T14:57:31Z</time>
      </trkpt>
      <trkpt lat="46.95728" lon="0.6527">
        <ele>104.5</ele>
        <time>2020-07-03T14:57:32Z</time>
      </trkpt>
      <trkpt lat="46.95723" lon="0.65262">
        <ele>104</ele>
        <time>2020-07-03T14:57:33Z</time>
      </trkpt>
      <trkpt lat="46.95717" lon="0.65255">
        <ele>103.4</ele>
        <time>2020-07-03T14:57:34Z</time>
      </trkpt>
      <trkpt lat="46.9571" lon="0.65247">
        <ele>102.8</ele>
        <time>2020-07-03T14:57:35Z</time>
      </trkpt>
      <trkpt lat="46.95702" lon="0.65239">
        <ele>102.1</ele>
        <time>2020-07-03T14:57:36Z</time>
      </trkpt>
      <trkpt lat="46.95694" lon="0.6523">
        <ele>101.3</ele>
        <time>2020-07-03T14:57:37Z</time>
      </trkpt>
      <trkpt lat="46.95687" lon="0.65222">
        <ele>100.6</ele>
        <time>2020-07-03T14:57:38Z</time>
      </trkpt>
      <trkpt lat="46.95679" lon="0.65214">
        <ele>99.9</ele>
        <time>2020-07-03T14:57:39Z</time>
      </trkpt>
      <trkpt lat="46.95671" lon="0.65205">
        <ele>99.1</ele>
        <time>2020-07-03T14:57:40Z</time>
      </trkpt>
      <trkpt lat="46.95663" lon="0.65196">
        <ele>98.3</ele>
        <time>2020-07-03T14:57:41Z</time>
      </trkpt>
      <trkpt lat="46.95654" lon="0.65186">
        <ele>97.6</ele>
        <time>2020-07-03T14:57:42Z</time>
      </trkpt>
      <trkpt lat="46.95646" lon="0.65176">
        <ele>96.8</ele>
        <time>2020-07-03T14:57:43Z</time>
      </trkpt>
      <trkpt lat="46.95637" lon="0.65166">
        <ele>96.3</ele>
        <time>2020-07-03T14:57:44Z</time>
      </trkpt>
      <trkpt lat="46.95629" lon="0.65157">
        <ele>96</ele>
        <time>2020-07-03T14:57:45Z</time>
      </trkpt>
      <trkpt lat="46.9562" lon="0.65146">
        <ele>95.4</ele>
        <time>2020-07-03T14:57:46Z</time>
      </trkpt>
      <trkpt lat="46.95611" lon="0.65136">
        <ele>94.8</ele>
        <time>2020-07-03T14:57:47Z</time>
      </trkpt>
      <trkpt lat="46.95603" lon="0.65127">
        <ele>94.4</ele>
        <time>2020-07-03T14:57:48Z</time>
      </trkpt>
      <trkpt lat="46.95595" lon="0.65119">
        <ele>94.2</ele>
        <time>2020-07-03T14:57:49Z</time>
      </trkpt>
      <trkpt lat="46.95586" lon="0.65111">
        <ele>94.1</ele>
        <time>2020-07-03T14:57:50Z</time>
      </trkpt>
      <trkpt lat="46.95578" lon="0.65102">
        <ele>94</ele>
        <time>2020-07-03T14:57:51Z</time>
      </trkpt>
      <trkpt lat="46.9557" lon="0.65093">
        <ele>93.8</ele>
        <time>2020-07-03T14:57:52Z</time>
      </trkpt>
      <trkpt lat="46.95563" lon="0.65083">
        <ele>93.6</ele>
        <time>2020-07-03T14:57:53Z</time>
      </trkpt>
      <trkpt lat="46.95555" lon="0.65074">
        <ele>93.4</ele>
        <time>2020-07-03T14:57:54Z</time>
      </trkpt>
      <trkpt lat="46.95548" lon="0.65066">
        <ele>93.1</ele>
        <time>2020-07-03T14:57:55Z</time>
      </trkpt>
      <trkpt lat="46.9554" lon="0.65057">
        <ele>92.9</ele>
        <time>2020-07-03T14:57:56Z</time>
      </trkpt>
      <trkpt lat="46.95533" lon="0.65048">
        <ele>92.6</ele>
        <time>2020-07-03T14:57:57Z</time>
      </trkpt>
      <trkpt lat="46.95526" lon="0.65039">
        <ele>92.3</ele>
        <time>2020-07-03T14:57:58Z</time>
      </trkpt>
      <trkpt lat="46.95518" lon="0.65031">
        <ele>91.9</ele>
        <time>2020-07-03T14:57:59Z</time>
      </trkpt>
      <trkpt lat="46.95511" lon="0.65022">
        <ele>91.5</ele>
        <time>2020-07-03T14:58:00Z</time>
      </trkpt>
      <trkpt lat="46.95504" lon="0.65013">
        <ele>91.2</ele>
        <time>2020-07-03T14:58:01Z</time>
      </trkpt>
      <trkpt lat="46.95496" lon="0.65005">
        <ele>90.8</ele>
        <time>2020-07-03T14:58:02Z</time>
      </trkpt>
      <trkpt lat="46.95489" lon="0.64996">
        <ele>90.2</ele>
        <time>2020-07-03T14:58:03Z</time>
      </trkpt>
      <trkpt lat="46.95481" lon="0.64987">
        <ele>89.6</ele>
        <time>2020-07-03T14:58:04Z</time>
      </trkpt>
      <trkpt lat="46.95473" lon="0.64978">
        <ele>89</ele>
        <time>2020-07-03T14:58:05Z</time>
      </trkpt>
      <trkpt lat="46.95464" lon="0.6497">
        <ele>88.4</ele>
        <time>2020-07-03T14:58:06Z</time>
      </trkpt>
      <trkpt lat="46.95456" lon="0.64961">
        <ele>87.8</ele>
        <time>2020-07-03T14:58:07Z</time>
      </trkpt>
      <trkpt lat="46.95448" lon="0.64951">
        <ele>87.3</ele>
        <time>2020-07-03T14:58:08Z</time>
      </trkpt>
      <trkpt lat="46.9544" lon="0.64941">
        <ele>86.9</ele>
        <time>2020-07-03T14:58:09Z</time>
      </trkpt>
      <trkpt lat="46.95432" lon="0.64931">
        <ele>86.4</ele>
        <time>2020-07-03T14:58:10Z</time>
      </trkpt>
      <trkpt lat="46.95424" lon="0.64921">
        <ele>85.7</ele>
        <time>2020-07-03T14:58:11Z</time>
      </trkpt>
      <trkpt lat="46.95415" lon="0.64912">
        <ele>85</ele>
        <time>2020-07-03T14:58:12Z</time>
      </trkpt>
      <trkpt lat="46.95407" lon="0.64902">
        <ele>84.5</ele>
        <time>2020-07-03T14:58:13Z</time>
      </trkpt>
      <trkpt lat="46.95399" lon="0.64893">
        <ele>84.1</ele>
        <time>2020-07-03T14:58:14Z</time>
      </trkpt>
      <trkpt lat="46.9539" lon="0.64883">
        <ele>83.8</ele>
        <time>2020-07-03T14:58:15Z</time>
      </trkpt>
      <trkpt lat="46.95382" lon="0.64873">
        <ele>83.7</ele>
        <time>2020-07-03T14:58:16Z</time>
      </trkpt>
      <trkpt lat="46.95374" lon="0.64864">
        <ele>83.7</ele>
        <time>2020-07-03T14:58:17Z</time>
      </trkpt>
      <trkpt lat="46.95366" lon="0.64856">
        <ele>83.7</ele>
        <time>2020-07-03T14:58:18Z</time>
      </trkpt>
      <trkpt lat="46.95358" lon="0.64847">
        <ele>83.6</ele>
        <time>2020-07-03T14:58:19Z</time>
      </trkpt>
      <trkpt lat="46.95351" lon="0.64838">
        <ele>83.5</ele>
        <time>2020-07-03T14:58:20Z</time>
      </trkpt>
      <trkpt lat="46.95344" lon="0.6483">
        <ele>83.5</ele>
        <time>2020-07-03T14:58:21Z</time>
      </trkpt>
      <trkpt lat="46.95336" lon="0.64822">
        <ele>83.4</ele>
        <time>2020-07-03T14:58:22Z</time>
      </trkpt>
      <trkpt lat="46.95329" lon="0.64815">
        <ele>83.4</ele>
        <time>2020-07-03T14:58:23Z</time>
      </trkpt>
      <trkpt lat="46.95322" lon="0.64807">
        <ele>83.4</ele>
        <time>2020-07-03T14:58:24Z</time>
      </trkpt>
      <trkpt lat="46.95315" lon="0.64799">
        <ele>83.4</ele>
        <time>2020-07-03T14:58:25Z</time>
      </trkpt>
      <trkpt lat="46.95309" lon="0.64791">
        <ele>83.3</ele>
        <time>2020-07-03T14:58:26Z</time>
      </trkpt>
      <trkpt lat="46.95303" lon="0.64783">
        <ele>83.2</ele>
        <time>2020-07-03T14:58:27Z</time>
      </trkpt>
      <trkpt lat="46.95297" lon="0.64775">
        <ele>83.2</ele>
        <time>2020-07-03T14:58:28Z</time>
      </trkpt>
      <trkpt lat="46.9529" lon="0.64768">
        <ele>83.3</ele>
        <time>2020-07-03T14:58:29Z</time>
      </trkpt>
      <trkpt lat="46.95284" lon="0.6476">
        <ele>83.4</ele>
        <time>2020-07-03T14:58:30Z</time>
      </trkpt>
      <trkpt lat="46.95277" lon="0.64754">
        <ele>83.6</ele>
        <time>2020-07-03T14:58:31Z</time>
      </trkpt>
      <trkpt lat="46.95271" lon="0.64746">
        <ele>83.6</ele>
        <time>2020-07-03T14:58:32Z</time>
      </trkpt>
      <trkpt lat="46.95266" lon="0.64739">
        <ele>83.6</ele>
        <time>2020-07-03T14:58:33Z</time>
      </trkpt>
      <trkpt lat="46.9526" lon="0.64732">
        <ele>83.6</ele>
        <time>2020-07-03T14:58:34Z</time>
      </trkpt>
      <trkpt lat="46.95254" lon="0.64724">
        <ele>83.6</ele>
        <time>2020-07-03T14:58:35Z</time>
      </trkpt>
      <trkpt lat="46.95248" lon="0.64718">
        <ele>83.7</ele>
        <time>2020-07-03T14:58:36Z</time>
      </trkpt>
      <trkpt lat="46.95243" lon="0.64711">
        <ele>83.9</ele>
        <time>2020-07-03T14:58:37Z</time>
      </trkpt>
      <trkpt lat="46.95237" lon="0.64704">
        <ele>84</ele>
        <time>2020-07-03T14:58:38Z</time>
      </trkpt>
      <trkpt lat="46.95232" lon="0.64698">
        <ele>84.2</ele>
        <time>2020-07-03T14:58:39Z</time>
      </trkpt>
      <trkpt lat="46.95226" lon="0.64692">
        <ele>84.3</ele>
        <time>2020-07-03T14:58:40Z</time>
      </trkpt>
      <trkpt lat="46.95221" lon="0.64686">
        <ele>84.4</ele>
        <time>2020-07-03T14:58:41Z</time>
      </trkpt>
      <trkpt lat="46.95216" lon="0.64681">
        <ele>84.6</ele>
        <time>2020-07-03T14:58:42Z</time>
      </trkpt>
      <trkpt lat="46.95211" lon="0.64674">
        <ele>84.8</ele>
        <time>2020-07-03T14:58:43Z</time>
      </trkpt>
      <trkpt lat="46.95206" lon="0.64669">
        <ele>84.9</ele>
        <time>2020-07-03T14:58:44Z</time>
      </trkpt>
      <trkpt lat="46.95202" lon="0.64663">
        <ele>85</ele>
        <time>2020-07-03T14:58:45Z</time>
      </trkpt>
      <trkpt lat="46.95196" lon="0.64657">
        <ele>85</ele>
        <time>2020-07-03T14:58:46Z</time>
      </trkpt>
      <trkpt lat="46.95191" lon="0.64652">
        <ele>85.1</ele>
        <time>2020-07-03T14:58:47Z</time>
      </trkpt>
      <trkpt lat="46.95185" lon="0.64646">
        <ele>85.3</ele>
        <time>2020-07-03T14:58:48Z</time>
      </trkpt>
      <trkpt lat="46.95181" lon="0.64639">
        <ele>85.4</ele>
        <time>2020-07-03T14:58:49Z</time>
      </trkpt>
      <trkpt lat="46.95175" lon="0.64634">
        <ele>85.5</ele>
        <time>2020-07-03T14:58:50Z</time>
      </trkpt>
      <trkpt lat="46.9517" lon="0.64627">
        <ele>85.7</ele>
        <time>2020-07-03T14:58:51Z</time>
      </trkpt>
      <trkpt lat="46.95166" lon="0.6462">
        <ele>85.9</ele>
        <time>2020-07-03T14:58:52Z</time>
      </trkpt>
      <trkpt lat="46.9516" lon="0.64615">
        <ele>86.1</ele>
        <time>2020-07-03T14:58:53Z</time>
      </trkpt>
      <trkpt lat="46.95155" lon="0.6461">
        <ele>86.3</ele>
        <time>2020-07-03T14:58:54Z</time>
      </trkpt>
      <trkpt lat="46.9515" lon="0.64604">
        <ele>86.4</ele>
        <time>2020-07-03T14:58:55Z</time>
      </trkpt>
      <trkpt lat="46.95145" lon="0.64598">
        <ele>86.5</ele>
        <time>2020-07-03T14:58:56Z</time>
      </trkpt>
      <trkpt lat="46.9514" lon="0.64591">
        <ele>86.7</ele>
        <time>2020-07-03T14:58:57Z</time>
      </trkpt>
      <trkpt lat="46.95135" lon="0.64585">
        <ele>86.8</ele>
        <time>2020-07-03T14:58:58Z</time>
      </trkpt>
      <trkpt lat="46.9513" lon="0.64579">
        <ele>87</ele>
        <time>2020-07-03T14:58:59Z</time>
      </trkpt>
      <trkpt lat="46.95125" lon="0.64573">
        <ele>87.1</ele>
        <time>2020-07-03T14:59:00Z</time>
      </trkpt>
      <trkpt lat="46.95119" lon="0.64567">
        <ele>87.3</ele>
        <time>2020-07-03T14:59:01Z</time>
      </trkpt>
      <trkpt lat="46.95114" lon="0.6456">
        <ele>87.5</ele>
        <time>2020-07-03T14:59:02Z</time>
      </trkpt>
      <trkpt lat="46.9511" lon="0.64554">
        <ele>87.6</ele>
        <time>2020-07-03T14:59:03Z</time>
      </trkpt>
      <trkpt lat="46.95104" lon="0.64548">
        <ele>87.7</ele>
        <time>2020-07-03T14:59:04Z</time>
      </trkpt>
      <trkpt lat="46.95099" lon="0.64544">
        <ele>87.8</ele>
        <time>2020-07-03T14:59:05Z</time>
      </trkpt>
      <trkpt lat="46.95095" lon="0.6454">
        <ele>87.9</ele>
        <time>2020-07-03T14:59:06Z</time>
      </trkpt>
      <trkpt lat="46.95091" lon="0.64536">
        <ele>88</ele>
        <time>2020-07-03T14:59:07Z</time>
      </trkpt>
      <trkpt lat="46.95087" lon="0.64531">
        <ele>88</ele>
        <time>2020-07-03T14:59:08Z</time>
      </trkpt>
      <trkpt lat="46.95082" lon="0.64524">
        <ele>88.1</ele>
        <time>2020-07-03T14:59:09Z</time>
      </trkpt>
      <trkpt lat="46.95078" lon="0.6452">
        <ele>88.1</ele>
        <time>2020-07-03T14:59:10Z</time>
      </trkpt>
      <trkpt lat="46.95074" lon="0.64516">
        <ele>88.2</ele>
        <time>2020-07-03T14:59:11Z</time>
      </trkpt>
      <trkpt lat="46.9507" lon="0.64512">
        <ele>88.2</ele>
        <time>2020-07-03T14:59:12Z</time>
      </trkpt>
      <trkpt lat="46.95066" lon="0.64507">
        <ele>88.2</ele>
        <time>2020-07-03T14:59:13Z</time>
      </trkpt>
      <trkpt lat="46.95063" lon="0.64503">
        <ele>88.2</ele>
        <time>2020-07-03T14:59:14Z</time>
      </trkpt>
      <trkpt lat="46.9506" lon="0.64499">
        <ele>88.2</ele>
        <time>2020-07-03T14:59:15Z</time>
      </trkpt>
      <trkpt lat="46.95056" lon="0.64495">
        <ele>88.3</ele>
        <time>2020-07-03T14:59:16Z</time>
      </trkpt>
      <trkpt lat="46.95053" lon="0.64491">
        <ele>88.3</ele>
        <time>2020-07-03T14:59:17Z</time>
      </trkpt>
      <trkpt lat="46.95048" lon="0.64487">
        <ele>88.4</ele>
        <time>2020-07-03T14:59:18Z</time>
      </trkpt>
      <trkpt lat="46.95044" lon="0.64483">
        <ele>88.5</ele>
        <time>2020-07-03T14:59:19Z</time>
      </trkpt>
      <trkpt lat="46.95039" lon="0.64478">
        <ele>88.6</ele>
        <time>2020-07-03T14:59:20Z</time>
      </trkpt>
      <trkpt lat="46.95036" lon="0.64473">
        <ele>88.7</ele>
        <time>2020-07-03T14:59:21Z</time>
      </trkpt>
      <trkpt lat="46.95032" lon="0.64469">
        <ele>88.9</ele>
        <time>2020-07-03T14:59:22Z</time>
      </trkpt>
      <trkpt lat="46.95028" lon="0.64464">
        <ele>89</ele>
        <time>2020-07-03T14:59:23Z</time>
      </trkpt>
      <trkpt lat="46.95025" lon="0.64459">
        <ele>89.2</ele>
        <time>2020-07-03T14:59:24Z</time>
      </trkpt>
      <trkpt lat="46.95022" lon="0.64457">
        <ele>89.2</ele>
        <time>2020-07-03T14:59:25Z</time>
      </trkpt>
      <trkpt lat="46.9502" lon="0.64454">
        <ele>89.4</ele>
        <time>2020-07-03T14:59:26Z</time>
      </trkpt>
      <trkpt lat="46.95015" lon="0.64448">
        <ele>89.6</ele>
        <time>2020-07-03T14:59:27Z</time>
      </trkpt>
      <trkpt lat="46.95012" lon="0.64444">
        <ele>89.8</ele>
        <time>2020-07-03T14:59:28Z</time>
      </trkpt>
      <trkpt lat="46.95009" lon="0.6444">
        <ele>90.1</ele>
        <time>2020-07-03T14:59:29Z</time>
      </trkpt>
      <trkpt lat="46.95006" lon="0.64437">
        <ele>90.2</ele>
        <time>2020-07-03T14:59:30Z</time>
      </trkpt>
      <trkpt lat="46.95001" lon="0.64432">
        <ele>90.3</ele>
        <time>2020-07-03T14:59:31Z</time>
      </trkpt>
      <trkpt lat="46.94998" lon="0.64427">
        <ele>90.5</ele>
        <time>2020-07-03T14:59:32Z</time>
      </trkpt>
      <trkpt lat="46.94995" lon="0.64423">
        <ele>90.6</ele>
        <time>2020-07-03T14:59:33Z</time>
      </trkpt>
      <trkpt lat="46.94992" lon="0.6442">
        <ele>90.8</ele>
        <time>2020-07-03T14:59:34Z</time>
      </trkpt>
      <trkpt lat="46.94989" lon="0.64417">
        <ele>91.3</ele>
        <time>2020-07-03T14:59:35Z</time>
      </trkpt>
      <trkpt lat="46.94986" lon="0.64415">
        <ele>91.8</ele>
        <time>2020-07-03T14:59:36Z</time>
      </trkpt>
      <trkpt lat="46.94984" lon="0.64413">
        <ele>92.2</ele>
        <time>2020-07-03T14:59:37Z</time>
      </trkpt>
      <trkpt lat="46.9498" lon="0.64409">
        <ele>92.6</ele>
        <time>2020-07-03T14:59:38Z</time>
      </trkpt>
      <trkpt lat="46.94977" lon="0.64405">
        <ele>92.8</ele>
        <time>2020-07-03T14:59:39Z</time>
      </trkpt>
      <trkpt lat="46.94974" lon="0.64401">
        <ele>93</ele>
        <time>2020-07-03T14:59:40Z</time>
      </trkpt>
      <trkpt lat="46.94971" lon="0.64398">
        <ele>93.2</ele>
        <time>2020-07-03T14:59:41Z</time>
      </trkpt>
      <trkpt lat="46.94968" lon="0.64394">
        <ele>93.4</ele>
        <time>2020-07-03T14:59:42Z</time>
      </trkpt>
      <trkpt lat="46.94964" lon="0.64392">
        <ele>93.6</ele>
        <time>2020-07-03T14:59:43Z</time>
      </trkpt>
      <trkpt lat="46.94962" lon="0.6439">
        <ele>93.6</ele>
        <time>2020-07-03T14:59:44Z</time>
      </trkpt>
      <trkpt lat="46.94958" lon="0.64384">
        <ele>93.9</ele>
        <time>2020-07-03T14:59:45Z</time>
      </trkpt>
      <trkpt lat="46.94954" lon="0.6438">
        <ele>94.1</ele>
        <time>2020-07-03T14:59:46Z</time>
      </trkpt>
      <trkpt lat="46.94952" lon="0.64378">
        <ele>94.2</ele>
        <time>2020-07-03T14:59:47Z</time>
      </trkpt>
      <trkpt lat="46.94949" lon="0.64375">
        <ele>94.4</ele>
        <time>2020-07-03T14:59:48Z</time>
      </trkpt>
      <trkpt lat="46.94946" lon="0.64372">
        <ele>94.4</ele>
        <time>2020-07-03T14:59:49Z</time>
      </trkpt>
      <trkpt lat="46.94943" lon="0.64368">
        <ele>94.5</ele>
        <time>2020-07-03T14:59:50Z</time>
      </trkpt>
      <trkpt lat="46.94939" lon="0.64364">
        <ele>94.6</ele>
        <time>2020-07-03T14:59:51Z</time>
      </trkpt>
      <trkpt lat="46.94935" lon="0.64359">
        <ele>94.6</ele>
        <time>2020-07-03T14:59:52Z</time>
      </trkpt>
      <trkpt lat="46.94931" lon="0.64355">
        <ele>94.7</ele>
        <time>2020-07-03T14:59:53Z</time>
      </trkpt>
      <trkpt lat="46.94926" lon="0.64351">
        <ele>94.8</ele>
        <time>2020-07-03T14:59:54Z</time>
      </trkpt>
      <trkpt lat="46.94923" lon="0.64348">
        <ele>94.9</ele>
        <time>2020-07-03T14:59:55Z</time>
      </trkpt>
      <trkpt lat="46.94921" lon="0.64342">
        <ele>95.1</ele>
        <time>2020-07-03T14:59:56Z</time>
      </trkpt>
      <trkpt lat="46.94918" lon="0.64339">
        <ele>95.2</ele>
        <time>2020-07-03T14:59:57Z</time>
      </trkpt>
      <trkpt lat="46.94916" lon="0.64336">
        <ele>95.3</ele>
        <time>2020-07-03T14:59:58Z</time>
      </trkpt>
      <trkpt lat="46.94912" lon="0.64332">
        <ele>95.4</ele>
        <time>2020-07-03T14:59:59Z</time>
      </trkpt>
      <trkpt lat="46.94909" lon="0.64328">
        <ele>95.6</ele>
        <time>2020-07-03T15:00:00Z</time>
      </trkpt>
      <trkpt lat="46.94906" lon="0.64324">
        <ele>95.7</ele>
        <time>2020-07-03T15:00:01Z</time>
      </trkpt>
      <trkpt lat="46.94903" lon="0.64321">
        <ele>95.8</ele>
        <time>2020-07-03T15:00:02Z</time>
      </trkpt>
      <trkpt lat="46.94899" lon="0.64316">
        <ele>96</ele>
        <time>2020-07-03T15:00:03Z</time>
      </trkpt>
      <trkpt lat="46.94897" lon="0.64313">
        <ele>96.1</ele>
        <time>2020-07-03T15:00:04Z</time>
      </trkpt>
      <trkpt lat="46.94893" lon="0.64309">
        <ele>96.2</ele>
        <time>2020-07-03T15:00:05Z</time>
      </trkpt>
      <trkpt lat="46.94891" lon="0.64306">
        <ele>96.3</ele>
        <time>2020-07-03T15:00:06Z</time>
      </trkpt>
      <trkpt lat="46.94887" lon="0.64302">
        <ele>96.4</ele>
        <time>2020-07-03T15:00:07Z</time>
      </trkpt>
      <trkpt lat="46.94884" lon="0.64298">
        <ele>96.5</ele>
        <time>2020-07-03T15:00:08Z</time>
      </trkpt>
      <trkpt lat="46.94881" lon="0.64294">
        <ele>96.6</ele>
        <time>2020-07-03T15:00:09Z</time>
      </trkpt>
      <trkpt lat="46.94878" lon="0.64291">
        <ele>96.6</ele>
        <time>2020-07-03T15:00:10Z</time>
      </trkpt>
      <trkpt lat="46.94875" lon="0.64288">
        <ele>96.7</ele>
        <time>2020-07-03T15:00:11Z</time>
      </trkpt>
      <trkpt lat="46.94872" lon="0.64285">
        <ele>96.8</ele>
        <time>2020-07-03T15:00:12Z</time>
      </trkpt>
      <trkpt lat="46.9487" lon="0.64282">
        <ele>96.8</ele>
        <time>2020-07-03T15:00:13Z</time>
      </trkpt>
      <trkpt lat="46.94867" lon="0.64279">
        <ele>96.9</ele>
        <time>2020-07-03T15:00:14Z</time>
      </trkpt>
      <trkpt lat="46.94865" lon="0.64276">
        <ele>96.9</ele>
        <time>2020-07-03T15:00:15Z</time>
      </trkpt>
      <trkpt lat="46.94861" lon="0.64272">
        <ele>97</ele>
        <time>2020-07-03T15:00:16Z</time>
      </trkpt>
      <trkpt lat="46.94858" lon="0.64269">
        <ele>97</ele>
        <time>2020-07-03T15:00:17Z</time>
      </trkpt>
      <trkpt lat="46.94854" lon="0.64264">
        <ele>97</ele>
        <time>2020-07-03T15:00:18Z</time>
      </trkpt>
      <trkpt lat="46.9485" lon="0.64261">
        <ele>97</ele>
        <time>2020-07-03T15:00:19Z</time>
      </trkpt>
      <trkpt lat="46.94848" lon="0.64259">
        <ele>97</ele>
        <time>2020-07-03T15:00:20Z</time>
      </trkpt>
      <trkpt lat="46.94844" lon="0.64254">
        <ele>97</ele>
        <time>2020-07-03T15:00:21Z</time>
      </trkpt>
      <trkpt lat="46.94841" lon="0.6425">
        <ele>97</ele>
        <time>2020-07-03T15:00:22Z</time>
      </trkpt>
      <trkpt lat="46.94838" lon="0.64246">
        <ele>97</ele>
        <time>2020-07-03T15:00:23Z</time>
      </trkpt>
      <trkpt lat="46.94835" lon="0.64242">
        <ele>97.1</ele>
        <time>2020-07-03T15:00:24Z</time>
      </trkpt>
      <trkpt lat="46.9483" lon="0.64235">
        <ele>97.1</ele>
        <time>2020-07-03T15:00:25Z</time>
      </trkpt>
      <trkpt lat="46.94826" lon="0.64231">
        <ele>97.2</ele>
        <time>2020-07-03T15:00:26Z</time>
      </trkpt>
      <trkpt lat="46.94824" lon="0.64229">
        <ele>97.2</ele>
        <time>2020-07-03T15:00:27Z</time>
      </trkpt>
      <trkpt lat="46.9482" lon="0.64225">
        <ele>97.3</ele>
        <time>2020-07-03T15:00:28Z</time>
      </trkpt>
      <trkpt lat="46.94816" lon="0.6422">
        <ele>97.4</ele>
        <time>2020-07-03T15:00:29Z</time>
      </trkpt>
      <trkpt lat="46.94812" lon="0.64216">
        <ele>97.4</ele>
        <time>2020-07-03T15:00:30Z</time>
      </trkpt>
      <trkpt lat="46.94808" lon="0.64212">
        <ele>97.4</ele>
        <time>2020-07-03T15:00:31Z</time>
      </trkpt>
      <trkpt lat="46.94806" lon="0.64209">
        <ele>97.4</ele>
        <time>2020-07-03T15:00:32Z</time>
      </trkpt>
      <trkpt lat="46.94802" lon="0.64204">
        <ele>97.5</ele>
        <time>2020-07-03T15:00:33Z</time>
      </trkpt>
      <trkpt lat="46.94798" lon="0.64199">
        <ele>97.5</ele>
        <time>2020-07-03T15:00:34Z</time>
      </trkpt>
      <trkpt lat="46.94794" lon="0.64194">
        <ele>97.6</ele>
        <time>2020-07-03T15:00:35Z</time>
      </trkpt>
      <trkpt lat="46.94789" lon="0.6419">
        <ele>97.6</ele>
        <time>2020-07-03T15:00:36Z</time>
      </trkpt>
      <trkpt lat="46.94785" lon="0.64185">
        <ele>97.6</ele>
        <time>2020-07-03T15:00:37Z</time>
      </trkpt>
      <trkpt lat="46.94781" lon="0.64181">
        <ele>97.5</ele>
        <time>2020-07-03T15:00:38Z</time>
      </trkpt>
      <trkpt lat="46.94777" lon="0.64176">
        <ele>97.5</ele>
        <time>2020-07-03T15:00:39Z</time>
      </trkpt>
      <trkpt lat="46.94773" lon="0.64171">
        <ele>97.5</ele>
        <time>2020-07-03T15:00:40Z</time>
      </trkpt>
      <trkpt lat="46.9477" lon="0.64166">
        <ele>97.5</ele>
        <time>2020-07-03T15:00:41Z</time>
      </trkpt>
      <trkpt lat="46.94766" lon="0.64162">
        <ele>97.4</ele>
        <time>2020-07-03T15:00:42Z</time>
      </trkpt>
      <trkpt lat="46.94761" lon="0.64158">
        <ele>97.4</ele>
        <time>2020-07-03T15:00:43Z</time>
      </trkpt>
      <trkpt lat="46.94759" lon="0.64156">
        <ele>97.5</ele>
        <time>2020-07-03T15:00:44Z</time>
      </trkpt>
      <trkpt lat="46.94754" lon="0.64151">
        <ele>97.5</ele>
        <time>2020-07-03T15:00:45Z</time>
      </trkpt>
      <trkpt lat="46.94749" lon="0.64145">
        <ele>97.5</ele>
        <time>2020-07-03T15:00:46Z</time>
      </trkpt>
      <trkpt lat="46.94745" lon="0.6414">
        <ele>97.5</ele>
        <time>2020-07-03T15:00:47Z</time>
      </trkpt>
      <trkpt lat="46.94742" lon="0.64135">
        <ele>97.5</ele>
        <time>2020-07-03T15:00:48Z</time>
      </trkpt>
      <trkpt lat="46.94738" lon="0.6413">
        <ele>97.5</ele>
        <time>2020-07-03T15:00:49Z</time>
      </trkpt>
      <trkpt lat="46.94733" lon="0.64125">
        <ele>97.4</ele>
        <time>2020-07-03T15:00:50Z</time>
      </trkpt>
      <trkpt lat="46.94728" lon="0.6412">
        <ele>97.3</ele>
        <time>2020-07-03T15:00:51Z</time>
      </trkpt>
      <trkpt lat="46.94724" lon="0.64115">
        <ele>97.3</ele>
        <time>2020-07-03T15:00:52Z</time>
      </trkpt>
      <trkpt lat="46.94721" lon="0.6411">
        <ele>97.2</ele>
        <time>2020-07-03T15:00:53Z</time>
      </trkpt>
      <trkpt lat="46.94717" lon="0.64106">
        <ele>97.1</ele>
        <time>2020-07-03T15:00:54Z</time>
      </trkpt>
      <trkpt lat="46.94713" lon="0.64101">
        <ele>97.1</ele>
        <time>2020-07-03T15:00:55Z</time>
      </trkpt>
      <trkpt lat="46.94708" lon="0.64096">
        <ele>97</ele>
        <time>2020-07-03T15:00:56Z</time>
      </trkpt>
      <trkpt lat="46.94704" lon="0.64092">
        <ele>97</ele>
        <time>2020-07-03T15:00:57Z</time>
      </trkpt>
      <trkpt lat="46.94699" lon="0.64087">
        <ele>96.9</ele>
        <time>2020-07-03T15:00:58Z</time>
      </trkpt>
      <trkpt lat="46.94695" lon="0.64082">
        <ele>96.9</ele>
        <time>2020-07-03T15:00:59Z</time>
      </trkpt>
      <trkpt lat="46.9469" lon="0.64076">
        <ele>96.8</ele>
        <time>2020-07-03T15:01:00Z</time>
      </trkpt>
      <trkpt lat="46.94685" lon="0.64072">
        <ele>96.8</ele>
        <time>2020-07-03T15:01:01Z</time>
      </trkpt>
      <trkpt lat="46.9468" lon="0.64065">
        <ele>96.7</ele>
        <time>2020-07-03T15:01:02Z</time>
      </trkpt>
      <trkpt lat="46.94675" lon="0.6406">
        <ele>96.7</ele>
        <time>2020-07-03T15:01:03Z</time>
      </trkpt>
      <trkpt lat="46.94671" lon="0.64055">
        <ele>96.6</ele>
        <time>2020-07-03T15:01:04Z</time>
      </trkpt>
      <trkpt lat="46.94666" lon="0.64049">
        <ele>96.6</ele>
        <time>2020-07-03T15:01:05Z</time>
      </trkpt>
      <trkpt lat="46.94662" lon="0.64044">
        <ele>96.6</ele>
        <time>2020-07-03T15:01:06Z</time>
      </trkpt>
      <trkpt lat="46.94658" lon="0.64039">
        <ele>96.6</ele>
        <time>2020-07-03T15:01:07Z</time>
      </trkpt>
      <trkpt lat="46.94653" lon="0.64033">
        <ele>96.7</ele>
        <time>2020-07-03T15:01:08Z</time>
      </trkpt>
      <trkpt lat="46.94649" lon="0.64028">
        <ele>96.7</ele>
        <time>2020-07-03T15:01:09Z</time>
      </trkpt>
      <trkpt lat="46.94644" lon="0.64023">
        <ele>96.8</ele>
        <time>2020-07-03T15:01:10Z</time>
      </trkpt>
      <trkpt lat="46.94639" lon="0.64018">
        <ele>96.9</ele>
        <time>2020-07-03T15:01:11Z</time>
      </trkpt>
      <trkpt lat="46.94634" lon="0.64013">
        <ele>97</ele>
        <time>2020-07-03T15:01:12Z</time>
      </trkpt>
      <trkpt lat="46.9463" lon="0.64008">
        <ele>97.1</ele>
        <time>2020-07-03T15:01:13Z</time>
      </trkpt>
      <trkpt lat="46.94626" lon="0.64004">
        <ele>97.1</ele>
        <time>2020-07-03T15:01:14Z</time>
      </trkpt>
      <trkpt lat="46.94621" lon="0.63996">
        <ele>97.1</ele>
        <time>2020-07-03T15:01:15Z</time>
      </trkpt>
      <trkpt lat="46.94616" lon="0.63992">
        <ele>97.1</ele>
        <time>2020-07-03T15:01:16Z</time>
      </trkpt>
      <trkpt lat="46.94612" lon="0.63987">
        <ele>97.1</ele>
        <time>2020-07-03T15:01:17Z</time>
      </trkpt>
      <trkpt lat="46.94608" lon="0.63982">
        <ele>97.1</ele>
        <time>2020-07-03T15:01:18Z</time>
      </trkpt>
      <trkpt lat="46.94605" lon="0.6398">
        <ele>97.1</ele>
        <time>2020-07-03T15:01:19Z</time>
      </trkpt>
      <trkpt lat="46.94602" lon="0.63975">
        <ele>97.1</ele>
        <time>2020-07-03T15:01:20Z</time>
      </trkpt>
      <trkpt lat="46.94598" lon="0.6397">
        <ele>97.1</ele>
        <time>2020-07-03T15:01:21Z</time>
      </trkpt>
      <trkpt lat="46.94593" lon="0.63965">
        <ele>97.1</ele>
        <time>2020-07-03T15:01:22Z</time>
      </trkpt>
      <trkpt lat="46.94588" lon="0.6396">
        <ele>97</ele>
        <time>2020-07-03T15:01:23Z</time>
      </trkpt>
      <trkpt lat="46.94584" lon="0.63954">
        <ele>97</ele>
        <time>2020-07-03T15:01:24Z</time>
      </trkpt>
      <trkpt lat="46.94579" lon="0.63949">
        <ele>96.9</ele>
        <time>2020-07-03T15:01:25Z</time>
      </trkpt>
      <trkpt lat="46.94575" lon="0.63943">
        <ele>96.9</ele>
        <time>2020-07-03T15:01:26Z</time>
      </trkpt>
      <trkpt lat="46.9457" lon="0.63938">
        <ele>96.8</ele>
        <time>2020-07-03T15:01:27Z</time>
      </trkpt>
      <trkpt lat="46.94564" lon="0.63931">
        <ele>96.7</ele>
        <time>2020-07-03T15:01:28Z</time>
      </trkpt>
      <trkpt lat="46.94558" lon="0.63925">
        <ele>96.6</ele>
        <time>2020-07-03T15:01:29Z</time>
      </trkpt>
      <trkpt lat="46.94553" lon="0.63919">
        <ele>96.5</ele>
        <time>2020-07-03T15:01:30Z</time>
      </trkpt>
      <trkpt lat="46.94549" lon="0.63913">
        <ele>96.5</ele>
        <time>2020-07-03T15:01:31Z</time>
      </trkpt>
      <trkpt lat="46.94544" lon="0.63906">
        <ele>96.4</ele>
        <time>2020-07-03T15:01:32Z</time>
      </trkpt>
      <trkpt lat="46.9454" lon="0.63901">
        <ele>96.4</ele>
        <time>2020-07-03T15:01:33Z</time>
      </trkpt>
      <trkpt lat="46.94535" lon="0.63896">
        <ele>96.4</ele>
        <time>2020-07-03T15:01:34Z</time>
      </trkpt>
      <trkpt lat="46.9453" lon="0.63891">
        <ele>96.4</ele>
        <time>2020-07-03T15:01:35Z</time>
      </trkpt>
      <trkpt lat="46.94525" lon="0.63885">
        <ele>96.4</ele>
        <time>2020-07-03T15:01:36Z</time>
      </trkpt>
      <trkpt lat="46.9452" lon="0.6388">
        <ele>96.4</ele>
        <time>2020-07-03T15:01:37Z</time>
      </trkpt>
      <trkpt lat="46.94515" lon="0.63875">
        <ele>96.3</ele>
        <time>2020-07-03T15:01:38Z</time>
      </trkpt>
      <trkpt lat="46.94509" lon="0.63869">
        <ele>96.3</ele>
        <time>2020-07-03T15:01:39Z</time>
      </trkpt>
      <trkpt lat="46.94505" lon="0.63863">
        <ele>96.2</ele>
        <time>2020-07-03T15:01:40Z</time>
      </trkpt>
      <trkpt lat="46.945" lon="0.63857">
        <ele>96.1</ele>
        <time>2020-07-03T15:01:41Z</time>
      </trkpt>
      <trkpt lat="46.94495" lon="0.63852">
        <ele>96</ele>
        <time>2020-07-03T15:01:42Z</time>
      </trkpt>
      <trkpt lat="46.9449" lon="0.63846">
        <ele>95.9</ele>
        <time>2020-07-03T15:01:43Z</time>
      </trkpt>
      <trkpt lat="46.94485" lon="0.63841">
        <ele>95.8</ele>
        <time>2020-07-03T15:01:44Z</time>
      </trkpt>
      <trkpt lat="46.9448" lon="0.63836">
        <ele>95.8</ele>
        <time>2020-07-03T15:01:45Z</time>
      </trkpt>
      <trkpt lat="46.94476" lon="0.63831">
        <ele>95.7</ele>
        <time>2020-07-03T15:01:46Z</time>
      </trkpt>
      <trkpt lat="46.9447" lon="0.63825">
        <ele>95.7</ele>
        <time>2020-07-03T15:01:47Z</time>
      </trkpt>
      <trkpt lat="46.94465" lon="0.6382">
        <ele>95.6</ele>
        <time>2020-07-03T15:01:48Z</time>
      </trkpt>
      <trkpt lat="46.9446" lon="0.63814">
        <ele>95.5</ele>
        <time>2020-07-03T15:01:49Z</time>
      </trkpt>
      <trkpt lat="46.94456" lon="0.63808">
        <ele>95.5</ele>
        <time>2020-07-03T15:01:50Z</time>
      </trkpt>
      <trkpt lat="46.94452" lon="0.63803">
        <ele>95.4</ele>
        <time>2020-07-03T15:01:51Z</time>
      </trkpt>
      <trkpt lat="46.94446" lon="0.63797">
        <ele>95.3</ele>
        <time>2020-07-03T15:01:52Z</time>
      </trkpt>
      <trkpt lat="46.94441" lon="0.6379">
        <ele>95.1</ele>
        <time>2020-07-03T15:01:53Z</time>
      </trkpt>
      <trkpt lat="46.94436" lon="0.63785">
        <ele>95</ele>
        <time>2020-07-03T15:01:54Z</time>
      </trkpt>
      <trkpt lat="46.9443" lon="0.63779">
        <ele>94.9</ele>
        <time>2020-07-03T15:01:55Z</time>
      </trkpt>
      <trkpt lat="46.94425" lon="0.63773">
        <ele>94.9</ele>
        <time>2020-07-03T15:01:56Z</time>
      </trkpt>
      <trkpt lat="46.9442" lon="0.63768">
        <ele>94.8</ele>
        <time>2020-07-03T15:01:57Z</time>
      </trkpt>
      <trkpt lat="46.94416" lon="0.63762">
        <ele>94.9</ele>
        <time>2020-07-03T15:01:58Z</time>
      </trkpt>
      <trkpt lat="46.9441" lon="0.63756">
        <ele>94.9</ele>
        <time>2020-07-03T15:01:59Z</time>
      </trkpt>
      <trkpt lat="46.94405" lon="0.63749">
        <ele>95.1</ele>
        <time>2020-07-03T15:02:00Z</time>
      </trkpt>
      <trkpt lat="46.944" lon="0.63743">
        <ele>95.3</ele>
        <time>2020-07-03T15:02:01Z</time>
      </trkpt>
      <trkpt lat="46.94395" lon="0.63738">
        <ele>95.3</ele>
        <time>2020-07-03T15:02:02Z</time>
      </trkpt>
      <trkpt lat="46.9439" lon="0.63732">
        <ele>95.2</ele>
        <time>2020-07-03T15:02:03Z</time>
      </trkpt>
      <trkpt lat="46.94385" lon="0.63727">
        <ele>95.1</ele>
        <time>2020-07-03T15:02:04Z</time>
      </trkpt>
      <trkpt lat="46.9438" lon="0.63721">
        <ele>95</ele>
        <time>2020-07-03T15:02:05Z</time>
      </trkpt>
      <trkpt lat="46.94375" lon="0.63715">
        <ele>94.8</ele>
        <time>2020-07-03T15:02:06Z</time>
      </trkpt>
      <trkpt lat="46.9437" lon="0.63709">
        <ele>94.7</ele>
        <time>2020-07-03T15:02:07Z</time>
      </trkpt>
      <trkpt lat="46.94364" lon="0.63703">
        <ele>94.7</ele>
        <time>2020-07-03T15:02:08Z</time>
      </trkpt>
      <trkpt lat="46.9436" lon="0.63697">
        <ele>94.6</ele>
        <time>2020-07-03T15:02:09Z</time>
      </trkpt>
      <trkpt lat="46.94355" lon="0.63691">
        <ele>94.6</ele>
        <time>2020-07-03T15:02:10Z</time>
      </trkpt>
      <trkpt lat="46.94349" lon="0.63685">
        <ele>94.5</ele>
        <time>2020-07-03T15:02:11Z</time>
      </trkpt>
      <trkpt lat="46.94344" lon="0.63679">
        <ele>94.5</ele>
        <time>2020-07-03T15:02:12Z</time>
      </trkpt>
      <trkpt lat="46.94338" lon="0.63673">
        <ele>94.4</ele>
        <time>2020-07-03T15:02:13Z</time>
      </trkpt>
      <trkpt lat="46.94333" lon="0.63667">
        <ele>94.3</ele>
        <time>2020-07-03T15:02:14Z</time>
      </trkpt>
      <trkpt lat="46.94328" lon="0.63661">
        <ele>94.3</ele>
        <time>2020-07-03T15:02:15Z</time>
      </trkpt>
      <trkpt lat="46.94322" lon="0.63654">
        <ele>94.2</ele>
        <time>2020-07-03T15:02:16Z</time>
      </trkpt>
      <trkpt lat="46.94317" lon="0.63649">
        <ele>94.2</ele>
        <time>2020-07-03T15:02:17Z</time>
      </trkpt>
      <trkpt lat="46.94312" lon="0.63643">
        <ele>94.2</ele>
        <time>2020-07-03T15:02:18Z</time>
      </trkpt>
      <trkpt lat="46.94307" lon="0.63638">
        <ele>94.1</ele>
        <time>2020-07-03T15:02:19Z</time>
      </trkpt>
      <trkpt lat="46.94301" lon="0.63632">
        <ele>94.1</ele>
        <time>2020-07-03T15:02:20Z</time>
      </trkpt>
      <trkpt lat="46.94296" lon="0.63627">
        <ele>94.1</ele>
        <time>2020-07-03T15:02:21Z</time>
      </trkpt>
      <trkpt lat="46.94291" lon="0.6362">
        <ele>94.1</ele>
        <time>2020-07-03T15:02:22Z</time>
      </trkpt>
      <trkpt lat="46.94286" lon="0.63614">
        <ele>94.1</ele>
        <time>2020-07-03T15:02:23Z</time>
      </trkpt>
      <trkpt lat="46.94281" lon="0.63609">
        <ele>94.1</ele>
        <time>2020-07-03T15:02:24Z</time>
      </trkpt>
      <trkpt lat="46.94276" lon="0.63603">
        <ele>94.1</ele>
        <time>2020-07-03T15:02:25Z</time>
      </trkpt>
      <trkpt lat="46.94271" lon="0.63598">
        <ele>94.1</ele>
        <time>2020-07-03T15:02:26Z</time>
      </trkpt>
      <trkpt lat="46.94266" lon="0.63591">
        <ele>94.1</ele>
        <time>2020-07-03T15:02:27Z</time>
      </trkpt>
      <trkpt lat="46.94261" lon="0.63585">
        <ele>94.2</ele>
        <time>2020-07-03T15:02:28Z</time>
      </trkpt>
      <trkpt lat="46.94256" lon="0.6358">
        <ele>94.1</ele>
        <time>2020-07-03T15:02:29Z</time>
      </trkpt>
      <trkpt lat="46.9425" lon="0.63575">
        <ele>94.1</ele>
        <time>2020-07-03T15:02:30Z</time>
      </trkpt>
      <trkpt lat="46.94245" lon="0.63569">
        <ele>94.1</ele>
        <time>2020-07-03T15:02:31Z</time>
      </trkpt>
      <trkpt lat="46.9424" lon="0.63564">
        <ele>94.1</ele>
        <time>2020-07-03T15:02:32Z</time>
      </trkpt>
      <trkpt lat="46.94235" lon="0.63557">
        <ele>94.1</ele>
        <time>2020-07-03T15:02:33Z</time>
      </trkpt>
      <trkpt lat="46.94231" lon="0.63551">
        <ele>94.1</ele>
        <time>2020-07-03T15:02:34Z</time>
      </trkpt>
      <trkpt lat="46.94226" lon="0.63546">
        <ele>94.1</ele>
        <time>2020-07-03T15:02:35Z</time>
      </trkpt>
      <trkpt lat="46.94221" lon="0.63541">
        <ele>94.1</ele>
        <time>2020-07-03T15:02:36Z</time>
      </trkpt>
      <trkpt lat="46.94216" lon="0.63535">
        <ele>94.1</ele>
        <time>2020-07-03T15:02:37Z</time>
      </trkpt>
      <trkpt lat="46.94211" lon="0.6353">
        <ele>94.1</ele>
        <time>2020-07-03T15:02:38Z</time>
      </trkpt>
      <trkpt lat="46.94206" lon="0.63524">
        <ele>94</ele>
        <time>2020-07-03T15:02:39Z</time>
      </trkpt>
      <trkpt lat="46.94201" lon="0.63518">
        <ele>94</ele>
        <time>2020-07-03T15:02:40Z</time>
      </trkpt>
      <trkpt lat="46.94196" lon="0.63513">
        <ele>94.1</ele>
        <time>2020-07-03T15:02:41Z</time>
      </trkpt>
      <trkpt lat="46.94192" lon="0.63507">
        <ele>94.1</ele>
        <time>2020-07-03T15:02:42Z</time>
      </trkpt>
      <trkpt lat="46.94187" lon="0.63501">
        <ele>94.1</ele>
        <time>2020-07-03T15:02:43Z</time>
      </trkpt>
      <trkpt lat="46.94183" lon="0.63495">
        <ele>94.1</ele>
        <time>2020-07-03T15:02:44Z</time>
      </trkpt>
      <trkpt lat="46.94177" lon="0.63489">
        <ele>94</ele>
        <time>2020-07-03T15:02:45Z</time>
      </trkpt>
      <trkpt lat="46.94172" lon="0.63484">
        <ele>94.1</ele>
        <time>2020-07-03T15:02:46Z</time>
      </trkpt>
      <trkpt lat="46.94168" lon="0.63478">
        <ele>94.6</ele>
        <time>2020-07-03T15:02:47Z</time>
      </trkpt>
      <trkpt lat="46.94163" lon="0.63473">
        <ele>94.9</ele>
        <time>2020-07-03T15:02:48Z</time>
      </trkpt>
      <trkpt lat="46.94157" lon="0.63466">
        <ele>94.9</ele>
        <time>2020-07-03T15:02:49Z</time>
      </trkpt>
      <trkpt lat="46.94152" lon="0.63461">
        <ele>94.9</ele>
        <time>2020-07-03T15:02:50Z</time>
      </trkpt>
      <trkpt lat="46.94147" lon="0.63455">
        <ele>94.8</ele>
        <time>2020-07-03T15:02:51Z</time>
      </trkpt>
      <trkpt lat="46.94141" lon="0.63449">
        <ele>94.8</ele>
        <time>2020-07-03T15:02:52Z</time>
      </trkpt>
      <trkpt lat="46.94137" lon="0.63443">
        <ele>94.8</ele>
        <time>2020-07-03T15:02:53Z</time>
      </trkpt>
      <trkpt lat="46.94132" lon="0.63437">
        <ele>94.8</ele>
        <time>2020-07-03T15:02:54Z</time>
      </trkpt>
      <trkpt lat="46.94126" lon="0.63432">
        <ele>94.8</ele>
        <time>2020-07-03T15:02:55Z</time>
      </trkpt>
      <trkpt lat="46.9412" lon="0.63428">
        <ele>94.7</ele>
        <time>2020-07-03T15:02:56Z</time>
      </trkpt>
      <trkpt lat="46.94116" lon="0.63422">
        <ele>94.7</ele>
        <time>2020-07-03T15:02:57Z</time>
      </trkpt>
      <trkpt lat="46.94111" lon="0.63416">
        <ele>94.7</ele>
        <time>2020-07-03T15:02:58Z</time>
      </trkpt>
      <trkpt lat="46.94106" lon="0.6341">
        <ele>94.7</ele>
        <time>2020-07-03T15:02:59Z</time>
      </trkpt>
      <trkpt lat="46.94102" lon="0.63404">
        <ele>94.6</ele>
        <time>2020-07-03T15:03:00Z</time>
      </trkpt>
      <trkpt lat="46.94096" lon="0.63399">
        <ele>94.6</ele>
        <time>2020-07-03T15:03:01Z</time>
      </trkpt>
      <trkpt lat="46.94091" lon="0.63394">
        <ele>94.5</ele>
        <time>2020-07-03T15:03:02Z</time>
      </trkpt>
      <trkpt lat="46.94087" lon="0.63388">
        <ele>94.4</ele>
        <time>2020-07-03T15:03:03Z</time>
      </trkpt>
      <trkpt lat="46.94082" lon="0.63383">
        <ele>94.4</ele>
        <time>2020-07-03T15:03:04Z</time>
      </trkpt>
      <trkpt lat="46.94077" lon="0.63378">
        <ele>94.3</ele>
        <time>2020-07-03T15:03:05Z</time>
      </trkpt>
      <trkpt lat="46.94072" lon="0.63373">
        <ele>94.2</ele>
        <time>2020-07-03T15:03:06Z</time>
      </trkpt>
      <trkpt lat="46.94068" lon="0.63366">
        <ele>94.1</ele>
        <time>2020-07-03T15:03:07Z</time>
      </trkpt>
      <trkpt lat="46.94063" lon="0.63359">
        <ele>94</ele>
        <time>2020-07-03T15:03:08Z</time>
      </trkpt>
      <trkpt lat="46.94059" lon="0.63355">
        <ele>93.9</ele>
        <time>2020-07-03T15:03:09Z</time>
      </trkpt>
      <trkpt lat="46.94054" lon="0.6335">
        <ele>93.8</ele>
        <time>2020-07-03T15:03:10Z</time>
      </trkpt>
      <trkpt lat="46.94048" lon="0.63343">
        <ele>93.6</ele>
        <time>2020-07-03T15:03:11Z</time>
      </trkpt>
      <trkpt lat="46.94043" lon="0.63338">
        <ele>93.5</ele>
        <time>2020-07-03T15:03:12Z</time>
      </trkpt>
      <trkpt lat="46.94038" lon="0.63332">
        <ele>93.3</ele>
        <time>2020-07-03T15:03:13Z</time>
      </trkpt>
      <trkpt lat="46.94033" lon="0.63327">
        <ele>93.1</ele>
        <time>2020-07-03T15:03:14Z</time>
      </trkpt>
      <trkpt lat="46.94027" lon="0.63321">
        <ele>93</ele>
        <time>2020-07-03T15:03:15Z</time>
      </trkpt>
      <trkpt lat="46.94021" lon="0.63315">
        <ele>92.8</ele>
        <time>2020-07-03T15:03:16Z</time>
      </trkpt>
      <trkpt lat="46.94015" lon="0.63309">
        <ele>92.6</ele>
        <time>2020-07-03T15:03:17Z</time>
      </trkpt>
      <trkpt lat="46.94009" lon="0.63303">
        <ele>92.5</ele>
        <time>2020-07-03T15:03:18Z</time>
      </trkpt>
      <trkpt lat="46.94004" lon="0.63296">
        <ele>92.3</ele>
        <time>2020-07-03T15:03:19Z</time>
      </trkpt>
      <trkpt lat="46.93999" lon="0.6329">
        <ele>92.1</ele>
        <time>2020-07-03T15:03:20Z</time>
      </trkpt>
      <trkpt lat="46.93993" lon="0.63283">
        <ele>92</ele>
        <time>2020-07-03T15:03:21Z</time>
      </trkpt>
      <trkpt lat="46.93987" lon="0.63277">
        <ele>91.8</ele>
        <time>2020-07-03T15:03:22Z</time>
      </trkpt>
      <trkpt lat="46.93982" lon="0.6327">
        <ele>91.7</ele>
        <time>2020-07-03T15:03:23Z</time>
      </trkpt>
      <trkpt lat="46.93976" lon="0.63263">
        <ele>91.6</ele>
        <time>2020-07-03T15:03:24Z</time>
      </trkpt>
      <trkpt lat="46.9397" lon="0.63257">
        <ele>91.5</ele>
        <time>2020-07-03T15:03:25Z</time>
      </trkpt>
      <trkpt lat="46.93964" lon="0.63251">
        <ele>91.5</ele>
        <time>2020-07-03T15:03:26Z</time>
      </trkpt>
      <trkpt lat="46.93958" lon="0.63244">
        <ele>91.4</ele>
        <time>2020-07-03T15:03:27Z</time>
      </trkpt>
      <trkpt lat="46.93952" lon="0.63237">
        <ele>91.4</ele>
        <time>2020-07-03T15:03:28Z</time>
      </trkpt>
      <trkpt lat="46.93946" lon="0.63231">
        <ele>91.3</ele>
        <time>2020-07-03T15:03:29Z</time>
      </trkpt>
      <trkpt lat="46.93941" lon="0.63223">
        <ele>91.2</ele>
        <time>2020-07-03T15:03:30Z</time>
      </trkpt>
      <trkpt lat="46.93935" lon="0.63216">
        <ele>91.1</ele>
        <time>2020-07-03T15:03:31Z</time>
      </trkpt>
      <trkpt lat="46.93929" lon="0.63209">
        <ele>90.9</ele>
        <time>2020-07-03T15:03:32Z</time>
      </trkpt>
      <trkpt lat="46.93925" lon="0.63201">
        <ele>90.7</ele>
        <time>2020-07-03T15:03:33Z</time>
      </trkpt>
      <trkpt lat="46.9392" lon="0.63192">
        <ele>90.6</ele>
        <time>2020-07-03T15:03:34Z</time>
      </trkpt>
      <trkpt lat="46.93915" lon="0.63185">
        <ele>90.5</ele>
        <time>2020-07-03T15:03:35Z</time>
      </trkpt>
      <trkpt lat="46.9391" lon="0.63176">
        <ele>90.4</ele>
        <time>2020-07-03T15:03:36Z</time>
      </trkpt>
      <trkpt lat="46.93906" lon="0.63167">
        <ele>90.3</ele>
        <time>2020-07-03T15:03:37Z</time>
      </trkpt>
      <trkpt lat="46.93902" lon="0.63158">
        <ele>90.2</ele>
        <time>2020-07-03T15:03:38Z</time>
      </trkpt>
      <trkpt lat="46.93898" lon="0.63149">
        <ele>90.1</ele>
        <time>2020-07-03T15:03:39Z</time>
      </trkpt>
      <trkpt lat="46.93895" lon="0.63141">
        <ele>90</ele>
        <time>2020-07-03T15:03:40Z</time>
      </trkpt>
      <trkpt lat="46.93891" lon="0.63133">
        <ele>89.9</ele>
        <time>2020-07-03T15:03:41Z</time>
      </trkpt>
      <trkpt lat="46.93888" lon="0.63124">
        <ele>89.8</ele>
        <time>2020-07-03T15:03:42Z</time>
      </trkpt>
      <trkpt lat="46.93885" lon="0.63116">
        <ele>89.7</ele>
        <time>2020-07-03T15:03:43Z</time>
      </trkpt>
      <trkpt lat="46.93882" lon="0.63108">
        <ele>89.6</ele>
        <time>2020-07-03T15:03:44Z</time>
      </trkpt>
      <trkpt lat="46.9388" lon="0.631">
        <ele>89.4</ele>
        <time>2020-07-03T15:03:45Z</time>
      </trkpt>
      <trkpt lat="46.93878" lon="0.63092">
        <ele>89.3</ele>
        <time>2020-07-03T15:03:46Z</time>
      </trkpt>
      <trkpt lat="46.93875" lon="0.63083">
        <ele>89.2</ele>
        <time>2020-07-03T15:03:47Z</time>
      </trkpt>
      <trkpt lat="46.93873" lon="0.63074">
        <ele>89.1</ele>
        <time>2020-07-03T15:03:48Z</time>
      </trkpt>
      <trkpt lat="46.93871" lon="0.63065">
        <ele>89</ele>
        <time>2020-07-03T15:03:49Z</time>
      </trkpt>
      <trkpt lat="46.93869" lon="0.63057">
        <ele>89</ele>
        <time>2020-07-03T15:03:50Z</time>
      </trkpt>
      <trkpt lat="46.93867" lon="0.63048">
        <ele>88.9</ele>
        <time>2020-07-03T15:03:51Z</time>
      </trkpt>
      <trkpt lat="46.93866" lon="0.6304">
        <ele>88.9</ele>
        <time>2020-07-03T15:03:52Z</time>
      </trkpt>
      <trkpt lat="46.93864" lon="0.63031">
        <ele>88.9</ele>
        <time>2020-07-03T15:03:53Z</time>
      </trkpt>
      <trkpt lat="46.93861" lon="0.63024">
        <ele>88.9</ele>
        <time>2020-07-03T15:03:54Z</time>
      </trkpt>
      <trkpt lat="46.93858" lon="0.63015">
        <ele>88.9</ele>
        <time>2020-07-03T15:03:55Z</time>
      </trkpt>
      <trkpt lat="46.93856" lon="0.63006">
        <ele>89</ele>
        <time>2020-07-03T15:03:56Z</time>
      </trkpt>
      <trkpt lat="46.93854" lon="0.62996">
        <ele>89.2</ele>
        <time>2020-07-03T15:03:57Z</time>
      </trkpt>
      <trkpt lat="46.93853" lon="0.62987">
        <ele>89.4</ele>
        <time>2020-07-03T15:03:58Z</time>
      </trkpt>
      <trkpt lat="46.93851" lon="0.62977">
        <ele>89.4</ele>
        <time>2020-07-03T15:03:59Z</time>
      </trkpt>
      <trkpt lat="46.9385" lon="0.62969">
        <ele>89.3</ele>
        <time>2020-07-03T15:04:00Z</time>
      </trkpt>
      <trkpt lat="46.93848" lon="0.6296">
        <ele>89.2</ele>
        <time>2020-07-03T15:04:01Z</time>
      </trkpt>
      <trkpt lat="46.93847" lon="0.62953">
        <ele>89.2</ele>
        <time>2020-07-03T15:04:02Z</time>
      </trkpt>
      <trkpt lat="46.93846" lon="0.62946">
        <ele>89.1</ele>
        <time>2020-07-03T15:04:03Z</time>
      </trkpt>
      <trkpt lat="46.93845" lon="0.62939">
        <ele>89</ele>
        <time>2020-07-03T15:04:04Z</time>
      </trkpt>
      <trkpt lat="46.93843" lon="0.62931">
        <ele>88.8</ele>
        <time>2020-07-03T15:04:05Z</time>
      </trkpt>
      <trkpt lat="46.93841" lon="0.62924">
        <ele>88.7</ele>
        <time>2020-07-03T15:04:06Z</time>
      </trkpt>
      <trkpt lat="46.93839" lon="0.62916">
        <ele>88.5</ele>
        <time>2020-07-03T15:04:07Z</time>
      </trkpt>
      <trkpt lat="46.93838" lon="0.62909">
        <ele>88.4</ele>
        <time>2020-07-03T15:04:08Z</time>
      </trkpt>
      <trkpt lat="46.93838" lon="0.62902">
        <ele>88.2</ele>
        <time>2020-07-03T15:04:09Z</time>
      </trkpt>
      <trkpt lat="46.93837" lon="0.62896">
        <ele>88.1</ele>
        <time>2020-07-03T15:04:10Z</time>
      </trkpt>
      <trkpt lat="46.93836" lon="0.6289">
        <ele>87.9</ele>
        <time>2020-07-03T15:04:11Z</time>
      </trkpt>
      <trkpt lat="46.93834" lon="0.62884">
        <ele>87.7</ele>
        <time>2020-07-03T15:04:12Z</time>
      </trkpt>
      <trkpt lat="46.93834" lon="0.62876">
        <ele>87.5</ele>
        <time>2020-07-03T15:04:13Z</time>
      </trkpt>
      <trkpt lat="46.93832" lon="0.62868">
        <ele>87.2</ele>
        <time>2020-07-03T15:04:14Z</time>
      </trkpt>
      <trkpt lat="46.9383" lon="0.62858">
        <ele>86.9</ele>
        <time>2020-07-03T15:04:15Z</time>
      </trkpt>
      <trkpt lat="46.93828" lon="0.62848">
        <ele>86.6</ele>
        <time>2020-07-03T15:04:16Z</time>
      </trkpt>
      <trkpt lat="46.93826" lon="0.6284">
        <ele>86.3</ele>
        <time>2020-07-03T15:04:17Z</time>
      </trkpt>
      <trkpt lat="46.93824" lon="0.6283">
        <ele>85.9</ele>
        <time>2020-07-03T15:04:18Z</time>
      </trkpt>
      <trkpt lat="46.93823" lon="0.6282">
        <ele>85.5</ele>
        <time>2020-07-03T15:04:19Z</time>
      </trkpt>
      <trkpt lat="46.93822" lon="0.62811">
        <ele>85.2</ele>
        <time>2020-07-03T15:04:20Z</time>
      </trkpt>
      <trkpt lat="46.9382" lon="0.62798">
        <ele>84.7</ele>
        <time>2020-07-03T15:04:21Z</time>
      </trkpt>
      <trkpt lat="46.93818" lon="0.62787">
        <ele>84.3</ele>
        <time>2020-07-03T15:04:22Z</time>
      </trkpt>
      <trkpt lat="46.93816" lon="0.62777">
        <ele>83.9</ele>
        <time>2020-07-03T15:04:23Z</time>
      </trkpt>
      <trkpt lat="46.93814" lon="0.62766">
        <ele>83.5</ele>
        <time>2020-07-03T15:04:24Z</time>
      </trkpt>
      <trkpt lat="46.93812" lon="0.62754">
        <ele>83</ele>
        <time>2020-07-03T15:04:25Z</time>
      </trkpt>
      <trkpt lat="46.9381" lon="0.62743">
        <ele>82.6</ele>
        <time>2020-07-03T15:04:26Z</time>
      </trkpt>
      <trkpt lat="46.93808" lon="0.62731">
        <ele>82.1</ele>
        <time>2020-07-03T15:04:27Z</time>
      </trkpt>
      <trkpt lat="46.93805" lon="0.6272">
        <ele>81.7</ele>
        <time>2020-07-03T15:04:28Z</time>
      </trkpt>
      <trkpt lat="46.93803" lon="0.62707">
        <ele>81.2</ele>
        <time>2020-07-03T15:04:29Z</time>
      </trkpt>
      <trkpt lat="46.93801" lon="0.62695">
        <ele>80.7</ele>
        <time>2020-07-03T15:04:30Z</time>
      </trkpt>
      <trkpt lat="46.93798" lon="0.62683">
        <ele>80</ele>
        <time>2020-07-03T15:04:31Z</time>
      </trkpt>
      <trkpt lat="46.93796" lon="0.62671">
        <ele>79.7</ele>
        <time>2020-07-03T15:04:32Z</time>
      </trkpt>
      <trkpt lat="46.93794" lon="0.62659">
        <ele>79.3</ele>
        <time>2020-07-03T15:04:33Z</time>
      </trkpt>
      <trkpt lat="46.93792" lon="0.62647">
        <ele>79</ele>
        <time>2020-07-03T15:04:34Z</time>
      </trkpt>
      <trkpt lat="46.9379" lon="0.62634">
        <ele>78.6</ele>
        <time>2020-07-03T15:04:35Z</time>
      </trkpt>
      <trkpt lat="46.93787" lon="0.62622">
        <ele>78.2</ele>
        <time>2020-07-03T15:04:36Z</time>
      </trkpt>
      <trkpt lat="46.93785" lon="0.6261">
        <ele>77.9</ele>
        <time>2020-07-03T15:04:37Z</time>
      </trkpt>
      <trkpt lat="46.93783" lon="0.62597">
        <ele>77.5</ele>
        <time>2020-07-03T15:04:38Z</time>
      </trkpt>
      <trkpt lat="46.9378" lon="0.62585">
        <ele>77.2</ele>
        <time>2020-07-03T15:04:39Z</time>
      </trkpt>
      <trkpt lat="46.93778" lon="0.62572">
        <ele>77</ele>
        <time>2020-07-03T15:04:40Z</time>
      </trkpt>
      <trkpt lat="46.93776" lon="0.6256">
        <ele>76.8</ele>
        <time>2020-07-03T15:04:41Z</time>
      </trkpt>
      <trkpt lat="46.93775" lon="0.62548">
        <ele>76.7</ele>
        <time>2020-07-03T15:04:42Z</time>
      </trkpt>
      <trkpt lat="46.93773" lon="0.62536">
        <ele>76.7</ele>
        <time>2020-07-03T15:04:43Z</time>
      </trkpt>
      <trkpt lat="46.93771" lon="0.62525">
        <ele>76.7</ele>
        <time>2020-07-03T15:04:44Z</time>
      </trkpt>
      <trkpt lat="46.93769" lon="0.62515">
        <ele>76.7</ele>
        <time>2020-07-03T15:04:45Z</time>
      </trkpt>
      <trkpt lat="46.93767" lon="0.62505">
        <ele>76.8</ele>
        <time>2020-07-03T15:04:46Z</time>
      </trkpt>
      <trkpt lat="46.93765" lon="0.62495">
        <ele>76.8</ele>
        <time>2020-07-03T15:04:47Z</time>
      </trkpt>
      <trkpt lat="46.93763" lon="0.62485">
        <ele>76.9</ele>
        <time>2020-07-03T15:04:48Z</time>
      </trkpt>
      <trkpt lat="46.93761" lon="0.62475">
        <ele>77</ele>
        <time>2020-07-03T15:04:49Z</time>
      </trkpt>
      <trkpt lat="46.9376" lon="0.62465">
        <ele>77.1</ele>
        <time>2020-07-03T15:04:50Z</time>
      </trkpt>
      <trkpt lat="46.93758" lon="0.62455">
        <ele>77.2</ele>
        <time>2020-07-03T15:04:51Z</time>
      </trkpt>
      <trkpt lat="46.93756" lon="0.62445">
        <ele>77.2</ele>
        <time>2020-07-03T15:04:52Z</time>
      </trkpt>
      <trkpt lat="46.93756" lon="0.62436">
        <ele>77.3</ele>
        <time>2020-07-03T15:04:53Z</time>
      </trkpt>
      <trkpt lat="46.93755" lon="0.62428">
        <ele>77.3</ele>
        <time>2020-07-03T15:04:54Z</time>
      </trkpt>
      <trkpt lat="46.93754" lon="0.62419">
        <ele>77.3</ele>
        <time>2020-07-03T15:04:55Z</time>
      </trkpt>
      <trkpt lat="46.93753" lon="0.6241">
        <ele>77.4</ele>
        <time>2020-07-03T15:04:56Z</time>
      </trkpt>
      <trkpt lat="46.93751" lon="0.62402">
        <ele>77.4</ele>
        <time>2020-07-03T15:04:57Z</time>
      </trkpt>
      <trkpt lat="46.9375" lon="0.62393">
        <ele>77.4</ele>
        <time>2020-07-03T15:04:58Z</time>
      </trkpt>
      <trkpt lat="46.93749" lon="0.62385">
        <ele>77.4</ele>
        <time>2020-07-03T15:04:59Z</time>
      </trkpt>
      <trkpt lat="46.93747" lon="0.62378">
        <ele>77.4</ele>
        <time>2020-07-03T15:05:00Z</time>
      </trkpt>
      <trkpt lat="46.93746" lon="0.6237">
        <ele>77.4</ele>
        <time>2020-07-03T15:05:01Z</time>
      </trkpt>
      <trkpt lat="46.93744" lon="0.62363">
        <ele>77.4</ele>
        <time>2020-07-03T15:05:02Z</time>
      </trkpt>
      <trkpt lat="46.93742" lon="0.62357">
        <ele>77.4</ele>
        <time>2020-07-03T15:05:03Z</time>
      </trkpt>
      <trkpt lat="46.93739" lon="0.62352">
        <ele>77.4</ele>
        <time>2020-07-03T15:05:04Z</time>
      </trkpt>
      <trkpt lat="46.93738" lon="0.62347">
        <ele>77.4</ele>
        <time>2020-07-03T15:05:05Z</time>
      </trkpt>
      <trkpt lat="46.93737" lon="0.62342">
        <ele>77.4</ele>
        <time>2020-07-03T15:05:06Z</time>
      </trkpt>
      <trkpt lat="46.93736" lon="0.62336">
        <ele>77.4</ele>
        <time>2020-07-03T15:05:07Z</time>
      </trkpt>
      <trkpt lat="46.93736" lon="0.62331">
        <ele>77.4</ele>
        <time>2020-07-03T15:05:08Z</time>
      </trkpt>
      <trkpt lat="46.93735" lon="0.62328">
        <ele>77.4</ele>
        <time>2020-07-03T15:05:09Z</time>
      </trkpt>
      <trkpt lat="46.93734" lon="0.62327">
        <ele>77.4</ele>
        <time>2020-07-03T15:05:10Z</time>
      </trkpt>
      <trkpt lat="46.93733" lon="0.62328">
        <ele>77.4</ele>
        <time>2020-07-03T15:05:11Z</time>
      </trkpt>
      <trkpt lat="46.93733" lon="0.62327">
        <ele>77.4</ele>
        <time>2020-07-03T15:05:12Z</time>
      </trkpt>
      <trkpt lat="46.93732" lon="0.62326">
        <ele>77.3</ele>
        <time>2020-07-03T15:05:13Z</time>
      </trkpt>
      <trkpt lat="46.93732" lon="0.62325">
        <ele>77.3</ele>
        <time>2020-07-03T15:05:14Z</time>
      </trkpt>
      <trkpt lat="46.93732" lon="0.62324">
        <ele>77.3</ele>
        <time>2020-07-03T15:05:15Z</time>
      </trkpt>
      <trkpt lat="46.93731" lon="0.62323">
        <ele>77.3</ele>
        <time>2020-07-03T15:05:16Z</time>
      </trkpt>
      <trkpt lat="46.93731" lon="0.62322">
        <ele>77.3</ele>
        <time>2020-07-03T15:05:17Z</time>
      </trkpt>
      <trkpt lat="46.9373" lon="0.62321">
        <ele>77.3</ele>
        <time>2020-07-03T15:05:18Z</time>
      </trkpt>
      <trkpt lat="46.9373" lon="0.62321">
        <ele>77.3</ele>
        <time>2020-07-03T15:05:19Z</time>
      </trkpt>
      <trkpt lat="46.9373" lon="0.6232">
        <ele>77.3</ele>
        <time>2020-07-03T15:05:20Z</time>
      </trkpt>
      <trkpt lat="46.93729" lon="0.62319">
        <ele>77.3</ele>
        <time>2020-07-03T15:05:21Z</time>
      </trkpt>
      <trkpt lat="46.93729" lon="0.62318">
        <ele>77.2</ele>
        <time>2020-07-03T15:05:37Z</time>
      </trkpt>
      <trkpt lat="46.93728" lon="0.62317">
        <ele>77.2</ele>
        <time>2020-07-03T15:05:38Z</time>
      </trkpt>
      <trkpt lat="46.93728" lon="0.62316">
        <ele>77.2</ele>
        <time>2020-07-03T15:05:39Z</time>
      </trkpt>
      <trkpt lat="46.93728" lon="0.62316">
        <ele>77.2</ele>
        <time>2020-07-03T15:05:40Z</time>
      </trkpt>
      <trkpt lat="46.93728" lon="0.62316">
        <ele>77.2</ele>
        <time>2020-07-03T15:05:41Z</time>
      </trkpt>
      <trkpt lat="46.93727" lon="0.62314">
        <ele>77.2</ele>
        <time>2020-07-03T15:05:42Z</time>
      </trkpt>
      <trkpt lat="46.93726" lon="0.62314">
        <ele>77.1</ele>
        <time>2020-07-03T15:05:43Z</time>
      </trkpt>
      <trkpt lat="46.93726" lon="0.62315">
        <ele>77.1</ele>
        <time>2020-07-03T15:05:44Z</time>
      </trkpt>
      <trkpt lat="46.93726" lon="0.62315">
        <ele>77.1</ele>
        <time>2020-07-03T15:05:45Z</time>
      </trkpt>
      <trkpt lat="46.93725" lon="0.62315">
        <ele>77.1</ele>
        <time>2020-07-03T15:05:46Z</time>
      </trkpt>
      <trkpt lat="46.93725" lon="0.62314">
        <ele>77.1</ele>
        <time>2020-07-03T15:05:47Z</time>
      </trkpt>
      <trkpt lat="46.93726" lon="0.62314">
        <ele>77.1</ele>
        <time>2020-07-03T15:05:48Z</time>
      </trkpt>
      <trkpt lat="46.93726" lon="0.62314">
        <ele>77.1</ele>
        <time>2020-07-03T15:05:49Z</time>
      </trkpt>
      <trkpt lat="46.93726" lon="0.62314">
        <ele>77.1</ele>
        <time>2020-07-03T15:05:50Z</time>
      </trkpt>
      <trkpt lat="46.93726" lon="0.62314">
        <ele>77.1</ele>
        <time>2020-07-03T15:05:51Z</time>
      </trkpt>
      <trkpt lat="46.93726" lon="0.62314">
        <ele>77.1</ele>
        <time>2020-07-03T15:05:52Z</time>
      </trkpt>
      <trkpt lat="46.93726" lon="0.62314">
        <ele>77.1</ele>
        <time>2020-07-03T15:05:53Z</time>
      </trkpt>
      <trkpt lat="46.93726" lon="0.62314">
        <ele>77.1</ele>
        <time>2020-07-03T15:05:54Z</time>
      </trkpt>
      <trkpt lat="46.93726" lon="0.62314">
        <ele>77.1</ele>
        <time>2020-07-03T15:05:55Z</time>
      </trkpt>
      <trkpt lat="46.93727" lon="0.62313">
        <ele>77.1</ele>
        <time>2020-07-03T15:05:56Z</time>
      </trkpt>
      <trkpt lat="46.93726" lon="0.62313">
        <ele>77.1</ele>
        <time>2020-07-03T15:05:57Z</time>
      </trkpt>
      <trkpt lat="46.93726" lon="0.62313">
        <ele>77</ele>
        <time>2020-07-03T15:05:58Z</time>
      </trkpt>
      <trkpt lat="46.93726" lon="0.62313">
        <ele>77</ele>
        <time>2020-07-03T15:05:59Z</time>
      </trkpt>
      <trkpt lat="46.93726" lon="0.62313">
        <ele>77</ele>
        <time>2020-07-03T15:06:00Z</time>
      </trkpt>
      <trkpt lat="46.93726" lon="0.62313">
        <ele>77</ele>
        <time>2020-07-03T15:06:01Z</time>
      </trkpt>
      <trkpt lat="46.93726" lon="0.62313">
        <ele>77</ele>
        <time>2020-07-03T15:06:02Z</time>
      </trkpt>
      <trkpt lat="46.9373" lon="0.6231">
        <ele>76.9</ele>
        <time>2020-07-03T15:06:49Z</time>
      </trkpt>
      <trkpt lat="46.93732" lon="0.62308">
        <ele>76.8</ele>
        <time>2020-07-03T15:06:50Z</time>
      </trkpt>
      <trkpt lat="46.93734" lon="0.62303">
        <ele>76.7</ele>
        <time>2020-07-03T15:06:51Z</time>
      </trkpt>
      <trkpt lat="46.93734" lon="0.62299">
        <ele>76.6</ele>
        <time>2020-07-03T15:06:52Z</time>
      </trkpt>
      <trkpt lat="46.93735" lon="0.62293">
        <ele>76.5</ele>
        <time>2020-07-03T15:06:53Z</time>
      </trkpt>
      <trkpt lat="46.93736" lon="0.62288">
        <ele>76.4</ele>
        <time>2020-07-03T15:06:54Z</time>
      </trkpt>
      <trkpt lat="46.93737" lon="0.62281">
        <ele>76.2</ele>
        <time>2020-07-03T15:06:55Z</time>
      </trkpt>
      <trkpt lat="46.93737" lon="0.62276">
        <ele>76.1</ele>
        <time>2020-07-03T15:06:56Z</time>
      </trkpt>
      <trkpt lat="46.93738" lon="0.62269">
        <ele>76</ele>
        <time>2020-07-03T15:06:57Z</time>
      </trkpt>
      <trkpt lat="46.93738" lon="0.62262">
        <ele>75.8</ele>
        <time>2020-07-03T15:06:58Z</time>
      </trkpt>
      <trkpt lat="46.93739" lon="0.62255">
        <ele>75.7</ele>
        <time>2020-07-03T15:06:59Z</time>
      </trkpt>
      <trkpt lat="46.9374" lon="0.62247">
        <ele>75.6</ele>
        <time>2020-07-03T15:07:00Z</time>
      </trkpt>
      <trkpt lat="46.9374" lon="0.62241">
        <ele>75.4</ele>
        <time>2020-07-03T15:07:01Z</time>
      </trkpt>
      <trkpt lat="46.9374" lon="0.62234">
        <ele>75.3</ele>
        <time>2020-07-03T15:07:02Z</time>
      </trkpt>
      <trkpt lat="46.9374" lon="0.62226">
        <ele>75.1</ele>
        <time>2020-07-03T15:07:03Z</time>
      </trkpt>
      <trkpt lat="46.93741" lon="0.62218">
        <ele>75</ele>
        <time>2020-07-03T15:07:04Z</time>
      </trkpt>
      <trkpt lat="46.93741" lon="0.62211">
        <ele>74.8</ele>
        <time>2020-07-03T15:07:05Z</time>
      </trkpt>
      <trkpt lat="46.93741" lon="0.62203">
        <ele>74.6</ele>
        <time>2020-07-03T15:07:06Z</time>
      </trkpt>
      <trkpt lat="46.93742" lon="0.62196">
        <ele>74.4</ele>
        <time>2020-07-03T15:07:07Z</time>
      </trkpt>
      <trkpt lat="46.93742" lon="0.6219">
        <ele>74.3</ele>
        <time>2020-07-03T15:07:08Z</time>
      </trkpt>
      <trkpt lat="46.93743" lon="0.62185">
        <ele>74.2</ele>
        <time>2020-07-03T15:07:09Z</time>
      </trkpt>
      <trkpt lat="46.93743" lon="0.6218">
        <ele>74.1</ele>
        <time>2020-07-03T15:07:10Z</time>
      </trkpt>
      <trkpt lat="46.93742" lon="0.62179">
        <ele>74</ele>
        <time>2020-07-03T15:07:11Z</time>
      </trkpt>
      <trkpt lat="46.93742" lon="0.62175">
        <ele>74</ele>
        <time>2020-07-03T15:07:12Z</time>
      </trkpt>
      <trkpt lat="46.93742" lon="0.62173">
        <ele>73.9</ele>
        <time>2020-07-03T15:07:13Z</time>
      </trkpt>
      <trkpt lat="46.93743" lon="0.62168">
        <ele>73.8</ele>
        <time>2020-07-03T15:07:14Z</time>
      </trkpt>
      <trkpt lat="46.93744" lon="0.62164">
        <ele>73.8</ele>
        <time>2020-07-03T15:07:15Z</time>
      </trkpt>
      <trkpt lat="46.93745" lon="0.6216">
        <ele>73.7</ele>
        <time>2020-07-03T15:07:16Z</time>
      </trkpt>
      <trkpt lat="46.93746" lon="0.62154">
        <ele>73.5</ele>
        <time>2020-07-03T15:07:17Z</time>
      </trkpt>
      <trkpt lat="46.93746" lon="0.62148">
        <ele>73.4</ele>
        <time>2020-07-03T15:07:18Z</time>
      </trkpt>
      <trkpt lat="46.93747" lon="0.62145">
        <ele>73.3</ele>
        <time>2020-07-03T15:07:19Z</time>
      </trkpt>
      <trkpt lat="46.93746" lon="0.62138">
        <ele>73.1</ele>
        <time>2020-07-03T15:07:20Z</time>
      </trkpt>
      <trkpt lat="46.93747" lon="0.62132">
        <ele>73</ele>
        <time>2020-07-03T15:07:21Z</time>
      </trkpt>
      <trkpt lat="46.93747" lon="0.62125">
        <ele>72.8</ele>
        <time>2020-07-03T15:07:22Z</time>
      </trkpt>
      <trkpt lat="46.93748" lon="0.62119">
        <ele>72.7</ele>
        <time>2020-07-03T15:07:23Z</time>
      </trkpt>
      <trkpt lat="46.93748" lon="0.62113">
        <ele>72.6</ele>
        <time>2020-07-03T15:07:24Z</time>
      </trkpt>
      <trkpt lat="46.93748" lon="0.62106">
        <ele>72.5</ele>
        <time>2020-07-03T15:07:25Z</time>
      </trkpt>
      <trkpt lat="46.93748" lon="0.62097">
        <ele>72.4</ele>
        <time>2020-07-03T15:07:26Z</time>
      </trkpt>
      <trkpt lat="46.93749" lon="0.62088">
        <ele>72.2</ele>
        <time>2020-07-03T15:07:27Z</time>
      </trkpt>
      <trkpt lat="46.9375" lon="0.62079">
        <ele>72.1</ele>
        <time>2020-07-03T15:07:28Z</time>
      </trkpt>
      <trkpt lat="46.9375" lon="0.62071">
        <ele>72</ele>
        <time>2020-07-03T15:07:29Z</time>
      </trkpt>
      <trkpt lat="46.9375" lon="0.62063">
        <ele>71.8</ele>
        <time>2020-07-03T15:07:30Z</time>
      </trkpt>
      <trkpt lat="46.93749" lon="0.62055">
        <ele>71.7</ele>
        <time>2020-07-03T15:07:31Z</time>
      </trkpt>
      <trkpt lat="46.93749" lon="0.62046">
        <ele>71.5</ele>
        <time>2020-07-03T15:07:32Z</time>
      </trkpt>
      <trkpt lat="46.93748" lon="0.62038">
        <ele>71.4</ele>
        <time>2020-07-03T15:07:33Z</time>
      </trkpt>
      <trkpt lat="46.93747" lon="0.62031">
        <ele>71.2</ele>
        <time>2020-07-03T15:07:34Z</time>
      </trkpt>
      <trkpt lat="46.93746" lon="0.62023">
        <ele>71</ele>
        <time>2020-07-03T15:07:35Z</time>
      </trkpt>
      <trkpt lat="46.93745" lon="0.62016">
        <ele>70.8</ele>
        <time>2020-07-03T15:07:36Z</time>
      </trkpt>
      <trkpt lat="46.93743" lon="0.62008">
        <ele>70.6</ele>
        <time>2020-07-03T15:07:37Z</time>
      </trkpt>
      <trkpt lat="46.93742" lon="0.62">
        <ele>70.4</ele>
        <time>2020-07-03T15:07:38Z</time>
      </trkpt>
      <trkpt lat="46.93741" lon="0.61992">
        <ele>70.2</ele>
        <time>2020-07-03T15:07:39Z</time>
      </trkpt>
      <trkpt lat="46.9374" lon="0.61984">
        <ele>70</ele>
        <time>2020-07-03T15:07:40Z</time>
      </trkpt>
      <trkpt lat="46.93739" lon="0.61975">
        <ele>69.8</ele>
        <time>2020-07-03T15:07:41Z</time>
      </trkpt>
      <trkpt lat="46.93738" lon="0.61966">
        <ele>69.6</ele>
        <time>2020-07-03T15:07:42Z</time>
      </trkpt>
      <trkpt lat="46.93736" lon="0.61958">
        <ele>69.4</ele>
        <time>2020-07-03T15:07:43Z</time>
      </trkpt>
      <trkpt lat="46.93735" lon="0.61949">
        <ele>69.2</ele>
        <time>2020-07-03T15:07:44Z</time>
      </trkpt>
      <trkpt lat="46.93734" lon="0.6194">
        <ele>69</ele>
        <time>2020-07-03T15:07:45Z</time>
      </trkpt>
      <trkpt lat="46.93733" lon="0.61933">
        <ele>68.9</ele>
        <time>2020-07-03T15:07:46Z</time>
      </trkpt>
      <trkpt lat="46.93732" lon="0.61924">
        <ele>68.6</ele>
        <time>2020-07-03T15:07:47Z</time>
      </trkpt>
      <trkpt lat="46.93732" lon="0.61916">
        <ele>68.4</ele>
        <time>2020-07-03T15:07:48Z</time>
      </trkpt>
      <trkpt lat="46.93731" lon="0.61908">
        <ele>68.1</ele>
        <time>2020-07-03T15:07:49Z</time>
      </trkpt>
      <trkpt lat="46.9373" lon="0.61899">
        <ele>67.8</ele>
        <time>2020-07-03T15:07:50Z</time>
      </trkpt>
      <trkpt lat="46.93729" lon="0.61891">
        <ele>67.4</ele>
        <time>2020-07-03T15:07:51Z</time>
      </trkpt>
      <trkpt lat="46.9373" lon="0.61881">
        <ele>67</ele>
        <time>2020-07-03T15:07:52Z</time>
      </trkpt>
      <trkpt lat="46.93729" lon="0.61872">
        <ele>66.7</ele>
        <time>2020-07-03T15:07:53Z</time>
      </trkpt>
      <trkpt lat="46.9373" lon="0.61861">
        <ele>66.3</ele>
        <time>2020-07-03T15:07:54Z</time>
      </trkpt>
      <trkpt lat="46.93732" lon="0.6185">
        <ele>66</ele>
        <time>2020-07-03T15:07:55Z</time>
      </trkpt>
      <trkpt lat="46.93732" lon="0.61838">
        <ele>65.5</ele>
        <time>2020-07-03T15:07:56Z</time>
      </trkpt>
      <trkpt lat="46.93732" lon="0.61826">
        <ele>65</ele>
        <time>2020-07-03T15:07:57Z</time>
      </trkpt>
      <trkpt lat="46.93733" lon="0.61814">
        <ele>64.6</ele>
        <time>2020-07-03T15:07:58Z</time>
      </trkpt>
      <trkpt lat="46.93735" lon="0.61805">
        <ele>64.3</ele>
        <time>2020-07-03T15:07:59Z</time>
      </trkpt>
      <trkpt lat="46.93736" lon="0.61795">
        <ele>64</ele>
        <time>2020-07-03T15:08:00Z</time>
      </trkpt>
      <trkpt lat="46.93737" lon="0.61785">
        <ele>63.7</ele>
        <time>2020-07-03T15:08:01Z</time>
      </trkpt>
      <trkpt lat="46.93738" lon="0.61775">
        <ele>63.4</ele>
        <time>2020-07-03T15:08:02Z</time>
      </trkpt>
      <trkpt lat="46.93738" lon="0.61765">
        <ele>63.1</ele>
        <time>2020-07-03T15:08:03Z</time>
      </trkpt>
      <trkpt lat="46.93739" lon="0.61754">
        <ele>62.7</ele>
        <time>2020-07-03T15:08:04Z</time>
      </trkpt>
      <trkpt lat="46.9374" lon="0.61744">
        <ele>62.4</ele>
        <time>2020-07-03T15:08:05Z</time>
      </trkpt>
      <trkpt lat="46.93741" lon="0.61735">
        <ele>62.1</ele>
        <time>2020-07-03T15:08:06Z</time>
      </trkpt>
      <trkpt lat="46.93741" lon="0.61725">
        <ele>61.8</ele>
        <time>2020-07-03T15:08:07Z</time>
      </trkpt>
      <trkpt lat="46.93742" lon="0.61716">
        <ele>61.5</ele>
        <time>2020-07-03T15:08:08Z</time>
      </trkpt>
      <trkpt lat="46.93743" lon="0.61706">
        <ele>61.3</ele>
        <time>2020-07-03T15:08:09Z</time>
      </trkpt>
      <trkpt lat="46.93743" lon="0.61697">
        <ele>61.1</ele>
        <time>2020-07-03T15:08:10Z</time>
      </trkpt>
      <trkpt lat="46.93744" lon="0.61688">
        <ele>61</ele>
        <time>2020-07-03T15:08:11Z</time>
      </trkpt>
      <trkpt lat="46.93745" lon="0.61679">
        <ele>60.8</ele>
        <time>2020-07-03T15:08:12Z</time>
      </trkpt>
      <trkpt lat="46.93745" lon="0.6167">
        <ele>60.6</ele>
        <time>2020-07-03T15:08:13Z</time>
      </trkpt>
      <trkpt lat="46.93745" lon="0.61661">
        <ele>60.4</ele>
        <time>2020-07-03T15:08:14Z</time>
      </trkpt>
      <trkpt lat="46.93745" lon="0.61652">
        <ele>60.2</ele>
        <time>2020-07-03T15:08:15Z</time>
      </trkpt>
      <trkpt lat="46.93746" lon="0.61643">
        <ele>60</ele>
        <time>2020-07-03T15:08:16Z</time>
      </trkpt>
      <trkpt lat="46.93747" lon="0.61635">
        <ele>59.7</ele>
        <time>2020-07-03T15:08:17Z</time>
      </trkpt>
      <trkpt lat="46.93748" lon="0.61626">
        <ele>59.5</ele>
        <time>2020-07-03T15:08:18Z</time>
      </trkpt>
      <trkpt lat="46.93748" lon="0.61618">
        <ele>59.2</ele>
        <time>2020-07-03T15:08:19Z</time>
      </trkpt>
      <trkpt lat="46.93748" lon="0.6161">
        <ele>59</ele>
        <time>2020-07-03T15:08:20Z</time>
      </trkpt>
      <trkpt lat="46.93749" lon="0.61602">
        <ele>58.8</ele>
        <time>2020-07-03T15:08:21Z</time>
      </trkpt>
      <trkpt lat="46.9375" lon="0.61594">
        <ele>58.6</ele>
        <time>2020-07-03T15:08:22Z</time>
      </trkpt>
      <trkpt lat="46.93751" lon="0.61586">
        <ele>58.5</ele>
        <time>2020-07-03T15:08:23Z</time>
      </trkpt>
      <trkpt lat="46.93753" lon="0.61578">
        <ele>58.3</ele>
        <time>2020-07-03T15:08:24Z</time>
      </trkpt>
      <trkpt lat="46.93754" lon="0.6157">
        <ele>58</ele>
        <time>2020-07-03T15:08:25Z</time>
      </trkpt>
      <trkpt lat="46.93755" lon="0.61562">
        <ele>57.8</ele>
        <time>2020-07-03T15:08:26Z</time>
      </trkpt>
      <trkpt lat="46.93756" lon="0.61554">
        <ele>57.6</ele>
        <time>2020-07-03T15:08:27Z</time>
      </trkpt>
      <trkpt lat="46.93756" lon="0.61546">
        <ele>57.4</ele>
        <time>2020-07-03T15:08:28Z</time>
      </trkpt>
      <trkpt lat="46.93757" lon="0.61538">
        <ele>57.2</ele>
        <time>2020-07-03T15:08:29Z</time>
      </trkpt>
      <trkpt lat="46.93757" lon="0.61529">
        <ele>56.9</ele>
        <time>2020-07-03T15:08:30Z</time>
      </trkpt>
      <trkpt lat="46.93758" lon="0.61521">
        <ele>56.7</ele>
        <time>2020-07-03T15:08:31Z</time>
      </trkpt>
      <trkpt lat="46.93759" lon="0.61512">
        <ele>56.3</ele>
        <time>2020-07-03T15:08:32Z</time>
      </trkpt>
      <trkpt lat="46.9376" lon="0.61504">
        <ele>56</ele>
        <time>2020-07-03T15:08:33Z</time>
      </trkpt>
      <trkpt lat="46.93761" lon="0.61495">
        <ele>55.5</ele>
        <time>2020-07-03T15:08:34Z</time>
      </trkpt>
      <trkpt lat="46.93762" lon="0.61486">
        <ele>55.1</ele>
        <time>2020-07-03T15:08:35Z</time>
      </trkpt>
      <trkpt lat="46.93763" lon="0.61478">
        <ele>54.8</ele>
        <time>2020-07-03T15:08:36Z</time>
      </trkpt>
      <trkpt lat="46.93764" lon="0.61469">
        <ele>54.4</ele>
        <time>2020-07-03T15:08:37Z</time>
      </trkpt>
      <trkpt lat="46.93764" lon="0.6146">
        <ele>54.1</ele>
        <time>2020-07-03T15:08:38Z</time>
      </trkpt>
      <trkpt lat="46.93766" lon="0.61452">
        <ele>53.7</ele>
        <time>2020-07-03T15:08:39Z</time>
      </trkpt>
      <trkpt lat="46.93768" lon="0.61443">
        <ele>53.3</ele>
        <time>2020-07-03T15:08:40Z</time>
      </trkpt>
      <trkpt lat="46.9377" lon="0.61434">
        <ele>53</ele>
        <time>2020-07-03T15:08:41Z</time>
      </trkpt>
      <trkpt lat="46.93771" lon="0.61425">
        <ele>52.8</ele>
        <time>2020-07-03T15:08:42Z</time>
      </trkpt>
      <trkpt lat="46.93773" lon="0.61415">
        <ele>52.5</ele>
        <time>2020-07-03T15:08:43Z</time>
      </trkpt>
      <trkpt lat="46.93773" lon="0.61406">
        <ele>52.2</ele>
        <time>2020-07-03T15:08:44Z</time>
      </trkpt>
      <trkpt lat="46.93774" lon="0.61396">
        <ele>51.9</ele>
        <time>2020-07-03T15:08:45Z</time>
      </trkpt>
      <trkpt lat="46.93776" lon="0.61386">
        <ele>51.6</ele>
        <time>2020-07-03T15:08:46Z</time>
      </trkpt>
      <trkpt lat="46.93775" lon="0.61376">
        <ele>51.3</ele>
        <time>2020-07-03T15:08:47Z</time>
      </trkpt>
      <trkpt lat="46.93775" lon="0.61366">
        <ele>51</ele>
        <time>2020-07-03T15:08:48Z</time>
      </trkpt>
      <trkpt lat="46.93775" lon="0.61356">
        <ele>50.7</ele>
        <time>2020-07-03T15:08:49Z</time>
      </trkpt>
      <trkpt lat="46.93775" lon="0.61345">
        <ele>50.4</ele>
        <time>2020-07-03T15:08:50Z</time>
      </trkpt>
      <trkpt lat="46.93775" lon="0.61334">
        <ele>50.2</ele>
        <time>2020-07-03T15:08:51Z</time>
      </trkpt>
      <trkpt lat="46.93775" lon="0.61324">
        <ele>49.9</ele>
        <time>2020-07-03T15:08:52Z</time>
      </trkpt>
      <trkpt lat="46.93776" lon="0.61313">
        <ele>49.8</ele>
        <time>2020-07-03T15:08:53Z</time>
      </trkpt>
      <trkpt lat="46.93775" lon="0.61303">
        <ele>49.7</ele>
        <time>2020-07-03T15:08:54Z</time>
      </trkpt>
      <trkpt lat="46.93774" lon="0.61292">
        <ele>49.5</ele>
        <time>2020-07-03T15:08:55Z</time>
      </trkpt>
      <trkpt lat="46.93772" lon="0.61282">
        <ele>49.4</ele>
        <time>2020-07-03T15:08:56Z</time>
      </trkpt>
      <trkpt lat="46.93771" lon="0.61272">
        <ele>49.3</ele>
        <time>2020-07-03T15:08:57Z</time>
      </trkpt>
      <trkpt lat="46.9377" lon="0.61263">
        <ele>49.1</ele>
        <time>2020-07-03T15:08:58Z</time>
      </trkpt>
      <trkpt lat="46.9377" lon="0.61253">
        <ele>49.1</ele>
        <time>2020-07-03T15:08:59Z</time>
      </trkpt>
      <trkpt lat="46.93769" lon="0.61244">
        <ele>49</ele>
        <time>2020-07-03T15:09:00Z</time>
      </trkpt>
      <trkpt lat="46.93768" lon="0.61234">
        <ele>49</ele>
        <time>2020-07-03T15:09:01Z</time>
      </trkpt>
      <trkpt lat="46.93767" lon="0.61225">
        <ele>48.9</ele>
        <time>2020-07-03T15:09:02Z</time>
      </trkpt>
      <trkpt lat="46.93766" lon="0.61217">
        <ele>48.9</ele>
        <time>2020-07-03T15:09:03Z</time>
      </trkpt>
      <trkpt lat="46.93764" lon="0.61208">
        <ele>48.9</ele>
        <time>2020-07-03T15:09:04Z</time>
      </trkpt>
      <trkpt lat="46.93763" lon="0.61199">
        <ele>48.9</ele>
        <time>2020-07-03T15:09:05Z</time>
      </trkpt>
      <trkpt lat="46.93763" lon="0.61191">
        <ele>48.9</ele>
        <time>2020-07-03T15:09:06Z</time>
      </trkpt>
      <trkpt lat="46.93763" lon="0.61182">
        <ele>48.9</ele>
        <time>2020-07-03T15:09:07Z</time>
      </trkpt>
      <trkpt lat="46.93762" lon="0.61174">
        <ele>48.8</ele>
        <time>2020-07-03T15:09:08Z</time>
      </trkpt>
      <trkpt lat="46.93761" lon="0.61165">
        <ele>48.8</ele>
        <time>2020-07-03T15:09:09Z</time>
      </trkpt>
      <trkpt lat="46.93759" lon="0.61156">
        <ele>48.8</ele>
        <time>2020-07-03T15:09:10Z</time>
      </trkpt>
      <trkpt lat="46.93759" lon="0.61147">
        <ele>48.7</ele>
        <time>2020-07-03T15:09:11Z</time>
      </trkpt>
      <trkpt lat="46.93757" lon="0.61139">
        <ele>48.7</ele>
        <time>2020-07-03T15:09:12Z</time>
      </trkpt>
      <trkpt lat="46.93757" lon="0.6113">
        <ele>48.6</ele>
        <time>2020-07-03T15:09:13Z</time>
      </trkpt>
      <trkpt lat="46.93756" lon="0.61121">
        <ele>48.6</ele>
        <time>2020-07-03T15:09:14Z</time>
      </trkpt>
      <trkpt lat="46.93757" lon="0.61112">
        <ele>48.7</ele>
        <time>2020-07-03T15:09:15Z</time>
      </trkpt>
      <trkpt lat="46.93757" lon="0.61103">
        <ele>48.8</ele>
        <time>2020-07-03T15:09:16Z</time>
      </trkpt>
      <trkpt lat="46.93757" lon="0.61094">
        <ele>48.9</ele>
        <time>2020-07-03T15:09:17Z</time>
      </trkpt>
      <trkpt lat="46.93757" lon="0.61085">
        <ele>49</ele>
        <time>2020-07-03T15:09:18Z</time>
      </trkpt>
      <trkpt lat="46.93756" lon="0.61077">
        <ele>49.1</ele>
        <time>2020-07-03T15:09:19Z</time>
      </trkpt>
      <trkpt lat="46.93758" lon="0.61068">
        <ele>49.2</ele>
        <time>2020-07-03T15:09:20Z</time>
      </trkpt>
      <trkpt lat="46.93758" lon="0.6106">
        <ele>49.2</ele>
        <time>2020-07-03T15:09:21Z</time>
      </trkpt>
      <trkpt lat="46.93758" lon="0.61052">
        <ele>49.1</ele>
        <time>2020-07-03T15:09:22Z</time>
      </trkpt>
      <trkpt lat="46.93758" lon="0.61044">
        <ele>49.1</ele>
        <time>2020-07-03T15:09:23Z</time>
      </trkpt>
      <trkpt lat="46.93758" lon="0.61037">
        <ele>49</ele>
        <time>2020-07-03T15:09:24Z</time>
      </trkpt>
      <trkpt lat="46.93756" lon="0.61031">
        <ele>49</ele>
        <time>2020-07-03T15:09:25Z</time>
      </trkpt>
      <trkpt lat="46.93753" lon="0.61027">
        <ele>49.1</ele>
        <time>2020-07-03T15:09:26Z</time>
      </trkpt>
      <trkpt lat="46.93748" lon="0.61029">
        <ele>49.1</ele>
        <time>2020-07-03T15:09:27Z</time>
      </trkpt>
      <trkpt lat="46.93743" lon="0.61028">
        <ele>49.1</ele>
        <time>2020-07-03T15:09:28Z</time>
      </trkpt>
      <trkpt lat="46.93737" lon="0.61028">
        <ele>49.1</ele>
        <time>2020-07-03T15:09:29Z</time>
      </trkpt>
      <trkpt lat="46.93732" lon="0.61027">
        <ele>49.1</ele>
        <time>2020-07-03T15:09:30Z</time>
      </trkpt>
      <trkpt lat="46.93728" lon="0.61025">
        <ele>49.1</ele>
        <time>2020-07-03T15:09:31Z</time>
      </trkpt>
      <trkpt lat="46.93722" lon="0.61024">
        <ele>49</ele>
        <time>2020-07-03T15:09:32Z</time>
      </trkpt>
      <trkpt lat="46.93717" lon="0.61022">
        <ele>49</ele>
        <time>2020-07-03T15:09:33Z</time>
      </trkpt>
      <trkpt lat="46.93711" lon="0.61021">
        <ele>49</ele>
        <time>2020-07-03T15:09:34Z</time>
      </trkpt>
      <trkpt lat="46.93705" lon="0.6102">
        <ele>49</ele>
        <time>2020-07-03T15:09:35Z</time>
      </trkpt>
      <trkpt lat="46.93699" lon="0.61021">
        <ele>49</ele>
        <time>2020-07-03T15:09:36Z</time>
      </trkpt>
      <trkpt lat="46.93694" lon="0.61022">
        <ele>49</ele>
        <time>2020-07-03T15:09:37Z</time>
      </trkpt>
      <trkpt lat="46.93688" lon="0.61022">
        <ele>49</ele>
        <time>2020-07-03T15:09:38Z</time>
      </trkpt>
      <trkpt lat="46.93682" lon="0.6102">
        <ele>49</ele>
        <time>2020-07-03T15:09:39Z</time>
      </trkpt>
      <trkpt lat="46.93676" lon="0.61019">
        <ele>48.9</ele>
        <time>2020-07-03T15:09:40Z</time>
      </trkpt>
      <trkpt lat="46.9367" lon="0.61017">
        <ele>48.9</ele>
        <time>2020-07-03T15:09:41Z</time>
      </trkpt>
      <trkpt lat="46.93663" lon="0.61015">
        <ele>48.9</ele>
        <time>2020-07-03T15:09:42Z</time>
      </trkpt>
      <trkpt lat="46.93657" lon="0.61014">
        <ele>49</ele>
        <time>2020-07-03T15:09:43Z</time>
      </trkpt>
      <trkpt lat="46.9365" lon="0.61015">
        <ele>49</ele>
        <time>2020-07-03T15:09:44Z</time>
      </trkpt>
      <trkpt lat="46.93644" lon="0.61015">
        <ele>49</ele>
        <time>2020-07-03T15:09:45Z</time>
      </trkpt>
      <trkpt lat="46.93637" lon="0.61015">
        <ele>49</ele>
        <time>2020-07-03T15:09:46Z</time>
      </trkpt>
      <trkpt lat="46.93631" lon="0.61015">
        <ele>48.9</ele>
        <time>2020-07-03T15:09:47Z</time>
      </trkpt>
      <trkpt lat="46.93625" lon="0.61015">
        <ele>48.8</ele>
        <time>2020-07-03T15:09:48Z</time>
      </trkpt>
      <trkpt lat="46.93618" lon="0.61015">
        <ele>48.7</ele>
        <time>2020-07-03T15:09:49Z</time>
      </trkpt>
      <trkpt lat="46.93612" lon="0.61014">
        <ele>48.5</ele>
        <time>2020-07-03T15:09:50Z</time>
      </trkpt>
      <trkpt lat="46.93606" lon="0.61012">
        <ele>48.4</ele>
        <time>2020-07-03T15:09:51Z</time>
      </trkpt>
      <trkpt lat="46.936" lon="0.6101">
        <ele>48.2</ele>
        <time>2020-07-03T15:09:52Z</time>
      </trkpt>
      <trkpt lat="46.93593" lon="0.61009">
        <ele>48</ele>
        <time>2020-07-03T15:09:53Z</time>
      </trkpt>
      <trkpt lat="46.93587" lon="0.61004">
        <ele>48.1</ele>
        <time>2020-07-03T15:09:54Z</time>
      </trkpt>
      <trkpt lat="46.9358" lon="0.61004">
        <ele>48.1</ele>
        <time>2020-07-03T15:09:55Z</time>
      </trkpt>
      <trkpt lat="46.93574" lon="0.61002">
        <ele>48.1</ele>
        <time>2020-07-03T15:09:56Z</time>
      </trkpt>
      <trkpt lat="46.93568" lon="0.61002">
        <ele>48.2</ele>
        <time>2020-07-03T15:09:57Z</time>
      </trkpt>
      <trkpt lat="46.93562" lon="0.61">
        <ele>48.2</ele>
        <time>2020-07-03T15:09:58Z</time>
      </trkpt>
      <trkpt lat="46.93556" lon="0.60997">
        <ele>48.2</ele>
        <time>2020-07-03T15:09:59Z</time>
      </trkpt>
      <trkpt lat="46.9355" lon="0.60996">
        <ele>48.2</ele>
        <time>2020-07-03T15:10:00Z</time>
      </trkpt>
      <trkpt lat="46.93544" lon="0.60994">
        <ele>48.2</ele>
        <time>2020-07-03T15:10:01Z</time>
      </trkpt>
      <trkpt lat="46.93538" lon="0.60992">
        <ele>48.2</ele>
        <time>2020-07-03T15:10:02Z</time>
      </trkpt>
      <trkpt lat="46.93533" lon="0.60991">
        <ele>48.3</ele>
        <time>2020-07-03T15:10:03Z</time>
      </trkpt>
      <trkpt lat="46.93527" lon="0.60991">
        <ele>48.3</ele>
        <time>2020-07-03T15:10:04Z</time>
      </trkpt>
      <trkpt lat="46.93522" lon="0.6099">
        <ele>48.3</ele>
        <time>2020-07-03T15:10:05Z</time>
      </trkpt>
      <trkpt lat="46.93516" lon="0.60989">
        <ele>48.3</ele>
        <time>2020-07-03T15:10:06Z</time>
      </trkpt>
      <trkpt lat="46.9351" lon="0.60988">
        <ele>48.3</ele>
        <time>2020-07-03T15:10:07Z</time>
      </trkpt>
      <trkpt lat="46.93504" lon="0.60987">
        <ele>48.3</ele>
        <time>2020-07-03T15:10:08Z</time>
      </trkpt>
      <trkpt lat="46.93498" lon="0.60986">
        <ele>48.2</ele>
        <time>2020-07-03T15:10:09Z</time>
      </trkpt>
      <trkpt lat="46.93493" lon="0.60984">
        <ele>48.2</ele>
        <time>2020-07-03T15:10:10Z</time>
      </trkpt>
      <trkpt lat="46.93489" lon="0.60981">
        <ele>48.2</ele>
        <time>2020-07-03T15:10:11Z</time>
      </trkpt>
      <trkpt lat="46.93484" lon="0.60978">
        <ele>48.2</ele>
        <time>2020-07-03T15:10:12Z</time>
      </trkpt>
      <trkpt lat="46.93481" lon="0.60973">
        <ele>48.2</ele>
        <time>2020-07-03T15:10:13Z</time>
      </trkpt>
      <trkpt lat="46.93478" lon="0.60968">
        <ele>48.2</ele>
        <time>2020-07-03T15:10:14Z</time>
      </trkpt>
      <trkpt lat="46.93474" lon="0.60962">
        <ele>48.2</ele>
        <time>2020-07-03T15:10:15Z</time>
      </trkpt>
      <trkpt lat="46.93471" lon="0.60956">
        <ele>48.2</ele>
        <time>2020-07-03T15:10:16Z</time>
      </trkpt>
      <trkpt lat="46.93469" lon="0.6095">
        <ele>48.1</ele>
        <time>2020-07-03T15:10:17Z</time>
      </trkpt>
      <trkpt lat="46.93466" lon="0.60944">
        <ele>48.1</ele>
        <time>2020-07-03T15:10:18Z</time>
      </trkpt>
      <trkpt lat="46.93464" lon="0.60937">
        <ele>48</ele>
        <time>2020-07-03T15:10:19Z</time>
      </trkpt>
      <trkpt lat="46.93462" lon="0.60929">
        <ele>47.9</ele>
        <time>2020-07-03T15:10:20Z</time>
      </trkpt>
      <trkpt lat="46.9346" lon="0.60923">
        <ele>47.8</ele>
        <time>2020-07-03T15:10:21Z</time>
      </trkpt>
      <trkpt lat="46.93458" lon="0.60915">
        <ele>47.5</ele>
        <time>2020-07-03T15:10:22Z</time>
      </trkpt>
      <trkpt lat="46.93456" lon="0.60908">
        <ele>47.6</ele>
        <time>2020-07-03T15:10:23Z</time>
      </trkpt>
      <trkpt lat="46.93454" lon="0.609">
        <ele>47.7</ele>
        <time>2020-07-03T15:10:24Z</time>
      </trkpt>
      <trkpt lat="46.93453" lon="0.6089">
        <ele>47.9</ele>
        <time>2020-07-03T15:10:25Z</time>
      </trkpt>
      <trkpt lat="46.93454" lon="0.60881">
        <ele>48</ele>
        <time>2020-07-03T15:10:26Z</time>
      </trkpt>
      <trkpt lat="46.93456" lon="0.60872">
        <ele>46.9</ele>
        <time>2020-07-03T15:10:27Z</time>
      </trkpt>
      <trkpt lat="46.93458" lon="0.60864">
        <ele>46.5</ele>
        <time>2020-07-03T15:10:28Z</time>
      </trkpt>
      <trkpt lat="46.93459" lon="0.60856">
        <ele>46</ele>
        <time>2020-07-03T15:10:29Z</time>
      </trkpt>
      <trkpt lat="46.9346" lon="0.60846">
        <ele>45.7</ele>
        <time>2020-07-03T15:10:30Z</time>
      </trkpt>
      <trkpt lat="46.93462" lon="0.60835">
        <ele>45.3</ele>
        <time>2020-07-03T15:10:31Z</time>
      </trkpt>
      <trkpt lat="46.93463" lon="0.60826">
        <ele>45</ele>
        <time>2020-07-03T15:10:32Z</time>
      </trkpt>
      <trkpt lat="46.93465" lon="0.60815">
        <ele>44.8</ele>
        <time>2020-07-03T15:10:33Z</time>
      </trkpt>
      <trkpt lat="46.93466" lon="0.60805">
        <ele>44.8</ele>
        <time>2020-07-03T15:10:34Z</time>
      </trkpt>
      <trkpt lat="46.93467" lon="0.60795">
        <ele>44.8</ele>
        <time>2020-07-03T15:10:35Z</time>
      </trkpt>
      <trkpt lat="46.93468" lon="0.60787">
        <ele>44.8</ele>
        <time>2020-07-03T15:10:36Z</time>
      </trkpt>
      <trkpt lat="46.93469" lon="0.6078">
        <ele>44.7</ele>
        <time>2020-07-03T15:10:37Z</time>
      </trkpt>
      <trkpt lat="46.93471" lon="0.60773">
        <ele>44.7</ele>
        <time>2020-07-03T15:10:38Z</time>
      </trkpt>
      <trkpt lat="46.93473" lon="0.60766">
        <ele>44.7</ele>
        <time>2020-07-03T15:10:39Z</time>
      </trkpt>
      <trkpt lat="46.93477" lon="0.60758">
        <ele>44.7</ele>
        <time>2020-07-03T15:10:40Z</time>
      </trkpt>
      <trkpt lat="46.93481" lon="0.60751">
        <ele>44.7</ele>
        <time>2020-07-03T15:10:41Z</time>
      </trkpt>
      <trkpt lat="46.93484" lon="0.60744">
        <ele>44.8</ele>
        <time>2020-07-03T15:10:42Z</time>
      </trkpt>
      <trkpt lat="46.93488" lon="0.60737">
        <ele>44.8</ele>
        <time>2020-07-03T15:10:43Z</time>
      </trkpt>
      <trkpt lat="46.93491" lon="0.60731">
        <ele>44.9</ele>
        <time>2020-07-03T15:10:44Z</time>
      </trkpt>
      <trkpt lat="46.93496" lon="0.60723">
        <ele>45.1</ele>
        <time>2020-07-03T15:10:45Z</time>
      </trkpt>
      <trkpt lat="46.935" lon="0.60716">
        <ele>45.2</ele>
        <time>2020-07-03T15:10:46Z</time>
      </trkpt>
      <trkpt lat="46.93504" lon="0.60711">
        <ele>45.3</ele>
        <time>2020-07-03T15:10:47Z</time>
      </trkpt>
      <trkpt lat="46.93508" lon="0.60703">
        <ele>45.5</ele>
        <time>2020-07-03T15:10:48Z</time>
      </trkpt>
      <trkpt lat="46.93512" lon="0.60696">
        <ele>45.6</ele>
        <time>2020-07-03T15:10:49Z</time>
      </trkpt>
      <trkpt lat="46.93515" lon="0.60691">
        <ele>45.8</ele>
        <time>2020-07-03T15:10:50Z</time>
      </trkpt>
      <trkpt lat="46.9352" lon="0.60683">
        <ele>46</ele>
        <time>2020-07-03T15:10:51Z</time>
      </trkpt>
      <trkpt lat="46.93524" lon="0.60677">
        <ele>46.1</ele>
        <time>2020-07-03T15:10:52Z</time>
      </trkpt>
      <trkpt lat="46.93528" lon="0.60671">
        <ele>46.3</ele>
        <time>2020-07-03T15:10:53Z</time>
      </trkpt>
      <trkpt lat="46.93532" lon="0.60665">
        <ele>46.5</ele>
        <time>2020-07-03T15:10:54Z</time>
      </trkpt>
      <trkpt lat="46.93535" lon="0.60659">
        <ele>46.7</ele>
        <time>2020-07-03T15:10:55Z</time>
      </trkpt>
      <trkpt lat="46.93539" lon="0.60652">
        <ele>46.9</ele>
        <time>2020-07-03T15:10:56Z</time>
      </trkpt>
      <trkpt lat="46.93541" lon="0.60647">
        <ele>47.1</ele>
        <time>2020-07-03T15:10:57Z</time>
      </trkpt>
      <trkpt lat="46.93543" lon="0.60643">
        <ele>47.2</ele>
        <time>2020-07-03T15:10:58Z</time>
      </trkpt>
      <trkpt lat="46.93546" lon="0.60639">
        <ele>47.4</ele>
        <time>2020-07-03T15:10:59Z</time>
      </trkpt>
      <trkpt lat="46.93549" lon="0.60635">
        <ele>47.5</ele>
        <time>2020-07-03T15:11:00Z</time>
      </trkpt>
      <trkpt lat="46.93552" lon="0.60631">
        <ele>47.7</ele>
        <time>2020-07-03T15:11:01Z</time>
      </trkpt>
      <trkpt lat="46.93554" lon="0.60628">
        <ele>47.8</ele>
        <time>2020-07-03T15:11:02Z</time>
      </trkpt>
      <trkpt lat="46.93555" lon="0.60622">
        <ele>48</ele>
        <time>2020-07-03T15:11:03Z</time>
      </trkpt>
      <trkpt lat="46.93557" lon="0.60618">
        <ele>48.1</ele>
        <time>2020-07-03T15:11:04Z</time>
      </trkpt>
      <trkpt lat="46.93559" lon="0.60614">
        <ele>48.3</ele>
        <time>2020-07-03T15:11:05Z</time>
      </trkpt>
      <trkpt lat="46.93561" lon="0.60611">
        <ele>48.3</ele>
        <time>2020-07-03T15:11:06Z</time>
      </trkpt>
      <trkpt lat="46.93563" lon="0.60607">
        <ele>48.4</ele>
        <time>2020-07-03T15:11:07Z</time>
      </trkpt>
      <trkpt lat="46.93564" lon="0.60606">
        <ele>48.4</ele>
        <time>2020-07-03T15:11:08Z</time>
      </trkpt>
      <trkpt lat="46.93567" lon="0.60601">
        <ele>48.5</ele>
        <time>2020-07-03T15:11:09Z</time>
      </trkpt>
      <trkpt lat="46.93569" lon="0.60599">
        <ele>48.6</ele>
        <time>2020-07-03T15:11:10Z</time>
      </trkpt>
      <trkpt lat="46.9357" lon="0.60597">
        <ele>48.6</ele>
        <time>2020-07-03T15:11:11Z</time>
      </trkpt>
      <trkpt lat="46.93574" lon="0.60596">
        <ele>48.6</ele>
        <time>2020-07-03T15:11:12Z</time>
      </trkpt>
      <trkpt lat="46.93575" lon="0.60596">
        <ele>48.6</ele>
        <time>2020-07-03T15:11:13Z</time>
      </trkpt>
      <trkpt lat="46.93578" lon="0.60598">
        <ele>48.6</ele>
        <time>2020-07-03T15:11:14Z</time>
      </trkpt>
      <trkpt lat="46.9358" lon="0.60599">
        <ele>48.6</ele>
        <time>2020-07-03T15:11:15Z</time>
      </trkpt>
      <trkpt lat="46.93583" lon="0.60601">
        <ele>48.6</ele>
        <time>2020-07-03T15:11:16Z</time>
      </trkpt>
      <trkpt lat="46.93584" lon="0.60601">
        <ele>48.6</ele>
        <time>2020-07-03T15:11:17Z</time>
      </trkpt>
      <trkpt lat="46.93589" lon="0.60602">
        <ele>48.6</ele>
        <time>2020-07-03T15:11:18Z</time>
      </trkpt>
      <trkpt lat="46.93591" lon="0.60602">
        <ele>48.6</ele>
        <time>2020-07-03T15:11:19Z</time>
      </trkpt>
      <trkpt lat="46.93595" lon="0.60603">
        <ele>48.7</ele>
        <time>2020-07-03T15:11:20Z</time>
      </trkpt>
      <trkpt lat="46.936" lon="0.60604">
        <ele>48.7</ele>
        <time>2020-07-03T15:11:21Z</time>
      </trkpt>
      <trkpt lat="46.93603" lon="0.60606">
        <ele>48.7</ele>
        <time>2020-07-03T15:11:22Z</time>
      </trkpt>
      <trkpt lat="46.93607" lon="0.60608">
        <ele>48.7</ele>
        <time>2020-07-03T15:11:23Z</time>
      </trkpt>
      <trkpt lat="46.9361" lon="0.60608">
        <ele>48.8</ele>
        <time>2020-07-03T15:11:24Z</time>
      </trkpt>
      <trkpt lat="46.93614" lon="0.60609">
        <ele>48.8</ele>
        <time>2020-07-03T15:11:25Z</time>
      </trkpt>
      <trkpt lat="46.93617" lon="0.60609">
        <ele>48.8</ele>
        <time>2020-07-03T15:11:26Z</time>
      </trkpt>
      <trkpt lat="46.93622" lon="0.6061">
        <ele>48.8</ele>
        <time>2020-07-03T15:11:27Z</time>
      </trkpt>
      <trkpt lat="46.93625" lon="0.6061">
        <ele>48.8</ele>
        <time>2020-07-03T15:11:28Z</time>
      </trkpt>
      <trkpt lat="46.93628" lon="0.60608">
        <ele>48.9</ele>
        <time>2020-07-03T15:11:29Z</time>
      </trkpt>
      <trkpt lat="46.93629" lon="0.60608">
        <ele>48.9</ele>
        <time>2020-07-03T15:11:30Z</time>
      </trkpt>
      <trkpt lat="46.9363" lon="0.60607">
        <ele>48.9</ele>
        <time>2020-07-03T15:11:31Z</time>
      </trkpt>
      <trkpt lat="46.9363" lon="0.60607">
        <ele>48.9</ele>
        <time>2020-07-03T15:11:32Z</time>
      </trkpt>
      <trkpt lat="46.93631" lon="0.60607">
        <ele>48.9</ele>
        <time>2020-07-03T15:11:33Z</time>
      </trkpt>
      <trkpt lat="46.93632" lon="0.60606">
        <ele>48.9</ele>
        <time>2020-07-03T15:11:34Z</time>
      </trkpt>
      <trkpt lat="46.93635" lon="0.60605">
        <ele>48.9</ele>
        <time>2020-07-03T15:11:35Z</time>
      </trkpt>
      <trkpt lat="46.93636" lon="0.60606">
        <ele>48.9</ele>
        <time>2020-07-03T15:11:36Z</time>
      </trkpt>
      <trkpt lat="46.93639" lon="0.60605">
        <ele>48.9</ele>
        <time>2020-07-03T15:11:37Z</time>
      </trkpt>
      <trkpt lat="46.93639" lon="0.60603">
        <ele>48.9</ele>
        <time>2020-07-03T15:11:38Z</time>
      </trkpt>
      <trkpt lat="46.9364" lon="0.60601">
        <ele>48.9</ele>
        <time>2020-07-03T15:11:39Z</time>
      </trkpt>
      <trkpt lat="46.93641" lon="0.60601">
        <ele>48.9</ele>
        <time>2020-07-03T15:11:40Z</time>
      </trkpt>
      <trkpt lat="46.93644" lon="0.60601">
        <ele>48.9</ele>
        <time>2020-07-03T15:11:41Z</time>
      </trkpt>
      <trkpt lat="46.93645" lon="0.606">
        <ele>48.9</ele>
        <time>2020-07-03T15:11:42Z</time>
      </trkpt>
      <trkpt lat="46.93648" lon="0.60602">
        <ele>48.9</ele>
        <time>2020-07-03T15:11:43Z</time>
      </trkpt>
      <trkpt lat="46.93649" lon="0.60602">
        <ele>48.9</ele>
        <time>2020-07-03T15:11:44Z</time>
      </trkpt>
      <trkpt lat="46.9365" lon="0.60603">
        <ele>48.9</ele>
        <time>2020-07-03T15:11:45Z</time>
      </trkpt>
      <trkpt lat="46.93651" lon="0.60602">
        <ele>48.9</ele>
        <time>2020-07-03T15:11:46Z</time>
      </trkpt>
      <trkpt lat="46.93651" lon="0.60602">
        <ele>48.9</ele>
        <time>2020-07-03T15:11:47Z</time>
      </trkpt>
      <trkpt lat="46.9365" lon="0.606">
        <ele>48.9</ele>
        <time>2020-07-03T15:11:48Z</time>
      </trkpt>
      <trkpt lat="46.9365" lon="0.606">
        <ele>48.9</ele>
        <time>2020-07-03T15:11:49Z</time>
      </trkpt>
      <trkpt lat="46.9365" lon="0.606">
        <ele>48.9</ele>
        <time>2020-07-03T15:11:50Z</time>
      </trkpt>
      <trkpt lat="46.9365" lon="0.606">
        <ele>48.9</ele>
        <time>2020-07-03T15:11:51Z</time>
      </trkpt>
      <trkpt lat="46.9365" lon="0.606">
        <ele>48.9</ele>
        <time>2020-07-03T15:11:52Z</time>
      </trkpt>
      <trkpt lat="46.9365" lon="0.60599">
        <ele>48.9</ele>
        <time>2020-07-03T15:11:53Z</time>
      </trkpt>
      <trkpt lat="46.93649" lon="0.60597">
        <ele>48.9</ele>
        <time>2020-07-03T15:11:54Z</time>
      </trkpt>
      <trkpt lat="46.93649" lon="0.60596">
        <ele>48.9</ele>
        <time>2020-07-03T15:11:55Z</time>
      </trkpt>
      <trkpt lat="46.93649" lon="0.60596">
        <ele>48.9</ele>
        <time>2020-07-03T15:11:56Z</time>
      </trkpt>
      <trkpt lat="46.93648" lon="0.60595">
        <ele>48.9</ele>
        <time>2020-07-03T15:11:57Z</time>
      </trkpt>
      <trkpt lat="46.93648" lon="0.60594">
        <ele>48.9</ele>
        <time>2020-07-03T15:11:58Z</time>
      </trkpt>
      <trkpt lat="46.93648" lon="0.60594">
        <ele>48.9</ele>
        <time>2020-07-03T15:11:59Z</time>
      </trkpt>
      <trkpt lat="46.93647" lon="0.60593">
        <ele>48.9</ele>
        <time>2020-07-03T15:12:00Z</time>
      </trkpt>
      <trkpt lat="46.93647" lon="0.60592">
        <ele>48.9</ele>
        <time>2020-07-03T15:12:01Z</time>
      </trkpt>
      <trkpt lat="46.93647" lon="0.60592">
        <ele>48.9</ele>
        <time>2020-07-03T15:12:02Z</time>
      </trkpt>
      <trkpt lat="46.93646" lon="0.60591">
        <ele>48.9</ele>
        <time>2020-07-03T15:12:03Z</time>
      </trkpt>
      <trkpt lat="46.93646" lon="0.6059">
        <ele>48.9</ele>
        <time>2020-07-03T15:12:13Z</time>
      </trkpt>
      <trkpt lat="46.93646" lon="0.6059">
        <ele>48.9</ele>
        <time>2020-07-03T15:12:14Z</time>
      </trkpt>
      <trkpt lat="46.93645" lon="0.60589">
        <ele>48.9</ele>
        <time>2020-07-03T15:12:15Z</time>
      </trkpt>
      <trkpt lat="46.93645" lon="0.60588">
        <ele>48.9</ele>
        <time>2020-07-03T15:12:16Z</time>
      </trkpt>
      <trkpt lat="46.93645" lon="0.60588">
        <ele>48.9</ele>
        <time>2020-07-03T15:12:17Z</time>
      </trkpt>
      <trkpt lat="46.93644" lon="0.60587">
        <ele>48.9</ele>
        <time>2020-07-03T15:12:18Z</time>
      </trkpt>
      <trkpt lat="46.93644" lon="0.60586">
        <ele>48.9</ele>
        <time>2020-07-03T15:12:19Z</time>
      </trkpt>
      <trkpt lat="46.93643" lon="0.60586">
        <ele>48.9</ele>
        <time>2020-07-03T15:12:20Z</time>
      </trkpt>
      <trkpt lat="46.93643" lon="0.60585">
        <ele>48.9</ele>
        <time>2020-07-03T15:12:21Z</time>
      </trkpt>
      <trkpt lat="46.93643" lon="0.60584">
        <ele>48.9</ele>
        <time>2020-07-03T15:12:22Z</time>
      </trkpt>
      <trkpt lat="46.93642" lon="0.60584">
        <ele>48.9</ele>
        <time>2020-07-03T15:12:23Z</time>
      </trkpt>
      <trkpt lat="46.93642" lon="0.60583">
        <ele>48.9</ele>
        <time>2020-07-03T15:19:35Z</time>
      </trkpt>
      <trkpt lat="46.93642" lon="0.60582">
        <ele>48.9</ele>
        <time>2020-07-03T15:19:36Z</time>
      </trkpt>
      <trkpt lat="46.93641" lon="0.60579">
        <ele>48.8</ele>
        <time>2020-07-03T15:19:37Z</time>
      </trkpt>
      <trkpt lat="46.93641" lon="0.60576">
        <ele>48.7</ele>
        <time>2020-07-03T15:19:38Z</time>
      </trkpt>
      <trkpt lat="46.9364" lon="0.60574">
        <ele>48.7</ele>
        <time>2020-07-03T15:19:39Z</time>
      </trkpt>
      <trkpt lat="46.9364" lon="0.60564">
        <ele>48.5</ele>
        <time>2020-07-03T15:19:40Z</time>
      </trkpt>
      <trkpt lat="46.9364" lon="0.60553">
        <ele>48.3</ele>
        <time>2020-07-03T15:19:41Z</time>
      </trkpt>
      <trkpt lat="46.93639" lon="0.60542">
        <ele>48.1</ele>
        <time>2020-07-03T15:19:42Z</time>
      </trkpt>
      <trkpt lat="46.93638" lon="0.60534">
        <ele>48</ele>
        <time>2020-07-03T15:19:43Z</time>
      </trkpt>
      <trkpt lat="46.93639" lon="0.60525">
        <ele>47.8</ele>
        <time>2020-07-03T15:19:44Z</time>
      </trkpt>
      <trkpt lat="46.9364" lon="0.60515">
        <ele>47.5</ele>
        <time>2020-07-03T15:19:45Z</time>
      </trkpt>
      <trkpt lat="46.93639" lon="0.60505">
        <ele>47.4</ele>
        <time>2020-07-03T15:19:46Z</time>
      </trkpt>
      <trkpt lat="46.93638" lon="0.60495">
        <ele>47.4</ele>
        <time>2020-07-03T15:19:47Z</time>
      </trkpt>
      <trkpt lat="46.93638" lon="0.60485">
        <ele>47.4</ele>
        <time>2020-07-03T15:19:48Z</time>
      </trkpt>
      <trkpt lat="46.93637" lon="0.60475">
        <ele>47.3</ele>
        <time>2020-07-03T15:19:49Z</time>
      </trkpt>
      <trkpt lat="46.93637" lon="0.60467">
        <ele>47.3</ele>
        <time>2020-07-03T15:19:50Z</time>
      </trkpt>
      <trkpt lat="46.93637" lon="0.60458">
        <ele>47.3</ele>
        <time>2020-07-03T15:19:51Z</time>
      </trkpt>
      <trkpt lat="46.93636" lon="0.60449">
        <ele>47.3</ele>
        <time>2020-07-03T15:19:52Z</time>
      </trkpt>
      <trkpt lat="46.93636" lon="0.6044">
        <ele>47.3</ele>
        <time>2020-07-03T15:19:53Z</time>
      </trkpt>
      <trkpt lat="46.93636" lon="0.60432">
        <ele>47.2</ele>
        <time>2020-07-03T15:19:54Z</time>
      </trkpt>
      <trkpt lat="46.93636" lon="0.60422">
        <ele>47.2</ele>
        <time>2020-07-03T15:19:55Z</time>
      </trkpt>
      <trkpt lat="46.93635" lon="0.60414">
        <ele>47.2</ele>
        <time>2020-07-03T15:19:56Z</time>
      </trkpt>
      <trkpt lat="46.93635" lon="0.60405">
        <ele>47.2</ele>
        <time>2020-07-03T15:19:57Z</time>
      </trkpt>
      <trkpt lat="46.93635" lon="0.60396">
        <ele>47.1</ele>
        <time>2020-07-03T15:19:58Z</time>
      </trkpt>
      <trkpt lat="46.93634" lon="0.60389">
        <ele>47.1</ele>
        <time>2020-07-03T15:19:59Z</time>
      </trkpt>
      <trkpt lat="46.93634" lon="0.6038">
        <ele>47.1</ele>
        <time>2020-07-03T15:20:00Z</time>
      </trkpt>
      <trkpt lat="46.93633" lon="0.60371">
        <ele>47.1</ele>
        <time>2020-07-03T15:20:01Z</time>
      </trkpt>
      <trkpt lat="46.93633" lon="0.60362">
        <ele>47</ele>
        <time>2020-07-03T15:20:02Z</time>
      </trkpt>
      <trkpt lat="46.93633" lon="0.60354">
        <ele>47</ele>
        <time>2020-07-03T15:20:03Z</time>
      </trkpt>
      <trkpt lat="46.93633" lon="0.60346">
        <ele>47</ele>
        <time>2020-07-03T15:20:04Z</time>
      </trkpt>
      <trkpt lat="46.93633" lon="0.60337">
        <ele>46.9</ele>
        <time>2020-07-03T15:20:05Z</time>
      </trkpt>
      <trkpt lat="46.93633" lon="0.60329">
        <ele>46.9</ele>
        <time>2020-07-03T15:20:06Z</time>
      </trkpt>
      <trkpt lat="46.93633" lon="0.60321">
        <ele>46.9</ele>
        <time>2020-07-03T15:20:07Z</time>
      </trkpt>
      <trkpt lat="46.93633" lon="0.60312">
        <ele>46.9</ele>
        <time>2020-07-03T15:20:08Z</time>
      </trkpt>
      <trkpt lat="46.93632" lon="0.60303">
        <ele>46.9</ele>
        <time>2020-07-03T15:20:09Z</time>
      </trkpt>
      <trkpt lat="46.93632" lon="0.60293">
        <ele>46.8</ele>
        <time>2020-07-03T15:20:10Z</time>
      </trkpt>
      <trkpt lat="46.93632" lon="0.60283">
        <ele>46.8</ele>
        <time>2020-07-03T15:20:11Z</time>
      </trkpt>
      <trkpt lat="46.93632" lon="0.60273">
        <ele>46.8</ele>
        <time>2020-07-03T15:20:12Z</time>
      </trkpt>
      <trkpt lat="46.93631" lon="0.60263">
        <ele>46.7</ele>
        <time>2020-07-03T15:20:13Z</time>
      </trkpt>
      <trkpt lat="46.9363" lon="0.60254">
        <ele>46.7</ele>
        <time>2020-07-03T15:20:14Z</time>
      </trkpt>
      <trkpt lat="46.9363" lon="0.60244">
        <ele>46.7</ele>
        <time>2020-07-03T15:20:15Z</time>
      </trkpt>
      <trkpt lat="46.93628" lon="0.60235">
        <ele>46.7</ele>
        <time>2020-07-03T15:20:16Z</time>
      </trkpt>
      <trkpt lat="46.93628" lon="0.60227">
        <ele>46.7</ele>
        <time>2020-07-03T15:20:17Z</time>
      </trkpt>
      <trkpt lat="46.93626" lon="0.60217">
        <ele>46.7</ele>
        <time>2020-07-03T15:20:18Z</time>
      </trkpt>
      <trkpt lat="46.93625" lon="0.60206">
        <ele>46.7</ele>
        <time>2020-07-03T15:20:19Z</time>
      </trkpt>
      <trkpt lat="46.93625" lon="0.60196">
        <ele>46.7</ele>
        <time>2020-07-03T15:20:20Z</time>
      </trkpt>
      <trkpt lat="46.93625" lon="0.60188">
        <ele>46.7</ele>
        <time>2020-07-03T15:20:21Z</time>
      </trkpt>
      <trkpt lat="46.93624" lon="0.6018">
        <ele>46.7</ele>
        <time>2020-07-03T15:20:22Z</time>
      </trkpt>
      <trkpt lat="46.93623" lon="0.60171">
        <ele>46.7</ele>
        <time>2020-07-03T15:20:23Z</time>
      </trkpt>
      <trkpt lat="46.93623" lon="0.60161">
        <ele>46.7</ele>
        <time>2020-07-03T15:20:24Z</time>
      </trkpt>
      <trkpt lat="46.93622" lon="0.60152">
        <ele>46.7</ele>
        <time>2020-07-03T15:20:25Z</time>
      </trkpt>
      <trkpt lat="46.93622" lon="0.60143">
        <ele>46.8</ele>
        <time>2020-07-03T15:20:26Z</time>
      </trkpt>
      <trkpt lat="46.93622" lon="0.60134">
        <ele>46.8</ele>
        <time>2020-07-03T15:20:27Z</time>
      </trkpt>
      <trkpt lat="46.93621" lon="0.60127">
        <ele>46.9</ele>
        <time>2020-07-03T15:20:28Z</time>
      </trkpt>
      <trkpt lat="46.9362" lon="0.60118">
        <ele>46.9</ele>
        <time>2020-07-03T15:20:29Z</time>
      </trkpt>
      <trkpt lat="46.9362" lon="0.60109">
        <ele>47</ele>
        <time>2020-07-03T15:20:30Z</time>
      </trkpt>
      <trkpt lat="46.93619" lon="0.60102">
        <ele>47.1</ele>
        <time>2020-07-03T15:20:31Z</time>
      </trkpt>
      <trkpt lat="46.93618" lon="0.60095">
        <ele>47.2</ele>
        <time>2020-07-03T15:20:32Z</time>
      </trkpt>
      <trkpt lat="46.93618" lon="0.60088">
        <ele>47.2</ele>
        <time>2020-07-03T15:20:33Z</time>
      </trkpt>
      <trkpt lat="46.93618" lon="0.60081">
        <ele>47.3</ele>
        <time>2020-07-03T15:20:34Z</time>
      </trkpt>
      <trkpt lat="46.93617" lon="0.60076">
        <ele>47.4</ele>
        <time>2020-07-03T15:20:35Z</time>
      </trkpt>
      <trkpt lat="46.93617" lon="0.60071">
        <ele>47.4</ele>
        <time>2020-07-03T15:20:36Z</time>
      </trkpt>
      <trkpt lat="46.93617" lon="0.60064">
        <ele>47.5</ele>
        <time>2020-07-03T15:20:37Z</time>
      </trkpt>
      <trkpt lat="46.93616" lon="0.60057">
        <ele>47.6</ele>
        <time>2020-07-03T15:20:38Z</time>
      </trkpt>
      <trkpt lat="46.93615" lon="0.60051">
        <ele>47.7</ele>
        <time>2020-07-03T15:20:39Z</time>
      </trkpt>
      <trkpt lat="46.93615" lon="0.60044">
        <ele>47.8</ele>
        <time>2020-07-03T15:20:40Z</time>
      </trkpt>
      <trkpt lat="46.93615" lon="0.60036">
        <ele>47.8</ele>
        <time>2020-07-03T15:20:41Z</time>
      </trkpt>
      <trkpt lat="46.93615" lon="0.60029">
        <ele>47.9</ele>
        <time>2020-07-03T15:20:42Z</time>
      </trkpt>
      <trkpt lat="46.93614" lon="0.60022">
        <ele>47.9</ele>
        <time>2020-07-03T15:20:43Z</time>
      </trkpt>
      <trkpt lat="46.93614" lon="0.60017">
        <ele>47.9</ele>
        <time>2020-07-03T15:20:44Z</time>
      </trkpt>
      <trkpt lat="46.93613" lon="0.60012">
        <ele>47.9</ele>
        <time>2020-07-03T15:20:45Z</time>
      </trkpt>
      <trkpt lat="46.93613" lon="0.60006">
        <ele>47.8</ele>
        <time>2020-07-03T15:20:46Z</time>
      </trkpt>
      <trkpt lat="46.93613" lon="0.6">
        <ele>47.8</ele>
        <time>2020-07-03T15:20:47Z</time>
      </trkpt>
      <trkpt lat="46.93613" lon="0.59994">
        <ele>47.7</ele>
        <time>2020-07-03T15:20:48Z</time>
      </trkpt>
      <trkpt lat="46.93612" lon="0.59987">
        <ele>47.6</ele>
        <time>2020-07-03T15:20:49Z</time>
      </trkpt>
      <trkpt lat="46.93611" lon="0.59979">
        <ele>47.5</ele>
        <time>2020-07-03T15:20:50Z</time>
      </trkpt>
      <trkpt lat="46.9361" lon="0.59971">
        <ele>47.4</ele>
        <time>2020-07-03T15:20:51Z</time>
      </trkpt>
      <trkpt lat="46.9361" lon="0.59964">
        <ele>47.3</ele>
        <time>2020-07-03T15:20:52Z</time>
      </trkpt>
      <trkpt lat="46.9361" lon="0.59956">
        <ele>47.2</ele>
        <time>2020-07-03T15:20:53Z</time>
      </trkpt>
      <trkpt lat="46.93609" lon="0.59948">
        <ele>47</ele>
        <time>2020-07-03T15:20:54Z</time>
      </trkpt>
      <trkpt lat="46.93609" lon="0.59941">
        <ele>46.9</ele>
        <time>2020-07-03T15:20:55Z</time>
      </trkpt>
      <trkpt lat="46.93608" lon="0.59932">
        <ele>46.9</ele>
        <time>2020-07-03T15:20:56Z</time>
      </trkpt>
      <trkpt lat="46.93607" lon="0.59922">
        <ele>46.8</ele>
        <time>2020-07-03T15:20:57Z</time>
      </trkpt>
      <trkpt lat="46.93607" lon="0.59912">
        <ele>46.7</ele>
        <time>2020-07-03T15:20:58Z</time>
      </trkpt>
      <trkpt lat="46.93606" lon="0.59903">
        <ele>46.6</ele>
        <time>2020-07-03T15:20:59Z</time>
      </trkpt>
      <trkpt lat="46.93606" lon="0.59893">
        <ele>46.5</ele>
        <time>2020-07-03T15:21:00Z</time>
      </trkpt>
      <trkpt lat="46.93606" lon="0.59882">
        <ele>46.4</ele>
        <time>2020-07-03T15:21:01Z</time>
      </trkpt>
      <trkpt lat="46.93606" lon="0.59872">
        <ele>46.4</ele>
        <time>2020-07-03T15:21:02Z</time>
      </trkpt>
      <trkpt lat="46.93606" lon="0.59863">
        <ele>46.3</ele>
        <time>2020-07-03T15:21:03Z</time>
      </trkpt>
      <trkpt lat="46.93606" lon="0.59855">
        <ele>46.2</ele>
        <time>2020-07-03T15:21:04Z</time>
      </trkpt>
      <trkpt lat="46.93606" lon="0.59845">
        <ele>46.2</ele>
        <time>2020-07-03T15:21:05Z</time>
      </trkpt>
      <trkpt lat="46.93608" lon="0.59836">
        <ele>46.2</ele>
        <time>2020-07-03T15:21:06Z</time>
      </trkpt>
      <trkpt lat="46.93609" lon="0.59828">
        <ele>46.2</ele>
        <time>2020-07-03T15:21:07Z</time>
      </trkpt>
      <trkpt lat="46.9361" lon="0.5982">
        <ele>46.2</ele>
        <time>2020-07-03T15:21:08Z</time>
      </trkpt>
      <trkpt lat="46.9361" lon="0.59814">
        <ele>46.2</ele>
        <time>2020-07-03T15:21:09Z</time>
      </trkpt>
      <trkpt lat="46.93611" lon="0.59806">
        <ele>46.2</ele>
        <time>2020-07-03T15:21:10Z</time>
      </trkpt>
      <trkpt lat="46.9361" lon="0.59801">
        <ele>46.2</ele>
        <time>2020-07-03T15:21:11Z</time>
      </trkpt>
      <trkpt lat="46.93608" lon="0.59798">
        <ele>46.3</ele>
        <time>2020-07-03T15:21:12Z</time>
      </trkpt>
      <trkpt lat="46.93608" lon="0.59797">
        <ele>46.3</ele>
        <time>2020-07-03T15:21:13Z</time>
      </trkpt>
      <trkpt lat="46.93605" lon="0.59796">
        <ele>46.3</ele>
        <time>2020-07-03T15:21:14Z</time>
      </trkpt>
      <trkpt lat="46.93603" lon="0.59796">
        <ele>46.3</ele>
        <time>2020-07-03T15:21:15Z</time>
      </trkpt>
      <trkpt lat="46.936" lon="0.59796">
        <ele>45.9</ele>
        <time>2020-07-03T15:21:16Z</time>
      </trkpt>
      <trkpt lat="46.93595" lon="0.59795">
        <ele>45.7</ele>
        <time>2020-07-03T15:21:17Z</time>
      </trkpt>
      <trkpt lat="46.9359" lon="0.59797">
        <ele>45.4</ele>
        <time>2020-07-03T15:21:18Z</time>
      </trkpt>
      <trkpt lat="46.93582" lon="0.59797">
        <ele>45.1</ele>
        <time>2020-07-03T15:21:19Z</time>
      </trkpt>
      <trkpt lat="46.93574" lon="0.59796">
        <ele>44.7</ele>
        <time>2020-07-03T15:21:20Z</time>
      </trkpt>
      <trkpt lat="46.93568" lon="0.59795">
        <ele>44.5</ele>
        <time>2020-07-03T15:21:21Z</time>
      </trkpt>
      <trkpt lat="46.93561" lon="0.59792">
        <ele>44.2</ele>
        <time>2020-07-03T15:21:22Z</time>
      </trkpt>
      <trkpt lat="46.93554" lon="0.5979">
        <ele>44.1</ele>
        <time>2020-07-03T15:21:23Z</time>
      </trkpt>
      <trkpt lat="46.93548" lon="0.59787">
        <ele>44</ele>
        <time>2020-07-03T15:21:24Z</time>
      </trkpt>
      <trkpt lat="46.93542" lon="0.59786">
        <ele>44</ele>
        <time>2020-07-03T15:21:25Z</time>
      </trkpt>
      <trkpt lat="46.93536" lon="0.59785">
        <ele>44</ele>
        <time>2020-07-03T15:21:26Z</time>
      </trkpt>
      <trkpt lat="46.93531" lon="0.59782">
        <ele>44</ele>
        <time>2020-07-03T15:21:27Z</time>
      </trkpt>
      <trkpt lat="46.93524" lon="0.5978">
        <ele>44</ele>
        <time>2020-07-03T15:21:28Z</time>
      </trkpt>
      <trkpt lat="46.93518" lon="0.59779">
        <ele>44</ele>
        <time>2020-07-03T15:21:29Z</time>
      </trkpt>
      <trkpt lat="46.93513" lon="0.59777">
        <ele>44.1</ele>
        <time>2020-07-03T15:21:30Z</time>
      </trkpt>
      <trkpt lat="46.93507" lon="0.59776">
        <ele>44.1</ele>
        <time>2020-07-03T15:21:31Z</time>
      </trkpt>
      <trkpt lat="46.93504" lon="0.59773">
        <ele>44.2</ele>
        <time>2020-07-03T15:21:32Z</time>
      </trkpt>
      <trkpt lat="46.93497" lon="0.59773">
        <ele>44.2</ele>
        <time>2020-07-03T15:21:33Z</time>
      </trkpt>
      <trkpt lat="46.93492" lon="0.59772">
        <ele>44.3</ele>
        <time>2020-07-03T15:21:34Z</time>
      </trkpt>
      <trkpt lat="46.93486" lon="0.59772">
        <ele>44.3</ele>
        <time>2020-07-03T15:21:35Z</time>
      </trkpt>
      <trkpt lat="46.9348" lon="0.59771">
        <ele>44.4</ele>
        <time>2020-07-03T15:21:36Z</time>
      </trkpt>
      <trkpt lat="46.93473" lon="0.59771">
        <ele>44.4</ele>
        <time>2020-07-03T15:21:37Z</time>
      </trkpt>
      <trkpt lat="46.93467" lon="0.5977">
        <ele>44.5</ele>
        <time>2020-07-03T15:21:38Z</time>
      </trkpt>
      <trkpt lat="46.93461" lon="0.59769">
        <ele>44.6</ele>
        <time>2020-07-03T15:21:39Z</time>
      </trkpt>
      <trkpt lat="46.93456" lon="0.59767">
        <ele>44.6</ele>
        <time>2020-07-03T15:21:40Z</time>
      </trkpt>
      <trkpt lat="46.9345" lon="0.59766">
        <ele>44.7</ele>
        <time>2020-07-03T15:21:41Z</time>
      </trkpt>
      <trkpt lat="46.93445" lon="0.59766">
        <ele>44.8</ele>
        <time>2020-07-03T15:21:42Z</time>
      </trkpt>
      <trkpt lat="46.9344" lon="0.59765">
        <ele>44.8</ele>
        <time>2020-07-03T15:21:43Z</time>
      </trkpt>
      <trkpt lat="46.93434" lon="0.59764">
        <ele>44.8</ele>
        <time>2020-07-03T15:21:44Z</time>
      </trkpt>
      <trkpt lat="46.93428" lon="0.59763">
        <ele>44.8</ele>
        <time>2020-07-03T15:21:45Z</time>
      </trkpt>
      <trkpt lat="46.93423" lon="0.59761">
        <ele>44.8</ele>
        <time>2020-07-03T15:21:46Z</time>
      </trkpt>
      <trkpt lat="46.93419" lon="0.59758">
        <ele>44.8</ele>
        <time>2020-07-03T15:21:47Z</time>
      </trkpt>
      <trkpt lat="46.93412" lon="0.59754">
        <ele>44.8</ele>
        <time>2020-07-03T15:21:48Z</time>
      </trkpt>
      <trkpt lat="46.93407" lon="0.5975">
        <ele>44.7</ele>
        <time>2020-07-03T15:21:49Z</time>
      </trkpt>
      <trkpt lat="46.93404" lon="0.59748">
        <ele>44.7</ele>
        <time>2020-07-03T15:21:50Z</time>
      </trkpt>
      <trkpt lat="46.93399" lon="0.59744">
        <ele>44.7</ele>
        <time>2020-07-03T15:21:51Z</time>
      </trkpt>
      <trkpt lat="46.93394" lon="0.59741">
        <ele>44.7</ele>
        <time>2020-07-03T15:21:52Z</time>
      </trkpt>
      <trkpt lat="46.93388" lon="0.59738">
        <ele>44.7</ele>
        <time>2020-07-03T15:21:53Z</time>
      </trkpt>
      <trkpt lat="46.93383" lon="0.59735">
        <ele>44.8</ele>
        <time>2020-07-03T15:21:54Z</time>
      </trkpt>
      <trkpt lat="46.93377" lon="0.5973">
        <ele>44.8</ele>
        <time>2020-07-03T15:21:55Z</time>
      </trkpt>
      <trkpt lat="46.93373" lon="0.59728">
        <ele>44.8</ele>
        <time>2020-07-03T15:21:56Z</time>
      </trkpt>
      <trkpt lat="46.93368" lon="0.59724">
        <ele>44.8</ele>
        <time>2020-07-03T15:21:57Z</time>
      </trkpt>
      <trkpt lat="46.93362" lon="0.59719">
        <ele>44.8</ele>
        <time>2020-07-03T15:21:58Z</time>
      </trkpt>
      <trkpt lat="46.93358" lon="0.59715">
        <ele>44.8</ele>
        <time>2020-07-03T15:21:59Z</time>
      </trkpt>
      <trkpt lat="46.93353" lon="0.5971">
        <ele>44.8</ele>
        <time>2020-07-03T15:22:00Z</time>
      </trkpt>
      <trkpt lat="46.93348" lon="0.59702">
        <ele>44.8</ele>
        <time>2020-07-03T15:22:01Z</time>
      </trkpt>
      <trkpt lat="46.93344" lon="0.59696">
        <ele>44.8</ele>
        <time>2020-07-03T15:22:02Z</time>
      </trkpt>
      <trkpt lat="46.9334" lon="0.5969">
        <ele>44.8</ele>
        <time>2020-07-03T15:22:03Z</time>
      </trkpt>
      <trkpt lat="46.93336" lon="0.59686">
        <ele>44.8</ele>
        <time>2020-07-03T15:22:04Z</time>
      </trkpt>
      <trkpt lat="46.93332" lon="0.5968">
        <ele>44.9</ele>
        <time>2020-07-03T15:22:05Z</time>
      </trkpt>
      <trkpt lat="46.93328" lon="0.59675">
        <ele>44.9</ele>
        <time>2020-07-03T15:22:06Z</time>
      </trkpt>
      <trkpt lat="46.93324" lon="0.5967">
        <ele>45</ele>
        <time>2020-07-03T15:22:07Z</time>
      </trkpt>
      <trkpt lat="46.93319" lon="0.59666">
        <ele>45</ele>
        <time>2020-07-03T15:22:08Z</time>
      </trkpt>
      <trkpt lat="46.93314" lon="0.59661">
        <ele>45.1</ele>
        <time>2020-07-03T15:22:09Z</time>
      </trkpt>
      <trkpt lat="46.93309" lon="0.59655">
        <ele>45.2</ele>
        <time>2020-07-03T15:22:10Z</time>
      </trkpt>
      <trkpt lat="46.93306" lon="0.59652">
        <ele>45.3</ele>
        <time>2020-07-03T15:22:11Z</time>
      </trkpt>
      <trkpt lat="46.93301" lon="0.59648">
        <ele>45.4</ele>
        <time>2020-07-03T15:22:12Z</time>
      </trkpt>
      <trkpt lat="46.93297" lon="0.59643">
        <ele>45.4</ele>
        <time>2020-07-03T15:22:13Z</time>
      </trkpt>
      <trkpt lat="46.93292" lon="0.59638">
        <ele>45.5</ele>
        <time>2020-07-03T15:22:14Z</time>
      </trkpt>
      <trkpt lat="46.93288" lon="0.59633">
        <ele>45.5</ele>
        <time>2020-07-03T15:22:15Z</time>
      </trkpt>
      <trkpt lat="46.93283" lon="0.59628">
        <ele>45.6</ele>
        <time>2020-07-03T15:22:16Z</time>
      </trkpt>
      <trkpt lat="46.93279" lon="0.59623">
        <ele>45.6</ele>
        <time>2020-07-03T15:22:17Z</time>
      </trkpt>
      <trkpt lat="46.93275" lon="0.59618">
        <ele>45.7</ele>
        <time>2020-07-03T15:22:18Z</time>
      </trkpt>
      <trkpt lat="46.93271" lon="0.59614">
        <ele>45.7</ele>
        <time>2020-07-03T15:22:19Z</time>
      </trkpt>
      <trkpt lat="46.93266" lon="0.59608">
        <ele>45.7</ele>
        <time>2020-07-03T15:22:20Z</time>
      </trkpt>
      <trkpt lat="46.93262" lon="0.59603">
        <ele>45.8</ele>
        <time>2020-07-03T15:22:21Z</time>
      </trkpt>
      <trkpt lat="46.93258" lon="0.59598">
        <ele>45.9</ele>
        <time>2020-07-03T15:22:22Z</time>
      </trkpt>
      <trkpt lat="46.93254" lon="0.59595">
        <ele>45.9</ele>
        <time>2020-07-03T15:22:23Z</time>
      </trkpt>
      <trkpt lat="46.93249" lon="0.59589">
        <ele>45.9</ele>
        <time>2020-07-03T15:22:24Z</time>
      </trkpt>
      <trkpt lat="46.93245" lon="0.59585">
        <ele>46</ele>
        <time>2020-07-03T15:22:25Z</time>
      </trkpt>
      <trkpt lat="46.93239" lon="0.59581">
        <ele>46</ele>
        <time>2020-07-03T15:22:26Z</time>
      </trkpt>
      <trkpt lat="46.93234" lon="0.59576">
        <ele>46.1</ele>
        <time>2020-07-03T15:22:27Z</time>
      </trkpt>
      <trkpt lat="46.93229" lon="0.59572">
        <ele>46.1</ele>
        <time>2020-07-03T15:22:28Z</time>
      </trkpt>
      <trkpt lat="46.93222" lon="0.59563">
        <ele>46.2</ele>
        <time>2020-07-03T15:22:29Z</time>
      </trkpt>
      <trkpt lat="46.93218" lon="0.59556">
        <ele>46.2</ele>
        <time>2020-07-03T15:22:30Z</time>
      </trkpt>
      <trkpt lat="46.93215" lon="0.59552">
        <ele>46.2</ele>
        <time>2020-07-03T15:22:31Z</time>
      </trkpt>
      <trkpt lat="46.9321" lon="0.59547">
        <ele>46.3</ele>
        <time>2020-07-03T15:22:32Z</time>
      </trkpt>
      <trkpt lat="46.93207" lon="0.59543">
        <ele>46.3</ele>
        <time>2020-07-03T15:22:33Z</time>
      </trkpt>
      <trkpt lat="46.93202" lon="0.59538">
        <ele>46.3</ele>
        <time>2020-07-03T15:22:34Z</time>
      </trkpt>
      <trkpt lat="46.93196" lon="0.59533">
        <ele>46.4</ele>
        <time>2020-07-03T15:22:35Z</time>
      </trkpt>
      <trkpt lat="46.93192" lon="0.59528">
        <ele>46.4</ele>
        <time>2020-07-03T15:22:36Z</time>
      </trkpt>
      <trkpt lat="46.93187" lon="0.59522">
        <ele>46.5</ele>
        <time>2020-07-03T15:22:37Z</time>
      </trkpt>
      <trkpt lat="46.93183" lon="0.59517">
        <ele>46.5</ele>
        <time>2020-07-03T15:22:38Z</time>
      </trkpt>
      <trkpt lat="46.93178" lon="0.59513">
        <ele>46.5</ele>
        <time>2020-07-03T15:22:39Z</time>
      </trkpt>
      <trkpt lat="46.93174" lon="0.59509">
        <ele>46.5</ele>
        <time>2020-07-03T15:22:40Z</time>
      </trkpt>
      <trkpt lat="46.93171" lon="0.59504">
        <ele>46.5</ele>
        <time>2020-07-03T15:22:41Z</time>
      </trkpt>
      <trkpt lat="46.93167" lon="0.59498">
        <ele>46.5</ele>
        <time>2020-07-03T15:22:42Z</time>
      </trkpt>
      <trkpt lat="46.93163" lon="0.59492">
        <ele>46.6</ele>
        <time>2020-07-03T15:22:43Z</time>
      </trkpt>
      <trkpt lat="46.93159" lon="0.59486">
        <ele>46.6</ele>
        <time>2020-07-03T15:22:44Z</time>
      </trkpt>
      <trkpt lat="46.93154" lon="0.5948">
        <ele>46.6</ele>
        <time>2020-07-03T15:22:45Z</time>
      </trkpt>
      <trkpt lat="46.9315" lon="0.59475">
        <ele>46.6</ele>
        <time>2020-07-03T15:22:46Z</time>
      </trkpt>
      <trkpt lat="46.93145" lon="0.59471">
        <ele>46.6</ele>
        <time>2020-07-03T15:22:47Z</time>
      </trkpt>
      <trkpt lat="46.9314" lon="0.59465">
        <ele>46.6</ele>
        <time>2020-07-03T15:22:48Z</time>
      </trkpt>
      <trkpt lat="46.93135" lon="0.5946">
        <ele>46.6</ele>
        <time>2020-07-03T15:22:49Z</time>
      </trkpt>
      <trkpt lat="46.9313" lon="0.59454">
        <ele>46.6</ele>
        <time>2020-07-03T15:22:50Z</time>
      </trkpt>
      <trkpt lat="46.93124" lon="0.59448">
        <ele>46.6</ele>
        <time>2020-07-03T15:22:51Z</time>
      </trkpt>
      <trkpt lat="46.93119" lon="0.59442">
        <ele>46.6</ele>
        <time>2020-07-03T15:22:52Z</time>
      </trkpt>
      <trkpt lat="46.93114" lon="0.59436">
        <ele>46.6</ele>
        <time>2020-07-03T15:22:53Z</time>
      </trkpt>
      <trkpt lat="46.9311" lon="0.59432">
        <ele>46.6</ele>
        <time>2020-07-03T15:22:54Z</time>
      </trkpt>
      <trkpt lat="46.93105" lon="0.59427">
        <ele>46.5</ele>
        <time>2020-07-03T15:22:55Z</time>
      </trkpt>
      <trkpt lat="46.931" lon="0.59422">
        <ele>46.5</ele>
        <time>2020-07-03T15:22:56Z</time>
      </trkpt>
      <trkpt lat="46.93095" lon="0.59417">
        <ele>46.5</ele>
        <time>2020-07-03T15:22:57Z</time>
      </trkpt>
      <trkpt lat="46.93089" lon="0.59411">
        <ele>46.5</ele>
        <time>2020-07-03T15:22:58Z</time>
      </trkpt>
      <trkpt lat="46.93084" lon="0.59406">
        <ele>46.5</ele>
        <time>2020-07-03T15:22:59Z</time>
      </trkpt>
      <trkpt lat="46.9308" lon="0.59402">
        <ele>46.5</ele>
        <time>2020-07-03T15:23:00Z</time>
      </trkpt>
      <trkpt lat="46.93076" lon="0.59398">
        <ele>46.5</ele>
        <time>2020-07-03T15:23:01Z</time>
      </trkpt>
      <trkpt lat="46.93071" lon="0.59392">
        <ele>46.5</ele>
        <time>2020-07-03T15:23:02Z</time>
      </trkpt>
      <trkpt lat="46.93066" lon="0.59386">
        <ele>46.5</ele>
        <time>2020-07-03T15:23:03Z</time>
      </trkpt>
      <trkpt lat="46.93062" lon="0.5938">
        <ele>46.5</ele>
        <time>2020-07-03T15:23:04Z</time>
      </trkpt>
      <trkpt lat="46.93056" lon="0.59374">
        <ele>46.4</ele>
        <time>2020-07-03T15:23:05Z</time>
      </trkpt>
      <trkpt lat="46.93051" lon="0.59368">
        <ele>46.4</ele>
        <time>2020-07-03T15:23:06Z</time>
      </trkpt>
      <trkpt lat="46.93047" lon="0.59362">
        <ele>46.4</ele>
        <time>2020-07-03T15:23:07Z</time>
      </trkpt>
      <trkpt lat="46.93041" lon="0.59355">
        <ele>46.4</ele>
        <time>2020-07-03T15:23:08Z</time>
      </trkpt>
      <trkpt lat="46.93037" lon="0.59349">
        <ele>46.4</ele>
        <time>2020-07-03T15:23:09Z</time>
      </trkpt>
      <trkpt lat="46.93032" lon="0.59344">
        <ele>46.4</ele>
        <time>2020-07-03T15:23:10Z</time>
      </trkpt>
      <trkpt lat="46.93027" lon="0.59339">
        <ele>46.4</ele>
        <time>2020-07-03T15:23:11Z</time>
      </trkpt>
      <trkpt lat="46.93023" lon="0.59334">
        <ele>46.5</ele>
        <time>2020-07-03T15:23:12Z</time>
      </trkpt>
      <trkpt lat="46.93018" lon="0.59328">
        <ele>46.5</ele>
        <time>2020-07-03T15:23:13Z</time>
      </trkpt>
      <trkpt lat="46.93013" lon="0.59322">
        <ele>46.5</ele>
        <time>2020-07-03T15:23:14Z</time>
      </trkpt>
      <trkpt lat="46.93007" lon="0.59316">
        <ele>46.5</ele>
        <time>2020-07-03T15:23:15Z</time>
      </trkpt>
      <trkpt lat="46.93001" lon="0.59312">
        <ele>46.5</ele>
        <time>2020-07-03T15:23:16Z</time>
      </trkpt>
      <trkpt lat="46.92996" lon="0.59308">
        <ele>46.5</ele>
        <time>2020-07-03T15:23:17Z</time>
      </trkpt>
      <trkpt lat="46.92992" lon="0.59304">
        <ele>46.5</ele>
        <time>2020-07-03T15:23:18Z</time>
      </trkpt>
      <trkpt lat="46.92987" lon="0.59298">
        <ele>46.5</ele>
        <time>2020-07-03T15:23:19Z</time>
      </trkpt>
      <trkpt lat="46.92982" lon="0.59292">
        <ele>46.6</ele>
        <time>2020-07-03T15:23:20Z</time>
      </trkpt>
      <trkpt lat="46.92977" lon="0.59285">
        <ele>46.5</ele>
        <time>2020-07-03T15:23:21Z</time>
      </trkpt>
      <trkpt lat="46.92971" lon="0.59279">
        <ele>46.5</ele>
        <time>2020-07-03T15:23:22Z</time>
      </trkpt>
      <trkpt lat="46.92967" lon="0.59273">
        <ele>46.5</ele>
        <time>2020-07-03T15:23:23Z</time>
      </trkpt>
      <trkpt lat="46.92962" lon="0.59267">
        <ele>46.5</ele>
        <time>2020-07-03T15:23:24Z</time>
      </trkpt>
      <trkpt lat="46.92958" lon="0.59262">
        <ele>46.5</ele>
        <time>2020-07-03T15:23:25Z</time>
      </trkpt>
      <trkpt lat="46.92953" lon="0.59256">
        <ele>46.4</ele>
        <time>2020-07-03T15:23:26Z</time>
      </trkpt>
      <trkpt lat="46.92948" lon="0.59252">
        <ele>46.4</ele>
        <time>2020-07-03T15:23:27Z</time>
      </trkpt>
      <trkpt lat="46.92943" lon="0.59247">
        <ele>46.4</ele>
        <time>2020-07-03T15:23:28Z</time>
      </trkpt>
      <trkpt lat="46.92939" lon="0.59241">
        <ele>46.4</ele>
        <time>2020-07-03T15:23:29Z</time>
      </trkpt>
      <trkpt lat="46.92935" lon="0.59235">
        <ele>46.4</ele>
        <time>2020-07-03T15:23:30Z</time>
      </trkpt>
      <trkpt lat="46.9293" lon="0.5923">
        <ele>46.4</ele>
        <time>2020-07-03T15:23:31Z</time>
      </trkpt>
      <trkpt lat="46.92927" lon="0.59225">
        <ele>46.4</ele>
        <time>2020-07-03T15:23:32Z</time>
      </trkpt>
      <trkpt lat="46.92923" lon="0.59219">
        <ele>46.5</ele>
        <time>2020-07-03T15:23:33Z</time>
      </trkpt>
      <trkpt lat="46.92917" lon="0.59213">
        <ele>46.5</ele>
        <time>2020-07-03T15:23:34Z</time>
      </trkpt>
      <trkpt lat="46.92912" lon="0.59206">
        <ele>46.5</ele>
        <time>2020-07-03T15:23:35Z</time>
      </trkpt>
      <trkpt lat="46.92905" lon="0.59199">
        <ele>46.5</ele>
        <time>2020-07-03T15:23:36Z</time>
      </trkpt>
      <trkpt lat="46.92901" lon="0.59195">
        <ele>46.5</ele>
        <time>2020-07-03T15:23:37Z</time>
      </trkpt>
      <trkpt lat="46.92896" lon="0.59191">
        <ele>46.5</ele>
        <time>2020-07-03T15:23:38Z</time>
      </trkpt>
      <trkpt lat="46.92891" lon="0.59185">
        <ele>46.5</ele>
        <time>2020-07-03T15:23:39Z</time>
      </trkpt>
      <trkpt lat="46.92886" lon="0.59179">
        <ele>46.5</ele>
        <time>2020-07-03T15:23:40Z</time>
      </trkpt>
      <trkpt lat="46.92881" lon="0.59173">
        <ele>46.5</ele>
        <time>2020-07-03T15:23:41Z</time>
      </trkpt>
      <trkpt lat="46.92876" lon="0.59167">
        <ele>46.5</ele>
        <time>2020-07-03T15:23:42Z</time>
      </trkpt>
      <trkpt lat="46.92872" lon="0.59162">
        <ele>46.5</ele>
        <time>2020-07-03T15:23:43Z</time>
      </trkpt>
      <trkpt lat="46.92868" lon="0.59156">
        <ele>46.5</ele>
        <time>2020-07-03T15:23:44Z</time>
      </trkpt>
      <trkpt lat="46.92863" lon="0.5915">
        <ele>46.5</ele>
        <time>2020-07-03T15:23:45Z</time>
      </trkpt>
      <trkpt lat="46.92859" lon="0.59143">
        <ele>46.4</ele>
        <time>2020-07-03T15:23:46Z</time>
      </trkpt>
      <trkpt lat="46.92855" lon="0.59137">
        <ele>46.4</ele>
        <time>2020-07-03T15:23:47Z</time>
      </trkpt>
      <trkpt lat="46.92851" lon="0.5913">
        <ele>46.4</ele>
        <time>2020-07-03T15:23:48Z</time>
      </trkpt>
      <trkpt lat="46.92847" lon="0.59125">
        <ele>46.5</ele>
        <time>2020-07-03T15:23:49Z</time>
      </trkpt>
      <trkpt lat="46.92842" lon="0.59119">
        <ele>46.5</ele>
        <time>2020-07-03T15:23:50Z</time>
      </trkpt>
      <trkpt lat="46.92837" lon="0.59112">
        <ele>46.6</ele>
        <time>2020-07-03T15:23:51Z</time>
      </trkpt>
      <trkpt lat="46.92833" lon="0.59106">
        <ele>46.6</ele>
        <time>2020-07-03T15:23:52Z</time>
      </trkpt>
      <trkpt lat="46.92828" lon="0.59099">
        <ele>46.5</ele>
        <time>2020-07-03T15:23:53Z</time>
      </trkpt>
      <trkpt lat="46.92823" lon="0.59092">
        <ele>46.5</ele>
        <time>2020-07-03T15:23:54Z</time>
      </trkpt>
      <trkpt lat="46.92818" lon="0.59085">
        <ele>46.5</ele>
        <time>2020-07-03T15:23:55Z</time>
      </trkpt>
      <trkpt lat="46.92814" lon="0.59079">
        <ele>46.4</ele>
        <time>2020-07-03T15:23:56Z</time>
      </trkpt>
      <trkpt lat="46.9281" lon="0.59073">
        <ele>46.4</ele>
        <time>2020-07-03T15:23:57Z</time>
      </trkpt>
      <trkpt lat="46.92806" lon="0.59067">
        <ele>46.4</ele>
        <time>2020-07-03T15:23:58Z</time>
      </trkpt>
      <trkpt lat="46.92802" lon="0.59061">
        <ele>46.4</ele>
        <time>2020-07-03T15:23:59Z</time>
      </trkpt>
      <trkpt lat="46.92797" lon="0.59055">
        <ele>46.4</ele>
        <time>2020-07-03T15:24:00Z</time>
      </trkpt>
      <trkpt lat="46.92793" lon="0.5905">
        <ele>46.4</ele>
        <time>2020-07-03T15:24:01Z</time>
      </trkpt>
      <trkpt lat="46.92789" lon="0.59044">
        <ele>46.5</ele>
        <time>2020-07-03T15:24:02Z</time>
      </trkpt>
      <trkpt lat="46.92785" lon="0.59039">
        <ele>46.5</ele>
        <time>2020-07-03T15:24:03Z</time>
      </trkpt>
      <trkpt lat="46.92781" lon="0.59033">
        <ele>46.5</ele>
        <time>2020-07-03T15:24:04Z</time>
      </trkpt>
      <trkpt lat="46.92775" lon="0.59024">
        <ele>46.6</ele>
        <time>2020-07-03T15:24:05Z</time>
      </trkpt>
      <trkpt lat="46.92771" lon="0.59021">
        <ele>46.6</ele>
        <time>2020-07-03T15:24:06Z</time>
      </trkpt>
      <trkpt lat="46.92766" lon="0.59013">
        <ele>46.6</ele>
        <time>2020-07-03T15:24:07Z</time>
      </trkpt>
      <trkpt lat="46.92762" lon="0.59008">
        <ele>46.6</ele>
        <time>2020-07-03T15:24:08Z</time>
      </trkpt>
      <trkpt lat="46.92758" lon="0.59002">
        <ele>46.6</ele>
        <time>2020-07-03T15:24:09Z</time>
      </trkpt>
      <trkpt lat="46.92754" lon="0.58997">
        <ele>46.6</ele>
        <time>2020-07-03T15:24:10Z</time>
      </trkpt>
      <trkpt lat="46.92749" lon="0.58993">
        <ele>46.5</ele>
        <time>2020-07-03T15:24:11Z</time>
      </trkpt>
      <trkpt lat="46.92745" lon="0.58988">
        <ele>46.5</ele>
        <time>2020-07-03T15:24:12Z</time>
      </trkpt>
      <trkpt lat="46.92739" lon="0.58983">
        <ele>46.5</ele>
        <time>2020-07-03T15:24:13Z</time>
      </trkpt>
      <trkpt lat="46.92734" lon="0.58978">
        <ele>46.5</ele>
        <time>2020-07-03T15:24:14Z</time>
      </trkpt>
      <trkpt lat="46.92729" lon="0.58974">
        <ele>46.5</ele>
        <time>2020-07-03T15:24:15Z</time>
      </trkpt>
      <trkpt lat="46.92725" lon="0.5897">
        <ele>46.5</ele>
        <time>2020-07-03T15:24:16Z</time>
      </trkpt>
      <trkpt lat="46.9272" lon="0.58967">
        <ele>46.5</ele>
        <time>2020-07-03T15:24:17Z</time>
      </trkpt>
      <trkpt lat="46.92715" lon="0.58964">
        <ele>46.6</ele>
        <time>2020-07-03T15:24:18Z</time>
      </trkpt>
      <trkpt lat="46.92709" lon="0.58959">
        <ele>46.6</ele>
        <time>2020-07-03T15:24:19Z</time>
      </trkpt>
      <trkpt lat="46.92704" lon="0.58956">
        <ele>46.7</ele>
        <time>2020-07-03T15:24:20Z</time>
      </trkpt>
      <trkpt lat="46.92698" lon="0.5895">
        <ele>46.7</ele>
        <time>2020-07-03T15:24:21Z</time>
      </trkpt>
      <trkpt lat="46.92694" lon="0.58946">
        <ele>46.8</ele>
        <time>2020-07-03T15:24:22Z</time>
      </trkpt>
      <trkpt lat="46.92688" lon="0.58944">
        <ele>46.8</ele>
        <time>2020-07-03T15:24:23Z</time>
      </trkpt>
      <trkpt lat="46.92682" lon="0.58941">
        <ele>46.8</ele>
        <time>2020-07-03T15:24:24Z</time>
      </trkpt>
      <trkpt lat="46.92676" lon="0.58938">
        <ele>46.9</ele>
        <time>2020-07-03T15:24:25Z</time>
      </trkpt>
      <trkpt lat="46.92671" lon="0.58936">
        <ele>46.9</ele>
        <time>2020-07-03T15:24:26Z</time>
      </trkpt>
      <trkpt lat="46.92666" lon="0.58932">
        <ele>46.9</ele>
        <time>2020-07-03T15:24:27Z</time>
      </trkpt>
      <trkpt lat="46.9266" lon="0.58929">
        <ele>46.9</ele>
        <time>2020-07-03T15:24:28Z</time>
      </trkpt>
      <trkpt lat="46.92654" lon="0.58925">
        <ele>46.9</ele>
        <time>2020-07-03T15:24:29Z</time>
      </trkpt>
      <trkpt lat="46.9265" lon="0.58922">
        <ele>46.9</ele>
        <time>2020-07-03T15:24:30Z</time>
      </trkpt>
      <trkpt lat="46.92644" lon="0.58918">
        <ele>46.9</ele>
        <time>2020-07-03T15:24:31Z</time>
      </trkpt>
      <trkpt lat="46.92638" lon="0.58915">
        <ele>46.9</ele>
        <time>2020-07-03T15:24:32Z</time>
      </trkpt>
      <trkpt lat="46.92633" lon="0.58911">
        <ele>47</ele>
        <time>2020-07-03T15:24:33Z</time>
      </trkpt>
      <trkpt lat="46.92628" lon="0.58908">
        <ele>47</ele>
        <time>2020-07-03T15:24:34Z</time>
      </trkpt>
      <trkpt lat="46.92623" lon="0.58904">
        <ele>47</ele>
        <time>2020-07-03T15:24:35Z</time>
      </trkpt>
      <trkpt lat="46.92618" lon="0.589">
        <ele>47.1</ele>
        <time>2020-07-03T15:24:36Z</time>
      </trkpt>
      <trkpt lat="46.92614" lon="0.58899">
        <ele>47.1</ele>
        <time>2020-07-03T15:24:37Z</time>
      </trkpt>
      <trkpt lat="46.92609" lon="0.58895">
        <ele>47.1</ele>
        <time>2020-07-03T15:24:38Z</time>
      </trkpt>
      <trkpt lat="46.92602" lon="0.58889">
        <ele>47.1</ele>
        <time>2020-07-03T15:24:39Z</time>
      </trkpt>
      <trkpt lat="46.92596" lon="0.58886">
        <ele>47.1</ele>
        <time>2020-07-03T15:24:40Z</time>
      </trkpt>
      <trkpt lat="46.9259" lon="0.58883">
        <ele>47.2</ele>
        <time>2020-07-03T15:24:41Z</time>
      </trkpt>
      <trkpt lat="46.92583" lon="0.58879">
        <ele>47.2</ele>
        <time>2020-07-03T15:24:42Z</time>
      </trkpt>
      <trkpt lat="46.92578" lon="0.58877">
        <ele>47.2</ele>
        <time>2020-07-03T15:24:43Z</time>
      </trkpt>
      <trkpt lat="46.92573" lon="0.58874">
        <ele>47.2</ele>
        <time>2020-07-03T15:24:44Z</time>
      </trkpt>
      <trkpt lat="46.92567" lon="0.5887">
        <ele>47.3</ele>
        <time>2020-07-03T15:24:45Z</time>
      </trkpt>
      <trkpt lat="46.92561" lon="0.58864">
        <ele>47.3</ele>
        <time>2020-07-03T15:24:46Z</time>
      </trkpt>
      <trkpt lat="46.92555" lon="0.5886">
        <ele>47.3</ele>
        <time>2020-07-03T15:24:47Z</time>
      </trkpt>
      <trkpt lat="46.92549" lon="0.58854">
        <ele>47.3</ele>
        <time>2020-07-03T15:24:48Z</time>
      </trkpt>
      <trkpt lat="46.92544" lon="0.58849">
        <ele>47.3</ele>
        <time>2020-07-03T15:24:49Z</time>
      </trkpt>
      <trkpt lat="46.9254" lon="0.58844">
        <ele>47.3</ele>
        <time>2020-07-03T15:24:50Z</time>
      </trkpt>
      <trkpt lat="46.92537" lon="0.5884">
        <ele>47.3</ele>
        <time>2020-07-03T15:24:51Z</time>
      </trkpt>
      <trkpt lat="46.92532" lon="0.58833">
        <ele>47.3</ele>
        <time>2020-07-03T15:24:52Z</time>
      </trkpt>
      <trkpt lat="46.92527" lon="0.58827">
        <ele>47.3</ele>
        <time>2020-07-03T15:24:53Z</time>
      </trkpt>
      <trkpt lat="46.92523" lon="0.58821">
        <ele>47.3</ele>
        <time>2020-07-03T15:24:54Z</time>
      </trkpt>
      <trkpt lat="46.9252" lon="0.58815">
        <ele>47.4</ele>
        <time>2020-07-03T15:24:55Z</time>
      </trkpt>
      <trkpt lat="46.92515" lon="0.58808">
        <ele>47.4</ele>
        <time>2020-07-03T15:24:56Z</time>
      </trkpt>
      <trkpt lat="46.92511" lon="0.58802">
        <ele>47.4</ele>
        <time>2020-07-03T15:24:57Z</time>
      </trkpt>
      <trkpt lat="46.92507" lon="0.58795">
        <ele>47.4</ele>
        <time>2020-07-03T15:24:58Z</time>
      </trkpt>
      <trkpt lat="46.92504" lon="0.5879">
        <ele>47.4</ele>
        <time>2020-07-03T15:24:59Z</time>
      </trkpt>
      <trkpt lat="46.925" lon="0.58782">
        <ele>47.5</ele>
        <time>2020-07-03T15:25:00Z</time>
      </trkpt>
      <trkpt lat="46.92496" lon="0.58777">
        <ele>47.6</ele>
        <time>2020-07-03T15:25:01Z</time>
      </trkpt>
      <trkpt lat="46.92491" lon="0.58771">
        <ele>47.6</ele>
        <time>2020-07-03T15:25:02Z</time>
      </trkpt>
      <trkpt lat="46.92488" lon="0.58765">
        <ele>47.6</ele>
        <time>2020-07-03T15:25:03Z</time>
      </trkpt>
      <trkpt lat="46.92483" lon="0.58758">
        <ele>47.6</ele>
        <time>2020-07-03T15:25:04Z</time>
      </trkpt>
      <trkpt lat="46.92478" lon="0.58752">
        <ele>47.6</ele>
        <time>2020-07-03T15:25:05Z</time>
      </trkpt>
      <trkpt lat="46.92473" lon="0.58744">
        <ele>47.6</ele>
        <time>2020-07-03T15:25:06Z</time>
      </trkpt>
      <trkpt lat="46.92469" lon="0.58738">
        <ele>47.6</ele>
        <time>2020-07-03T15:25:07Z</time>
      </trkpt>
      <trkpt lat="46.92464" lon="0.58732">
        <ele>47.7</ele>
        <time>2020-07-03T15:25:08Z</time>
      </trkpt>
      <trkpt lat="46.9246" lon="0.58724">
        <ele>47.7</ele>
        <time>2020-07-03T15:25:09Z</time>
      </trkpt>
      <trkpt lat="46.92455" lon="0.58716">
        <ele>47.8</ele>
        <time>2020-07-03T15:25:10Z</time>
      </trkpt>
      <trkpt lat="46.9245" lon="0.58708">
        <ele>47.8</ele>
        <time>2020-07-03T15:25:11Z</time>
      </trkpt>
      <trkpt lat="46.92445" lon="0.58699">
        <ele>47.8</ele>
        <time>2020-07-03T15:25:12Z</time>
      </trkpt>
      <trkpt lat="46.9244" lon="0.5869">
        <ele>47.8</ele>
        <time>2020-07-03T15:25:13Z</time>
      </trkpt>
      <trkpt lat="46.92434" lon="0.58681">
        <ele>47.8</ele>
        <time>2020-07-03T15:25:14Z</time>
      </trkpt>
      <trkpt lat="46.92428" lon="0.58672">
        <ele>47.8</ele>
        <time>2020-07-03T15:25:15Z</time>
      </trkpt>
      <trkpt lat="46.92422" lon="0.58662">
        <ele>47.8</ele>
        <time>2020-07-03T15:25:16Z</time>
      </trkpt>
      <trkpt lat="46.92416" lon="0.58652">
        <ele>47.7</ele>
        <time>2020-07-03T15:25:17Z</time>
      </trkpt>
      <trkpt lat="46.9241" lon="0.58642">
        <ele>47.7</ele>
        <time>2020-07-03T15:25:18Z</time>
      </trkpt>
      <trkpt lat="46.92404" lon="0.58632">
        <ele>47.8</ele>
        <time>2020-07-03T15:25:19Z</time>
      </trkpt>
      <trkpt lat="46.92399" lon="0.58622">
        <ele>47.8</ele>
        <time>2020-07-03T15:25:20Z</time>
      </trkpt>
      <trkpt lat="46.92393" lon="0.58611">
        <ele>47.9</ele>
        <time>2020-07-03T15:25:21Z</time>
      </trkpt>
      <trkpt lat="46.92386" lon="0.58602">
        <ele>47.9</ele>
        <time>2020-07-03T15:25:22Z</time>
      </trkpt>
      <trkpt lat="46.9238" lon="0.58593">
        <ele>48</ele>
        <time>2020-07-03T15:25:23Z</time>
      </trkpt>
      <trkpt lat="46.92374" lon="0.58583">
        <ele>48.1</ele>
        <time>2020-07-03T15:25:24Z</time>
      </trkpt>
      <trkpt lat="46.92368" lon="0.58574">
        <ele>48.2</ele>
        <time>2020-07-03T15:25:25Z</time>
      </trkpt>
      <trkpt lat="46.9236" lon="0.58564">
        <ele>48.1</ele>
        <time>2020-07-03T15:25:26Z</time>
      </trkpt>
      <trkpt lat="46.92354" lon="0.58555">
        <ele>48.1</ele>
        <time>2020-07-03T15:25:27Z</time>
      </trkpt>
      <trkpt lat="46.92347" lon="0.58547">
        <ele>48.1</ele>
        <time>2020-07-03T15:25:28Z</time>
      </trkpt>
      <trkpt lat="46.9234" lon="0.58538">
        <ele>48.1</ele>
        <time>2020-07-03T15:25:29Z</time>
      </trkpt>
      <trkpt lat="46.92333" lon="0.58529">
        <ele>48.1</ele>
        <time>2020-07-03T15:25:30Z</time>
      </trkpt>
      <trkpt lat="46.92326" lon="0.5852">
        <ele>48.2</ele>
        <time>2020-07-03T15:25:31Z</time>
      </trkpt>
      <trkpt lat="46.9232" lon="0.58512">
        <ele>48.2</ele>
        <time>2020-07-03T15:25:32Z</time>
      </trkpt>
      <trkpt lat="46.92313" lon="0.58504">
        <ele>48.3</ele>
        <time>2020-07-03T15:25:33Z</time>
      </trkpt>
      <trkpt lat="46.92306" lon="0.58495">
        <ele>48.3</ele>
        <time>2020-07-03T15:25:34Z</time>
      </trkpt>
      <trkpt lat="46.92299" lon="0.58486">
        <ele>48.3</ele>
        <time>2020-07-03T15:25:35Z</time>
      </trkpt>
      <trkpt lat="46.92292" lon="0.58478">
        <ele>48.2</ele>
        <time>2020-07-03T15:25:36Z</time>
      </trkpt>
      <trkpt lat="46.92285" lon="0.58469">
        <ele>48.3</ele>
        <time>2020-07-03T15:25:37Z</time>
      </trkpt>
      <trkpt lat="46.92278" lon="0.58461">
        <ele>48.3</ele>
        <time>2020-07-03T15:25:38Z</time>
      </trkpt>
      <trkpt lat="46.92272" lon="0.58452">
        <ele>48.3</ele>
        <time>2020-07-03T15:25:39Z</time>
      </trkpt>
      <trkpt lat="46.92265" lon="0.58444">
        <ele>48.3</ele>
        <time>2020-07-03T15:25:40Z</time>
      </trkpt>
      <trkpt lat="46.92258" lon="0.58436">
        <ele>48.4</ele>
        <time>2020-07-03T15:25:41Z</time>
      </trkpt>
      <trkpt lat="46.92252" lon="0.58428">
        <ele>48.4</ele>
        <time>2020-07-03T15:25:42Z</time>
      </trkpt>
      <trkpt lat="46.92245" lon="0.58419">
        <ele>48.4</ele>
        <time>2020-07-03T15:25:43Z</time>
      </trkpt>
      <trkpt lat="46.92239" lon="0.58411">
        <ele>48.4</ele>
        <time>2020-07-03T15:25:44Z</time>
      </trkpt>
      <trkpt lat="46.92232" lon="0.58404">
        <ele>48.4</ele>
        <time>2020-07-03T15:25:45Z</time>
      </trkpt>
      <trkpt lat="46.92226" lon="0.58397">
        <ele>48.4</ele>
        <time>2020-07-03T15:25:46Z</time>
      </trkpt>
      <trkpt lat="46.9222" lon="0.5839">
        <ele>48.4</ele>
        <time>2020-07-03T15:25:47Z</time>
      </trkpt>
      <trkpt lat="46.92214" lon="0.58383">
        <ele>48.3</ele>
        <time>2020-07-03T15:25:48Z</time>
      </trkpt>
      <trkpt lat="46.92208" lon="0.58376">
        <ele>48.3</ele>
        <time>2020-07-03T15:25:49Z</time>
      </trkpt>
      <trkpt lat="46.92203" lon="0.58369">
        <ele>48.3</ele>
        <time>2020-07-03T15:25:50Z</time>
      </trkpt>
      <trkpt lat="46.92198" lon="0.58362">
        <ele>48.3</ele>
        <time>2020-07-03T15:25:51Z</time>
      </trkpt>
      <trkpt lat="46.92193" lon="0.58356">
        <ele>48.4</ele>
        <time>2020-07-03T15:25:52Z</time>
      </trkpt>
      <trkpt lat="46.92188" lon="0.5835">
        <ele>48.4</ele>
        <time>2020-07-03T15:25:53Z</time>
      </trkpt>
      <trkpt lat="46.92182" lon="0.58344">
        <ele>48.5</ele>
        <time>2020-07-03T15:25:54Z</time>
      </trkpt>
      <trkpt lat="46.92177" lon="0.58338">
        <ele>48.5</ele>
        <time>2020-07-03T15:25:55Z</time>
      </trkpt>
      <trkpt lat="46.92172" lon="0.58332">
        <ele>48.7</ele>
        <time>2020-07-03T15:25:56Z</time>
      </trkpt>
      <trkpt lat="46.92167" lon="0.58326">
        <ele>48.6</ele>
        <time>2020-07-03T15:25:57Z</time>
      </trkpt>
      <trkpt lat="46.92162" lon="0.5832">
        <ele>48.6</ele>
        <time>2020-07-03T15:25:58Z</time>
      </trkpt>
      <trkpt lat="46.92157" lon="0.58314">
        <ele>48.6</ele>
        <time>2020-07-03T15:25:59Z</time>
      </trkpt>
      <trkpt lat="46.92152" lon="0.58309">
        <ele>48.5</ele>
        <time>2020-07-03T15:26:00Z</time>
      </trkpt>
      <trkpt lat="46.92147" lon="0.58303">
        <ele>48.5</ele>
        <time>2020-07-03T15:26:01Z</time>
      </trkpt>
      <trkpt lat="46.92142" lon="0.58297">
        <ele>48.5</ele>
        <time>2020-07-03T15:26:02Z</time>
      </trkpt>
      <trkpt lat="46.92137" lon="0.58291">
        <ele>48.5</ele>
        <time>2020-07-03T15:26:03Z</time>
      </trkpt>
      <trkpt lat="46.92133" lon="0.58286">
        <ele>48.5</ele>
        <time>2020-07-03T15:26:04Z</time>
      </trkpt>
      <trkpt lat="46.92128" lon="0.5828">
        <ele>48.5</ele>
        <time>2020-07-03T15:26:05Z</time>
      </trkpt>
      <trkpt lat="46.92123" lon="0.58274">
        <ele>48.5</ele>
        <time>2020-07-03T15:26:06Z</time>
      </trkpt>
      <trkpt lat="46.92118" lon="0.58269">
        <ele>48.5</ele>
        <time>2020-07-03T15:26:07Z</time>
      </trkpt>
      <trkpt lat="46.92113" lon="0.58263">
        <ele>48.5</ele>
        <time>2020-07-03T15:26:08Z</time>
      </trkpt>
      <trkpt lat="46.92108" lon="0.58257">
        <ele>48.5</ele>
        <time>2020-07-03T15:26:09Z</time>
      </trkpt>
      <trkpt lat="46.92103" lon="0.58251">
        <ele>48.5</ele>
        <time>2020-07-03T15:26:10Z</time>
      </trkpt>
      <trkpt lat="46.92098" lon="0.58245">
        <ele>48.5</ele>
        <time>2020-07-03T15:26:11Z</time>
      </trkpt>
      <trkpt lat="46.92093" lon="0.5824">
        <ele>48.4</ele>
        <time>2020-07-03T15:26:12Z</time>
      </trkpt>
      <trkpt lat="46.92088" lon="0.58233">
        <ele>48.4</ele>
        <time>2020-07-03T15:26:13Z</time>
      </trkpt>
      <trkpt lat="46.92083" lon="0.58227">
        <ele>48.3</ele>
        <time>2020-07-03T15:26:14Z</time>
      </trkpt>
      <trkpt lat="46.92077" lon="0.58221">
        <ele>48.3</ele>
        <time>2020-07-03T15:26:15Z</time>
      </trkpt>
      <trkpt lat="46.92072" lon="0.58215">
        <ele>48.3</ele>
        <time>2020-07-03T15:26:16Z</time>
      </trkpt>
      <trkpt lat="46.92067" lon="0.58209">
        <ele>48.3</ele>
        <time>2020-07-03T15:26:17Z</time>
      </trkpt>
      <trkpt lat="46.92063" lon="0.58203">
        <ele>48.3</ele>
        <time>2020-07-03T15:26:18Z</time>
      </trkpt>
      <trkpt lat="46.92057" lon="0.58197">
        <ele>48.2</ele>
        <time>2020-07-03T15:26:19Z</time>
      </trkpt>
      <trkpt lat="46.92052" lon="0.5819">
        <ele>48.2</ele>
        <time>2020-07-03T15:26:20Z</time>
      </trkpt>
      <trkpt lat="46.92048" lon="0.58184">
        <ele>48.2</ele>
        <time>2020-07-03T15:26:21Z</time>
      </trkpt>
      <trkpt lat="46.92043" lon="0.58178">
        <ele>48.2</ele>
        <time>2020-07-03T15:26:22Z</time>
      </trkpt>
      <trkpt lat="46.92038" lon="0.58172">
        <ele>48.2</ele>
        <time>2020-07-03T15:26:23Z</time>
      </trkpt>
      <trkpt lat="46.92033" lon="0.58165">
        <ele>48.2</ele>
        <time>2020-07-03T15:26:24Z</time>
      </trkpt>
      <trkpt lat="46.92028" lon="0.58159">
        <ele>48.2</ele>
        <time>2020-07-03T15:26:25Z</time>
      </trkpt>
      <trkpt lat="46.92023" lon="0.58153">
        <ele>48.2</ele>
        <time>2020-07-03T15:26:26Z</time>
      </trkpt>
      <trkpt lat="46.92018" lon="0.58147">
        <ele>48.3</ele>
        <time>2020-07-03T15:26:27Z</time>
      </trkpt>
      <trkpt lat="46.92013" lon="0.58141">
        <ele>48.3</ele>
        <time>2020-07-03T15:26:28Z</time>
      </trkpt>
      <trkpt lat="46.92008" lon="0.58136">
        <ele>48.3</ele>
        <time>2020-07-03T15:26:29Z</time>
      </trkpt>
      <trkpt lat="46.92003" lon="0.5813">
        <ele>48.4</ele>
        <time>2020-07-03T15:26:30Z</time>
      </trkpt>
      <trkpt lat="46.91998" lon="0.58122">
        <ele>48.4</ele>
        <time>2020-07-03T15:26:31Z</time>
      </trkpt>
      <trkpt lat="46.91993" lon="0.58115">
        <ele>48.4</ele>
        <time>2020-07-03T15:26:32Z</time>
      </trkpt>
      <trkpt lat="46.91988" lon="0.58109">
        <ele>48.4</ele>
        <time>2020-07-03T15:26:33Z</time>
      </trkpt>
      <trkpt lat="46.91983" lon="0.58102">
        <ele>48.4</ele>
        <time>2020-07-03T15:26:34Z</time>
      </trkpt>
      <trkpt lat="46.91978" lon="0.58096">
        <ele>48.4</ele>
        <time>2020-07-03T15:26:35Z</time>
      </trkpt>
      <trkpt lat="46.91974" lon="0.5809">
        <ele>48.4</ele>
        <time>2020-07-03T15:26:36Z</time>
      </trkpt>
      <trkpt lat="46.9197" lon="0.58083">
        <ele>48.4</ele>
        <time>2020-07-03T15:26:37Z</time>
      </trkpt>
      <trkpt lat="46.91965" lon="0.58076">
        <ele>48.5</ele>
        <time>2020-07-03T15:26:38Z</time>
      </trkpt>
      <trkpt lat="46.9196" lon="0.5807">
        <ele>48.5</ele>
        <time>2020-07-03T15:26:39Z</time>
      </trkpt>
      <trkpt lat="46.91956" lon="0.58063">
        <ele>48.5</ele>
        <time>2020-07-03T15:26:40Z</time>
      </trkpt>
      <trkpt lat="46.91951" lon="0.58056">
        <ele>48.5</ele>
        <time>2020-07-03T15:26:41Z</time>
      </trkpt>
      <trkpt lat="46.91946" lon="0.58049">
        <ele>48.5</ele>
        <time>2020-07-03T15:26:42Z</time>
      </trkpt>
      <trkpt lat="46.91941" lon="0.58042">
        <ele>48.5</ele>
        <time>2020-07-03T15:26:43Z</time>
      </trkpt>
      <trkpt lat="46.91936" lon="0.58035">
        <ele>48.5</ele>
        <time>2020-07-03T15:26:44Z</time>
      </trkpt>
      <trkpt lat="46.91932" lon="0.58028">
        <ele>48.5</ele>
        <time>2020-07-03T15:26:45Z</time>
      </trkpt>
      <trkpt lat="46.91927" lon="0.58022">
        <ele>48.5</ele>
        <time>2020-07-03T15:26:46Z</time>
      </trkpt>
      <trkpt lat="46.91923" lon="0.58015">
        <ele>48.6</ele>
        <time>2020-07-03T15:26:47Z</time>
      </trkpt>
      <trkpt lat="46.91918" lon="0.58009">
        <ele>48.6</ele>
        <time>2020-07-03T15:26:48Z</time>
      </trkpt>
      <trkpt lat="46.91913" lon="0.58003">
        <ele>48.7</ele>
        <time>2020-07-03T15:26:49Z</time>
      </trkpt>
      <trkpt lat="46.91908" lon="0.57996">
        <ele>48.7</ele>
        <time>2020-07-03T15:26:50Z</time>
      </trkpt>
      <trkpt lat="46.91903" lon="0.5799">
        <ele>48.7</ele>
        <time>2020-07-03T15:26:51Z</time>
      </trkpt>
      <trkpt lat="46.91899" lon="0.57983">
        <ele>48.8</ele>
        <time>2020-07-03T15:26:52Z</time>
      </trkpt>
      <trkpt lat="46.91894" lon="0.57976">
        <ele>48.8</ele>
        <time>2020-07-03T15:26:53Z</time>
      </trkpt>
      <trkpt lat="46.9189" lon="0.57971">
        <ele>48.8</ele>
        <time>2020-07-03T15:26:54Z</time>
      </trkpt>
      <trkpt lat="46.91886" lon="0.57964">
        <ele>48.9</ele>
        <time>2020-07-03T15:26:55Z</time>
      </trkpt>
      <trkpt lat="46.91881" lon="0.57958">
        <ele>48.9</ele>
        <time>2020-07-03T15:26:56Z</time>
      </trkpt>
      <trkpt lat="46.91876" lon="0.57952">
        <ele>48.9</ele>
        <time>2020-07-03T15:26:57Z</time>
      </trkpt>
      <trkpt lat="46.91872" lon="0.57946">
        <ele>48.9</ele>
        <time>2020-07-03T15:26:58Z</time>
      </trkpt>
      <trkpt lat="46.91868" lon="0.5794">
        <ele>48.9</ele>
        <time>2020-07-03T15:26:59Z</time>
      </trkpt>
      <trkpt lat="46.91863" lon="0.57933">
        <ele>48.9</ele>
        <time>2020-07-03T15:27:00Z</time>
      </trkpt>
      <trkpt lat="46.9186" lon="0.57929">
        <ele>48.9</ele>
        <time>2020-07-03T15:27:01Z</time>
      </trkpt>
      <trkpt lat="46.91855" lon="0.57923">
        <ele>48.8</ele>
        <time>2020-07-03T15:27:02Z</time>
      </trkpt>
      <trkpt lat="46.9185" lon="0.57916">
        <ele>48.8</ele>
        <time>2020-07-03T15:27:03Z</time>
      </trkpt>
      <trkpt lat="46.91844" lon="0.57911">
        <ele>48.7</ele>
        <time>2020-07-03T15:27:04Z</time>
      </trkpt>
      <trkpt lat="46.91839" lon="0.57906">
        <ele>48.6</ele>
        <time>2020-07-03T15:27:05Z</time>
      </trkpt>
      <trkpt lat="46.91833" lon="0.57901">
        <ele>48.6</ele>
        <time>2020-07-03T15:27:06Z</time>
      </trkpt>
      <trkpt lat="46.91826" lon="0.57896">
        <ele>48.5</ele>
        <time>2020-07-03T15:27:07Z</time>
      </trkpt>
      <trkpt lat="46.91821" lon="0.57891">
        <ele>48.5</ele>
        <time>2020-07-03T15:27:08Z</time>
      </trkpt>
      <trkpt lat="46.91815" lon="0.57887">
        <ele>48.4</ele>
        <time>2020-07-03T15:27:09Z</time>
      </trkpt>
      <trkpt lat="46.91809" lon="0.57884">
        <ele>48.3</ele>
        <time>2020-07-03T15:27:10Z</time>
      </trkpt>
      <trkpt lat="46.91803" lon="0.5788">
        <ele>48.2</ele>
        <time>2020-07-03T15:27:11Z</time>
      </trkpt>
      <trkpt lat="46.91797" lon="0.57877">
        <ele>48.1</ele>
        <time>2020-07-03T15:27:12Z</time>
      </trkpt>
      <trkpt lat="46.9179" lon="0.57874">
        <ele>48</ele>
        <time>2020-07-03T15:27:13Z</time>
      </trkpt>
      <trkpt lat="46.91783" lon="0.57871">
        <ele>48</ele>
        <time>2020-07-03T15:27:14Z</time>
      </trkpt>
      <trkpt lat="46.91775" lon="0.57869">
        <ele>47.9</ele>
        <time>2020-07-03T15:27:15Z</time>
      </trkpt>
      <trkpt lat="46.91768" lon="0.57867">
        <ele>47.9</ele>
        <time>2020-07-03T15:27:16Z</time>
      </trkpt>
      <trkpt lat="46.91761" lon="0.57866">
        <ele>47.9</ele>
        <time>2020-07-03T15:27:17Z</time>
      </trkpt>
      <trkpt lat="46.91753" lon="0.57866">
        <ele>47.8</ele>
        <time>2020-07-03T15:27:18Z</time>
      </trkpt>
      <trkpt lat="46.91746" lon="0.57865">
        <ele>47.8</ele>
        <time>2020-07-03T15:27:19Z</time>
      </trkpt>
      <trkpt lat="46.9174" lon="0.57865">
        <ele>47.8</ele>
        <time>2020-07-03T15:27:20Z</time>
      </trkpt>
      <trkpt lat="46.91732" lon="0.57864">
        <ele>47.8</ele>
        <time>2020-07-03T15:27:21Z</time>
      </trkpt>
      <trkpt lat="46.91725" lon="0.57863">
        <ele>47.7</ele>
        <time>2020-07-03T15:27:22Z</time>
      </trkpt>
      <trkpt lat="46.91719" lon="0.57863">
        <ele>47.7</ele>
        <time>2020-07-03T15:27:23Z</time>
      </trkpt>
      <trkpt lat="46.91712" lon="0.57863">
        <ele>47.7</ele>
        <time>2020-07-03T15:27:24Z</time>
      </trkpt>
      <trkpt lat="46.91704" lon="0.57862">
        <ele>47.6</ele>
        <time>2020-07-03T15:27:25Z</time>
      </trkpt>
      <trkpt lat="46.91697" lon="0.57861">
        <ele>47.6</ele>
        <time>2020-07-03T15:27:26Z</time>
      </trkpt>
      <trkpt lat="46.9169" lon="0.5786">
        <ele>47.6</ele>
        <time>2020-07-03T15:27:27Z</time>
      </trkpt>
      <trkpt lat="46.91682" lon="0.57859">
        <ele>47.6</ele>
        <time>2020-07-03T15:27:28Z</time>
      </trkpt>
      <trkpt lat="46.91675" lon="0.57858">
        <ele>47.5</ele>
        <time>2020-07-03T15:27:29Z</time>
      </trkpt>
      <trkpt lat="46.91668" lon="0.57856">
        <ele>47.5</ele>
        <time>2020-07-03T15:27:30Z</time>
      </trkpt>
      <trkpt lat="46.91661" lon="0.57854">
        <ele>47.4</ele>
        <time>2020-07-03T15:27:31Z</time>
      </trkpt>
      <trkpt lat="46.91654" lon="0.57852">
        <ele>47.4</ele>
        <time>2020-07-03T15:27:32Z</time>
      </trkpt>
      <trkpt lat="46.91648" lon="0.57849">
        <ele>47.3</ele>
        <time>2020-07-03T15:27:33Z</time>
      </trkpt>
      <trkpt lat="46.91641" lon="0.57846">
        <ele>47.3</ele>
        <time>2020-07-03T15:27:34Z</time>
      </trkpt>
      <trkpt lat="46.91634" lon="0.57842">
        <ele>47.3</ele>
        <time>2020-07-03T15:27:35Z</time>
      </trkpt>
      <trkpt lat="46.91628" lon="0.5784">
        <ele>47.3</ele>
        <time>2020-07-03T15:27:36Z</time>
      </trkpt>
      <trkpt lat="46.91622" lon="0.57837">
        <ele>47.3</ele>
        <time>2020-07-03T15:27:37Z</time>
      </trkpt>
      <trkpt lat="46.91615" lon="0.57833">
        <ele>47.3</ele>
        <time>2020-07-03T15:27:38Z</time>
      </trkpt>
      <trkpt lat="46.91609" lon="0.57829">
        <ele>47.3</ele>
        <time>2020-07-03T15:27:39Z</time>
      </trkpt>
      <trkpt lat="46.91603" lon="0.57826">
        <ele>47.3</ele>
        <time>2020-07-03T15:27:40Z</time>
      </trkpt>
      <trkpt lat="46.91597" lon="0.57822">
        <ele>47.4</ele>
        <time>2020-07-03T15:27:41Z</time>
      </trkpt>
      <trkpt lat="46.91591" lon="0.57819">
        <ele>47.4</ele>
        <time>2020-07-03T15:27:42Z</time>
      </trkpt>
      <trkpt lat="46.91585" lon="0.57815">
        <ele>47.4</ele>
        <time>2020-07-03T15:27:43Z</time>
      </trkpt>
      <trkpt lat="46.91579" lon="0.57811">
        <ele>47.4</ele>
        <time>2020-07-03T15:27:44Z</time>
      </trkpt>
      <trkpt lat="46.91573" lon="0.57808">
        <ele>47.4</ele>
        <time>2020-07-03T15:27:45Z</time>
      </trkpt>
      <trkpt lat="46.91567" lon="0.57805">
        <ele>47.5</ele>
        <time>2020-07-03T15:27:46Z</time>
      </trkpt>
      <trkpt lat="46.91561" lon="0.57801">
        <ele>47.5</ele>
        <time>2020-07-03T15:27:47Z</time>
      </trkpt>
      <trkpt lat="46.91555" lon="0.57798">
        <ele>47.5</ele>
        <time>2020-07-03T15:27:48Z</time>
      </trkpt>
      <trkpt lat="46.9155" lon="0.57795">
        <ele>47.5</ele>
        <time>2020-07-03T15:27:49Z</time>
      </trkpt>
      <trkpt lat="46.91543" lon="0.57792">
        <ele>47.5</ele>
        <time>2020-07-03T15:27:50Z</time>
      </trkpt>
      <trkpt lat="46.91538" lon="0.57787">
        <ele>47.5</ele>
        <time>2020-07-03T15:27:51Z</time>
      </trkpt>
      <trkpt lat="46.91532" lon="0.57783">
        <ele>47.5</ele>
        <time>2020-07-03T15:27:52Z</time>
      </trkpt>
      <trkpt lat="46.91526" lon="0.57779">
        <ele>47.5</ele>
        <time>2020-07-03T15:27:53Z</time>
      </trkpt>
      <trkpt lat="46.91521" lon="0.57776">
        <ele>47.5</ele>
        <time>2020-07-03T15:27:54Z</time>
      </trkpt>
      <trkpt lat="46.91515" lon="0.57772">
        <ele>47.5</ele>
        <time>2020-07-03T15:27:55Z</time>
      </trkpt>
      <trkpt lat="46.9151" lon="0.57767">
        <ele>47.5</ele>
        <time>2020-07-03T15:27:56Z</time>
      </trkpt>
      <trkpt lat="46.91504" lon="0.57763">
        <ele>47.5</ele>
        <time>2020-07-03T15:27:57Z</time>
      </trkpt>
      <trkpt lat="46.91499" lon="0.57757">
        <ele>47.5</ele>
        <time>2020-07-03T15:27:58Z</time>
      </trkpt>
      <trkpt lat="46.91493" lon="0.57751">
        <ele>47.6</ele>
        <time>2020-07-03T15:27:59Z</time>
      </trkpt>
      <trkpt lat="46.91488" lon="0.57743">
        <ele>47.6</ele>
        <time>2020-07-03T15:28:00Z</time>
      </trkpt>
      <trkpt lat="46.91483" lon="0.57739">
        <ele>47.7</ele>
        <time>2020-07-03T15:28:01Z</time>
      </trkpt>
      <trkpt lat="46.91478" lon="0.57734">
        <ele>47.8</ele>
        <time>2020-07-03T15:28:02Z</time>
      </trkpt>
      <trkpt lat="46.91473" lon="0.57728">
        <ele>47.8</ele>
        <time>2020-07-03T15:28:03Z</time>
      </trkpt>
      <trkpt lat="46.91469" lon="0.57722">
        <ele>47.7</ele>
        <time>2020-07-03T15:28:04Z</time>
      </trkpt>
      <trkpt lat="46.91464" lon="0.57717">
        <ele>47.6</ele>
        <time>2020-07-03T15:28:05Z</time>
      </trkpt>
      <trkpt lat="46.91459" lon="0.57712">
        <ele>47.6</ele>
        <time>2020-07-03T15:28:06Z</time>
      </trkpt>
      <trkpt lat="46.91454" lon="0.57707">
        <ele>47.5</ele>
        <time>2020-07-03T15:28:07Z</time>
      </trkpt>
      <trkpt lat="46.91449" lon="0.57702">
        <ele>47.5</ele>
        <time>2020-07-03T15:28:08Z</time>
      </trkpt>
      <trkpt lat="46.91444" lon="0.57696">
        <ele>47.4</ele>
        <time>2020-07-03T15:28:09Z</time>
      </trkpt>
      <trkpt lat="46.91439" lon="0.5769">
        <ele>47.4</ele>
        <time>2020-07-03T15:28:10Z</time>
      </trkpt>
      <trkpt lat="46.91434" lon="0.57685">
        <ele>47.3</ele>
        <time>2020-07-03T15:28:11Z</time>
      </trkpt>
      <trkpt lat="46.91429" lon="0.57679">
        <ele>47.3</ele>
        <time>2020-07-03T15:28:12Z</time>
      </trkpt>
      <trkpt lat="46.91425" lon="0.57674">
        <ele>47.3</ele>
        <time>2020-07-03T15:28:13Z</time>
      </trkpt>
      <trkpt lat="46.9142" lon="0.57667">
        <ele>47.3</ele>
        <time>2020-07-03T15:28:14Z</time>
      </trkpt>
      <trkpt lat="46.91414" lon="0.57662">
        <ele>47.3</ele>
        <time>2020-07-03T15:28:15Z</time>
      </trkpt>
      <trkpt lat="46.91409" lon="0.57655">
        <ele>47.3</ele>
        <time>2020-07-03T15:28:16Z</time>
      </trkpt>
      <trkpt lat="46.91403" lon="0.57649">
        <ele>47.2</ele>
        <time>2020-07-03T15:28:17Z</time>
      </trkpt>
      <trkpt lat="46.91398" lon="0.57642">
        <ele>47.2</ele>
        <time>2020-07-03T15:28:18Z</time>
      </trkpt>
      <trkpt lat="46.91394" lon="0.57636">
        <ele>47.2</ele>
        <time>2020-07-03T15:28:19Z</time>
      </trkpt>
      <trkpt lat="46.91389" lon="0.5763">
        <ele>47.2</ele>
        <time>2020-07-03T15:28:20Z</time>
      </trkpt>
      <trkpt lat="46.91385" lon="0.57623">
        <ele>47.2</ele>
        <time>2020-07-03T15:28:21Z</time>
      </trkpt>
      <trkpt lat="46.91382" lon="0.57616">
        <ele>47.3</ele>
        <time>2020-07-03T15:28:22Z</time>
      </trkpt>
      <trkpt lat="46.91377" lon="0.57609">
        <ele>47.3</ele>
        <time>2020-07-03T15:28:23Z</time>
      </trkpt>
      <trkpt lat="46.91374" lon="0.57602">
        <ele>47.4</ele>
        <time>2020-07-03T15:28:24Z</time>
      </trkpt>
      <trkpt lat="46.91371" lon="0.57595">
        <ele>47.5</ele>
        <time>2020-07-03T15:28:25Z</time>
      </trkpt>
      <trkpt lat="46.91367" lon="0.57588">
        <ele>47.7</ele>
        <time>2020-07-03T15:28:26Z</time>
      </trkpt>
      <trkpt lat="46.91364" lon="0.57582">
        <ele>47.6</ele>
        <time>2020-07-03T15:28:27Z</time>
      </trkpt>
      <trkpt lat="46.91361" lon="0.57576">
        <ele>47.6</ele>
        <time>2020-07-03T15:28:28Z</time>
      </trkpt>
      <trkpt lat="46.91357" lon="0.57567">
        <ele>47.7</ele>
        <time>2020-07-03T15:28:29Z</time>
      </trkpt>
      <trkpt lat="46.91354" lon="0.5756">
        <ele>47.7</ele>
        <time>2020-07-03T15:28:30Z</time>
      </trkpt>
      <trkpt lat="46.9135" lon="0.57553">
        <ele>47.7</ele>
        <time>2020-07-03T15:28:31Z</time>
      </trkpt>
      <trkpt lat="46.91346" lon="0.57547">
        <ele>47.8</ele>
        <time>2020-07-03T15:28:32Z</time>
      </trkpt>
      <trkpt lat="46.91342" lon="0.57541">
        <ele>47.8</ele>
        <time>2020-07-03T15:28:33Z</time>
      </trkpt>
      <trkpt lat="46.91338" lon="0.57534">
        <ele>47.9</ele>
        <time>2020-07-03T15:28:34Z</time>
      </trkpt>
      <trkpt lat="46.91335" lon="0.57529">
        <ele>47.9</ele>
        <time>2020-07-03T15:28:35Z</time>
      </trkpt>
      <trkpt lat="46.91333" lon="0.57523">
        <ele>48</ele>
        <time>2020-07-03T15:28:36Z</time>
      </trkpt>
      <trkpt lat="46.9133" lon="0.57516">
        <ele>48</ele>
        <time>2020-07-03T15:28:37Z</time>
      </trkpt>
      <trkpt lat="46.91326" lon="0.57508">
        <ele>48.1</ele>
        <time>2020-07-03T15:28:38Z</time>
      </trkpt>
      <trkpt lat="46.91325" lon="0.57503">
        <ele>48.2</ele>
        <time>2020-07-03T15:28:39Z</time>
      </trkpt>
      <trkpt lat="46.91322" lon="0.57496">
        <ele>48.2</ele>
        <time>2020-07-03T15:28:40Z</time>
      </trkpt>
      <trkpt lat="46.91317" lon="0.57487">
        <ele>48.3</ele>
        <time>2020-07-03T15:28:41Z</time>
      </trkpt>
      <trkpt lat="46.91314" lon="0.57482">
        <ele>48.3</ele>
        <time>2020-07-03T15:28:42Z</time>
      </trkpt>
      <trkpt lat="46.91311" lon="0.57476">
        <ele>48.4</ele>
        <time>2020-07-03T15:28:43Z</time>
      </trkpt>
      <trkpt lat="46.91308" lon="0.5747">
        <ele>48.4</ele>
        <time>2020-07-03T15:28:44Z</time>
      </trkpt>
      <trkpt lat="46.91304" lon="0.57464">
        <ele>48.5</ele>
        <time>2020-07-03T15:28:45Z</time>
      </trkpt>
      <trkpt lat="46.91301" lon="0.57457">
        <ele>48.5</ele>
        <time>2020-07-03T15:28:46Z</time>
      </trkpt>
      <trkpt lat="46.91297" lon="0.57451">
        <ele>48.6</ele>
        <time>2020-07-03T15:28:47Z</time>
      </trkpt>
      <trkpt lat="46.91295" lon="0.57445">
        <ele>48.6</ele>
        <time>2020-07-03T15:28:48Z</time>
      </trkpt>
      <trkpt lat="46.91291" lon="0.57438">
        <ele>48.6</ele>
        <time>2020-07-03T15:28:49Z</time>
      </trkpt>
      <trkpt lat="46.91288" lon="0.57432">
        <ele>48.6</ele>
        <time>2020-07-03T15:28:50Z</time>
      </trkpt>
      <trkpt lat="46.91286" lon="0.57425">
        <ele>48.6</ele>
        <time>2020-07-03T15:28:51Z</time>
      </trkpt>
      <trkpt lat="46.91283" lon="0.5742">
        <ele>48.5</ele>
        <time>2020-07-03T15:28:52Z</time>
      </trkpt>
      <trkpt lat="46.91281" lon="0.57414">
        <ele>48.5</ele>
        <time>2020-07-03T15:28:53Z</time>
      </trkpt>
      <trkpt lat="46.91278" lon="0.57408">
        <ele>48.5</ele>
        <time>2020-07-03T15:28:54Z</time>
      </trkpt>
      <trkpt lat="46.91275" lon="0.574">
        <ele>48.5</ele>
        <time>2020-07-03T15:28:55Z</time>
      </trkpt>
      <trkpt lat="46.91272" lon="0.57392">
        <ele>48.5</ele>
        <time>2020-07-03T15:28:56Z</time>
      </trkpt>
      <trkpt lat="46.91269" lon="0.57387">
        <ele>48.5</ele>
        <time>2020-07-03T15:28:57Z</time>
      </trkpt>
      <trkpt lat="46.91266" lon="0.57381">
        <ele>48.5</ele>
        <time>2020-07-03T15:28:58Z</time>
      </trkpt>
      <trkpt lat="46.91263" lon="0.57374">
        <ele>48.5</ele>
        <time>2020-07-03T15:28:59Z</time>
      </trkpt>
      <trkpt lat="46.9126" lon="0.57368">
        <ele>48.5</ele>
        <time>2020-07-03T15:29:00Z</time>
      </trkpt>
      <trkpt lat="46.91256" lon="0.57361">
        <ele>48.6</ele>
        <time>2020-07-03T15:29:01Z</time>
      </trkpt>
      <trkpt lat="46.91254" lon="0.57356">
        <ele>48.6</ele>
        <time>2020-07-03T15:29:02Z</time>
      </trkpt>
      <trkpt lat="46.91251" lon="0.5735">
        <ele>48.5</ele>
        <time>2020-07-03T15:29:03Z</time>
      </trkpt>
      <trkpt lat="46.91248" lon="0.57345">
        <ele>48.5</ele>
        <time>2020-07-03T15:29:04Z</time>
      </trkpt>
      <trkpt lat="46.91245" lon="0.57341">
        <ele>48.4</ele>
        <time>2020-07-03T15:29:05Z</time>
      </trkpt>
      <trkpt lat="46.91242" lon="0.57335">
        <ele>48.4</ele>
        <time>2020-07-03T15:29:06Z</time>
      </trkpt>
      <trkpt lat="46.9124" lon="0.57329">
        <ele>48.4</ele>
        <time>2020-07-03T15:29:07Z</time>
      </trkpt>
      <trkpt lat="46.91236" lon="0.57323">
        <ele>48.4</ele>
        <time>2020-07-03T15:29:08Z</time>
      </trkpt>
      <trkpt lat="46.91233" lon="0.57317">
        <ele>48.5</ele>
        <time>2020-07-03T15:29:09Z</time>
      </trkpt>
      <trkpt lat="46.9123" lon="0.57311">
        <ele>48.5</ele>
        <time>2020-07-03T15:29:10Z</time>
      </trkpt>
      <trkpt lat="46.91226" lon="0.57304">
        <ele>48.5</ele>
        <time>2020-07-03T15:29:11Z</time>
      </trkpt>
      <trkpt lat="46.91222" lon="0.57297">
        <ele>48.5</ele>
        <time>2020-07-03T15:29:12Z</time>
      </trkpt>
      <trkpt lat="46.91218" lon="0.5729">
        <ele>48.5</ele>
        <time>2020-07-03T15:29:13Z</time>
      </trkpt>
      <trkpt lat="46.91214" lon="0.57282">
        <ele>48.5</ele>
        <time>2020-07-03T15:29:14Z</time>
      </trkpt>
      <trkpt lat="46.91211" lon="0.57274">
        <ele>48.5</ele>
        <time>2020-07-03T15:29:15Z</time>
      </trkpt>
      <trkpt lat="46.91207" lon="0.5727">
        <ele>48.5</ele>
        <time>2020-07-03T15:29:16Z</time>
      </trkpt>
      <trkpt lat="46.91204" lon="0.57263">
        <ele>48.6</ele>
        <time>2020-07-03T15:29:17Z</time>
      </trkpt>
      <trkpt lat="46.912" lon="0.57256">
        <ele>48.7</ele>
        <time>2020-07-03T15:29:18Z</time>
      </trkpt>
      <trkpt lat="46.91196" lon="0.5725">
        <ele>48.8</ele>
        <time>2020-07-03T15:29:19Z</time>
      </trkpt>
      <trkpt lat="46.91192" lon="0.57244">
        <ele>48.8</ele>
        <time>2020-07-03T15:29:20Z</time>
      </trkpt>
      <trkpt lat="46.91189" lon="0.57237">
        <ele>48.9</ele>
        <time>2020-07-03T15:29:21Z</time>
      </trkpt>
      <trkpt lat="46.91186" lon="0.57231">
        <ele>49</ele>
        <time>2020-07-03T15:29:22Z</time>
      </trkpt>
      <trkpt lat="46.91183" lon="0.57227">
        <ele>49</ele>
        <time>2020-07-03T15:29:23Z</time>
      </trkpt>
      <trkpt lat="46.9118" lon="0.5722">
        <ele>49</ele>
        <time>2020-07-03T15:29:24Z</time>
      </trkpt>
      <trkpt lat="46.91177" lon="0.57214">
        <ele>49</ele>
        <time>2020-07-03T15:29:25Z</time>
      </trkpt>
      <trkpt lat="46.91173" lon="0.57206">
        <ele>49</ele>
        <time>2020-07-03T15:29:26Z</time>
      </trkpt>
      <trkpt lat="46.9117" lon="0.57199">
        <ele>48.9</ele>
        <time>2020-07-03T15:29:27Z</time>
      </trkpt>
      <trkpt lat="46.91167" lon="0.57193">
        <ele>48.9</ele>
        <time>2020-07-03T15:29:28Z</time>
      </trkpt>
      <trkpt lat="46.91163" lon="0.57185">
        <ele>48.8</ele>
        <time>2020-07-03T15:29:29Z</time>
      </trkpt>
      <trkpt lat="46.9116" lon="0.5718">
        <ele>48.7</ele>
        <time>2020-07-03T15:29:30Z</time>
      </trkpt>
      <trkpt lat="46.91157" lon="0.57174">
        <ele>48.6</ele>
        <time>2020-07-03T15:29:31Z</time>
      </trkpt>
      <trkpt lat="46.91153" lon="0.57167">
        <ele>48.6</ele>
        <time>2020-07-03T15:29:32Z</time>
      </trkpt>
      <trkpt lat="46.91148" lon="0.57161">
        <ele>48.5</ele>
        <time>2020-07-03T15:29:33Z</time>
      </trkpt>
      <trkpt lat="46.91144" lon="0.57155">
        <ele>48.5</ele>
        <time>2020-07-03T15:29:34Z</time>
      </trkpt>
      <trkpt lat="46.91139" lon="0.5715">
        <ele>48.5</ele>
        <time>2020-07-03T15:29:35Z</time>
      </trkpt>
      <trkpt lat="46.91133" lon="0.57144">
        <ele>48.4</ele>
        <time>2020-07-03T15:29:36Z</time>
      </trkpt>
      <trkpt lat="46.91128" lon="0.5714">
        <ele>48.4</ele>
        <time>2020-07-03T15:29:37Z</time>
      </trkpt>
      <trkpt lat="46.91124" lon="0.57136">
        <ele>48.4</ele>
        <time>2020-07-03T15:29:38Z</time>
      </trkpt>
      <trkpt lat="46.91118" lon="0.57132">
        <ele>48.4</ele>
        <time>2020-07-03T15:29:39Z</time>
      </trkpt>
      <trkpt lat="46.91113" lon="0.57127">
        <ele>48.3</ele>
        <time>2020-07-03T15:29:40Z</time>
      </trkpt>
      <trkpt lat="46.91107" lon="0.57123">
        <ele>48.3</ele>
        <time>2020-07-03T15:29:41Z</time>
      </trkpt>
      <trkpt lat="46.91101" lon="0.5712">
        <ele>48.2</ele>
        <time>2020-07-03T15:29:42Z</time>
      </trkpt>
      <trkpt lat="46.91097" lon="0.57115">
        <ele>48.1</ele>
        <time>2020-07-03T15:29:43Z</time>
      </trkpt>
      <trkpt lat="46.9109" lon="0.5711">
        <ele>48</ele>
        <time>2020-07-03T15:29:44Z</time>
      </trkpt>
      <trkpt lat="46.91084" lon="0.57106">
        <ele>47.9</ele>
        <time>2020-07-03T15:29:45Z</time>
      </trkpt>
      <trkpt lat="46.91078" lon="0.57101">
        <ele>47.8</ele>
        <time>2020-07-03T15:29:46Z</time>
      </trkpt>
      <trkpt lat="46.91071" lon="0.57097">
        <ele>47.8</ele>
        <time>2020-07-03T15:29:47Z</time>
      </trkpt>
      <trkpt lat="46.91065" lon="0.57093">
        <ele>47.8</ele>
        <time>2020-07-03T15:29:48Z</time>
      </trkpt>
      <trkpt lat="46.91059" lon="0.57089">
        <ele>47.8</ele>
        <time>2020-07-03T15:29:49Z</time>
      </trkpt>
      <trkpt lat="46.91054" lon="0.57084">
        <ele>47.8</ele>
        <time>2020-07-03T15:29:50Z</time>
      </trkpt>
      <trkpt lat="46.91048" lon="0.57079">
        <ele>47.9</ele>
        <time>2020-07-03T15:29:51Z</time>
      </trkpt>
      <trkpt lat="46.91042" lon="0.57075">
        <ele>47.9</ele>
        <time>2020-07-03T15:29:52Z</time>
      </trkpt>
      <trkpt lat="46.91037" lon="0.57069">
        <ele>47.8</ele>
        <time>2020-07-03T15:29:53Z</time>
      </trkpt>
      <trkpt lat="46.91031" lon="0.57065">
        <ele>47.8</ele>
        <time>2020-07-03T15:29:54Z</time>
      </trkpt>
      <trkpt lat="46.91025" lon="0.57061">
        <ele>47.8</ele>
        <time>2020-07-03T15:29:55Z</time>
      </trkpt>
      <trkpt lat="46.9102" lon="0.57056">
        <ele>47.8</ele>
        <time>2020-07-03T15:29:56Z</time>
      </trkpt>
      <trkpt lat="46.91014" lon="0.57053">
        <ele>47.7</ele>
        <time>2020-07-03T15:29:57Z</time>
      </trkpt>
      <trkpt lat="46.91009" lon="0.57048">
        <ele>47.7</ele>
        <time>2020-07-03T15:29:58Z</time>
      </trkpt>
      <trkpt lat="46.91004" lon="0.57044">
        <ele>47.8</ele>
        <time>2020-07-03T15:29:59Z</time>
      </trkpt>
      <trkpt lat="46.90999" lon="0.57041">
        <ele>47.8</ele>
        <time>2020-07-03T15:30:00Z</time>
      </trkpt>
      <trkpt lat="46.90992" lon="0.57037">
        <ele>47.9</ele>
        <time>2020-07-03T15:30:01Z</time>
      </trkpt>
      <trkpt lat="46.90987" lon="0.57033">
        <ele>47.9</ele>
        <time>2020-07-03T15:30:02Z</time>
      </trkpt>
      <trkpt lat="46.90983" lon="0.5703">
        <ele>48</ele>
        <time>2020-07-03T15:30:03Z</time>
      </trkpt>
      <trkpt lat="46.90978" lon="0.57026">
        <ele>48</ele>
        <time>2020-07-03T15:30:04Z</time>
      </trkpt>
      <trkpt lat="46.90973" lon="0.57022">
        <ele>48</ele>
        <time>2020-07-03T15:30:05Z</time>
      </trkpt>
      <trkpt lat="46.90966" lon="0.57017">
        <ele>48.1</ele>
        <time>2020-07-03T15:30:06Z</time>
      </trkpt>
      <trkpt lat="46.90962" lon="0.57014">
        <ele>48.1</ele>
        <time>2020-07-03T15:30:07Z</time>
      </trkpt>
      <trkpt lat="46.90956" lon="0.57007">
        <ele>48.1</ele>
        <time>2020-07-03T15:30:08Z</time>
      </trkpt>
      <trkpt lat="46.90951" lon="0.57003">
        <ele>48.1</ele>
        <time>2020-07-03T15:30:09Z</time>
      </trkpt>
      <trkpt lat="46.90947" lon="0.56999">
        <ele>48.1</ele>
        <time>2020-07-03T15:30:10Z</time>
      </trkpt>
      <trkpt lat="46.90942" lon="0.56996">
        <ele>48.1</ele>
        <time>2020-07-03T15:30:11Z</time>
      </trkpt>
      <trkpt lat="46.90937" lon="0.56992">
        <ele>48.1</ele>
        <time>2020-07-03T15:30:12Z</time>
      </trkpt>
      <trkpt lat="46.90932" lon="0.56988">
        <ele>48.1</ele>
        <time>2020-07-03T15:30:13Z</time>
      </trkpt>
      <trkpt lat="46.90926" lon="0.56984">
        <ele>48.1</ele>
        <time>2020-07-03T15:30:14Z</time>
      </trkpt>
      <trkpt lat="46.90921" lon="0.56981">
        <ele>48.1</ele>
        <time>2020-07-03T15:30:15Z</time>
      </trkpt>
      <trkpt lat="46.90915" lon="0.56977">
        <ele>48.1</ele>
        <time>2020-07-03T15:30:16Z</time>
      </trkpt>
      <trkpt lat="46.90909" lon="0.56973">
        <ele>48.1</ele>
        <time>2020-07-03T15:30:17Z</time>
      </trkpt>
      <trkpt lat="46.90904" lon="0.5697">
        <ele>48.1</ele>
        <time>2020-07-03T15:30:18Z</time>
      </trkpt>
      <trkpt lat="46.90899" lon="0.56967">
        <ele>48.1</ele>
        <time>2020-07-03T15:30:19Z</time>
      </trkpt>
      <trkpt lat="46.90894" lon="0.56965">
        <ele>48.1</ele>
        <time>2020-07-03T15:30:20Z</time>
      </trkpt>
      <trkpt lat="46.90889" lon="0.56961">
        <ele>48.1</ele>
        <time>2020-07-03T15:30:21Z</time>
      </trkpt>
      <trkpt lat="46.90882" lon="0.56958">
        <ele>48.1</ele>
        <time>2020-07-03T15:30:22Z</time>
      </trkpt>
      <trkpt lat="46.90875" lon="0.56955">
        <ele>48</ele>
        <time>2020-07-03T15:30:23Z</time>
      </trkpt>
      <trkpt lat="46.90869" lon="0.56953">
        <ele>48</ele>
        <time>2020-07-03T15:30:24Z</time>
      </trkpt>
      <trkpt lat="46.90863" lon="0.5695">
        <ele>47.9</ele>
        <time>2020-07-03T15:30:25Z</time>
      </trkpt>
      <trkpt lat="46.90857" lon="0.56947">
        <ele>47.9</ele>
        <time>2020-07-03T15:30:26Z</time>
      </trkpt>
      <trkpt lat="46.90851" lon="0.56944">
        <ele>47.8</ele>
        <time>2020-07-03T15:30:27Z</time>
      </trkpt>
      <trkpt lat="46.90846" lon="0.56941">
        <ele>47.8</ele>
        <time>2020-07-03T15:30:28Z</time>
      </trkpt>
      <trkpt lat="46.90841" lon="0.56938">
        <ele>47.7</ele>
        <time>2020-07-03T15:30:29Z</time>
      </trkpt>
      <trkpt lat="46.90835" lon="0.56935">
        <ele>47.7</ele>
        <time>2020-07-03T15:30:30Z</time>
      </trkpt>
      <trkpt lat="46.90829" lon="0.56931">
        <ele>47.7</ele>
        <time>2020-07-03T15:30:31Z</time>
      </trkpt>
      <trkpt lat="46.90823" lon="0.56928">
        <ele>47.6</ele>
        <time>2020-07-03T15:30:32Z</time>
      </trkpt>
      <trkpt lat="46.90817" lon="0.56924">
        <ele>47.6</ele>
        <time>2020-07-03T15:30:33Z</time>
      </trkpt>
      <trkpt lat="46.90811" lon="0.56921">
        <ele>47.6</ele>
        <time>2020-07-03T15:30:34Z</time>
      </trkpt>
      <trkpt lat="46.90805" lon="0.56918">
        <ele>47.6</ele>
        <time>2020-07-03T15:30:35Z</time>
      </trkpt>
      <trkpt lat="46.90799" lon="0.56914">
        <ele>47.6</ele>
        <time>2020-07-03T15:30:36Z</time>
      </trkpt>
      <trkpt lat="46.90793" lon="0.56911">
        <ele>47.5</ele>
        <time>2020-07-03T15:30:37Z</time>
      </trkpt>
      <trkpt lat="46.90787" lon="0.56908">
        <ele>47.5</ele>
        <time>2020-07-03T15:30:38Z</time>
      </trkpt>
      <trkpt lat="46.90781" lon="0.56904">
        <ele>47.5</ele>
        <time>2020-07-03T15:30:39Z</time>
      </trkpt>
      <trkpt lat="46.90775" lon="0.569">
        <ele>47.5</ele>
        <time>2020-07-03T15:30:40Z</time>
      </trkpt>
      <trkpt lat="46.90769" lon="0.56897">
        <ele>47.5</ele>
        <time>2020-07-03T15:30:41Z</time>
      </trkpt>
      <trkpt lat="46.90763" lon="0.56893">
        <ele>47.5</ele>
        <time>2020-07-03T15:30:42Z</time>
      </trkpt>
      <trkpt lat="46.90758" lon="0.5689">
        <ele>47.5</ele>
        <time>2020-07-03T15:30:43Z</time>
      </trkpt>
      <trkpt lat="46.90751" lon="0.56887">
        <ele>47.5</ele>
        <time>2020-07-03T15:30:44Z</time>
      </trkpt>
      <trkpt lat="46.90745" lon="0.56883">
        <ele>47.4</ele>
        <time>2020-07-03T15:30:45Z</time>
      </trkpt>
      <trkpt lat="46.90739" lon="0.5688">
        <ele>47.5</ele>
        <time>2020-07-03T15:30:46Z</time>
      </trkpt>
      <trkpt lat="46.90733" lon="0.56878">
        <ele>47.5</ele>
        <time>2020-07-03T15:30:47Z</time>
      </trkpt>
      <trkpt lat="46.90727" lon="0.56875">
        <ele>47.5</ele>
        <time>2020-07-03T15:30:48Z</time>
      </trkpt>
      <trkpt lat="46.90721" lon="0.56872">
        <ele>47.6</ele>
        <time>2020-07-03T15:30:49Z</time>
      </trkpt>
      <trkpt lat="46.90715" lon="0.56869">
        <ele>47.6</ele>
        <time>2020-07-03T15:30:50Z</time>
      </trkpt>
      <trkpt lat="46.90709" lon="0.56866">
        <ele>47.6</ele>
        <time>2020-07-03T15:30:51Z</time>
      </trkpt>
      <trkpt lat="46.90702" lon="0.56862">
        <ele>47.6</ele>
        <time>2020-07-03T15:30:52Z</time>
      </trkpt>
      <trkpt lat="46.90697" lon="0.56859">
        <ele>47.6</ele>
        <time>2020-07-03T15:30:53Z</time>
      </trkpt>
      <trkpt lat="46.90691" lon="0.56856">
        <ele>47.7</ele>
        <time>2020-07-03T15:30:54Z</time>
      </trkpt>
      <trkpt lat="46.90686" lon="0.56854">
        <ele>47.7</ele>
        <time>2020-07-03T15:30:55Z</time>
      </trkpt>
      <trkpt lat="46.9068" lon="0.56851">
        <ele>47.8</ele>
        <time>2020-07-03T15:30:56Z</time>
      </trkpt>
      <trkpt lat="46.90674" lon="0.56847">
        <ele>47.8</ele>
        <time>2020-07-03T15:30:57Z</time>
      </trkpt>
      <trkpt lat="46.90669" lon="0.56844">
        <ele>47.8</ele>
        <time>2020-07-03T15:30:58Z</time>
      </trkpt>
      <trkpt lat="46.90664" lon="0.56842">
        <ele>47.9</ele>
        <time>2020-07-03T15:30:59Z</time>
      </trkpt>
      <trkpt lat="46.90658" lon="0.56838">
        <ele>47.9</ele>
        <time>2020-07-03T15:31:00Z</time>
      </trkpt>
      <trkpt lat="46.90652" lon="0.56835">
        <ele>47.9</ele>
        <time>2020-07-03T15:31:01Z</time>
      </trkpt>
      <trkpt lat="46.90648" lon="0.56831">
        <ele>48</ele>
        <time>2020-07-03T15:31:02Z</time>
      </trkpt>
      <trkpt lat="46.90642" lon="0.56828">
        <ele>48</ele>
        <time>2020-07-03T15:31:03Z</time>
      </trkpt>
      <trkpt lat="46.90636" lon="0.56824">
        <ele>48</ele>
        <time>2020-07-03T15:31:04Z</time>
      </trkpt>
      <trkpt lat="46.90631" lon="0.56821">
        <ele>48</ele>
        <time>2020-07-03T15:31:05Z</time>
      </trkpt>
      <trkpt lat="46.90625" lon="0.56817">
        <ele>48</ele>
        <time>2020-07-03T15:31:06Z</time>
      </trkpt>
      <trkpt lat="46.90619" lon="0.56815">
        <ele>48</ele>
        <time>2020-07-03T15:31:07Z</time>
      </trkpt>
      <trkpt lat="46.90612" lon="0.56812">
        <ele>48</ele>
        <time>2020-07-03T15:31:08Z</time>
      </trkpt>
      <trkpt lat="46.90606" lon="0.56809">
        <ele>48</ele>
        <time>2020-07-03T15:31:09Z</time>
      </trkpt>
      <trkpt lat="46.90599" lon="0.56808">
        <ele>48</ele>
        <time>2020-07-03T15:31:10Z</time>
      </trkpt>
      <trkpt lat="46.90592" lon="0.56807">
        <ele>48</ele>
        <time>2020-07-03T15:31:11Z</time>
      </trkpt>
      <trkpt lat="46.90586" lon="0.56806">
        <ele>48</ele>
        <time>2020-07-03T15:31:12Z</time>
      </trkpt>
      <trkpt lat="46.90581" lon="0.56804">
        <ele>48</ele>
        <time>2020-07-03T15:31:13Z</time>
      </trkpt>
      <trkpt lat="46.90575" lon="0.56802">
        <ele>48</ele>
        <time>2020-07-03T15:31:14Z</time>
      </trkpt>
      <trkpt lat="46.90568" lon="0.56801">
        <ele>48</ele>
        <time>2020-07-03T15:31:15Z</time>
      </trkpt>
      <trkpt lat="46.90562" lon="0.56799">
        <ele>48</ele>
        <time>2020-07-03T15:31:16Z</time>
      </trkpt>
      <trkpt lat="46.90555" lon="0.56797">
        <ele>47.9</ele>
        <time>2020-07-03T15:31:17Z</time>
      </trkpt>
      <trkpt lat="46.90548" lon="0.56795">
        <ele>47.9</ele>
        <time>2020-07-03T15:31:18Z</time>
      </trkpt>
      <trkpt lat="46.90541" lon="0.56793">
        <ele>47.9</ele>
        <time>2020-07-03T15:31:19Z</time>
      </trkpt>
      <trkpt lat="46.90534" lon="0.5679">
        <ele>47.9</ele>
        <time>2020-07-03T15:31:20Z</time>
      </trkpt>
      <trkpt lat="46.90528" lon="0.56788">
        <ele>47.8</ele>
        <time>2020-07-03T15:31:21Z</time>
      </trkpt>
      <trkpt lat="46.90521" lon="0.56786">
        <ele>47.7</ele>
        <time>2020-07-03T15:31:22Z</time>
      </trkpt>
      <trkpt lat="46.90515" lon="0.56782">
        <ele>47.7</ele>
        <time>2020-07-03T15:31:23Z</time>
      </trkpt>
      <trkpt lat="46.90509" lon="0.56778">
        <ele>47.7</ele>
        <time>2020-07-03T15:31:24Z</time>
      </trkpt>
      <trkpt lat="46.90503" lon="0.56774">
        <ele>47.6</ele>
        <time>2020-07-03T15:31:25Z</time>
      </trkpt>
      <trkpt lat="46.90498" lon="0.56769">
        <ele>47.6</ele>
        <time>2020-07-03T15:31:26Z</time>
      </trkpt>
      <trkpt lat="46.90492" lon="0.56765">
        <ele>47.6</ele>
        <time>2020-07-03T15:31:27Z</time>
      </trkpt>
      <trkpt lat="46.90487" lon="0.5676">
        <ele>47.6</ele>
        <time>2020-07-03T15:31:28Z</time>
      </trkpt>
      <trkpt lat="46.90482" lon="0.56755">
        <ele>47.6</ele>
        <time>2020-07-03T15:31:29Z</time>
      </trkpt>
      <trkpt lat="46.90477" lon="0.56749">
        <ele>47.5</ele>
        <time>2020-07-03T15:31:30Z</time>
      </trkpt>
      <trkpt lat="46.90472" lon="0.56744">
        <ele>47.5</ele>
        <time>2020-07-03T15:31:31Z</time>
      </trkpt>
      <trkpt lat="46.90468" lon="0.56738">
        <ele>47.6</ele>
        <time>2020-07-03T15:31:32Z</time>
      </trkpt>
      <trkpt lat="46.90463" lon="0.56732">
        <ele>47.6</ele>
        <time>2020-07-03T15:31:33Z</time>
      </trkpt>
      <trkpt lat="46.90458" lon="0.56728">
        <ele>47.6</ele>
        <time>2020-07-03T15:31:34Z</time>
      </trkpt>
      <trkpt lat="46.90453" lon="0.56723">
        <ele>47.7</ele>
        <time>2020-07-03T15:31:35Z</time>
      </trkpt>
      <trkpt lat="46.90448" lon="0.56718">
        <ele>47.9</ele>
        <time>2020-07-03T15:31:36Z</time>
      </trkpt>
      <trkpt lat="46.90442" lon="0.56714">
        <ele>48</ele>
        <time>2020-07-03T15:31:37Z</time>
      </trkpt>
      <trkpt lat="46.90438" lon="0.5671">
        <ele>48.1</ele>
        <time>2020-07-03T15:31:38Z</time>
      </trkpt>
      <trkpt lat="46.90434" lon="0.56706">
        <ele>48.2</ele>
        <time>2020-07-03T15:31:39Z</time>
      </trkpt>
      <trkpt lat="46.90429" lon="0.56701">
        <ele>48.2</ele>
        <time>2020-07-03T15:31:40Z</time>
      </trkpt>
      <trkpt lat="46.90425" lon="0.56697">
        <ele>48.3</ele>
        <time>2020-07-03T15:31:41Z</time>
      </trkpt>
      <trkpt lat="46.90421" lon="0.56693">
        <ele>48.3</ele>
        <time>2020-07-03T15:31:42Z</time>
      </trkpt>
      <trkpt lat="46.90416" lon="0.56689">
        <ele>48.3</ele>
        <time>2020-07-03T15:31:43Z</time>
      </trkpt>
      <trkpt lat="46.90411" lon="0.56685">
        <ele>48.2</ele>
        <time>2020-07-03T15:31:44Z</time>
      </trkpt>
      <trkpt lat="46.90406" lon="0.56681">
        <ele>48.2</ele>
        <time>2020-07-03T15:31:45Z</time>
      </trkpt>
      <trkpt lat="46.90401" lon="0.56677">
        <ele>48.1</ele>
        <time>2020-07-03T15:31:46Z</time>
      </trkpt>
      <trkpt lat="46.90396" lon="0.56673">
        <ele>48.1</ele>
        <time>2020-07-03T15:31:47Z</time>
      </trkpt>
      <trkpt lat="46.9039" lon="0.5667">
        <ele>48.1</ele>
        <time>2020-07-03T15:31:48Z</time>
      </trkpt>
      <trkpt lat="46.90384" lon="0.56666">
        <ele>48</ele>
        <time>2020-07-03T15:31:49Z</time>
      </trkpt>
      <trkpt lat="46.90377" lon="0.56662">
        <ele>48</ele>
        <time>2020-07-03T15:31:50Z</time>
      </trkpt>
      <trkpt lat="46.90373" lon="0.56659">
        <ele>48.1</ele>
        <time>2020-07-03T15:31:51Z</time>
      </trkpt>
      <trkpt lat="46.90368" lon="0.56656">
        <ele>48.1</ele>
        <time>2020-07-03T15:31:52Z</time>
      </trkpt>
      <trkpt lat="46.90362" lon="0.56652">
        <ele>48.1</ele>
        <time>2020-07-03T15:31:53Z</time>
      </trkpt>
      <trkpt lat="46.90357" lon="0.56649">
        <ele>48.1</ele>
        <time>2020-07-03T15:31:54Z</time>
      </trkpt>
      <trkpt lat="46.90353" lon="0.56646">
        <ele>48.2</ele>
        <time>2020-07-03T15:31:55Z</time>
      </trkpt>
      <trkpt lat="46.90348" lon="0.56643">
        <ele>48.2</ele>
        <time>2020-07-03T15:31:56Z</time>
      </trkpt>
      <trkpt lat="46.90342" lon="0.5664">
        <ele>48.3</ele>
        <time>2020-07-03T15:31:57Z</time>
      </trkpt>
      <trkpt lat="46.90336" lon="0.56636">
        <ele>48.3</ele>
        <time>2020-07-03T15:31:58Z</time>
      </trkpt>
      <trkpt lat="46.90331" lon="0.56633">
        <ele>48.4</ele>
        <time>2020-07-03T15:31:59Z</time>
      </trkpt>
      <trkpt lat="46.90326" lon="0.5663">
        <ele>48.4</ele>
        <time>2020-07-03T15:32:00Z</time>
      </trkpt>
      <trkpt lat="46.9032" lon="0.56625">
        <ele>48.5</ele>
        <time>2020-07-03T15:32:01Z</time>
      </trkpt>
      <trkpt lat="46.90315" lon="0.5662">
        <ele>48.6</ele>
        <time>2020-07-03T15:32:02Z</time>
      </trkpt>
      <trkpt lat="46.90311" lon="0.56617">
        <ele>48.7</ele>
        <time>2020-07-03T15:32:03Z</time>
      </trkpt>
      <trkpt lat="46.90305" lon="0.56613">
        <ele>48.9</ele>
        <time>2020-07-03T15:32:04Z</time>
      </trkpt>
      <trkpt lat="46.90299" lon="0.56608">
        <ele>49</ele>
        <time>2020-07-03T15:32:05Z</time>
      </trkpt>
      <trkpt lat="46.90294" lon="0.56602">
        <ele>49.1</ele>
        <time>2020-07-03T15:32:06Z</time>
      </trkpt>
      <trkpt lat="46.90288" lon="0.56597">
        <ele>49.2</ele>
        <time>2020-07-03T15:32:07Z</time>
      </trkpt>
      <trkpt lat="46.90283" lon="0.56593">
        <ele>49.4</ele>
        <time>2020-07-03T15:32:08Z</time>
      </trkpt>
      <trkpt lat="46.90277" lon="0.56588">
        <ele>49.5</ele>
        <time>2020-07-03T15:32:09Z</time>
      </trkpt>
      <trkpt lat="46.90272" lon="0.56584">
        <ele>49.7</ele>
        <time>2020-07-03T15:32:10Z</time>
      </trkpt>
      <trkpt lat="46.90266" lon="0.56579">
        <ele>49.9</ele>
        <time>2020-07-03T15:32:11Z</time>
      </trkpt>
      <trkpt lat="46.90261" lon="0.56574">
        <ele>50.1</ele>
        <time>2020-07-03T15:32:12Z</time>
      </trkpt>
      <trkpt lat="46.90257" lon="0.56568">
        <ele>50.2</ele>
        <time>2020-07-03T15:32:13Z</time>
      </trkpt>
      <trkpt lat="46.90252" lon="0.56564">
        <ele>50.4</ele>
        <time>2020-07-03T15:32:14Z</time>
      </trkpt>
      <trkpt lat="46.90248" lon="0.5656">
        <ele>50.5</ele>
        <time>2020-07-03T15:32:15Z</time>
      </trkpt>
      <trkpt lat="46.90243" lon="0.56556">
        <ele>50.7</ele>
        <time>2020-07-03T15:32:16Z</time>
      </trkpt>
      <trkpt lat="46.90239" lon="0.56553">
        <ele>50.8</ele>
        <time>2020-07-03T15:32:17Z</time>
      </trkpt>
      <trkpt lat="46.90235" lon="0.56548">
        <ele>51</ele>
        <time>2020-07-03T15:32:18Z</time>
      </trkpt>
      <trkpt lat="46.90231" lon="0.56543">
        <ele>51.2</ele>
        <time>2020-07-03T15:32:19Z</time>
      </trkpt>
      <trkpt lat="46.90228" lon="0.56541">
        <ele>51.3</ele>
        <time>2020-07-03T15:32:20Z</time>
      </trkpt>
      <trkpt lat="46.90224" lon="0.56538">
        <ele>51.5</ele>
        <time>2020-07-03T15:32:21Z</time>
      </trkpt>
      <trkpt lat="46.9022" lon="0.56534">
        <ele>51.6</ele>
        <time>2020-07-03T15:32:22Z</time>
      </trkpt>
      <trkpt lat="46.90216" lon="0.56529">
        <ele>51.8</ele>
        <time>2020-07-03T15:32:23Z</time>
      </trkpt>
      <trkpt lat="46.90211" lon="0.56525">
        <ele>52</ele>
        <time>2020-07-03T15:32:24Z</time>
      </trkpt>
      <trkpt lat="46.90207" lon="0.56522">
        <ele>52.2</ele>
        <time>2020-07-03T15:32:25Z</time>
      </trkpt>
      <trkpt lat="46.90204" lon="0.5652">
        <ele>52.3</ele>
        <time>2020-07-03T15:32:26Z</time>
      </trkpt>
      <trkpt lat="46.90199" lon="0.56516">
        <ele>52.5</ele>
        <time>2020-07-03T15:32:27Z</time>
      </trkpt>
      <trkpt lat="46.90196" lon="0.56514">
        <ele>52.6</ele>
        <time>2020-07-03T15:32:28Z</time>
      </trkpt>
      <trkpt lat="46.90192" lon="0.56511">
        <ele>52.8</ele>
        <time>2020-07-03T15:32:29Z</time>
      </trkpt>
      <trkpt lat="46.90189" lon="0.56508">
        <ele>52.9</ele>
        <time>2020-07-03T15:32:30Z</time>
      </trkpt>
      <trkpt lat="46.90184" lon="0.56505">
        <ele>53</ele>
        <time>2020-07-03T15:32:31Z</time>
      </trkpt>
      <trkpt lat="46.90179" lon="0.56499">
        <ele>53.2</ele>
        <time>2020-07-03T15:32:32Z</time>
      </trkpt>
      <trkpt lat="46.90176" lon="0.56499">
        <ele>53.3</ele>
        <time>2020-07-03T15:32:33Z</time>
      </trkpt>
      <trkpt lat="46.90172" lon="0.56495">
        <ele>53.4</ele>
        <time>2020-07-03T15:32:34Z</time>
      </trkpt>
      <trkpt lat="46.90168" lon="0.56493">
        <ele>53.5</ele>
        <time>2020-07-03T15:32:35Z</time>
      </trkpt>
      <trkpt lat="46.90165" lon="0.56491">
        <ele>53.6</ele>
        <time>2020-07-03T15:32:36Z</time>
      </trkpt>
      <trkpt lat="46.9016" lon="0.56489">
        <ele>53.7</ele>
        <time>2020-07-03T15:32:37Z</time>
      </trkpt>
      <trkpt lat="46.90157" lon="0.56486">
        <ele>53.7</ele>
        <time>2020-07-03T15:32:38Z</time>
      </trkpt>
      <trkpt lat="46.90153" lon="0.56484">
        <ele>53.8</ele>
        <time>2020-07-03T15:32:39Z</time>
      </trkpt>
      <trkpt lat="46.90152" lon="0.56483">
        <ele>53.8</ele>
        <time>2020-07-03T15:32:40Z</time>
      </trkpt>
      <trkpt lat="46.90148" lon="0.5648">
        <ele>53.9</ele>
        <time>2020-07-03T15:32:41Z</time>
      </trkpt>
      <trkpt lat="46.90145" lon="0.56478">
        <ele>54</ele>
        <time>2020-07-03T15:32:42Z</time>
      </trkpt>
      <trkpt lat="46.90142" lon="0.56476">
        <ele>54</ele>
        <time>2020-07-03T15:32:43Z</time>
      </trkpt>
      <trkpt lat="46.90137" lon="0.56474">
        <ele>54.1</ele>
        <time>2020-07-03T15:32:44Z</time>
      </trkpt>
      <trkpt lat="46.90132" lon="0.56472">
        <ele>54.1</ele>
        <time>2020-07-03T15:32:45Z</time>
      </trkpt>
      <trkpt lat="46.90127" lon="0.5647">
        <ele>54.2</ele>
        <time>2020-07-03T15:32:46Z</time>
      </trkpt>
      <trkpt lat="46.90122" lon="0.56468">
        <ele>54</ele>
        <time>2020-07-03T15:32:47Z</time>
      </trkpt>
      <trkpt lat="46.90117" lon="0.56465">
        <ele>54</ele>
        <time>2020-07-03T15:32:48Z</time>
      </trkpt>
      <trkpt lat="46.90113" lon="0.56464">
        <ele>54</ele>
        <time>2020-07-03T15:32:49Z</time>
      </trkpt>
      <trkpt lat="46.90107" lon="0.5646">
        <ele>53.9</ele>
        <time>2020-07-03T15:32:50Z</time>
      </trkpt>
      <trkpt lat="46.90102" lon="0.56457">
        <ele>53.9</ele>
        <time>2020-07-03T15:32:51Z</time>
      </trkpt>
      <trkpt lat="46.90096" lon="0.56454">
        <ele>53.9</ele>
        <time>2020-07-03T15:32:52Z</time>
      </trkpt>
      <trkpt lat="46.9009" lon="0.56451">
        <ele>53.9</ele>
        <time>2020-07-03T15:32:53Z</time>
      </trkpt>
      <trkpt lat="46.90084" lon="0.56447">
        <ele>53.8</ele>
        <time>2020-07-03T15:32:54Z</time>
      </trkpt>
      <trkpt lat="46.9008" lon="0.56443">
        <ele>53.8</ele>
        <time>2020-07-03T15:32:55Z</time>
      </trkpt>
      <trkpt lat="46.90077" lon="0.56442">
        <ele>53.8</ele>
        <time>2020-07-03T15:32:56Z</time>
      </trkpt>
      <trkpt lat="46.9007" lon="0.56438">
        <ele>53.8</ele>
        <time>2020-07-03T15:32:57Z</time>
      </trkpt>
      <trkpt lat="46.90064" lon="0.56434">
        <ele>53.8</ele>
        <time>2020-07-03T15:32:58Z</time>
      </trkpt>
      <trkpt lat="46.9006" lon="0.56433">
        <ele>53.8</ele>
        <time>2020-07-03T15:32:59Z</time>
      </trkpt>
      <trkpt lat="46.90054" lon="0.56428">
        <ele>53.8</ele>
        <time>2020-07-03T15:33:00Z</time>
      </trkpt>
      <trkpt lat="46.90048" lon="0.56424">
        <ele>53.8</ele>
        <time>2020-07-03T15:33:01Z</time>
      </trkpt>
      <trkpt lat="46.90042" lon="0.5642">
        <ele>53.9</ele>
        <time>2020-07-03T15:33:02Z</time>
      </trkpt>
      <trkpt lat="46.90037" lon="0.56416">
        <ele>53.9</ele>
        <time>2020-07-03T15:33:03Z</time>
      </trkpt>
      <trkpt lat="46.90032" lon="0.56411">
        <ele>53.9</ele>
        <time>2020-07-03T15:33:04Z</time>
      </trkpt>
      <trkpt lat="46.90027" lon="0.56406">
        <ele>53.9</ele>
        <time>2020-07-03T15:33:05Z</time>
      </trkpt>
      <trkpt lat="46.90021" lon="0.56402">
        <ele>53.9</ele>
        <time>2020-07-03T15:33:06Z</time>
      </trkpt>
      <trkpt lat="46.90016" lon="0.56398">
        <ele>53.9</ele>
        <time>2020-07-03T15:33:07Z</time>
      </trkpt>
      <trkpt lat="46.90009" lon="0.56393">
        <ele>53.9</ele>
        <time>2020-07-03T15:33:08Z</time>
      </trkpt>
      <trkpt lat="46.90005" lon="0.56389">
        <ele>53.9</ele>
        <time>2020-07-03T15:33:09Z</time>
      </trkpt>
      <trkpt lat="46.89999" lon="0.56385">
        <ele>54</ele>
        <time>2020-07-03T15:33:10Z</time>
      </trkpt>
      <trkpt lat="46.89995" lon="0.56381">
        <ele>54</ele>
        <time>2020-07-03T15:33:11Z</time>
      </trkpt>
      <trkpt lat="46.8999" lon="0.56377">
        <ele>54.1</ele>
        <time>2020-07-03T15:33:12Z</time>
      </trkpt>
      <trkpt lat="46.89984" lon="0.56373">
        <ele>54.1</ele>
        <time>2020-07-03T15:33:13Z</time>
      </trkpt>
      <trkpt lat="46.89979" lon="0.56369">
        <ele>54.2</ele>
        <time>2020-07-03T15:33:14Z</time>
      </trkpt>
      <trkpt lat="46.89974" lon="0.56366">
        <ele>54.2</ele>
        <time>2020-07-03T15:33:15Z</time>
      </trkpt>
      <trkpt lat="46.89968" lon="0.56364">
        <ele>54.3</ele>
        <time>2020-07-03T15:33:16Z</time>
      </trkpt>
      <trkpt lat="46.89962" lon="0.56361">
        <ele>54.4</ele>
        <time>2020-07-03T15:33:17Z</time>
      </trkpt>
      <trkpt lat="46.89956" lon="0.56359">
        <ele>54.5</ele>
        <time>2020-07-03T15:33:18Z</time>
      </trkpt>
      <trkpt lat="46.89951" lon="0.56357">
        <ele>54.5</ele>
        <time>2020-07-03T15:33:19Z</time>
      </trkpt>
      <trkpt lat="46.89946" lon="0.56357">
        <ele>54.6</ele>
        <time>2020-07-03T15:33:20Z</time>
      </trkpt>
      <trkpt lat="46.8994" lon="0.56357">
        <ele>54.6</ele>
        <time>2020-07-03T15:33:21Z</time>
      </trkpt>
      <trkpt lat="46.89935" lon="0.56358">
        <ele>54.6</ele>
        <time>2020-07-03T15:33:22Z</time>
      </trkpt>
      <trkpt lat="46.89929" lon="0.5636">
        <ele>54.7</ele>
        <time>2020-07-03T15:33:23Z</time>
      </trkpt>
      <trkpt lat="46.89924" lon="0.56361">
        <ele>54.7</ele>
        <time>2020-07-03T15:33:24Z</time>
      </trkpt>
      <trkpt lat="46.8992" lon="0.56362">
        <ele>54.8</ele>
        <time>2020-07-03T15:33:25Z</time>
      </trkpt>
      <trkpt lat="46.89916" lon="0.56363">
        <ele>54.8</ele>
        <time>2020-07-03T15:33:26Z</time>
      </trkpt>
      <trkpt lat="46.89912" lon="0.56364">
        <ele>54.9</ele>
        <time>2020-07-03T15:33:27Z</time>
      </trkpt>
      <trkpt lat="46.8991" lon="0.56367">
        <ele>54.9</ele>
        <time>2020-07-03T15:33:28Z</time>
      </trkpt>
      <trkpt lat="46.8991" lon="0.5637">
        <ele>54.9</ele>
        <time>2020-07-03T15:33:29Z</time>
      </trkpt>
      <trkpt lat="46.89911" lon="0.56374">
        <ele>55</ele>
        <time>2020-07-03T15:33:30Z</time>
      </trkpt>
      <trkpt lat="46.89911" lon="0.56376">
        <ele>55</ele>
        <time>2020-07-03T15:33:31Z</time>
      </trkpt>
      <trkpt lat="46.8991" lon="0.56377">
        <ele>55</ele>
        <time>2020-07-03T15:33:32Z</time>
      </trkpt>
      <trkpt lat="46.89909" lon="0.5638">
        <ele>55</ele>
        <time>2020-07-03T15:33:33Z</time>
      </trkpt>
      <trkpt lat="46.89909" lon="0.5638">
        <ele>55</ele>
        <time>2020-07-03T15:33:34Z</time>
      </trkpt>
      <trkpt lat="46.8991" lon="0.5638">
        <ele>55.1</ele>
        <time>2020-07-03T15:33:35Z</time>
      </trkpt>
      <trkpt lat="46.89911" lon="0.56381">
        <ele>55.1</ele>
        <time>2020-07-03T15:33:36Z</time>
      </trkpt>
      <trkpt lat="46.89911" lon="0.56382">
        <ele>55.1</ele>
        <time>2020-07-03T15:33:37Z</time>
      </trkpt>
      <trkpt lat="46.89911" lon="0.56383">
        <ele>55.1</ele>
        <time>2020-07-03T15:33:38Z</time>
      </trkpt>
      <trkpt lat="46.89912" lon="0.56383">
        <ele>55.1</ele>
        <time>2020-07-03T15:33:39Z</time>
      </trkpt>
      <trkpt lat="46.89912" lon="0.56384">
        <ele>55.1</ele>
        <time>2020-07-03T15:33:40Z</time>
      </trkpt>
      <trkpt lat="46.89912" lon="0.56385">
        <ele>55.1</ele>
        <time>2020-07-03T15:33:41Z</time>
      </trkpt>
      <trkpt lat="46.89912" lon="0.56386">
        <ele>55.1</ele>
        <time>2020-07-03T15:33:42Z</time>
      </trkpt>
      <trkpt lat="46.89911" lon="0.56386">
        <ele>55.1</ele>
        <time>2020-07-03T15:33:43Z</time>
      </trkpt>
      <trkpt lat="46.89911" lon="0.56376">
        <ele>55.2</ele>
        <time>2020-07-03T15:53:55Z</time>
      </trkpt>
      <trkpt lat="46.89912" lon="0.56375">
        <ele>55.2</ele>
        <time>2020-07-03T15:53:56Z</time>
      </trkpt>
      <trkpt lat="46.89912" lon="0.56374">
        <ele>55.2</ele>
        <time>2020-07-03T15:53:57Z</time>
      </trkpt>
      <trkpt lat="46.89912" lon="0.56373">
        <ele>55.2</ele>
        <time>2020-07-03T15:53:58Z</time>
      </trkpt>
      <trkpt lat="46.89913" lon="0.56373">
        <ele>55.2</ele>
        <time>2020-07-03T15:53:59Z</time>
      </trkpt>
      <trkpt lat="46.89914" lon="0.56371">
        <ele>55.2</ele>
        <time>2020-07-03T15:54:00Z</time>
      </trkpt>
      <trkpt lat="46.89916" lon="0.56369">
        <ele>55.2</ele>
        <time>2020-07-03T15:54:01Z</time>
      </trkpt>
      <trkpt lat="46.89917" lon="0.56368">
        <ele>55.1</ele>
        <time>2020-07-03T15:54:02Z</time>
      </trkpt>
      <trkpt lat="46.8992" lon="0.56367">
        <ele>55</ele>
        <time>2020-07-03T15:54:03Z</time>
      </trkpt>
      <trkpt lat="46.89922" lon="0.56367">
        <ele>55</ele>
        <time>2020-07-03T15:54:04Z</time>
      </trkpt>
      <trkpt lat="46.89925" lon="0.56366">
        <ele>54.9</ele>
        <time>2020-07-03T15:54:05Z</time>
      </trkpt>
      <trkpt lat="46.89929" lon="0.56364">
        <ele>54.8</ele>
        <time>2020-07-03T15:54:06Z</time>
      </trkpt>
      <trkpt lat="46.89933" lon="0.56363">
        <ele>54.8</ele>
        <time>2020-07-03T15:54:07Z</time>
      </trkpt>
      <trkpt lat="46.89937" lon="0.56362">
        <ele>54.7</ele>
        <time>2020-07-03T15:54:08Z</time>
      </trkpt>
      <trkpt lat="46.89941" lon="0.56362">
        <ele>54.6</ele>
        <time>2020-07-03T15:54:09Z</time>
      </trkpt>
      <trkpt lat="46.89946" lon="0.56363">
        <ele>54.6</ele>
        <time>2020-07-03T15:54:10Z</time>
      </trkpt>
      <trkpt lat="46.8995" lon="0.56363">
        <ele>54.5</ele>
        <time>2020-07-03T15:54:11Z</time>
      </trkpt>
      <trkpt lat="46.89954" lon="0.56363">
        <ele>54.5</ele>
        <time>2020-07-03T15:54:12Z</time>
      </trkpt>
      <trkpt lat="46.89958" lon="0.56364">
        <ele>54.4</ele>
        <time>2020-07-03T15:54:13Z</time>
      </trkpt>
      <trkpt lat="46.89961" lon="0.56365">
        <ele>54.4</ele>
        <time>2020-07-03T15:54:14Z</time>
      </trkpt>
      <trkpt lat="46.89965" lon="0.56366">
        <ele>54.3</ele>
        <time>2020-07-03T15:54:15Z</time>
      </trkpt>
      <trkpt lat="46.89969" lon="0.56367">
        <ele>54.2</ele>
        <time>2020-07-03T15:54:16Z</time>
      </trkpt>
      <trkpt lat="46.89971" lon="0.56368">
        <ele>54.3</ele>
        <time>2020-07-03T15:54:17Z</time>
      </trkpt>
      <trkpt lat="46.89973" lon="0.56368">
        <ele>54.3</ele>
        <time>2020-07-03T15:54:18Z</time>
      </trkpt>
      <trkpt lat="46.89972" lon="0.56365">
        <ele>54.3</ele>
        <time>2020-07-03T15:54:19Z</time>
      </trkpt>
      <trkpt lat="46.8997" lon="0.56364">
        <ele>54.3</ele>
        <time>2020-07-03T15:54:20Z</time>
      </trkpt>
      <trkpt lat="46.89967" lon="0.56365">
        <ele>54.4</ele>
        <time>2020-07-03T15:54:21Z</time>
      </trkpt>
      <trkpt lat="46.89966" lon="0.56365">
        <ele>54.4</ele>
        <time>2020-07-03T15:54:22Z</time>
      </trkpt>
      <trkpt lat="46.89963" lon="0.56362">
        <ele>54.4</ele>
        <time>2020-07-03T15:54:23Z</time>
      </trkpt>
      <trkpt lat="46.89959" lon="0.5636">
        <ele>54.5</ele>
        <time>2020-07-03T15:54:24Z</time>
      </trkpt>
      <trkpt lat="46.89954" lon="0.56359">
        <ele>54.5</ele>
        <time>2020-07-03T15:54:25Z</time>
      </trkpt>
      <trkpt lat="46.89949" lon="0.56359">
        <ele>54.5</ele>
        <time>2020-07-03T15:54:26Z</time>
      </trkpt>
      <trkpt lat="46.89944" lon="0.56359">
        <ele>54.6</ele>
        <time>2020-07-03T15:54:27Z</time>
      </trkpt>
      <trkpt lat="46.89938" lon="0.56359">
        <ele>54.7</ele>
        <time>2020-07-03T15:54:28Z</time>
      </trkpt>
      <trkpt lat="46.89932" lon="0.5636">
        <ele>54.8</ele>
        <time>2020-07-03T15:54:29Z</time>
      </trkpt>
      <trkpt lat="46.89926" lon="0.56361">
        <ele>54.9</ele>
        <time>2020-07-03T15:54:30Z</time>
      </trkpt>
      <trkpt lat="46.89919" lon="0.56362">
        <ele>55.1</ele>
        <time>2020-07-03T15:54:31Z</time>
      </trkpt>
      <trkpt lat="46.89913" lon="0.56364">
        <ele>55.2</ele>
        <time>2020-07-03T15:54:32Z</time>
      </trkpt>
      <trkpt lat="46.89906" lon="0.56365">
        <ele>55.4</ele>
        <time>2020-07-03T15:54:33Z</time>
      </trkpt>
      <trkpt lat="46.899" lon="0.56366">
        <ele>55.5</ele>
        <time>2020-07-03T15:54:34Z</time>
      </trkpt>
      <trkpt lat="46.89895" lon="0.56367">
        <ele>55.6</ele>
        <time>2020-07-03T15:54:35Z</time>
      </trkpt>
      <trkpt lat="46.89888" lon="0.56369">
        <ele>55.7</ele>
        <time>2020-07-03T15:54:36Z</time>
      </trkpt>
      <trkpt lat="46.89882" lon="0.56371">
        <ele>55.9</ele>
        <time>2020-07-03T15:54:37Z</time>
      </trkpt>
      <trkpt lat="46.89876" lon="0.56372">
        <ele>56</ele>
        <time>2020-07-03T15:54:38Z</time>
      </trkpt>
      <trkpt lat="46.8987" lon="0.56373">
        <ele>56.2</ele>
        <time>2020-07-03T15:54:39Z</time>
      </trkpt>
      <trkpt lat="46.89863" lon="0.56373">
        <ele>56.3</ele>
        <time>2020-07-03T15:54:40Z</time>
      </trkpt>
      <trkpt lat="46.89857" lon="0.56373">
        <ele>56.4</ele>
        <time>2020-07-03T15:54:41Z</time>
      </trkpt>
      <trkpt lat="46.89852" lon="0.56374">
        <ele>56.4</ele>
        <time>2020-07-03T15:54:42Z</time>
      </trkpt>
      <trkpt lat="46.89846" lon="0.56376">
        <ele>56.3</ele>
        <time>2020-07-03T15:54:43Z</time>
      </trkpt>
      <trkpt lat="46.8984" lon="0.56376">
        <ele>56.2</ele>
        <time>2020-07-03T15:54:44Z</time>
      </trkpt>
      <trkpt lat="46.89834" lon="0.56376">
        <ele>55.9</ele>
        <time>2020-07-03T15:54:45Z</time>
      </trkpt>
      <trkpt lat="46.89826" lon="0.56376">
        <ele>55.5</ele>
        <time>2020-07-03T15:54:46Z</time>
      </trkpt>
      <trkpt lat="46.89819" lon="0.56376">
        <ele>55.1</ele>
        <time>2020-07-03T15:54:47Z</time>
      </trkpt>
      <trkpt lat="46.89812" lon="0.56376">
        <ele>54.7</ele>
        <time>2020-07-03T15:54:48Z</time>
      </trkpt>
      <trkpt lat="46.89803" lon="0.56375">
        <ele>54.1</ele>
        <time>2020-07-03T15:54:49Z</time>
      </trkpt>
      <trkpt lat="46.89794" lon="0.56374">
        <ele>53.5</ele>
        <time>2020-07-03T15:54:50Z</time>
      </trkpt>
      <trkpt lat="46.89784" lon="0.56373">
        <ele>53</ele>
        <time>2020-07-03T15:54:51Z</time>
      </trkpt>
      <trkpt lat="46.89774" lon="0.56373">
        <ele>52.4</ele>
        <time>2020-07-03T15:54:52Z</time>
      </trkpt>
      <trkpt lat="46.89765" lon="0.56373">
        <ele>51.9</ele>
        <time>2020-07-03T15:54:53Z</time>
      </trkpt>
      <trkpt lat="46.89756" lon="0.56373">
        <ele>51.4</ele>
        <time>2020-07-03T15:54:54Z</time>
      </trkpt>
      <trkpt lat="46.89746" lon="0.56373">
        <ele>50.9</ele>
        <time>2020-07-03T15:54:55Z</time>
      </trkpt>
      <trkpt lat="46.89736" lon="0.56373">
        <ele>50.3</ele>
        <time>2020-07-03T15:54:56Z</time>
      </trkpt>
      <trkpt lat="46.89725" lon="0.56373">
        <ele>49.7</ele>
        <time>2020-07-03T15:54:57Z</time>
      </trkpt>
      <trkpt lat="46.89715" lon="0.56372">
        <ele>49</ele>
        <time>2020-07-03T15:54:58Z</time>
      </trkpt>
      <trkpt lat="46.89705" lon="0.5637">
        <ele>48.5</ele>
        <time>2020-07-03T15:54:59Z</time>
      </trkpt>
      <trkpt lat="46.89695" lon="0.56369">
        <ele>48.1</ele>
        <time>2020-07-03T15:55:00Z</time>
      </trkpt>
      <trkpt lat="46.89685" lon="0.56368">
        <ele>47.7</ele>
        <time>2020-07-03T15:55:01Z</time>
      </trkpt>
      <trkpt lat="46.89675" lon="0.56367">
        <ele>47.2</ele>
        <time>2020-07-03T15:55:02Z</time>
      </trkpt>
      <trkpt lat="46.89664" lon="0.56366">
        <ele>46.9</ele>
        <time>2020-07-03T15:55:03Z</time>
      </trkpt>
      <trkpt lat="46.89655" lon="0.56364">
        <ele>46.6</ele>
        <time>2020-07-03T15:55:04Z</time>
      </trkpt>
      <trkpt lat="46.89645" lon="0.56364">
        <ele>46.3</ele>
        <time>2020-07-03T15:55:05Z</time>
      </trkpt>
      <trkpt lat="46.89635" lon="0.56364">
        <ele>46</ele>
        <time>2020-07-03T15:55:06Z</time>
      </trkpt>
      <trkpt lat="46.89625" lon="0.56364">
        <ele>45.8</ele>
        <time>2020-07-03T15:55:07Z</time>
      </trkpt>
      <trkpt lat="46.89615" lon="0.56363">
        <ele>45.7</ele>
        <time>2020-07-03T15:55:08Z</time>
      </trkpt>
      <trkpt lat="46.89604" lon="0.56362">
        <ele>45.6</ele>
        <time>2020-07-03T15:55:09Z</time>
      </trkpt>
      <trkpt lat="46.89594" lon="0.56361">
        <ele>45.5</ele>
        <time>2020-07-03T15:55:10Z</time>
      </trkpt>
      <trkpt lat="46.89584" lon="0.56361">
        <ele>45.5</ele>
        <time>2020-07-03T15:55:11Z</time>
      </trkpt>
      <trkpt lat="46.89574" lon="0.56359">
        <ele>45.5</ele>
        <time>2020-07-03T15:55:12Z</time>
      </trkpt>
      <trkpt lat="46.89566" lon="0.56357">
        <ele>45.5</ele>
        <time>2020-07-03T15:55:13Z</time>
      </trkpt>
      <trkpt lat="46.89556" lon="0.56353">
        <ele>45.5</ele>
        <time>2020-07-03T15:55:14Z</time>
      </trkpt>
      <trkpt lat="46.89547" lon="0.56349">
        <ele>45.5</ele>
        <time>2020-07-03T15:55:15Z</time>
      </trkpt>
      <trkpt lat="46.89538" lon="0.56344">
        <ele>45.5</ele>
        <time>2020-07-03T15:55:16Z</time>
      </trkpt>
      <trkpt lat="46.8953" lon="0.56338">
        <ele>45.6</ele>
        <time>2020-07-03T15:55:17Z</time>
      </trkpt>
      <trkpt lat="46.89521" lon="0.56331">
        <ele>45.7</ele>
        <time>2020-07-03T15:55:18Z</time>
      </trkpt>
      <trkpt lat="46.89513" lon="0.56324">
        <ele>45.9</ele>
        <time>2020-07-03T15:55:19Z</time>
      </trkpt>
      <trkpt lat="46.89506" lon="0.56318">
        <ele>46</ele>
        <time>2020-07-03T15:55:20Z</time>
      </trkpt>
      <trkpt lat="46.89499" lon="0.56312">
        <ele>46.2</ele>
        <time>2020-07-03T15:55:21Z</time>
      </trkpt>
      <trkpt lat="46.89492" lon="0.56308">
        <ele>46.4</ele>
        <time>2020-07-03T15:55:22Z</time>
      </trkpt>
      <trkpt lat="46.89486" lon="0.56303">
        <ele>46.6</ele>
        <time>2020-07-03T15:55:23Z</time>
      </trkpt>
      <trkpt lat="46.8948" lon="0.56298">
        <ele>46.7</ele>
        <time>2020-07-03T15:55:24Z</time>
      </trkpt>
      <trkpt lat="46.89473" lon="0.56294">
        <ele>46.9</ele>
        <time>2020-07-03T15:55:25Z</time>
      </trkpt>
      <trkpt lat="46.89467" lon="0.56289">
        <ele>47.1</ele>
        <time>2020-07-03T15:55:26Z</time>
      </trkpt>
      <trkpt lat="46.89461" lon="0.56285">
        <ele>47.2</ele>
        <time>2020-07-03T15:55:27Z</time>
      </trkpt>
      <trkpt lat="46.89454" lon="0.56281">
        <ele>47.5</ele>
        <time>2020-07-03T15:55:28Z</time>
      </trkpt>
      <trkpt lat="46.89448" lon="0.56276">
        <ele>47.7</ele>
        <time>2020-07-03T15:55:29Z</time>
      </trkpt>
      <trkpt lat="46.89442" lon="0.56271">
        <ele>47.9</ele>
        <time>2020-07-03T15:55:30Z</time>
      </trkpt>
      <trkpt lat="46.89435" lon="0.56267">
        <ele>48.1</ele>
        <time>2020-07-03T15:55:31Z</time>
      </trkpt>
      <trkpt lat="46.89429" lon="0.56263">
        <ele>48.3</ele>
        <time>2020-07-03T15:55:32Z</time>
      </trkpt>
      <trkpt lat="46.89423" lon="0.56259">
        <ele>48.4</ele>
        <time>2020-07-03T15:55:33Z</time>
      </trkpt>
      <trkpt lat="46.89417" lon="0.56255">
        <ele>48.6</ele>
        <time>2020-07-03T15:55:34Z</time>
      </trkpt>
      <trkpt lat="46.8941" lon="0.56251">
        <ele>48.8</ele>
        <time>2020-07-03T15:55:35Z</time>
      </trkpt>
      <trkpt lat="46.89404" lon="0.56249">
        <ele>49</ele>
        <time>2020-07-03T15:55:36Z</time>
      </trkpt>
      <trkpt lat="46.89398" lon="0.56245">
        <ele>49.1</ele>
        <time>2020-07-03T15:55:37Z</time>
      </trkpt>
      <trkpt lat="46.89392" lon="0.56242">
        <ele>49.3</ele>
        <time>2020-07-03T15:55:38Z</time>
      </trkpt>
      <trkpt lat="46.89388" lon="0.5624">
        <ele>49.3</ele>
        <time>2020-07-03T15:55:39Z</time>
      </trkpt>
      <trkpt lat="46.89383" lon="0.56237">
        <ele>49.4</ele>
        <time>2020-07-03T15:55:40Z</time>
      </trkpt>
      <trkpt lat="46.89376" lon="0.56233">
        <ele>49.5</ele>
        <time>2020-07-03T15:55:41Z</time>
      </trkpt>
      <trkpt lat="46.8937" lon="0.56228">
        <ele>49.7</ele>
        <time>2020-07-03T15:55:42Z</time>
      </trkpt>
      <trkpt lat="46.89364" lon="0.56225">
        <ele>49.8</ele>
        <time>2020-07-03T15:55:43Z</time>
      </trkpt>
      <trkpt lat="46.89358" lon="0.56221">
        <ele>49.9</ele>
        <time>2020-07-03T15:55:44Z</time>
      </trkpt>
      <trkpt lat="46.89352" lon="0.56218">
        <ele>50</ele>
        <time>2020-07-03T15:55:45Z</time>
      </trkpt>
      <trkpt lat="46.89344" lon="0.56214">
        <ele>50.1</ele>
        <time>2020-07-03T15:55:46Z</time>
      </trkpt>
      <trkpt lat="46.89338" lon="0.5621">
        <ele>50.2</ele>
        <time>2020-07-03T15:55:47Z</time>
      </trkpt>
      <trkpt lat="46.89333" lon="0.56209">
        <ele>50.2</ele>
        <time>2020-07-03T15:55:48Z</time>
      </trkpt>
      <trkpt lat="46.89326" lon="0.56207">
        <ele>50.3</ele>
        <time>2020-07-03T15:55:49Z</time>
      </trkpt>
      <trkpt lat="46.89322" lon="0.56204">
        <ele>50.3</ele>
        <time>2020-07-03T15:55:50Z</time>
      </trkpt>
      <trkpt lat="46.89315" lon="0.562">
        <ele>50.3</ele>
        <time>2020-07-03T15:55:51Z</time>
      </trkpt>
      <trkpt lat="46.8931" lon="0.56197">
        <ele>50.4</ele>
        <time>2020-07-03T15:55:52Z</time>
      </trkpt>
      <trkpt lat="46.89304" lon="0.56192">
        <ele>50.4</ele>
        <time>2020-07-03T15:55:53Z</time>
      </trkpt>
      <trkpt lat="46.89298" lon="0.56188">
        <ele>50.4</ele>
        <time>2020-07-03T15:55:54Z</time>
      </trkpt>
      <trkpt lat="46.89291" lon="0.56183">
        <ele>50.4</ele>
        <time>2020-07-03T15:55:55Z</time>
      </trkpt>
      <trkpt lat="46.89285" lon="0.56179">
        <ele>50.4</ele>
        <time>2020-07-03T15:55:56Z</time>
      </trkpt>
      <trkpt lat="46.89279" lon="0.56175">
        <ele>50.4</ele>
        <time>2020-07-03T15:55:57Z</time>
      </trkpt>
      <trkpt lat="46.89274" lon="0.56172">
        <ele>50.3</ele>
        <time>2020-07-03T15:55:58Z</time>
      </trkpt>
      <trkpt lat="46.89268" lon="0.56169">
        <ele>50.1</ele>
        <time>2020-07-03T15:55:59Z</time>
      </trkpt>
      <trkpt lat="46.89263" lon="0.56166">
        <ele>50</ele>
        <time>2020-07-03T15:56:00Z</time>
      </trkpt>
      <trkpt lat="46.89255" lon="0.56164">
        <ele>49.8</ele>
        <time>2020-07-03T15:56:01Z</time>
      </trkpt>
      <trkpt lat="46.89248" lon="0.56161">
        <ele>49.6</ele>
        <time>2020-07-03T15:56:02Z</time>
      </trkpt>
      <trkpt lat="46.89241" lon="0.56159">
        <ele>49.5</ele>
        <time>2020-07-03T15:56:03Z</time>
      </trkpt>
      <trkpt lat="46.89232" lon="0.56156">
        <ele>49.2</ele>
        <time>2020-07-03T15:56:04Z</time>
      </trkpt>
      <trkpt lat="46.89223" lon="0.56155">
        <ele>49</ele>
        <time>2020-07-03T15:56:05Z</time>
      </trkpt>
      <trkpt lat="46.89215" lon="0.56153">
        <ele>48.7</ele>
        <time>2020-07-03T15:56:06Z</time>
      </trkpt>
      <trkpt lat="46.89207" lon="0.56153">
        <ele>48.5</ele>
        <time>2020-07-03T15:56:07Z</time>
      </trkpt>
      <trkpt lat="46.89199" lon="0.56152">
        <ele>48.2</ele>
        <time>2020-07-03T15:56:08Z</time>
      </trkpt>
      <trkpt lat="46.8919" lon="0.5615">
        <ele>47.9</ele>
        <time>2020-07-03T15:56:09Z</time>
      </trkpt>
      <trkpt lat="46.89184" lon="0.56149">
        <ele>47.7</ele>
        <time>2020-07-03T15:56:10Z</time>
      </trkpt>
      <trkpt lat="46.89176" lon="0.56147">
        <ele>47.4</ele>
        <time>2020-07-03T15:56:11Z</time>
      </trkpt>
      <trkpt lat="46.89167" lon="0.56145">
        <ele>47.2</ele>
        <time>2020-07-03T15:56:12Z</time>
      </trkpt>
      <trkpt lat="46.89159" lon="0.56143">
        <ele>47</ele>
        <time>2020-07-03T15:56:13Z</time>
      </trkpt>
      <trkpt lat="46.89151" lon="0.56142">
        <ele>46.8</ele>
        <time>2020-07-03T15:56:14Z</time>
      </trkpt>
      <trkpt lat="46.89142" lon="0.5614">
        <ele>46.6</ele>
        <time>2020-07-03T15:56:15Z</time>
      </trkpt>
      <trkpt lat="46.89132" lon="0.56139">
        <ele>46.5</ele>
        <time>2020-07-03T15:56:16Z</time>
      </trkpt>
      <trkpt lat="46.89122" lon="0.56138">
        <ele>46.4</ele>
        <time>2020-07-03T15:56:17Z</time>
      </trkpt>
      <trkpt lat="46.89113" lon="0.56136">
        <ele>46.3</ele>
        <time>2020-07-03T15:56:18Z</time>
      </trkpt>
      <trkpt lat="46.89104" lon="0.56133">
        <ele>46.4</ele>
        <time>2020-07-03T15:56:19Z</time>
      </trkpt>
      <trkpt lat="46.89096" lon="0.56131">
        <ele>46.5</ele>
        <time>2020-07-03T15:56:20Z</time>
      </trkpt>
      <trkpt lat="46.89087" lon="0.56128">
        <ele>46.6</ele>
        <time>2020-07-03T15:56:21Z</time>
      </trkpt>
      <trkpt lat="46.89079" lon="0.56125">
        <ele>46.6</ele>
        <time>2020-07-03T15:56:22Z</time>
      </trkpt>
      <trkpt lat="46.89073" lon="0.56121">
        <ele>46.6</ele>
        <time>2020-07-03T15:56:23Z</time>
      </trkpt>
      <trkpt lat="46.89065" lon="0.56118">
        <ele>46.6</ele>
        <time>2020-07-03T15:56:24Z</time>
      </trkpt>
      <trkpt lat="46.89058" lon="0.56113">
        <ele>46.7</ele>
        <time>2020-07-03T15:56:25Z</time>
      </trkpt>
      <trkpt lat="46.8905" lon="0.5611">
        <ele>46.7</ele>
        <time>2020-07-03T15:56:26Z</time>
      </trkpt>
      <trkpt lat="46.89042" lon="0.56106">
        <ele>46.8</ele>
        <time>2020-07-03T15:56:27Z</time>
      </trkpt>
      <trkpt lat="46.89035" lon="0.56102">
        <ele>46.9</ele>
        <time>2020-07-03T15:56:28Z</time>
      </trkpt>
      <trkpt lat="46.89027" lon="0.56097">
        <ele>46.9</ele>
        <time>2020-07-03T15:56:29Z</time>
      </trkpt>
      <trkpt lat="46.89019" lon="0.56093">
        <ele>47</ele>
        <time>2020-07-03T15:56:30Z</time>
      </trkpt>
      <trkpt lat="46.8901" lon="0.56089">
        <ele>47.1</ele>
        <time>2020-07-03T15:56:31Z</time>
      </trkpt>
      <trkpt lat="46.89003" lon="0.56085">
        <ele>47.2</ele>
        <time>2020-07-03T15:56:32Z</time>
      </trkpt>
      <trkpt lat="46.88996" lon="0.56082">
        <ele>47.2</ele>
        <time>2020-07-03T15:56:33Z</time>
      </trkpt>
      <trkpt lat="46.88989" lon="0.56078">
        <ele>47.3</ele>
        <time>2020-07-03T15:56:34Z</time>
      </trkpt>
      <trkpt lat="46.88982" lon="0.56075">
        <ele>47.3</ele>
        <time>2020-07-03T15:56:35Z</time>
      </trkpt>
      <trkpt lat="46.88975" lon="0.56071">
        <ele>47.4</ele>
        <time>2020-07-03T15:56:36Z</time>
      </trkpt>
      <trkpt lat="46.88968" lon="0.56068">
        <ele>47.5</ele>
        <time>2020-07-03T15:56:37Z</time>
      </trkpt>
      <trkpt lat="46.88961" lon="0.56064">
        <ele>47.5</ele>
        <time>2020-07-03T15:56:38Z</time>
      </trkpt>
      <trkpt lat="46.88955" lon="0.56059">
        <ele>47.6</ele>
        <time>2020-07-03T15:56:39Z</time>
      </trkpt>
      <trkpt lat="46.88948" lon="0.56056">
        <ele>47.6</ele>
        <time>2020-07-03T15:56:40Z</time>
      </trkpt>
      <trkpt lat="46.88941" lon="0.56053">
        <ele>47.7</ele>
        <time>2020-07-03T15:56:41Z</time>
      </trkpt>
      <trkpt lat="46.88934" lon="0.56049">
        <ele>47.8</ele>
        <time>2020-07-03T15:56:42Z</time>
      </trkpt>
      <trkpt lat="46.88927" lon="0.56045">
        <ele>47.9</ele>
        <time>2020-07-03T15:56:43Z</time>
      </trkpt>
      <trkpt lat="46.8892" lon="0.56041">
        <ele>47.9</ele>
        <time>2020-07-03T15:56:44Z</time>
      </trkpt>
      <trkpt lat="46.88913" lon="0.56038">
        <ele>47.9</ele>
        <time>2020-07-03T15:56:45Z</time>
      </trkpt>
      <trkpt lat="46.88906" lon="0.56034">
        <ele>48</ele>
        <time>2020-07-03T15:56:46Z</time>
      </trkpt>
      <trkpt lat="46.889" lon="0.56031">
        <ele>48</ele>
        <time>2020-07-03T15:56:47Z</time>
      </trkpt>
      <trkpt lat="46.88893" lon="0.56027">
        <ele>48</ele>
        <time>2020-07-03T15:56:48Z</time>
      </trkpt>
      <trkpt lat="46.88887" lon="0.56024">
        <ele>48</ele>
        <time>2020-07-03T15:56:49Z</time>
      </trkpt>
      <trkpt lat="46.8888" lon="0.56022">
        <ele>48</ele>
        <time>2020-07-03T15:56:50Z</time>
      </trkpt>
      <trkpt lat="46.88874" lon="0.56019">
        <ele>48</ele>
        <time>2020-07-03T15:56:51Z</time>
      </trkpt>
      <trkpt lat="46.88867" lon="0.56016">
        <ele>48</ele>
        <time>2020-07-03T15:56:52Z</time>
      </trkpt>
      <trkpt lat="46.8886" lon="0.56014">
        <ele>48</ele>
        <time>2020-07-03T15:56:53Z</time>
      </trkpt>
      <trkpt lat="46.88854" lon="0.56012">
        <ele>48</ele>
        <time>2020-07-03T15:56:54Z</time>
      </trkpt>
      <trkpt lat="46.88846" lon="0.5601">
        <ele>47.9</ele>
        <time>2020-07-03T15:56:55Z</time>
      </trkpt>
      <trkpt lat="46.88839" lon="0.56009">
        <ele>47.9</ele>
        <time>2020-07-03T15:56:56Z</time>
      </trkpt>
      <trkpt lat="46.88832" lon="0.56007">
        <ele>47.9</ele>
        <time>2020-07-03T15:56:57Z</time>
      </trkpt>
      <trkpt lat="46.88825" lon="0.56006">
        <ele>47.9</ele>
        <time>2020-07-03T15:56:58Z</time>
      </trkpt>
      <trkpt lat="46.88818" lon="0.56005">
        <ele>47.9</ele>
        <time>2020-07-03T15:56:59Z</time>
      </trkpt>
      <trkpt lat="46.8881" lon="0.56003">
        <ele>47.8</ele>
        <time>2020-07-03T15:57:00Z</time>
      </trkpt>
      <trkpt lat="46.88803" lon="0.56001">
        <ele>47.8</ele>
        <time>2020-07-03T15:57:01Z</time>
      </trkpt>
      <trkpt lat="46.88796" lon="0.55999">
        <ele>47.8</ele>
        <time>2020-07-03T15:57:02Z</time>
      </trkpt>
      <trkpt lat="46.88789" lon="0.55997">
        <ele>47.7</ele>
        <time>2020-07-03T15:57:03Z</time>
      </trkpt>
      <trkpt lat="46.88781" lon="0.55996">
        <ele>47.7</ele>
        <time>2020-07-03T15:57:04Z</time>
      </trkpt>
      <trkpt lat="46.88773" lon="0.55994">
        <ele>47.7</ele>
        <time>2020-07-03T15:57:05Z</time>
      </trkpt>
      <trkpt lat="46.88765" lon="0.55993">
        <ele>47.7</ele>
        <time>2020-07-03T15:57:06Z</time>
      </trkpt>
      <trkpt lat="46.88758" lon="0.55991">
        <ele>47.7</ele>
        <time>2020-07-03T15:57:07Z</time>
      </trkpt>
      <trkpt lat="46.88752" lon="0.55989">
        <ele>47.7</ele>
        <time>2020-07-03T15:57:08Z</time>
      </trkpt>
      <trkpt lat="46.88745" lon="0.55989">
        <ele>47.7</ele>
        <time>2020-07-03T15:57:09Z</time>
      </trkpt>
      <trkpt lat="46.88738" lon="0.55987">
        <ele>47.6</ele>
        <time>2020-07-03T15:57:10Z</time>
      </trkpt>
      <trkpt lat="46.88731" lon="0.55985">
        <ele>47.6</ele>
        <time>2020-07-03T15:57:11Z</time>
      </trkpt>
      <trkpt lat="46.88725" lon="0.55985">
        <ele>47.6</ele>
        <time>2020-07-03T15:57:12Z</time>
      </trkpt>
      <trkpt lat="46.88718" lon="0.55983">
        <ele>47.6</ele>
        <time>2020-07-03T15:57:13Z</time>
      </trkpt>
      <trkpt lat="46.8871" lon="0.55981">
        <ele>47.7</ele>
        <time>2020-07-03T15:57:14Z</time>
      </trkpt>
      <trkpt lat="46.88704" lon="0.5598">
        <ele>47.7</ele>
        <time>2020-07-03T15:57:15Z</time>
      </trkpt>
      <trkpt lat="46.88698" lon="0.55979">
        <ele>47.7</ele>
        <time>2020-07-03T15:57:16Z</time>
      </trkpt>
      <trkpt lat="46.88691" lon="0.55978">
        <ele>47.7</ele>
        <time>2020-07-03T15:57:17Z</time>
      </trkpt>
      <trkpt lat="46.88685" lon="0.55978">
        <ele>47.7</ele>
        <time>2020-07-03T15:57:18Z</time>
      </trkpt>
      <trkpt lat="46.88678" lon="0.55977">
        <ele>47.8</ele>
        <time>2020-07-03T15:57:19Z</time>
      </trkpt>
      <trkpt lat="46.8867" lon="0.55976">
        <ele>47.8</ele>
        <time>2020-07-03T15:57:20Z</time>
      </trkpt>
      <trkpt lat="46.88663" lon="0.55976">
        <ele>47.8</ele>
        <time>2020-07-03T15:57:21Z</time>
      </trkpt>
      <trkpt lat="46.88656" lon="0.55976">
        <ele>47.8</ele>
        <time>2020-07-03T15:57:22Z</time>
      </trkpt>
      <trkpt lat="46.8865" lon="0.55975">
        <ele>47.8</ele>
        <time>2020-07-03T15:57:23Z</time>
      </trkpt>
      <trkpt lat="46.88643" lon="0.55975">
        <ele>47.8</ele>
        <time>2020-07-03T15:57:24Z</time>
      </trkpt>
      <trkpt lat="46.88636" lon="0.55974">
        <ele>47.7</ele>
        <time>2020-07-03T15:57:25Z</time>
      </trkpt>
      <trkpt lat="46.88629" lon="0.55974">
        <ele>47.7</ele>
        <time>2020-07-03T15:57:26Z</time>
      </trkpt>
      <trkpt lat="46.88622" lon="0.55973">
        <ele>47.7</ele>
        <time>2020-07-03T15:57:27Z</time>
      </trkpt>
      <trkpt lat="46.88615" lon="0.55972">
        <ele>47.6</ele>
        <time>2020-07-03T15:57:28Z</time>
      </trkpt>
      <trkpt lat="46.88609" lon="0.55972">
        <ele>47.6</ele>
        <time>2020-07-03T15:57:29Z</time>
      </trkpt>
      <trkpt lat="46.88602" lon="0.55971">
        <ele>47.6</ele>
        <time>2020-07-03T15:57:30Z</time>
      </trkpt>
      <trkpt lat="46.88595" lon="0.5597">
        <ele>47.6</ele>
        <time>2020-07-03T15:57:31Z</time>
      </trkpt>
      <trkpt lat="46.88589" lon="0.55969">
        <ele>47.7</ele>
        <time>2020-07-03T15:57:32Z</time>
      </trkpt>
      <trkpt lat="46.88582" lon="0.55968">
        <ele>47.7</ele>
        <time>2020-07-03T15:57:33Z</time>
      </trkpt>
      <trkpt lat="46.88575" lon="0.55967">
        <ele>47.7</ele>
        <time>2020-07-03T15:57:34Z</time>
      </trkpt>
      <trkpt lat="46.88569" lon="0.55966">
        <ele>47.7</ele>
        <time>2020-07-03T15:57:35Z</time>
      </trkpt>
      <trkpt lat="46.88562" lon="0.55966">
        <ele>47.7</ele>
        <time>2020-07-03T15:57:36Z</time>
      </trkpt>
      <trkpt lat="46.88556" lon="0.55965">
        <ele>47.8</ele>
        <time>2020-07-03T15:57:37Z</time>
      </trkpt>
      <trkpt lat="46.88549" lon="0.55964">
        <ele>47.8</ele>
        <time>2020-07-03T15:57:38Z</time>
      </trkpt>
      <trkpt lat="46.88543" lon="0.55963">
        <ele>47.8</ele>
        <time>2020-07-03T15:57:39Z</time>
      </trkpt>
      <trkpt lat="46.88536" lon="0.55962">
        <ele>47.8</ele>
        <time>2020-07-03T15:57:40Z</time>
      </trkpt>
      <trkpt lat="46.8853" lon="0.55962">
        <ele>47.7</ele>
        <time>2020-07-03T15:57:41Z</time>
      </trkpt>
      <trkpt lat="46.88523" lon="0.55962">
        <ele>47.7</ele>
        <time>2020-07-03T15:57:42Z</time>
      </trkpt>
      <trkpt lat="46.88516" lon="0.55961">
        <ele>47.7</ele>
        <time>2020-07-03T15:57:43Z</time>
      </trkpt>
      <trkpt lat="46.88509" lon="0.55962">
        <ele>47.8</ele>
        <time>2020-07-03T15:57:44Z</time>
      </trkpt>
      <trkpt lat="46.88503" lon="0.55961">
        <ele>47.8</ele>
        <time>2020-07-03T15:57:45Z</time>
      </trkpt>
      <trkpt lat="46.88496" lon="0.55961">
        <ele>47.8</ele>
        <time>2020-07-03T15:57:46Z</time>
      </trkpt>
      <trkpt lat="46.8849" lon="0.5596">
        <ele>47.8</ele>
        <time>2020-07-03T15:57:47Z</time>
      </trkpt>
      <trkpt lat="46.88483" lon="0.55961">
        <ele>47.8</ele>
        <time>2020-07-03T15:57:48Z</time>
      </trkpt>
      <trkpt lat="46.88476" lon="0.55962">
        <ele>47.8</ele>
        <time>2020-07-03T15:57:49Z</time>
      </trkpt>
      <trkpt lat="46.8847" lon="0.55962">
        <ele>47.8</ele>
        <time>2020-07-03T15:57:50Z</time>
      </trkpt>
      <trkpt lat="46.88463" lon="0.55961">
        <ele>47.7</ele>
        <time>2020-07-03T15:57:51Z</time>
      </trkpt>
      <trkpt lat="46.88457" lon="0.55962">
        <ele>47.7</ele>
        <time>2020-07-03T15:57:52Z</time>
      </trkpt>
      <trkpt lat="46.8845" lon="0.55962">
        <ele>47.7</ele>
        <time>2020-07-03T15:57:53Z</time>
      </trkpt>
      <trkpt lat="46.88444" lon="0.55962">
        <ele>47.7</ele>
        <time>2020-07-03T15:57:54Z</time>
      </trkpt>
      <trkpt lat="46.88437" lon="0.55962">
        <ele>47.7</ele>
        <time>2020-07-03T15:57:55Z</time>
      </trkpt>
      <trkpt lat="46.8843" lon="0.55963">
        <ele>47.9</ele>
        <time>2020-07-03T15:57:56Z</time>
      </trkpt>
      <trkpt lat="46.88422" lon="0.55965">
        <ele>48.1</ele>
        <time>2020-07-03T15:57:57Z</time>
      </trkpt>
      <trkpt lat="46.88415" lon="0.55965">
        <ele>48.1</ele>
        <time>2020-07-03T15:57:58Z</time>
      </trkpt>
      <trkpt lat="46.88408" lon="0.55965">
        <ele>48.1</ele>
        <time>2020-07-03T15:57:59Z</time>
      </trkpt>
      <trkpt lat="46.88401" lon="0.55967">
        <ele>48.1</ele>
        <time>2020-07-03T15:58:00Z</time>
      </trkpt>
      <trkpt lat="46.88394" lon="0.55968">
        <ele>48</ele>
        <time>2020-07-03T15:58:01Z</time>
      </trkpt>
      <trkpt lat="46.88387" lon="0.5597">
        <ele>48</ele>
        <time>2020-07-03T15:58:02Z</time>
      </trkpt>
      <trkpt lat="46.8838" lon="0.5597">
        <ele>47.9</ele>
        <time>2020-07-03T15:58:03Z</time>
      </trkpt>
      <trkpt lat="46.88373" lon="0.5597">
        <ele>47.9</ele>
        <time>2020-07-03T15:58:04Z</time>
      </trkpt>
      <trkpt lat="46.88366" lon="0.5597">
        <ele>47.9</ele>
        <time>2020-07-03T15:58:05Z</time>
      </trkpt>
      <trkpt lat="46.88359" lon="0.5597">
        <ele>47.8</ele>
        <time>2020-07-03T15:58:06Z</time>
      </trkpt>
      <trkpt lat="46.88351" lon="0.55971">
        <ele>47.8</ele>
        <time>2020-07-03T15:58:07Z</time>
      </trkpt>
      <trkpt lat="46.88344" lon="0.55971">
        <ele>47.8</ele>
        <time>2020-07-03T15:58:08Z</time>
      </trkpt>
      <trkpt lat="46.88337" lon="0.55971">
        <ele>47.8</ele>
        <time>2020-07-03T15:58:09Z</time>
      </trkpt>
      <trkpt lat="46.8833" lon="0.55971">
        <ele>47.8</ele>
        <time>2020-07-03T15:58:10Z</time>
      </trkpt>
      <trkpt lat="46.88322" lon="0.55973">
        <ele>47.7</ele>
        <time>2020-07-03T15:58:11Z</time>
      </trkpt>
      <trkpt lat="46.88315" lon="0.55974">
        <ele>47.7</ele>
        <time>2020-07-03T15:58:12Z</time>
      </trkpt>
      <trkpt lat="46.88308" lon="0.55975">
        <ele>47.7</ele>
        <time>2020-07-03T15:58:13Z</time>
      </trkpt>
      <trkpt lat="46.88301" lon="0.55976">
        <ele>47.7</ele>
        <time>2020-07-03T15:58:14Z</time>
      </trkpt>
      <trkpt lat="46.88294" lon="0.55976">
        <ele>47.6</ele>
        <time>2020-07-03T15:58:15Z</time>
      </trkpt>
      <trkpt lat="46.88286" lon="0.55978">
        <ele>47.6</ele>
        <time>2020-07-03T15:58:16Z</time>
      </trkpt>
      <trkpt lat="46.88279" lon="0.55978">
        <ele>47.6</ele>
        <time>2020-07-03T15:58:17Z</time>
      </trkpt>
      <trkpt lat="46.88272" lon="0.55978">
        <ele>47.7</ele>
        <time>2020-07-03T15:58:18Z</time>
      </trkpt>
      <trkpt lat="46.88265" lon="0.55979">
        <ele>47.7</ele>
        <time>2020-07-03T15:58:19Z</time>
      </trkpt>
      <trkpt lat="46.88258" lon="0.5598">
        <ele>47.7</ele>
        <time>2020-07-03T15:58:20Z</time>
      </trkpt>
      <trkpt lat="46.88251" lon="0.5598">
        <ele>47.7</ele>
        <time>2020-07-03T15:58:21Z</time>
      </trkpt>
      <trkpt lat="46.88244" lon="0.5598">
        <ele>47.7</ele>
        <time>2020-07-03T15:58:22Z</time>
      </trkpt>
      <trkpt lat="46.88237" lon="0.55982">
        <ele>47.7</ele>
        <time>2020-07-03T15:58:23Z</time>
      </trkpt>
      <trkpt lat="46.8823" lon="0.55983">
        <ele>47.7</ele>
        <time>2020-07-03T15:58:24Z</time>
      </trkpt>
      <trkpt lat="46.88223" lon="0.55983">
        <ele>47.7</ele>
        <time>2020-07-03T15:58:25Z</time>
      </trkpt>
      <trkpt lat="46.88216" lon="0.55984">
        <ele>47.7</ele>
        <time>2020-07-03T15:58:26Z</time>
      </trkpt>
      <trkpt lat="46.88209" lon="0.55984">
        <ele>47.7</ele>
        <time>2020-07-03T15:58:27Z</time>
      </trkpt>
      <trkpt lat="46.88202" lon="0.55985">
        <ele>47.7</ele>
        <time>2020-07-03T15:58:28Z</time>
      </trkpt>
      <trkpt lat="46.88195" lon="0.55986">
        <ele>47.8</ele>
        <time>2020-07-03T15:58:29Z</time>
      </trkpt>
      <trkpt lat="46.88188" lon="0.55986">
        <ele>47.8</ele>
        <time>2020-07-03T15:58:30Z</time>
      </trkpt>
      <trkpt lat="46.88181" lon="0.55986">
        <ele>47.8</ele>
        <time>2020-07-03T15:58:31Z</time>
      </trkpt>
      <trkpt lat="46.88174" lon="0.55986">
        <ele>47.8</ele>
        <time>2020-07-03T15:58:32Z</time>
      </trkpt>
      <trkpt lat="46.88167" lon="0.55988">
        <ele>47.8</ele>
        <time>2020-07-03T15:58:33Z</time>
      </trkpt>
      <trkpt lat="46.8816" lon="0.55987">
        <ele>47.9</ele>
        <time>2020-07-03T15:58:34Z</time>
      </trkpt>
      <trkpt lat="46.88153" lon="0.55988">
        <ele>47.9</ele>
        <time>2020-07-03T15:58:35Z</time>
      </trkpt>
      <trkpt lat="46.88146" lon="0.55988">
        <ele>47.9</ele>
        <time>2020-07-03T15:58:36Z</time>
      </trkpt>
      <trkpt lat="46.88139" lon="0.55988">
        <ele>48</ele>
        <time>2020-07-03T15:58:37Z</time>
      </trkpt>
      <trkpt lat="46.88133" lon="0.55986">
        <ele>48</ele>
        <time>2020-07-03T15:58:38Z</time>
      </trkpt>
      <trkpt lat="46.88126" lon="0.55986">
        <ele>48.1</ele>
        <time>2020-07-03T15:58:39Z</time>
      </trkpt>
      <trkpt lat="46.88119" lon="0.55986">
        <ele>48.1</ele>
        <time>2020-07-03T15:58:40Z</time>
      </trkpt>
      <trkpt lat="46.88112" lon="0.55984">
        <ele>48.1</ele>
        <time>2020-07-03T15:58:41Z</time>
      </trkpt>
      <trkpt lat="46.88105" lon="0.55982">
        <ele>48.1</ele>
        <time>2020-07-03T15:58:42Z</time>
      </trkpt>
      <trkpt lat="46.88099" lon="0.5598">
        <ele>48.1</ele>
        <time>2020-07-03T15:58:43Z</time>
      </trkpt>
      <trkpt lat="46.88092" lon="0.55978">
        <ele>48.1</ele>
        <time>2020-07-03T15:58:44Z</time>
      </trkpt>
      <trkpt lat="46.88085" lon="0.55977">
        <ele>48.1</ele>
        <time>2020-07-03T15:58:45Z</time>
      </trkpt>
      <trkpt lat="46.88079" lon="0.55975">
        <ele>48.1</ele>
        <time>2020-07-03T15:58:46Z</time>
      </trkpt>
      <trkpt lat="46.88072" lon="0.55973">
        <ele>48.2</ele>
        <time>2020-07-03T15:58:47Z</time>
      </trkpt>
      <trkpt lat="46.88066" lon="0.55971">
        <ele>48.2</ele>
        <time>2020-07-03T15:58:48Z</time>
      </trkpt>
      <trkpt lat="46.88059" lon="0.55968">
        <ele>48.1</ele>
        <time>2020-07-03T15:58:49Z</time>
      </trkpt>
      <trkpt lat="46.88053" lon="0.55965">
        <ele>48.1</ele>
        <time>2020-07-03T15:58:50Z</time>
      </trkpt>
      <trkpt lat="46.88047" lon="0.55963">
        <ele>48.1</ele>
        <time>2020-07-03T15:58:51Z</time>
      </trkpt>
      <trkpt lat="46.8804" lon="0.55962">
        <ele>48.1</ele>
        <time>2020-07-03T15:58:52Z</time>
      </trkpt>
      <trkpt lat="46.88033" lon="0.5596">
        <ele>48.1</ele>
        <time>2020-07-03T15:58:53Z</time>
      </trkpt>
      <trkpt lat="46.88027" lon="0.55958">
        <ele>48.1</ele>
        <time>2020-07-03T15:58:54Z</time>
      </trkpt>
      <trkpt lat="46.88021" lon="0.55955">
        <ele>48.1</ele>
        <time>2020-07-03T15:58:55Z</time>
      </trkpt>
      <trkpt lat="46.88014" lon="0.55953">
        <ele>48.1</ele>
        <time>2020-07-03T15:58:56Z</time>
      </trkpt>
      <trkpt lat="46.88008" lon="0.55951">
        <ele>48.1</ele>
        <time>2020-07-03T15:58:57Z</time>
      </trkpt>
      <trkpt lat="46.88002" lon="0.5595">
        <ele>48.1</ele>
        <time>2020-07-03T15:58:58Z</time>
      </trkpt>
      <trkpt lat="46.87995" lon="0.55948">
        <ele>48.1</ele>
        <time>2020-07-03T15:58:59Z</time>
      </trkpt>
      <trkpt lat="46.87989" lon="0.55948">
        <ele>48.1</ele>
        <time>2020-07-03T15:59:00Z</time>
      </trkpt>
      <trkpt lat="46.87983" lon="0.55946">
        <ele>48.1</ele>
        <time>2020-07-03T15:59:01Z</time>
      </trkpt>
      <trkpt lat="46.87976" lon="0.55943">
        <ele>48.1</ele>
        <time>2020-07-03T15:59:02Z</time>
      </trkpt>
      <trkpt lat="46.87971" lon="0.5594">
        <ele>48.1</ele>
        <time>2020-07-03T15:59:03Z</time>
      </trkpt>
      <trkpt lat="46.87965" lon="0.55938">
        <ele>48.1</ele>
        <time>2020-07-03T15:59:04Z</time>
      </trkpt>
      <trkpt lat="46.87959" lon="0.55936">
        <ele>48.1</ele>
        <time>2020-07-03T15:59:05Z</time>
      </trkpt>
      <trkpt lat="46.87953" lon="0.55933">
        <ele>48.1</ele>
        <time>2020-07-03T15:59:06Z</time>
      </trkpt>
      <trkpt lat="46.87947" lon="0.55929">
        <ele>48.2</ele>
        <time>2020-07-03T15:59:07Z</time>
      </trkpt>
      <trkpt lat="46.87941" lon="0.55925">
        <ele>48.2</ele>
        <time>2020-07-03T15:59:08Z</time>
      </trkpt>
      <trkpt lat="46.87935" lon="0.55922">
        <ele>48.2</ele>
        <time>2020-07-03T15:59:09Z</time>
      </trkpt>
      <trkpt lat="46.87929" lon="0.55919">
        <ele>48.2</ele>
        <time>2020-07-03T15:59:10Z</time>
      </trkpt>
      <trkpt lat="46.87923" lon="0.55916">
        <ele>48.2</ele>
        <time>2020-07-03T15:59:11Z</time>
      </trkpt>
      <trkpt lat="46.87917" lon="0.55912">
        <ele>48.2</ele>
        <time>2020-07-03T15:59:12Z</time>
      </trkpt>
      <trkpt lat="46.87911" lon="0.55908">
        <ele>48.2</ele>
        <time>2020-07-03T15:59:13Z</time>
      </trkpt>
      <trkpt lat="46.87906" lon="0.55903">
        <ele>48.2</ele>
        <time>2020-07-03T15:59:14Z</time>
      </trkpt>
      <trkpt lat="46.879" lon="0.55899">
        <ele>48.2</ele>
        <time>2020-07-03T15:59:15Z</time>
      </trkpt>
      <trkpt lat="46.87895" lon="0.55895">
        <ele>48.3</ele>
        <time>2020-07-03T15:59:16Z</time>
      </trkpt>
      <trkpt lat="46.87889" lon="0.55891">
        <ele>48.3</ele>
        <time>2020-07-03T15:59:17Z</time>
      </trkpt>
      <trkpt lat="46.87884" lon="0.55887">
        <ele>48.4</ele>
        <time>2020-07-03T15:59:18Z</time>
      </trkpt>
      <trkpt lat="46.87878" lon="0.55883">
        <ele>48.4</ele>
        <time>2020-07-03T15:59:19Z</time>
      </trkpt>
      <trkpt lat="46.87873" lon="0.55879">
        <ele>48.5</ele>
        <time>2020-07-03T15:59:20Z</time>
      </trkpt>
      <trkpt lat="46.87867" lon="0.55874">
        <ele>48.5</ele>
        <time>2020-07-03T15:59:21Z</time>
      </trkpt>
      <trkpt lat="46.87861" lon="0.5587">
        <ele>48.5</ele>
        <time>2020-07-03T15:59:22Z</time>
      </trkpt>
      <trkpt lat="46.87856" lon="0.55866">
        <ele>48.6</ele>
        <time>2020-07-03T15:59:23Z</time>
      </trkpt>
      <trkpt lat="46.87851" lon="0.55861">
        <ele>48.6</ele>
        <time>2020-07-03T15:59:24Z</time>
      </trkpt>
      <trkpt lat="46.87847" lon="0.55856">
        <ele>48.6</ele>
        <time>2020-07-03T15:59:25Z</time>
      </trkpt>
      <trkpt lat="46.87842" lon="0.55852">
        <ele>48.6</ele>
        <time>2020-07-03T15:59:26Z</time>
      </trkpt>
      <trkpt lat="46.87837" lon="0.55848">
        <ele>48.7</ele>
        <time>2020-07-03T15:59:27Z</time>
      </trkpt>
      <trkpt lat="46.87831" lon="0.55845">
        <ele>48.8</ele>
        <time>2020-07-03T15:59:28Z</time>
      </trkpt>
      <trkpt lat="46.87825" lon="0.55841">
        <ele>48.8</ele>
        <time>2020-07-03T15:59:29Z</time>
      </trkpt>
      <trkpt lat="46.8782" lon="0.55837">
        <ele>48.9</ele>
        <time>2020-07-03T15:59:30Z</time>
      </trkpt>
      <trkpt lat="46.87814" lon="0.55833">
        <ele>48.9</ele>
        <time>2020-07-03T15:59:31Z</time>
      </trkpt>
      <trkpt lat="46.87809" lon="0.55829">
        <ele>49</ele>
        <time>2020-07-03T15:59:32Z</time>
      </trkpt>
      <trkpt lat="46.87805" lon="0.55825">
        <ele>49</ele>
        <time>2020-07-03T15:59:33Z</time>
      </trkpt>
      <trkpt lat="46.878" lon="0.55819">
        <ele>49.1</ele>
        <time>2020-07-03T15:59:34Z</time>
      </trkpt>
      <trkpt lat="46.87795" lon="0.55815">
        <ele>49.1</ele>
        <time>2020-07-03T15:59:35Z</time>
      </trkpt>
      <trkpt lat="46.8779" lon="0.5581">
        <ele>49.2</ele>
        <time>2020-07-03T15:59:36Z</time>
      </trkpt>
      <trkpt lat="46.87785" lon="0.55806">
        <ele>49.3</ele>
        <time>2020-07-03T15:59:37Z</time>
      </trkpt>
      <trkpt lat="46.87779" lon="0.55802">
        <ele>49.4</ele>
        <time>2020-07-03T15:59:38Z</time>
      </trkpt>
      <trkpt lat="46.87774" lon="0.55798">
        <ele>49.6</ele>
        <time>2020-07-03T15:59:39Z</time>
      </trkpt>
      <trkpt lat="46.87768" lon="0.55794">
        <ele>49.7</ele>
        <time>2020-07-03T15:59:40Z</time>
      </trkpt>
      <trkpt lat="46.87763" lon="0.55789">
        <ele>49.8</ele>
        <time>2020-07-03T15:59:41Z</time>
      </trkpt>
      <trkpt lat="46.87757" lon="0.55785">
        <ele>49.8</ele>
        <time>2020-07-03T15:59:42Z</time>
      </trkpt>
      <trkpt lat="46.87752" lon="0.55781">
        <ele>49.8</ele>
        <time>2020-07-03T15:59:43Z</time>
      </trkpt>
      <trkpt lat="46.87746" lon="0.55776">
        <ele>49.8</ele>
        <time>2020-07-03T15:59:44Z</time>
      </trkpt>
      <trkpt lat="46.8774" lon="0.55771">
        <ele>49.8</ele>
        <time>2020-07-03T15:59:45Z</time>
      </trkpt>
      <trkpt lat="46.87735" lon="0.55766">
        <ele>49.9</ele>
        <time>2020-07-03T15:59:46Z</time>
      </trkpt>
      <trkpt lat="46.87729" lon="0.55761">
        <ele>49.9</ele>
        <time>2020-07-03T15:59:47Z</time>
      </trkpt>
      <trkpt lat="46.87723" lon="0.55757">
        <ele>49.9</ele>
        <time>2020-07-03T15:59:48Z</time>
      </trkpt>
      <trkpt lat="46.87717" lon="0.55753">
        <ele>50.1</ele>
        <time>2020-07-03T15:59:49Z</time>
      </trkpt>
      <trkpt lat="46.87711" lon="0.55748">
        <ele>50.2</ele>
        <time>2020-07-03T15:59:50Z</time>
      </trkpt>
      <trkpt lat="46.87705" lon="0.55744">
        <ele>50.3</ele>
        <time>2020-07-03T15:59:51Z</time>
      </trkpt>
      <trkpt lat="46.877" lon="0.55739">
        <ele>50.3</ele>
        <time>2020-07-03T15:59:52Z</time>
      </trkpt>
      <trkpt lat="46.87694" lon="0.55734">
        <ele>50.4</ele>
        <time>2020-07-03T15:59:53Z</time>
      </trkpt>
      <trkpt lat="46.87688" lon="0.55729">
        <ele>50.4</ele>
        <time>2020-07-03T15:59:54Z</time>
      </trkpt>
      <trkpt lat="46.87683" lon="0.55724">
        <ele>50.4</ele>
        <time>2020-07-03T15:59:55Z</time>
      </trkpt>
      <trkpt lat="46.87677" lon="0.5572">
        <ele>50.4</ele>
        <time>2020-07-03T15:59:56Z</time>
      </trkpt>
      <trkpt lat="46.87671" lon="0.55715">
        <ele>50.4</ele>
        <time>2020-07-03T15:59:57Z</time>
      </trkpt>
      <trkpt lat="46.87665" lon="0.5571">
        <ele>50.4</ele>
        <time>2020-07-03T15:59:58Z</time>
      </trkpt>
      <trkpt lat="46.8766" lon="0.55705">
        <ele>50.3</ele>
        <time>2020-07-03T15:59:59Z</time>
      </trkpt>
      <trkpt lat="46.87654" lon="0.55699">
        <ele>50.3</ele>
        <time>2020-07-03T16:00:00Z</time>
      </trkpt>
      <trkpt lat="46.87648" lon="0.55695">
        <ele>50.3</ele>
        <time>2020-07-03T16:00:01Z</time>
      </trkpt>
      <trkpt lat="46.87643" lon="0.55691">
        <ele>50.3</ele>
        <time>2020-07-03T16:00:02Z</time>
      </trkpt>
      <trkpt lat="46.87637" lon="0.55687">
        <ele>50.3</ele>
        <time>2020-07-03T16:00:03Z</time>
      </trkpt>
      <trkpt lat="46.87632" lon="0.55682">
        <ele>50.3</ele>
        <time>2020-07-03T16:00:04Z</time>
      </trkpt>
      <trkpt lat="46.87626" lon="0.55678">
        <ele>50.2</ele>
        <time>2020-07-03T16:00:05Z</time>
      </trkpt>
      <trkpt lat="46.87621" lon="0.55674">
        <ele>50.2</ele>
        <time>2020-07-03T16:00:06Z</time>
      </trkpt>
      <trkpt lat="46.87616" lon="0.5567">
        <ele>50.2</ele>
        <time>2020-07-03T16:00:07Z</time>
      </trkpt>
      <trkpt lat="46.8761" lon="0.55665">
        <ele>50.2</ele>
        <time>2020-07-03T16:00:08Z</time>
      </trkpt>
      <trkpt lat="46.87606" lon="0.5566">
        <ele>50.2</ele>
        <time>2020-07-03T16:00:09Z</time>
      </trkpt>
      <trkpt lat="46.876" lon="0.55656">
        <ele>50.2</ele>
        <time>2020-07-03T16:00:10Z</time>
      </trkpt>
      <trkpt lat="46.87595" lon="0.55653">
        <ele>50.2</ele>
        <time>2020-07-03T16:00:11Z</time>
      </trkpt>
      <trkpt lat="46.8759" lon="0.55649">
        <ele>50.2</ele>
        <time>2020-07-03T16:00:12Z</time>
      </trkpt>
      <trkpt lat="46.87584" lon="0.55644">
        <ele>50.2</ele>
        <time>2020-07-03T16:00:13Z</time>
      </trkpt>
      <trkpt lat="46.87579" lon="0.5564">
        <ele>50.2</ele>
        <time>2020-07-03T16:00:14Z</time>
      </trkpt>
      <trkpt lat="46.87573" lon="0.55636">
        <ele>50.2</ele>
        <time>2020-07-03T16:00:15Z</time>
      </trkpt>
      <trkpt lat="46.87567" lon="0.55633">
        <ele>50.2</ele>
        <time>2020-07-03T16:00:16Z</time>
      </trkpt>
      <trkpt lat="46.87562" lon="0.55628">
        <ele>50.2</ele>
        <time>2020-07-03T16:00:17Z</time>
      </trkpt>
      <trkpt lat="46.87556" lon="0.55624">
        <ele>50.2</ele>
        <time>2020-07-03T16:00:18Z</time>
      </trkpt>
      <trkpt lat="46.87551" lon="0.55619">
        <ele>50.2</ele>
        <time>2020-07-03T16:00:19Z</time>
      </trkpt>
      <trkpt lat="46.87545" lon="0.55616">
        <ele>50.2</ele>
        <time>2020-07-03T16:00:20Z</time>
      </trkpt>
      <trkpt lat="46.87539" lon="0.55612">
        <ele>50.2</ele>
        <time>2020-07-03T16:00:21Z</time>
      </trkpt>
      <trkpt lat="46.87533" lon="0.55609">
        <ele>50.2</ele>
        <time>2020-07-03T16:00:22Z</time>
      </trkpt>
      <trkpt lat="46.87528" lon="0.55605">
        <ele>50.2</ele>
        <time>2020-07-03T16:00:23Z</time>
      </trkpt>
      <trkpt lat="46.87522" lon="0.55601">
        <ele>50.2</ele>
        <time>2020-07-03T16:00:24Z</time>
      </trkpt>
      <trkpt lat="46.87516" lon="0.55599">
        <ele>50.2</ele>
        <time>2020-07-03T16:00:25Z</time>
      </trkpt>
      <trkpt lat="46.8751" lon="0.55595">
        <ele>50.2</ele>
        <time>2020-07-03T16:00:26Z</time>
      </trkpt>
      <trkpt lat="46.87503" lon="0.55593">
        <ele>50.1</ele>
        <time>2020-07-03T16:00:27Z</time>
      </trkpt>
      <trkpt lat="46.87497" lon="0.55591">
        <ele>50.1</ele>
        <time>2020-07-03T16:00:28Z</time>
      </trkpt>
      <trkpt lat="46.8749" lon="0.55589">
        <ele>50.1</ele>
        <time>2020-07-03T16:00:29Z</time>
      </trkpt>
      <trkpt lat="46.87485" lon="0.55586">
        <ele>50.1</ele>
        <time>2020-07-03T16:00:30Z</time>
      </trkpt>
      <trkpt lat="46.87478" lon="0.55583">
        <ele>50.1</ele>
        <time>2020-07-03T16:00:31Z</time>
      </trkpt>
      <trkpt lat="46.87472" lon="0.5558">
        <ele>50.1</ele>
        <time>2020-07-03T16:00:32Z</time>
      </trkpt>
      <trkpt lat="46.87466" lon="0.55578">
        <ele>50.1</ele>
        <time>2020-07-03T16:00:33Z</time>
      </trkpt>
      <trkpt lat="46.8746" lon="0.55576">
        <ele>50.2</ele>
        <time>2020-07-03T16:00:34Z</time>
      </trkpt>
      <trkpt lat="46.87453" lon="0.55574">
        <ele>50.2</ele>
        <time>2020-07-03T16:00:35Z</time>
      </trkpt>
      <trkpt lat="46.87447" lon="0.55572">
        <ele>50.2</ele>
        <time>2020-07-03T16:00:36Z</time>
      </trkpt>
      <trkpt lat="46.87441" lon="0.5557">
        <ele>50.2</ele>
        <time>2020-07-03T16:00:37Z</time>
      </trkpt>
      <trkpt lat="46.87435" lon="0.55567">
        <ele>50.2</ele>
        <time>2020-07-03T16:00:38Z</time>
      </trkpt>
      <trkpt lat="46.87428" lon="0.55563">
        <ele>50.2</ele>
        <time>2020-07-03T16:00:39Z</time>
      </trkpt>
      <trkpt lat="46.87422" lon="0.55561">
        <ele>50.2</ele>
        <time>2020-07-03T16:00:40Z</time>
      </trkpt>
      <trkpt lat="46.87416" lon="0.55558">
        <ele>50.2</ele>
        <time>2020-07-03T16:00:41Z</time>
      </trkpt>
      <trkpt lat="46.87409" lon="0.55556">
        <ele>50.2</ele>
        <time>2020-07-03T16:00:42Z</time>
      </trkpt>
      <trkpt lat="46.87403" lon="0.55554">
        <ele>50.1</ele>
        <time>2020-07-03T16:00:43Z</time>
      </trkpt>
      <trkpt lat="46.87397" lon="0.55551">
        <ele>50.1</ele>
        <time>2020-07-03T16:00:44Z</time>
      </trkpt>
      <trkpt lat="46.87391" lon="0.55548">
        <ele>50.1</ele>
        <time>2020-07-03T16:00:45Z</time>
      </trkpt>
      <trkpt lat="46.87386" lon="0.55545">
        <ele>50.1</ele>
        <time>2020-07-03T16:00:46Z</time>
      </trkpt>
      <trkpt lat="46.8738" lon="0.55542">
        <ele>50.1</ele>
        <time>2020-07-03T16:00:47Z</time>
      </trkpt>
      <trkpt lat="46.87374" lon="0.55539">
        <ele>50.1</ele>
        <time>2020-07-03T16:00:48Z</time>
      </trkpt>
      <trkpt lat="46.87368" lon="0.55536">
        <ele>50.1</ele>
        <time>2020-07-03T16:00:49Z</time>
      </trkpt>
      <trkpt lat="46.87361" lon="0.55533">
        <ele>50.1</ele>
        <time>2020-07-03T16:00:50Z</time>
      </trkpt>
      <trkpt lat="46.87355" lon="0.5553">
        <ele>50</ele>
        <time>2020-07-03T16:00:51Z</time>
      </trkpt>
      <trkpt lat="46.87349" lon="0.55528">
        <ele>50</ele>
        <time>2020-07-03T16:00:52Z</time>
      </trkpt>
      <trkpt lat="46.87341" lon="0.55526">
        <ele>49.9</ele>
        <time>2020-07-03T16:00:53Z</time>
      </trkpt>
      <trkpt lat="46.87336" lon="0.55523">
        <ele>49.9</ele>
        <time>2020-07-03T16:00:54Z</time>
      </trkpt>
      <trkpt lat="46.87329" lon="0.55521">
        <ele>49.9</ele>
        <time>2020-07-03T16:00:55Z</time>
      </trkpt>
      <trkpt lat="46.87323" lon="0.55517">
        <ele>49.8</ele>
        <time>2020-07-03T16:00:56Z</time>
      </trkpt>
      <trkpt lat="46.87316" lon="0.55514">
        <ele>49.8</ele>
        <time>2020-07-03T16:00:57Z</time>
      </trkpt>
      <trkpt lat="46.87309" lon="0.55511">
        <ele>49.7</ele>
        <time>2020-07-03T16:00:58Z</time>
      </trkpt>
      <trkpt lat="46.87304" lon="0.55509">
        <ele>49.7</ele>
        <time>2020-07-03T16:00:59Z</time>
      </trkpt>
      <trkpt lat="46.87297" lon="0.55506">
        <ele>49.7</ele>
        <time>2020-07-03T16:01:00Z</time>
      </trkpt>
      <trkpt lat="46.87291" lon="0.55504">
        <ele>49.7</ele>
        <time>2020-07-03T16:01:01Z</time>
      </trkpt>
      <trkpt lat="46.87284" lon="0.55501">
        <ele>49.7</ele>
        <time>2020-07-03T16:01:02Z</time>
      </trkpt>
      <trkpt lat="46.87278" lon="0.55499">
        <ele>49.7</ele>
        <time>2020-07-03T16:01:03Z</time>
      </trkpt>
      <trkpt lat="46.87271" lon="0.55497">
        <ele>49.7</ele>
        <time>2020-07-03T16:01:04Z</time>
      </trkpt>
      <trkpt lat="46.87264" lon="0.55495">
        <ele>49.6</ele>
        <time>2020-07-03T16:01:05Z</time>
      </trkpt>
      <trkpt lat="46.87258" lon="0.55491">
        <ele>49.6</ele>
        <time>2020-07-03T16:01:06Z</time>
      </trkpt>
      <trkpt lat="46.87253" lon="0.55488">
        <ele>49.5</ele>
        <time>2020-07-03T16:01:07Z</time>
      </trkpt>
      <trkpt lat="46.87247" lon="0.55485">
        <ele>49.5</ele>
        <time>2020-07-03T16:01:08Z</time>
      </trkpt>
      <trkpt lat="46.87242" lon="0.55482">
        <ele>49.5</ele>
        <time>2020-07-03T16:01:09Z</time>
      </trkpt>
      <trkpt lat="46.87237" lon="0.5548">
        <ele>49.4</ele>
        <time>2020-07-03T16:01:10Z</time>
      </trkpt>
      <trkpt lat="46.87232" lon="0.55478">
        <ele>49.4</ele>
        <time>2020-07-03T16:01:11Z</time>
      </trkpt>
      <trkpt lat="46.87227" lon="0.55475">
        <ele>49.4</ele>
        <time>2020-07-03T16:01:12Z</time>
      </trkpt>
      <trkpt lat="46.87222" lon="0.55473">
        <ele>49.4</ele>
        <time>2020-07-03T16:01:13Z</time>
      </trkpt>
      <trkpt lat="46.87217" lon="0.55472">
        <ele>49.4</ele>
        <time>2020-07-03T16:01:14Z</time>
      </trkpt>
      <trkpt lat="46.87211" lon="0.55469">
        <ele>49.3</ele>
        <time>2020-07-03T16:01:15Z</time>
      </trkpt>
      <trkpt lat="46.87205" lon="0.55467">
        <ele>49.3</ele>
        <time>2020-07-03T16:01:16Z</time>
      </trkpt>
      <trkpt lat="46.87198" lon="0.55464">
        <ele>49.3</ele>
        <time>2020-07-03T16:01:17Z</time>
      </trkpt>
      <trkpt lat="46.87193" lon="0.55462">
        <ele>49.3</ele>
        <time>2020-07-03T16:01:18Z</time>
      </trkpt>
      <trkpt lat="46.87186" lon="0.55458">
        <ele>49.3</ele>
        <time>2020-07-03T16:01:19Z</time>
      </trkpt>
      <trkpt lat="46.8718" lon="0.55455">
        <ele>49.3</ele>
        <time>2020-07-03T16:01:20Z</time>
      </trkpt>
      <trkpt lat="46.87174" lon="0.55452">
        <ele>49.3</ele>
        <time>2020-07-03T16:01:21Z</time>
      </trkpt>
      <trkpt lat="46.87169" lon="0.55449">
        <ele>49.3</ele>
        <time>2020-07-03T16:01:22Z</time>
      </trkpt>
      <trkpt lat="46.87162" lon="0.55446">
        <ele>49.3</ele>
        <time>2020-07-03T16:01:23Z</time>
      </trkpt>
      <trkpt lat="46.87156" lon="0.55445">
        <ele>49.3</ele>
        <time>2020-07-03T16:01:24Z</time>
      </trkpt>
      <trkpt lat="46.87151" lon="0.55442">
        <ele>49.3</ele>
        <time>2020-07-03T16:01:25Z</time>
      </trkpt>
      <trkpt lat="46.87144" lon="0.5544">
        <ele>49.3</ele>
        <time>2020-07-03T16:01:26Z</time>
      </trkpt>
      <trkpt lat="46.87137" lon="0.55438">
        <ele>49.3</ele>
        <time>2020-07-03T16:01:27Z</time>
      </trkpt>
      <trkpt lat="46.87131" lon="0.55436">
        <ele>49.3</ele>
        <time>2020-07-03T16:01:28Z</time>
      </trkpt>
      <trkpt lat="46.87125" lon="0.55433">
        <ele>49.3</ele>
        <time>2020-07-03T16:01:29Z</time>
      </trkpt>
      <trkpt lat="46.8712" lon="0.5543">
        <ele>49.3</ele>
        <time>2020-07-03T16:01:30Z</time>
      </trkpt>
      <trkpt lat="46.87113" lon="0.55428">
        <ele>49.3</ele>
        <time>2020-07-03T16:01:31Z</time>
      </trkpt>
      <trkpt lat="46.87107" lon="0.55426">
        <ele>49.3</ele>
        <time>2020-07-03T16:01:32Z</time>
      </trkpt>
      <trkpt lat="46.87101" lon="0.55424">
        <ele>49.3</ele>
        <time>2020-07-03T16:01:33Z</time>
      </trkpt>
      <trkpt lat="46.87095" lon="0.55422">
        <ele>49.4</ele>
        <time>2020-07-03T16:01:34Z</time>
      </trkpt>
      <trkpt lat="46.8709" lon="0.55419">
        <ele>49.3</ele>
        <time>2020-07-03T16:01:35Z</time>
      </trkpt>
      <trkpt lat="46.87084" lon="0.55418">
        <ele>49.3</ele>
        <time>2020-07-03T16:01:36Z</time>
      </trkpt>
      <trkpt lat="46.87079" lon="0.55415">
        <ele>49.3</ele>
        <time>2020-07-03T16:01:37Z</time>
      </trkpt>
      <trkpt lat="46.87073" lon="0.55412">
        <ele>49.3</ele>
        <time>2020-07-03T16:01:38Z</time>
      </trkpt>
      <trkpt lat="46.87067" lon="0.5541">
        <ele>49.3</ele>
        <time>2020-07-03T16:01:39Z</time>
      </trkpt>
      <trkpt lat="46.87061" lon="0.55406">
        <ele>49.3</ele>
        <time>2020-07-03T16:01:40Z</time>
      </trkpt>
      <trkpt lat="46.87057" lon="0.55403">
        <ele>49.3</ele>
        <time>2020-07-03T16:01:41Z</time>
      </trkpt>
      <trkpt lat="46.87049" lon="0.55398">
        <ele>49.3</ele>
        <time>2020-07-03T16:01:42Z</time>
      </trkpt>
      <trkpt lat="46.87043" lon="0.55395">
        <ele>49.3</ele>
        <time>2020-07-03T16:01:43Z</time>
      </trkpt>
      <trkpt lat="46.87038" lon="0.55391">
        <ele>49.2</ele>
        <time>2020-07-03T16:01:44Z</time>
      </trkpt>
      <trkpt lat="46.87033" lon="0.55388">
        <ele>49.2</ele>
        <time>2020-07-03T16:01:45Z</time>
      </trkpt>
      <trkpt lat="46.87027" lon="0.55383">
        <ele>49.2</ele>
        <time>2020-07-03T16:01:46Z</time>
      </trkpt>
      <trkpt lat="46.87023" lon="0.55379">
        <ele>49.2</ele>
        <time>2020-07-03T16:01:47Z</time>
      </trkpt>
      <trkpt lat="46.87017" lon="0.55374">
        <ele>49.1</ele>
        <time>2020-07-03T16:01:48Z</time>
      </trkpt>
      <trkpt lat="46.87013" lon="0.5537">
        <ele>49.1</ele>
        <time>2020-07-03T16:01:49Z</time>
      </trkpt>
      <trkpt lat="46.87008" lon="0.55365">
        <ele>49.1</ele>
        <time>2020-07-03T16:01:50Z</time>
      </trkpt>
      <trkpt lat="46.87004" lon="0.5536">
        <ele>49.1</ele>
        <time>2020-07-03T16:01:51Z</time>
      </trkpt>
      <trkpt lat="46.86998" lon="0.55355">
        <ele>49.1</ele>
        <time>2020-07-03T16:01:52Z</time>
      </trkpt>
      <trkpt lat="46.86994" lon="0.55351">
        <ele>49.1</ele>
        <time>2020-07-03T16:01:53Z</time>
      </trkpt>
      <trkpt lat="46.86988" lon="0.55345">
        <ele>49.2</ele>
        <time>2020-07-03T16:01:54Z</time>
      </trkpt>
      <trkpt lat="46.86984" lon="0.5534">
        <ele>49.2</ele>
        <time>2020-07-03T16:01:55Z</time>
      </trkpt>
      <trkpt lat="46.86979" lon="0.55335">
        <ele>49.2</ele>
        <time>2020-07-03T16:01:56Z</time>
      </trkpt>
      <trkpt lat="46.86975" lon="0.55328">
        <ele>49.2</ele>
        <time>2020-07-03T16:01:57Z</time>
      </trkpt>
      <trkpt lat="46.86969" lon="0.55322">
        <ele>49.2</ele>
        <time>2020-07-03T16:01:58Z</time>
      </trkpt>
      <trkpt lat="46.86964" lon="0.55317">
        <ele>49.2</ele>
        <time>2020-07-03T16:01:59Z</time>
      </trkpt>
      <trkpt lat="46.8696" lon="0.55312">
        <ele>49.3</ele>
        <time>2020-07-03T16:02:00Z</time>
      </trkpt>
      <trkpt lat="46.86955" lon="0.55307">
        <ele>49.3</ele>
        <time>2020-07-03T16:02:01Z</time>
      </trkpt>
      <trkpt lat="46.86951" lon="0.55302">
        <ele>49.3</ele>
        <time>2020-07-03T16:02:02Z</time>
      </trkpt>
      <trkpt lat="46.86945" lon="0.55296">
        <ele>49.4</ele>
        <time>2020-07-03T16:02:03Z</time>
      </trkpt>
      <trkpt lat="46.8694" lon="0.55291">
        <ele>49.5</ele>
        <time>2020-07-03T16:02:04Z</time>
      </trkpt>
      <trkpt lat="46.86935" lon="0.55286">
        <ele>49.6</ele>
        <time>2020-07-03T16:02:05Z</time>
      </trkpt>
      <trkpt lat="46.86932" lon="0.55281">
        <ele>49.7</ele>
        <time>2020-07-03T16:02:06Z</time>
      </trkpt>
      <trkpt lat="46.86926" lon="0.55276">
        <ele>49.7</ele>
        <time>2020-07-03T16:02:07Z</time>
      </trkpt>
      <trkpt lat="46.86922" lon="0.55272">
        <ele>49.6</ele>
        <time>2020-07-03T16:02:08Z</time>
      </trkpt>
      <trkpt lat="46.86916" lon="0.55266">
        <ele>49.6</ele>
        <time>2020-07-03T16:02:09Z</time>
      </trkpt>
      <trkpt lat="46.86911" lon="0.5526">
        <ele>49.6</ele>
        <time>2020-07-03T16:02:10Z</time>
      </trkpt>
      <trkpt lat="46.86907" lon="0.55255">
        <ele>49.6</ele>
        <time>2020-07-03T16:02:11Z</time>
      </trkpt>
      <trkpt lat="46.86899" lon="0.55248">
        <ele>49.6</ele>
        <time>2020-07-03T16:02:12Z</time>
      </trkpt>
      <trkpt lat="46.86894" lon="0.55243">
        <ele>49.6</ele>
        <time>2020-07-03T16:02:13Z</time>
      </trkpt>
      <trkpt lat="46.86889" lon="0.55239">
        <ele>49.6</ele>
        <time>2020-07-03T16:02:14Z</time>
      </trkpt>
      <trkpt lat="46.86884" lon="0.55234">
        <ele>49.6</ele>
        <time>2020-07-03T16:02:15Z</time>
      </trkpt>
      <trkpt lat="46.8688" lon="0.55229">
        <ele>49.5</ele>
        <time>2020-07-03T16:02:16Z</time>
      </trkpt>
      <trkpt lat="46.86876" lon="0.55224">
        <ele>49.5</ele>
        <time>2020-07-03T16:02:17Z</time>
      </trkpt>
      <trkpt lat="46.86871" lon="0.55218">
        <ele>49.5</ele>
        <time>2020-07-03T16:02:18Z</time>
      </trkpt>
      <trkpt lat="46.86866" lon="0.55212">
        <ele>49.5</ele>
        <time>2020-07-03T16:02:19Z</time>
      </trkpt>
      <trkpt lat="46.8686" lon="0.55208">
        <ele>49.5</ele>
        <time>2020-07-03T16:02:20Z</time>
      </trkpt>
      <trkpt lat="46.86855" lon="0.55203">
        <ele>49.5</ele>
        <time>2020-07-03T16:02:21Z</time>
      </trkpt>
      <trkpt lat="46.86851" lon="0.55198">
        <ele>49.5</ele>
        <time>2020-07-03T16:02:22Z</time>
      </trkpt>
      <trkpt lat="46.86846" lon="0.55193">
        <ele>49.5</ele>
        <time>2020-07-03T16:02:23Z</time>
      </trkpt>
      <trkpt lat="46.86842" lon="0.55189">
        <ele>49.5</ele>
        <time>2020-07-03T16:02:24Z</time>
      </trkpt>
      <trkpt lat="46.86837" lon="0.55184">
        <ele>49.5</ele>
        <time>2020-07-03T16:02:25Z</time>
      </trkpt>
      <trkpt lat="46.86833" lon="0.55178">
        <ele>49.4</ele>
        <time>2020-07-03T16:02:26Z</time>
      </trkpt>
      <trkpt lat="46.86826" lon="0.55173">
        <ele>49.4</ele>
        <time>2020-07-03T16:02:27Z</time>
      </trkpt>
      <trkpt lat="46.86821" lon="0.55167">
        <ele>49.4</ele>
        <time>2020-07-03T16:02:28Z</time>
      </trkpt>
      <trkpt lat="46.86815" lon="0.55161">
        <ele>49.4</ele>
        <time>2020-07-03T16:02:29Z</time>
      </trkpt>
      <trkpt lat="46.8681" lon="0.55155">
        <ele>49.3</ele>
        <time>2020-07-03T16:02:30Z</time>
      </trkpt>
      <trkpt lat="46.86807" lon="0.55152">
        <ele>49.3</ele>
        <time>2020-07-03T16:02:31Z</time>
      </trkpt>
      <trkpt lat="46.86803" lon="0.55148">
        <ele>49.3</ele>
        <time>2020-07-03T16:02:32Z</time>
      </trkpt>
      <trkpt lat="46.86798" lon="0.55142">
        <ele>49.3</ele>
        <time>2020-07-03T16:02:33Z</time>
      </trkpt>
      <trkpt lat="46.86793" lon="0.55136">
        <ele>49.2</ele>
        <time>2020-07-03T16:02:34Z</time>
      </trkpt>
      <trkpt lat="46.86788" lon="0.55131">
        <ele>49.2</ele>
        <time>2020-07-03T16:02:35Z</time>
      </trkpt>
      <trkpt lat="46.86783" lon="0.55125">
        <ele>49.2</ele>
        <time>2020-07-03T16:02:36Z</time>
      </trkpt>
      <trkpt lat="46.86778" lon="0.5512">
        <ele>49.2</ele>
        <time>2020-07-03T16:02:37Z</time>
      </trkpt>
      <trkpt lat="46.86772" lon="0.55115">
        <ele>49.2</ele>
        <time>2020-07-03T16:02:38Z</time>
      </trkpt>
      <trkpt lat="46.86767" lon="0.55109">
        <ele>49.2</ele>
        <time>2020-07-03T16:02:39Z</time>
      </trkpt>
      <trkpt lat="46.86761" lon="0.55104">
        <ele>49.1</ele>
        <time>2020-07-03T16:02:40Z</time>
      </trkpt>
      <trkpt lat="46.86755" lon="0.55097">
        <ele>49.1</ele>
        <time>2020-07-03T16:02:41Z</time>
      </trkpt>
      <trkpt lat="46.8675" lon="0.55091">
        <ele>49</ele>
        <time>2020-07-03T16:02:42Z</time>
      </trkpt>
      <trkpt lat="46.86745" lon="0.55085">
        <ele>49</ele>
        <time>2020-07-03T16:02:43Z</time>
      </trkpt>
      <trkpt lat="46.86741" lon="0.55078">
        <ele>48.9</ele>
        <time>2020-07-03T16:02:44Z</time>
      </trkpt>
      <trkpt lat="46.86736" lon="0.55072">
        <ele>48.9</ele>
        <time>2020-07-03T16:02:45Z</time>
      </trkpt>
      <trkpt lat="46.86731" lon="0.55065">
        <ele>48.9</ele>
        <time>2020-07-03T16:02:46Z</time>
      </trkpt>
      <trkpt lat="46.86727" lon="0.55058">
        <ele>48.8</ele>
        <time>2020-07-03T16:02:47Z</time>
      </trkpt>
      <trkpt lat="46.86723" lon="0.55051">
        <ele>48.8</ele>
        <time>2020-07-03T16:02:48Z</time>
      </trkpt>
      <trkpt lat="46.86719" lon="0.55047">
        <ele>48.8</ele>
        <time>2020-07-03T16:02:49Z</time>
      </trkpt>
      <trkpt lat="46.86716" lon="0.5504">
        <ele>48.8</ele>
        <time>2020-07-03T16:02:50Z</time>
      </trkpt>
      <trkpt lat="46.86712" lon="0.55033">
        <ele>48.8</ele>
        <time>2020-07-03T16:02:51Z</time>
      </trkpt>
      <trkpt lat="46.86708" lon="0.55025">
        <ele>48.9</ele>
        <time>2020-07-03T16:02:52Z</time>
      </trkpt>
      <trkpt lat="46.86704" lon="0.55016">
        <ele>48.9</ele>
        <time>2020-07-03T16:02:53Z</time>
      </trkpt>
      <trkpt lat="46.86701" lon="0.55009">
        <ele>48.9</ele>
        <time>2020-07-03T16:02:54Z</time>
      </trkpt>
      <trkpt lat="46.86697" lon="0.55001">
        <ele>48.9</ele>
        <time>2020-07-03T16:02:55Z</time>
      </trkpt>
      <trkpt lat="46.86694" lon="0.54995">
        <ele>48.9</ele>
        <time>2020-07-03T16:02:56Z</time>
      </trkpt>
      <trkpt lat="46.86691" lon="0.54987">
        <ele>48.9</ele>
        <time>2020-07-03T16:02:57Z</time>
      </trkpt>
      <trkpt lat="46.86687" lon="0.5498">
        <ele>48.9</ele>
        <time>2020-07-03T16:02:58Z</time>
      </trkpt>
      <trkpt lat="46.86684" lon="0.54972">
        <ele>48.9</ele>
        <time>2020-07-03T16:02:59Z</time>
      </trkpt>
      <trkpt lat="46.8668" lon="0.54965">
        <ele>48.9</ele>
        <time>2020-07-03T16:03:00Z</time>
      </trkpt>
      <trkpt lat="46.86676" lon="0.54957">
        <ele>49</ele>
        <time>2020-07-03T16:03:01Z</time>
      </trkpt>
      <trkpt lat="46.86672" lon="0.54949">
        <ele>49</ele>
        <time>2020-07-03T16:03:02Z</time>
      </trkpt>
      <trkpt lat="46.86669" lon="0.54942">
        <ele>49</ele>
        <time>2020-07-03T16:03:03Z</time>
      </trkpt>
      <trkpt lat="46.86665" lon="0.54936">
        <ele>49</ele>
        <time>2020-07-03T16:03:04Z</time>
      </trkpt>
      <trkpt lat="46.86663" lon="0.5493">
        <ele>49.1</ele>
        <time>2020-07-03T16:03:05Z</time>
      </trkpt>
      <trkpt lat="46.8666" lon="0.54923">
        <ele>49.1</ele>
        <time>2020-07-03T16:03:06Z</time>
      </trkpt>
      <trkpt lat="46.86657" lon="0.54917">
        <ele>49.1</ele>
        <time>2020-07-03T16:03:07Z</time>
      </trkpt>
      <trkpt lat="46.86654" lon="0.54911">
        <ele>49.1</ele>
        <time>2020-07-03T16:03:08Z</time>
      </trkpt>
      <trkpt lat="46.86651" lon="0.54904">
        <ele>49.1</ele>
        <time>2020-07-03T16:03:09Z</time>
      </trkpt>
      <trkpt lat="46.86648" lon="0.54899">
        <ele>49.1</ele>
        <time>2020-07-03T16:03:10Z</time>
      </trkpt>
      <trkpt lat="46.86645" lon="0.54891">
        <ele>49.2</ele>
        <time>2020-07-03T16:03:11Z</time>
      </trkpt>
      <trkpt lat="46.86642" lon="0.54884">
        <ele>49.2</ele>
        <time>2020-07-03T16:03:12Z</time>
      </trkpt>
      <trkpt lat="46.86639" lon="0.54877">
        <ele>49.2</ele>
        <time>2020-07-03T16:03:13Z</time>
      </trkpt>
      <trkpt lat="46.86635" lon="0.5487">
        <ele>49.3</ele>
        <time>2020-07-03T16:03:14Z</time>
      </trkpt>
      <trkpt lat="46.86632" lon="0.54863">
        <ele>49.4</ele>
        <time>2020-07-03T16:03:15Z</time>
      </trkpt>
      <trkpt lat="46.86629" lon="0.54856">
        <ele>49.6</ele>
        <time>2020-07-03T16:03:16Z</time>
      </trkpt>
      <trkpt lat="46.86626" lon="0.5485">
        <ele>49.7</ele>
        <time>2020-07-03T16:03:17Z</time>
      </trkpt>
      <trkpt lat="46.86623" lon="0.54843">
        <ele>49.8</ele>
        <time>2020-07-03T16:03:18Z</time>
      </trkpt>
      <trkpt lat="46.86619" lon="0.54835">
        <ele>49.9</ele>
        <time>2020-07-03T16:03:19Z</time>
      </trkpt>
      <trkpt lat="46.86616" lon="0.54828">
        <ele>49.9</ele>
        <time>2020-07-03T16:03:20Z</time>
      </trkpt>
      <trkpt lat="46.86613" lon="0.54819">
        <ele>50</ele>
        <time>2020-07-03T16:03:21Z</time>
      </trkpt>
      <trkpt lat="46.8661" lon="0.54813">
        <ele>50</ele>
        <time>2020-07-03T16:03:22Z</time>
      </trkpt>
      <trkpt lat="46.86607" lon="0.54806">
        <ele>50.1</ele>
        <time>2020-07-03T16:03:23Z</time>
      </trkpt>
      <trkpt lat="46.86604" lon="0.548">
        <ele>50.1</ele>
        <time>2020-07-03T16:03:24Z</time>
      </trkpt>
      <trkpt lat="46.86601" lon="0.54795">
        <ele>50.2</ele>
        <time>2020-07-03T16:03:25Z</time>
      </trkpt>
      <trkpt lat="46.86598" lon="0.54787">
        <ele>50.3</ele>
        <time>2020-07-03T16:03:26Z</time>
      </trkpt>
      <trkpt lat="46.86595" lon="0.54781">
        <ele>50.3</ele>
        <time>2020-07-03T16:03:27Z</time>
      </trkpt>
      <trkpt lat="46.86592" lon="0.54775">
        <ele>50.4</ele>
        <time>2020-07-03T16:03:28Z</time>
      </trkpt>
      <trkpt lat="46.86589" lon="0.54769">
        <ele>50.5</ele>
        <time>2020-07-03T16:03:29Z</time>
      </trkpt>
      <trkpt lat="46.86587" lon="0.54763">
        <ele>50.6</ele>
        <time>2020-07-03T16:03:30Z</time>
      </trkpt>
      <trkpt lat="46.86584" lon="0.54757">
        <ele>50.7</ele>
        <time>2020-07-03T16:03:31Z</time>
      </trkpt>
      <trkpt lat="46.86582" lon="0.54751">
        <ele>50.8</ele>
        <time>2020-07-03T16:03:32Z</time>
      </trkpt>
      <trkpt lat="46.86579" lon="0.54745">
        <ele>50.9</ele>
        <time>2020-07-03T16:03:33Z</time>
      </trkpt>
      <trkpt lat="46.86577" lon="0.54739">
        <ele>51</ele>
        <time>2020-07-03T16:03:34Z</time>
      </trkpt>
      <trkpt lat="46.86574" lon="0.54734">
        <ele>51.1</ele>
        <time>2020-07-03T16:03:35Z</time>
      </trkpt>
      <trkpt lat="46.86571" lon="0.5473">
        <ele>51.2</ele>
        <time>2020-07-03T16:03:36Z</time>
      </trkpt>
      <trkpt lat="46.86568" lon="0.54725">
        <ele>51.3</ele>
        <time>2020-07-03T16:03:37Z</time>
      </trkpt>
      <trkpt lat="46.86565" lon="0.5472">
        <ele>51.4</ele>
        <time>2020-07-03T16:03:38Z</time>
      </trkpt>
      <trkpt lat="46.86562" lon="0.54715">
        <ele>51.6</ele>
        <time>2020-07-03T16:03:39Z</time>
      </trkpt>
      <trkpt lat="46.8656" lon="0.54708">
        <ele>51.7</ele>
        <time>2020-07-03T16:03:40Z</time>
      </trkpt>
      <trkpt lat="46.86558" lon="0.54702">
        <ele>51.9</ele>
        <time>2020-07-03T16:03:41Z</time>
      </trkpt>
      <trkpt lat="46.86556" lon="0.54697">
        <ele>52</ele>
        <time>2020-07-03T16:03:42Z</time>
      </trkpt>
      <trkpt lat="46.86554" lon="0.54693">
        <ele>52.1</ele>
        <time>2020-07-03T16:03:43Z</time>
      </trkpt>
      <trkpt lat="46.86552" lon="0.54689">
        <ele>52.2</ele>
        <time>2020-07-03T16:03:44Z</time>
      </trkpt>
      <trkpt lat="46.86549" lon="0.54683">
        <ele>52.3</ele>
        <time>2020-07-03T16:03:45Z</time>
      </trkpt>
      <trkpt lat="46.86547" lon="0.54677">
        <ele>52.5</ele>
        <time>2020-07-03T16:03:46Z</time>
      </trkpt>
      <trkpt lat="46.86545" lon="0.54672">
        <ele>52.7</ele>
        <time>2020-07-03T16:03:47Z</time>
      </trkpt>
      <trkpt lat="46.86542" lon="0.54666">
        <ele>52.8</ele>
        <time>2020-07-03T16:03:48Z</time>
      </trkpt>
      <trkpt lat="46.86539" lon="0.5466">
        <ele>53</ele>
        <time>2020-07-03T16:03:49Z</time>
      </trkpt>
      <trkpt lat="46.86537" lon="0.54656">
        <ele>53.2</ele>
        <time>2020-07-03T16:03:50Z</time>
      </trkpt>
      <trkpt lat="46.86535" lon="0.54651">
        <ele>53.3</ele>
        <time>2020-07-03T16:03:51Z</time>
      </trkpt>
      <trkpt lat="46.86534" lon="0.54648">
        <ele>53.4</ele>
        <time>2020-07-03T16:03:52Z</time>
      </trkpt>
      <trkpt lat="46.86532" lon="0.54644">
        <ele>53.5</ele>
        <time>2020-07-03T16:03:53Z</time>
      </trkpt>
      <trkpt lat="46.86531" lon="0.54639">
        <ele>53.7</ele>
        <time>2020-07-03T16:03:54Z</time>
      </trkpt>
      <trkpt lat="46.86528" lon="0.54634">
        <ele>53.8</ele>
        <time>2020-07-03T16:03:55Z</time>
      </trkpt>
      <trkpt lat="46.86526" lon="0.54631">
        <ele>53.9</ele>
        <time>2020-07-03T16:03:56Z</time>
      </trkpt>
      <trkpt lat="46.86524" lon="0.54626">
        <ele>54.1</ele>
        <time>2020-07-03T16:03:57Z</time>
      </trkpt>
      <trkpt lat="46.86521" lon="0.54622">
        <ele>54.2</ele>
        <time>2020-07-03T16:03:58Z</time>
      </trkpt>
      <trkpt lat="46.86519" lon="0.54618">
        <ele>54.3</ele>
        <time>2020-07-03T16:03:59Z</time>
      </trkpt>
      <trkpt lat="46.86517" lon="0.54611">
        <ele>54.4</ele>
        <time>2020-07-03T16:04:00Z</time>
      </trkpt>
      <trkpt lat="46.86514" lon="0.54605">
        <ele>54.5</ele>
        <time>2020-07-03T16:04:01Z</time>
      </trkpt>
      <trkpt lat="46.86513" lon="0.54603">
        <ele>54.5</ele>
        <time>2020-07-03T16:04:02Z</time>
      </trkpt>
      <trkpt lat="46.86511" lon="0.54597">
        <ele>54.6</ele>
        <time>2020-07-03T16:04:03Z</time>
      </trkpt>
      <trkpt lat="46.86508" lon="0.54591">
        <ele>54.7</ele>
        <time>2020-07-03T16:04:04Z</time>
      </trkpt>
      <trkpt lat="46.86506" lon="0.54586">
        <ele>54.7</ele>
        <time>2020-07-03T16:04:05Z</time>
      </trkpt>
      <trkpt lat="46.86502" lon="0.5458">
        <ele>54.7</ele>
        <time>2020-07-03T16:04:06Z</time>
      </trkpt>
      <trkpt lat="46.86499" lon="0.54574">
        <ele>54.8</ele>
        <time>2020-07-03T16:04:07Z</time>
      </trkpt>
      <trkpt lat="46.86496" lon="0.54569">
        <ele>54.8</ele>
        <time>2020-07-03T16:04:08Z</time>
      </trkpt>
      <trkpt lat="46.86494" lon="0.54564">
        <ele>54.8</ele>
        <time>2020-07-03T16:04:09Z</time>
      </trkpt>
      <trkpt lat="46.86492" lon="0.54558">
        <ele>54.9</ele>
        <time>2020-07-03T16:04:10Z</time>
      </trkpt>
      <trkpt lat="46.8649" lon="0.54553">
        <ele>54.9</ele>
        <time>2020-07-03T16:04:11Z</time>
      </trkpt>
      <trkpt lat="46.86488" lon="0.54547">
        <ele>55</ele>
        <time>2020-07-03T16:04:12Z</time>
      </trkpt>
      <trkpt lat="46.86485" lon="0.54541">
        <ele>55</ele>
        <time>2020-07-03T16:04:13Z</time>
      </trkpt>
      <trkpt lat="46.86482" lon="0.54534">
        <ele>55</ele>
        <time>2020-07-03T16:04:14Z</time>
      </trkpt>
      <trkpt lat="46.86479" lon="0.54527">
        <ele>55</ele>
        <time>2020-07-03T16:04:15Z</time>
      </trkpt>
      <trkpt lat="46.86476" lon="0.54522">
        <ele>55</ele>
        <time>2020-07-03T16:04:16Z</time>
      </trkpt>
      <trkpt lat="46.86473" lon="0.54516">
        <ele>55</ele>
        <time>2020-07-03T16:04:17Z</time>
      </trkpt>
      <trkpt lat="46.8647" lon="0.54511">
        <ele>55.1</ele>
        <time>2020-07-03T16:04:18Z</time>
      </trkpt>
      <trkpt lat="46.86467" lon="0.54507">
        <ele>55.1</ele>
        <time>2020-07-03T16:04:19Z</time>
      </trkpt>
      <trkpt lat="46.86464" lon="0.54502">
        <ele>55.1</ele>
        <time>2020-07-03T16:04:20Z</time>
      </trkpt>
      <trkpt lat="46.8646" lon="0.54496">
        <ele>55.1</ele>
        <time>2020-07-03T16:04:21Z</time>
      </trkpt>
      <trkpt lat="46.86456" lon="0.54492">
        <ele>55.1</ele>
        <time>2020-07-03T16:04:22Z</time>
      </trkpt>
      <trkpt lat="46.86453" lon="0.54488">
        <ele>55.2</ele>
        <time>2020-07-03T16:04:23Z</time>
      </trkpt>
      <trkpt lat="46.86448" lon="0.54483">
        <ele>55.2</ele>
        <time>2020-07-03T16:04:24Z</time>
      </trkpt>
      <trkpt lat="46.86443" lon="0.54478">
        <ele>55.2</ele>
        <time>2020-07-03T16:04:25Z</time>
      </trkpt>
      <trkpt lat="46.86439" lon="0.54473">
        <ele>55.2</ele>
        <time>2020-07-03T16:04:26Z</time>
      </trkpt>
      <trkpt lat="46.86436" lon="0.54469">
        <ele>55.2</ele>
        <time>2020-07-03T16:04:27Z</time>
      </trkpt>
      <trkpt lat="46.86431" lon="0.54465">
        <ele>55.2</ele>
        <time>2020-07-03T16:04:28Z</time>
      </trkpt>
      <trkpt lat="46.86427" lon="0.54462">
        <ele>55.2</ele>
        <time>2020-07-03T16:04:29Z</time>
      </trkpt>
      <trkpt lat="46.8642" lon="0.5446">
        <ele>55.2</ele>
        <time>2020-07-03T16:04:30Z</time>
      </trkpt>
      <trkpt lat="46.86414" lon="0.54456">
        <ele>55.2</ele>
        <time>2020-07-03T16:04:31Z</time>
      </trkpt>
      <trkpt lat="46.86407" lon="0.54453">
        <ele>55.2</ele>
        <time>2020-07-03T16:04:32Z</time>
      </trkpt>
      <trkpt lat="46.86401" lon="0.54451">
        <ele>55.2</ele>
        <time>2020-07-03T16:04:33Z</time>
      </trkpt>
      <trkpt lat="46.86396" lon="0.54449">
        <ele>55.2</ele>
        <time>2020-07-03T16:04:34Z</time>
      </trkpt>
      <trkpt lat="46.8639" lon="0.54446">
        <ele>55.2</ele>
        <time>2020-07-03T16:04:35Z</time>
      </trkpt>
      <trkpt lat="46.86383" lon="0.54441">
        <ele>55.2</ele>
        <time>2020-07-03T16:04:36Z</time>
      </trkpt>
      <trkpt lat="46.86376" lon="0.54438">
        <ele>55.2</ele>
        <time>2020-07-03T16:04:37Z</time>
      </trkpt>
      <trkpt lat="46.86371" lon="0.54435">
        <ele>55.2</ele>
        <time>2020-07-03T16:04:38Z</time>
      </trkpt>
      <trkpt lat="46.86364" lon="0.54432">
        <ele>55.2</ele>
        <time>2020-07-03T16:04:39Z</time>
      </trkpt>
      <trkpt lat="46.86359" lon="0.5443">
        <ele>55.2</ele>
        <time>2020-07-03T16:04:40Z</time>
      </trkpt>
      <trkpt lat="46.86354" lon="0.54427">
        <ele>55.2</ele>
        <time>2020-07-03T16:04:41Z</time>
      </trkpt>
      <trkpt lat="46.86348" lon="0.54423">
        <ele>55.2</ele>
        <time>2020-07-03T16:04:42Z</time>
      </trkpt>
      <trkpt lat="46.86342" lon="0.54421">
        <ele>55.2</ele>
        <time>2020-07-03T16:04:43Z</time>
      </trkpt>
      <trkpt lat="46.86338" lon="0.54419">
        <ele>55.2</ele>
        <time>2020-07-03T16:04:44Z</time>
      </trkpt>
      <trkpt lat="46.86333" lon="0.54417">
        <ele>55.2</ele>
        <time>2020-07-03T16:04:45Z</time>
      </trkpt>
      <trkpt lat="46.86328" lon="0.54415">
        <ele>55.2</ele>
        <time>2020-07-03T16:04:46Z</time>
      </trkpt>
      <trkpt lat="46.86322" lon="0.54414">
        <ele>55.2</ele>
        <time>2020-07-03T16:04:47Z</time>
      </trkpt>
      <trkpt lat="46.86315" lon="0.54411">
        <ele>55.2</ele>
        <time>2020-07-03T16:04:48Z</time>
      </trkpt>
      <trkpt lat="46.8631" lon="0.54409">
        <ele>55.3</ele>
        <time>2020-07-03T16:04:49Z</time>
      </trkpt>
      <trkpt lat="46.86306" lon="0.54404">
        <ele>55.3</ele>
        <time>2020-07-03T16:04:50Z</time>
      </trkpt>
      <trkpt lat="46.86301" lon="0.544">
        <ele>55.4</ele>
        <time>2020-07-03T16:04:51Z</time>
      </trkpt>
      <trkpt lat="46.86297" lon="0.54395">
        <ele>55.5</ele>
        <time>2020-07-03T16:04:52Z</time>
      </trkpt>
      <trkpt lat="46.86292" lon="0.54391">
        <ele>55.6</ele>
        <time>2020-07-03T16:04:53Z</time>
      </trkpt>
      <trkpt lat="46.86288" lon="0.54387">
        <ele>55.6</ele>
        <time>2020-07-03T16:04:54Z</time>
      </trkpt>
      <trkpt lat="46.86283" lon="0.54382">
        <ele>55.7</ele>
        <time>2020-07-03T16:04:55Z</time>
      </trkpt>
      <trkpt lat="46.86278" lon="0.54378">
        <ele>55.7</ele>
        <time>2020-07-03T16:04:56Z</time>
      </trkpt>
      <trkpt lat="46.86274" lon="0.54373">
        <ele>55.8</ele>
        <time>2020-07-03T16:04:57Z</time>
      </trkpt>
      <trkpt lat="46.8627" lon="0.54368">
        <ele>55.9</ele>
        <time>2020-07-03T16:04:58Z</time>
      </trkpt>
      <trkpt lat="46.86266" lon="0.54364">
        <ele>55.9</ele>
        <time>2020-07-03T16:04:59Z</time>
      </trkpt>
      <trkpt lat="46.86261" lon="0.5436">
        <ele>56</ele>
        <time>2020-07-03T16:05:00Z</time>
      </trkpt>
      <trkpt lat="46.86256" lon="0.54356">
        <ele>56</ele>
        <time>2020-07-03T16:05:01Z</time>
      </trkpt>
      <trkpt lat="46.86251" lon="0.54352">
        <ele>56.1</ele>
        <time>2020-07-03T16:05:02Z</time>
      </trkpt>
      <trkpt lat="46.86246" lon="0.54347">
        <ele>56.2</ele>
        <time>2020-07-03T16:05:03Z</time>
      </trkpt>
      <trkpt lat="46.86242" lon="0.54343">
        <ele>56.3</ele>
        <time>2020-07-03T16:05:04Z</time>
      </trkpt>
      <trkpt lat="46.86237" lon="0.54338">
        <ele>56.3</ele>
        <time>2020-07-03T16:05:05Z</time>
      </trkpt>
      <trkpt lat="46.86232" lon="0.54334">
        <ele>56.3</ele>
        <time>2020-07-03T16:05:06Z</time>
      </trkpt>
      <trkpt lat="46.86226" lon="0.54329">
        <ele>56.4</ele>
        <time>2020-07-03T16:05:07Z</time>
      </trkpt>
      <trkpt lat="46.86222" lon="0.54326">
        <ele>56.4</ele>
        <time>2020-07-03T16:05:08Z</time>
      </trkpt>
      <trkpt lat="46.86217" lon="0.54323">
        <ele>56.4</ele>
        <time>2020-07-03T16:05:09Z</time>
      </trkpt>
      <trkpt lat="46.86212" lon="0.54318">
        <ele>56.5</ele>
        <time>2020-07-03T16:05:10Z</time>
      </trkpt>
      <trkpt lat="46.86206" lon="0.54313">
        <ele>56.5</ele>
        <time>2020-07-03T16:05:11Z</time>
      </trkpt>
      <trkpt lat="46.86201" lon="0.54309">
        <ele>56.5</ele>
        <time>2020-07-03T16:05:12Z</time>
      </trkpt>
      <trkpt lat="46.86196" lon="0.54305">
        <ele>56.6</ele>
        <time>2020-07-03T16:05:13Z</time>
      </trkpt>
      <trkpt lat="46.86192" lon="0.543">
        <ele>56.6</ele>
        <time>2020-07-03T16:05:14Z</time>
      </trkpt>
      <trkpt lat="46.86187" lon="0.54294">
        <ele>56.6</ele>
        <time>2020-07-03T16:05:15Z</time>
      </trkpt>
      <trkpt lat="46.86181" lon="0.54291">
        <ele>56.6</ele>
        <time>2020-07-03T16:05:16Z</time>
      </trkpt>
      <trkpt lat="46.86178" lon="0.54288">
        <ele>56.6</ele>
        <time>2020-07-03T16:05:17Z</time>
      </trkpt>
      <trkpt lat="46.86174" lon="0.54285">
        <ele>56.6</ele>
        <time>2020-07-03T16:05:18Z</time>
      </trkpt>
      <trkpt lat="46.8617" lon="0.54281">
        <ele>56.7</ele>
        <time>2020-07-03T16:05:19Z</time>
      </trkpt>
      <trkpt lat="46.86165" lon="0.54277">
        <ele>56.7</ele>
        <time>2020-07-03T16:05:20Z</time>
      </trkpt>
      <trkpt lat="46.86159" lon="0.5427">
        <ele>56.7</ele>
        <time>2020-07-03T16:05:21Z</time>
      </trkpt>
      <trkpt lat="46.86154" lon="0.54265">
        <ele>56.7</ele>
        <time>2020-07-03T16:05:22Z</time>
      </trkpt>
      <trkpt lat="46.86148" lon="0.5426">
        <ele>56.8</ele>
        <time>2020-07-03T16:05:23Z</time>
      </trkpt>
      <trkpt lat="46.86143" lon="0.54255">
        <ele>56.8</ele>
        <time>2020-07-03T16:05:24Z</time>
      </trkpt>
      <trkpt lat="46.86138" lon="0.5425">
        <ele>56.8</ele>
        <time>2020-07-03T16:05:25Z</time>
      </trkpt>
      <trkpt lat="46.86132" lon="0.54246">
        <ele>56.9</ele>
        <time>2020-07-03T16:05:26Z</time>
      </trkpt>
      <trkpt lat="46.86127" lon="0.54242">
        <ele>56.9</ele>
        <time>2020-07-03T16:05:27Z</time>
      </trkpt>
      <trkpt lat="46.86121" lon="0.54237">
        <ele>57</ele>
        <time>2020-07-03T16:05:28Z</time>
      </trkpt>
      <trkpt lat="46.86116" lon="0.54232">
        <ele>57</ele>
        <time>2020-07-03T16:05:29Z</time>
      </trkpt>
      <trkpt lat="46.8611" lon="0.54226">
        <ele>57</ele>
        <time>2020-07-03T16:05:30Z</time>
      </trkpt>
      <trkpt lat="46.86106" lon="0.54222">
        <ele>57.1</ele>
        <time>2020-07-03T16:05:31Z</time>
      </trkpt>
      <trkpt lat="46.86102" lon="0.54219">
        <ele>57.1</ele>
        <time>2020-07-03T16:05:32Z</time>
      </trkpt>
      <trkpt lat="46.86096" lon="0.54214">
        <ele>57.2</ele>
        <time>2020-07-03T16:05:33Z</time>
      </trkpt>
      <trkpt lat="46.86091" lon="0.54209">
        <ele>57.4</ele>
        <time>2020-07-03T16:05:34Z</time>
      </trkpt>
      <trkpt lat="46.86087" lon="0.54205">
        <ele>57.3</ele>
        <time>2020-07-03T16:05:35Z</time>
      </trkpt>
      <trkpt lat="46.86082" lon="0.542">
        <ele>57.3</ele>
        <time>2020-07-03T16:05:36Z</time>
      </trkpt>
      <trkpt lat="46.86078" lon="0.54195">
        <ele>57.3</ele>
        <time>2020-07-03T16:05:37Z</time>
      </trkpt>
      <trkpt lat="46.86074" lon="0.54191">
        <ele>57.3</ele>
        <time>2020-07-03T16:05:38Z</time>
      </trkpt>
      <trkpt lat="46.86068" lon="0.54186">
        <ele>57.4</ele>
        <time>2020-07-03T16:05:39Z</time>
      </trkpt>
      <trkpt lat="46.86063" lon="0.5418">
        <ele>57.5</ele>
        <time>2020-07-03T16:05:40Z</time>
      </trkpt>
      <trkpt lat="46.86059" lon="0.54174">
        <ele>57.6</ele>
        <time>2020-07-03T16:05:41Z</time>
      </trkpt>
      <trkpt lat="46.86055" lon="0.5417">
        <ele>57.6</ele>
        <time>2020-07-03T16:05:42Z</time>
      </trkpt>
      <trkpt lat="46.8605" lon="0.54166">
        <ele>57.7</ele>
        <time>2020-07-03T16:05:43Z</time>
      </trkpt>
      <trkpt lat="46.86045" lon="0.54162">
        <ele>57.7</ele>
        <time>2020-07-03T16:05:44Z</time>
      </trkpt>
      <trkpt lat="46.86039" lon="0.54157">
        <ele>57.8</ele>
        <time>2020-07-03T16:05:45Z</time>
      </trkpt>
      <trkpt lat="46.86035" lon="0.54153">
        <ele>57.8</ele>
        <time>2020-07-03T16:05:46Z</time>
      </trkpt>
      <trkpt lat="46.8603" lon="0.54149">
        <ele>57.8</ele>
        <time>2020-07-03T16:05:47Z</time>
      </trkpt>
      <trkpt lat="46.86026" lon="0.54145">
        <ele>57.9</ele>
        <time>2020-07-03T16:05:48Z</time>
      </trkpt>
      <trkpt lat="46.86021" lon="0.54141">
        <ele>57.9</ele>
        <time>2020-07-03T16:05:49Z</time>
      </trkpt>
      <trkpt lat="46.86017" lon="0.54136">
        <ele>57.9</ele>
        <time>2020-07-03T16:05:50Z</time>
      </trkpt>
      <trkpt lat="46.86012" lon="0.54132">
        <ele>57.9</ele>
        <time>2020-07-03T16:05:51Z</time>
      </trkpt>
      <trkpt lat="46.86006" lon="0.54127">
        <ele>58</ele>
        <time>2020-07-03T16:05:52Z</time>
      </trkpt>
      <trkpt lat="46.86001" lon="0.54122">
        <ele>58</ele>
        <time>2020-07-03T16:05:53Z</time>
      </trkpt>
      <trkpt lat="46.85997" lon="0.54118">
        <ele>58</ele>
        <time>2020-07-03T16:05:54Z</time>
      </trkpt>
      <trkpt lat="46.85991" lon="0.54114">
        <ele>57.9</ele>
        <time>2020-07-03T16:05:55Z</time>
      </trkpt>
      <trkpt lat="46.85986" lon="0.54108">
        <ele>57.9</ele>
        <time>2020-07-03T16:05:56Z</time>
      </trkpt>
      <trkpt lat="46.85981" lon="0.54104">
        <ele>57.9</ele>
        <time>2020-07-03T16:05:57Z</time>
      </trkpt>
      <trkpt lat="46.85977" lon="0.541">
        <ele>57.9</ele>
        <time>2020-07-03T16:05:58Z</time>
      </trkpt>
      <trkpt lat="46.85972" lon="0.54095">
        <ele>57.9</ele>
        <time>2020-07-03T16:05:59Z</time>
      </trkpt>
      <trkpt lat="46.85967" lon="0.54091">
        <ele>57.9</ele>
        <time>2020-07-03T16:06:00Z</time>
      </trkpt>
      <trkpt lat="46.85962" lon="0.54086">
        <ele>57.9</ele>
        <time>2020-07-03T16:06:01Z</time>
      </trkpt>
      <trkpt lat="46.85957" lon="0.54081">
        <ele>57.8</ele>
        <time>2020-07-03T16:06:02Z</time>
      </trkpt>
      <trkpt lat="46.85952" lon="0.54075">
        <ele>57.8</ele>
        <time>2020-07-03T16:06:03Z</time>
      </trkpt>
      <trkpt lat="46.85948" lon="0.54069">
        <ele>57.7</ele>
        <time>2020-07-03T16:06:04Z</time>
      </trkpt>
      <trkpt lat="46.85943" lon="0.54063">
        <ele>57.6</ele>
        <time>2020-07-03T16:06:05Z</time>
      </trkpt>
      <trkpt lat="46.85939" lon="0.54058">
        <ele>57.6</ele>
        <time>2020-07-03T16:06:06Z</time>
      </trkpt>
      <trkpt lat="46.85934" lon="0.54051">
        <ele>57.5</ele>
        <time>2020-07-03T16:06:07Z</time>
      </trkpt>
      <trkpt lat="46.85931" lon="0.54045">
        <ele>57.4</ele>
        <time>2020-07-03T16:06:08Z</time>
      </trkpt>
      <trkpt lat="46.85927" lon="0.54039">
        <ele>57.4</ele>
        <time>2020-07-03T16:06:09Z</time>
      </trkpt>
      <trkpt lat="46.85923" lon="0.54033">
        <ele>57.4</ele>
        <time>2020-07-03T16:06:10Z</time>
      </trkpt>
      <trkpt lat="46.85918" lon="0.54025">
        <ele>57.3</ele>
        <time>2020-07-03T16:06:11Z</time>
      </trkpt>
      <trkpt lat="46.85914" lon="0.54019">
        <ele>57.3</ele>
        <time>2020-07-03T16:06:12Z</time>
      </trkpt>
      <trkpt lat="46.85909" lon="0.54012">
        <ele>57.3</ele>
        <time>2020-07-03T16:06:13Z</time>
      </trkpt>
      <trkpt lat="46.85905" lon="0.54005">
        <ele>57.3</ele>
        <time>2020-07-03T16:06:14Z</time>
      </trkpt>
      <trkpt lat="46.85901" lon="0.54">
        <ele>57.3</ele>
        <time>2020-07-03T16:06:15Z</time>
      </trkpt>
      <trkpt lat="46.85897" lon="0.53993">
        <ele>57.3</ele>
        <time>2020-07-03T16:06:16Z</time>
      </trkpt>
      <trkpt lat="46.85892" lon="0.53986">
        <ele>57.3</ele>
        <time>2020-07-03T16:06:17Z</time>
      </trkpt>
      <trkpt lat="46.85888" lon="0.53979">
        <ele>57.3</ele>
        <time>2020-07-03T16:06:18Z</time>
      </trkpt>
      <trkpt lat="46.85884" lon="0.53972">
        <ele>57.2</ele>
        <time>2020-07-03T16:06:19Z</time>
      </trkpt>
      <trkpt lat="46.85879" lon="0.53964">
        <ele>57.2</ele>
        <time>2020-07-03T16:06:20Z</time>
      </trkpt>
      <trkpt lat="46.85875" lon="0.53957">
        <ele>57.2</ele>
        <time>2020-07-03T16:06:21Z</time>
      </trkpt>
      <trkpt lat="46.85872" lon="0.53953">
        <ele>57.2</ele>
        <time>2020-07-03T16:06:22Z</time>
      </trkpt>
      <trkpt lat="46.85869" lon="0.53947">
        <ele>57.2</ele>
        <time>2020-07-03T16:06:23Z</time>
      </trkpt>
      <trkpt lat="46.85865" lon="0.53941">
        <ele>57.1</ele>
        <time>2020-07-03T16:06:24Z</time>
      </trkpt>
      <trkpt lat="46.8586" lon="0.53932">
        <ele>57.1</ele>
        <time>2020-07-03T16:06:25Z</time>
      </trkpt>
      <trkpt lat="46.85857" lon="0.53927">
        <ele>57.1</ele>
        <time>2020-07-03T16:06:26Z</time>
      </trkpt>
      <trkpt lat="46.85853" lon="0.53921">
        <ele>57.1</ele>
        <time>2020-07-03T16:06:27Z</time>
      </trkpt>
      <trkpt lat="46.85849" lon="0.53915">
        <ele>57.1</ele>
        <time>2020-07-03T16:06:28Z</time>
      </trkpt>
      <trkpt lat="46.85844" lon="0.53909">
        <ele>57.1</ele>
        <time>2020-07-03T16:06:29Z</time>
      </trkpt>
      <trkpt lat="46.8584" lon="0.53902">
        <ele>57.1</ele>
        <time>2020-07-03T16:06:30Z</time>
      </trkpt>
      <trkpt lat="46.85836" lon="0.53894">
        <ele>57.1</ele>
        <time>2020-07-03T16:06:31Z</time>
      </trkpt>
      <trkpt lat="46.85831" lon="0.53887">
        <ele>57</ele>
        <time>2020-07-03T16:06:32Z</time>
      </trkpt>
      <trkpt lat="46.85828" lon="0.53881">
        <ele>57</ele>
        <time>2020-07-03T16:06:33Z</time>
      </trkpt>
      <trkpt lat="46.85823" lon="0.53875">
        <ele>57</ele>
        <time>2020-07-03T16:06:34Z</time>
      </trkpt>
      <trkpt lat="46.85819" lon="0.53868">
        <ele>57</ele>
        <time>2020-07-03T16:06:35Z</time>
      </trkpt>
      <trkpt lat="46.85815" lon="0.53861">
        <ele>56.9</ele>
        <time>2020-07-03T16:06:36Z</time>
      </trkpt>
      <trkpt lat="46.85812" lon="0.53855">
        <ele>56.9</ele>
        <time>2020-07-03T16:06:37Z</time>
      </trkpt>
      <trkpt lat="46.85808" lon="0.53848">
        <ele>56.9</ele>
        <time>2020-07-03T16:06:38Z</time>
      </trkpt>
      <trkpt lat="46.85804" lon="0.53842">
        <ele>56.9</ele>
        <time>2020-07-03T16:06:39Z</time>
      </trkpt>
      <trkpt lat="46.85801" lon="0.53835">
        <ele>56.9</ele>
        <time>2020-07-03T16:06:40Z</time>
      </trkpt>
      <trkpt lat="46.85797" lon="0.53828">
        <ele>56.8</ele>
        <time>2020-07-03T16:06:41Z</time>
      </trkpt>
      <trkpt lat="46.85794" lon="0.53823">
        <ele>56.8</ele>
        <time>2020-07-03T16:06:42Z</time>
      </trkpt>
      <trkpt lat="46.85791" lon="0.53815">
        <ele>56.7</ele>
        <time>2020-07-03T16:06:43Z</time>
      </trkpt>
      <trkpt lat="46.85787" lon="0.53808">
        <ele>56.7</ele>
        <time>2020-07-03T16:06:44Z</time>
      </trkpt>
      <trkpt lat="46.85783" lon="0.53801">
        <ele>56.6</ele>
        <time>2020-07-03T16:06:45Z</time>
      </trkpt>
      <trkpt lat="46.8578" lon="0.53795">
        <ele>56.5</ele>
        <time>2020-07-03T16:06:46Z</time>
      </trkpt>
      <trkpt lat="46.85776" lon="0.5379">
        <ele>56.5</ele>
        <time>2020-07-03T16:06:47Z</time>
      </trkpt>
      <trkpt lat="46.85772" lon="0.53787">
        <ele>56.4</ele>
        <time>2020-07-03T16:06:48Z</time>
      </trkpt>
      <trkpt lat="46.85768" lon="0.53783">
        <ele>56.4</ele>
        <time>2020-07-03T16:06:49Z</time>
      </trkpt>
      <trkpt lat="46.85763" lon="0.53777">
        <ele>56.3</ele>
        <time>2020-07-03T16:06:50Z</time>
      </trkpt>
      <trkpt lat="46.8576" lon="0.53771">
        <ele>56.2</ele>
        <time>2020-07-03T16:06:51Z</time>
      </trkpt>
      <trkpt lat="46.85756" lon="0.53764">
        <ele>56.2</ele>
        <time>2020-07-03T16:06:52Z</time>
      </trkpt>
      <trkpt lat="46.85753" lon="0.53758">
        <ele>56.1</ele>
        <time>2020-07-03T16:06:53Z</time>
      </trkpt>
      <trkpt lat="46.8575" lon="0.53751">
        <ele>56</ele>
        <time>2020-07-03T16:06:54Z</time>
      </trkpt>
      <trkpt lat="46.85746" lon="0.53744">
        <ele>55.9</ele>
        <time>2020-07-03T16:06:55Z</time>
      </trkpt>
      <trkpt lat="46.85742" lon="0.53737">
        <ele>55.9</ele>
        <time>2020-07-03T16:06:56Z</time>
      </trkpt>
      <trkpt lat="46.85738" lon="0.53731">
        <ele>55.8</ele>
        <time>2020-07-03T16:06:57Z</time>
      </trkpt>
      <trkpt lat="46.85733" lon="0.53725">
        <ele>55.7</ele>
        <time>2020-07-03T16:06:58Z</time>
      </trkpt>
      <trkpt lat="46.85728" lon="0.53719">
        <ele>55.5</ele>
        <time>2020-07-03T16:06:59Z</time>
      </trkpt>
      <trkpt lat="46.85724" lon="0.53712">
        <ele>55.4</ele>
        <time>2020-07-03T16:07:00Z</time>
      </trkpt>
      <trkpt lat="46.85718" lon="0.53707">
        <ele>55.3</ele>
        <time>2020-07-03T16:07:01Z</time>
      </trkpt>
      <trkpt lat="46.85713" lon="0.53701">
        <ele>55.2</ele>
        <time>2020-07-03T16:07:02Z</time>
      </trkpt>
      <trkpt lat="46.85706" lon="0.53698">
        <ele>55.1</ele>
        <time>2020-07-03T16:07:03Z</time>
      </trkpt>
      <trkpt lat="46.857" lon="0.53696">
        <ele>55</ele>
        <time>2020-07-03T16:07:04Z</time>
      </trkpt>
      <trkpt lat="46.85693" lon="0.53693">
        <ele>54.9</ele>
        <time>2020-07-03T16:07:05Z</time>
      </trkpt>
      <trkpt lat="46.85686" lon="0.53692">
        <ele>54.9</ele>
        <time>2020-07-03T16:07:06Z</time>
      </trkpt>
      <trkpt lat="46.8568" lon="0.53691">
        <ele>54.8</ele>
        <time>2020-07-03T16:07:07Z</time>
      </trkpt>
      <trkpt lat="46.85674" lon="0.53691">
        <ele>54.8</ele>
        <time>2020-07-03T16:07:08Z</time>
      </trkpt>
      <trkpt lat="46.85667" lon="0.53691">
        <ele>54.8</ele>
        <time>2020-07-03T16:07:09Z</time>
      </trkpt>
      <trkpt lat="46.85661" lon="0.53691">
        <ele>54.8</ele>
        <time>2020-07-03T16:07:10Z</time>
      </trkpt>
      <trkpt lat="46.85654" lon="0.5369">
        <ele>54.8</ele>
        <time>2020-07-03T16:07:11Z</time>
      </trkpt>
      <trkpt lat="46.85647" lon="0.5369">
        <ele>54.8</ele>
        <time>2020-07-03T16:07:12Z</time>
      </trkpt>
      <trkpt lat="46.85641" lon="0.53689">
        <ele>54.7</ele>
        <time>2020-07-03T16:07:13Z</time>
      </trkpt>
      <trkpt lat="46.85633" lon="0.53689">
        <ele>54.7</ele>
        <time>2020-07-03T16:07:14Z</time>
      </trkpt>
      <trkpt lat="46.85627" lon="0.53688">
        <ele>54.7</ele>
        <time>2020-07-03T16:07:15Z</time>
      </trkpt>
      <trkpt lat="46.85619" lon="0.53688">
        <ele>54.7</ele>
        <time>2020-07-03T16:07:16Z</time>
      </trkpt>
      <trkpt lat="46.85613" lon="0.53687">
        <ele>54.7</ele>
        <time>2020-07-03T16:07:17Z</time>
      </trkpt>
      <trkpt lat="46.85606" lon="0.53688">
        <ele>54.7</ele>
        <time>2020-07-03T16:07:18Z</time>
      </trkpt>
      <trkpt lat="46.85601" lon="0.53687">
        <ele>54.7</ele>
        <time>2020-07-03T16:07:19Z</time>
      </trkpt>
      <trkpt lat="46.85595" lon="0.53685">
        <ele>54.7</ele>
        <time>2020-07-03T16:07:20Z</time>
      </trkpt>
      <trkpt lat="46.85589" lon="0.53684">
        <ele>54.7</ele>
        <time>2020-07-03T16:07:21Z</time>
      </trkpt>
      <trkpt lat="46.85583" lon="0.53682">
        <ele>54.7</ele>
        <time>2020-07-03T16:07:22Z</time>
      </trkpt>
      <trkpt lat="46.85576" lon="0.5368">
        <ele>54.7</ele>
        <time>2020-07-03T16:07:23Z</time>
      </trkpt>
      <trkpt lat="46.8557" lon="0.53677">
        <ele>54.8</ele>
        <time>2020-07-03T16:07:24Z</time>
      </trkpt>
      <trkpt lat="46.85563" lon="0.53676">
        <ele>54.8</ele>
        <time>2020-07-03T16:07:25Z</time>
      </trkpt>
      <trkpt lat="46.85557" lon="0.53674">
        <ele>54.8</ele>
        <time>2020-07-03T16:07:26Z</time>
      </trkpt>
      <trkpt lat="46.85551" lon="0.5367">
        <ele>54.9</ele>
        <time>2020-07-03T16:07:27Z</time>
      </trkpt>
      <trkpt lat="46.85545" lon="0.53667">
        <ele>55</ele>
        <time>2020-07-03T16:07:28Z</time>
      </trkpt>
      <trkpt lat="46.85539" lon="0.53664">
        <ele>55.1</ele>
        <time>2020-07-03T16:07:29Z</time>
      </trkpt>
      <trkpt lat="46.85533" lon="0.53661">
        <ele>55.2</ele>
        <time>2020-07-03T16:07:30Z</time>
      </trkpt>
      <trkpt lat="46.85528" lon="0.53658">
        <ele>55.3</ele>
        <time>2020-07-03T16:07:31Z</time>
      </trkpt>
      <trkpt lat="46.85522" lon="0.53655">
        <ele>55.4</ele>
        <time>2020-07-03T16:07:32Z</time>
      </trkpt>
      <trkpt lat="46.85516" lon="0.53653">
        <ele>55.5</ele>
        <time>2020-07-03T16:07:33Z</time>
      </trkpt>
      <trkpt lat="46.85509" lon="0.5365">
        <ele>55.7</ele>
        <time>2020-07-03T16:07:34Z</time>
      </trkpt>
      <trkpt lat="46.85503" lon="0.53646">
        <ele>55.8</ele>
        <time>2020-07-03T16:07:35Z</time>
      </trkpt>
      <trkpt lat="46.85496" lon="0.53642">
        <ele>55.9</ele>
        <time>2020-07-03T16:07:36Z</time>
      </trkpt>
      <trkpt lat="46.85489" lon="0.53638">
        <ele>56.1</ele>
        <time>2020-07-03T16:07:37Z</time>
      </trkpt>
      <trkpt lat="46.85482" lon="0.53635">
        <ele>56.3</ele>
        <time>2020-07-03T16:07:38Z</time>
      </trkpt>
      <trkpt lat="46.85475" lon="0.53631">
        <ele>56.5</ele>
        <time>2020-07-03T16:07:39Z</time>
      </trkpt>
      <trkpt lat="46.85469" lon="0.53629">
        <ele>56.6</ele>
        <time>2020-07-03T16:07:40Z</time>
      </trkpt>
      <trkpt lat="46.85463" lon="0.53626">
        <ele>56.8</ele>
        <time>2020-07-03T16:07:41Z</time>
      </trkpt>
      <trkpt lat="46.85458" lon="0.53624">
        <ele>56.9</ele>
        <time>2020-07-03T16:07:42Z</time>
      </trkpt>
      <trkpt lat="46.85452" lon="0.53621">
        <ele>57</ele>
        <time>2020-07-03T16:07:43Z</time>
      </trkpt>
      <trkpt lat="46.85446" lon="0.53618">
        <ele>57.1</ele>
        <time>2020-07-03T16:07:44Z</time>
      </trkpt>
      <trkpt lat="46.85442" lon="0.53615">
        <ele>57.2</ele>
        <time>2020-07-03T16:07:45Z</time>
      </trkpt>
      <trkpt lat="46.85435" lon="0.53614">
        <ele>57.4</ele>
        <time>2020-07-03T16:07:46Z</time>
      </trkpt>
      <trkpt lat="46.85431" lon="0.53612">
        <ele>57.5</ele>
        <time>2020-07-03T16:07:47Z</time>
      </trkpt>
      <trkpt lat="46.85426" lon="0.5361">
        <ele>57.6</ele>
        <time>2020-07-03T16:07:48Z</time>
      </trkpt>
      <trkpt lat="46.85421" lon="0.53608">
        <ele>57.7</ele>
        <time>2020-07-03T16:07:49Z</time>
      </trkpt>
      <trkpt lat="46.85416" lon="0.53607">
        <ele>57.8</ele>
        <time>2020-07-03T16:07:50Z</time>
      </trkpt>
      <trkpt lat="46.85411" lon="0.53605">
        <ele>57.9</ele>
        <time>2020-07-03T16:07:51Z</time>
      </trkpt>
      <trkpt lat="46.85407" lon="0.53603">
        <ele>58</ele>
        <time>2020-07-03T16:07:52Z</time>
      </trkpt>
      <trkpt lat="46.85402" lon="0.53601">
        <ele>58.1</ele>
        <time>2020-07-03T16:07:53Z</time>
      </trkpt>
      <trkpt lat="46.85397" lon="0.53601">
        <ele>58.2</ele>
        <time>2020-07-03T16:07:54Z</time>
      </trkpt>
      <trkpt lat="46.85392" lon="0.53599">
        <ele>58.4</ele>
        <time>2020-07-03T16:07:55Z</time>
      </trkpt>
      <trkpt lat="46.85387" lon="0.53597">
        <ele>58.5</ele>
        <time>2020-07-03T16:07:56Z</time>
      </trkpt>
      <trkpt lat="46.85382" lon="0.53595">
        <ele>58.6</ele>
        <time>2020-07-03T16:07:57Z</time>
      </trkpt>
      <trkpt lat="46.85377" lon="0.53595">
        <ele>58.7</ele>
        <time>2020-07-03T16:07:58Z</time>
      </trkpt>
      <trkpt lat="46.8537" lon="0.53596">
        <ele>58.7</ele>
        <time>2020-07-03T16:07:59Z</time>
      </trkpt>
      <trkpt lat="46.85365" lon="0.53595">
        <ele>58.7</ele>
        <time>2020-07-03T16:08:00Z</time>
      </trkpt>
      <trkpt lat="46.8536" lon="0.53593">
        <ele>58.8</ele>
        <time>2020-07-03T16:08:01Z</time>
      </trkpt>
      <trkpt lat="46.85354" lon="0.53592">
        <ele>58.9</ele>
        <time>2020-07-03T16:08:02Z</time>
      </trkpt>
      <trkpt lat="46.85349" lon="0.53592">
        <ele>58.9</ele>
        <time>2020-07-03T16:08:03Z</time>
      </trkpt>
      <trkpt lat="46.85343" lon="0.53591">
        <ele>58.9</ele>
        <time>2020-07-03T16:08:04Z</time>
      </trkpt>
      <trkpt lat="46.85338" lon="0.53591">
        <ele>58.9</ele>
        <time>2020-07-03T16:08:05Z</time>
      </trkpt>
      <trkpt lat="46.85331" lon="0.53591">
        <ele>58.9</ele>
        <time>2020-07-03T16:08:06Z</time>
      </trkpt>
      <trkpt lat="46.85325" lon="0.53589">
        <ele>58.8</ele>
        <time>2020-07-03T16:08:07Z</time>
      </trkpt>
      <trkpt lat="46.8532" lon="0.53588">
        <ele>58.8</ele>
        <time>2020-07-03T16:08:08Z</time>
      </trkpt>
      <trkpt lat="46.85315" lon="0.53588">
        <ele>58.8</ele>
        <time>2020-07-03T16:08:09Z</time>
      </trkpt>
      <trkpt lat="46.8531" lon="0.53588">
        <ele>58.8</ele>
        <time>2020-07-03T16:08:10Z</time>
      </trkpt>
      <trkpt lat="46.85305" lon="0.53587">
        <ele>58.8</ele>
        <time>2020-07-03T16:08:11Z</time>
      </trkpt>
      <trkpt lat="46.85299" lon="0.53586">
        <ele>58.7</ele>
        <time>2020-07-03T16:08:12Z</time>
      </trkpt>
      <trkpt lat="46.85293" lon="0.53585">
        <ele>58.7</ele>
        <time>2020-07-03T16:08:13Z</time>
      </trkpt>
      <trkpt lat="46.85285" lon="0.53585">
        <ele>58.6</ele>
        <time>2020-07-03T16:08:14Z</time>
      </trkpt>
      <trkpt lat="46.85278" lon="0.53584">
        <ele>58.6</ele>
        <time>2020-07-03T16:08:15Z</time>
      </trkpt>
      <trkpt lat="46.85273" lon="0.53585">
        <ele>58.6</ele>
        <time>2020-07-03T16:08:16Z</time>
      </trkpt>
      <trkpt lat="46.85266" lon="0.53585">
        <ele>58.5</ele>
        <time>2020-07-03T16:08:17Z</time>
      </trkpt>
      <trkpt lat="46.85259" lon="0.53584">
        <ele>58.5</ele>
        <time>2020-07-03T16:08:18Z</time>
      </trkpt>
      <trkpt lat="46.85251" lon="0.53583">
        <ele>58.5</ele>
        <time>2020-07-03T16:08:19Z</time>
      </trkpt>
      <trkpt lat="46.85246" lon="0.53582">
        <ele>58.4</ele>
        <time>2020-07-03T16:08:20Z</time>
      </trkpt>
      <trkpt lat="46.8524" lon="0.53581">
        <ele>58.4</ele>
        <time>2020-07-03T16:08:21Z</time>
      </trkpt>
      <trkpt lat="46.85234" lon="0.53581">
        <ele>58.4</ele>
        <time>2020-07-03T16:08:22Z</time>
      </trkpt>
      <trkpt lat="46.85228" lon="0.5358">
        <ele>58.4</ele>
        <time>2020-07-03T16:08:23Z</time>
      </trkpt>
      <trkpt lat="46.85222" lon="0.5358">
        <ele>58.4</ele>
        <time>2020-07-03T16:08:24Z</time>
      </trkpt>
      <trkpt lat="46.85216" lon="0.5358">
        <ele>58.4</ele>
        <time>2020-07-03T16:08:25Z</time>
      </trkpt>
      <trkpt lat="46.85209" lon="0.5358">
        <ele>58.4</ele>
        <time>2020-07-03T16:08:26Z</time>
      </trkpt>
      <trkpt lat="46.85202" lon="0.53579">
        <ele>58.4</ele>
        <time>2020-07-03T16:08:27Z</time>
      </trkpt>
      <trkpt lat="46.85196" lon="0.53579">
        <ele>58.4</ele>
        <time>2020-07-03T16:08:28Z</time>
      </trkpt>
      <trkpt lat="46.8519" lon="0.53579">
        <ele>58.4</ele>
        <time>2020-07-03T16:08:29Z</time>
      </trkpt>
      <trkpt lat="46.85183" lon="0.53578">
        <ele>58.3</ele>
        <time>2020-07-03T16:08:30Z</time>
      </trkpt>
      <trkpt lat="46.85175" lon="0.53578">
        <ele>58.3</ele>
        <time>2020-07-03T16:08:31Z</time>
      </trkpt>
      <trkpt lat="46.85169" lon="0.53577">
        <ele>58.2</ele>
        <time>2020-07-03T16:08:32Z</time>
      </trkpt>
      <trkpt lat="46.85162" lon="0.53576">
        <ele>58.2</ele>
        <time>2020-07-03T16:08:33Z</time>
      </trkpt>
      <trkpt lat="46.85156" lon="0.53575">
        <ele>58.1</ele>
        <time>2020-07-03T16:08:34Z</time>
      </trkpt>
      <trkpt lat="46.8515" lon="0.53574">
        <ele>58.1</ele>
        <time>2020-07-03T16:08:35Z</time>
      </trkpt>
      <trkpt lat="46.85144" lon="0.53574">
        <ele>58.1</ele>
        <time>2020-07-03T16:08:36Z</time>
      </trkpt>
      <trkpt lat="46.85137" lon="0.53573">
        <ele>58</ele>
        <time>2020-07-03T16:08:37Z</time>
      </trkpt>
      <trkpt lat="46.85131" lon="0.53572">
        <ele>58</ele>
        <time>2020-07-03T16:08:38Z</time>
      </trkpt>
      <trkpt lat="46.85125" lon="0.53572">
        <ele>58</ele>
        <time>2020-07-03T16:08:39Z</time>
      </trkpt>
      <trkpt lat="46.85118" lon="0.53571">
        <ele>57.9</ele>
        <time>2020-07-03T16:08:40Z</time>
      </trkpt>
      <trkpt lat="46.85112" lon="0.5357">
        <ele>57.9</ele>
        <time>2020-07-03T16:08:41Z</time>
      </trkpt>
      <trkpt lat="46.85107" lon="0.53567">
        <ele>57.9</ele>
        <time>2020-07-03T16:08:42Z</time>
      </trkpt>
      <trkpt lat="46.85102" lon="0.53562">
        <ele>57.9</ele>
        <time>2020-07-03T16:08:43Z</time>
      </trkpt>
      <trkpt lat="46.85098" lon="0.53554">
        <ele>57.8</ele>
        <time>2020-07-03T16:08:44Z</time>
      </trkpt>
      <trkpt lat="46.85095" lon="0.53546">
        <ele>57.8</ele>
        <time>2020-07-03T16:08:45Z</time>
      </trkpt>
      <trkpt lat="46.85092" lon="0.53539">
        <ele>57.9</ele>
        <time>2020-07-03T16:08:46Z</time>
      </trkpt>
      <trkpt lat="46.85088" lon="0.53532">
        <ele>58</ele>
        <time>2020-07-03T16:08:47Z</time>
      </trkpt>
      <trkpt lat="46.85084" lon="0.53526">
        <ele>58.1</ele>
        <time>2020-07-03T16:08:48Z</time>
      </trkpt>
      <trkpt lat="46.85079" lon="0.53524">
        <ele>58.2</ele>
        <time>2020-07-03T16:08:49Z</time>
      </trkpt>
      <trkpt lat="46.85075" lon="0.53526">
        <ele>58.3</ele>
        <time>2020-07-03T16:08:50Z</time>
      </trkpt>
      <trkpt lat="46.85069" lon="0.53528">
        <ele>58.5</ele>
        <time>2020-07-03T16:08:51Z</time>
      </trkpt>
      <trkpt lat="46.85066" lon="0.53532">
        <ele>58.7</ele>
        <time>2020-07-03T16:08:52Z</time>
      </trkpt>
      <trkpt lat="46.85061" lon="0.53536">
        <ele>58.1</ele>
        <time>2020-07-03T16:08:53Z</time>
      </trkpt>
      <trkpt lat="46.85055" lon="0.53539">
        <ele>57.6</ele>
        <time>2020-07-03T16:08:54Z</time>
      </trkpt>
      <trkpt lat="46.8505" lon="0.53541">
        <ele>57.1</ele>
        <time>2020-07-03T16:08:55Z</time>
      </trkpt>
      <trkpt lat="46.85043" lon="0.5354">
        <ele>56.7</ele>
        <time>2020-07-03T16:08:56Z</time>
      </trkpt>
      <trkpt lat="46.85037" lon="0.53536">
        <ele>56.5</ele>
        <time>2020-07-03T16:08:57Z</time>
      </trkpt>
      <trkpt lat="46.85031" lon="0.53532">
        <ele>56.2</ele>
        <time>2020-07-03T16:08:58Z</time>
      </trkpt>
      <trkpt lat="46.85025" lon="0.53527">
        <ele>56</ele>
        <time>2020-07-03T16:08:59Z</time>
      </trkpt>
      <trkpt lat="46.85019" lon="0.53522">
        <ele>55.7</ele>
        <time>2020-07-03T16:09:00Z</time>
      </trkpt>
      <trkpt lat="46.85013" lon="0.53517">
        <ele>55.5</ele>
        <time>2020-07-03T16:09:01Z</time>
      </trkpt>
      <trkpt lat="46.85007" lon="0.53512">
        <ele>55.2</ele>
        <time>2020-07-03T16:09:02Z</time>
      </trkpt>
      <trkpt lat="46.85" lon="0.53506">
        <ele>54.9</ele>
        <time>2020-07-03T16:09:03Z</time>
      </trkpt>
      <trkpt lat="46.84993" lon="0.53501">
        <ele>54.6</ele>
        <time>2020-07-03T16:09:04Z</time>
      </trkpt>
      <trkpt lat="46.84985" lon="0.53496">
        <ele>54.2</ele>
        <time>2020-07-03T16:09:05Z</time>
      </trkpt>
      <trkpt lat="46.84978" lon="0.53491">
        <ele>53.9</ele>
        <time>2020-07-03T16:09:06Z</time>
      </trkpt>
      <trkpt lat="46.84971" lon="0.53485">
        <ele>53.5</ele>
        <time>2020-07-03T16:09:07Z</time>
      </trkpt>
      <trkpt lat="46.84963" lon="0.5348">
        <ele>53.1</ele>
        <time>2020-07-03T16:09:08Z</time>
      </trkpt>
      <trkpt lat="46.84956" lon="0.53475">
        <ele>52.8</ele>
        <time>2020-07-03T16:09:09Z</time>
      </trkpt>
      <trkpt lat="46.84948" lon="0.53472">
        <ele>52.4</ele>
        <time>2020-07-03T16:09:10Z</time>
      </trkpt>
      <trkpt lat="46.84939" lon="0.53468">
        <ele>51.9</ele>
        <time>2020-07-03T16:09:11Z</time>
      </trkpt>
      <trkpt lat="46.8493" lon="0.53465">
        <ele>51.5</ele>
        <time>2020-07-03T16:09:12Z</time>
      </trkpt>
      <trkpt lat="46.84921" lon="0.53465">
        <ele>51.1</ele>
        <time>2020-07-03T16:09:13Z</time>
      </trkpt>
      <trkpt lat="46.84913" lon="0.53464">
        <ele>50.8</ele>
        <time>2020-07-03T16:09:14Z</time>
      </trkpt>
      <trkpt lat="46.84903" lon="0.53466">
        <ele>50.5</ele>
        <time>2020-07-03T16:09:15Z</time>
      </trkpt>
      <trkpt lat="46.84894" lon="0.53468">
        <ele>50.2</ele>
        <time>2020-07-03T16:09:16Z</time>
      </trkpt>
      <trkpt lat="46.84885" lon="0.53469">
        <ele>50</ele>
        <time>2020-07-03T16:09:17Z</time>
      </trkpt>
      <trkpt lat="46.84877" lon="0.53472">
        <ele>49.9</ele>
        <time>2020-07-03T16:09:18Z</time>
      </trkpt>
      <trkpt lat="46.84869" lon="0.53474">
        <ele>49.8</ele>
        <time>2020-07-03T16:09:19Z</time>
      </trkpt>
      <trkpt lat="46.84861" lon="0.53476">
        <ele>49.7</ele>
        <time>2020-07-03T16:09:20Z</time>
      </trkpt>
      <trkpt lat="46.84853" lon="0.53478">
        <ele>49.6</ele>
        <time>2020-07-03T16:09:21Z</time>
      </trkpt>
      <trkpt lat="46.84845" lon="0.53479">
        <ele>49.6</ele>
        <time>2020-07-03T16:09:22Z</time>
      </trkpt>
      <trkpt lat="46.84837" lon="0.5348">
        <ele>49.5</ele>
        <time>2020-07-03T16:09:23Z</time>
      </trkpt>
      <trkpt lat="46.84829" lon="0.53482">
        <ele>49.4</ele>
        <time>2020-07-03T16:09:24Z</time>
      </trkpt>
      <trkpt lat="46.84821" lon="0.53483">
        <ele>49.3</ele>
        <time>2020-07-03T16:09:25Z</time>
      </trkpt>
      <trkpt lat="46.84813" lon="0.53485">
        <ele>49.1</ele>
        <time>2020-07-03T16:09:26Z</time>
      </trkpt>
      <trkpt lat="46.84805" lon="0.53485">
        <ele>49.1</ele>
        <time>2020-07-03T16:09:27Z</time>
      </trkpt>
      <trkpt lat="46.84798" lon="0.53485">
        <ele>49</ele>
        <time>2020-07-03T16:09:28Z</time>
      </trkpt>
      <trkpt lat="46.8479" lon="0.53484">
        <ele>48.9</ele>
        <time>2020-07-03T16:09:29Z</time>
      </trkpt>
      <trkpt lat="46.84782" lon="0.53483">
        <ele>48.9</ele>
        <time>2020-07-03T16:09:30Z</time>
      </trkpt>
      <trkpt lat="46.84775" lon="0.53481">
        <ele>48.9</ele>
        <time>2020-07-03T16:09:31Z</time>
      </trkpt>
      <trkpt lat="46.84768" lon="0.5348">
        <ele>48.9</ele>
        <time>2020-07-03T16:09:32Z</time>
      </trkpt>
      <trkpt lat="46.8476" lon="0.53478">
        <ele>48.9</ele>
        <time>2020-07-03T16:09:33Z</time>
      </trkpt>
      <trkpt lat="46.84753" lon="0.53477">
        <ele>48.8</ele>
        <time>2020-07-03T16:09:34Z</time>
      </trkpt>
      <trkpt lat="46.84746" lon="0.53475">
        <ele>48.8</ele>
        <time>2020-07-03T16:09:35Z</time>
      </trkpt>
      <trkpt lat="46.84739" lon="0.53473">
        <ele>48.8</ele>
        <time>2020-07-03T16:09:36Z</time>
      </trkpt>
      <trkpt lat="46.84731" lon="0.53471">
        <ele>48.7</ele>
        <time>2020-07-03T16:09:37Z</time>
      </trkpt>
      <trkpt lat="46.84724" lon="0.5347">
        <ele>48.7</ele>
        <time>2020-07-03T16:09:38Z</time>
      </trkpt>
      <trkpt lat="46.84716" lon="0.53468">
        <ele>48.6</ele>
        <time>2020-07-03T16:09:39Z</time>
      </trkpt>
      <trkpt lat="46.84709" lon="0.53467">
        <ele>48.6</ele>
        <time>2020-07-03T16:09:40Z</time>
      </trkpt>
      <trkpt lat="46.84702" lon="0.53467">
        <ele>48.6</ele>
        <time>2020-07-03T16:09:41Z</time>
      </trkpt>
      <trkpt lat="46.84695" lon="0.53465">
        <ele>48.6</ele>
        <time>2020-07-03T16:09:42Z</time>
      </trkpt>
      <trkpt lat="46.84688" lon="0.53463">
        <ele>48.5</ele>
        <time>2020-07-03T16:09:43Z</time>
      </trkpt>
      <trkpt lat="46.84681" lon="0.53462">
        <ele>48.5</ele>
        <time>2020-07-03T16:09:44Z</time>
      </trkpt>
      <trkpt lat="46.84674" lon="0.5346">
        <ele>48.6</ele>
        <time>2020-07-03T16:09:45Z</time>
      </trkpt>
      <trkpt lat="46.84667" lon="0.53459">
        <ele>48.6</ele>
        <time>2020-07-03T16:09:46Z</time>
      </trkpt>
      <trkpt lat="46.8466" lon="0.53457">
        <ele>49</ele>
        <time>2020-07-03T16:09:47Z</time>
      </trkpt>
      <trkpt lat="46.84653" lon="0.53455">
        <ele>48.9</ele>
        <time>2020-07-03T16:09:48Z</time>
      </trkpt>
      <trkpt lat="46.84646" lon="0.53454">
        <ele>48.9</ele>
        <time>2020-07-03T16:09:49Z</time>
      </trkpt>
      <trkpt lat="46.84639" lon="0.53453">
        <ele>48.9</ele>
        <time>2020-07-03T16:09:50Z</time>
      </trkpt>
      <trkpt lat="46.84632" lon="0.53452">
        <ele>48.9</ele>
        <time>2020-07-03T16:09:51Z</time>
      </trkpt>
      <trkpt lat="46.84625" lon="0.53452">
        <ele>48.9</ele>
        <time>2020-07-03T16:09:52Z</time>
      </trkpt>
      <trkpt lat="46.84618" lon="0.53452">
        <ele>48.8</ele>
        <time>2020-07-03T16:09:53Z</time>
      </trkpt>
      <trkpt lat="46.84612" lon="0.53452">
        <ele>48.8</ele>
        <time>2020-07-03T16:09:54Z</time>
      </trkpt>
      <trkpt lat="46.84605" lon="0.53451">
        <ele>48.8</ele>
        <time>2020-07-03T16:09:55Z</time>
      </trkpt>
      <trkpt lat="46.84599" lon="0.5345">
        <ele>48.8</ele>
        <time>2020-07-03T16:09:56Z</time>
      </trkpt>
      <trkpt lat="46.84593" lon="0.53449">
        <ele>48.7</ele>
        <time>2020-07-03T16:09:57Z</time>
      </trkpt>
      <trkpt lat="46.84587" lon="0.53449">
        <ele>48.7</ele>
        <time>2020-07-03T16:09:58Z</time>
      </trkpt>
      <trkpt lat="46.84581" lon="0.53448">
        <ele>48.7</ele>
        <time>2020-07-03T16:09:59Z</time>
      </trkpt>
      <trkpt lat="46.84575" lon="0.53449">
        <ele>48.7</ele>
        <time>2020-07-03T16:10:00Z</time>
      </trkpt>
      <trkpt lat="46.84568" lon="0.53448">
        <ele>48.7</ele>
        <time>2020-07-03T16:10:01Z</time>
      </trkpt>
      <trkpt lat="46.84562" lon="0.53447">
        <ele>48.7</ele>
        <time>2020-07-03T16:10:02Z</time>
      </trkpt>
      <trkpt lat="46.84555" lon="0.53447">
        <ele>48.8</ele>
        <time>2020-07-03T16:10:03Z</time>
      </trkpt>
      <trkpt lat="46.84549" lon="0.53446">
        <ele>48.8</ele>
        <time>2020-07-03T16:10:04Z</time>
      </trkpt>
      <trkpt lat="46.84543" lon="0.53445">
        <ele>48.8</ele>
        <time>2020-07-03T16:10:05Z</time>
      </trkpt>
      <trkpt lat="46.84536" lon="0.53444">
        <ele>48.9</ele>
        <time>2020-07-03T16:10:06Z</time>
      </trkpt>
      <trkpt lat="46.8453" lon="0.53443">
        <ele>48.9</ele>
        <time>2020-07-03T16:10:07Z</time>
      </trkpt>
      <trkpt lat="46.84524" lon="0.53442">
        <ele>48.9</ele>
        <time>2020-07-03T16:10:08Z</time>
      </trkpt>
      <trkpt lat="46.84517" lon="0.53441">
        <ele>49</ele>
        <time>2020-07-03T16:10:09Z</time>
      </trkpt>
      <trkpt lat="46.84511" lon="0.53441">
        <ele>49</ele>
        <time>2020-07-03T16:10:10Z</time>
      </trkpt>
      <trkpt lat="46.84505" lon="0.53441">
        <ele>49</ele>
        <time>2020-07-03T16:10:11Z</time>
      </trkpt>
      <trkpt lat="46.84498" lon="0.53442">
        <ele>49</ele>
        <time>2020-07-03T16:10:12Z</time>
      </trkpt>
      <trkpt lat="46.84492" lon="0.53442">
        <ele>49</ele>
        <time>2020-07-03T16:10:13Z</time>
      </trkpt>
      <trkpt lat="46.84486" lon="0.53441">
        <ele>49</ele>
        <time>2020-07-03T16:10:14Z</time>
      </trkpt>
      <trkpt lat="46.84479" lon="0.53441">
        <ele>49</ele>
        <time>2020-07-03T16:10:15Z</time>
      </trkpt>
      <trkpt lat="46.84473" lon="0.53441">
        <ele>49</ele>
        <time>2020-07-03T16:10:16Z</time>
      </trkpt>
      <trkpt lat="46.84466" lon="0.53441">
        <ele>49.1</ele>
        <time>2020-07-03T16:10:17Z</time>
      </trkpt>
      <trkpt lat="46.8446" lon="0.53441">
        <ele>49.1</ele>
        <time>2020-07-03T16:10:18Z</time>
      </trkpt>
      <trkpt lat="46.84454" lon="0.5344">
        <ele>49.1</ele>
        <time>2020-07-03T16:10:19Z</time>
      </trkpt>
      <trkpt lat="46.84447" lon="0.5344">
        <ele>49.1</ele>
        <time>2020-07-03T16:10:20Z</time>
      </trkpt>
      <trkpt lat="46.84441" lon="0.5344">
        <ele>49.1</ele>
        <time>2020-07-03T16:10:21Z</time>
      </trkpt>
      <trkpt lat="46.84434" lon="0.5344">
        <ele>49.2</ele>
        <time>2020-07-03T16:10:22Z</time>
      </trkpt>
      <trkpt lat="46.84428" lon="0.53439">
        <ele>49.2</ele>
        <time>2020-07-03T16:10:23Z</time>
      </trkpt>
      <trkpt lat="46.84421" lon="0.53439">
        <ele>49.2</ele>
        <time>2020-07-03T16:10:24Z</time>
      </trkpt>
      <trkpt lat="46.84415" lon="0.53438">
        <ele>49.3</ele>
        <time>2020-07-03T16:10:25Z</time>
      </trkpt>
      <trkpt lat="46.84408" lon="0.53438">
        <ele>49.3</ele>
        <time>2020-07-03T16:10:26Z</time>
      </trkpt>
      <trkpt lat="46.84401" lon="0.53438">
        <ele>49.3</ele>
        <time>2020-07-03T16:10:27Z</time>
      </trkpt>
      <trkpt lat="46.84395" lon="0.53438">
        <ele>49.3</ele>
        <time>2020-07-03T16:10:28Z</time>
      </trkpt>
      <trkpt lat="46.84389" lon="0.53437">
        <ele>49.3</ele>
        <time>2020-07-03T16:10:29Z</time>
      </trkpt>
      <trkpt lat="46.84383" lon="0.53437">
        <ele>49.3</ele>
        <time>2020-07-03T16:10:30Z</time>
      </trkpt>
      <trkpt lat="46.84377" lon="0.53437">
        <ele>49.4</ele>
        <time>2020-07-03T16:10:31Z</time>
      </trkpt>
      <trkpt lat="46.84371" lon="0.53437">
        <ele>49.4</ele>
        <time>2020-07-03T16:10:32Z</time>
      </trkpt>
      <trkpt lat="46.84365" lon="0.53436">
        <ele>49.5</ele>
        <time>2020-07-03T16:10:33Z</time>
      </trkpt>
      <trkpt lat="46.84359" lon="0.53436">
        <ele>49.5</ele>
        <time>2020-07-03T16:10:34Z</time>
      </trkpt>
      <trkpt lat="46.84354" lon="0.53436">
        <ele>49.5</ele>
        <time>2020-07-03T16:10:35Z</time>
      </trkpt>
      <trkpt lat="46.84348" lon="0.53436">
        <ele>49.5</ele>
        <time>2020-07-03T16:10:36Z</time>
      </trkpt>
      <trkpt lat="46.84339" lon="0.53434">
        <ele>49.6</ele>
        <time>2020-07-03T16:10:37Z</time>
      </trkpt>
      <trkpt lat="46.84333" lon="0.53435">
        <ele>49.6</ele>
        <time>2020-07-03T16:10:38Z</time>
      </trkpt>
      <trkpt lat="46.84328" lon="0.53434">
        <ele>49.6</ele>
        <time>2020-07-03T16:10:39Z</time>
      </trkpt>
      <trkpt lat="46.84321" lon="0.53434">
        <ele>49.7</ele>
        <time>2020-07-03T16:10:40Z</time>
      </trkpt>
      <trkpt lat="46.84316" lon="0.53433">
        <ele>49.7</ele>
        <time>2020-07-03T16:10:41Z</time>
      </trkpt>
      <trkpt lat="46.8431" lon="0.53434">
        <ele>49.7</ele>
        <time>2020-07-03T16:10:42Z</time>
      </trkpt>
      <trkpt lat="46.84304" lon="0.53434">
        <ele>49.7</ele>
        <time>2020-07-03T16:10:43Z</time>
      </trkpt>
      <trkpt lat="46.84298" lon="0.53433">
        <ele>49.7</ele>
        <time>2020-07-03T16:10:44Z</time>
      </trkpt>
      <trkpt lat="46.84292" lon="0.53432">
        <ele>49.7</ele>
        <time>2020-07-03T16:10:45Z</time>
      </trkpt>
      <trkpt lat="46.84286" lon="0.53431">
        <ele>49.7</ele>
        <time>2020-07-03T16:10:46Z</time>
      </trkpt>
      <trkpt lat="46.84281" lon="0.5343">
        <ele>49.7</ele>
        <time>2020-07-03T16:10:47Z</time>
      </trkpt>
      <trkpt lat="46.84275" lon="0.5343">
        <ele>49.8</ele>
        <time>2020-07-03T16:10:48Z</time>
      </trkpt>
      <trkpt lat="46.84269" lon="0.53429">
        <ele>49.8</ele>
        <time>2020-07-03T16:10:49Z</time>
      </trkpt>
      <trkpt lat="46.84262" lon="0.53428">
        <ele>49.9</ele>
        <time>2020-07-03T16:10:50Z</time>
      </trkpt>
      <trkpt lat="46.84255" lon="0.53428">
        <ele>50</ele>
        <time>2020-07-03T16:10:51Z</time>
      </trkpt>
      <trkpt lat="46.84248" lon="0.53428">
        <ele>50</ele>
        <time>2020-07-03T16:10:52Z</time>
      </trkpt>
      <trkpt lat="46.84241" lon="0.53428">
        <ele>50.1</ele>
        <time>2020-07-03T16:10:53Z</time>
      </trkpt>
      <trkpt lat="46.84236" lon="0.53428">
        <ele>50.1</ele>
        <time>2020-07-03T16:10:54Z</time>
      </trkpt>
      <trkpt lat="46.8423" lon="0.53428">
        <ele>50.1</ele>
        <time>2020-07-03T16:10:55Z</time>
      </trkpt>
      <trkpt lat="46.84223" lon="0.53427">
        <ele>50.1</ele>
        <time>2020-07-03T16:10:56Z</time>
      </trkpt>
      <trkpt lat="46.84216" lon="0.53426">
        <ele>50.1</ele>
        <time>2020-07-03T16:10:57Z</time>
      </trkpt>
      <trkpt lat="46.84209" lon="0.53425">
        <ele>50.1</ele>
        <time>2020-07-03T16:10:58Z</time>
      </trkpt>
      <trkpt lat="46.84202" lon="0.53424">
        <ele>50.1</ele>
        <time>2020-07-03T16:10:59Z</time>
      </trkpt>
      <trkpt lat="46.84196" lon="0.53424">
        <ele>50.2</ele>
        <time>2020-07-03T16:11:00Z</time>
      </trkpt>
      <trkpt lat="46.84189" lon="0.53424">
        <ele>50.2</ele>
        <time>2020-07-03T16:11:01Z</time>
      </trkpt>
      <trkpt lat="46.84185" lon="0.53423">
        <ele>50.2</ele>
        <time>2020-07-03T16:11:02Z</time>
      </trkpt>
      <trkpt lat="46.8418" lon="0.53422">
        <ele>50.2</ele>
        <time>2020-07-03T16:11:03Z</time>
      </trkpt>
      <trkpt lat="46.84173" lon="0.53422">
        <ele>50.3</ele>
        <time>2020-07-03T16:11:04Z</time>
      </trkpt>
      <trkpt lat="46.84167" lon="0.53422">
        <ele>50.3</ele>
        <time>2020-07-03T16:11:05Z</time>
      </trkpt>
      <trkpt lat="46.8416" lon="0.53422">
        <ele>50.3</ele>
        <time>2020-07-03T16:11:06Z</time>
      </trkpt>
      <trkpt lat="46.84154" lon="0.53422">
        <ele>50.4</ele>
        <time>2020-07-03T16:11:07Z</time>
      </trkpt>
      <trkpt lat="46.84147" lon="0.53422">
        <ele>50.4</ele>
        <time>2020-07-03T16:11:08Z</time>
      </trkpt>
      <trkpt lat="46.84141" lon="0.53421">
        <ele>50.4</ele>
        <time>2020-07-03T16:11:09Z</time>
      </trkpt>
      <trkpt lat="46.84135" lon="0.53421">
        <ele>50.4</ele>
        <time>2020-07-03T16:11:10Z</time>
      </trkpt>
      <trkpt lat="46.84129" lon="0.5342">
        <ele>50.5</ele>
        <time>2020-07-03T16:11:11Z</time>
      </trkpt>
      <trkpt lat="46.84123" lon="0.5342">
        <ele>50.5</ele>
        <time>2020-07-03T16:11:12Z</time>
      </trkpt>
      <trkpt lat="46.84118" lon="0.5342">
        <ele>50.5</ele>
        <time>2020-07-03T16:11:13Z</time>
      </trkpt>
      <trkpt lat="46.84111" lon="0.53419">
        <ele>50.6</ele>
        <time>2020-07-03T16:11:14Z</time>
      </trkpt>
      <trkpt lat="46.84104" lon="0.53419">
        <ele>50.6</ele>
        <time>2020-07-03T16:11:15Z</time>
      </trkpt>
      <trkpt lat="46.84097" lon="0.53418">
        <ele>50.7</ele>
        <time>2020-07-03T16:11:16Z</time>
      </trkpt>
      <trkpt lat="46.84092" lon="0.53418">
        <ele>50.7</ele>
        <time>2020-07-03T16:11:17Z</time>
      </trkpt>
      <trkpt lat="46.84087" lon="0.53419">
        <ele>50.7</ele>
        <time>2020-07-03T16:11:18Z</time>
      </trkpt>
      <trkpt lat="46.84083" lon="0.5342">
        <ele>50.7</ele>
        <time>2020-07-03T16:11:19Z</time>
      </trkpt>
      <trkpt lat="46.84077" lon="0.53418">
        <ele>50.7</ele>
        <time>2020-07-03T16:11:20Z</time>
      </trkpt>
      <trkpt lat="46.8407" lon="0.53417">
        <ele>50.8</ele>
        <time>2020-07-03T16:11:21Z</time>
      </trkpt>
      <trkpt lat="46.84064" lon="0.53416">
        <ele>50.8</ele>
        <time>2020-07-03T16:11:22Z</time>
      </trkpt>
      <trkpt lat="46.84059" lon="0.53415">
        <ele>50.9</ele>
        <time>2020-07-03T16:11:23Z</time>
      </trkpt>
      <trkpt lat="46.84055" lon="0.53415">
        <ele>50.9</ele>
        <time>2020-07-03T16:11:24Z</time>
      </trkpt>
      <trkpt lat="46.84051" lon="0.53414">
        <ele>50.9</ele>
        <time>2020-07-03T16:11:25Z</time>
      </trkpt>
      <trkpt lat="46.84046" lon="0.53414">
        <ele>50.9</ele>
        <time>2020-07-03T16:11:26Z</time>
      </trkpt>
      <trkpt lat="46.84041" lon="0.53413">
        <ele>50.9</ele>
        <time>2020-07-03T16:11:27Z</time>
      </trkpt>
      <trkpt lat="46.84035" lon="0.53413">
        <ele>50.9</ele>
        <time>2020-07-03T16:11:28Z</time>
      </trkpt>
      <trkpt lat="46.84029" lon="0.53413">
        <ele>50.9</ele>
        <time>2020-07-03T16:11:29Z</time>
      </trkpt>
      <trkpt lat="46.84024" lon="0.53413">
        <ele>50.9</ele>
        <time>2020-07-03T16:11:30Z</time>
      </trkpt>
      <trkpt lat="46.84017" lon="0.53413">
        <ele>50.9</ele>
        <time>2020-07-03T16:11:31Z</time>
      </trkpt>
      <trkpt lat="46.84012" lon="0.53412">
        <ele>50.9</ele>
        <time>2020-07-03T16:11:32Z</time>
      </trkpt>
      <trkpt lat="46.84006" lon="0.53412">
        <ele>50.9</ele>
        <time>2020-07-03T16:11:33Z</time>
      </trkpt>
      <trkpt lat="46.84002" lon="0.53413">
        <ele>50.9</ele>
        <time>2020-07-03T16:11:34Z</time>
      </trkpt>
      <trkpt lat="46.83994" lon="0.53414">
        <ele>50.8</ele>
        <time>2020-07-03T16:11:35Z</time>
      </trkpt>
      <trkpt lat="46.83989" lon="0.53414">
        <ele>50.8</ele>
        <time>2020-07-03T16:11:36Z</time>
      </trkpt>
      <trkpt lat="46.83983" lon="0.53412">
        <ele>50.9</ele>
        <time>2020-07-03T16:11:37Z</time>
      </trkpt>
      <trkpt lat="46.83977" lon="0.53411">
        <ele>50.9</ele>
        <time>2020-07-03T16:11:38Z</time>
      </trkpt>
      <trkpt lat="46.83969" lon="0.53411">
        <ele>50.9</ele>
        <time>2020-07-03T16:11:39Z</time>
      </trkpt>
      <trkpt lat="46.83961" lon="0.53409">
        <ele>51</ele>
        <time>2020-07-03T16:11:40Z</time>
      </trkpt>
      <trkpt lat="46.83954" lon="0.53408">
        <ele>51</ele>
        <time>2020-07-03T16:11:41Z</time>
      </trkpt>
      <trkpt lat="46.83947" lon="0.53407">
        <ele>51.1</ele>
        <time>2020-07-03T16:11:42Z</time>
      </trkpt>
      <trkpt lat="46.83941" lon="0.53406">
        <ele>51.1</ele>
        <time>2020-07-03T16:11:43Z</time>
      </trkpt>
      <trkpt lat="46.83935" lon="0.53404">
        <ele>51</ele>
        <time>2020-07-03T16:11:44Z</time>
      </trkpt>
      <trkpt lat="46.8393" lon="0.53403">
        <ele>51</ele>
        <time>2020-07-03T16:11:45Z</time>
      </trkpt>
      <trkpt lat="46.83924" lon="0.53401">
        <ele>51</ele>
        <time>2020-07-03T16:11:46Z</time>
      </trkpt>
      <trkpt lat="46.83918" lon="0.53398">
        <ele>51</ele>
        <time>2020-07-03T16:11:47Z</time>
      </trkpt>
      <trkpt lat="46.83912" lon="0.53396">
        <ele>51</ele>
        <time>2020-07-03T16:11:48Z</time>
      </trkpt>
      <trkpt lat="46.83907" lon="0.53392">
        <ele>51</ele>
        <time>2020-07-03T16:11:49Z</time>
      </trkpt>
      <trkpt lat="46.83901" lon="0.53388">
        <ele>51</ele>
        <time>2020-07-03T16:11:50Z</time>
      </trkpt>
      <trkpt lat="46.83896" lon="0.53384">
        <ele>51</ele>
        <time>2020-07-03T16:11:51Z</time>
      </trkpt>
      <trkpt lat="46.83891" lon="0.5338">
        <ele>51</ele>
        <time>2020-07-03T16:11:52Z</time>
      </trkpt>
      <trkpt lat="46.83886" lon="0.53374">
        <ele>51</ele>
        <time>2020-07-03T16:11:53Z</time>
      </trkpt>
      <trkpt lat="46.8388" lon="0.53369">
        <ele>51</ele>
        <time>2020-07-03T16:11:54Z</time>
      </trkpt>
      <trkpt lat="46.83876" lon="0.53362">
        <ele>51.1</ele>
        <time>2020-07-03T16:11:55Z</time>
      </trkpt>
      <trkpt lat="46.83873" lon="0.53356">
        <ele>51.1</ele>
        <time>2020-07-03T16:11:56Z</time>
      </trkpt>
      <trkpt lat="46.83869" lon="0.53348">
        <ele>51</ele>
        <time>2020-07-03T16:11:57Z</time>
      </trkpt>
      <trkpt lat="46.83865" lon="0.53342">
        <ele>51</ele>
        <time>2020-07-03T16:11:58Z</time>
      </trkpt>
      <trkpt lat="46.83861" lon="0.53335">
        <ele>50.7</ele>
        <time>2020-07-03T16:11:59Z</time>
      </trkpt>
      <trkpt lat="46.83856" lon="0.53331">
        <ele>50.5</ele>
        <time>2020-07-03T16:12:00Z</time>
      </trkpt>
      <trkpt lat="46.83851" lon="0.53334">
        <ele>50.4</ele>
        <time>2020-07-03T16:12:01Z</time>
      </trkpt>
      <trkpt lat="46.83846" lon="0.53336">
        <ele>50.4</ele>
        <time>2020-07-03T16:12:02Z</time>
      </trkpt>
      <trkpt lat="46.83843" lon="0.53343">
        <ele>50.4</ele>
        <time>2020-07-03T16:12:03Z</time>
      </trkpt>
      <trkpt lat="46.8384" lon="0.53352">
        <ele>50.5</ele>
        <time>2020-07-03T16:12:04Z</time>
      </trkpt>
      <trkpt lat="46.83837" lon="0.5336">
        <ele>50.5</ele>
        <time>2020-07-03T16:12:05Z</time>
      </trkpt>
      <trkpt lat="46.83834" lon="0.53368">
        <ele>50.5</ele>
        <time>2020-07-03T16:12:06Z</time>
      </trkpt>
      <trkpt lat="46.8383" lon="0.53375">
        <ele>50.5</ele>
        <time>2020-07-03T16:12:07Z</time>
      </trkpt>
      <trkpt lat="46.83826" lon="0.53383">
        <ele>50.5</ele>
        <time>2020-07-03T16:12:08Z</time>
      </trkpt>
      <trkpt lat="46.83822" lon="0.5339">
        <ele>50.5</ele>
        <time>2020-07-03T16:12:09Z</time>
      </trkpt>
      <trkpt lat="46.83817" lon="0.53394">
        <ele>50.5</ele>
        <time>2020-07-03T16:12:10Z</time>
      </trkpt>
      <trkpt lat="46.8381" lon="0.53399">
        <ele>50.5</ele>
        <time>2020-07-03T16:12:11Z</time>
      </trkpt>
      <trkpt lat="46.83804" lon="0.534">
        <ele>50.5</ele>
        <time>2020-07-03T16:12:12Z</time>
      </trkpt>
      <trkpt lat="46.83797" lon="0.53404">
        <ele>50.5</ele>
        <time>2020-07-03T16:12:13Z</time>
      </trkpt>
      <trkpt lat="46.83792" lon="0.53407">
        <ele>50.5</ele>
        <time>2020-07-03T16:12:14Z</time>
      </trkpt>
      <trkpt lat="46.83786" lon="0.5341">
        <ele>50.5</ele>
        <time>2020-07-03T16:12:15Z</time>
      </trkpt>
      <trkpt lat="46.8378" lon="0.53412">
        <ele>50.5</ele>
        <time>2020-07-03T16:12:16Z</time>
      </trkpt>
      <trkpt lat="46.83774" lon="0.53415">
        <ele>50.5</ele>
        <time>2020-07-03T16:12:17Z</time>
      </trkpt>
      <trkpt lat="46.83768" lon="0.53416">
        <ele>50.5</ele>
        <time>2020-07-03T16:12:18Z</time>
      </trkpt>
      <trkpt lat="46.83762" lon="0.53418">
        <ele>50.5</ele>
        <time>2020-07-03T16:12:19Z</time>
      </trkpt>
      <trkpt lat="46.83756" lon="0.53419">
        <ele>50.5</ele>
        <time>2020-07-03T16:12:20Z</time>
      </trkpt>
      <trkpt lat="46.83749" lon="0.5342">
        <ele>50.6</ele>
        <time>2020-07-03T16:12:21Z</time>
      </trkpt>
      <trkpt lat="46.83742" lon="0.5342">
        <ele>50.7</ele>
        <time>2020-07-03T16:12:22Z</time>
      </trkpt>
      <trkpt lat="46.83736" lon="0.53417">
        <ele>50.8</ele>
        <time>2020-07-03T16:12:23Z</time>
      </trkpt>
      <trkpt lat="46.8373" lon="0.53413">
        <ele>50.9</ele>
        <time>2020-07-03T16:12:24Z</time>
      </trkpt>
      <trkpt lat="46.83724" lon="0.53408">
        <ele>51</ele>
        <time>2020-07-03T16:12:25Z</time>
      </trkpt>
      <trkpt lat="46.83719" lon="0.53402">
        <ele>51.2</ele>
        <time>2020-07-03T16:12:26Z</time>
      </trkpt>
      <trkpt lat="46.83714" lon="0.53396">
        <ele>51.6</ele>
        <time>2020-07-03T16:12:27Z</time>
      </trkpt>
      <trkpt lat="46.83711" lon="0.53391">
        <ele>51.6</ele>
        <time>2020-07-03T16:12:28Z</time>
      </trkpt>
      <trkpt lat="46.83707" lon="0.53386">
        <ele>51.5</ele>
        <time>2020-07-03T16:12:29Z</time>
      </trkpt>
      <trkpt lat="46.83702" lon="0.53381">
        <ele>51.4</ele>
        <time>2020-07-03T16:12:30Z</time>
      </trkpt>
      <trkpt lat="46.83698" lon="0.53376">
        <ele>51.4</ele>
        <time>2020-07-03T16:12:31Z</time>
      </trkpt>
      <trkpt lat="46.83695" lon="0.53371">
        <ele>51.4</ele>
        <time>2020-07-03T16:12:32Z</time>
      </trkpt>
      <trkpt lat="46.83692" lon="0.53366">
        <ele>51.4</ele>
        <time>2020-07-03T16:12:33Z</time>
      </trkpt>
      <trkpt lat="46.83687" lon="0.5336">
        <ele>51.4</ele>
        <time>2020-07-03T16:12:34Z</time>
      </trkpt>
      <trkpt lat="46.83683" lon="0.53356">
        <ele>51.4</ele>
        <time>2020-07-03T16:12:35Z</time>
      </trkpt>
      <trkpt lat="46.83681" lon="0.5335">
        <ele>51.4</ele>
        <time>2020-07-03T16:12:36Z</time>
      </trkpt>
      <trkpt lat="46.8368" lon="0.53344">
        <ele>51.4</ele>
        <time>2020-07-03T16:12:37Z</time>
      </trkpt>
      <trkpt lat="46.83681" lon="0.53336">
        <ele>51.4</ele>
        <time>2020-07-03T16:12:38Z</time>
      </trkpt>
      <trkpt lat="46.83682" lon="0.53329">
        <ele>51.4</ele>
        <time>2020-07-03T16:12:39Z</time>
      </trkpt>
      <trkpt lat="46.83683" lon="0.53323">
        <ele>51.4</ele>
        <time>2020-07-03T16:12:40Z</time>
      </trkpt>
      <trkpt lat="46.83682" lon="0.53316">
        <ele>51.4</ele>
        <time>2020-07-03T16:12:41Z</time>
      </trkpt>
      <trkpt lat="46.83682" lon="0.5331">
        <ele>51.4</ele>
        <time>2020-07-03T16:12:42Z</time>
      </trkpt>
      <trkpt lat="46.83681" lon="0.53303">
        <ele>51.4</ele>
        <time>2020-07-03T16:12:43Z</time>
      </trkpt>
      <trkpt lat="46.83681" lon="0.53297">
        <ele>51.4</ele>
        <time>2020-07-03T16:12:44Z</time>
      </trkpt>
      <trkpt lat="46.83678" lon="0.53291">
        <ele>51.4</ele>
        <time>2020-07-03T16:12:45Z</time>
      </trkpt>
      <trkpt lat="46.83675" lon="0.53284">
        <ele>51.3</ele>
        <time>2020-07-03T16:12:46Z</time>
      </trkpt>
      <trkpt lat="46.83671" lon="0.53279">
        <ele>51.3</ele>
        <time>2020-07-03T16:12:47Z</time>
      </trkpt>
      <trkpt lat="46.83667" lon="0.53275">
        <ele>51.3</ele>
        <time>2020-07-03T16:12:48Z</time>
      </trkpt>
      <trkpt lat="46.83664" lon="0.53271">
        <ele>51.3</ele>
        <time>2020-07-03T16:12:49Z</time>
      </trkpt>
      <trkpt lat="46.83659" lon="0.53267">
        <ele>51.3</ele>
        <time>2020-07-03T16:12:50Z</time>
      </trkpt>
      <trkpt lat="46.83655" lon="0.53265">
        <ele>51.3</ele>
        <time>2020-07-03T16:12:51Z</time>
      </trkpt>
      <trkpt lat="46.83651" lon="0.53263">
        <ele>51.2</ele>
        <time>2020-07-03T16:12:52Z</time>
      </trkpt>
      <trkpt lat="46.83646" lon="0.53263">
        <ele>51.2</ele>
        <time>2020-07-03T16:12:53Z</time>
      </trkpt>
      <trkpt lat="46.83641" lon="0.53262">
        <ele>51.2</ele>
        <time>2020-07-03T16:12:54Z</time>
      </trkpt>
      <trkpt lat="46.83636" lon="0.53262">
        <ele>51.2</ele>
        <time>2020-07-03T16:12:55Z</time>
      </trkpt>
      <trkpt lat="46.83632" lon="0.53262">
        <ele>51.2</ele>
        <time>2020-07-03T16:12:56Z</time>
      </trkpt>
      <trkpt lat="46.83627" lon="0.53263">
        <ele>51.2</ele>
        <time>2020-07-03T16:12:57Z</time>
      </trkpt>
      <trkpt lat="46.83621" lon="0.53267">
        <ele>51.1</ele>
        <time>2020-07-03T16:12:58Z</time>
      </trkpt>
      <trkpt lat="46.83616" lon="0.53273">
        <ele>51.2</ele>
        <time>2020-07-03T16:12:59Z</time>
      </trkpt>
      <trkpt lat="46.83612" lon="0.53279">
        <ele>51.3</ele>
        <time>2020-07-03T16:13:00Z</time>
      </trkpt>
      <trkpt lat="46.83609" lon="0.53285">
        <ele>51.3</ele>
        <time>2020-07-03T16:13:01Z</time>
      </trkpt>
      <trkpt lat="46.83606" lon="0.53291">
        <ele>51.4</ele>
        <time>2020-07-03T16:13:02Z</time>
      </trkpt>
      <trkpt lat="46.83604" lon="0.53298">
        <ele>51.5</ele>
        <time>2020-07-03T16:13:03Z</time>
      </trkpt>
      <trkpt lat="46.83602" lon="0.53304">
        <ele>51.6</ele>
        <time>2020-07-03T16:13:04Z</time>
      </trkpt>
      <trkpt lat="46.83601" lon="0.53311">
        <ele>51.6</ele>
        <time>2020-07-03T16:13:05Z</time>
      </trkpt>
      <trkpt lat="46.83599" lon="0.53319">
        <ele>51.7</ele>
        <time>2020-07-03T16:13:06Z</time>
      </trkpt>
      <trkpt lat="46.83598" lon="0.53326">
        <ele>51.7</ele>
        <time>2020-07-03T16:13:07Z</time>
      </trkpt>
      <trkpt lat="46.83598" lon="0.53332">
        <ele>51.7</ele>
        <time>2020-07-03T16:13:08Z</time>
      </trkpt>
      <trkpt lat="46.83599" lon="0.53336">
        <ele>51.6</ele>
        <time>2020-07-03T16:13:09Z</time>
      </trkpt>
      <trkpt lat="46.83601" lon="0.53342">
        <ele>51.6</ele>
        <time>2020-07-03T16:13:10Z</time>
      </trkpt>
      <trkpt lat="46.83602" lon="0.53347">
        <ele>51.6</ele>
        <time>2020-07-03T16:13:11Z</time>
      </trkpt>
      <trkpt lat="46.83602" lon="0.53349">
        <ele>51.6</ele>
        <time>2020-07-03T16:13:12Z</time>
      </trkpt>
      <trkpt lat="46.83604" lon="0.53355">
        <ele>51.6</ele>
        <time>2020-07-03T16:13:13Z</time>
      </trkpt>
      <trkpt lat="46.83606" lon="0.5336">
        <ele>51.6</ele>
        <time>2020-07-03T16:13:14Z</time>
      </trkpt>
      <trkpt lat="46.83609" lon="0.53365">
        <ele>51.6</ele>
        <time>2020-07-03T16:13:15Z</time>
      </trkpt>
      <trkpt lat="46.83612" lon="0.53368">
        <ele>51.6</ele>
        <time>2020-07-03T16:13:16Z</time>
      </trkpt>
      <trkpt lat="46.83614" lon="0.53371">
        <ele>51.7</ele>
        <time>2020-07-03T16:13:17Z</time>
      </trkpt>
      <trkpt lat="46.83617" lon="0.53374">
        <ele>51.7</ele>
        <time>2020-07-03T16:13:18Z</time>
      </trkpt>
      <trkpt lat="46.8362" lon="0.53376">
        <ele>51.7</ele>
        <time>2020-07-03T16:13:19Z</time>
      </trkpt>
      <trkpt lat="46.83622" lon="0.53379">
        <ele>51.7</ele>
        <time>2020-07-03T16:13:20Z</time>
      </trkpt>
      <trkpt lat="46.83624" lon="0.53382">
        <ele>51.7</ele>
        <time>2020-07-03T16:13:21Z</time>
      </trkpt>
      <trkpt lat="46.83627" lon="0.53384">
        <ele>51.7</ele>
        <time>2020-07-03T16:13:22Z</time>
      </trkpt>
      <trkpt lat="46.83629" lon="0.53387">
        <ele>51.8</ele>
        <time>2020-07-03T16:13:23Z</time>
      </trkpt>
      <trkpt lat="46.83633" lon="0.53387">
        <ele>51.8</ele>
        <time>2020-07-03T16:13:24Z</time>
      </trkpt>
      <trkpt lat="46.83637" lon="0.53388">
        <ele>51.8</ele>
        <time>2020-07-03T16:13:25Z</time>
      </trkpt>
      <trkpt lat="46.8364" lon="0.53388">
        <ele>51.9</ele>
        <time>2020-07-03T16:13:26Z</time>
      </trkpt>
      <trkpt lat="46.83643" lon="0.53387">
        <ele>51.9</ele>
        <time>2020-07-03T16:13:27Z</time>
      </trkpt>
      <trkpt lat="46.83647" lon="0.53386">
        <ele>52</ele>
        <time>2020-07-03T16:13:28Z</time>
      </trkpt>
      <trkpt lat="46.83651" lon="0.53385">
        <ele>52.1</ele>
        <time>2020-07-03T16:13:29Z</time>
      </trkpt>
      <trkpt lat="46.83655" lon="0.53384">
        <ele>52.1</ele>
        <time>2020-07-03T16:13:30Z</time>
      </trkpt>
      <trkpt lat="46.83658" lon="0.53383">
        <ele>52.1</ele>
        <time>2020-07-03T16:13:31Z</time>
      </trkpt>
      <trkpt lat="46.83662" lon="0.53381">
        <ele>52.2</ele>
        <time>2020-07-03T16:13:32Z</time>
      </trkpt>
      <trkpt lat="46.83666" lon="0.53379">
        <ele>52.2</ele>
        <time>2020-07-03T16:13:33Z</time>
      </trkpt>
      <trkpt lat="46.8367" lon="0.53374">
        <ele>52.1</ele>
        <time>2020-07-03T16:13:34Z</time>
      </trkpt>
      <trkpt lat="46.83673" lon="0.53369">
        <ele>52</ele>
        <time>2020-07-03T16:13:35Z</time>
      </trkpt>
      <trkpt lat="46.83675" lon="0.53365">
        <ele>51.9</ele>
        <time>2020-07-03T16:13:36Z</time>
      </trkpt>
      <trkpt lat="46.83678" lon="0.53359">
        <ele>51.8</ele>
        <time>2020-07-03T16:13:37Z</time>
      </trkpt>
      <trkpt lat="46.83681" lon="0.53352">
        <ele>51.5</ele>
        <time>2020-07-03T16:13:38Z</time>
      </trkpt>
      <trkpt lat="46.83683" lon="0.53345">
        <ele>51.4</ele>
        <time>2020-07-03T16:13:39Z</time>
      </trkpt>
      <trkpt lat="46.83684" lon="0.53338">
        <ele>51.4</ele>
        <time>2020-07-03T16:13:40Z</time>
      </trkpt>
      <trkpt lat="46.83684" lon="0.53329">
        <ele>51.4</ele>
        <time>2020-07-03T16:13:41Z</time>
      </trkpt>
      <trkpt lat="46.83684" lon="0.53321">
        <ele>51.4</ele>
        <time>2020-07-03T16:13:42Z</time>
      </trkpt>
      <trkpt lat="46.83684" lon="0.53313">
        <ele>51.4</ele>
        <time>2020-07-03T16:13:43Z</time>
      </trkpt>
      <trkpt lat="46.83683" lon="0.53306">
        <ele>51.4</ele>
        <time>2020-07-03T16:13:44Z</time>
      </trkpt>
      <trkpt lat="46.83681" lon="0.53299">
        <ele>51.4</ele>
        <time>2020-07-03T16:13:45Z</time>
      </trkpt>
      <trkpt lat="46.83679" lon="0.53292">
        <ele>51.4</ele>
        <time>2020-07-03T16:13:46Z</time>
      </trkpt>
      <trkpt lat="46.83675" lon="0.53285">
        <ele>51.4</ele>
        <time>2020-07-03T16:13:47Z</time>
      </trkpt>
      <trkpt lat="46.83671" lon="0.53278">
        <ele>51.3</ele>
        <time>2020-07-03T16:13:48Z</time>
      </trkpt>
      <trkpt lat="46.83667" lon="0.53272">
        <ele>51.3</ele>
        <time>2020-07-03T16:13:49Z</time>
      </trkpt>
      <trkpt lat="46.83662" lon="0.53268">
        <ele>51.3</ele>
        <time>2020-07-03T16:13:50Z</time>
      </trkpt>
      <trkpt lat="46.83657" lon="0.53267">
        <ele>51.3</ele>
        <time>2020-07-03T16:13:51Z</time>
      </trkpt>
      <trkpt lat="46.83652" lon="0.53265">
        <ele>51.3</ele>
        <time>2020-07-03T16:13:52Z</time>
      </trkpt>
      <trkpt lat="46.83645" lon="0.53263">
        <ele>51.2</ele>
        <time>2020-07-03T16:13:53Z</time>
      </trkpt>
      <trkpt lat="46.83638" lon="0.53261">
        <ele>51.2</ele>
        <time>2020-07-03T16:13:54Z</time>
      </trkpt>
      <trkpt lat="46.83633" lon="0.5326">
        <ele>51.2</ele>
        <time>2020-07-03T16:13:55Z</time>
      </trkpt>
      <trkpt lat="46.83627" lon="0.53261">
        <ele>51.2</ele>
        <time>2020-07-03T16:13:56Z</time>
      </trkpt>
      <trkpt lat="46.83621" lon="0.53265">
        <ele>51.1</ele>
        <time>2020-07-03T16:13:57Z</time>
      </trkpt>
      <trkpt lat="46.83614" lon="0.53267">
        <ele>50.9</ele>
        <time>2020-07-03T16:13:58Z</time>
      </trkpt>
      <trkpt lat="46.83609" lon="0.53266">
        <ele>50.8</ele>
        <time>2020-07-03T16:13:59Z</time>
      </trkpt>
      <trkpt lat="46.83603" lon="0.53263">
        <ele>50.7</ele>
        <time>2020-07-03T16:14:00Z</time>
      </trkpt>
      <trkpt lat="46.83598" lon="0.53257">
        <ele>50.6</ele>
        <time>2020-07-03T16:14:01Z</time>
      </trkpt>
      <trkpt lat="46.83593" lon="0.53252">
        <ele>50.5</ele>
        <time>2020-07-03T16:14:02Z</time>
      </trkpt>
      <trkpt lat="46.83588" lon="0.53247">
        <ele>50.5</ele>
        <time>2020-07-03T16:14:03Z</time>
      </trkpt>
      <trkpt lat="46.83582" lon="0.53242">
        <ele>50.4</ele>
        <time>2020-07-03T16:14:04Z</time>
      </trkpt>
      <trkpt lat="46.83577" lon="0.53236">
        <ele>50.4</ele>
        <time>2020-07-03T16:14:05Z</time>
      </trkpt>
      <trkpt lat="46.83572" lon="0.53231">
        <ele>50.4</ele>
        <time>2020-07-03T16:14:06Z</time>
      </trkpt>
      <trkpt lat="46.83568" lon="0.53226">
        <ele>50.3</ele>
        <time>2020-07-03T16:14:07Z</time>
      </trkpt>
      <trkpt lat="46.83563" lon="0.53221">
        <ele>50.3</ele>
        <time>2020-07-03T16:14:08Z</time>
      </trkpt>
      <trkpt lat="46.83557" lon="0.53215">
        <ele>50.2</ele>
        <time>2020-07-03T16:14:09Z</time>
      </trkpt>
      <trkpt lat="46.83551" lon="0.5321">
        <ele>50.1</ele>
        <time>2020-07-03T16:14:10Z</time>
      </trkpt>
      <trkpt lat="46.83546" lon="0.53205">
        <ele>49.9</ele>
        <time>2020-07-03T16:14:11Z</time>
      </trkpt>
      <trkpt lat="46.83541" lon="0.53201">
        <ele>49.9</ele>
        <time>2020-07-03T16:14:12Z</time>
      </trkpt>
      <trkpt lat="46.83535" lon="0.53196">
        <ele>49.8</ele>
        <time>2020-07-03T16:14:13Z</time>
      </trkpt>
      <trkpt lat="46.83529" lon="0.53191">
        <ele>49.8</ele>
        <time>2020-07-03T16:14:14Z</time>
      </trkpt>
      <trkpt lat="46.83524" lon="0.53187">
        <ele>49.7</ele>
        <time>2020-07-03T16:14:15Z</time>
      </trkpt>
      <trkpt lat="46.83518" lon="0.53182">
        <ele>49.7</ele>
        <time>2020-07-03T16:14:16Z</time>
      </trkpt>
      <trkpt lat="46.83512" lon="0.53177">
        <ele>49.6</ele>
        <time>2020-07-03T16:14:17Z</time>
      </trkpt>
      <trkpt lat="46.83507" lon="0.53171">
        <ele>49.6</ele>
        <time>2020-07-03T16:14:18Z</time>
      </trkpt>
      <trkpt lat="46.83502" lon="0.53166">
        <ele>49.5</ele>
        <time>2020-07-03T16:14:19Z</time>
      </trkpt>
      <trkpt lat="46.83496" lon="0.53161">
        <ele>49.5</ele>
        <time>2020-07-03T16:14:20Z</time>
      </trkpt>
      <trkpt lat="46.8349" lon="0.53156">
        <ele>49.4</ele>
        <time>2020-07-03T16:14:21Z</time>
      </trkpt>
      <trkpt lat="46.83484" lon="0.53151">
        <ele>49.4</ele>
        <time>2020-07-03T16:14:22Z</time>
      </trkpt>
      <trkpt lat="46.83479" lon="0.53145">
        <ele>49.3</ele>
        <time>2020-07-03T16:14:23Z</time>
      </trkpt>
      <trkpt lat="46.83472" lon="0.53139">
        <ele>49.2</ele>
        <time>2020-07-03T16:14:24Z</time>
      </trkpt>
      <trkpt lat="46.83466" lon="0.53133">
        <ele>49.1</ele>
        <time>2020-07-03T16:14:25Z</time>
      </trkpt>
      <trkpt lat="46.83459" lon="0.53128">
        <ele>49.1</ele>
        <time>2020-07-03T16:14:26Z</time>
      </trkpt>
      <trkpt lat="46.83453" lon="0.53123">
        <ele>49</ele>
        <time>2020-07-03T16:14:27Z</time>
      </trkpt>
      <trkpt lat="46.83447" lon="0.53118">
        <ele>48.9</ele>
        <time>2020-07-03T16:14:28Z</time>
      </trkpt>
      <trkpt lat="46.83441" lon="0.53112">
        <ele>48.8</ele>
        <time>2020-07-03T16:14:29Z</time>
      </trkpt>
      <trkpt lat="46.83435" lon="0.53107">
        <ele>48.7</ele>
        <time>2020-07-03T16:14:30Z</time>
      </trkpt>
      <trkpt lat="46.83429" lon="0.53103">
        <ele>48.6</ele>
        <time>2020-07-03T16:14:31Z</time>
      </trkpt>
      <trkpt lat="46.83422" lon="0.53098">
        <ele>48.6</ele>
        <time>2020-07-03T16:14:32Z</time>
      </trkpt>
      <trkpt lat="46.83416" lon="0.53094">
        <ele>48.5</ele>
        <time>2020-07-03T16:14:33Z</time>
      </trkpt>
      <trkpt lat="46.8341" lon="0.53091">
        <ele>48.4</ele>
        <time>2020-07-03T16:14:34Z</time>
      </trkpt>
      <trkpt lat="46.83403" lon="0.53087">
        <ele>48.4</ele>
        <time>2020-07-03T16:14:35Z</time>
      </trkpt>
      <trkpt lat="46.83397" lon="0.53082">
        <ele>48.3</ele>
        <time>2020-07-03T16:14:36Z</time>
      </trkpt>
      <trkpt lat="46.8339" lon="0.53079">
        <ele>48.3</ele>
        <time>2020-07-03T16:14:37Z</time>
      </trkpt>
      <trkpt lat="46.83384" lon="0.53075">
        <ele>48.3</ele>
        <time>2020-07-03T16:14:38Z</time>
      </trkpt>
      <trkpt lat="46.83379" lon="0.53071">
        <ele>48.2</ele>
        <time>2020-07-03T16:14:39Z</time>
      </trkpt>
      <trkpt lat="46.83372" lon="0.53066">
        <ele>48.2</ele>
        <time>2020-07-03T16:14:40Z</time>
      </trkpt>
      <trkpt lat="46.83365" lon="0.53063">
        <ele>48.2</ele>
        <time>2020-07-03T16:14:41Z</time>
      </trkpt>
      <trkpt lat="46.83359" lon="0.53059">
        <ele>48.1</ele>
        <time>2020-07-03T16:14:42Z</time>
      </trkpt>
      <trkpt lat="46.83354" lon="0.53055">
        <ele>48.1</ele>
        <time>2020-07-03T16:14:43Z</time>
      </trkpt>
      <trkpt lat="46.83348" lon="0.53052">
        <ele>48.1</ele>
        <time>2020-07-03T16:14:44Z</time>
      </trkpt>
      <trkpt lat="46.83342" lon="0.53049">
        <ele>48.1</ele>
        <time>2020-07-03T16:14:45Z</time>
      </trkpt>
      <trkpt lat="46.83335" lon="0.53046">
        <ele>48.1</ele>
        <time>2020-07-03T16:14:46Z</time>
      </trkpt>
      <trkpt lat="46.83329" lon="0.53044">
        <ele>48.1</ele>
        <time>2020-07-03T16:14:47Z</time>
      </trkpt>
      <trkpt lat="46.83322" lon="0.53042">
        <ele>48.1</ele>
        <time>2020-07-03T16:14:48Z</time>
      </trkpt>
      <trkpt lat="46.83316" lon="0.53039">
        <ele>48.1</ele>
        <time>2020-07-03T16:14:49Z</time>
      </trkpt>
      <trkpt lat="46.8331" lon="0.53036">
        <ele>48.1</ele>
        <time>2020-07-03T16:14:50Z</time>
      </trkpt>
      <trkpt lat="46.83303" lon="0.53034">
        <ele>48.1</ele>
        <time>2020-07-03T16:14:51Z</time>
      </trkpt>
      <trkpt lat="46.83296" lon="0.53031">
        <ele>48.1</ele>
        <time>2020-07-03T16:14:52Z</time>
      </trkpt>
      <trkpt lat="46.83289" lon="0.53028">
        <ele>48.1</ele>
        <time>2020-07-03T16:14:53Z</time>
      </trkpt>
      <trkpt lat="46.83281" lon="0.53025">
        <ele>48.1</ele>
        <time>2020-07-03T16:14:54Z</time>
      </trkpt>
      <trkpt lat="46.83274" lon="0.53023">
        <ele>48.1</ele>
        <time>2020-07-03T16:14:55Z</time>
      </trkpt>
      <trkpt lat="46.83267" lon="0.53019">
        <ele>48.2</ele>
        <time>2020-07-03T16:14:56Z</time>
      </trkpt>
      <trkpt lat="46.83261" lon="0.53017">
        <ele>48.2</ele>
        <time>2020-07-03T16:14:57Z</time>
      </trkpt>
      <trkpt lat="46.83255" lon="0.53015">
        <ele>48.2</ele>
        <time>2020-07-03T16:14:58Z</time>
      </trkpt>
      <trkpt lat="46.83249" lon="0.53013">
        <ele>48.3</ele>
        <time>2020-07-03T16:14:59Z</time>
      </trkpt>
      <trkpt lat="46.83242" lon="0.53012">
        <ele>48.3</ele>
        <time>2020-07-03T16:15:00Z</time>
      </trkpt>
      <trkpt lat="46.83236" lon="0.5301">
        <ele>48.3</ele>
        <time>2020-07-03T16:15:01Z</time>
      </trkpt>
      <trkpt lat="46.8323" lon="0.53008">
        <ele>48.3</ele>
        <time>2020-07-03T16:15:02Z</time>
      </trkpt>
      <trkpt lat="46.83223" lon="0.53007">
        <ele>48.4</ele>
        <time>2020-07-03T16:15:03Z</time>
      </trkpt>
      <trkpt lat="46.83217" lon="0.53006">
        <ele>48.4</ele>
        <time>2020-07-03T16:15:04Z</time>
      </trkpt>
      <trkpt lat="46.83208" lon="0.53005">
        <ele>48.4</ele>
        <time>2020-07-03T16:15:05Z</time>
      </trkpt>
      <trkpt lat="46.83202" lon="0.53004">
        <ele>48.5</ele>
        <time>2020-07-03T16:15:06Z</time>
      </trkpt>
      <trkpt lat="46.83196" lon="0.53003">
        <ele>48.5</ele>
        <time>2020-07-03T16:15:07Z</time>
      </trkpt>
      <trkpt lat="46.83189" lon="0.53001">
        <ele>48.5</ele>
        <time>2020-07-03T16:15:08Z</time>
      </trkpt>
      <trkpt lat="46.83182" lon="0.53001">
        <ele>48.6</ele>
        <time>2020-07-03T16:15:09Z</time>
      </trkpt>
      <trkpt lat="46.83176" lon="0.52999">
        <ele>48.6</ele>
        <time>2020-07-03T16:15:10Z</time>
      </trkpt>
      <trkpt lat="46.8317" lon="0.52998">
        <ele>48.6</ele>
        <time>2020-07-03T16:15:11Z</time>
      </trkpt>
      <trkpt lat="46.83163" lon="0.52997">
        <ele>48.7</ele>
        <time>2020-07-03T16:15:12Z</time>
      </trkpt>
      <trkpt lat="46.83157" lon="0.52997">
        <ele>48.7</ele>
        <time>2020-07-03T16:15:13Z</time>
      </trkpt>
      <trkpt lat="46.83152" lon="0.52996">
        <ele>48.7</ele>
        <time>2020-07-03T16:15:14Z</time>
      </trkpt>
      <trkpt lat="46.83146" lon="0.52995">
        <ele>48.8</ele>
        <time>2020-07-03T16:15:15Z</time>
      </trkpt>
      <trkpt lat="46.83141" lon="0.52993">
        <ele>48.8</ele>
        <time>2020-07-03T16:15:16Z</time>
      </trkpt>
      <trkpt lat="46.83136" lon="0.52993">
        <ele>48.9</ele>
        <time>2020-07-03T16:15:17Z</time>
      </trkpt>
      <trkpt lat="46.8313" lon="0.52993">
        <ele>48.9</ele>
        <time>2020-07-03T16:15:18Z</time>
      </trkpt>
      <trkpt lat="46.83125" lon="0.52992">
        <ele>49</ele>
        <time>2020-07-03T16:15:19Z</time>
      </trkpt>
      <trkpt lat="46.8312" lon="0.52993">
        <ele>49.1</ele>
        <time>2020-07-03T16:15:20Z</time>
      </trkpt>
      <trkpt lat="46.83115" lon="0.52994">
        <ele>49.2</ele>
        <time>2020-07-03T16:15:21Z</time>
      </trkpt>
      <trkpt lat="46.83109" lon="0.52994">
        <ele>49.3</ele>
        <time>2020-07-03T16:15:22Z</time>
      </trkpt>
      <trkpt lat="46.83104" lon="0.52993">
        <ele>49.3</ele>
        <time>2020-07-03T16:15:23Z</time>
      </trkpt>
      <trkpt lat="46.83097" lon="0.52993">
        <ele>49.4</ele>
        <time>2020-07-03T16:15:24Z</time>
      </trkpt>
      <trkpt lat="46.83093" lon="0.52992">
        <ele>49.5</ele>
        <time>2020-07-03T16:15:25Z</time>
      </trkpt>
      <trkpt lat="46.83089" lon="0.52992">
        <ele>49.6</ele>
        <time>2020-07-03T16:15:26Z</time>
      </trkpt>
      <trkpt lat="46.83082" lon="0.52989">
        <ele>49.6</ele>
        <time>2020-07-03T16:15:27Z</time>
      </trkpt>
      <trkpt lat="46.83076" lon="0.52988">
        <ele>49.7</ele>
        <time>2020-07-03T16:15:28Z</time>
      </trkpt>
      <trkpt lat="46.83071" lon="0.52987">
        <ele>49.8</ele>
        <time>2020-07-03T16:15:29Z</time>
      </trkpt>
      <trkpt lat="46.83066" lon="0.52988">
        <ele>49.8</ele>
        <time>2020-07-03T16:15:30Z</time>
      </trkpt>
      <trkpt lat="46.83062" lon="0.52988">
        <ele>49.9</ele>
        <time>2020-07-03T16:15:31Z</time>
      </trkpt>
      <trkpt lat="46.83056" lon="0.52987">
        <ele>49.9</ele>
        <time>2020-07-03T16:15:32Z</time>
      </trkpt>
      <trkpt lat="46.83051" lon="0.52985">
        <ele>50</ele>
        <time>2020-07-03T16:15:33Z</time>
      </trkpt>
      <trkpt lat="46.83046" lon="0.52984">
        <ele>50.1</ele>
        <time>2020-07-03T16:15:34Z</time>
      </trkpt>
      <trkpt lat="46.8304" lon="0.52984">
        <ele>50.1</ele>
        <time>2020-07-03T16:15:35Z</time>
      </trkpt>
      <trkpt lat="46.83033" lon="0.52985">
        <ele>50.2</ele>
        <time>2020-07-03T16:15:36Z</time>
      </trkpt>
      <trkpt lat="46.83028" lon="0.52985">
        <ele>50.3</ele>
        <time>2020-07-03T16:15:37Z</time>
      </trkpt>
      <trkpt lat="46.83022" lon="0.52984">
        <ele>50.4</ele>
        <time>2020-07-03T16:15:38Z</time>
      </trkpt>
      <trkpt lat="46.83015" lon="0.52983">
        <ele>50.5</ele>
        <time>2020-07-03T16:15:39Z</time>
      </trkpt>
      <trkpt lat="46.83011" lon="0.52981">
        <ele>50.5</ele>
        <time>2020-07-03T16:15:40Z</time>
      </trkpt>
      <trkpt lat="46.83003" lon="0.5298">
        <ele>50.6</ele>
        <time>2020-07-03T16:15:41Z</time>
      </trkpt>
      <trkpt lat="46.82997" lon="0.52979">
        <ele>50.7</ele>
        <time>2020-07-03T16:15:42Z</time>
      </trkpt>
      <trkpt lat="46.82992" lon="0.52979">
        <ele>50.8</ele>
        <time>2020-07-03T16:15:43Z</time>
      </trkpt>
      <trkpt lat="46.82986" lon="0.52979">
        <ele>50.8</ele>
        <time>2020-07-03T16:15:44Z</time>
      </trkpt>
      <trkpt lat="46.8298" lon="0.52979">
        <ele>50.9</ele>
        <time>2020-07-03T16:15:45Z</time>
      </trkpt>
      <trkpt lat="46.82974" lon="0.52979">
        <ele>51</ele>
        <time>2020-07-03T16:15:46Z</time>
      </trkpt>
      <trkpt lat="46.82968" lon="0.52977">
        <ele>51</ele>
        <time>2020-07-03T16:15:47Z</time>
      </trkpt>
      <trkpt lat="46.82962" lon="0.52977">
        <ele>51.1</ele>
        <time>2020-07-03T16:15:48Z</time>
      </trkpt>
      <trkpt lat="46.82957" lon="0.52976">
        <ele>51.1</ele>
        <time>2020-07-03T16:15:49Z</time>
      </trkpt>
      <trkpt lat="46.82951" lon="0.52975">
        <ele>51.2</ele>
        <time>2020-07-03T16:15:50Z</time>
      </trkpt>
      <trkpt lat="46.82945" lon="0.52975">
        <ele>51.2</ele>
        <time>2020-07-03T16:15:51Z</time>
      </trkpt>
      <trkpt lat="46.8294" lon="0.52975">
        <ele>51.2</ele>
        <time>2020-07-03T16:15:52Z</time>
      </trkpt>
      <trkpt lat="46.82934" lon="0.52975">
        <ele>51.3</ele>
        <time>2020-07-03T16:15:53Z</time>
      </trkpt>
      <trkpt lat="46.82928" lon="0.52975">
        <ele>51.3</ele>
        <time>2020-07-03T16:15:54Z</time>
      </trkpt>
      <trkpt lat="46.82922" lon="0.52974">
        <ele>51.4</ele>
        <time>2020-07-03T16:15:55Z</time>
      </trkpt>
      <trkpt lat="46.82915" lon="0.52973">
        <ele>51.5</ele>
        <time>2020-07-03T16:15:56Z</time>
      </trkpt>
      <trkpt lat="46.8291" lon="0.52972">
        <ele>51.5</ele>
        <time>2020-07-03T16:15:57Z</time>
      </trkpt>
      <trkpt lat="46.82904" lon="0.52972">
        <ele>51.6</ele>
        <time>2020-07-03T16:15:58Z</time>
      </trkpt>
      <trkpt lat="46.82899" lon="0.5297">
        <ele>51.6</ele>
        <time>2020-07-03T16:15:59Z</time>
      </trkpt>
      <trkpt lat="46.82895" lon="0.52968">
        <ele>51.7</ele>
        <time>2020-07-03T16:16:00Z</time>
      </trkpt>
      <trkpt lat="46.82889" lon="0.52967">
        <ele>51.7</ele>
        <time>2020-07-03T16:16:01Z</time>
      </trkpt>
      <trkpt lat="46.82882" lon="0.52965">
        <ele>51.8</ele>
        <time>2020-07-03T16:16:02Z</time>
      </trkpt>
      <trkpt lat="46.82877" lon="0.52965">
        <ele>51.8</ele>
        <time>2020-07-03T16:16:03Z</time>
      </trkpt>
      <trkpt lat="46.82872" lon="0.52964">
        <ele>51.9</ele>
        <time>2020-07-03T16:16:04Z</time>
      </trkpt>
      <trkpt lat="46.82866" lon="0.52963">
        <ele>52</ele>
        <time>2020-07-03T16:16:05Z</time>
      </trkpt>
      <trkpt lat="46.82861" lon="0.52963">
        <ele>52</ele>
        <time>2020-07-03T16:16:06Z</time>
      </trkpt>
      <trkpt lat="46.82855" lon="0.52962">
        <ele>52.1</ele>
        <time>2020-07-03T16:16:07Z</time>
      </trkpt>
      <trkpt lat="46.82849" lon="0.52962">
        <ele>52.1</ele>
        <time>2020-07-03T16:16:08Z</time>
      </trkpt>
      <trkpt lat="46.82844" lon="0.52961">
        <ele>52.2</ele>
        <time>2020-07-03T16:16:09Z</time>
      </trkpt>
      <trkpt lat="46.82837" lon="0.5296">
        <ele>52.2</ele>
        <time>2020-07-03T16:16:10Z</time>
      </trkpt>
      <trkpt lat="46.82831" lon="0.52959">
        <ele>52.3</ele>
        <time>2020-07-03T16:16:11Z</time>
      </trkpt>
      <trkpt lat="46.82826" lon="0.52958">
        <ele>52.4</ele>
        <time>2020-07-03T16:16:12Z</time>
      </trkpt>
      <trkpt lat="46.8282" lon="0.52958">
        <ele>52.5</ele>
        <time>2020-07-03T16:16:13Z</time>
      </trkpt>
      <trkpt lat="46.82815" lon="0.52956">
        <ele>52.6</ele>
        <time>2020-07-03T16:16:14Z</time>
      </trkpt>
      <trkpt lat="46.8281" lon="0.52956">
        <ele>52.8</ele>
        <time>2020-07-03T16:16:15Z</time>
      </trkpt>
      <trkpt lat="46.82806" lon="0.52954">
        <ele>53</ele>
        <time>2020-07-03T16:16:16Z</time>
      </trkpt>
      <trkpt lat="46.82801" lon="0.52953">
        <ele>53.2</ele>
        <time>2020-07-03T16:16:17Z</time>
      </trkpt>
      <trkpt lat="46.82795" lon="0.52952">
        <ele>53.4</ele>
        <time>2020-07-03T16:16:18Z</time>
      </trkpt>
      <trkpt lat="46.82789" lon="0.52951">
        <ele>53.4</ele>
        <time>2020-07-03T16:16:19Z</time>
      </trkpt>
      <trkpt lat="46.82782" lon="0.52948">
        <ele>53.5</ele>
        <time>2020-07-03T16:16:20Z</time>
      </trkpt>
      <trkpt lat="46.82777" lon="0.52947">
        <ele>53.5</ele>
        <time>2020-07-03T16:16:21Z</time>
      </trkpt>
      <trkpt lat="46.82772" lon="0.52945">
        <ele>53.6</ele>
        <time>2020-07-03T16:16:22Z</time>
      </trkpt>
      <trkpt lat="46.82767" lon="0.52943">
        <ele>53.7</ele>
        <time>2020-07-03T16:16:23Z</time>
      </trkpt>
      <trkpt lat="46.82761" lon="0.52942">
        <ele>53.7</ele>
        <time>2020-07-03T16:16:24Z</time>
      </trkpt>
      <trkpt lat="46.82756" lon="0.52941">
        <ele>53.8</ele>
        <time>2020-07-03T16:16:25Z</time>
      </trkpt>
      <trkpt lat="46.82749" lon="0.5294">
        <ele>53.8</ele>
        <time>2020-07-03T16:16:26Z</time>
      </trkpt>
      <trkpt lat="46.82744" lon="0.52938">
        <ele>53.9</ele>
        <time>2020-07-03T16:16:27Z</time>
      </trkpt>
      <trkpt lat="46.82739" lon="0.52937">
        <ele>53.9</ele>
        <time>2020-07-03T16:16:28Z</time>
      </trkpt>
      <trkpt lat="46.82733" lon="0.52937">
        <ele>54</ele>
        <time>2020-07-03T16:16:29Z</time>
      </trkpt>
      <trkpt lat="46.82728" lon="0.52936">
        <ele>54</ele>
        <time>2020-07-03T16:16:30Z</time>
      </trkpt>
      <trkpt lat="46.82721" lon="0.52935">
        <ele>54</ele>
        <time>2020-07-03T16:16:31Z</time>
      </trkpt>
      <trkpt lat="46.82716" lon="0.52935">
        <ele>54.1</ele>
        <time>2020-07-03T16:16:32Z</time>
      </trkpt>
      <trkpt lat="46.8271" lon="0.52933">
        <ele>54.1</ele>
        <time>2020-07-03T16:16:33Z</time>
      </trkpt>
      <trkpt lat="46.82703" lon="0.52931">
        <ele>54.1</ele>
        <time>2020-07-03T16:16:34Z</time>
      </trkpt>
      <trkpt lat="46.82699" lon="0.52932">
        <ele>54.1</ele>
        <time>2020-07-03T16:16:35Z</time>
      </trkpt>
      <trkpt lat="46.82693" lon="0.52932">
        <ele>54.2</ele>
        <time>2020-07-03T16:16:36Z</time>
      </trkpt>
      <trkpt lat="46.82689" lon="0.52932">
        <ele>54.2</ele>
        <time>2020-07-03T16:16:37Z</time>
      </trkpt>
      <trkpt lat="46.82683" lon="0.52931">
        <ele>54.2</ele>
        <time>2020-07-03T16:16:38Z</time>
      </trkpt>
      <trkpt lat="46.82678" lon="0.5293">
        <ele>54.2</ele>
        <time>2020-07-03T16:16:39Z</time>
      </trkpt>
      <trkpt lat="46.8267" lon="0.52928">
        <ele>54.2</ele>
        <time>2020-07-03T16:16:40Z</time>
      </trkpt>
      <trkpt lat="46.82664" lon="0.52927">
        <ele>54.2</ele>
        <time>2020-07-03T16:16:41Z</time>
      </trkpt>
      <trkpt lat="46.82659" lon="0.52928">
        <ele>54.2</ele>
        <time>2020-07-03T16:16:42Z</time>
      </trkpt>
      <trkpt lat="46.82652" lon="0.52928">
        <ele>54.3</ele>
        <time>2020-07-03T16:16:43Z</time>
      </trkpt>
      <trkpt lat="46.82647" lon="0.52928">
        <ele>54.3</ele>
        <time>2020-07-03T16:16:44Z</time>
      </trkpt>
      <trkpt lat="46.82641" lon="0.52928">
        <ele>54.4</ele>
        <time>2020-07-03T16:16:45Z</time>
      </trkpt>
      <trkpt lat="46.82636" lon="0.52929">
        <ele>54.3</ele>
        <time>2020-07-03T16:16:46Z</time>
      </trkpt>
      <trkpt lat="46.8263" lon="0.5293">
        <ele>54.3</ele>
        <time>2020-07-03T16:16:47Z</time>
      </trkpt>
      <trkpt lat="46.82623" lon="0.52931">
        <ele>54.3</ele>
        <time>2020-07-03T16:16:48Z</time>
      </trkpt>
      <trkpt lat="46.82616" lon="0.52931">
        <ele>54.4</ele>
        <time>2020-07-03T16:16:49Z</time>
      </trkpt>
      <trkpt lat="46.82611" lon="0.52932">
        <ele>54.4</ele>
        <time>2020-07-03T16:16:50Z</time>
      </trkpt>
      <trkpt lat="46.82605" lon="0.52933">
        <ele>54.5</ele>
        <time>2020-07-03T16:16:51Z</time>
      </trkpt>
      <trkpt lat="46.82599" lon="0.52933">
        <ele>54.5</ele>
        <time>2020-07-03T16:16:52Z</time>
      </trkpt>
      <trkpt lat="46.82593" lon="0.52932">
        <ele>54.6</ele>
        <time>2020-07-03T16:16:53Z</time>
      </trkpt>
      <trkpt lat="46.82587" lon="0.52933">
        <ele>54.7</ele>
        <time>2020-07-03T16:16:54Z</time>
      </trkpt>
      <trkpt lat="46.82581" lon="0.52933">
        <ele>54.8</ele>
        <time>2020-07-03T16:16:55Z</time>
      </trkpt>
      <trkpt lat="46.82576" lon="0.52933">
        <ele>54.9</ele>
        <time>2020-07-03T16:16:56Z</time>
      </trkpt>
      <trkpt lat="46.8257" lon="0.52935">
        <ele>54.9</ele>
        <time>2020-07-03T16:16:57Z</time>
      </trkpt>
      <trkpt lat="46.82562" lon="0.52935">
        <ele>54.8</ele>
        <time>2020-07-03T16:16:58Z</time>
      </trkpt>
      <trkpt lat="46.82556" lon="0.52937">
        <ele>54.7</ele>
        <time>2020-07-03T16:16:59Z</time>
      </trkpt>
      <trkpt lat="46.82549" lon="0.52938">
        <ele>54.6</ele>
        <time>2020-07-03T16:17:00Z</time>
      </trkpt>
      <trkpt lat="46.82543" lon="0.5294">
        <ele>54.5</ele>
        <time>2020-07-03T16:17:01Z</time>
      </trkpt>
      <trkpt lat="46.82537" lon="0.52941">
        <ele>54.3</ele>
        <time>2020-07-03T16:17:02Z</time>
      </trkpt>
      <trkpt lat="46.8253" lon="0.52942">
        <ele>54.2</ele>
        <time>2020-07-03T16:17:03Z</time>
      </trkpt>
      <trkpt lat="46.82523" lon="0.52943">
        <ele>54.1</ele>
        <time>2020-07-03T16:17:04Z</time>
      </trkpt>
      <trkpt lat="46.82517" lon="0.52944">
        <ele>54.1</ele>
        <time>2020-07-03T16:17:05Z</time>
      </trkpt>
      <trkpt lat="46.8251" lon="0.52945">
        <ele>54</ele>
        <time>2020-07-03T16:17:06Z</time>
      </trkpt>
      <trkpt lat="46.82504" lon="0.52947">
        <ele>54</ele>
        <time>2020-07-03T16:17:07Z</time>
      </trkpt>
      <trkpt lat="46.82498" lon="0.52948">
        <ele>53.9</ele>
        <time>2020-07-03T16:17:08Z</time>
      </trkpt>
      <trkpt lat="46.82491" lon="0.52948">
        <ele>53.9</ele>
        <time>2020-07-03T16:17:09Z</time>
      </trkpt>
      <trkpt lat="46.82484" lon="0.52951">
        <ele>53.8</ele>
        <time>2020-07-03T16:17:10Z</time>
      </trkpt>
      <trkpt lat="46.82477" lon="0.52952">
        <ele>53.9</ele>
        <time>2020-07-03T16:17:11Z</time>
      </trkpt>
      <trkpt lat="46.8247" lon="0.52954">
        <ele>53.9</ele>
        <time>2020-07-03T16:17:12Z</time>
      </trkpt>
      <trkpt lat="46.82463" lon="0.52955">
        <ele>54</ele>
        <time>2020-07-03T16:17:13Z</time>
      </trkpt>
      <trkpt lat="46.82456" lon="0.52955">
        <ele>53.8</ele>
        <time>2020-07-03T16:17:14Z</time>
      </trkpt>
      <trkpt lat="46.82449" lon="0.52956">
        <ele>53.7</ele>
        <time>2020-07-03T16:17:15Z</time>
      </trkpt>
      <trkpt lat="46.82442" lon="0.52957">
        <ele>53.6</ele>
        <time>2020-07-03T16:17:16Z</time>
      </trkpt>
      <trkpt lat="46.82434" lon="0.52959">
        <ele>53.5</ele>
        <time>2020-07-03T16:17:17Z</time>
      </trkpt>
      <trkpt lat="46.82427" lon="0.52961">
        <ele>53.4</ele>
        <time>2020-07-03T16:17:18Z</time>
      </trkpt>
      <trkpt lat="46.82419" lon="0.52963">
        <ele>53.4</ele>
        <time>2020-07-03T16:17:19Z</time>
      </trkpt>
      <trkpt lat="46.82412" lon="0.52963">
        <ele>53.4</ele>
        <time>2020-07-03T16:17:20Z</time>
      </trkpt>
      <trkpt lat="46.82405" lon="0.52962">
        <ele>53.3</ele>
        <time>2020-07-03T16:17:21Z</time>
      </trkpt>
      <trkpt lat="46.82398" lon="0.52961">
        <ele>53.3</ele>
        <time>2020-07-03T16:17:22Z</time>
      </trkpt>
      <trkpt lat="46.82391" lon="0.5296">
        <ele>53.3</ele>
        <time>2020-07-03T16:17:23Z</time>
      </trkpt>
      <trkpt lat="46.82384" lon="0.52959">
        <ele>53.2</ele>
        <time>2020-07-03T16:17:24Z</time>
      </trkpt>
      <trkpt lat="46.82377" lon="0.52958">
        <ele>53.2</ele>
        <time>2020-07-03T16:17:25Z</time>
      </trkpt>
      <trkpt lat="46.8237" lon="0.52958">
        <ele>53.2</ele>
        <time>2020-07-03T16:17:26Z</time>
      </trkpt>
      <trkpt lat="46.82363" lon="0.52958">
        <ele>53.2</ele>
        <time>2020-07-03T16:17:27Z</time>
      </trkpt>
      <trkpt lat="46.82356" lon="0.52957">
        <ele>53.2</ele>
        <time>2020-07-03T16:17:28Z</time>
      </trkpt>
      <trkpt lat="46.82349" lon="0.52956">
        <ele>53.2</ele>
        <time>2020-07-03T16:17:29Z</time>
      </trkpt>
      <trkpt lat="46.82342" lon="0.52955">
        <ele>53.2</ele>
        <time>2020-07-03T16:17:30Z</time>
      </trkpt>
      <trkpt lat="46.82335" lon="0.52954">
        <ele>53.2</ele>
        <time>2020-07-03T16:17:31Z</time>
      </trkpt>
      <trkpt lat="46.82328" lon="0.52955">
        <ele>53.2</ele>
        <time>2020-07-03T16:17:32Z</time>
      </trkpt>
      <trkpt lat="46.82321" lon="0.52955">
        <ele>53.2</ele>
        <time>2020-07-03T16:17:33Z</time>
      </trkpt>
      <trkpt lat="46.82314" lon="0.52956">
        <ele>53.2</ele>
        <time>2020-07-03T16:17:34Z</time>
      </trkpt>
      <trkpt lat="46.82307" lon="0.52956">
        <ele>53.3</ele>
        <time>2020-07-03T16:17:35Z</time>
      </trkpt>
      <trkpt lat="46.823" lon="0.52956">
        <ele>53.3</ele>
        <time>2020-07-03T16:17:36Z</time>
      </trkpt>
      <trkpt lat="46.82294" lon="0.52957">
        <ele>53.3</ele>
        <time>2020-07-03T16:17:37Z</time>
      </trkpt>
      <trkpt lat="46.82287" lon="0.5296">
        <ele>53.3</ele>
        <time>2020-07-03T16:17:38Z</time>
      </trkpt>
      <trkpt lat="46.8228" lon="0.52962">
        <ele>53.3</ele>
        <time>2020-07-03T16:17:39Z</time>
      </trkpt>
      <trkpt lat="46.82273" lon="0.52964">
        <ele>53.3</ele>
        <time>2020-07-03T16:17:40Z</time>
      </trkpt>
      <trkpt lat="46.82266" lon="0.52966">
        <ele>53.2</ele>
        <time>2020-07-03T16:17:41Z</time>
      </trkpt>
      <trkpt lat="46.82259" lon="0.52968">
        <ele>53.2</ele>
        <time>2020-07-03T16:17:42Z</time>
      </trkpt>
      <trkpt lat="46.82252" lon="0.5297">
        <ele>53.2</ele>
        <time>2020-07-03T16:17:43Z</time>
      </trkpt>
      <trkpt lat="46.82245" lon="0.52971">
        <ele>53.2</ele>
        <time>2020-07-03T16:17:44Z</time>
      </trkpt>
      <trkpt lat="46.82238" lon="0.52973">
        <ele>53.2</ele>
        <time>2020-07-03T16:17:45Z</time>
      </trkpt>
      <trkpt lat="46.82232" lon="0.52975">
        <ele>53.2</ele>
        <time>2020-07-03T16:17:46Z</time>
      </trkpt>
      <trkpt lat="46.82225" lon="0.52977">
        <ele>53.2</ele>
        <time>2020-07-03T16:17:47Z</time>
      </trkpt>
      <trkpt lat="46.82218" lon="0.52977">
        <ele>53.1</ele>
        <time>2020-07-03T16:17:48Z</time>
      </trkpt>
      <trkpt lat="46.82212" lon="0.52978">
        <ele>53.1</ele>
        <time>2020-07-03T16:17:49Z</time>
      </trkpt>
      <trkpt lat="46.82205" lon="0.52979">
        <ele>53</ele>
        <time>2020-07-03T16:17:50Z</time>
      </trkpt>
      <trkpt lat="46.82199" lon="0.52977">
        <ele>52.9</ele>
        <time>2020-07-03T16:17:51Z</time>
      </trkpt>
      <trkpt lat="46.82192" lon="0.52977">
        <ele>53</ele>
        <time>2020-07-03T16:17:52Z</time>
      </trkpt>
      <trkpt lat="46.82186" lon="0.52977">
        <ele>52.9</ele>
        <time>2020-07-03T16:17:53Z</time>
      </trkpt>
      <trkpt lat="46.82179" lon="0.52978">
        <ele>52.9</ele>
        <time>2020-07-03T16:17:54Z</time>
      </trkpt>
      <trkpt lat="46.82172" lon="0.52977">
        <ele>52.8</ele>
        <time>2020-07-03T16:17:55Z</time>
      </trkpt>
      <trkpt lat="46.82166" lon="0.52976">
        <ele>52.7</ele>
        <time>2020-07-03T16:17:56Z</time>
      </trkpt>
      <trkpt lat="46.8216" lon="0.52976">
        <ele>52.7</ele>
        <time>2020-07-03T16:17:57Z</time>
      </trkpt>
      <trkpt lat="46.82153" lon="0.52975">
        <ele>52.6</ele>
        <time>2020-07-03T16:17:58Z</time>
      </trkpt>
      <trkpt lat="46.82147" lon="0.52973">
        <ele>52.5</ele>
        <time>2020-07-03T16:17:59Z</time>
      </trkpt>
      <trkpt lat="46.8214" lon="0.52973">
        <ele>52.5</ele>
        <time>2020-07-03T16:18:00Z</time>
      </trkpt>
      <trkpt lat="46.82134" lon="0.52972">
        <ele>52.5</ele>
        <time>2020-07-03T16:18:01Z</time>
      </trkpt>
      <trkpt lat="46.82127" lon="0.5297">
        <ele>52.5</ele>
        <time>2020-07-03T16:18:02Z</time>
      </trkpt>
      <trkpt lat="46.82121" lon="0.52969">
        <ele>52.5</ele>
        <time>2020-07-03T16:18:03Z</time>
      </trkpt>
      <trkpt lat="46.82115" lon="0.52968">
        <ele>52.5</ele>
        <time>2020-07-03T16:18:04Z</time>
      </trkpt>
      <trkpt lat="46.82108" lon="0.52968">
        <ele>52.5</ele>
        <time>2020-07-03T16:18:05Z</time>
      </trkpt>
      <trkpt lat="46.82102" lon="0.52967">
        <ele>52.5</ele>
        <time>2020-07-03T16:18:06Z</time>
      </trkpt>
      <trkpt lat="46.82096" lon="0.52966">
        <ele>52.5</ele>
        <time>2020-07-03T16:18:07Z</time>
      </trkpt>
      <trkpt lat="46.8209" lon="0.52965">
        <ele>52.6</ele>
        <time>2020-07-03T16:18:08Z</time>
      </trkpt>
      <trkpt lat="46.82084" lon="0.52964">
        <ele>52.6</ele>
        <time>2020-07-03T16:18:09Z</time>
      </trkpt>
      <trkpt lat="46.82077" lon="0.52963">
        <ele>52.6</ele>
        <time>2020-07-03T16:18:10Z</time>
      </trkpt>
      <trkpt lat="46.82071" lon="0.52963">
        <ele>52.6</ele>
        <time>2020-07-03T16:18:11Z</time>
      </trkpt>
      <trkpt lat="46.82065" lon="0.52963">
        <ele>52.6</ele>
        <time>2020-07-03T16:18:12Z</time>
      </trkpt>
      <trkpt lat="46.82058" lon="0.52963">
        <ele>52.6</ele>
        <time>2020-07-03T16:18:13Z</time>
      </trkpt>
      <trkpt lat="46.82051" lon="0.52961">
        <ele>52.7</ele>
        <time>2020-07-03T16:18:14Z</time>
      </trkpt>
      <trkpt lat="46.82044" lon="0.52959">
        <ele>52.7</ele>
        <time>2020-07-03T16:18:15Z</time>
      </trkpt>
      <trkpt lat="46.82038" lon="0.52957">
        <ele>52.6</ele>
        <time>2020-07-03T16:18:16Z</time>
      </trkpt>
      <trkpt lat="46.82033" lon="0.52954">
        <ele>52.5</ele>
        <time>2020-07-03T16:18:17Z</time>
      </trkpt>
      <trkpt lat="46.82026" lon="0.52952">
        <ele>52.4</ele>
        <time>2020-07-03T16:18:18Z</time>
      </trkpt>
      <trkpt lat="46.8202" lon="0.5295">
        <ele>52.4</ele>
        <time>2020-07-03T16:18:19Z</time>
      </trkpt>
      <trkpt lat="46.82015" lon="0.52947">
        <ele>52.4</ele>
        <time>2020-07-03T16:18:20Z</time>
      </trkpt>
      <trkpt lat="46.82009" lon="0.52944">
        <ele>52.4</ele>
        <time>2020-07-03T16:18:21Z</time>
      </trkpt>
      <trkpt lat="46.82003" lon="0.52941">
        <ele>52.4</ele>
        <time>2020-07-03T16:18:22Z</time>
      </trkpt>
      <trkpt lat="46.81997" lon="0.52937">
        <ele>52.4</ele>
        <time>2020-07-03T16:18:23Z</time>
      </trkpt>
      <trkpt lat="46.81991" lon="0.52934">
        <ele>52.4</ele>
        <time>2020-07-03T16:18:24Z</time>
      </trkpt>
      <trkpt lat="46.81986" lon="0.5293">
        <ele>52.4</ele>
        <time>2020-07-03T16:18:25Z</time>
      </trkpt>
      <trkpt lat="46.8198" lon="0.52925">
        <ele>52.4</ele>
        <time>2020-07-03T16:18:26Z</time>
      </trkpt>
      <trkpt lat="46.81975" lon="0.5292">
        <ele>52.4</ele>
        <time>2020-07-03T16:18:27Z</time>
      </trkpt>
      <trkpt lat="46.81969" lon="0.52915">
        <ele>52.4</ele>
        <time>2020-07-03T16:18:28Z</time>
      </trkpt>
      <trkpt lat="46.81965" lon="0.52911">
        <ele>52.5</ele>
        <time>2020-07-03T16:18:29Z</time>
      </trkpt>
      <trkpt lat="46.81959" lon="0.52906">
        <ele>52.5</ele>
        <time>2020-07-03T16:18:30Z</time>
      </trkpt>
      <trkpt lat="46.81954" lon="0.52901">
        <ele>52.6</ele>
        <time>2020-07-03T16:18:31Z</time>
      </trkpt>
      <trkpt lat="46.81948" lon="0.52896">
        <ele>52.6</ele>
        <time>2020-07-03T16:18:32Z</time>
      </trkpt>
      <trkpt lat="46.81941" lon="0.52892">
        <ele>52.6</ele>
        <time>2020-07-03T16:18:33Z</time>
      </trkpt>
      <trkpt lat="46.81935" lon="0.52888">
        <ele>52.7</ele>
        <time>2020-07-03T16:18:34Z</time>
      </trkpt>
      <trkpt lat="46.81931" lon="0.52884">
        <ele>52.7</ele>
        <time>2020-07-03T16:18:35Z</time>
      </trkpt>
      <trkpt lat="46.81926" lon="0.52878">
        <ele>52.8</ele>
        <time>2020-07-03T16:18:36Z</time>
      </trkpt>
      <trkpt lat="46.81921" lon="0.52873">
        <ele>52.9</ele>
        <time>2020-07-03T16:18:37Z</time>
      </trkpt>
      <trkpt lat="46.81915" lon="0.52868">
        <ele>53</ele>
        <time>2020-07-03T16:18:38Z</time>
      </trkpt>
      <trkpt lat="46.8191" lon="0.52863">
        <ele>53</ele>
        <time>2020-07-03T16:18:39Z</time>
      </trkpt>
      <trkpt lat="46.81904" lon="0.52857">
        <ele>53.1</ele>
        <time>2020-07-03T16:18:40Z</time>
      </trkpt>
      <trkpt lat="46.81899" lon="0.52852">
        <ele>53.2</ele>
        <time>2020-07-03T16:18:41Z</time>
      </trkpt>
      <trkpt lat="46.81894" lon="0.52847">
        <ele>53.3</ele>
        <time>2020-07-03T16:18:42Z</time>
      </trkpt>
      <trkpt lat="46.81888" lon="0.52842">
        <ele>53.4</ele>
        <time>2020-07-03T16:18:43Z</time>
      </trkpt>
      <trkpt lat="46.81882" lon="0.52839">
        <ele>53.5</ele>
        <time>2020-07-03T16:18:44Z</time>
      </trkpt>
      <trkpt lat="46.81876" lon="0.52836">
        <ele>53.6</ele>
        <time>2020-07-03T16:18:45Z</time>
      </trkpt>
      <trkpt lat="46.81871" lon="0.52832">
        <ele>53.7</ele>
        <time>2020-07-03T16:18:46Z</time>
      </trkpt>
      <trkpt lat="46.81866" lon="0.52829">
        <ele>53.9</ele>
        <time>2020-07-03T16:18:47Z</time>
      </trkpt>
      <trkpt lat="46.8186" lon="0.52827">
        <ele>54</ele>
        <time>2020-07-03T16:18:48Z</time>
      </trkpt>
      <trkpt lat="46.81855" lon="0.52824">
        <ele>54.1</ele>
        <time>2020-07-03T16:18:49Z</time>
      </trkpt>
      <trkpt lat="46.81851" lon="0.52821">
        <ele>54.1</ele>
        <time>2020-07-03T16:18:50Z</time>
      </trkpt>
      <trkpt lat="46.81847" lon="0.5282">
        <ele>54.1</ele>
        <time>2020-07-03T16:18:51Z</time>
      </trkpt>
      <trkpt lat="46.81844" lon="0.52817">
        <ele>54.2</ele>
        <time>2020-07-03T16:18:52Z</time>
      </trkpt>
      <trkpt lat="46.81842" lon="0.52816">
        <ele>54.2</ele>
        <time>2020-07-03T16:18:53Z</time>
      </trkpt>
      <trkpt lat="46.81841" lon="0.52816">
        <ele>54.2</ele>
        <time>2020-07-03T16:18:54Z</time>
      </trkpt>
      <trkpt lat="46.81842" lon="0.52815">
        <ele>54.2</ele>
        <time>2020-07-03T16:18:55Z</time>
      </trkpt>
      <trkpt lat="46.81843" lon="0.52814">
        <ele>54.2</ele>
        <time>2020-07-03T16:18:56Z</time>
      </trkpt>
      <trkpt lat="46.81843" lon="0.52814">
        <ele>54.2</ele>
        <time>2020-07-03T16:18:57Z</time>
      </trkpt>
      <trkpt lat="46.81842" lon="0.52814">
        <ele>54.2</ele>
        <time>2020-07-03T16:18:58Z</time>
      </trkpt>
      <trkpt lat="46.81841" lon="0.52813">
        <ele>54.2</ele>
        <time>2020-07-03T16:18:59Z</time>
      </trkpt>
      <trkpt lat="46.81841" lon="0.52812">
        <ele>54.2</ele>
        <time>2020-07-03T16:19:00Z</time>
      </trkpt>
      <trkpt lat="46.8184" lon="0.52811">
        <ele>54.2</ele>
        <time>2020-07-03T16:19:01Z</time>
      </trkpt>
      <trkpt lat="46.81837" lon="0.52807">
        <ele>54.2</ele>
        <time>2020-07-03T16:19:02Z</time>
      </trkpt>
      <trkpt lat="46.81837" lon="0.52806">
        <ele>54.2</ele>
        <time>2020-07-03T16:19:03Z</time>
      </trkpt>
      <trkpt lat="46.81835" lon="0.52802">
        <ele>54.2</ele>
        <time>2020-07-03T16:19:04Z</time>
      </trkpt>
      <trkpt lat="46.81833" lon="0.52798">
        <ele>54.2</ele>
        <time>2020-07-03T16:19:05Z</time>
      </trkpt>
      <trkpt lat="46.81832" lon="0.52797">
        <ele>54.2</ele>
        <time>2020-07-03T16:19:06Z</time>
      </trkpt>
      <trkpt lat="46.8183" lon="0.52794">
        <ele>54.2</ele>
        <time>2020-07-03T16:19:07Z</time>
      </trkpt>
      <trkpt lat="46.81827" lon="0.52791">
        <ele>54.1</ele>
        <time>2020-07-03T16:19:08Z</time>
      </trkpt>
      <trkpt lat="46.81824" lon="0.5279">
        <ele>54.1</ele>
        <time>2020-07-03T16:19:09Z</time>
      </trkpt>
      <trkpt lat="46.81819" lon="0.5279">
        <ele>54.1</ele>
        <time>2020-07-03T16:19:10Z</time>
      </trkpt>
      <trkpt lat="46.81813" lon="0.52791">
        <ele>54</ele>
        <time>2020-07-03T16:19:11Z</time>
      </trkpt>
      <trkpt lat="46.81809" lon="0.5279">
        <ele>54</ele>
        <time>2020-07-03T16:19:12Z</time>
      </trkpt>
      <trkpt lat="46.81804" lon="0.52791">
        <ele>53.9</ele>
        <time>2020-07-03T16:19:13Z</time>
      </trkpt>
      <trkpt lat="46.81798" lon="0.52791">
        <ele>53.9</ele>
        <time>2020-07-03T16:19:14Z</time>
      </trkpt>
      <trkpt lat="46.81793" lon="0.5279">
        <ele>53.8</ele>
        <time>2020-07-03T16:19:15Z</time>
      </trkpt>
      <trkpt lat="46.81788" lon="0.52789">
        <ele>53.8</ele>
        <time>2020-07-03T16:19:16Z</time>
      </trkpt>
      <trkpt lat="46.81781" lon="0.52788">
        <ele>53.7</ele>
        <time>2020-07-03T16:19:17Z</time>
      </trkpt>
      <trkpt lat="46.81775" lon="0.52788">
        <ele>53.7</ele>
        <time>2020-07-03T16:19:18Z</time>
      </trkpt>
      <trkpt lat="46.81768" lon="0.52788">
        <ele>53.7</ele>
        <time>2020-07-03T16:19:19Z</time>
      </trkpt>
      <trkpt lat="46.81762" lon="0.52786">
        <ele>53.6</ele>
        <time>2020-07-03T16:19:20Z</time>
      </trkpt>
      <trkpt lat="46.81756" lon="0.52786">
        <ele>53.7</ele>
        <time>2020-07-03T16:19:21Z</time>
      </trkpt>
      <trkpt lat="46.8175" lon="0.52786">
        <ele>53.7</ele>
        <time>2020-07-03T16:19:22Z</time>
      </trkpt>
      <trkpt lat="46.81744" lon="0.52785">
        <ele>53.7</ele>
        <time>2020-07-03T16:19:23Z</time>
      </trkpt>
      <trkpt lat="46.81738" lon="0.52785">
        <ele>53.7</ele>
        <time>2020-07-03T16:19:24Z</time>
      </trkpt>
      <trkpt lat="46.81732" lon="0.52785">
        <ele>53.8</ele>
        <time>2020-07-03T16:19:25Z</time>
      </trkpt>
      <trkpt lat="46.81724" lon="0.52784">
        <ele>53.8</ele>
        <time>2020-07-03T16:19:26Z</time>
      </trkpt>
      <trkpt lat="46.81717" lon="0.52785">
        <ele>53.9</ele>
        <time>2020-07-03T16:19:27Z</time>
      </trkpt>
      <trkpt lat="46.81712" lon="0.52785">
        <ele>53.9</ele>
        <time>2020-07-03T16:19:28Z</time>
      </trkpt>
      <trkpt lat="46.81706" lon="0.52785">
        <ele>54</ele>
        <time>2020-07-03T16:19:29Z</time>
      </trkpt>
      <trkpt lat="46.817" lon="0.52787">
        <ele>54</ele>
        <time>2020-07-03T16:19:30Z</time>
      </trkpt>
      <trkpt lat="46.81695" lon="0.52788">
        <ele>54</ele>
        <time>2020-07-03T16:19:31Z</time>
      </trkpt>
      <trkpt lat="46.81688" lon="0.52788">
        <ele>54</ele>
        <time>2020-07-03T16:19:32Z</time>
      </trkpt>
      <trkpt lat="46.81682" lon="0.52789">
        <ele>54</ele>
        <time>2020-07-03T16:19:33Z</time>
      </trkpt>
      <trkpt lat="46.81678" lon="0.52792">
        <ele>54</ele>
        <time>2020-07-03T16:19:34Z</time>
      </trkpt>
      <trkpt lat="46.81674" lon="0.52793">
        <ele>53.9</ele>
        <time>2020-07-03T16:19:35Z</time>
      </trkpt>
      <trkpt lat="46.8167" lon="0.52794">
        <ele>53.9</ele>
        <time>2020-07-03T16:19:36Z</time>
      </trkpt>
      <trkpt lat="46.81666" lon="0.52796">
        <ele>53.8</ele>
        <time>2020-07-03T16:19:37Z</time>
      </trkpt>
      <trkpt lat="46.81665" lon="0.52795">
        <ele>53.8</ele>
        <time>2020-07-03T16:19:38Z</time>
      </trkpt>
      <trkpt lat="46.81663" lon="0.52795">
        <ele>53.8</ele>
        <time>2020-07-03T16:19:39Z</time>
      </trkpt>
      <trkpt lat="46.81662" lon="0.52796">
        <ele>53.7</ele>
        <time>2020-07-03T16:19:40Z</time>
      </trkpt>
      <trkpt lat="46.81661" lon="0.52797">
        <ele>53.7</ele>
        <time>2020-07-03T16:19:41Z</time>
      </trkpt>
      <trkpt lat="46.8166" lon="0.52798">
        <ele>53.7</ele>
        <time>2020-07-03T16:19:42Z</time>
      </trkpt>
      <trkpt lat="46.81659" lon="0.52798">
        <ele>53.7</ele>
        <time>2020-07-03T16:19:43Z</time>
      </trkpt>
      <trkpt lat="46.81657" lon="0.52796">
        <ele>53.6</ele>
        <time>2020-07-03T16:19:44Z</time>
      </trkpt>
      <trkpt lat="46.81656" lon="0.52796">
        <ele>53.6</ele>
        <time>2020-07-03T16:19:45Z</time>
      </trkpt>
      <trkpt lat="46.81654" lon="0.52797">
        <ele>53.6</ele>
        <time>2020-07-03T16:19:46Z</time>
      </trkpt>
      <trkpt lat="46.81651" lon="0.52799">
        <ele>53.5</ele>
        <time>2020-07-03T16:19:47Z</time>
      </trkpt>
      <trkpt lat="46.81647" lon="0.52803">
        <ele>53.5</ele>
        <time>2020-07-03T16:19:48Z</time>
      </trkpt>
      <trkpt lat="46.81645" lon="0.52805">
        <ele>53.4</ele>
        <time>2020-07-03T16:19:49Z</time>
      </trkpt>
      <trkpt lat="46.8164" lon="0.52808">
        <ele>53.3</ele>
        <time>2020-07-03T16:19:50Z</time>
      </trkpt>
      <trkpt lat="46.81635" lon="0.52811">
        <ele>53.2</ele>
        <time>2020-07-03T16:19:51Z</time>
      </trkpt>
      <trkpt lat="46.8163" lon="0.52813">
        <ele>53.1</ele>
        <time>2020-07-03T16:19:52Z</time>
      </trkpt>
      <trkpt lat="46.81625" lon="0.52816">
        <ele>53.1</ele>
        <time>2020-07-03T16:19:53Z</time>
      </trkpt>
      <trkpt lat="46.81619" lon="0.52821">
        <ele>53</ele>
        <time>2020-07-03T16:19:54Z</time>
      </trkpt>
      <trkpt lat="46.81614" lon="0.52824">
        <ele>53</ele>
        <time>2020-07-03T16:19:55Z</time>
      </trkpt>
      <trkpt lat="46.81609" lon="0.52827">
        <ele>52.9</ele>
        <time>2020-07-03T16:19:56Z</time>
      </trkpt>
      <trkpt lat="46.81603" lon="0.5283">
        <ele>52.9</ele>
        <time>2020-07-03T16:19:57Z</time>
      </trkpt>
      <trkpt lat="46.81599" lon="0.52834">
        <ele>52.9</ele>
        <time>2020-07-03T16:19:58Z</time>
      </trkpt>
      <trkpt lat="46.81594" lon="0.52839">
        <ele>52.8</ele>
        <time>2020-07-03T16:19:59Z</time>
      </trkpt>
      <trkpt lat="46.81589" lon="0.52842">
        <ele>52.8</ele>
        <time>2020-07-03T16:20:00Z</time>
      </trkpt>
      <trkpt lat="46.81585" lon="0.52845">
        <ele>52.8</ele>
        <time>2020-07-03T16:20:01Z</time>
      </trkpt>
      <trkpt lat="46.81581" lon="0.5285">
        <ele>52.8</ele>
        <time>2020-07-03T16:20:02Z</time>
      </trkpt>
      <trkpt lat="46.81577" lon="0.52854">
        <ele>52.8</ele>
        <time>2020-07-03T16:20:03Z</time>
      </trkpt>
      <trkpt lat="46.81572" lon="0.52859">
        <ele>52.8</ele>
        <time>2020-07-03T16:20:04Z</time>
      </trkpt>
      <trkpt lat="46.81568" lon="0.52864">
        <ele>52.8</ele>
        <time>2020-07-03T16:20:05Z</time>
      </trkpt>
      <trkpt lat="46.81564" lon="0.52869">
        <ele>52.8</ele>
        <time>2020-07-03T16:20:06Z</time>
      </trkpt>
      <trkpt lat="46.81559" lon="0.52874">
        <ele>52.8</ele>
        <time>2020-07-03T16:20:07Z</time>
      </trkpt>
      <trkpt lat="46.81554" lon="0.5288">
        <ele>52.8</ele>
        <time>2020-07-03T16:20:08Z</time>
      </trkpt>
      <trkpt lat="46.8155" lon="0.52886">
        <ele>52.8</ele>
        <time>2020-07-03T16:20:09Z</time>
      </trkpt>
      <trkpt lat="46.81545" lon="0.52894">
        <ele>52.8</ele>
        <time>2020-07-03T16:20:10Z</time>
      </trkpt>
      <trkpt lat="46.8154" lon="0.52898">
        <ele>52.8</ele>
        <time>2020-07-03T16:20:11Z</time>
      </trkpt>
      <trkpt lat="46.81537" lon="0.52904">
        <ele>52.8</ele>
        <time>2020-07-03T16:20:12Z</time>
      </trkpt>
      <trkpt lat="46.81532" lon="0.52911">
        <ele>52.8</ele>
        <time>2020-07-03T16:20:13Z</time>
      </trkpt>
      <trkpt lat="46.81528" lon="0.52917">
        <ele>52.8</ele>
        <time>2020-07-03T16:20:14Z</time>
      </trkpt>
      <trkpt lat="46.81523" lon="0.52925">
        <ele>52.9</ele>
        <time>2020-07-03T16:20:15Z</time>
      </trkpt>
      <trkpt lat="46.81518" lon="0.52932">
        <ele>52.9</ele>
        <time>2020-07-03T16:20:16Z</time>
      </trkpt>
      <trkpt lat="46.81514" lon="0.52939">
        <ele>52.9</ele>
        <time>2020-07-03T16:20:17Z</time>
      </trkpt>
      <trkpt lat="46.81509" lon="0.52945">
        <ele>52.9</ele>
        <time>2020-07-03T16:20:18Z</time>
      </trkpt>
      <trkpt lat="46.81507" lon="0.5295">
        <ele>52.9</ele>
        <time>2020-07-03T16:20:19Z</time>
      </trkpt>
      <trkpt lat="46.81502" lon="0.52956">
        <ele>52.9</ele>
        <time>2020-07-03T16:20:20Z</time>
      </trkpt>
      <trkpt lat="46.81498" lon="0.52962">
        <ele>52.9</ele>
        <time>2020-07-03T16:20:21Z</time>
      </trkpt>
      <trkpt lat="46.81492" lon="0.52968">
        <ele>53</ele>
        <time>2020-07-03T16:20:22Z</time>
      </trkpt>
      <trkpt lat="46.81487" lon="0.52975">
        <ele>53</ele>
        <time>2020-07-03T16:20:23Z</time>
      </trkpt>
      <trkpt lat="46.81482" lon="0.52979">
        <ele>53</ele>
        <time>2020-07-03T16:20:24Z</time>
      </trkpt>
      <trkpt lat="46.81476" lon="0.52984">
        <ele>53</ele>
        <time>2020-07-03T16:20:25Z</time>
      </trkpt>
      <trkpt lat="46.8147" lon="0.52989">
        <ele>53</ele>
        <time>2020-07-03T16:20:26Z</time>
      </trkpt>
      <trkpt lat="46.81464" lon="0.52994">
        <ele>53</ele>
        <time>2020-07-03T16:20:27Z</time>
      </trkpt>
      <trkpt lat="46.81459" lon="0.52998">
        <ele>53</ele>
        <time>2020-07-03T16:20:28Z</time>
      </trkpt>
      <trkpt lat="46.81454" lon="0.53003">
        <ele>53</ele>
        <time>2020-07-03T16:20:29Z</time>
      </trkpt>
      <trkpt lat="46.81448" lon="0.53007">
        <ele>53</ele>
        <time>2020-07-03T16:20:30Z</time>
      </trkpt>
      <trkpt lat="46.81443" lon="0.53013">
        <ele>53</ele>
        <time>2020-07-03T16:20:31Z</time>
      </trkpt>
      <trkpt lat="46.81437" lon="0.53017">
        <ele>53</ele>
        <time>2020-07-03T16:20:32Z</time>
      </trkpt>
      <trkpt lat="46.81431" lon="0.53021">
        <ele>52.9</ele>
        <time>2020-07-03T16:20:33Z</time>
      </trkpt>
      <trkpt lat="46.81425" lon="0.53025">
        <ele>52.9</ele>
        <time>2020-07-03T16:20:34Z</time>
      </trkpt>
      <trkpt lat="46.81419" lon="0.53028">
        <ele>52.9</ele>
        <time>2020-07-03T16:20:35Z</time>
      </trkpt>
      <trkpt lat="46.81413" lon="0.53032">
        <ele>52.9</ele>
        <time>2020-07-03T16:20:36Z</time>
      </trkpt>
      <trkpt lat="46.81407" lon="0.53036">
        <ele>52.8</ele>
        <time>2020-07-03T16:20:37Z</time>
      </trkpt>
      <trkpt lat="46.814" lon="0.53039">
        <ele>52.8</ele>
        <time>2020-07-03T16:20:38Z</time>
      </trkpt>
      <trkpt lat="46.81394" lon="0.53041">
        <ele>52.8</ele>
        <time>2020-07-03T16:20:39Z</time>
      </trkpt>
      <trkpt lat="46.81388" lon="0.53043">
        <ele>52.8</ele>
        <time>2020-07-03T16:20:40Z</time>
      </trkpt>
      <trkpt lat="46.81381" lon="0.53047">
        <ele>52.9</ele>
        <time>2020-07-03T16:20:41Z</time>
      </trkpt>
      <trkpt lat="46.81375" lon="0.53049">
        <ele>52.9</ele>
        <time>2020-07-03T16:20:42Z</time>
      </trkpt>
      <trkpt lat="46.81368" lon="0.53052">
        <ele>52.9</ele>
        <time>2020-07-03T16:20:43Z</time>
      </trkpt>
      <trkpt lat="46.81362" lon="0.53054">
        <ele>52.9</ele>
        <time>2020-07-03T16:20:44Z</time>
      </trkpt>
      <trkpt lat="46.81356" lon="0.53056">
        <ele>52.9</ele>
        <time>2020-07-03T16:20:45Z</time>
      </trkpt>
      <trkpt lat="46.8135" lon="0.53058">
        <ele>53</ele>
        <time>2020-07-03T16:20:46Z</time>
      </trkpt>
      <trkpt lat="46.81344" lon="0.5306">
        <ele>53</ele>
        <time>2020-07-03T16:20:47Z</time>
      </trkpt>
      <trkpt lat="46.8134" lon="0.53061">
        <ele>53</ele>
        <time>2020-07-03T16:20:48Z</time>
      </trkpt>
      <trkpt lat="46.81334" lon="0.53062">
        <ele>53</ele>
        <time>2020-07-03T16:20:49Z</time>
      </trkpt>
      <trkpt lat="46.81328" lon="0.53063">
        <ele>53</ele>
        <time>2020-07-03T16:20:50Z</time>
      </trkpt>
      <trkpt lat="46.81322" lon="0.53063">
        <ele>53</ele>
        <time>2020-07-03T16:20:51Z</time>
      </trkpt>
      <trkpt lat="46.81317" lon="0.53064">
        <ele>52.9</ele>
        <time>2020-07-03T16:20:52Z</time>
      </trkpt>
      <trkpt lat="46.81311" lon="0.53064">
        <ele>52.9</ele>
        <time>2020-07-03T16:20:53Z</time>
      </trkpt>
      <trkpt lat="46.81305" lon="0.53066">
        <ele>52.9</ele>
        <time>2020-07-03T16:20:54Z</time>
      </trkpt>
      <trkpt lat="46.813" lon="0.53066">
        <ele>52.9</ele>
        <time>2020-07-03T16:20:55Z</time>
      </trkpt>
      <trkpt lat="46.81294" lon="0.53065">
        <ele>53.1</ele>
        <time>2020-07-03T16:20:56Z</time>
      </trkpt>
      <trkpt lat="46.81288" lon="0.53063">
        <ele>53.3</ele>
        <time>2020-07-03T16:20:57Z</time>
      </trkpt>
      <trkpt lat="46.81284" lon="0.53062">
        <ele>53.4</ele>
        <time>2020-07-03T16:20:58Z</time>
      </trkpt>
      <trkpt lat="46.8128" lon="0.53062">
        <ele>53.5</ele>
        <time>2020-07-03T16:20:59Z</time>
      </trkpt>
      <trkpt lat="46.81277" lon="0.5306">
        <ele>53.7</ele>
        <time>2020-07-03T16:21:00Z</time>
      </trkpt>
      <trkpt lat="46.81274" lon="0.53059">
        <ele>53.8</ele>
        <time>2020-07-03T16:21:01Z</time>
      </trkpt>
      <trkpt lat="46.8127" lon="0.53056">
        <ele>53.9</ele>
        <time>2020-07-03T16:21:02Z</time>
      </trkpt>
      <trkpt lat="46.81267" lon="0.53052">
        <ele>54.1</ele>
        <time>2020-07-03T16:21:03Z</time>
      </trkpt>
      <trkpt lat="46.81265" lon="0.53051">
        <ele>54.1</ele>
        <time>2020-07-03T16:21:04Z</time>
      </trkpt>
      <trkpt lat="46.8126" lon="0.53051">
        <ele>54.1</ele>
        <time>2020-07-03T16:21:05Z</time>
      </trkpt>
      <trkpt lat="46.81256" lon="0.53053">
        <ele>54.1</ele>
        <time>2020-07-03T16:21:06Z</time>
      </trkpt>
      <trkpt lat="46.81251" lon="0.53057">
        <ele>54</ele>
        <time>2020-07-03T16:21:07Z</time>
      </trkpt>
      <trkpt lat="46.81247" lon="0.53061">
        <ele>54</ele>
        <time>2020-07-03T16:21:08Z</time>
      </trkpt>
      <trkpt lat="46.81242" lon="0.53061">
        <ele>54</ele>
        <time>2020-07-03T16:21:09Z</time>
      </trkpt>
      <trkpt lat="46.81235" lon="0.5306">
        <ele>53.8</ele>
        <time>2020-07-03T16:21:10Z</time>
      </trkpt>
      <trkpt lat="46.8123" lon="0.53058">
        <ele>53.7</ele>
        <time>2020-07-03T16:21:11Z</time>
      </trkpt>
      <trkpt lat="46.81224" lon="0.53056">
        <ele>53.7</ele>
        <time>2020-07-03T16:21:12Z</time>
      </trkpt>
      <trkpt lat="46.81219" lon="0.53054">
        <ele>53.7</ele>
        <time>2020-07-03T16:21:13Z</time>
      </trkpt>
      <trkpt lat="46.81213" lon="0.53051">
        <ele>53.6</ele>
        <time>2020-07-03T16:21:14Z</time>
      </trkpt>
      <trkpt lat="46.81208" lon="0.53049">
        <ele>53.6</ele>
        <time>2020-07-03T16:21:15Z</time>
      </trkpt>
      <trkpt lat="46.81202" lon="0.53047">
        <ele>53.6</ele>
        <time>2020-07-03T16:21:16Z</time>
      </trkpt>
      <trkpt lat="46.81196" lon="0.53046">
        <ele>53.6</ele>
        <time>2020-07-03T16:21:17Z</time>
      </trkpt>
      <trkpt lat="46.81191" lon="0.53045">
        <ele>53.7</ele>
        <time>2020-07-03T16:21:18Z</time>
      </trkpt>
      <trkpt lat="46.81184" lon="0.53042">
        <ele>53.7</ele>
        <time>2020-07-03T16:21:19Z</time>
      </trkpt>
      <trkpt lat="46.81178" lon="0.53041">
        <ele>53.7</ele>
        <time>2020-07-03T16:21:20Z</time>
      </trkpt>
      <trkpt lat="46.81171" lon="0.5304">
        <ele>53.7</ele>
        <time>2020-07-03T16:21:21Z</time>
      </trkpt>
      <trkpt lat="46.81165" lon="0.53039">
        <ele>53.8</ele>
        <time>2020-07-03T16:21:22Z</time>
      </trkpt>
      <trkpt lat="46.8116" lon="0.53041">
        <ele>53.9</ele>
        <time>2020-07-03T16:21:23Z</time>
      </trkpt>
      <trkpt lat="46.81154" lon="0.53037">
        <ele>54</ele>
        <time>2020-07-03T16:21:24Z</time>
      </trkpt>
      <trkpt lat="46.81148" lon="0.53036">
        <ele>54.1</ele>
        <time>2020-07-03T16:21:25Z</time>
      </trkpt>
      <trkpt lat="46.81143" lon="0.53036">
        <ele>54.1</ele>
        <time>2020-07-03T16:21:26Z</time>
      </trkpt>
      <trkpt lat="46.81138" lon="0.53035">
        <ele>54.2</ele>
        <time>2020-07-03T16:21:27Z</time>
      </trkpt>
      <trkpt lat="46.81132" lon="0.53034">
        <ele>54.3</ele>
        <time>2020-07-03T16:21:28Z</time>
      </trkpt>
      <trkpt lat="46.81127" lon="0.53033">
        <ele>54.4</ele>
        <time>2020-07-03T16:21:29Z</time>
      </trkpt>
      <trkpt lat="46.81121" lon="0.53032">
        <ele>54.6</ele>
        <time>2020-07-03T16:21:30Z</time>
      </trkpt>
      <trkpt lat="46.81116" lon="0.53032">
        <ele>54.6</ele>
        <time>2020-07-03T16:21:31Z</time>
      </trkpt>
      <trkpt lat="46.81111" lon="0.53031">
        <ele>54.7</ele>
        <time>2020-07-03T16:21:32Z</time>
      </trkpt>
      <trkpt lat="46.81105" lon="0.53027">
        <ele>54.8</ele>
        <time>2020-07-03T16:21:33Z</time>
      </trkpt>
      <trkpt lat="46.81102" lon="0.53027">
        <ele>54.8</ele>
        <time>2020-07-03T16:21:34Z</time>
      </trkpt>
      <trkpt lat="46.81098" lon="0.53027">
        <ele>54.9</ele>
        <time>2020-07-03T16:21:35Z</time>
      </trkpt>
      <trkpt lat="46.81094" lon="0.53026">
        <ele>54.9</ele>
        <time>2020-07-03T16:21:36Z</time>
      </trkpt>
      <trkpt lat="46.81091" lon="0.53025">
        <ele>54.9</ele>
        <time>2020-07-03T16:21:37Z</time>
      </trkpt>
      <trkpt lat="46.81089" lon="0.53023">
        <ele>54.9</ele>
        <time>2020-07-03T16:21:38Z</time>
      </trkpt>
      <trkpt lat="46.81087" lon="0.53019">
        <ele>54.9</ele>
        <time>2020-07-03T16:21:39Z</time>
      </trkpt>
      <trkpt lat="46.81086" lon="0.53014">
        <ele>54.9</ele>
        <time>2020-07-03T16:21:40Z</time>
      </trkpt>
      <trkpt lat="46.81088" lon="0.53005">
        <ele>54.9</ele>
        <time>2020-07-03T16:21:41Z</time>
      </trkpt>
      <trkpt lat="46.8109" lon="0.52997">
        <ele>54.9</ele>
        <time>2020-07-03T16:21:42Z</time>
      </trkpt>
      <trkpt lat="46.8109" lon="0.5299">
        <ele>54.9</ele>
        <time>2020-07-03T16:21:43Z</time>
      </trkpt>
      <trkpt lat="46.81091" lon="0.52984">
        <ele>55</ele>
        <time>2020-07-03T16:21:44Z</time>
      </trkpt>
      <trkpt lat="46.81092" lon="0.52977">
        <ele>55</ele>
        <time>2020-07-03T16:21:45Z</time>
      </trkpt>
      <trkpt lat="46.81094" lon="0.5297">
        <ele>55</ele>
        <time>2020-07-03T16:21:46Z</time>
      </trkpt>
      <trkpt lat="46.81095" lon="0.52962">
        <ele>55</ele>
        <time>2020-07-03T16:21:47Z</time>
      </trkpt>
      <trkpt lat="46.81096" lon="0.52954">
        <ele>55</ele>
        <time>2020-07-03T16:21:48Z</time>
      </trkpt>
      <trkpt lat="46.81097" lon="0.52948">
        <ele>54.9</ele>
        <time>2020-07-03T16:21:49Z</time>
      </trkpt>
      <trkpt lat="46.81097" lon="0.52941">
        <ele>54.9</ele>
        <time>2020-07-03T16:21:50Z</time>
      </trkpt>
      <trkpt lat="46.81095" lon="0.52936">
        <ele>54.8</ele>
        <time>2020-07-03T16:21:51Z</time>
      </trkpt>
      <trkpt lat="46.81093" lon="0.52932">
        <ele>54.8</ele>
        <time>2020-07-03T16:21:52Z</time>
      </trkpt>
      <trkpt lat="46.81089" lon="0.52928">
        <ele>54.7</ele>
        <time>2020-07-03T16:21:53Z</time>
      </trkpt>
      <trkpt lat="46.81086" lon="0.52924">
        <ele>54.7</ele>
        <time>2020-07-03T16:21:54Z</time>
      </trkpt>
      <trkpt lat="46.81083" lon="0.52918">
        <ele>54.7</ele>
        <time>2020-07-03T16:21:55Z</time>
      </trkpt>
      <trkpt lat="46.81079" lon="0.5291">
        <ele>54.6</ele>
        <time>2020-07-03T16:21:56Z</time>
      </trkpt>
      <trkpt lat="46.81076" lon="0.52904">
        <ele>54.5</ele>
        <time>2020-07-03T16:21:57Z</time>
      </trkpt>
      <trkpt lat="46.81072" lon="0.529">
        <ele>54.4</ele>
        <time>2020-07-03T16:21:58Z</time>
      </trkpt>
      <trkpt lat="46.81069" lon="0.52894">
        <ele>54.4</ele>
        <time>2020-07-03T16:21:59Z</time>
      </trkpt>
      <trkpt lat="46.81066" lon="0.52888">
        <ele>54.3</ele>
        <time>2020-07-03T16:22:00Z</time>
      </trkpt>
      <trkpt lat="46.81062" lon="0.52882">
        <ele>54.3</ele>
        <time>2020-07-03T16:22:01Z</time>
      </trkpt>
      <trkpt lat="46.81058" lon="0.52875">
        <ele>54.2</ele>
        <time>2020-07-03T16:22:02Z</time>
      </trkpt>
      <trkpt lat="46.81054" lon="0.52868">
        <ele>54.2</ele>
        <time>2020-07-03T16:22:03Z</time>
      </trkpt>
      <trkpt lat="46.81049" lon="0.52861">
        <ele>54.1</ele>
        <time>2020-07-03T16:22:04Z</time>
      </trkpt>
      <trkpt lat="46.81045" lon="0.52857">
        <ele>54</ele>
        <time>2020-07-03T16:22:05Z</time>
      </trkpt>
      <trkpt lat="46.81041" lon="0.52851">
        <ele>54</ele>
        <time>2020-07-03T16:22:06Z</time>
      </trkpt>
      <trkpt lat="46.81038" lon="0.52844">
        <ele>53.9</ele>
        <time>2020-07-03T16:22:07Z</time>
      </trkpt>
      <trkpt lat="46.81034" lon="0.52837">
        <ele>53.8</ele>
        <time>2020-07-03T16:22:08Z</time>
      </trkpt>
      <trkpt lat="46.81029" lon="0.52829">
        <ele>53.7</ele>
        <time>2020-07-03T16:22:09Z</time>
      </trkpt>
      <trkpt lat="46.81025" lon="0.52823">
        <ele>53.6</ele>
        <time>2020-07-03T16:22:10Z</time>
      </trkpt>
      <trkpt lat="46.8102" lon="0.52817">
        <ele>53.5</ele>
        <time>2020-07-03T16:22:11Z</time>
      </trkpt>
      <trkpt lat="46.81016" lon="0.52809">
        <ele>53.4</ele>
        <time>2020-07-03T16:22:12Z</time>
      </trkpt>
      <trkpt lat="46.81011" lon="0.52802">
        <ele>53.2</ele>
        <time>2020-07-03T16:22:13Z</time>
      </trkpt>
      <trkpt lat="46.81006" lon="0.52796">
        <ele>53.2</ele>
        <time>2020-07-03T16:22:14Z</time>
      </trkpt>
      <trkpt lat="46.81002" lon="0.52788">
        <ele>53.1</ele>
        <time>2020-07-03T16:22:15Z</time>
      </trkpt>
      <trkpt lat="46.80998" lon="0.52781">
        <ele>53.1</ele>
        <time>2020-07-03T16:22:16Z</time>
      </trkpt>
      <trkpt lat="46.80995" lon="0.52774">
        <ele>53</ele>
        <time>2020-07-03T16:22:17Z</time>
      </trkpt>
      <trkpt lat="46.80992" lon="0.52766">
        <ele>53</ele>
        <time>2020-07-03T16:22:18Z</time>
      </trkpt>
      <trkpt lat="46.80988" lon="0.5276">
        <ele>53</ele>
        <time>2020-07-03T16:22:19Z</time>
      </trkpt>
      <trkpt lat="46.80984" lon="0.52753">
        <ele>53</ele>
        <time>2020-07-03T16:22:20Z</time>
      </trkpt>
      <trkpt lat="46.80981" lon="0.52746">
        <ele>53</ele>
        <time>2020-07-03T16:22:21Z</time>
      </trkpt>
      <trkpt lat="46.80979" lon="0.5274">
        <ele>52.9</ele>
        <time>2020-07-03T16:22:22Z</time>
      </trkpt>
      <trkpt lat="46.80976" lon="0.52732">
        <ele>52.9</ele>
        <time>2020-07-03T16:22:23Z</time>
      </trkpt>
      <trkpt lat="46.80973" lon="0.52725">
        <ele>52.9</ele>
        <time>2020-07-03T16:22:24Z</time>
      </trkpt>
      <trkpt lat="46.80971" lon="0.52718">
        <ele>53</ele>
        <time>2020-07-03T16:22:25Z</time>
      </trkpt>
      <trkpt lat="46.80969" lon="0.52712">
        <ele>53</ele>
        <time>2020-07-03T16:22:26Z</time>
      </trkpt>
      <trkpt lat="46.80968" lon="0.52704">
        <ele>53.1</ele>
        <time>2020-07-03T16:22:27Z</time>
      </trkpt>
      <trkpt lat="46.80966" lon="0.52695">
        <ele>53.1</ele>
        <time>2020-07-03T16:22:28Z</time>
      </trkpt>
      <trkpt lat="46.80964" lon="0.52685">
        <ele>53.2</ele>
        <time>2020-07-03T16:22:29Z</time>
      </trkpt>
      <trkpt lat="46.80962" lon="0.52676">
        <ele>53.2</ele>
        <time>2020-07-03T16:22:30Z</time>
      </trkpt>
      <trkpt lat="46.8096" lon="0.52668">
        <ele>53.3</ele>
        <time>2020-07-03T16:22:31Z</time>
      </trkpt>
      <trkpt lat="46.80958" lon="0.5266">
        <ele>53.4</ele>
        <time>2020-07-03T16:22:32Z</time>
      </trkpt>
      <trkpt lat="46.80957" lon="0.52653">
        <ele>53.6</ele>
        <time>2020-07-03T16:22:33Z</time>
      </trkpt>
      <trkpt lat="46.80955" lon="0.52646">
        <ele>53.7</ele>
        <time>2020-07-03T16:22:34Z</time>
      </trkpt>
      <trkpt lat="46.80952" lon="0.52639">
        <ele>53.9</ele>
        <time>2020-07-03T16:22:35Z</time>
      </trkpt>
      <trkpt lat="46.80949" lon="0.52634">
        <ele>54.1</ele>
        <time>2020-07-03T16:22:36Z</time>
      </trkpt>
      <trkpt lat="46.80947" lon="0.52628">
        <ele>54.3</ele>
        <time>2020-07-03T16:22:37Z</time>
      </trkpt>
      <trkpt lat="46.80944" lon="0.52622">
        <ele>54.5</ele>
        <time>2020-07-03T16:22:38Z</time>
      </trkpt>
      <trkpt lat="46.80941" lon="0.52616">
        <ele>54.8</ele>
        <time>2020-07-03T16:22:39Z</time>
      </trkpt>
      <trkpt lat="46.80938" lon="0.52611">
        <ele>55</ele>
        <time>2020-07-03T16:22:40Z</time>
      </trkpt>
      <trkpt lat="46.80935" lon="0.52606">
        <ele>55.1</ele>
        <time>2020-07-03T16:22:41Z</time>
      </trkpt>
      <trkpt lat="46.80932" lon="0.52602">
        <ele>55.4</ele>
        <time>2020-07-03T16:22:42Z</time>
      </trkpt>
      <trkpt lat="46.80929" lon="0.52597">
        <ele>55.6</ele>
        <time>2020-07-03T16:22:43Z</time>
      </trkpt>
      <trkpt lat="46.80926" lon="0.52591">
        <ele>55.8</ele>
        <time>2020-07-03T16:22:44Z</time>
      </trkpt>
      <trkpt lat="46.80925" lon="0.52586">
        <ele>56</ele>
        <time>2020-07-03T16:22:45Z</time>
      </trkpt>
      <trkpt lat="46.80922" lon="0.52582">
        <ele>56.2</ele>
        <time>2020-07-03T16:22:46Z</time>
      </trkpt>
      <trkpt lat="46.80918" lon="0.52577">
        <ele>56.4</ele>
        <time>2020-07-03T16:22:47Z</time>
      </trkpt>
      <trkpt lat="46.80916" lon="0.52572">
        <ele>56.6</ele>
        <time>2020-07-03T16:22:48Z</time>
      </trkpt>
      <trkpt lat="46.80912" lon="0.52568">
        <ele>56.9</ele>
        <time>2020-07-03T16:22:49Z</time>
      </trkpt>
      <trkpt lat="46.8091" lon="0.52564">
        <ele>57</ele>
        <time>2020-07-03T16:22:50Z</time>
      </trkpt>
      <trkpt lat="46.80908" lon="0.52559">
        <ele>57.3</ele>
        <time>2020-07-03T16:22:51Z</time>
      </trkpt>
      <trkpt lat="46.80908" lon="0.52557">
        <ele>57.4</ele>
        <time>2020-07-03T16:22:52Z</time>
      </trkpt>
      <trkpt lat="46.80906" lon="0.52554">
        <ele>57.6</ele>
        <time>2020-07-03T16:22:53Z</time>
      </trkpt>
      <trkpt lat="46.80905" lon="0.52553">
        <ele>57.6</ele>
        <time>2020-07-03T16:22:54Z</time>
      </trkpt>
      <trkpt lat="46.80903" lon="0.5255">
        <ele>57.8</ele>
        <time>2020-07-03T16:22:55Z</time>
      </trkpt>
      <trkpt lat="46.80902" lon="0.52549">
        <ele>57.9</ele>
        <time>2020-07-03T16:22:56Z</time>
      </trkpt>
      <trkpt lat="46.809" lon="0.52544">
        <ele>58.2</ele>
        <time>2020-07-03T16:22:57Z</time>
      </trkpt>
      <trkpt lat="46.80899" lon="0.52543">
        <ele>58.3</ele>
        <time>2020-07-03T16:22:58Z</time>
      </trkpt>
      <trkpt lat="46.80897" lon="0.52539">
        <ele>58.5</ele>
        <time>2020-07-03T16:22:59Z</time>
      </trkpt>
      <trkpt lat="46.80896" lon="0.52538">
        <ele>58.5</ele>
        <time>2020-07-03T16:23:00Z</time>
      </trkpt>
      <trkpt lat="46.80894" lon="0.52534">
        <ele>58.7</ele>
        <time>2020-07-03T16:23:01Z</time>
      </trkpt>
      <trkpt lat="46.80892" lon="0.5253">
        <ele>58.9</ele>
        <time>2020-07-03T16:23:02Z</time>
      </trkpt>
      <trkpt lat="46.8089" lon="0.52527">
        <ele>59.1</ele>
        <time>2020-07-03T16:23:03Z</time>
      </trkpt>
      <trkpt lat="46.80888" lon="0.52522">
        <ele>59.4</ele>
        <time>2020-07-03T16:23:04Z</time>
      </trkpt>
      <trkpt lat="46.80887" lon="0.5252">
        <ele>59.4</ele>
        <time>2020-07-03T16:23:05Z</time>
      </trkpt>
      <trkpt lat="46.80886" lon="0.52517">
        <ele>59.6</ele>
        <time>2020-07-03T16:23:06Z</time>
      </trkpt>
      <trkpt lat="46.80886" lon="0.52515">
        <ele>59.7</ele>
        <time>2020-07-03T16:23:07Z</time>
      </trkpt>
      <trkpt lat="46.80884" lon="0.52511">
        <ele>59.9</ele>
        <time>2020-07-03T16:23:08Z</time>
      </trkpt>
      <trkpt lat="46.80883" lon="0.5251">
        <ele>59.9</ele>
        <time>2020-07-03T16:23:09Z</time>
      </trkpt>
      <trkpt lat="46.80881" lon="0.52507">
        <ele>60.1</ele>
        <time>2020-07-03T16:23:10Z</time>
      </trkpt>
      <trkpt lat="46.80879" lon="0.52502">
        <ele>60.4</ele>
        <time>2020-07-03T16:23:11Z</time>
      </trkpt>
      <trkpt lat="46.80877" lon="0.525">
        <ele>60.5</ele>
        <time>2020-07-03T16:23:12Z</time>
      </trkpt>
      <trkpt lat="46.80875" lon="0.52496">
        <ele>60.7</ele>
        <time>2020-07-03T16:23:13Z</time>
      </trkpt>
      <trkpt lat="46.80874" lon="0.52495">
        <ele>60.8</ele>
        <time>2020-07-03T16:23:14Z</time>
      </trkpt>
      <trkpt lat="46.80873" lon="0.5249">
        <ele>60.9</ele>
        <time>2020-07-03T16:23:15Z</time>
      </trkpt>
      <trkpt lat="46.80872" lon="0.52489">
        <ele>61</ele>
        <time>2020-07-03T16:23:16Z</time>
      </trkpt>
      <trkpt lat="46.80869" lon="0.52485">
        <ele>61.2</ele>
        <time>2020-07-03T16:23:17Z</time>
      </trkpt>
      <trkpt lat="46.80869" lon="0.52483">
        <ele>61.3</ele>
        <time>2020-07-03T16:23:18Z</time>
      </trkpt>
      <trkpt lat="46.80867" lon="0.52478">
        <ele>61.5</ele>
        <time>2020-07-03T16:23:19Z</time>
      </trkpt>
      <trkpt lat="46.80866" lon="0.52476">
        <ele>61.6</ele>
        <time>2020-07-03T16:23:20Z</time>
      </trkpt>
      <trkpt lat="46.80865" lon="0.52472">
        <ele>61.8</ele>
        <time>2020-07-03T16:23:21Z</time>
      </trkpt>
      <trkpt lat="46.80864" lon="0.5247">
        <ele>61.9</ele>
        <time>2020-07-03T16:23:22Z</time>
      </trkpt>
      <trkpt lat="46.80862" lon="0.52466">
        <ele>62.1</ele>
        <time>2020-07-03T16:23:23Z</time>
      </trkpt>
      <trkpt lat="46.80861" lon="0.52464">
        <ele>62.2</ele>
        <time>2020-07-03T16:23:24Z</time>
      </trkpt>
      <trkpt lat="46.80858" lon="0.5246">
        <ele>62.4</ele>
        <time>2020-07-03T16:23:25Z</time>
      </trkpt>
      <trkpt lat="46.80858" lon="0.52459">
        <ele>62.5</ele>
        <time>2020-07-03T16:23:26Z</time>
      </trkpt>
      <trkpt lat="46.80856" lon="0.52454">
        <ele>62.7</ele>
        <time>2020-07-03T16:23:27Z</time>
      </trkpt>
      <trkpt lat="46.80856" lon="0.52453">
        <ele>62.7</ele>
        <time>2020-07-03T16:23:28Z</time>
      </trkpt>
      <trkpt lat="46.80854" lon="0.52448">
        <ele>63</ele>
        <time>2020-07-03T16:23:29Z</time>
      </trkpt>
      <trkpt lat="46.80854" lon="0.52445">
        <ele>63.1</ele>
        <time>2020-07-03T16:23:30Z</time>
      </trkpt>
      <trkpt lat="46.80852" lon="0.52441">
        <ele>63.3</ele>
        <time>2020-07-03T16:23:31Z</time>
      </trkpt>
      <trkpt lat="46.8085" lon="0.52438">
        <ele>63.5</ele>
        <time>2020-07-03T16:23:32Z</time>
      </trkpt>
      <trkpt lat="46.80849" lon="0.52436">
        <ele>63.5</ele>
        <time>2020-07-03T16:23:33Z</time>
      </trkpt>
      <trkpt lat="46.80847" lon="0.52432">
        <ele>63.7</ele>
        <time>2020-07-03T16:23:34Z</time>
      </trkpt>
      <trkpt lat="46.80847" lon="0.52431">
        <ele>63.8</ele>
        <time>2020-07-03T16:23:35Z</time>
      </trkpt>
      <trkpt lat="46.80846" lon="0.52426">
        <ele>64</ele>
        <time>2020-07-03T16:23:36Z</time>
      </trkpt>
      <trkpt lat="46.80845" lon="0.52424">
        <ele>64</ele>
        <time>2020-07-03T16:23:37Z</time>
      </trkpt>
      <trkpt lat="46.80842" lon="0.52421">
        <ele>64.2</ele>
        <time>2020-07-03T16:23:38Z</time>
      </trkpt>
      <trkpt lat="46.8084" lon="0.52417">
        <ele>64.3</ele>
        <time>2020-07-03T16:23:39Z</time>
      </trkpt>
      <trkpt lat="46.80839" lon="0.52416">
        <ele>64.4</ele>
        <time>2020-07-03T16:23:40Z</time>
      </trkpt>
      <trkpt lat="46.80837" lon="0.52413">
        <ele>64.5</ele>
        <time>2020-07-03T16:23:41Z</time>
      </trkpt>
      <trkpt lat="46.80836" lon="0.52412">
        <ele>64.6</ele>
        <time>2020-07-03T16:23:42Z</time>
      </trkpt>
      <trkpt lat="46.80834" lon="0.52408">
        <ele>64.7</ele>
        <time>2020-07-03T16:23:43Z</time>
      </trkpt>
      <trkpt lat="46.80833" lon="0.52407">
        <ele>64.7</ele>
        <time>2020-07-03T16:23:44Z</time>
      </trkpt>
      <trkpt lat="46.80832" lon="0.52403">
        <ele>64.8</ele>
        <time>2020-07-03T16:23:45Z</time>
      </trkpt>
      <trkpt lat="46.80831" lon="0.524">
        <ele>65</ele>
        <time>2020-07-03T16:23:46Z</time>
      </trkpt>
      <trkpt lat="46.80828" lon="0.52396">
        <ele>65.1</ele>
        <time>2020-07-03T16:23:47Z</time>
      </trkpt>
      <trkpt lat="46.80826" lon="0.52393">
        <ele>65.2</ele>
        <time>2020-07-03T16:23:48Z</time>
      </trkpt>
      <trkpt lat="46.80824" lon="0.52388">
        <ele>65.3</ele>
        <time>2020-07-03T16:23:49Z</time>
      </trkpt>
      <trkpt lat="46.80822" lon="0.52384">
        <ele>65.4</ele>
        <time>2020-07-03T16:23:50Z</time>
      </trkpt>
      <trkpt lat="46.80819" lon="0.5238">
        <ele>65.5</ele>
        <time>2020-07-03T16:23:51Z</time>
      </trkpt>
      <trkpt lat="46.80817" lon="0.52376">
        <ele>65.6</ele>
        <time>2020-07-03T16:23:52Z</time>
      </trkpt>
      <trkpt lat="46.80814" lon="0.52373">
        <ele>65.6</ele>
        <time>2020-07-03T16:23:53Z</time>
      </trkpt>
      <trkpt lat="46.80812" lon="0.5237">
        <ele>65.8</ele>
        <time>2020-07-03T16:23:54Z</time>
      </trkpt>
      <trkpt lat="46.80808" lon="0.52366">
        <ele>65.9</ele>
        <time>2020-07-03T16:23:55Z</time>
      </trkpt>
      <trkpt lat="46.80806" lon="0.52361">
        <ele>66</ele>
        <time>2020-07-03T16:23:56Z</time>
      </trkpt>
      <trkpt lat="46.80804" lon="0.52356">
        <ele>66.1</ele>
        <time>2020-07-03T16:23:57Z</time>
      </trkpt>
      <trkpt lat="46.80802" lon="0.52351">
        <ele>66.2</ele>
        <time>2020-07-03T16:23:58Z</time>
      </trkpt>
      <trkpt lat="46.80799" lon="0.52348">
        <ele>66.3</ele>
        <time>2020-07-03T16:23:59Z</time>
      </trkpt>
      <trkpt lat="46.80796" lon="0.52344">
        <ele>66.3</ele>
        <time>2020-07-03T16:24:00Z</time>
      </trkpt>
      <trkpt lat="46.80794" lon="0.52341">
        <ele>66.4</ele>
        <time>2020-07-03T16:24:01Z</time>
      </trkpt>
      <trkpt lat="46.80792" lon="0.52336">
        <ele>66.4</ele>
        <time>2020-07-03T16:24:02Z</time>
      </trkpt>
      <trkpt lat="46.80791" lon="0.52331">
        <ele>66.5</ele>
        <time>2020-07-03T16:24:03Z</time>
      </trkpt>
      <trkpt lat="46.80789" lon="0.52326">
        <ele>66.6</ele>
        <time>2020-07-03T16:24:04Z</time>
      </trkpt>
      <trkpt lat="46.80787" lon="0.52321">
        <ele>66.6</ele>
        <time>2020-07-03T16:24:05Z</time>
      </trkpt>
      <trkpt lat="46.80786" lon="0.52317">
        <ele>66.7</ele>
        <time>2020-07-03T16:24:06Z</time>
      </trkpt>
      <trkpt lat="46.80784" lon="0.52312">
        <ele>66.8</ele>
        <time>2020-07-03T16:24:07Z</time>
      </trkpt>
      <trkpt lat="46.80782" lon="0.52307">
        <ele>66.8</ele>
        <time>2020-07-03T16:24:08Z</time>
      </trkpt>
      <trkpt lat="46.8078" lon="0.52304">
        <ele>66.9</ele>
        <time>2020-07-03T16:24:09Z</time>
      </trkpt>
      <trkpt lat="46.80778" lon="0.523">
        <ele>67</ele>
        <time>2020-07-03T16:24:10Z</time>
      </trkpt>
      <trkpt lat="46.80775" lon="0.52296">
        <ele>67</ele>
        <time>2020-07-03T16:24:11Z</time>
      </trkpt>
      <trkpt lat="46.80773" lon="0.52291">
        <ele>67.1</ele>
        <time>2020-07-03T16:24:12Z</time>
      </trkpt>
      <trkpt lat="46.80772" lon="0.52287">
        <ele>67.1</ele>
        <time>2020-07-03T16:24:13Z</time>
      </trkpt>
      <trkpt lat="46.80769" lon="0.52282">
        <ele>67.2</ele>
        <time>2020-07-03T16:24:14Z</time>
      </trkpt>
      <trkpt lat="46.80765" lon="0.52277">
        <ele>67.2</ele>
        <time>2020-07-03T16:24:15Z</time>
      </trkpt>
      <trkpt lat="46.80762" lon="0.52272">
        <ele>67.3</ele>
        <time>2020-07-03T16:24:16Z</time>
      </trkpt>
      <trkpt lat="46.80759" lon="0.52268">
        <ele>67.3</ele>
        <time>2020-07-03T16:24:17Z</time>
      </trkpt>
      <trkpt lat="46.80757" lon="0.52263">
        <ele>67.4</ele>
        <time>2020-07-03T16:24:18Z</time>
      </trkpt>
      <trkpt lat="46.80755" lon="0.52258">
        <ele>67.5</ele>
        <time>2020-07-03T16:24:19Z</time>
      </trkpt>
      <trkpt lat="46.80752" lon="0.52252">
        <ele>67.6</ele>
        <time>2020-07-03T16:24:20Z</time>
      </trkpt>
      <trkpt lat="46.80749" lon="0.52248">
        <ele>67.6</ele>
        <time>2020-07-03T16:24:21Z</time>
      </trkpt>
      <trkpt lat="46.80747" lon="0.52245">
        <ele>67.7</ele>
        <time>2020-07-03T16:24:22Z</time>
      </trkpt>
      <trkpt lat="46.80744" lon="0.52241">
        <ele>67.7</ele>
        <time>2020-07-03T16:24:23Z</time>
      </trkpt>
      <trkpt lat="46.80742" lon="0.52237">
        <ele>67.8</ele>
        <time>2020-07-03T16:24:24Z</time>
      </trkpt>
      <trkpt lat="46.8074" lon="0.52232">
        <ele>67.8</ele>
        <time>2020-07-03T16:24:25Z</time>
      </trkpt>
      <trkpt lat="46.80738" lon="0.52228">
        <ele>67.9</ele>
        <time>2020-07-03T16:24:26Z</time>
      </trkpt>
      <trkpt lat="46.80735" lon="0.52225">
        <ele>67.9</ele>
        <time>2020-07-03T16:24:27Z</time>
      </trkpt>
      <trkpt lat="46.80732" lon="0.5222">
        <ele>67.9</ele>
        <time>2020-07-03T16:24:28Z</time>
      </trkpt>
      <trkpt lat="46.80729" lon="0.52216">
        <ele>67.9</ele>
        <time>2020-07-03T16:24:29Z</time>
      </trkpt>
      <trkpt lat="46.80726" lon="0.52212">
        <ele>67.9</ele>
        <time>2020-07-03T16:24:30Z</time>
      </trkpt>
      <trkpt lat="46.80724" lon="0.52206">
        <ele>67.9</ele>
        <time>2020-07-03T16:24:31Z</time>
      </trkpt>
      <trkpt lat="46.80722" lon="0.522">
        <ele>67.9</ele>
        <time>2020-07-03T16:24:32Z</time>
      </trkpt>
      <trkpt lat="46.8072" lon="0.52195">
        <ele>67.9</ele>
        <time>2020-07-03T16:24:33Z</time>
      </trkpt>
      <trkpt lat="46.80717" lon="0.52189">
        <ele>68</ele>
        <time>2020-07-03T16:24:34Z</time>
      </trkpt>
      <trkpt lat="46.80714" lon="0.52185">
        <ele>68</ele>
        <time>2020-07-03T16:24:35Z</time>
      </trkpt>
      <trkpt lat="46.80711" lon="0.52181">
        <ele>68</ele>
        <time>2020-07-03T16:24:36Z</time>
      </trkpt>
      <trkpt lat="46.80707" lon="0.52176">
        <ele>68</ele>
        <time>2020-07-03T16:24:37Z</time>
      </trkpt>
      <trkpt lat="46.80705" lon="0.52169">
        <ele>67.9</ele>
        <time>2020-07-03T16:24:38Z</time>
      </trkpt>
      <trkpt lat="46.80703" lon="0.52163">
        <ele>67.9</ele>
        <time>2020-07-03T16:24:39Z</time>
      </trkpt>
      <trkpt lat="46.80699" lon="0.52157">
        <ele>67.9</ele>
        <time>2020-07-03T16:24:40Z</time>
      </trkpt>
      <trkpt lat="46.80696" lon="0.5215">
        <ele>67.9</ele>
        <time>2020-07-03T16:24:41Z</time>
      </trkpt>
      <trkpt lat="46.80693" lon="0.52144">
        <ele>67.9</ele>
        <time>2020-07-03T16:24:42Z</time>
      </trkpt>
      <trkpt lat="46.80691" lon="0.52137">
        <ele>67.9</ele>
        <time>2020-07-03T16:24:43Z</time>
      </trkpt>
      <trkpt lat="46.80687" lon="0.5213">
        <ele>67.8</ele>
        <time>2020-07-03T16:24:44Z</time>
      </trkpt>
      <trkpt lat="46.80684" lon="0.52123">
        <ele>67.8</ele>
        <time>2020-07-03T16:24:45Z</time>
      </trkpt>
      <trkpt lat="46.8068" lon="0.52117">
        <ele>67.9</ele>
        <time>2020-07-03T16:24:46Z</time>
      </trkpt>
      <trkpt lat="46.80676" lon="0.5211">
        <ele>67.9</ele>
        <time>2020-07-03T16:24:47Z</time>
      </trkpt>
      <trkpt lat="46.80672" lon="0.52103">
        <ele>67.9</ele>
        <time>2020-07-03T16:24:48Z</time>
      </trkpt>
      <trkpt lat="46.80668" lon="0.52097">
        <ele>67.9</ele>
        <time>2020-07-03T16:24:49Z</time>
      </trkpt>
      <trkpt lat="46.80665" lon="0.5209">
        <ele>67.9</ele>
        <time>2020-07-03T16:24:50Z</time>
      </trkpt>
      <trkpt lat="46.80661" lon="0.52084">
        <ele>67.9</ele>
        <time>2020-07-03T16:24:51Z</time>
      </trkpt>
      <trkpt lat="46.80658" lon="0.52076">
        <ele>67.9</ele>
        <time>2020-07-03T16:24:52Z</time>
      </trkpt>
      <trkpt lat="46.80654" lon="0.52069">
        <ele>67.9</ele>
        <time>2020-07-03T16:24:53Z</time>
      </trkpt>
      <trkpt lat="46.8065" lon="0.52064">
        <ele>67.9</ele>
        <time>2020-07-03T16:24:54Z</time>
      </trkpt>
      <trkpt lat="46.80645" lon="0.52058">
        <ele>67.9</ele>
        <time>2020-07-03T16:24:55Z</time>
      </trkpt>
      <trkpt lat="46.80641" lon="0.52051">
        <ele>67.9</ele>
        <time>2020-07-03T16:24:56Z</time>
      </trkpt>
      <trkpt lat="46.80638" lon="0.52043">
        <ele>67.9</ele>
        <time>2020-07-03T16:24:57Z</time>
      </trkpt>
      <trkpt lat="46.80634" lon="0.52036">
        <ele>67.9</ele>
        <time>2020-07-03T16:24:58Z</time>
      </trkpt>
      <trkpt lat="46.80631" lon="0.52029">
        <ele>67.9</ele>
        <time>2020-07-03T16:24:59Z</time>
      </trkpt>
      <trkpt lat="46.80627" lon="0.52022">
        <ele>67.9</ele>
        <time>2020-07-03T16:25:00Z</time>
      </trkpt>
      <trkpt lat="46.80623" lon="0.52015">
        <ele>67.9</ele>
        <time>2020-07-03T16:25:01Z</time>
      </trkpt>
      <trkpt lat="46.80619" lon="0.52009">
        <ele>67.9</ele>
        <time>2020-07-03T16:25:02Z</time>
      </trkpt>
      <trkpt lat="46.80614" lon="0.52003">
        <ele>67.9</ele>
        <time>2020-07-03T16:25:03Z</time>
      </trkpt>
      <trkpt lat="46.8061" lon="0.51997">
        <ele>67.9</ele>
        <time>2020-07-03T16:25:04Z</time>
      </trkpt>
      <trkpt lat="46.80607" lon="0.5199">
        <ele>67.9</ele>
        <time>2020-07-03T16:25:05Z</time>
      </trkpt>
      <trkpt lat="46.80605" lon="0.51982">
        <ele>67.9</ele>
        <time>2020-07-03T16:25:06Z</time>
      </trkpt>
      <trkpt lat="46.80601" lon="0.51974">
        <ele>67.8</ele>
        <time>2020-07-03T16:25:07Z</time>
      </trkpt>
      <trkpt lat="46.80598" lon="0.51967">
        <ele>67.8</ele>
        <time>2020-07-03T16:25:08Z</time>
      </trkpt>
      <trkpt lat="46.80595" lon="0.51959">
        <ele>67.8</ele>
        <time>2020-07-03T16:25:09Z</time>
      </trkpt>
      <trkpt lat="46.80591" lon="0.51952">
        <ele>67.8</ele>
        <time>2020-07-03T16:25:10Z</time>
      </trkpt>
      <trkpt lat="46.80587" lon="0.51945">
        <ele>67.8</ele>
        <time>2020-07-03T16:25:11Z</time>
      </trkpt>
      <trkpt lat="46.80583" lon="0.51938">
        <ele>67.8</ele>
        <time>2020-07-03T16:25:12Z</time>
      </trkpt>
      <trkpt lat="46.80579" lon="0.51929">
        <ele>67.8</ele>
        <time>2020-07-03T16:25:13Z</time>
      </trkpt>
      <trkpt lat="46.80575" lon="0.51921">
        <ele>67.8</ele>
        <time>2020-07-03T16:25:14Z</time>
      </trkpt>
      <trkpt lat="46.80571" lon="0.51914">
        <ele>67.7</ele>
        <time>2020-07-03T16:25:15Z</time>
      </trkpt>
      <trkpt lat="46.80566" lon="0.51907">
        <ele>67.7</ele>
        <time>2020-07-03T16:25:16Z</time>
      </trkpt>
      <trkpt lat="46.80562" lon="0.51901">
        <ele>67.6</ele>
        <time>2020-07-03T16:25:17Z</time>
      </trkpt>
      <trkpt lat="46.80558" lon="0.51895">
        <ele>67.6</ele>
        <time>2020-07-03T16:25:18Z</time>
      </trkpt>
      <trkpt lat="46.80554" lon="0.51887">
        <ele>67.6</ele>
        <time>2020-07-03T16:25:19Z</time>
      </trkpt>
      <trkpt lat="46.80551" lon="0.51879">
        <ele>67.6</ele>
        <time>2020-07-03T16:25:20Z</time>
      </trkpt>
      <trkpt lat="46.80548" lon="0.51872">
        <ele>67.5</ele>
        <time>2020-07-03T16:25:21Z</time>
      </trkpt>
      <trkpt lat="46.80545" lon="0.51864">
        <ele>67.5</ele>
        <time>2020-07-03T16:25:22Z</time>
      </trkpt>
      <trkpt lat="46.80542" lon="0.51857">
        <ele>67.5</ele>
        <time>2020-07-03T16:25:23Z</time>
      </trkpt>
      <trkpt lat="46.80537" lon="0.51849">
        <ele>67.4</ele>
        <time>2020-07-03T16:25:24Z</time>
      </trkpt>
      <trkpt lat="46.80533" lon="0.51842">
        <ele>67.3</ele>
        <time>2020-07-03T16:25:25Z</time>
      </trkpt>
      <trkpt lat="46.80529" lon="0.51834">
        <ele>67.2</ele>
        <time>2020-07-03T16:25:26Z</time>
      </trkpt>
      <trkpt lat="46.80525" lon="0.51828">
        <ele>67.2</ele>
        <time>2020-07-03T16:25:27Z</time>
      </trkpt>
      <trkpt lat="46.80521" lon="0.5182">
        <ele>67.1</ele>
        <time>2020-07-03T16:25:28Z</time>
      </trkpt>
      <trkpt lat="46.80518" lon="0.51812">
        <ele>67</ele>
        <time>2020-07-03T16:25:29Z</time>
      </trkpt>
      <trkpt lat="46.80514" lon="0.51804">
        <ele>66.9</ele>
        <time>2020-07-03T16:25:30Z</time>
      </trkpt>
      <trkpt lat="46.8051" lon="0.51796">
        <ele>66.8</ele>
        <time>2020-07-03T16:25:31Z</time>
      </trkpt>
      <trkpt lat="46.80507" lon="0.51789">
        <ele>66.8</ele>
        <time>2020-07-03T16:25:32Z</time>
      </trkpt>
      <trkpt lat="46.80504" lon="0.51781">
        <ele>66.7</ele>
        <time>2020-07-03T16:25:33Z</time>
      </trkpt>
      <trkpt lat="46.80501" lon="0.51774">
        <ele>66.6</ele>
        <time>2020-07-03T16:25:34Z</time>
      </trkpt>
      <trkpt lat="46.80499" lon="0.51769">
        <ele>66.6</ele>
        <time>2020-07-03T16:25:35Z</time>
      </trkpt>
      <trkpt lat="46.80496" lon="0.51763">
        <ele>66.5</ele>
        <time>2020-07-03T16:25:36Z</time>
      </trkpt>
      <trkpt lat="46.80493" lon="0.51757">
        <ele>66.4</ele>
        <time>2020-07-03T16:25:37Z</time>
      </trkpt>
      <trkpt lat="46.80487" lon="0.5175">
        <ele>66.4</ele>
        <time>2020-07-03T16:25:38Z</time>
      </trkpt>
      <trkpt lat="46.80483" lon="0.51744">
        <ele>66.4</ele>
        <time>2020-07-03T16:25:39Z</time>
      </trkpt>
      <trkpt lat="46.8048" lon="0.51738">
        <ele>66.3</ele>
        <time>2020-07-03T16:25:40Z</time>
      </trkpt>
      <trkpt lat="46.80477" lon="0.51734">
        <ele>66.3</ele>
        <time>2020-07-03T16:25:41Z</time>
      </trkpt>
      <trkpt lat="46.80474" lon="0.51728">
        <ele>66.3</ele>
        <time>2020-07-03T16:25:42Z</time>
      </trkpt>
      <trkpt lat="46.80472" lon="0.51723">
        <ele>66.3</ele>
        <time>2020-07-03T16:25:43Z</time>
      </trkpt>
      <trkpt lat="46.80469" lon="0.51718">
        <ele>66.3</ele>
        <time>2020-07-03T16:25:44Z</time>
      </trkpt>
      <trkpt lat="46.80467" lon="0.51713">
        <ele>66.3</ele>
        <time>2020-07-03T16:25:45Z</time>
      </trkpt>
      <trkpt lat="46.80465" lon="0.51709">
        <ele>66.3</ele>
        <time>2020-07-03T16:25:46Z</time>
      </trkpt>
      <trkpt lat="46.80465" lon="0.51707">
        <ele>66.3</ele>
        <time>2020-07-03T16:25:47Z</time>
      </trkpt>
      <trkpt lat="46.80465" lon="0.51704">
        <ele>66.3</ele>
        <time>2020-07-03T16:25:48Z</time>
      </trkpt>
      <trkpt lat="46.80464" lon="0.51703">
        <ele>66.3</ele>
        <time>2020-07-03T16:25:49Z</time>
      </trkpt>
      <trkpt lat="46.80463" lon="0.51702">
        <ele>66.2</ele>
        <time>2020-07-03T16:25:50Z</time>
      </trkpt>
      <trkpt lat="46.80464" lon="0.51702">
        <ele>66.2</ele>
        <time>2020-07-03T16:25:51Z</time>
      </trkpt>
      <trkpt lat="46.80465" lon="0.51702">
        <ele>66.2</ele>
        <time>2020-07-03T16:25:52Z</time>
      </trkpt>
      <trkpt lat="46.80466" lon="0.51704">
        <ele>66.2</ele>
        <time>2020-07-03T16:25:53Z</time>
      </trkpt>
      <trkpt lat="46.80466" lon="0.51702">
        <ele>66.2</ele>
        <time>2020-07-03T16:25:54Z</time>
      </trkpt>
      <trkpt lat="46.80467" lon="0.51706">
        <ele>66.2</ele>
        <time>2020-07-03T16:25:55Z</time>
      </trkpt>
      <trkpt lat="46.80466" lon="0.51704">
        <ele>66.2</ele>
        <time>2020-07-03T16:25:56Z</time>
      </trkpt>
      <trkpt lat="46.80466" lon="0.51705">
        <ele>66.2</ele>
        <time>2020-07-03T16:25:57Z</time>
      </trkpt>
      <trkpt lat="46.80466" lon="0.51705">
        <ele>66.2</ele>
        <time>2020-07-03T16:25:58Z</time>
      </trkpt>
      <trkpt lat="46.80467" lon="0.51704">
        <ele>66.2</ele>
        <time>2020-07-03T16:25:59Z</time>
      </trkpt>
      <trkpt lat="46.80467" lon="0.51704">
        <ele>66.2</ele>
        <time>2020-07-03T16:26:00Z</time>
      </trkpt>
      <trkpt lat="46.80467" lon="0.51705">
        <ele>66.2</ele>
        <time>2020-07-03T16:26:01Z</time>
      </trkpt>
      <trkpt lat="46.80468" lon="0.51706">
        <ele>66.2</ele>
        <time>2020-07-03T16:26:02Z</time>
      </trkpt>
      <trkpt lat="46.80468" lon="0.51706">
        <ele>66.2</ele>
        <time>2020-07-03T16:26:03Z</time>
      </trkpt>
      <trkpt lat="46.80468" lon="0.51706">
        <ele>66.2</ele>
        <time>2020-07-03T16:26:04Z</time>
      </trkpt>
      <trkpt lat="46.80451" lon="0.51691">
        <ele>66.2</ele>
        <time>2020-07-03T16:27:27Z</time>
      </trkpt>
      <trkpt lat="46.80453" lon="0.51692">
        <ele>66.2</ele>
        <time>2020-07-03T16:27:28Z</time>
      </trkpt>
      <trkpt lat="46.80454" lon="0.51693">
        <ele>66.1</ele>
        <time>2020-07-03T16:27:29Z</time>
      </trkpt>
      <trkpt lat="46.80453" lon="0.51693">
        <ele>66.1</ele>
        <time>2020-07-03T16:27:30Z</time>
      </trkpt>
      <trkpt lat="46.80453" lon="0.51692">
        <ele>66.1</ele>
        <time>2020-07-03T16:27:31Z</time>
      </trkpt>
      <trkpt lat="46.80453" lon="0.51692">
        <ele>66.1</ele>
        <time>2020-07-03T16:27:32Z</time>
      </trkpt>
      <trkpt lat="46.80453" lon="0.51692">
        <ele>66.1</ele>
        <time>2020-07-03T16:27:33Z</time>
      </trkpt>
      <trkpt lat="46.80453" lon="0.51692">
        <ele>66.1</ele>
        <time>2020-07-03T16:27:34Z</time>
      </trkpt>
      <trkpt lat="46.80453" lon="0.51691">
        <ele>66.1</ele>
        <time>2020-07-03T16:27:35Z</time>
      </trkpt>
      <trkpt lat="46.80453" lon="0.51691">
        <ele>66.1</ele>
        <time>2020-07-03T16:27:36Z</time>
      </trkpt>
      <trkpt lat="46.80453" lon="0.51691">
        <ele>66.1</ele>
        <time>2020-07-03T16:27:37Z</time>
      </trkpt>
      <trkpt lat="46.80453" lon="0.5169">
        <ele>66.1</ele>
        <time>2020-07-03T16:27:38Z</time>
      </trkpt>
      <trkpt lat="46.80452" lon="0.5169">
        <ele>66.1</ele>
        <time>2020-07-03T16:27:39Z</time>
      </trkpt>
      <trkpt lat="46.80453" lon="0.5169">
        <ele>66.1</ele>
        <time>2020-07-03T16:27:40Z</time>
      </trkpt>
      <trkpt lat="46.80453" lon="0.5169">
        <ele>66.1</ele>
        <time>2020-07-03T16:27:41Z</time>
      </trkpt>
      <trkpt lat="46.80453" lon="0.5169">
        <ele>66.1</ele>
        <time>2020-07-03T16:27:42Z</time>
      </trkpt>
      <trkpt lat="46.80453" lon="0.5169">
        <ele>66.1</ele>
        <time>2020-07-03T16:27:43Z</time>
      </trkpt>
      <trkpt lat="46.80453" lon="0.5169">
        <ele>66.1</ele>
        <time>2020-07-03T16:27:44Z</time>
      </trkpt>
      <trkpt lat="46.80453" lon="0.5169">
        <ele>66.1</ele>
        <time>2020-07-03T16:27:45Z</time>
      </trkpt>
      <trkpt lat="46.80451" lon="0.51699">
        <ele>66.2</ele>
        <time>2020-07-03T16:27:58Z</time>
      </trkpt>
      <trkpt lat="46.80452" lon="0.51699">
        <ele>66.2</ele>
        <time>2020-07-03T16:27:59Z</time>
      </trkpt>
      <trkpt lat="46.80451" lon="0.51701">
        <ele>66.2</ele>
        <time>2020-07-03T16:28:00Z</time>
      </trkpt>
      <trkpt lat="46.80452" lon="0.517">
        <ele>66.2</ele>
        <time>2020-07-03T16:28:01Z</time>
      </trkpt>
      <trkpt lat="46.80453" lon="0.51699">
        <ele>66.2</ele>
        <time>2020-07-03T16:28:02Z</time>
      </trkpt>
      <trkpt lat="46.80452" lon="0.51699">
        <ele>66.2</ele>
        <time>2020-07-03T16:28:03Z</time>
      </trkpt>
      <trkpt lat="46.80452" lon="0.51699">
        <ele>66.2</ele>
        <time>2020-07-03T16:28:04Z</time>
      </trkpt>
      <trkpt lat="46.80452" lon="0.51699">
        <ele>66.2</ele>
        <time>2020-07-03T16:28:05Z</time>
      </trkpt>
      <trkpt lat="46.80452" lon="0.51699">
        <ele>66.2</ele>
        <time>2020-07-03T16:28:06Z</time>
      </trkpt>
      <trkpt lat="46.80452" lon="0.51699">
        <ele>66.2</ele>
        <time>2020-07-03T16:28:07Z</time>
      </trkpt>
      <trkpt lat="46.80452" lon="0.51699">
        <ele>66.2</ele>
        <time>2020-07-03T16:28:08Z</time>
      </trkpt>
      <trkpt lat="46.80452" lon="0.517">
        <ele>66.2</ele>
        <time>2020-07-03T16:28:09Z</time>
      </trkpt>
      <trkpt lat="46.80452" lon="0.517">
        <ele>66.2</ele>
        <time>2020-07-03T16:28:10Z</time>
      </trkpt>
      <trkpt lat="46.80453" lon="0.51701">
        <ele>66.2</ele>
        <time>2020-07-03T16:28:11Z</time>
      </trkpt>
      <trkpt lat="46.80453" lon="0.51701">
        <ele>66.2</ele>
        <time>2020-07-03T16:28:12Z</time>
      </trkpt>
      <trkpt lat="46.80455" lon="0.51708">
        <ele>66.2</ele>
        <time>2020-07-03T16:28:30Z</time>
      </trkpt>
      <trkpt lat="46.80455" lon="0.51709">
        <ele>66.2</ele>
        <time>2020-07-03T16:28:31Z</time>
      </trkpt>
      <trkpt lat="46.80455" lon="0.51709">
        <ele>66.2</ele>
        <time>2020-07-03T16:28:32Z</time>
      </trkpt>
      <trkpt lat="46.80455" lon="0.51709">
        <ele>66.2</ele>
        <time>2020-07-03T16:28:33Z</time>
      </trkpt>
      <trkpt lat="46.80455" lon="0.51709">
        <ele>66.2</ele>
        <time>2020-07-03T16:28:34Z</time>
      </trkpt>
      <trkpt lat="46.80455" lon="0.51708">
        <ele>66.2</ele>
        <time>2020-07-03T16:28:35Z</time>
      </trkpt>
      <trkpt lat="46.80455" lon="0.51707">
        <ele>66.2</ele>
        <time>2020-07-03T16:28:36Z</time>
      </trkpt>
      <trkpt lat="46.80455" lon="0.51707">
        <ele>66.2</ele>
        <time>2020-07-03T16:28:37Z</time>
      </trkpt>
      <trkpt lat="46.80455" lon="0.51706">
        <ele>66.2</ele>
        <time>2020-07-03T16:28:38Z</time>
      </trkpt>
      <trkpt lat="46.80456" lon="0.51705">
        <ele>66.2</ele>
        <time>2020-07-03T16:28:39Z</time>
      </trkpt>
      <trkpt lat="46.80456" lon="0.51705">
        <ele>66.2</ele>
        <time>2020-07-03T16:28:40Z</time>
      </trkpt>
      <trkpt lat="46.80456" lon="0.51705">
        <ele>66.2</ele>
        <time>2020-07-03T16:28:41Z</time>
      </trkpt>
      <trkpt lat="46.80456" lon="0.51705">
        <ele>66.2</ele>
        <time>2020-07-03T16:28:42Z</time>
      </trkpt>
      <trkpt lat="46.8046" lon="0.51693">
        <ele>66.2</ele>
        <time>2020-07-03T16:30:03Z</time>
      </trkpt>
      <trkpt lat="46.80461" lon="0.51694">
        <ele>66.2</ele>
        <time>2020-07-03T16:30:04Z</time>
      </trkpt>
      <trkpt lat="46.8046" lon="0.51694">
        <ele>66.2</ele>
        <time>2020-07-03T16:30:05Z</time>
      </trkpt>
      <trkpt lat="46.80461" lon="0.51695">
        <ele>66.2</ele>
        <time>2020-07-03T16:30:06Z</time>
      </trkpt>
      <trkpt lat="46.80461" lon="0.51695">
        <ele>66.2</ele>
        <time>2020-07-03T16:30:07Z</time>
      </trkpt>
      <trkpt lat="46.80461" lon="0.51695">
        <ele>66.2</ele>
        <time>2020-07-03T16:30:08Z</time>
      </trkpt>
      <trkpt lat="46.80461" lon="0.51696">
        <ele>66.2</ele>
        <time>2020-07-03T16:30:09Z</time>
      </trkpt>
      <trkpt lat="46.80461" lon="0.51696">
        <ele>66.2</ele>
        <time>2020-07-03T16:30:10Z</time>
      </trkpt>
      <trkpt lat="46.80461" lon="0.51697">
        <ele>66.2</ele>
        <time>2020-07-03T16:30:11Z</time>
      </trkpt>
      <trkpt lat="46.80461" lon="0.51698">
        <ele>66.2</ele>
        <time>2020-07-03T16:30:12Z</time>
      </trkpt>
      <trkpt lat="46.80461" lon="0.51698">
        <ele>66.2</ele>
        <time>2020-07-03T16:30:13Z</time>
      </trkpt>
      <trkpt lat="46.80461" lon="0.51697">
        <ele>66.2</ele>
        <time>2020-07-03T16:30:14Z</time>
      </trkpt>
      <trkpt lat="46.80464" lon="0.51717">
        <ele>66.3</ele>
        <time>2020-07-03T16:31:34Z</time>
      </trkpt>
      <trkpt lat="46.80464" lon="0.51717">
        <ele>66.3</ele>
        <time>2020-07-03T16:31:35Z</time>
      </trkpt>
      <trkpt lat="46.80465" lon="0.51716">
        <ele>66.3</ele>
        <time>2020-07-03T16:31:36Z</time>
      </trkpt>
      <trkpt lat="46.80465" lon="0.51717">
        <ele>66.3</ele>
        <time>2020-07-03T16:31:37Z</time>
      </trkpt>
      <trkpt lat="46.80465" lon="0.51716">
        <ele>66.3</ele>
        <time>2020-07-03T16:31:38Z</time>
      </trkpt>
      <trkpt lat="46.80465" lon="0.51715">
        <ele>66.4</ele>
        <time>2020-07-03T16:31:39Z</time>
      </trkpt>
      <trkpt lat="46.80465" lon="0.51716">
        <ele>66.4</ele>
        <time>2020-07-03T16:31:40Z</time>
      </trkpt>
      <trkpt lat="46.80465" lon="0.51716">
        <ele>66.4</ele>
        <time>2020-07-03T16:31:41Z</time>
      </trkpt>
      <trkpt lat="46.80466" lon="0.51715">
        <ele>66.4</ele>
        <time>2020-07-03T16:31:42Z</time>
      </trkpt>
      <trkpt lat="46.80467" lon="0.51715">
        <ele>66.4</ele>
        <time>2020-07-03T16:31:43Z</time>
      </trkpt>
      <trkpt lat="46.80467" lon="0.51714">
        <ele>66.4</ele>
        <time>2020-07-03T16:31:44Z</time>
      </trkpt>
      <trkpt lat="46.80467" lon="0.51714">
        <ele>66.4</ele>
        <time>2020-07-03T16:31:45Z</time>
      </trkpt>
      <trkpt lat="46.80468" lon="0.51713">
        <ele>66.4</ele>
        <time>2020-07-03T16:31:46Z</time>
      </trkpt>
      <trkpt lat="46.80468" lon="0.51712">
        <ele>66.4</ele>
        <time>2020-07-03T16:31:47Z</time>
      </trkpt>
      <trkpt lat="46.80469" lon="0.51711">
        <ele>66.4</ele>
        <time>2020-07-03T16:31:48Z</time>
      </trkpt>
      <trkpt lat="46.80469" lon="0.51711">
        <ele>66.4</ele>
        <time>2020-07-03T16:31:49Z</time>
      </trkpt>
      <trkpt lat="46.80469" lon="0.51711">
        <ele>66.4</ele>
        <time>2020-07-03T16:31:50Z</time>
      </trkpt>
      <trkpt lat="46.80469" lon="0.5171">
        <ele>66.4</ele>
        <time>2020-07-03T16:31:51Z</time>
      </trkpt>
      <trkpt lat="46.8047" lon="0.51709">
        <ele>66.4</ele>
        <time>2020-07-03T16:31:52Z</time>
      </trkpt>
      <trkpt lat="46.8047" lon="0.51709">
        <ele>66.4</ele>
        <time>2020-07-03T16:31:53Z</time>
      </trkpt>
      <trkpt lat="46.8047" lon="0.51708">
        <ele>66.5</ele>
        <time>2020-07-03T16:31:54Z</time>
      </trkpt>
      <trkpt lat="46.8047" lon="0.51707">
        <ele>66.5</ele>
        <time>2020-07-03T16:31:55Z</time>
      </trkpt>
      <trkpt lat="46.8047" lon="0.51706">
        <ele>66.5</ele>
        <time>2020-07-03T16:31:56Z</time>
      </trkpt>
      <trkpt lat="46.80469" lon="0.51705">
        <ele>66.5</ele>
        <time>2020-07-03T16:31:57Z</time>
      </trkpt>
      <trkpt lat="46.80468" lon="0.51704">
        <ele>66.5</ele>
        <time>2020-07-03T16:31:58Z</time>
      </trkpt>
      <trkpt lat="46.80468" lon="0.51703">
        <ele>66.5</ele>
        <time>2020-07-03T16:31:59Z</time>
      </trkpt>
      <trkpt lat="46.80468" lon="0.51702">
        <ele>66.5</ele>
        <time>2020-07-03T16:32:00Z</time>
      </trkpt>
      <trkpt lat="46.80468" lon="0.51702">
        <ele>66.5</ele>
        <time>2020-07-03T16:32:01Z</time>
      </trkpt>
      <trkpt lat="46.80468" lon="0.51702">
        <ele>66.5</ele>
        <time>2020-07-03T16:32:02Z</time>
      </trkpt>
      <trkpt lat="46.80467" lon="0.51701">
        <ele>66.5</ele>
        <time>2020-07-03T16:32:03Z</time>
      </trkpt>
      <trkpt lat="46.80468" lon="0.51701">
        <ele>66.5</ele>
        <time>2020-07-03T16:32:04Z</time>
      </trkpt>
      <trkpt lat="46.80468" lon="0.51701">
        <ele>66.5</ele>
        <time>2020-07-03T16:32:05Z</time>
      </trkpt>
      <trkpt lat="46.80469" lon="0.51701">
        <ele>66.5</ele>
        <time>2020-07-03T16:32:06Z</time>
      </trkpt>
      <trkpt lat="46.80469" lon="0.51701">
        <ele>66.6</ele>
        <time>2020-07-03T16:32:07Z</time>
      </trkpt>
      <trkpt lat="46.80469" lon="0.51699">
        <ele>66.6</ele>
        <time>2020-07-03T16:32:08Z</time>
      </trkpt>
      <trkpt lat="46.80465" lon="0.5169">
        <ele>66.7</ele>
        <time>2020-07-03T16:32:56Z</time>
      </trkpt>
      <trkpt lat="46.80466" lon="0.51689">
        <ele>66.7</ele>
        <time>2020-07-03T16:32:57Z</time>
      </trkpt>
      <trkpt lat="46.80467" lon="0.51688">
        <ele>66.7</ele>
        <time>2020-07-03T16:32:58Z</time>
      </trkpt>
      <trkpt lat="46.80468" lon="0.51689">
        <ele>66.7</ele>
        <time>2020-07-03T16:32:59Z</time>
      </trkpt>
      <trkpt lat="46.80467" lon="0.51691">
        <ele>66.7</ele>
        <time>2020-07-03T16:33:00Z</time>
      </trkpt>
      <trkpt lat="46.80466" lon="0.51693">
        <ele>66.7</ele>
        <time>2020-07-03T16:33:01Z</time>
      </trkpt>
      <trkpt lat="46.80465" lon="0.51695">
        <ele>66.8</ele>
        <time>2020-07-03T16:33:02Z</time>
      </trkpt>
      <trkpt lat="46.80464" lon="0.51695">
        <ele>66.8</ele>
        <time>2020-07-03T16:33:03Z</time>
      </trkpt>
      <trkpt lat="46.80464" lon="0.51695">
        <ele>66.8</ele>
        <time>2020-07-03T16:33:04Z</time>
      </trkpt>
      <trkpt lat="46.80463" lon="0.51695">
        <ele>66.8</ele>
        <time>2020-07-03T16:33:05Z</time>
      </trkpt>
      <trkpt lat="46.80463" lon="0.51695">
        <ele>66.8</ele>
        <time>2020-07-03T16:33:06Z</time>
      </trkpt>
      <trkpt lat="46.80463" lon="0.51695">
        <ele>66.8</ele>
        <time>2020-07-03T16:33:07Z</time>
      </trkpt>
      <trkpt lat="46.80462" lon="0.51695">
        <ele>66.8</ele>
        <time>2020-07-03T16:33:08Z</time>
      </trkpt>
      <trkpt lat="46.80462" lon="0.51695">
        <ele>66.8</ele>
        <time>2020-07-03T16:33:09Z</time>
      </trkpt>
      <trkpt lat="46.80461" lon="0.51695">
        <ele>66.8</ele>
        <time>2020-07-03T16:33:10Z</time>
      </trkpt>
      <trkpt lat="46.80461" lon="0.51695">
        <ele>66.8</ele>
        <time>2020-07-03T16:36:05Z</time>
      </trkpt>
      <trkpt lat="46.8046" lon="0.51695">
        <ele>66.8</ele>
        <time>2020-07-03T16:36:06Z</time>
      </trkpt>
      <trkpt lat="46.8046" lon="0.51695">
        <ele>66.8</ele>
        <time>2020-07-03T16:36:07Z</time>
      </trkpt>
      <trkpt lat="46.80458" lon="0.51691">
        <ele>66.8</ele>
        <time>2020-07-03T16:36:08Z</time>
      </trkpt>
      <trkpt lat="46.80457" lon="0.5169">
        <ele>66.9</ele>
        <time>2020-07-03T16:36:09Z</time>
      </trkpt>
      <trkpt lat="46.80455" lon="0.51686">
        <ele>66.9</ele>
        <time>2020-07-03T16:36:10Z</time>
      </trkpt>
      <trkpt lat="46.80454" lon="0.51686">
        <ele>66.9</ele>
        <time>2020-07-03T16:36:11Z</time>
      </trkpt>
      <trkpt lat="46.80451" lon="0.51682">
        <ele>66.9</ele>
        <time>2020-07-03T16:36:12Z</time>
      </trkpt>
      <trkpt lat="46.8045" lon="0.51681">
        <ele>66.9</ele>
        <time>2020-07-03T16:36:13Z</time>
      </trkpt>
      <trkpt lat="46.80448" lon="0.51677">
        <ele>67</ele>
        <time>2020-07-03T16:36:14Z</time>
      </trkpt>
      <trkpt lat="46.80445" lon="0.51672">
        <ele>67</ele>
        <time>2020-07-03T16:36:15Z</time>
      </trkpt>
      <trkpt lat="46.80443" lon="0.51667">
        <ele>67.1</ele>
        <time>2020-07-03T16:36:16Z</time>
      </trkpt>
      <trkpt lat="46.8044" lon="0.51662">
        <ele>67.1</ele>
        <time>2020-07-03T16:36:17Z</time>
      </trkpt>
      <trkpt lat="46.80437" lon="0.51657">
        <ele>67.2</ele>
        <time>2020-07-03T16:36:18Z</time>
      </trkpt>
      <trkpt lat="46.80434" lon="0.51652">
        <ele>67.2</ele>
        <time>2020-07-03T16:36:19Z</time>
      </trkpt>
      <trkpt lat="46.80431" lon="0.51646">
        <ele>67.3</ele>
        <time>2020-07-03T16:36:20Z</time>
      </trkpt>
      <trkpt lat="46.80427" lon="0.5164">
        <ele>67.3</ele>
        <time>2020-07-03T16:36:21Z</time>
      </trkpt>
      <trkpt lat="46.80424" lon="0.51634">
        <ele>67.4</ele>
        <time>2020-07-03T16:36:22Z</time>
      </trkpt>
      <trkpt lat="46.8042" lon="0.51628">
        <ele>67.4</ele>
        <time>2020-07-03T16:36:23Z</time>
      </trkpt>
      <trkpt lat="46.80417" lon="0.51622">
        <ele>67.5</ele>
        <time>2020-07-03T16:36:24Z</time>
      </trkpt>
      <trkpt lat="46.80415" lon="0.51616">
        <ele>67.5</ele>
        <time>2020-07-03T16:36:25Z</time>
      </trkpt>
      <trkpt lat="46.80412" lon="0.51609">
        <ele>67.5</ele>
        <time>2020-07-03T16:36:26Z</time>
      </trkpt>
      <trkpt lat="46.80408" lon="0.51604">
        <ele>67.6</ele>
        <time>2020-07-03T16:36:27Z</time>
      </trkpt>
      <trkpt lat="46.80404" lon="0.51597">
        <ele>67.6</ele>
        <time>2020-07-03T16:36:28Z</time>
      </trkpt>
      <trkpt lat="46.80401" lon="0.51591">
        <ele>67.7</ele>
        <time>2020-07-03T16:36:29Z</time>
      </trkpt>
      <trkpt lat="46.80397" lon="0.51585">
        <ele>67.8</ele>
        <time>2020-07-03T16:36:30Z</time>
      </trkpt>
      <trkpt lat="46.80394" lon="0.51578">
        <ele>67.9</ele>
        <time>2020-07-03T16:36:31Z</time>
      </trkpt>
      <trkpt lat="46.8039" lon="0.51573">
        <ele>68</ele>
        <time>2020-07-03T16:36:32Z</time>
      </trkpt>
      <trkpt lat="46.80387" lon="0.51566">
        <ele>68.1</ele>
        <time>2020-07-03T16:36:33Z</time>
      </trkpt>
      <trkpt lat="46.80383" lon="0.5156">
        <ele>68.2</ele>
        <time>2020-07-03T16:36:34Z</time>
      </trkpt>
      <trkpt lat="46.8038" lon="0.51554">
        <ele>68.3</ele>
        <time>2020-07-03T16:36:35Z</time>
      </trkpt>
      <trkpt lat="46.80377" lon="0.51548">
        <ele>68.4</ele>
        <time>2020-07-03T16:36:36Z</time>
      </trkpt>
      <trkpt lat="46.80374" lon="0.51543">
        <ele>68.5</ele>
        <time>2020-07-03T16:36:37Z</time>
      </trkpt>
      <trkpt lat="46.80371" lon="0.51538">
        <ele>68.6</ele>
        <time>2020-07-03T16:36:38Z</time>
      </trkpt>
      <trkpt lat="46.80366" lon="0.51533">
        <ele>68.8</ele>
        <time>2020-07-03T16:36:39Z</time>
      </trkpt>
      <trkpt lat="46.80363" lon="0.51529">
        <ele>68.9</ele>
        <time>2020-07-03T16:36:40Z</time>
      </trkpt>
      <trkpt lat="46.80359" lon="0.51525">
        <ele>69</ele>
        <time>2020-07-03T16:36:41Z</time>
      </trkpt>
      <trkpt lat="46.80355" lon="0.51521">
        <ele>69.1</ele>
        <time>2020-07-03T16:36:42Z</time>
      </trkpt>
      <trkpt lat="46.80352" lon="0.51517">
        <ele>69.2</ele>
        <time>2020-07-03T16:36:43Z</time>
      </trkpt>
      <trkpt lat="46.80348" lon="0.51513">
        <ele>69.4</ele>
        <time>2020-07-03T16:36:44Z</time>
      </trkpt>
      <trkpt lat="46.80344" lon="0.51507">
        <ele>69.5</ele>
        <time>2020-07-03T16:36:45Z</time>
      </trkpt>
      <trkpt lat="46.8034" lon="0.51502">
        <ele>69.7</ele>
        <time>2020-07-03T16:36:46Z</time>
      </trkpt>
      <trkpt lat="46.80337" lon="0.51497">
        <ele>69.8</ele>
        <time>2020-07-03T16:36:47Z</time>
      </trkpt>
      <trkpt lat="46.80334" lon="0.51491">
        <ele>70</ele>
        <time>2020-07-03T16:36:48Z</time>
      </trkpt>
      <trkpt lat="46.8033" lon="0.51484">
        <ele>70.1</ele>
        <time>2020-07-03T16:36:49Z</time>
      </trkpt>
      <trkpt lat="46.80327" lon="0.5148">
        <ele>70.3</ele>
        <time>2020-07-03T16:36:50Z</time>
      </trkpt>
      <trkpt lat="46.80323" lon="0.51475">
        <ele>70.4</ele>
        <time>2020-07-03T16:36:51Z</time>
      </trkpt>
      <trkpt lat="46.8032" lon="0.5147">
        <ele>70.6</ele>
        <time>2020-07-03T16:36:52Z</time>
      </trkpt>
      <trkpt lat="46.80317" lon="0.51464">
        <ele>70.7</ele>
        <time>2020-07-03T16:36:53Z</time>
      </trkpt>
      <trkpt lat="46.80315" lon="0.51459">
        <ele>70.8</ele>
        <time>2020-07-03T16:36:54Z</time>
      </trkpt>
      <trkpt lat="46.80312" lon="0.51456">
        <ele>70.9</ele>
        <time>2020-07-03T16:36:55Z</time>
      </trkpt>
      <trkpt lat="46.8031" lon="0.51451">
        <ele>71.1</ele>
        <time>2020-07-03T16:36:56Z</time>
      </trkpt>
      <trkpt lat="46.80306" lon="0.51446">
        <ele>71.2</ele>
        <time>2020-07-03T16:36:57Z</time>
      </trkpt>
      <trkpt lat="46.80303" lon="0.51441">
        <ele>71.3</ele>
        <time>2020-07-03T16:36:58Z</time>
      </trkpt>
      <trkpt lat="46.80301" lon="0.51437">
        <ele>71.4</ele>
        <time>2020-07-03T16:36:59Z</time>
      </trkpt>
      <trkpt lat="46.80298" lon="0.51433">
        <ele>71.6</ele>
        <time>2020-07-03T16:37:00Z</time>
      </trkpt>
      <trkpt lat="46.80295" lon="0.51428">
        <ele>71.7</ele>
        <time>2020-07-03T16:37:01Z</time>
      </trkpt>
      <trkpt lat="46.80293" lon="0.51424">
        <ele>71.8</ele>
        <time>2020-07-03T16:37:02Z</time>
      </trkpt>
      <trkpt lat="46.8029" lon="0.51419">
        <ele>71.9</ele>
        <time>2020-07-03T16:37:03Z</time>
      </trkpt>
      <trkpt lat="46.80288" lon="0.51413">
        <ele>72</ele>
        <time>2020-07-03T16:37:04Z</time>
      </trkpt>
      <trkpt lat="46.80285" lon="0.51409">
        <ele>72.1</ele>
        <time>2020-07-03T16:37:05Z</time>
      </trkpt>
      <trkpt lat="46.80282" lon="0.51403">
        <ele>72.2</ele>
        <time>2020-07-03T16:37:06Z</time>
      </trkpt>
      <trkpt lat="46.8028" lon="0.51398">
        <ele>72.3</ele>
        <time>2020-07-03T16:37:07Z</time>
      </trkpt>
      <trkpt lat="46.80277" lon="0.51393">
        <ele>72.4</ele>
        <time>2020-07-03T16:37:08Z</time>
      </trkpt>
      <trkpt lat="46.80274" lon="0.51389">
        <ele>72.5</ele>
        <time>2020-07-03T16:37:09Z</time>
      </trkpt>
      <trkpt lat="46.80271" lon="0.51386">
        <ele>72.5</ele>
        <time>2020-07-03T16:37:10Z</time>
      </trkpt>
      <trkpt lat="46.80267" lon="0.51381">
        <ele>72.6</ele>
        <time>2020-07-03T16:37:11Z</time>
      </trkpt>
      <trkpt lat="46.80265" lon="0.51376">
        <ele>72.7</ele>
        <time>2020-07-03T16:37:12Z</time>
      </trkpt>
      <trkpt lat="46.80262" lon="0.51372">
        <ele>72.7</ele>
        <time>2020-07-03T16:37:13Z</time>
      </trkpt>
      <trkpt lat="46.8026" lon="0.51366">
        <ele>72.7</ele>
        <time>2020-07-03T16:37:14Z</time>
      </trkpt>
      <trkpt lat="46.80257" lon="0.5136">
        <ele>72.8</ele>
        <time>2020-07-03T16:37:15Z</time>
      </trkpt>
      <trkpt lat="46.80256" lon="0.51357">
        <ele>72.8</ele>
        <time>2020-07-03T16:37:16Z</time>
      </trkpt>
      <trkpt lat="46.80254" lon="0.5135">
        <ele>72.9</ele>
        <time>2020-07-03T16:37:17Z</time>
      </trkpt>
      <trkpt lat="46.80252" lon="0.51343">
        <ele>72.9</ele>
        <time>2020-07-03T16:37:18Z</time>
      </trkpt>
      <trkpt lat="46.8025" lon="0.51337">
        <ele>73</ele>
        <time>2020-07-03T16:37:19Z</time>
      </trkpt>
      <trkpt lat="46.80247" lon="0.5133">
        <ele>73</ele>
        <time>2020-07-03T16:37:20Z</time>
      </trkpt>
      <trkpt lat="46.80244" lon="0.51326">
        <ele>73</ele>
        <time>2020-07-03T16:37:21Z</time>
      </trkpt>
      <trkpt lat="46.80242" lon="0.5132">
        <ele>73</ele>
        <time>2020-07-03T16:37:22Z</time>
      </trkpt>
      <trkpt lat="46.80239" lon="0.51314">
        <ele>73</ele>
        <time>2020-07-03T16:37:23Z</time>
      </trkpt>
      <trkpt lat="46.80237" lon="0.51308">
        <ele>73</ele>
        <time>2020-07-03T16:37:24Z</time>
      </trkpt>
      <trkpt lat="46.80234" lon="0.51303">
        <ele>73</ele>
        <time>2020-07-03T16:37:25Z</time>
      </trkpt>
      <trkpt lat="46.80232" lon="0.51296">
        <ele>73</ele>
        <time>2020-07-03T16:37:26Z</time>
      </trkpt>
      <trkpt lat="46.80229" lon="0.51291">
        <ele>73</ele>
        <time>2020-07-03T16:37:27Z</time>
      </trkpt>
      <trkpt lat="46.80227" lon="0.51285">
        <ele>73</ele>
        <time>2020-07-03T16:37:28Z</time>
      </trkpt>
      <trkpt lat="46.80225" lon="0.51279">
        <ele>73</ele>
        <time>2020-07-03T16:37:29Z</time>
      </trkpt>
      <trkpt lat="46.80223" lon="0.51271">
        <ele>73</ele>
        <time>2020-07-03T16:37:30Z</time>
      </trkpt>
      <trkpt lat="46.8022" lon="0.51265">
        <ele>73</ele>
        <time>2020-07-03T16:37:31Z</time>
      </trkpt>
      <trkpt lat="46.80217" lon="0.51258">
        <ele>73</ele>
        <time>2020-07-03T16:37:32Z</time>
      </trkpt>
      <trkpt lat="46.80214" lon="0.5125">
        <ele>73</ele>
        <time>2020-07-03T16:37:33Z</time>
      </trkpt>
      <trkpt lat="46.80211" lon="0.51244">
        <ele>73</ele>
        <time>2020-07-03T16:37:34Z</time>
      </trkpt>
      <trkpt lat="46.80209" lon="0.51237">
        <ele>73</ele>
        <time>2020-07-03T16:37:35Z</time>
      </trkpt>
      <trkpt lat="46.80206" lon="0.5123">
        <ele>73</ele>
        <time>2020-07-03T16:37:36Z</time>
      </trkpt>
      <trkpt lat="46.80203" lon="0.51224">
        <ele>72.9</ele>
        <time>2020-07-03T16:37:37Z</time>
      </trkpt>
      <trkpt lat="46.80199" lon="0.51217">
        <ele>72.9</ele>
        <time>2020-07-03T16:37:38Z</time>
      </trkpt>
      <trkpt lat="46.80196" lon="0.51209">
        <ele>72.8</ele>
        <time>2020-07-03T16:37:39Z</time>
      </trkpt>
      <trkpt lat="46.80193" lon="0.51201">
        <ele>72.7</ele>
        <time>2020-07-03T16:37:40Z</time>
      </trkpt>
      <trkpt lat="46.8019" lon="0.51193">
        <ele>72.6</ele>
        <time>2020-07-03T16:37:41Z</time>
      </trkpt>
      <trkpt lat="46.80187" lon="0.51185">
        <ele>72.4</ele>
        <time>2020-07-03T16:37:42Z</time>
      </trkpt>
      <trkpt lat="46.80183" lon="0.51178">
        <ele>72.3</ele>
        <time>2020-07-03T16:37:43Z</time>
      </trkpt>
      <trkpt lat="46.8018" lon="0.51171">
        <ele>72.2</ele>
        <time>2020-07-03T16:37:44Z</time>
      </trkpt>
      <trkpt lat="46.80176" lon="0.51164">
        <ele>72</ele>
        <time>2020-07-03T16:37:45Z</time>
      </trkpt>
      <trkpt lat="46.80172" lon="0.51158">
        <ele>71.9</ele>
        <time>2020-07-03T16:37:46Z</time>
      </trkpt>
      <trkpt lat="46.80168" lon="0.51149">
        <ele>71.7</ele>
        <time>2020-07-03T16:37:47Z</time>
      </trkpt>
      <trkpt lat="46.80164" lon="0.51141">
        <ele>71.5</ele>
        <time>2020-07-03T16:37:48Z</time>
      </trkpt>
      <trkpt lat="46.8016" lon="0.51133">
        <ele>71.3</ele>
        <time>2020-07-03T16:37:49Z</time>
      </trkpt>
      <trkpt lat="46.80156" lon="0.51125">
        <ele>71</ele>
        <time>2020-07-03T16:37:50Z</time>
      </trkpt>
      <trkpt lat="46.80152" lon="0.51117">
        <ele>70.8</ele>
        <time>2020-07-03T16:37:51Z</time>
      </trkpt>
      <trkpt lat="46.80148" lon="0.51108">
        <ele>70.6</ele>
        <time>2020-07-03T16:37:52Z</time>
      </trkpt>
      <trkpt lat="46.80143" lon="0.511">
        <ele>70.4</ele>
        <time>2020-07-03T16:37:53Z</time>
      </trkpt>
      <trkpt lat="46.80138" lon="0.51091">
        <ele>70.1</ele>
        <time>2020-07-03T16:37:54Z</time>
      </trkpt>
      <trkpt lat="46.80133" lon="0.51083">
        <ele>69.9</ele>
        <time>2020-07-03T16:37:55Z</time>
      </trkpt>
      <trkpt lat="46.80128" lon="0.51075">
        <ele>69.7</ele>
        <time>2020-07-03T16:37:56Z</time>
      </trkpt>
      <trkpt lat="46.80124" lon="0.51066">
        <ele>69.4</ele>
        <time>2020-07-03T16:37:57Z</time>
      </trkpt>
      <trkpt lat="46.80118" lon="0.51056">
        <ele>69.2</ele>
        <time>2020-07-03T16:37:58Z</time>
      </trkpt>
      <trkpt lat="46.80114" lon="0.51047">
        <ele>69</ele>
        <time>2020-07-03T16:37:59Z</time>
      </trkpt>
      <trkpt lat="46.80109" lon="0.51038">
        <ele>68.8</ele>
        <time>2020-07-03T16:38:00Z</time>
      </trkpt>
      <trkpt lat="46.80103" lon="0.51029">
        <ele>68.7</ele>
        <time>2020-07-03T16:38:01Z</time>
      </trkpt>
      <trkpt lat="46.80098" lon="0.5102">
        <ele>68.6</ele>
        <time>2020-07-03T16:38:02Z</time>
      </trkpt>
      <trkpt lat="46.80093" lon="0.51013">
        <ele>68.5</ele>
        <time>2020-07-03T16:38:03Z</time>
      </trkpt>
      <trkpt lat="46.80089" lon="0.51006">
        <ele>68.4</ele>
        <time>2020-07-03T16:38:04Z</time>
      </trkpt>
      <trkpt lat="46.80086" lon="0.50998">
        <ele>68.4</ele>
        <time>2020-07-03T16:38:05Z</time>
      </trkpt>
      <trkpt lat="46.80082" lon="0.50989">
        <ele>68.4</ele>
        <time>2020-07-03T16:38:06Z</time>
      </trkpt>
      <trkpt lat="46.80078" lon="0.5098">
        <ele>68.4</ele>
        <time>2020-07-03T16:38:07Z</time>
      </trkpt>
      <trkpt lat="46.80074" lon="0.50972">
        <ele>68.4</ele>
        <time>2020-07-03T16:38:08Z</time>
      </trkpt>
      <trkpt lat="46.80071" lon="0.50965">
        <ele>68.4</ele>
        <time>2020-07-03T16:38:09Z</time>
      </trkpt>
      <trkpt lat="46.80068" lon="0.50958">
        <ele>68.5</ele>
        <time>2020-07-03T16:38:10Z</time>
      </trkpt>
      <trkpt lat="46.80064" lon="0.50951">
        <ele>68.5</ele>
        <time>2020-07-03T16:38:11Z</time>
      </trkpt>
      <trkpt lat="46.80062" lon="0.50945">
        <ele>68.6</ele>
        <time>2020-07-03T16:38:12Z</time>
      </trkpt>
      <trkpt lat="46.80058" lon="0.50937">
        <ele>68.6</ele>
        <time>2020-07-03T16:38:13Z</time>
      </trkpt>
      <trkpt lat="46.80054" lon="0.5093">
        <ele>68.7</ele>
        <time>2020-07-03T16:38:14Z</time>
      </trkpt>
      <trkpt lat="46.8005" lon="0.50922">
        <ele>68.7</ele>
        <time>2020-07-03T16:38:15Z</time>
      </trkpt>
      <trkpt lat="46.80047" lon="0.50916">
        <ele>68.8</ele>
        <time>2020-07-03T16:38:16Z</time>
      </trkpt>
      <trkpt lat="46.80044" lon="0.50909">
        <ele>68.8</ele>
        <time>2020-07-03T16:38:17Z</time>
      </trkpt>
      <trkpt lat="46.8004" lon="0.50903">
        <ele>68.9</ele>
        <time>2020-07-03T16:38:18Z</time>
      </trkpt>
      <trkpt lat="46.80037" lon="0.50896">
        <ele>68.9</ele>
        <time>2020-07-03T16:38:19Z</time>
      </trkpt>
      <trkpt lat="46.80033" lon="0.5089">
        <ele>69</ele>
        <time>2020-07-03T16:38:20Z</time>
      </trkpt>
      <trkpt lat="46.80028" lon="0.50884">
        <ele>69</ele>
        <time>2020-07-03T16:38:21Z</time>
      </trkpt>
      <trkpt lat="46.80025" lon="0.50878">
        <ele>69.1</ele>
        <time>2020-07-03T16:38:22Z</time>
      </trkpt>
      <trkpt lat="46.80021" lon="0.50871">
        <ele>69.2</ele>
        <time>2020-07-03T16:38:23Z</time>
      </trkpt>
      <trkpt lat="46.80018" lon="0.50865">
        <ele>69.2</ele>
        <time>2020-07-03T16:38:24Z</time>
      </trkpt>
      <trkpt lat="46.80016" lon="0.50859">
        <ele>69.2</ele>
        <time>2020-07-03T16:38:25Z</time>
      </trkpt>
      <trkpt lat="46.80012" lon="0.50854">
        <ele>69.2</ele>
        <time>2020-07-03T16:38:26Z</time>
      </trkpt>
      <trkpt lat="46.80009" lon="0.50848">
        <ele>69.2</ele>
        <time>2020-07-03T16:38:27Z</time>
      </trkpt>
      <trkpt lat="46.80006" lon="0.50842">
        <ele>69.2</ele>
        <time>2020-07-03T16:38:28Z</time>
      </trkpt>
      <trkpt lat="46.80002" lon="0.50835">
        <ele>69.2</ele>
        <time>2020-07-03T16:38:29Z</time>
      </trkpt>
      <trkpt lat="46.79999" lon="0.50829">
        <ele>69.3</ele>
        <time>2020-07-03T16:38:30Z</time>
      </trkpt>
      <trkpt lat="46.79996" lon="0.50822">
        <ele>69.3</ele>
        <time>2020-07-03T16:38:31Z</time>
      </trkpt>
      <trkpt lat="46.79993" lon="0.50816">
        <ele>69.3</ele>
        <time>2020-07-03T16:38:32Z</time>
      </trkpt>
      <trkpt lat="46.7999" lon="0.50809">
        <ele>69.3</ele>
        <time>2020-07-03T16:38:33Z</time>
      </trkpt>
      <trkpt lat="46.79986" lon="0.50803">
        <ele>69.3</ele>
        <time>2020-07-03T16:38:34Z</time>
      </trkpt>
      <trkpt lat="46.79982" lon="0.50796">
        <ele>69.3</ele>
        <time>2020-07-03T16:38:35Z</time>
      </trkpt>
      <trkpt lat="46.79978" lon="0.5079">
        <ele>69.3</ele>
        <time>2020-07-03T16:38:36Z</time>
      </trkpt>
      <trkpt lat="46.79974" lon="0.50783">
        <ele>69.3</ele>
        <time>2020-07-03T16:38:37Z</time>
      </trkpt>
      <trkpt lat="46.79971" lon="0.50777">
        <ele>69.3</ele>
        <time>2020-07-03T16:38:38Z</time>
      </trkpt>
      <trkpt lat="46.79967" lon="0.50771">
        <ele>69.3</ele>
        <time>2020-07-03T16:38:39Z</time>
      </trkpt>
      <trkpt lat="46.79963" lon="0.50764">
        <ele>69.3</ele>
        <time>2020-07-03T16:38:40Z</time>
      </trkpt>
      <trkpt lat="46.7996" lon="0.50757">
        <ele>69.3</ele>
        <time>2020-07-03T16:38:41Z</time>
      </trkpt>
      <trkpt lat="46.79956" lon="0.5075">
        <ele>69.3</ele>
        <time>2020-07-03T16:38:42Z</time>
      </trkpt>
      <trkpt lat="46.79953" lon="0.50742">
        <ele>69.3</ele>
        <time>2020-07-03T16:38:43Z</time>
      </trkpt>
      <trkpt lat="46.79949" lon="0.50734">
        <ele>69.2</ele>
        <time>2020-07-03T16:38:44Z</time>
      </trkpt>
      <trkpt lat="46.79945" lon="0.50727">
        <ele>69.2</ele>
        <time>2020-07-03T16:38:45Z</time>
      </trkpt>
      <trkpt lat="46.79941" lon="0.5072">
        <ele>69.2</ele>
        <time>2020-07-03T16:38:46Z</time>
      </trkpt>
      <trkpt lat="46.79938" lon="0.50712">
        <ele>69.2</ele>
        <time>2020-07-03T16:38:47Z</time>
      </trkpt>
      <trkpt lat="46.79934" lon="0.50705">
        <ele>69.2</ele>
        <time>2020-07-03T16:38:48Z</time>
      </trkpt>
      <trkpt lat="46.7993" lon="0.50697">
        <ele>69.1</ele>
        <time>2020-07-03T16:38:49Z</time>
      </trkpt>
      <trkpt lat="46.79926" lon="0.50688">
        <ele>69.1</ele>
        <time>2020-07-03T16:38:50Z</time>
      </trkpt>
      <trkpt lat="46.79923" lon="0.50679">
        <ele>69</ele>
        <time>2020-07-03T16:38:51Z</time>
      </trkpt>
      <trkpt lat="46.79919" lon="0.50673">
        <ele>69</ele>
        <time>2020-07-03T16:38:52Z</time>
      </trkpt>
      <trkpt lat="46.79916" lon="0.50666">
        <ele>69</ele>
        <time>2020-07-03T16:38:53Z</time>
      </trkpt>
      <trkpt lat="46.79912" lon="0.50659">
        <ele>68.9</ele>
        <time>2020-07-03T16:38:54Z</time>
      </trkpt>
      <trkpt lat="46.79908" lon="0.50652">
        <ele>68.9</ele>
        <time>2020-07-03T16:38:55Z</time>
      </trkpt>
      <trkpt lat="46.79903" lon="0.50644">
        <ele>68.9</ele>
        <time>2020-07-03T16:38:56Z</time>
      </trkpt>
      <trkpt lat="46.799" lon="0.50637">
        <ele>68.8</ele>
        <time>2020-07-03T16:38:57Z</time>
      </trkpt>
      <trkpt lat="46.79896" lon="0.50629">
        <ele>68.8</ele>
        <time>2020-07-03T16:38:58Z</time>
      </trkpt>
      <trkpt lat="46.79893" lon="0.50622">
        <ele>68.8</ele>
        <time>2020-07-03T16:38:59Z</time>
      </trkpt>
      <trkpt lat="46.7989" lon="0.50615">
        <ele>68.7</ele>
        <time>2020-07-03T16:39:00Z</time>
      </trkpt>
      <trkpt lat="46.79886" lon="0.50608">
        <ele>68.6</ele>
        <time>2020-07-03T16:39:01Z</time>
      </trkpt>
      <trkpt lat="46.79883" lon="0.506">
        <ele>68.6</ele>
        <time>2020-07-03T16:39:02Z</time>
      </trkpt>
      <trkpt lat="46.79876" lon="0.50596">
        <ele>68.5</ele>
        <time>2020-07-03T16:39:03Z</time>
      </trkpt>
      <trkpt lat="46.79872" lon="0.5059">
        <ele>68.5</ele>
        <time>2020-07-03T16:39:04Z</time>
      </trkpt>
      <trkpt lat="46.79868" lon="0.50583">
        <ele>68.5</ele>
        <time>2020-07-03T16:39:05Z</time>
      </trkpt>
      <trkpt lat="46.79863" lon="0.50577">
        <ele>68.5</ele>
        <time>2020-07-03T16:39:06Z</time>
      </trkpt>
      <trkpt lat="46.7986" lon="0.5057">
        <ele>68.4</ele>
        <time>2020-07-03T16:39:07Z</time>
      </trkpt>
      <trkpt lat="46.79855" lon="0.50563">
        <ele>68.4</ele>
        <time>2020-07-03T16:39:08Z</time>
      </trkpt>
      <trkpt lat="46.79851" lon="0.50556">
        <ele>68.4</ele>
        <time>2020-07-03T16:39:09Z</time>
      </trkpt>
      <trkpt lat="46.79847" lon="0.5055">
        <ele>68.3</ele>
        <time>2020-07-03T16:39:10Z</time>
      </trkpt>
      <trkpt lat="46.79844" lon="0.50544">
        <ele>68.3</ele>
        <time>2020-07-03T16:39:11Z</time>
      </trkpt>
      <trkpt lat="46.79841" lon="0.50537">
        <ele>68.2</ele>
        <time>2020-07-03T16:39:12Z</time>
      </trkpt>
      <trkpt lat="46.79837" lon="0.50529">
        <ele>68.2</ele>
        <time>2020-07-03T16:39:13Z</time>
      </trkpt>
      <trkpt lat="46.79833" lon="0.50522">
        <ele>68.1</ele>
        <time>2020-07-03T16:39:14Z</time>
      </trkpt>
      <trkpt lat="46.79829" lon="0.50515">
        <ele>68</ele>
        <time>2020-07-03T16:39:15Z</time>
      </trkpt>
      <trkpt lat="46.79826" lon="0.50508">
        <ele>67.9</ele>
        <time>2020-07-03T16:39:16Z</time>
      </trkpt>
      <trkpt lat="46.79822" lon="0.50501">
        <ele>67.8</ele>
        <time>2020-07-03T16:39:17Z</time>
      </trkpt>
      <trkpt lat="46.79818" lon="0.50494">
        <ele>67.8</ele>
        <time>2020-07-03T16:39:18Z</time>
      </trkpt>
      <trkpt lat="46.79815" lon="0.50488">
        <ele>67.8</ele>
        <time>2020-07-03T16:39:19Z</time>
      </trkpt>
      <trkpt lat="46.79812" lon="0.50482">
        <ele>67.8</ele>
        <time>2020-07-03T16:39:20Z</time>
      </trkpt>
      <trkpt lat="46.79809" lon="0.50475">
        <ele>67.8</ele>
        <time>2020-07-03T16:39:21Z</time>
      </trkpt>
      <trkpt lat="46.79805" lon="0.50469">
        <ele>67.8</ele>
        <time>2020-07-03T16:39:22Z</time>
      </trkpt>
      <trkpt lat="46.79801" lon="0.50461">
        <ele>67.8</ele>
        <time>2020-07-03T16:39:23Z</time>
      </trkpt>
      <trkpt lat="46.79798" lon="0.50454">
        <ele>67.8</ele>
        <time>2020-07-03T16:39:24Z</time>
      </trkpt>
      <trkpt lat="46.79794" lon="0.50448">
        <ele>67.9</ele>
        <time>2020-07-03T16:39:25Z</time>
      </trkpt>
      <trkpt lat="46.79791" lon="0.50443">
        <ele>67.9</ele>
        <time>2020-07-03T16:39:26Z</time>
      </trkpt>
      <trkpt lat="46.79787" lon="0.50437">
        <ele>67.9</ele>
        <time>2020-07-03T16:39:27Z</time>
      </trkpt>
      <trkpt lat="46.79784" lon="0.50432">
        <ele>67.9</ele>
        <time>2020-07-03T16:39:28Z</time>
      </trkpt>
      <trkpt lat="46.79781" lon="0.50426">
        <ele>67.9</ele>
        <time>2020-07-03T16:39:29Z</time>
      </trkpt>
      <trkpt lat="46.79778" lon="0.5042">
        <ele>68</ele>
        <time>2020-07-03T16:39:30Z</time>
      </trkpt>
      <trkpt lat="46.79775" lon="0.50415">
        <ele>68</ele>
        <time>2020-07-03T16:39:31Z</time>
      </trkpt>
      <trkpt lat="46.79772" lon="0.50409">
        <ele>68.1</ele>
        <time>2020-07-03T16:39:32Z</time>
      </trkpt>
      <trkpt lat="46.79769" lon="0.50404">
        <ele>68.1</ele>
        <time>2020-07-03T16:39:33Z</time>
      </trkpt>
      <trkpt lat="46.79766" lon="0.50399">
        <ele>68.1</ele>
        <time>2020-07-03T16:39:34Z</time>
      </trkpt>
      <trkpt lat="46.79764" lon="0.50394">
        <ele>68.2</ele>
        <time>2020-07-03T16:39:35Z</time>
      </trkpt>
      <trkpt lat="46.79761" lon="0.50388">
        <ele>68.3</ele>
        <time>2020-07-03T16:39:36Z</time>
      </trkpt>
      <trkpt lat="46.79759" lon="0.50382">
        <ele>68.3</ele>
        <time>2020-07-03T16:39:37Z</time>
      </trkpt>
      <trkpt lat="46.79755" lon="0.50377">
        <ele>68.4</ele>
        <time>2020-07-03T16:39:38Z</time>
      </trkpt>
      <trkpt lat="46.79753" lon="0.5037">
        <ele>68.5</ele>
        <time>2020-07-03T16:39:39Z</time>
      </trkpt>
      <trkpt lat="46.7975" lon="0.50364">
        <ele>68.6</ele>
        <time>2020-07-03T16:39:40Z</time>
      </trkpt>
      <trkpt lat="46.79748" lon="0.50357">
        <ele>68.7</ele>
        <time>2020-07-03T16:39:41Z</time>
      </trkpt>
      <trkpt lat="46.79744" lon="0.50352">
        <ele>68.8</ele>
        <time>2020-07-03T16:39:42Z</time>
      </trkpt>
      <trkpt lat="46.79741" lon="0.50347">
        <ele>68.8</ele>
        <time>2020-07-03T16:39:43Z</time>
      </trkpt>
      <trkpt lat="46.79738" lon="0.50342">
        <ele>68.9</ele>
        <time>2020-07-03T16:39:44Z</time>
      </trkpt>
      <trkpt lat="46.79735" lon="0.50337">
        <ele>69</ele>
        <time>2020-07-03T16:39:45Z</time>
      </trkpt>
      <trkpt lat="46.79732" lon="0.50331">
        <ele>69</ele>
        <time>2020-07-03T16:39:46Z</time>
      </trkpt>
      <trkpt lat="46.79729" lon="0.50323">
        <ele>69.1</ele>
        <time>2020-07-03T16:39:47Z</time>
      </trkpt>
      <trkpt lat="46.79726" lon="0.50318">
        <ele>69.2</ele>
        <time>2020-07-03T16:39:48Z</time>
      </trkpt>
      <trkpt lat="46.79723" lon="0.50313">
        <ele>69.2</ele>
        <time>2020-07-03T16:39:49Z</time>
      </trkpt>
      <trkpt lat="46.79719" lon="0.50307">
        <ele>69.3</ele>
        <time>2020-07-03T16:39:50Z</time>
      </trkpt>
      <trkpt lat="46.79716" lon="0.50301">
        <ele>69.3</ele>
        <time>2020-07-03T16:39:51Z</time>
      </trkpt>
      <trkpt lat="46.79712" lon="0.50294">
        <ele>69.4</ele>
        <time>2020-07-03T16:39:52Z</time>
      </trkpt>
      <trkpt lat="46.79707" lon="0.50285">
        <ele>69.5</ele>
        <time>2020-07-03T16:39:53Z</time>
      </trkpt>
      <trkpt lat="46.79704" lon="0.50277">
        <ele>69.6</ele>
        <time>2020-07-03T16:39:54Z</time>
      </trkpt>
      <trkpt lat="46.797" lon="0.50269">
        <ele>69.7</ele>
        <time>2020-07-03T16:39:55Z</time>
      </trkpt>
      <trkpt lat="46.79696" lon="0.50262">
        <ele>69.8</ele>
        <time>2020-07-03T16:39:56Z</time>
      </trkpt>
      <trkpt lat="46.79691" lon="0.50252">
        <ele>69.8</ele>
        <time>2020-07-03T16:39:57Z</time>
      </trkpt>
      <trkpt lat="46.79687" lon="0.50244">
        <ele>69.8</ele>
        <time>2020-07-03T16:39:58Z</time>
      </trkpt>
      <trkpt lat="46.79682" lon="0.50236">
        <ele>69.9</ele>
        <time>2020-07-03T16:39:59Z</time>
      </trkpt>
      <trkpt lat="46.79678" lon="0.5023">
        <ele>69.9</ele>
        <time>2020-07-03T16:40:00Z</time>
      </trkpt>
      <trkpt lat="46.79675" lon="0.50223">
        <ele>69.9</ele>
        <time>2020-07-03T16:40:01Z</time>
      </trkpt>
      <trkpt lat="46.79671" lon="0.50216">
        <ele>70</ele>
        <time>2020-07-03T16:40:02Z</time>
      </trkpt>
      <trkpt lat="46.79667" lon="0.50208">
        <ele>70</ele>
        <time>2020-07-03T16:40:03Z</time>
      </trkpt>
      <trkpt lat="46.79662" lon="0.50199">
        <ele>70</ele>
        <time>2020-07-03T16:40:04Z</time>
      </trkpt>
      <trkpt lat="46.79658" lon="0.5019">
        <ele>70</ele>
        <time>2020-07-03T16:40:05Z</time>
      </trkpt>
      <trkpt lat="46.79653" lon="0.50182">
        <ele>70.1</ele>
        <time>2020-07-03T16:40:06Z</time>
      </trkpt>
      <trkpt lat="46.79649" lon="0.50175">
        <ele>70.1</ele>
        <time>2020-07-03T16:40:07Z</time>
      </trkpt>
      <trkpt lat="46.79643" lon="0.5016">
        <ele>70.3</ele>
        <time>2020-07-03T16:40:08Z</time>
      </trkpt>
      <trkpt lat="46.79636" lon="0.50145">
        <ele>70.5</ele>
        <time>2020-07-03T16:40:09Z</time>
      </trkpt>
      <trkpt lat="46.79629" lon="0.50131">
        <ele>70.7</ele>
        <time>2020-07-03T16:40:10Z</time>
      </trkpt>
      <trkpt lat="46.79622" lon="0.50118">
        <ele>70.8</ele>
        <time>2020-07-03T16:40:11Z</time>
      </trkpt>
      <trkpt lat="46.79617" lon="0.50107">
        <ele>70.9</ele>
        <time>2020-07-03T16:40:12Z</time>
      </trkpt>
      <trkpt lat="46.79613" lon="0.50099">
        <ele>71</ele>
        <time>2020-07-03T16:40:13Z</time>
      </trkpt>
      <trkpt lat="46.79609" lon="0.50092">
        <ele>71</ele>
        <time>2020-07-03T16:40:14Z</time>
      </trkpt>
      <trkpt lat="46.79605" lon="0.50083">
        <ele>71.1</ele>
        <time>2020-07-03T16:40:15Z</time>
      </trkpt>
      <trkpt lat="46.796" lon="0.50076">
        <ele>71.1</ele>
        <time>2020-07-03T16:40:16Z</time>
      </trkpt>
      <trkpt lat="46.79596" lon="0.50068">
        <ele>71.2</ele>
        <time>2020-07-03T16:40:17Z</time>
      </trkpt>
      <trkpt lat="46.79593" lon="0.50061">
        <ele>71.2</ele>
        <time>2020-07-03T16:40:18Z</time>
      </trkpt>
      <trkpt lat="46.79589" lon="0.50054">
        <ele>71.3</ele>
        <time>2020-07-03T16:40:19Z</time>
      </trkpt>
      <trkpt lat="46.79586" lon="0.50048">
        <ele>71.3</ele>
        <time>2020-07-03T16:40:20Z</time>
      </trkpt>
      <trkpt lat="46.79582" lon="0.50041">
        <ele>71.4</ele>
        <time>2020-07-03T16:40:21Z</time>
      </trkpt>
      <trkpt lat="46.7958" lon="0.50036">
        <ele>71.5</ele>
        <time>2020-07-03T16:40:22Z</time>
      </trkpt>
      <trkpt lat="46.79576" lon="0.50029">
        <ele>71.6</ele>
        <time>2020-07-03T16:40:23Z</time>
      </trkpt>
      <trkpt lat="46.79573" lon="0.50023">
        <ele>71.6</ele>
        <time>2020-07-03T16:40:24Z</time>
      </trkpt>
      <trkpt lat="46.79569" lon="0.50016">
        <ele>71.7</ele>
        <time>2020-07-03T16:40:25Z</time>
      </trkpt>
      <trkpt lat="46.79565" lon="0.50008">
        <ele>71.8</ele>
        <time>2020-07-03T16:40:26Z</time>
      </trkpt>
      <trkpt lat="46.79561" lon="0.5">
        <ele>71.8</ele>
        <time>2020-07-03T16:40:27Z</time>
      </trkpt>
      <trkpt lat="46.79558" lon="0.49993">
        <ele>71.9</ele>
        <time>2020-07-03T16:40:28Z</time>
      </trkpt>
      <trkpt lat="46.79554" lon="0.49987">
        <ele>71.9</ele>
        <time>2020-07-03T16:40:29Z</time>
      </trkpt>
      <trkpt lat="46.7955" lon="0.4998">
        <ele>72</ele>
        <time>2020-07-03T16:40:30Z</time>
      </trkpt>
      <trkpt lat="46.79546" lon="0.49972">
        <ele>72.1</ele>
        <time>2020-07-03T16:40:31Z</time>
      </trkpt>
      <trkpt lat="46.79542" lon="0.49963">
        <ele>72.1</ele>
        <time>2020-07-03T16:40:32Z</time>
      </trkpt>
      <trkpt lat="46.79538" lon="0.49956">
        <ele>72.2</ele>
        <time>2020-07-03T16:40:33Z</time>
      </trkpt>
      <trkpt lat="46.79535" lon="0.49949">
        <ele>72.2</ele>
        <time>2020-07-03T16:40:34Z</time>
      </trkpt>
      <trkpt lat="46.79531" lon="0.49943">
        <ele>72.2</ele>
        <time>2020-07-03T16:40:35Z</time>
      </trkpt>
      <trkpt lat="46.79528" lon="0.49937">
        <ele>72.3</ele>
        <time>2020-07-03T16:40:36Z</time>
      </trkpt>
      <trkpt lat="46.79524" lon="0.49931">
        <ele>72.3</ele>
        <time>2020-07-03T16:40:37Z</time>
      </trkpt>
      <trkpt lat="46.79521" lon="0.49924">
        <ele>72.4</ele>
        <time>2020-07-03T16:40:38Z</time>
      </trkpt>
      <trkpt lat="46.79518" lon="0.49918">
        <ele>72.4</ele>
        <time>2020-07-03T16:40:39Z</time>
      </trkpt>
      <trkpt lat="46.79514" lon="0.49911">
        <ele>72.4</ele>
        <time>2020-07-03T16:40:40Z</time>
      </trkpt>
      <trkpt lat="46.79511" lon="0.49903">
        <ele>72.4</ele>
        <time>2020-07-03T16:40:41Z</time>
      </trkpt>
      <trkpt lat="46.79507" lon="0.49896">
        <ele>72.4</ele>
        <time>2020-07-03T16:40:42Z</time>
      </trkpt>
      <trkpt lat="46.79504" lon="0.49888">
        <ele>72.3</ele>
        <time>2020-07-03T16:40:43Z</time>
      </trkpt>
      <trkpt lat="46.79502" lon="0.49881">
        <ele>72.2</ele>
        <time>2020-07-03T16:40:44Z</time>
      </trkpt>
      <trkpt lat="46.79498" lon="0.49874">
        <ele>72.1</ele>
        <time>2020-07-03T16:40:45Z</time>
      </trkpt>
      <trkpt lat="46.79496" lon="0.49868">
        <ele>72.1</ele>
        <time>2020-07-03T16:40:46Z</time>
      </trkpt>
      <trkpt lat="46.79492" lon="0.4986">
        <ele>72.1</ele>
        <time>2020-07-03T16:40:47Z</time>
      </trkpt>
      <trkpt lat="46.79489" lon="0.49852">
        <ele>72.1</ele>
        <time>2020-07-03T16:40:48Z</time>
      </trkpt>
      <trkpt lat="46.79485" lon="0.49845">
        <ele>72.1</ele>
        <time>2020-07-03T16:40:49Z</time>
      </trkpt>
      <trkpt lat="46.7948" lon="0.49838">
        <ele>72.1</ele>
        <time>2020-07-03T16:40:50Z</time>
      </trkpt>
      <trkpt lat="46.79475" lon="0.49829">
        <ele>72.1</ele>
        <time>2020-07-03T16:40:51Z</time>
      </trkpt>
      <trkpt lat="46.7947" lon="0.49823">
        <ele>72.1</ele>
        <time>2020-07-03T16:40:52Z</time>
      </trkpt>
      <trkpt lat="46.79465" lon="0.49816">
        <ele>72.1</ele>
        <time>2020-07-03T16:40:53Z</time>
      </trkpt>
      <trkpt lat="46.79461" lon="0.49811">
        <ele>72</ele>
        <time>2020-07-03T16:40:54Z</time>
      </trkpt>
      <trkpt lat="46.79459" lon="0.49804">
        <ele>72</ele>
        <time>2020-07-03T16:40:55Z</time>
      </trkpt>
      <trkpt lat="46.79456" lon="0.49797">
        <ele>72</ele>
        <time>2020-07-03T16:40:56Z</time>
      </trkpt>
      <trkpt lat="46.79451" lon="0.4979">
        <ele>72</ele>
        <time>2020-07-03T16:40:57Z</time>
      </trkpt>
      <trkpt lat="46.79447" lon="0.49783">
        <ele>71.9</ele>
        <time>2020-07-03T16:40:58Z</time>
      </trkpt>
      <trkpt lat="46.79443" lon="0.49776">
        <ele>71.9</ele>
        <time>2020-07-03T16:40:59Z</time>
      </trkpt>
      <trkpt lat="46.7944" lon="0.49768">
        <ele>71.9</ele>
        <time>2020-07-03T16:41:00Z</time>
      </trkpt>
      <trkpt lat="46.79437" lon="0.4976">
        <ele>71.9</ele>
        <time>2020-07-03T16:41:01Z</time>
      </trkpt>
      <trkpt lat="46.79434" lon="0.49753">
        <ele>71.9</ele>
        <time>2020-07-03T16:41:02Z</time>
      </trkpt>
      <trkpt lat="46.79429" lon="0.49747">
        <ele>71.9</ele>
        <time>2020-07-03T16:41:03Z</time>
      </trkpt>
      <trkpt lat="46.79424" lon="0.4974">
        <ele>71.9</ele>
        <time>2020-07-03T16:41:04Z</time>
      </trkpt>
      <trkpt lat="46.79419" lon="0.49732">
        <ele>71.9</ele>
        <time>2020-07-03T16:41:05Z</time>
      </trkpt>
      <trkpt lat="46.79415" lon="0.49724">
        <ele>71.9</ele>
        <time>2020-07-03T16:41:06Z</time>
      </trkpt>
      <trkpt lat="46.79412" lon="0.49716">
        <ele>71.9</ele>
        <time>2020-07-03T16:41:07Z</time>
      </trkpt>
      <trkpt lat="46.79409" lon="0.49709">
        <ele>71.9</ele>
        <time>2020-07-03T16:41:08Z</time>
      </trkpt>
      <trkpt lat="46.79406" lon="0.49704">
        <ele>71.9</ele>
        <time>2020-07-03T16:41:09Z</time>
      </trkpt>
      <trkpt lat="46.79403" lon="0.49697">
        <ele>71.9</ele>
        <time>2020-07-03T16:41:10Z</time>
      </trkpt>
      <trkpt lat="46.79399" lon="0.4969">
        <ele>71.9</ele>
        <time>2020-07-03T16:41:11Z</time>
      </trkpt>
      <trkpt lat="46.79396" lon="0.49683">
        <ele>71.9</ele>
        <time>2020-07-03T16:41:12Z</time>
      </trkpt>
      <trkpt lat="46.79394" lon="0.49676">
        <ele>71.9</ele>
        <time>2020-07-03T16:41:13Z</time>
      </trkpt>
      <trkpt lat="46.79391" lon="0.49669">
        <ele>71.9</ele>
        <time>2020-07-03T16:41:14Z</time>
      </trkpt>
      <trkpt lat="46.79387" lon="0.49662">
        <ele>71.9</ele>
        <time>2020-07-03T16:41:15Z</time>
      </trkpt>
      <trkpt lat="46.79384" lon="0.49655">
        <ele>71.9</ele>
        <time>2020-07-03T16:41:16Z</time>
      </trkpt>
      <trkpt lat="46.79381" lon="0.49648">
        <ele>71.9</ele>
        <time>2020-07-03T16:41:17Z</time>
      </trkpt>
      <trkpt lat="46.79378" lon="0.49641">
        <ele>71.9</ele>
        <time>2020-07-03T16:41:18Z</time>
      </trkpt>
      <trkpt lat="46.79372" lon="0.49637">
        <ele>71.8</ele>
        <time>2020-07-03T16:41:19Z</time>
      </trkpt>
      <trkpt lat="46.79367" lon="0.49631">
        <ele>71.8</ele>
        <time>2020-07-03T16:41:20Z</time>
      </trkpt>
      <trkpt lat="46.79363" lon="0.49624">
        <ele>71.7</ele>
        <time>2020-07-03T16:41:21Z</time>
      </trkpt>
      <trkpt lat="46.79359" lon="0.49618">
        <ele>71.7</ele>
        <time>2020-07-03T16:41:22Z</time>
      </trkpt>
      <trkpt lat="46.79355" lon="0.49612">
        <ele>71.7</ele>
        <time>2020-07-03T16:41:23Z</time>
      </trkpt>
      <trkpt lat="46.79351" lon="0.49606">
        <ele>71.7</ele>
        <time>2020-07-03T16:41:24Z</time>
      </trkpt>
      <trkpt lat="46.79348" lon="0.49599">
        <ele>71.7</ele>
        <time>2020-07-03T16:41:25Z</time>
      </trkpt>
      <trkpt lat="46.79345" lon="0.49593">
        <ele>71.7</ele>
        <time>2020-07-03T16:41:26Z</time>
      </trkpt>
      <trkpt lat="46.79341" lon="0.49587">
        <ele>71.7</ele>
        <time>2020-07-03T16:41:27Z</time>
      </trkpt>
      <trkpt lat="46.79337" lon="0.4958">
        <ele>71.7</ele>
        <time>2020-07-03T16:41:28Z</time>
      </trkpt>
      <trkpt lat="46.79333" lon="0.49572">
        <ele>71.8</ele>
        <time>2020-07-03T16:41:29Z</time>
      </trkpt>
      <trkpt lat="46.7933" lon="0.49566">
        <ele>71.8</ele>
        <time>2020-07-03T16:41:30Z</time>
      </trkpt>
      <trkpt lat="46.79327" lon="0.49559">
        <ele>71.8</ele>
        <time>2020-07-03T16:41:31Z</time>
      </trkpt>
      <trkpt lat="46.79323" lon="0.49553">
        <ele>71.8</ele>
        <time>2020-07-03T16:41:32Z</time>
      </trkpt>
      <trkpt lat="46.7932" lon="0.49547">
        <ele>71.9</ele>
        <time>2020-07-03T16:41:33Z</time>
      </trkpt>
      <trkpt lat="46.79316" lon="0.4954">
        <ele>71.9</ele>
        <time>2020-07-03T16:41:34Z</time>
      </trkpt>
      <trkpt lat="46.79313" lon="0.49535">
        <ele>71.9</ele>
        <time>2020-07-03T16:41:35Z</time>
      </trkpt>
      <trkpt lat="46.79309" lon="0.49528">
        <ele>71.9</ele>
        <time>2020-07-03T16:41:36Z</time>
      </trkpt>
      <trkpt lat="46.79306" lon="0.49522">
        <ele>71.9</ele>
        <time>2020-07-03T16:41:37Z</time>
      </trkpt>
      <trkpt lat="46.79303" lon="0.49517">
        <ele>71.9</ele>
        <time>2020-07-03T16:41:38Z</time>
      </trkpt>
      <trkpt lat="46.793" lon="0.4951">
        <ele>72</ele>
        <time>2020-07-03T16:41:39Z</time>
      </trkpt>
      <trkpt lat="46.79296" lon="0.49505">
        <ele>72</ele>
        <time>2020-07-03T16:41:40Z</time>
      </trkpt>
      <trkpt lat="46.79293" lon="0.49499">
        <ele>72</ele>
        <time>2020-07-03T16:41:41Z</time>
      </trkpt>
      <trkpt lat="46.7929" lon="0.49492">
        <ele>72.1</ele>
        <time>2020-07-03T16:41:42Z</time>
      </trkpt>
      <trkpt lat="46.79287" lon="0.49484">
        <ele>72.1</ele>
        <time>2020-07-03T16:41:43Z</time>
      </trkpt>
      <trkpt lat="46.79284" lon="0.49479">
        <ele>72.1</ele>
        <time>2020-07-03T16:41:44Z</time>
      </trkpt>
      <trkpt lat="46.79282" lon="0.49475">
        <ele>72.2</ele>
        <time>2020-07-03T16:41:45Z</time>
      </trkpt>
      <trkpt lat="46.7928" lon="0.49469">
        <ele>72.2</ele>
        <time>2020-07-03T16:41:46Z</time>
      </trkpt>
      <trkpt lat="46.79277" lon="0.49462">
        <ele>72.3</ele>
        <time>2020-07-03T16:41:47Z</time>
      </trkpt>
      <trkpt lat="46.79274" lon="0.49456">
        <ele>72.3</ele>
        <time>2020-07-03T16:41:48Z</time>
      </trkpt>
      <trkpt lat="46.79271" lon="0.4945">
        <ele>72.4</ele>
        <time>2020-07-03T16:41:49Z</time>
      </trkpt>
      <trkpt lat="46.79266" lon="0.49445">
        <ele>72.5</ele>
        <time>2020-07-03T16:41:50Z</time>
      </trkpt>
      <trkpt lat="46.79262" lon="0.49444">
        <ele>72.5</ele>
        <time>2020-07-03T16:41:51Z</time>
      </trkpt>
      <trkpt lat="46.79257" lon="0.49445">
        <ele>72.5</ele>
        <time>2020-07-03T16:41:52Z</time>
      </trkpt>
      <trkpt lat="46.79253" lon="0.49443">
        <ele>72.5</ele>
        <time>2020-07-03T16:41:53Z</time>
      </trkpt>
      <trkpt lat="46.79248" lon="0.49442">
        <ele>72.5</ele>
        <time>2020-07-03T16:41:54Z</time>
      </trkpt>
      <trkpt lat="46.79244" lon="0.4944">
        <ele>72.6</ele>
        <time>2020-07-03T16:41:55Z</time>
      </trkpt>
      <trkpt lat="46.7924" lon="0.49437">
        <ele>72.6</ele>
        <time>2020-07-03T16:41:56Z</time>
      </trkpt>
      <trkpt lat="46.79235" lon="0.49435">
        <ele>72.7</ele>
        <time>2020-07-03T16:41:57Z</time>
      </trkpt>
      <trkpt lat="46.7923" lon="0.49433">
        <ele>72.8</ele>
        <time>2020-07-03T16:41:58Z</time>
      </trkpt>
      <trkpt lat="46.79226" lon="0.49431">
        <ele>72.9</ele>
        <time>2020-07-03T16:41:59Z</time>
      </trkpt>
      <trkpt lat="46.79221" lon="0.49429">
        <ele>73</ele>
        <time>2020-07-03T16:42:00Z</time>
      </trkpt>
      <trkpt lat="46.79216" lon="0.49428">
        <ele>73.1</ele>
        <time>2020-07-03T16:42:01Z</time>
      </trkpt>
      <trkpt lat="46.79211" lon="0.49426">
        <ele>73.2</ele>
        <time>2020-07-03T16:42:02Z</time>
      </trkpt>
      <trkpt lat="46.79207" lon="0.49427">
        <ele>73.4</ele>
        <time>2020-07-03T16:42:03Z</time>
      </trkpt>
      <trkpt lat="46.79203" lon="0.49424">
        <ele>73.5</ele>
        <time>2020-07-03T16:42:04Z</time>
      </trkpt>
      <trkpt lat="46.79198" lon="0.49423">
        <ele>73.6</ele>
        <time>2020-07-03T16:42:05Z</time>
      </trkpt>
      <trkpt lat="46.79194" lon="0.49421">
        <ele>73.6</ele>
        <time>2020-07-03T16:42:06Z</time>
      </trkpt>
      <trkpt lat="46.7919" lon="0.49419">
        <ele>73.7</ele>
        <time>2020-07-03T16:42:07Z</time>
      </trkpt>
      <trkpt lat="46.79184" lon="0.49418">
        <ele>73.8</ele>
        <time>2020-07-03T16:42:08Z</time>
      </trkpt>
      <trkpt lat="46.79179" lon="0.49415">
        <ele>74</ele>
        <time>2020-07-03T16:42:09Z</time>
      </trkpt>
      <trkpt lat="46.79175" lon="0.49413">
        <ele>74</ele>
        <time>2020-07-03T16:42:10Z</time>
      </trkpt>
      <trkpt lat="46.79171" lon="0.49412">
        <ele>74.1</ele>
        <time>2020-07-03T16:42:11Z</time>
      </trkpt>
      <trkpt lat="46.79167" lon="0.49412">
        <ele>74.2</ele>
        <time>2020-07-03T16:42:12Z</time>
      </trkpt>
      <trkpt lat="46.79162" lon="0.4941">
        <ele>74.2</ele>
        <time>2020-07-03T16:42:13Z</time>
      </trkpt>
      <trkpt lat="46.79156" lon="0.49407">
        <ele>74.3</ele>
        <time>2020-07-03T16:42:14Z</time>
      </trkpt>
      <trkpt lat="46.79148" lon="0.49404">
        <ele>74.4</ele>
        <time>2020-07-03T16:42:15Z</time>
      </trkpt>
      <trkpt lat="46.79142" lon="0.49402">
        <ele>74.4</ele>
        <time>2020-07-03T16:42:16Z</time>
      </trkpt>
      <trkpt lat="46.79137" lon="0.49401">
        <ele>74.4</ele>
        <time>2020-07-03T16:42:17Z</time>
      </trkpt>
      <trkpt lat="46.79132" lon="0.49399">
        <ele>74.4</ele>
        <time>2020-07-03T16:42:18Z</time>
      </trkpt>
      <trkpt lat="46.79125" lon="0.49396">
        <ele>74.3</ele>
        <time>2020-07-03T16:42:19Z</time>
      </trkpt>
      <trkpt lat="46.7912" lon="0.49395">
        <ele>74.3</ele>
        <time>2020-07-03T16:42:20Z</time>
      </trkpt>
      <trkpt lat="46.79115" lon="0.49392">
        <ele>74.3</ele>
        <time>2020-07-03T16:42:21Z</time>
      </trkpt>
      <trkpt lat="46.79109" lon="0.4939">
        <ele>74.3</ele>
        <time>2020-07-03T16:42:22Z</time>
      </trkpt>
      <trkpt lat="46.79103" lon="0.49388">
        <ele>74.2</ele>
        <time>2020-07-03T16:42:23Z</time>
      </trkpt>
      <trkpt lat="46.79097" lon="0.49386">
        <ele>74.2</ele>
        <time>2020-07-03T16:42:24Z</time>
      </trkpt>
      <trkpt lat="46.7909" lon="0.49385">
        <ele>74.1</ele>
        <time>2020-07-03T16:42:25Z</time>
      </trkpt>
      <trkpt lat="46.79085" lon="0.49384">
        <ele>74</ele>
        <time>2020-07-03T16:42:26Z</time>
      </trkpt>
      <trkpt lat="46.7908" lon="0.49381">
        <ele>74</ele>
        <time>2020-07-03T16:42:27Z</time>
      </trkpt>
      <trkpt lat="46.79074" lon="0.49378">
        <ele>73.9</ele>
        <time>2020-07-03T16:42:28Z</time>
      </trkpt>
      <trkpt lat="46.79069" lon="0.49377">
        <ele>73.8</ele>
        <time>2020-07-03T16:42:29Z</time>
      </trkpt>
      <trkpt lat="46.79063" lon="0.49375">
        <ele>73.7</ele>
        <time>2020-07-03T16:42:30Z</time>
      </trkpt>
      <trkpt lat="46.79056" lon="0.49373">
        <ele>73.7</ele>
        <time>2020-07-03T16:42:31Z</time>
      </trkpt>
      <trkpt lat="46.79051" lon="0.4937">
        <ele>73.6</ele>
        <time>2020-07-03T16:42:32Z</time>
      </trkpt>
      <trkpt lat="46.79045" lon="0.49368">
        <ele>73.5</ele>
        <time>2020-07-03T16:42:33Z</time>
      </trkpt>
      <trkpt lat="46.79038" lon="0.49367">
        <ele>73.4</ele>
        <time>2020-07-03T16:42:34Z</time>
      </trkpt>
      <trkpt lat="46.79031" lon="0.49365">
        <ele>73.3</ele>
        <time>2020-07-03T16:42:35Z</time>
      </trkpt>
      <trkpt lat="46.79025" lon="0.49362">
        <ele>73.2</ele>
        <time>2020-07-03T16:42:36Z</time>
      </trkpt>
      <trkpt lat="46.79018" lon="0.4936">
        <ele>73.1</ele>
        <time>2020-07-03T16:42:37Z</time>
      </trkpt>
      <trkpt lat="46.79012" lon="0.49358">
        <ele>73.1</ele>
        <time>2020-07-03T16:42:38Z</time>
      </trkpt>
      <trkpt lat="46.79005" lon="0.49355">
        <ele>73</ele>
        <time>2020-07-03T16:42:39Z</time>
      </trkpt>
      <trkpt lat="46.78999" lon="0.49353">
        <ele>72.9</ele>
        <time>2020-07-03T16:42:40Z</time>
      </trkpt>
      <trkpt lat="46.78992" lon="0.49351">
        <ele>72.9</ele>
        <time>2020-07-03T16:42:41Z</time>
      </trkpt>
      <trkpt lat="46.78985" lon="0.49347">
        <ele>72.8</ele>
        <time>2020-07-03T16:42:42Z</time>
      </trkpt>
      <trkpt lat="46.78977" lon="0.49344">
        <ele>72.7</ele>
        <time>2020-07-03T16:42:43Z</time>
      </trkpt>
      <trkpt lat="46.78971" lon="0.49341">
        <ele>72.6</ele>
        <time>2020-07-03T16:42:44Z</time>
      </trkpt>
      <trkpt lat="46.78965" lon="0.4934">
        <ele>72.6</ele>
        <time>2020-07-03T16:42:45Z</time>
      </trkpt>
      <trkpt lat="46.78958" lon="0.49338">
        <ele>72.5</ele>
        <time>2020-07-03T16:42:46Z</time>
      </trkpt>
      <trkpt lat="46.78952" lon="0.49336">
        <ele>72.4</ele>
        <time>2020-07-03T16:42:47Z</time>
      </trkpt>
      <trkpt lat="46.78945" lon="0.49332">
        <ele>72.4</ele>
        <time>2020-07-03T16:42:48Z</time>
      </trkpt>
      <trkpt lat="46.78939" lon="0.4933">
        <ele>72.3</ele>
        <time>2020-07-03T16:42:49Z</time>
      </trkpt>
      <trkpt lat="46.78933" lon="0.49328">
        <ele>72.3</ele>
        <time>2020-07-03T16:42:50Z</time>
      </trkpt>
      <trkpt lat="46.78927" lon="0.49327">
        <ele>72.3</ele>
        <time>2020-07-03T16:42:51Z</time>
      </trkpt>
      <trkpt lat="46.78921" lon="0.49324">
        <ele>72.2</ele>
        <time>2020-07-03T16:42:52Z</time>
      </trkpt>
      <trkpt lat="46.78914" lon="0.49323">
        <ele>72.2</ele>
        <time>2020-07-03T16:42:53Z</time>
      </trkpt>
      <trkpt lat="46.78907" lon="0.49321">
        <ele>72.2</ele>
        <time>2020-07-03T16:42:54Z</time>
      </trkpt>
      <trkpt lat="46.78899" lon="0.49318">
        <ele>72.2</ele>
        <time>2020-07-03T16:42:55Z</time>
      </trkpt>
      <trkpt lat="46.78891" lon="0.49316">
        <ele>72.2</ele>
        <time>2020-07-03T16:42:56Z</time>
      </trkpt>
      <trkpt lat="46.78884" lon="0.49314">
        <ele>72.3</ele>
        <time>2020-07-03T16:42:57Z</time>
      </trkpt>
      <trkpt lat="46.78878" lon="0.49312">
        <ele>72.3</ele>
        <time>2020-07-03T16:42:58Z</time>
      </trkpt>
      <trkpt lat="46.78872" lon="0.4931">
        <ele>72.4</ele>
        <time>2020-07-03T16:42:59Z</time>
      </trkpt>
      <trkpt lat="46.78866" lon="0.49308">
        <ele>72.5</ele>
        <time>2020-07-03T16:43:00Z</time>
      </trkpt>
      <trkpt lat="46.7886" lon="0.49305">
        <ele>72.6</ele>
        <time>2020-07-03T16:43:01Z</time>
      </trkpt>
      <trkpt lat="46.78854" lon="0.49303">
        <ele>72.6</ele>
        <time>2020-07-03T16:43:02Z</time>
      </trkpt>
      <trkpt lat="46.78848" lon="0.493">
        <ele>72.7</ele>
        <time>2020-07-03T16:43:03Z</time>
      </trkpt>
      <trkpt lat="46.78841" lon="0.49297">
        <ele>72.8</ele>
        <time>2020-07-03T16:43:04Z</time>
      </trkpt>
      <trkpt lat="46.78835" lon="0.49294">
        <ele>72.9</ele>
        <time>2020-07-03T16:43:05Z</time>
      </trkpt>
      <trkpt lat="46.7883" lon="0.49291">
        <ele>73</ele>
        <time>2020-07-03T16:43:06Z</time>
      </trkpt>
      <trkpt lat="46.78825" lon="0.49288">
        <ele>73.1</ele>
        <time>2020-07-03T16:43:07Z</time>
      </trkpt>
      <trkpt lat="46.78819" lon="0.49287">
        <ele>73.2</ele>
        <time>2020-07-03T16:43:08Z</time>
      </trkpt>
      <trkpt lat="46.78813" lon="0.49284">
        <ele>73.2</ele>
        <time>2020-07-03T16:43:09Z</time>
      </trkpt>
      <trkpt lat="46.78808" lon="0.49284">
        <ele>73.3</ele>
        <time>2020-07-03T16:43:10Z</time>
      </trkpt>
      <trkpt lat="46.78803" lon="0.49282">
        <ele>73.3</ele>
        <time>2020-07-03T16:43:11Z</time>
      </trkpt>
      <trkpt lat="46.78797" lon="0.4928">
        <ele>73.3</ele>
        <time>2020-07-03T16:43:12Z</time>
      </trkpt>
      <trkpt lat="46.78792" lon="0.49278">
        <ele>73.3</ele>
        <time>2020-07-03T16:43:13Z</time>
      </trkpt>
      <trkpt lat="46.78786" lon="0.49277">
        <ele>73.4</ele>
        <time>2020-07-03T16:43:14Z</time>
      </trkpt>
      <trkpt lat="46.78782" lon="0.49276">
        <ele>73.4</ele>
        <time>2020-07-03T16:43:15Z</time>
      </trkpt>
      <trkpt lat="46.78778" lon="0.49274">
        <ele>73.4</ele>
        <time>2020-07-03T16:43:16Z</time>
      </trkpt>
      <trkpt lat="46.78772" lon="0.49273">
        <ele>73.5</ele>
        <time>2020-07-03T16:43:17Z</time>
      </trkpt>
      <trkpt lat="46.78766" lon="0.49271">
        <ele>73.5</ele>
        <time>2020-07-03T16:43:18Z</time>
      </trkpt>
      <trkpt lat="46.7876" lon="0.49268">
        <ele>73.6</ele>
        <time>2020-07-03T16:43:19Z</time>
      </trkpt>
      <trkpt lat="46.78754" lon="0.49265">
        <ele>73.6</ele>
        <time>2020-07-03T16:43:20Z</time>
      </trkpt>
      <trkpt lat="46.78749" lon="0.49267">
        <ele>73.6</ele>
        <time>2020-07-03T16:43:21Z</time>
      </trkpt>
      <trkpt lat="46.78742" lon="0.49264">
        <ele>73.5</ele>
        <time>2020-07-03T16:43:22Z</time>
      </trkpt>
      <trkpt lat="46.78735" lon="0.49262">
        <ele>73.5</ele>
        <time>2020-07-03T16:43:23Z</time>
      </trkpt>
      <trkpt lat="46.78727" lon="0.49259">
        <ele>73.5</ele>
        <time>2020-07-03T16:43:24Z</time>
      </trkpt>
      <trkpt lat="46.78721" lon="0.49257">
        <ele>73.5</ele>
        <time>2020-07-03T16:43:25Z</time>
      </trkpt>
      <trkpt lat="46.78714" lon="0.49254">
        <ele>73.4</ele>
        <time>2020-07-03T16:43:26Z</time>
      </trkpt>
      <trkpt lat="46.78708" lon="0.49252">
        <ele>73.4</ele>
        <time>2020-07-03T16:43:27Z</time>
      </trkpt>
      <trkpt lat="46.78702" lon="0.4925">
        <ele>73.4</ele>
        <time>2020-07-03T16:43:28Z</time>
      </trkpt>
      <trkpt lat="46.78695" lon="0.49248">
        <ele>73.4</ele>
        <time>2020-07-03T16:43:29Z</time>
      </trkpt>
      <trkpt lat="46.78688" lon="0.49245">
        <ele>73.3</ele>
        <time>2020-07-03T16:43:30Z</time>
      </trkpt>
      <trkpt lat="46.78682" lon="0.49243">
        <ele>73.2</ele>
        <time>2020-07-03T16:43:31Z</time>
      </trkpt>
      <trkpt lat="46.78675" lon="0.4924">
        <ele>73.2</ele>
        <time>2020-07-03T16:43:32Z</time>
      </trkpt>
      <trkpt lat="46.78668" lon="0.49238">
        <ele>73.1</ele>
        <time>2020-07-03T16:43:33Z</time>
      </trkpt>
      <trkpt lat="46.78661" lon="0.49236">
        <ele>73.1</ele>
        <time>2020-07-03T16:43:34Z</time>
      </trkpt>
      <trkpt lat="46.78654" lon="0.49234">
        <ele>73</ele>
        <time>2020-07-03T16:43:35Z</time>
      </trkpt>
      <trkpt lat="46.78648" lon="0.49231">
        <ele>73</ele>
        <time>2020-07-03T16:43:36Z</time>
      </trkpt>
      <trkpt lat="46.78641" lon="0.49228">
        <ele>73</ele>
        <time>2020-07-03T16:43:37Z</time>
      </trkpt>
      <trkpt lat="46.78634" lon="0.49226">
        <ele>73</ele>
        <time>2020-07-03T16:43:38Z</time>
      </trkpt>
      <trkpt lat="46.78628" lon="0.49223">
        <ele>73</ele>
        <time>2020-07-03T16:43:39Z</time>
      </trkpt>
      <trkpt lat="46.78621" lon="0.4922">
        <ele>73</ele>
        <time>2020-07-03T16:43:40Z</time>
      </trkpt>
      <trkpt lat="46.78615" lon="0.49217">
        <ele>73</ele>
        <time>2020-07-03T16:43:41Z</time>
      </trkpt>
      <trkpt lat="46.78608" lon="0.49214">
        <ele>73</ele>
        <time>2020-07-03T16:43:42Z</time>
      </trkpt>
      <trkpt lat="46.78602" lon="0.49211">
        <ele>73</ele>
        <time>2020-07-03T16:43:43Z</time>
      </trkpt>
      <trkpt lat="46.78595" lon="0.49208">
        <ele>73</ele>
        <time>2020-07-03T16:43:44Z</time>
      </trkpt>
      <trkpt lat="46.78589" lon="0.49206">
        <ele>73</ele>
        <time>2020-07-03T16:43:45Z</time>
      </trkpt>
      <trkpt lat="46.78583" lon="0.49203">
        <ele>73</ele>
        <time>2020-07-03T16:43:46Z</time>
      </trkpt>
      <trkpt lat="46.78576" lon="0.492">
        <ele>72.9</ele>
        <time>2020-07-03T16:43:47Z</time>
      </trkpt>
      <trkpt lat="46.7857" lon="0.49197">
        <ele>72.9</ele>
        <time>2020-07-03T16:43:48Z</time>
      </trkpt>
      <trkpt lat="46.78563" lon="0.49195">
        <ele>72.8</ele>
        <time>2020-07-03T16:43:49Z</time>
      </trkpt>
      <trkpt lat="46.78557" lon="0.49192">
        <ele>72.8</ele>
        <time>2020-07-03T16:43:50Z</time>
      </trkpt>
      <trkpt lat="46.78552" lon="0.49191">
        <ele>72.8</ele>
        <time>2020-07-03T16:43:51Z</time>
      </trkpt>
      <trkpt lat="46.78546" lon="0.49189">
        <ele>72.8</ele>
        <time>2020-07-03T16:43:52Z</time>
      </trkpt>
      <trkpt lat="46.78541" lon="0.49187">
        <ele>72.8</ele>
        <time>2020-07-03T16:43:53Z</time>
      </trkpt>
      <trkpt lat="46.78535" lon="0.49183">
        <ele>72.8</ele>
        <time>2020-07-03T16:43:54Z</time>
      </trkpt>
      <trkpt lat="46.78528" lon="0.4918">
        <ele>72.6</ele>
        <time>2020-07-03T16:43:55Z</time>
      </trkpt>
      <trkpt lat="46.78522" lon="0.49176">
        <ele>72.5</ele>
        <time>2020-07-03T16:43:56Z</time>
      </trkpt>
      <trkpt lat="46.78517" lon="0.49173">
        <ele>72.4</ele>
        <time>2020-07-03T16:43:57Z</time>
      </trkpt>
      <trkpt lat="46.78511" lon="0.49169">
        <ele>72.4</ele>
        <time>2020-07-03T16:43:58Z</time>
      </trkpt>
      <trkpt lat="46.78506" lon="0.49164">
        <ele>72.5</ele>
        <time>2020-07-03T16:43:59Z</time>
      </trkpt>
      <trkpt lat="46.78502" lon="0.4916">
        <ele>72.5</ele>
        <time>2020-07-03T16:44:00Z</time>
      </trkpt>
      <trkpt lat="46.78499" lon="0.49157">
        <ele>72.5</ele>
        <time>2020-07-03T16:44:01Z</time>
      </trkpt>
      <trkpt lat="46.78494" lon="0.49152">
        <ele>72.6</ele>
        <time>2020-07-03T16:44:02Z</time>
      </trkpt>
      <trkpt lat="46.78488" lon="0.49147">
        <ele>72.6</ele>
        <time>2020-07-03T16:44:03Z</time>
      </trkpt>
      <trkpt lat="46.78483" lon="0.49143">
        <ele>72.7</ele>
        <time>2020-07-03T16:44:04Z</time>
      </trkpt>
      <trkpt lat="46.78479" lon="0.49138">
        <ele>72.7</ele>
        <time>2020-07-03T16:44:05Z</time>
      </trkpt>
      <trkpt lat="46.78474" lon="0.49133">
        <ele>72.7</ele>
        <time>2020-07-03T16:44:06Z</time>
      </trkpt>
      <trkpt lat="46.78468" lon="0.49128">
        <ele>72.8</ele>
        <time>2020-07-03T16:44:07Z</time>
      </trkpt>
      <trkpt lat="46.78462" lon="0.49123">
        <ele>72.8</ele>
        <time>2020-07-03T16:44:08Z</time>
      </trkpt>
      <trkpt lat="46.78457" lon="0.49118">
        <ele>72.8</ele>
        <time>2020-07-03T16:44:09Z</time>
      </trkpt>
      <trkpt lat="46.78452" lon="0.49114">
        <ele>72.9</ele>
        <time>2020-07-03T16:44:10Z</time>
      </trkpt>
      <trkpt lat="46.78448" lon="0.4911">
        <ele>72.9</ele>
        <time>2020-07-03T16:44:11Z</time>
      </trkpt>
      <trkpt lat="46.78444" lon="0.49106">
        <ele>72.9</ele>
        <time>2020-07-03T16:44:12Z</time>
      </trkpt>
      <trkpt lat="46.78439" lon="0.491">
        <ele>72.9</ele>
        <time>2020-07-03T16:44:13Z</time>
      </trkpt>
      <trkpt lat="46.78434" lon="0.49096">
        <ele>73</ele>
        <time>2020-07-03T16:44:14Z</time>
      </trkpt>
      <trkpt lat="46.78428" lon="0.49092">
        <ele>73</ele>
        <time>2020-07-03T16:44:15Z</time>
      </trkpt>
      <trkpt lat="46.78424" lon="0.49088">
        <ele>73</ele>
        <time>2020-07-03T16:44:16Z</time>
      </trkpt>
      <trkpt lat="46.78419" lon="0.49083">
        <ele>73</ele>
        <time>2020-07-03T16:44:17Z</time>
      </trkpt>
      <trkpt lat="46.78416" lon="0.49079">
        <ele>73</ele>
        <time>2020-07-03T16:44:18Z</time>
      </trkpt>
      <trkpt lat="46.78411" lon="0.49074">
        <ele>73.1</ele>
        <time>2020-07-03T16:44:19Z</time>
      </trkpt>
      <trkpt lat="46.78406" lon="0.49066">
        <ele>73.1</ele>
        <time>2020-07-03T16:44:20Z</time>
      </trkpt>
      <trkpt lat="46.78401" lon="0.49059">
        <ele>73.1</ele>
        <time>2020-07-03T16:44:21Z</time>
      </trkpt>
      <trkpt lat="46.78395" lon="0.49055">
        <ele>73.2</ele>
        <time>2020-07-03T16:44:22Z</time>
      </trkpt>
      <trkpt lat="46.7839" lon="0.4905">
        <ele>73.2</ele>
        <time>2020-07-03T16:44:23Z</time>
      </trkpt>
      <trkpt lat="46.78386" lon="0.49046">
        <ele>73.2</ele>
        <time>2020-07-03T16:44:24Z</time>
      </trkpt>
      <trkpt lat="46.78383" lon="0.49044">
        <ele>73.3</ele>
        <time>2020-07-03T16:44:25Z</time>
      </trkpt>
      <trkpt lat="46.78378" lon="0.49039">
        <ele>73.3</ele>
        <time>2020-07-03T16:44:26Z</time>
      </trkpt>
      <trkpt lat="46.78373" lon="0.49032">
        <ele>73.3</ele>
        <time>2020-07-03T16:44:27Z</time>
      </trkpt>
      <trkpt lat="46.78368" lon="0.49027">
        <ele>73.4</ele>
        <time>2020-07-03T16:44:28Z</time>
      </trkpt>
      <trkpt lat="46.78363" lon="0.49021">
        <ele>73.4</ele>
        <time>2020-07-03T16:44:29Z</time>
      </trkpt>
      <trkpt lat="46.78357" lon="0.49017">
        <ele>73.4</ele>
        <time>2020-07-03T16:44:30Z</time>
      </trkpt>
      <trkpt lat="46.78352" lon="0.49013">
        <ele>73.5</ele>
        <time>2020-07-03T16:44:31Z</time>
      </trkpt>
      <trkpt lat="46.78347" lon="0.49008">
        <ele>73.5</ele>
        <time>2020-07-03T16:44:32Z</time>
      </trkpt>
      <trkpt lat="46.78344" lon="0.49003">
        <ele>73.5</ele>
        <time>2020-07-03T16:44:33Z</time>
      </trkpt>
      <trkpt lat="46.7834" lon="0.48999">
        <ele>73.5</ele>
        <time>2020-07-03T16:44:34Z</time>
      </trkpt>
      <trkpt lat="46.78335" lon="0.48992">
        <ele>73.5</ele>
        <time>2020-07-03T16:44:35Z</time>
      </trkpt>
      <trkpt lat="46.78331" lon="0.48986">
        <ele>73.5</ele>
        <time>2020-07-03T16:44:36Z</time>
      </trkpt>
      <trkpt lat="46.78327" lon="0.48979">
        <ele>73.5</ele>
        <time>2020-07-03T16:44:37Z</time>
      </trkpt>
      <trkpt lat="46.78324" lon="0.48973">
        <ele>73.4</ele>
        <time>2020-07-03T16:44:38Z</time>
      </trkpt>
      <trkpt lat="46.7832" lon="0.48968">
        <ele>73.4</ele>
        <time>2020-07-03T16:44:39Z</time>
      </trkpt>
      <trkpt lat="46.78316" lon="0.48961">
        <ele>73.4</ele>
        <time>2020-07-03T16:44:40Z</time>
      </trkpt>
      <trkpt lat="46.7831" lon="0.48954">
        <ele>73.5</ele>
        <time>2020-07-03T16:44:41Z</time>
      </trkpt>
      <trkpt lat="46.78305" lon="0.48947">
        <ele>73.5</ele>
        <time>2020-07-03T16:44:42Z</time>
      </trkpt>
      <trkpt lat="46.78301" lon="0.48941">
        <ele>73.5</ele>
        <time>2020-07-03T16:44:43Z</time>
      </trkpt>
      <trkpt lat="46.78298" lon="0.48935">
        <ele>73.5</ele>
        <time>2020-07-03T16:44:44Z</time>
      </trkpt>
      <trkpt lat="46.78294" lon="0.48929">
        <ele>73.6</ele>
        <time>2020-07-03T16:44:45Z</time>
      </trkpt>
      <trkpt lat="46.7829" lon="0.48922">
        <ele>73.6</ele>
        <time>2020-07-03T16:44:46Z</time>
      </trkpt>
      <trkpt lat="46.78286" lon="0.48916">
        <ele>73.6</ele>
        <time>2020-07-03T16:44:47Z</time>
      </trkpt>
      <trkpt lat="46.78281" lon="0.4891">
        <ele>73.7</ele>
        <time>2020-07-03T16:44:48Z</time>
      </trkpt>
      <trkpt lat="46.78278" lon="0.48903">
        <ele>73.8</ele>
        <time>2020-07-03T16:44:49Z</time>
      </trkpt>
      <trkpt lat="46.78273" lon="0.48898">
        <ele>73.9</ele>
        <time>2020-07-03T16:44:50Z</time>
      </trkpt>
      <trkpt lat="46.7827" lon="0.48893">
        <ele>73.9</ele>
        <time>2020-07-03T16:44:51Z</time>
      </trkpt>
      <trkpt lat="46.78266" lon="0.48887">
        <ele>74</ele>
        <time>2020-07-03T16:44:52Z</time>
      </trkpt>
      <trkpt lat="46.78263" lon="0.48881">
        <ele>74.1</ele>
        <time>2020-07-03T16:44:53Z</time>
      </trkpt>
      <trkpt lat="46.78259" lon="0.48876">
        <ele>74.2</ele>
        <time>2020-07-03T16:44:54Z</time>
      </trkpt>
      <trkpt lat="46.78255" lon="0.4887">
        <ele>74.3</ele>
        <time>2020-07-03T16:44:55Z</time>
      </trkpt>
      <trkpt lat="46.78251" lon="0.48865">
        <ele>74.4</ele>
        <time>2020-07-03T16:44:56Z</time>
      </trkpt>
      <trkpt lat="46.78248" lon="0.48859">
        <ele>74.5</ele>
        <time>2020-07-03T16:44:57Z</time>
      </trkpt>
      <trkpt lat="46.78244" lon="0.48854">
        <ele>74.5</ele>
        <time>2020-07-03T16:44:58Z</time>
      </trkpt>
      <trkpt lat="46.78239" lon="0.48848">
        <ele>74.6</ele>
        <time>2020-07-03T16:44:59Z</time>
      </trkpt>
      <trkpt lat="46.78236" lon="0.48844">
        <ele>74.7</ele>
        <time>2020-07-03T16:45:00Z</time>
      </trkpt>
      <trkpt lat="46.78233" lon="0.48839">
        <ele>74.8</ele>
        <time>2020-07-03T16:45:01Z</time>
      </trkpt>
      <trkpt lat="46.78229" lon="0.48835">
        <ele>74.9</ele>
        <time>2020-07-03T16:45:02Z</time>
      </trkpt>
      <trkpt lat="46.78225" lon="0.4883">
        <ele>75</ele>
        <time>2020-07-03T16:45:03Z</time>
      </trkpt>
      <trkpt lat="46.78222" lon="0.48825">
        <ele>75.1</ele>
        <time>2020-07-03T16:45:04Z</time>
      </trkpt>
      <trkpt lat="46.78219" lon="0.48821">
        <ele>75.2</ele>
        <time>2020-07-03T16:45:05Z</time>
      </trkpt>
      <trkpt lat="46.78215" lon="0.48817">
        <ele>75.3</ele>
        <time>2020-07-03T16:45:06Z</time>
      </trkpt>
      <trkpt lat="46.78211" lon="0.48811">
        <ele>75.4</ele>
        <time>2020-07-03T16:45:07Z</time>
      </trkpt>
      <trkpt lat="46.78206" lon="0.48805">
        <ele>75.5</ele>
        <time>2020-07-03T16:45:08Z</time>
      </trkpt>
      <trkpt lat="46.78203" lon="0.48801">
        <ele>75.6</ele>
        <time>2020-07-03T16:45:09Z</time>
      </trkpt>
      <trkpt lat="46.782" lon="0.48795">
        <ele>75.7</ele>
        <time>2020-07-03T16:45:10Z</time>
      </trkpt>
      <trkpt lat="46.78195" lon="0.48788">
        <ele>75.8</ele>
        <time>2020-07-03T16:45:11Z</time>
      </trkpt>
      <trkpt lat="46.7819" lon="0.48782">
        <ele>75.9</ele>
        <time>2020-07-03T16:45:12Z</time>
      </trkpt>
      <trkpt lat="46.78186" lon="0.48777">
        <ele>76</ele>
        <time>2020-07-03T16:45:13Z</time>
      </trkpt>
      <trkpt lat="46.78182" lon="0.48772">
        <ele>76.2</ele>
        <time>2020-07-03T16:45:14Z</time>
      </trkpt>
      <trkpt lat="46.78178" lon="0.48768">
        <ele>76.3</ele>
        <time>2020-07-03T16:45:15Z</time>
      </trkpt>
      <trkpt lat="46.78176" lon="0.48763">
        <ele>76.4</ele>
        <time>2020-07-03T16:45:16Z</time>
      </trkpt>
      <trkpt lat="46.78173" lon="0.48759">
        <ele>76.5</ele>
        <time>2020-07-03T16:45:17Z</time>
      </trkpt>
      <trkpt lat="46.7817" lon="0.48755">
        <ele>76.6</ele>
        <time>2020-07-03T16:45:18Z</time>
      </trkpt>
      <trkpt lat="46.78167" lon="0.48752">
        <ele>76.7</ele>
        <time>2020-07-03T16:45:19Z</time>
      </trkpt>
      <trkpt lat="46.78165" lon="0.48749">
        <ele>76.8</ele>
        <time>2020-07-03T16:45:20Z</time>
      </trkpt>
      <trkpt lat="46.78163" lon="0.48745">
        <ele>76.9</ele>
        <time>2020-07-03T16:45:21Z</time>
      </trkpt>
      <trkpt lat="46.7816" lon="0.48741">
        <ele>77</ele>
        <time>2020-07-03T16:45:22Z</time>
      </trkpt>
      <trkpt lat="46.78158" lon="0.48737">
        <ele>77.1</ele>
        <time>2020-07-03T16:45:23Z</time>
      </trkpt>
      <trkpt lat="46.78155" lon="0.48733">
        <ele>77.2</ele>
        <time>2020-07-03T16:45:24Z</time>
      </trkpt>
      <trkpt lat="46.78152" lon="0.48729">
        <ele>77.4</ele>
        <time>2020-07-03T16:45:25Z</time>
      </trkpt>
      <trkpt lat="46.78146" lon="0.48727">
        <ele>77.5</ele>
        <time>2020-07-03T16:45:26Z</time>
      </trkpt>
      <trkpt lat="46.78143" lon="0.4872">
        <ele>77.7</ele>
        <time>2020-07-03T16:45:27Z</time>
      </trkpt>
      <trkpt lat="46.78141" lon="0.48716">
        <ele>77.8</ele>
        <time>2020-07-03T16:45:28Z</time>
      </trkpt>
      <trkpt lat="46.78139" lon="0.48711">
        <ele>77.9</ele>
        <time>2020-07-03T16:45:29Z</time>
      </trkpt>
      <trkpt lat="46.78136" lon="0.48705">
        <ele>78</ele>
        <time>2020-07-03T16:45:30Z</time>
      </trkpt>
      <trkpt lat="46.78134" lon="0.48701">
        <ele>78.1</ele>
        <time>2020-07-03T16:45:31Z</time>
      </trkpt>
      <trkpt lat="46.78131" lon="0.48697">
        <ele>78.2</ele>
        <time>2020-07-03T16:45:32Z</time>
      </trkpt>
      <trkpt lat="46.78128" lon="0.48692">
        <ele>78.3</ele>
        <time>2020-07-03T16:45:33Z</time>
      </trkpt>
      <trkpt lat="46.78126" lon="0.48689">
        <ele>78.4</ele>
        <time>2020-07-03T16:45:34Z</time>
      </trkpt>
      <trkpt lat="46.78124" lon="0.48685">
        <ele>78.5</ele>
        <time>2020-07-03T16:45:35Z</time>
      </trkpt>
      <trkpt lat="46.78122" lon="0.4868">
        <ele>78.6</ele>
        <time>2020-07-03T16:45:36Z</time>
      </trkpt>
      <trkpt lat="46.78118" lon="0.48676">
        <ele>78.7</ele>
        <time>2020-07-03T16:45:37Z</time>
      </trkpt>
      <trkpt lat="46.78114" lon="0.48671">
        <ele>78.8</ele>
        <time>2020-07-03T16:45:38Z</time>
      </trkpt>
      <trkpt lat="46.78111" lon="0.48666">
        <ele>79</ele>
        <time>2020-07-03T16:45:39Z</time>
      </trkpt>
      <trkpt lat="46.78108" lon="0.48661">
        <ele>79.1</ele>
        <time>2020-07-03T16:45:40Z</time>
      </trkpt>
      <trkpt lat="46.78107" lon="0.48658">
        <ele>79.2</ele>
        <time>2020-07-03T16:45:41Z</time>
      </trkpt>
      <trkpt lat="46.78104" lon="0.48653">
        <ele>79.3</ele>
        <time>2020-07-03T16:45:42Z</time>
      </trkpt>
      <trkpt lat="46.78101" lon="0.48649">
        <ele>79.5</ele>
        <time>2020-07-03T16:45:43Z</time>
      </trkpt>
      <trkpt lat="46.78098" lon="0.48645">
        <ele>79.6</ele>
        <time>2020-07-03T16:45:44Z</time>
      </trkpt>
      <trkpt lat="46.78095" lon="0.48642">
        <ele>79.7</ele>
        <time>2020-07-03T16:45:45Z</time>
      </trkpt>
      <trkpt lat="46.78092" lon="0.48639">
        <ele>79.8</ele>
        <time>2020-07-03T16:45:46Z</time>
      </trkpt>
      <trkpt lat="46.78091" lon="0.48634">
        <ele>79.9</ele>
        <time>2020-07-03T16:45:47Z</time>
      </trkpt>
      <trkpt lat="46.7809" lon="0.48632">
        <ele>80</ele>
        <time>2020-07-03T16:45:48Z</time>
      </trkpt>
      <trkpt lat="46.78088" lon="0.48628">
        <ele>80.1</ele>
        <time>2020-07-03T16:45:49Z</time>
      </trkpt>
      <trkpt lat="46.78087" lon="0.48626">
        <ele>80.2</ele>
        <time>2020-07-03T16:45:50Z</time>
      </trkpt>
      <trkpt lat="46.78086" lon="0.48624">
        <ele>80.2</ele>
        <time>2020-07-03T16:45:51Z</time>
      </trkpt>
      <trkpt lat="46.78086" lon="0.48624">
        <ele>80.2</ele>
        <time>2020-07-03T16:45:52Z</time>
      </trkpt>
      <trkpt lat="46.78086" lon="0.48623">
        <ele>80.2</ele>
        <time>2020-07-03T16:45:53Z</time>
      </trkpt>
      <trkpt lat="46.78086" lon="0.48623">
        <ele>80.2</ele>
        <time>2020-07-03T16:45:54Z</time>
      </trkpt>
      <trkpt lat="46.78085" lon="0.48623">
        <ele>80.2</ele>
        <time>2020-07-03T16:45:55Z</time>
      </trkpt>
      <trkpt lat="46.78085" lon="0.48622">
        <ele>80.3</ele>
        <time>2020-07-03T16:45:56Z</time>
      </trkpt>
      <trkpt lat="46.78085" lon="0.48622">
        <ele>80.3</ele>
        <time>2020-07-03T16:45:57Z</time>
      </trkpt>
      <trkpt lat="46.78085" lon="0.48621">
        <ele>80.3</ele>
        <time>2020-07-03T16:45:58Z</time>
      </trkpt>
      <trkpt lat="46.78083" lon="0.48619">
        <ele>80.4</ele>
        <time>2020-07-03T16:45:59Z</time>
      </trkpt>
      <trkpt lat="46.78082" lon="0.48619">
        <ele>80.4</ele>
        <time>2020-07-03T16:46:00Z</time>
      </trkpt>
      <trkpt lat="46.78082" lon="0.48619">
        <ele>80.4</ele>
        <time>2020-07-03T16:46:01Z</time>
      </trkpt>
      <trkpt lat="46.7808" lon="0.48619">
        <ele>80.4</ele>
        <time>2020-07-03T16:46:02Z</time>
      </trkpt>
      <trkpt lat="46.78079" lon="0.48619">
        <ele>80.5</ele>
        <time>2020-07-03T16:46:03Z</time>
      </trkpt>
      <trkpt lat="46.78076" lon="0.4862">
        <ele>80.5</ele>
        <time>2020-07-03T16:46:04Z</time>
      </trkpt>
      <trkpt lat="46.78075" lon="0.48621">
        <ele>80.5</ele>
        <time>2020-07-03T16:46:05Z</time>
      </trkpt>
      <trkpt lat="46.78072" lon="0.48619">
        <ele>80.5</ele>
        <time>2020-07-03T16:46:06Z</time>
      </trkpt>
      <trkpt lat="46.78071" lon="0.48618">
        <ele>80.6</ele>
        <time>2020-07-03T16:46:07Z</time>
      </trkpt>
      <trkpt lat="46.78068" lon="0.48616">
        <ele>80.6</ele>
        <time>2020-07-03T16:46:08Z</time>
      </trkpt>
      <trkpt lat="46.78067" lon="0.48616">
        <ele>80.7</ele>
        <time>2020-07-03T16:46:09Z</time>
      </trkpt>
      <trkpt lat="46.78064" lon="0.48614">
        <ele>80.7</ele>
        <time>2020-07-03T16:46:10Z</time>
      </trkpt>
      <trkpt lat="46.78061" lon="0.48612">
        <ele>80.8</ele>
        <time>2020-07-03T16:46:11Z</time>
      </trkpt>
      <trkpt lat="46.78058" lon="0.48609">
        <ele>80.9</ele>
        <time>2020-07-03T16:46:12Z</time>
      </trkpt>
      <trkpt lat="46.78054" lon="0.48608">
        <ele>80.9</ele>
        <time>2020-07-03T16:46:13Z</time>
      </trkpt>
      <trkpt lat="46.7805" lon="0.48607">
        <ele>80.9</ele>
        <time>2020-07-03T16:46:14Z</time>
      </trkpt>
      <trkpt lat="46.78047" lon="0.48606">
        <ele>81</ele>
        <time>2020-07-03T16:46:15Z</time>
      </trkpt>
      <trkpt lat="46.78044" lon="0.48604">
        <ele>81</ele>
        <time>2020-07-03T16:46:16Z</time>
      </trkpt>
      <trkpt lat="46.78042" lon="0.48602">
        <ele>81</ele>
        <time>2020-07-03T16:46:17Z</time>
      </trkpt>
      <trkpt lat="46.78039" lon="0.486">
        <ele>81</ele>
        <time>2020-07-03T16:46:18Z</time>
      </trkpt>
      <trkpt lat="46.78034" lon="0.48597">
        <ele>81</ele>
        <time>2020-07-03T16:46:19Z</time>
      </trkpt>
      <trkpt lat="46.78029" lon="0.48594">
        <ele>81</ele>
        <time>2020-07-03T16:46:20Z</time>
      </trkpt>
      <trkpt lat="46.78025" lon="0.48592">
        <ele>81.1</ele>
        <time>2020-07-03T16:46:21Z</time>
      </trkpt>
      <trkpt lat="46.7802" lon="0.48589">
        <ele>81.1</ele>
        <time>2020-07-03T16:46:22Z</time>
      </trkpt>
      <trkpt lat="46.78014" lon="0.48587">
        <ele>81</ele>
        <time>2020-07-03T16:46:23Z</time>
      </trkpt>
      <trkpt lat="46.78009" lon="0.48584">
        <ele>81</ele>
        <time>2020-07-03T16:46:24Z</time>
      </trkpt>
      <trkpt lat="46.78005" lon="0.4858">
        <ele>81</ele>
        <time>2020-07-03T16:46:25Z</time>
      </trkpt>
      <trkpt lat="46.78001" lon="0.48576">
        <ele>81</ele>
        <time>2020-07-03T16:46:26Z</time>
      </trkpt>
      <trkpt lat="46.77995" lon="0.48573">
        <ele>81</ele>
        <time>2020-07-03T16:46:27Z</time>
      </trkpt>
      <trkpt lat="46.77991" lon="0.48569">
        <ele>81</ele>
        <time>2020-07-03T16:46:28Z</time>
      </trkpt>
      <trkpt lat="46.77986" lon="0.48566">
        <ele>80.9</ele>
        <time>2020-07-03T16:46:29Z</time>
      </trkpt>
      <trkpt lat="46.7798" lon="0.48563">
        <ele>80.9</ele>
        <time>2020-07-03T16:46:30Z</time>
      </trkpt>
      <trkpt lat="46.77976" lon="0.48559">
        <ele>80.9</ele>
        <time>2020-07-03T16:46:31Z</time>
      </trkpt>
      <trkpt lat="46.77972" lon="0.48556">
        <ele>80.9</ele>
        <time>2020-07-03T16:46:32Z</time>
      </trkpt>
      <trkpt lat="46.77968" lon="0.48554">
        <ele>80.9</ele>
        <time>2020-07-03T16:46:33Z</time>
      </trkpt>
      <trkpt lat="46.77963" lon="0.48551">
        <ele>80.9</ele>
        <time>2020-07-03T16:46:34Z</time>
      </trkpt>
      <trkpt lat="46.77959" lon="0.48549">
        <ele>80.9</ele>
        <time>2020-07-03T16:46:35Z</time>
      </trkpt>
      <trkpt lat="46.77956" lon="0.48546">
        <ele>80.9</ele>
        <time>2020-07-03T16:46:36Z</time>
      </trkpt>
      <trkpt lat="46.77952" lon="0.48545">
        <ele>81</ele>
        <time>2020-07-03T16:46:37Z</time>
      </trkpt>
      <trkpt lat="46.77948" lon="0.48542">
        <ele>81</ele>
        <time>2020-07-03T16:46:38Z</time>
      </trkpt>
      <trkpt lat="46.77945" lon="0.48539">
        <ele>81</ele>
        <time>2020-07-03T16:46:39Z</time>
      </trkpt>
      <trkpt lat="46.7794" lon="0.48537">
        <ele>81</ele>
        <time>2020-07-03T16:46:40Z</time>
      </trkpt>
      <trkpt lat="46.77936" lon="0.48534">
        <ele>81</ele>
        <time>2020-07-03T16:46:41Z</time>
      </trkpt>
      <trkpt lat="46.77929" lon="0.48532">
        <ele>80.9</ele>
        <time>2020-07-03T16:46:42Z</time>
      </trkpt>
      <trkpt lat="46.77925" lon="0.48529">
        <ele>80.8</ele>
        <time>2020-07-03T16:46:43Z</time>
      </trkpt>
      <trkpt lat="46.7792" lon="0.48527">
        <ele>80.8</ele>
        <time>2020-07-03T16:46:44Z</time>
      </trkpt>
      <trkpt lat="46.77914" lon="0.48523">
        <ele>80.7</ele>
        <time>2020-07-03T16:46:45Z</time>
      </trkpt>
      <trkpt lat="46.77909" lon="0.48519">
        <ele>80.6</ele>
        <time>2020-07-03T16:46:46Z</time>
      </trkpt>
      <trkpt lat="46.77905" lon="0.48516">
        <ele>80.6</ele>
        <time>2020-07-03T16:46:47Z</time>
      </trkpt>
      <trkpt lat="46.77899" lon="0.48513">
        <ele>80.5</ele>
        <time>2020-07-03T16:46:48Z</time>
      </trkpt>
      <trkpt lat="46.77894" lon="0.4851">
        <ele>80.5</ele>
        <time>2020-07-03T16:46:49Z</time>
      </trkpt>
      <trkpt lat="46.77888" lon="0.48506">
        <ele>80.4</ele>
        <time>2020-07-03T16:46:50Z</time>
      </trkpt>
      <trkpt lat="46.77883" lon="0.48501">
        <ele>80.3</ele>
        <time>2020-07-03T16:46:51Z</time>
      </trkpt>
      <trkpt lat="46.77876" lon="0.48496">
        <ele>80.1</ele>
        <time>2020-07-03T16:46:52Z</time>
      </trkpt>
      <trkpt lat="46.77871" lon="0.48491">
        <ele>80</ele>
        <time>2020-07-03T16:46:53Z</time>
      </trkpt>
      <trkpt lat="46.77865" lon="0.48487">
        <ele>79.9</ele>
        <time>2020-07-03T16:46:54Z</time>
      </trkpt>
      <trkpt lat="46.77859" lon="0.48485">
        <ele>79.8</ele>
        <time>2020-07-03T16:46:55Z</time>
      </trkpt>
      <trkpt lat="46.77853" lon="0.48482">
        <ele>79.8</ele>
        <time>2020-07-03T16:46:56Z</time>
      </trkpt>
      <trkpt lat="46.77847" lon="0.48479">
        <ele>79.7</ele>
        <time>2020-07-03T16:46:57Z</time>
      </trkpt>
      <trkpt lat="46.7784" lon="0.48476">
        <ele>79.6</ele>
        <time>2020-07-03T16:46:58Z</time>
      </trkpt>
      <trkpt lat="46.77835" lon="0.48475">
        <ele>79.5</ele>
        <time>2020-07-03T16:46:59Z</time>
      </trkpt>
      <trkpt lat="46.77828" lon="0.48473">
        <ele>79.4</ele>
        <time>2020-07-03T16:47:00Z</time>
      </trkpt>
      <trkpt lat="46.77823" lon="0.48468">
        <ele>79.3</ele>
        <time>2020-07-03T16:47:01Z</time>
      </trkpt>
      <trkpt lat="46.77817" lon="0.48464">
        <ele>79.3</ele>
        <time>2020-07-03T16:47:02Z</time>
      </trkpt>
      <trkpt lat="46.77812" lon="0.48459">
        <ele>79.2</ele>
        <time>2020-07-03T16:47:03Z</time>
      </trkpt>
      <trkpt lat="46.77807" lon="0.48455">
        <ele>79.2</ele>
        <time>2020-07-03T16:47:04Z</time>
      </trkpt>
      <trkpt lat="46.77801" lon="0.48451">
        <ele>79.2</ele>
        <time>2020-07-03T16:47:05Z</time>
      </trkpt>
      <trkpt lat="46.77795" lon="0.48449">
        <ele>79.2</ele>
        <time>2020-07-03T16:47:06Z</time>
      </trkpt>
      <trkpt lat="46.7779" lon="0.48446">
        <ele>79.2</ele>
        <time>2020-07-03T16:47:07Z</time>
      </trkpt>
      <trkpt lat="46.77785" lon="0.48442">
        <ele>79.2</ele>
        <time>2020-07-03T16:47:08Z</time>
      </trkpt>
      <trkpt lat="46.77782" lon="0.4844">
        <ele>79.2</ele>
        <time>2020-07-03T16:47:09Z</time>
      </trkpt>
      <trkpt lat="46.77778" lon="0.48438">
        <ele>79.2</ele>
        <time>2020-07-03T16:47:10Z</time>
      </trkpt>
      <trkpt lat="46.77774" lon="0.48436">
        <ele>79.2</ele>
        <time>2020-07-03T16:47:11Z</time>
      </trkpt>
      <trkpt lat="46.7777" lon="0.48433">
        <ele>79.2</ele>
        <time>2020-07-03T16:47:12Z</time>
      </trkpt>
      <trkpt lat="46.77769" lon="0.48433">
        <ele>79.2</ele>
        <time>2020-07-03T16:47:13Z</time>
      </trkpt>
      <trkpt lat="46.77764" lon="0.4843">
        <ele>79.2</ele>
        <time>2020-07-03T16:47:14Z</time>
      </trkpt>
      <trkpt lat="46.77761" lon="0.48426">
        <ele>79.2</ele>
        <time>2020-07-03T16:47:15Z</time>
      </trkpt>
      <trkpt lat="46.77756" lon="0.48421">
        <ele>79.1</ele>
        <time>2020-07-03T16:47:16Z</time>
      </trkpt>
      <trkpt lat="46.77751" lon="0.48418">
        <ele>79.1</ele>
        <time>2020-07-03T16:47:17Z</time>
      </trkpt>
      <trkpt lat="46.77747" lon="0.48415">
        <ele>79.1</ele>
        <time>2020-07-03T16:47:18Z</time>
      </trkpt>
      <trkpt lat="46.77741" lon="0.48414">
        <ele>79</ele>
        <time>2020-07-03T16:47:19Z</time>
      </trkpt>
      <trkpt lat="46.77736" lon="0.48413">
        <ele>78.9</ele>
        <time>2020-07-03T16:47:20Z</time>
      </trkpt>
      <trkpt lat="46.77731" lon="0.48414">
        <ele>78.9</ele>
        <time>2020-07-03T16:47:21Z</time>
      </trkpt>
      <trkpt lat="46.77726" lon="0.48413">
        <ele>78.8</ele>
        <time>2020-07-03T16:47:22Z</time>
      </trkpt>
      <trkpt lat="46.77721" lon="0.48411">
        <ele>78.7</ele>
        <time>2020-07-03T16:47:23Z</time>
      </trkpt>
      <trkpt lat="46.77716" lon="0.48409">
        <ele>78.7</ele>
        <time>2020-07-03T16:47:24Z</time>
      </trkpt>
      <trkpt lat="46.77711" lon="0.48408">
        <ele>78.7</ele>
        <time>2020-07-03T16:47:25Z</time>
      </trkpt>
      <trkpt lat="46.77704" lon="0.48406">
        <ele>78.7</ele>
        <time>2020-07-03T16:47:26Z</time>
      </trkpt>
      <trkpt lat="46.77699" lon="0.48405">
        <ele>78.7</ele>
        <time>2020-07-03T16:47:27Z</time>
      </trkpt>
      <trkpt lat="46.77694" lon="0.48405">
        <ele>78.7</ele>
        <time>2020-07-03T16:47:28Z</time>
      </trkpt>
      <trkpt lat="46.77688" lon="0.48407">
        <ele>78.7</ele>
        <time>2020-07-03T16:47:29Z</time>
      </trkpt>
      <trkpt lat="46.77683" lon="0.48406">
        <ele>78.7</ele>
        <time>2020-07-03T16:47:30Z</time>
      </trkpt>
      <trkpt lat="46.77678" lon="0.48405">
        <ele>78.7</ele>
        <time>2020-07-03T16:47:31Z</time>
      </trkpt>
      <trkpt lat="46.77673" lon="0.48403">
        <ele>78.7</ele>
        <time>2020-07-03T16:47:32Z</time>
      </trkpt>
      <trkpt lat="46.77668" lon="0.484">
        <ele>78.6</ele>
        <time>2020-07-03T16:47:33Z</time>
      </trkpt>
      <trkpt lat="46.77662" lon="0.48397">
        <ele>78.6</ele>
        <time>2020-07-03T16:47:34Z</time>
      </trkpt>
      <trkpt lat="46.77657" lon="0.48394">
        <ele>78.5</ele>
        <time>2020-07-03T16:47:35Z</time>
      </trkpt>
      <trkpt lat="46.77651" lon="0.48391">
        <ele>78.5</ele>
        <time>2020-07-03T16:47:36Z</time>
      </trkpt>
      <trkpt lat="46.77646" lon="0.48387">
        <ele>78.5</ele>
        <time>2020-07-03T16:47:37Z</time>
      </trkpt>
      <trkpt lat="46.7764" lon="0.48384">
        <ele>78.5</ele>
        <time>2020-07-03T16:47:38Z</time>
      </trkpt>
      <trkpt lat="46.77635" lon="0.48379">
        <ele>78.4</ele>
        <time>2020-07-03T16:47:39Z</time>
      </trkpt>
      <trkpt lat="46.7763" lon="0.48376">
        <ele>78.4</ele>
        <time>2020-07-03T16:47:40Z</time>
      </trkpt>
      <trkpt lat="46.77625" lon="0.48373">
        <ele>78.4</ele>
        <time>2020-07-03T16:47:41Z</time>
      </trkpt>
      <trkpt lat="46.77621" lon="0.48369">
        <ele>78.4</ele>
        <time>2020-07-03T16:47:42Z</time>
      </trkpt>
      <trkpt lat="46.77616" lon="0.48366">
        <ele>78.3</ele>
        <time>2020-07-03T16:47:43Z</time>
      </trkpt>
      <trkpt lat="46.77611" lon="0.48362">
        <ele>78.3</ele>
        <time>2020-07-03T16:47:44Z</time>
      </trkpt>
      <trkpt lat="46.77605" lon="0.4836">
        <ele>78.3</ele>
        <time>2020-07-03T16:47:45Z</time>
      </trkpt>
      <trkpt lat="46.77601" lon="0.48358">
        <ele>78.2</ele>
        <time>2020-07-03T16:47:46Z</time>
      </trkpt>
      <trkpt lat="46.77596" lon="0.48355">
        <ele>78.2</ele>
        <time>2020-07-03T16:47:47Z</time>
      </trkpt>
      <trkpt lat="46.77591" lon="0.48352">
        <ele>78.2</ele>
        <time>2020-07-03T16:47:48Z</time>
      </trkpt>
      <trkpt lat="46.77587" lon="0.4835">
        <ele>78.1</ele>
        <time>2020-07-03T16:47:49Z</time>
      </trkpt>
      <trkpt lat="46.77582" lon="0.48347">
        <ele>78.1</ele>
        <time>2020-07-03T16:47:50Z</time>
      </trkpt>
      <trkpt lat="46.77576" lon="0.48344">
        <ele>78</ele>
        <time>2020-07-03T16:47:51Z</time>
      </trkpt>
      <trkpt lat="46.77571" lon="0.48341">
        <ele>77.9</ele>
        <time>2020-07-03T16:47:52Z</time>
      </trkpt>
      <trkpt lat="46.77565" lon="0.48338">
        <ele>77.8</ele>
        <time>2020-07-03T16:47:53Z</time>
      </trkpt>
      <trkpt lat="46.7756" lon="0.48336">
        <ele>77.7</ele>
        <time>2020-07-03T16:47:54Z</time>
      </trkpt>
      <trkpt lat="46.77556" lon="0.48334">
        <ele>77.6</ele>
        <time>2020-07-03T16:47:55Z</time>
      </trkpt>
      <trkpt lat="46.77551" lon="0.48331">
        <ele>77.5</ele>
        <time>2020-07-03T16:47:56Z</time>
      </trkpt>
      <trkpt lat="46.77545" lon="0.4833">
        <ele>77.4</ele>
        <time>2020-07-03T16:47:57Z</time>
      </trkpt>
      <trkpt lat="46.7754" lon="0.48327">
        <ele>77.3</ele>
        <time>2020-07-03T16:47:58Z</time>
      </trkpt>
      <trkpt lat="46.77533" lon="0.48325">
        <ele>77.2</ele>
        <time>2020-07-03T16:47:59Z</time>
      </trkpt>
      <trkpt lat="46.77527" lon="0.48324">
        <ele>77</ele>
        <time>2020-07-03T16:48:00Z</time>
      </trkpt>
      <trkpt lat="46.7752" lon="0.48322">
        <ele>76.9</ele>
        <time>2020-07-03T16:48:01Z</time>
      </trkpt>
      <trkpt lat="46.77513" lon="0.48319">
        <ele>76.7</ele>
        <time>2020-07-03T16:48:02Z</time>
      </trkpt>
      <trkpt lat="46.77507" lon="0.48317">
        <ele>76.6</ele>
        <time>2020-07-03T16:48:03Z</time>
      </trkpt>
      <trkpt lat="46.775" lon="0.48315">
        <ele>76.5</ele>
        <time>2020-07-03T16:48:04Z</time>
      </trkpt>
      <trkpt lat="46.77493" lon="0.48314">
        <ele>76.4</ele>
        <time>2020-07-03T16:48:05Z</time>
      </trkpt>
      <trkpt lat="46.77487" lon="0.48311">
        <ele>76.3</ele>
        <time>2020-07-03T16:48:06Z</time>
      </trkpt>
      <trkpt lat="46.7748" lon="0.48309">
        <ele>76.2</ele>
        <time>2020-07-03T16:48:07Z</time>
      </trkpt>
      <trkpt lat="46.77473" lon="0.48307">
        <ele>76.1</ele>
        <time>2020-07-03T16:48:08Z</time>
      </trkpt>
      <trkpt lat="46.77467" lon="0.48305">
        <ele>76</ele>
        <time>2020-07-03T16:48:09Z</time>
      </trkpt>
      <trkpt lat="46.77462" lon="0.48303">
        <ele>76</ele>
        <time>2020-07-03T16:48:10Z</time>
      </trkpt>
      <trkpt lat="46.77457" lon="0.48301">
        <ele>76</ele>
        <time>2020-07-03T16:48:11Z</time>
      </trkpt>
      <trkpt lat="46.77451" lon="0.483">
        <ele>76</ele>
        <time>2020-07-03T16:48:12Z</time>
      </trkpt>
      <trkpt lat="46.77445" lon="0.48298">
        <ele>76</ele>
        <time>2020-07-03T16:48:13Z</time>
      </trkpt>
      <trkpt lat="46.77439" lon="0.48296">
        <ele>76</ele>
        <time>2020-07-03T16:48:14Z</time>
      </trkpt>
      <trkpt lat="46.77434" lon="0.48293">
        <ele>76.1</ele>
        <time>2020-07-03T16:48:15Z</time>
      </trkpt>
      <trkpt lat="46.77427" lon="0.48292">
        <ele>76.1</ele>
        <time>2020-07-03T16:48:16Z</time>
      </trkpt>
      <trkpt lat="46.77422" lon="0.4829">
        <ele>76.2</ele>
        <time>2020-07-03T16:48:17Z</time>
      </trkpt>
      <trkpt lat="46.77417" lon="0.48288">
        <ele>76.3</ele>
        <time>2020-07-03T16:48:18Z</time>
      </trkpt>
      <trkpt lat="46.77412" lon="0.48287">
        <ele>76.3</ele>
        <time>2020-07-03T16:48:19Z</time>
      </trkpt>
      <trkpt lat="46.77408" lon="0.48286">
        <ele>76.4</ele>
        <time>2020-07-03T16:48:20Z</time>
      </trkpt>
      <trkpt lat="46.77404" lon="0.48284">
        <ele>76.5</ele>
        <time>2020-07-03T16:48:21Z</time>
      </trkpt>
      <trkpt lat="46.77401" lon="0.48283">
        <ele>76.6</ele>
        <time>2020-07-03T16:48:22Z</time>
      </trkpt>
      <trkpt lat="46.77397" lon="0.48283">
        <ele>76.7</ele>
        <time>2020-07-03T16:48:23Z</time>
      </trkpt>
      <trkpt lat="46.77393" lon="0.48281">
        <ele>76.7</ele>
        <time>2020-07-03T16:48:24Z</time>
      </trkpt>
      <trkpt lat="46.77391" lon="0.4828">
        <ele>76.8</ele>
        <time>2020-07-03T16:48:25Z</time>
      </trkpt>
      <trkpt lat="46.77389" lon="0.48279">
        <ele>76.8</ele>
        <time>2020-07-03T16:48:26Z</time>
      </trkpt>
      <trkpt lat="46.77389" lon="0.48279">
        <ele>76.8</ele>
        <time>2020-07-03T16:48:27Z</time>
      </trkpt>
      <trkpt lat="46.77389" lon="0.48279">
        <ele>76.9</ele>
        <time>2020-07-03T16:48:28Z</time>
      </trkpt>
      <trkpt lat="46.77389" lon="0.48279">
        <ele>76.9</ele>
        <time>2020-07-03T16:48:29Z</time>
      </trkpt>
      <trkpt lat="46.77389" lon="0.4828">
        <ele>76.9</ele>
        <time>2020-07-03T16:48:30Z</time>
      </trkpt>
      <trkpt lat="46.77388" lon="0.48279">
        <ele>76.9</ele>
        <time>2020-07-03T16:48:31Z</time>
      </trkpt>
      <trkpt lat="46.77388" lon="0.48279">
        <ele>76.9</ele>
        <time>2020-07-03T16:48:32Z</time>
      </trkpt>
      <trkpt lat="46.77387" lon="0.48278">
        <ele>76.9</ele>
        <time>2020-07-03T16:48:33Z</time>
      </trkpt>
      <trkpt lat="46.77386" lon="0.48278">
        <ele>76.9</ele>
        <time>2020-07-03T16:48:34Z</time>
      </trkpt>
      <trkpt lat="46.77385" lon="0.48277">
        <ele>77</ele>
        <time>2020-07-03T16:48:35Z</time>
      </trkpt>
      <trkpt lat="46.77385" lon="0.48277">
        <ele>77</ele>
        <time>2020-07-03T16:48:36Z</time>
      </trkpt>
      <trkpt lat="46.77384" lon="0.48276">
        <ele>77</ele>
        <time>2020-07-03T16:48:37Z</time>
      </trkpt>
      <trkpt lat="46.77383" lon="0.48276">
        <ele>77</ele>
        <time>2020-07-03T16:48:38Z</time>
      </trkpt>
      <trkpt lat="46.77383" lon="0.48276">
        <ele>77</ele>
        <time>2020-07-03T16:48:39Z</time>
      </trkpt>
      <trkpt lat="46.77382" lon="0.48275">
        <ele>77</ele>
        <time>2020-07-03T16:48:56Z</time>
      </trkpt>
      <trkpt lat="46.77381" lon="0.48275">
        <ele>77.1</ele>
        <time>2020-07-03T16:48:57Z</time>
      </trkpt>
      <trkpt lat="46.77378" lon="0.48274">
        <ele>77.1</ele>
        <time>2020-07-03T16:48:58Z</time>
      </trkpt>
      <trkpt lat="46.77377" lon="0.48274">
        <ele>77.1</ele>
        <time>2020-07-03T16:48:59Z</time>
      </trkpt>
      <trkpt lat="46.77373" lon="0.48274">
        <ele>77.2</ele>
        <time>2020-07-03T16:49:00Z</time>
      </trkpt>
      <trkpt lat="46.77371" lon="0.48275">
        <ele>77.2</ele>
        <time>2020-07-03T16:49:01Z</time>
      </trkpt>
      <trkpt lat="46.77369" lon="0.48273">
        <ele>77.3</ele>
        <time>2020-07-03T16:49:02Z</time>
      </trkpt>
      <trkpt lat="46.77366" lon="0.48271">
        <ele>77.3</ele>
        <time>2020-07-03T16:49:03Z</time>
      </trkpt>
      <trkpt lat="46.77363" lon="0.4827">
        <ele>77.3</ele>
        <time>2020-07-03T16:49:04Z</time>
      </trkpt>
      <trkpt lat="46.7736" lon="0.4827">
        <ele>77.4</ele>
        <time>2020-07-03T16:49:05Z</time>
      </trkpt>
      <trkpt lat="46.77356" lon="0.48269">
        <ele>77.4</ele>
        <time>2020-07-03T16:49:06Z</time>
      </trkpt>
      <trkpt lat="46.77355" lon="0.48269">
        <ele>77.4</ele>
        <time>2020-07-03T16:49:07Z</time>
      </trkpt>
      <trkpt lat="46.77351" lon="0.48268">
        <ele>77.4</ele>
        <time>2020-07-03T16:49:08Z</time>
      </trkpt>
      <trkpt lat="46.77349" lon="0.48268">
        <ele>77.4</ele>
        <time>2020-07-03T16:49:09Z</time>
      </trkpt>
      <trkpt lat="46.77346" lon="0.48264">
        <ele>77.4</ele>
        <time>2020-07-03T16:49:10Z</time>
      </trkpt>
      <trkpt lat="46.77342" lon="0.48262">
        <ele>77.4</ele>
        <time>2020-07-03T16:49:11Z</time>
      </trkpt>
      <trkpt lat="46.77339" lon="0.4826">
        <ele>77.4</ele>
        <time>2020-07-03T16:49:12Z</time>
      </trkpt>
      <trkpt lat="46.77336" lon="0.48259">
        <ele>77.4</ele>
        <time>2020-07-03T16:49:13Z</time>
      </trkpt>
      <trkpt lat="46.77332" lon="0.4826">
        <ele>77.4</ele>
        <time>2020-07-03T16:49:14Z</time>
      </trkpt>
      <trkpt lat="46.77328" lon="0.48261">
        <ele>77.4</ele>
        <time>2020-07-03T16:49:15Z</time>
      </trkpt>
      <trkpt lat="46.77324" lon="0.48264">
        <ele>77.3</ele>
        <time>2020-07-03T16:49:16Z</time>
      </trkpt>
      <trkpt lat="46.77318" lon="0.48266">
        <ele>77.3</ele>
        <time>2020-07-03T16:49:17Z</time>
      </trkpt>
      <trkpt lat="46.77314" lon="0.48265">
        <ele>77.2</ele>
        <time>2020-07-03T16:49:18Z</time>
      </trkpt>
      <trkpt lat="46.77309" lon="0.48264">
        <ele>77.2</ele>
        <time>2020-07-03T16:49:19Z</time>
      </trkpt>
      <trkpt lat="46.77303" lon="0.48263">
        <ele>77.1</ele>
        <time>2020-07-03T16:49:20Z</time>
      </trkpt>
      <trkpt lat="46.77298" lon="0.48263">
        <ele>77</ele>
        <time>2020-07-03T16:49:21Z</time>
      </trkpt>
      <trkpt lat="46.77291" lon="0.48263">
        <ele>76.8</ele>
        <time>2020-07-03T16:49:22Z</time>
      </trkpt>
      <trkpt lat="46.77286" lon="0.48261">
        <ele>76.7</ele>
        <time>2020-07-03T16:49:23Z</time>
      </trkpt>
      <trkpt lat="46.77281" lon="0.4826">
        <ele>76.6</ele>
        <time>2020-07-03T16:49:24Z</time>
      </trkpt>
      <trkpt lat="46.77275" lon="0.48258">
        <ele>76.5</ele>
        <time>2020-07-03T16:49:25Z</time>
      </trkpt>
      <trkpt lat="46.77269" lon="0.48256">
        <ele>76.4</ele>
        <time>2020-07-03T16:49:26Z</time>
      </trkpt>
      <trkpt lat="46.77263" lon="0.48255">
        <ele>76.3</ele>
        <time>2020-07-03T16:49:27Z</time>
      </trkpt>
      <trkpt lat="46.77258" lon="0.48254">
        <ele>76.3</ele>
        <time>2020-07-03T16:49:28Z</time>
      </trkpt>
      <trkpt lat="46.77253" lon="0.48253">
        <ele>76.2</ele>
        <time>2020-07-03T16:49:29Z</time>
      </trkpt>
      <trkpt lat="46.77248" lon="0.48252">
        <ele>76.1</ele>
        <time>2020-07-03T16:49:30Z</time>
      </trkpt>
      <trkpt lat="46.77241" lon="0.48252">
        <ele>76.1</ele>
        <time>2020-07-03T16:49:31Z</time>
      </trkpt>
      <trkpt lat="46.77235" lon="0.48252">
        <ele>76.1</ele>
        <time>2020-07-03T16:49:32Z</time>
      </trkpt>
      <trkpt lat="46.77228" lon="0.48252">
        <ele>76.2</ele>
        <time>2020-07-03T16:49:33Z</time>
      </trkpt>
      <trkpt lat="46.7722" lon="0.48251">
        <ele>76.3</ele>
        <time>2020-07-03T16:49:34Z</time>
      </trkpt>
      <trkpt lat="46.77215" lon="0.48251">
        <ele>76.5</ele>
        <time>2020-07-03T16:49:35Z</time>
      </trkpt>
      <trkpt lat="46.77208" lon="0.48251">
        <ele>76.7</ele>
        <time>2020-07-03T16:49:36Z</time>
      </trkpt>
      <trkpt lat="46.77201" lon="0.48253">
        <ele>77</ele>
        <time>2020-07-03T16:49:37Z</time>
      </trkpt>
      <trkpt lat="46.77195" lon="0.48254">
        <ele>77.2</ele>
        <time>2020-07-03T16:49:38Z</time>
      </trkpt>
      <trkpt lat="46.77189" lon="0.48253">
        <ele>77.4</ele>
        <time>2020-07-03T16:49:39Z</time>
      </trkpt>
      <trkpt lat="46.77184" lon="0.48254">
        <ele>77.6</ele>
        <time>2020-07-03T16:49:40Z</time>
      </trkpt>
      <trkpt lat="46.77179" lon="0.48254">
        <ele>77.8</ele>
        <time>2020-07-03T16:49:41Z</time>
      </trkpt>
      <trkpt lat="46.77175" lon="0.48254">
        <ele>78</ele>
        <time>2020-07-03T16:49:42Z</time>
      </trkpt>
      <trkpt lat="46.77171" lon="0.48255">
        <ele>78.1</ele>
        <time>2020-07-03T16:49:43Z</time>
      </trkpt>
      <trkpt lat="46.77166" lon="0.48254">
        <ele>78.2</ele>
        <time>2020-07-03T16:49:44Z</time>
      </trkpt>
      <trkpt lat="46.77163" lon="0.48254">
        <ele>78.4</ele>
        <time>2020-07-03T16:49:45Z</time>
      </trkpt>
      <trkpt lat="46.77159" lon="0.48254">
        <ele>78.5</ele>
        <time>2020-07-03T16:49:46Z</time>
      </trkpt>
      <trkpt lat="46.77156" lon="0.48254">
        <ele>78.6</ele>
        <time>2020-07-03T16:49:47Z</time>
      </trkpt>
      <trkpt lat="46.77152" lon="0.48256">
        <ele>78.7</ele>
        <time>2020-07-03T16:49:48Z</time>
      </trkpt>
      <trkpt lat="46.77148" lon="0.48257">
        <ele>78.8</ele>
        <time>2020-07-03T16:49:49Z</time>
      </trkpt>
      <trkpt lat="46.77145" lon="0.48258">
        <ele>78.9</ele>
        <time>2020-07-03T16:49:50Z</time>
      </trkpt>
      <trkpt lat="46.77141" lon="0.48258">
        <ele>79</ele>
        <time>2020-07-03T16:49:51Z</time>
      </trkpt>
      <trkpt lat="46.77138" lon="0.48258">
        <ele>79</ele>
        <time>2020-07-03T16:49:52Z</time>
      </trkpt>
      <trkpt lat="46.77134" lon="0.48259">
        <ele>79.1</ele>
        <time>2020-07-03T16:49:53Z</time>
      </trkpt>
      <trkpt lat="46.77131" lon="0.48259">
        <ele>79.2</ele>
        <time>2020-07-03T16:49:54Z</time>
      </trkpt>
      <trkpt lat="46.77128" lon="0.48259">
        <ele>79.2</ele>
        <time>2020-07-03T16:49:55Z</time>
      </trkpt>
      <trkpt lat="46.77125" lon="0.48259">
        <ele>79.3</ele>
        <time>2020-07-03T16:49:56Z</time>
      </trkpt>
      <trkpt lat="46.77122" lon="0.48259">
        <ele>79.3</ele>
        <time>2020-07-03T16:49:57Z</time>
      </trkpt>
      <trkpt lat="46.77118" lon="0.48261">
        <ele>79.3</ele>
        <time>2020-07-03T16:49:58Z</time>
      </trkpt>
      <trkpt lat="46.77116" lon="0.48261">
        <ele>79.4</ele>
        <time>2020-07-03T16:49:59Z</time>
      </trkpt>
      <trkpt lat="46.77112" lon="0.48262">
        <ele>79.4</ele>
        <time>2020-07-03T16:50:00Z</time>
      </trkpt>
      <trkpt lat="46.77108" lon="0.48262">
        <ele>79.4</ele>
        <time>2020-07-03T16:50:01Z</time>
      </trkpt>
      <trkpt lat="46.77104" lon="0.48262">
        <ele>79.4</ele>
        <time>2020-07-03T16:50:02Z</time>
      </trkpt>
      <trkpt lat="46.771" lon="0.48262">
        <ele>79.4</ele>
        <time>2020-07-03T16:50:03Z</time>
      </trkpt>
      <trkpt lat="46.77095" lon="0.48263">
        <ele>79.4</ele>
        <time>2020-07-03T16:50:04Z</time>
      </trkpt>
      <trkpt lat="46.77091" lon="0.48262">
        <ele>79.4</ele>
        <time>2020-07-03T16:50:05Z</time>
      </trkpt>
      <trkpt lat="46.77088" lon="0.48263">
        <ele>79.4</ele>
        <time>2020-07-03T16:50:06Z</time>
      </trkpt>
      <trkpt lat="46.77085" lon="0.48264">
        <ele>79.4</ele>
        <time>2020-07-03T16:50:07Z</time>
      </trkpt>
      <trkpt lat="46.77082" lon="0.48265">
        <ele>79.4</ele>
        <time>2020-07-03T16:50:08Z</time>
      </trkpt>
      <trkpt lat="46.77078" lon="0.48266">
        <ele>79.4</ele>
        <time>2020-07-03T16:50:09Z</time>
      </trkpt>
      <trkpt lat="46.77072" lon="0.48266">
        <ele>79.4</ele>
        <time>2020-07-03T16:50:10Z</time>
      </trkpt>
      <trkpt lat="46.77067" lon="0.48266">
        <ele>79.3</ele>
        <time>2020-07-03T16:50:11Z</time>
      </trkpt>
      <trkpt lat="46.77062" lon="0.48266">
        <ele>79.3</ele>
        <time>2020-07-03T16:50:12Z</time>
      </trkpt>
      <trkpt lat="46.77058" lon="0.48264">
        <ele>79.2</ele>
        <time>2020-07-03T16:50:13Z</time>
      </trkpt>
      <trkpt lat="46.77053" lon="0.48264">
        <ele>79.1</ele>
        <time>2020-07-03T16:50:14Z</time>
      </trkpt>
      <trkpt lat="46.77049" lon="0.48264">
        <ele>79</ele>
        <time>2020-07-03T16:50:15Z</time>
      </trkpt>
      <trkpt lat="46.77045" lon="0.48265">
        <ele>78.9</ele>
        <time>2020-07-03T16:50:16Z</time>
      </trkpt>
      <trkpt lat="46.77038" lon="0.48264">
        <ele>78.8</ele>
        <time>2020-07-03T16:50:17Z</time>
      </trkpt>
      <trkpt lat="46.77033" lon="0.48264">
        <ele>78.7</ele>
        <time>2020-07-03T16:50:18Z</time>
      </trkpt>
      <trkpt lat="46.77024" lon="0.48264">
        <ele>78.5</ele>
        <time>2020-07-03T16:50:19Z</time>
      </trkpt>
      <trkpt lat="46.77019" lon="0.48264">
        <ele>78.3</ele>
        <time>2020-07-03T16:50:20Z</time>
      </trkpt>
      <trkpt lat="46.77014" lon="0.48263">
        <ele>78.2</ele>
        <time>2020-07-03T16:50:21Z</time>
      </trkpt>
      <trkpt lat="46.77008" lon="0.48263">
        <ele>78</ele>
        <time>2020-07-03T16:50:22Z</time>
      </trkpt>
      <trkpt lat="46.77001" lon="0.48263">
        <ele>77.7</ele>
        <time>2020-07-03T16:50:23Z</time>
      </trkpt>
      <trkpt lat="46.76995" lon="0.48261">
        <ele>77.4</ele>
        <time>2020-07-03T16:50:24Z</time>
      </trkpt>
      <trkpt lat="46.76988" lon="0.48259">
        <ele>77.1</ele>
        <time>2020-07-03T16:50:25Z</time>
      </trkpt>
      <trkpt lat="46.76981" lon="0.48257">
        <ele>76.7</ele>
        <time>2020-07-03T16:50:26Z</time>
      </trkpt>
      <trkpt lat="46.76974" lon="0.48255">
        <ele>76.4</ele>
        <time>2020-07-03T16:50:27Z</time>
      </trkpt>
      <trkpt lat="46.76966" lon="0.48254">
        <ele>76</ele>
        <time>2020-07-03T16:50:28Z</time>
      </trkpt>
      <trkpt lat="46.76959" lon="0.48253">
        <ele>75.6</ele>
        <time>2020-07-03T16:50:29Z</time>
      </trkpt>
      <trkpt lat="46.7695" lon="0.4825">
        <ele>75.1</ele>
        <time>2020-07-03T16:50:30Z</time>
      </trkpt>
      <trkpt lat="46.76942" lon="0.48246">
        <ele>74.7</ele>
        <time>2020-07-03T16:50:31Z</time>
      </trkpt>
      <trkpt lat="46.76934" lon="0.48243">
        <ele>74.4</ele>
        <time>2020-07-03T16:50:32Z</time>
      </trkpt>
      <trkpt lat="46.76926" lon="0.48239">
        <ele>74.1</ele>
        <time>2020-07-03T16:50:33Z</time>
      </trkpt>
      <trkpt lat="46.76919" lon="0.48234">
        <ele>73.9</ele>
        <time>2020-07-03T16:50:34Z</time>
      </trkpt>
      <trkpt lat="46.76912" lon="0.48229">
        <ele>73.8</ele>
        <time>2020-07-03T16:50:35Z</time>
      </trkpt>
      <trkpt lat="46.76905" lon="0.48224">
        <ele>73.7</ele>
        <time>2020-07-03T16:50:36Z</time>
      </trkpt>
      <trkpt lat="46.76898" lon="0.48219">
        <ele>73.7</ele>
        <time>2020-07-03T16:50:37Z</time>
      </trkpt>
      <trkpt lat="46.76892" lon="0.48214">
        <ele>73.7</ele>
        <time>2020-07-03T16:50:38Z</time>
      </trkpt>
      <trkpt lat="46.76885" lon="0.48209">
        <ele>73.8</ele>
        <time>2020-07-03T16:50:39Z</time>
      </trkpt>
      <trkpt lat="46.76879" lon="0.48204">
        <ele>73.8</ele>
        <time>2020-07-03T16:50:40Z</time>
      </trkpt>
      <trkpt lat="46.76873" lon="0.482">
        <ele>73.8</ele>
        <time>2020-07-03T16:50:41Z</time>
      </trkpt>
      <trkpt lat="46.76867" lon="0.48196">
        <ele>73.8</ele>
        <time>2020-07-03T16:50:42Z</time>
      </trkpt>
      <trkpt lat="46.76861" lon="0.48192">
        <ele>73.9</ele>
        <time>2020-07-03T16:50:43Z</time>
      </trkpt>
      <trkpt lat="46.76856" lon="0.48188">
        <ele>73.9</ele>
        <time>2020-07-03T16:50:44Z</time>
      </trkpt>
      <trkpt lat="46.7685" lon="0.48184">
        <ele>74</ele>
        <time>2020-07-03T16:50:45Z</time>
      </trkpt>
      <trkpt lat="46.76844" lon="0.4818">
        <ele>74</ele>
        <time>2020-07-03T16:50:46Z</time>
      </trkpt>
      <trkpt lat="46.76838" lon="0.48176">
        <ele>74.1</ele>
        <time>2020-07-03T16:50:47Z</time>
      </trkpt>
      <trkpt lat="46.76833" lon="0.48172">
        <ele>74.1</ele>
        <time>2020-07-03T16:50:48Z</time>
      </trkpt>
      <trkpt lat="46.76827" lon="0.48168">
        <ele>74.1</ele>
        <time>2020-07-03T16:50:49Z</time>
      </trkpt>
      <trkpt lat="46.76822" lon="0.48165">
        <ele>74.2</ele>
        <time>2020-07-03T16:50:50Z</time>
      </trkpt>
      <trkpt lat="46.76816" lon="0.48161">
        <ele>74.2</ele>
        <time>2020-07-03T16:50:51Z</time>
      </trkpt>
      <trkpt lat="46.7681" lon="0.48158">
        <ele>74.2</ele>
        <time>2020-07-03T16:50:52Z</time>
      </trkpt>
      <trkpt lat="46.76805" lon="0.48153">
        <ele>74.3</ele>
        <time>2020-07-03T16:50:53Z</time>
      </trkpt>
      <trkpt lat="46.768" lon="0.48149">
        <ele>74.3</ele>
        <time>2020-07-03T16:50:54Z</time>
      </trkpt>
      <trkpt lat="46.76794" lon="0.48145">
        <ele>74.4</ele>
        <time>2020-07-03T16:50:55Z</time>
      </trkpt>
      <trkpt lat="46.76788" lon="0.4814">
        <ele>74.4</ele>
        <time>2020-07-03T16:50:56Z</time>
      </trkpt>
      <trkpt lat="46.76782" lon="0.48136">
        <ele>74.4</ele>
        <time>2020-07-03T16:50:57Z</time>
      </trkpt>
      <trkpt lat="46.76777" lon="0.48132">
        <ele>74.4</ele>
        <time>2020-07-03T16:50:58Z</time>
      </trkpt>
      <trkpt lat="46.76772" lon="0.48127">
        <ele>74.4</ele>
        <time>2020-07-03T16:50:59Z</time>
      </trkpt>
      <trkpt lat="46.76766" lon="0.48123">
        <ele>74.4</ele>
        <time>2020-07-03T16:51:00Z</time>
      </trkpt>
      <trkpt lat="46.76761" lon="0.48119">
        <ele>74.4</ele>
        <time>2020-07-03T16:51:01Z</time>
      </trkpt>
      <trkpt lat="46.76755" lon="0.48115">
        <ele>74.5</ele>
        <time>2020-07-03T16:51:02Z</time>
      </trkpt>
      <trkpt lat="46.76749" lon="0.48112">
        <ele>74.5</ele>
        <time>2020-07-03T16:51:03Z</time>
      </trkpt>
      <trkpt lat="46.76744" lon="0.48108">
        <ele>74.5</ele>
        <time>2020-07-03T16:51:04Z</time>
      </trkpt>
      <trkpt lat="46.76738" lon="0.48105">
        <ele>74.5</ele>
        <time>2020-07-03T16:51:05Z</time>
      </trkpt>
      <trkpt lat="46.76733" lon="0.48102">
        <ele>74.5</ele>
        <time>2020-07-03T16:51:06Z</time>
      </trkpt>
      <trkpt lat="46.76728" lon="0.48098">
        <ele>74.5</ele>
        <time>2020-07-03T16:51:07Z</time>
      </trkpt>
      <trkpt lat="46.76723" lon="0.48094">
        <ele>74.5</ele>
        <time>2020-07-03T16:51:08Z</time>
      </trkpt>
      <trkpt lat="46.76717" lon="0.4809">
        <ele>74.5</ele>
        <time>2020-07-03T16:51:09Z</time>
      </trkpt>
      <trkpt lat="46.76712" lon="0.48087">
        <ele>74.5</ele>
        <time>2020-07-03T16:51:10Z</time>
      </trkpt>
      <trkpt lat="46.76707" lon="0.48084">
        <ele>74.5</ele>
        <time>2020-07-03T16:51:11Z</time>
      </trkpt>
      <trkpt lat="46.76701" lon="0.4808">
        <ele>74.5</ele>
        <time>2020-07-03T16:51:12Z</time>
      </trkpt>
      <trkpt lat="46.76696" lon="0.48078">
        <ele>74.5</ele>
        <time>2020-07-03T16:51:13Z</time>
      </trkpt>
      <trkpt lat="46.76691" lon="0.48073">
        <ele>74.5</ele>
        <time>2020-07-03T16:51:14Z</time>
      </trkpt>
      <trkpt lat="46.76686" lon="0.48068">
        <ele>74.5</ele>
        <time>2020-07-03T16:51:15Z</time>
      </trkpt>
      <trkpt lat="46.76681" lon="0.48064">
        <ele>74.5</ele>
        <time>2020-07-03T16:51:16Z</time>
      </trkpt>
      <trkpt lat="46.76675" lon="0.48059">
        <ele>74.5</ele>
        <time>2020-07-03T16:51:17Z</time>
      </trkpt>
      <trkpt lat="46.7667" lon="0.48056">
        <ele>74.5</ele>
        <time>2020-07-03T16:51:18Z</time>
      </trkpt>
      <trkpt lat="46.76665" lon="0.48052">
        <ele>74.5</ele>
        <time>2020-07-03T16:51:19Z</time>
      </trkpt>
      <trkpt lat="46.7666" lon="0.48047">
        <ele>74.5</ele>
        <time>2020-07-03T16:51:20Z</time>
      </trkpt>
      <trkpt lat="46.76654" lon="0.48043">
        <ele>74.5</ele>
        <time>2020-07-03T16:51:21Z</time>
      </trkpt>
      <trkpt lat="46.76649" lon="0.48039">
        <ele>74.5</ele>
        <time>2020-07-03T16:51:22Z</time>
      </trkpt>
      <trkpt lat="46.76644" lon="0.48035">
        <ele>74.5</ele>
        <time>2020-07-03T16:51:23Z</time>
      </trkpt>
      <trkpt lat="46.7664" lon="0.48032">
        <ele>74.5</ele>
        <time>2020-07-03T16:51:24Z</time>
      </trkpt>
      <trkpt lat="46.76635" lon="0.48029">
        <ele>74.5</ele>
        <time>2020-07-03T16:51:25Z</time>
      </trkpt>
      <trkpt lat="46.76631" lon="0.48026">
        <ele>74.5</ele>
        <time>2020-07-03T16:51:26Z</time>
      </trkpt>
      <trkpt lat="46.76626" lon="0.48022">
        <ele>74.5</ele>
        <time>2020-07-03T16:51:27Z</time>
      </trkpt>
      <trkpt lat="46.76621" lon="0.48019">
        <ele>74.5</ele>
        <time>2020-07-03T16:51:28Z</time>
      </trkpt>
      <trkpt lat="46.76616" lon="0.48015">
        <ele>74.5</ele>
        <time>2020-07-03T16:51:29Z</time>
      </trkpt>
      <trkpt lat="46.76612" lon="0.48011">
        <ele>74.5</ele>
        <time>2020-07-03T16:51:30Z</time>
      </trkpt>
      <trkpt lat="46.76607" lon="0.48007">
        <ele>74.5</ele>
        <time>2020-07-03T16:51:31Z</time>
      </trkpt>
      <trkpt lat="46.76603" lon="0.48004">
        <ele>74.5</ele>
        <time>2020-07-03T16:51:32Z</time>
      </trkpt>
      <trkpt lat="46.76598" lon="0.48001">
        <ele>74.5</ele>
        <time>2020-07-03T16:51:33Z</time>
      </trkpt>
      <trkpt lat="46.76593" lon="0.47997">
        <ele>74.5</ele>
        <time>2020-07-03T16:51:34Z</time>
      </trkpt>
      <trkpt lat="46.76587" lon="0.47996">
        <ele>74.5</ele>
        <time>2020-07-03T16:51:35Z</time>
      </trkpt>
      <trkpt lat="46.76581" lon="0.47994">
        <ele>74.5</ele>
        <time>2020-07-03T16:51:36Z</time>
      </trkpt>
      <trkpt lat="46.76576" lon="0.47993">
        <ele>74.5</ele>
        <time>2020-07-03T16:51:37Z</time>
      </trkpt>
      <trkpt lat="46.76571" lon="0.4799">
        <ele>74.5</ele>
        <time>2020-07-03T16:51:38Z</time>
      </trkpt>
      <trkpt lat="46.76566" lon="0.47987">
        <ele>74.5</ele>
        <time>2020-07-03T16:51:39Z</time>
      </trkpt>
      <trkpt lat="46.76561" lon="0.47983">
        <ele>74.5</ele>
        <time>2020-07-03T16:51:40Z</time>
      </trkpt>
      <trkpt lat="46.76556" lon="0.47982">
        <ele>74.4</ele>
        <time>2020-07-03T16:51:41Z</time>
      </trkpt>
      <trkpt lat="46.76552" lon="0.47979">
        <ele>74.4</ele>
        <time>2020-07-03T16:51:42Z</time>
      </trkpt>
      <trkpt lat="46.76548" lon="0.47977">
        <ele>74.3</ele>
        <time>2020-07-03T16:51:43Z</time>
      </trkpt>
      <trkpt lat="46.76543" lon="0.47974">
        <ele>74.2</ele>
        <time>2020-07-03T16:51:44Z</time>
      </trkpt>
      <trkpt lat="46.76539" lon="0.47971">
        <ele>74.1</ele>
        <time>2020-07-03T16:51:45Z</time>
      </trkpt>
      <trkpt lat="46.76535" lon="0.47968">
        <ele>74</ele>
        <time>2020-07-03T16:51:46Z</time>
      </trkpt>
      <trkpt lat="46.76531" lon="0.47967">
        <ele>73.9</ele>
        <time>2020-07-03T16:51:47Z</time>
      </trkpt>
      <trkpt lat="46.76526" lon="0.47965">
        <ele>73.8</ele>
        <time>2020-07-03T16:51:48Z</time>
      </trkpt>
      <trkpt lat="46.76521" lon="0.47964">
        <ele>73.7</ele>
        <time>2020-07-03T16:51:49Z</time>
      </trkpt>
      <trkpt lat="46.76516" lon="0.47963">
        <ele>73.6</ele>
        <time>2020-07-03T16:51:50Z</time>
      </trkpt>
      <trkpt lat="46.76511" lon="0.47961">
        <ele>73.4</ele>
        <time>2020-07-03T16:51:51Z</time>
      </trkpt>
      <trkpt lat="46.76506" lon="0.4796">
        <ele>73.3</ele>
        <time>2020-07-03T16:51:52Z</time>
      </trkpt>
      <trkpt lat="46.76502" lon="0.47958">
        <ele>73.2</ele>
        <time>2020-07-03T16:51:53Z</time>
      </trkpt>
      <trkpt lat="46.76497" lon="0.47956">
        <ele>73.1</ele>
        <time>2020-07-03T16:51:54Z</time>
      </trkpt>
      <trkpt lat="46.76491" lon="0.47954">
        <ele>73.1</ele>
        <time>2020-07-03T16:51:55Z</time>
      </trkpt>
      <trkpt lat="46.76485" lon="0.47955">
        <ele>73</ele>
        <time>2020-07-03T16:51:56Z</time>
      </trkpt>
      <trkpt lat="46.7648" lon="0.47954">
        <ele>73</ele>
        <time>2020-07-03T16:51:57Z</time>
      </trkpt>
      <trkpt lat="46.76475" lon="0.47954">
        <ele>73</ele>
        <time>2020-07-03T16:51:58Z</time>
      </trkpt>
      <trkpt lat="46.7647" lon="0.47953">
        <ele>73</ele>
        <time>2020-07-03T16:51:59Z</time>
      </trkpt>
      <trkpt lat="46.76466" lon="0.4795">
        <ele>73</ele>
        <time>2020-07-03T16:52:00Z</time>
      </trkpt>
      <trkpt lat="46.76462" lon="0.47946">
        <ele>73</ele>
        <time>2020-07-03T16:52:01Z</time>
      </trkpt>
      <trkpt lat="46.76458" lon="0.47943">
        <ele>73</ele>
        <time>2020-07-03T16:52:02Z</time>
      </trkpt>
      <trkpt lat="46.76455" lon="0.47939">
        <ele>73</ele>
        <time>2020-07-03T16:52:03Z</time>
      </trkpt>
      <trkpt lat="46.76453" lon="0.47935">
        <ele>73</ele>
        <time>2020-07-03T16:52:04Z</time>
      </trkpt>
      <trkpt lat="46.76452" lon="0.4793">
        <ele>73</ele>
        <time>2020-07-03T16:52:05Z</time>
      </trkpt>
      <trkpt lat="46.76451" lon="0.47926">
        <ele>73</ele>
        <time>2020-07-03T16:52:06Z</time>
      </trkpt>
      <trkpt lat="46.7645" lon="0.47922">
        <ele>73.1</ele>
        <time>2020-07-03T16:52:07Z</time>
      </trkpt>
      <trkpt lat="46.7645" lon="0.47917">
        <ele>73.1</ele>
        <time>2020-07-03T16:52:08Z</time>
      </trkpt>
      <trkpt lat="46.7645" lon="0.47913">
        <ele>73.1</ele>
        <time>2020-07-03T16:52:09Z</time>
      </trkpt>
      <trkpt lat="46.76448" lon="0.47908">
        <ele>73.1</ele>
        <time>2020-07-03T16:52:10Z</time>
      </trkpt>
      <trkpt lat="46.76448" lon="0.47904">
        <ele>73.2</ele>
        <time>2020-07-03T16:52:11Z</time>
      </trkpt>
      <trkpt lat="46.76447" lon="0.47899">
        <ele>73.3</ele>
        <time>2020-07-03T16:52:12Z</time>
      </trkpt>
      <trkpt lat="46.76447" lon="0.47894">
        <ele>73.3</ele>
        <time>2020-07-03T16:52:13Z</time>
      </trkpt>
      <trkpt lat="46.76446" lon="0.4789">
        <ele>73.4</ele>
        <time>2020-07-03T16:52:14Z</time>
      </trkpt>
      <trkpt lat="46.76445" lon="0.47885">
        <ele>73.5</ele>
        <time>2020-07-03T16:52:15Z</time>
      </trkpt>
      <trkpt lat="46.76444" lon="0.4788">
        <ele>73.6</ele>
        <time>2020-07-03T16:52:16Z</time>
      </trkpt>
      <trkpt lat="46.76443" lon="0.47874">
        <ele>73.6</ele>
        <time>2020-07-03T16:52:17Z</time>
      </trkpt>
      <trkpt lat="46.76442" lon="0.47869">
        <ele>73.7</ele>
        <time>2020-07-03T16:52:18Z</time>
      </trkpt>
      <trkpt lat="46.76441" lon="0.47865">
        <ele>73.8</ele>
        <time>2020-07-03T16:52:19Z</time>
      </trkpt>
      <trkpt lat="46.76439" lon="0.4786">
        <ele>73.9</ele>
        <time>2020-07-03T16:52:20Z</time>
      </trkpt>
      <trkpt lat="46.76438" lon="0.47856">
        <ele>74</ele>
        <time>2020-07-03T16:52:21Z</time>
      </trkpt>
      <trkpt lat="46.76436" lon="0.47852">
        <ele>74.1</ele>
        <time>2020-07-03T16:52:22Z</time>
      </trkpt>
      <trkpt lat="46.76434" lon="0.47848">
        <ele>74.2</ele>
        <time>2020-07-03T16:52:23Z</time>
      </trkpt>
      <trkpt lat="46.76432" lon="0.47844">
        <ele>74.3</ele>
        <time>2020-07-03T16:52:24Z</time>
      </trkpt>
      <trkpt lat="46.76429" lon="0.4784">
        <ele>74.4</ele>
        <time>2020-07-03T16:52:25Z</time>
      </trkpt>
      <trkpt lat="46.76427" lon="0.47837">
        <ele>74.5</ele>
        <time>2020-07-03T16:52:26Z</time>
      </trkpt>
      <trkpt lat="46.76426" lon="0.47832">
        <ele>74.6</ele>
        <time>2020-07-03T16:52:27Z</time>
      </trkpt>
      <trkpt lat="46.76423" lon="0.47829">
        <ele>74.7</ele>
        <time>2020-07-03T16:52:28Z</time>
      </trkpt>
      <trkpt lat="46.7642" lon="0.47826">
        <ele>74.8</ele>
        <time>2020-07-03T16:52:29Z</time>
      </trkpt>
      <trkpt lat="46.76417" lon="0.47824">
        <ele>75</ele>
        <time>2020-07-03T16:52:30Z</time>
      </trkpt>
      <trkpt lat="46.76412" lon="0.47824">
        <ele>75.1</ele>
        <time>2020-07-03T16:52:31Z</time>
      </trkpt>
      <trkpt lat="46.76408" lon="0.47825">
        <ele>75.2</ele>
        <time>2020-07-03T16:52:32Z</time>
      </trkpt>
      <trkpt lat="46.76404" lon="0.47825">
        <ele>75.3</ele>
        <time>2020-07-03T16:52:33Z</time>
      </trkpt>
      <trkpt lat="46.764" lon="0.47824">
        <ele>75.4</ele>
        <time>2020-07-03T16:52:34Z</time>
      </trkpt>
      <trkpt lat="46.76395" lon="0.47824">
        <ele>75.4</ele>
        <time>2020-07-03T16:52:35Z</time>
      </trkpt>
      <trkpt lat="46.76391" lon="0.47824">
        <ele>75.5</ele>
        <time>2020-07-03T16:52:36Z</time>
      </trkpt>
      <trkpt lat="46.76388" lon="0.47824">
        <ele>75.5</ele>
        <time>2020-07-03T16:52:37Z</time>
      </trkpt>
      <trkpt lat="46.76385" lon="0.47826">
        <ele>75.5</ele>
        <time>2020-07-03T16:52:38Z</time>
      </trkpt>
      <trkpt lat="46.76381" lon="0.47827">
        <ele>75.5</ele>
        <time>2020-07-03T16:52:39Z</time>
      </trkpt>
      <trkpt lat="46.76375" lon="0.47828">
        <ele>75.5</ele>
        <time>2020-07-03T16:52:40Z</time>
      </trkpt>
      <trkpt lat="46.7637" lon="0.4783">
        <ele>75.6</ele>
        <time>2020-07-03T16:52:41Z</time>
      </trkpt>
      <trkpt lat="46.76365" lon="0.47831">
        <ele>75.6</ele>
        <time>2020-07-03T16:52:42Z</time>
      </trkpt>
      <trkpt lat="46.76361" lon="0.47833">
        <ele>75.6</ele>
        <time>2020-07-03T16:52:43Z</time>
      </trkpt>
      <trkpt lat="46.76357" lon="0.47834">
        <ele>75.6</ele>
        <time>2020-07-03T16:52:44Z</time>
      </trkpt>
      <trkpt lat="46.76351" lon="0.47836">
        <ele>75.5</ele>
        <time>2020-07-03T16:52:45Z</time>
      </trkpt>
      <trkpt lat="46.76346" lon="0.47835">
        <ele>75.5</ele>
        <time>2020-07-03T16:52:46Z</time>
      </trkpt>
      <trkpt lat="46.76341" lon="0.47838">
        <ele>75.4</ele>
        <time>2020-07-03T16:52:47Z</time>
      </trkpt>
      <trkpt lat="46.76338" lon="0.4784">
        <ele>75.4</ele>
        <time>2020-07-03T16:52:48Z</time>
      </trkpt>
      <trkpt lat="46.76334" lon="0.47841">
        <ele>75.3</ele>
        <time>2020-07-03T16:52:49Z</time>
      </trkpt>
      <trkpt lat="46.7633" lon="0.47842">
        <ele>75.2</ele>
        <time>2020-07-03T16:52:50Z</time>
      </trkpt>
      <trkpt lat="46.76324" lon="0.47843">
        <ele>75.1</ele>
        <time>2020-07-03T16:52:51Z</time>
      </trkpt>
      <trkpt lat="46.76318" lon="0.47845">
        <ele>75</ele>
        <time>2020-07-03T16:52:52Z</time>
      </trkpt>
      <trkpt lat="46.76313" lon="0.47847">
        <ele>74.9</ele>
        <time>2020-07-03T16:52:53Z</time>
      </trkpt>
      <trkpt lat="46.76307" lon="0.47847">
        <ele>74.8</ele>
        <time>2020-07-03T16:52:54Z</time>
      </trkpt>
      <trkpt lat="46.76301" lon="0.47849">
        <ele>74.7</ele>
        <time>2020-07-03T16:52:55Z</time>
      </trkpt>
      <trkpt lat="46.76295" lon="0.47847">
        <ele>74.7</ele>
        <time>2020-07-03T16:52:56Z</time>
      </trkpt>
      <trkpt lat="46.76289" lon="0.47846">
        <ele>74.6</ele>
        <time>2020-07-03T16:52:57Z</time>
      </trkpt>
      <trkpt lat="46.76284" lon="0.47844">
        <ele>74.6</ele>
        <time>2020-07-03T16:52:58Z</time>
      </trkpt>
      <trkpt lat="46.76279" lon="0.47843">
        <ele>74.5</ele>
        <time>2020-07-03T16:52:59Z</time>
      </trkpt>
      <trkpt lat="46.76275" lon="0.47842">
        <ele>74.5</ele>
        <time>2020-07-03T16:53:00Z</time>
      </trkpt>
      <trkpt lat="46.76272" lon="0.47841">
        <ele>74.5</ele>
        <time>2020-07-03T16:53:01Z</time>
      </trkpt>
      <trkpt lat="46.76271" lon="0.47835">
        <ele>74.5</ele>
        <time>2020-07-03T16:53:02Z</time>
      </trkpt>
      <trkpt lat="46.76271" lon="0.47829">
        <ele>74.5</ele>
        <time>2020-07-03T16:53:03Z</time>
      </trkpt>
      <trkpt lat="46.76271" lon="0.47824">
        <ele>74.6</ele>
        <time>2020-07-03T16:53:04Z</time>
      </trkpt>
      <trkpt lat="46.76271" lon="0.47819">
        <ele>74.7</ele>
        <time>2020-07-03T16:53:05Z</time>
      </trkpt>
      <trkpt lat="46.7627" lon="0.47815">
        <ele>74.7</ele>
        <time>2020-07-03T16:53:06Z</time>
      </trkpt>
      <trkpt lat="46.76269" lon="0.47811">
        <ele>74.8</ele>
        <time>2020-07-03T16:53:07Z</time>
      </trkpt>
      <trkpt lat="46.76268" lon="0.47807">
        <ele>74.8</ele>
        <time>2020-07-03T16:53:08Z</time>
      </trkpt>
      <trkpt lat="46.76267" lon="0.47801">
        <ele>74.9</ele>
        <time>2020-07-03T16:53:09Z</time>
      </trkpt>
      <trkpt lat="46.76265" lon="0.47797">
        <ele>75</ele>
        <time>2020-07-03T16:53:10Z</time>
      </trkpt>
      <trkpt lat="46.76263" lon="0.47795">
        <ele>75</ele>
        <time>2020-07-03T16:53:11Z</time>
      </trkpt>
      <trkpt lat="46.76259" lon="0.47792">
        <ele>75</ele>
        <time>2020-07-03T16:53:12Z</time>
      </trkpt>
      <trkpt lat="46.76255" lon="0.47789">
        <ele>75.1</ele>
        <time>2020-07-03T16:53:13Z</time>
      </trkpt>
      <trkpt lat="46.76251" lon="0.47784">
        <ele>75.1</ele>
        <time>2020-07-03T16:53:14Z</time>
      </trkpt>
      <trkpt lat="46.76247" lon="0.4778">
        <ele>75.2</ele>
        <time>2020-07-03T16:53:15Z</time>
      </trkpt>
      <trkpt lat="46.76245" lon="0.47776">
        <ele>75.3</ele>
        <time>2020-07-03T16:53:16Z</time>
      </trkpt>
      <trkpt lat="46.76243" lon="0.47769">
        <ele>75.4</ele>
        <time>2020-07-03T16:53:17Z</time>
      </trkpt>
      <trkpt lat="46.76242" lon="0.47764">
        <ele>75.4</ele>
        <time>2020-07-03T16:53:18Z</time>
      </trkpt>
      <trkpt lat="46.76241" lon="0.47759">
        <ele>75.5</ele>
        <time>2020-07-03T16:53:19Z</time>
      </trkpt>
      <trkpt lat="46.76238" lon="0.47754">
        <ele>75.6</ele>
        <time>2020-07-03T16:53:20Z</time>
      </trkpt>
      <trkpt lat="46.76236" lon="0.47749">
        <ele>75.7</ele>
        <time>2020-07-03T16:53:21Z</time>
      </trkpt>
      <trkpt lat="46.76234" lon="0.47744">
        <ele>75.7</ele>
        <time>2020-07-03T16:53:22Z</time>
      </trkpt>
      <trkpt lat="46.76233" lon="0.47739">
        <ele>75.8</ele>
        <time>2020-07-03T16:53:23Z</time>
      </trkpt>
      <trkpt lat="46.76231" lon="0.47732">
        <ele>75.9</ele>
        <time>2020-07-03T16:53:24Z</time>
      </trkpt>
      <trkpt lat="46.76228" lon="0.47726">
        <ele>75.9</ele>
        <time>2020-07-03T16:53:25Z</time>
      </trkpt>
      <trkpt lat="46.76225" lon="0.4772">
        <ele>75.9</ele>
        <time>2020-07-03T16:53:26Z</time>
      </trkpt>
      <trkpt lat="46.76222" lon="0.47715">
        <ele>76</ele>
        <time>2020-07-03T16:53:27Z</time>
      </trkpt>
      <trkpt lat="46.7622" lon="0.4771">
        <ele>76</ele>
        <time>2020-07-03T16:53:28Z</time>
      </trkpt>
      <trkpt lat="46.76217" lon="0.47705">
        <ele>76</ele>
        <time>2020-07-03T16:53:29Z</time>
      </trkpt>
      <trkpt lat="46.76214" lon="0.47699">
        <ele>75.9</ele>
        <time>2020-07-03T16:53:30Z</time>
      </trkpt>
      <trkpt lat="46.76211" lon="0.47693">
        <ele>75.9</ele>
        <time>2020-07-03T16:53:31Z</time>
      </trkpt>
      <trkpt lat="46.76206" lon="0.47688">
        <ele>75.8</ele>
        <time>2020-07-03T16:53:32Z</time>
      </trkpt>
      <trkpt lat="46.76203" lon="0.47683">
        <ele>75.7</ele>
        <time>2020-07-03T16:53:33Z</time>
      </trkpt>
      <trkpt lat="46.762" lon="0.47678">
        <ele>75.6</ele>
        <time>2020-07-03T16:53:34Z</time>
      </trkpt>
      <trkpt lat="46.76196" lon="0.47673">
        <ele>75.5</ele>
        <time>2020-07-03T16:53:35Z</time>
      </trkpt>
      <trkpt lat="46.76193" lon="0.47666">
        <ele>75.4</ele>
        <time>2020-07-03T16:53:36Z</time>
      </trkpt>
      <trkpt lat="46.76188" lon="0.4766">
        <ele>75.3</ele>
        <time>2020-07-03T16:53:37Z</time>
      </trkpt>
      <trkpt lat="46.76184" lon="0.47656">
        <ele>75.1</ele>
        <time>2020-07-03T16:53:38Z</time>
      </trkpt>
      <trkpt lat="46.76179" lon="0.47651">
        <ele>75</ele>
        <time>2020-07-03T16:53:39Z</time>
      </trkpt>
      <trkpt lat="46.76175" lon="0.47646">
        <ele>74.9</ele>
        <time>2020-07-03T16:53:40Z</time>
      </trkpt>
      <trkpt lat="46.76171" lon="0.47641">
        <ele>74.8</ele>
        <time>2020-07-03T16:53:41Z</time>
      </trkpt>
      <trkpt lat="46.76166" lon="0.47637">
        <ele>74.7</ele>
        <time>2020-07-03T16:53:42Z</time>
      </trkpt>
      <trkpt lat="46.76162" lon="0.47632">
        <ele>74.6</ele>
        <time>2020-07-03T16:53:43Z</time>
      </trkpt>
      <trkpt lat="46.76157" lon="0.47627">
        <ele>74.4</ele>
        <time>2020-07-03T16:53:44Z</time>
      </trkpt>
      <trkpt lat="46.76153" lon="0.47622">
        <ele>74.3</ele>
        <time>2020-07-03T16:53:45Z</time>
      </trkpt>
      <trkpt lat="46.76146" lon="0.47618">
        <ele>74.2</ele>
        <time>2020-07-03T16:53:46Z</time>
      </trkpt>
      <trkpt lat="46.76142" lon="0.47615">
        <ele>74.1</ele>
        <time>2020-07-03T16:53:47Z</time>
      </trkpt>
      <trkpt lat="46.76138" lon="0.4761">
        <ele>74.1</ele>
        <time>2020-07-03T16:53:48Z</time>
      </trkpt>
      <trkpt lat="46.76136" lon="0.47607">
        <ele>74</ele>
        <time>2020-07-03T16:53:49Z</time>
      </trkpt>
      <trkpt lat="46.76133" lon="0.47602">
        <ele>73.9</ele>
        <time>2020-07-03T16:53:50Z</time>
      </trkpt>
      <trkpt lat="46.76132" lon="0.47593">
        <ele>73.9</ele>
        <time>2020-07-03T16:53:51Z</time>
      </trkpt>
      <trkpt lat="46.76133" lon="0.47587">
        <ele>74</ele>
        <time>2020-07-03T16:53:52Z</time>
      </trkpt>
      <trkpt lat="46.76137" lon="0.4758">
        <ele>74</ele>
        <time>2020-07-03T16:53:53Z</time>
      </trkpt>
      <trkpt lat="46.7614" lon="0.47577">
        <ele>74.1</ele>
        <time>2020-07-03T16:53:54Z</time>
      </trkpt>
      <trkpt lat="46.76143" lon="0.47572">
        <ele>74.2</ele>
        <time>2020-07-03T16:53:55Z</time>
      </trkpt>
      <trkpt lat="46.76144" lon="0.47565">
        <ele>74.2</ele>
        <time>2020-07-03T16:53:56Z</time>
      </trkpt>
      <trkpt lat="46.76145" lon="0.47558">
        <ele>74.2</ele>
        <time>2020-07-03T16:53:57Z</time>
      </trkpt>
      <trkpt lat="46.76143" lon="0.47552">
        <ele>74.1</ele>
        <time>2020-07-03T16:53:58Z</time>
      </trkpt>
      <trkpt lat="46.76141" lon="0.47545">
        <ele>73.9</ele>
        <time>2020-07-03T16:53:59Z</time>
      </trkpt>
      <trkpt lat="46.76138" lon="0.47539">
        <ele>73.6</ele>
        <time>2020-07-03T16:54:00Z</time>
      </trkpt>
      <trkpt lat="46.76135" lon="0.47533">
        <ele>73.4</ele>
        <time>2020-07-03T16:54:01Z</time>
      </trkpt>
      <trkpt lat="46.76131" lon="0.47526">
        <ele>73.1</ele>
        <time>2020-07-03T16:54:02Z</time>
      </trkpt>
      <trkpt lat="46.76128" lon="0.47519">
        <ele>72.8</ele>
        <time>2020-07-03T16:54:03Z</time>
      </trkpt>
      <trkpt lat="46.76125" lon="0.47512">
        <ele>72.5</ele>
        <time>2020-07-03T16:54:04Z</time>
      </trkpt>
      <trkpt lat="46.76121" lon="0.47505">
        <ele>72.2</ele>
        <time>2020-07-03T16:54:05Z</time>
      </trkpt>
      <trkpt lat="46.76117" lon="0.47499">
        <ele>71.9</ele>
        <time>2020-07-03T16:54:06Z</time>
      </trkpt>
      <trkpt lat="46.76112" lon="0.47492">
        <ele>71.6</ele>
        <time>2020-07-03T16:54:07Z</time>
      </trkpt>
      <trkpt lat="46.76108" lon="0.47485">
        <ele>71.2</ele>
        <time>2020-07-03T16:54:08Z</time>
      </trkpt>
      <trkpt lat="46.76104" lon="0.4748">
        <ele>71</ele>
        <time>2020-07-03T16:54:09Z</time>
      </trkpt>
      <trkpt lat="46.76101" lon="0.47473">
        <ele>70.7</ele>
        <time>2020-07-03T16:54:10Z</time>
      </trkpt>
      <trkpt lat="46.76095" lon="0.47466">
        <ele>70.3</ele>
        <time>2020-07-03T16:54:11Z</time>
      </trkpt>
      <trkpt lat="46.7609" lon="0.47459">
        <ele>70</ele>
        <time>2020-07-03T16:54:12Z</time>
      </trkpt>
      <trkpt lat="46.76084" lon="0.47451">
        <ele>69.7</ele>
        <time>2020-07-03T16:54:13Z</time>
      </trkpt>
      <trkpt lat="46.76078" lon="0.47443">
        <ele>69.4</ele>
        <time>2020-07-03T16:54:14Z</time>
      </trkpt>
      <trkpt lat="46.76071" lon="0.47434">
        <ele>69.1</ele>
        <time>2020-07-03T16:54:15Z</time>
      </trkpt>
      <trkpt lat="46.76065" lon="0.47426">
        <ele>68.9</ele>
        <time>2020-07-03T16:54:16Z</time>
      </trkpt>
      <trkpt lat="46.76059" lon="0.4742">
        <ele>68.8</ele>
        <time>2020-07-03T16:54:17Z</time>
      </trkpt>
      <trkpt lat="46.76052" lon="0.47413">
        <ele>68.6</ele>
        <time>2020-07-03T16:54:18Z</time>
      </trkpt>
      <trkpt lat="46.76045" lon="0.47407">
        <ele>68.5</ele>
        <time>2020-07-03T16:54:19Z</time>
      </trkpt>
      <trkpt lat="46.76038" lon="0.47402">
        <ele>68.3</ele>
        <time>2020-07-03T16:54:20Z</time>
      </trkpt>
      <trkpt lat="46.76032" lon="0.47397">
        <ele>68.1</ele>
        <time>2020-07-03T16:54:21Z</time>
      </trkpt>
      <trkpt lat="46.76025" lon="0.47392">
        <ele>67.9</ele>
        <time>2020-07-03T16:54:22Z</time>
      </trkpt>
      <trkpt lat="46.76018" lon="0.47388">
        <ele>67.9</ele>
        <time>2020-07-03T16:54:23Z</time>
      </trkpt>
      <trkpt lat="46.76011" lon="0.47383">
        <ele>67.8</ele>
        <time>2020-07-03T16:54:24Z</time>
      </trkpt>
      <trkpt lat="46.76004" lon="0.47378">
        <ele>67.9</ele>
        <time>2020-07-03T16:54:25Z</time>
      </trkpt>
      <trkpt lat="46.75997" lon="0.47374">
        <ele>67.9</ele>
        <time>2020-07-03T16:54:26Z</time>
      </trkpt>
      <trkpt lat="46.75991" lon="0.47371">
        <ele>68</ele>
        <time>2020-07-03T16:54:27Z</time>
      </trkpt>
      <trkpt lat="46.75985" lon="0.47367">
        <ele>68.1</ele>
        <time>2020-07-03T16:54:28Z</time>
      </trkpt>
      <trkpt lat="46.7598" lon="0.47362">
        <ele>68.2</ele>
        <time>2020-07-03T16:54:29Z</time>
      </trkpt>
      <trkpt lat="46.75975" lon="0.47358">
        <ele>68.2</ele>
        <time>2020-07-03T16:54:30Z</time>
      </trkpt>
      <trkpt lat="46.75969" lon="0.47353">
        <ele>68.4</ele>
        <time>2020-07-03T16:54:31Z</time>
      </trkpt>
      <trkpt lat="46.75963" lon="0.4735">
        <ele>68.5</ele>
        <time>2020-07-03T16:54:32Z</time>
      </trkpt>
      <trkpt lat="46.75957" lon="0.47346">
        <ele>68.6</ele>
        <time>2020-07-03T16:54:33Z</time>
      </trkpt>
      <trkpt lat="46.75952" lon="0.47342">
        <ele>68.8</ele>
        <time>2020-07-03T16:54:34Z</time>
      </trkpt>
      <trkpt lat="46.75945" lon="0.47339">
        <ele>69</ele>
        <time>2020-07-03T16:54:35Z</time>
      </trkpt>
      <trkpt lat="46.7594" lon="0.47334">
        <ele>69.2</ele>
        <time>2020-07-03T16:54:36Z</time>
      </trkpt>
      <trkpt lat="46.75935" lon="0.4733">
        <ele>69.4</ele>
        <time>2020-07-03T16:54:37Z</time>
      </trkpt>
      <trkpt lat="46.75929" lon="0.47327">
        <ele>69.7</ele>
        <time>2020-07-03T16:54:38Z</time>
      </trkpt>
      <trkpt lat="46.75924" lon="0.47322">
        <ele>70</ele>
        <time>2020-07-03T16:54:39Z</time>
      </trkpt>
      <trkpt lat="46.75919" lon="0.47318">
        <ele>70.2</ele>
        <time>2020-07-03T16:54:40Z</time>
      </trkpt>
      <trkpt lat="46.75914" lon="0.47314">
        <ele>70.6</ele>
        <time>2020-07-03T16:54:41Z</time>
      </trkpt>
      <trkpt lat="46.75909" lon="0.47312">
        <ele>70.9</ele>
        <time>2020-07-03T16:54:42Z</time>
      </trkpt>
      <trkpt lat="46.75904" lon="0.4731">
        <ele>71.3</ele>
        <time>2020-07-03T16:54:43Z</time>
      </trkpt>
      <trkpt lat="46.75899" lon="0.47308">
        <ele>71.7</ele>
        <time>2020-07-03T16:54:44Z</time>
      </trkpt>
      <trkpt lat="46.75895" lon="0.47307">
        <ele>72</ele>
        <time>2020-07-03T16:54:45Z</time>
      </trkpt>
      <trkpt lat="46.75891" lon="0.47304">
        <ele>72.3</ele>
        <time>2020-07-03T16:54:46Z</time>
      </trkpt>
      <trkpt lat="46.75888" lon="0.47301">
        <ele>72.6</ele>
        <time>2020-07-03T16:54:47Z</time>
      </trkpt>
      <trkpt lat="46.75884" lon="0.47298">
        <ele>72.9</ele>
        <time>2020-07-03T16:54:48Z</time>
      </trkpt>
      <trkpt lat="46.75882" lon="0.47295">
        <ele>73.2</ele>
        <time>2020-07-03T16:54:49Z</time>
      </trkpt>
      <trkpt lat="46.75879" lon="0.47292">
        <ele>73.4</ele>
        <time>2020-07-03T16:54:50Z</time>
      </trkpt>
      <trkpt lat="46.75876" lon="0.4729">
        <ele>73.7</ele>
        <time>2020-07-03T16:54:51Z</time>
      </trkpt>
      <trkpt lat="46.75875" lon="0.4729">
        <ele>73.8</ele>
        <time>2020-07-03T16:54:52Z</time>
      </trkpt>
      <trkpt lat="46.75872" lon="0.47288">
        <ele>74.2</ele>
        <time>2020-07-03T16:54:53Z</time>
      </trkpt>
      <trkpt lat="46.75871" lon="0.47287">
        <ele>74.3</ele>
        <time>2020-07-03T16:54:54Z</time>
      </trkpt>
      <trkpt lat="46.75868" lon="0.47284">
        <ele>74.7</ele>
        <time>2020-07-03T16:54:55Z</time>
      </trkpt>
      <trkpt lat="46.75867" lon="0.47283">
        <ele>74.8</ele>
        <time>2020-07-03T16:54:56Z</time>
      </trkpt>
      <trkpt lat="46.75865" lon="0.47284">
        <ele>74.9</ele>
        <time>2020-07-03T16:54:57Z</time>
      </trkpt>
      <trkpt lat="46.75863" lon="0.47283">
        <ele>75</ele>
        <time>2020-07-03T16:54:58Z</time>
      </trkpt>
      <trkpt lat="46.75861" lon="0.47281">
        <ele>75.2</ele>
        <time>2020-07-03T16:54:59Z</time>
      </trkpt>
      <trkpt lat="46.7586" lon="0.4728">
        <ele>75.3</ele>
        <time>2020-07-03T16:55:00Z</time>
      </trkpt>
      <trkpt lat="46.75857" lon="0.47277">
        <ele>75.4</ele>
        <time>2020-07-03T16:55:01Z</time>
      </trkpt>
      <trkpt lat="46.75856" lon="0.47277">
        <ele>75.5</ele>
        <time>2020-07-03T16:55:02Z</time>
      </trkpt>
      <trkpt lat="46.75853" lon="0.47274">
        <ele>75.7</ele>
        <time>2020-07-03T16:55:03Z</time>
      </trkpt>
      <trkpt lat="46.75852" lon="0.47273">
        <ele>75.8</ele>
        <time>2020-07-03T16:55:04Z</time>
      </trkpt>
      <trkpt lat="46.75847" lon="0.47271">
        <ele>76</ele>
        <time>2020-07-03T16:55:05Z</time>
      </trkpt>
      <trkpt lat="46.75846" lon="0.4727">
        <ele>76</ele>
        <time>2020-07-03T16:55:06Z</time>
      </trkpt>
      <trkpt lat="46.75843" lon="0.47268">
        <ele>76.2</ele>
        <time>2020-07-03T16:55:07Z</time>
      </trkpt>
      <trkpt lat="46.7584" lon="0.47266">
        <ele>76.4</ele>
        <time>2020-07-03T16:55:08Z</time>
      </trkpt>
      <trkpt lat="46.75837" lon="0.47263">
        <ele>76.5</ele>
        <time>2020-07-03T16:55:09Z</time>
      </trkpt>
      <trkpt lat="46.75834" lon="0.4726">
        <ele>76.6</ele>
        <time>2020-07-03T16:55:10Z</time>
      </trkpt>
      <trkpt lat="46.7583" lon="0.47259">
        <ele>76.8</ele>
        <time>2020-07-03T16:55:11Z</time>
      </trkpt>
      <trkpt lat="46.75827" lon="0.47257">
        <ele>76.9</ele>
        <time>2020-07-03T16:55:12Z</time>
      </trkpt>
      <trkpt lat="46.75823" lon="0.47254">
        <ele>77</ele>
        <time>2020-07-03T16:55:13Z</time>
      </trkpt>
      <trkpt lat="46.75819" lon="0.47251">
        <ele>77.1</ele>
        <time>2020-07-03T16:55:14Z</time>
      </trkpt>
      <trkpt lat="46.75815" lon="0.47248">
        <ele>77.2</ele>
        <time>2020-07-03T16:55:15Z</time>
      </trkpt>
      <trkpt lat="46.7581" lon="0.47245">
        <ele>77.3</ele>
        <time>2020-07-03T16:55:16Z</time>
      </trkpt>
      <trkpt lat="46.75806" lon="0.47241">
        <ele>77.4</ele>
        <time>2020-07-03T16:55:17Z</time>
      </trkpt>
      <trkpt lat="46.75803" lon="0.47236">
        <ele>77.5</ele>
        <time>2020-07-03T16:55:18Z</time>
      </trkpt>
      <trkpt lat="46.75798" lon="0.47232">
        <ele>77.6</ele>
        <time>2020-07-03T16:55:19Z</time>
      </trkpt>
      <trkpt lat="46.75794" lon="0.47227">
        <ele>77.8</ele>
        <time>2020-07-03T16:55:20Z</time>
      </trkpt>
      <trkpt lat="46.75789" lon="0.47224">
        <ele>77.9</ele>
        <time>2020-07-03T16:55:21Z</time>
      </trkpt>
      <trkpt lat="46.75786" lon="0.47221">
        <ele>77.9</ele>
        <time>2020-07-03T16:55:22Z</time>
      </trkpt>
      <trkpt lat="46.75782" lon="0.47218">
        <ele>78</ele>
        <time>2020-07-03T16:55:23Z</time>
      </trkpt>
      <trkpt lat="46.75779" lon="0.47214">
        <ele>78</ele>
        <time>2020-07-03T16:55:24Z</time>
      </trkpt>
      <trkpt lat="46.75775" lon="0.4721">
        <ele>78.1</ele>
        <time>2020-07-03T16:55:25Z</time>
      </trkpt>
      <trkpt lat="46.75771" lon="0.47205">
        <ele>78.1</ele>
        <time>2020-07-03T16:55:26Z</time>
      </trkpt>
      <trkpt lat="46.75769" lon="0.47202">
        <ele>78.1</ele>
        <time>2020-07-03T16:55:27Z</time>
      </trkpt>
      <trkpt lat="46.75765" lon="0.47196">
        <ele>78.2</ele>
        <time>2020-07-03T16:55:28Z</time>
      </trkpt>
      <trkpt lat="46.75761" lon="0.47192">
        <ele>78.2</ele>
        <time>2020-07-03T16:55:29Z</time>
      </trkpt>
      <trkpt lat="46.75757" lon="0.47187">
        <ele>78.3</ele>
        <time>2020-07-03T16:55:30Z</time>
      </trkpt>
      <trkpt lat="46.75753" lon="0.47184">
        <ele>78.3</ele>
        <time>2020-07-03T16:55:31Z</time>
      </trkpt>
      <trkpt lat="46.7575" lon="0.47179">
        <ele>78.4</ele>
        <time>2020-07-03T16:55:32Z</time>
      </trkpt>
      <trkpt lat="46.75747" lon="0.47174">
        <ele>78.5</ele>
        <time>2020-07-03T16:55:33Z</time>
      </trkpt>
      <trkpt lat="46.75743" lon="0.47168">
        <ele>78.5</ele>
        <time>2020-07-03T16:55:34Z</time>
      </trkpt>
      <trkpt lat="46.75739" lon="0.47164">
        <ele>78.6</ele>
        <time>2020-07-03T16:55:35Z</time>
      </trkpt>
      <trkpt lat="46.75735" lon="0.4716">
        <ele>78.7</ele>
        <time>2020-07-03T16:55:36Z</time>
      </trkpt>
      <trkpt lat="46.75732" lon="0.47155">
        <ele>78.7</ele>
        <time>2020-07-03T16:55:37Z</time>
      </trkpt>
      <trkpt lat="46.75728" lon="0.4715">
        <ele>78.8</ele>
        <time>2020-07-03T16:55:38Z</time>
      </trkpt>
      <trkpt lat="46.75725" lon="0.47145">
        <ele>78.9</ele>
        <time>2020-07-03T16:55:39Z</time>
      </trkpt>
      <trkpt lat="46.75721" lon="0.47138">
        <ele>78.9</ele>
        <time>2020-07-03T16:55:40Z</time>
      </trkpt>
      <trkpt lat="46.75717" lon="0.47132">
        <ele>79</ele>
        <time>2020-07-03T16:55:41Z</time>
      </trkpt>
      <trkpt lat="46.75713" lon="0.47126">
        <ele>79.1</ele>
        <time>2020-07-03T16:55:42Z</time>
      </trkpt>
      <trkpt lat="46.7571" lon="0.4712">
        <ele>79.1</ele>
        <time>2020-07-03T16:55:43Z</time>
      </trkpt>
      <trkpt lat="46.75707" lon="0.47114">
        <ele>79.1</ele>
        <time>2020-07-03T16:55:44Z</time>
      </trkpt>
      <trkpt lat="46.75704" lon="0.47109">
        <ele>79.1</ele>
        <time>2020-07-03T16:55:45Z</time>
      </trkpt>
      <trkpt lat="46.75701" lon="0.47103">
        <ele>79.1</ele>
        <time>2020-07-03T16:55:46Z</time>
      </trkpt>
      <trkpt lat="46.75697" lon="0.47098">
        <ele>79.1</ele>
        <time>2020-07-03T16:55:47Z</time>
      </trkpt>
      <trkpt lat="46.75691" lon="0.47097">
        <ele>79.1</ele>
        <time>2020-07-03T16:55:48Z</time>
      </trkpt>
      <trkpt lat="46.75688" lon="0.47092">
        <ele>79.1</ele>
        <time>2020-07-03T16:55:49Z</time>
      </trkpt>
      <trkpt lat="46.75684" lon="0.47084">
        <ele>79.1</ele>
        <time>2020-07-03T16:55:50Z</time>
      </trkpt>
      <trkpt lat="46.7568" lon="0.47078">
        <ele>79.1</ele>
        <time>2020-07-03T16:55:51Z</time>
      </trkpt>
      <trkpt lat="46.75678" lon="0.47072">
        <ele>79.1</ele>
        <time>2020-07-03T16:55:52Z</time>
      </trkpt>
      <trkpt lat="46.75675" lon="0.47066">
        <ele>79.1</ele>
        <time>2020-07-03T16:55:53Z</time>
      </trkpt>
      <trkpt lat="46.75672" lon="0.47061">
        <ele>79.1</ele>
        <time>2020-07-03T16:55:54Z</time>
      </trkpt>
      <trkpt lat="46.75669" lon="0.47055">
        <ele>79.2</ele>
        <time>2020-07-03T16:55:55Z</time>
      </trkpt>
      <trkpt lat="46.75666" lon="0.47049">
        <ele>79.2</ele>
        <time>2020-07-03T16:55:56Z</time>
      </trkpt>
      <trkpt lat="46.75663" lon="0.47042">
        <ele>79.3</ele>
        <time>2020-07-03T16:55:57Z</time>
      </trkpt>
      <trkpt lat="46.7566" lon="0.47035">
        <ele>79.4</ele>
        <time>2020-07-03T16:55:58Z</time>
      </trkpt>
      <trkpt lat="46.75656" lon="0.47027">
        <ele>79.5</ele>
        <time>2020-07-03T16:55:59Z</time>
      </trkpt>
      <trkpt lat="46.75653" lon="0.4702">
        <ele>79.6</ele>
        <time>2020-07-03T16:56:00Z</time>
      </trkpt>
      <trkpt lat="46.7565" lon="0.47013">
        <ele>79.7</ele>
        <time>2020-07-03T16:56:01Z</time>
      </trkpt>
      <trkpt lat="46.75647" lon="0.47007">
        <ele>79.8</ele>
        <time>2020-07-03T16:56:02Z</time>
      </trkpt>
      <trkpt lat="46.75644" lon="0.47">
        <ele>79.8</ele>
        <time>2020-07-03T16:56:03Z</time>
      </trkpt>
      <trkpt lat="46.75642" lon="0.46994">
        <ele>79.9</ele>
        <time>2020-07-03T16:56:04Z</time>
      </trkpt>
      <trkpt lat="46.75639" lon="0.46988">
        <ele>80</ele>
        <time>2020-07-03T16:56:05Z</time>
      </trkpt>
      <trkpt lat="46.75635" lon="0.46982">
        <ele>80</ele>
        <time>2020-07-03T16:56:06Z</time>
      </trkpt>
      <trkpt lat="46.75632" lon="0.46976">
        <ele>80.1</ele>
        <time>2020-07-03T16:56:07Z</time>
      </trkpt>
      <trkpt lat="46.7563" lon="0.4697">
        <ele>80.2</ele>
        <time>2020-07-03T16:56:08Z</time>
      </trkpt>
      <trkpt lat="46.75627" lon="0.46964">
        <ele>80.2</ele>
        <time>2020-07-03T16:56:09Z</time>
      </trkpt>
      <trkpt lat="46.75625" lon="0.46957">
        <ele>80.3</ele>
        <time>2020-07-03T16:56:10Z</time>
      </trkpt>
      <trkpt lat="46.75623" lon="0.46951">
        <ele>80.4</ele>
        <time>2020-07-03T16:56:11Z</time>
      </trkpt>
      <trkpt lat="46.7562" lon="0.46945">
        <ele>80.5</ele>
        <time>2020-07-03T16:56:12Z</time>
      </trkpt>
      <trkpt lat="46.75618" lon="0.46937">
        <ele>80.7</ele>
        <time>2020-07-03T16:56:13Z</time>
      </trkpt>
      <trkpt lat="46.75616" lon="0.4693">
        <ele>80.8</ele>
        <time>2020-07-03T16:56:14Z</time>
      </trkpt>
      <trkpt lat="46.75613" lon="0.46923">
        <ele>80.9</ele>
        <time>2020-07-03T16:56:15Z</time>
      </trkpt>
      <trkpt lat="46.7561" lon="0.46917">
        <ele>81</ele>
        <time>2020-07-03T16:56:16Z</time>
      </trkpt>
      <trkpt lat="46.75607" lon="0.46911">
        <ele>81.2</ele>
        <time>2020-07-03T16:56:17Z</time>
      </trkpt>
      <trkpt lat="46.75605" lon="0.46905">
        <ele>81.3</ele>
        <time>2020-07-03T16:56:18Z</time>
      </trkpt>
      <trkpt lat="46.75603" lon="0.469">
        <ele>81.4</ele>
        <time>2020-07-03T16:56:19Z</time>
      </trkpt>
      <trkpt lat="46.756" lon="0.46896">
        <ele>81.5</ele>
        <time>2020-07-03T16:56:20Z</time>
      </trkpt>
      <trkpt lat="46.75598" lon="0.46891">
        <ele>81.6</ele>
        <time>2020-07-03T16:56:21Z</time>
      </trkpt>
      <trkpt lat="46.75595" lon="0.46884">
        <ele>81.7</ele>
        <time>2020-07-03T16:56:22Z</time>
      </trkpt>
      <trkpt lat="46.75591" lon="0.4688">
        <ele>81.8</ele>
        <time>2020-07-03T16:56:23Z</time>
      </trkpt>
      <trkpt lat="46.75588" lon="0.46875">
        <ele>81.9</ele>
        <time>2020-07-03T16:56:24Z</time>
      </trkpt>
      <trkpt lat="46.75584" lon="0.46868">
        <ele>82.1</ele>
        <time>2020-07-03T16:56:25Z</time>
      </trkpt>
      <trkpt lat="46.75581" lon="0.46863">
        <ele>82.3</ele>
        <time>2020-07-03T16:56:26Z</time>
      </trkpt>
      <trkpt lat="46.75579" lon="0.46858">
        <ele>82.5</ele>
        <time>2020-07-03T16:56:27Z</time>
      </trkpt>
      <trkpt lat="46.75577" lon="0.46854">
        <ele>82.6</ele>
        <time>2020-07-03T16:56:28Z</time>
      </trkpt>
      <trkpt lat="46.75574" lon="0.4685">
        <ele>82.7</ele>
        <time>2020-07-03T16:56:29Z</time>
      </trkpt>
      <trkpt lat="46.75571" lon="0.46847">
        <ele>82.9</ele>
        <time>2020-07-03T16:56:30Z</time>
      </trkpt>
      <trkpt lat="46.75569" lon="0.46844">
        <ele>83</ele>
        <time>2020-07-03T16:56:31Z</time>
      </trkpt>
      <trkpt lat="46.75567" lon="0.46839">
        <ele>83.2</ele>
        <time>2020-07-03T16:56:32Z</time>
      </trkpt>
      <trkpt lat="46.75565" lon="0.46835">
        <ele>83.3</ele>
        <time>2020-07-03T16:56:33Z</time>
      </trkpt>
      <trkpt lat="46.75563" lon="0.46832">
        <ele>83.4</ele>
        <time>2020-07-03T16:56:34Z</time>
      </trkpt>
      <trkpt lat="46.7556" lon="0.46828">
        <ele>83.5</ele>
        <time>2020-07-03T16:56:35Z</time>
      </trkpt>
      <trkpt lat="46.75558" lon="0.46824">
        <ele>83.6</ele>
        <time>2020-07-03T16:56:36Z</time>
      </trkpt>
      <trkpt lat="46.75555" lon="0.46821">
        <ele>83.7</ele>
        <time>2020-07-03T16:56:37Z</time>
      </trkpt>
      <trkpt lat="46.75553" lon="0.46817">
        <ele>83.8</ele>
        <time>2020-07-03T16:56:38Z</time>
      </trkpt>
      <trkpt lat="46.75551" lon="0.46814">
        <ele>83.8</ele>
        <time>2020-07-03T16:56:39Z</time>
      </trkpt>
      <trkpt lat="46.75548" lon="0.4681">
        <ele>83.9</ele>
        <time>2020-07-03T16:56:40Z</time>
      </trkpt>
      <trkpt lat="46.75547" lon="0.46808">
        <ele>83.9</ele>
        <time>2020-07-03T16:56:41Z</time>
      </trkpt>
      <trkpt lat="46.75546" lon="0.46804">
        <ele>84</ele>
        <time>2020-07-03T16:56:42Z</time>
      </trkpt>
      <trkpt lat="46.75545" lon="0.468">
        <ele>84</ele>
        <time>2020-07-03T16:56:43Z</time>
      </trkpt>
      <trkpt lat="46.75542" lon="0.46797">
        <ele>84</ele>
        <time>2020-07-03T16:56:44Z</time>
      </trkpt>
      <trkpt lat="46.75541" lon="0.46794">
        <ele>84</ele>
        <time>2020-07-03T16:56:45Z</time>
      </trkpt>
      <trkpt lat="46.75539" lon="0.4679">
        <ele>84</ele>
        <time>2020-07-03T16:56:46Z</time>
      </trkpt>
      <trkpt lat="46.75536" lon="0.46786">
        <ele>84</ele>
        <time>2020-07-03T16:56:47Z</time>
      </trkpt>
      <trkpt lat="46.75535" lon="0.46781">
        <ele>83.9</ele>
        <time>2020-07-03T16:56:48Z</time>
      </trkpt>
      <trkpt lat="46.75533" lon="0.46776">
        <ele>83.9</ele>
        <time>2020-07-03T16:56:49Z</time>
      </trkpt>
      <trkpt lat="46.7553" lon="0.46771">
        <ele>83.9</ele>
        <time>2020-07-03T16:56:50Z</time>
      </trkpt>
      <trkpt lat="46.75528" lon="0.46766">
        <ele>83.9</ele>
        <time>2020-07-03T16:56:51Z</time>
      </trkpt>
      <trkpt lat="46.75525" lon="0.46761">
        <ele>83.8</ele>
        <time>2020-07-03T16:56:52Z</time>
      </trkpt>
      <trkpt lat="46.75524" lon="0.46755">
        <ele>83.7</ele>
        <time>2020-07-03T16:56:53Z</time>
      </trkpt>
      <trkpt lat="46.75522" lon="0.4675">
        <ele>83.7</ele>
        <time>2020-07-03T16:56:54Z</time>
      </trkpt>
      <trkpt lat="46.7552" lon="0.46744">
        <ele>83.6</ele>
        <time>2020-07-03T16:56:55Z</time>
      </trkpt>
      <trkpt lat="46.75518" lon="0.46737">
        <ele>83.5</ele>
        <time>2020-07-03T16:56:56Z</time>
      </trkpt>
      <trkpt lat="46.75516" lon="0.46729">
        <ele>83.4</ele>
        <time>2020-07-03T16:56:57Z</time>
      </trkpt>
      <trkpt lat="46.75513" lon="0.46724">
        <ele>83.4</ele>
        <time>2020-07-03T16:56:58Z</time>
      </trkpt>
      <trkpt lat="46.75509" lon="0.46718">
        <ele>83.3</ele>
        <time>2020-07-03T16:56:59Z</time>
      </trkpt>
      <trkpt lat="46.75506" lon="0.46713">
        <ele>83.3</ele>
        <time>2020-07-03T16:57:00Z</time>
      </trkpt>
      <trkpt lat="46.75504" lon="0.46706">
        <ele>83.3</ele>
        <time>2020-07-03T16:57:01Z</time>
      </trkpt>
      <trkpt lat="46.75502" lon="0.467">
        <ele>83.3</ele>
        <time>2020-07-03T16:57:02Z</time>
      </trkpt>
      <trkpt lat="46.75499" lon="0.46693">
        <ele>83.3</ele>
        <time>2020-07-03T16:57:03Z</time>
      </trkpt>
      <trkpt lat="46.75495" lon="0.46687">
        <ele>83.3</ele>
        <time>2020-07-03T16:57:04Z</time>
      </trkpt>
      <trkpt lat="46.75492" lon="0.46681">
        <ele>83.3</ele>
        <time>2020-07-03T16:57:05Z</time>
      </trkpt>
      <trkpt lat="46.75491" lon="0.46675">
        <ele>83.4</ele>
        <time>2020-07-03T16:57:06Z</time>
      </trkpt>
      <trkpt lat="46.75488" lon="0.46669">
        <ele>83.4</ele>
        <time>2020-07-03T16:57:07Z</time>
      </trkpt>
      <trkpt lat="46.75485" lon="0.46663">
        <ele>83.4</ele>
        <time>2020-07-03T16:57:08Z</time>
      </trkpt>
      <trkpt lat="46.75482" lon="0.46656">
        <ele>83.5</ele>
        <time>2020-07-03T16:57:09Z</time>
      </trkpt>
      <trkpt lat="46.7548" lon="0.46649">
        <ele>83.5</ele>
        <time>2020-07-03T16:57:10Z</time>
      </trkpt>
      <trkpt lat="46.75476" lon="0.46642">
        <ele>83.5</ele>
        <time>2020-07-03T16:57:11Z</time>
      </trkpt>
      <trkpt lat="46.75473" lon="0.46635">
        <ele>83.6</ele>
        <time>2020-07-03T16:57:12Z</time>
      </trkpt>
      <trkpt lat="46.7547" lon="0.46629">
        <ele>83.6</ele>
        <time>2020-07-03T16:57:13Z</time>
      </trkpt>
      <trkpt lat="46.75467" lon="0.46623">
        <ele>83.6</ele>
        <time>2020-07-03T16:57:14Z</time>
      </trkpt>
      <trkpt lat="46.75464" lon="0.46617">
        <ele>83.5</ele>
        <time>2020-07-03T16:57:15Z</time>
      </trkpt>
      <trkpt lat="46.7546" lon="0.46611">
        <ele>83.5</ele>
        <time>2020-07-03T16:57:16Z</time>
      </trkpt>
      <trkpt lat="46.75457" lon="0.46605">
        <ele>83.5</ele>
        <time>2020-07-03T16:57:17Z</time>
      </trkpt>
      <trkpt lat="46.75454" lon="0.466">
        <ele>83.5</ele>
        <time>2020-07-03T16:57:18Z</time>
      </trkpt>
      <trkpt lat="46.75451" lon="0.46592">
        <ele>83.4</ele>
        <time>2020-07-03T16:57:19Z</time>
      </trkpt>
      <trkpt lat="46.75448" lon="0.46586">
        <ele>83.4</ele>
        <time>2020-07-03T16:57:20Z</time>
      </trkpt>
      <trkpt lat="46.75444" lon="0.46579">
        <ele>83.4</ele>
        <time>2020-07-03T16:57:21Z</time>
      </trkpt>
      <trkpt lat="46.75441" lon="0.46572">
        <ele>83.3</ele>
        <time>2020-07-03T16:57:22Z</time>
      </trkpt>
      <trkpt lat="46.75438" lon="0.46566">
        <ele>83.3</ele>
        <time>2020-07-03T16:57:23Z</time>
      </trkpt>
      <trkpt lat="46.75434" lon="0.46559">
        <ele>83.3</ele>
        <time>2020-07-03T16:57:24Z</time>
      </trkpt>
      <trkpt lat="46.75431" lon="0.46551">
        <ele>83.3</ele>
        <time>2020-07-03T16:57:25Z</time>
      </trkpt>
      <trkpt lat="46.75428" lon="0.46545">
        <ele>83.3</ele>
        <time>2020-07-03T16:57:26Z</time>
      </trkpt>
      <trkpt lat="46.75425" lon="0.46538">
        <ele>83.2</ele>
        <time>2020-07-03T16:57:27Z</time>
      </trkpt>
      <trkpt lat="46.75421" lon="0.46532">
        <ele>83.2</ele>
        <time>2020-07-03T16:57:28Z</time>
      </trkpt>
      <trkpt lat="46.75418" lon="0.46526">
        <ele>83.2</ele>
        <time>2020-07-03T16:57:29Z</time>
      </trkpt>
      <trkpt lat="46.75414" lon="0.46518">
        <ele>83.2</ele>
        <time>2020-07-03T16:57:30Z</time>
      </trkpt>
      <trkpt lat="46.75411" lon="0.46512">
        <ele>83.2</ele>
        <time>2020-07-03T16:57:31Z</time>
      </trkpt>
      <trkpt lat="46.75408" lon="0.46504">
        <ele>83.3</ele>
        <time>2020-07-03T16:57:32Z</time>
      </trkpt>
      <trkpt lat="46.75404" lon="0.46497">
        <ele>83.3</ele>
        <time>2020-07-03T16:57:33Z</time>
      </trkpt>
      <trkpt lat="46.75401" lon="0.4649">
        <ele>83.3</ele>
        <time>2020-07-03T16:57:34Z</time>
      </trkpt>
      <trkpt lat="46.75398" lon="0.46482">
        <ele>83.4</ele>
        <time>2020-07-03T16:57:35Z</time>
      </trkpt>
      <trkpt lat="46.75396" lon="0.46475">
        <ele>83.5</ele>
        <time>2020-07-03T16:57:36Z</time>
      </trkpt>
      <trkpt lat="46.75393" lon="0.46469">
        <ele>83.5</ele>
        <time>2020-07-03T16:57:37Z</time>
      </trkpt>
      <trkpt lat="46.7539" lon="0.46463">
        <ele>83.7</ele>
        <time>2020-07-03T16:57:38Z</time>
      </trkpt>
      <trkpt lat="46.75387" lon="0.46457">
        <ele>83.8</ele>
        <time>2020-07-03T16:57:39Z</time>
      </trkpt>
      <trkpt lat="46.75382" lon="0.46452">
        <ele>84</ele>
        <time>2020-07-03T16:57:40Z</time>
      </trkpt>
      <trkpt lat="46.75379" lon="0.46447">
        <ele>84.1</ele>
        <time>2020-07-03T16:57:41Z</time>
      </trkpt>
      <trkpt lat="46.75376" lon="0.4644">
        <ele>84.2</ele>
        <time>2020-07-03T16:57:42Z</time>
      </trkpt>
      <trkpt lat="46.75373" lon="0.46434">
        <ele>84.4</ele>
        <time>2020-07-03T16:57:43Z</time>
      </trkpt>
      <trkpt lat="46.75371" lon="0.46428">
        <ele>84.5</ele>
        <time>2020-07-03T16:57:44Z</time>
      </trkpt>
      <trkpt lat="46.75368" lon="0.46423">
        <ele>84.6</ele>
        <time>2020-07-03T16:57:45Z</time>
      </trkpt>
      <trkpt lat="46.75365" lon="0.46418">
        <ele>84.8</ele>
        <time>2020-07-03T16:57:46Z</time>
      </trkpt>
      <trkpt lat="46.75362" lon="0.46414">
        <ele>84.9</ele>
        <time>2020-07-03T16:57:47Z</time>
      </trkpt>
      <trkpt lat="46.75359" lon="0.4641">
        <ele>85</ele>
        <time>2020-07-03T16:57:48Z</time>
      </trkpt>
      <trkpt lat="46.75356" lon="0.46407">
        <ele>85.2</ele>
        <time>2020-07-03T16:57:49Z</time>
      </trkpt>
      <trkpt lat="46.75353" lon="0.46403">
        <ele>85.3</ele>
        <time>2020-07-03T16:57:50Z</time>
      </trkpt>
      <trkpt lat="46.7535" lon="0.464">
        <ele>85.5</ele>
        <time>2020-07-03T16:57:51Z</time>
      </trkpt>
      <trkpt lat="46.75346" lon="0.46398">
        <ele>85.6</ele>
        <time>2020-07-03T16:57:52Z</time>
      </trkpt>
      <trkpt lat="46.75342" lon="0.46396">
        <ele>85.8</ele>
        <time>2020-07-03T16:57:53Z</time>
      </trkpt>
      <trkpt lat="46.75338" lon="0.46395">
        <ele>85.9</ele>
        <time>2020-07-03T16:57:54Z</time>
      </trkpt>
      <trkpt lat="46.75334" lon="0.46393">
        <ele>86</ele>
        <time>2020-07-03T16:57:55Z</time>
      </trkpt>
      <trkpt lat="46.75331" lon="0.46393">
        <ele>86.1</ele>
        <time>2020-07-03T16:57:56Z</time>
      </trkpt>
      <trkpt lat="46.75327" lon="0.46393">
        <ele>86.2</ele>
        <time>2020-07-03T16:57:57Z</time>
      </trkpt>
      <trkpt lat="46.75323" lon="0.46392">
        <ele>86.3</ele>
        <time>2020-07-03T16:57:58Z</time>
      </trkpt>
      <trkpt lat="46.7532" lon="0.46392">
        <ele>86.4</ele>
        <time>2020-07-03T16:57:59Z</time>
      </trkpt>
      <trkpt lat="46.75316" lon="0.46391">
        <ele>86.5</ele>
        <time>2020-07-03T16:58:00Z</time>
      </trkpt>
      <trkpt lat="46.75313" lon="0.46391">
        <ele>86.6</ele>
        <time>2020-07-03T16:58:01Z</time>
      </trkpt>
      <trkpt lat="46.75309" lon="0.4639">
        <ele>86.6</ele>
        <time>2020-07-03T16:58:02Z</time>
      </trkpt>
      <trkpt lat="46.75305" lon="0.46389">
        <ele>86.7</ele>
        <time>2020-07-03T16:58:03Z</time>
      </trkpt>
      <trkpt lat="46.753" lon="0.46388">
        <ele>86.8</ele>
        <time>2020-07-03T16:58:04Z</time>
      </trkpt>
      <trkpt lat="46.75296" lon="0.46387">
        <ele>86.8</ele>
        <time>2020-07-03T16:58:05Z</time>
      </trkpt>
      <trkpt lat="46.75292" lon="0.46386">
        <ele>86.8</ele>
        <time>2020-07-03T16:58:06Z</time>
      </trkpt>
      <trkpt lat="46.75288" lon="0.46385">
        <ele>86.8</ele>
        <time>2020-07-03T16:58:07Z</time>
      </trkpt>
      <trkpt lat="46.75284" lon="0.46384">
        <ele>86.8</ele>
        <time>2020-07-03T16:58:08Z</time>
      </trkpt>
      <trkpt lat="46.75279" lon="0.46383">
        <ele>86.8</ele>
        <time>2020-07-03T16:58:09Z</time>
      </trkpt>
      <trkpt lat="46.75274" lon="0.46381">
        <ele>86.8</ele>
        <time>2020-07-03T16:58:10Z</time>
      </trkpt>
      <trkpt lat="46.7527" lon="0.46379">
        <ele>86.8</ele>
        <time>2020-07-03T16:58:11Z</time>
      </trkpt>
      <trkpt lat="46.75266" lon="0.46376">
        <ele>86.9</ele>
        <time>2020-07-03T16:58:12Z</time>
      </trkpt>
      <trkpt lat="46.75261" lon="0.46371">
        <ele>86.9</ele>
        <time>2020-07-03T16:58:13Z</time>
      </trkpt>
      <trkpt lat="46.75257" lon="0.46367">
        <ele>87</ele>
        <time>2020-07-03T16:58:14Z</time>
      </trkpt>
      <trkpt lat="46.75253" lon="0.46362">
        <ele>87</ele>
        <time>2020-07-03T16:58:15Z</time>
      </trkpt>
      <trkpt lat="46.7525" lon="0.46358">
        <ele>87</ele>
        <time>2020-07-03T16:58:16Z</time>
      </trkpt>
      <trkpt lat="46.75247" lon="0.46353">
        <ele>87</ele>
        <time>2020-07-03T16:58:17Z</time>
      </trkpt>
      <trkpt lat="46.75243" lon="0.46348">
        <ele>87.1</ele>
        <time>2020-07-03T16:58:18Z</time>
      </trkpt>
      <trkpt lat="46.75239" lon="0.46344">
        <ele>87.1</ele>
        <time>2020-07-03T16:58:19Z</time>
      </trkpt>
      <trkpt lat="46.75236" lon="0.4634">
        <ele>87.1</ele>
        <time>2020-07-03T16:58:20Z</time>
      </trkpt>
      <trkpt lat="46.75232" lon="0.46335">
        <ele>87.1</ele>
        <time>2020-07-03T16:58:21Z</time>
      </trkpt>
      <trkpt lat="46.75229" lon="0.46331">
        <ele>87.2</ele>
        <time>2020-07-03T16:58:22Z</time>
      </trkpt>
      <trkpt lat="46.75225" lon="0.46327">
        <ele>87.2</ele>
        <time>2020-07-03T16:58:23Z</time>
      </trkpt>
      <trkpt lat="46.75221" lon="0.46322">
        <ele>87.3</ele>
        <time>2020-07-03T16:58:24Z</time>
      </trkpt>
      <trkpt lat="46.75217" lon="0.46317">
        <ele>87.3</ele>
        <time>2020-07-03T16:58:25Z</time>
      </trkpt>
      <trkpt lat="46.75213" lon="0.46312">
        <ele>87.4</ele>
        <time>2020-07-03T16:58:26Z</time>
      </trkpt>
      <trkpt lat="46.7521" lon="0.46306">
        <ele>87.5</ele>
        <time>2020-07-03T16:58:27Z</time>
      </trkpt>
      <trkpt lat="46.75206" lon="0.46301">
        <ele>87.6</ele>
        <time>2020-07-03T16:58:28Z</time>
      </trkpt>
      <trkpt lat="46.75202" lon="0.46296">
        <ele>87.7</ele>
        <time>2020-07-03T16:58:29Z</time>
      </trkpt>
      <trkpt lat="46.75199" lon="0.4629">
        <ele>87.9</ele>
        <time>2020-07-03T16:58:30Z</time>
      </trkpt>
      <trkpt lat="46.75195" lon="0.46285">
        <ele>88</ele>
        <time>2020-07-03T16:58:31Z</time>
      </trkpt>
      <trkpt lat="46.7519" lon="0.46281">
        <ele>88.3</ele>
        <time>2020-07-03T16:58:32Z</time>
      </trkpt>
      <trkpt lat="46.75187" lon="0.46276">
        <ele>88.3</ele>
        <time>2020-07-03T16:58:33Z</time>
      </trkpt>
      <trkpt lat="46.75184" lon="0.46271">
        <ele>88.3</ele>
        <time>2020-07-03T16:58:34Z</time>
      </trkpt>
      <trkpt lat="46.75181" lon="0.46268">
        <ele>88.3</ele>
        <time>2020-07-03T16:58:35Z</time>
      </trkpt>
      <trkpt lat="46.75178" lon="0.46265">
        <ele>88.4</ele>
        <time>2020-07-03T16:58:36Z</time>
      </trkpt>
      <trkpt lat="46.75174" lon="0.46261">
        <ele>88.5</ele>
        <time>2020-07-03T16:58:37Z</time>
      </trkpt>
      <trkpt lat="46.75171" lon="0.46258">
        <ele>88.7</ele>
        <time>2020-07-03T16:58:38Z</time>
      </trkpt>
      <trkpt lat="46.75168" lon="0.46254">
        <ele>88.8</ele>
        <time>2020-07-03T16:58:39Z</time>
      </trkpt>
      <trkpt lat="46.75164" lon="0.46251">
        <ele>88.9</ele>
        <time>2020-07-03T16:58:40Z</time>
      </trkpt>
      <trkpt lat="46.7516" lon="0.46247">
        <ele>89.1</ele>
        <time>2020-07-03T16:58:41Z</time>
      </trkpt>
      <trkpt lat="46.75156" lon="0.46242">
        <ele>89.2</ele>
        <time>2020-07-03T16:58:42Z</time>
      </trkpt>
      <trkpt lat="46.75152" lon="0.46238">
        <ele>89.4</ele>
        <time>2020-07-03T16:58:43Z</time>
      </trkpt>
      <trkpt lat="46.75148" lon="0.46233">
        <ele>89.6</ele>
        <time>2020-07-03T16:58:44Z</time>
      </trkpt>
      <trkpt lat="46.75144" lon="0.46229">
        <ele>89.8</ele>
        <time>2020-07-03T16:58:45Z</time>
      </trkpt>
      <trkpt lat="46.7514" lon="0.46225">
        <ele>90</ele>
        <time>2020-07-03T16:58:46Z</time>
      </trkpt>
      <trkpt lat="46.75137" lon="0.4622">
        <ele>90.1</ele>
        <time>2020-07-03T16:58:47Z</time>
      </trkpt>
      <trkpt lat="46.75133" lon="0.46216">
        <ele>90.3</ele>
        <time>2020-07-03T16:58:48Z</time>
      </trkpt>
      <trkpt lat="46.75131" lon="0.46212">
        <ele>90.5</ele>
        <time>2020-07-03T16:58:49Z</time>
      </trkpt>
      <trkpt lat="46.75127" lon="0.46208">
        <ele>90.7</ele>
        <time>2020-07-03T16:58:50Z</time>
      </trkpt>
      <trkpt lat="46.75124" lon="0.46205">
        <ele>90.9</ele>
        <time>2020-07-03T16:58:51Z</time>
      </trkpt>
      <trkpt lat="46.75121" lon="0.46201">
        <ele>91</ele>
        <time>2020-07-03T16:58:52Z</time>
      </trkpt>
      <trkpt lat="46.75118" lon="0.46197">
        <ele>91.3</ele>
        <time>2020-07-03T16:58:53Z</time>
      </trkpt>
      <trkpt lat="46.75115" lon="0.46194">
        <ele>91.5</ele>
        <time>2020-07-03T16:58:54Z</time>
      </trkpt>
      <trkpt lat="46.75112" lon="0.4619">
        <ele>91.7</ele>
        <time>2020-07-03T16:58:55Z</time>
      </trkpt>
      <trkpt lat="46.7511" lon="0.46186">
        <ele>91.8</ele>
        <time>2020-07-03T16:58:56Z</time>
      </trkpt>
      <trkpt lat="46.75107" lon="0.46181">
        <ele>92.1</ele>
        <time>2020-07-03T16:58:57Z</time>
      </trkpt>
      <trkpt lat="46.75104" lon="0.46176">
        <ele>92.3</ele>
        <time>2020-07-03T16:58:58Z</time>
      </trkpt>
      <trkpt lat="46.75101" lon="0.46172">
        <ele>92.5</ele>
        <time>2020-07-03T16:58:59Z</time>
      </trkpt>
      <trkpt lat="46.751" lon="0.46167">
        <ele>92.7</ele>
        <time>2020-07-03T16:59:00Z</time>
      </trkpt>
      <trkpt lat="46.75098" lon="0.46162">
        <ele>92.8</ele>
        <time>2020-07-03T16:59:01Z</time>
      </trkpt>
      <trkpt lat="46.75095" lon="0.46156">
        <ele>93.1</ele>
        <time>2020-07-03T16:59:02Z</time>
      </trkpt>
      <trkpt lat="46.75093" lon="0.46151">
        <ele>93.3</ele>
        <time>2020-07-03T16:59:03Z</time>
      </trkpt>
      <trkpt lat="46.7509" lon="0.46147">
        <ele>93.5</ele>
        <time>2020-07-03T16:59:04Z</time>
      </trkpt>
      <trkpt lat="46.75088" lon="0.46143">
        <ele>93.7</ele>
        <time>2020-07-03T16:59:05Z</time>
      </trkpt>
      <trkpt lat="46.75085" lon="0.46139">
        <ele>93.9</ele>
        <time>2020-07-03T16:59:06Z</time>
      </trkpt>
      <trkpt lat="46.75082" lon="0.46136">
        <ele>94.1</ele>
        <time>2020-07-03T16:59:07Z</time>
      </trkpt>
      <trkpt lat="46.7508" lon="0.46133">
        <ele>94.3</ele>
        <time>2020-07-03T16:59:08Z</time>
      </trkpt>
      <trkpt lat="46.75078" lon="0.46129">
        <ele>94.5</ele>
        <time>2020-07-03T16:59:09Z</time>
      </trkpt>
      <trkpt lat="46.75076" lon="0.46125">
        <ele>94.6</ele>
        <time>2020-07-03T16:59:10Z</time>
      </trkpt>
      <trkpt lat="46.75074" lon="0.46119">
        <ele>94.9</ele>
        <time>2020-07-03T16:59:11Z</time>
      </trkpt>
      <trkpt lat="46.75073" lon="0.46118">
        <ele>94.9</ele>
        <time>2020-07-03T16:59:12Z</time>
      </trkpt>
      <trkpt lat="46.7507" lon="0.46115">
        <ele>95.1</ele>
        <time>2020-07-03T16:59:13Z</time>
      </trkpt>
      <trkpt lat="46.75067" lon="0.46111">
        <ele>95.3</ele>
        <time>2020-07-03T16:59:14Z</time>
      </trkpt>
      <trkpt lat="46.75066" lon="0.4611">
        <ele>95.3</ele>
        <time>2020-07-03T16:59:15Z</time>
      </trkpt>
      <trkpt lat="46.75062" lon="0.46106">
        <ele>95.5</ele>
        <time>2020-07-03T16:59:16Z</time>
      </trkpt>
      <trkpt lat="46.7506" lon="0.46105">
        <ele>95.6</ele>
        <time>2020-07-03T16:59:17Z</time>
      </trkpt>
      <trkpt lat="46.75058" lon="0.461">
        <ele>95.8</ele>
        <time>2020-07-03T16:59:18Z</time>
      </trkpt>
      <trkpt lat="46.75055" lon="0.46096">
        <ele>95.9</ele>
        <time>2020-07-03T16:59:19Z</time>
      </trkpt>
      <trkpt lat="46.75053" lon="0.46092">
        <ele>96.1</ele>
        <time>2020-07-03T16:59:20Z</time>
      </trkpt>
      <trkpt lat="46.75052" lon="0.4609">
        <ele>96.1</ele>
        <time>2020-07-03T16:59:21Z</time>
      </trkpt>
      <trkpt lat="46.75048" lon="0.46088">
        <ele>96.3</ele>
        <time>2020-07-03T16:59:22Z</time>
      </trkpt>
      <trkpt lat="46.75045" lon="0.46085">
        <ele>96.4</ele>
        <time>2020-07-03T16:59:23Z</time>
      </trkpt>
      <trkpt lat="46.75044" lon="0.46085">
        <ele>96.5</ele>
        <time>2020-07-03T16:59:24Z</time>
      </trkpt>
      <trkpt lat="46.75041" lon="0.46082">
        <ele>96.6</ele>
        <time>2020-07-03T16:59:25Z</time>
      </trkpt>
      <trkpt lat="46.7504" lon="0.4608">
        <ele>96.7</ele>
        <time>2020-07-03T16:59:26Z</time>
      </trkpt>
      <trkpt lat="46.75039" lon="0.46077">
        <ele>96.7</ele>
        <time>2020-07-03T16:59:27Z</time>
      </trkpt>
      <trkpt lat="46.75036" lon="0.46073">
        <ele>96.9</ele>
        <time>2020-07-03T16:59:28Z</time>
      </trkpt>
      <trkpt lat="46.75035" lon="0.46071">
        <ele>96.9</ele>
        <time>2020-07-03T16:59:29Z</time>
      </trkpt>
      <trkpt lat="46.75033" lon="0.46069">
        <ele>97</ele>
        <time>2020-07-03T16:59:30Z</time>
      </trkpt>
      <trkpt lat="46.75032" lon="0.46068">
        <ele>97.1</ele>
        <time>2020-07-03T16:59:31Z</time>
      </trkpt>
      <trkpt lat="46.75029" lon="0.46065">
        <ele>97.2</ele>
        <time>2020-07-03T16:59:32Z</time>
      </trkpt>
      <trkpt lat="46.75028" lon="0.46064">
        <ele>97.2</ele>
        <time>2020-07-03T16:59:33Z</time>
      </trkpt>
      <trkpt lat="46.75026" lon="0.46062">
        <ele>97.3</ele>
        <time>2020-07-03T16:59:34Z</time>
      </trkpt>
      <trkpt lat="46.75023" lon="0.46058">
        <ele>97.4</ele>
        <time>2020-07-03T16:59:35Z</time>
      </trkpt>
      <trkpt lat="46.75022" lon="0.46057">
        <ele>97.4</ele>
        <time>2020-07-03T16:59:36Z</time>
      </trkpt>
      <trkpt lat="46.7502" lon="0.46053">
        <ele>97.5</ele>
        <time>2020-07-03T16:59:37Z</time>
      </trkpt>
      <trkpt lat="46.75019" lon="0.46051">
        <ele>97.5</ele>
        <time>2020-07-03T16:59:38Z</time>
      </trkpt>
      <trkpt lat="46.75016" lon="0.46047">
        <ele>97.6</ele>
        <time>2020-07-03T16:59:39Z</time>
      </trkpt>
      <trkpt lat="46.75014" lon="0.46046">
        <ele>97.7</ele>
        <time>2020-07-03T16:59:40Z</time>
      </trkpt>
      <trkpt lat="46.75012" lon="0.46044">
        <ele>97.7</ele>
        <time>2020-07-03T16:59:41Z</time>
      </trkpt>
      <trkpt lat="46.7501" lon="0.46041">
        <ele>97.8</ele>
        <time>2020-07-03T16:59:42Z</time>
      </trkpt>
      <trkpt lat="46.75008" lon="0.46039">
        <ele>97.9</ele>
        <time>2020-07-03T16:59:43Z</time>
      </trkpt>
      <trkpt lat="46.75005" lon="0.46036">
        <ele>98</ele>
        <time>2020-07-03T16:59:44Z</time>
      </trkpt>
      <trkpt lat="46.75004" lon="0.46033">
        <ele>98.1</ele>
        <time>2020-07-03T16:59:45Z</time>
      </trkpt>
      <trkpt lat="46.75001" lon="0.46029">
        <ele>98.2</ele>
        <time>2020-07-03T16:59:46Z</time>
      </trkpt>
      <trkpt lat="46.74999" lon="0.46025">
        <ele>98.4</ele>
        <time>2020-07-03T16:59:47Z</time>
      </trkpt>
      <trkpt lat="46.74996" lon="0.46022">
        <ele>98.5</ele>
        <time>2020-07-03T16:59:48Z</time>
      </trkpt>
      <trkpt lat="46.74993" lon="0.4602">
        <ele>98.7</ele>
        <time>2020-07-03T16:59:49Z</time>
      </trkpt>
      <trkpt lat="46.74991" lon="0.46017">
        <ele>98.8</ele>
        <time>2020-07-03T16:59:50Z</time>
      </trkpt>
      <trkpt lat="46.74989" lon="0.46014">
        <ele>98.9</ele>
        <time>2020-07-03T16:59:51Z</time>
      </trkpt>
      <trkpt lat="46.74986" lon="0.46012">
        <ele>99</ele>
        <time>2020-07-03T16:59:52Z</time>
      </trkpt>
      <trkpt lat="46.74984" lon="0.4601">
        <ele>99</ele>
        <time>2020-07-03T16:59:53Z</time>
      </trkpt>
      <trkpt lat="46.74981" lon="0.46008">
        <ele>99.1</ele>
        <time>2020-07-03T16:59:54Z</time>
      </trkpt>
      <trkpt lat="46.74977" lon="0.46004">
        <ele>99.2</ele>
        <time>2020-07-03T16:59:55Z</time>
      </trkpt>
      <trkpt lat="46.74973" lon="0.45999">
        <ele>99.4</ele>
        <time>2020-07-03T16:59:56Z</time>
      </trkpt>
      <trkpt lat="46.74969" lon="0.45994">
        <ele>99.5</ele>
        <time>2020-07-03T16:59:57Z</time>
      </trkpt>
      <trkpt lat="46.74964" lon="0.45991">
        <ele>99.6</ele>
        <time>2020-07-03T16:59:58Z</time>
      </trkpt>
      <trkpt lat="46.74961" lon="0.45986">
        <ele>99.8</ele>
        <time>2020-07-03T16:59:59Z</time>
      </trkpt>
      <trkpt lat="46.74957" lon="0.45983">
        <ele>99.9</ele>
        <time>2020-07-03T17:00:00Z</time>
      </trkpt>
      <trkpt lat="46.74952" lon="0.4598">
        <ele>100</ele>
        <time>2020-07-03T17:00:01Z</time>
      </trkpt>
      <trkpt lat="46.74948" lon="0.45976">
        <ele>100.1</ele>
        <time>2020-07-03T17:00:02Z</time>
      </trkpt>
      <trkpt lat="46.74945" lon="0.45972">
        <ele>100.3</ele>
        <time>2020-07-03T17:00:03Z</time>
      </trkpt>
      <trkpt lat="46.74941" lon="0.45968">
        <ele>100.4</ele>
        <time>2020-07-03T17:00:04Z</time>
      </trkpt>
      <trkpt lat="46.74937" lon="0.45964">
        <ele>100.5</ele>
        <time>2020-07-03T17:00:05Z</time>
      </trkpt>
      <trkpt lat="46.74933" lon="0.4596">
        <ele>100.6</ele>
        <time>2020-07-03T17:00:06Z</time>
      </trkpt>
      <trkpt lat="46.7493" lon="0.45956">
        <ele>100.7</ele>
        <time>2020-07-03T17:00:07Z</time>
      </trkpt>
      <trkpt lat="46.74927" lon="0.45952">
        <ele>100.8</ele>
        <time>2020-07-03T17:00:08Z</time>
      </trkpt>
      <trkpt lat="46.74923" lon="0.45948">
        <ele>100.9</ele>
        <time>2020-07-03T17:00:09Z</time>
      </trkpt>
      <trkpt lat="46.7492" lon="0.45944">
        <ele>101</ele>
        <time>2020-07-03T17:00:10Z</time>
      </trkpt>
      <trkpt lat="46.74916" lon="0.45942">
        <ele>101.1</ele>
        <time>2020-07-03T17:00:11Z</time>
      </trkpt>
      <trkpt lat="46.74913" lon="0.4594">
        <ele>101.1</ele>
        <time>2020-07-03T17:00:12Z</time>
      </trkpt>
      <trkpt lat="46.7491" lon="0.45938">
        <ele>101.2</ele>
        <time>2020-07-03T17:00:13Z</time>
      </trkpt>
      <trkpt lat="46.74906" lon="0.45934">
        <ele>101.2</ele>
        <time>2020-07-03T17:00:14Z</time>
      </trkpt>
      <trkpt lat="46.74902" lon="0.45931">
        <ele>101.3</ele>
        <time>2020-07-03T17:00:15Z</time>
      </trkpt>
      <trkpt lat="46.74898" lon="0.4593">
        <ele>101.3</ele>
        <time>2020-07-03T17:00:16Z</time>
      </trkpt>
      <trkpt lat="46.74895" lon="0.45927">
        <ele>101.4</ele>
        <time>2020-07-03T17:00:17Z</time>
      </trkpt>
      <trkpt lat="46.74893" lon="0.45926">
        <ele>101.4</ele>
        <time>2020-07-03T17:00:18Z</time>
      </trkpt>
      <trkpt lat="46.7489" lon="0.45922">
        <ele>101.4</ele>
        <time>2020-07-03T17:00:19Z</time>
      </trkpt>
      <trkpt lat="46.74886" lon="0.45919">
        <ele>101.3</ele>
        <time>2020-07-03T17:00:20Z</time>
      </trkpt>
      <trkpt lat="46.74881" lon="0.45917">
        <ele>101.2</ele>
        <time>2020-07-03T17:00:21Z</time>
      </trkpt>
      <trkpt lat="46.74877" lon="0.45914">
        <ele>101.1</ele>
        <time>2020-07-03T17:00:22Z</time>
      </trkpt>
      <trkpt lat="46.74874" lon="0.4591">
        <ele>100.9</ele>
        <time>2020-07-03T17:00:23Z</time>
      </trkpt>
      <trkpt lat="46.7487" lon="0.45906">
        <ele>100.7</ele>
        <time>2020-07-03T17:00:24Z</time>
      </trkpt>
      <trkpt lat="46.74866" lon="0.45901">
        <ele>100.5</ele>
        <time>2020-07-03T17:00:25Z</time>
      </trkpt>
      <trkpt lat="46.74863" lon="0.45897">
        <ele>100.2</ele>
        <time>2020-07-03T17:00:26Z</time>
      </trkpt>
      <trkpt lat="46.74859" lon="0.45894">
        <ele>100.3</ele>
        <time>2020-07-03T17:00:27Z</time>
      </trkpt>
      <trkpt lat="46.74858" lon="0.45894">
        <ele>100.3</ele>
        <time>2020-07-03T17:00:28Z</time>
      </trkpt>
      <trkpt lat="46.74854" lon="0.45893">
        <ele>100.4</ele>
        <time>2020-07-03T17:00:29Z</time>
      </trkpt>
      <trkpt lat="46.74853" lon="0.45893">
        <ele>100.4</ele>
        <time>2020-07-03T17:00:30Z</time>
      </trkpt>
      <trkpt lat="46.74848" lon="0.45892">
        <ele>100.4</ele>
        <time>2020-07-03T17:00:31Z</time>
      </trkpt>
      <trkpt lat="46.74844" lon="0.45891">
        <ele>100.4</ele>
        <time>2020-07-03T17:00:32Z</time>
      </trkpt>
      <trkpt lat="46.7484" lon="0.45891">
        <ele>100.3</ele>
        <time>2020-07-03T17:00:33Z</time>
      </trkpt>
      <trkpt lat="46.74837" lon="0.45888">
        <ele>100.2</ele>
        <time>2020-07-03T17:00:34Z</time>
      </trkpt>
      <trkpt lat="46.74833" lon="0.45886">
        <ele>100.1</ele>
        <time>2020-07-03T17:00:35Z</time>
      </trkpt>
      <trkpt lat="46.74829" lon="0.45884">
        <ele>100</ele>
        <time>2020-07-03T17:00:36Z</time>
      </trkpt>
      <trkpt lat="46.74825" lon="0.4588">
        <ele>99.9</ele>
        <time>2020-07-03T17:00:37Z</time>
      </trkpt>
      <trkpt lat="46.7482" lon="0.45877">
        <ele>99.8</ele>
        <time>2020-07-03T17:00:38Z</time>
      </trkpt>
      <trkpt lat="46.74815" lon="0.45873">
        <ele>99.7</ele>
        <time>2020-07-03T17:00:39Z</time>
      </trkpt>
      <trkpt lat="46.74811" lon="0.4587">
        <ele>99.6</ele>
        <time>2020-07-03T17:00:40Z</time>
      </trkpt>
      <trkpt lat="46.74806" lon="0.45868">
        <ele>99.5</ele>
        <time>2020-07-03T17:00:41Z</time>
      </trkpt>
      <trkpt lat="46.74801" lon="0.45865">
        <ele>99.3</ele>
        <time>2020-07-03T17:00:42Z</time>
      </trkpt>
      <trkpt lat="46.74795" lon="0.45862">
        <ele>99.2</ele>
        <time>2020-07-03T17:00:43Z</time>
      </trkpt>
      <trkpt lat="46.7479" lon="0.45859">
        <ele>99.1</ele>
        <time>2020-07-03T17:00:44Z</time>
      </trkpt>
      <trkpt lat="46.74784" lon="0.45856">
        <ele>99</ele>
        <time>2020-07-03T17:00:45Z</time>
      </trkpt>
      <trkpt lat="46.74779" lon="0.45853">
        <ele>99</ele>
        <time>2020-07-03T17:00:46Z</time>
      </trkpt>
      <trkpt lat="46.74775" lon="0.45849">
        <ele>98.9</ele>
        <time>2020-07-03T17:00:47Z</time>
      </trkpt>
      <trkpt lat="46.7477" lon="0.45845">
        <ele>98.9</ele>
        <time>2020-07-03T17:00:48Z</time>
      </trkpt>
      <trkpt lat="46.74765" lon="0.4584">
        <ele>98.8</ele>
        <time>2020-07-03T17:00:49Z</time>
      </trkpt>
      <trkpt lat="46.74761" lon="0.45836">
        <ele>98.8</ele>
        <time>2020-07-03T17:00:50Z</time>
      </trkpt>
      <trkpt lat="46.74755" lon="0.45831">
        <ele>98.7</ele>
        <time>2020-07-03T17:00:51Z</time>
      </trkpt>
      <trkpt lat="46.7475" lon="0.45825">
        <ele>98.7</ele>
        <time>2020-07-03T17:00:52Z</time>
      </trkpt>
      <trkpt lat="46.74746" lon="0.45821">
        <ele>98.6</ele>
        <time>2020-07-03T17:00:53Z</time>
      </trkpt>
      <trkpt lat="46.74742" lon="0.45815">
        <ele>98.6</ele>
        <time>2020-07-03T17:00:54Z</time>
      </trkpt>
      <trkpt lat="46.74737" lon="0.45811">
        <ele>98.4</ele>
        <time>2020-07-03T17:00:55Z</time>
      </trkpt>
      <trkpt lat="46.74733" lon="0.45805">
        <ele>98.3</ele>
        <time>2020-07-03T17:00:56Z</time>
      </trkpt>
      <trkpt lat="46.74728" lon="0.45799">
        <ele>98.1</ele>
        <time>2020-07-03T17:00:57Z</time>
      </trkpt>
      <trkpt lat="46.74723" lon="0.45794">
        <ele>98</ele>
        <time>2020-07-03T17:00:58Z</time>
      </trkpt>
      <trkpt lat="46.74718" lon="0.45789">
        <ele>97.9</ele>
        <time>2020-07-03T17:00:59Z</time>
      </trkpt>
      <trkpt lat="46.7471" lon="0.45782">
        <ele>97.7</ele>
        <time>2020-07-03T17:01:00Z</time>
      </trkpt>
      <trkpt lat="46.74707" lon="0.45777">
        <ele>97.6</ele>
        <time>2020-07-03T17:01:01Z</time>
      </trkpt>
      <trkpt lat="46.74703" lon="0.45771">
        <ele>97.5</ele>
        <time>2020-07-03T17:01:02Z</time>
      </trkpt>
      <trkpt lat="46.74699" lon="0.45765">
        <ele>97.3</ele>
        <time>2020-07-03T17:01:03Z</time>
      </trkpt>
      <trkpt lat="46.74695" lon="0.45758">
        <ele>97.2</ele>
        <time>2020-07-03T17:01:04Z</time>
      </trkpt>
      <trkpt lat="46.7469" lon="0.45751">
        <ele>97</ele>
        <time>2020-07-03T17:01:05Z</time>
      </trkpt>
      <trkpt lat="46.74686" lon="0.45744">
        <ele>97</ele>
        <time>2020-07-03T17:01:06Z</time>
      </trkpt>
      <trkpt lat="46.74681" lon="0.45737">
        <ele>96.9</ele>
        <time>2020-07-03T17:01:07Z</time>
      </trkpt>
      <trkpt lat="46.74676" lon="0.45728">
        <ele>96.9</ele>
        <time>2020-07-03T17:01:08Z</time>
      </trkpt>
      <trkpt lat="46.74674" lon="0.4572">
        <ele>96.8</ele>
        <time>2020-07-03T17:01:09Z</time>
      </trkpt>
      <trkpt lat="46.7467" lon="0.45713">
        <ele>96.8</ele>
        <time>2020-07-03T17:01:10Z</time>
      </trkpt>
      <trkpt lat="46.74667" lon="0.45705">
        <ele>96.8</ele>
        <time>2020-07-03T17:01:11Z</time>
      </trkpt>
      <trkpt lat="46.74663" lon="0.45697">
        <ele>96.7</ele>
        <time>2020-07-03T17:01:12Z</time>
      </trkpt>
      <trkpt lat="46.74659" lon="0.4569">
        <ele>96.7</ele>
        <time>2020-07-03T17:01:13Z</time>
      </trkpt>
      <trkpt lat="46.74654" lon="0.45682">
        <ele>96.6</ele>
        <time>2020-07-03T17:01:14Z</time>
      </trkpt>
      <trkpt lat="46.7465" lon="0.45674">
        <ele>96.5</ele>
        <time>2020-07-03T17:01:15Z</time>
      </trkpt>
      <trkpt lat="46.74645" lon="0.45667">
        <ele>96.4</ele>
        <time>2020-07-03T17:01:16Z</time>
      </trkpt>
      <trkpt lat="46.7464" lon="0.4566">
        <ele>96.3</ele>
        <time>2020-07-03T17:01:17Z</time>
      </trkpt>
      <trkpt lat="46.74635" lon="0.45652">
        <ele>96.2</ele>
        <time>2020-07-03T17:01:18Z</time>
      </trkpt>
      <trkpt lat="46.7463" lon="0.45645">
        <ele>96</ele>
        <time>2020-07-03T17:01:19Z</time>
      </trkpt>
      <trkpt lat="46.74626" lon="0.45637">
        <ele>95.9</ele>
        <time>2020-07-03T17:01:20Z</time>
      </trkpt>
      <trkpt lat="46.74621" lon="0.45629">
        <ele>95.7</ele>
        <time>2020-07-03T17:01:21Z</time>
      </trkpt>
      <trkpt lat="46.74617" lon="0.45621">
        <ele>95.5</ele>
        <time>2020-07-03T17:01:22Z</time>
      </trkpt>
      <trkpt lat="46.74613" lon="0.45612">
        <ele>95.4</ele>
        <time>2020-07-03T17:01:23Z</time>
      </trkpt>
      <trkpt lat="46.74609" lon="0.45604">
        <ele>95.2</ele>
        <time>2020-07-03T17:01:24Z</time>
      </trkpt>
      <trkpt lat="46.74605" lon="0.45596">
        <ele>95.1</ele>
        <time>2020-07-03T17:01:25Z</time>
      </trkpt>
      <trkpt lat="46.74601" lon="0.45587">
        <ele>94.9</ele>
        <time>2020-07-03T17:01:26Z</time>
      </trkpt>
      <trkpt lat="46.74597" lon="0.45577">
        <ele>94.8</ele>
        <time>2020-07-03T17:01:27Z</time>
      </trkpt>
      <trkpt lat="46.74593" lon="0.45569">
        <ele>94.6</ele>
        <time>2020-07-03T17:01:28Z</time>
      </trkpt>
      <trkpt lat="46.74588" lon="0.45559">
        <ele>94.3</ele>
        <time>2020-07-03T17:01:29Z</time>
      </trkpt>
      <trkpt lat="46.74583" lon="0.4555">
        <ele>94</ele>
        <time>2020-07-03T17:01:30Z</time>
      </trkpt>
      <trkpt lat="46.74579" lon="0.45541">
        <ele>93.8</ele>
        <time>2020-07-03T17:01:31Z</time>
      </trkpt>
      <trkpt lat="46.74575" lon="0.45532">
        <ele>93.5</ele>
        <time>2020-07-03T17:01:32Z</time>
      </trkpt>
      <trkpt lat="46.74571" lon="0.45523">
        <ele>93.2</ele>
        <time>2020-07-03T17:01:33Z</time>
      </trkpt>
      <trkpt lat="46.74568" lon="0.45515">
        <ele>92.9</ele>
        <time>2020-07-03T17:01:34Z</time>
      </trkpt>
      <trkpt lat="46.74565" lon="0.45505">
        <ele>92.7</ele>
        <time>2020-07-03T17:01:35Z</time>
      </trkpt>
      <trkpt lat="46.74562" lon="0.45496">
        <ele>92.5</ele>
        <time>2020-07-03T17:01:36Z</time>
      </trkpt>
      <trkpt lat="46.74558" lon="0.45486">
        <ele>92.5</ele>
        <time>2020-07-03T17:01:37Z</time>
      </trkpt>
      <trkpt lat="46.74554" lon="0.45477">
        <ele>92.4</ele>
        <time>2020-07-03T17:01:38Z</time>
      </trkpt>
      <trkpt lat="46.7455" lon="0.45468">
        <ele>92.5</ele>
        <time>2020-07-03T17:01:39Z</time>
      </trkpt>
      <trkpt lat="46.74545" lon="0.45461">
        <ele>92.5</ele>
        <time>2020-07-03T17:01:40Z</time>
      </trkpt>
      <trkpt lat="46.7454" lon="0.45454">
        <ele>92.5</ele>
        <time>2020-07-03T17:01:41Z</time>
      </trkpt>
      <trkpt lat="46.74534" lon="0.45448">
        <ele>92.6</ele>
        <time>2020-07-03T17:01:42Z</time>
      </trkpt>
      <trkpt lat="46.74529" lon="0.45442">
        <ele>92.6</ele>
        <time>2020-07-03T17:01:43Z</time>
      </trkpt>
      <trkpt lat="46.74523" lon="0.45437">
        <ele>92.7</ele>
        <time>2020-07-03T17:01:44Z</time>
      </trkpt>
      <trkpt lat="46.74517" lon="0.45432">
        <ele>92.8</ele>
        <time>2020-07-03T17:01:45Z</time>
      </trkpt>
      <trkpt lat="46.74512" lon="0.45428">
        <ele>92.9</ele>
        <time>2020-07-03T17:01:46Z</time>
      </trkpt>
      <trkpt lat="46.74506" lon="0.45424">
        <ele>93</ele>
        <time>2020-07-03T17:01:47Z</time>
      </trkpt>
      <trkpt lat="46.745" lon="0.45421">
        <ele>93.1</ele>
        <time>2020-07-03T17:01:48Z</time>
      </trkpt>
      <trkpt lat="46.74494" lon="0.45417">
        <ele>93.2</ele>
        <time>2020-07-03T17:01:49Z</time>
      </trkpt>
      <trkpt lat="46.74488" lon="0.45413">
        <ele>93.3</ele>
        <time>2020-07-03T17:01:50Z</time>
      </trkpt>
      <trkpt lat="46.74482" lon="0.45411">
        <ele>93.5</ele>
        <time>2020-07-03T17:01:51Z</time>
      </trkpt>
      <trkpt lat="46.74475" lon="0.45409">
        <ele>93.7</ele>
        <time>2020-07-03T17:01:52Z</time>
      </trkpt>
      <trkpt lat="46.74469" lon="0.45408">
        <ele>93.9</ele>
        <time>2020-07-03T17:01:53Z</time>
      </trkpt>
      <trkpt lat="46.74462" lon="0.45407">
        <ele>94.1</ele>
        <time>2020-07-03T17:01:54Z</time>
      </trkpt>
      <trkpt lat="46.74455" lon="0.45406">
        <ele>94.4</ele>
        <time>2020-07-03T17:01:55Z</time>
      </trkpt>
      <trkpt lat="46.74449" lon="0.45406">
        <ele>94.7</ele>
        <time>2020-07-03T17:01:56Z</time>
      </trkpt>
      <trkpt lat="46.74442" lon="0.45405">
        <ele>95</ele>
        <time>2020-07-03T17:01:57Z</time>
      </trkpt>
      <trkpt lat="46.74436" lon="0.45404">
        <ele>95.3</ele>
        <time>2020-07-03T17:01:58Z</time>
      </trkpt>
      <trkpt lat="46.7443" lon="0.45402">
        <ele>95.6</ele>
        <time>2020-07-03T17:01:59Z</time>
      </trkpt>
      <trkpt lat="46.74424" lon="0.454">
        <ele>95.9</ele>
        <time>2020-07-03T17:02:00Z</time>
      </trkpt>
      <trkpt lat="46.74418" lon="0.45398">
        <ele>96.1</ele>
        <time>2020-07-03T17:02:01Z</time>
      </trkpt>
      <trkpt lat="46.74413" lon="0.45396">
        <ele>96.4</ele>
        <time>2020-07-03T17:02:02Z</time>
      </trkpt>
      <trkpt lat="46.74407" lon="0.45394">
        <ele>96.6</ele>
        <time>2020-07-03T17:02:03Z</time>
      </trkpt>
      <trkpt lat="46.74401" lon="0.45392">
        <ele>96.9</ele>
        <time>2020-07-03T17:02:04Z</time>
      </trkpt>
      <trkpt lat="46.74396" lon="0.45389">
        <ele>97.2</ele>
        <time>2020-07-03T17:02:05Z</time>
      </trkpt>
      <trkpt lat="46.74391" lon="0.45386">
        <ele>97.5</ele>
        <time>2020-07-03T17:02:06Z</time>
      </trkpt>
      <trkpt lat="46.74386" lon="0.45384">
        <ele>97.8</ele>
        <time>2020-07-03T17:02:07Z</time>
      </trkpt>
      <trkpt lat="46.74382" lon="0.45381">
        <ele>98</ele>
        <time>2020-07-03T17:02:08Z</time>
      </trkpt>
      <trkpt lat="46.74379" lon="0.45378">
        <ele>98.2</ele>
        <time>2020-07-03T17:02:09Z</time>
      </trkpt>
      <trkpt lat="46.74376" lon="0.45375">
        <ele>98.4</ele>
        <time>2020-07-03T17:02:10Z</time>
      </trkpt>
      <trkpt lat="46.74374" lon="0.45371">
        <ele>98.6</ele>
        <time>2020-07-03T17:02:11Z</time>
      </trkpt>
      <trkpt lat="46.74372" lon="0.45368">
        <ele>98.7</ele>
        <time>2020-07-03T17:02:12Z</time>
      </trkpt>
      <trkpt lat="46.74369" lon="0.45364">
        <ele>98.8</ele>
        <time>2020-07-03T17:02:13Z</time>
      </trkpt>
      <trkpt lat="46.74366" lon="0.45363">
        <ele>98.9</ele>
        <time>2020-07-03T17:02:14Z</time>
      </trkpt>
      <trkpt lat="46.74364" lon="0.45361">
        <ele>99.1</ele>
        <time>2020-07-03T17:02:15Z</time>
      </trkpt>
      <trkpt lat="46.7436" lon="0.45359">
        <ele>99.2</ele>
        <time>2020-07-03T17:02:16Z</time>
      </trkpt>
      <trkpt lat="46.74357" lon="0.45355">
        <ele>99.4</ele>
        <time>2020-07-03T17:02:17Z</time>
      </trkpt>
      <trkpt lat="46.74354" lon="0.45351">
        <ele>99.5</ele>
        <time>2020-07-03T17:02:18Z</time>
      </trkpt>
      <trkpt lat="46.74351" lon="0.45347">
        <ele>99.7</ele>
        <time>2020-07-03T17:02:19Z</time>
      </trkpt>
      <trkpt lat="46.74347" lon="0.45343">
        <ele>99.9</ele>
        <time>2020-07-03T17:02:20Z</time>
      </trkpt>
      <trkpt lat="46.74344" lon="0.4534">
        <ele>100</ele>
        <time>2020-07-03T17:02:21Z</time>
      </trkpt>
      <trkpt lat="46.74343" lon="0.45338">
        <ele>100.1</ele>
        <time>2020-07-03T17:02:22Z</time>
      </trkpt>
      <trkpt lat="46.74339" lon="0.45335">
        <ele>100.2</ele>
        <time>2020-07-03T17:02:23Z</time>
      </trkpt>
      <trkpt lat="46.74335" lon="0.45332">
        <ele>100.3</ele>
        <time>2020-07-03T17:02:24Z</time>
      </trkpt>
      <trkpt lat="46.74332" lon="0.45331">
        <ele>100.3</ele>
        <time>2020-07-03T17:02:25Z</time>
      </trkpt>
      <trkpt lat="46.7433" lon="0.45328">
        <ele>100.4</ele>
        <time>2020-07-03T17:02:26Z</time>
      </trkpt>
      <trkpt lat="46.74327" lon="0.45325">
        <ele>100.4</ele>
        <time>2020-07-03T17:02:27Z</time>
      </trkpt>
      <trkpt lat="46.74323" lon="0.45322">
        <ele>100.5</ele>
        <time>2020-07-03T17:02:28Z</time>
      </trkpt>
      <trkpt lat="46.7432" lon="0.45319">
        <ele>100.5</ele>
        <time>2020-07-03T17:02:29Z</time>
      </trkpt>
      <trkpt lat="46.74317" lon="0.45316">
        <ele>100.6</ele>
        <time>2020-07-03T17:02:30Z</time>
      </trkpt>
      <trkpt lat="46.74313" lon="0.45312">
        <ele>100.6</ele>
        <time>2020-07-03T17:02:31Z</time>
      </trkpt>
      <trkpt lat="46.74311" lon="0.45307">
        <ele>100.7</ele>
        <time>2020-07-03T17:02:32Z</time>
      </trkpt>
      <trkpt lat="46.74308" lon="0.45303">
        <ele>100.7</ele>
        <time>2020-07-03T17:02:33Z</time>
      </trkpt>
      <trkpt lat="46.74306" lon="0.45298">
        <ele>100.7</ele>
        <time>2020-07-03T17:02:34Z</time>
      </trkpt>
      <trkpt lat="46.74303" lon="0.45295">
        <ele>100.7</ele>
        <time>2020-07-03T17:02:35Z</time>
      </trkpt>
      <trkpt lat="46.743" lon="0.45291">
        <ele>100.7</ele>
        <time>2020-07-03T17:02:36Z</time>
      </trkpt>
      <trkpt lat="46.74297" lon="0.45286">
        <ele>100.6</ele>
        <time>2020-07-03T17:02:37Z</time>
      </trkpt>
      <trkpt lat="46.74293" lon="0.45282">
        <ele>100.5</ele>
        <time>2020-07-03T17:02:38Z</time>
      </trkpt>
      <trkpt lat="46.74289" lon="0.45277">
        <ele>100.4</ele>
        <time>2020-07-03T17:02:39Z</time>
      </trkpt>
      <trkpt lat="46.74285" lon="0.45272">
        <ele>100.3</ele>
        <time>2020-07-03T17:02:40Z</time>
      </trkpt>
      <trkpt lat="46.7428" lon="0.45267">
        <ele>100.1</ele>
        <time>2020-07-03T17:02:41Z</time>
      </trkpt>
      <trkpt lat="46.74277" lon="0.45261">
        <ele>100</ele>
        <time>2020-07-03T17:02:42Z</time>
      </trkpt>
      <trkpt lat="46.74275" lon="0.45256">
        <ele>99.8</ele>
        <time>2020-07-03T17:02:43Z</time>
      </trkpt>
      <trkpt lat="46.74272" lon="0.4525">
        <ele>99.6</ele>
        <time>2020-07-03T17:02:44Z</time>
      </trkpt>
      <trkpt lat="46.74269" lon="0.45245">
        <ele>99.4</ele>
        <time>2020-07-03T17:02:45Z</time>
      </trkpt>
      <trkpt lat="46.74266" lon="0.45239">
        <ele>99.2</ele>
        <time>2020-07-03T17:02:46Z</time>
      </trkpt>
      <trkpt lat="46.74263" lon="0.45235">
        <ele>99</ele>
        <time>2020-07-03T17:02:47Z</time>
      </trkpt>
      <trkpt lat="46.74261" lon="0.45231">
        <ele>98.8</ele>
        <time>2020-07-03T17:02:48Z</time>
      </trkpt>
      <trkpt lat="46.74258" lon="0.45225">
        <ele>98.6</ele>
        <time>2020-07-03T17:02:49Z</time>
      </trkpt>
      <trkpt lat="46.74254" lon="0.45219">
        <ele>98.2</ele>
        <time>2020-07-03T17:02:50Z</time>
      </trkpt>
      <trkpt lat="46.7425" lon="0.45212">
        <ele>97.9</ele>
        <time>2020-07-03T17:02:51Z</time>
      </trkpt>
      <trkpt lat="46.74246" lon="0.45205">
        <ele>97.5</ele>
        <time>2020-07-03T17:02:52Z</time>
      </trkpt>
      <trkpt lat="46.74241" lon="0.45197">
        <ele>97.1</ele>
        <time>2020-07-03T17:02:53Z</time>
      </trkpt>
      <trkpt lat="46.74235" lon="0.45189">
        <ele>96.5</ele>
        <time>2020-07-03T17:02:54Z</time>
      </trkpt>
      <trkpt lat="46.74229" lon="0.4518">
        <ele>96.1</ele>
        <time>2020-07-03T17:02:55Z</time>
      </trkpt>
      <trkpt lat="46.74224" lon="0.45171">
        <ele>95.6</ele>
        <time>2020-07-03T17:02:56Z</time>
      </trkpt>
      <trkpt lat="46.74218" lon="0.45163">
        <ele>95.1</ele>
        <time>2020-07-03T17:02:57Z</time>
      </trkpt>
      <trkpt lat="46.74213" lon="0.45154">
        <ele>94.6</ele>
        <time>2020-07-03T17:02:58Z</time>
      </trkpt>
      <trkpt lat="46.74207" lon="0.45145">
        <ele>94</ele>
        <time>2020-07-03T17:02:59Z</time>
      </trkpt>
      <trkpt lat="46.74201" lon="0.45136">
        <ele>93.3</ele>
        <time>2020-07-03T17:03:00Z</time>
      </trkpt>
      <trkpt lat="46.74195" lon="0.45126">
        <ele>92.6</ele>
        <time>2020-07-03T17:03:01Z</time>
      </trkpt>
      <trkpt lat="46.74189" lon="0.45115">
        <ele>92.2</ele>
        <time>2020-07-03T17:03:02Z</time>
      </trkpt>
      <trkpt lat="46.74184" lon="0.45105">
        <ele>91.9</ele>
        <time>2020-07-03T17:03:03Z</time>
      </trkpt>
      <trkpt lat="46.74178" lon="0.45096">
        <ele>91.6</ele>
        <time>2020-07-03T17:03:04Z</time>
      </trkpt>
      <trkpt lat="46.74174" lon="0.45086">
        <ele>91.3</ele>
        <time>2020-07-03T17:03:05Z</time>
      </trkpt>
      <trkpt lat="46.74168" lon="0.45077">
        <ele>91</ele>
        <time>2020-07-03T17:03:06Z</time>
      </trkpt>
      <trkpt lat="46.74164" lon="0.45067">
        <ele>90.8</ele>
        <time>2020-07-03T17:03:07Z</time>
      </trkpt>
      <trkpt lat="46.74159" lon="0.45056">
        <ele>90.6</ele>
        <time>2020-07-03T17:03:08Z</time>
      </trkpt>
      <trkpt lat="46.74155" lon="0.45046">
        <ele>90.4</ele>
        <time>2020-07-03T17:03:09Z</time>
      </trkpt>
      <trkpt lat="46.7415" lon="0.45036">
        <ele>90.2</ele>
        <time>2020-07-03T17:03:10Z</time>
      </trkpt>
      <trkpt lat="46.74146" lon="0.45025">
        <ele>90.1</ele>
        <time>2020-07-03T17:03:11Z</time>
      </trkpt>
      <trkpt lat="46.74141" lon="0.45014">
        <ele>89.9</ele>
        <time>2020-07-03T17:03:12Z</time>
      </trkpt>
      <trkpt lat="46.74136" lon="0.45004">
        <ele>89.9</ele>
        <time>2020-07-03T17:03:13Z</time>
      </trkpt>
      <trkpt lat="46.74131" lon="0.44995">
        <ele>89.8</ele>
        <time>2020-07-03T17:03:14Z</time>
      </trkpt>
      <trkpt lat="46.74126" lon="0.44985">
        <ele>89.8</ele>
        <time>2020-07-03T17:03:15Z</time>
      </trkpt>
      <trkpt lat="46.74122" lon="0.44975">
        <ele>89.8</ele>
        <time>2020-07-03T17:03:16Z</time>
      </trkpt>
      <trkpt lat="46.74118" lon="0.44965">
        <ele>89.9</ele>
        <time>2020-07-03T17:03:17Z</time>
      </trkpt>
      <trkpt lat="46.74114" lon="0.44956">
        <ele>89.9</ele>
        <time>2020-07-03T17:03:18Z</time>
      </trkpt>
      <trkpt lat="46.74109" lon="0.44947">
        <ele>90</ele>
        <time>2020-07-03T17:03:19Z</time>
      </trkpt>
      <trkpt lat="46.74105" lon="0.44938">
        <ele>90</ele>
        <time>2020-07-03T17:03:20Z</time>
      </trkpt>
      <trkpt lat="46.74101" lon="0.44929">
        <ele>90.1</ele>
        <time>2020-07-03T17:03:21Z</time>
      </trkpt>
      <trkpt lat="46.74097" lon="0.4492">
        <ele>90.2</ele>
        <time>2020-07-03T17:03:22Z</time>
      </trkpt>
      <trkpt lat="46.74093" lon="0.44912">
        <ele>90.4</ele>
        <time>2020-07-03T17:03:23Z</time>
      </trkpt>
      <trkpt lat="46.7409" lon="0.44904">
        <ele>90.6</ele>
        <time>2020-07-03T17:03:24Z</time>
      </trkpt>
      <trkpt lat="46.74087" lon="0.44896">
        <ele>90.7</ele>
        <time>2020-07-03T17:03:25Z</time>
      </trkpt>
      <trkpt lat="46.74083" lon="0.44888">
        <ele>90.9</ele>
        <time>2020-07-03T17:03:26Z</time>
      </trkpt>
      <trkpt lat="46.74079" lon="0.44881">
        <ele>91</ele>
        <time>2020-07-03T17:03:27Z</time>
      </trkpt>
      <trkpt lat="46.74076" lon="0.44874">
        <ele>91.2</ele>
        <time>2020-07-03T17:03:28Z</time>
      </trkpt>
      <trkpt lat="46.74072" lon="0.44867">
        <ele>91.3</ele>
        <time>2020-07-03T17:03:29Z</time>
      </trkpt>
      <trkpt lat="46.74068" lon="0.4486">
        <ele>91.5</ele>
        <time>2020-07-03T17:03:30Z</time>
      </trkpt>
      <trkpt lat="46.74065" lon="0.44853">
        <ele>91.7</ele>
        <time>2020-07-03T17:03:31Z</time>
      </trkpt>
      <trkpt lat="46.7406" lon="0.44848">
        <ele>91.9</ele>
        <time>2020-07-03T17:03:32Z</time>
      </trkpt>
      <trkpt lat="46.74055" lon="0.44843">
        <ele>92</ele>
        <time>2020-07-03T17:03:33Z</time>
      </trkpt>
      <trkpt lat="46.7405" lon="0.44839">
        <ele>92.2</ele>
        <time>2020-07-03T17:03:34Z</time>
      </trkpt>
      <trkpt lat="46.74046" lon="0.44833">
        <ele>92.4</ele>
        <time>2020-07-03T17:03:35Z</time>
      </trkpt>
      <trkpt lat="46.74042" lon="0.44827">
        <ele>92.5</ele>
        <time>2020-07-03T17:03:36Z</time>
      </trkpt>
      <trkpt lat="46.74038" lon="0.44823">
        <ele>92.7</ele>
        <time>2020-07-03T17:03:37Z</time>
      </trkpt>
      <trkpt lat="46.74034" lon="0.44818">
        <ele>92.9</ele>
        <time>2020-07-03T17:03:38Z</time>
      </trkpt>
      <trkpt lat="46.74029" lon="0.44814">
        <ele>93.1</ele>
        <time>2020-07-03T17:03:39Z</time>
      </trkpt>
      <trkpt lat="46.74025" lon="0.4481">
        <ele>93.3</ele>
        <time>2020-07-03T17:03:40Z</time>
      </trkpt>
      <trkpt lat="46.74021" lon="0.44806">
        <ele>93.5</ele>
        <time>2020-07-03T17:03:41Z</time>
      </trkpt>
      <trkpt lat="46.74017" lon="0.44802">
        <ele>93.7</ele>
        <time>2020-07-03T17:03:42Z</time>
      </trkpt>
      <trkpt lat="46.74013" lon="0.44799">
        <ele>93.9</ele>
        <time>2020-07-03T17:03:43Z</time>
      </trkpt>
      <trkpt lat="46.74009" lon="0.44797">
        <ele>94</ele>
        <time>2020-07-03T17:03:44Z</time>
      </trkpt>
      <trkpt lat="46.74006" lon="0.44794">
        <ele>94.2</ele>
        <time>2020-07-03T17:03:45Z</time>
      </trkpt>
      <trkpt lat="46.74003" lon="0.44791">
        <ele>94.3</ele>
        <time>2020-07-03T17:03:46Z</time>
      </trkpt>
      <trkpt lat="46.74001" lon="0.44788">
        <ele>94.4</ele>
        <time>2020-07-03T17:03:47Z</time>
      </trkpt>
      <trkpt lat="46.73998" lon="0.44784">
        <ele>94.5</ele>
        <time>2020-07-03T17:03:48Z</time>
      </trkpt>
      <trkpt lat="46.73995" lon="0.4478">
        <ele>94.6</ele>
        <time>2020-07-03T17:03:49Z</time>
      </trkpt>
      <trkpt lat="46.73993" lon="0.44775">
        <ele>94.8</ele>
        <time>2020-07-03T17:03:50Z</time>
      </trkpt>
      <trkpt lat="46.73989" lon="0.44772">
        <ele>94.9</ele>
        <time>2020-07-03T17:03:51Z</time>
      </trkpt>
      <trkpt lat="46.73984" lon="0.44769">
        <ele>95</ele>
        <time>2020-07-03T17:03:52Z</time>
      </trkpt>
      <trkpt lat="46.7398" lon="0.44765">
        <ele>95.1</ele>
        <time>2020-07-03T17:03:53Z</time>
      </trkpt>
      <trkpt lat="46.73976" lon="0.44761">
        <ele>95.2</ele>
        <time>2020-07-03T17:03:54Z</time>
      </trkpt>
      <trkpt lat="46.73973" lon="0.44759">
        <ele>95.3</ele>
        <time>2020-07-03T17:03:55Z</time>
      </trkpt>
      <trkpt lat="46.73971" lon="0.44755">
        <ele>95.4</ele>
        <time>2020-07-03T17:03:56Z</time>
      </trkpt>
      <trkpt lat="46.73968" lon="0.44752">
        <ele>95.5</ele>
        <time>2020-07-03T17:03:57Z</time>
      </trkpt>
      <trkpt lat="46.73965" lon="0.44747">
        <ele>95.5</ele>
        <time>2020-07-03T17:03:58Z</time>
      </trkpt>
      <trkpt lat="46.73962" lon="0.44743">
        <ele>95.6</ele>
        <time>2020-07-03T17:03:59Z</time>
      </trkpt>
      <trkpt lat="46.73959" lon="0.44739">
        <ele>95.7</ele>
        <time>2020-07-03T17:04:00Z</time>
      </trkpt>
      <trkpt lat="46.73954" lon="0.44737">
        <ele>95.7</ele>
        <time>2020-07-03T17:04:01Z</time>
      </trkpt>
      <trkpt lat="46.73951" lon="0.44734">
        <ele>95.8</ele>
        <time>2020-07-03T17:04:02Z</time>
      </trkpt>
      <trkpt lat="46.73948" lon="0.44731">
        <ele>95.8</ele>
        <time>2020-07-03T17:04:03Z</time>
      </trkpt>
      <trkpt lat="46.73944" lon="0.44728">
        <ele>95.9</ele>
        <time>2020-07-03T17:04:04Z</time>
      </trkpt>
      <trkpt lat="46.7394" lon="0.44724">
        <ele>95.9</ele>
        <time>2020-07-03T17:04:05Z</time>
      </trkpt>
      <trkpt lat="46.73937" lon="0.44722">
        <ele>96</ele>
        <time>2020-07-03T17:04:06Z</time>
      </trkpt>
      <trkpt lat="46.73933" lon="0.44718">
        <ele>96</ele>
        <time>2020-07-03T17:04:07Z</time>
      </trkpt>
      <trkpt lat="46.73929" lon="0.44715">
        <ele>96</ele>
        <time>2020-07-03T17:04:08Z</time>
      </trkpt>
      <trkpt lat="46.73924" lon="0.44712">
        <ele>96</ele>
        <time>2020-07-03T17:04:09Z</time>
      </trkpt>
      <trkpt lat="46.73921" lon="0.44709">
        <ele>96</ele>
        <time>2020-07-03T17:04:10Z</time>
      </trkpt>
      <trkpt lat="46.73917" lon="0.44705">
        <ele>96.1</ele>
        <time>2020-07-03T17:04:11Z</time>
      </trkpt>
      <trkpt lat="46.73913" lon="0.44701">
        <ele>96.1</ele>
        <time>2020-07-03T17:04:12Z</time>
      </trkpt>
      <trkpt lat="46.73909" lon="0.44697">
        <ele>96.1</ele>
        <time>2020-07-03T17:04:13Z</time>
      </trkpt>
      <trkpt lat="46.73903" lon="0.44694">
        <ele>96.1</ele>
        <time>2020-07-03T17:04:14Z</time>
      </trkpt>
      <trkpt lat="46.73898" lon="0.4469">
        <ele>96</ele>
        <time>2020-07-03T17:04:15Z</time>
      </trkpt>
      <trkpt lat="46.73893" lon="0.44686">
        <ele>96</ele>
        <time>2020-07-03T17:04:16Z</time>
      </trkpt>
      <trkpt lat="46.73887" lon="0.44683">
        <ele>96</ele>
        <time>2020-07-03T17:04:17Z</time>
      </trkpt>
      <trkpt lat="46.73882" lon="0.44679">
        <ele>95.9</ele>
        <time>2020-07-03T17:04:18Z</time>
      </trkpt>
      <trkpt lat="46.73877" lon="0.44677">
        <ele>95.9</ele>
        <time>2020-07-03T17:04:19Z</time>
      </trkpt>
      <trkpt lat="46.73871" lon="0.44674">
        <ele>95.9</ele>
        <time>2020-07-03T17:04:20Z</time>
      </trkpt>
      <trkpt lat="46.73865" lon="0.4467">
        <ele>95.9</ele>
        <time>2020-07-03T17:04:21Z</time>
      </trkpt>
      <trkpt lat="46.7386" lon="0.44667">
        <ele>95.9</ele>
        <time>2020-07-03T17:04:22Z</time>
      </trkpt>
      <trkpt lat="46.73855" lon="0.44663">
        <ele>95.9</ele>
        <time>2020-07-03T17:04:23Z</time>
      </trkpt>
      <trkpt lat="46.73849" lon="0.44659">
        <ele>95.9</ele>
        <time>2020-07-03T17:04:24Z</time>
      </trkpt>
      <trkpt lat="46.73844" lon="0.44655">
        <ele>96</ele>
        <time>2020-07-03T17:04:25Z</time>
      </trkpt>
      <trkpt lat="46.73839" lon="0.44651">
        <ele>96</ele>
        <time>2020-07-03T17:04:26Z</time>
      </trkpt>
      <trkpt lat="46.73834" lon="0.44648">
        <ele>96</ele>
        <time>2020-07-03T17:04:27Z</time>
      </trkpt>
      <trkpt lat="46.73828" lon="0.44645">
        <ele>96.1</ele>
        <time>2020-07-03T17:04:28Z</time>
      </trkpt>
      <trkpt lat="46.73822" lon="0.4464">
        <ele>96.2</ele>
        <time>2020-07-03T17:04:29Z</time>
      </trkpt>
      <trkpt lat="46.73818" lon="0.44635">
        <ele>96.2</ele>
        <time>2020-07-03T17:04:30Z</time>
      </trkpt>
      <trkpt lat="46.73813" lon="0.44631">
        <ele>96.3</ele>
        <time>2020-07-03T17:04:31Z</time>
      </trkpt>
      <trkpt lat="46.73807" lon="0.44627">
        <ele>96.4</ele>
        <time>2020-07-03T17:04:32Z</time>
      </trkpt>
      <trkpt lat="46.73801" lon="0.44623">
        <ele>96.5</ele>
        <time>2020-07-03T17:04:33Z</time>
      </trkpt>
      <trkpt lat="46.73796" lon="0.44618">
        <ele>96.6</ele>
        <time>2020-07-03T17:04:34Z</time>
      </trkpt>
      <trkpt lat="46.73792" lon="0.44614">
        <ele>96.7</ele>
        <time>2020-07-03T17:04:35Z</time>
      </trkpt>
      <trkpt lat="46.73787" lon="0.4461">
        <ele>96.8</ele>
        <time>2020-07-03T17:04:36Z</time>
      </trkpt>
      <trkpt lat="46.73783" lon="0.44605">
        <ele>96.9</ele>
        <time>2020-07-03T17:04:37Z</time>
      </trkpt>
      <trkpt lat="46.73778" lon="0.446">
        <ele>96.9</ele>
        <time>2020-07-03T17:04:38Z</time>
      </trkpt>
      <trkpt lat="46.73773" lon="0.44596">
        <ele>97</ele>
        <time>2020-07-03T17:04:39Z</time>
      </trkpt>
      <trkpt lat="46.7377" lon="0.4459">
        <ele>97</ele>
        <time>2020-07-03T17:04:40Z</time>
      </trkpt>
      <trkpt lat="46.73766" lon="0.44585">
        <ele>97</ele>
        <time>2020-07-03T17:04:41Z</time>
      </trkpt>
      <trkpt lat="46.73762" lon="0.4458">
        <ele>97</ele>
        <time>2020-07-03T17:04:42Z</time>
      </trkpt>
      <trkpt lat="46.73758" lon="0.44572">
        <ele>97</ele>
        <time>2020-07-03T17:04:43Z</time>
      </trkpt>
      <trkpt lat="46.73754" lon="0.44566">
        <ele>97</ele>
        <time>2020-07-03T17:04:44Z</time>
      </trkpt>
      <trkpt lat="46.73749" lon="0.44559">
        <ele>97.1</ele>
        <time>2020-07-03T17:04:45Z</time>
      </trkpt>
      <trkpt lat="46.73745" lon="0.44552">
        <ele>97.1</ele>
        <time>2020-07-03T17:04:46Z</time>
      </trkpt>
      <trkpt lat="46.73741" lon="0.44547">
        <ele>97.1</ele>
        <time>2020-07-03T17:04:47Z</time>
      </trkpt>
      <trkpt lat="46.73737" lon="0.4454">
        <ele>97.2</ele>
        <time>2020-07-03T17:04:48Z</time>
      </trkpt>
      <trkpt lat="46.73734" lon="0.44534">
        <ele>97.1</ele>
        <time>2020-07-03T17:04:49Z</time>
      </trkpt>
      <trkpt lat="46.7373" lon="0.44528">
        <ele>97.1</ele>
        <time>2020-07-03T17:04:50Z</time>
      </trkpt>
      <trkpt lat="46.73727" lon="0.44521">
        <ele>97.1</ele>
        <time>2020-07-03T17:04:51Z</time>
      </trkpt>
      <trkpt lat="46.73724" lon="0.44514">
        <ele>97</ele>
        <time>2020-07-03T17:04:52Z</time>
      </trkpt>
      <trkpt lat="46.7372" lon="0.44506">
        <ele>97</ele>
        <time>2020-07-03T17:04:53Z</time>
      </trkpt>
      <trkpt lat="46.73716" lon="0.445">
        <ele>97</ele>
        <time>2020-07-03T17:04:54Z</time>
      </trkpt>
      <trkpt lat="46.73712" lon="0.44491">
        <ele>97</ele>
        <time>2020-07-03T17:04:55Z</time>
      </trkpt>
      <trkpt lat="46.73708" lon="0.44483">
        <ele>97</ele>
        <time>2020-07-03T17:04:56Z</time>
      </trkpt>
      <trkpt lat="46.73705" lon="0.44476">
        <ele>96.9</ele>
        <time>2020-07-03T17:04:57Z</time>
      </trkpt>
      <trkpt lat="46.73703" lon="0.44468">
        <ele>96.9</ele>
        <time>2020-07-03T17:04:58Z</time>
      </trkpt>
      <trkpt lat="46.73699" lon="0.44459">
        <ele>96.8</ele>
        <time>2020-07-03T17:04:59Z</time>
      </trkpt>
      <trkpt lat="46.73695" lon="0.4445">
        <ele>96.8</ele>
        <time>2020-07-03T17:05:00Z</time>
      </trkpt>
      <trkpt lat="46.73691" lon="0.44443">
        <ele>96.7</ele>
        <time>2020-07-03T17:05:01Z</time>
      </trkpt>
      <trkpt lat="46.73688" lon="0.44435">
        <ele>96.6</ele>
        <time>2020-07-03T17:05:02Z</time>
      </trkpt>
      <trkpt lat="46.73684" lon="0.44426">
        <ele>96.5</ele>
        <time>2020-07-03T17:05:03Z</time>
      </trkpt>
      <trkpt lat="46.73681" lon="0.44418">
        <ele>96.4</ele>
        <time>2020-07-03T17:05:04Z</time>
      </trkpt>
      <trkpt lat="46.73676" lon="0.44411">
        <ele>96.4</ele>
        <time>2020-07-03T17:05:05Z</time>
      </trkpt>
      <trkpt lat="46.73673" lon="0.44402">
        <ele>96.3</ele>
        <time>2020-07-03T17:05:06Z</time>
      </trkpt>
      <trkpt lat="46.73669" lon="0.44394">
        <ele>96.3</ele>
        <time>2020-07-03T17:05:07Z</time>
      </trkpt>
      <trkpt lat="46.73665" lon="0.44386">
        <ele>96.3</ele>
        <time>2020-07-03T17:05:08Z</time>
      </trkpt>
      <trkpt lat="46.73661" lon="0.44378">
        <ele>96.2</ele>
        <time>2020-07-03T17:05:09Z</time>
      </trkpt>
      <trkpt lat="46.73658" lon="0.44371">
        <ele>96.2</ele>
        <time>2020-07-03T17:05:10Z</time>
      </trkpt>
      <trkpt lat="46.73654" lon="0.44364">
        <ele>96.1</ele>
        <time>2020-07-03T17:05:11Z</time>
      </trkpt>
      <trkpt lat="46.73649" lon="0.44355">
        <ele>96</ele>
        <time>2020-07-03T17:05:12Z</time>
      </trkpt>
      <trkpt lat="46.73645" lon="0.44348">
        <ele>95.9</ele>
        <time>2020-07-03T17:05:13Z</time>
      </trkpt>
      <trkpt lat="46.73642" lon="0.44341">
        <ele>95.8</ele>
        <time>2020-07-03T17:05:14Z</time>
      </trkpt>
      <trkpt lat="46.73638" lon="0.44333">
        <ele>95.7</ele>
        <time>2020-07-03T17:05:15Z</time>
      </trkpt>
      <trkpt lat="46.73634" lon="0.44325">
        <ele>95.5</ele>
        <time>2020-07-03T17:05:16Z</time>
      </trkpt>
      <trkpt lat="46.73632" lon="0.44317">
        <ele>95.4</ele>
        <time>2020-07-03T17:05:17Z</time>
      </trkpt>
      <trkpt lat="46.73629" lon="0.44308">
        <ele>95.3</ele>
        <time>2020-07-03T17:05:18Z</time>
      </trkpt>
      <trkpt lat="46.73627" lon="0.443">
        <ele>95.1</ele>
        <time>2020-07-03T17:05:19Z</time>
      </trkpt>
      <trkpt lat="46.73625" lon="0.4429">
        <ele>95</ele>
        <time>2020-07-03T17:05:20Z</time>
      </trkpt>
      <trkpt lat="46.73622" lon="0.44281">
        <ele>94.9</ele>
        <time>2020-07-03T17:05:21Z</time>
      </trkpt>
      <trkpt lat="46.7362" lon="0.44272">
        <ele>94.7</ele>
        <time>2020-07-03T17:05:22Z</time>
      </trkpt>
      <trkpt lat="46.73617" lon="0.44263">
        <ele>94.5</ele>
        <time>2020-07-03T17:05:23Z</time>
      </trkpt>
      <trkpt lat="46.73613" lon="0.44253">
        <ele>94.2</ele>
        <time>2020-07-03T17:05:24Z</time>
      </trkpt>
      <trkpt lat="46.7361" lon="0.44245">
        <ele>93.8</ele>
        <time>2020-07-03T17:05:25Z</time>
      </trkpt>
      <trkpt lat="46.73606" lon="0.44236">
        <ele>93.4</ele>
        <time>2020-07-03T17:05:26Z</time>
      </trkpt>
      <trkpt lat="46.73601" lon="0.44227">
        <ele>93.2</ele>
        <time>2020-07-03T17:05:27Z</time>
      </trkpt>
      <trkpt lat="46.73596" lon="0.44219">
        <ele>93</ele>
        <time>2020-07-03T17:05:28Z</time>
      </trkpt>
      <trkpt lat="46.73591" lon="0.4421">
        <ele>92.7</ele>
        <time>2020-07-03T17:05:29Z</time>
      </trkpt>
      <trkpt lat="46.73586" lon="0.44202">
        <ele>92.5</ele>
        <time>2020-07-03T17:05:30Z</time>
      </trkpt>
      <trkpt lat="46.73581" lon="0.44194">
        <ele>92.2</ele>
        <time>2020-07-03T17:05:31Z</time>
      </trkpt>
      <trkpt lat="46.73576" lon="0.44186">
        <ele>92</ele>
        <time>2020-07-03T17:05:32Z</time>
      </trkpt>
      <trkpt lat="46.73571" lon="0.44177">
        <ele>91.8</ele>
        <time>2020-07-03T17:05:33Z</time>
      </trkpt>
      <trkpt lat="46.73565" lon="0.4417">
        <ele>91.5</ele>
        <time>2020-07-03T17:05:34Z</time>
      </trkpt>
      <trkpt lat="46.7356" lon="0.44162">
        <ele>91.3</ele>
        <time>2020-07-03T17:05:35Z</time>
      </trkpt>
      <trkpt lat="46.73554" lon="0.44154">
        <ele>91.2</ele>
        <time>2020-07-03T17:05:36Z</time>
      </trkpt>
      <trkpt lat="46.73549" lon="0.44145">
        <ele>91.1</ele>
        <time>2020-07-03T17:05:37Z</time>
      </trkpt>
      <trkpt lat="46.73544" lon="0.44137">
        <ele>91</ele>
        <time>2020-07-03T17:05:38Z</time>
      </trkpt>
      <trkpt lat="46.73538" lon="0.4413">
        <ele>91</ele>
        <time>2020-07-03T17:05:39Z</time>
      </trkpt>
      <trkpt lat="46.73533" lon="0.44122">
        <ele>91</ele>
        <time>2020-07-03T17:05:40Z</time>
      </trkpt>
      <trkpt lat="46.73527" lon="0.44115">
        <ele>91</ele>
        <time>2020-07-03T17:05:41Z</time>
      </trkpt>
      <trkpt lat="46.73522" lon="0.44109">
        <ele>91.1</ele>
        <time>2020-07-03T17:05:42Z</time>
      </trkpt>
      <trkpt lat="46.73516" lon="0.44103">
        <ele>91.2</ele>
        <time>2020-07-03T17:05:43Z</time>
      </trkpt>
      <trkpt lat="46.7351" lon="0.44096">
        <ele>91.3</ele>
        <time>2020-07-03T17:05:44Z</time>
      </trkpt>
      <trkpt lat="46.73505" lon="0.4409">
        <ele>91.4</ele>
        <time>2020-07-03T17:05:45Z</time>
      </trkpt>
      <trkpt lat="46.735" lon="0.44084">
        <ele>91.5</ele>
        <time>2020-07-03T17:05:46Z</time>
      </trkpt>
      <trkpt lat="46.73495" lon="0.44078">
        <ele>91.6</ele>
        <time>2020-07-03T17:05:47Z</time>
      </trkpt>
      <trkpt lat="46.73489" lon="0.44073">
        <ele>91.6</ele>
        <time>2020-07-03T17:05:48Z</time>
      </trkpt>
      <trkpt lat="46.73484" lon="0.44066">
        <ele>91.7</ele>
        <time>2020-07-03T17:05:49Z</time>
      </trkpt>
      <trkpt lat="46.73478" lon="0.44063">
        <ele>91.8</ele>
        <time>2020-07-03T17:05:50Z</time>
      </trkpt>
      <trkpt lat="46.73473" lon="0.44058">
        <ele>91.8</ele>
        <time>2020-07-03T17:05:51Z</time>
      </trkpt>
      <trkpt lat="46.73468" lon="0.44053">
        <ele>91.9</ele>
        <time>2020-07-03T17:05:52Z</time>
      </trkpt>
      <trkpt lat="46.73463" lon="0.44047">
        <ele>91.9</ele>
        <time>2020-07-03T17:05:53Z</time>
      </trkpt>
      <trkpt lat="46.73458" lon="0.44041">
        <ele>91.9</ele>
        <time>2020-07-03T17:05:54Z</time>
      </trkpt>
      <trkpt lat="46.73454" lon="0.44036">
        <ele>92</ele>
        <time>2020-07-03T17:05:55Z</time>
      </trkpt>
      <trkpt lat="46.73449" lon="0.4403">
        <ele>92</ele>
        <time>2020-07-03T17:05:56Z</time>
      </trkpt>
      <trkpt lat="46.73445" lon="0.44025">
        <ele>91.9</ele>
        <time>2020-07-03T17:05:57Z</time>
      </trkpt>
      <trkpt lat="46.73439" lon="0.4402">
        <ele>91.9</ele>
        <time>2020-07-03T17:05:58Z</time>
      </trkpt>
      <trkpt lat="46.73434" lon="0.44016">
        <ele>91.9</ele>
        <time>2020-07-03T17:05:59Z</time>
      </trkpt>
      <trkpt lat="46.73429" lon="0.44011">
        <ele>91.9</ele>
        <time>2020-07-03T17:06:00Z</time>
      </trkpt>
      <trkpt lat="46.73425" lon="0.44006">
        <ele>91.8</ele>
        <time>2020-07-03T17:06:01Z</time>
      </trkpt>
      <trkpt lat="46.73421" lon="0.44001">
        <ele>91.8</ele>
        <time>2020-07-03T17:06:02Z</time>
      </trkpt>
      <trkpt lat="46.73418" lon="0.43996">
        <ele>91.7</ele>
        <time>2020-07-03T17:06:03Z</time>
      </trkpt>
      <trkpt lat="46.73414" lon="0.43995">
        <ele>91.6</ele>
        <time>2020-07-03T17:06:04Z</time>
      </trkpt>
      <trkpt lat="46.7341" lon="0.43995">
        <ele>90.8</ele>
        <time>2020-07-03T17:06:05Z</time>
      </trkpt>
      <trkpt lat="46.73406" lon="0.44">
        <ele>90.2</ele>
        <time>2020-07-03T17:06:06Z</time>
      </trkpt>
      <trkpt lat="46.73401" lon="0.44004">
        <ele>89.6</ele>
        <time>2020-07-03T17:06:07Z</time>
      </trkpt>
      <trkpt lat="46.73397" lon="0.44008">
        <ele>88.9</ele>
        <time>2020-07-03T17:06:08Z</time>
      </trkpt>
      <trkpt lat="46.73391" lon="0.44011">
        <ele>88.2</ele>
        <time>2020-07-03T17:06:09Z</time>
      </trkpt>
      <trkpt lat="46.73385" lon="0.44016">
        <ele>87.3</ele>
        <time>2020-07-03T17:06:10Z</time>
      </trkpt>
      <trkpt lat="46.73378" lon="0.44021">
        <ele>86.3</ele>
        <time>2020-07-03T17:06:11Z</time>
      </trkpt>
      <trkpt lat="46.73371" lon="0.44028">
        <ele>85.1</ele>
        <time>2020-07-03T17:06:12Z</time>
      </trkpt>
      <trkpt lat="46.73363" lon="0.44035">
        <ele>83.8</ele>
        <time>2020-07-03T17:06:13Z</time>
      </trkpt>
      <trkpt lat="46.73354" lon="0.44041">
        <ele>82.3</ele>
        <time>2020-07-03T17:06:14Z</time>
      </trkpt>
      <trkpt lat="46.73345" lon="0.44047">
        <ele>80.9</ele>
        <time>2020-07-03T17:06:15Z</time>
      </trkpt>
      <trkpt lat="46.73336" lon="0.44053">
        <ele>79.5</ele>
        <time>2020-07-03T17:06:16Z</time>
      </trkpt>
      <trkpt lat="46.73327" lon="0.4406">
        <ele>78.3</ele>
        <time>2020-07-03T17:06:17Z</time>
      </trkpt>
      <trkpt lat="46.73319" lon="0.44066">
        <ele>77.1</ele>
        <time>2020-07-03T17:06:18Z</time>
      </trkpt>
      <trkpt lat="46.7331" lon="0.44073">
        <ele>76</ele>
        <time>2020-07-03T17:06:19Z</time>
      </trkpt>
      <trkpt lat="46.73302" lon="0.44082">
        <ele>75</ele>
        <time>2020-07-03T17:06:20Z</time>
      </trkpt>
      <trkpt lat="46.73294" lon="0.44091">
        <ele>74.1</ele>
        <time>2020-07-03T17:06:21Z</time>
      </trkpt>
      <trkpt lat="46.73286" lon="0.44101">
        <ele>73.4</ele>
        <time>2020-07-03T17:06:22Z</time>
      </trkpt>
      <trkpt lat="46.73278" lon="0.44111">
        <ele>72.7</ele>
        <time>2020-07-03T17:06:23Z</time>
      </trkpt>
      <trkpt lat="46.7327" lon="0.4412">
        <ele>72.1</ele>
        <time>2020-07-03T17:06:24Z</time>
      </trkpt>
      <trkpt lat="46.73262" lon="0.44128">
        <ele>71.6</ele>
        <time>2020-07-03T17:06:25Z</time>
      </trkpt>
      <trkpt lat="46.73255" lon="0.44136">
        <ele>71.1</ele>
        <time>2020-07-03T17:06:26Z</time>
      </trkpt>
      <trkpt lat="46.73248" lon="0.44144">
        <ele>70.8</ele>
        <time>2020-07-03T17:06:27Z</time>
      </trkpt>
      <trkpt lat="46.73241" lon="0.44151">
        <ele>70.5</ele>
        <time>2020-07-03T17:06:28Z</time>
      </trkpt>
      <trkpt lat="46.73234" lon="0.44157">
        <ele>70.2</ele>
        <time>2020-07-03T17:06:29Z</time>
      </trkpt>
      <trkpt lat="46.73227" lon="0.44162">
        <ele>70</ele>
        <time>2020-07-03T17:06:30Z</time>
      </trkpt>
      <trkpt lat="46.73221" lon="0.44167">
        <ele>69.8</ele>
        <time>2020-07-03T17:06:31Z</time>
      </trkpt>
      <trkpt lat="46.73216" lon="0.44172">
        <ele>69.7</ele>
        <time>2020-07-03T17:06:32Z</time>
      </trkpt>
      <trkpt lat="46.73211" lon="0.44175">
        <ele>69.6</ele>
        <time>2020-07-03T17:06:33Z</time>
      </trkpt>
      <trkpt lat="46.73207" lon="0.4418">
        <ele>69.5</ele>
        <time>2020-07-03T17:06:34Z</time>
      </trkpt>
      <trkpt lat="46.73203" lon="0.44183">
        <ele>69.4</ele>
        <time>2020-07-03T17:06:35Z</time>
      </trkpt>
      <trkpt lat="46.732" lon="0.44186">
        <ele>69.4</ele>
        <time>2020-07-03T17:06:36Z</time>
      </trkpt>
      <trkpt lat="46.73197" lon="0.44188">
        <ele>69.3</ele>
        <time>2020-07-03T17:06:37Z</time>
      </trkpt>
      <trkpt lat="46.73194" lon="0.44191">
        <ele>69.2</ele>
        <time>2020-07-03T17:06:38Z</time>
      </trkpt>
      <trkpt lat="46.73193" lon="0.44192">
        <ele>69</ele>
        <time>2020-07-03T17:06:39Z</time>
      </trkpt>
      <trkpt lat="46.73189" lon="0.44193">
        <ele>68.9</ele>
        <time>2020-07-03T17:06:40Z</time>
      </trkpt>
      <trkpt lat="46.73188" lon="0.44193">
        <ele>68.9</ele>
        <time>2020-07-03T17:06:41Z</time>
      </trkpt>
      <trkpt lat="46.73185" lon="0.44188">
        <ele>68.9</ele>
        <time>2020-07-03T17:06:42Z</time>
      </trkpt>
      <trkpt lat="46.73184" lon="0.44187">
        <ele>68.9</ele>
        <time>2020-07-03T17:06:43Z</time>
      </trkpt>
      <trkpt lat="46.73182" lon="0.44181">
        <ele>68.9</ele>
        <time>2020-07-03T17:06:44Z</time>
      </trkpt>
      <trkpt lat="46.73181" lon="0.44175">
        <ele>68.9</ele>
        <time>2020-07-03T17:06:45Z</time>
      </trkpt>
      <trkpt lat="46.73179" lon="0.44168">
        <ele>68.9</ele>
        <time>2020-07-03T17:06:46Z</time>
      </trkpt>
      <trkpt lat="46.73176" lon="0.44162">
        <ele>68.8</ele>
        <time>2020-07-03T17:06:47Z</time>
      </trkpt>
      <trkpt lat="46.73174" lon="0.44157">
        <ele>68.8</ele>
        <time>2020-07-03T17:06:48Z</time>
      </trkpt>
      <trkpt lat="46.73172" lon="0.44151">
        <ele>68.8</ele>
        <time>2020-07-03T17:06:49Z</time>
      </trkpt>
      <trkpt lat="46.7317" lon="0.44146">
        <ele>68.9</ele>
        <time>2020-07-03T17:06:50Z</time>
      </trkpt>
      <trkpt lat="46.73168" lon="0.4414">
        <ele>68.9</ele>
        <time>2020-07-03T17:06:51Z</time>
      </trkpt>
      <trkpt lat="46.73166" lon="0.44135">
        <ele>68.9</ele>
        <time>2020-07-03T17:06:52Z</time>
      </trkpt>
      <trkpt lat="46.73165" lon="0.44131">
        <ele>69</ele>
        <time>2020-07-03T17:06:53Z</time>
      </trkpt>
      <trkpt lat="46.73164" lon="0.44127">
        <ele>69</ele>
        <time>2020-07-03T17:06:54Z</time>
      </trkpt>
      <trkpt lat="46.73164" lon="0.44126">
        <ele>69</ele>
        <time>2020-07-03T17:06:55Z</time>
      </trkpt>
      <trkpt lat="46.73163" lon="0.44125">
        <ele>69</ele>
        <time>2020-07-03T17:06:56Z</time>
      </trkpt>
      <trkpt lat="46.73163" lon="0.44125">
        <ele>69</ele>
        <time>2020-07-03T17:06:57Z</time>
      </trkpt>
      <trkpt lat="46.73162" lon="0.44124">
        <ele>69.1</ele>
        <time>2020-07-03T17:06:58Z</time>
      </trkpt>
      <trkpt lat="46.73161" lon="0.44123">
        <ele>69.1</ele>
        <time>2020-07-03T17:06:59Z</time>
      </trkpt>
      <trkpt lat="46.73161" lon="0.44122">
        <ele>69.1</ele>
        <time>2020-07-03T17:07:00Z</time>
      </trkpt>
      <trkpt lat="46.7316" lon="0.44118">
        <ele>69.1</ele>
        <time>2020-07-03T17:07:01Z</time>
      </trkpt>
      <trkpt lat="46.73159" lon="0.44117">
        <ele>69.1</ele>
        <time>2020-07-03T17:07:02Z</time>
      </trkpt>
      <trkpt lat="46.73159" lon="0.44112">
        <ele>69.2</ele>
        <time>2020-07-03T17:07:03Z</time>
      </trkpt>
      <trkpt lat="46.73159" lon="0.44108">
        <ele>69.2</ele>
        <time>2020-07-03T17:07:04Z</time>
      </trkpt>
      <trkpt lat="46.73157" lon="0.44105">
        <ele>69.2</ele>
        <time>2020-07-03T17:07:05Z</time>
      </trkpt>
      <trkpt lat="46.73154" lon="0.44102">
        <ele>69.3</ele>
        <time>2020-07-03T17:07:06Z</time>
      </trkpt>
      <trkpt lat="46.73152" lon="0.44099">
        <ele>69.3</ele>
        <time>2020-07-03T17:07:07Z</time>
      </trkpt>
      <trkpt lat="46.73149" lon="0.44097">
        <ele>69.3</ele>
        <time>2020-07-03T17:07:08Z</time>
      </trkpt>
      <trkpt lat="46.73145" lon="0.44096">
        <ele>69.4</ele>
        <time>2020-07-03T17:07:09Z</time>
      </trkpt>
      <trkpt lat="46.73141" lon="0.44098">
        <ele>69.3</ele>
        <time>2020-07-03T17:07:10Z</time>
      </trkpt>
      <trkpt lat="46.73136" lon="0.44098">
        <ele>69.2</ele>
        <time>2020-07-03T17:07:11Z</time>
      </trkpt>
      <trkpt lat="46.73131" lon="0.441">
        <ele>69.1</ele>
        <time>2020-07-03T17:07:12Z</time>
      </trkpt>
      <trkpt lat="46.73126" lon="0.44102">
        <ele>68.9</ele>
        <time>2020-07-03T17:07:13Z</time>
      </trkpt>
      <trkpt lat="46.73121" lon="0.44104">
        <ele>68.7</ele>
        <time>2020-07-03T17:07:14Z</time>
      </trkpt>
      <trkpt lat="46.73117" lon="0.44107">
        <ele>68.5</ele>
        <time>2020-07-03T17:07:15Z</time>
      </trkpt>
      <trkpt lat="46.73112" lon="0.44109">
        <ele>68.3</ele>
        <time>2020-07-03T17:07:16Z</time>
      </trkpt>
      <trkpt lat="46.73107" lon="0.44111">
        <ele>68.1</ele>
        <time>2020-07-03T17:07:17Z</time>
      </trkpt>
      <trkpt lat="46.73102" lon="0.44113">
        <ele>67.8</ele>
        <time>2020-07-03T17:07:18Z</time>
      </trkpt>
      <trkpt lat="46.73097" lon="0.44116">
        <ele>67.6</ele>
        <time>2020-07-03T17:07:19Z</time>
      </trkpt>
      <trkpt lat="46.73091" lon="0.44118">
        <ele>67.4</ele>
        <time>2020-07-03T17:07:20Z</time>
      </trkpt>
      <trkpt lat="46.73086" lon="0.44119">
        <ele>67.2</ele>
        <time>2020-07-03T17:07:21Z</time>
      </trkpt>
      <trkpt lat="46.73081" lon="0.44121">
        <ele>67</ele>
        <time>2020-07-03T17:07:22Z</time>
      </trkpt>
      <trkpt lat="46.73076" lon="0.44124">
        <ele>66.9</ele>
        <time>2020-07-03T17:07:23Z</time>
      </trkpt>
      <trkpt lat="46.73072" lon="0.44127">
        <ele>66.7</ele>
        <time>2020-07-03T17:07:24Z</time>
      </trkpt>
      <trkpt lat="46.73067" lon="0.44132">
        <ele>66.5</ele>
        <time>2020-07-03T17:07:25Z</time>
      </trkpt>
      <trkpt lat="46.73062" lon="0.44137">
        <ele>66.3</ele>
        <time>2020-07-03T17:07:26Z</time>
      </trkpt>
      <trkpt lat="46.73057" lon="0.44143">
        <ele>66.2</ele>
        <time>2020-07-03T17:07:27Z</time>
      </trkpt>
      <trkpt lat="46.73052" lon="0.44147">
        <ele>66</ele>
        <time>2020-07-03T17:07:28Z</time>
      </trkpt>
      <trkpt lat="46.73047" lon="0.44152">
        <ele>65.9</ele>
        <time>2020-07-03T17:07:29Z</time>
      </trkpt>
      <trkpt lat="46.73042" lon="0.44155">
        <ele>65.9</ele>
        <time>2020-07-03T17:07:30Z</time>
      </trkpt>
      <trkpt lat="46.73037" lon="0.4416">
        <ele>65.8</ele>
        <time>2020-07-03T17:07:31Z</time>
      </trkpt>
      <trkpt lat="46.73032" lon="0.44165">
        <ele>65.8</ele>
        <time>2020-07-03T17:07:32Z</time>
      </trkpt>
      <trkpt lat="46.73026" lon="0.4417">
        <ele>65.8</ele>
        <time>2020-07-03T17:07:33Z</time>
      </trkpt>
      <trkpt lat="46.7302" lon="0.44175">
        <ele>65.8</ele>
        <time>2020-07-03T17:07:34Z</time>
      </trkpt>
      <trkpt lat="46.73013" lon="0.44179">
        <ele>65.8</ele>
        <time>2020-07-03T17:07:35Z</time>
      </trkpt>
      <trkpt lat="46.73006" lon="0.44183">
        <ele>65.9</ele>
        <time>2020-07-03T17:07:36Z</time>
      </trkpt>
      <trkpt lat="46.73" lon="0.44187">
        <ele>65.9</ele>
        <time>2020-07-03T17:07:37Z</time>
      </trkpt>
      <trkpt lat="46.72993" lon="0.44192">
        <ele>66</ele>
        <time>2020-07-03T17:07:38Z</time>
      </trkpt>
      <trkpt lat="46.72986" lon="0.44195">
        <ele>66.1</ele>
        <time>2020-07-03T17:07:39Z</time>
      </trkpt>
      <trkpt lat="46.7298" lon="0.44198">
        <ele>66.2</ele>
        <time>2020-07-03T17:07:40Z</time>
      </trkpt>
      <trkpt lat="46.72973" lon="0.442">
        <ele>66.3</ele>
        <time>2020-07-03T17:07:41Z</time>
      </trkpt>
      <trkpt lat="46.72967" lon="0.44202">
        <ele>66.4</ele>
        <time>2020-07-03T17:07:42Z</time>
      </trkpt>
      <trkpt lat="46.72962" lon="0.44204">
        <ele>66.5</ele>
        <time>2020-07-03T17:07:43Z</time>
      </trkpt>
      <trkpt lat="46.72956" lon="0.44206">
        <ele>66.5</ele>
        <time>2020-07-03T17:07:44Z</time>
      </trkpt>
      <trkpt lat="46.72951" lon="0.44207">
        <ele>66.5</ele>
        <time>2020-07-03T17:07:45Z</time>
      </trkpt>
      <trkpt lat="46.72945" lon="0.44211">
        <ele>66.6</ele>
        <time>2020-07-03T17:07:46Z</time>
      </trkpt>
      <trkpt lat="46.7294" lon="0.44213">
        <ele>66.6</ele>
        <time>2020-07-03T17:07:47Z</time>
      </trkpt>
      <trkpt lat="46.72935" lon="0.44215">
        <ele>66.5</ele>
        <time>2020-07-03T17:07:48Z</time>
      </trkpt>
      <trkpt lat="46.7293" lon="0.44216">
        <ele>66.5</ele>
        <time>2020-07-03T17:07:49Z</time>
      </trkpt>
      <trkpt lat="46.72925" lon="0.44217">
        <ele>66.5</ele>
        <time>2020-07-03T17:07:50Z</time>
      </trkpt>
      <trkpt lat="46.72919" lon="0.44218">
        <ele>66.5</ele>
        <time>2020-07-03T17:07:51Z</time>
      </trkpt>
      <trkpt lat="46.72915" lon="0.4422">
        <ele>66.6</ele>
        <time>2020-07-03T17:07:52Z</time>
      </trkpt>
      <trkpt lat="46.7291" lon="0.44221">
        <ele>66.6</ele>
        <time>2020-07-03T17:07:53Z</time>
      </trkpt>
      <trkpt lat="46.72905" lon="0.44224">
        <ele>66.5</ele>
        <time>2020-07-03T17:07:54Z</time>
      </trkpt>
      <trkpt lat="46.729" lon="0.44223">
        <ele>66.5</ele>
        <time>2020-07-03T17:07:55Z</time>
      </trkpt>
      <trkpt lat="46.72895" lon="0.44224">
        <ele>66.4</ele>
        <time>2020-07-03T17:07:56Z</time>
      </trkpt>
      <trkpt lat="46.72889" lon="0.44226">
        <ele>66.3</ele>
        <time>2020-07-03T17:07:57Z</time>
      </trkpt>
      <trkpt lat="46.72883" lon="0.44226">
        <ele>66.2</ele>
        <time>2020-07-03T17:07:58Z</time>
      </trkpt>
      <trkpt lat="46.72877" lon="0.44228">
        <ele>66</ele>
        <time>2020-07-03T17:07:59Z</time>
      </trkpt>
      <trkpt lat="46.7287" lon="0.44229">
        <ele>65.7</ele>
        <time>2020-07-03T17:08:00Z</time>
      </trkpt>
      <trkpt lat="46.72863" lon="0.4423">
        <ele>65.4</ele>
        <time>2020-07-03T17:08:01Z</time>
      </trkpt>
      <trkpt lat="46.72857" lon="0.44232">
        <ele>65</ele>
        <time>2020-07-03T17:08:02Z</time>
      </trkpt>
      <trkpt lat="46.72849" lon="0.44232">
        <ele>64.7</ele>
        <time>2020-07-03T17:08:03Z</time>
      </trkpt>
      <trkpt lat="46.72842" lon="0.44232">
        <ele>64.2</ele>
        <time>2020-07-03T17:08:04Z</time>
      </trkpt>
      <trkpt lat="46.72834" lon="0.44233">
        <ele>63.8</ele>
        <time>2020-07-03T17:08:05Z</time>
      </trkpt>
      <trkpt lat="46.72826" lon="0.44235">
        <ele>63.3</ele>
        <time>2020-07-03T17:08:06Z</time>
      </trkpt>
      <trkpt lat="46.72817" lon="0.44237">
        <ele>62.8</ele>
        <time>2020-07-03T17:08:07Z</time>
      </trkpt>
      <trkpt lat="46.72809" lon="0.4424">
        <ele>62.3</ele>
        <time>2020-07-03T17:08:08Z</time>
      </trkpt>
      <trkpt lat="46.72801" lon="0.44243">
        <ele>61.9</ele>
        <time>2020-07-03T17:08:09Z</time>
      </trkpt>
      <trkpt lat="46.72792" lon="0.44246">
        <ele>61.4</ele>
        <time>2020-07-03T17:08:10Z</time>
      </trkpt>
      <trkpt lat="46.72783" lon="0.4425">
        <ele>61.1</ele>
        <time>2020-07-03T17:08:11Z</time>
      </trkpt>
      <trkpt lat="46.72774" lon="0.44254">
        <ele>60.8</ele>
        <time>2020-07-03T17:08:12Z</time>
      </trkpt>
      <trkpt lat="46.72765" lon="0.44258">
        <ele>60.6</ele>
        <time>2020-07-03T17:08:13Z</time>
      </trkpt>
      <trkpt lat="46.72756" lon="0.44262">
        <ele>60.5</ele>
        <time>2020-07-03T17:08:14Z</time>
      </trkpt>
      <trkpt lat="46.72747" lon="0.44265">
        <ele>60.3</ele>
        <time>2020-07-03T17:08:15Z</time>
      </trkpt>
      <trkpt lat="46.72739" lon="0.44269">
        <ele>60.2</ele>
        <time>2020-07-03T17:08:16Z</time>
      </trkpt>
      <trkpt lat="46.7273" lon="0.44274">
        <ele>60.2</ele>
        <time>2020-07-03T17:08:17Z</time>
      </trkpt>
      <trkpt lat="46.72722" lon="0.44277">
        <ele>60.1</ele>
        <time>2020-07-03T17:08:18Z</time>
      </trkpt>
      <trkpt lat="46.72715" lon="0.44281">
        <ele>60.1</ele>
        <time>2020-07-03T17:08:19Z</time>
      </trkpt>
      <trkpt lat="46.72707" lon="0.44284">
        <ele>60.1</ele>
        <time>2020-07-03T17:08:20Z</time>
      </trkpt>
      <trkpt lat="46.727" lon="0.44288">
        <ele>60.2</ele>
        <time>2020-07-03T17:08:21Z</time>
      </trkpt>
      <trkpt lat="46.72693" lon="0.44292">
        <ele>60.2</ele>
        <time>2020-07-03T17:08:22Z</time>
      </trkpt>
      <trkpt lat="46.72686" lon="0.44295">
        <ele>60.2</ele>
        <time>2020-07-03T17:08:23Z</time>
      </trkpt>
      <trkpt lat="46.72679" lon="0.44299">
        <ele>60.2</ele>
        <time>2020-07-03T17:08:24Z</time>
      </trkpt>
      <trkpt lat="46.72672" lon="0.44302">
        <ele>60.2</ele>
        <time>2020-07-03T17:08:25Z</time>
      </trkpt>
      <trkpt lat="46.72664" lon="0.44305">
        <ele>60.2</ele>
        <time>2020-07-03T17:08:26Z</time>
      </trkpt>
      <trkpt lat="46.72657" lon="0.44308">
        <ele>60.2</ele>
        <time>2020-07-03T17:08:27Z</time>
      </trkpt>
      <trkpt lat="46.7265" lon="0.44311">
        <ele>60.2</ele>
        <time>2020-07-03T17:08:28Z</time>
      </trkpt>
      <trkpt lat="46.72644" lon="0.44315">
        <ele>60.3</ele>
        <time>2020-07-03T17:08:29Z</time>
      </trkpt>
      <trkpt lat="46.72637" lon="0.44318">
        <ele>60.3</ele>
        <time>2020-07-03T17:08:30Z</time>
      </trkpt>
      <trkpt lat="46.7263" lon="0.44321">
        <ele>60.3</ele>
        <time>2020-07-03T17:08:31Z</time>
      </trkpt>
      <trkpt lat="46.72624" lon="0.44324">
        <ele>60.4</ele>
        <time>2020-07-03T17:08:32Z</time>
      </trkpt>
      <trkpt lat="46.72618" lon="0.44328">
        <ele>60.4</ele>
        <time>2020-07-03T17:08:33Z</time>
      </trkpt>
      <trkpt lat="46.72611" lon="0.4433">
        <ele>60.5</ele>
        <time>2020-07-03T17:08:34Z</time>
      </trkpt>
      <trkpt lat="46.72605" lon="0.44332">
        <ele>60.6</ele>
        <time>2020-07-03T17:08:35Z</time>
      </trkpt>
      <trkpt lat="46.72599" lon="0.44335">
        <ele>60.7</ele>
        <time>2020-07-03T17:08:36Z</time>
      </trkpt>
      <trkpt lat="46.72593" lon="0.44337">
        <ele>60.8</ele>
        <time>2020-07-03T17:08:37Z</time>
      </trkpt>
      <trkpt lat="46.72588" lon="0.4434">
        <ele>60.8</ele>
        <time>2020-07-03T17:08:38Z</time>
      </trkpt>
      <trkpt lat="46.72582" lon="0.44343">
        <ele>60.9</ele>
        <time>2020-07-03T17:08:39Z</time>
      </trkpt>
      <trkpt lat="46.72576" lon="0.44346">
        <ele>60.9</ele>
        <time>2020-07-03T17:08:40Z</time>
      </trkpt>
      <trkpt lat="46.72571" lon="0.44349">
        <ele>60.9</ele>
        <time>2020-07-03T17:08:41Z</time>
      </trkpt>
      <trkpt lat="46.72565" lon="0.44353">
        <ele>61</ele>
        <time>2020-07-03T17:08:42Z</time>
      </trkpt>
      <trkpt lat="46.7256" lon="0.44355">
        <ele>61</ele>
        <time>2020-07-03T17:08:43Z</time>
      </trkpt>
      <trkpt lat="46.72555" lon="0.44356">
        <ele>61</ele>
        <time>2020-07-03T17:08:44Z</time>
      </trkpt>
      <trkpt lat="46.72551" lon="0.44361">
        <ele>61.1</ele>
        <time>2020-07-03T17:08:45Z</time>
      </trkpt>
      <trkpt lat="46.72546" lon="0.44363">
        <ele>61.2</ele>
        <time>2020-07-03T17:08:46Z</time>
      </trkpt>
      <trkpt lat="46.72541" lon="0.44365">
        <ele>61.3</ele>
        <time>2020-07-03T17:08:47Z</time>
      </trkpt>
      <trkpt lat="46.72535" lon="0.44366">
        <ele>61.3</ele>
        <time>2020-07-03T17:08:48Z</time>
      </trkpt>
      <trkpt lat="46.7253" lon="0.44368">
        <ele>61.4</ele>
        <time>2020-07-03T17:08:49Z</time>
      </trkpt>
      <trkpt lat="46.72525" lon="0.4437">
        <ele>61.5</ele>
        <time>2020-07-03T17:08:50Z</time>
      </trkpt>
      <trkpt lat="46.7252" lon="0.44373">
        <ele>61.5</ele>
        <time>2020-07-03T17:08:51Z</time>
      </trkpt>
      <trkpt lat="46.72516" lon="0.44376">
        <ele>61.5</ele>
        <time>2020-07-03T17:08:52Z</time>
      </trkpt>
      <trkpt lat="46.72511" lon="0.44378">
        <ele>61.6</ele>
        <time>2020-07-03T17:08:53Z</time>
      </trkpt>
      <trkpt lat="46.72507" lon="0.4438">
        <ele>61.6</ele>
        <time>2020-07-03T17:08:54Z</time>
      </trkpt>
      <trkpt lat="46.72503" lon="0.44382">
        <ele>61.5</ele>
        <time>2020-07-03T17:08:55Z</time>
      </trkpt>
      <trkpt lat="46.72499" lon="0.44383">
        <ele>61.5</ele>
        <time>2020-07-03T17:08:56Z</time>
      </trkpt>
      <trkpt lat="46.72495" lon="0.44385">
        <ele>61.5</ele>
        <time>2020-07-03T17:08:57Z</time>
      </trkpt>
      <trkpt lat="46.7249" lon="0.44386">
        <ele>61.5</ele>
        <time>2020-07-03T17:08:58Z</time>
      </trkpt>
      <trkpt lat="46.72486" lon="0.44388">
        <ele>61.4</ele>
        <time>2020-07-03T17:08:59Z</time>
      </trkpt>
      <trkpt lat="46.72482" lon="0.44389">
        <ele>61.4</ele>
        <time>2020-07-03T17:09:00Z</time>
      </trkpt>
      <trkpt lat="46.72478" lon="0.44391">
        <ele>61.3</ele>
        <time>2020-07-03T17:09:01Z</time>
      </trkpt>
      <trkpt lat="46.72473" lon="0.44393">
        <ele>61.2</ele>
        <time>2020-07-03T17:09:02Z</time>
      </trkpt>
      <trkpt lat="46.72468" lon="0.44395">
        <ele>61.2</ele>
        <time>2020-07-03T17:09:03Z</time>
      </trkpt>
      <trkpt lat="46.72463" lon="0.44398">
        <ele>61.1</ele>
        <time>2020-07-03T17:09:04Z</time>
      </trkpt>
      <trkpt lat="46.72458" lon="0.444">
        <ele>61</ele>
        <time>2020-07-03T17:09:05Z</time>
      </trkpt>
      <trkpt lat="46.72453" lon="0.44403">
        <ele>60.8</ele>
        <time>2020-07-03T17:09:06Z</time>
      </trkpt>
      <trkpt lat="46.72447" lon="0.44406">
        <ele>60.7</ele>
        <time>2020-07-03T17:09:07Z</time>
      </trkpt>
      <trkpt lat="46.72441" lon="0.44408">
        <ele>60.6</ele>
        <time>2020-07-03T17:09:08Z</time>
      </trkpt>
      <trkpt lat="46.72435" lon="0.44411">
        <ele>60.5</ele>
        <time>2020-07-03T17:09:09Z</time>
      </trkpt>
      <trkpt lat="46.72429" lon="0.44416">
        <ele>60.4</ele>
        <time>2020-07-03T17:09:10Z</time>
      </trkpt>
      <trkpt lat="46.72423" lon="0.44419">
        <ele>60.3</ele>
        <time>2020-07-03T17:09:11Z</time>
      </trkpt>
      <trkpt lat="46.72417" lon="0.44424">
        <ele>60.2</ele>
        <time>2020-07-03T17:09:12Z</time>
      </trkpt>
      <trkpt lat="46.7241" lon="0.44429">
        <ele>60.1</ele>
        <time>2020-07-03T17:09:13Z</time>
      </trkpt>
      <trkpt lat="46.72404" lon="0.44433">
        <ele>60</ele>
        <time>2020-07-03T17:09:14Z</time>
      </trkpt>
      <trkpt lat="46.72397" lon="0.44436">
        <ele>60</ele>
        <time>2020-07-03T17:09:15Z</time>
      </trkpt>
      <trkpt lat="46.7239" lon="0.4444">
        <ele>59.9</ele>
        <time>2020-07-03T17:09:16Z</time>
      </trkpt>
      <trkpt lat="46.72384" lon="0.44443">
        <ele>59.8</ele>
        <time>2020-07-03T17:09:17Z</time>
      </trkpt>
      <trkpt lat="46.72377" lon="0.44447">
        <ele>59.8</ele>
        <time>2020-07-03T17:09:18Z</time>
      </trkpt>
      <trkpt lat="46.7237" lon="0.44451">
        <ele>59.8</ele>
        <time>2020-07-03T17:09:19Z</time>
      </trkpt>
      <trkpt lat="46.72364" lon="0.44455">
        <ele>59.8</ele>
        <time>2020-07-03T17:09:20Z</time>
      </trkpt>
      <trkpt lat="46.72357" lon="0.44459">
        <ele>59.8</ele>
        <time>2020-07-03T17:09:21Z</time>
      </trkpt>
      <trkpt lat="46.72351" lon="0.44463">
        <ele>59.8</ele>
        <time>2020-07-03T17:09:22Z</time>
      </trkpt>
      <trkpt lat="46.72345" lon="0.44468">
        <ele>59.8</ele>
        <time>2020-07-03T17:09:23Z</time>
      </trkpt>
      <trkpt lat="46.72338" lon="0.44472">
        <ele>59.9</ele>
        <time>2020-07-03T17:09:24Z</time>
      </trkpt>
      <trkpt lat="46.72332" lon="0.44477">
        <ele>59.9</ele>
        <time>2020-07-03T17:09:25Z</time>
      </trkpt>
      <trkpt lat="46.72326" lon="0.44482">
        <ele>59.9</ele>
        <time>2020-07-03T17:09:26Z</time>
      </trkpt>
      <trkpt lat="46.7232" lon="0.44487">
        <ele>60</ele>
        <time>2020-07-03T17:09:27Z</time>
      </trkpt>
      <trkpt lat="46.72315" lon="0.44492">
        <ele>60</ele>
        <time>2020-07-03T17:09:28Z</time>
      </trkpt>
      <trkpt lat="46.72309" lon="0.44497">
        <ele>60</ele>
        <time>2020-07-03T17:09:29Z</time>
      </trkpt>
      <trkpt lat="46.72303" lon="0.44501">
        <ele>60</ele>
        <time>2020-07-03T17:09:30Z</time>
      </trkpt>
      <trkpt lat="46.72298" lon="0.44507">
        <ele>60</ele>
        <time>2020-07-03T17:09:31Z</time>
      </trkpt>
      <trkpt lat="46.72292" lon="0.44512">
        <ele>60</ele>
        <time>2020-07-03T17:09:32Z</time>
      </trkpt>
      <trkpt lat="46.72286" lon="0.44516">
        <ele>60</ele>
        <time>2020-07-03T17:09:33Z</time>
      </trkpt>
      <trkpt lat="46.7228" lon="0.44521">
        <ele>60</ele>
        <time>2020-07-03T17:09:34Z</time>
      </trkpt>
      <trkpt lat="46.72275" lon="0.44526">
        <ele>60</ele>
        <time>2020-07-03T17:09:35Z</time>
      </trkpt>
      <trkpt lat="46.7227" lon="0.44532">
        <ele>59.9</ele>
        <time>2020-07-03T17:09:36Z</time>
      </trkpt>
      <trkpt lat="46.72264" lon="0.44538">
        <ele>59.9</ele>
        <time>2020-07-03T17:09:37Z</time>
      </trkpt>
      <trkpt lat="46.72259" lon="0.44544">
        <ele>59.9</ele>
        <time>2020-07-03T17:09:38Z</time>
      </trkpt>
      <trkpt lat="46.72253" lon="0.4455">
        <ele>59.9</ele>
        <time>2020-07-03T17:09:39Z</time>
      </trkpt>
      <trkpt lat="46.72248" lon="0.44555">
        <ele>59.8</ele>
        <time>2020-07-03T17:09:40Z</time>
      </trkpt>
      <trkpt lat="46.72242" lon="0.4456">
        <ele>59.8</ele>
        <time>2020-07-03T17:09:41Z</time>
      </trkpt>
      <trkpt lat="46.72236" lon="0.44566">
        <ele>59.9</ele>
        <time>2020-07-03T17:09:42Z</time>
      </trkpt>
      <trkpt lat="46.72231" lon="0.44571">
        <ele>59.9</ele>
        <time>2020-07-03T17:09:43Z</time>
      </trkpt>
      <trkpt lat="46.72225" lon="0.44577">
        <ele>59.9</ele>
        <time>2020-07-03T17:09:44Z</time>
      </trkpt>
      <trkpt lat="46.72219" lon="0.44584">
        <ele>59.9</ele>
        <time>2020-07-03T17:09:45Z</time>
      </trkpt>
      <trkpt lat="46.72214" lon="0.44589">
        <ele>59.9</ele>
        <time>2020-07-03T17:09:46Z</time>
      </trkpt>
      <trkpt lat="46.72208" lon="0.44595">
        <ele>59.9</ele>
        <time>2020-07-03T17:09:47Z</time>
      </trkpt>
      <trkpt lat="46.72203" lon="0.44601">
        <ele>59.9</ele>
        <time>2020-07-03T17:09:48Z</time>
      </trkpt>
      <trkpt lat="46.72197" lon="0.44607">
        <ele>60</ele>
        <time>2020-07-03T17:09:49Z</time>
      </trkpt>
      <trkpt lat="46.72192" lon="0.44612">
        <ele>60</ele>
        <time>2020-07-03T17:09:50Z</time>
      </trkpt>
      <trkpt lat="46.72186" lon="0.44618">
        <ele>60</ele>
        <time>2020-07-03T17:09:51Z</time>
      </trkpt>
      <trkpt lat="46.7218" lon="0.44623">
        <ele>60</ele>
        <time>2020-07-03T17:09:52Z</time>
      </trkpt>
      <trkpt lat="46.72175" lon="0.44629">
        <ele>60</ele>
        <time>2020-07-03T17:09:53Z</time>
      </trkpt>
      <trkpt lat="46.72169" lon="0.44634">
        <ele>60</ele>
        <time>2020-07-03T17:09:54Z</time>
      </trkpt>
      <trkpt lat="46.72164" lon="0.4464">
        <ele>60</ele>
        <time>2020-07-03T17:09:55Z</time>
      </trkpt>
      <trkpt lat="46.72158" lon="0.44645">
        <ele>60</ele>
        <time>2020-07-03T17:09:56Z</time>
      </trkpt>
      <trkpt lat="46.72153" lon="0.44651">
        <ele>60</ele>
        <time>2020-07-03T17:09:57Z</time>
      </trkpt>
      <trkpt lat="46.72147" lon="0.44656">
        <ele>59.9</ele>
        <time>2020-07-03T17:09:58Z</time>
      </trkpt>
      <trkpt lat="46.72142" lon="0.44662">
        <ele>59.9</ele>
        <time>2020-07-03T17:09:59Z</time>
      </trkpt>
      <trkpt lat="46.72136" lon="0.44667">
        <ele>59.9</ele>
        <time>2020-07-03T17:10:00Z</time>
      </trkpt>
      <trkpt lat="46.72131" lon="0.44672">
        <ele>59.9</ele>
        <time>2020-07-03T17:10:01Z</time>
      </trkpt>
      <trkpt lat="46.72125" lon="0.44678">
        <ele>59.9</ele>
        <time>2020-07-03T17:10:02Z</time>
      </trkpt>
      <trkpt lat="46.7212" lon="0.44684">
        <ele>59.9</ele>
        <time>2020-07-03T17:10:03Z</time>
      </trkpt>
      <trkpt lat="46.72114" lon="0.44689">
        <ele>59.9</ele>
        <time>2020-07-03T17:10:04Z</time>
      </trkpt>
      <trkpt lat="46.72109" lon="0.44694">
        <ele>60</ele>
        <time>2020-07-03T17:10:05Z</time>
      </trkpt>
      <trkpt lat="46.72104" lon="0.44699">
        <ele>60</ele>
        <time>2020-07-03T17:10:06Z</time>
      </trkpt>
      <trkpt lat="46.72099" lon="0.44704">
        <ele>60</ele>
        <time>2020-07-03T17:10:07Z</time>
      </trkpt>
      <trkpt lat="46.72094" lon="0.44708">
        <ele>60</ele>
        <time>2020-07-03T17:10:08Z</time>
      </trkpt>
      <trkpt lat="46.72089" lon="0.44712">
        <ele>60</ele>
        <time>2020-07-03T17:10:09Z</time>
      </trkpt>
      <trkpt lat="46.72084" lon="0.44717">
        <ele>60</ele>
        <time>2020-07-03T17:10:10Z</time>
      </trkpt>
      <trkpt lat="46.7208" lon="0.44721">
        <ele>60</ele>
        <time>2020-07-03T17:10:11Z</time>
      </trkpt>
      <trkpt lat="46.72075" lon="0.44726">
        <ele>60</ele>
        <time>2020-07-03T17:10:12Z</time>
      </trkpt>
      <trkpt lat="46.72071" lon="0.4473">
        <ele>60.1</ele>
        <time>2020-07-03T17:10:13Z</time>
      </trkpt>
      <trkpt lat="46.72067" lon="0.44735">
        <ele>60.2</ele>
        <time>2020-07-03T17:10:14Z</time>
      </trkpt>
      <trkpt lat="46.72063" lon="0.4474">
        <ele>60.3</ele>
        <time>2020-07-03T17:10:15Z</time>
      </trkpt>
      <trkpt lat="46.72059" lon="0.44744">
        <ele>60.4</ele>
        <time>2020-07-03T17:10:16Z</time>
      </trkpt>
      <trkpt lat="46.72055" lon="0.44748">
        <ele>60.5</ele>
        <time>2020-07-03T17:10:17Z</time>
      </trkpt>
      <trkpt lat="46.72051" lon="0.44752">
        <ele>60.6</ele>
        <time>2020-07-03T17:10:18Z</time>
      </trkpt>
      <trkpt lat="46.72047" lon="0.44755">
        <ele>60.8</ele>
        <time>2020-07-03T17:10:19Z</time>
      </trkpt>
      <trkpt lat="46.72043" lon="0.44754">
        <ele>60.9</ele>
        <time>2020-07-03T17:10:20Z</time>
      </trkpt>
      <trkpt lat="46.72041" lon="0.44749">
        <ele>60.8</ele>
        <time>2020-07-03T17:10:21Z</time>
      </trkpt>
      <trkpt lat="46.7204" lon="0.44743">
        <ele>60.8</ele>
        <time>2020-07-03T17:10:22Z</time>
      </trkpt>
      <trkpt lat="46.72038" lon="0.44737">
        <ele>60.8</ele>
        <time>2020-07-03T17:10:23Z</time>
      </trkpt>
      <trkpt lat="46.72036" lon="0.44731">
        <ele>60.7</ele>
        <time>2020-07-03T17:10:24Z</time>
      </trkpt>
      <trkpt lat="46.72034" lon="0.44726">
        <ele>60.7</ele>
        <time>2020-07-03T17:10:25Z</time>
      </trkpt>
      <trkpt lat="46.72032" lon="0.44719">
        <ele>60.7</ele>
        <time>2020-07-03T17:10:26Z</time>
      </trkpt>
      <trkpt lat="46.7203" lon="0.44713">
        <ele>60.6</ele>
        <time>2020-07-03T17:10:27Z</time>
      </trkpt>
      <trkpt lat="46.72029" lon="0.44706">
        <ele>60.6</ele>
        <time>2020-07-03T17:10:28Z</time>
      </trkpt>
      <trkpt lat="46.72028" lon="0.44699">
        <ele>60.6</ele>
        <time>2020-07-03T17:10:29Z</time>
      </trkpt>
      <trkpt lat="46.72027" lon="0.44692">
        <ele>60.5</ele>
        <time>2020-07-03T17:10:30Z</time>
      </trkpt>
      <trkpt lat="46.72025" lon="0.44686">
        <ele>60.5</ele>
        <time>2020-07-03T17:10:31Z</time>
      </trkpt>
      <trkpt lat="46.72023" lon="0.44678">
        <ele>60.5</ele>
        <time>2020-07-03T17:10:32Z</time>
      </trkpt>
      <trkpt lat="46.72022" lon="0.44671">
        <ele>60.4</ele>
        <time>2020-07-03T17:10:33Z</time>
      </trkpt>
      <trkpt lat="46.7202" lon="0.44663">
        <ele>60.4</ele>
        <time>2020-07-03T17:10:34Z</time>
      </trkpt>
      <trkpt lat="46.72018" lon="0.44656">
        <ele>60.4</ele>
        <time>2020-07-03T17:10:35Z</time>
      </trkpt>
      <trkpt lat="46.72016" lon="0.44649">
        <ele>60.4</ele>
        <time>2020-07-03T17:10:36Z</time>
      </trkpt>
      <trkpt lat="46.72014" lon="0.44642">
        <ele>60.4</ele>
        <time>2020-07-03T17:10:37Z</time>
      </trkpt>
      <trkpt lat="46.72012" lon="0.44635">
        <ele>60.4</ele>
        <time>2020-07-03T17:10:38Z</time>
      </trkpt>
      <trkpt lat="46.72011" lon="0.44628">
        <ele>60.4</ele>
        <time>2020-07-03T17:10:39Z</time>
      </trkpt>
      <trkpt lat="46.7201" lon="0.44621">
        <ele>60.4</ele>
        <time>2020-07-03T17:10:40Z</time>
      </trkpt>
      <trkpt lat="46.72009" lon="0.44614">
        <ele>60.4</ele>
        <time>2020-07-03T17:10:41Z</time>
      </trkpt>
      <trkpt lat="46.72007" lon="0.44606">
        <ele>60.4</ele>
        <time>2020-07-03T17:10:42Z</time>
      </trkpt>
      <trkpt lat="46.72005" lon="0.446">
        <ele>60.4</ele>
        <time>2020-07-03T17:10:43Z</time>
      </trkpt>
      <trkpt lat="46.72004" lon="0.44592">
        <ele>60.4</ele>
        <time>2020-07-03T17:10:44Z</time>
      </trkpt>
      <trkpt lat="46.72002" lon="0.44583">
        <ele>60.4</ele>
        <time>2020-07-03T17:10:45Z</time>
      </trkpt>
      <trkpt lat="46.72" lon="0.44575">
        <ele>60.4</ele>
        <time>2020-07-03T17:10:46Z</time>
      </trkpt>
      <trkpt lat="46.71998" lon="0.44567">
        <ele>60.5</ele>
        <time>2020-07-03T17:10:47Z</time>
      </trkpt>
      <trkpt lat="46.71996" lon="0.4456">
        <ele>60.5</ele>
        <time>2020-07-03T17:10:48Z</time>
      </trkpt>
      <trkpt lat="46.71995" lon="0.44552">
        <ele>60.6</ele>
        <time>2020-07-03T17:10:49Z</time>
      </trkpt>
      <trkpt lat="46.71993" lon="0.44545">
        <ele>60.6</ele>
        <time>2020-07-03T17:10:50Z</time>
      </trkpt>
      <trkpt lat="46.71991" lon="0.44537">
        <ele>60.6</ele>
        <time>2020-07-03T17:10:51Z</time>
      </trkpt>
      <trkpt lat="46.7199" lon="0.44529">
        <ele>60.7</ele>
        <time>2020-07-03T17:10:52Z</time>
      </trkpt>
      <trkpt lat="46.71989" lon="0.44522">
        <ele>60.7</ele>
        <time>2020-07-03T17:10:53Z</time>
      </trkpt>
      <trkpt lat="46.71988" lon="0.44515">
        <ele>60.7</ele>
        <time>2020-07-03T17:10:54Z</time>
      </trkpt>
      <trkpt lat="46.71986" lon="0.44507">
        <ele>60.8</ele>
        <time>2020-07-03T17:10:55Z</time>
      </trkpt>
      <trkpt lat="46.71984" lon="0.44501">
        <ele>60.8</ele>
        <time>2020-07-03T17:10:56Z</time>
      </trkpt>
      <trkpt lat="46.71981" lon="0.44494">
        <ele>60.9</ele>
        <time>2020-07-03T17:10:57Z</time>
      </trkpt>
      <trkpt lat="46.71979" lon="0.44487">
        <ele>60.9</ele>
        <time>2020-07-03T17:10:58Z</time>
      </trkpt>
      <trkpt lat="46.71977" lon="0.44481">
        <ele>61</ele>
        <time>2020-07-03T17:10:59Z</time>
      </trkpt>
      <trkpt lat="46.71975" lon="0.44472">
        <ele>61.1</ele>
        <time>2020-07-03T17:11:00Z</time>
      </trkpt>
      <trkpt lat="46.71973" lon="0.44464">
        <ele>61.2</ele>
        <time>2020-07-03T17:11:01Z</time>
      </trkpt>
      <trkpt lat="46.71972" lon="0.44456">
        <ele>61.3</ele>
        <time>2020-07-03T17:11:02Z</time>
      </trkpt>
      <trkpt lat="46.71971" lon="0.44448">
        <ele>61.4</ele>
        <time>2020-07-03T17:11:03Z</time>
      </trkpt>
      <trkpt lat="46.71969" lon="0.44442">
        <ele>61.4</ele>
        <time>2020-07-03T17:11:04Z</time>
      </trkpt>
      <trkpt lat="46.71968" lon="0.44435">
        <ele>61.3</ele>
        <time>2020-07-03T17:11:05Z</time>
      </trkpt>
      <trkpt lat="46.71967" lon="0.44427">
        <ele>61.3</ele>
        <time>2020-07-03T17:11:06Z</time>
      </trkpt>
      <trkpt lat="46.71965" lon="0.44418">
        <ele>61.3</ele>
        <time>2020-07-03T17:11:07Z</time>
      </trkpt>
      <trkpt lat="46.71963" lon="0.4441">
        <ele>61.2</ele>
        <time>2020-07-03T17:11:08Z</time>
      </trkpt>
      <trkpt lat="46.71962" lon="0.44403">
        <ele>61.2</ele>
        <time>2020-07-03T17:11:09Z</time>
      </trkpt>
      <trkpt lat="46.7196" lon="0.44394">
        <ele>61.2</ele>
        <time>2020-07-03T17:11:10Z</time>
      </trkpt>
      <trkpt lat="46.71958" lon="0.44386">
        <ele>61.2</ele>
        <time>2020-07-03T17:11:11Z</time>
      </trkpt>
      <trkpt lat="46.71957" lon="0.44378">
        <ele>61.2</ele>
        <time>2020-07-03T17:11:12Z</time>
      </trkpt>
      <trkpt lat="46.71955" lon="0.44371">
        <ele>61.3</ele>
        <time>2020-07-03T17:11:13Z</time>
      </trkpt>
      <trkpt lat="46.71953" lon="0.44362">
        <ele>61.3</ele>
        <time>2020-07-03T17:11:14Z</time>
      </trkpt>
      <trkpt lat="46.71951" lon="0.44356">
        <ele>61.3</ele>
        <time>2020-07-03T17:11:15Z</time>
      </trkpt>
      <trkpt lat="46.71949" lon="0.44348">
        <ele>61.4</ele>
        <time>2020-07-03T17:11:16Z</time>
      </trkpt>
      <trkpt lat="46.71947" lon="0.4434">
        <ele>61.4</ele>
        <time>2020-07-03T17:11:17Z</time>
      </trkpt>
      <trkpt lat="46.71946" lon="0.44332">
        <ele>61.5</ele>
        <time>2020-07-03T17:11:18Z</time>
      </trkpt>
      <trkpt lat="46.71944" lon="0.44325">
        <ele>61.5</ele>
        <time>2020-07-03T17:11:19Z</time>
      </trkpt>
      <trkpt lat="46.71942" lon="0.4432">
        <ele>61.5</ele>
        <time>2020-07-03T17:11:20Z</time>
      </trkpt>
      <trkpt lat="46.7194" lon="0.44313">
        <ele>61.6</ele>
        <time>2020-07-03T17:11:21Z</time>
      </trkpt>
      <trkpt lat="46.71938" lon="0.44305">
        <ele>61.6</ele>
        <time>2020-07-03T17:11:22Z</time>
      </trkpt>
      <trkpt lat="46.71936" lon="0.44298">
        <ele>61.6</ele>
        <time>2020-07-03T17:11:23Z</time>
      </trkpt>
      <trkpt lat="46.71934" lon="0.44291">
        <ele>61.7</ele>
        <time>2020-07-03T17:11:24Z</time>
      </trkpt>
      <trkpt lat="46.71932" lon="0.44283">
        <ele>61.7</ele>
        <time>2020-07-03T17:11:25Z</time>
      </trkpt>
      <trkpt lat="46.71929" lon="0.44277">
        <ele>61.8</ele>
        <time>2020-07-03T17:11:26Z</time>
      </trkpt>
      <trkpt lat="46.71925" lon="0.4427">
        <ele>61.8</ele>
        <time>2020-07-03T17:11:27Z</time>
      </trkpt>
      <trkpt lat="46.71922" lon="0.44265">
        <ele>61.8</ele>
        <time>2020-07-03T17:11:28Z</time>
      </trkpt>
      <trkpt lat="46.71918" lon="0.44261">
        <ele>61.9</ele>
        <time>2020-07-03T17:11:29Z</time>
      </trkpt>
      <trkpt lat="46.71915" lon="0.44258">
        <ele>61.9</ele>
        <time>2020-07-03T17:11:30Z</time>
      </trkpt>
      <trkpt lat="46.71911" lon="0.44255">
        <ele>61.9</ele>
        <time>2020-07-03T17:11:31Z</time>
      </trkpt>
      <trkpt lat="46.71908" lon="0.44253">
        <ele>61.9</ele>
        <time>2020-07-03T17:11:32Z</time>
      </trkpt>
      <trkpt lat="46.71904" lon="0.4425">
        <ele>61.9</ele>
        <time>2020-07-03T17:11:33Z</time>
      </trkpt>
      <trkpt lat="46.719" lon="0.44247">
        <ele>61.9</ele>
        <time>2020-07-03T17:11:34Z</time>
      </trkpt>
      <trkpt lat="46.71895" lon="0.44244">
        <ele>61.9</ele>
        <time>2020-07-03T17:11:35Z</time>
      </trkpt>
      <trkpt lat="46.7189" lon="0.44241">
        <ele>61.9</ele>
        <time>2020-07-03T17:11:36Z</time>
      </trkpt>
      <trkpt lat="46.71885" lon="0.44237">
        <ele>62</ele>
        <time>2020-07-03T17:11:37Z</time>
      </trkpt>
      <trkpt lat="46.7188" lon="0.44232">
        <ele>62</ele>
        <time>2020-07-03T17:11:38Z</time>
      </trkpt>
      <trkpt lat="46.71875" lon="0.44227">
        <ele>62</ele>
        <time>2020-07-03T17:11:39Z</time>
      </trkpt>
      <trkpt lat="46.7187" lon="0.4422">
        <ele>62</ele>
        <time>2020-07-03T17:11:40Z</time>
      </trkpt>
      <trkpt lat="46.71866" lon="0.44213">
        <ele>62</ele>
        <time>2020-07-03T17:11:41Z</time>
      </trkpt>
      <trkpt lat="46.71863" lon="0.44206">
        <ele>62.1</ele>
        <time>2020-07-03T17:11:42Z</time>
      </trkpt>
      <trkpt lat="46.71861" lon="0.44198">
        <ele>62.1</ele>
        <time>2020-07-03T17:11:43Z</time>
      </trkpt>
      <trkpt lat="46.7186" lon="0.4419">
        <ele>62.1</ele>
        <time>2020-07-03T17:11:44Z</time>
      </trkpt>
      <trkpt lat="46.71859" lon="0.44182">
        <ele>62.1</ele>
        <time>2020-07-03T17:11:45Z</time>
      </trkpt>
      <trkpt lat="46.71858" lon="0.44173">
        <ele>62.1</ele>
        <time>2020-07-03T17:11:46Z</time>
      </trkpt>
      <trkpt lat="46.71857" lon="0.44165">
        <ele>62.1</ele>
        <time>2020-07-03T17:11:47Z</time>
      </trkpt>
      <trkpt lat="46.71855" lon="0.44157">
        <ele>62</ele>
        <time>2020-07-03T17:11:48Z</time>
      </trkpt>
      <trkpt lat="46.71853" lon="0.44151">
        <ele>62</ele>
        <time>2020-07-03T17:11:49Z</time>
      </trkpt>
      <trkpt lat="46.71851" lon="0.44144">
        <ele>62</ele>
        <time>2020-07-03T17:11:50Z</time>
      </trkpt>
      <trkpt lat="46.71849" lon="0.44136">
        <ele>61.9</ele>
        <time>2020-07-03T17:11:51Z</time>
      </trkpt>
      <trkpt lat="46.71847" lon="0.44125">
        <ele>61.8</ele>
        <time>2020-07-03T17:11:52Z</time>
      </trkpt>
      <trkpt lat="46.71845" lon="0.44117">
        <ele>61.8</ele>
        <time>2020-07-03T17:11:53Z</time>
      </trkpt>
      <trkpt lat="46.71843" lon="0.44107">
        <ele>61.6</ele>
        <time>2020-07-03T17:11:54Z</time>
      </trkpt>
      <trkpt lat="46.71842" lon="0.44098">
        <ele>61.6</ele>
        <time>2020-07-03T17:11:55Z</time>
      </trkpt>
      <trkpt lat="46.71841" lon="0.44087">
        <ele>61.5</ele>
        <time>2020-07-03T17:11:56Z</time>
      </trkpt>
      <trkpt lat="46.71841" lon="0.44077">
        <ele>61.5</ele>
        <time>2020-07-03T17:11:57Z</time>
      </trkpt>
      <trkpt lat="46.71841" lon="0.44066">
        <ele>61.5</ele>
        <time>2020-07-03T17:11:58Z</time>
      </trkpt>
      <trkpt lat="46.71842" lon="0.44057">
        <ele>61.5</ele>
        <time>2020-07-03T17:11:59Z</time>
      </trkpt>
      <trkpt lat="46.71842" lon="0.44048">
        <ele>61.4</ele>
        <time>2020-07-03T17:12:00Z</time>
      </trkpt>
      <trkpt lat="46.71841" lon="0.44039">
        <ele>61.4</ele>
        <time>2020-07-03T17:12:01Z</time>
      </trkpt>
      <trkpt lat="46.71841" lon="0.44031">
        <ele>61.4</ele>
        <time>2020-07-03T17:12:02Z</time>
      </trkpt>
      <trkpt lat="46.7184" lon="0.44022">
        <ele>61.4</ele>
        <time>2020-07-03T17:12:03Z</time>
      </trkpt>
      <trkpt lat="46.71838" lon="0.44012">
        <ele>61.4</ele>
        <time>2020-07-03T17:12:04Z</time>
      </trkpt>
      <trkpt lat="46.71836" lon="0.44005">
        <ele>61.4</ele>
        <time>2020-07-03T17:12:05Z</time>
      </trkpt>
      <trkpt lat="46.71833" lon="0.43997">
        <ele>61.4</ele>
        <time>2020-07-03T17:12:06Z</time>
      </trkpt>
      <trkpt lat="46.7183" lon="0.43988">
        <ele>61.4</ele>
        <time>2020-07-03T17:12:07Z</time>
      </trkpt>
      <trkpt lat="46.71829" lon="0.43979">
        <ele>61.4</ele>
        <time>2020-07-03T17:12:08Z</time>
      </trkpt>
      <trkpt lat="46.71827" lon="0.4397">
        <ele>61.4</ele>
        <time>2020-07-03T17:12:09Z</time>
      </trkpt>
      <trkpt lat="46.71825" lon="0.43962">
        <ele>61.4</ele>
        <time>2020-07-03T17:12:10Z</time>
      </trkpt>
      <trkpt lat="46.71822" lon="0.43952">
        <ele>61.4</ele>
        <time>2020-07-03T17:12:11Z</time>
      </trkpt>
      <trkpt lat="46.7182" lon="0.43943">
        <ele>61.4</ele>
        <time>2020-07-03T17:12:12Z</time>
      </trkpt>
      <trkpt lat="46.71819" lon="0.43934">
        <ele>61.4</ele>
        <time>2020-07-03T17:12:13Z</time>
      </trkpt>
      <trkpt lat="46.71816" lon="0.43925">
        <ele>61.4</ele>
        <time>2020-07-03T17:12:14Z</time>
      </trkpt>
      <trkpt lat="46.71814" lon="0.43917">
        <ele>61.4</ele>
        <time>2020-07-03T17:12:15Z</time>
      </trkpt>
      <trkpt lat="46.71812" lon="0.43908">
        <ele>61.4</ele>
        <time>2020-07-03T17:12:16Z</time>
      </trkpt>
      <trkpt lat="46.7181" lon="0.439">
        <ele>61.5</ele>
        <time>2020-07-03T17:12:17Z</time>
      </trkpt>
      <trkpt lat="46.71807" lon="0.43893">
        <ele>61.5</ele>
        <time>2020-07-03T17:12:18Z</time>
      </trkpt>
      <trkpt lat="46.71804" lon="0.43883">
        <ele>61.5</ele>
        <time>2020-07-03T17:12:19Z</time>
      </trkpt>
      <trkpt lat="46.71802" lon="0.43873">
        <ele>61.6</ele>
        <time>2020-07-03T17:12:20Z</time>
      </trkpt>
      <trkpt lat="46.71799" lon="0.43866">
        <ele>61.6</ele>
        <time>2020-07-03T17:12:21Z</time>
      </trkpt>
      <trkpt lat="46.71796" lon="0.43858">
        <ele>61.6</ele>
        <time>2020-07-03T17:12:22Z</time>
      </trkpt>
      <trkpt lat="46.71794" lon="0.4385">
        <ele>61.7</ele>
        <time>2020-07-03T17:12:23Z</time>
      </trkpt>
      <trkpt lat="46.71791" lon="0.43843">
        <ele>61.7</ele>
        <time>2020-07-03T17:12:24Z</time>
      </trkpt>
      <trkpt lat="46.71789" lon="0.43835">
        <ele>61.7</ele>
        <time>2020-07-03T17:12:25Z</time>
      </trkpt>
      <trkpt lat="46.71786" lon="0.43827">
        <ele>61.8</ele>
        <time>2020-07-03T17:12:26Z</time>
      </trkpt>
      <trkpt lat="46.71783" lon="0.43819">
        <ele>61.8</ele>
        <time>2020-07-03T17:12:27Z</time>
      </trkpt>
      <trkpt lat="46.71781" lon="0.43811">
        <ele>61.8</ele>
        <time>2020-07-03T17:12:28Z</time>
      </trkpt>
      <trkpt lat="46.71779" lon="0.43803">
        <ele>61.8</ele>
        <time>2020-07-03T17:12:29Z</time>
      </trkpt>
      <trkpt lat="46.71777" lon="0.43796">
        <ele>61.8</ele>
        <time>2020-07-03T17:12:30Z</time>
      </trkpt>
      <trkpt lat="46.71774" lon="0.43789">
        <ele>61.8</ele>
        <time>2020-07-03T17:12:31Z</time>
      </trkpt>
      <trkpt lat="46.7177" lon="0.43782">
        <ele>61.8</ele>
        <time>2020-07-03T17:12:32Z</time>
      </trkpt>
      <trkpt lat="46.71766" lon="0.43774">
        <ele>61.8</ele>
        <time>2020-07-03T17:12:33Z</time>
      </trkpt>
      <trkpt lat="46.7176" lon="0.43767">
        <ele>61.8</ele>
        <time>2020-07-03T17:12:34Z</time>
      </trkpt>
      <trkpt lat="46.71756" lon="0.43762">
        <ele>61.7</ele>
        <time>2020-07-03T17:12:35Z</time>
      </trkpt>
      <trkpt lat="46.71751" lon="0.43757">
        <ele>61.7</ele>
        <time>2020-07-03T17:12:36Z</time>
      </trkpt>
      <trkpt lat="46.71746" lon="0.43752">
        <ele>61.7</ele>
        <time>2020-07-03T17:12:37Z</time>
      </trkpt>
      <trkpt lat="46.71743" lon="0.43749">
        <ele>61.7</ele>
        <time>2020-07-03T17:12:38Z</time>
      </trkpt>
      <trkpt lat="46.71738" lon="0.43746">
        <ele>61.7</ele>
        <time>2020-07-03T17:12:39Z</time>
      </trkpt>
      <trkpt lat="46.71733" lon="0.43741">
        <ele>61.8</ele>
        <time>2020-07-03T17:12:40Z</time>
      </trkpt>
      <trkpt lat="46.71728" lon="0.43736">
        <ele>61.8</ele>
        <time>2020-07-03T17:12:41Z</time>
      </trkpt>
      <trkpt lat="46.71724" lon="0.43732">
        <ele>61.9</ele>
        <time>2020-07-03T17:12:42Z</time>
      </trkpt>
      <trkpt lat="46.7172" lon="0.43729">
        <ele>61.9</ele>
        <time>2020-07-03T17:12:43Z</time>
      </trkpt>
      <trkpt lat="46.71716" lon="0.43726">
        <ele>61.9</ele>
        <time>2020-07-03T17:12:44Z</time>
      </trkpt>
      <trkpt lat="46.71712" lon="0.43722">
        <ele>61.9</ele>
        <time>2020-07-03T17:12:45Z</time>
      </trkpt>
      <trkpt lat="46.71709" lon="0.43719">
        <ele>62</ele>
        <time>2020-07-03T17:12:46Z</time>
      </trkpt>
      <trkpt lat="46.71706" lon="0.43716">
        <ele>62</ele>
        <time>2020-07-03T17:12:47Z</time>
      </trkpt>
      <trkpt lat="46.71703" lon="0.43712">
        <ele>62</ele>
        <time>2020-07-03T17:12:48Z</time>
      </trkpt>
      <trkpt lat="46.71702" lon="0.4371">
        <ele>62</ele>
        <time>2020-07-03T17:12:49Z</time>
      </trkpt>
      <trkpt lat="46.71703" lon="0.43711">
        <ele>62</ele>
        <time>2020-07-03T17:12:50Z</time>
      </trkpt>
      <trkpt lat="46.71703" lon="0.43711">
        <ele>62</ele>
        <time>2020-07-03T17:12:51Z</time>
      </trkpt>
      <trkpt lat="46.71703" lon="0.43712">
        <ele>62</ele>
        <time>2020-07-03T17:12:52Z</time>
      </trkpt>
      <trkpt lat="46.71703" lon="0.43712">
        <ele>62</ele>
        <time>2020-07-03T17:12:53Z</time>
      </trkpt>
      <trkpt lat="46.71703" lon="0.43712">
        <ele>62</ele>
        <time>2020-07-03T17:12:54Z</time>
      </trkpt>
      <trkpt lat="46.71702" lon="0.43711">
        <ele>62</ele>
        <time>2020-07-03T17:12:55Z</time>
      </trkpt>
      <trkpt lat="46.71702" lon="0.4371">
        <ele>62</ele>
        <time>2020-07-03T17:12:56Z</time>
      </trkpt>
      <trkpt lat="46.71701" lon="0.4371">
        <ele>62</ele>
        <time>2020-07-03T17:12:57Z</time>
      </trkpt>
      <trkpt lat="46.717" lon="0.4371">
        <ele>62</ele>
        <time>2020-07-03T17:12:58Z</time>
      </trkpt>
      <trkpt lat="46.717" lon="0.43711">
        <ele>62</ele>
        <time>2020-07-03T17:12:59Z</time>
      </trkpt>
      <trkpt lat="46.717" lon="0.4371">
        <ele>62</ele>
        <time>2020-07-03T17:13:00Z</time>
      </trkpt>
      <trkpt lat="46.71702" lon="0.43711">
        <ele>62.1</ele>
        <time>2020-07-03T17:15:00Z</time>
      </trkpt>
      <trkpt lat="46.717" lon="0.4371">
        <ele>62.1</ele>
        <time>2020-07-03T17:15:01Z</time>
      </trkpt>
      <trkpt lat="46.71697" lon="0.43709">
        <ele>62.1</ele>
        <time>2020-07-03T17:15:02Z</time>
      </trkpt>
      <trkpt lat="46.71693" lon="0.43706">
        <ele>62.1</ele>
        <time>2020-07-03T17:15:03Z</time>
      </trkpt>
      <trkpt lat="46.71691" lon="0.43705">
        <ele>62.1</ele>
        <time>2020-07-03T17:15:04Z</time>
      </trkpt>
      <trkpt lat="46.71688" lon="0.43703">
        <ele>62.2</ele>
        <time>2020-07-03T17:15:05Z</time>
      </trkpt>
      <trkpt lat="46.71685" lon="0.43698">
        <ele>62.2</ele>
        <time>2020-07-03T17:15:06Z</time>
      </trkpt>
      <trkpt lat="46.71682" lon="0.43694">
        <ele>62.2</ele>
        <time>2020-07-03T17:15:07Z</time>
      </trkpt>
      <trkpt lat="46.71677" lon="0.43691">
        <ele>62.2</ele>
        <time>2020-07-03T17:15:08Z</time>
      </trkpt>
      <trkpt lat="46.71674" lon="0.43687">
        <ele>62.2</ele>
        <time>2020-07-03T17:15:09Z</time>
      </trkpt>
      <trkpt lat="46.7167" lon="0.43684">
        <ele>62.2</ele>
        <time>2020-07-03T17:15:10Z</time>
      </trkpt>
      <trkpt lat="46.71666" lon="0.4368">
        <ele>62.2</ele>
        <time>2020-07-03T17:15:11Z</time>
      </trkpt>
      <trkpt lat="46.71662" lon="0.43676">
        <ele>62.3</ele>
        <time>2020-07-03T17:15:12Z</time>
      </trkpt>
      <trkpt lat="46.71657" lon="0.43673">
        <ele>62.3</ele>
        <time>2020-07-03T17:15:13Z</time>
      </trkpt>
      <trkpt lat="46.71653" lon="0.43668">
        <ele>62.3</ele>
        <time>2020-07-03T17:15:14Z</time>
      </trkpt>
      <trkpt lat="46.71649" lon="0.43666">
        <ele>62.4</ele>
        <time>2020-07-03T17:15:15Z</time>
      </trkpt>
      <trkpt lat="46.71645" lon="0.43661">
        <ele>62.4</ele>
        <time>2020-07-03T17:15:16Z</time>
      </trkpt>
      <trkpt lat="46.7164" lon="0.43658">
        <ele>62.4</ele>
        <time>2020-07-03T17:15:17Z</time>
      </trkpt>
      <trkpt lat="46.71635" lon="0.43655">
        <ele>62.5</ele>
        <time>2020-07-03T17:15:18Z</time>
      </trkpt>
      <trkpt lat="46.71631" lon="0.43652">
        <ele>62.5</ele>
        <time>2020-07-03T17:15:19Z</time>
      </trkpt>
      <trkpt lat="46.71627" lon="0.43647">
        <ele>62.5</ele>
        <time>2020-07-03T17:15:20Z</time>
      </trkpt>
      <trkpt lat="46.71623" lon="0.43643">
        <ele>62.6</ele>
        <time>2020-07-03T17:15:21Z</time>
      </trkpt>
      <trkpt lat="46.71618" lon="0.43639">
        <ele>62.6</ele>
        <time>2020-07-03T17:15:22Z</time>
      </trkpt>
      <trkpt lat="46.71613" lon="0.43634">
        <ele>62.7</ele>
        <time>2020-07-03T17:15:23Z</time>
      </trkpt>
      <trkpt lat="46.71609" lon="0.43629">
        <ele>62.7</ele>
        <time>2020-07-03T17:15:24Z</time>
      </trkpt>
      <trkpt lat="46.71605" lon="0.43625">
        <ele>62.7</ele>
        <time>2020-07-03T17:15:25Z</time>
      </trkpt>
      <trkpt lat="46.71601" lon="0.43618">
        <ele>62.8</ele>
        <time>2020-07-03T17:15:26Z</time>
      </trkpt>
      <trkpt lat="46.71595" lon="0.43614">
        <ele>62.8</ele>
        <time>2020-07-03T17:15:27Z</time>
      </trkpt>
      <trkpt lat="46.71592" lon="0.43611">
        <ele>62.8</ele>
        <time>2020-07-03T17:15:28Z</time>
      </trkpt>
      <trkpt lat="46.71587" lon="0.43606">
        <ele>62.9</ele>
        <time>2020-07-03T17:15:29Z</time>
      </trkpt>
      <trkpt lat="46.71582" lon="0.43602">
        <ele>63</ele>
        <time>2020-07-03T17:15:30Z</time>
      </trkpt>
      <trkpt lat="46.71577" lon="0.43597">
        <ele>63</ele>
        <time>2020-07-03T17:15:31Z</time>
      </trkpt>
      <trkpt lat="46.71573" lon="0.43592">
        <ele>63.1</ele>
        <time>2020-07-03T17:15:32Z</time>
      </trkpt>
      <trkpt lat="46.71569" lon="0.43588">
        <ele>63.1</ele>
        <time>2020-07-03T17:15:33Z</time>
      </trkpt>
      <trkpt lat="46.71564" lon="0.43581">
        <ele>63.2</ele>
        <time>2020-07-03T17:15:34Z</time>
      </trkpt>
      <trkpt lat="46.71559" lon="0.43578">
        <ele>63.2</ele>
        <time>2020-07-03T17:15:35Z</time>
      </trkpt>
      <trkpt lat="46.71554" lon="0.43574">
        <ele>63.3</ele>
        <time>2020-07-03T17:15:36Z</time>
      </trkpt>
      <trkpt lat="46.7155" lon="0.43571">
        <ele>63.3</ele>
        <time>2020-07-03T17:15:37Z</time>
      </trkpt>
      <trkpt lat="46.71544" lon="0.43567">
        <ele>63.3</ele>
        <time>2020-07-03T17:15:38Z</time>
      </trkpt>
      <trkpt lat="46.7154" lon="0.43562">
        <ele>63.3</ele>
        <time>2020-07-03T17:15:39Z</time>
      </trkpt>
      <trkpt lat="46.71535" lon="0.43557">
        <ele>63.3</ele>
        <time>2020-07-03T17:15:40Z</time>
      </trkpt>
      <trkpt lat="46.7153" lon="0.43552">
        <ele>63.4</ele>
        <time>2020-07-03T17:15:41Z</time>
      </trkpt>
      <trkpt lat="46.71525" lon="0.43547">
        <ele>63.4</ele>
        <time>2020-07-03T17:15:42Z</time>
      </trkpt>
      <trkpt lat="46.71521" lon="0.43543">
        <ele>63.5</ele>
        <time>2020-07-03T17:15:43Z</time>
      </trkpt>
      <trkpt lat="46.71516" lon="0.43538">
        <ele>63.5</ele>
        <time>2020-07-03T17:15:44Z</time>
      </trkpt>
      <trkpt lat="46.71511" lon="0.43533">
        <ele>63.6</ele>
        <time>2020-07-03T17:15:45Z</time>
      </trkpt>
      <trkpt lat="46.71506" lon="0.43529">
        <ele>63.6</ele>
        <time>2020-07-03T17:15:46Z</time>
      </trkpt>
      <trkpt lat="46.715" lon="0.43525">
        <ele>63.6</ele>
        <time>2020-07-03T17:15:47Z</time>
      </trkpt>
      <trkpt lat="46.71495" lon="0.43521">
        <ele>63.7</ele>
        <time>2020-07-03T17:15:48Z</time>
      </trkpt>
      <trkpt lat="46.71491" lon="0.43516">
        <ele>63.7</ele>
        <time>2020-07-03T17:15:49Z</time>
      </trkpt>
      <trkpt lat="46.71487" lon="0.43513">
        <ele>63.7</ele>
        <time>2020-07-03T17:15:50Z</time>
      </trkpt>
      <trkpt lat="46.71482" lon="0.4351">
        <ele>63.7</ele>
        <time>2020-07-03T17:15:51Z</time>
      </trkpt>
      <trkpt lat="46.71477" lon="0.43505">
        <ele>63.7</ele>
        <time>2020-07-03T17:15:52Z</time>
      </trkpt>
      <trkpt lat="46.71472" lon="0.43499">
        <ele>63.6</ele>
        <time>2020-07-03T17:15:53Z</time>
      </trkpt>
      <trkpt lat="46.71469" lon="0.43494">
        <ele>63.6</ele>
        <time>2020-07-03T17:15:54Z</time>
      </trkpt>
      <trkpt lat="46.71465" lon="0.43489">
        <ele>63.5</ele>
        <time>2020-07-03T17:15:55Z</time>
      </trkpt>
      <trkpt lat="46.7146" lon="0.43483">
        <ele>63.4</ele>
        <time>2020-07-03T17:15:56Z</time>
      </trkpt>
      <trkpt lat="46.71456" lon="0.43477">
        <ele>63.3</ele>
        <time>2020-07-03T17:15:57Z</time>
      </trkpt>
      <trkpt lat="46.71451" lon="0.4347">
        <ele>63.1</ele>
        <time>2020-07-03T17:15:58Z</time>
      </trkpt>
      <trkpt lat="46.71447" lon="0.43464">
        <ele>63</ele>
        <time>2020-07-03T17:15:59Z</time>
      </trkpt>
      <trkpt lat="46.71444" lon="0.43455">
        <ele>62.8</ele>
        <time>2020-07-03T17:16:00Z</time>
      </trkpt>
      <trkpt lat="46.71441" lon="0.43447">
        <ele>62.7</ele>
        <time>2020-07-03T17:16:01Z</time>
      </trkpt>
      <trkpt lat="46.71437" lon="0.43439">
        <ele>62.5</ele>
        <time>2020-07-03T17:16:02Z</time>
      </trkpt>
      <trkpt lat="46.71434" lon="0.43429">
        <ele>62.3</ele>
        <time>2020-07-03T17:16:03Z</time>
      </trkpt>
      <trkpt lat="46.71431" lon="0.4342">
        <ele>62.1</ele>
        <time>2020-07-03T17:16:04Z</time>
      </trkpt>
      <trkpt lat="46.71427" lon="0.4341">
        <ele>61.9</ele>
        <time>2020-07-03T17:16:05Z</time>
      </trkpt>
      <trkpt lat="46.71422" lon="0.43402">
        <ele>61.8</ele>
        <time>2020-07-03T17:16:06Z</time>
      </trkpt>
      <trkpt lat="46.71418" lon="0.43392">
        <ele>61.7</ele>
        <time>2020-07-03T17:16:07Z</time>
      </trkpt>
      <trkpt lat="46.71414" lon="0.43384">
        <ele>61.6</ele>
        <time>2020-07-03T17:16:08Z</time>
      </trkpt>
      <trkpt lat="46.71409" lon="0.43377">
        <ele>61.5</ele>
        <time>2020-07-03T17:16:09Z</time>
      </trkpt>
      <trkpt lat="46.71405" lon="0.4337">
        <ele>61.4</ele>
        <time>2020-07-03T17:16:10Z</time>
      </trkpt>
      <trkpt lat="46.71399" lon="0.43362">
        <ele>61.2</ele>
        <time>2020-07-03T17:16:11Z</time>
      </trkpt>
      <trkpt lat="46.71394" lon="0.43353">
        <ele>61.1</ele>
        <time>2020-07-03T17:16:12Z</time>
      </trkpt>
      <trkpt lat="46.71389" lon="0.43345">
        <ele>61</ele>
        <time>2020-07-03T17:16:13Z</time>
      </trkpt>
      <trkpt lat="46.71384" lon="0.43337">
        <ele>61</ele>
        <time>2020-07-03T17:16:14Z</time>
      </trkpt>
      <trkpt lat="46.71378" lon="0.4333">
        <ele>60.9</ele>
        <time>2020-07-03T17:16:15Z</time>
      </trkpt>
      <trkpt lat="46.71373" lon="0.43323">
        <ele>60.9</ele>
        <time>2020-07-03T17:16:16Z</time>
      </trkpt>
      <trkpt lat="46.71368" lon="0.43316">
        <ele>60.9</ele>
        <time>2020-07-03T17:16:17Z</time>
      </trkpt>
      <trkpt lat="46.71362" lon="0.4331">
        <ele>60.9</ele>
        <time>2020-07-03T17:16:18Z</time>
      </trkpt>
      <trkpt lat="46.71355" lon="0.43307">
        <ele>60.9</ele>
        <time>2020-07-03T17:16:19Z</time>
      </trkpt>
      <trkpt lat="46.71348" lon="0.43306">
        <ele>60.9</ele>
        <time>2020-07-03T17:16:20Z</time>
      </trkpt>
      <trkpt lat="46.71341" lon="0.43302">
        <ele>60.9</ele>
        <time>2020-07-03T17:16:21Z</time>
      </trkpt>
      <trkpt lat="46.71335" lon="0.433">
        <ele>60.9</ele>
        <time>2020-07-03T17:16:22Z</time>
      </trkpt>
      <trkpt lat="46.71328" lon="0.43297">
        <ele>60.9</ele>
        <time>2020-07-03T17:16:23Z</time>
      </trkpt>
      <trkpt lat="46.71322" lon="0.43294">
        <ele>60.9</ele>
        <time>2020-07-03T17:16:24Z</time>
      </trkpt>
      <trkpt lat="46.71316" lon="0.43292">
        <ele>61</ele>
        <time>2020-07-03T17:16:25Z</time>
      </trkpt>
      <trkpt lat="46.7131" lon="0.43289">
        <ele>61</ele>
        <time>2020-07-03T17:16:26Z</time>
      </trkpt>
      <trkpt lat="46.71303" lon="0.43287">
        <ele>61</ele>
        <time>2020-07-03T17:16:27Z</time>
      </trkpt>
      <trkpt lat="46.71297" lon="0.43284">
        <ele>61</ele>
        <time>2020-07-03T17:16:28Z</time>
      </trkpt>
      <trkpt lat="46.71291" lon="0.43281">
        <ele>61</ele>
        <time>2020-07-03T17:16:29Z</time>
      </trkpt>
      <trkpt lat="46.71285" lon="0.43278">
        <ele>61</ele>
        <time>2020-07-03T17:16:30Z</time>
      </trkpt>
      <trkpt lat="46.71279" lon="0.43275">
        <ele>61</ele>
        <time>2020-07-03T17:16:31Z</time>
      </trkpt>
      <trkpt lat="46.71273" lon="0.43272">
        <ele>61.1</ele>
        <time>2020-07-03T17:16:32Z</time>
      </trkpt>
      <trkpt lat="46.71267" lon="0.43268">
        <ele>61.1</ele>
        <time>2020-07-03T17:16:33Z</time>
      </trkpt>
      <trkpt lat="46.71261" lon="0.43266">
        <ele>61.2</ele>
        <time>2020-07-03T17:16:34Z</time>
      </trkpt>
      <trkpt lat="46.71254" lon="0.43263">
        <ele>61.2</ele>
        <time>2020-07-03T17:16:35Z</time>
      </trkpt>
      <trkpt lat="46.71248" lon="0.4326">
        <ele>61.2</ele>
        <time>2020-07-03T17:16:36Z</time>
      </trkpt>
      <trkpt lat="46.71242" lon="0.43258">
        <ele>61.3</ele>
        <time>2020-07-03T17:16:37Z</time>
      </trkpt>
      <trkpt lat="46.71237" lon="0.43255">
        <ele>61.3</ele>
        <time>2020-07-03T17:16:38Z</time>
      </trkpt>
      <trkpt lat="46.71231" lon="0.43251">
        <ele>61.3</ele>
        <time>2020-07-03T17:16:39Z</time>
      </trkpt>
      <trkpt lat="46.71226" lon="0.43248">
        <ele>61.4</ele>
        <time>2020-07-03T17:16:40Z</time>
      </trkpt>
      <trkpt lat="46.71221" lon="0.43246">
        <ele>61.4</ele>
        <time>2020-07-03T17:16:41Z</time>
      </trkpt>
      <trkpt lat="46.71215" lon="0.43245">
        <ele>61.4</ele>
        <time>2020-07-03T17:16:42Z</time>
      </trkpt>
      <trkpt lat="46.7121" lon="0.43243">
        <ele>61.5</ele>
        <time>2020-07-03T17:16:43Z</time>
      </trkpt>
      <trkpt lat="46.71204" lon="0.43239">
        <ele>61.5</ele>
        <time>2020-07-03T17:16:44Z</time>
      </trkpt>
      <trkpt lat="46.71199" lon="0.43236">
        <ele>61.5</ele>
        <time>2020-07-03T17:16:45Z</time>
      </trkpt>
      <trkpt lat="46.71193" lon="0.43234">
        <ele>61.5</ele>
        <time>2020-07-03T17:16:46Z</time>
      </trkpt>
      <trkpt lat="46.71187" lon="0.43231">
        <ele>61.5</ele>
        <time>2020-07-03T17:16:47Z</time>
      </trkpt>
      <trkpt lat="46.71181" lon="0.43229">
        <ele>61.5</ele>
        <time>2020-07-03T17:16:48Z</time>
      </trkpt>
      <trkpt lat="46.71176" lon="0.43227">
        <ele>61.6</ele>
        <time>2020-07-03T17:16:49Z</time>
      </trkpt>
      <trkpt lat="46.7117" lon="0.43226">
        <ele>61.6</ele>
        <time>2020-07-03T17:16:50Z</time>
      </trkpt>
      <trkpt lat="46.71164" lon="0.43225">
        <ele>61.6</ele>
        <time>2020-07-03T17:16:51Z</time>
      </trkpt>
      <trkpt lat="46.71158" lon="0.43225">
        <ele>61.6</ele>
        <time>2020-07-03T17:16:52Z</time>
      </trkpt>
      <trkpt lat="46.71152" lon="0.43224">
        <ele>61.6</ele>
        <time>2020-07-03T17:16:53Z</time>
      </trkpt>
      <trkpt lat="46.71146" lon="0.43223">
        <ele>61.6</ele>
        <time>2020-07-03T17:16:54Z</time>
      </trkpt>
      <trkpt lat="46.7114" lon="0.43224">
        <ele>61.6</ele>
        <time>2020-07-03T17:16:55Z</time>
      </trkpt>
      <trkpt lat="46.71134" lon="0.43224">
        <ele>61.6</ele>
        <time>2020-07-03T17:16:56Z</time>
      </trkpt>
      <trkpt lat="46.71129" lon="0.43223">
        <ele>61.5</ele>
        <time>2020-07-03T17:16:57Z</time>
      </trkpt>
      <trkpt lat="46.71123" lon="0.43223">
        <ele>61.5</ele>
        <time>2020-07-03T17:16:58Z</time>
      </trkpt>
      <trkpt lat="46.71117" lon="0.43223">
        <ele>61.5</ele>
        <time>2020-07-03T17:16:59Z</time>
      </trkpt>
      <trkpt lat="46.71111" lon="0.43222">
        <ele>61.5</ele>
        <time>2020-07-03T17:17:00Z</time>
      </trkpt>
      <trkpt lat="46.71105" lon="0.4322">
        <ele>61.5</ele>
        <time>2020-07-03T17:17:01Z</time>
      </trkpt>
      <trkpt lat="46.711" lon="0.43221">
        <ele>61.5</ele>
        <time>2020-07-03T17:17:02Z</time>
      </trkpt>
      <trkpt lat="46.71094" lon="0.4322">
        <ele>61.5</ele>
        <time>2020-07-03T17:17:03Z</time>
      </trkpt>
      <trkpt lat="46.71088" lon="0.4322">
        <ele>61.6</ele>
        <time>2020-07-03T17:17:04Z</time>
      </trkpt>
      <trkpt lat="46.71083" lon="0.43219">
        <ele>61.6</ele>
        <time>2020-07-03T17:17:05Z</time>
      </trkpt>
      <trkpt lat="46.71077" lon="0.43221">
        <ele>61.6</ele>
        <time>2020-07-03T17:17:06Z</time>
      </trkpt>
      <trkpt lat="46.71071" lon="0.43221">
        <ele>61.6</ele>
        <time>2020-07-03T17:17:07Z</time>
      </trkpt>
      <trkpt lat="46.71066" lon="0.4322">
        <ele>61.7</ele>
        <time>2020-07-03T17:17:08Z</time>
      </trkpt>
      <trkpt lat="46.7106" lon="0.43222">
        <ele>61.7</ele>
        <time>2020-07-03T17:17:09Z</time>
      </trkpt>
      <trkpt lat="46.71055" lon="0.43223">
        <ele>61.8</ele>
        <time>2020-07-03T17:17:10Z</time>
      </trkpt>
      <trkpt lat="46.7105" lon="0.43222">
        <ele>61.8</ele>
        <time>2020-07-03T17:17:11Z</time>
      </trkpt>
      <trkpt lat="46.71045" lon="0.43221">
        <ele>61.9</ele>
        <time>2020-07-03T17:17:12Z</time>
      </trkpt>
      <trkpt lat="46.71039" lon="0.43223">
        <ele>61.9</ele>
        <time>2020-07-03T17:17:13Z</time>
      </trkpt>
      <trkpt lat="46.71034" lon="0.43224">
        <ele>62</ele>
        <time>2020-07-03T17:17:14Z</time>
      </trkpt>
      <trkpt lat="46.71029" lon="0.43225">
        <ele>62</ele>
        <time>2020-07-03T17:17:15Z</time>
      </trkpt>
      <trkpt lat="46.71024" lon="0.43226">
        <ele>62.1</ele>
        <time>2020-07-03T17:17:16Z</time>
      </trkpt>
      <trkpt lat="46.71018" lon="0.43227">
        <ele>62.1</ele>
        <time>2020-07-03T17:17:17Z</time>
      </trkpt>
      <trkpt lat="46.71013" lon="0.43227">
        <ele>62.2</ele>
        <time>2020-07-03T17:17:18Z</time>
      </trkpt>
      <trkpt lat="46.71007" lon="0.43228">
        <ele>62.2</ele>
        <time>2020-07-03T17:17:19Z</time>
      </trkpt>
      <trkpt lat="46.71001" lon="0.43229">
        <ele>62.3</ele>
        <time>2020-07-03T17:17:20Z</time>
      </trkpt>
      <trkpt lat="46.70997" lon="0.43231">
        <ele>62.3</ele>
        <time>2020-07-03T17:17:21Z</time>
      </trkpt>
      <trkpt lat="46.70992" lon="0.43235">
        <ele>62.3</ele>
        <time>2020-07-03T17:17:22Z</time>
      </trkpt>
      <trkpt lat="46.70986" lon="0.43238">
        <ele>62.4</ele>
        <time>2020-07-03T17:17:23Z</time>
      </trkpt>
      <trkpt lat="46.70979" lon="0.43239">
        <ele>62.4</ele>
        <time>2020-07-03T17:17:24Z</time>
      </trkpt>
      <trkpt lat="46.70973" lon="0.4324">
        <ele>62.4</ele>
        <time>2020-07-03T17:17:25Z</time>
      </trkpt>
      <trkpt lat="46.70967" lon="0.43241">
        <ele>62.4</ele>
        <time>2020-07-03T17:17:26Z</time>
      </trkpt>
      <trkpt lat="46.70961" lon="0.43244">
        <ele>62.3</ele>
        <time>2020-07-03T17:17:27Z</time>
      </trkpt>
      <trkpt lat="46.70955" lon="0.43246">
        <ele>62.3</ele>
        <time>2020-07-03T17:17:28Z</time>
      </trkpt>
      <trkpt lat="46.70949" lon="0.43249">
        <ele>62.3</ele>
        <time>2020-07-03T17:17:29Z</time>
      </trkpt>
      <trkpt lat="46.70943" lon="0.43251">
        <ele>62.2</ele>
        <time>2020-07-03T17:17:30Z</time>
      </trkpt>
      <trkpt lat="46.70936" lon="0.43251">
        <ele>62.2</ele>
        <time>2020-07-03T17:17:31Z</time>
      </trkpt>
      <trkpt lat="46.7093" lon="0.43252">
        <ele>62.2</ele>
        <time>2020-07-03T17:17:32Z</time>
      </trkpt>
      <trkpt lat="46.70923" lon="0.43252">
        <ele>62.2</ele>
        <time>2020-07-03T17:17:33Z</time>
      </trkpt>
      <trkpt lat="46.70918" lon="0.43253">
        <ele>62.2</ele>
        <time>2020-07-03T17:17:34Z</time>
      </trkpt>
      <trkpt lat="46.70909" lon="0.43256">
        <ele>62.2</ele>
        <time>2020-07-03T17:17:35Z</time>
      </trkpt>
      <trkpt lat="46.70901" lon="0.43258">
        <ele>62.1</ele>
        <time>2020-07-03T17:17:36Z</time>
      </trkpt>
      <trkpt lat="46.70894" lon="0.43259">
        <ele>62.1</ele>
        <time>2020-07-03T17:17:37Z</time>
      </trkpt>
      <trkpt lat="46.70887" lon="0.43262">
        <ele>62.1</ele>
        <time>2020-07-03T17:17:38Z</time>
      </trkpt>
      <trkpt lat="46.7088" lon="0.43264">
        <ele>62.1</ele>
        <time>2020-07-03T17:17:39Z</time>
      </trkpt>
      <trkpt lat="46.70873" lon="0.43267">
        <ele>62.1</ele>
        <time>2020-07-03T17:17:40Z</time>
      </trkpt>
      <trkpt lat="46.70866" lon="0.4327">
        <ele>62.1</ele>
        <time>2020-07-03T17:17:41Z</time>
      </trkpt>
      <trkpt lat="46.7086" lon="0.43272">
        <ele>62.1</ele>
        <time>2020-07-03T17:17:42Z</time>
      </trkpt>
      <trkpt lat="46.70853" lon="0.43275">
        <ele>62.1</ele>
        <time>2020-07-03T17:17:43Z</time>
      </trkpt>
      <trkpt lat="46.70847" lon="0.43277">
        <ele>62.1</ele>
        <time>2020-07-03T17:17:44Z</time>
      </trkpt>
      <trkpt lat="46.7084" lon="0.43279">
        <ele>62.1</ele>
        <time>2020-07-03T17:17:45Z</time>
      </trkpt>
      <trkpt lat="46.70834" lon="0.43281">
        <ele>62.2</ele>
        <time>2020-07-03T17:17:46Z</time>
      </trkpt>
      <trkpt lat="46.70828" lon="0.43283">
        <ele>62.2</ele>
        <time>2020-07-03T17:17:47Z</time>
      </trkpt>
      <trkpt lat="46.70822" lon="0.43284">
        <ele>62.2</ele>
        <time>2020-07-03T17:17:48Z</time>
      </trkpt>
      <trkpt lat="46.70815" lon="0.43287">
        <ele>62.2</ele>
        <time>2020-07-03T17:17:49Z</time>
      </trkpt>
      <trkpt lat="46.70811" lon="0.43289">
        <ele>62.2</ele>
        <time>2020-07-03T17:17:50Z</time>
      </trkpt>
      <trkpt lat="46.70805" lon="0.43291">
        <ele>62.2</ele>
        <time>2020-07-03T17:17:51Z</time>
      </trkpt>
      <trkpt lat="46.70798" lon="0.43293">
        <ele>62.2</ele>
        <time>2020-07-03T17:17:52Z</time>
      </trkpt>
      <trkpt lat="46.70792" lon="0.43295">
        <ele>62.3</ele>
        <time>2020-07-03T17:17:53Z</time>
      </trkpt>
      <trkpt lat="46.70785" lon="0.43298">
        <ele>62.3</ele>
        <time>2020-07-03T17:17:54Z</time>
      </trkpt>
      <trkpt lat="46.70779" lon="0.43299">
        <ele>62.3</ele>
        <time>2020-07-03T17:17:55Z</time>
      </trkpt>
      <trkpt lat="46.70773" lon="0.43301">
        <ele>62.3</ele>
        <time>2020-07-03T17:17:56Z</time>
      </trkpt>
      <trkpt lat="46.70767" lon="0.43304">
        <ele>62.3</ele>
        <time>2020-07-03T17:17:57Z</time>
      </trkpt>
      <trkpt lat="46.70761" lon="0.43306">
        <ele>62.3</ele>
        <time>2020-07-03T17:17:58Z</time>
      </trkpt>
      <trkpt lat="46.70755" lon="0.43307">
        <ele>62.3</ele>
        <time>2020-07-03T17:17:59Z</time>
      </trkpt>
      <trkpt lat="46.70749" lon="0.4331">
        <ele>62.3</ele>
        <time>2020-07-03T17:18:00Z</time>
      </trkpt>
      <trkpt lat="46.70743" lon="0.43312">
        <ele>62.4</ele>
        <time>2020-07-03T17:18:01Z</time>
      </trkpt>
      <trkpt lat="46.70737" lon="0.43314">
        <ele>62.4</ele>
        <time>2020-07-03T17:18:02Z</time>
      </trkpt>
      <trkpt lat="46.70731" lon="0.43315">
        <ele>62.4</ele>
        <time>2020-07-03T17:18:03Z</time>
      </trkpt>
      <trkpt lat="46.70726" lon="0.43316">
        <ele>62.5</ele>
        <time>2020-07-03T17:18:04Z</time>
      </trkpt>
      <trkpt lat="46.7072" lon="0.43317">
        <ele>62.5</ele>
        <time>2020-07-03T17:18:05Z</time>
      </trkpt>
      <trkpt lat="46.70714" lon="0.43319">
        <ele>62.5</ele>
        <time>2020-07-03T17:18:06Z</time>
      </trkpt>
      <trkpt lat="46.70708" lon="0.43321">
        <ele>62.6</ele>
        <time>2020-07-03T17:18:07Z</time>
      </trkpt>
      <trkpt lat="46.70702" lon="0.43323">
        <ele>62.6</ele>
        <time>2020-07-03T17:18:08Z</time>
      </trkpt>
      <trkpt lat="46.70696" lon="0.43324">
        <ele>62.6</ele>
        <time>2020-07-03T17:18:09Z</time>
      </trkpt>
      <trkpt lat="46.7069" lon="0.43325">
        <ele>62.7</ele>
        <time>2020-07-03T17:18:10Z</time>
      </trkpt>
      <trkpt lat="46.70684" lon="0.43327">
        <ele>62.7</ele>
        <time>2020-07-03T17:18:11Z</time>
      </trkpt>
      <trkpt lat="46.70678" lon="0.43329">
        <ele>62.7</ele>
        <time>2020-07-03T17:18:12Z</time>
      </trkpt>
      <trkpt lat="46.70673" lon="0.43329">
        <ele>62.8</ele>
        <time>2020-07-03T17:18:13Z</time>
      </trkpt>
      <trkpt lat="46.70668" lon="0.4333">
        <ele>62.8</ele>
        <time>2020-07-03T17:18:14Z</time>
      </trkpt>
      <trkpt lat="46.70662" lon="0.4333">
        <ele>62.9</ele>
        <time>2020-07-03T17:18:15Z</time>
      </trkpt>
      <trkpt lat="46.70657" lon="0.43331">
        <ele>62.9</ele>
        <time>2020-07-03T17:18:16Z</time>
      </trkpt>
      <trkpt lat="46.70651" lon="0.43331">
        <ele>62.9</ele>
        <time>2020-07-03T17:18:17Z</time>
      </trkpt>
      <trkpt lat="46.70646" lon="0.43331">
        <ele>63</ele>
        <time>2020-07-03T17:18:18Z</time>
      </trkpt>
      <trkpt lat="46.7064" lon="0.43331">
        <ele>63</ele>
        <time>2020-07-03T17:18:19Z</time>
      </trkpt>
      <trkpt lat="46.70634" lon="0.43331">
        <ele>63</ele>
        <time>2020-07-03T17:18:20Z</time>
      </trkpt>
      <trkpt lat="46.70629" lon="0.43332">
        <ele>63</ele>
        <time>2020-07-03T17:18:21Z</time>
      </trkpt>
      <trkpt lat="46.70623" lon="0.43332">
        <ele>63.1</ele>
        <time>2020-07-03T17:18:22Z</time>
      </trkpt>
      <trkpt lat="46.70617" lon="0.43333">
        <ele>63.1</ele>
        <time>2020-07-03T17:18:23Z</time>
      </trkpt>
      <trkpt lat="46.70612" lon="0.43334">
        <ele>63.1</ele>
        <time>2020-07-03T17:18:24Z</time>
      </trkpt>
      <trkpt lat="46.70607" lon="0.43335">
        <ele>63.1</ele>
        <time>2020-07-03T17:18:25Z</time>
      </trkpt>
      <trkpt lat="46.70601" lon="0.43335">
        <ele>63.2</ele>
        <time>2020-07-03T17:18:26Z</time>
      </trkpt>
      <trkpt lat="46.70595" lon="0.43335">
        <ele>63.2</ele>
        <time>2020-07-03T17:18:27Z</time>
      </trkpt>
      <trkpt lat="46.70589" lon="0.43335">
        <ele>63.3</ele>
        <time>2020-07-03T17:18:28Z</time>
      </trkpt>
      <trkpt lat="46.70584" lon="0.43334">
        <ele>63.3</ele>
        <time>2020-07-03T17:18:29Z</time>
      </trkpt>
      <trkpt lat="46.70577" lon="0.43334">
        <ele>63.3</ele>
        <time>2020-07-03T17:18:30Z</time>
      </trkpt>
      <trkpt lat="46.70571" lon="0.43334">
        <ele>63.3</ele>
        <time>2020-07-03T17:18:31Z</time>
      </trkpt>
      <trkpt lat="46.70564" lon="0.43333">
        <ele>63.3</ele>
        <time>2020-07-03T17:18:32Z</time>
      </trkpt>
      <trkpt lat="46.70558" lon="0.43331">
        <ele>63.2</ele>
        <time>2020-07-03T17:18:33Z</time>
      </trkpt>
      <trkpt lat="46.70552" lon="0.43329">
        <ele>63.2</ele>
        <time>2020-07-03T17:18:34Z</time>
      </trkpt>
      <trkpt lat="46.70546" lon="0.43327">
        <ele>63.2</ele>
        <time>2020-07-03T17:18:35Z</time>
      </trkpt>
      <trkpt lat="46.7054" lon="0.43325">
        <ele>63.2</ele>
        <time>2020-07-03T17:18:36Z</time>
      </trkpt>
      <trkpt lat="46.70534" lon="0.43324">
        <ele>63.2</ele>
        <time>2020-07-03T17:18:37Z</time>
      </trkpt>
      <trkpt lat="46.70528" lon="0.43322">
        <ele>63.2</ele>
        <time>2020-07-03T17:18:38Z</time>
      </trkpt>
      <trkpt lat="46.70522" lon="0.4332">
        <ele>63.2</ele>
        <time>2020-07-03T17:18:39Z</time>
      </trkpt>
      <trkpt lat="46.70516" lon="0.43319">
        <ele>63.2</ele>
        <time>2020-07-03T17:18:40Z</time>
      </trkpt>
      <trkpt lat="46.7051" lon="0.43317">
        <ele>63.2</ele>
        <time>2020-07-03T17:18:41Z</time>
      </trkpt>
      <trkpt lat="46.70505" lon="0.43315">
        <ele>63.2</ele>
        <time>2020-07-03T17:18:42Z</time>
      </trkpt>
      <trkpt lat="46.70499" lon="0.43313">
        <ele>63.2</ele>
        <time>2020-07-03T17:18:43Z</time>
      </trkpt>
      <trkpt lat="46.70494" lon="0.43312">
        <ele>63.2</ele>
        <time>2020-07-03T17:18:44Z</time>
      </trkpt>
      <trkpt lat="46.70488" lon="0.4331">
        <ele>63.2</ele>
        <time>2020-07-03T17:18:45Z</time>
      </trkpt>
      <trkpt lat="46.70483" lon="0.43309">
        <ele>63.3</ele>
        <time>2020-07-03T17:18:46Z</time>
      </trkpt>
      <trkpt lat="46.70477" lon="0.43308">
        <ele>63.3</ele>
        <time>2020-07-03T17:18:47Z</time>
      </trkpt>
      <trkpt lat="46.70473" lon="0.43304">
        <ele>63.3</ele>
        <time>2020-07-03T17:18:48Z</time>
      </trkpt>
      <trkpt lat="46.70468" lon="0.43303">
        <ele>63.4</ele>
        <time>2020-07-03T17:18:49Z</time>
      </trkpt>
      <trkpt lat="46.70463" lon="0.43302">
        <ele>63.4</ele>
        <time>2020-07-03T17:18:50Z</time>
      </trkpt>
      <trkpt lat="46.70457" lon="0.43303">
        <ele>63.5</ele>
        <time>2020-07-03T17:18:51Z</time>
      </trkpt>
      <trkpt lat="46.70451" lon="0.43302">
        <ele>63.7</ele>
        <time>2020-07-03T17:18:52Z</time>
      </trkpt>
      <trkpt lat="46.70446" lon="0.433">
        <ele>63.8</ele>
        <time>2020-07-03T17:18:53Z</time>
      </trkpt>
      <trkpt lat="46.70441" lon="0.43298">
        <ele>64</ele>
        <time>2020-07-03T17:18:54Z</time>
      </trkpt>
      <trkpt lat="46.70435" lon="0.43297">
        <ele>64.1</ele>
        <time>2020-07-03T17:18:55Z</time>
      </trkpt>
      <trkpt lat="46.70429" lon="0.43295">
        <ele>64.3</ele>
        <time>2020-07-03T17:18:56Z</time>
      </trkpt>
      <trkpt lat="46.70425" lon="0.43294">
        <ele>64.5</ele>
        <time>2020-07-03T17:18:57Z</time>
      </trkpt>
      <trkpt lat="46.7042" lon="0.43293">
        <ele>64.7</ele>
        <time>2020-07-03T17:18:58Z</time>
      </trkpt>
      <trkpt lat="46.70416" lon="0.43292">
        <ele>64.9</ele>
        <time>2020-07-03T17:18:59Z</time>
      </trkpt>
      <trkpt lat="46.70412" lon="0.43292">
        <ele>65.1</ele>
        <time>2020-07-03T17:19:00Z</time>
      </trkpt>
      <trkpt lat="46.70408" lon="0.43291">
        <ele>65.3</ele>
        <time>2020-07-03T17:19:01Z</time>
      </trkpt>
      <trkpt lat="46.70404" lon="0.43289">
        <ele>65.5</ele>
        <time>2020-07-03T17:19:02Z</time>
      </trkpt>
      <trkpt lat="46.704" lon="0.43289">
        <ele>65.7</ele>
        <time>2020-07-03T17:19:03Z</time>
      </trkpt>
      <trkpt lat="46.70396" lon="0.43287">
        <ele>65.9</ele>
        <time>2020-07-03T17:19:04Z</time>
      </trkpt>
      <trkpt lat="46.70392" lon="0.43286">
        <ele>66.1</ele>
        <time>2020-07-03T17:19:05Z</time>
      </trkpt>
      <trkpt lat="46.70389" lon="0.43285">
        <ele>66.3</ele>
        <time>2020-07-03T17:19:06Z</time>
      </trkpt>
      <trkpt lat="46.70385" lon="0.43285">
        <ele>66.6</ele>
        <time>2020-07-03T17:19:07Z</time>
      </trkpt>
      <trkpt lat="46.70382" lon="0.43284">
        <ele>66.8</ele>
        <time>2020-07-03T17:19:08Z</time>
      </trkpt>
      <trkpt lat="46.70379" lon="0.43284">
        <ele>67</ele>
        <time>2020-07-03T17:19:09Z</time>
      </trkpt>
      <trkpt lat="46.70375" lon="0.43284">
        <ele>67.3</ele>
        <time>2020-07-03T17:19:10Z</time>
      </trkpt>
      <trkpt lat="46.70372" lon="0.43285">
        <ele>67.5</ele>
        <time>2020-07-03T17:19:11Z</time>
      </trkpt>
      <trkpt lat="46.70367" lon="0.43284">
        <ele>67.9</ele>
        <time>2020-07-03T17:19:12Z</time>
      </trkpt>
      <trkpt lat="46.70364" lon="0.43283">
        <ele>68.1</ele>
        <time>2020-07-03T17:19:13Z</time>
      </trkpt>
      <trkpt lat="46.70361" lon="0.43281">
        <ele>68.4</ele>
        <time>2020-07-03T17:19:14Z</time>
      </trkpt>
      <trkpt lat="46.70357" lon="0.4328">
        <ele>68.7</ele>
        <time>2020-07-03T17:19:15Z</time>
      </trkpt>
      <trkpt lat="46.70355" lon="0.4328">
        <ele>68.8</ele>
        <time>2020-07-03T17:19:16Z</time>
      </trkpt>
      <trkpt lat="46.70353" lon="0.43279">
        <ele>69</ele>
        <time>2020-07-03T17:19:17Z</time>
      </trkpt>
      <trkpt lat="46.70351" lon="0.43278">
        <ele>69.1</ele>
        <time>2020-07-03T17:19:18Z</time>
      </trkpt>
      <trkpt lat="46.7035" lon="0.43277">
        <ele>69.2</ele>
        <time>2020-07-03T17:19:19Z</time>
      </trkpt>
      <trkpt lat="46.70346" lon="0.43278">
        <ele>69.4</ele>
        <time>2020-07-03T17:19:20Z</time>
      </trkpt>
      <trkpt lat="46.70345" lon="0.43278">
        <ele>69.5</ele>
        <time>2020-07-03T17:19:21Z</time>
      </trkpt>
      <trkpt lat="46.70343" lon="0.43277">
        <ele>69.6</ele>
        <time>2020-07-03T17:19:22Z</time>
      </trkpt>
      <trkpt lat="46.70341" lon="0.43277">
        <ele>69.6</ele>
        <time>2020-07-03T17:19:23Z</time>
      </trkpt>
      <trkpt lat="46.7034" lon="0.43276">
        <ele>69.8</ele>
        <time>2020-07-03T17:19:24Z</time>
      </trkpt>
      <trkpt lat="46.70338" lon="0.43276">
        <ele>69.8</ele>
        <time>2020-07-03T17:19:25Z</time>
      </trkpt>
      <trkpt lat="46.70335" lon="0.43276">
        <ele>69.8</ele>
        <time>2020-07-03T17:19:26Z</time>
      </trkpt>
      <trkpt lat="46.70333" lon="0.43276">
        <ele>69.8</ele>
        <time>2020-07-03T17:19:27Z</time>
      </trkpt>
      <trkpt lat="46.70331" lon="0.43274">
        <ele>69.7</ele>
        <time>2020-07-03T17:19:28Z</time>
      </trkpt>
      <trkpt lat="46.70328" lon="0.43273">
        <ele>69.7</ele>
        <time>2020-07-03T17:19:29Z</time>
      </trkpt>
      <trkpt lat="46.70325" lon="0.43273">
        <ele>69.7</ele>
        <time>2020-07-03T17:19:30Z</time>
      </trkpt>
      <trkpt lat="46.70322" lon="0.43271">
        <ele>69.6</ele>
        <time>2020-07-03T17:19:31Z</time>
      </trkpt>
      <trkpt lat="46.70319" lon="0.43269">
        <ele>69.6</ele>
        <time>2020-07-03T17:19:32Z</time>
      </trkpt>
      <trkpt lat="46.70315" lon="0.43266">
        <ele>69.5</ele>
        <time>2020-07-03T17:19:33Z</time>
      </trkpt>
      <trkpt lat="46.70311" lon="0.43263">
        <ele>69.5</ele>
        <time>2020-07-03T17:19:34Z</time>
      </trkpt>
      <trkpt lat="46.70307" lon="0.43259">
        <ele>69.5</ele>
        <time>2020-07-03T17:19:35Z</time>
      </trkpt>
      <trkpt lat="46.70302" lon="0.43256">
        <ele>69.4</ele>
        <time>2020-07-03T17:19:36Z</time>
      </trkpt>
      <trkpt lat="46.703" lon="0.43255">
        <ele>69.4</ele>
        <time>2020-07-03T17:19:37Z</time>
      </trkpt>
      <trkpt lat="46.70295" lon="0.43252">
        <ele>69.5</ele>
        <time>2020-07-03T17:19:38Z</time>
      </trkpt>
      <trkpt lat="46.70289" lon="0.43249">
        <ele>69.5</ele>
        <time>2020-07-03T17:19:39Z</time>
      </trkpt>
      <trkpt lat="46.70283" lon="0.43245">
        <ele>69.6</ele>
        <time>2020-07-03T17:19:40Z</time>
      </trkpt>
      <trkpt lat="46.70277" lon="0.43242">
        <ele>69.6</ele>
        <time>2020-07-03T17:19:41Z</time>
      </trkpt>
      <trkpt lat="46.70273" lon="0.43239">
        <ele>69.7</ele>
        <time>2020-07-03T17:19:42Z</time>
      </trkpt>
      <trkpt lat="46.70268" lon="0.43236">
        <ele>69.7</ele>
        <time>2020-07-03T17:19:43Z</time>
      </trkpt>
      <trkpt lat="46.70264" lon="0.43234">
        <ele>69.8</ele>
        <time>2020-07-03T17:19:44Z</time>
      </trkpt>
      <trkpt lat="46.7026" lon="0.43231">
        <ele>69.9</ele>
        <time>2020-07-03T17:19:45Z</time>
      </trkpt>
      <trkpt lat="46.70256" lon="0.43228">
        <ele>70</ele>
        <time>2020-07-03T17:19:46Z</time>
      </trkpt>
      <trkpt lat="46.70252" lon="0.43224">
        <ele>70.1</ele>
        <time>2020-07-03T17:19:47Z</time>
      </trkpt>
      <trkpt lat="46.70249" lon="0.4322">
        <ele>70.1</ele>
        <time>2020-07-03T17:19:48Z</time>
      </trkpt>
      <trkpt lat="46.70245" lon="0.43218">
        <ele>70.2</ele>
        <time>2020-07-03T17:19:49Z</time>
      </trkpt>
      <trkpt lat="46.70241" lon="0.43215">
        <ele>70.3</ele>
        <time>2020-07-03T17:19:50Z</time>
      </trkpt>
      <trkpt lat="46.70236" lon="0.43212">
        <ele>70.4</ele>
        <time>2020-07-03T17:19:51Z</time>
      </trkpt>
      <trkpt lat="46.70232" lon="0.43209">
        <ele>70.5</ele>
        <time>2020-07-03T17:19:52Z</time>
      </trkpt>
      <trkpt lat="46.70228" lon="0.43206">
        <ele>70.6</ele>
        <time>2020-07-03T17:19:53Z</time>
      </trkpt>
      <trkpt lat="46.70224" lon="0.43203">
        <ele>70.8</ele>
        <time>2020-07-03T17:19:54Z</time>
      </trkpt>
      <trkpt lat="46.7022" lon="0.43202">
        <ele>70.9</ele>
        <time>2020-07-03T17:19:55Z</time>
      </trkpt>
      <trkpt lat="46.70217" lon="0.43199">
        <ele>71</ele>
        <time>2020-07-03T17:19:56Z</time>
      </trkpt>
      <trkpt lat="46.70212" lon="0.43197">
        <ele>71.1</ele>
        <time>2020-07-03T17:19:57Z</time>
      </trkpt>
      <trkpt lat="46.70207" lon="0.43193">
        <ele>71.3</ele>
        <time>2020-07-03T17:19:58Z</time>
      </trkpt>
      <trkpt lat="46.70202" lon="0.4319">
        <ele>71.5</ele>
        <time>2020-07-03T17:19:59Z</time>
      </trkpt>
      <trkpt lat="46.70197" lon="0.43188">
        <ele>71.7</ele>
        <time>2020-07-03T17:20:00Z</time>
      </trkpt>
      <trkpt lat="46.70194" lon="0.43187">
        <ele>71.8</ele>
        <time>2020-07-03T17:20:01Z</time>
      </trkpt>
      <trkpt lat="46.7019" lon="0.43184">
        <ele>71.9</ele>
        <time>2020-07-03T17:20:02Z</time>
      </trkpt>
      <trkpt lat="46.70187" lon="0.43181">
        <ele>72.1</ele>
        <time>2020-07-03T17:20:03Z</time>
      </trkpt>
      <trkpt lat="46.70183" lon="0.43179">
        <ele>72.2</ele>
        <time>2020-07-03T17:20:04Z</time>
      </trkpt>
      <trkpt lat="46.70179" lon="0.43176">
        <ele>72.3</ele>
        <time>2020-07-03T17:20:05Z</time>
      </trkpt>
      <trkpt lat="46.70175" lon="0.43173">
        <ele>72.4</ele>
        <time>2020-07-03T17:20:06Z</time>
      </trkpt>
      <trkpt lat="46.70172" lon="0.43172">
        <ele>72.5</ele>
        <time>2020-07-03T17:20:07Z</time>
      </trkpt>
      <trkpt lat="46.70168" lon="0.4317">
        <ele>72.6</ele>
        <time>2020-07-03T17:20:08Z</time>
      </trkpt>
      <trkpt lat="46.70165" lon="0.43168">
        <ele>72.7</ele>
        <time>2020-07-03T17:20:09Z</time>
      </trkpt>
      <trkpt lat="46.70161" lon="0.43165">
        <ele>72.8</ele>
        <time>2020-07-03T17:20:10Z</time>
      </trkpt>
      <trkpt lat="46.70158" lon="0.43164">
        <ele>72.9</ele>
        <time>2020-07-03T17:20:11Z</time>
      </trkpt>
      <trkpt lat="46.70157" lon="0.43164">
        <ele>72.9</ele>
        <time>2020-07-03T17:20:12Z</time>
      </trkpt>
      <trkpt lat="46.70154" lon="0.4316">
        <ele>73</ele>
        <time>2020-07-03T17:20:13Z</time>
      </trkpt>
      <trkpt lat="46.70152" lon="0.43158">
        <ele>73.1</ele>
        <time>2020-07-03T17:20:14Z</time>
      </trkpt>
      <trkpt lat="46.70148" lon="0.43155">
        <ele>73.2</ele>
        <time>2020-07-03T17:20:15Z</time>
      </trkpt>
      <trkpt lat="46.70147" lon="0.43154">
        <ele>73.2</ele>
        <time>2020-07-03T17:20:16Z</time>
      </trkpt>
      <trkpt lat="46.70141" lon="0.43152">
        <ele>73.3</ele>
        <time>2020-07-03T17:20:17Z</time>
      </trkpt>
      <trkpt lat="46.70136" lon="0.4315">
        <ele>73.4</ele>
        <time>2020-07-03T17:20:18Z</time>
      </trkpt>
      <trkpt lat="46.70133" lon="0.43148">
        <ele>73.4</ele>
        <time>2020-07-03T17:20:19Z</time>
      </trkpt>
      <trkpt lat="46.7013" lon="0.43147">
        <ele>73.5</ele>
        <time>2020-07-03T17:20:20Z</time>
      </trkpt>
      <trkpt lat="46.70126" lon="0.43144">
        <ele>73.5</ele>
        <time>2020-07-03T17:20:21Z</time>
      </trkpt>
      <trkpt lat="46.70123" lon="0.43142">
        <ele>73.5</ele>
        <time>2020-07-03T17:20:22Z</time>
      </trkpt>
      <trkpt lat="46.7012" lon="0.43138">
        <ele>73.5</ele>
        <time>2020-07-03T17:20:23Z</time>
      </trkpt>
      <trkpt lat="46.70117" lon="0.43135">
        <ele>73.5</ele>
        <time>2020-07-03T17:20:24Z</time>
      </trkpt>
      <trkpt lat="46.70113" lon="0.43131">
        <ele>73.4</ele>
        <time>2020-07-03T17:20:25Z</time>
      </trkpt>
      <trkpt lat="46.70109" lon="0.43129">
        <ele>73.4</ele>
        <time>2020-07-03T17:20:26Z</time>
      </trkpt>
      <trkpt lat="46.70106" lon="0.43127">
        <ele>73.3</ele>
        <time>2020-07-03T17:20:27Z</time>
      </trkpt>
      <trkpt lat="46.70102" lon="0.43124">
        <ele>73.3</ele>
        <time>2020-07-03T17:20:28Z</time>
      </trkpt>
      <trkpt lat="46.70096" lon="0.4312">
        <ele>73.3</ele>
        <time>2020-07-03T17:20:29Z</time>
      </trkpt>
      <trkpt lat="46.70092" lon="0.43116">
        <ele>73.2</ele>
        <time>2020-07-03T17:20:30Z</time>
      </trkpt>
      <trkpt lat="46.70087" lon="0.43111">
        <ele>73.2</ele>
        <time>2020-07-03T17:20:31Z</time>
      </trkpt>
      <trkpt lat="46.70083" lon="0.43106">
        <ele>73.2</ele>
        <time>2020-07-03T17:20:32Z</time>
      </trkpt>
      <trkpt lat="46.70078" lon="0.43102">
        <ele>73.2</ele>
        <time>2020-07-03T17:20:33Z</time>
      </trkpt>
      <trkpt lat="46.70074" lon="0.43098">
        <ele>73.2</ele>
        <time>2020-07-03T17:20:34Z</time>
      </trkpt>
      <trkpt lat="46.70071" lon="0.43094">
        <ele>73.2</ele>
        <time>2020-07-03T17:20:35Z</time>
      </trkpt>
      <trkpt lat="46.70068" lon="0.43092">
        <ele>73.2</ele>
        <time>2020-07-03T17:20:36Z</time>
      </trkpt>
      <trkpt lat="46.70063" lon="0.43088">
        <ele>73.2</ele>
        <time>2020-07-03T17:20:37Z</time>
      </trkpt>
      <trkpt lat="46.70059" lon="0.43087">
        <ele>73.3</ele>
        <time>2020-07-03T17:20:38Z</time>
      </trkpt>
      <trkpt lat="46.70054" lon="0.43083">
        <ele>73.3</ele>
        <time>2020-07-03T17:20:39Z</time>
      </trkpt>
      <trkpt lat="46.7005" lon="0.43079">
        <ele>73.4</ele>
        <time>2020-07-03T17:20:40Z</time>
      </trkpt>
      <trkpt lat="46.70046" lon="0.43077">
        <ele>73.5</ele>
        <time>2020-07-03T17:20:41Z</time>
      </trkpt>
      <trkpt lat="46.70043" lon="0.43075">
        <ele>73.5</ele>
        <time>2020-07-03T17:20:42Z</time>
      </trkpt>
      <trkpt lat="46.70039" lon="0.43072">
        <ele>73.6</ele>
        <time>2020-07-03T17:20:43Z</time>
      </trkpt>
      <trkpt lat="46.70036" lon="0.43069">
        <ele>73.6</ele>
        <time>2020-07-03T17:20:44Z</time>
      </trkpt>
      <trkpt lat="46.70032" lon="0.43066">
        <ele>73.6</ele>
        <time>2020-07-03T17:20:45Z</time>
      </trkpt>
      <trkpt lat="46.7003" lon="0.43066">
        <ele>73.6</ele>
        <time>2020-07-03T17:20:46Z</time>
      </trkpt>
      <trkpt lat="46.70026" lon="0.43062">
        <ele>73.6</ele>
        <time>2020-07-03T17:20:47Z</time>
      </trkpt>
      <trkpt lat="46.70022" lon="0.43059">
        <ele>73.5</ele>
        <time>2020-07-03T17:20:48Z</time>
      </trkpt>
      <trkpt lat="46.70017" lon="0.43056">
        <ele>73.5</ele>
        <time>2020-07-03T17:20:49Z</time>
      </trkpt>
      <trkpt lat="46.70013" lon="0.43054">
        <ele>73.4</ele>
        <time>2020-07-03T17:20:50Z</time>
      </trkpt>
      <trkpt lat="46.70009" lon="0.43051">
        <ele>73.3</ele>
        <time>2020-07-03T17:20:51Z</time>
      </trkpt>
      <trkpt lat="46.70007" lon="0.43048">
        <ele>73.1</ele>
        <time>2020-07-03T17:20:52Z</time>
      </trkpt>
      <trkpt lat="46.70004" lon="0.43043">
        <ele>72.9</ele>
        <time>2020-07-03T17:20:53Z</time>
      </trkpt>
      <trkpt lat="46.70002" lon="0.43037">
        <ele>72.7</ele>
        <time>2020-07-03T17:20:54Z</time>
      </trkpt>
      <trkpt lat="46.69999" lon="0.43032">
        <ele>72.5</ele>
        <time>2020-07-03T17:20:55Z</time>
      </trkpt>
      <trkpt lat="46.69995" lon="0.43027">
        <ele>72.3</ele>
        <time>2020-07-03T17:20:56Z</time>
      </trkpt>
      <trkpt lat="46.69991" lon="0.43022">
        <ele>72.1</ele>
        <time>2020-07-03T17:20:57Z</time>
      </trkpt>
      <trkpt lat="46.69987" lon="0.43017">
        <ele>71.9</ele>
        <time>2020-07-03T17:20:58Z</time>
      </trkpt>
      <trkpt lat="46.69983" lon="0.43011">
        <ele>71.6</ele>
        <time>2020-07-03T17:20:59Z</time>
      </trkpt>
      <trkpt lat="46.69979" lon="0.43007">
        <ele>71.4</ele>
        <time>2020-07-03T17:21:00Z</time>
      </trkpt>
      <trkpt lat="46.69976" lon="0.43003">
        <ele>71.2</ele>
        <time>2020-07-03T17:21:01Z</time>
      </trkpt>
      <trkpt lat="46.69972" lon="0.42999">
        <ele>71</ele>
        <time>2020-07-03T17:21:02Z</time>
      </trkpt>
      <trkpt lat="46.69966" lon="0.42996">
        <ele>70.7</ele>
        <time>2020-07-03T17:21:03Z</time>
      </trkpt>
      <trkpt lat="46.69961" lon="0.42992">
        <ele>70.4</ele>
        <time>2020-07-03T17:21:04Z</time>
      </trkpt>
      <trkpt lat="46.69958" lon="0.42988">
        <ele>70.3</ele>
        <time>2020-07-03T17:21:05Z</time>
      </trkpt>
      <trkpt lat="46.69954" lon="0.42984">
        <ele>70.1</ele>
        <time>2020-07-03T17:21:06Z</time>
      </trkpt>
      <trkpt lat="46.6995" lon="0.42979">
        <ele>69.9</ele>
        <time>2020-07-03T17:21:07Z</time>
      </trkpt>
      <trkpt lat="46.69947" lon="0.42975">
        <ele>69.7</ele>
        <time>2020-07-03T17:21:08Z</time>
      </trkpt>
      <trkpt lat="46.69943" lon="0.4297">
        <ele>69.5</ele>
        <time>2020-07-03T17:21:09Z</time>
      </trkpt>
      <trkpt lat="46.69941" lon="0.42965">
        <ele>69.4</ele>
        <time>2020-07-03T17:21:10Z</time>
      </trkpt>
      <trkpt lat="46.69938" lon="0.4296">
        <ele>69.2</ele>
        <time>2020-07-03T17:21:11Z</time>
      </trkpt>
      <trkpt lat="46.69933" lon="0.42954">
        <ele>69</ele>
        <time>2020-07-03T17:21:12Z</time>
      </trkpt>
      <trkpt lat="46.69929" lon="0.42948">
        <ele>68.8</ele>
        <time>2020-07-03T17:21:13Z</time>
      </trkpt>
      <trkpt lat="46.69926" lon="0.4294">
        <ele>68.6</ele>
        <time>2020-07-03T17:21:14Z</time>
      </trkpt>
      <trkpt lat="46.69923" lon="0.42932">
        <ele>68.4</ele>
        <time>2020-07-03T17:21:15Z</time>
      </trkpt>
      <trkpt lat="46.6992" lon="0.42925">
        <ele>68.3</ele>
        <time>2020-07-03T17:21:16Z</time>
      </trkpt>
      <trkpt lat="46.69917" lon="0.42918">
        <ele>68.1</ele>
        <time>2020-07-03T17:21:17Z</time>
      </trkpt>
      <trkpt lat="46.69915" lon="0.42911">
        <ele>68</ele>
        <time>2020-07-03T17:21:18Z</time>
      </trkpt>
      <trkpt lat="46.69912" lon="0.42904">
        <ele>67.8</ele>
        <time>2020-07-03T17:21:19Z</time>
      </trkpt>
      <trkpt lat="46.69908" lon="0.42896">
        <ele>67.6</ele>
        <time>2020-07-03T17:21:20Z</time>
      </trkpt>
      <trkpt lat="46.69905" lon="0.42891">
        <ele>67.6</ele>
        <time>2020-07-03T17:21:21Z</time>
      </trkpt>
      <trkpt lat="46.69902" lon="0.42887">
        <ele>67.5</ele>
        <time>2020-07-03T17:21:22Z</time>
      </trkpt>
      <trkpt lat="46.699" lon="0.42882">
        <ele>67.4</ele>
        <time>2020-07-03T17:21:23Z</time>
      </trkpt>
      <trkpt lat="46.69898" lon="0.42877">
        <ele>67.3</ele>
        <time>2020-07-03T17:21:24Z</time>
      </trkpt>
      <trkpt lat="46.69895" lon="0.42873">
        <ele>67.3</ele>
        <time>2020-07-03T17:21:25Z</time>
      </trkpt>
      <trkpt lat="46.69894" lon="0.42872">
        <ele>67.2</ele>
        <time>2020-07-03T17:21:26Z</time>
      </trkpt>
      <trkpt lat="46.69892" lon="0.42869">
        <ele>67.2</ele>
        <time>2020-07-03T17:21:27Z</time>
      </trkpt>
      <trkpt lat="46.69891" lon="0.42868">
        <ele>67.2</ele>
        <time>2020-07-03T17:21:28Z</time>
      </trkpt>
      <trkpt lat="46.69889" lon="0.42865">
        <ele>67.1</ele>
        <time>2020-07-03T17:21:29Z</time>
      </trkpt>
      <trkpt lat="46.69888" lon="0.42864">
        <ele>67.1</ele>
        <time>2020-07-03T17:21:30Z</time>
      </trkpt>
      <trkpt lat="46.69887" lon="0.42863">
        <ele>67.1</ele>
        <time>2020-07-03T17:21:31Z</time>
      </trkpt>
      <trkpt lat="46.69888" lon="0.42863">
        <ele>67.1</ele>
        <time>2020-07-03T17:21:32Z</time>
      </trkpt>
      <trkpt lat="46.69888" lon="0.42863">
        <ele>67.1</ele>
        <time>2020-07-03T17:21:33Z</time>
      </trkpt>
      <trkpt lat="46.69887" lon="0.42862">
        <ele>67.1</ele>
        <time>2020-07-03T17:21:34Z</time>
      </trkpt>
      <trkpt lat="46.69888" lon="0.42862">
        <ele>67.1</ele>
        <time>2020-07-03T17:21:35Z</time>
      </trkpt>
      <trkpt lat="46.69889" lon="0.42864">
        <ele>67.1</ele>
        <time>2020-07-03T17:21:36Z</time>
      </trkpt>
      <trkpt lat="46.6989" lon="0.42864">
        <ele>67.1</ele>
        <time>2020-07-03T17:21:37Z</time>
      </trkpt>
      <trkpt lat="46.6989" lon="0.42863">
        <ele>67.1</ele>
        <time>2020-07-03T17:21:38Z</time>
      </trkpt>
      <trkpt lat="46.6989" lon="0.42863">
        <ele>67.1</ele>
        <time>2020-07-03T17:21:39Z</time>
      </trkpt>
      <trkpt lat="46.6989" lon="0.42863">
        <ele>67.1</ele>
        <time>2020-07-03T17:21:40Z</time>
      </trkpt>
      <trkpt lat="46.69889" lon="0.42863">
        <ele>67.1</ele>
        <time>2020-07-03T17:21:41Z</time>
      </trkpt>
      <trkpt lat="46.69889" lon="0.42863">
        <ele>67.1</ele>
        <time>2020-07-03T17:21:42Z</time>
      </trkpt>
      <trkpt lat="46.69889" lon="0.42863">
        <ele>67.1</ele>
        <time>2020-07-03T17:21:43Z</time>
      </trkpt>
      <trkpt lat="46.69889" lon="0.42864">
        <ele>67.1</ele>
        <time>2020-07-03T17:21:44Z</time>
      </trkpt>
      <trkpt lat="46.69889" lon="0.42863">
        <ele>67.1</ele>
        <time>2020-07-03T17:21:45Z</time>
      </trkpt>
      <trkpt lat="46.69889" lon="0.42863">
        <ele>67.1</ele>
        <time>2020-07-03T17:21:46Z</time>
      </trkpt>
      <trkpt lat="46.69889" lon="0.42863">
        <ele>67.1</ele>
        <time>2020-07-03T17:21:47Z</time>
      </trkpt>
      <trkpt lat="46.69889" lon="0.42863">
        <ele>67.1</ele>
        <time>2020-07-03T17:21:48Z</time>
      </trkpt>
      <trkpt lat="46.69889" lon="0.42863">
        <ele>67.1</ele>
        <time>2020-07-03T17:21:49Z</time>
      </trkpt>
      <trkpt lat="46.69889" lon="0.42863">
        <ele>67.1</ele>
        <time>2020-07-03T17:21:50Z</time>
      </trkpt>
      <trkpt lat="46.69889" lon="0.42863">
        <ele>67.1</ele>
        <time>2020-07-03T17:21:51Z</time>
      </trkpt>
      <trkpt lat="46.69886" lon="0.4286">
        <ele>67.1</ele>
        <time>2020-07-03T17:24:18Z</time>
      </trkpt>
      <trkpt lat="46.69885" lon="0.42859">
        <ele>67.1</ele>
        <time>2020-07-03T17:24:19Z</time>
      </trkpt>
      <trkpt lat="46.69885" lon="0.4286">
        <ele>67.1</ele>
        <time>2020-07-03T17:24:20Z</time>
      </trkpt>
      <trkpt lat="46.69885" lon="0.42859">
        <ele>67.1</ele>
        <time>2020-07-03T17:24:21Z</time>
      </trkpt>
      <trkpt lat="46.69885" lon="0.42859">
        <ele>67.1</ele>
        <time>2020-07-03T17:24:22Z</time>
      </trkpt>
      <trkpt lat="46.69884" lon="0.42859">
        <ele>67.1</ele>
        <time>2020-07-03T17:24:23Z</time>
      </trkpt>
      <trkpt lat="46.69884" lon="0.42858">
        <ele>67.1</ele>
        <time>2020-07-03T17:24:24Z</time>
      </trkpt>
      <trkpt lat="46.69884" lon="0.42858">
        <ele>67.1</ele>
        <time>2020-07-03T17:24:25Z</time>
      </trkpt>
      <trkpt lat="46.69883" lon="0.42858">
        <ele>67.1</ele>
        <time>2020-07-03T17:24:26Z</time>
      </trkpt>
      <trkpt lat="46.69883" lon="0.42859">
        <ele>67.1</ele>
        <time>2020-07-03T17:24:27Z</time>
      </trkpt>
      <trkpt lat="46.69882" lon="0.42859">
        <ele>67.1</ele>
        <time>2020-07-03T17:24:28Z</time>
      </trkpt>
      <trkpt lat="46.69882" lon="0.42859">
        <ele>67.1</ele>
        <time>2020-07-03T17:24:29Z</time>
      </trkpt>
      <trkpt lat="46.69882" lon="0.42859">
        <ele>67.1</ele>
        <time>2020-07-03T17:24:30Z</time>
      </trkpt>
      <trkpt lat="46.69881" lon="0.4286">
        <ele>67.1</ele>
        <time>2020-07-03T17:24:31Z</time>
      </trkpt>
      <trkpt lat="46.69881" lon="0.4286">
        <ele>67.1</ele>
        <time>2020-07-03T17:24:32Z</time>
      </trkpt>
      <trkpt lat="46.6988" lon="0.4286">
        <ele>67.1</ele>
        <time>2020-07-03T17:24:33Z</time>
      </trkpt>
      <trkpt lat="46.6988" lon="0.42861">
        <ele>67.1</ele>
        <time>2020-07-03T17:24:34Z</time>
      </trkpt>
      <trkpt lat="46.6988" lon="0.42861">
        <ele>67.1</ele>
        <time>2020-07-03T17:24:35Z</time>
      </trkpt>
      <trkpt lat="46.69879" lon="0.42861">
        <ele>67.1</ele>
        <time>2020-07-03T17:24:36Z</time>
      </trkpt>
      <trkpt lat="46.69879" lon="0.42862">
        <ele>67.1</ele>
        <time>2020-07-03T17:24:37Z</time>
      </trkpt>
      <trkpt lat="46.69879" lon="0.42862">
        <ele>67.1</ele>
        <time>2020-07-03T17:29:33Z</time>
      </trkpt>
      <trkpt lat="46.69878" lon="0.42862">
        <ele>67.1</ele>
        <time>2020-07-03T17:29:34Z</time>
      </trkpt>
      <trkpt lat="46.69877" lon="0.42861">
        <ele>67.1</ele>
        <time>2020-07-03T17:29:35Z</time>
      </trkpt>
      <trkpt lat="46.69876" lon="0.4286">
        <ele>67.1</ele>
        <time>2020-07-03T17:29:36Z</time>
      </trkpt>
      <trkpt lat="46.69875" lon="0.42861">
        <ele>67.1</ele>
        <time>2020-07-03T17:29:37Z</time>
      </trkpt>
      <trkpt lat="46.69875" lon="0.4286">
        <ele>67.1</ele>
        <time>2020-07-03T17:29:38Z</time>
      </trkpt>
      <trkpt lat="46.69874" lon="0.4286">
        <ele>67.1</ele>
        <time>2020-07-03T17:29:39Z</time>
      </trkpt>
      <trkpt lat="46.69874" lon="0.4286">
        <ele>67.1</ele>
        <time>2020-07-03T17:29:40Z</time>
      </trkpt>
      <trkpt lat="46.69874" lon="0.42859">
        <ele>67.1</ele>
        <time>2020-07-03T17:29:41Z</time>
      </trkpt>
      <trkpt lat="46.69874" lon="0.4286">
        <ele>67.1</ele>
        <time>2020-07-03T17:29:42Z</time>
      </trkpt>
      <trkpt lat="46.69874" lon="0.4286">
        <ele>67.1</ele>
        <time>2020-07-03T17:29:43Z</time>
      </trkpt>
      <trkpt lat="46.69875" lon="0.4286">
        <ele>67.1</ele>
        <time>2020-07-03T17:29:44Z</time>
      </trkpt>
      <trkpt lat="46.69874" lon="0.42861">
        <ele>67.1</ele>
        <time>2020-07-03T17:29:45Z</time>
      </trkpt>
      <trkpt lat="46.69873" lon="0.4286">
        <ele>67.1</ele>
        <time>2020-07-03T17:29:46Z</time>
      </trkpt>
      <trkpt lat="46.69873" lon="0.42861">
        <ele>67.1</ele>
        <time>2020-07-03T17:29:47Z</time>
      </trkpt>
      <trkpt lat="46.69873" lon="0.42861">
        <ele>67.1</ele>
        <time>2020-07-03T17:29:48Z</time>
      </trkpt>
      <trkpt lat="46.69873" lon="0.42861">
        <ele>67.1</ele>
        <time>2020-07-03T17:29:49Z</time>
      </trkpt>
      <trkpt lat="46.69873" lon="0.42861">
        <ele>67.1</ele>
        <time>2020-07-03T17:29:50Z</time>
      </trkpt>
      <trkpt lat="46.69873" lon="0.42861">
        <ele>67.1</ele>
        <time>2020-07-03T17:29:51Z</time>
      </trkpt>
      <trkpt lat="46.69873" lon="0.42861">
        <ele>67.1</ele>
        <time>2020-07-03T17:29:52Z</time>
      </trkpt>
      <trkpt lat="46.69873" lon="0.42861">
        <ele>67.1</ele>
        <time>2020-07-03T17:29:53Z</time>
      </trkpt>
      <trkpt lat="46.69873" lon="0.42861">
        <ele>67.1</ele>
        <time>2020-07-03T17:29:54Z</time>
      </trkpt>
      <trkpt lat="46.69873" lon="0.42861">
        <ele>67.1</ele>
        <time>2020-07-03T17:29:55Z</time>
      </trkpt>
      <trkpt lat="46.69873" lon="0.42861">
        <ele>67.1</ele>
        <time>2020-07-03T17:29:56Z</time>
      </trkpt>
      <trkpt lat="46.69877" lon="0.42874">
        <ele>67.1</ele>
        <time>2020-07-03T17:46:50Z</time>
      </trkpt>
      <trkpt lat="46.69879" lon="0.42874">
        <ele>67.1</ele>
        <time>2020-07-03T17:46:51Z</time>
      </trkpt>
      <trkpt lat="46.6988" lon="0.42874">
        <ele>67.1</ele>
        <time>2020-07-03T17:46:52Z</time>
      </trkpt>
      <trkpt lat="46.6988" lon="0.42874">
        <ele>67.1</ele>
        <time>2020-07-03T17:46:53Z</time>
      </trkpt>
      <trkpt lat="46.69881" lon="0.42874">
        <ele>67.1</ele>
        <time>2020-07-03T17:46:54Z</time>
      </trkpt>
      <trkpt lat="46.69881" lon="0.42873">
        <ele>67.1</ele>
        <time>2020-07-03T17:46:55Z</time>
      </trkpt>
      <trkpt lat="46.69881" lon="0.42872">
        <ele>67.1</ele>
        <time>2020-07-03T17:46:56Z</time>
      </trkpt>
      <trkpt lat="46.69882" lon="0.42871">
        <ele>67.1</ele>
        <time>2020-07-03T17:46:57Z</time>
      </trkpt>
      <trkpt lat="46.69882" lon="0.4287">
        <ele>67.1</ele>
        <time>2020-07-03T17:46:58Z</time>
      </trkpt>
      <trkpt lat="46.69882" lon="0.42869">
        <ele>67.1</ele>
        <time>2020-07-03T17:46:59Z</time>
      </trkpt>
      <trkpt lat="46.69882" lon="0.42868">
        <ele>67.1</ele>
        <time>2020-07-03T17:47:00Z</time>
      </trkpt>
      <trkpt lat="46.69883" lon="0.42868">
        <ele>67.1</ele>
        <time>2020-07-03T17:47:01Z</time>
      </trkpt>
      <trkpt lat="46.69883" lon="0.42868">
        <ele>67.1</ele>
        <time>2020-07-03T17:47:02Z</time>
      </trkpt>
      <trkpt lat="46.69883" lon="0.42868">
        <ele>67.1</ele>
        <time>2020-07-03T17:47:03Z</time>
      </trkpt>
      <trkpt lat="46.69883" lon="0.42873">
        <ele>67</ele>
        <time>2020-07-03T17:47:44Z</time>
      </trkpt>
      <trkpt lat="46.69883" lon="0.42872">
        <ele>67</ele>
        <time>2020-07-03T17:47:45Z</time>
      </trkpt>
      <trkpt lat="46.69883" lon="0.42872">
        <ele>67</ele>
        <time>2020-07-03T17:47:46Z</time>
      </trkpt>
      <trkpt lat="46.69883" lon="0.42872">
        <ele>67</ele>
        <time>2020-07-03T17:47:47Z</time>
      </trkpt>
      <trkpt lat="46.69883" lon="0.42872">
        <ele>67</ele>
        <time>2020-07-03T17:47:48Z</time>
      </trkpt>
      <trkpt lat="46.69883" lon="0.42872">
        <ele>67</ele>
        <time>2020-07-03T17:47:49Z</time>
      </trkpt>
      <trkpt lat="46.69883" lon="0.42872">
        <ele>67</ele>
        <time>2020-07-03T17:47:50Z</time>
      </trkpt>
      <trkpt lat="46.69883" lon="0.42872">
        <ele>67</ele>
        <time>2020-07-03T17:47:51Z</time>
      </trkpt>
      <trkpt lat="46.69884" lon="0.42872">
        <ele>67</ele>
        <time>2020-07-03T17:47:52Z</time>
      </trkpt>
      <trkpt lat="46.69884" lon="0.42872">
        <ele>67</ele>
        <time>2020-07-03T17:47:53Z</time>
      </trkpt>
      <trkpt lat="46.69883" lon="0.42871">
        <ele>67</ele>
        <time>2020-07-03T17:47:54Z</time>
      </trkpt>
      <trkpt lat="46.69883" lon="0.42871">
        <ele>67</ele>
        <time>2020-07-03T17:47:55Z</time>
      </trkpt>
      <trkpt lat="46.6989" lon="0.4285">
        <ele>67</ele>
        <time>2020-07-03T17:51:39Z</time>
      </trkpt>
      <trkpt lat="46.6989" lon="0.4285">
        <ele>67</ele>
        <time>2020-07-03T17:51:40Z</time>
      </trkpt>
      <trkpt lat="46.6989" lon="0.4285">
        <ele>67</ele>
        <time>2020-07-03T17:51:41Z</time>
      </trkpt>
      <trkpt lat="46.69889" lon="0.4285">
        <ele>67</ele>
        <time>2020-07-03T17:51:42Z</time>
      </trkpt>
      <trkpt lat="46.69889" lon="0.4285">
        <ele>67</ele>
        <time>2020-07-03T17:51:43Z</time>
      </trkpt>
      <trkpt lat="46.69889" lon="0.4285">
        <ele>67</ele>
        <time>2020-07-03T17:51:44Z</time>
      </trkpt>
      <trkpt lat="46.69889" lon="0.4285">
        <ele>67</ele>
        <time>2020-07-03T17:51:45Z</time>
      </trkpt>
      <trkpt lat="46.69889" lon="0.4285">
        <ele>67</ele>
        <time>2020-07-03T17:51:46Z</time>
      </trkpt>
      <trkpt lat="46.69889" lon="0.42849">
        <ele>67</ele>
        <time>2020-07-03T17:51:47Z</time>
      </trkpt>
      <trkpt lat="46.69889" lon="0.42849">
        <ele>67</ele>
        <time>2020-07-03T17:51:48Z</time>
      </trkpt>
      <trkpt lat="46.69881" lon="0.42846">
        <ele>67</ele>
        <time>2020-07-03T17:52:29Z</time>
      </trkpt>
      <trkpt lat="46.69881" lon="0.42847">
        <ele>67</ele>
        <time>2020-07-03T17:52:30Z</time>
      </trkpt>
      <trkpt lat="46.6988" lon="0.42844">
        <ele>67</ele>
        <time>2020-07-03T17:52:31Z</time>
      </trkpt>
      <trkpt lat="46.69882" lon="0.42846">
        <ele>67</ele>
        <time>2020-07-03T17:52:32Z</time>
      </trkpt>
      <trkpt lat="46.69884" lon="0.42849">
        <ele>67</ele>
        <time>2020-07-03T17:52:33Z</time>
      </trkpt>
      <trkpt lat="46.69886" lon="0.42851">
        <ele>67</ele>
        <time>2020-07-03T17:52:34Z</time>
      </trkpt>
      <trkpt lat="46.69885" lon="0.42852">
        <ele>67</ele>
        <time>2020-07-03T17:52:35Z</time>
      </trkpt>
      <trkpt lat="46.69885" lon="0.42852">
        <ele>67</ele>
        <time>2020-07-03T17:52:36Z</time>
      </trkpt>
      <trkpt lat="46.69885" lon="0.42852">
        <ele>67</ele>
        <time>2020-07-03T17:52:37Z</time>
      </trkpt>
      <trkpt lat="46.69885" lon="0.42852">
        <ele>67</ele>
        <time>2020-07-03T17:52:38Z</time>
      </trkpt>
      <trkpt lat="46.69885" lon="0.42852">
        <ele>67</ele>
        <time>2020-07-03T17:52:39Z</time>
      </trkpt>
      <trkpt lat="46.69885" lon="0.42852">
        <ele>67</ele>
        <time>2020-07-03T17:52:40Z</time>
      </trkpt>
      <trkpt lat="46.69886" lon="0.42853">
        <ele>67</ele>
        <time>2020-07-03T17:52:41Z</time>
      </trkpt>
      <trkpt lat="46.69887" lon="0.42854">
        <ele>67</ele>
        <time>2020-07-03T17:52:42Z</time>
      </trkpt>
      <trkpt lat="46.69888" lon="0.42855">
        <ele>67</ele>
        <time>2020-07-03T17:52:43Z</time>
      </trkpt>
      <trkpt lat="46.69889" lon="0.42856">
        <ele>67</ele>
        <time>2020-07-03T17:52:44Z</time>
      </trkpt>
      <trkpt lat="46.6989" lon="0.42857">
        <ele>67</ele>
        <time>2020-07-03T17:52:45Z</time>
      </trkpt>
      <trkpt lat="46.6989" lon="0.42858">
        <ele>67</ele>
        <time>2020-07-03T17:52:46Z</time>
      </trkpt>
      <trkpt lat="46.69891" lon="0.42859">
        <ele>67</ele>
        <time>2020-07-03T17:52:47Z</time>
      </trkpt>
      <trkpt lat="46.69891" lon="0.42859">
        <ele>67</ele>
        <time>2020-07-03T17:52:48Z</time>
      </trkpt>
      <trkpt lat="46.69891" lon="0.42859">
        <ele>67</ele>
        <time>2020-07-03T17:52:49Z</time>
      </trkpt>
      <trkpt lat="46.69891" lon="0.42859">
        <ele>67</ele>
        <time>2020-07-03T17:52:50Z</time>
      </trkpt>
      <trkpt lat="46.69892" lon="0.42859">
        <ele>67</ele>
        <time>2020-07-03T17:52:51Z</time>
      </trkpt>
      <trkpt lat="46.69892" lon="0.42859">
        <ele>67</ele>
        <time>2020-07-03T17:52:52Z</time>
      </trkpt>
      <trkpt lat="46.69892" lon="0.42859">
        <ele>67</ele>
        <time>2020-07-03T17:52:53Z</time>
      </trkpt>
      <trkpt lat="46.69893" lon="0.4286">
        <ele>67</ele>
        <time>2020-07-03T17:52:54Z</time>
      </trkpt>
      <trkpt lat="46.69893" lon="0.4286">
        <ele>67</ele>
        <time>2020-07-03T17:52:55Z</time>
      </trkpt>
      <trkpt lat="46.69893" lon="0.42861">
        <ele>67</ele>
        <time>2020-07-03T17:52:56Z</time>
      </trkpt>
      <trkpt lat="46.69887" lon="0.42856">
        <ele>67</ele>
        <time>2020-07-03T17:54:05Z</time>
      </trkpt>
      <trkpt lat="46.69887" lon="0.42856">
        <ele>67</ele>
        <time>2020-07-03T17:54:06Z</time>
      </trkpt>
      <trkpt lat="46.69887" lon="0.42857">
        <ele>67</ele>
        <time>2020-07-03T17:54:07Z</time>
      </trkpt>
      <trkpt lat="46.69886" lon="0.42857">
        <ele>67</ele>
        <time>2020-07-03T17:54:08Z</time>
      </trkpt>
      <trkpt lat="46.69886" lon="0.42857">
        <ele>67</ele>
        <time>2020-07-03T17:54:09Z</time>
      </trkpt>
      <trkpt lat="46.69885" lon="0.42859">
        <ele>67</ele>
        <time>2020-07-03T17:54:10Z</time>
      </trkpt>
      <trkpt lat="46.69885" lon="0.42859">
        <ele>67</ele>
        <time>2020-07-03T17:54:11Z</time>
      </trkpt>
      <trkpt lat="46.69884" lon="0.42859">
        <ele>67</ele>
        <time>2020-07-03T17:54:12Z</time>
      </trkpt>
      <trkpt lat="46.69885" lon="0.42859">
        <ele>67</ele>
        <time>2020-07-03T17:54:13Z</time>
      </trkpt>
      <trkpt lat="46.69884" lon="0.42859">
        <ele>67</ele>
        <time>2020-07-03T17:54:14Z</time>
      </trkpt>
      <trkpt lat="46.69884" lon="0.4286">
        <ele>67</ele>
        <time>2020-07-03T17:54:15Z</time>
      </trkpt>
      <trkpt lat="46.69884" lon="0.4286">
        <ele>67</ele>
        <time>2020-07-03T17:54:16Z</time>
      </trkpt>
      <trkpt lat="46.69884" lon="0.4286">
        <ele>67</ele>
        <time>2020-07-03T17:54:17Z</time>
      </trkpt>
      <trkpt lat="46.69884" lon="0.4286">
        <ele>67</ele>
        <time>2020-07-03T17:54:18Z</time>
      </trkpt>
      <trkpt lat="46.69884" lon="0.42861">
        <ele>67</ele>
        <time>2020-07-03T17:54:19Z</time>
      </trkpt>
      <trkpt lat="46.69884" lon="0.42861">
        <ele>67</ele>
        <time>2020-07-03T17:54:20Z</time>
      </trkpt>
      <trkpt lat="46.69884" lon="0.42861">
        <ele>67</ele>
        <time>2020-07-03T17:54:21Z</time>
      </trkpt>
      <trkpt lat="46.69884" lon="0.42861">
        <ele>67</ele>
        <time>2020-07-03T17:54:22Z</time>
      </trkpt>
      <trkpt lat="46.69884" lon="0.42861">
        <ele>67</ele>
        <time>2020-07-03T17:54:23Z</time>
      </trkpt>
      <trkpt lat="46.69884" lon="0.42861">
        <ele>67</ele>
        <time>2020-07-03T17:54:24Z</time>
      </trkpt>
      <trkpt lat="46.69884" lon="0.42861">
        <ele>67</ele>
        <time>2020-07-03T17:54:25Z</time>
      </trkpt>
      <trkpt lat="46.69884" lon="0.42861">
        <ele>67</ele>
        <time>2020-07-03T17:54:26Z</time>
      </trkpt>
      <trkpt lat="46.69884" lon="0.42861">
        <ele>67</ele>
        <time>2020-07-03T17:54:27Z</time>
      </trkpt>
      <trkpt lat="46.69884" lon="0.42861">
        <ele>67</ele>
        <time>2020-07-03T17:54:28Z</time>
      </trkpt>
      <trkpt lat="46.69884" lon="0.42861">
        <ele>67</ele>
        <time>2020-07-03T17:54:29Z</time>
      </trkpt>
      <trkpt lat="46.69884" lon="0.42862">
        <ele>67</ele>
        <time>2020-07-03T17:54:30Z</time>
      </trkpt>
      <trkpt lat="46.69884" lon="0.42862">
        <ele>67</ele>
        <time>2020-07-03T17:54:31Z</time>
      </trkpt>
      <trkpt lat="46.69883" lon="0.42867">
        <ele>67</ele>
        <time>2020-07-03T17:58:20Z</time>
      </trkpt>
      <trkpt lat="46.69883" lon="0.42866">
        <ele>67</ele>
        <time>2020-07-03T17:58:21Z</time>
      </trkpt>
      <trkpt lat="46.69882" lon="0.42867">
        <ele>67</ele>
        <time>2020-07-03T17:58:22Z</time>
      </trkpt>
      <trkpt lat="46.69882" lon="0.42867">
        <ele>67</ele>
        <time>2020-07-03T17:58:23Z</time>
      </trkpt>
      <trkpt lat="46.69881" lon="0.42867">
        <ele>67</ele>
        <time>2020-07-03T17:58:24Z</time>
      </trkpt>
      <trkpt lat="46.69881" lon="0.42867">
        <ele>67</ele>
        <time>2020-07-03T17:58:25Z</time>
      </trkpt>
      <trkpt lat="46.6988" lon="0.42867">
        <ele>67</ele>
        <time>2020-07-03T17:58:26Z</time>
      </trkpt>
      <trkpt lat="46.69879" lon="0.42867">
        <ele>67</ele>
        <time>2020-07-03T17:58:27Z</time>
      </trkpt>
      <trkpt lat="46.69879" lon="0.42867">
        <ele>67</ele>
        <time>2020-07-03T17:58:28Z</time>
      </trkpt>
      <trkpt lat="46.69878" lon="0.42867">
        <ele>67</ele>
        <time>2020-07-03T17:58:29Z</time>
      </trkpt>
      <trkpt lat="46.69877" lon="0.42867">
        <ele>67</ele>
        <time>2020-07-03T17:58:30Z</time>
      </trkpt>
      <trkpt lat="46.69876" lon="0.42867">
        <ele>67</ele>
        <time>2020-07-03T17:58:31Z</time>
      </trkpt>
      <trkpt lat="46.69875" lon="0.42867">
        <ele>67</ele>
        <time>2020-07-03T17:58:32Z</time>
      </trkpt>
      <trkpt lat="46.69874" lon="0.42866">
        <ele>67</ele>
        <time>2020-07-03T17:58:33Z</time>
      </trkpt>
      <trkpt lat="46.69873" lon="0.42866">
        <ele>67</ele>
        <time>2020-07-03T17:58:34Z</time>
      </trkpt>
      <trkpt lat="46.69872" lon="0.42865">
        <ele>67</ele>
        <time>2020-07-03T17:58:35Z</time>
      </trkpt>
      <trkpt lat="46.69872" lon="0.42865">
        <ele>67</ele>
        <time>2020-07-03T17:58:36Z</time>
      </trkpt>
      <trkpt lat="46.69871" lon="0.42864">
        <ele>67</ele>
        <time>2020-07-03T17:58:37Z</time>
      </trkpt>
      <trkpt lat="46.69871" lon="0.42864">
        <ele>67</ele>
        <time>2020-07-03T17:58:38Z</time>
      </trkpt>
      <trkpt lat="46.6987" lon="0.42863">
        <ele>67</ele>
        <time>2020-07-03T17:58:39Z</time>
      </trkpt>
      <trkpt lat="46.6987" lon="0.42863">
        <ele>67</ele>
        <time>2020-07-03T17:58:40Z</time>
      </trkpt>
      <trkpt lat="46.6987" lon="0.42862">
        <ele>67</ele>
        <time>2020-07-03T17:58:41Z</time>
      </trkpt>
      <trkpt lat="46.6987" lon="0.42862">
        <ele>67</ele>
        <time>2020-07-03T17:58:42Z</time>
      </trkpt>
      <trkpt lat="46.6987" lon="0.42862">
        <ele>67</ele>
        <time>2020-07-03T17:58:43Z</time>
      </trkpt>
      <trkpt lat="46.6987" lon="0.42862">
        <ele>67</ele>
        <time>2020-07-03T17:58:44Z</time>
      </trkpt>
      <trkpt lat="46.6987" lon="0.42862">
        <ele>67</ele>
        <time>2020-07-03T17:58:45Z</time>
      </trkpt>
      <trkpt lat="46.69871" lon="0.42862">
        <ele>67</ele>
        <time>2020-07-03T17:58:46Z</time>
      </trkpt>
      <trkpt lat="46.69871" lon="0.42862">
        <ele>67</ele>
        <time>2020-07-03T17:58:47Z</time>
      </trkpt>
      <trkpt lat="46.69871" lon="0.42861">
        <ele>67</ele>
        <time>2020-07-03T17:58:48Z</time>
      </trkpt>
      <trkpt lat="46.69871" lon="0.42862">
        <ele>67</ele>
        <time>2020-07-03T17:58:49Z</time>
      </trkpt>
      <trkpt lat="46.6987" lon="0.42863">
        <ele>67</ele>
        <time>2020-07-03T17:58:50Z</time>
      </trkpt>
      <trkpt lat="46.6987" lon="0.42863">
        <ele>67</ele>
        <time>2020-07-03T17:58:51Z</time>
      </trkpt>
      <trkpt lat="46.6987" lon="0.42864">
        <ele>67</ele>
        <time>2020-07-03T17:58:52Z</time>
      </trkpt>
      <trkpt lat="46.6987" lon="0.42865">
        <ele>67</ele>
        <time>2020-07-03T17:58:53Z</time>
      </trkpt>
      <trkpt lat="46.69871" lon="0.42866">
        <ele>67</ele>
        <time>2020-07-03T17:58:54Z</time>
      </trkpt>
      <trkpt lat="46.69871" lon="0.42867">
        <ele>67</ele>
        <time>2020-07-03T17:58:55Z</time>
      </trkpt>
      <trkpt lat="46.69871" lon="0.42868">
        <ele>67</ele>
        <time>2020-07-03T17:58:56Z</time>
      </trkpt>
      <trkpt lat="46.69871" lon="0.42869">
        <ele>67</ele>
        <time>2020-07-03T17:58:57Z</time>
      </trkpt>
      <trkpt lat="46.69871" lon="0.4287">
        <ele>67</ele>
        <time>2020-07-03T17:58:58Z</time>
      </trkpt>
      <trkpt lat="46.69871" lon="0.4287">
        <ele>67</ele>
        <time>2020-07-03T17:58:59Z</time>
      </trkpt>
      <trkpt lat="46.69871" lon="0.42871">
        <ele>67</ele>
        <time>2020-07-03T17:59:00Z</time>
      </trkpt>
      <trkpt lat="46.69871" lon="0.42871">
        <ele>67</ele>
        <time>2020-07-03T17:59:01Z</time>
      </trkpt>
      <trkpt lat="46.69872" lon="0.42871">
        <ele>67</ele>
        <time>2020-07-03T17:59:02Z</time>
      </trkpt>
      <trkpt lat="46.69872" lon="0.42872">
        <ele>67</ele>
        <time>2020-07-03T17:59:03Z</time>
      </trkpt>
      <trkpt lat="46.69872" lon="0.42872">
        <ele>67</ele>
        <time>2020-07-03T17:59:04Z</time>
      </trkpt>
      <trkpt lat="46.69873" lon="0.42871">
        <ele>67</ele>
        <time>2020-07-03T17:59:05Z</time>
      </trkpt>
      <trkpt lat="46.69873" lon="0.42871">
        <ele>67</ele>
        <time>2020-07-03T17:59:06Z</time>
      </trkpt>
      <trkpt lat="46.69874" lon="0.42872">
        <ele>67</ele>
        <time>2020-07-03T17:59:07Z</time>
      </trkpt>
      <trkpt lat="46.69875" lon="0.42872">
        <ele>67</ele>
        <time>2020-07-03T17:59:08Z</time>
      </trkpt>
      <trkpt lat="46.69875" lon="0.42873">
        <ele>67</ele>
        <time>2020-07-03T17:59:09Z</time>
      </trkpt>
      <trkpt lat="46.69878" lon="0.4287">
        <ele>67</ele>
        <time>2020-07-03T17:59:10Z</time>
      </trkpt>
      <trkpt lat="46.6988" lon="0.42867">
        <ele>67</ele>
        <time>2020-07-03T17:59:11Z</time>
      </trkpt>
      <trkpt lat="46.69882" lon="0.42865">
        <ele>67</ele>
        <time>2020-07-03T18:00:56Z</time>
      </trkpt>
      <trkpt lat="46.69885" lon="0.42863">
        <ele>66.9</ele>
        <time>2020-07-03T18:00:57Z</time>
      </trkpt>
      <trkpt lat="46.69885" lon="0.42859">
        <ele>66.9</ele>
        <time>2020-07-03T18:00:58Z</time>
      </trkpt>
      <trkpt lat="46.69885" lon="0.42857">
        <ele>66.9</ele>
        <time>2020-07-03T18:00:59Z</time>
      </trkpt>
      <trkpt lat="46.69883" lon="0.42854">
        <ele>66.9</ele>
        <time>2020-07-03T18:01:00Z</time>
      </trkpt>
      <trkpt lat="46.69881" lon="0.4285">
        <ele>66.9</ele>
        <time>2020-07-03T18:01:01Z</time>
      </trkpt>
      <trkpt lat="46.69878" lon="0.42846">
        <ele>66.9</ele>
        <time>2020-07-03T18:01:02Z</time>
      </trkpt>
      <trkpt lat="46.69875" lon="0.42842">
        <ele>66.9</ele>
        <time>2020-07-03T18:01:03Z</time>
      </trkpt>
      <trkpt lat="46.69871" lon="0.42839">
        <ele>66.9</ele>
        <time>2020-07-03T18:01:04Z</time>
      </trkpt>
      <trkpt lat="46.69868" lon="0.42836">
        <ele>66.9</ele>
        <time>2020-07-03T18:01:05Z</time>
      </trkpt>
      <trkpt lat="46.69866" lon="0.42833">
        <ele>67.1</ele>
        <time>2020-07-03T18:01:06Z</time>
      </trkpt>
      <trkpt lat="46.69862" lon="0.42831">
        <ele>67.2</ele>
        <time>2020-07-03T18:01:07Z</time>
      </trkpt>
      <trkpt lat="46.6986" lon="0.42832">
        <ele>67.3</ele>
        <time>2020-07-03T18:01:08Z</time>
      </trkpt>
      <trkpt lat="46.69857" lon="0.42834">
        <ele>67.4</ele>
        <time>2020-07-03T18:01:09Z</time>
      </trkpt>
      <trkpt lat="46.69854" lon="0.42837">
        <ele>67.5</ele>
        <time>2020-07-03T18:01:10Z</time>
      </trkpt>
      <trkpt lat="46.69849" lon="0.42837">
        <ele>67.7</ele>
        <time>2020-07-03T18:01:11Z</time>
      </trkpt>
      <trkpt lat="46.69844" lon="0.42837">
        <ele>67.8</ele>
        <time>2020-07-03T18:01:12Z</time>
      </trkpt>
      <trkpt lat="46.6984" lon="0.42834">
        <ele>68</ele>
        <time>2020-07-03T18:01:13Z</time>
      </trkpt>
      <trkpt lat="46.69836" lon="0.42831">
        <ele>68.1</ele>
        <time>2020-07-03T18:01:14Z</time>
      </trkpt>
      <trkpt lat="46.69832" lon="0.42827">
        <ele>68.3</ele>
        <time>2020-07-03T18:01:15Z</time>
      </trkpt>
      <trkpt lat="46.69827" lon="0.42824">
        <ele>68.5</ele>
        <time>2020-07-03T18:01:16Z</time>
      </trkpt>
      <trkpt lat="46.69823" lon="0.4282">
        <ele>68.6</ele>
        <time>2020-07-03T18:01:17Z</time>
      </trkpt>
      <trkpt lat="46.69818" lon="0.42815">
        <ele>68.8</ele>
        <time>2020-07-03T18:01:18Z</time>
      </trkpt>
      <trkpt lat="46.69814" lon="0.42811">
        <ele>69</ele>
        <time>2020-07-03T18:01:19Z</time>
      </trkpt>
      <trkpt lat="46.6981" lon="0.42808">
        <ele>69.2</ele>
        <time>2020-07-03T18:01:20Z</time>
      </trkpt>
      <trkpt lat="46.69806" lon="0.42805">
        <ele>69.3</ele>
        <time>2020-07-03T18:01:21Z</time>
      </trkpt>
      <trkpt lat="46.69802" lon="0.42801">
        <ele>69.5</ele>
        <time>2020-07-03T18:01:22Z</time>
      </trkpt>
      <trkpt lat="46.69798" lon="0.42796">
        <ele>69.6</ele>
        <time>2020-07-03T18:01:23Z</time>
      </trkpt>
      <trkpt lat="46.69794" lon="0.42792">
        <ele>69.7</ele>
        <time>2020-07-03T18:01:24Z</time>
      </trkpt>
      <trkpt lat="46.69789" lon="0.42788">
        <ele>69.8</ele>
        <time>2020-07-03T18:01:25Z</time>
      </trkpt>
      <trkpt lat="46.69785" lon="0.42784">
        <ele>69.8</ele>
        <time>2020-07-03T18:01:26Z</time>
      </trkpt>
      <trkpt lat="46.69781" lon="0.42779">
        <ele>69.9</ele>
        <time>2020-07-03T18:01:27Z</time>
      </trkpt>
      <trkpt lat="46.69776" lon="0.42774">
        <ele>69.9</ele>
        <time>2020-07-03T18:01:28Z</time>
      </trkpt>
      <trkpt lat="46.69772" lon="0.4277">
        <ele>70</ele>
        <time>2020-07-03T18:01:29Z</time>
      </trkpt>
      <trkpt lat="46.69769" lon="0.42765">
        <ele>70</ele>
        <time>2020-07-03T18:01:30Z</time>
      </trkpt>
      <trkpt lat="46.69765" lon="0.4276">
        <ele>70</ele>
        <time>2020-07-03T18:01:31Z</time>
      </trkpt>
      <trkpt lat="46.69761" lon="0.42755">
        <ele>70.1</ele>
        <time>2020-07-03T18:01:32Z</time>
      </trkpt>
      <trkpt lat="46.69757" lon="0.4275">
        <ele>70.1</ele>
        <time>2020-07-03T18:01:33Z</time>
      </trkpt>
      <trkpt lat="46.69753" lon="0.42745">
        <ele>70.2</ele>
        <time>2020-07-03T18:01:34Z</time>
      </trkpt>
      <trkpt lat="46.69749" lon="0.4274">
        <ele>70.3</ele>
        <time>2020-07-03T18:01:35Z</time>
      </trkpt>
      <trkpt lat="46.69745" lon="0.42734">
        <ele>70.3</ele>
        <time>2020-07-03T18:01:36Z</time>
      </trkpt>
      <trkpt lat="46.69741" lon="0.42728">
        <ele>70.3</ele>
        <time>2020-07-03T18:01:37Z</time>
      </trkpt>
      <trkpt lat="46.69736" lon="0.42723">
        <ele>70.3</ele>
        <time>2020-07-03T18:01:38Z</time>
      </trkpt>
      <trkpt lat="46.69732" lon="0.42717">
        <ele>70.3</ele>
        <time>2020-07-03T18:01:39Z</time>
      </trkpt>
      <trkpt lat="46.69728" lon="0.42713">
        <ele>70.3</ele>
        <time>2020-07-03T18:01:40Z</time>
      </trkpt>
      <trkpt lat="46.69724" lon="0.42708">
        <ele>70.3</ele>
        <time>2020-07-03T18:01:41Z</time>
      </trkpt>
      <trkpt lat="46.6972" lon="0.42703">
        <ele>70.3</ele>
        <time>2020-07-03T18:01:42Z</time>
      </trkpt>
      <trkpt lat="46.69715" lon="0.42698">
        <ele>70.2</ele>
        <time>2020-07-03T18:01:43Z</time>
      </trkpt>
      <trkpt lat="46.69711" lon="0.42693">
        <ele>70.1</ele>
        <time>2020-07-03T18:01:44Z</time>
      </trkpt>
      <trkpt lat="46.69707" lon="0.42689">
        <ele>70.1</ele>
        <time>2020-07-03T18:01:45Z</time>
      </trkpt>
      <trkpt lat="46.69703" lon="0.42685">
        <ele>70</ele>
        <time>2020-07-03T18:01:46Z</time>
      </trkpt>
      <trkpt lat="46.69699" lon="0.42681">
        <ele>69.9</ele>
        <time>2020-07-03T18:01:47Z</time>
      </trkpt>
      <trkpt lat="46.69695" lon="0.42677">
        <ele>69.8</ele>
        <time>2020-07-03T18:01:48Z</time>
      </trkpt>
      <trkpt lat="46.6969" lon="0.42673">
        <ele>69.7</ele>
        <time>2020-07-03T18:01:49Z</time>
      </trkpt>
      <trkpt lat="46.69685" lon="0.42668">
        <ele>69.6</ele>
        <time>2020-07-03T18:01:50Z</time>
      </trkpt>
      <trkpt lat="46.6968" lon="0.42662">
        <ele>69.5</ele>
        <time>2020-07-03T18:01:51Z</time>
      </trkpt>
      <trkpt lat="46.69675" lon="0.42657">
        <ele>69.5</ele>
        <time>2020-07-03T18:01:52Z</time>
      </trkpt>
      <trkpt lat="46.69671" lon="0.42651">
        <ele>69.5</ele>
        <time>2020-07-03T18:01:53Z</time>
      </trkpt>
      <trkpt lat="46.69667" lon="0.42646">
        <ele>69.5</ele>
        <time>2020-07-03T18:01:54Z</time>
      </trkpt>
      <trkpt lat="46.69662" lon="0.4264">
        <ele>69.1</ele>
        <time>2020-07-03T18:01:55Z</time>
      </trkpt>
      <trkpt lat="46.69659" lon="0.42633">
        <ele>68.9</ele>
        <time>2020-07-03T18:01:56Z</time>
      </trkpt>
      <trkpt lat="46.69657" lon="0.42625">
        <ele>68.6</ele>
        <time>2020-07-03T18:01:57Z</time>
      </trkpt>
      <trkpt lat="46.69654" lon="0.42617">
        <ele>68.4</ele>
        <time>2020-07-03T18:01:58Z</time>
      </trkpt>
      <trkpt lat="46.6965" lon="0.4261">
        <ele>68.1</ele>
        <time>2020-07-03T18:01:59Z</time>
      </trkpt>
      <trkpt lat="46.69647" lon="0.42603">
        <ele>67.9</ele>
        <time>2020-07-03T18:02:00Z</time>
      </trkpt>
      <trkpt lat="46.69644" lon="0.42595">
        <ele>67.6</ele>
        <time>2020-07-03T18:02:01Z</time>
      </trkpt>
      <trkpt lat="46.6964" lon="0.42586">
        <ele>67.4</ele>
        <time>2020-07-03T18:02:02Z</time>
      </trkpt>
      <trkpt lat="46.69638" lon="0.42577">
        <ele>67.2</ele>
        <time>2020-07-03T18:02:03Z</time>
      </trkpt>
      <trkpt lat="46.69635" lon="0.42568">
        <ele>67</ele>
        <time>2020-07-03T18:02:04Z</time>
      </trkpt>
      <trkpt lat="46.69632" lon="0.42559">
        <ele>66.8</ele>
        <time>2020-07-03T18:02:05Z</time>
      </trkpt>
      <trkpt lat="46.69629" lon="0.4255">
        <ele>66.7</ele>
        <time>2020-07-03T18:02:06Z</time>
      </trkpt>
      <trkpt lat="46.69627" lon="0.42542">
        <ele>66.5</ele>
        <time>2020-07-03T18:02:07Z</time>
      </trkpt>
      <trkpt lat="46.69624" lon="0.42533">
        <ele>66.4</ele>
        <time>2020-07-03T18:02:08Z</time>
      </trkpt>
      <trkpt lat="46.69621" lon="0.42524">
        <ele>66.3</ele>
        <time>2020-07-03T18:02:09Z</time>
      </trkpt>
      <trkpt lat="46.69618" lon="0.42515">
        <ele>66.2</ele>
        <time>2020-07-03T18:02:10Z</time>
      </trkpt>
      <trkpt lat="46.69617" lon="0.42508">
        <ele>66.2</ele>
        <time>2020-07-03T18:02:11Z</time>
      </trkpt>
      <trkpt lat="46.69615" lon="0.425">
        <ele>66.2</ele>
        <time>2020-07-03T18:02:12Z</time>
      </trkpt>
      <trkpt lat="46.69613" lon="0.42492">
        <ele>66.3</ele>
        <time>2020-07-03T18:02:13Z</time>
      </trkpt>
      <trkpt lat="46.69609" lon="0.42485">
        <ele>66.4</ele>
        <time>2020-07-03T18:02:14Z</time>
      </trkpt>
      <trkpt lat="46.69604" lon="0.42478">
        <ele>66.5</ele>
        <time>2020-07-03T18:02:15Z</time>
      </trkpt>
      <trkpt lat="46.696" lon="0.42471">
        <ele>66.6</ele>
        <time>2020-07-03T18:02:16Z</time>
      </trkpt>
      <trkpt lat="46.69595" lon="0.42463">
        <ele>66.8</ele>
        <time>2020-07-03T18:02:17Z</time>
      </trkpt>
      <trkpt lat="46.69591" lon="0.42457">
        <ele>66.9</ele>
        <time>2020-07-03T18:02:18Z</time>
      </trkpt>
      <trkpt lat="46.69587" lon="0.42452">
        <ele>67</ele>
        <time>2020-07-03T18:02:19Z</time>
      </trkpt>
      <trkpt lat="46.69583" lon="0.42446">
        <ele>67.1</ele>
        <time>2020-07-03T18:02:20Z</time>
      </trkpt>
      <trkpt lat="46.69578" lon="0.42439">
        <ele>67.3</ele>
        <time>2020-07-03T18:02:21Z</time>
      </trkpt>
      <trkpt lat="46.69574" lon="0.42433">
        <ele>67.4</ele>
        <time>2020-07-03T18:02:22Z</time>
      </trkpt>
      <trkpt lat="46.6957" lon="0.42427">
        <ele>67.5</ele>
        <time>2020-07-03T18:02:23Z</time>
      </trkpt>
      <trkpt lat="46.69566" lon="0.42422">
        <ele>67.6</ele>
        <time>2020-07-03T18:02:24Z</time>
      </trkpt>
      <trkpt lat="46.69562" lon="0.42416">
        <ele>67.6</ele>
        <time>2020-07-03T18:02:25Z</time>
      </trkpt>
      <trkpt lat="46.69558" lon="0.42411">
        <ele>67.7</ele>
        <time>2020-07-03T18:02:26Z</time>
      </trkpt>
      <trkpt lat="46.69554" lon="0.42405">
        <ele>67.7</ele>
        <time>2020-07-03T18:02:27Z</time>
      </trkpt>
      <trkpt lat="46.6955" lon="0.42399">
        <ele>67.8</ele>
        <time>2020-07-03T18:02:28Z</time>
      </trkpt>
      <trkpt lat="46.69546" lon="0.42393">
        <ele>67.8</ele>
        <time>2020-07-03T18:02:29Z</time>
      </trkpt>
      <trkpt lat="46.69541" lon="0.42387">
        <ele>67.9</ele>
        <time>2020-07-03T18:02:30Z</time>
      </trkpt>
      <trkpt lat="46.69537" lon="0.42381">
        <ele>68</ele>
        <time>2020-07-03T18:02:31Z</time>
      </trkpt>
      <trkpt lat="46.69533" lon="0.42375">
        <ele>68</ele>
        <time>2020-07-03T18:02:32Z</time>
      </trkpt>
      <trkpt lat="46.6953" lon="0.42369">
        <ele>68.1</ele>
        <time>2020-07-03T18:02:33Z</time>
      </trkpt>
      <trkpt lat="46.69525" lon="0.42364">
        <ele>68.1</ele>
        <time>2020-07-03T18:02:34Z</time>
      </trkpt>
      <trkpt lat="46.69522" lon="0.42359">
        <ele>68.2</ele>
        <time>2020-07-03T18:02:35Z</time>
      </trkpt>
      <trkpt lat="46.69518" lon="0.42354">
        <ele>68.2</ele>
        <time>2020-07-03T18:02:36Z</time>
      </trkpt>
      <trkpt lat="46.69514" lon="0.42348">
        <ele>68.3</ele>
        <time>2020-07-03T18:02:37Z</time>
      </trkpt>
      <trkpt lat="46.69511" lon="0.42342">
        <ele>68.4</ele>
        <time>2020-07-03T18:02:38Z</time>
      </trkpt>
      <trkpt lat="46.69507" lon="0.42335">
        <ele>68.4</ele>
        <time>2020-07-03T18:02:39Z</time>
      </trkpt>
      <trkpt lat="46.69504" lon="0.42328">
        <ele>68.5</ele>
        <time>2020-07-03T18:02:40Z</time>
      </trkpt>
      <trkpt lat="46.695" lon="0.42323">
        <ele>68.6</ele>
        <time>2020-07-03T18:02:41Z</time>
      </trkpt>
      <trkpt lat="46.69497" lon="0.42318">
        <ele>68.6</ele>
        <time>2020-07-03T18:02:42Z</time>
      </trkpt>
      <trkpt lat="46.69493" lon="0.42313">
        <ele>68.7</ele>
        <time>2020-07-03T18:02:43Z</time>
      </trkpt>
      <trkpt lat="46.69491" lon="0.42308">
        <ele>68.7</ele>
        <time>2020-07-03T18:02:44Z</time>
      </trkpt>
      <trkpt lat="46.69487" lon="0.42302">
        <ele>68.8</ele>
        <time>2020-07-03T18:02:45Z</time>
      </trkpt>
      <trkpt lat="46.69484" lon="0.42296">
        <ele>68.9</ele>
        <time>2020-07-03T18:02:46Z</time>
      </trkpt>
      <trkpt lat="46.6948" lon="0.42289">
        <ele>68.9</ele>
        <time>2020-07-03T18:02:47Z</time>
      </trkpt>
      <trkpt lat="46.69476" lon="0.42282">
        <ele>69</ele>
        <time>2020-07-03T18:02:48Z</time>
      </trkpt>
      <trkpt lat="46.69472" lon="0.42275">
        <ele>69.1</ele>
        <time>2020-07-03T18:02:49Z</time>
      </trkpt>
      <trkpt lat="46.69467" lon="0.42268">
        <ele>69.2</ele>
        <time>2020-07-03T18:02:50Z</time>
      </trkpt>
      <trkpt lat="46.69463" lon="0.42261">
        <ele>69.3</ele>
        <time>2020-07-03T18:02:51Z</time>
      </trkpt>
      <trkpt lat="46.69458" lon="0.42255">
        <ele>69.4</ele>
        <time>2020-07-03T18:02:52Z</time>
      </trkpt>
      <trkpt lat="46.69453" lon="0.42247">
        <ele>69.5</ele>
        <time>2020-07-03T18:02:53Z</time>
      </trkpt>
      <trkpt lat="46.69448" lon="0.4224">
        <ele>69.6</ele>
        <time>2020-07-03T18:02:54Z</time>
      </trkpt>
      <trkpt lat="46.69444" lon="0.42233">
        <ele>69.7</ele>
        <time>2020-07-03T18:02:55Z</time>
      </trkpt>
      <trkpt lat="46.6944" lon="0.42227">
        <ele>69.7</ele>
        <time>2020-07-03T18:02:56Z</time>
      </trkpt>
      <trkpt lat="46.69435" lon="0.4222">
        <ele>69.7</ele>
        <time>2020-07-03T18:02:57Z</time>
      </trkpt>
      <trkpt lat="46.6943" lon="0.42214">
        <ele>69.8</ele>
        <time>2020-07-03T18:02:58Z</time>
      </trkpt>
      <trkpt lat="46.69426" lon="0.42207">
        <ele>69.8</ele>
        <time>2020-07-03T18:02:59Z</time>
      </trkpt>
      <trkpt lat="46.69422" lon="0.422">
        <ele>69.8</ele>
        <time>2020-07-03T18:03:00Z</time>
      </trkpt>
      <trkpt lat="46.69418" lon="0.42193">
        <ele>69.8</ele>
        <time>2020-07-03T18:03:01Z</time>
      </trkpt>
      <trkpt lat="46.69414" lon="0.42187">
        <ele>69.8</ele>
        <time>2020-07-03T18:03:02Z</time>
      </trkpt>
      <trkpt lat="46.6941" lon="0.42181">
        <ele>69.8</ele>
        <time>2020-07-03T18:03:03Z</time>
      </trkpt>
      <trkpt lat="46.69406" lon="0.42174">
        <ele>69.8</ele>
        <time>2020-07-03T18:03:04Z</time>
      </trkpt>
      <trkpt lat="46.69402" lon="0.42168">
        <ele>69.8</ele>
        <time>2020-07-03T18:03:05Z</time>
      </trkpt>
      <trkpt lat="46.69398" lon="0.42161">
        <ele>69.8</ele>
        <time>2020-07-03T18:03:06Z</time>
      </trkpt>
      <trkpt lat="46.69394" lon="0.42154">
        <ele>69.7</ele>
        <time>2020-07-03T18:03:07Z</time>
      </trkpt>
      <trkpt lat="46.6939" lon="0.42148">
        <ele>69.7</ele>
        <time>2020-07-03T18:03:08Z</time>
      </trkpt>
      <trkpt lat="46.69386" lon="0.42142">
        <ele>69.7</ele>
        <time>2020-07-03T18:03:09Z</time>
      </trkpt>
      <trkpt lat="46.69381" lon="0.42134">
        <ele>69.6</ele>
        <time>2020-07-03T18:03:10Z</time>
      </trkpt>
      <trkpt lat="46.69377" lon="0.42125">
        <ele>69.6</ele>
        <time>2020-07-03T18:03:11Z</time>
      </trkpt>
      <trkpt lat="46.69373" lon="0.42118">
        <ele>69.5</ele>
        <time>2020-07-03T18:03:12Z</time>
      </trkpt>
      <trkpt lat="46.69369" lon="0.42111">
        <ele>69.5</ele>
        <time>2020-07-03T18:03:13Z</time>
      </trkpt>
      <trkpt lat="46.69364" lon="0.42103">
        <ele>69.4</ele>
        <time>2020-07-03T18:03:14Z</time>
      </trkpt>
      <trkpt lat="46.6936" lon="0.42097">
        <ele>69.4</ele>
        <time>2020-07-03T18:03:15Z</time>
      </trkpt>
      <trkpt lat="46.69356" lon="0.42091">
        <ele>69.4</ele>
        <time>2020-07-03T18:03:16Z</time>
      </trkpt>
      <trkpt lat="46.69351" lon="0.42084">
        <ele>69.3</ele>
        <time>2020-07-03T18:03:17Z</time>
      </trkpt>
      <trkpt lat="46.69347" lon="0.42078">
        <ele>69.3</ele>
        <time>2020-07-03T18:03:18Z</time>
      </trkpt>
      <trkpt lat="46.69343" lon="0.42071">
        <ele>69.2</ele>
        <time>2020-07-03T18:03:19Z</time>
      </trkpt>
      <trkpt lat="46.69339" lon="0.42064">
        <ele>69.2</ele>
        <time>2020-07-03T18:03:20Z</time>
      </trkpt>
      <trkpt lat="46.69335" lon="0.42057">
        <ele>69.1</ele>
        <time>2020-07-03T18:03:21Z</time>
      </trkpt>
      <trkpt lat="46.6933" lon="0.4205">
        <ele>69</ele>
        <time>2020-07-03T18:03:22Z</time>
      </trkpt>
      <trkpt lat="46.69326" lon="0.42044">
        <ele>68.9</ele>
        <time>2020-07-03T18:03:23Z</time>
      </trkpt>
      <trkpt lat="46.69321" lon="0.42037">
        <ele>68.8</ele>
        <time>2020-07-03T18:03:24Z</time>
      </trkpt>
      <trkpt lat="46.69316" lon="0.42031">
        <ele>68.8</ele>
        <time>2020-07-03T18:03:25Z</time>
      </trkpt>
      <trkpt lat="46.69311" lon="0.42026">
        <ele>68.7</ele>
        <time>2020-07-03T18:03:26Z</time>
      </trkpt>
      <trkpt lat="46.69307" lon="0.42022">
        <ele>68.7</ele>
        <time>2020-07-03T18:03:27Z</time>
      </trkpt>
      <trkpt lat="46.69302" lon="0.42018">
        <ele>68.6</ele>
        <time>2020-07-03T18:03:28Z</time>
      </trkpt>
      <trkpt lat="46.69297" lon="0.42013">
        <ele>68.6</ele>
        <time>2020-07-03T18:03:29Z</time>
      </trkpt>
      <trkpt lat="46.69291" lon="0.42008">
        <ele>68.5</ele>
        <time>2020-07-03T18:03:30Z</time>
      </trkpt>
      <trkpt lat="46.69286" lon="0.42003">
        <ele>68.4</ele>
        <time>2020-07-03T18:03:31Z</time>
      </trkpt>
      <trkpt lat="46.69281" lon="0.41998">
        <ele>68.3</ele>
        <time>2020-07-03T18:03:32Z</time>
      </trkpt>
      <trkpt lat="46.69275" lon="0.41993">
        <ele>68.2</ele>
        <time>2020-07-03T18:03:33Z</time>
      </trkpt>
      <trkpt lat="46.69269" lon="0.41988">
        <ele>68.2</ele>
        <time>2020-07-03T18:03:34Z</time>
      </trkpt>
      <trkpt lat="46.69264" lon="0.41983">
        <ele>68.2</ele>
        <time>2020-07-03T18:03:35Z</time>
      </trkpt>
      <trkpt lat="46.69259" lon="0.41979">
        <ele>68.2</ele>
        <time>2020-07-03T18:03:36Z</time>
      </trkpt>
      <trkpt lat="46.69253" lon="0.41974">
        <ele>68.2</ele>
        <time>2020-07-03T18:03:37Z</time>
      </trkpt>
      <trkpt lat="46.69247" lon="0.41968">
        <ele>68.2</ele>
        <time>2020-07-03T18:03:38Z</time>
      </trkpt>
      <trkpt lat="46.69241" lon="0.41963">
        <ele>68.3</ele>
        <time>2020-07-03T18:03:39Z</time>
      </trkpt>
      <trkpt lat="46.69235" lon="0.41958">
        <ele>68.5</ele>
        <time>2020-07-03T18:03:40Z</time>
      </trkpt>
      <trkpt lat="46.6923" lon="0.41952">
        <ele>68.6</ele>
        <time>2020-07-03T18:03:41Z</time>
      </trkpt>
      <trkpt lat="46.69224" lon="0.41947">
        <ele>68.8</ele>
        <time>2020-07-03T18:03:42Z</time>
      </trkpt>
      <trkpt lat="46.69218" lon="0.41943">
        <ele>68.9</ele>
        <time>2020-07-03T18:03:43Z</time>
      </trkpt>
      <trkpt lat="46.69213" lon="0.41938">
        <ele>69.1</ele>
        <time>2020-07-03T18:03:44Z</time>
      </trkpt>
      <trkpt lat="46.69207" lon="0.41934">
        <ele>69.3</ele>
        <time>2020-07-03T18:03:45Z</time>
      </trkpt>
      <trkpt lat="46.69202" lon="0.4193">
        <ele>69.5</ele>
        <time>2020-07-03T18:03:46Z</time>
      </trkpt>
      <trkpt lat="46.69197" lon="0.41927">
        <ele>69.6</ele>
        <time>2020-07-03T18:03:47Z</time>
      </trkpt>
      <trkpt lat="46.69192" lon="0.41922">
        <ele>69.9</ele>
        <time>2020-07-03T18:03:48Z</time>
      </trkpt>
      <trkpt lat="46.69186" lon="0.41918">
        <ele>70.1</ele>
        <time>2020-07-03T18:03:49Z</time>
      </trkpt>
      <trkpt lat="46.69181" lon="0.41913">
        <ele>70.4</ele>
        <time>2020-07-03T18:03:50Z</time>
      </trkpt>
      <trkpt lat="46.69175" lon="0.41908">
        <ele>70.7</ele>
        <time>2020-07-03T18:03:51Z</time>
      </trkpt>
      <trkpt lat="46.6917" lon="0.41905">
        <ele>71</ele>
        <time>2020-07-03T18:03:52Z</time>
      </trkpt>
      <trkpt lat="46.69163" lon="0.419">
        <ele>71.4</ele>
        <time>2020-07-03T18:03:53Z</time>
      </trkpt>
      <trkpt lat="46.69157" lon="0.41894">
        <ele>71.8</ele>
        <time>2020-07-03T18:03:54Z</time>
      </trkpt>
      <trkpt lat="46.69151" lon="0.41889">
        <ele>72.1</ele>
        <time>2020-07-03T18:03:55Z</time>
      </trkpt>
      <trkpt lat="46.69146" lon="0.41885">
        <ele>72.4</ele>
        <time>2020-07-03T18:03:56Z</time>
      </trkpt>
      <trkpt lat="46.69141" lon="0.4188">
        <ele>72.7</ele>
        <time>2020-07-03T18:03:57Z</time>
      </trkpt>
      <trkpt lat="46.69135" lon="0.41875">
        <ele>73</ele>
        <time>2020-07-03T18:03:58Z</time>
      </trkpt>
      <trkpt lat="46.69131" lon="0.41871">
        <ele>73.3</ele>
        <time>2020-07-03T18:03:59Z</time>
      </trkpt>
      <trkpt lat="46.69126" lon="0.41867">
        <ele>73.5</ele>
        <time>2020-07-03T18:04:00Z</time>
      </trkpt>
      <trkpt lat="46.69121" lon="0.41863">
        <ele>73.8</ele>
        <time>2020-07-03T18:04:01Z</time>
      </trkpt>
      <trkpt lat="46.69118" lon="0.4186">
        <ele>74</ele>
        <time>2020-07-03T18:04:02Z</time>
      </trkpt>
      <trkpt lat="46.69114" lon="0.41856">
        <ele>74.1</ele>
        <time>2020-07-03T18:04:03Z</time>
      </trkpt>
      <trkpt lat="46.69111" lon="0.41851">
        <ele>74.3</ele>
        <time>2020-07-03T18:04:04Z</time>
      </trkpt>
      <trkpt lat="46.69107" lon="0.41847">
        <ele>74.5</ele>
        <time>2020-07-03T18:04:05Z</time>
      </trkpt>
      <trkpt lat="46.69103" lon="0.41844">
        <ele>74.7</ele>
        <time>2020-07-03T18:04:06Z</time>
      </trkpt>
      <trkpt lat="46.691" lon="0.41841">
        <ele>74.9</ele>
        <time>2020-07-03T18:04:07Z</time>
      </trkpt>
      <trkpt lat="46.69096" lon="0.41837">
        <ele>75.1</ele>
        <time>2020-07-03T18:04:08Z</time>
      </trkpt>
      <trkpt lat="46.69092" lon="0.41834">
        <ele>75.2</ele>
        <time>2020-07-03T18:04:09Z</time>
      </trkpt>
      <trkpt lat="46.69088" lon="0.41831">
        <ele>75.4</ele>
        <time>2020-07-03T18:04:10Z</time>
      </trkpt>
      <trkpt lat="46.69085" lon="0.41829">
        <ele>75.6</ele>
        <time>2020-07-03T18:04:11Z</time>
      </trkpt>
      <trkpt lat="46.69081" lon="0.41827">
        <ele>75.7</ele>
        <time>2020-07-03T18:04:12Z</time>
      </trkpt>
      <trkpt lat="46.69078" lon="0.41824">
        <ele>75.9</ele>
        <time>2020-07-03T18:04:13Z</time>
      </trkpt>
      <trkpt lat="46.69075" lon="0.41821">
        <ele>76.1</ele>
        <time>2020-07-03T18:04:14Z</time>
      </trkpt>
      <trkpt lat="46.69071" lon="0.41818">
        <ele>76.2</ele>
        <time>2020-07-03T18:04:15Z</time>
      </trkpt>
      <trkpt lat="46.69068" lon="0.41815">
        <ele>76.4</ele>
        <time>2020-07-03T18:04:16Z</time>
      </trkpt>
      <trkpt lat="46.69065" lon="0.41812">
        <ele>76.5</ele>
        <time>2020-07-03T18:04:17Z</time>
      </trkpt>
      <trkpt lat="46.69062" lon="0.41809">
        <ele>76.6</ele>
        <time>2020-07-03T18:04:18Z</time>
      </trkpt>
      <trkpt lat="46.69059" lon="0.41805">
        <ele>76.8</ele>
        <time>2020-07-03T18:04:19Z</time>
      </trkpt>
      <trkpt lat="46.69056" lon="0.418">
        <ele>76.9</ele>
        <time>2020-07-03T18:04:20Z</time>
      </trkpt>
      <trkpt lat="46.69053" lon="0.41796">
        <ele>77</ele>
        <time>2020-07-03T18:04:21Z</time>
      </trkpt>
      <trkpt lat="46.6905" lon="0.41792">
        <ele>77.1</ele>
        <time>2020-07-03T18:04:22Z</time>
      </trkpt>
      <trkpt lat="46.69047" lon="0.41789">
        <ele>77.2</ele>
        <time>2020-07-03T18:04:23Z</time>
      </trkpt>
      <trkpt lat="46.69044" lon="0.41784">
        <ele>77.3</ele>
        <time>2020-07-03T18:04:24Z</time>
      </trkpt>
      <trkpt lat="46.69041" lon="0.4178">
        <ele>77.4</ele>
        <time>2020-07-03T18:04:25Z</time>
      </trkpt>
      <trkpt lat="46.69038" lon="0.41776">
        <ele>77.5</ele>
        <time>2020-07-03T18:04:26Z</time>
      </trkpt>
      <trkpt lat="46.69035" lon="0.41772">
        <ele>77.6</ele>
        <time>2020-07-03T18:04:27Z</time>
      </trkpt>
      <trkpt lat="46.69032" lon="0.41767">
        <ele>77.7</ele>
        <time>2020-07-03T18:04:28Z</time>
      </trkpt>
      <trkpt lat="46.69029" lon="0.41763">
        <ele>77.8</ele>
        <time>2020-07-03T18:04:29Z</time>
      </trkpt>
      <trkpt lat="46.69026" lon="0.41757">
        <ele>77.9</ele>
        <time>2020-07-03T18:04:30Z</time>
      </trkpt>
      <trkpt lat="46.69022" lon="0.41752">
        <ele>78</ele>
        <time>2020-07-03T18:04:31Z</time>
      </trkpt>
      <trkpt lat="46.69019" lon="0.41748">
        <ele>78.1</ele>
        <time>2020-07-03T18:04:32Z</time>
      </trkpt>
      <trkpt lat="46.69016" lon="0.41744">
        <ele>78.2</ele>
        <time>2020-07-03T18:04:33Z</time>
      </trkpt>
      <trkpt lat="46.69013" lon="0.4174">
        <ele>78.3</ele>
        <time>2020-07-03T18:04:34Z</time>
      </trkpt>
      <trkpt lat="46.6901" lon="0.41736">
        <ele>78.4</ele>
        <time>2020-07-03T18:04:35Z</time>
      </trkpt>
      <trkpt lat="46.69008" lon="0.41732">
        <ele>78.4</ele>
        <time>2020-07-03T18:04:36Z</time>
      </trkpt>
      <trkpt lat="46.69005" lon="0.41729">
        <ele>78.5</ele>
        <time>2020-07-03T18:04:37Z</time>
      </trkpt>
      <trkpt lat="46.69002" lon="0.41725">
        <ele>78.5</ele>
        <time>2020-07-03T18:04:38Z</time>
      </trkpt>
      <trkpt lat="46.68999" lon="0.41721">
        <ele>78.6</ele>
        <time>2020-07-03T18:04:39Z</time>
      </trkpt>
      <trkpt lat="46.68996" lon="0.41716">
        <ele>78.6</ele>
        <time>2020-07-03T18:04:40Z</time>
      </trkpt>
      <trkpt lat="46.68993" lon="0.41712">
        <ele>78.7</ele>
        <time>2020-07-03T18:04:41Z</time>
      </trkpt>
      <trkpt lat="46.6899" lon="0.41708">
        <ele>78.7</ele>
        <time>2020-07-03T18:04:42Z</time>
      </trkpt>
      <trkpt lat="46.68987" lon="0.41704">
        <ele>78.7</ele>
        <time>2020-07-03T18:04:43Z</time>
      </trkpt>
      <trkpt lat="46.68985" lon="0.41701">
        <ele>78.7</ele>
        <time>2020-07-03T18:04:44Z</time>
      </trkpt>
      <trkpt lat="46.68982" lon="0.41697">
        <ele>78.8</ele>
        <time>2020-07-03T18:04:45Z</time>
      </trkpt>
      <trkpt lat="46.68979" lon="0.41694">
        <ele>78.8</ele>
        <time>2020-07-03T18:04:46Z</time>
      </trkpt>
      <trkpt lat="46.68977" lon="0.41692">
        <ele>78.8</ele>
        <time>2020-07-03T18:04:47Z</time>
      </trkpt>
      <trkpt lat="46.68974" lon="0.41689">
        <ele>78.9</ele>
        <time>2020-07-03T18:04:48Z</time>
      </trkpt>
      <trkpt lat="46.68971" lon="0.41687">
        <ele>78.9</ele>
        <time>2020-07-03T18:04:49Z</time>
      </trkpt>
      <trkpt lat="46.68971" lon="0.41686">
        <ele>78.9</ele>
        <time>2020-07-03T18:04:50Z</time>
      </trkpt>
      <trkpt lat="46.68968" lon="0.41683">
        <ele>78.9</ele>
        <time>2020-07-03T18:04:51Z</time>
      </trkpt>
      <trkpt lat="46.68967" lon="0.41682">
        <ele>78.9</ele>
        <time>2020-07-03T18:04:52Z</time>
      </trkpt>
      <trkpt lat="46.68964" lon="0.41679">
        <ele>79</ele>
        <time>2020-07-03T18:04:53Z</time>
      </trkpt>
      <trkpt lat="46.68963" lon="0.41678">
        <ele>79</ele>
        <time>2020-07-03T18:04:54Z</time>
      </trkpt>
      <trkpt lat="46.68961" lon="0.41679">
        <ele>79</ele>
        <time>2020-07-03T18:04:55Z</time>
      </trkpt>
      <trkpt lat="46.6896" lon="0.41679">
        <ele>79</ele>
        <time>2020-07-03T18:04:56Z</time>
      </trkpt>
      <trkpt lat="46.68959" lon="0.41678">
        <ele>79</ele>
        <time>2020-07-03T18:04:57Z</time>
      </trkpt>
      <trkpt lat="46.68957" lon="0.41676">
        <ele>79</ele>
        <time>2020-07-03T18:04:58Z</time>
      </trkpt>
      <trkpt lat="46.68955" lon="0.41673">
        <ele>79</ele>
        <time>2020-07-03T18:04:59Z</time>
      </trkpt>
      <trkpt lat="46.68953" lon="0.41669">
        <ele>79</ele>
        <time>2020-07-03T18:05:00Z</time>
      </trkpt>
      <trkpt lat="46.68952" lon="0.41668">
        <ele>79</ele>
        <time>2020-07-03T18:05:01Z</time>
      </trkpt>
      <trkpt lat="46.68949" lon="0.41666">
        <ele>79.1</ele>
        <time>2020-07-03T18:05:02Z</time>
      </trkpt>
      <trkpt lat="46.68946" lon="0.41663">
        <ele>79.1</ele>
        <time>2020-07-03T18:05:03Z</time>
      </trkpt>
      <trkpt lat="46.68945" lon="0.41662">
        <ele>79.1</ele>
        <time>2020-07-03T18:05:04Z</time>
      </trkpt>
      <trkpt lat="46.68944" lon="0.4166">
        <ele>79.1</ele>
        <time>2020-07-03T18:05:05Z</time>
      </trkpt>
      <trkpt lat="46.68943" lon="0.41658">
        <ele>79.1</ele>
        <time>2020-07-03T18:05:06Z</time>
      </trkpt>
      <trkpt lat="46.68941" lon="0.41657">
        <ele>79.1</ele>
        <time>2020-07-03T18:05:07Z</time>
      </trkpt>
      <trkpt lat="46.6894" lon="0.41656">
        <ele>79.1</ele>
        <time>2020-07-03T18:05:08Z</time>
      </trkpt>
      <trkpt lat="46.68938" lon="0.41655">
        <ele>79.2</ele>
        <time>2020-07-03T18:05:09Z</time>
      </trkpt>
      <trkpt lat="46.68936" lon="0.41654">
        <ele>79.2</ele>
        <time>2020-07-03T18:05:10Z</time>
      </trkpt>
      <trkpt lat="46.68935" lon="0.41653">
        <ele>79.2</ele>
        <time>2020-07-03T18:05:11Z</time>
      </trkpt>
      <trkpt lat="46.68934" lon="0.41652">
        <ele>79.2</ele>
        <time>2020-07-03T18:05:12Z</time>
      </trkpt>
      <trkpt lat="46.68932" lon="0.41651">
        <ele>79.2</ele>
        <time>2020-07-03T18:05:13Z</time>
      </trkpt>
      <trkpt lat="46.68931" lon="0.4165">
        <ele>79.2</ele>
        <time>2020-07-03T18:05:14Z</time>
      </trkpt>
      <trkpt lat="46.68929" lon="0.4165">
        <ele>79.2</ele>
        <time>2020-07-03T18:05:15Z</time>
      </trkpt>
      <trkpt lat="46.68927" lon="0.41648">
        <ele>79.2</ele>
        <time>2020-07-03T18:05:16Z</time>
      </trkpt>
      <trkpt lat="46.68925" lon="0.41647">
        <ele>79.2</ele>
        <time>2020-07-03T18:05:17Z</time>
      </trkpt>
      <trkpt lat="46.68922" lon="0.41645">
        <ele>79.2</ele>
        <time>2020-07-03T18:05:18Z</time>
      </trkpt>
      <trkpt lat="46.68921" lon="0.41644">
        <ele>79.2</ele>
        <time>2020-07-03T18:05:19Z</time>
      </trkpt>
      <trkpt lat="46.68919" lon="0.41643">
        <ele>79.3</ele>
        <time>2020-07-03T18:05:20Z</time>
      </trkpt>
      <trkpt lat="46.68916" lon="0.41642">
        <ele>79.3</ele>
        <time>2020-07-03T18:05:21Z</time>
      </trkpt>
      <trkpt lat="46.68913" lon="0.41641">
        <ele>79.3</ele>
        <time>2020-07-03T18:05:22Z</time>
      </trkpt>
      <trkpt lat="46.68909" lon="0.41638">
        <ele>79.3</ele>
        <time>2020-07-03T18:05:23Z</time>
      </trkpt>
      <trkpt lat="46.68906" lon="0.41636">
        <ele>79.3</ele>
        <time>2020-07-03T18:05:24Z</time>
      </trkpt>
      <trkpt lat="46.68903" lon="0.41634">
        <ele>79.3</ele>
        <time>2020-07-03T18:05:25Z</time>
      </trkpt>
      <trkpt lat="46.689" lon="0.41632">
        <ele>79.3</ele>
        <time>2020-07-03T18:05:26Z</time>
      </trkpt>
      <trkpt lat="46.68896" lon="0.4163">
        <ele>79.3</ele>
        <time>2020-07-03T18:05:27Z</time>
      </trkpt>
      <trkpt lat="46.68893" lon="0.41628">
        <ele>79.3</ele>
        <time>2020-07-03T18:05:28Z</time>
      </trkpt>
      <trkpt lat="46.6889" lon="0.41625">
        <ele>79.3</ele>
        <time>2020-07-03T18:05:29Z</time>
      </trkpt>
      <trkpt lat="46.68886" lon="0.41623">
        <ele>79.3</ele>
        <time>2020-07-03T18:05:30Z</time>
      </trkpt>
      <trkpt lat="46.68882" lon="0.41622">
        <ele>79.3</ele>
        <time>2020-07-03T18:05:31Z</time>
      </trkpt>
      <trkpt lat="46.68878" lon="0.4162">
        <ele>79.3</ele>
        <time>2020-07-03T18:05:32Z</time>
      </trkpt>
      <trkpt lat="46.68874" lon="0.41619">
        <ele>79.2</ele>
        <time>2020-07-03T18:05:33Z</time>
      </trkpt>
      <trkpt lat="46.6887" lon="0.41615">
        <ele>79.2</ele>
        <time>2020-07-03T18:05:34Z</time>
      </trkpt>
      <trkpt lat="46.68865" lon="0.41613">
        <ele>79.2</ele>
        <time>2020-07-03T18:05:35Z</time>
      </trkpt>
      <trkpt lat="46.68859" lon="0.41611">
        <ele>79.2</ele>
        <time>2020-07-03T18:05:36Z</time>
      </trkpt>
      <trkpt lat="46.68854" lon="0.41609">
        <ele>79.2</ele>
        <time>2020-07-03T18:05:37Z</time>
      </trkpt>
      <trkpt lat="46.68849" lon="0.41608">
        <ele>79.2</ele>
        <time>2020-07-03T18:05:38Z</time>
      </trkpt>
      <trkpt lat="46.68843" lon="0.41607">
        <ele>79.1</ele>
        <time>2020-07-03T18:05:39Z</time>
      </trkpt>
      <trkpt lat="46.68838" lon="0.41605">
        <ele>79.1</ele>
        <time>2020-07-03T18:05:40Z</time>
      </trkpt>
      <trkpt lat="46.68833" lon="0.41604">
        <ele>79.1</ele>
        <time>2020-07-03T18:05:41Z</time>
      </trkpt>
      <trkpt lat="46.68829" lon="0.41602">
        <ele>79.1</ele>
        <time>2020-07-03T18:05:42Z</time>
      </trkpt>
      <trkpt lat="46.68824" lon="0.41601">
        <ele>79.1</ele>
        <time>2020-07-03T18:05:43Z</time>
      </trkpt>
      <trkpt lat="46.68819" lon="0.416">
        <ele>79</ele>
        <time>2020-07-03T18:05:44Z</time>
      </trkpt>
      <trkpt lat="46.68816" lon="0.41598">
        <ele>79</ele>
        <time>2020-07-03T18:05:45Z</time>
      </trkpt>
      <trkpt lat="46.68811" lon="0.41597">
        <ele>79</ele>
        <time>2020-07-03T18:05:46Z</time>
      </trkpt>
      <trkpt lat="46.68808" lon="0.41595">
        <ele>78.9</ele>
        <time>2020-07-03T18:05:47Z</time>
      </trkpt>
      <trkpt lat="46.68804" lon="0.41593">
        <ele>78.9</ele>
        <time>2020-07-03T18:05:48Z</time>
      </trkpt>
      <trkpt lat="46.68799" lon="0.41592">
        <ele>78.9</ele>
        <time>2020-07-03T18:05:49Z</time>
      </trkpt>
      <trkpt lat="46.68795" lon="0.41591">
        <ele>78.8</ele>
        <time>2020-07-03T18:05:50Z</time>
      </trkpt>
      <trkpt lat="46.68791" lon="0.4159">
        <ele>78.8</ele>
        <time>2020-07-03T18:05:51Z</time>
      </trkpt>
      <trkpt lat="46.68787" lon="0.41589">
        <ele>78.8</ele>
        <time>2020-07-03T18:05:52Z</time>
      </trkpt>
      <trkpt lat="46.68783" lon="0.41588">
        <ele>78.7</ele>
        <time>2020-07-03T18:05:53Z</time>
      </trkpt>
      <trkpt lat="46.68779" lon="0.41587">
        <ele>78.7</ele>
        <time>2020-07-03T18:05:54Z</time>
      </trkpt>
      <trkpt lat="46.68775" lon="0.41585">
        <ele>78.6</ele>
        <time>2020-07-03T18:05:55Z</time>
      </trkpt>
      <trkpt lat="46.68771" lon="0.41583">
        <ele>78.6</ele>
        <time>2020-07-03T18:05:56Z</time>
      </trkpt>
      <trkpt lat="46.68767" lon="0.4158">
        <ele>78.6</ele>
        <time>2020-07-03T18:05:57Z</time>
      </trkpt>
      <trkpt lat="46.68763" lon="0.41578">
        <ele>78.5</ele>
        <time>2020-07-03T18:05:58Z</time>
      </trkpt>
      <trkpt lat="46.68759" lon="0.41576">
        <ele>78.5</ele>
        <time>2020-07-03T18:05:59Z</time>
      </trkpt>
      <trkpt lat="46.68755" lon="0.41575">
        <ele>78.4</ele>
        <time>2020-07-03T18:06:00Z</time>
      </trkpt>
      <trkpt lat="46.6875" lon="0.41573">
        <ele>78.4</ele>
        <time>2020-07-03T18:06:01Z</time>
      </trkpt>
      <trkpt lat="46.68745" lon="0.41571">
        <ele>78.4</ele>
        <time>2020-07-03T18:06:02Z</time>
      </trkpt>
      <trkpt lat="46.6874" lon="0.41569">
        <ele>78.3</ele>
        <time>2020-07-03T18:06:03Z</time>
      </trkpt>
      <trkpt lat="46.68734" lon="0.41568">
        <ele>78.3</ele>
        <time>2020-07-03T18:06:04Z</time>
      </trkpt>
      <trkpt lat="46.68729" lon="0.41566">
        <ele>78.3</ele>
        <time>2020-07-03T18:06:05Z</time>
      </trkpt>
      <trkpt lat="46.68724" lon="0.41565">
        <ele>78.3</ele>
        <time>2020-07-03T18:06:06Z</time>
      </trkpt>
      <trkpt lat="46.68718" lon="0.41564">
        <ele>78.3</ele>
        <time>2020-07-03T18:06:07Z</time>
      </trkpt>
      <trkpt lat="46.68712" lon="0.41563">
        <ele>78.3</ele>
        <time>2020-07-03T18:06:08Z</time>
      </trkpt>
      <trkpt lat="46.68706" lon="0.41562">
        <ele>78.2</ele>
        <time>2020-07-03T18:06:09Z</time>
      </trkpt>
      <trkpt lat="46.687" lon="0.41561">
        <ele>78.2</ele>
        <time>2020-07-03T18:06:10Z</time>
      </trkpt>
      <trkpt lat="46.68694" lon="0.41559">
        <ele>78.2</ele>
        <time>2020-07-03T18:06:11Z</time>
      </trkpt>
      <trkpt lat="46.68688" lon="0.41558">
        <ele>78.1</ele>
        <time>2020-07-03T18:06:12Z</time>
      </trkpt>
      <trkpt lat="46.68681" lon="0.41556">
        <ele>78</ele>
        <time>2020-07-03T18:06:13Z</time>
      </trkpt>
      <trkpt lat="46.68674" lon="0.41554">
        <ele>77.9</ele>
        <time>2020-07-03T18:06:14Z</time>
      </trkpt>
      <trkpt lat="46.68668" lon="0.41552">
        <ele>77.9</ele>
        <time>2020-07-03T18:06:15Z</time>
      </trkpt>
      <trkpt lat="46.6866" lon="0.41551">
        <ele>77.8</ele>
        <time>2020-07-03T18:06:16Z</time>
      </trkpt>
      <trkpt lat="46.68653" lon="0.41551">
        <ele>77.8</ele>
        <time>2020-07-03T18:06:17Z</time>
      </trkpt>
      <trkpt lat="46.68646" lon="0.4155">
        <ele>77.7</ele>
        <time>2020-07-03T18:06:18Z</time>
      </trkpt>
      <trkpt lat="46.6864" lon="0.41548">
        <ele>77.7</ele>
        <time>2020-07-03T18:06:19Z</time>
      </trkpt>
      <trkpt lat="46.68633" lon="0.41547">
        <ele>77.7</ele>
        <time>2020-07-03T18:06:20Z</time>
      </trkpt>
      <trkpt lat="46.68628" lon="0.41546">
        <ele>77.6</ele>
        <time>2020-07-03T18:06:21Z</time>
      </trkpt>
      <trkpt lat="46.68623" lon="0.41546">
        <ele>77.6</ele>
        <time>2020-07-03T18:06:22Z</time>
      </trkpt>
      <trkpt lat="46.68618" lon="0.41545">
        <ele>77.6</ele>
        <time>2020-07-03T18:06:23Z</time>
      </trkpt>
      <trkpt lat="46.68612" lon="0.41545">
        <ele>77.6</ele>
        <time>2020-07-03T18:06:24Z</time>
      </trkpt>
      <trkpt lat="46.68608" lon="0.41544">
        <ele>77.6</ele>
        <time>2020-07-03T18:06:25Z</time>
      </trkpt>
      <trkpt lat="46.68604" lon="0.41543">
        <ele>77.6</ele>
        <time>2020-07-03T18:06:26Z</time>
      </trkpt>
      <trkpt lat="46.686" lon="0.41543">
        <ele>77.6</ele>
        <time>2020-07-03T18:06:27Z</time>
      </trkpt>
      <trkpt lat="46.68596" lon="0.41542">
        <ele>77.6</ele>
        <time>2020-07-03T18:06:28Z</time>
      </trkpt>
      <trkpt lat="46.68592" lon="0.41542">
        <ele>77.6</ele>
        <time>2020-07-03T18:06:29Z</time>
      </trkpt>
      <trkpt lat="46.68589" lon="0.41542">
        <ele>77.6</ele>
        <time>2020-07-03T18:06:30Z</time>
      </trkpt>
      <trkpt lat="46.68586" lon="0.41542">
        <ele>77.6</ele>
        <time>2020-07-03T18:06:31Z</time>
      </trkpt>
      <trkpt lat="46.68583" lon="0.41542">
        <ele>77.6</ele>
        <time>2020-07-03T18:06:32Z</time>
      </trkpt>
      <trkpt lat="46.68583" lon="0.41542">
        <ele>77.6</ele>
        <time>2020-07-03T18:06:33Z</time>
      </trkpt>
      <trkpt lat="46.68583" lon="0.41542">
        <ele>77.6</ele>
        <time>2020-07-03T18:06:34Z</time>
      </trkpt>
      <trkpt lat="46.68582" lon="0.41542">
        <ele>77.6</ele>
        <time>2020-07-03T18:06:35Z</time>
      </trkpt>
      <trkpt lat="46.68582" lon="0.41542">
        <ele>77.6</ele>
        <time>2020-07-03T18:06:36Z</time>
      </trkpt>
      <trkpt lat="46.68581" lon="0.41542">
        <ele>77.6</ele>
        <time>2020-07-03T18:06:37Z</time>
      </trkpt>
      <trkpt lat="46.6858" lon="0.41542">
        <ele>77.6</ele>
        <time>2020-07-03T18:06:38Z</time>
      </trkpt>
      <trkpt lat="46.6858" lon="0.41541">
        <ele>77.6</ele>
        <time>2020-07-03T18:06:39Z</time>
      </trkpt>
      <trkpt lat="46.68579" lon="0.41542">
        <ele>77.6</ele>
        <time>2020-07-03T18:06:40Z</time>
      </trkpt>
      <trkpt lat="46.68578" lon="0.41542">
        <ele>77.6</ele>
        <time>2020-07-03T18:06:41Z</time>
      </trkpt>
      <trkpt lat="46.68577" lon="0.41542">
        <ele>77.6</ele>
        <time>2020-07-03T18:06:42Z</time>
      </trkpt>
      <trkpt lat="46.68577" lon="0.41542">
        <ele>77.6</ele>
        <time>2020-07-03T18:06:43Z</time>
      </trkpt>
      <trkpt lat="46.68576" lon="0.41542">
        <ele>77.6</ele>
        <time>2020-07-03T18:06:44Z</time>
      </trkpt>
      <trkpt lat="46.68575" lon="0.41542">
        <ele>77.6</ele>
        <time>2020-07-03T18:06:45Z</time>
      </trkpt>
      <trkpt lat="46.68575" lon="0.41542">
        <ele>77.6</ele>
        <time>2020-07-03T18:06:46Z</time>
      </trkpt>
      <trkpt lat="46.68571" lon="0.4154">
        <ele>77.6</ele>
        <time>2020-07-03T18:06:47Z</time>
      </trkpt>
      <trkpt lat="46.68567" lon="0.41539">
        <ele>77.6</ele>
        <time>2020-07-03T18:06:48Z</time>
      </trkpt>
      <trkpt lat="46.68562" lon="0.41537">
        <ele>77.6</ele>
        <time>2020-07-03T18:06:49Z</time>
      </trkpt>
      <trkpt lat="46.68558" lon="0.41536">
        <ele>77.7</ele>
        <time>2020-07-03T18:06:50Z</time>
      </trkpt>
      <trkpt lat="46.68552" lon="0.41534">
        <ele>77.7</ele>
        <time>2020-07-03T18:06:51Z</time>
      </trkpt>
      <trkpt lat="46.68547" lon="0.41533">
        <ele>77.7</ele>
        <time>2020-07-03T18:06:52Z</time>
      </trkpt>
      <trkpt lat="46.68541" lon="0.41531">
        <ele>77.8</ele>
        <time>2020-07-03T18:06:53Z</time>
      </trkpt>
      <trkpt lat="46.68535" lon="0.4153">
        <ele>77.8</ele>
        <time>2020-07-03T18:06:54Z</time>
      </trkpt>
      <trkpt lat="46.68528" lon="0.41528">
        <ele>77.9</ele>
        <time>2020-07-03T18:06:55Z</time>
      </trkpt>
      <trkpt lat="46.68522" lon="0.41527">
        <ele>77.9</ele>
        <time>2020-07-03T18:06:56Z</time>
      </trkpt>
      <trkpt lat="46.68515" lon="0.41525">
        <ele>77.9</ele>
        <time>2020-07-03T18:06:57Z</time>
      </trkpt>
      <trkpt lat="46.68507" lon="0.41522">
        <ele>78</ele>
        <time>2020-07-03T18:06:58Z</time>
      </trkpt>
      <trkpt lat="46.685" lon="0.4152">
        <ele>78</ele>
        <time>2020-07-03T18:06:59Z</time>
      </trkpt>
      <trkpt lat="46.68494" lon="0.41518">
        <ele>78.1</ele>
        <time>2020-07-03T18:07:00Z</time>
      </trkpt>
      <trkpt lat="46.68488" lon="0.41514">
        <ele>78.1</ele>
        <time>2020-07-03T18:07:01Z</time>
      </trkpt>
      <trkpt lat="46.68481" lon="0.4151">
        <ele>78.2</ele>
        <time>2020-07-03T18:07:02Z</time>
      </trkpt>
      <trkpt lat="46.68476" lon="0.41507">
        <ele>78.3</ele>
        <time>2020-07-03T18:07:03Z</time>
      </trkpt>
      <trkpt lat="46.6847" lon="0.41502">
        <ele>78.3</ele>
        <time>2020-07-03T18:07:04Z</time>
      </trkpt>
      <trkpt lat="46.68465" lon="0.41497">
        <ele>78.4</ele>
        <time>2020-07-03T18:07:05Z</time>
      </trkpt>
      <trkpt lat="46.6846" lon="0.41492">
        <ele>78.5</ele>
        <time>2020-07-03T18:07:06Z</time>
      </trkpt>
      <trkpt lat="46.68455" lon="0.41487">
        <ele>78.5</ele>
        <time>2020-07-03T18:07:07Z</time>
      </trkpt>
      <trkpt lat="46.68451" lon="0.41482">
        <ele>78.6</ele>
        <time>2020-07-03T18:07:08Z</time>
      </trkpt>
      <trkpt lat="46.68446" lon="0.41475">
        <ele>78.7</ele>
        <time>2020-07-03T18:07:09Z</time>
      </trkpt>
      <trkpt lat="46.68442" lon="0.4147">
        <ele>78.8</ele>
        <time>2020-07-03T18:07:10Z</time>
      </trkpt>
      <trkpt lat="46.68438" lon="0.41465">
        <ele>78.9</ele>
        <time>2020-07-03T18:07:11Z</time>
      </trkpt>
      <trkpt lat="46.68433" lon="0.4146">
        <ele>79</ele>
        <time>2020-07-03T18:07:12Z</time>
      </trkpt>
      <trkpt lat="46.68429" lon="0.41454">
        <ele>79</ele>
        <time>2020-07-03T18:07:13Z</time>
      </trkpt>
      <trkpt lat="46.68425" lon="0.41449">
        <ele>79.1</ele>
        <time>2020-07-03T18:07:14Z</time>
      </trkpt>
      <trkpt lat="46.68422" lon="0.41444">
        <ele>79.2</ele>
        <time>2020-07-03T18:07:15Z</time>
      </trkpt>
      <trkpt lat="46.68418" lon="0.41439">
        <ele>79.2</ele>
        <time>2020-07-03T18:07:16Z</time>
      </trkpt>
      <trkpt lat="46.68414" lon="0.41434">
        <ele>79.3</ele>
        <time>2020-07-03T18:07:17Z</time>
      </trkpt>
      <trkpt lat="46.68409" lon="0.41428">
        <ele>79.4</ele>
        <time>2020-07-03T18:07:18Z</time>
      </trkpt>
      <trkpt lat="46.68405" lon="0.41423">
        <ele>79.6</ele>
        <time>2020-07-03T18:07:19Z</time>
      </trkpt>
      <trkpt lat="46.68401" lon="0.41417">
        <ele>79.7</ele>
        <time>2020-07-03T18:07:20Z</time>
      </trkpt>
      <trkpt lat="46.68398" lon="0.41411">
        <ele>79.8</ele>
        <time>2020-07-03T18:07:21Z</time>
      </trkpt>
      <trkpt lat="46.68394" lon="0.41406">
        <ele>79.8</ele>
        <time>2020-07-03T18:07:22Z</time>
      </trkpt>
      <trkpt lat="46.68391" lon="0.41401">
        <ele>79.9</ele>
        <time>2020-07-03T18:07:23Z</time>
      </trkpt>
      <trkpt lat="46.68387" lon="0.41395">
        <ele>79.9</ele>
        <time>2020-07-03T18:07:24Z</time>
      </trkpt>
      <trkpt lat="46.68383" lon="0.4139">
        <ele>80</ele>
        <time>2020-07-03T18:07:25Z</time>
      </trkpt>
      <trkpt lat="46.68379" lon="0.41385">
        <ele>80.1</ele>
        <time>2020-07-03T18:07:26Z</time>
      </trkpt>
      <trkpt lat="46.68375" lon="0.41379">
        <ele>80.1</ele>
        <time>2020-07-03T18:07:27Z</time>
      </trkpt>
      <trkpt lat="46.68371" lon="0.41374">
        <ele>80.2</ele>
        <time>2020-07-03T18:07:28Z</time>
      </trkpt>
      <trkpt lat="46.68368" lon="0.41368">
        <ele>80.3</ele>
        <time>2020-07-03T18:07:29Z</time>
      </trkpt>
      <trkpt lat="46.68364" lon="0.41362">
        <ele>80.4</ele>
        <time>2020-07-03T18:07:30Z</time>
      </trkpt>
      <trkpt lat="46.6836" lon="0.41357">
        <ele>80.4</ele>
        <time>2020-07-03T18:07:31Z</time>
      </trkpt>
      <trkpt lat="46.68356" lon="0.41353">
        <ele>80.5</ele>
        <time>2020-07-03T18:07:32Z</time>
      </trkpt>
      <trkpt lat="46.68353" lon="0.41349">
        <ele>80.5</ele>
        <time>2020-07-03T18:07:33Z</time>
      </trkpt>
      <trkpt lat="46.68349" lon="0.41343">
        <ele>80.6</ele>
        <time>2020-07-03T18:07:34Z</time>
      </trkpt>
      <trkpt lat="46.68345" lon="0.41338">
        <ele>80.7</ele>
        <time>2020-07-03T18:07:35Z</time>
      </trkpt>
      <trkpt lat="46.68341" lon="0.41332">
        <ele>80.7</ele>
        <time>2020-07-03T18:07:36Z</time>
      </trkpt>
      <trkpt lat="46.68338" lon="0.41327">
        <ele>80.8</ele>
        <time>2020-07-03T18:07:37Z</time>
      </trkpt>
      <trkpt lat="46.68334" lon="0.41321">
        <ele>80.8</ele>
        <time>2020-07-03T18:07:38Z</time>
      </trkpt>
      <trkpt lat="46.6833" lon="0.41315">
        <ele>81</ele>
        <time>2020-07-03T18:07:39Z</time>
      </trkpt>
      <trkpt lat="46.68326" lon="0.41309">
        <ele>81.1</ele>
        <time>2020-07-03T18:07:40Z</time>
      </trkpt>
      <trkpt lat="46.68322" lon="0.41304">
        <ele>81.2</ele>
        <time>2020-07-03T18:07:41Z</time>
      </trkpt>
      <trkpt lat="46.68318" lon="0.41299">
        <ele>81.4</ele>
        <time>2020-07-03T18:07:42Z</time>
      </trkpt>
      <trkpt lat="46.68314" lon="0.41294">
        <ele>81.5</ele>
        <time>2020-07-03T18:07:43Z</time>
      </trkpt>
      <trkpt lat="46.6831" lon="0.41289">
        <ele>81.6</ele>
        <time>2020-07-03T18:07:44Z</time>
      </trkpt>
      <trkpt lat="46.68306" lon="0.41283">
        <ele>81.7</ele>
        <time>2020-07-03T18:07:45Z</time>
      </trkpt>
      <trkpt lat="46.68302" lon="0.41278">
        <ele>81.7</ele>
        <time>2020-07-03T18:07:46Z</time>
      </trkpt>
      <trkpt lat="46.68297" lon="0.41272">
        <ele>81.8</ele>
        <time>2020-07-03T18:07:47Z</time>
      </trkpt>
      <trkpt lat="46.68293" lon="0.41267">
        <ele>81.9</ele>
        <time>2020-07-03T18:07:48Z</time>
      </trkpt>
      <trkpt lat="46.6829" lon="0.41262">
        <ele>81.9</ele>
        <time>2020-07-03T18:07:49Z</time>
      </trkpt>
      <trkpt lat="46.68285" lon="0.41256">
        <ele>82</ele>
        <time>2020-07-03T18:07:50Z</time>
      </trkpt>
      <trkpt lat="46.68282" lon="0.41251">
        <ele>82.1</ele>
        <time>2020-07-03T18:07:51Z</time>
      </trkpt>
      <trkpt lat="46.68278" lon="0.41246">
        <ele>82.2</ele>
        <time>2020-07-03T18:07:52Z</time>
      </trkpt>
      <trkpt lat="46.68274" lon="0.4124">
        <ele>82.3</ele>
        <time>2020-07-03T18:07:53Z</time>
      </trkpt>
      <trkpt lat="46.6827" lon="0.41234">
        <ele>82.3</ele>
        <time>2020-07-03T18:07:54Z</time>
      </trkpt>
      <trkpt lat="46.68266" lon="0.41229">
        <ele>82.4</ele>
        <time>2020-07-03T18:07:55Z</time>
      </trkpt>
      <trkpt lat="46.68262" lon="0.41224">
        <ele>82.4</ele>
        <time>2020-07-03T18:07:56Z</time>
      </trkpt>
      <trkpt lat="46.68259" lon="0.41218">
        <ele>82.4</ele>
        <time>2020-07-03T18:07:57Z</time>
      </trkpt>
      <trkpt lat="46.68255" lon="0.41213">
        <ele>82.5</ele>
        <time>2020-07-03T18:07:58Z</time>
      </trkpt>
      <trkpt lat="46.68251" lon="0.41207">
        <ele>82.5</ele>
        <time>2020-07-03T18:07:59Z</time>
      </trkpt>
      <trkpt lat="46.68247" lon="0.41202">
        <ele>82.6</ele>
        <time>2020-07-03T18:08:00Z</time>
      </trkpt>
      <trkpt lat="46.68243" lon="0.41197">
        <ele>82.6</ele>
        <time>2020-07-03T18:08:01Z</time>
      </trkpt>
      <trkpt lat="46.6824" lon="0.41192">
        <ele>82.7</ele>
        <time>2020-07-03T18:08:02Z</time>
      </trkpt>
      <trkpt lat="46.68236" lon="0.41186">
        <ele>82.7</ele>
        <time>2020-07-03T18:08:03Z</time>
      </trkpt>
      <trkpt lat="46.68233" lon="0.41182">
        <ele>82.8</ele>
        <time>2020-07-03T18:08:04Z</time>
      </trkpt>
      <trkpt lat="46.68229" lon="0.41177">
        <ele>82.8</ele>
        <time>2020-07-03T18:08:05Z</time>
      </trkpt>
      <trkpt lat="46.68224" lon="0.41171">
        <ele>82.9</ele>
        <time>2020-07-03T18:08:06Z</time>
      </trkpt>
      <trkpt lat="46.68221" lon="0.41166">
        <ele>82.9</ele>
        <time>2020-07-03T18:08:07Z</time>
      </trkpt>
      <trkpt lat="46.68217" lon="0.41161">
        <ele>83</ele>
        <time>2020-07-03T18:08:08Z</time>
      </trkpt>
      <trkpt lat="46.68213" lon="0.41155">
        <ele>83</ele>
        <time>2020-07-03T18:08:09Z</time>
      </trkpt>
      <trkpt lat="46.6821" lon="0.4115">
        <ele>83</ele>
        <time>2020-07-03T18:08:10Z</time>
      </trkpt>
      <trkpt lat="46.68206" lon="0.41145">
        <ele>83.1</ele>
        <time>2020-07-03T18:08:11Z</time>
      </trkpt>
      <trkpt lat="46.68203" lon="0.4114">
        <ele>83.1</ele>
        <time>2020-07-03T18:08:12Z</time>
      </trkpt>
      <trkpt lat="46.682" lon="0.41135">
        <ele>83.2</ele>
        <time>2020-07-03T18:08:13Z</time>
      </trkpt>
      <trkpt lat="46.68196" lon="0.4113">
        <ele>83.2</ele>
        <time>2020-07-03T18:08:14Z</time>
      </trkpt>
      <trkpt lat="46.68193" lon="0.41125">
        <ele>83.3</ele>
        <time>2020-07-03T18:08:15Z</time>
      </trkpt>
      <trkpt lat="46.6819" lon="0.4112">
        <ele>83.3</ele>
        <time>2020-07-03T18:08:16Z</time>
      </trkpt>
      <trkpt lat="46.68187" lon="0.41115">
        <ele>83.4</ele>
        <time>2020-07-03T18:08:17Z</time>
      </trkpt>
      <trkpt lat="46.68183" lon="0.4111">
        <ele>83.4</ele>
        <time>2020-07-03T18:08:18Z</time>
      </trkpt>
      <trkpt lat="46.6818" lon="0.41105">
        <ele>83.5</ele>
        <time>2020-07-03T18:08:19Z</time>
      </trkpt>
      <trkpt lat="46.68176" lon="0.411">
        <ele>83.5</ele>
        <time>2020-07-03T18:08:20Z</time>
      </trkpt>
      <trkpt lat="46.68172" lon="0.41095">
        <ele>83.6</ele>
        <time>2020-07-03T18:08:21Z</time>
      </trkpt>
      <trkpt lat="46.68168" lon="0.41091">
        <ele>83.6</ele>
        <time>2020-07-03T18:08:22Z</time>
      </trkpt>
      <trkpt lat="46.68164" lon="0.41086">
        <ele>83.6</ele>
        <time>2020-07-03T18:08:23Z</time>
      </trkpt>
      <trkpt lat="46.68161" lon="0.41082">
        <ele>83.6</ele>
        <time>2020-07-03T18:08:24Z</time>
      </trkpt>
      <trkpt lat="46.68157" lon="0.41077">
        <ele>83.7</ele>
        <time>2020-07-03T18:08:25Z</time>
      </trkpt>
      <trkpt lat="46.68153" lon="0.41072">
        <ele>83.7</ele>
        <time>2020-07-03T18:08:26Z</time>
      </trkpt>
      <trkpt lat="46.68149" lon="0.41067">
        <ele>83.7</ele>
        <time>2020-07-03T18:08:27Z</time>
      </trkpt>
      <trkpt lat="46.68145" lon="0.41061">
        <ele>83.8</ele>
        <time>2020-07-03T18:08:28Z</time>
      </trkpt>
      <trkpt lat="46.6814" lon="0.41054">
        <ele>83.8</ele>
        <time>2020-07-03T18:08:29Z</time>
      </trkpt>
      <trkpt lat="46.68137" lon="0.41048">
        <ele>83.8</ele>
        <time>2020-07-03T18:08:30Z</time>
      </trkpt>
      <trkpt lat="46.68133" lon="0.41042">
        <ele>83.9</ele>
        <time>2020-07-03T18:08:31Z</time>
      </trkpt>
      <trkpt lat="46.68129" lon="0.41036">
        <ele>83.9</ele>
        <time>2020-07-03T18:08:32Z</time>
      </trkpt>
      <trkpt lat="46.68125" lon="0.41031">
        <ele>83.9</ele>
        <time>2020-07-03T18:08:33Z</time>
      </trkpt>
      <trkpt lat="46.68121" lon="0.41024">
        <ele>83.9</ele>
        <time>2020-07-03T18:08:34Z</time>
      </trkpt>
      <trkpt lat="46.68117" lon="0.41018">
        <ele>83.9</ele>
        <time>2020-07-03T18:08:35Z</time>
      </trkpt>
      <trkpt lat="46.68112" lon="0.41012">
        <ele>83.9</ele>
        <time>2020-07-03T18:08:36Z</time>
      </trkpt>
      <trkpt lat="46.68108" lon="0.41007">
        <ele>83.9</ele>
        <time>2020-07-03T18:08:37Z</time>
      </trkpt>
      <trkpt lat="46.68103" lon="0.41002">
        <ele>83.9</ele>
        <time>2020-07-03T18:08:38Z</time>
      </trkpt>
      <trkpt lat="46.68098" lon="0.40996">
        <ele>84</ele>
        <time>2020-07-03T18:08:39Z</time>
      </trkpt>
      <trkpt lat="46.68093" lon="0.40991">
        <ele>84</ele>
        <time>2020-07-03T18:08:40Z</time>
      </trkpt>
      <trkpt lat="46.68088" lon="0.40985">
        <ele>83.9</ele>
        <time>2020-07-03T18:08:41Z</time>
      </trkpt>
      <trkpt lat="46.68083" lon="0.4098">
        <ele>83.8</ele>
        <time>2020-07-03T18:08:42Z</time>
      </trkpt>
      <trkpt lat="46.68078" lon="0.40975">
        <ele>83.7</ele>
        <time>2020-07-03T18:08:43Z</time>
      </trkpt>
      <trkpt lat="46.68073" lon="0.40971">
        <ele>83.6</ele>
        <time>2020-07-03T18:08:44Z</time>
      </trkpt>
      <trkpt lat="46.68068" lon="0.40967">
        <ele>83.6</ele>
        <time>2020-07-03T18:08:45Z</time>
      </trkpt>
      <trkpt lat="46.68064" lon="0.40963">
        <ele>83.5</ele>
        <time>2020-07-03T18:08:46Z</time>
      </trkpt>
      <trkpt lat="46.68059" lon="0.40959">
        <ele>83.3</ele>
        <time>2020-07-03T18:08:47Z</time>
      </trkpt>
      <trkpt lat="46.68054" lon="0.40956">
        <ele>83.2</ele>
        <time>2020-07-03T18:08:48Z</time>
      </trkpt>
      <trkpt lat="46.6805" lon="0.40952">
        <ele>83</ele>
        <time>2020-07-03T18:08:49Z</time>
      </trkpt>
      <trkpt lat="46.68044" lon="0.40947">
        <ele>82.8</ele>
        <time>2020-07-03T18:08:50Z</time>
      </trkpt>
      <trkpt lat="46.68038" lon="0.40943">
        <ele>82.4</ele>
        <time>2020-07-03T18:08:51Z</time>
      </trkpt>
      <trkpt lat="46.68031" lon="0.40938">
        <ele>82.1</ele>
        <time>2020-07-03T18:08:52Z</time>
      </trkpt>
      <trkpt lat="46.68025" lon="0.40934">
        <ele>81.7</ele>
        <time>2020-07-03T18:08:53Z</time>
      </trkpt>
      <trkpt lat="46.68018" lon="0.40929">
        <ele>81.4</ele>
        <time>2020-07-03T18:08:54Z</time>
      </trkpt>
      <trkpt lat="46.6801" lon="0.40926">
        <ele>81</ele>
        <time>2020-07-03T18:08:55Z</time>
      </trkpt>
      <trkpt lat="46.68002" lon="0.40922">
        <ele>80.6</ele>
        <time>2020-07-03T18:08:56Z</time>
      </trkpt>
      <trkpt lat="46.67994" lon="0.40919">
        <ele>80.1</ele>
        <time>2020-07-03T18:08:57Z</time>
      </trkpt>
      <trkpt lat="46.67986" lon="0.40916">
        <ele>79.7</ele>
        <time>2020-07-03T18:08:58Z</time>
      </trkpt>
      <trkpt lat="46.67978" lon="0.40913">
        <ele>79.2</ele>
        <time>2020-07-03T18:08:59Z</time>
      </trkpt>
      <trkpt lat="46.67971" lon="0.4091">
        <ele>78.7</ele>
        <time>2020-07-03T18:09:00Z</time>
      </trkpt>
      <trkpt lat="46.67962" lon="0.40907">
        <ele>78.2</ele>
        <time>2020-07-03T18:09:01Z</time>
      </trkpt>
      <trkpt lat="46.67953" lon="0.40903">
        <ele>77.7</ele>
        <time>2020-07-03T18:09:02Z</time>
      </trkpt>
      <trkpt lat="46.67945" lon="0.409">
        <ele>77.2</ele>
        <time>2020-07-03T18:09:03Z</time>
      </trkpt>
      <trkpt lat="46.67937" lon="0.40897">
        <ele>76.7</ele>
        <time>2020-07-03T18:09:04Z</time>
      </trkpt>
      <trkpt lat="46.67928" lon="0.40894">
        <ele>76.4</ele>
        <time>2020-07-03T18:09:05Z</time>
      </trkpt>
      <trkpt lat="46.67919" lon="0.40891">
        <ele>76</ele>
        <time>2020-07-03T18:09:06Z</time>
      </trkpt>
      <trkpt lat="46.67911" lon="0.40887">
        <ele>75.5</ele>
        <time>2020-07-03T18:09:07Z</time>
      </trkpt>
      <trkpt lat="46.67901" lon="0.40884">
        <ele>75.1</ele>
        <time>2020-07-03T18:09:08Z</time>
      </trkpt>
      <trkpt lat="46.67892" lon="0.4088">
        <ele>74.7</ele>
        <time>2020-07-03T18:09:09Z</time>
      </trkpt>
      <trkpt lat="46.67882" lon="0.40877">
        <ele>74.3</ele>
        <time>2020-07-03T18:09:10Z</time>
      </trkpt>
      <trkpt lat="46.67872" lon="0.40873">
        <ele>74</ele>
        <time>2020-07-03T18:09:11Z</time>
      </trkpt>
      <trkpt lat="46.67863" lon="0.4087">
        <ele>73.7</ele>
        <time>2020-07-03T18:09:12Z</time>
      </trkpt>
      <trkpt lat="46.67852" lon="0.40866">
        <ele>73.6</ele>
        <time>2020-07-03T18:09:13Z</time>
      </trkpt>
      <trkpt lat="46.67843" lon="0.40862">
        <ele>73.5</ele>
        <time>2020-07-03T18:09:14Z</time>
      </trkpt>
      <trkpt lat="46.67834" lon="0.40858">
        <ele>73.5</ele>
        <time>2020-07-03T18:09:15Z</time>
      </trkpt>
      <trkpt lat="46.67825" lon="0.40854">
        <ele>73.6</ele>
        <time>2020-07-03T18:09:16Z</time>
      </trkpt>
      <trkpt lat="46.67816" lon="0.40851">
        <ele>73.6</ele>
        <time>2020-07-03T18:09:17Z</time>
      </trkpt>
      <trkpt lat="46.67809" lon="0.40847">
        <ele>73.7</ele>
        <time>2020-07-03T18:09:18Z</time>
      </trkpt>
      <trkpt lat="46.67802" lon="0.40843">
        <ele>73.8</ele>
        <time>2020-07-03T18:09:19Z</time>
      </trkpt>
      <trkpt lat="46.67794" lon="0.40839">
        <ele>73.9</ele>
        <time>2020-07-03T18:09:20Z</time>
      </trkpt>
      <trkpt lat="46.67788" lon="0.40834">
        <ele>74</ele>
        <time>2020-07-03T18:09:21Z</time>
      </trkpt>
      <trkpt lat="46.6778" lon="0.40829">
        <ele>74.1</ele>
        <time>2020-07-03T18:09:22Z</time>
      </trkpt>
      <trkpt lat="46.67773" lon="0.40824">
        <ele>74</ele>
        <time>2020-07-03T18:09:23Z</time>
      </trkpt>
      <trkpt lat="46.67767" lon="0.4082">
        <ele>74</ele>
        <time>2020-07-03T18:09:24Z</time>
      </trkpt>
      <trkpt lat="46.6776" lon="0.40815">
        <ele>74.1</ele>
        <time>2020-07-03T18:09:25Z</time>
      </trkpt>
      <trkpt lat="46.67754" lon="0.4081">
        <ele>74.1</ele>
        <time>2020-07-03T18:09:26Z</time>
      </trkpt>
      <trkpt lat="46.67748" lon="0.40805">
        <ele>74.2</ele>
        <time>2020-07-03T18:09:27Z</time>
      </trkpt>
      <trkpt lat="46.67742" lon="0.408">
        <ele>74.3</ele>
        <time>2020-07-03T18:09:28Z</time>
      </trkpt>
      <trkpt lat="46.67735" lon="0.40795">
        <ele>74.4</ele>
        <time>2020-07-03T18:09:29Z</time>
      </trkpt>
      <trkpt lat="46.67728" lon="0.4079">
        <ele>74.5</ele>
        <time>2020-07-03T18:09:30Z</time>
      </trkpt>
      <trkpt lat="46.67722" lon="0.40786">
        <ele>74.7</ele>
        <time>2020-07-03T18:09:31Z</time>
      </trkpt>
      <trkpt lat="46.67715" lon="0.40781">
        <ele>74.8</ele>
        <time>2020-07-03T18:09:32Z</time>
      </trkpt>
      <trkpt lat="46.6771" lon="0.40777">
        <ele>74.9</ele>
        <time>2020-07-03T18:09:33Z</time>
      </trkpt>
      <trkpt lat="46.67704" lon="0.40773">
        <ele>75</ele>
        <time>2020-07-03T18:09:34Z</time>
      </trkpt>
      <trkpt lat="46.67698" lon="0.40768">
        <ele>75.1</ele>
        <time>2020-07-03T18:09:35Z</time>
      </trkpt>
      <trkpt lat="46.67692" lon="0.40764">
        <ele>75.1</ele>
        <time>2020-07-03T18:09:36Z</time>
      </trkpt>
      <trkpt lat="46.67687" lon="0.40759">
        <ele>75.1</ele>
        <time>2020-07-03T18:09:37Z</time>
      </trkpt>
      <trkpt lat="46.67681" lon="0.40755">
        <ele>75.2</ele>
        <time>2020-07-03T18:09:38Z</time>
      </trkpt>
      <trkpt lat="46.67676" lon="0.4075">
        <ele>75.2</ele>
        <time>2020-07-03T18:09:39Z</time>
      </trkpt>
      <trkpt lat="46.67671" lon="0.40746">
        <ele>75.3</ele>
        <time>2020-07-03T18:09:40Z</time>
      </trkpt>
      <trkpt lat="46.67665" lon="0.40741">
        <ele>75.4</ele>
        <time>2020-07-03T18:09:41Z</time>
      </trkpt>
      <trkpt lat="46.67659" lon="0.40737">
        <ele>75.5</ele>
        <time>2020-07-03T18:09:42Z</time>
      </trkpt>
      <trkpt lat="46.67654" lon="0.40733">
        <ele>75.6</ele>
        <time>2020-07-03T18:09:43Z</time>
      </trkpt>
      <trkpt lat="46.67648" lon="0.40729">
        <ele>75.7</ele>
        <time>2020-07-03T18:09:44Z</time>
      </trkpt>
      <trkpt lat="46.67642" lon="0.40725">
        <ele>75.8</ele>
        <time>2020-07-03T18:09:45Z</time>
      </trkpt>
      <trkpt lat="46.67635" lon="0.40722">
        <ele>75.9</ele>
        <time>2020-07-03T18:09:46Z</time>
      </trkpt>
      <trkpt lat="46.6763" lon="0.40717">
        <ele>76</ele>
        <time>2020-07-03T18:09:47Z</time>
      </trkpt>
      <trkpt lat="46.67625" lon="0.40712">
        <ele>76.1</ele>
        <time>2020-07-03T18:09:48Z</time>
      </trkpt>
      <trkpt lat="46.6762" lon="0.40709">
        <ele>76.1</ele>
        <time>2020-07-03T18:09:49Z</time>
      </trkpt>
      <trkpt lat="46.67614" lon="0.40704">
        <ele>76.2</ele>
        <time>2020-07-03T18:09:50Z</time>
      </trkpt>
      <trkpt lat="46.67609" lon="0.407">
        <ele>76.3</ele>
        <time>2020-07-03T18:09:51Z</time>
      </trkpt>
      <trkpt lat="46.67603" lon="0.40697">
        <ele>76.4</ele>
        <time>2020-07-03T18:09:52Z</time>
      </trkpt>
      <trkpt lat="46.67597" lon="0.40693">
        <ele>76.4</ele>
        <time>2020-07-03T18:09:53Z</time>
      </trkpt>
      <trkpt lat="46.6759" lon="0.40688">
        <ele>76.5</ele>
        <time>2020-07-03T18:09:54Z</time>
      </trkpt>
      <trkpt lat="46.67584" lon="0.40684">
        <ele>76.6</ele>
        <time>2020-07-03T18:09:55Z</time>
      </trkpt>
      <trkpt lat="46.67578" lon="0.4068">
        <ele>76.7</ele>
        <time>2020-07-03T18:09:56Z</time>
      </trkpt>
      <trkpt lat="46.67572" lon="0.40677">
        <ele>76.8</ele>
        <time>2020-07-03T18:09:57Z</time>
      </trkpt>
      <trkpt lat="46.67566" lon="0.40672">
        <ele>76.9</ele>
        <time>2020-07-03T18:09:58Z</time>
      </trkpt>
      <trkpt lat="46.67559" lon="0.40667">
        <ele>77</ele>
        <time>2020-07-03T18:09:59Z</time>
      </trkpt>
      <trkpt lat="46.67554" lon="0.40662">
        <ele>77</ele>
        <time>2020-07-03T18:10:00Z</time>
      </trkpt>
      <trkpt lat="46.67548" lon="0.40657">
        <ele>77</ele>
        <time>2020-07-03T18:10:01Z</time>
      </trkpt>
      <trkpt lat="46.67541" lon="0.40652">
        <ele>77</ele>
        <time>2020-07-03T18:10:02Z</time>
      </trkpt>
      <trkpt lat="46.67535" lon="0.40648">
        <ele>77.1</ele>
        <time>2020-07-03T18:10:03Z</time>
      </trkpt>
      <trkpt lat="46.67528" lon="0.40644">
        <ele>77.1</ele>
        <time>2020-07-03T18:10:04Z</time>
      </trkpt>
      <trkpt lat="46.67522" lon="0.40641">
        <ele>77.1</ele>
        <time>2020-07-03T18:10:05Z</time>
      </trkpt>
      <trkpt lat="46.67517" lon="0.40637">
        <ele>77.2</ele>
        <time>2020-07-03T18:10:06Z</time>
      </trkpt>
      <trkpt lat="46.67511" lon="0.40633">
        <ele>77.3</ele>
        <time>2020-07-03T18:10:07Z</time>
      </trkpt>
      <trkpt lat="46.67504" lon="0.40629">
        <ele>77.3</ele>
        <time>2020-07-03T18:10:08Z</time>
      </trkpt>
      <trkpt lat="46.67497" lon="0.40625">
        <ele>77.4</ele>
        <time>2020-07-03T18:10:09Z</time>
      </trkpt>
      <trkpt lat="46.67492" lon="0.40621">
        <ele>77.4</ele>
        <time>2020-07-03T18:10:10Z</time>
      </trkpt>
      <trkpt lat="46.67486" lon="0.40616">
        <ele>77.4</ele>
        <time>2020-07-03T18:10:11Z</time>
      </trkpt>
      <trkpt lat="46.67482" lon="0.40612">
        <ele>77.4</ele>
        <time>2020-07-03T18:10:12Z</time>
      </trkpt>
      <trkpt lat="46.67476" lon="0.40607">
        <ele>77.5</ele>
        <time>2020-07-03T18:10:13Z</time>
      </trkpt>
      <trkpt lat="46.67471" lon="0.40604">
        <ele>77.6</ele>
        <time>2020-07-03T18:10:14Z</time>
      </trkpt>
      <trkpt lat="46.67465" lon="0.40601">
        <ele>77.7</ele>
        <time>2020-07-03T18:10:15Z</time>
      </trkpt>
      <trkpt lat="46.6746" lon="0.40597">
        <ele>77.8</ele>
        <time>2020-07-03T18:10:16Z</time>
      </trkpt>
      <trkpt lat="46.67454" lon="0.40594">
        <ele>77.8</ele>
        <time>2020-07-03T18:10:17Z</time>
      </trkpt>
      <trkpt lat="46.67448" lon="0.4059">
        <ele>77.9</ele>
        <time>2020-07-03T18:10:18Z</time>
      </trkpt>
      <trkpt lat="46.67443" lon="0.40587">
        <ele>77.9</ele>
        <time>2020-07-03T18:10:19Z</time>
      </trkpt>
      <trkpt lat="46.67438" lon="0.40585">
        <ele>78</ele>
        <time>2020-07-03T18:10:20Z</time>
      </trkpt>
      <trkpt lat="46.67433" lon="0.40582">
        <ele>78</ele>
        <time>2020-07-03T18:10:21Z</time>
      </trkpt>
      <trkpt lat="46.67428" lon="0.40579">
        <ele>78.1</ele>
        <time>2020-07-03T18:10:22Z</time>
      </trkpt>
      <trkpt lat="46.67423" lon="0.40576">
        <ele>78.1</ele>
        <time>2020-07-03T18:10:23Z</time>
      </trkpt>
      <trkpt lat="46.67418" lon="0.40574">
        <ele>78.2</ele>
        <time>2020-07-03T18:10:24Z</time>
      </trkpt>
      <trkpt lat="46.67412" lon="0.40571">
        <ele>78.4</ele>
        <time>2020-07-03T18:10:25Z</time>
      </trkpt>
      <trkpt lat="46.67407" lon="0.40569">
        <ele>78.5</ele>
        <time>2020-07-03T18:10:26Z</time>
      </trkpt>
      <trkpt lat="46.67403" lon="0.40567">
        <ele>78.7</ele>
        <time>2020-07-03T18:10:27Z</time>
      </trkpt>
      <trkpt lat="46.67399" lon="0.40565">
        <ele>78.8</ele>
        <time>2020-07-03T18:10:28Z</time>
      </trkpt>
      <trkpt lat="46.67395" lon="0.40562">
        <ele>78.9</ele>
        <time>2020-07-03T18:10:29Z</time>
      </trkpt>
      <trkpt lat="46.6739" lon="0.4056">
        <ele>79.1</ele>
        <time>2020-07-03T18:10:30Z</time>
      </trkpt>
      <trkpt lat="46.67385" lon="0.40558">
        <ele>79.1</ele>
        <time>2020-07-03T18:10:31Z</time>
      </trkpt>
      <trkpt lat="46.67379" lon="0.40556">
        <ele>79.1</ele>
        <time>2020-07-03T18:10:32Z</time>
      </trkpt>
      <trkpt lat="46.67374" lon="0.40555">
        <ele>79.2</ele>
        <time>2020-07-03T18:10:33Z</time>
      </trkpt>
      <trkpt lat="46.67369" lon="0.40554">
        <ele>79.2</ele>
        <time>2020-07-03T18:10:34Z</time>
      </trkpt>
      <trkpt lat="46.67364" lon="0.40551">
        <ele>79.3</ele>
        <time>2020-07-03T18:10:35Z</time>
      </trkpt>
      <trkpt lat="46.67358" lon="0.40549">
        <ele>79.4</ele>
        <time>2020-07-03T18:10:36Z</time>
      </trkpt>
      <trkpt lat="46.67352" lon="0.40548">
        <ele>79.6</ele>
        <time>2020-07-03T18:10:37Z</time>
      </trkpt>
      <trkpt lat="46.67346" lon="0.40545">
        <ele>79.7</ele>
        <time>2020-07-03T18:10:38Z</time>
      </trkpt>
      <trkpt lat="46.6734" lon="0.40543">
        <ele>79.9</ele>
        <time>2020-07-03T18:10:39Z</time>
      </trkpt>
      <trkpt lat="46.67334" lon="0.40541">
        <ele>80</ele>
        <time>2020-07-03T18:10:40Z</time>
      </trkpt>
      <trkpt lat="46.67328" lon="0.40539">
        <ele>80.2</ele>
        <time>2020-07-03T18:10:41Z</time>
      </trkpt>
      <trkpt lat="46.67322" lon="0.40538">
        <ele>80.3</ele>
        <time>2020-07-03T18:10:42Z</time>
      </trkpt>
      <trkpt lat="46.67317" lon="0.40537">
        <ele>80.5</ele>
        <time>2020-07-03T18:10:43Z</time>
      </trkpt>
      <trkpt lat="46.67312" lon="0.40536">
        <ele>80.6</ele>
        <time>2020-07-03T18:10:44Z</time>
      </trkpt>
      <trkpt lat="46.67308" lon="0.40535">
        <ele>80.7</ele>
        <time>2020-07-03T18:10:45Z</time>
      </trkpt>
      <trkpt lat="46.67303" lon="0.40533">
        <ele>80.8</ele>
        <time>2020-07-03T18:10:46Z</time>
      </trkpt>
      <trkpt lat="46.67298" lon="0.40531">
        <ele>81</ele>
        <time>2020-07-03T18:10:47Z</time>
      </trkpt>
      <trkpt lat="46.67293" lon="0.4053">
        <ele>81.2</ele>
        <time>2020-07-03T18:10:48Z</time>
      </trkpt>
      <trkpt lat="46.67289" lon="0.40528">
        <ele>81.3</ele>
        <time>2020-07-03T18:10:49Z</time>
      </trkpt>
      <trkpt lat="46.67285" lon="0.40526">
        <ele>81.4</ele>
        <time>2020-07-03T18:10:50Z</time>
      </trkpt>
      <trkpt lat="46.67281" lon="0.40525">
        <ele>81.5</ele>
        <time>2020-07-03T18:10:51Z</time>
      </trkpt>
      <trkpt lat="46.67276" lon="0.40523">
        <ele>81.7</ele>
        <time>2020-07-03T18:10:52Z</time>
      </trkpt>
      <trkpt lat="46.67272" lon="0.40521">
        <ele>81.8</ele>
        <time>2020-07-03T18:10:53Z</time>
      </trkpt>
      <trkpt lat="46.67268" lon="0.40521">
        <ele>81.8</ele>
        <time>2020-07-03T18:10:54Z</time>
      </trkpt>
      <trkpt lat="46.67264" lon="0.4052">
        <ele>81.9</ele>
        <time>2020-07-03T18:10:55Z</time>
      </trkpt>
      <trkpt lat="46.6726" lon="0.40519">
        <ele>82</ele>
        <time>2020-07-03T18:10:56Z</time>
      </trkpt>
      <trkpt lat="46.67256" lon="0.40518">
        <ele>82.1</ele>
        <time>2020-07-03T18:10:57Z</time>
      </trkpt>
      <trkpt lat="46.67252" lon="0.40516">
        <ele>82.2</ele>
        <time>2020-07-03T18:10:58Z</time>
      </trkpt>
      <trkpt lat="46.67249" lon="0.40514">
        <ele>82.3</ele>
        <time>2020-07-03T18:10:59Z</time>
      </trkpt>
      <trkpt lat="46.67244" lon="0.40513">
        <ele>82.4</ele>
        <time>2020-07-03T18:11:00Z</time>
      </trkpt>
      <trkpt lat="46.67241" lon="0.40512">
        <ele>82.5</ele>
        <time>2020-07-03T18:11:01Z</time>
      </trkpt>
      <trkpt lat="46.67238" lon="0.4051">
        <ele>82.6</ele>
        <time>2020-07-03T18:11:02Z</time>
      </trkpt>
      <trkpt lat="46.67236" lon="0.40507">
        <ele>82.7</ele>
        <time>2020-07-03T18:11:03Z</time>
      </trkpt>
      <trkpt lat="46.67232" lon="0.40505">
        <ele>82.8</ele>
        <time>2020-07-03T18:11:04Z</time>
      </trkpt>
      <trkpt lat="46.67229" lon="0.40505">
        <ele>82.8</ele>
        <time>2020-07-03T18:11:05Z</time>
      </trkpt>
      <trkpt lat="46.67225" lon="0.40504">
        <ele>82.9</ele>
        <time>2020-07-03T18:11:06Z</time>
      </trkpt>
      <trkpt lat="46.67222" lon="0.40503">
        <ele>82.9</ele>
        <time>2020-07-03T18:11:07Z</time>
      </trkpt>
      <trkpt lat="46.67219" lon="0.40501">
        <ele>83</ele>
        <time>2020-07-03T18:11:08Z</time>
      </trkpt>
      <trkpt lat="46.67216" lon="0.405">
        <ele>83</ele>
        <time>2020-07-03T18:11:09Z</time>
      </trkpt>
      <trkpt lat="46.67213" lon="0.405">
        <ele>83.1</ele>
        <time>2020-07-03T18:11:10Z</time>
      </trkpt>
      <trkpt lat="46.6721" lon="0.40498">
        <ele>83.2</ele>
        <time>2020-07-03T18:11:11Z</time>
      </trkpt>
      <trkpt lat="46.67206" lon="0.40496">
        <ele>83.3</ele>
        <time>2020-07-03T18:11:12Z</time>
      </trkpt>
      <trkpt lat="46.67202" lon="0.40494">
        <ele>83.4</ele>
        <time>2020-07-03T18:11:13Z</time>
      </trkpt>
      <trkpt lat="46.672" lon="0.40493">
        <ele>83.5</ele>
        <time>2020-07-03T18:11:14Z</time>
      </trkpt>
      <trkpt lat="46.67196" lon="0.40492">
        <ele>83.5</ele>
        <time>2020-07-03T18:11:15Z</time>
      </trkpt>
      <trkpt lat="46.67193" lon="0.4049">
        <ele>83.6</ele>
        <time>2020-07-03T18:11:16Z</time>
      </trkpt>
      <trkpt lat="46.6719" lon="0.40489">
        <ele>83.7</ele>
        <time>2020-07-03T18:11:17Z</time>
      </trkpt>
      <trkpt lat="46.67187" lon="0.40488">
        <ele>83.7</ele>
        <time>2020-07-03T18:11:18Z</time>
      </trkpt>
      <trkpt lat="46.67184" lon="0.40485">
        <ele>83.8</ele>
        <time>2020-07-03T18:11:19Z</time>
      </trkpt>
      <trkpt lat="46.6718" lon="0.40483">
        <ele>83.9</ele>
        <time>2020-07-03T18:11:20Z</time>
      </trkpt>
      <trkpt lat="46.67179" lon="0.40483">
        <ele>83.9</ele>
        <time>2020-07-03T18:11:21Z</time>
      </trkpt>
      <trkpt lat="46.67176" lon="0.40482">
        <ele>84</ele>
        <time>2020-07-03T18:11:22Z</time>
      </trkpt>
      <trkpt lat="46.67173" lon="0.4048">
        <ele>84</ele>
        <time>2020-07-03T18:11:23Z</time>
      </trkpt>
      <trkpt lat="46.67169" lon="0.40479">
        <ele>84.1</ele>
        <time>2020-07-03T18:11:24Z</time>
      </trkpt>
      <trkpt lat="46.67166" lon="0.40479">
        <ele>84.2</ele>
        <time>2020-07-03T18:11:25Z</time>
      </trkpt>
      <trkpt lat="46.67163" lon="0.40478">
        <ele>84.2</ele>
        <time>2020-07-03T18:11:26Z</time>
      </trkpt>
      <trkpt lat="46.6716" lon="0.40477">
        <ele>84.3</ele>
        <time>2020-07-03T18:11:27Z</time>
      </trkpt>
      <trkpt lat="46.67157" lon="0.40475">
        <ele>84.4</ele>
        <time>2020-07-03T18:11:28Z</time>
      </trkpt>
      <trkpt lat="46.67154" lon="0.40473">
        <ele>84.4</ele>
        <time>2020-07-03T18:11:29Z</time>
      </trkpt>
      <trkpt lat="46.6715" lon="0.40472">
        <ele>84.5</ele>
        <time>2020-07-03T18:11:30Z</time>
      </trkpt>
      <trkpt lat="46.67147" lon="0.40471">
        <ele>84.6</ele>
        <time>2020-07-03T18:11:31Z</time>
      </trkpt>
      <trkpt lat="46.67144" lon="0.4047">
        <ele>84.6</ele>
        <time>2020-07-03T18:11:32Z</time>
      </trkpt>
      <trkpt lat="46.6714" lon="0.40468">
        <ele>84.7</ele>
        <time>2020-07-03T18:11:33Z</time>
      </trkpt>
      <trkpt lat="46.67139" lon="0.40467">
        <ele>84.7</ele>
        <time>2020-07-03T18:11:34Z</time>
      </trkpt>
      <trkpt lat="46.67136" lon="0.40466">
        <ele>84.8</ele>
        <time>2020-07-03T18:11:35Z</time>
      </trkpt>
      <trkpt lat="46.67132" lon="0.40464">
        <ele>84.8</ele>
        <time>2020-07-03T18:11:36Z</time>
      </trkpt>
      <trkpt lat="46.67131" lon="0.40464">
        <ele>84.9</ele>
        <time>2020-07-03T18:11:37Z</time>
      </trkpt>
      <trkpt lat="46.67128" lon="0.40462">
        <ele>84.9</ele>
        <time>2020-07-03T18:11:38Z</time>
      </trkpt>
      <trkpt lat="46.67125" lon="0.4046">
        <ele>85</ele>
        <time>2020-07-03T18:11:39Z</time>
      </trkpt>
      <trkpt lat="46.67122" lon="0.4046">
        <ele>85</ele>
        <time>2020-07-03T18:11:40Z</time>
      </trkpt>
      <trkpt lat="46.67119" lon="0.40459">
        <ele>85.1</ele>
        <time>2020-07-03T18:11:41Z</time>
      </trkpt>
      <trkpt lat="46.67116" lon="0.40458">
        <ele>85.2</ele>
        <time>2020-07-03T18:11:42Z</time>
      </trkpt>
      <trkpt lat="46.67113" lon="0.40458">
        <ele>85.2</ele>
        <time>2020-07-03T18:11:43Z</time>
      </trkpt>
      <trkpt lat="46.6711" lon="0.40457">
        <ele>85.3</ele>
        <time>2020-07-03T18:11:44Z</time>
      </trkpt>
      <trkpt lat="46.67107" lon="0.40456">
        <ele>85.3</ele>
        <time>2020-07-03T18:11:45Z</time>
      </trkpt>
      <trkpt lat="46.67104" lon="0.40455">
        <ele>85.4</ele>
        <time>2020-07-03T18:11:46Z</time>
      </trkpt>
      <trkpt lat="46.671" lon="0.40454">
        <ele>85.5</ele>
        <time>2020-07-03T18:11:47Z</time>
      </trkpt>
      <trkpt lat="46.67097" lon="0.40453">
        <ele>85.5</ele>
        <time>2020-07-03T18:11:48Z</time>
      </trkpt>
      <trkpt lat="46.67094" lon="0.40452">
        <ele>85.6</ele>
        <time>2020-07-03T18:11:49Z</time>
      </trkpt>
      <trkpt lat="46.67091" lon="0.40451">
        <ele>85.6</ele>
        <time>2020-07-03T18:11:50Z</time>
      </trkpt>
      <trkpt lat="46.67087" lon="0.40449">
        <ele>85.7</ele>
        <time>2020-07-03T18:11:51Z</time>
      </trkpt>
      <trkpt lat="46.67086" lon="0.40449">
        <ele>85.7</ele>
        <time>2020-07-03T18:11:52Z</time>
      </trkpt>
      <trkpt lat="46.67082" lon="0.40447">
        <ele>85.8</ele>
        <time>2020-07-03T18:11:53Z</time>
      </trkpt>
      <trkpt lat="46.67079" lon="0.40446">
        <ele>85.9</ele>
        <time>2020-07-03T18:11:54Z</time>
      </trkpt>
      <trkpt lat="46.67075" lon="0.40445">
        <ele>86</ele>
        <time>2020-07-03T18:11:55Z</time>
      </trkpt>
      <trkpt lat="46.67072" lon="0.40445">
        <ele>86.1</ele>
        <time>2020-07-03T18:11:56Z</time>
      </trkpt>
      <trkpt lat="46.67069" lon="0.40444">
        <ele>86.1</ele>
        <time>2020-07-03T18:11:57Z</time>
      </trkpt>
      <trkpt lat="46.67066" lon="0.40441">
        <ele>86.2</ele>
        <time>2020-07-03T18:11:58Z</time>
      </trkpt>
      <trkpt lat="46.67063" lon="0.40439">
        <ele>86.4</ele>
        <time>2020-07-03T18:11:59Z</time>
      </trkpt>
      <trkpt lat="46.67059" lon="0.40437">
        <ele>86.4</ele>
        <time>2020-07-03T18:12:00Z</time>
      </trkpt>
      <trkpt lat="46.67057" lon="0.40436">
        <ele>86.4</ele>
        <time>2020-07-03T18:12:01Z</time>
      </trkpt>
      <trkpt lat="46.67054" lon="0.40435">
        <ele>86.4</ele>
        <time>2020-07-03T18:12:02Z</time>
      </trkpt>
      <trkpt lat="46.67051" lon="0.40434">
        <ele>86.5</ele>
        <time>2020-07-03T18:12:03Z</time>
      </trkpt>
      <trkpt lat="46.67047" lon="0.40432">
        <ele>86.5</ele>
        <time>2020-07-03T18:12:04Z</time>
      </trkpt>
      <trkpt lat="46.67044" lon="0.40431">
        <ele>86.5</ele>
        <time>2020-07-03T18:12:05Z</time>
      </trkpt>
      <trkpt lat="46.6704" lon="0.40429">
        <ele>86.5</ele>
        <time>2020-07-03T18:12:06Z</time>
      </trkpt>
      <trkpt lat="46.67037" lon="0.40428">
        <ele>86.6</ele>
        <time>2020-07-03T18:12:07Z</time>
      </trkpt>
      <trkpt lat="46.67033" lon="0.40426">
        <ele>86.6</ele>
        <time>2020-07-03T18:12:08Z</time>
      </trkpt>
      <trkpt lat="46.67029" lon="0.40424">
        <ele>86.6</ele>
        <time>2020-07-03T18:12:09Z</time>
      </trkpt>
      <trkpt lat="46.67026" lon="0.40424">
        <ele>86.6</ele>
        <time>2020-07-03T18:12:10Z</time>
      </trkpt>
      <trkpt lat="46.67022" lon="0.40422">
        <ele>86.6</ele>
        <time>2020-07-03T18:12:11Z</time>
      </trkpt>
      <trkpt lat="46.67018" lon="0.40421">
        <ele>86.6</ele>
        <time>2020-07-03T18:12:12Z</time>
      </trkpt>
      <trkpt lat="46.67014" lon="0.40418">
        <ele>86.6</ele>
        <time>2020-07-03T18:12:13Z</time>
      </trkpt>
      <trkpt lat="46.6701" lon="0.40416">
        <ele>86.6</ele>
        <time>2020-07-03T18:12:14Z</time>
      </trkpt>
      <trkpt lat="46.67006" lon="0.40414">
        <ele>86.6</ele>
        <time>2020-07-03T18:12:15Z</time>
      </trkpt>
      <trkpt lat="46.67001" lon="0.40412">
        <ele>86.5</ele>
        <time>2020-07-03T18:12:16Z</time>
      </trkpt>
      <trkpt lat="46.66997" lon="0.40411">
        <ele>86.5</ele>
        <time>2020-07-03T18:12:17Z</time>
      </trkpt>
      <trkpt lat="46.66992" lon="0.4041">
        <ele>86.5</ele>
        <time>2020-07-03T18:12:18Z</time>
      </trkpt>
      <trkpt lat="46.66988" lon="0.40408">
        <ele>86.5</ele>
        <time>2020-07-03T18:12:19Z</time>
      </trkpt>
      <trkpt lat="46.66983" lon="0.40406">
        <ele>86.5</ele>
        <time>2020-07-03T18:12:20Z</time>
      </trkpt>
      <trkpt lat="46.66979" lon="0.40404">
        <ele>86.4</ele>
        <time>2020-07-03T18:12:21Z</time>
      </trkpt>
      <trkpt lat="46.66974" lon="0.40402">
        <ele>86.4</ele>
        <time>2020-07-03T18:12:22Z</time>
      </trkpt>
      <trkpt lat="46.66969" lon="0.40399">
        <ele>86.4</ele>
        <time>2020-07-03T18:12:23Z</time>
      </trkpt>
      <trkpt lat="46.66964" lon="0.40398">
        <ele>86.3</ele>
        <time>2020-07-03T18:12:24Z</time>
      </trkpt>
      <trkpt lat="46.66958" lon="0.40396">
        <ele>86.3</ele>
        <time>2020-07-03T18:12:25Z</time>
      </trkpt>
      <trkpt lat="46.66953" lon="0.40393">
        <ele>86.3</ele>
        <time>2020-07-03T18:12:26Z</time>
      </trkpt>
      <trkpt lat="46.66948" lon="0.4039">
        <ele>86.2</ele>
        <time>2020-07-03T18:12:27Z</time>
      </trkpt>
      <trkpt lat="46.66943" lon="0.40388">
        <ele>86.2</ele>
        <time>2020-07-03T18:12:28Z</time>
      </trkpt>
      <trkpt lat="46.66938" lon="0.40386">
        <ele>86.1</ele>
        <time>2020-07-03T18:12:29Z</time>
      </trkpt>
      <trkpt lat="46.66932" lon="0.40382">
        <ele>86.1</ele>
        <time>2020-07-03T18:12:30Z</time>
      </trkpt>
      <trkpt lat="46.66926" lon="0.40379">
        <ele>86</ele>
        <time>2020-07-03T18:12:31Z</time>
      </trkpt>
      <trkpt lat="46.66921" lon="0.40376">
        <ele>85.9</ele>
        <time>2020-07-03T18:12:32Z</time>
      </trkpt>
      <trkpt lat="46.66916" lon="0.40373">
        <ele>85.8</ele>
        <time>2020-07-03T18:12:33Z</time>
      </trkpt>
      <trkpt lat="46.6691" lon="0.4037">
        <ele>85.7</ele>
        <time>2020-07-03T18:12:34Z</time>
      </trkpt>
      <trkpt lat="46.66903" lon="0.40368">
        <ele>85.7</ele>
        <time>2020-07-03T18:12:35Z</time>
      </trkpt>
      <trkpt lat="46.66897" lon="0.40365">
        <ele>85.6</ele>
        <time>2020-07-03T18:12:36Z</time>
      </trkpt>
      <trkpt lat="46.6689" lon="0.40361">
        <ele>85.5</ele>
        <time>2020-07-03T18:12:37Z</time>
      </trkpt>
      <trkpt lat="46.66883" lon="0.40357">
        <ele>85.4</ele>
        <time>2020-07-03T18:12:38Z</time>
      </trkpt>
      <trkpt lat="46.66877" lon="0.40353">
        <ele>85.4</ele>
        <time>2020-07-03T18:12:39Z</time>
      </trkpt>
      <trkpt lat="46.66871" lon="0.4035">
        <ele>85.3</ele>
        <time>2020-07-03T18:12:40Z</time>
      </trkpt>
      <trkpt lat="46.66865" lon="0.40347">
        <ele>85.3</ele>
        <time>2020-07-03T18:12:41Z</time>
      </trkpt>
      <trkpt lat="46.66858" lon="0.40343">
        <ele>85.3</ele>
        <time>2020-07-03T18:12:42Z</time>
      </trkpt>
      <trkpt lat="46.66853" lon="0.40341">
        <ele>85.3</ele>
        <time>2020-07-03T18:12:43Z</time>
      </trkpt>
      <trkpt lat="46.66847" lon="0.40337">
        <ele>85.2</ele>
        <time>2020-07-03T18:12:44Z</time>
      </trkpt>
      <trkpt lat="46.66841" lon="0.40334">
        <ele>85.2</ele>
        <time>2020-07-03T18:12:45Z</time>
      </trkpt>
      <trkpt lat="46.66835" lon="0.40331">
        <ele>85.1</ele>
        <time>2020-07-03T18:12:46Z</time>
      </trkpt>
      <trkpt lat="46.66829" lon="0.40327">
        <ele>85.1</ele>
        <time>2020-07-03T18:12:47Z</time>
      </trkpt>
      <trkpt lat="46.66823" lon="0.40325">
        <ele>85.2</ele>
        <time>2020-07-03T18:12:48Z</time>
      </trkpt>
      <trkpt lat="46.66818" lon="0.4032">
        <ele>85.3</ele>
        <time>2020-07-03T18:12:49Z</time>
      </trkpt>
      <trkpt lat="46.66813" lon="0.40316">
        <ele>85.4</ele>
        <time>2020-07-03T18:12:50Z</time>
      </trkpt>
      <trkpt lat="46.66809" lon="0.40311">
        <ele>85.5</ele>
        <time>2020-07-03T18:12:51Z</time>
      </trkpt>
      <trkpt lat="46.66804" lon="0.40306">
        <ele>85.5</ele>
        <time>2020-07-03T18:12:52Z</time>
      </trkpt>
      <trkpt lat="46.668" lon="0.40302">
        <ele>85.6</ele>
        <time>2020-07-03T18:12:53Z</time>
      </trkpt>
      <trkpt lat="46.66796" lon="0.40298">
        <ele>85.8</ele>
        <time>2020-07-03T18:12:54Z</time>
      </trkpt>
      <trkpt lat="46.66791" lon="0.40292">
        <ele>85.9</ele>
        <time>2020-07-03T18:12:55Z</time>
      </trkpt>
      <trkpt lat="46.66788" lon="0.40288">
        <ele>85.9</ele>
        <time>2020-07-03T18:12:56Z</time>
      </trkpt>
      <trkpt lat="46.66785" lon="0.40282">
        <ele>85.9</ele>
        <time>2020-07-03T18:12:57Z</time>
      </trkpt>
      <trkpt lat="46.66782" lon="0.40278">
        <ele>85.9</ele>
        <time>2020-07-03T18:12:58Z</time>
      </trkpt>
      <trkpt lat="46.66778" lon="0.40276">
        <ele>86</ele>
        <time>2020-07-03T18:12:59Z</time>
      </trkpt>
      <trkpt lat="46.66773" lon="0.40273">
        <ele>86</ele>
        <time>2020-07-03T18:13:00Z</time>
      </trkpt>
      <trkpt lat="46.66767" lon="0.4027">
        <ele>86.1</ele>
        <time>2020-07-03T18:13:01Z</time>
      </trkpt>
      <trkpt lat="46.66763" lon="0.40266">
        <ele>86.1</ele>
        <time>2020-07-03T18:13:02Z</time>
      </trkpt>
      <trkpt lat="46.66758" lon="0.40264">
        <ele>86.2</ele>
        <time>2020-07-03T18:13:03Z</time>
      </trkpt>
      <trkpt lat="46.66755" lon="0.40264">
        <ele>86.2</ele>
        <time>2020-07-03T18:13:04Z</time>
      </trkpt>
      <trkpt lat="46.66751" lon="0.40265">
        <ele>86.3</ele>
        <time>2020-07-03T18:13:05Z</time>
      </trkpt>
      <trkpt lat="46.66746" lon="0.40265">
        <ele>86.4</ele>
        <time>2020-07-03T18:13:06Z</time>
      </trkpt>
      <trkpt lat="46.6674" lon="0.40264">
        <ele>86.4</ele>
        <time>2020-07-03T18:13:07Z</time>
      </trkpt>
      <trkpt lat="46.66736" lon="0.40263">
        <ele>86.4</ele>
        <time>2020-07-03T18:13:08Z</time>
      </trkpt>
      <trkpt lat="46.6673" lon="0.40263">
        <ele>86.4</ele>
        <time>2020-07-03T18:13:09Z</time>
      </trkpt>
      <trkpt lat="46.66726" lon="0.40261">
        <ele>86.5</ele>
        <time>2020-07-03T18:13:10Z</time>
      </trkpt>
      <trkpt lat="46.66721" lon="0.40258">
        <ele>86.6</ele>
        <time>2020-07-03T18:13:11Z</time>
      </trkpt>
      <trkpt lat="46.66717" lon="0.40254">
        <ele>86.7</ele>
        <time>2020-07-03T18:13:12Z</time>
      </trkpt>
      <trkpt lat="46.66712" lon="0.40252">
        <ele>86.8</ele>
        <time>2020-07-03T18:13:13Z</time>
      </trkpt>
      <trkpt lat="46.66708" lon="0.40248">
        <ele>86.9</ele>
        <time>2020-07-03T18:13:14Z</time>
      </trkpt>
      <trkpt lat="46.66703" lon="0.40244">
        <ele>87.1</ele>
        <time>2020-07-03T18:13:15Z</time>
      </trkpt>
      <trkpt lat="46.66698" lon="0.40241">
        <ele>87.2</ele>
        <time>2020-07-03T18:13:16Z</time>
      </trkpt>
      <trkpt lat="46.66693" lon="0.40238">
        <ele>87.4</ele>
        <time>2020-07-03T18:13:17Z</time>
      </trkpt>
      <trkpt lat="46.66688" lon="0.40235">
        <ele>87.5</ele>
        <time>2020-07-03T18:13:18Z</time>
      </trkpt>
      <trkpt lat="46.66683" lon="0.40231">
        <ele>87.9</ele>
        <time>2020-07-03T18:13:19Z</time>
      </trkpt>
      <trkpt lat="46.66679" lon="0.40229">
        <ele>88.1</ele>
        <time>2020-07-03T18:13:20Z</time>
      </trkpt>
      <trkpt lat="46.66674" lon="0.40225">
        <ele>88.4</ele>
        <time>2020-07-03T18:13:21Z</time>
      </trkpt>
      <trkpt lat="46.66669" lon="0.40222">
        <ele>88.7</ele>
        <time>2020-07-03T18:13:22Z</time>
      </trkpt>
      <trkpt lat="46.66665" lon="0.40219">
        <ele>88.9</ele>
        <time>2020-07-03T18:13:23Z</time>
      </trkpt>
      <trkpt lat="46.66661" lon="0.40217">
        <ele>89.1</ele>
        <time>2020-07-03T18:13:24Z</time>
      </trkpt>
      <trkpt lat="46.66656" lon="0.40214">
        <ele>89.4</ele>
        <time>2020-07-03T18:13:25Z</time>
      </trkpt>
      <trkpt lat="46.66651" lon="0.40211">
        <ele>89.7</ele>
        <time>2020-07-03T18:13:26Z</time>
      </trkpt>
      <trkpt lat="46.66647" lon="0.40208">
        <ele>89.9</ele>
        <time>2020-07-03T18:13:27Z</time>
      </trkpt>
      <trkpt lat="46.66644" lon="0.40205">
        <ele>90.1</ele>
        <time>2020-07-03T18:13:28Z</time>
      </trkpt>
      <trkpt lat="46.6664" lon="0.40204">
        <ele>90.4</ele>
        <time>2020-07-03T18:13:29Z</time>
      </trkpt>
      <trkpt lat="46.66636" lon="0.40202">
        <ele>90.6</ele>
        <time>2020-07-03T18:13:30Z</time>
      </trkpt>
      <trkpt lat="46.66633" lon="0.402">
        <ele>90.8</ele>
        <time>2020-07-03T18:13:31Z</time>
      </trkpt>
      <trkpt lat="46.66629" lon="0.40198">
        <ele>91.1</ele>
        <time>2020-07-03T18:13:32Z</time>
      </trkpt>
      <trkpt lat="46.66626" lon="0.40196">
        <ele>91.3</ele>
        <time>2020-07-03T18:13:33Z</time>
      </trkpt>
      <trkpt lat="46.66622" lon="0.40194">
        <ele>91.5</ele>
        <time>2020-07-03T18:13:34Z</time>
      </trkpt>
      <trkpt lat="46.66619" lon="0.40192">
        <ele>91.7</ele>
        <time>2020-07-03T18:13:35Z</time>
      </trkpt>
      <trkpt lat="46.66616" lon="0.4019">
        <ele>91.9</ele>
        <time>2020-07-03T18:13:36Z</time>
      </trkpt>
      <trkpt lat="46.66613" lon="0.40188">
        <ele>92.1</ele>
        <time>2020-07-03T18:13:37Z</time>
      </trkpt>
      <trkpt lat="46.66611" lon="0.40187">
        <ele>92.3</ele>
        <time>2020-07-03T18:13:38Z</time>
      </trkpt>
      <trkpt lat="46.66608" lon="0.40185">
        <ele>92.5</ele>
        <time>2020-07-03T18:13:39Z</time>
      </trkpt>
      <trkpt lat="46.66606" lon="0.40183">
        <ele>92.7</ele>
        <time>2020-07-03T18:13:40Z</time>
      </trkpt>
      <trkpt lat="46.66603" lon="0.40181">
        <ele>92.9</ele>
        <time>2020-07-03T18:13:41Z</time>
      </trkpt>
      <trkpt lat="46.666" lon="0.40179">
        <ele>93.1</ele>
        <time>2020-07-03T18:13:42Z</time>
      </trkpt>
      <trkpt lat="46.66597" lon="0.40177">
        <ele>93.3</ele>
        <time>2020-07-03T18:13:43Z</time>
      </trkpt>
      <trkpt lat="46.66594" lon="0.40176">
        <ele>93.5</ele>
        <time>2020-07-03T18:13:44Z</time>
      </trkpt>
      <trkpt lat="46.66591" lon="0.40174">
        <ele>93.7</ele>
        <time>2020-07-03T18:13:45Z</time>
      </trkpt>
      <trkpt lat="46.66589" lon="0.40173">
        <ele>93.8</ele>
        <time>2020-07-03T18:13:46Z</time>
      </trkpt>
      <trkpt lat="46.66586" lon="0.40171">
        <ele>94</ele>
        <time>2020-07-03T18:13:47Z</time>
      </trkpt>
      <trkpt lat="46.66583" lon="0.40168">
        <ele>94.2</ele>
        <time>2020-07-03T18:13:48Z</time>
      </trkpt>
      <trkpt lat="46.66581" lon="0.40166">
        <ele>94.3</ele>
        <time>2020-07-03T18:13:49Z</time>
      </trkpt>
      <trkpt lat="46.66578" lon="0.40164">
        <ele>94.5</ele>
        <time>2020-07-03T18:13:50Z</time>
      </trkpt>
      <trkpt lat="46.66576" lon="0.40163">
        <ele>94.7</ele>
        <time>2020-07-03T18:13:51Z</time>
      </trkpt>
      <trkpt lat="46.66572" lon="0.4016">
        <ele>94.9</ele>
        <time>2020-07-03T18:13:52Z</time>
      </trkpt>
      <trkpt lat="46.66571" lon="0.40159">
        <ele>95</ele>
        <time>2020-07-03T18:13:53Z</time>
      </trkpt>
      <trkpt lat="46.66568" lon="0.40156">
        <ele>95.2</ele>
        <time>2020-07-03T18:13:54Z</time>
      </trkpt>
      <trkpt lat="46.66564" lon="0.40154">
        <ele>95.4</ele>
        <time>2020-07-03T18:13:55Z</time>
      </trkpt>
      <trkpt lat="46.66561" lon="0.40152">
        <ele>95.6</ele>
        <time>2020-07-03T18:13:56Z</time>
      </trkpt>
      <trkpt lat="46.66559" lon="0.4015">
        <ele>95.7</ele>
        <time>2020-07-03T18:13:57Z</time>
      </trkpt>
      <trkpt lat="46.66556" lon="0.40148">
        <ele>95.9</ele>
        <time>2020-07-03T18:13:58Z</time>
      </trkpt>
      <trkpt lat="46.66553" lon="0.40147">
        <ele>96.1</ele>
        <time>2020-07-03T18:13:59Z</time>
      </trkpt>
      <trkpt lat="46.6655" lon="0.40144">
        <ele>96.3</ele>
        <time>2020-07-03T18:14:00Z</time>
      </trkpt>
      <trkpt lat="46.66547" lon="0.40142">
        <ele>96.4</ele>
        <time>2020-07-03T18:14:01Z</time>
      </trkpt>
      <trkpt lat="46.66545" lon="0.4014">
        <ele>96.6</ele>
        <time>2020-07-03T18:14:02Z</time>
      </trkpt>
      <trkpt lat="46.66542" lon="0.40137">
        <ele>96.8</ele>
        <time>2020-07-03T18:14:03Z</time>
      </trkpt>
      <trkpt lat="46.6654" lon="0.40135">
        <ele>96.9</ele>
        <time>2020-07-03T18:14:04Z</time>
      </trkpt>
      <trkpt lat="46.66537" lon="0.40133">
        <ele>97.1</ele>
        <time>2020-07-03T18:14:05Z</time>
      </trkpt>
      <trkpt lat="46.66534" lon="0.40131">
        <ele>97.3</ele>
        <time>2020-07-03T18:14:06Z</time>
      </trkpt>
      <trkpt lat="46.66531" lon="0.40128">
        <ele>97.5</ele>
        <time>2020-07-03T18:14:07Z</time>
      </trkpt>
      <trkpt lat="46.6653" lon="0.40127">
        <ele>97.6</ele>
        <time>2020-07-03T18:14:08Z</time>
      </trkpt>
      <trkpt lat="46.66526" lon="0.40124">
        <ele>97.8</ele>
        <time>2020-07-03T18:14:09Z</time>
      </trkpt>
      <trkpt lat="46.66524" lon="0.40123">
        <ele>97.9</ele>
        <time>2020-07-03T18:14:10Z</time>
      </trkpt>
      <trkpt lat="46.6652" lon="0.4012">
        <ele>98.2</ele>
        <time>2020-07-03T18:14:11Z</time>
      </trkpt>
      <trkpt lat="46.66519" lon="0.40118">
        <ele>98.3</ele>
        <time>2020-07-03T18:14:12Z</time>
      </trkpt>
      <trkpt lat="46.66516" lon="0.40116">
        <ele>98.5</ele>
        <time>2020-07-03T18:14:13Z</time>
      </trkpt>
      <trkpt lat="46.66513" lon="0.40113">
        <ele>98.7</ele>
        <time>2020-07-03T18:14:14Z</time>
      </trkpt>
      <trkpt lat="46.6651" lon="0.4011">
        <ele>98.9</ele>
        <time>2020-07-03T18:14:15Z</time>
      </trkpt>
      <trkpt lat="46.66507" lon="0.40108">
        <ele>99.1</ele>
        <time>2020-07-03T18:14:16Z</time>
      </trkpt>
      <trkpt lat="46.66504" lon="0.40105">
        <ele>99.3</ele>
        <time>2020-07-03T18:14:17Z</time>
      </trkpt>
      <trkpt lat="46.66502" lon="0.40102">
        <ele>99.5</ele>
        <time>2020-07-03T18:14:18Z</time>
      </trkpt>
      <trkpt lat="46.66498" lon="0.40098">
        <ele>99.8</ele>
        <time>2020-07-03T18:14:19Z</time>
      </trkpt>
      <trkpt lat="46.66495" lon="0.40095">
        <ele>100</ele>
        <time>2020-07-03T18:14:20Z</time>
      </trkpt>
      <trkpt lat="46.66493" lon="0.40092">
        <ele>100.2</ele>
        <time>2020-07-03T18:14:21Z</time>
      </trkpt>
      <trkpt lat="46.6649" lon="0.40089">
        <ele>100.4</ele>
        <time>2020-07-03T18:14:22Z</time>
      </trkpt>
      <trkpt lat="46.66486" lon="0.40085">
        <ele>100.6</ele>
        <time>2020-07-03T18:14:23Z</time>
      </trkpt>
      <trkpt lat="46.66483" lon="0.40082">
        <ele>100.7</ele>
        <time>2020-07-03T18:14:24Z</time>
      </trkpt>
      <trkpt lat="46.66479" lon="0.40078">
        <ele>101</ele>
        <time>2020-07-03T18:14:25Z</time>
      </trkpt>
      <trkpt lat="46.66476" lon="0.40075">
        <ele>101.2</ele>
        <time>2020-07-03T18:14:26Z</time>
      </trkpt>
      <trkpt lat="46.66473" lon="0.40072">
        <ele>101.4</ele>
        <time>2020-07-03T18:14:27Z</time>
      </trkpt>
      <trkpt lat="46.6647" lon="0.40069">
        <ele>101.6</ele>
        <time>2020-07-03T18:14:28Z</time>
      </trkpt>
      <trkpt lat="46.66468" lon="0.40065">
        <ele>101.8</ele>
        <time>2020-07-03T18:14:29Z</time>
      </trkpt>
      <trkpt lat="46.66465" lon="0.40062">
        <ele>101.9</ele>
        <time>2020-07-03T18:14:30Z</time>
      </trkpt>
      <trkpt lat="46.66463" lon="0.40059">
        <ele>102.1</ele>
        <time>2020-07-03T18:14:31Z</time>
      </trkpt>
      <trkpt lat="46.6646" lon="0.40056">
        <ele>102.3</ele>
        <time>2020-07-03T18:14:32Z</time>
      </trkpt>
      <trkpt lat="46.66457" lon="0.40054">
        <ele>102.4</ele>
        <time>2020-07-03T18:14:33Z</time>
      </trkpt>
      <trkpt lat="46.66455" lon="0.40051">
        <ele>102.6</ele>
        <time>2020-07-03T18:14:34Z</time>
      </trkpt>
      <trkpt lat="46.66452" lon="0.40049">
        <ele>102.7</ele>
        <time>2020-07-03T18:14:35Z</time>
      </trkpt>
      <trkpt lat="46.6645" lon="0.40046">
        <ele>102.9</ele>
        <time>2020-07-03T18:14:36Z</time>
      </trkpt>
      <trkpt lat="46.66447" lon="0.40042">
        <ele>103</ele>
        <time>2020-07-03T18:14:37Z</time>
      </trkpt>
      <trkpt lat="46.66445" lon="0.40039">
        <ele>103.2</ele>
        <time>2020-07-03T18:14:38Z</time>
      </trkpt>
      <trkpt lat="46.66443" lon="0.40036">
        <ele>103.4</ele>
        <time>2020-07-03T18:14:39Z</time>
      </trkpt>
      <trkpt lat="46.6644" lon="0.40033">
        <ele>103.5</ele>
        <time>2020-07-03T18:14:40Z</time>
      </trkpt>
      <trkpt lat="46.66437" lon="0.4003">
        <ele>103.7</ele>
        <time>2020-07-03T18:14:41Z</time>
      </trkpt>
      <trkpt lat="46.66434" lon="0.40027">
        <ele>103.8</ele>
        <time>2020-07-03T18:14:42Z</time>
      </trkpt>
      <trkpt lat="46.66432" lon="0.40024">
        <ele>104</ele>
        <time>2020-07-03T18:14:43Z</time>
      </trkpt>
      <trkpt lat="46.66429" lon="0.40021">
        <ele>104.1</ele>
        <time>2020-07-03T18:14:44Z</time>
      </trkpt>
      <trkpt lat="46.66426" lon="0.40018">
        <ele>104.2</ele>
        <time>2020-07-03T18:14:45Z</time>
      </trkpt>
      <trkpt lat="46.66423" lon="0.40015">
        <ele>104.4</ele>
        <time>2020-07-03T18:14:46Z</time>
      </trkpt>
      <trkpt lat="46.6642" lon="0.40012">
        <ele>104.5</ele>
        <time>2020-07-03T18:14:47Z</time>
      </trkpt>
      <trkpt lat="46.66418" lon="0.40009">
        <ele>104.7</ele>
        <time>2020-07-03T18:14:48Z</time>
      </trkpt>
      <trkpt lat="46.66415" lon="0.40006">
        <ele>104.8</ele>
        <time>2020-07-03T18:14:49Z</time>
      </trkpt>
      <trkpt lat="46.66412" lon="0.40003">
        <ele>104.9</ele>
        <time>2020-07-03T18:14:50Z</time>
      </trkpt>
      <trkpt lat="46.6641" lon="0.4">
        <ele>105</ele>
        <time>2020-07-03T18:14:51Z</time>
      </trkpt>
      <trkpt lat="46.66407" lon="0.39997">
        <ele>105.1</ele>
        <time>2020-07-03T18:14:52Z</time>
      </trkpt>
      <trkpt lat="46.66405" lon="0.39993">
        <ele>105.2</ele>
        <time>2020-07-03T18:14:53Z</time>
      </trkpt>
      <trkpt lat="46.66402" lon="0.3999">
        <ele>105.3</ele>
        <time>2020-07-03T18:14:54Z</time>
      </trkpt>
      <trkpt lat="46.66399" lon="0.39987">
        <ele>105.4</ele>
        <time>2020-07-03T18:14:55Z</time>
      </trkpt>
      <trkpt lat="46.66396" lon="0.39984">
        <ele>105.5</ele>
        <time>2020-07-03T18:14:56Z</time>
      </trkpt>
      <trkpt lat="46.66393" lon="0.39981">
        <ele>105.6</ele>
        <time>2020-07-03T18:14:57Z</time>
      </trkpt>
      <trkpt lat="46.6639" lon="0.39978">
        <ele>105.6</ele>
        <time>2020-07-03T18:14:58Z</time>
      </trkpt>
      <trkpt lat="46.66386" lon="0.39975">
        <ele>105.7</ele>
        <time>2020-07-03T18:14:59Z</time>
      </trkpt>
      <trkpt lat="46.66383" lon="0.39971">
        <ele>105.8</ele>
        <time>2020-07-03T18:15:00Z</time>
      </trkpt>
      <trkpt lat="46.66379" lon="0.39967">
        <ele>105.9</ele>
        <time>2020-07-03T18:15:01Z</time>
      </trkpt>
      <trkpt lat="46.66376" lon="0.39962">
        <ele>105.9</ele>
        <time>2020-07-03T18:15:02Z</time>
      </trkpt>
      <trkpt lat="46.66373" lon="0.39958">
        <ele>106</ele>
        <time>2020-07-03T18:15:03Z</time>
      </trkpt>
      <trkpt lat="46.66369" lon="0.39953">
        <ele>106.1</ele>
        <time>2020-07-03T18:15:04Z</time>
      </trkpt>
      <trkpt lat="46.66366" lon="0.39949">
        <ele>106.2</ele>
        <time>2020-07-03T18:15:05Z</time>
      </trkpt>
      <trkpt lat="46.66362" lon="0.39945">
        <ele>106.2</ele>
        <time>2020-07-03T18:15:06Z</time>
      </trkpt>
      <trkpt lat="46.66359" lon="0.3994">
        <ele>106.3</ele>
        <time>2020-07-03T18:15:07Z</time>
      </trkpt>
      <trkpt lat="46.66355" lon="0.39935">
        <ele>106.4</ele>
        <time>2020-07-03T18:15:08Z</time>
      </trkpt>
      <trkpt lat="46.66352" lon="0.3993">
        <ele>106.4</ele>
        <time>2020-07-03T18:15:09Z</time>
      </trkpt>
      <trkpt lat="46.66348" lon="0.39924">
        <ele>106.5</ele>
        <time>2020-07-03T18:15:10Z</time>
      </trkpt>
      <trkpt lat="46.66345" lon="0.39919">
        <ele>106.5</ele>
        <time>2020-07-03T18:15:11Z</time>
      </trkpt>
      <trkpt lat="46.66341" lon="0.39914">
        <ele>106.6</ele>
        <time>2020-07-03T18:15:12Z</time>
      </trkpt>
      <trkpt lat="46.66337" lon="0.39908">
        <ele>106.7</ele>
        <time>2020-07-03T18:15:13Z</time>
      </trkpt>
      <trkpt lat="46.66334" lon="0.39903">
        <ele>106.8</ele>
        <time>2020-07-03T18:15:14Z</time>
      </trkpt>
      <trkpt lat="46.66331" lon="0.39898">
        <ele>106.8</ele>
        <time>2020-07-03T18:15:15Z</time>
      </trkpt>
      <trkpt lat="46.66329" lon="0.39894">
        <ele>106.9</ele>
        <time>2020-07-03T18:15:16Z</time>
      </trkpt>
      <trkpt lat="46.66327" lon="0.39887">
        <ele>106.9</ele>
        <time>2020-07-03T18:15:17Z</time>
      </trkpt>
      <trkpt lat="46.66324" lon="0.39882">
        <ele>107</ele>
        <time>2020-07-03T18:15:18Z</time>
      </trkpt>
      <trkpt lat="46.66322" lon="0.39878">
        <ele>107</ele>
        <time>2020-07-03T18:15:19Z</time>
      </trkpt>
      <trkpt lat="46.66319" lon="0.39873">
        <ele>107</ele>
        <time>2020-07-03T18:15:20Z</time>
      </trkpt>
      <trkpt lat="46.66317" lon="0.39867">
        <ele>107.1</ele>
        <time>2020-07-03T18:15:21Z</time>
      </trkpt>
      <trkpt lat="46.66314" lon="0.39862">
        <ele>107.1</ele>
        <time>2020-07-03T18:15:22Z</time>
      </trkpt>
      <trkpt lat="46.66311" lon="0.39856">
        <ele>107.1</ele>
        <time>2020-07-03T18:15:23Z</time>
      </trkpt>
      <trkpt lat="46.66308" lon="0.39851">
        <ele>107.2</ele>
        <time>2020-07-03T18:15:24Z</time>
      </trkpt>
      <trkpt lat="46.66305" lon="0.39845">
        <ele>107.2</ele>
        <time>2020-07-03T18:15:25Z</time>
      </trkpt>
      <trkpt lat="46.66302" lon="0.39839">
        <ele>107.2</ele>
        <time>2020-07-03T18:15:26Z</time>
      </trkpt>
      <trkpt lat="46.66299" lon="0.39835">
        <ele>107.2</ele>
        <time>2020-07-03T18:15:27Z</time>
      </trkpt>
      <trkpt lat="46.66296" lon="0.39828">
        <ele>107.2</ele>
        <time>2020-07-03T18:15:28Z</time>
      </trkpt>
      <trkpt lat="46.66293" lon="0.39822">
        <ele>107.2</ele>
        <time>2020-07-03T18:15:29Z</time>
      </trkpt>
      <trkpt lat="46.6629" lon="0.39816">
        <ele>107.1</ele>
        <time>2020-07-03T18:15:30Z</time>
      </trkpt>
      <trkpt lat="46.66287" lon="0.39809">
        <ele>107.1</ele>
        <time>2020-07-03T18:15:31Z</time>
      </trkpt>
      <trkpt lat="46.66284" lon="0.39804">
        <ele>107</ele>
        <time>2020-07-03T18:15:32Z</time>
      </trkpt>
      <trkpt lat="46.6628" lon="0.39797">
        <ele>106.9</ele>
        <time>2020-07-03T18:15:33Z</time>
      </trkpt>
      <trkpt lat="46.66277" lon="0.3979">
        <ele>106.8</ele>
        <time>2020-07-03T18:15:34Z</time>
      </trkpt>
      <trkpt lat="46.66274" lon="0.39782">
        <ele>106.7</ele>
        <time>2020-07-03T18:15:35Z</time>
      </trkpt>
      <trkpt lat="46.66271" lon="0.39774">
        <ele>106.6</ele>
        <time>2020-07-03T18:15:36Z</time>
      </trkpt>
      <trkpt lat="46.66267" lon="0.39765">
        <ele>106.5</ele>
        <time>2020-07-03T18:15:37Z</time>
      </trkpt>
      <trkpt lat="46.66264" lon="0.39756">
        <ele>106.3</ele>
        <time>2020-07-03T18:15:38Z</time>
      </trkpt>
      <trkpt lat="46.66262" lon="0.39747">
        <ele>106.2</ele>
        <time>2020-07-03T18:15:39Z</time>
      </trkpt>
      <trkpt lat="46.6626" lon="0.39739">
        <ele>106.1</ele>
        <time>2020-07-03T18:15:40Z</time>
      </trkpt>
      <trkpt lat="46.66258" lon="0.3973">
        <ele>106</ele>
        <time>2020-07-03T18:15:41Z</time>
      </trkpt>
      <trkpt lat="46.66257" lon="0.39721">
        <ele>105.8</ele>
        <time>2020-07-03T18:15:42Z</time>
      </trkpt>
      <trkpt lat="46.66256" lon="0.39712">
        <ele>105.7</ele>
        <time>2020-07-03T18:15:43Z</time>
      </trkpt>
      <trkpt lat="46.66255" lon="0.39704">
        <ele>105.6</ele>
        <time>2020-07-03T18:15:44Z</time>
      </trkpt>
      <trkpt lat="46.66253" lon="0.39696">
        <ele>105.5</ele>
        <time>2020-07-03T18:15:45Z</time>
      </trkpt>
      <trkpt lat="46.66251" lon="0.39685">
        <ele>105.4</ele>
        <time>2020-07-03T18:15:46Z</time>
      </trkpt>
      <trkpt lat="46.66249" lon="0.39677">
        <ele>105.3</ele>
        <time>2020-07-03T18:15:47Z</time>
      </trkpt>
      <trkpt lat="46.66247" lon="0.39668">
        <ele>105.2</ele>
        <time>2020-07-03T18:15:48Z</time>
      </trkpt>
      <trkpt lat="46.66245" lon="0.39659">
        <ele>105</ele>
        <time>2020-07-03T18:15:49Z</time>
      </trkpt>
      <trkpt lat="46.66243" lon="0.3965">
        <ele>104.8</ele>
        <time>2020-07-03T18:15:50Z</time>
      </trkpt>
      <trkpt lat="46.66241" lon="0.39641">
        <ele>104.5</ele>
        <time>2020-07-03T18:15:51Z</time>
      </trkpt>
      <trkpt lat="46.66239" lon="0.39631">
        <ele>104.2</ele>
        <time>2020-07-03T18:15:52Z</time>
      </trkpt>
      <trkpt lat="46.66238" lon="0.39622">
        <ele>103.9</ele>
        <time>2020-07-03T18:15:53Z</time>
      </trkpt>
      <trkpt lat="46.66235" lon="0.39612">
        <ele>103.5</ele>
        <time>2020-07-03T18:15:54Z</time>
      </trkpt>
      <trkpt lat="46.66233" lon="0.39602">
        <ele>103.2</ele>
        <time>2020-07-03T18:15:55Z</time>
      </trkpt>
      <trkpt lat="46.66231" lon="0.39593">
        <ele>102.8</ele>
        <time>2020-07-03T18:15:56Z</time>
      </trkpt>
      <trkpt lat="46.66229" lon="0.39581">
        <ele>102.3</ele>
        <time>2020-07-03T18:15:57Z</time>
      </trkpt>
      <trkpt lat="46.66227" lon="0.39569">
        <ele>101.8</ele>
        <time>2020-07-03T18:15:58Z</time>
      </trkpt>
      <trkpt lat="46.66225" lon="0.39557">
        <ele>101.3</ele>
        <time>2020-07-03T18:15:59Z</time>
      </trkpt>
      <trkpt lat="46.66223" lon="0.39546">
        <ele>100.8</ele>
        <time>2020-07-03T18:16:00Z</time>
      </trkpt>
      <trkpt lat="46.66221" lon="0.39534">
        <ele>100.3</ele>
        <time>2020-07-03T18:16:01Z</time>
      </trkpt>
      <trkpt lat="46.66219" lon="0.39522">
        <ele>99.8</ele>
        <time>2020-07-03T18:16:02Z</time>
      </trkpt>
      <trkpt lat="46.66217" lon="0.39509">
        <ele>99.3</ele>
        <time>2020-07-03T18:16:03Z</time>
      </trkpt>
      <trkpt lat="46.66214" lon="0.39497">
        <ele>98.8</ele>
        <time>2020-07-03T18:16:04Z</time>
      </trkpt>
      <trkpt lat="46.66212" lon="0.39484">
        <ele>98.3</ele>
        <time>2020-07-03T18:16:05Z</time>
      </trkpt>
      <trkpt lat="46.6621" lon="0.39471">
        <ele>97.7</ele>
        <time>2020-07-03T18:16:06Z</time>
      </trkpt>
      <trkpt lat="46.66207" lon="0.39458">
        <ele>97.1</ele>
        <time>2020-07-03T18:16:07Z</time>
      </trkpt>
      <trkpt lat="46.66204" lon="0.39445">
        <ele>96.6</ele>
        <time>2020-07-03T18:16:08Z</time>
      </trkpt>
      <trkpt lat="46.66202" lon="0.39432">
        <ele>96.1</ele>
        <time>2020-07-03T18:16:09Z</time>
      </trkpt>
      <trkpt lat="46.66199" lon="0.3942">
        <ele>95.6</ele>
        <time>2020-07-03T18:16:10Z</time>
      </trkpt>
      <trkpt lat="46.66195" lon="0.39407">
        <ele>95.1</ele>
        <time>2020-07-03T18:16:11Z</time>
      </trkpt>
      <trkpt lat="46.66191" lon="0.39395">
        <ele>94.6</ele>
        <time>2020-07-03T18:16:12Z</time>
      </trkpt>
      <trkpt lat="46.66187" lon="0.39383">
        <ele>94.2</ele>
        <time>2020-07-03T18:16:13Z</time>
      </trkpt>
      <trkpt lat="46.66181" lon="0.39371">
        <ele>93.7</ele>
        <time>2020-07-03T18:16:14Z</time>
      </trkpt>
      <trkpt lat="46.66176" lon="0.3936">
        <ele>93.3</ele>
        <time>2020-07-03T18:16:15Z</time>
      </trkpt>
      <trkpt lat="46.6617" lon="0.39349">
        <ele>92.8</ele>
        <time>2020-07-03T18:16:16Z</time>
      </trkpt>
      <trkpt lat="46.66164" lon="0.39338">
        <ele>92.3</ele>
        <time>2020-07-03T18:16:17Z</time>
      </trkpt>
      <trkpt lat="46.66157" lon="0.39327">
        <ele>91.8</ele>
        <time>2020-07-03T18:16:18Z</time>
      </trkpt>
      <trkpt lat="46.6615" lon="0.39316">
        <ele>91.3</ele>
        <time>2020-07-03T18:16:19Z</time>
      </trkpt>
      <trkpt lat="46.66143" lon="0.39305">
        <ele>90.7</ele>
        <time>2020-07-03T18:16:20Z</time>
      </trkpt>
      <trkpt lat="46.66135" lon="0.39296">
        <ele>90</ele>
        <time>2020-07-03T18:16:21Z</time>
      </trkpt>
      <trkpt lat="46.66126" lon="0.39287">
        <ele>89.3</ele>
        <time>2020-07-03T18:16:22Z</time>
      </trkpt>
      <trkpt lat="46.66118" lon="0.39278">
        <ele>88.6</ele>
        <time>2020-07-03T18:16:23Z</time>
      </trkpt>
      <trkpt lat="46.6611" lon="0.3927">
        <ele>87.9</ele>
        <time>2020-07-03T18:16:24Z</time>
      </trkpt>
      <trkpt lat="46.66101" lon="0.39261">
        <ele>87.2</ele>
        <time>2020-07-03T18:16:25Z</time>
      </trkpt>
      <trkpt lat="46.66093" lon="0.39252">
        <ele>86.6</ele>
        <time>2020-07-03T18:16:26Z</time>
      </trkpt>
      <trkpt lat="46.66086" lon="0.39241">
        <ele>86</ele>
        <time>2020-07-03T18:16:27Z</time>
      </trkpt>
      <trkpt lat="46.66079" lon="0.39229">
        <ele>85.3</ele>
        <time>2020-07-03T18:16:28Z</time>
      </trkpt>
      <trkpt lat="46.66072" lon="0.39217">
        <ele>84.7</ele>
        <time>2020-07-03T18:16:29Z</time>
      </trkpt>
      <trkpt lat="46.66065" lon="0.39205">
        <ele>84.1</ele>
        <time>2020-07-03T18:16:30Z</time>
      </trkpt>
      <trkpt lat="46.66057" lon="0.39195">
        <ele>83.5</ele>
        <time>2020-07-03T18:16:31Z</time>
      </trkpt>
      <trkpt lat="46.66049" lon="0.39184">
        <ele>83.1</ele>
        <time>2020-07-03T18:16:32Z</time>
      </trkpt>
      <trkpt lat="46.66041" lon="0.39175">
        <ele>82.7</ele>
        <time>2020-07-03T18:16:33Z</time>
      </trkpt>
      <trkpt lat="46.66034" lon="0.39165">
        <ele>82.4</ele>
        <time>2020-07-03T18:16:34Z</time>
      </trkpt>
      <trkpt lat="46.66025" lon="0.39157">
        <ele>82.2</ele>
        <time>2020-07-03T18:16:35Z</time>
      </trkpt>
      <trkpt lat="46.66016" lon="0.39148">
        <ele>82</ele>
        <time>2020-07-03T18:16:36Z</time>
      </trkpt>
      <trkpt lat="46.66007" lon="0.3914">
        <ele>81.8</ele>
        <time>2020-07-03T18:16:37Z</time>
      </trkpt>
      <trkpt lat="46.65999" lon="0.39133">
        <ele>81.6</ele>
        <time>2020-07-03T18:16:38Z</time>
      </trkpt>
      <trkpt lat="46.6599" lon="0.39126">
        <ele>81.4</ele>
        <time>2020-07-03T18:16:39Z</time>
      </trkpt>
      <trkpt lat="46.65981" lon="0.39118">
        <ele>81.3</ele>
        <time>2020-07-03T18:16:40Z</time>
      </trkpt>
      <trkpt lat="46.65973" lon="0.39111">
        <ele>81.2</ele>
        <time>2020-07-03T18:16:41Z</time>
      </trkpt>
      <trkpt lat="46.65965" lon="0.39104">
        <ele>81.1</ele>
        <time>2020-07-03T18:16:42Z</time>
      </trkpt>
      <trkpt lat="46.65958" lon="0.39097">
        <ele>81.1</ele>
        <time>2020-07-03T18:16:43Z</time>
      </trkpt>
      <trkpt lat="46.6595" lon="0.39089">
        <ele>81.1</ele>
        <time>2020-07-03T18:16:44Z</time>
      </trkpt>
      <trkpt lat="46.65943" lon="0.39082">
        <ele>81.1</ele>
        <time>2020-07-03T18:16:45Z</time>
      </trkpt>
      <trkpt lat="46.65935" lon="0.39076">
        <ele>81.1</ele>
        <time>2020-07-03T18:16:46Z</time>
      </trkpt>
      <trkpt lat="46.65928" lon="0.3907">
        <ele>81.2</ele>
        <time>2020-07-03T18:16:47Z</time>
      </trkpt>
      <trkpt lat="46.65921" lon="0.39064">
        <ele>81.2</ele>
        <time>2020-07-03T18:16:48Z</time>
      </trkpt>
      <trkpt lat="46.65914" lon="0.39057">
        <ele>81.2</ele>
        <time>2020-07-03T18:16:49Z</time>
      </trkpt>
      <trkpt lat="46.65907" lon="0.39052">
        <ele>81.2</ele>
        <time>2020-07-03T18:16:50Z</time>
      </trkpt>
      <trkpt lat="46.659" lon="0.39047">
        <ele>81.2</ele>
        <time>2020-07-03T18:16:51Z</time>
      </trkpt>
      <trkpt lat="46.65893" lon="0.39042">
        <ele>81.1</ele>
        <time>2020-07-03T18:16:52Z</time>
      </trkpt>
      <trkpt lat="46.65887" lon="0.39036">
        <ele>81</ele>
        <time>2020-07-03T18:16:53Z</time>
      </trkpt>
      <trkpt lat="46.65881" lon="0.3903">
        <ele>80.9</ele>
        <time>2020-07-03T18:16:54Z</time>
      </trkpt>
      <trkpt lat="46.65874" lon="0.39025">
        <ele>80.7</ele>
        <time>2020-07-03T18:16:55Z</time>
      </trkpt>
      <trkpt lat="46.65867" lon="0.39021">
        <ele>80.5</ele>
        <time>2020-07-03T18:16:56Z</time>
      </trkpt>
      <trkpt lat="46.6586" lon="0.39017">
        <ele>80.2</ele>
        <time>2020-07-03T18:16:57Z</time>
      </trkpt>
      <trkpt lat="46.65853" lon="0.39011">
        <ele>79.8</ele>
        <time>2020-07-03T18:16:58Z</time>
      </trkpt>
      <trkpt lat="46.65846" lon="0.39006">
        <ele>79.4</ele>
        <time>2020-07-03T18:16:59Z</time>
      </trkpt>
      <trkpt lat="46.65838" lon="0.39001">
        <ele>79</ele>
        <time>2020-07-03T18:17:00Z</time>
      </trkpt>
      <trkpt lat="46.65831" lon="0.38995">
        <ele>78.5</ele>
        <time>2020-07-03T18:17:01Z</time>
      </trkpt>
      <trkpt lat="46.65823" lon="0.3899">
        <ele>78</ele>
        <time>2020-07-03T18:17:02Z</time>
      </trkpt>
      <trkpt lat="46.65815" lon="0.38984">
        <ele>77.5</ele>
        <time>2020-07-03T18:17:03Z</time>
      </trkpt>
      <trkpt lat="46.65807" lon="0.38979">
        <ele>77</ele>
        <time>2020-07-03T18:17:04Z</time>
      </trkpt>
      <trkpt lat="46.65799" lon="0.38973">
        <ele>76.5</ele>
        <time>2020-07-03T18:17:05Z</time>
      </trkpt>
      <trkpt lat="46.65791" lon="0.38967">
        <ele>76</ele>
        <time>2020-07-03T18:17:06Z</time>
      </trkpt>
      <trkpt lat="46.65783" lon="0.38962">
        <ele>75.6</ele>
        <time>2020-07-03T18:17:07Z</time>
      </trkpt>
      <trkpt lat="46.65774" lon="0.38959">
        <ele>75.1</ele>
        <time>2020-07-03T18:17:08Z</time>
      </trkpt>
      <trkpt lat="46.65765" lon="0.38955">
        <ele>74.6</ele>
        <time>2020-07-03T18:17:09Z</time>
      </trkpt>
      <trkpt lat="46.65755" lon="0.38952">
        <ele>74.1</ele>
        <time>2020-07-03T18:17:10Z</time>
      </trkpt>
      <trkpt lat="46.65746" lon="0.38949">
        <ele>73.7</ele>
        <time>2020-07-03T18:17:11Z</time>
      </trkpt>
      <trkpt lat="46.65736" lon="0.38947">
        <ele>73.2</ele>
        <time>2020-07-03T18:17:12Z</time>
      </trkpt>
      <trkpt lat="46.65726" lon="0.38945">
        <ele>72.8</ele>
        <time>2020-07-03T18:17:13Z</time>
      </trkpt>
      <trkpt lat="46.65717" lon="0.38943">
        <ele>72.5</ele>
        <time>2020-07-03T18:17:14Z</time>
      </trkpt>
      <trkpt lat="46.65707" lon="0.38941">
        <ele>72.2</ele>
        <time>2020-07-03T18:17:15Z</time>
      </trkpt>
      <trkpt lat="46.65697" lon="0.38938">
        <ele>71.8</ele>
        <time>2020-07-03T18:17:16Z</time>
      </trkpt>
      <trkpt lat="46.65687" lon="0.38936">
        <ele>71.5</ele>
        <time>2020-07-03T18:17:17Z</time>
      </trkpt>
      <trkpt lat="46.65677" lon="0.38935">
        <ele>71.3</ele>
        <time>2020-07-03T18:17:18Z</time>
      </trkpt>
      <trkpt lat="46.65668" lon="0.38933">
        <ele>71</ele>
        <time>2020-07-03T18:17:19Z</time>
      </trkpt>
      <trkpt lat="46.65658" lon="0.38932">
        <ele>70.8</ele>
        <time>2020-07-03T18:17:20Z</time>
      </trkpt>
      <trkpt lat="46.65648" lon="0.3893">
        <ele>70.6</ele>
        <time>2020-07-03T18:17:21Z</time>
      </trkpt>
      <trkpt lat="46.65639" lon="0.38928">
        <ele>70.5</ele>
        <time>2020-07-03T18:17:22Z</time>
      </trkpt>
      <trkpt lat="46.65629" lon="0.38926">
        <ele>70.4</ele>
        <time>2020-07-03T18:17:23Z</time>
      </trkpt>
      <trkpt lat="46.6562" lon="0.38924">
        <ele>70.3</ele>
        <time>2020-07-03T18:17:24Z</time>
      </trkpt>
      <trkpt lat="46.65611" lon="0.38922">
        <ele>70.1</ele>
        <time>2020-07-03T18:17:25Z</time>
      </trkpt>
      <trkpt lat="46.65602" lon="0.3892">
        <ele>70</ele>
        <time>2020-07-03T18:17:26Z</time>
      </trkpt>
      <trkpt lat="46.65593" lon="0.38919">
        <ele>69.9</ele>
        <time>2020-07-03T18:17:27Z</time>
      </trkpt>
      <trkpt lat="46.65584" lon="0.38916">
        <ele>69.8</ele>
        <time>2020-07-03T18:17:28Z</time>
      </trkpt>
      <trkpt lat="46.65575" lon="0.38913">
        <ele>69.7</ele>
        <time>2020-07-03T18:17:29Z</time>
      </trkpt>
      <trkpt lat="46.65567" lon="0.3891">
        <ele>69.7</ele>
        <time>2020-07-03T18:17:30Z</time>
      </trkpt>
      <trkpt lat="46.65558" lon="0.38909">
        <ele>69.6</ele>
        <time>2020-07-03T18:17:31Z</time>
      </trkpt>
      <trkpt lat="46.6555" lon="0.38907">
        <ele>69.5</ele>
        <time>2020-07-03T18:17:32Z</time>
      </trkpt>
      <trkpt lat="46.65541" lon="0.38905">
        <ele>69.4</ele>
        <time>2020-07-03T18:17:33Z</time>
      </trkpt>
      <trkpt lat="46.65533" lon="0.38903">
        <ele>69.3</ele>
        <time>2020-07-03T18:17:34Z</time>
      </trkpt>
      <trkpt lat="46.65524" lon="0.38901">
        <ele>69.3</ele>
        <time>2020-07-03T18:17:35Z</time>
      </trkpt>
      <trkpt lat="46.65516" lon="0.38899">
        <ele>69.2</ele>
        <time>2020-07-03T18:17:36Z</time>
      </trkpt>
      <trkpt lat="46.65508" lon="0.38897">
        <ele>69.1</ele>
        <time>2020-07-03T18:17:37Z</time>
      </trkpt>
      <trkpt lat="46.655" lon="0.38894">
        <ele>69</ele>
        <time>2020-07-03T18:17:38Z</time>
      </trkpt>
      <trkpt lat="46.65491" lon="0.38891">
        <ele>69</ele>
        <time>2020-07-03T18:17:39Z</time>
      </trkpt>
      <trkpt lat="46.65483" lon="0.38889">
        <ele>69</ele>
        <time>2020-07-03T18:17:40Z</time>
      </trkpt>
      <trkpt lat="46.65475" lon="0.38887">
        <ele>68.9</ele>
        <time>2020-07-03T18:17:41Z</time>
      </trkpt>
      <trkpt lat="46.65468" lon="0.38883">
        <ele>68.9</ele>
        <time>2020-07-03T18:17:42Z</time>
      </trkpt>
      <trkpt lat="46.6546" lon="0.38882">
        <ele>68.8</ele>
        <time>2020-07-03T18:17:43Z</time>
      </trkpt>
      <trkpt lat="46.65451" lon="0.3888">
        <ele>68.7</ele>
        <time>2020-07-03T18:17:44Z</time>
      </trkpt>
      <trkpt lat="46.65444" lon="0.38879">
        <ele>68.6</ele>
        <time>2020-07-03T18:17:45Z</time>
      </trkpt>
      <trkpt lat="46.65436" lon="0.38877">
        <ele>68.6</ele>
        <time>2020-07-03T18:17:46Z</time>
      </trkpt>
      <trkpt lat="46.65428" lon="0.38875">
        <ele>68.5</ele>
        <time>2020-07-03T18:17:47Z</time>
      </trkpt>
      <trkpt lat="46.6542" lon="0.38874">
        <ele>68.5</ele>
        <time>2020-07-03T18:17:48Z</time>
      </trkpt>
      <trkpt lat="46.65412" lon="0.38871">
        <ele>68.4</ele>
        <time>2020-07-03T18:17:49Z</time>
      </trkpt>
      <trkpt lat="46.65405" lon="0.38869">
        <ele>68.4</ele>
        <time>2020-07-03T18:17:50Z</time>
      </trkpt>
      <trkpt lat="46.65397" lon="0.38867">
        <ele>68.3</ele>
        <time>2020-07-03T18:17:51Z</time>
      </trkpt>
      <trkpt lat="46.6539" lon="0.38865">
        <ele>68.3</ele>
        <time>2020-07-03T18:17:52Z</time>
      </trkpt>
      <trkpt lat="46.65382" lon="0.38863">
        <ele>68.2</ele>
        <time>2020-07-03T18:17:53Z</time>
      </trkpt>
      <trkpt lat="46.65375" lon="0.38861">
        <ele>68.1</ele>
        <time>2020-07-03T18:17:54Z</time>
      </trkpt>
      <trkpt lat="46.65367" lon="0.38859">
        <ele>68</ele>
        <time>2020-07-03T18:17:55Z</time>
      </trkpt>
      <trkpt lat="46.6536" lon="0.38856">
        <ele>67.9</ele>
        <time>2020-07-03T18:17:56Z</time>
      </trkpt>
      <trkpt lat="46.65352" lon="0.38854">
        <ele>67.8</ele>
        <time>2020-07-03T18:17:57Z</time>
      </trkpt>
      <trkpt lat="46.65344" lon="0.38853">
        <ele>67.7</ele>
        <time>2020-07-03T18:17:58Z</time>
      </trkpt>
      <trkpt lat="46.65337" lon="0.38851">
        <ele>67.6</ele>
        <time>2020-07-03T18:17:59Z</time>
      </trkpt>
      <trkpt lat="46.65329" lon="0.38849">
        <ele>67.5</ele>
        <time>2020-07-03T18:18:00Z</time>
      </trkpt>
      <trkpt lat="46.65322" lon="0.38847">
        <ele>67.4</ele>
        <time>2020-07-03T18:18:01Z</time>
      </trkpt>
      <trkpt lat="46.65314" lon="0.38846">
        <ele>67.3</ele>
        <time>2020-07-03T18:18:02Z</time>
      </trkpt>
      <trkpt lat="46.65306" lon="0.38844">
        <ele>67.2</ele>
        <time>2020-07-03T18:18:03Z</time>
      </trkpt>
      <trkpt lat="46.65298" lon="0.38842">
        <ele>67.1</ele>
        <time>2020-07-03T18:18:04Z</time>
      </trkpt>
      <trkpt lat="46.6529" lon="0.38839">
        <ele>67</ele>
        <time>2020-07-03T18:18:05Z</time>
      </trkpt>
      <trkpt lat="46.65283" lon="0.38837">
        <ele>67</ele>
        <time>2020-07-03T18:18:06Z</time>
      </trkpt>
      <trkpt lat="46.65275" lon="0.38835">
        <ele>67</ele>
        <time>2020-07-03T18:18:07Z</time>
      </trkpt>
      <trkpt lat="46.65267" lon="0.38833">
        <ele>67</ele>
        <time>2020-07-03T18:18:08Z</time>
      </trkpt>
      <trkpt lat="46.6526" lon="0.38832">
        <ele>67.1</ele>
        <time>2020-07-03T18:18:09Z</time>
      </trkpt>
      <trkpt lat="46.65252" lon="0.38831">
        <ele>67.1</ele>
        <time>2020-07-03T18:18:10Z</time>
      </trkpt>
      <trkpt lat="46.65244" lon="0.38829">
        <ele>67.1</ele>
        <time>2020-07-03T18:18:11Z</time>
      </trkpt>
      <trkpt lat="46.65236" lon="0.38828">
        <ele>67.2</ele>
        <time>2020-07-03T18:18:12Z</time>
      </trkpt>
      <trkpt lat="46.65229" lon="0.38826">
        <ele>67.3</ele>
        <time>2020-07-03T18:18:13Z</time>
      </trkpt>
      <trkpt lat="46.65222" lon="0.38824">
        <ele>67.3</ele>
        <time>2020-07-03T18:18:14Z</time>
      </trkpt>
      <trkpt lat="46.65214" lon="0.38823">
        <ele>67.4</ele>
        <time>2020-07-03T18:18:15Z</time>
      </trkpt>
      <trkpt lat="46.65207" lon="0.38821">
        <ele>67.5</ele>
        <time>2020-07-03T18:18:16Z</time>
      </trkpt>
      <trkpt lat="46.652" lon="0.38818">
        <ele>67.7</ele>
        <time>2020-07-03T18:18:17Z</time>
      </trkpt>
      <trkpt lat="46.65193" lon="0.38815">
        <ele>67.8</ele>
        <time>2020-07-03T18:18:18Z</time>
      </trkpt>
      <trkpt lat="46.65186" lon="0.38812">
        <ele>67.9</ele>
        <time>2020-07-03T18:18:19Z</time>
      </trkpt>
      <trkpt lat="46.65179" lon="0.38809">
        <ele>68.1</ele>
        <time>2020-07-03T18:18:20Z</time>
      </trkpt>
      <trkpt lat="46.65172" lon="0.38807">
        <ele>68.2</ele>
        <time>2020-07-03T18:18:21Z</time>
      </trkpt>
      <trkpt lat="46.65165" lon="0.38806">
        <ele>68.3</ele>
        <time>2020-07-03T18:18:22Z</time>
      </trkpt>
      <trkpt lat="46.65159" lon="0.38805">
        <ele>68.4</ele>
        <time>2020-07-03T18:18:23Z</time>
      </trkpt>
      <trkpt lat="46.65153" lon="0.38804">
        <ele>68.5</ele>
        <time>2020-07-03T18:18:24Z</time>
      </trkpt>
      <trkpt lat="46.65147" lon="0.38802">
        <ele>68.6</ele>
        <time>2020-07-03T18:18:25Z</time>
      </trkpt>
      <trkpt lat="46.65141" lon="0.38801">
        <ele>68.7</ele>
        <time>2020-07-03T18:18:26Z</time>
      </trkpt>
      <trkpt lat="46.65135" lon="0.38798">
        <ele>68.8</ele>
        <time>2020-07-03T18:18:27Z</time>
      </trkpt>
      <trkpt lat="46.65129" lon="0.38797">
        <ele>68.9</ele>
        <time>2020-07-03T18:18:28Z</time>
      </trkpt>
      <trkpt lat="46.65123" lon="0.38795">
        <ele>68.9</ele>
        <time>2020-07-03T18:18:29Z</time>
      </trkpt>
      <trkpt lat="46.65117" lon="0.38793">
        <ele>69</ele>
        <time>2020-07-03T18:18:30Z</time>
      </trkpt>
      <trkpt lat="46.65112" lon="0.38791">
        <ele>69.1</ele>
        <time>2020-07-03T18:18:31Z</time>
      </trkpt>
      <trkpt lat="46.65106" lon="0.38789">
        <ele>69.1</ele>
        <time>2020-07-03T18:18:32Z</time>
      </trkpt>
      <trkpt lat="46.65101" lon="0.38787">
        <ele>69.2</ele>
        <time>2020-07-03T18:18:33Z</time>
      </trkpt>
      <trkpt lat="46.65095" lon="0.38785">
        <ele>69.2</ele>
        <time>2020-07-03T18:18:34Z</time>
      </trkpt>
      <trkpt lat="46.65089" lon="0.38785">
        <ele>69.3</ele>
        <time>2020-07-03T18:18:35Z</time>
      </trkpt>
      <trkpt lat="46.65083" lon="0.38785">
        <ele>69.3</ele>
        <time>2020-07-03T18:18:36Z</time>
      </trkpt>
      <trkpt lat="46.65078" lon="0.38783">
        <ele>69.3</ele>
        <time>2020-07-03T18:18:37Z</time>
      </trkpt>
      <trkpt lat="46.65072" lon="0.38781">
        <ele>69.4</ele>
        <time>2020-07-03T18:18:38Z</time>
      </trkpt>
      <trkpt lat="46.65066" lon="0.3878">
        <ele>69.4</ele>
        <time>2020-07-03T18:18:39Z</time>
      </trkpt>
      <trkpt lat="46.65061" lon="0.38779">
        <ele>69.5</ele>
        <time>2020-07-03T18:18:40Z</time>
      </trkpt>
      <trkpt lat="46.65055" lon="0.38777">
        <ele>69.5</ele>
        <time>2020-07-03T18:18:41Z</time>
      </trkpt>
      <trkpt lat="46.65049" lon="0.38776">
        <ele>69.6</ele>
        <time>2020-07-03T18:18:42Z</time>
      </trkpt>
      <trkpt lat="46.65043" lon="0.38775">
        <ele>69.7</ele>
        <time>2020-07-03T18:18:43Z</time>
      </trkpt>
      <trkpt lat="46.65037" lon="0.38774">
        <ele>69.7</ele>
        <time>2020-07-03T18:18:44Z</time>
      </trkpt>
      <trkpt lat="46.65032" lon="0.38772">
        <ele>69.8</ele>
        <time>2020-07-03T18:18:45Z</time>
      </trkpt>
      <trkpt lat="46.65026" lon="0.38771">
        <ele>69.9</ele>
        <time>2020-07-03T18:18:46Z</time>
      </trkpt>
      <trkpt lat="46.6502" lon="0.3877">
        <ele>69.9</ele>
        <time>2020-07-03T18:18:47Z</time>
      </trkpt>
      <trkpt lat="46.65014" lon="0.38768">
        <ele>69.9</ele>
        <time>2020-07-03T18:18:48Z</time>
      </trkpt>
      <trkpt lat="46.65008" lon="0.38767">
        <ele>70</ele>
        <time>2020-07-03T18:18:49Z</time>
      </trkpt>
      <trkpt lat="46.65003" lon="0.38766">
        <ele>70</ele>
        <time>2020-07-03T18:18:50Z</time>
      </trkpt>
      <trkpt lat="46.64997" lon="0.38765">
        <ele>70</ele>
        <time>2020-07-03T18:18:51Z</time>
      </trkpt>
      <trkpt lat="46.64991" lon="0.38763">
        <ele>70.1</ele>
        <time>2020-07-03T18:18:52Z</time>
      </trkpt>
      <trkpt lat="46.64986" lon="0.38761">
        <ele>70.1</ele>
        <time>2020-07-03T18:18:53Z</time>
      </trkpt>
      <trkpt lat="46.6498" lon="0.38758">
        <ele>70.2</ele>
        <time>2020-07-03T18:18:54Z</time>
      </trkpt>
      <trkpt lat="46.64974" lon="0.38754">
        <ele>70.2</ele>
        <time>2020-07-03T18:18:55Z</time>
      </trkpt>
      <trkpt lat="46.64969" lon="0.38751">
        <ele>70.3</ele>
        <time>2020-07-03T18:18:56Z</time>
      </trkpt>
      <trkpt lat="46.64964" lon="0.38748">
        <ele>70.4</ele>
        <time>2020-07-03T18:18:57Z</time>
      </trkpt>
      <trkpt lat="46.64959" lon="0.38744">
        <ele>70.5</ele>
        <time>2020-07-03T18:18:58Z</time>
      </trkpt>
      <trkpt lat="46.64954" lon="0.38739">
        <ele>70.5</ele>
        <time>2020-07-03T18:18:59Z</time>
      </trkpt>
      <trkpt lat="46.64948" lon="0.38735">
        <ele>70.5</ele>
        <time>2020-07-03T18:19:00Z</time>
      </trkpt>
      <trkpt lat="46.64943" lon="0.38733">
        <ele>70.4</ele>
        <time>2020-07-03T18:19:01Z</time>
      </trkpt>
      <trkpt lat="46.64938" lon="0.38729">
        <ele>70.3</ele>
        <time>2020-07-03T18:19:02Z</time>
      </trkpt>
      <trkpt lat="46.64932" lon="0.38726">
        <ele>70.2</ele>
        <time>2020-07-03T18:19:03Z</time>
      </trkpt>
      <trkpt lat="46.64926" lon="0.38722">
        <ele>70.2</ele>
        <time>2020-07-03T18:19:04Z</time>
      </trkpt>
      <trkpt lat="46.64921" lon="0.38718">
        <ele>70.1</ele>
        <time>2020-07-03T18:19:05Z</time>
      </trkpt>
      <trkpt lat="46.64915" lon="0.38715">
        <ele>70.1</ele>
        <time>2020-07-03T18:19:06Z</time>
      </trkpt>
      <trkpt lat="46.64908" lon="0.38713">
        <ele>70</ele>
        <time>2020-07-03T18:19:07Z</time>
      </trkpt>
      <trkpt lat="46.64901" lon="0.38709">
        <ele>70</ele>
        <time>2020-07-03T18:19:08Z</time>
      </trkpt>
      <trkpt lat="46.64894" lon="0.38706">
        <ele>70</ele>
        <time>2020-07-03T18:19:09Z</time>
      </trkpt>
      <trkpt lat="46.64887" lon="0.38702">
        <ele>69.9</ele>
        <time>2020-07-03T18:19:10Z</time>
      </trkpt>
      <trkpt lat="46.64881" lon="0.38697">
        <ele>69.9</ele>
        <time>2020-07-03T18:19:11Z</time>
      </trkpt>
      <trkpt lat="46.64874" lon="0.38694">
        <ele>69.8</ele>
        <time>2020-07-03T18:19:12Z</time>
      </trkpt>
      <trkpt lat="46.64868" lon="0.38691">
        <ele>69.7</ele>
        <time>2020-07-03T18:19:13Z</time>
      </trkpt>
      <trkpt lat="46.64862" lon="0.38688">
        <ele>69.7</ele>
        <time>2020-07-03T18:19:14Z</time>
      </trkpt>
      <trkpt lat="46.64856" lon="0.38685">
        <ele>69.6</ele>
        <time>2020-07-03T18:19:15Z</time>
      </trkpt>
      <trkpt lat="46.64851" lon="0.38682">
        <ele>69.6</ele>
        <time>2020-07-03T18:19:16Z</time>
      </trkpt>
      <trkpt lat="46.64844" lon="0.38677">
        <ele>69.5</ele>
        <time>2020-07-03T18:19:17Z</time>
      </trkpt>
      <trkpt lat="46.64838" lon="0.38673">
        <ele>69.4</ele>
        <time>2020-07-03T18:19:18Z</time>
      </trkpt>
      <trkpt lat="46.64831" lon="0.3867">
        <ele>69.4</ele>
        <time>2020-07-03T18:19:19Z</time>
      </trkpt>
      <trkpt lat="46.64825" lon="0.38666">
        <ele>69.4</ele>
        <time>2020-07-03T18:19:20Z</time>
      </trkpt>
      <trkpt lat="46.64819" lon="0.38662">
        <ele>69.4</ele>
        <time>2020-07-03T18:19:21Z</time>
      </trkpt>
      <trkpt lat="46.64812" lon="0.38657">
        <ele>69.3</ele>
        <time>2020-07-03T18:19:22Z</time>
      </trkpt>
      <trkpt lat="46.64806" lon="0.38653">
        <ele>69.2</ele>
        <time>2020-07-03T18:19:23Z</time>
      </trkpt>
      <trkpt lat="46.64799" lon="0.38649">
        <ele>68.9</ele>
        <time>2020-07-03T18:19:24Z</time>
      </trkpt>
      <trkpt lat="46.64793" lon="0.38645">
        <ele>68.7</ele>
        <time>2020-07-03T18:19:25Z</time>
      </trkpt>
      <trkpt lat="46.64786" lon="0.38641">
        <ele>68.5</ele>
        <time>2020-07-03T18:19:26Z</time>
      </trkpt>
      <trkpt lat="46.6478" lon="0.38636">
        <ele>68.4</ele>
        <time>2020-07-03T18:19:27Z</time>
      </trkpt>
      <trkpt lat="46.64775" lon="0.3863">
        <ele>68.2</ele>
        <time>2020-07-03T18:19:28Z</time>
      </trkpt>
      <trkpt lat="46.6477" lon="0.38623">
        <ele>68.1</ele>
        <time>2020-07-03T18:19:29Z</time>
      </trkpt>
      <trkpt lat="46.64764" lon="0.38616">
        <ele>67.9</ele>
        <time>2020-07-03T18:19:30Z</time>
      </trkpt>
      <trkpt lat="46.64759" lon="0.38609">
        <ele>67.7</ele>
        <time>2020-07-03T18:19:31Z</time>
      </trkpt>
      <trkpt lat="46.64754" lon="0.38601">
        <ele>67.6</ele>
        <time>2020-07-03T18:19:32Z</time>
      </trkpt>
      <trkpt lat="46.6475" lon="0.38592">
        <ele>67.4</ele>
        <time>2020-07-03T18:19:33Z</time>
      </trkpt>
      <trkpt lat="46.64746" lon="0.38582">
        <ele>67.3</ele>
        <time>2020-07-03T18:19:34Z</time>
      </trkpt>
      <trkpt lat="46.64743" lon="0.38572">
        <ele>67.1</ele>
        <time>2020-07-03T18:19:35Z</time>
      </trkpt>
      <trkpt lat="46.64739" lon="0.38562">
        <ele>67</ele>
        <time>2020-07-03T18:19:36Z</time>
      </trkpt>
      <trkpt lat="46.64737" lon="0.38551">
        <ele>66.9</ele>
        <time>2020-07-03T18:19:37Z</time>
      </trkpt>
      <trkpt lat="46.64735" lon="0.38541">
        <ele>66.9</ele>
        <time>2020-07-03T18:19:38Z</time>
      </trkpt>
      <trkpt lat="46.64734" lon="0.3853">
        <ele>66.8</ele>
        <time>2020-07-03T18:19:39Z</time>
      </trkpt>
      <trkpt lat="46.64733" lon="0.3852">
        <ele>66.8</ele>
        <time>2020-07-03T18:19:40Z</time>
      </trkpt>
      <trkpt lat="46.64731" lon="0.3851">
        <ele>66.8</ele>
        <time>2020-07-03T18:19:41Z</time>
      </trkpt>
      <trkpt lat="46.6473" lon="0.38499">
        <ele>66.8</ele>
        <time>2020-07-03T18:19:42Z</time>
      </trkpt>
      <trkpt lat="46.64728" lon="0.38489">
        <ele>66.8</ele>
        <time>2020-07-03T18:19:43Z</time>
      </trkpt>
      <trkpt lat="46.64726" lon="0.38478">
        <ele>66.9</ele>
        <time>2020-07-03T18:19:44Z</time>
      </trkpt>
      <trkpt lat="46.64725" lon="0.38468">
        <ele>66.9</ele>
        <time>2020-07-03T18:19:45Z</time>
      </trkpt>
      <trkpt lat="46.64724" lon="0.38458">
        <ele>66.9</ele>
        <time>2020-07-03T18:19:46Z</time>
      </trkpt>
      <trkpt lat="46.64723" lon="0.38448">
        <ele>66.9</ele>
        <time>2020-07-03T18:19:47Z</time>
      </trkpt>
      <trkpt lat="46.64723" lon="0.38438">
        <ele>66.8</ele>
        <time>2020-07-03T18:19:48Z</time>
      </trkpt>
      <trkpt lat="46.64722" lon="0.38428">
        <ele>66.7</ele>
        <time>2020-07-03T18:19:49Z</time>
      </trkpt>
      <trkpt lat="46.64722" lon="0.38418">
        <ele>66.7</ele>
        <time>2020-07-03T18:19:50Z</time>
      </trkpt>
      <trkpt lat="46.64721" lon="0.38408">
        <ele>66.6</ele>
        <time>2020-07-03T18:19:51Z</time>
      </trkpt>
      <trkpt lat="46.6472" lon="0.38397">
        <ele>66.6</ele>
        <time>2020-07-03T18:19:52Z</time>
      </trkpt>
      <trkpt lat="46.64719" lon="0.38387">
        <ele>66.5</ele>
        <time>2020-07-03T18:19:53Z</time>
      </trkpt>
      <trkpt lat="46.64718" lon="0.38377">
        <ele>66.4</ele>
        <time>2020-07-03T18:19:54Z</time>
      </trkpt>
      <trkpt lat="46.64716" lon="0.38366">
        <ele>66.4</ele>
        <time>2020-07-03T18:19:55Z</time>
      </trkpt>
      <trkpt lat="46.64714" lon="0.38356">
        <ele>66.4</ele>
        <time>2020-07-03T18:19:56Z</time>
      </trkpt>
      <trkpt lat="46.64712" lon="0.38346">
        <ele>66.4</ele>
        <time>2020-07-03T18:19:57Z</time>
      </trkpt>
      <trkpt lat="46.64711" lon="0.38336">
        <ele>66.4</ele>
        <time>2020-07-03T18:19:58Z</time>
      </trkpt>
      <trkpt lat="46.64708" lon="0.38327">
        <ele>66.4</ele>
        <time>2020-07-03T18:19:59Z</time>
      </trkpt>
      <trkpt lat="46.64705" lon="0.38318">
        <ele>66.3</ele>
        <time>2020-07-03T18:20:00Z</time>
      </trkpt>
      <trkpt lat="46.64702" lon="0.38309">
        <ele>66.3</ele>
        <time>2020-07-03T18:20:01Z</time>
      </trkpt>
      <trkpt lat="46.64699" lon="0.38301">
        <ele>66.3</ele>
        <time>2020-07-03T18:20:02Z</time>
      </trkpt>
      <trkpt lat="46.64697" lon="0.38292">
        <ele>66.2</ele>
        <time>2020-07-03T18:20:03Z</time>
      </trkpt>
      <trkpt lat="46.64693" lon="0.38283">
        <ele>66.2</ele>
        <time>2020-07-03T18:20:04Z</time>
      </trkpt>
      <trkpt lat="46.64689" lon="0.38276">
        <ele>66.2</ele>
        <time>2020-07-03T18:20:05Z</time>
      </trkpt>
      <trkpt lat="46.64684" lon="0.38268">
        <ele>66.2</ele>
        <time>2020-07-03T18:20:06Z</time>
      </trkpt>
      <trkpt lat="46.64679" lon="0.38261">
        <ele>66.2</ele>
        <time>2020-07-03T18:20:07Z</time>
      </trkpt>
      <trkpt lat="46.64674" lon="0.38256">
        <ele>66.2</ele>
        <time>2020-07-03T18:20:08Z</time>
      </trkpt>
      <trkpt lat="46.64669" lon="0.3825">
        <ele>66.2</ele>
        <time>2020-07-03T18:20:09Z</time>
      </trkpt>
      <trkpt lat="46.64663" lon="0.38244">
        <ele>66.2</ele>
        <time>2020-07-03T18:20:10Z</time>
      </trkpt>
      <trkpt lat="46.64658" lon="0.38239">
        <ele>66.2</ele>
        <time>2020-07-03T18:20:11Z</time>
      </trkpt>
      <trkpt lat="46.64653" lon="0.38234">
        <ele>66.3</ele>
        <time>2020-07-03T18:20:12Z</time>
      </trkpt>
      <trkpt lat="46.64647" lon="0.38229">
        <ele>66.3</ele>
        <time>2020-07-03T18:20:13Z</time>
      </trkpt>
      <trkpt lat="46.64642" lon="0.38223">
        <ele>66.3</ele>
        <time>2020-07-03T18:20:14Z</time>
      </trkpt>
      <trkpt lat="46.64636" lon="0.38218">
        <ele>66.3</ele>
        <time>2020-07-03T18:20:15Z</time>
      </trkpt>
      <trkpt lat="46.64631" lon="0.38212">
        <ele>66.3</ele>
        <time>2020-07-03T18:20:16Z</time>
      </trkpt>
      <trkpt lat="46.64625" lon="0.38207">
        <ele>66.3</ele>
        <time>2020-07-03T18:20:17Z</time>
      </trkpt>
      <trkpt lat="46.6462" lon="0.38202">
        <ele>66.4</ele>
        <time>2020-07-03T18:20:18Z</time>
      </trkpt>
      <trkpt lat="46.64614" lon="0.38198">
        <ele>66.4</ele>
        <time>2020-07-03T18:20:19Z</time>
      </trkpt>
      <trkpt lat="46.64609" lon="0.38192">
        <ele>66.4</ele>
        <time>2020-07-03T18:20:20Z</time>
      </trkpt>
      <trkpt lat="46.64604" lon="0.38187">
        <ele>66.5</ele>
        <time>2020-07-03T18:20:21Z</time>
      </trkpt>
      <trkpt lat="46.64597" lon="0.38184">
        <ele>66.5</ele>
        <time>2020-07-03T18:20:22Z</time>
      </trkpt>
      <trkpt lat="46.64592" lon="0.38178">
        <ele>66.6</ele>
        <time>2020-07-03T18:20:23Z</time>
      </trkpt>
      <trkpt lat="46.64587" lon="0.38173">
        <ele>66.6</ele>
        <time>2020-07-03T18:20:24Z</time>
      </trkpt>
      <trkpt lat="46.64582" lon="0.38166">
        <ele>66.6</ele>
        <time>2020-07-03T18:20:25Z</time>
      </trkpt>
      <trkpt lat="46.64577" lon="0.3816">
        <ele>66.7</ele>
        <time>2020-07-03T18:20:26Z</time>
      </trkpt>
      <trkpt lat="46.64572" lon="0.38155">
        <ele>66.7</ele>
        <time>2020-07-03T18:20:27Z</time>
      </trkpt>
      <trkpt lat="46.64567" lon="0.38151">
        <ele>66.7</ele>
        <time>2020-07-03T18:20:28Z</time>
      </trkpt>
      <trkpt lat="46.64562" lon="0.38146">
        <ele>66.7</ele>
        <time>2020-07-03T18:20:29Z</time>
      </trkpt>
      <trkpt lat="46.64557" lon="0.38141">
        <ele>66.7</ele>
        <time>2020-07-03T18:20:30Z</time>
      </trkpt>
      <trkpt lat="46.64552" lon="0.38135">
        <ele>66.7</ele>
        <time>2020-07-03T18:20:31Z</time>
      </trkpt>
      <trkpt lat="46.64547" lon="0.3813">
        <ele>66.6</ele>
        <time>2020-07-03T18:20:32Z</time>
      </trkpt>
      <trkpt lat="46.64541" lon="0.38125">
        <ele>66.6</ele>
        <time>2020-07-03T18:20:33Z</time>
      </trkpt>
      <trkpt lat="46.64536" lon="0.3812">
        <ele>66.7</ele>
        <time>2020-07-03T18:20:34Z</time>
      </trkpt>
      <trkpt lat="46.6453" lon="0.38116">
        <ele>66.7</ele>
        <time>2020-07-03T18:20:35Z</time>
      </trkpt>
      <trkpt lat="46.64525" lon="0.3811">
        <ele>66.7</ele>
        <time>2020-07-03T18:20:36Z</time>
      </trkpt>
      <trkpt lat="46.64519" lon="0.38104">
        <ele>66.7</ele>
        <time>2020-07-03T18:20:37Z</time>
      </trkpt>
      <trkpt lat="46.64513" lon="0.38099">
        <ele>66.8</ele>
        <time>2020-07-03T18:20:38Z</time>
      </trkpt>
      <trkpt lat="46.64508" lon="0.38094">
        <ele>66.8</ele>
        <time>2020-07-03T18:20:39Z</time>
      </trkpt>
      <trkpt lat="46.64502" lon="0.38089">
        <ele>66.8</ele>
        <time>2020-07-03T18:20:40Z</time>
      </trkpt>
      <trkpt lat="46.64497" lon="0.38084">
        <ele>66.8</ele>
        <time>2020-07-03T18:20:41Z</time>
      </trkpt>
      <trkpt lat="46.64491" lon="0.3808">
        <ele>66.8</ele>
        <time>2020-07-03T18:20:42Z</time>
      </trkpt>
      <trkpt lat="46.64485" lon="0.38075">
        <ele>66.8</ele>
        <time>2020-07-03T18:20:43Z</time>
      </trkpt>
      <trkpt lat="46.6448" lon="0.38071">
        <ele>66.8</ele>
        <time>2020-07-03T18:20:44Z</time>
      </trkpt>
      <trkpt lat="46.64474" lon="0.38067">
        <ele>66.8</ele>
        <time>2020-07-03T18:20:45Z</time>
      </trkpt>
      <trkpt lat="46.64468" lon="0.38063">
        <ele>66.8</ele>
        <time>2020-07-03T18:20:46Z</time>
      </trkpt>
      <trkpt lat="46.64461" lon="0.38059">
        <ele>66.8</ele>
        <time>2020-07-03T18:20:47Z</time>
      </trkpt>
      <trkpt lat="46.64454" lon="0.38053">
        <ele>66.8</ele>
        <time>2020-07-03T18:20:48Z</time>
      </trkpt>
      <trkpt lat="46.6445" lon="0.3805">
        <ele>66.8</ele>
        <time>2020-07-03T18:20:49Z</time>
      </trkpt>
      <trkpt lat="46.64444" lon="0.38047">
        <ele>66.8</ele>
        <time>2020-07-03T18:20:50Z</time>
      </trkpt>
      <trkpt lat="46.64437" lon="0.38043">
        <ele>66.8</ele>
        <time>2020-07-03T18:20:51Z</time>
      </trkpt>
      <trkpt lat="46.64432" lon="0.3804">
        <ele>66.8</ele>
        <time>2020-07-03T18:20:52Z</time>
      </trkpt>
      <trkpt lat="46.64426" lon="0.38036">
        <ele>66.8</ele>
        <time>2020-07-03T18:20:53Z</time>
      </trkpt>
      <trkpt lat="46.6442" lon="0.38033">
        <ele>66.8</ele>
        <time>2020-07-03T18:20:54Z</time>
      </trkpt>
      <trkpt lat="46.64414" lon="0.3803">
        <ele>66.8</ele>
        <time>2020-07-03T18:20:55Z</time>
      </trkpt>
      <trkpt lat="46.64408" lon="0.38027">
        <ele>66.8</ele>
        <time>2020-07-03T18:20:56Z</time>
      </trkpt>
      <trkpt lat="46.64402" lon="0.38023">
        <ele>66.8</ele>
        <time>2020-07-03T18:20:57Z</time>
      </trkpt>
      <trkpt lat="46.64397" lon="0.3802">
        <ele>66.8</ele>
        <time>2020-07-03T18:20:58Z</time>
      </trkpt>
      <trkpt lat="46.64392" lon="0.38016">
        <ele>66.8</ele>
        <time>2020-07-03T18:20:59Z</time>
      </trkpt>
      <trkpt lat="46.64386" lon="0.38013">
        <ele>66.8</ele>
        <time>2020-07-03T18:21:00Z</time>
      </trkpt>
      <trkpt lat="46.6438" lon="0.38009">
        <ele>66.8</ele>
        <time>2020-07-03T18:21:01Z</time>
      </trkpt>
      <trkpt lat="46.64374" lon="0.38005">
        <ele>66.8</ele>
        <time>2020-07-03T18:21:02Z</time>
      </trkpt>
      <trkpt lat="46.64369" lon="0.38002">
        <ele>66.8</ele>
        <time>2020-07-03T18:21:03Z</time>
      </trkpt>
      <trkpt lat="46.64363" lon="0.37999">
        <ele>66.8</ele>
        <time>2020-07-03T18:21:04Z</time>
      </trkpt>
      <trkpt lat="46.64357" lon="0.37994">
        <ele>66.8</ele>
        <time>2020-07-03T18:21:05Z</time>
      </trkpt>
      <trkpt lat="46.64349" lon="0.37991">
        <ele>66.9</ele>
        <time>2020-07-03T18:21:06Z</time>
      </trkpt>
      <trkpt lat="46.64343" lon="0.37988">
        <ele>66.9</ele>
        <time>2020-07-03T18:21:07Z</time>
      </trkpt>
      <trkpt lat="46.64338" lon="0.37983">
        <ele>66.8</ele>
        <time>2020-07-03T18:21:08Z</time>
      </trkpt>
      <trkpt lat="46.64332" lon="0.3798">
        <ele>66.8</ele>
        <time>2020-07-03T18:21:09Z</time>
      </trkpt>
      <trkpt lat="46.64326" lon="0.37978">
        <ele>66.8</ele>
        <time>2020-07-03T18:21:10Z</time>
      </trkpt>
      <trkpt lat="46.6432" lon="0.37974">
        <ele>66.8</ele>
        <time>2020-07-03T18:21:11Z</time>
      </trkpt>
      <trkpt lat="46.64314" lon="0.37971">
        <ele>66.8</ele>
        <time>2020-07-03T18:21:12Z</time>
      </trkpt>
      <trkpt lat="46.64308" lon="0.37968">
        <ele>66.8</ele>
        <time>2020-07-03T18:21:13Z</time>
      </trkpt>
      <trkpt lat="46.64301" lon="0.37965">
        <ele>66.8</ele>
        <time>2020-07-03T18:21:14Z</time>
      </trkpt>
      <trkpt lat="46.64295" lon="0.37962">
        <ele>66.8</ele>
        <time>2020-07-03T18:21:15Z</time>
      </trkpt>
      <trkpt lat="46.6429" lon="0.37958">
        <ele>66.9</ele>
        <time>2020-07-03T18:21:16Z</time>
      </trkpt>
      <trkpt lat="46.64284" lon="0.37954">
        <ele>66.9</ele>
        <time>2020-07-03T18:21:17Z</time>
      </trkpt>
      <trkpt lat="46.64278" lon="0.3795">
        <ele>66.9</ele>
        <time>2020-07-03T18:21:18Z</time>
      </trkpt>
      <trkpt lat="46.64272" lon="0.37947">
        <ele>66.9</ele>
        <time>2020-07-03T18:21:19Z</time>
      </trkpt>
      <trkpt lat="46.64266" lon="0.37944">
        <ele>66.9</ele>
        <time>2020-07-03T18:21:20Z</time>
      </trkpt>
      <trkpt lat="46.6426" lon="0.3794">
        <ele>66.9</ele>
        <time>2020-07-03T18:21:21Z</time>
      </trkpt>
      <trkpt lat="46.64254" lon="0.37937">
        <ele>66.9</ele>
        <time>2020-07-03T18:21:22Z</time>
      </trkpt>
      <trkpt lat="46.64248" lon="0.37934">
        <ele>66.9</ele>
        <time>2020-07-03T18:21:23Z</time>
      </trkpt>
      <trkpt lat="46.64243" lon="0.37931">
        <ele>66.9</ele>
        <time>2020-07-03T18:21:24Z</time>
      </trkpt>
      <trkpt lat="46.64238" lon="0.37928">
        <ele>66.9</ele>
        <time>2020-07-03T18:21:25Z</time>
      </trkpt>
      <trkpt lat="46.64231" lon="0.37924">
        <ele>66.9</ele>
        <time>2020-07-03T18:21:26Z</time>
      </trkpt>
      <trkpt lat="46.64224" lon="0.37919">
        <ele>66.9</ele>
        <time>2020-07-03T18:21:27Z</time>
      </trkpt>
      <trkpt lat="46.64217" lon="0.37916">
        <ele>66.9</ele>
        <time>2020-07-03T18:21:28Z</time>
      </trkpt>
      <trkpt lat="46.64212" lon="0.37913">
        <ele>66.9</ele>
        <time>2020-07-03T18:21:29Z</time>
      </trkpt>
      <trkpt lat="46.64205" lon="0.3791">
        <ele>66.9</ele>
        <time>2020-07-03T18:21:30Z</time>
      </trkpt>
      <trkpt lat="46.64199" lon="0.37908">
        <ele>66.9</ele>
        <time>2020-07-03T18:21:31Z</time>
      </trkpt>
      <trkpt lat="46.64192" lon="0.37904">
        <ele>66.9</ele>
        <time>2020-07-03T18:21:32Z</time>
      </trkpt>
      <trkpt lat="46.64185" lon="0.37902">
        <ele>66.9</ele>
        <time>2020-07-03T18:21:33Z</time>
      </trkpt>
      <trkpt lat="46.6418" lon="0.37898">
        <ele>66.9</ele>
        <time>2020-07-03T18:21:34Z</time>
      </trkpt>
      <trkpt lat="46.64174" lon="0.37896">
        <ele>66.9</ele>
        <time>2020-07-03T18:21:35Z</time>
      </trkpt>
      <trkpt lat="46.64168" lon="0.37892">
        <ele>66.9</ele>
        <time>2020-07-03T18:21:36Z</time>
      </trkpt>
      <trkpt lat="46.64163" lon="0.37889">
        <ele>66.9</ele>
        <time>2020-07-03T18:21:37Z</time>
      </trkpt>
      <trkpt lat="46.64158" lon="0.37886">
        <ele>66.9</ele>
        <time>2020-07-03T18:21:38Z</time>
      </trkpt>
      <trkpt lat="46.64151" lon="0.37883">
        <ele>66.9</ele>
        <time>2020-07-03T18:21:39Z</time>
      </trkpt>
      <trkpt lat="46.64145" lon="0.3788">
        <ele>66.9</ele>
        <time>2020-07-03T18:21:40Z</time>
      </trkpt>
      <trkpt lat="46.64139" lon="0.37878">
        <ele>67</ele>
        <time>2020-07-03T18:21:41Z</time>
      </trkpt>
      <trkpt lat="46.64133" lon="0.37875">
        <ele>67</ele>
        <time>2020-07-03T18:21:42Z</time>
      </trkpt>
      <trkpt lat="46.64127" lon="0.37873">
        <ele>67</ele>
        <time>2020-07-03T18:21:43Z</time>
      </trkpt>
      <trkpt lat="46.6412" lon="0.3787">
        <ele>67</ele>
        <time>2020-07-03T18:21:44Z</time>
      </trkpt>
      <trkpt lat="46.64115" lon="0.37868">
        <ele>67</ele>
        <time>2020-07-03T18:21:45Z</time>
      </trkpt>
      <trkpt lat="46.64108" lon="0.37864">
        <ele>67</ele>
        <time>2020-07-03T18:21:46Z</time>
      </trkpt>
      <trkpt lat="46.64101" lon="0.3786">
        <ele>67</ele>
        <time>2020-07-03T18:21:47Z</time>
      </trkpt>
      <trkpt lat="46.64095" lon="0.37857">
        <ele>67</ele>
        <time>2020-07-03T18:21:48Z</time>
      </trkpt>
      <trkpt lat="46.64089" lon="0.37853">
        <ele>67</ele>
        <time>2020-07-03T18:21:49Z</time>
      </trkpt>
      <trkpt lat="46.64082" lon="0.37851">
        <ele>67</ele>
        <time>2020-07-03T18:21:50Z</time>
      </trkpt>
      <trkpt lat="46.64077" lon="0.37847">
        <ele>67</ele>
        <time>2020-07-03T18:21:51Z</time>
      </trkpt>
      <trkpt lat="46.64071" lon="0.37844">
        <ele>67</ele>
        <time>2020-07-03T18:21:52Z</time>
      </trkpt>
      <trkpt lat="46.64065" lon="0.3784">
        <ele>67</ele>
        <time>2020-07-03T18:21:53Z</time>
      </trkpt>
      <trkpt lat="46.6406" lon="0.37836">
        <ele>67</ele>
        <time>2020-07-03T18:21:54Z</time>
      </trkpt>
      <trkpt lat="46.64054" lon="0.37832">
        <ele>67.1</ele>
        <time>2020-07-03T18:21:55Z</time>
      </trkpt>
      <trkpt lat="46.64048" lon="0.37828">
        <ele>67.1</ele>
        <time>2020-07-03T18:21:56Z</time>
      </trkpt>
      <trkpt lat="46.64044" lon="0.37825">
        <ele>67.1</ele>
        <time>2020-07-03T18:21:57Z</time>
      </trkpt>
      <trkpt lat="46.64037" lon="0.3782">
        <ele>67.2</ele>
        <time>2020-07-03T18:21:58Z</time>
      </trkpt>
      <trkpt lat="46.6403" lon="0.37815">
        <ele>67.2</ele>
        <time>2020-07-03T18:21:59Z</time>
      </trkpt>
      <trkpt lat="46.64024" lon="0.3781">
        <ele>67.1</ele>
        <time>2020-07-03T18:22:00Z</time>
      </trkpt>
      <trkpt lat="46.64019" lon="0.37806">
        <ele>67.1</ele>
        <time>2020-07-03T18:22:01Z</time>
      </trkpt>
      <trkpt lat="46.64014" lon="0.37801">
        <ele>67.1</ele>
        <time>2020-07-03T18:22:02Z</time>
      </trkpt>
      <trkpt lat="46.64008" lon="0.37795">
        <ele>67.1</ele>
        <time>2020-07-03T18:22:03Z</time>
      </trkpt>
      <trkpt lat="46.64004" lon="0.37792">
        <ele>67.1</ele>
        <time>2020-07-03T18:22:04Z</time>
      </trkpt>
      <trkpt lat="46.63997" lon="0.37788">
        <ele>67.1</ele>
        <time>2020-07-03T18:22:05Z</time>
      </trkpt>
      <trkpt lat="46.63991" lon="0.37784">
        <ele>67.1</ele>
        <time>2020-07-03T18:22:06Z</time>
      </trkpt>
      <trkpt lat="46.63986" lon="0.37779">
        <ele>67.1</ele>
        <time>2020-07-03T18:22:07Z</time>
      </trkpt>
      <trkpt lat="46.6398" lon="0.37774">
        <ele>67.2</ele>
        <time>2020-07-03T18:22:08Z</time>
      </trkpt>
      <trkpt lat="46.63974" lon="0.37769">
        <ele>67.2</ele>
        <time>2020-07-03T18:22:09Z</time>
      </trkpt>
      <trkpt lat="46.63969" lon="0.37764">
        <ele>67.2</ele>
        <time>2020-07-03T18:22:10Z</time>
      </trkpt>
      <trkpt lat="46.63964" lon="0.37759">
        <ele>67.2</ele>
        <time>2020-07-03T18:22:11Z</time>
      </trkpt>
      <trkpt lat="46.63959" lon="0.37754">
        <ele>67.2</ele>
        <time>2020-07-03T18:22:12Z</time>
      </trkpt>
      <trkpt lat="46.63953" lon="0.37749">
        <ele>67.2</ele>
        <time>2020-07-03T18:22:13Z</time>
      </trkpt>
      <trkpt lat="46.63949" lon="0.37744">
        <ele>67.2</ele>
        <time>2020-07-03T18:22:14Z</time>
      </trkpt>
      <trkpt lat="46.63943" lon="0.37737">
        <ele>67.2</ele>
        <time>2020-07-03T18:22:15Z</time>
      </trkpt>
      <trkpt lat="46.63937" lon="0.37731">
        <ele>67.2</ele>
        <time>2020-07-03T18:22:16Z</time>
      </trkpt>
      <trkpt lat="46.63932" lon="0.37728">
        <ele>67.2</ele>
        <time>2020-07-03T18:22:17Z</time>
      </trkpt>
      <trkpt lat="46.63926" lon="0.37723">
        <ele>67.2</ele>
        <time>2020-07-03T18:22:18Z</time>
      </trkpt>
      <trkpt lat="46.63921" lon="0.37717">
        <ele>67.2</ele>
        <time>2020-07-03T18:22:19Z</time>
      </trkpt>
      <trkpt lat="46.63915" lon="0.37711">
        <ele>67.2</ele>
        <time>2020-07-03T18:22:20Z</time>
      </trkpt>
      <trkpt lat="46.6391" lon="0.37706">
        <ele>67.2</ele>
        <time>2020-07-03T18:22:21Z</time>
      </trkpt>
      <trkpt lat="46.63904" lon="0.37701">
        <ele>67.2</ele>
        <time>2020-07-03T18:22:22Z</time>
      </trkpt>
      <trkpt lat="46.63898" lon="0.37695">
        <ele>67.2</ele>
        <time>2020-07-03T18:22:23Z</time>
      </trkpt>
      <trkpt lat="46.63892" lon="0.3769">
        <ele>67.2</ele>
        <time>2020-07-03T18:22:24Z</time>
      </trkpt>
      <trkpt lat="46.63887" lon="0.37683">
        <ele>67.1</ele>
        <time>2020-07-03T18:22:25Z</time>
      </trkpt>
      <trkpt lat="46.63882" lon="0.37677">
        <ele>67.1</ele>
        <time>2020-07-03T18:22:26Z</time>
      </trkpt>
      <trkpt lat="46.63877" lon="0.37672">
        <ele>67.1</ele>
        <time>2020-07-03T18:22:27Z</time>
      </trkpt>
      <trkpt lat="46.63873" lon="0.37667">
        <ele>67.1</ele>
        <time>2020-07-03T18:22:28Z</time>
      </trkpt>
      <trkpt lat="46.63869" lon="0.37663">
        <ele>67.1</ele>
        <time>2020-07-03T18:22:29Z</time>
      </trkpt>
      <trkpt lat="46.63864" lon="0.37656">
        <ele>67.1</ele>
        <time>2020-07-03T18:22:30Z</time>
      </trkpt>
      <trkpt lat="46.63859" lon="0.37652">
        <ele>67.1</ele>
        <time>2020-07-03T18:22:31Z</time>
      </trkpt>
      <trkpt lat="46.63853" lon="0.37647">
        <ele>67.1</ele>
        <time>2020-07-03T18:22:32Z</time>
      </trkpt>
      <trkpt lat="46.63848" lon="0.3764">
        <ele>67.2</ele>
        <time>2020-07-03T18:22:33Z</time>
      </trkpt>
      <trkpt lat="46.63843" lon="0.37634">
        <ele>67.2</ele>
        <time>2020-07-03T18:22:34Z</time>
      </trkpt>
      <trkpt lat="46.63838" lon="0.37628">
        <ele>67.2</ele>
        <time>2020-07-03T18:22:35Z</time>
      </trkpt>
      <trkpt lat="46.63833" lon="0.37623">
        <ele>67.2</ele>
        <time>2020-07-03T18:22:36Z</time>
      </trkpt>
      <trkpt lat="46.63828" lon="0.37619">
        <ele>67.2</ele>
        <time>2020-07-03T18:22:37Z</time>
      </trkpt>
      <trkpt lat="46.63824" lon="0.37614">
        <ele>67.2</ele>
        <time>2020-07-03T18:22:38Z</time>
      </trkpt>
      <trkpt lat="46.63819" lon="0.37609">
        <ele>67.2</ele>
        <time>2020-07-03T18:22:39Z</time>
      </trkpt>
      <trkpt lat="46.63813" lon="0.37602">
        <ele>67.2</ele>
        <time>2020-07-03T18:22:40Z</time>
      </trkpt>
      <trkpt lat="46.63809" lon="0.37597">
        <ele>67.2</ele>
        <time>2020-07-03T18:22:41Z</time>
      </trkpt>
      <trkpt lat="46.63805" lon="0.37591">
        <ele>67.2</ele>
        <time>2020-07-03T18:22:42Z</time>
      </trkpt>
      <trkpt lat="46.638" lon="0.37586">
        <ele>67.2</ele>
        <time>2020-07-03T18:22:43Z</time>
      </trkpt>
      <trkpt lat="46.63796" lon="0.37582">
        <ele>67.3</ele>
        <time>2020-07-03T18:22:44Z</time>
      </trkpt>
      <trkpt lat="46.63791" lon="0.37576">
        <ele>67.3</ele>
        <time>2020-07-03T18:22:45Z</time>
      </trkpt>
      <trkpt lat="46.63785" lon="0.3757">
        <ele>67.3</ele>
        <time>2020-07-03T18:22:46Z</time>
      </trkpt>
      <trkpt lat="46.63779" lon="0.37564">
        <ele>67.3</ele>
        <time>2020-07-03T18:22:47Z</time>
      </trkpt>
      <trkpt lat="46.63772" lon="0.37559">
        <ele>67.4</ele>
        <time>2020-07-03T18:22:48Z</time>
      </trkpt>
      <trkpt lat="46.63768" lon="0.37555">
        <ele>67.4</ele>
        <time>2020-07-03T18:22:49Z</time>
      </trkpt>
      <trkpt lat="46.63764" lon="0.37548">
        <ele>67.4</ele>
        <time>2020-07-03T18:22:50Z</time>
      </trkpt>
      <trkpt lat="46.63759" lon="0.37543">
        <ele>67.5</ele>
        <time>2020-07-03T18:22:51Z</time>
      </trkpt>
      <trkpt lat="46.63754" lon="0.37537">
        <ele>67.5</ele>
        <time>2020-07-03T18:22:52Z</time>
      </trkpt>
      <trkpt lat="46.63751" lon="0.37533">
        <ele>67.6</ele>
        <time>2020-07-03T18:22:53Z</time>
      </trkpt>
      <trkpt lat="46.63747" lon="0.37529">
        <ele>67.6</ele>
        <time>2020-07-03T18:22:54Z</time>
      </trkpt>
      <trkpt lat="46.63742" lon="0.37524">
        <ele>67.6</ele>
        <time>2020-07-03T18:22:55Z</time>
      </trkpt>
      <trkpt lat="46.63737" lon="0.37518">
        <ele>67.7</ele>
        <time>2020-07-03T18:22:56Z</time>
      </trkpt>
      <trkpt lat="46.63731" lon="0.37513">
        <ele>67.7</ele>
        <time>2020-07-03T18:22:57Z</time>
      </trkpt>
      <trkpt lat="46.63726" lon="0.37509">
        <ele>67.8</ele>
        <time>2020-07-03T18:22:58Z</time>
      </trkpt>
      <trkpt lat="46.6372" lon="0.37502">
        <ele>67.8</ele>
        <time>2020-07-03T18:22:59Z</time>
      </trkpt>
      <trkpt lat="46.63716" lon="0.37496">
        <ele>67.8</ele>
        <time>2020-07-03T18:23:00Z</time>
      </trkpt>
      <trkpt lat="46.63711" lon="0.3749">
        <ele>67.8</ele>
        <time>2020-07-03T18:23:01Z</time>
      </trkpt>
      <trkpt lat="46.63707" lon="0.37484">
        <ele>67.9</ele>
        <time>2020-07-03T18:23:02Z</time>
      </trkpt>
      <trkpt lat="46.63702" lon="0.3748">
        <ele>67.9</ele>
        <time>2020-07-03T18:23:03Z</time>
      </trkpt>
      <trkpt lat="46.63697" lon="0.37473">
        <ele>67.9</ele>
        <time>2020-07-03T18:23:04Z</time>
      </trkpt>
      <trkpt lat="46.63694" lon="0.37471">
        <ele>67.9</ele>
        <time>2020-07-03T18:23:05Z</time>
      </trkpt>
      <trkpt lat="46.63689" lon="0.37467">
        <ele>67.9</ele>
        <time>2020-07-03T18:23:06Z</time>
      </trkpt>
      <trkpt lat="46.63684" lon="0.37462">
        <ele>68</ele>
        <time>2020-07-03T18:23:07Z</time>
      </trkpt>
      <trkpt lat="46.6368" lon="0.37459">
        <ele>68</ele>
        <time>2020-07-03T18:23:08Z</time>
      </trkpt>
      <trkpt lat="46.63674" lon="0.37454">
        <ele>68.1</ele>
        <time>2020-07-03T18:23:09Z</time>
      </trkpt>
      <trkpt lat="46.63669" lon="0.3745">
        <ele>68.1</ele>
        <time>2020-07-03T18:23:10Z</time>
      </trkpt>
      <trkpt lat="46.63662" lon="0.37445">
        <ele>68.2</ele>
        <time>2020-07-03T18:23:11Z</time>
      </trkpt>
      <trkpt lat="46.63656" lon="0.37441">
        <ele>68.2</ele>
        <time>2020-07-03T18:23:12Z</time>
      </trkpt>
      <trkpt lat="46.63651" lon="0.37437">
        <ele>68.3</ele>
        <time>2020-07-03T18:23:13Z</time>
      </trkpt>
      <trkpt lat="46.63646" lon="0.37433">
        <ele>68.3</ele>
        <time>2020-07-03T18:23:14Z</time>
      </trkpt>
      <trkpt lat="46.63641" lon="0.37429">
        <ele>68.3</ele>
        <time>2020-07-03T18:23:15Z</time>
      </trkpt>
      <trkpt lat="46.63637" lon="0.37425">
        <ele>68.4</ele>
        <time>2020-07-03T18:23:16Z</time>
      </trkpt>
      <trkpt lat="46.63631" lon="0.37421">
        <ele>68.4</ele>
        <time>2020-07-03T18:23:17Z</time>
      </trkpt>
      <trkpt lat="46.63624" lon="0.37417">
        <ele>68.4</ele>
        <time>2020-07-03T18:23:18Z</time>
      </trkpt>
      <trkpt lat="46.63619" lon="0.37411">
        <ele>68.5</ele>
        <time>2020-07-03T18:23:19Z</time>
      </trkpt>
      <trkpt lat="46.63615" lon="0.37407">
        <ele>68.5</ele>
        <time>2020-07-03T18:23:20Z</time>
      </trkpt>
      <trkpt lat="46.6361" lon="0.37403">
        <ele>68.5</ele>
        <time>2020-07-03T18:23:21Z</time>
      </trkpt>
      <trkpt lat="46.63604" lon="0.37399">
        <ele>68.5</ele>
        <time>2020-07-03T18:23:22Z</time>
      </trkpt>
      <trkpt lat="46.63599" lon="0.37394">
        <ele>68.5</ele>
        <time>2020-07-03T18:23:23Z</time>
      </trkpt>
      <trkpt lat="46.63595" lon="0.37391">
        <ele>68.5</ele>
        <time>2020-07-03T18:23:24Z</time>
      </trkpt>
      <trkpt lat="46.6359" lon="0.37385">
        <ele>68.6</ele>
        <time>2020-07-03T18:23:25Z</time>
      </trkpt>
      <trkpt lat="46.63584" lon="0.37381">
        <ele>68.7</ele>
        <time>2020-07-03T18:23:26Z</time>
      </trkpt>
      <trkpt lat="46.63578" lon="0.37377">
        <ele>68.7</ele>
        <time>2020-07-03T18:23:27Z</time>
      </trkpt>
      <trkpt lat="46.63574" lon="0.37373">
        <ele>68.8</ele>
        <time>2020-07-03T18:23:28Z</time>
      </trkpt>
      <trkpt lat="46.63569" lon="0.3737">
        <ele>68.8</ele>
        <time>2020-07-03T18:23:29Z</time>
      </trkpt>
      <trkpt lat="46.63564" lon="0.37366">
        <ele>68.9</ele>
        <time>2020-07-03T18:23:30Z</time>
      </trkpt>
      <trkpt lat="46.63558" lon="0.37362">
        <ele>69</ele>
        <time>2020-07-03T18:23:31Z</time>
      </trkpt>
      <trkpt lat="46.63553" lon="0.37359">
        <ele>69.1</ele>
        <time>2020-07-03T18:23:32Z</time>
      </trkpt>
      <trkpt lat="46.63549" lon="0.37355">
        <ele>69.1</ele>
        <time>2020-07-03T18:23:33Z</time>
      </trkpt>
      <trkpt lat="46.63544" lon="0.37351">
        <ele>69.3</ele>
        <time>2020-07-03T18:23:34Z</time>
      </trkpt>
      <trkpt lat="46.63539" lon="0.37346">
        <ele>69.4</ele>
        <time>2020-07-03T18:23:35Z</time>
      </trkpt>
      <trkpt lat="46.63534" lon="0.37343">
        <ele>69.5</ele>
        <time>2020-07-03T18:23:36Z</time>
      </trkpt>
      <trkpt lat="46.63529" lon="0.3734">
        <ele>69.6</ele>
        <time>2020-07-03T18:23:37Z</time>
      </trkpt>
      <trkpt lat="46.63524" lon="0.37337">
        <ele>69.8</ele>
        <time>2020-07-03T18:23:38Z</time>
      </trkpt>
      <trkpt lat="46.63519" lon="0.37333">
        <ele>70</ele>
        <time>2020-07-03T18:23:39Z</time>
      </trkpt>
      <trkpt lat="46.63516" lon="0.3733">
        <ele>70.1</ele>
        <time>2020-07-03T18:23:40Z</time>
      </trkpt>
      <trkpt lat="46.63511" lon="0.37326">
        <ele>70.3</ele>
        <time>2020-07-03T18:23:41Z</time>
      </trkpt>
      <trkpt lat="46.63507" lon="0.37323">
        <ele>70.4</ele>
        <time>2020-07-03T18:23:42Z</time>
      </trkpt>
      <trkpt lat="46.63503" lon="0.3732">
        <ele>70.6</ele>
        <time>2020-07-03T18:23:43Z</time>
      </trkpt>
      <trkpt lat="46.63499" lon="0.37318">
        <ele>70.7</ele>
        <time>2020-07-03T18:23:44Z</time>
      </trkpt>
      <trkpt lat="46.63494" lon="0.37314">
        <ele>70.9</ele>
        <time>2020-07-03T18:23:45Z</time>
      </trkpt>
      <trkpt lat="46.63489" lon="0.37311">
        <ele>71.1</ele>
        <time>2020-07-03T18:23:46Z</time>
      </trkpt>
      <trkpt lat="46.63486" lon="0.37307">
        <ele>71.2</ele>
        <time>2020-07-03T18:23:47Z</time>
      </trkpt>
      <trkpt lat="46.63483" lon="0.37305">
        <ele>71.3</ele>
        <time>2020-07-03T18:23:48Z</time>
      </trkpt>
      <trkpt lat="46.63479" lon="0.37302">
        <ele>71.5</ele>
        <time>2020-07-03T18:23:49Z</time>
      </trkpt>
      <trkpt lat="46.63475" lon="0.37298">
        <ele>71.6</ele>
        <time>2020-07-03T18:23:50Z</time>
      </trkpt>
      <trkpt lat="46.63472" lon="0.37296">
        <ele>71.7</ele>
        <time>2020-07-03T18:23:51Z</time>
      </trkpt>
      <trkpt lat="46.6347" lon="0.37292">
        <ele>71.8</ele>
        <time>2020-07-03T18:23:52Z</time>
      </trkpt>
      <trkpt lat="46.63467" lon="0.37289">
        <ele>71.9</ele>
        <time>2020-07-03T18:23:53Z</time>
      </trkpt>
      <trkpt lat="46.63464" lon="0.37286">
        <ele>72</ele>
        <time>2020-07-03T18:23:54Z</time>
      </trkpt>
      <trkpt lat="46.6346" lon="0.37283">
        <ele>72.1</ele>
        <time>2020-07-03T18:23:55Z</time>
      </trkpt>
      <trkpt lat="46.63457" lon="0.3728">
        <ele>72.2</ele>
        <time>2020-07-03T18:23:56Z</time>
      </trkpt>
      <trkpt lat="46.63454" lon="0.37279">
        <ele>72.3</ele>
        <time>2020-07-03T18:23:57Z</time>
      </trkpt>
      <trkpt lat="46.63451" lon="0.37277">
        <ele>72.4</ele>
        <time>2020-07-03T18:23:58Z</time>
      </trkpt>
      <trkpt lat="46.63448" lon="0.37274">
        <ele>72.5</ele>
        <time>2020-07-03T18:23:59Z</time>
      </trkpt>
      <trkpt lat="46.63445" lon="0.3727">
        <ele>72.6</ele>
        <time>2020-07-03T18:24:00Z</time>
      </trkpt>
      <trkpt lat="46.63442" lon="0.37269">
        <ele>72.7</ele>
        <time>2020-07-03T18:24:01Z</time>
      </trkpt>
      <trkpt lat="46.63438" lon="0.37266">
        <ele>72.8</ele>
        <time>2020-07-03T18:24:02Z</time>
      </trkpt>
      <trkpt lat="46.63435" lon="0.37264">
        <ele>72.9</ele>
        <time>2020-07-03T18:24:03Z</time>
      </trkpt>
      <trkpt lat="46.63433" lon="0.37262">
        <ele>72.9</ele>
        <time>2020-07-03T18:24:04Z</time>
      </trkpt>
      <trkpt lat="46.6343" lon="0.37258">
        <ele>73</ele>
        <time>2020-07-03T18:24:05Z</time>
      </trkpt>
      <trkpt lat="46.63427" lon="0.37255">
        <ele>73.1</ele>
        <time>2020-07-03T18:24:06Z</time>
      </trkpt>
      <trkpt lat="46.63422" lon="0.37253">
        <ele>73.3</ele>
        <time>2020-07-03T18:24:07Z</time>
      </trkpt>
      <trkpt lat="46.6342" lon="0.37251">
        <ele>73.3</ele>
        <time>2020-07-03T18:24:08Z</time>
      </trkpt>
      <trkpt lat="46.63417" lon="0.37249">
        <ele>73.4</ele>
        <time>2020-07-03T18:24:09Z</time>
      </trkpt>
      <trkpt lat="46.63414" lon="0.37246">
        <ele>73.5</ele>
        <time>2020-07-03T18:24:10Z</time>
      </trkpt>
      <trkpt lat="46.63412" lon="0.37244">
        <ele>73.5</ele>
        <time>2020-07-03T18:24:11Z</time>
      </trkpt>
      <trkpt lat="46.6341" lon="0.37242">
        <ele>73.6</ele>
        <time>2020-07-03T18:24:12Z</time>
      </trkpt>
      <trkpt lat="46.63408" lon="0.37239">
        <ele>73.6</ele>
        <time>2020-07-03T18:24:13Z</time>
      </trkpt>
      <trkpt lat="46.63407" lon="0.37238">
        <ele>73.6</ele>
        <time>2020-07-03T18:24:14Z</time>
      </trkpt>
      <trkpt lat="46.63404" lon="0.37235">
        <ele>73.7</ele>
        <time>2020-07-03T18:24:15Z</time>
      </trkpt>
      <trkpt lat="46.63403" lon="0.37233">
        <ele>73.7</ele>
        <time>2020-07-03T18:24:16Z</time>
      </trkpt>
      <trkpt lat="46.634" lon="0.3723">
        <ele>73.7</ele>
        <time>2020-07-03T18:24:17Z</time>
      </trkpt>
      <trkpt lat="46.63398" lon="0.37227">
        <ele>73.7</ele>
        <time>2020-07-03T18:24:18Z</time>
      </trkpt>
      <trkpt lat="46.63395" lon="0.37223">
        <ele>73.7</ele>
        <time>2020-07-03T18:24:19Z</time>
      </trkpt>
      <trkpt lat="46.63391" lon="0.37218">
        <ele>73.6</ele>
        <time>2020-07-03T18:24:20Z</time>
      </trkpt>
      <trkpt lat="46.63387" lon="0.37213">
        <ele>73.6</ele>
        <time>2020-07-03T18:24:21Z</time>
      </trkpt>
      <trkpt lat="46.63383" lon="0.37209">
        <ele>73.5</ele>
        <time>2020-07-03T18:24:22Z</time>
      </trkpt>
      <trkpt lat="46.63378" lon="0.37203">
        <ele>73.5</ele>
        <time>2020-07-03T18:24:23Z</time>
      </trkpt>
      <trkpt lat="46.63374" lon="0.37196">
        <ele>73.4</ele>
        <time>2020-07-03T18:24:24Z</time>
      </trkpt>
      <trkpt lat="46.6337" lon="0.37191">
        <ele>73.4</ele>
        <time>2020-07-03T18:24:25Z</time>
      </trkpt>
      <trkpt lat="46.63366" lon="0.37184">
        <ele>73.2</ele>
        <time>2020-07-03T18:24:26Z</time>
      </trkpt>
      <trkpt lat="46.63363" lon="0.3718">
        <ele>73.2</ele>
        <time>2020-07-03T18:24:27Z</time>
      </trkpt>
      <trkpt lat="46.63359" lon="0.37174">
        <ele>73</ele>
        <time>2020-07-03T18:24:28Z</time>
      </trkpt>
      <trkpt lat="46.63356" lon="0.37166">
        <ele>72.8</ele>
        <time>2020-07-03T18:24:29Z</time>
      </trkpt>
      <trkpt lat="46.63352" lon="0.3716">
        <ele>72.7</ele>
        <time>2020-07-03T18:24:30Z</time>
      </trkpt>
      <trkpt lat="46.63348" lon="0.37153">
        <ele>72.6</ele>
        <time>2020-07-03T18:24:31Z</time>
      </trkpt>
      <trkpt lat="46.63345" lon="0.37147">
        <ele>72.4</ele>
        <time>2020-07-03T18:24:32Z</time>
      </trkpt>
      <trkpt lat="46.6334" lon="0.3714">
        <ele>72.3</ele>
        <time>2020-07-03T18:24:33Z</time>
      </trkpt>
      <trkpt lat="46.63337" lon="0.37132">
        <ele>72.2</ele>
        <time>2020-07-03T18:24:34Z</time>
      </trkpt>
      <trkpt lat="46.63333" lon="0.37126">
        <ele>72.1</ele>
        <time>2020-07-03T18:24:35Z</time>
      </trkpt>
      <trkpt lat="46.63329" lon="0.37119">
        <ele>72</ele>
        <time>2020-07-03T18:24:36Z</time>
      </trkpt>
      <trkpt lat="46.63325" lon="0.37112">
        <ele>71.9</ele>
        <time>2020-07-03T18:24:37Z</time>
      </trkpt>
      <trkpt lat="46.6332" lon="0.37105">
        <ele>71.8</ele>
        <time>2020-07-03T18:24:38Z</time>
      </trkpt>
      <trkpt lat="46.63315" lon="0.37098">
        <ele>71.7</ele>
        <time>2020-07-03T18:24:39Z</time>
      </trkpt>
      <trkpt lat="46.63311" lon="0.37092">
        <ele>71.6</ele>
        <time>2020-07-03T18:24:40Z</time>
      </trkpt>
      <trkpt lat="46.63306" lon="0.37085">
        <ele>71.4</ele>
        <time>2020-07-03T18:24:41Z</time>
      </trkpt>
      <trkpt lat="46.63301" lon="0.37078">
        <ele>71.3</ele>
        <time>2020-07-03T18:24:42Z</time>
      </trkpt>
      <trkpt lat="46.63296" lon="0.37071">
        <ele>71.2</ele>
        <time>2020-07-03T18:24:43Z</time>
      </trkpt>
      <trkpt lat="46.63291" lon="0.37065">
        <ele>71.1</ele>
        <time>2020-07-03T18:24:44Z</time>
      </trkpt>
      <trkpt lat="46.63286" lon="0.37059">
        <ele>71</ele>
        <time>2020-07-03T18:24:45Z</time>
      </trkpt>
      <trkpt lat="46.6328" lon="0.37051">
        <ele>71</ele>
        <time>2020-07-03T18:24:46Z</time>
      </trkpt>
      <trkpt lat="46.63274" lon="0.37044">
        <ele>71</ele>
        <time>2020-07-03T18:24:47Z</time>
      </trkpt>
      <trkpt lat="46.63271" lon="0.37037">
        <ele>70.9</ele>
        <time>2020-07-03T18:24:48Z</time>
      </trkpt>
      <trkpt lat="46.63267" lon="0.37029">
        <ele>70.9</ele>
        <time>2020-07-03T18:24:49Z</time>
      </trkpt>
      <trkpt lat="46.63262" lon="0.37023">
        <ele>70.9</ele>
        <time>2020-07-03T18:24:50Z</time>
      </trkpt>
      <trkpt lat="46.63256" lon="0.37018">
        <ele>71</ele>
        <time>2020-07-03T18:24:51Z</time>
      </trkpt>
      <trkpt lat="46.63252" lon="0.37011">
        <ele>71</ele>
        <time>2020-07-03T18:24:52Z</time>
      </trkpt>
      <trkpt lat="46.63247" lon="0.37005">
        <ele>70.9</ele>
        <time>2020-07-03T18:24:53Z</time>
      </trkpt>
      <trkpt lat="46.63241" lon="0.37001">
        <ele>70.9</ele>
        <time>2020-07-03T18:24:54Z</time>
      </trkpt>
      <trkpt lat="46.63236" lon="0.36995">
        <ele>70.9</ele>
        <time>2020-07-03T18:24:55Z</time>
      </trkpt>
      <trkpt lat="46.63231" lon="0.36989">
        <ele>70.9</ele>
        <time>2020-07-03T18:24:56Z</time>
      </trkpt>
      <trkpt lat="46.63226" lon="0.36984">
        <ele>70.9</ele>
        <time>2020-07-03T18:24:57Z</time>
      </trkpt>
      <trkpt lat="46.63221" lon="0.36979">
        <ele>71</ele>
        <time>2020-07-03T18:24:58Z</time>
      </trkpt>
      <trkpt lat="46.63216" lon="0.36973">
        <ele>71</ele>
        <time>2020-07-03T18:24:59Z</time>
      </trkpt>
      <trkpt lat="46.63211" lon="0.36968">
        <ele>71.1</ele>
        <time>2020-07-03T18:25:00Z</time>
      </trkpt>
      <trkpt lat="46.63207" lon="0.36962">
        <ele>71.1</ele>
        <time>2020-07-03T18:25:01Z</time>
      </trkpt>
      <trkpt lat="46.63202" lon="0.36957">
        <ele>71.2</ele>
        <time>2020-07-03T18:25:02Z</time>
      </trkpt>
      <trkpt lat="46.63197" lon="0.36951">
        <ele>71.2</ele>
        <time>2020-07-03T18:25:03Z</time>
      </trkpt>
      <trkpt lat="46.63192" lon="0.36947">
        <ele>71.2</ele>
        <time>2020-07-03T18:25:04Z</time>
      </trkpt>
      <trkpt lat="46.63187" lon="0.36944">
        <ele>71.3</ele>
        <time>2020-07-03T18:25:05Z</time>
      </trkpt>
      <trkpt lat="46.63182" lon="0.3694">
        <ele>71.4</ele>
        <time>2020-07-03T18:25:06Z</time>
      </trkpt>
      <trkpt lat="46.63176" lon="0.36937">
        <ele>71.4</ele>
        <time>2020-07-03T18:25:07Z</time>
      </trkpt>
      <trkpt lat="46.63171" lon="0.36936">
        <ele>71.5</ele>
        <time>2020-07-03T18:25:08Z</time>
      </trkpt>
      <trkpt lat="46.63165" lon="0.36935">
        <ele>71.6</ele>
        <time>2020-07-03T18:25:09Z</time>
      </trkpt>
      <trkpt lat="46.63159" lon="0.36933">
        <ele>71.8</ele>
        <time>2020-07-03T18:25:10Z</time>
      </trkpt>
      <trkpt lat="46.63152" lon="0.3693">
        <ele>71.9</ele>
        <time>2020-07-03T18:25:11Z</time>
      </trkpt>
      <trkpt lat="46.63147" lon="0.36928">
        <ele>72</ele>
        <time>2020-07-03T18:25:12Z</time>
      </trkpt>
      <trkpt lat="46.63142" lon="0.36927">
        <ele>72.1</ele>
        <time>2020-07-03T18:25:13Z</time>
      </trkpt>
      <trkpt lat="46.63136" lon="0.36924">
        <ele>72.2</ele>
        <time>2020-07-03T18:25:14Z</time>
      </trkpt>
      <trkpt lat="46.63131" lon="0.36923">
        <ele>72.2</ele>
        <time>2020-07-03T18:25:15Z</time>
      </trkpt>
      <trkpt lat="46.63126" lon="0.36921">
        <ele>72.3</ele>
        <time>2020-07-03T18:25:16Z</time>
      </trkpt>
      <trkpt lat="46.63122" lon="0.3692">
        <ele>72.4</ele>
        <time>2020-07-03T18:25:17Z</time>
      </trkpt>
      <trkpt lat="46.63118" lon="0.36918">
        <ele>72.4</ele>
        <time>2020-07-03T18:25:18Z</time>
      </trkpt>
      <trkpt lat="46.63113" lon="0.36917">
        <ele>72.5</ele>
        <time>2020-07-03T18:25:19Z</time>
      </trkpt>
      <trkpt lat="46.63107" lon="0.36918">
        <ele>72.7</ele>
        <time>2020-07-03T18:25:20Z</time>
      </trkpt>
      <trkpt lat="46.63102" lon="0.36923">
        <ele>72.9</ele>
        <time>2020-07-03T18:25:21Z</time>
      </trkpt>
      <trkpt lat="46.63097" lon="0.36928">
        <ele>72.9</ele>
        <time>2020-07-03T18:25:22Z</time>
      </trkpt>
      <trkpt lat="46.63093" lon="0.36931">
        <ele>72.9</ele>
        <time>2020-07-03T18:25:23Z</time>
      </trkpt>
      <trkpt lat="46.63088" lon="0.36931">
        <ele>72.9</ele>
        <time>2020-07-03T18:25:24Z</time>
      </trkpt>
      <trkpt lat="46.63083" lon="0.36931">
        <ele>73</ele>
        <time>2020-07-03T18:25:25Z</time>
      </trkpt>
      <trkpt lat="46.63079" lon="0.36932">
        <ele>73.1</ele>
        <time>2020-07-03T18:25:26Z</time>
      </trkpt>
      <trkpt lat="46.63074" lon="0.36932">
        <ele>73.2</ele>
        <time>2020-07-03T18:25:27Z</time>
      </trkpt>
      <trkpt lat="46.63069" lon="0.36933">
        <ele>73.3</ele>
        <time>2020-07-03T18:25:28Z</time>
      </trkpt>
      <trkpt lat="46.63065" lon="0.36934">
        <ele>73.4</ele>
        <time>2020-07-03T18:25:29Z</time>
      </trkpt>
      <trkpt lat="46.6306" lon="0.36933">
        <ele>73.4</ele>
        <time>2020-07-03T18:25:30Z</time>
      </trkpt>
      <trkpt lat="46.63054" lon="0.36931">
        <ele>73.8</ele>
        <time>2020-07-03T18:25:31Z</time>
      </trkpt>
      <trkpt lat="46.63049" lon="0.36927">
        <ele>74.2</ele>
        <time>2020-07-03T18:25:32Z</time>
      </trkpt>
      <trkpt lat="46.63044" lon="0.36923">
        <ele>74.4</ele>
        <time>2020-07-03T18:25:33Z</time>
      </trkpt>
      <trkpt lat="46.6304" lon="0.3692">
        <ele>74.4</ele>
        <time>2020-07-03T18:25:34Z</time>
      </trkpt>
      <trkpt lat="46.63036" lon="0.36917">
        <ele>74.3</ele>
        <time>2020-07-03T18:25:35Z</time>
      </trkpt>
      <trkpt lat="46.63031" lon="0.36915">
        <ele>74.2</ele>
        <time>2020-07-03T18:25:36Z</time>
      </trkpt>
      <trkpt lat="46.63027" lon="0.36912">
        <ele>74.1</ele>
        <time>2020-07-03T18:25:37Z</time>
      </trkpt>
      <trkpt lat="46.63022" lon="0.36909">
        <ele>74</ele>
        <time>2020-07-03T18:25:38Z</time>
      </trkpt>
      <trkpt lat="46.63018" lon="0.36906">
        <ele>73.9</ele>
        <time>2020-07-03T18:25:39Z</time>
      </trkpt>
      <trkpt lat="46.63013" lon="0.36903">
        <ele>73.8</ele>
        <time>2020-07-03T18:25:40Z</time>
      </trkpt>
      <trkpt lat="46.63006" lon="0.369">
        <ele>73.7</ele>
        <time>2020-07-03T18:25:41Z</time>
      </trkpt>
      <trkpt lat="46.63" lon="0.36893">
        <ele>73.6</ele>
        <time>2020-07-03T18:25:42Z</time>
      </trkpt>
      <trkpt lat="46.62996" lon="0.36888">
        <ele>73.5</ele>
        <time>2020-07-03T18:25:43Z</time>
      </trkpt>
      <trkpt lat="46.6299" lon="0.36885">
        <ele>73.4</ele>
        <time>2020-07-03T18:25:44Z</time>
      </trkpt>
      <trkpt lat="46.62984" lon="0.36883">
        <ele>73.3</ele>
        <time>2020-07-03T18:25:45Z</time>
      </trkpt>
      <trkpt lat="46.6298" lon="0.3688">
        <ele>73.3</ele>
        <time>2020-07-03T18:25:46Z</time>
      </trkpt>
      <trkpt lat="46.62976" lon="0.36875">
        <ele>73.2</ele>
        <time>2020-07-03T18:25:47Z</time>
      </trkpt>
      <trkpt lat="46.62971" lon="0.36869">
        <ele>73.1</ele>
        <time>2020-07-03T18:25:48Z</time>
      </trkpt>
      <trkpt lat="46.62966" lon="0.36863">
        <ele>73.1</ele>
        <time>2020-07-03T18:25:49Z</time>
      </trkpt>
      <trkpt lat="46.62961" lon="0.36857">
        <ele>73</ele>
        <time>2020-07-03T18:25:50Z</time>
      </trkpt>
      <trkpt lat="46.62957" lon="0.36851">
        <ele>72.9</ele>
        <time>2020-07-03T18:25:51Z</time>
      </trkpt>
      <trkpt lat="46.62952" lon="0.36846">
        <ele>72.8</ele>
        <time>2020-07-03T18:25:52Z</time>
      </trkpt>
      <trkpt lat="46.62948" lon="0.36839">
        <ele>72.8</ele>
        <time>2020-07-03T18:25:53Z</time>
      </trkpt>
      <trkpt lat="46.62944" lon="0.36833">
        <ele>72.7</ele>
        <time>2020-07-03T18:25:54Z</time>
      </trkpt>
      <trkpt lat="46.62939" lon="0.36826">
        <ele>72.6</ele>
        <time>2020-07-03T18:25:55Z</time>
      </trkpt>
      <trkpt lat="46.62934" lon="0.36821">
        <ele>72.5</ele>
        <time>2020-07-03T18:25:56Z</time>
      </trkpt>
      <trkpt lat="46.62929" lon="0.36813">
        <ele>72.5</ele>
        <time>2020-07-03T18:25:57Z</time>
      </trkpt>
      <trkpt lat="46.62925" lon="0.36806">
        <ele>72.4</ele>
        <time>2020-07-03T18:25:58Z</time>
      </trkpt>
      <trkpt lat="46.62921" lon="0.36801">
        <ele>72.4</ele>
        <time>2020-07-03T18:25:59Z</time>
      </trkpt>
      <trkpt lat="46.62918" lon="0.36794">
        <ele>72.4</ele>
        <time>2020-07-03T18:26:00Z</time>
      </trkpt>
      <trkpt lat="46.62913" lon="0.36787">
        <ele>72.3</ele>
        <time>2020-07-03T18:26:01Z</time>
      </trkpt>
      <trkpt lat="46.62908" lon="0.3678">
        <ele>72.3</ele>
        <time>2020-07-03T18:26:02Z</time>
      </trkpt>
      <trkpt lat="46.62904" lon="0.36775">
        <ele>72.3</ele>
        <time>2020-07-03T18:26:03Z</time>
      </trkpt>
      <trkpt lat="46.62899" lon="0.36769">
        <ele>72.3</ele>
        <time>2020-07-03T18:26:04Z</time>
      </trkpt>
      <trkpt lat="46.62894" lon="0.36763">
        <ele>72.2</ele>
        <time>2020-07-03T18:26:05Z</time>
      </trkpt>
      <trkpt lat="46.6289" lon="0.36758">
        <ele>72.2</ele>
        <time>2020-07-03T18:26:06Z</time>
      </trkpt>
      <trkpt lat="46.62886" lon="0.36753">
        <ele>72.2</ele>
        <time>2020-07-03T18:26:07Z</time>
      </trkpt>
      <trkpt lat="46.62882" lon="0.36748">
        <ele>72.1</ele>
        <time>2020-07-03T18:26:08Z</time>
      </trkpt>
      <trkpt lat="46.62878" lon="0.36742">
        <ele>72.1</ele>
        <time>2020-07-03T18:26:09Z</time>
      </trkpt>
      <trkpt lat="46.62875" lon="0.36738">
        <ele>72.1</ele>
        <time>2020-07-03T18:26:10Z</time>
      </trkpt>
      <trkpt lat="46.62872" lon="0.36731">
        <ele>72</ele>
        <time>2020-07-03T18:26:11Z</time>
      </trkpt>
      <trkpt lat="46.62867" lon="0.36724">
        <ele>71.9</ele>
        <time>2020-07-03T18:26:12Z</time>
      </trkpt>
      <trkpt lat="46.62864" lon="0.3672">
        <ele>71.8</ele>
        <time>2020-07-03T18:26:13Z</time>
      </trkpt>
      <trkpt lat="46.62859" lon="0.36712">
        <ele>71.7</ele>
        <time>2020-07-03T18:26:14Z</time>
      </trkpt>
      <trkpt lat="46.62854" lon="0.36705">
        <ele>71.6</ele>
        <time>2020-07-03T18:26:15Z</time>
      </trkpt>
      <trkpt lat="46.62849" lon="0.36698">
        <ele>71.5</ele>
        <time>2020-07-03T18:26:16Z</time>
      </trkpt>
      <trkpt lat="46.62845" lon="0.36693">
        <ele>71.5</ele>
        <time>2020-07-03T18:26:17Z</time>
      </trkpt>
      <trkpt lat="46.6284" lon="0.36687">
        <ele>71.4</ele>
        <time>2020-07-03T18:26:18Z</time>
      </trkpt>
      <trkpt lat="46.62836" lon="0.3668">
        <ele>71.4</ele>
        <time>2020-07-03T18:26:19Z</time>
      </trkpt>
      <trkpt lat="46.62832" lon="0.36675">
        <ele>71.3</ele>
        <time>2020-07-03T18:26:20Z</time>
      </trkpt>
      <trkpt lat="46.62827" lon="0.36669">
        <ele>71.3</ele>
        <time>2020-07-03T18:26:21Z</time>
      </trkpt>
      <trkpt lat="46.62822" lon="0.36664">
        <ele>71.3</ele>
        <time>2020-07-03T18:26:22Z</time>
      </trkpt>
      <trkpt lat="46.62817" lon="0.36658">
        <ele>71.2</ele>
        <time>2020-07-03T18:26:23Z</time>
      </trkpt>
      <trkpt lat="46.62811" lon="0.36653">
        <ele>71.1</ele>
        <time>2020-07-03T18:26:24Z</time>
      </trkpt>
      <trkpt lat="46.62804" lon="0.36647">
        <ele>71.1</ele>
        <time>2020-07-03T18:26:25Z</time>
      </trkpt>
      <trkpt lat="46.62799" lon="0.36645">
        <ele>71.1</ele>
        <time>2020-07-03T18:26:26Z</time>
      </trkpt>
      <trkpt lat="46.62793" lon="0.36642">
        <ele>71</ele>
        <time>2020-07-03T18:26:27Z</time>
      </trkpt>
      <trkpt lat="46.62786" lon="0.36638">
        <ele>71</ele>
        <time>2020-07-03T18:26:28Z</time>
      </trkpt>
      <trkpt lat="46.6278" lon="0.36636">
        <ele>71</ele>
        <time>2020-07-03T18:26:29Z</time>
      </trkpt>
      <trkpt lat="46.62773" lon="0.36635">
        <ele>71</ele>
        <time>2020-07-03T18:26:30Z</time>
      </trkpt>
      <trkpt lat="46.62767" lon="0.36634">
        <ele>71</ele>
        <time>2020-07-03T18:26:31Z</time>
      </trkpt>
      <trkpt lat="46.62762" lon="0.36633">
        <ele>71</ele>
        <time>2020-07-03T18:26:32Z</time>
      </trkpt>
      <trkpt lat="46.62754" lon="0.36631">
        <ele>71.1</ele>
        <time>2020-07-03T18:26:33Z</time>
      </trkpt>
      <trkpt lat="46.62748" lon="0.36632">
        <ele>71.2</ele>
        <time>2020-07-03T18:26:34Z</time>
      </trkpt>
      <trkpt lat="46.62743" lon="0.36632">
        <ele>71.4</ele>
        <time>2020-07-03T18:26:35Z</time>
      </trkpt>
      <trkpt lat="46.62738" lon="0.36632">
        <ele>71.5</ele>
        <time>2020-07-03T18:26:36Z</time>
      </trkpt>
      <trkpt lat="46.62733" lon="0.36632">
        <ele>71.6</ele>
        <time>2020-07-03T18:26:37Z</time>
      </trkpt>
      <trkpt lat="46.62729" lon="0.36631">
        <ele>71.5</ele>
        <time>2020-07-03T18:26:38Z</time>
      </trkpt>
      <trkpt lat="46.62723" lon="0.36631">
        <ele>71.5</ele>
        <time>2020-07-03T18:26:39Z</time>
      </trkpt>
      <trkpt lat="46.62717" lon="0.36629">
        <ele>71.5</ele>
        <time>2020-07-03T18:26:40Z</time>
      </trkpt>
      <trkpt lat="46.62713" lon="0.36627">
        <ele>71.5</ele>
        <time>2020-07-03T18:26:41Z</time>
      </trkpt>
      <trkpt lat="46.62707" lon="0.36621">
        <ele>71.6</ele>
        <time>2020-07-03T18:26:42Z</time>
      </trkpt>
      <trkpt lat="46.62703" lon="0.36616">
        <ele>71.9</ele>
        <time>2020-07-03T18:26:43Z</time>
      </trkpt>
      <trkpt lat="46.627" lon="0.36611">
        <ele>72.1</ele>
        <time>2020-07-03T18:26:44Z</time>
      </trkpt>
      <trkpt lat="46.62696" lon="0.36608">
        <ele>72.1</ele>
        <time>2020-07-03T18:26:45Z</time>
      </trkpt>
      <trkpt lat="46.62691" lon="0.36608">
        <ele>72.1</ele>
        <time>2020-07-03T18:26:46Z</time>
      </trkpt>
      <trkpt lat="46.62686" lon="0.36612">
        <ele>72.1</ele>
        <time>2020-07-03T18:26:47Z</time>
      </trkpt>
      <trkpt lat="46.62682" lon="0.36615">
        <ele>72.1</ele>
        <time>2020-07-03T18:26:48Z</time>
      </trkpt>
      <trkpt lat="46.62676" lon="0.36619">
        <ele>73.4</ele>
        <time>2020-07-03T18:26:49Z</time>
      </trkpt>
      <trkpt lat="46.62672" lon="0.36623">
        <ele>73.3</ele>
        <time>2020-07-03T18:26:50Z</time>
      </trkpt>
      <trkpt lat="46.62668" lon="0.36626">
        <ele>73.3</ele>
        <time>2020-07-03T18:26:51Z</time>
      </trkpt>
      <trkpt lat="46.62664" lon="0.36627">
        <ele>73.3</ele>
        <time>2020-07-03T18:26:52Z</time>
      </trkpt>
      <trkpt lat="46.6266" lon="0.36629">
        <ele>73.2</ele>
        <time>2020-07-03T18:26:53Z</time>
      </trkpt>
      <trkpt lat="46.62656" lon="0.36631">
        <ele>73.2</ele>
        <time>2020-07-03T18:26:54Z</time>
      </trkpt>
      <trkpt lat="46.62652" lon="0.36632">
        <ele>73.2</ele>
        <time>2020-07-03T18:26:55Z</time>
      </trkpt>
      <trkpt lat="46.62647" lon="0.36632">
        <ele>73.2</ele>
        <time>2020-07-03T18:26:56Z</time>
      </trkpt>
      <trkpt lat="46.62644" lon="0.36632">
        <ele>73.2</ele>
        <time>2020-07-03T18:26:57Z</time>
      </trkpt>
      <trkpt lat="46.62639" lon="0.36633">
        <ele>73.4</ele>
        <time>2020-07-03T18:26:58Z</time>
      </trkpt>
      <trkpt lat="46.62635" lon="0.36631">
        <ele>73.5</ele>
        <time>2020-07-03T18:26:59Z</time>
      </trkpt>
      <trkpt lat="46.62631" lon="0.36631">
        <ele>73.5</ele>
        <time>2020-07-03T18:27:00Z</time>
      </trkpt>
      <trkpt lat="46.62628" lon="0.36631">
        <ele>73.6</ele>
        <time>2020-07-03T18:27:01Z</time>
      </trkpt>
      <trkpt lat="46.62624" lon="0.3663">
        <ele>73.7</ele>
        <time>2020-07-03T18:27:02Z</time>
      </trkpt>
      <trkpt lat="46.6262" lon="0.36629">
        <ele>73.8</ele>
        <time>2020-07-03T18:27:03Z</time>
      </trkpt>
      <trkpt lat="46.62615" lon="0.36628">
        <ele>73.9</ele>
        <time>2020-07-03T18:27:04Z</time>
      </trkpt>
      <trkpt lat="46.6261" lon="0.36626">
        <ele>74</ele>
        <time>2020-07-03T18:27:05Z</time>
      </trkpt>
      <trkpt lat="46.62608" lon="0.36624">
        <ele>74.1</ele>
        <time>2020-07-03T18:27:06Z</time>
      </trkpt>
      <trkpt lat="46.62604" lon="0.36622">
        <ele>74.2</ele>
        <time>2020-07-03T18:27:07Z</time>
      </trkpt>
      <trkpt lat="46.62602" lon="0.36621">
        <ele>74.2</ele>
        <time>2020-07-03T18:27:08Z</time>
      </trkpt>
      <trkpt lat="46.62599" lon="0.3662">
        <ele>74.3</ele>
        <time>2020-07-03T18:27:09Z</time>
      </trkpt>
      <trkpt lat="46.62596" lon="0.36619">
        <ele>74.5</ele>
        <time>2020-07-03T18:27:10Z</time>
      </trkpt>
      <trkpt lat="46.62593" lon="0.36618">
        <ele>74.6</ele>
        <time>2020-07-03T18:27:11Z</time>
      </trkpt>
      <trkpt lat="46.62588" lon="0.36616">
        <ele>74.7</ele>
        <time>2020-07-03T18:27:12Z</time>
      </trkpt>
      <trkpt lat="46.62585" lon="0.36614">
        <ele>74.8</ele>
        <time>2020-07-03T18:27:13Z</time>
      </trkpt>
      <trkpt lat="46.6258" lon="0.36613">
        <ele>74.9</ele>
        <time>2020-07-03T18:27:14Z</time>
      </trkpt>
      <trkpt lat="46.62575" lon="0.36611">
        <ele>75</ele>
        <time>2020-07-03T18:27:15Z</time>
      </trkpt>
      <trkpt lat="46.62571" lon="0.3661">
        <ele>75.1</ele>
        <time>2020-07-03T18:27:16Z</time>
      </trkpt>
      <trkpt lat="46.62567" lon="0.36606">
        <ele>75.2</ele>
        <time>2020-07-03T18:27:17Z</time>
      </trkpt>
      <trkpt lat="46.62564" lon="0.36603">
        <ele>75.2</ele>
        <time>2020-07-03T18:27:18Z</time>
      </trkpt>
      <trkpt lat="46.62561" lon="0.36601">
        <ele>75.3</ele>
        <time>2020-07-03T18:27:19Z</time>
      </trkpt>
      <trkpt lat="46.62557" lon="0.36599">
        <ele>75.4</ele>
        <time>2020-07-03T18:27:20Z</time>
      </trkpt>
      <trkpt lat="46.62552" lon="0.36596">
        <ele>75.5</ele>
        <time>2020-07-03T18:27:21Z</time>
      </trkpt>
      <trkpt lat="46.62549" lon="0.36594">
        <ele>75.5</ele>
        <time>2020-07-03T18:27:22Z</time>
      </trkpt>
      <trkpt lat="46.62546" lon="0.36591">
        <ele>75.6</ele>
        <time>2020-07-03T18:27:23Z</time>
      </trkpt>
      <trkpt lat="46.62543" lon="0.36588">
        <ele>75.7</ele>
        <time>2020-07-03T18:27:24Z</time>
      </trkpt>
      <trkpt lat="46.62539" lon="0.36585">
        <ele>75.7</ele>
        <time>2020-07-03T18:27:25Z</time>
      </trkpt>
      <trkpt lat="46.62534" lon="0.36581">
        <ele>75.8</ele>
        <time>2020-07-03T18:27:26Z</time>
      </trkpt>
      <trkpt lat="46.6253" lon="0.36578">
        <ele>75.9</ele>
        <time>2020-07-03T18:27:27Z</time>
      </trkpt>
      <trkpt lat="46.62525" lon="0.36576">
        <ele>75.9</ele>
        <time>2020-07-03T18:27:28Z</time>
      </trkpt>
      <trkpt lat="46.62522" lon="0.36573">
        <ele>75.9</ele>
        <time>2020-07-03T18:27:29Z</time>
      </trkpt>
      <trkpt lat="46.62519" lon="0.36572">
        <ele>75.9</ele>
        <time>2020-07-03T18:27:30Z</time>
      </trkpt>
      <trkpt lat="46.62516" lon="0.36567">
        <ele>75.9</ele>
        <time>2020-07-03T18:27:31Z</time>
      </trkpt>
      <trkpt lat="46.62511" lon="0.3656">
        <ele>75.9</ele>
        <time>2020-07-03T18:27:32Z</time>
      </trkpt>
      <trkpt lat="46.62508" lon="0.36556">
        <ele>75.9</ele>
        <time>2020-07-03T18:27:33Z</time>
      </trkpt>
      <trkpt lat="46.62504" lon="0.36552">
        <ele>75.9</ele>
        <time>2020-07-03T18:27:34Z</time>
      </trkpt>
      <trkpt lat="46.62498" lon="0.36547">
        <ele>75.8</ele>
        <time>2020-07-03T18:27:35Z</time>
      </trkpt>
      <trkpt lat="46.62495" lon="0.3654">
        <ele>75.7</ele>
        <time>2020-07-03T18:27:36Z</time>
      </trkpt>
      <trkpt lat="46.62492" lon="0.36534">
        <ele>75.6</ele>
        <time>2020-07-03T18:27:37Z</time>
      </trkpt>
      <trkpt lat="46.62489" lon="0.36527">
        <ele>75.5</ele>
        <time>2020-07-03T18:27:38Z</time>
      </trkpt>
      <trkpt lat="46.62485" lon="0.3652">
        <ele>75.4</ele>
        <time>2020-07-03T18:27:39Z</time>
      </trkpt>
      <trkpt lat="46.62482" lon="0.36513">
        <ele>75.3</ele>
        <time>2020-07-03T18:27:40Z</time>
      </trkpt>
      <trkpt lat="46.62479" lon="0.36506">
        <ele>75.1</ele>
        <time>2020-07-03T18:27:41Z</time>
      </trkpt>
      <trkpt lat="46.62476" lon="0.36497">
        <ele>75</ele>
        <time>2020-07-03T18:27:42Z</time>
      </trkpt>
      <trkpt lat="46.62472" lon="0.36489">
        <ele>74.8</ele>
        <time>2020-07-03T18:27:43Z</time>
      </trkpt>
      <trkpt lat="46.6247" lon="0.36482">
        <ele>74.6</ele>
        <time>2020-07-03T18:27:44Z</time>
      </trkpt>
      <trkpt lat="46.62467" lon="0.36472">
        <ele>74.4</ele>
        <time>2020-07-03T18:27:45Z</time>
      </trkpt>
      <trkpt lat="46.62464" lon="0.36462">
        <ele>74.1</ele>
        <time>2020-07-03T18:27:46Z</time>
      </trkpt>
      <trkpt lat="46.62462" lon="0.36451">
        <ele>73.9</ele>
        <time>2020-07-03T18:27:47Z</time>
      </trkpt>
      <trkpt lat="46.6246" lon="0.36441">
        <ele>73.6</ele>
        <time>2020-07-03T18:27:48Z</time>
      </trkpt>
      <trkpt lat="46.62457" lon="0.36431">
        <ele>73.5</ele>
        <time>2020-07-03T18:27:49Z</time>
      </trkpt>
      <trkpt lat="46.62455" lon="0.36421">
        <ele>73.3</ele>
        <time>2020-07-03T18:27:50Z</time>
      </trkpt>
      <trkpt lat="46.62452" lon="0.36411">
        <ele>73.1</ele>
        <time>2020-07-03T18:27:51Z</time>
      </trkpt>
      <trkpt lat="46.62449" lon="0.36402">
        <ele>72.9</ele>
        <time>2020-07-03T18:27:52Z</time>
      </trkpt>
      <trkpt lat="46.62446" lon="0.36394">
        <ele>72.7</ele>
        <time>2020-07-03T18:27:53Z</time>
      </trkpt>
      <trkpt lat="46.62442" lon="0.36384">
        <ele>72.5</ele>
        <time>2020-07-03T18:27:54Z</time>
      </trkpt>
      <trkpt lat="46.62439" lon="0.36375">
        <ele>72.3</ele>
        <time>2020-07-03T18:27:55Z</time>
      </trkpt>
      <trkpt lat="46.62435" lon="0.36367">
        <ele>72.2</ele>
        <time>2020-07-03T18:27:56Z</time>
      </trkpt>
      <trkpt lat="46.6243" lon="0.36358">
        <ele>72</ele>
        <time>2020-07-03T18:27:57Z</time>
      </trkpt>
      <trkpt lat="46.62426" lon="0.3635">
        <ele>71.9</ele>
        <time>2020-07-03T18:27:58Z</time>
      </trkpt>
      <trkpt lat="46.62421" lon="0.36343">
        <ele>71.7</ele>
        <time>2020-07-03T18:27:59Z</time>
      </trkpt>
      <trkpt lat="46.62416" lon="0.36336">
        <ele>71.6</ele>
        <time>2020-07-03T18:28:00Z</time>
      </trkpt>
      <trkpt lat="46.62411" lon="0.36329">
        <ele>71.5</ele>
        <time>2020-07-03T18:28:01Z</time>
      </trkpt>
      <trkpt lat="46.62405" lon="0.36324">
        <ele>71.4</ele>
        <time>2020-07-03T18:28:02Z</time>
      </trkpt>
      <trkpt lat="46.624" lon="0.36318">
        <ele>71.3</ele>
        <time>2020-07-03T18:28:03Z</time>
      </trkpt>
      <trkpt lat="46.62394" lon="0.36313">
        <ele>71.2</ele>
        <time>2020-07-03T18:28:04Z</time>
      </trkpt>
      <trkpt lat="46.62389" lon="0.36308">
        <ele>71.1</ele>
        <time>2020-07-03T18:28:05Z</time>
      </trkpt>
      <trkpt lat="46.62382" lon="0.36304">
        <ele>71</ele>
        <time>2020-07-03T18:28:06Z</time>
      </trkpt>
      <trkpt lat="46.62377" lon="0.363">
        <ele>70.9</ele>
        <time>2020-07-03T18:28:07Z</time>
      </trkpt>
      <trkpt lat="46.6237" lon="0.36296">
        <ele>70.9</ele>
        <time>2020-07-03T18:28:08Z</time>
      </trkpt>
      <trkpt lat="46.62365" lon="0.36292">
        <ele>70.8</ele>
        <time>2020-07-03T18:28:09Z</time>
      </trkpt>
      <trkpt lat="46.62359" lon="0.36287">
        <ele>70.8</ele>
        <time>2020-07-03T18:28:10Z</time>
      </trkpt>
      <trkpt lat="46.62353" lon="0.36283">
        <ele>70.7</ele>
        <time>2020-07-03T18:28:11Z</time>
      </trkpt>
      <trkpt lat="46.62347" lon="0.3628">
        <ele>70.7</ele>
        <time>2020-07-03T18:28:12Z</time>
      </trkpt>
      <trkpt lat="46.62342" lon="0.36276">
        <ele>70.7</ele>
        <time>2020-07-03T18:28:13Z</time>
      </trkpt>
      <trkpt lat="46.62336" lon="0.36273">
        <ele>70.7</ele>
        <time>2020-07-03T18:28:14Z</time>
      </trkpt>
      <trkpt lat="46.6233" lon="0.36269">
        <ele>70.7</ele>
        <time>2020-07-03T18:28:15Z</time>
      </trkpt>
      <trkpt lat="46.62324" lon="0.36264">
        <ele>70.7</ele>
        <time>2020-07-03T18:28:16Z</time>
      </trkpt>
      <trkpt lat="46.62318" lon="0.3626">
        <ele>70.6</ele>
        <time>2020-07-03T18:28:17Z</time>
      </trkpt>
      <trkpt lat="46.62312" lon="0.36256">
        <ele>70.6</ele>
        <time>2020-07-03T18:28:18Z</time>
      </trkpt>
      <trkpt lat="46.62307" lon="0.36252">
        <ele>70.6</ele>
        <time>2020-07-03T18:28:19Z</time>
      </trkpt>
      <trkpt lat="46.623" lon="0.36247">
        <ele>70.6</ele>
        <time>2020-07-03T18:28:20Z</time>
      </trkpt>
      <trkpt lat="46.62293" lon="0.36243">
        <ele>70.7</ele>
        <time>2020-07-03T18:28:21Z</time>
      </trkpt>
      <trkpt lat="46.62287" lon="0.36239">
        <ele>70.7</ele>
        <time>2020-07-03T18:28:22Z</time>
      </trkpt>
      <trkpt lat="46.62281" lon="0.36236">
        <ele>70.7</ele>
        <time>2020-07-03T18:28:23Z</time>
      </trkpt>
      <trkpt lat="46.62275" lon="0.36232">
        <ele>70.7</ele>
        <time>2020-07-03T18:28:24Z</time>
      </trkpt>
      <trkpt lat="46.6227" lon="0.36228">
        <ele>70.7</ele>
        <time>2020-07-03T18:28:25Z</time>
      </trkpt>
      <trkpt lat="46.62264" lon="0.36224">
        <ele>70.7</ele>
        <time>2020-07-03T18:28:26Z</time>
      </trkpt>
      <trkpt lat="46.62258" lon="0.3622">
        <ele>70.7</ele>
        <time>2020-07-03T18:28:27Z</time>
      </trkpt>
      <trkpt lat="46.62251" lon="0.36217">
        <ele>70.6</ele>
        <time>2020-07-03T18:28:28Z</time>
      </trkpt>
      <trkpt lat="46.62244" lon="0.36214">
        <ele>70.6</ele>
        <time>2020-07-03T18:28:29Z</time>
      </trkpt>
      <trkpt lat="46.62238" lon="0.3621">
        <ele>70.6</ele>
        <time>2020-07-03T18:28:30Z</time>
      </trkpt>
      <trkpt lat="46.62232" lon="0.36206">
        <ele>70.5</ele>
        <time>2020-07-03T18:28:31Z</time>
      </trkpt>
      <trkpt lat="46.62227" lon="0.36203">
        <ele>70.5</ele>
        <time>2020-07-03T18:28:32Z</time>
      </trkpt>
      <trkpt lat="46.62221" lon="0.36198">
        <ele>70.5</ele>
        <time>2020-07-03T18:28:33Z</time>
      </trkpt>
      <trkpt lat="46.62215" lon="0.36195">
        <ele>70.5</ele>
        <time>2020-07-03T18:28:34Z</time>
      </trkpt>
      <trkpt lat="46.62209" lon="0.36192">
        <ele>70.5</ele>
        <time>2020-07-03T18:28:35Z</time>
      </trkpt>
      <trkpt lat="46.62203" lon="0.3619">
        <ele>70.5</ele>
        <time>2020-07-03T18:28:36Z</time>
      </trkpt>
      <trkpt lat="46.62196" lon="0.36186">
        <ele>70.4</ele>
        <time>2020-07-03T18:28:37Z</time>
      </trkpt>
      <trkpt lat="46.62189" lon="0.36182">
        <ele>70.4</ele>
        <time>2020-07-03T18:28:38Z</time>
      </trkpt>
      <trkpt lat="46.62183" lon="0.36177">
        <ele>70.4</ele>
        <time>2020-07-03T18:28:39Z</time>
      </trkpt>
      <trkpt lat="46.62178" lon="0.36174">
        <ele>70.4</ele>
        <time>2020-07-03T18:28:40Z</time>
      </trkpt>
      <trkpt lat="46.62173" lon="0.3617">
        <ele>70.4</ele>
        <time>2020-07-03T18:28:41Z</time>
      </trkpt>
      <trkpt lat="46.62167" lon="0.36166">
        <ele>70.3</ele>
        <time>2020-07-03T18:28:42Z</time>
      </trkpt>
      <trkpt lat="46.62161" lon="0.36163">
        <ele>70.3</ele>
        <time>2020-07-03T18:28:43Z</time>
      </trkpt>
      <trkpt lat="46.62155" lon="0.3616">
        <ele>70.2</ele>
        <time>2020-07-03T18:28:44Z</time>
      </trkpt>
      <trkpt lat="46.62149" lon="0.36156">
        <ele>70.2</ele>
        <time>2020-07-03T18:28:45Z</time>
      </trkpt>
      <trkpt lat="46.62143" lon="0.36153">
        <ele>70.1</ele>
        <time>2020-07-03T18:28:46Z</time>
      </trkpt>
      <trkpt lat="46.62137" lon="0.36149">
        <ele>70</ele>
        <time>2020-07-03T18:28:47Z</time>
      </trkpt>
      <trkpt lat="46.62131" lon="0.36146">
        <ele>70</ele>
        <time>2020-07-03T18:28:48Z</time>
      </trkpt>
      <trkpt lat="46.62126" lon="0.36143">
        <ele>69.9</ele>
        <time>2020-07-03T18:28:49Z</time>
      </trkpt>
      <trkpt lat="46.6212" lon="0.36139">
        <ele>69.8</ele>
        <time>2020-07-03T18:28:50Z</time>
      </trkpt>
      <trkpt lat="46.6211" lon="0.36134">
        <ele>69.7</ele>
        <time>2020-07-03T18:28:51Z</time>
      </trkpt>
      <trkpt lat="46.62106" lon="0.36132">
        <ele>69.6</ele>
        <time>2020-07-03T18:28:52Z</time>
      </trkpt>
      <trkpt lat="46.62102" lon="0.36129">
        <ele>69.6</ele>
        <time>2020-07-03T18:28:53Z</time>
      </trkpt>
      <trkpt lat="46.62093" lon="0.36125">
        <ele>69.4</ele>
        <time>2020-07-03T18:28:54Z</time>
      </trkpt>
      <trkpt lat="46.6209" lon="0.36124">
        <ele>69.4</ele>
        <time>2020-07-03T18:28:55Z</time>
      </trkpt>
      <trkpt lat="46.62084" lon="0.3612">
        <ele>69.3</ele>
        <time>2020-07-03T18:28:56Z</time>
      </trkpt>
      <trkpt lat="46.62078" lon="0.36117">
        <ele>69.3</ele>
        <time>2020-07-03T18:28:57Z</time>
      </trkpt>
      <trkpt lat="46.62073" lon="0.36113">
        <ele>69.3</ele>
        <time>2020-07-03T18:28:58Z</time>
      </trkpt>
      <trkpt lat="46.62067" lon="0.3611">
        <ele>69.2</ele>
        <time>2020-07-03T18:28:59Z</time>
      </trkpt>
      <trkpt lat="46.62062" lon="0.36107">
        <ele>69.1</ele>
        <time>2020-07-03T18:29:00Z</time>
      </trkpt>
      <trkpt lat="46.62058" lon="0.36103">
        <ele>69</ele>
        <time>2020-07-03T18:29:01Z</time>
      </trkpt>
      <trkpt lat="46.62056" lon="0.36098">
        <ele>68.9</ele>
        <time>2020-07-03T18:29:02Z</time>
      </trkpt>
      <trkpt lat="46.62049" lon="0.36095">
        <ele>68.8</ele>
        <time>2020-07-03T18:29:03Z</time>
      </trkpt>
      <trkpt lat="46.62044" lon="0.36092">
        <ele>68.7</ele>
        <time>2020-07-03T18:29:04Z</time>
      </trkpt>
      <trkpt lat="46.62039" lon="0.36087">
        <ele>68.6</ele>
        <time>2020-07-03T18:29:05Z</time>
      </trkpt>
      <trkpt lat="46.62034" lon="0.36081">
        <ele>68.6</ele>
        <time>2020-07-03T18:29:06Z</time>
      </trkpt>
      <trkpt lat="46.62029" lon="0.36076">
        <ele>68.6</ele>
        <time>2020-07-03T18:29:07Z</time>
      </trkpt>
      <trkpt lat="46.62025" lon="0.36071">
        <ele>68.5</ele>
        <time>2020-07-03T18:29:08Z</time>
      </trkpt>
      <trkpt lat="46.62021" lon="0.36067">
        <ele>68.5</ele>
        <time>2020-07-03T18:29:09Z</time>
      </trkpt>
      <trkpt lat="46.62016" lon="0.36061">
        <ele>68.5</ele>
        <time>2020-07-03T18:29:10Z</time>
      </trkpt>
      <trkpt lat="46.62008" lon="0.36053">
        <ele>68.4</ele>
        <time>2020-07-03T18:29:11Z</time>
      </trkpt>
      <trkpt lat="46.62005" lon="0.3605">
        <ele>68.4</ele>
        <time>2020-07-03T18:29:12Z</time>
      </trkpt>
      <trkpt lat="46.62002" lon="0.36047">
        <ele>68.4</ele>
        <time>2020-07-03T18:29:13Z</time>
      </trkpt>
      <trkpt lat="46.61998" lon="0.36042">
        <ele>68.4</ele>
        <time>2020-07-03T18:29:14Z</time>
      </trkpt>
      <trkpt lat="46.61993" lon="0.36038">
        <ele>68.4</ele>
        <time>2020-07-03T18:29:15Z</time>
      </trkpt>
      <trkpt lat="46.61985" lon="0.36031">
        <ele>68.4</ele>
        <time>2020-07-03T18:29:16Z</time>
      </trkpt>
      <trkpt lat="46.61981" lon="0.36028">
        <ele>68.4</ele>
        <time>2020-07-03T18:29:17Z</time>
      </trkpt>
      <trkpt lat="46.61978" lon="0.36025">
        <ele>68.4</ele>
        <time>2020-07-03T18:29:18Z</time>
      </trkpt>
      <trkpt lat="46.61974" lon="0.36022">
        <ele>68.4</ele>
        <time>2020-07-03T18:29:19Z</time>
      </trkpt>
      <trkpt lat="46.6197" lon="0.36019">
        <ele>68.4</ele>
        <time>2020-07-03T18:29:20Z</time>
      </trkpt>
      <trkpt lat="46.61966" lon="0.36016">
        <ele>68.4</ele>
        <time>2020-07-03T18:29:21Z</time>
      </trkpt>
      <trkpt lat="46.61963" lon="0.36012">
        <ele>68.4</ele>
        <time>2020-07-03T18:29:22Z</time>
      </trkpt>
      <trkpt lat="46.61959" lon="0.36009">
        <ele>68.3</ele>
        <time>2020-07-03T18:29:23Z</time>
      </trkpt>
      <trkpt lat="46.61955" lon="0.36006">
        <ele>68.3</ele>
        <time>2020-07-03T18:29:24Z</time>
      </trkpt>
      <trkpt lat="46.61951" lon="0.36004">
        <ele>68.4</ele>
        <time>2020-07-03T18:29:25Z</time>
      </trkpt>
      <trkpt lat="46.61946" lon="0.36001">
        <ele>68.5</ele>
        <time>2020-07-03T18:29:26Z</time>
      </trkpt>
      <trkpt lat="46.61941" lon="0.35998">
        <ele>68.6</ele>
        <time>2020-07-03T18:29:27Z</time>
      </trkpt>
      <trkpt lat="46.61941" lon="0.35998">
        <ele>68.6</ele>
        <time>2020-07-03T18:29:28Z</time>
      </trkpt>
      <trkpt lat="46.61939" lon="0.35997">
        <ele>68.6</ele>
        <time>2020-07-03T18:29:29Z</time>
      </trkpt>
      <trkpt lat="46.61936" lon="0.35995">
        <ele>68.7</ele>
        <time>2020-07-03T18:29:30Z</time>
      </trkpt>
      <trkpt lat="46.61924" lon="0.35987">
        <ele>69</ele>
        <time>2020-07-03T18:29:31Z</time>
      </trkpt>
      <trkpt lat="46.61915" lon="0.35992">
        <ele>69.2</ele>
        <time>2020-07-03T18:29:32Z</time>
      </trkpt>
      <trkpt lat="46.6191" lon="0.35989">
        <ele>69.3</ele>
        <time>2020-07-03T18:29:33Z</time>
      </trkpt>
      <trkpt lat="46.61907" lon="0.35987">
        <ele>69.3</ele>
        <time>2020-07-03T18:29:34Z</time>
      </trkpt>
      <trkpt lat="46.61904" lon="0.35985">
        <ele>69.4</ele>
        <time>2020-07-03T18:29:35Z</time>
      </trkpt>
      <trkpt lat="46.61901" lon="0.35984">
        <ele>69.4</ele>
        <time>2020-07-03T18:29:36Z</time>
      </trkpt>
      <trkpt lat="46.61899" lon="0.35983">
        <ele>69.4</ele>
        <time>2020-07-03T18:29:37Z</time>
      </trkpt>
      <trkpt lat="46.61891" lon="0.3598">
        <ele>69.4</ele>
        <time>2020-07-03T18:29:41Z</time>
      </trkpt>
      <trkpt lat="46.61888" lon="0.35979">
        <ele>69.4</ele>
        <time>2020-07-03T18:29:42Z</time>
      </trkpt>
      <trkpt lat="46.61884" lon="0.35979">
        <ele>69.4</ele>
        <time>2020-07-03T18:29:43Z</time>
      </trkpt>
      <trkpt lat="46.61883" lon="0.35979">
        <ele>69.4</ele>
        <time>2020-07-03T18:29:44Z</time>
      </trkpt>
      <trkpt lat="46.61879" lon="0.35979">
        <ele>69.5</ele>
        <time>2020-07-03T18:29:45Z</time>
      </trkpt>
      <trkpt lat="46.61876" lon="0.35979">
        <ele>69.5</ele>
        <time>2020-07-03T18:29:46Z</time>
      </trkpt>
      <trkpt lat="46.61872" lon="0.35979">
        <ele>69.5</ele>
        <time>2020-07-03T18:29:47Z</time>
      </trkpt>
      <trkpt lat="46.61869" lon="0.35979">
        <ele>69.5</ele>
        <time>2020-07-03T18:29:48Z</time>
      </trkpt>
      <trkpt lat="46.61866" lon="0.35979">
        <ele>69.5</ele>
        <time>2020-07-03T18:29:49Z</time>
      </trkpt>
      <trkpt lat="46.61862" lon="0.35978">
        <ele>69.5</ele>
        <time>2020-07-03T18:29:50Z</time>
      </trkpt>
      <trkpt lat="46.61858" lon="0.35976">
        <ele>69.4</ele>
        <time>2020-07-03T18:29:51Z</time>
      </trkpt>
      <trkpt lat="46.61853" lon="0.35972">
        <ele>69.4</ele>
        <time>2020-07-03T18:29:52Z</time>
      </trkpt>
      <trkpt lat="46.61848" lon="0.3597">
        <ele>69.4</ele>
        <time>2020-07-03T18:29:53Z</time>
      </trkpt>
      <trkpt lat="46.61843" lon="0.35969">
        <ele>69.4</ele>
        <time>2020-07-03T18:29:54Z</time>
      </trkpt>
      <trkpt lat="46.61838" lon="0.35968">
        <ele>69.5</ele>
        <time>2020-07-03T18:29:55Z</time>
      </trkpt>
      <trkpt lat="46.61833" lon="0.35966">
        <ele>69.5</ele>
        <time>2020-07-03T18:29:56Z</time>
      </trkpt>
      <trkpt lat="46.61828" lon="0.35965">
        <ele>69.5</ele>
        <time>2020-07-03T18:29:57Z</time>
      </trkpt>
      <trkpt lat="46.61824" lon="0.35963">
        <ele>69.5</ele>
        <time>2020-07-03T18:29:58Z</time>
      </trkpt>
      <trkpt lat="46.61819" lon="0.35959">
        <ele>69.6</ele>
        <time>2020-07-03T18:29:59Z</time>
      </trkpt>
      <trkpt lat="46.61814" lon="0.35957">
        <ele>69.6</ele>
        <time>2020-07-03T18:30:00Z</time>
      </trkpt>
      <trkpt lat="46.61808" lon="0.35955">
        <ele>69.6</ele>
        <time>2020-07-03T18:30:01Z</time>
      </trkpt>
      <trkpt lat="46.61802" lon="0.35953">
        <ele>69.6</ele>
        <time>2020-07-03T18:30:02Z</time>
      </trkpt>
      <trkpt lat="46.61797" lon="0.3595">
        <ele>69.7</ele>
        <time>2020-07-03T18:30:03Z</time>
      </trkpt>
      <trkpt lat="46.61793" lon="0.35947">
        <ele>69.7</ele>
        <time>2020-07-03T18:30:04Z</time>
      </trkpt>
      <trkpt lat="46.61789" lon="0.35945">
        <ele>69.8</ele>
        <time>2020-07-03T18:30:05Z</time>
      </trkpt>
      <trkpt lat="46.61783" lon="0.35944">
        <ele>69.9</ele>
        <time>2020-07-03T18:30:06Z</time>
      </trkpt>
      <trkpt lat="46.61778" lon="0.35943">
        <ele>70</ele>
        <time>2020-07-03T18:30:07Z</time>
      </trkpt>
      <trkpt lat="46.61774" lon="0.35942">
        <ele>70.1</ele>
        <time>2020-07-03T18:30:08Z</time>
      </trkpt>
      <trkpt lat="46.61769" lon="0.35938">
        <ele>70.2</ele>
        <time>2020-07-03T18:30:09Z</time>
      </trkpt>
      <trkpt lat="46.61764" lon="0.35935">
        <ele>70.3</ele>
        <time>2020-07-03T18:30:10Z</time>
      </trkpt>
      <trkpt lat="46.61759" lon="0.35933">
        <ele>70.3</ele>
        <time>2020-07-03T18:30:11Z</time>
      </trkpt>
      <trkpt lat="46.61754" lon="0.35929">
        <ele>70.3</ele>
        <time>2020-07-03T18:30:12Z</time>
      </trkpt>
      <trkpt lat="46.61749" lon="0.35925">
        <ele>70.3</ele>
        <time>2020-07-03T18:30:13Z</time>
      </trkpt>
      <trkpt lat="46.61745" lon="0.35923">
        <ele>70.3</ele>
        <time>2020-07-03T18:30:14Z</time>
      </trkpt>
      <trkpt lat="46.6174" lon="0.35921">
        <ele>70.3</ele>
        <time>2020-07-03T18:30:15Z</time>
      </trkpt>
      <trkpt lat="46.61736" lon="0.35919">
        <ele>70.3</ele>
        <time>2020-07-03T18:30:16Z</time>
      </trkpt>
      <trkpt lat="46.61732" lon="0.35915">
        <ele>70.4</ele>
        <time>2020-07-03T18:30:17Z</time>
      </trkpt>
      <trkpt lat="46.61728" lon="0.35913">
        <ele>70.4</ele>
        <time>2020-07-03T18:30:18Z</time>
      </trkpt>
      <trkpt lat="46.61723" lon="0.35908">
        <ele>70.4</ele>
        <time>2020-07-03T18:30:19Z</time>
      </trkpt>
      <trkpt lat="46.61718" lon="0.35905">
        <ele>70.4</ele>
        <time>2020-07-03T18:30:20Z</time>
      </trkpt>
      <trkpt lat="46.61714" lon="0.35902">
        <ele>70.4</ele>
        <time>2020-07-03T18:30:21Z</time>
      </trkpt>
      <trkpt lat="46.6171" lon="0.359">
        <ele>70.5</ele>
        <time>2020-07-03T18:30:22Z</time>
      </trkpt>
      <trkpt lat="46.61706" lon="0.35898">
        <ele>70.5</ele>
        <time>2020-07-03T18:30:23Z</time>
      </trkpt>
      <trkpt lat="46.61702" lon="0.35897">
        <ele>70.6</ele>
        <time>2020-07-03T18:30:24Z</time>
      </trkpt>
      <trkpt lat="46.61698" lon="0.35896">
        <ele>70.7</ele>
        <time>2020-07-03T18:30:25Z</time>
      </trkpt>
      <trkpt lat="46.61694" lon="0.35894">
        <ele>70.8</ele>
        <time>2020-07-03T18:30:26Z</time>
      </trkpt>
      <trkpt lat="46.6169" lon="0.35891">
        <ele>70.8</ele>
        <time>2020-07-03T18:30:27Z</time>
      </trkpt>
      <trkpt lat="46.61686" lon="0.35891">
        <ele>70.9</ele>
        <time>2020-07-03T18:30:28Z</time>
      </trkpt>
      <trkpt lat="46.61682" lon="0.35889">
        <ele>71</ele>
        <time>2020-07-03T18:30:29Z</time>
      </trkpt>
      <trkpt lat="46.61678" lon="0.35888">
        <ele>71</ele>
        <time>2020-07-03T18:30:30Z</time>
      </trkpt>
      <trkpt lat="46.61674" lon="0.35887">
        <ele>71.1</ele>
        <time>2020-07-03T18:30:31Z</time>
      </trkpt>
      <trkpt lat="46.61671" lon="0.35885">
        <ele>71.2</ele>
        <time>2020-07-03T18:30:32Z</time>
      </trkpt>
      <trkpt lat="46.61667" lon="0.35883">
        <ele>71.2</ele>
        <time>2020-07-03T18:30:33Z</time>
      </trkpt>
      <trkpt lat="46.61663" lon="0.35881">
        <ele>71.3</ele>
        <time>2020-07-03T18:30:34Z</time>
      </trkpt>
      <trkpt lat="46.61659" lon="0.3588">
        <ele>71.4</ele>
        <time>2020-07-03T18:30:35Z</time>
      </trkpt>
      <trkpt lat="46.61655" lon="0.35878">
        <ele>71.4</ele>
        <time>2020-07-03T18:30:36Z</time>
      </trkpt>
      <trkpt lat="46.61651" lon="0.35876">
        <ele>71.5</ele>
        <time>2020-07-03T18:30:37Z</time>
      </trkpt>
      <trkpt lat="46.61646" lon="0.35874">
        <ele>71.5</ele>
        <time>2020-07-03T18:30:38Z</time>
      </trkpt>
      <trkpt lat="46.61641" lon="0.35872">
        <ele>71.6</ele>
        <time>2020-07-03T18:30:39Z</time>
      </trkpt>
      <trkpt lat="46.61636" lon="0.3587">
        <ele>71.6</ele>
        <time>2020-07-03T18:30:40Z</time>
      </trkpt>
      <trkpt lat="46.61632" lon="0.35869">
        <ele>71.7</ele>
        <time>2020-07-03T18:30:41Z</time>
      </trkpt>
      <trkpt lat="46.61627" lon="0.35868">
        <ele>71.7</ele>
        <time>2020-07-03T18:30:42Z</time>
      </trkpt>
      <trkpt lat="46.61622" lon="0.35866">
        <ele>71.8</ele>
        <time>2020-07-03T18:30:43Z</time>
      </trkpt>
      <trkpt lat="46.61616" lon="0.35865">
        <ele>71.8</ele>
        <time>2020-07-03T18:30:44Z</time>
      </trkpt>
      <trkpt lat="46.61611" lon="0.35863">
        <ele>71.9</ele>
        <time>2020-07-03T18:30:45Z</time>
      </trkpt>
      <trkpt lat="46.61604" lon="0.35862">
        <ele>72</ele>
        <time>2020-07-03T18:30:46Z</time>
      </trkpt>
      <trkpt lat="46.61599" lon="0.35859">
        <ele>72</ele>
        <time>2020-07-03T18:30:47Z</time>
      </trkpt>
      <trkpt lat="46.61594" lon="0.35857">
        <ele>72</ele>
        <time>2020-07-03T18:30:48Z</time>
      </trkpt>
      <trkpt lat="46.61589" lon="0.35856">
        <ele>72.1</ele>
        <time>2020-07-03T18:30:49Z</time>
      </trkpt>
      <trkpt lat="46.61583" lon="0.35854">
        <ele>72.1</ele>
        <time>2020-07-03T18:30:50Z</time>
      </trkpt>
      <trkpt lat="46.61577" lon="0.35854">
        <ele>72.2</ele>
        <time>2020-07-03T18:30:51Z</time>
      </trkpt>
      <trkpt lat="46.61571" lon="0.35852">
        <ele>72.2</ele>
        <time>2020-07-03T18:30:52Z</time>
      </trkpt>
      <trkpt lat="46.61565" lon="0.35852">
        <ele>72.3</ele>
        <time>2020-07-03T18:30:53Z</time>
      </trkpt>
      <trkpt lat="46.6156" lon="0.35851">
        <ele>72.3</ele>
        <time>2020-07-03T18:30:54Z</time>
      </trkpt>
      <trkpt lat="46.61555" lon="0.3585">
        <ele>72.4</ele>
        <time>2020-07-03T18:30:55Z</time>
      </trkpt>
      <trkpt lat="46.6155" lon="0.35849">
        <ele>72.4</ele>
        <time>2020-07-03T18:30:56Z</time>
      </trkpt>
      <trkpt lat="46.61545" lon="0.35848">
        <ele>72.4</ele>
        <time>2020-07-03T18:30:57Z</time>
      </trkpt>
      <trkpt lat="46.6154" lon="0.35846">
        <ele>72.4</ele>
        <time>2020-07-03T18:30:58Z</time>
      </trkpt>
      <trkpt lat="46.61535" lon="0.35843">
        <ele>72.4</ele>
        <time>2020-07-03T18:30:59Z</time>
      </trkpt>
      <trkpt lat="46.6153" lon="0.35841">
        <ele>72.3</ele>
        <time>2020-07-03T18:31:00Z</time>
      </trkpt>
      <trkpt lat="46.61526" lon="0.3584">
        <ele>72.2</ele>
        <time>2020-07-03T18:31:01Z</time>
      </trkpt>
      <trkpt lat="46.6152" lon="0.3584">
        <ele>72.1</ele>
        <time>2020-07-03T18:31:02Z</time>
      </trkpt>
      <trkpt lat="46.61512" lon="0.35837">
        <ele>71.9</ele>
        <time>2020-07-03T18:31:03Z</time>
      </trkpt>
      <trkpt lat="46.61507" lon="0.35833">
        <ele>71.7</ele>
        <time>2020-07-03T18:31:04Z</time>
      </trkpt>
      <trkpt lat="46.61501" lon="0.35828">
        <ele>71.5</ele>
        <time>2020-07-03T18:31:05Z</time>
      </trkpt>
      <trkpt lat="46.61495" lon="0.35822">
        <ele>71.3</ele>
        <time>2020-07-03T18:31:06Z</time>
      </trkpt>
      <trkpt lat="46.6149" lon="0.35817">
        <ele>71.1</ele>
        <time>2020-07-03T18:31:07Z</time>
      </trkpt>
      <trkpt lat="46.61483" lon="0.35812">
        <ele>70.9</ele>
        <time>2020-07-03T18:31:08Z</time>
      </trkpt>
      <trkpt lat="46.61476" lon="0.35807">
        <ele>70.6</ele>
        <time>2020-07-03T18:31:09Z</time>
      </trkpt>
      <trkpt lat="46.61469" lon="0.35803">
        <ele>70.4</ele>
        <time>2020-07-03T18:31:10Z</time>
      </trkpt>
      <trkpt lat="46.61462" lon="0.35798">
        <ele>70.2</ele>
        <time>2020-07-03T18:31:11Z</time>
      </trkpt>
      <trkpt lat="46.61456" lon="0.35794">
        <ele>70.1</ele>
        <time>2020-07-03T18:31:12Z</time>
      </trkpt>
      <trkpt lat="46.61449" lon="0.35789">
        <ele>69.9</ele>
        <time>2020-07-03T18:31:13Z</time>
      </trkpt>
      <trkpt lat="46.61442" lon="0.35784">
        <ele>69.8</ele>
        <time>2020-07-03T18:31:14Z</time>
      </trkpt>
      <trkpt lat="46.61436" lon="0.35778">
        <ele>69.7</ele>
        <time>2020-07-03T18:31:15Z</time>
      </trkpt>
      <trkpt lat="46.61429" lon="0.35773">
        <ele>69.5</ele>
        <time>2020-07-03T18:31:16Z</time>
      </trkpt>
      <trkpt lat="46.61422" lon="0.35768">
        <ele>69.3</ele>
        <time>2020-07-03T18:31:17Z</time>
      </trkpt>
      <trkpt lat="46.61414" lon="0.35764">
        <ele>69.2</ele>
        <time>2020-07-03T18:31:18Z</time>
      </trkpt>
      <trkpt lat="46.61407" lon="0.35758">
        <ele>69.1</ele>
        <time>2020-07-03T18:31:19Z</time>
      </trkpt>
      <trkpt lat="46.614" lon="0.35753">
        <ele>69.1</ele>
        <time>2020-07-03T18:31:20Z</time>
      </trkpt>
      <trkpt lat="46.61394" lon="0.35747">
        <ele>69.1</ele>
        <time>2020-07-03T18:31:21Z</time>
      </trkpt>
      <trkpt lat="46.61386" lon="0.35743">
        <ele>69.1</ele>
        <time>2020-07-03T18:31:22Z</time>
      </trkpt>
      <trkpt lat="46.61381" lon="0.35739">
        <ele>69.1</ele>
        <time>2020-07-03T18:31:23Z</time>
      </trkpt>
      <trkpt lat="46.61374" lon="0.35735">
        <ele>69.1</ele>
        <time>2020-07-03T18:31:24Z</time>
      </trkpt>
      <trkpt lat="46.61368" lon="0.35731">
        <ele>69.1</ele>
        <time>2020-07-03T18:31:25Z</time>
      </trkpt>
      <trkpt lat="46.61362" lon="0.35727">
        <ele>69.1</ele>
        <time>2020-07-03T18:31:26Z</time>
      </trkpt>
      <trkpt lat="46.61356" lon="0.35722">
        <ele>69.1</ele>
        <time>2020-07-03T18:31:27Z</time>
      </trkpt>
      <trkpt lat="46.61349" lon="0.35718">
        <ele>69.1</ele>
        <time>2020-07-03T18:31:28Z</time>
      </trkpt>
      <trkpt lat="46.61344" lon="0.35714">
        <ele>69.1</ele>
        <time>2020-07-03T18:31:29Z</time>
      </trkpt>
      <trkpt lat="46.61337" lon="0.3571">
        <ele>69.1</ele>
        <time>2020-07-03T18:31:30Z</time>
      </trkpt>
      <trkpt lat="46.61331" lon="0.35705">
        <ele>69.1</ele>
        <time>2020-07-03T18:31:31Z</time>
      </trkpt>
      <trkpt lat="46.61325" lon="0.35701">
        <ele>69.1</ele>
        <time>2020-07-03T18:31:32Z</time>
      </trkpt>
      <trkpt lat="46.6132" lon="0.35697">
        <ele>69.1</ele>
        <time>2020-07-03T18:31:33Z</time>
      </trkpt>
      <trkpt lat="46.61315" lon="0.35694">
        <ele>69.1</ele>
        <time>2020-07-03T18:31:34Z</time>
      </trkpt>
      <trkpt lat="46.6131" lon="0.3569">
        <ele>69.1</ele>
        <time>2020-07-03T18:31:35Z</time>
      </trkpt>
      <trkpt lat="46.61305" lon="0.35686">
        <ele>69.1</ele>
        <time>2020-07-03T18:31:36Z</time>
      </trkpt>
      <trkpt lat="46.61302" lon="0.35682">
        <ele>69.1</ele>
        <time>2020-07-03T18:31:37Z</time>
      </trkpt>
      <trkpt lat="46.61298" lon="0.35678">
        <ele>69.1</ele>
        <time>2020-07-03T18:31:38Z</time>
      </trkpt>
      <trkpt lat="46.61294" lon="0.35674">
        <ele>69.1</ele>
        <time>2020-07-03T18:31:39Z</time>
      </trkpt>
      <trkpt lat="46.6129" lon="0.35671">
        <ele>69.1</ele>
        <time>2020-07-03T18:31:40Z</time>
      </trkpt>
      <trkpt lat="46.61286" lon="0.35667">
        <ele>69.1</ele>
        <time>2020-07-03T18:31:41Z</time>
      </trkpt>
      <trkpt lat="46.61281" lon="0.35663">
        <ele>69.1</ele>
        <time>2020-07-03T18:31:42Z</time>
      </trkpt>
      <trkpt lat="46.61277" lon="0.3566">
        <ele>69.2</ele>
        <time>2020-07-03T18:31:43Z</time>
      </trkpt>
      <trkpt lat="46.61272" lon="0.35656">
        <ele>69.2</ele>
        <time>2020-07-03T18:31:44Z</time>
      </trkpt>
      <trkpt lat="46.61266" lon="0.35654">
        <ele>69.3</ele>
        <time>2020-07-03T18:31:45Z</time>
      </trkpt>
      <trkpt lat="46.61262" lon="0.35652">
        <ele>69.3</ele>
        <time>2020-07-03T18:31:46Z</time>
      </trkpt>
      <trkpt lat="46.61256" lon="0.35648">
        <ele>69.3</ele>
        <time>2020-07-03T18:31:47Z</time>
      </trkpt>
      <trkpt lat="46.61251" lon="0.35646">
        <ele>69.3</ele>
        <time>2020-07-03T18:31:48Z</time>
      </trkpt>
      <trkpt lat="46.61246" lon="0.35642">
        <ele>69.4</ele>
        <time>2020-07-03T18:31:49Z</time>
      </trkpt>
      <trkpt lat="46.61242" lon="0.3564">
        <ele>69.4</ele>
        <time>2020-07-03T18:31:50Z</time>
      </trkpt>
      <trkpt lat="46.61239" lon="0.35637">
        <ele>69.5</ele>
        <time>2020-07-03T18:31:51Z</time>
      </trkpt>
      <trkpt lat="46.61234" lon="0.35636">
        <ele>69.5</ele>
        <time>2020-07-03T18:31:52Z</time>
      </trkpt>
      <trkpt lat="46.6123" lon="0.35634">
        <ele>69.6</ele>
        <time>2020-07-03T18:31:53Z</time>
      </trkpt>
      <trkpt lat="46.61226" lon="0.35633">
        <ele>69.6</ele>
        <time>2020-07-03T18:31:54Z</time>
      </trkpt>
      <trkpt lat="46.61221" lon="0.35629">
        <ele>69.7</ele>
        <time>2020-07-03T18:31:55Z</time>
      </trkpt>
      <trkpt lat="46.61218" lon="0.35626">
        <ele>69.7</ele>
        <time>2020-07-03T18:31:56Z</time>
      </trkpt>
      <trkpt lat="46.61213" lon="0.35624">
        <ele>69.7</ele>
        <time>2020-07-03T18:31:57Z</time>
      </trkpt>
      <trkpt lat="46.61209" lon="0.35621">
        <ele>69.7</ele>
        <time>2020-07-03T18:31:58Z</time>
      </trkpt>
      <trkpt lat="46.61205" lon="0.35619">
        <ele>69.8</ele>
        <time>2020-07-03T18:31:59Z</time>
      </trkpt>
      <trkpt lat="46.612" lon="0.35615">
        <ele>69.8</ele>
        <time>2020-07-03T18:32:00Z</time>
      </trkpt>
      <trkpt lat="46.61196" lon="0.35612">
        <ele>69.9</ele>
        <time>2020-07-03T18:32:01Z</time>
      </trkpt>
      <trkpt lat="46.61191" lon="0.35611">
        <ele>70</ele>
        <time>2020-07-03T18:32:02Z</time>
      </trkpt>
      <trkpt lat="46.61187" lon="0.35608">
        <ele>70</ele>
        <time>2020-07-03T18:32:03Z</time>
      </trkpt>
      <trkpt lat="46.61184" lon="0.35606">
        <ele>70.1</ele>
        <time>2020-07-03T18:32:04Z</time>
      </trkpt>
      <trkpt lat="46.61181" lon="0.35605">
        <ele>70.1</ele>
        <time>2020-07-03T18:32:05Z</time>
      </trkpt>
      <trkpt lat="46.61177" lon="0.35602">
        <ele>70.2</ele>
        <time>2020-07-03T18:32:06Z</time>
      </trkpt>
      <trkpt lat="46.61175" lon="0.35599">
        <ele>70.2</ele>
        <time>2020-07-03T18:32:07Z</time>
      </trkpt>
      <trkpt lat="46.61171" lon="0.35597">
        <ele>70.3</ele>
        <time>2020-07-03T18:32:08Z</time>
      </trkpt>
      <trkpt lat="46.61169" lon="0.35595">
        <ele>70.3</ele>
        <time>2020-07-03T18:32:09Z</time>
      </trkpt>
      <trkpt lat="46.61166" lon="0.35595">
        <ele>70.3</ele>
        <time>2020-07-03T18:32:10Z</time>
      </trkpt>
      <trkpt lat="46.61164" lon="0.35593">
        <ele>70.3</ele>
        <time>2020-07-03T18:32:11Z</time>
      </trkpt>
      <trkpt lat="46.6116" lon="0.3559">
        <ele>70.3</ele>
        <time>2020-07-03T18:32:12Z</time>
      </trkpt>
      <trkpt lat="46.61157" lon="0.35588">
        <ele>70.2</ele>
        <time>2020-07-03T18:32:13Z</time>
      </trkpt>
      <trkpt lat="46.61153" lon="0.35586">
        <ele>70.1</ele>
        <time>2020-07-03T18:32:14Z</time>
      </trkpt>
      <trkpt lat="46.6115" lon="0.35584">
        <ele>70</ele>
        <time>2020-07-03T18:32:15Z</time>
      </trkpt>
      <trkpt lat="46.61146" lon="0.35582">
        <ele>69.8</ele>
        <time>2020-07-03T18:32:16Z</time>
      </trkpt>
      <trkpt lat="46.61141" lon="0.3558">
        <ele>69.7</ele>
        <time>2020-07-03T18:32:17Z</time>
      </trkpt>
      <trkpt lat="46.61137" lon="0.35577">
        <ele>69.5</ele>
        <time>2020-07-03T18:32:18Z</time>
      </trkpt>
      <trkpt lat="46.61133" lon="0.35574">
        <ele>69.4</ele>
        <time>2020-07-03T18:32:19Z</time>
      </trkpt>
      <trkpt lat="46.61127" lon="0.3557">
        <ele>69.2</ele>
        <time>2020-07-03T18:32:20Z</time>
      </trkpt>
      <trkpt lat="46.61122" lon="0.35567">
        <ele>69</ele>
        <time>2020-07-03T18:32:21Z</time>
      </trkpt>
      <trkpt lat="46.61117" lon="0.35563">
        <ele>68.9</ele>
        <time>2020-07-03T18:32:22Z</time>
      </trkpt>
      <trkpt lat="46.61113" lon="0.3556">
        <ele>68.9</ele>
        <time>2020-07-03T18:32:23Z</time>
      </trkpt>
      <trkpt lat="46.61107" lon="0.35557">
        <ele>68.9</ele>
        <time>2020-07-03T18:32:24Z</time>
      </trkpt>
      <trkpt lat="46.61102" lon="0.35554">
        <ele>68.9</ele>
        <time>2020-07-03T18:32:25Z</time>
      </trkpt>
      <trkpt lat="46.61097" lon="0.35552">
        <ele>68.9</ele>
        <time>2020-07-03T18:32:26Z</time>
      </trkpt>
      <trkpt lat="46.61092" lon="0.35551">
        <ele>68.9</ele>
        <time>2020-07-03T18:32:27Z</time>
      </trkpt>
      <trkpt lat="46.61087" lon="0.35548">
        <ele>69</ele>
        <time>2020-07-03T18:32:28Z</time>
      </trkpt>
      <trkpt lat="46.61082" lon="0.35545">
        <ele>69</ele>
        <time>2020-07-03T18:32:29Z</time>
      </trkpt>
      <trkpt lat="46.61078" lon="0.35542">
        <ele>69</ele>
        <time>2020-07-03T18:32:30Z</time>
      </trkpt>
      <trkpt lat="46.61073" lon="0.35539">
        <ele>69.1</ele>
        <time>2020-07-03T18:32:31Z</time>
      </trkpt>
      <trkpt lat="46.61069" lon="0.35535">
        <ele>69.1</ele>
        <time>2020-07-03T18:32:32Z</time>
      </trkpt>
      <trkpt lat="46.61065" lon="0.35531">
        <ele>69.2</ele>
        <time>2020-07-03T18:32:33Z</time>
      </trkpt>
      <trkpt lat="46.61061" lon="0.35527">
        <ele>69.2</ele>
        <time>2020-07-03T18:32:34Z</time>
      </trkpt>
      <trkpt lat="46.61057" lon="0.35523">
        <ele>69.3</ele>
        <time>2020-07-03T18:32:35Z</time>
      </trkpt>
      <trkpt lat="46.61053" lon="0.3552">
        <ele>69.4</ele>
        <time>2020-07-03T18:32:36Z</time>
      </trkpt>
      <trkpt lat="46.61049" lon="0.35517">
        <ele>69.4</ele>
        <time>2020-07-03T18:32:37Z</time>
      </trkpt>
      <trkpt lat="46.61046" lon="0.35514">
        <ele>69.6</ele>
        <time>2020-07-03T18:32:38Z</time>
      </trkpt>
      <trkpt lat="46.61042" lon="0.35511">
        <ele>69.7</ele>
        <time>2020-07-03T18:32:39Z</time>
      </trkpt>
      <trkpt lat="46.61037" lon="0.35507">
        <ele>69.8</ele>
        <time>2020-07-03T18:32:40Z</time>
      </trkpt>
      <trkpt lat="46.61033" lon="0.35503">
        <ele>69.8</ele>
        <time>2020-07-03T18:32:41Z</time>
      </trkpt>
      <trkpt lat="46.61029" lon="0.35499">
        <ele>69.8</ele>
        <time>2020-07-03T18:32:42Z</time>
      </trkpt>
      <trkpt lat="46.61026" lon="0.35493">
        <ele>69.8</ele>
        <time>2020-07-03T18:32:43Z</time>
      </trkpt>
      <trkpt lat="46.61022" lon="0.35489">
        <ele>69.8</ele>
        <time>2020-07-03T18:32:44Z</time>
      </trkpt>
      <trkpt lat="46.61018" lon="0.35484">
        <ele>69.8</ele>
        <time>2020-07-03T18:32:45Z</time>
      </trkpt>
      <trkpt lat="46.61014" lon="0.3548">
        <ele>69.8</ele>
        <time>2020-07-03T18:32:46Z</time>
      </trkpt>
      <trkpt lat="46.6101" lon="0.35475">
        <ele>69.8</ele>
        <time>2020-07-03T18:32:47Z</time>
      </trkpt>
      <trkpt lat="46.61007" lon="0.3547">
        <ele>69.9</ele>
        <time>2020-07-03T18:32:48Z</time>
      </trkpt>
      <trkpt lat="46.61003" lon="0.35466">
        <ele>69.9</ele>
        <time>2020-07-03T18:32:49Z</time>
      </trkpt>
      <trkpt lat="46.60999" lon="0.3546">
        <ele>69.9</ele>
        <time>2020-07-03T18:32:50Z</time>
      </trkpt>
      <trkpt lat="46.60995" lon="0.35456">
        <ele>69.9</ele>
        <time>2020-07-03T18:32:51Z</time>
      </trkpt>
      <trkpt lat="46.60991" lon="0.35451">
        <ele>70</ele>
        <time>2020-07-03T18:32:52Z</time>
      </trkpt>
      <trkpt lat="46.60987" lon="0.35449">
        <ele>70</ele>
        <time>2020-07-03T18:32:53Z</time>
      </trkpt>
      <trkpt lat="46.60983" lon="0.35445">
        <ele>70.1</ele>
        <time>2020-07-03T18:32:54Z</time>
      </trkpt>
      <trkpt lat="46.60979" lon="0.35442">
        <ele>70.1</ele>
        <time>2020-07-03T18:32:55Z</time>
      </trkpt>
      <trkpt lat="46.60974" lon="0.35438">
        <ele>70.2</ele>
        <time>2020-07-03T18:32:56Z</time>
      </trkpt>
      <trkpt lat="46.6097" lon="0.35435">
        <ele>70.2</ele>
        <time>2020-07-03T18:32:57Z</time>
      </trkpt>
      <trkpt lat="46.60966" lon="0.35432">
        <ele>70.3</ele>
        <time>2020-07-03T18:32:58Z</time>
      </trkpt>
      <trkpt lat="46.6096" lon="0.35428">
        <ele>70.4</ele>
        <time>2020-07-03T18:32:59Z</time>
      </trkpt>
      <trkpt lat="46.60957" lon="0.35424">
        <ele>70.4</ele>
        <time>2020-07-03T18:33:00Z</time>
      </trkpt>
      <trkpt lat="46.60952" lon="0.35421">
        <ele>70.5</ele>
        <time>2020-07-03T18:33:01Z</time>
      </trkpt>
      <trkpt lat="46.60948" lon="0.35418">
        <ele>70.5</ele>
        <time>2020-07-03T18:33:02Z</time>
      </trkpt>
      <trkpt lat="46.60943" lon="0.35414">
        <ele>70.6</ele>
        <time>2020-07-03T18:33:03Z</time>
      </trkpt>
      <trkpt lat="46.60938" lon="0.35411">
        <ele>70.6</ele>
        <time>2020-07-03T18:33:04Z</time>
      </trkpt>
      <trkpt lat="46.60932" lon="0.35409">
        <ele>70.7</ele>
        <time>2020-07-03T18:33:05Z</time>
      </trkpt>
      <trkpt lat="46.60928" lon="0.35407">
        <ele>70.7</ele>
        <time>2020-07-03T18:33:06Z</time>
      </trkpt>
      <trkpt lat="46.60923" lon="0.35404">
        <ele>70.8</ele>
        <time>2020-07-03T18:33:07Z</time>
      </trkpt>
      <trkpt lat="46.60919" lon="0.35402">
        <ele>70.9</ele>
        <time>2020-07-03T18:33:08Z</time>
      </trkpt>
      <trkpt lat="46.60914" lon="0.35399">
        <ele>70.9</ele>
        <time>2020-07-03T18:33:09Z</time>
      </trkpt>
      <trkpt lat="46.6091" lon="0.35394">
        <ele>71</ele>
        <time>2020-07-03T18:33:10Z</time>
      </trkpt>
      <trkpt lat="46.60905" lon="0.35391">
        <ele>71</ele>
        <time>2020-07-03T18:33:11Z</time>
      </trkpt>
      <trkpt lat="46.609" lon="0.35388">
        <ele>71</ele>
        <time>2020-07-03T18:33:12Z</time>
      </trkpt>
      <trkpt lat="46.60896" lon="0.35386">
        <ele>71.1</ele>
        <time>2020-07-03T18:33:13Z</time>
      </trkpt>
      <trkpt lat="46.60891" lon="0.35382">
        <ele>71.1</ele>
        <time>2020-07-03T18:33:14Z</time>
      </trkpt>
      <trkpt lat="46.60888" lon="0.35379">
        <ele>71.2</ele>
        <time>2020-07-03T18:33:15Z</time>
      </trkpt>
      <trkpt lat="46.60885" lon="0.35374">
        <ele>71.2</ele>
        <time>2020-07-03T18:33:16Z</time>
      </trkpt>
      <trkpt lat="46.6088" lon="0.35368">
        <ele>71.3</ele>
        <time>2020-07-03T18:33:17Z</time>
      </trkpt>
      <trkpt lat="46.60876" lon="0.35363">
        <ele>71.3</ele>
        <time>2020-07-03T18:33:18Z</time>
      </trkpt>
      <trkpt lat="46.60872" lon="0.3536">
        <ele>71.3</ele>
        <time>2020-07-03T18:33:19Z</time>
      </trkpt>
      <trkpt lat="46.60868" lon="0.35356">
        <ele>71.4</ele>
        <time>2020-07-03T18:33:20Z</time>
      </trkpt>
      <trkpt lat="46.60864" lon="0.35353">
        <ele>71.4</ele>
        <time>2020-07-03T18:33:21Z</time>
      </trkpt>
      <trkpt lat="46.60859" lon="0.35351">
        <ele>71.4</ele>
        <time>2020-07-03T18:33:22Z</time>
      </trkpt>
      <trkpt lat="46.60855" lon="0.35347">
        <ele>71.5</ele>
        <time>2020-07-03T18:33:23Z</time>
      </trkpt>
      <trkpt lat="46.6085" lon="0.35342">
        <ele>71.5</ele>
        <time>2020-07-03T18:33:24Z</time>
      </trkpt>
      <trkpt lat="46.60846" lon="0.35338">
        <ele>71.5</ele>
        <time>2020-07-03T18:33:25Z</time>
      </trkpt>
      <trkpt lat="46.60841" lon="0.35334">
        <ele>71.5</ele>
        <time>2020-07-03T18:33:26Z</time>
      </trkpt>
      <trkpt lat="46.60836" lon="0.35329">
        <ele>71.6</ele>
        <time>2020-07-03T18:33:27Z</time>
      </trkpt>
      <trkpt lat="46.60831" lon="0.35324">
        <ele>71.6</ele>
        <time>2020-07-03T18:33:28Z</time>
      </trkpt>
      <trkpt lat="46.60825" lon="0.3532">
        <ele>71.7</ele>
        <time>2020-07-03T18:33:29Z</time>
      </trkpt>
      <trkpt lat="46.6082" lon="0.35316">
        <ele>71.7</ele>
        <time>2020-07-03T18:33:30Z</time>
      </trkpt>
      <trkpt lat="46.60816" lon="0.35312">
        <ele>71.8</ele>
        <time>2020-07-03T18:33:31Z</time>
      </trkpt>
      <trkpt lat="46.60811" lon="0.35307">
        <ele>71.8</ele>
        <time>2020-07-03T18:33:32Z</time>
      </trkpt>
      <trkpt lat="46.60807" lon="0.35303">
        <ele>71.8</ele>
        <time>2020-07-03T18:33:33Z</time>
      </trkpt>
      <trkpt lat="46.60803" lon="0.35299">
        <ele>71.8</ele>
        <time>2020-07-03T18:33:34Z</time>
      </trkpt>
      <trkpt lat="46.60798" lon="0.35295">
        <ele>71.8</ele>
        <time>2020-07-03T18:33:35Z</time>
      </trkpt>
      <trkpt lat="46.60794" lon="0.3529">
        <ele>71.8</ele>
        <time>2020-07-03T18:33:36Z</time>
      </trkpt>
      <trkpt lat="46.6079" lon="0.35285">
        <ele>71.8</ele>
        <time>2020-07-03T18:33:37Z</time>
      </trkpt>
      <trkpt lat="46.60785" lon="0.3528">
        <ele>71.7</ele>
        <time>2020-07-03T18:33:38Z</time>
      </trkpt>
      <trkpt lat="46.6078" lon="0.35275">
        <ele>71.7</ele>
        <time>2020-07-03T18:33:39Z</time>
      </trkpt>
      <trkpt lat="46.60776" lon="0.3527">
        <ele>71.7</ele>
        <time>2020-07-03T18:33:40Z</time>
      </trkpt>
      <trkpt lat="46.60771" lon="0.35265">
        <ele>71.6</ele>
        <time>2020-07-03T18:33:41Z</time>
      </trkpt>
      <trkpt lat="46.60768" lon="0.35261">
        <ele>71.6</ele>
        <time>2020-07-03T18:33:42Z</time>
      </trkpt>
      <trkpt lat="46.60763" lon="0.35256">
        <ele>71.6</ele>
        <time>2020-07-03T18:33:43Z</time>
      </trkpt>
      <trkpt lat="46.60758" lon="0.35251">
        <ele>71.6</ele>
        <time>2020-07-03T18:33:44Z</time>
      </trkpt>
      <trkpt lat="46.60753" lon="0.35247">
        <ele>71.5</ele>
        <time>2020-07-03T18:33:45Z</time>
      </trkpt>
      <trkpt lat="46.60747" lon="0.35241">
        <ele>71.5</ele>
        <time>2020-07-03T18:33:46Z</time>
      </trkpt>
      <trkpt lat="46.60742" lon="0.35235">
        <ele>71.5</ele>
        <time>2020-07-03T18:33:47Z</time>
      </trkpt>
      <trkpt lat="46.60739" lon="0.3523">
        <ele>71.4</ele>
        <time>2020-07-03T18:33:48Z</time>
      </trkpt>
      <trkpt lat="46.60735" lon="0.35226">
        <ele>71.4</ele>
        <time>2020-07-03T18:33:49Z</time>
      </trkpt>
      <trkpt lat="46.6073" lon="0.35218">
        <ele>71.4</ele>
        <time>2020-07-03T18:33:50Z</time>
      </trkpt>
      <trkpt lat="46.60726" lon="0.35213">
        <ele>71.4</ele>
        <time>2020-07-03T18:33:51Z</time>
      </trkpt>
      <trkpt lat="46.6072" lon="0.35208">
        <ele>71.4</ele>
        <time>2020-07-03T18:33:52Z</time>
      </trkpt>
      <trkpt lat="46.60715" lon="0.35204">
        <ele>71.4</ele>
        <time>2020-07-03T18:33:53Z</time>
      </trkpt>
      <trkpt lat="46.6071" lon="0.35198">
        <ele>71.4</ele>
        <time>2020-07-03T18:33:54Z</time>
      </trkpt>
      <trkpt lat="46.60706" lon="0.35192">
        <ele>71.4</ele>
        <time>2020-07-03T18:33:55Z</time>
      </trkpt>
      <trkpt lat="46.60702" lon="0.35185">
        <ele>71.3</ele>
        <time>2020-07-03T18:33:56Z</time>
      </trkpt>
      <trkpt lat="46.60696" lon="0.3518">
        <ele>71.3</ele>
        <time>2020-07-03T18:33:57Z</time>
      </trkpt>
      <trkpt lat="46.60691" lon="0.35175">
        <ele>71.3</ele>
        <time>2020-07-03T18:33:58Z</time>
      </trkpt>
      <trkpt lat="46.60685" lon="0.35169">
        <ele>71.3</ele>
        <time>2020-07-03T18:33:59Z</time>
      </trkpt>
      <trkpt lat="46.6068" lon="0.35164">
        <ele>71.3</ele>
        <time>2020-07-03T18:34:00Z</time>
      </trkpt>
      <trkpt lat="46.60675" lon="0.35158">
        <ele>71.3</ele>
        <time>2020-07-03T18:34:01Z</time>
      </trkpt>
      <trkpt lat="46.6067" lon="0.35151">
        <ele>71.3</ele>
        <time>2020-07-03T18:34:02Z</time>
      </trkpt>
      <trkpt lat="46.60664" lon="0.35145">
        <ele>71.4</ele>
        <time>2020-07-03T18:34:03Z</time>
      </trkpt>
      <trkpt lat="46.60658" lon="0.3514">
        <ele>71.4</ele>
        <time>2020-07-03T18:34:04Z</time>
      </trkpt>
      <trkpt lat="46.60653" lon="0.35134">
        <ele>71.4</ele>
        <time>2020-07-03T18:34:05Z</time>
      </trkpt>
      <trkpt lat="46.60648" lon="0.35128">
        <ele>71.4</ele>
        <time>2020-07-03T18:34:06Z</time>
      </trkpt>
      <trkpt lat="46.60643" lon="0.35121">
        <ele>71.5</ele>
        <time>2020-07-03T18:34:07Z</time>
      </trkpt>
      <trkpt lat="46.60638" lon="0.35116">
        <ele>71.5</ele>
        <time>2020-07-03T18:34:08Z</time>
      </trkpt>
      <trkpt lat="46.60632" lon="0.35111">
        <ele>71.6</ele>
        <time>2020-07-03T18:34:09Z</time>
      </trkpt>
      <trkpt lat="46.60628" lon="0.35105">
        <ele>71.6</ele>
        <time>2020-07-03T18:34:10Z</time>
      </trkpt>
      <trkpt lat="46.60623" lon="0.35098">
        <ele>71.6</ele>
        <time>2020-07-03T18:34:11Z</time>
      </trkpt>
      <trkpt lat="46.60619" lon="0.35092">
        <ele>71.7</ele>
        <time>2020-07-03T18:34:12Z</time>
      </trkpt>
      <trkpt lat="46.60613" lon="0.35086">
        <ele>71.7</ele>
        <time>2020-07-03T18:34:13Z</time>
      </trkpt>
      <trkpt lat="46.60608" lon="0.35082">
        <ele>71.7</ele>
        <time>2020-07-03T18:34:14Z</time>
      </trkpt>
      <trkpt lat="46.60604" lon="0.35076">
        <ele>71.6</ele>
        <time>2020-07-03T18:34:15Z</time>
      </trkpt>
      <trkpt lat="46.606" lon="0.35069">
        <ele>71.6</ele>
        <time>2020-07-03T18:34:16Z</time>
      </trkpt>
      <trkpt lat="46.60596" lon="0.35062">
        <ele>71.6</ele>
        <time>2020-07-03T18:34:17Z</time>
      </trkpt>
      <trkpt lat="46.60592" lon="0.35056">
        <ele>71.6</ele>
        <time>2020-07-03T18:34:18Z</time>
      </trkpt>
      <trkpt lat="46.60588" lon="0.3505">
        <ele>71.6</ele>
        <time>2020-07-03T18:34:19Z</time>
      </trkpt>
      <trkpt lat="46.60581" lon="0.35043">
        <ele>71.6</ele>
        <time>2020-07-03T18:34:20Z</time>
      </trkpt>
      <trkpt lat="46.60576" lon="0.35037">
        <ele>71.6</ele>
        <time>2020-07-03T18:34:21Z</time>
      </trkpt>
      <trkpt lat="46.60571" lon="0.35031">
        <ele>71.6</ele>
        <time>2020-07-03T18:34:22Z</time>
      </trkpt>
      <trkpt lat="46.60566" lon="0.35025">
        <ele>71.6</ele>
        <time>2020-07-03T18:34:23Z</time>
      </trkpt>
      <trkpt lat="46.6056" lon="0.35017">
        <ele>71.5</ele>
        <time>2020-07-03T18:34:24Z</time>
      </trkpt>
      <trkpt lat="46.60553" lon="0.35009">
        <ele>71.5</ele>
        <time>2020-07-03T18:34:25Z</time>
      </trkpt>
      <trkpt lat="46.60548" lon="0.35003">
        <ele>71.5</ele>
        <time>2020-07-03T18:34:26Z</time>
      </trkpt>
      <trkpt lat="46.60543" lon="0.34997">
        <ele>71.5</ele>
        <time>2020-07-03T18:34:27Z</time>
      </trkpt>
      <trkpt lat="46.60537" lon="0.3499">
        <ele>71.5</ele>
        <time>2020-07-03T18:34:28Z</time>
      </trkpt>
      <trkpt lat="46.60533" lon="0.34986">
        <ele>71.5</ele>
        <time>2020-07-03T18:34:29Z</time>
      </trkpt>
      <trkpt lat="46.60528" lon="0.34979">
        <ele>71.5</ele>
        <time>2020-07-03T18:34:30Z</time>
      </trkpt>
      <trkpt lat="46.60524" lon="0.34974">
        <ele>71.5</ele>
        <time>2020-07-03T18:34:31Z</time>
      </trkpt>
      <trkpt lat="46.60519" lon="0.34968">
        <ele>71.5</ele>
        <time>2020-07-03T18:34:32Z</time>
      </trkpt>
      <trkpt lat="46.60513" lon="0.34962">
        <ele>71.4</ele>
        <time>2020-07-03T18:34:33Z</time>
      </trkpt>
      <trkpt lat="46.60507" lon="0.34956">
        <ele>71.4</ele>
        <time>2020-07-03T18:34:34Z</time>
      </trkpt>
      <trkpt lat="46.60501" lon="0.34949">
        <ele>71.3</ele>
        <time>2020-07-03T18:34:35Z</time>
      </trkpt>
      <trkpt lat="46.60495" lon="0.34941">
        <ele>71.2</ele>
        <time>2020-07-03T18:34:36Z</time>
      </trkpt>
      <trkpt lat="46.6049" lon="0.34935">
        <ele>71.1</ele>
        <time>2020-07-03T18:34:37Z</time>
      </trkpt>
      <trkpt lat="46.60485" lon="0.34929">
        <ele>71</ele>
        <time>2020-07-03T18:34:38Z</time>
      </trkpt>
      <trkpt lat="46.60479" lon="0.34922">
        <ele>71</ele>
        <time>2020-07-03T18:34:39Z</time>
      </trkpt>
      <trkpt lat="46.60474" lon="0.34916">
        <ele>70.9</ele>
        <time>2020-07-03T18:34:40Z</time>
      </trkpt>
      <trkpt lat="46.60469" lon="0.3491">
        <ele>70.9</ele>
        <time>2020-07-03T18:34:41Z</time>
      </trkpt>
      <trkpt lat="46.60464" lon="0.34905">
        <ele>70.8</ele>
        <time>2020-07-03T18:34:42Z</time>
      </trkpt>
      <trkpt lat="46.60459" lon="0.34899">
        <ele>70.8</ele>
        <time>2020-07-03T18:34:43Z</time>
      </trkpt>
      <trkpt lat="46.60455" lon="0.34893">
        <ele>70.8</ele>
        <time>2020-07-03T18:34:44Z</time>
      </trkpt>
      <trkpt lat="46.60451" lon="0.34887">
        <ele>70.8</ele>
        <time>2020-07-03T18:34:45Z</time>
      </trkpt>
      <trkpt lat="46.60445" lon="0.34879">
        <ele>70.8</ele>
        <time>2020-07-03T18:34:46Z</time>
      </trkpt>
      <trkpt lat="46.60439" lon="0.34872">
        <ele>70.8</ele>
        <time>2020-07-03T18:34:47Z</time>
      </trkpt>
      <trkpt lat="46.60434" lon="0.34865">
        <ele>70.7</ele>
        <time>2020-07-03T18:34:48Z</time>
      </trkpt>
      <trkpt lat="46.60429" lon="0.34859">
        <ele>70.7</ele>
        <time>2020-07-03T18:34:49Z</time>
      </trkpt>
      <trkpt lat="46.60424" lon="0.34853">
        <ele>70.7</ele>
        <time>2020-07-03T18:34:50Z</time>
      </trkpt>
      <trkpt lat="46.60418" lon="0.34846">
        <ele>70.7</ele>
        <time>2020-07-03T18:34:51Z</time>
      </trkpt>
      <trkpt lat="46.60413" lon="0.34839">
        <ele>70.6</ele>
        <time>2020-07-03T18:34:52Z</time>
      </trkpt>
      <trkpt lat="46.60407" lon="0.34831">
        <ele>70.6</ele>
        <time>2020-07-03T18:34:53Z</time>
      </trkpt>
      <trkpt lat="46.60403" lon="0.34824">
        <ele>70.6</ele>
        <time>2020-07-03T18:34:54Z</time>
      </trkpt>
      <trkpt lat="46.60397" lon="0.34815">
        <ele>70.6</ele>
        <time>2020-07-03T18:34:55Z</time>
      </trkpt>
      <trkpt lat="46.60392" lon="0.34808">
        <ele>70.6</ele>
        <time>2020-07-03T18:34:56Z</time>
      </trkpt>
      <trkpt lat="46.60386" lon="0.34801">
        <ele>70.6</ele>
        <time>2020-07-03T18:34:57Z</time>
      </trkpt>
      <trkpt lat="46.60381" lon="0.34794">
        <ele>70.6</ele>
        <time>2020-07-03T18:34:58Z</time>
      </trkpt>
      <trkpt lat="46.60377" lon="0.34788">
        <ele>70.5</ele>
        <time>2020-07-03T18:34:59Z</time>
      </trkpt>
      <trkpt lat="46.60373" lon="0.34781">
        <ele>70.4</ele>
        <time>2020-07-03T18:35:00Z</time>
      </trkpt>
      <trkpt lat="46.60369" lon="0.34774">
        <ele>70.4</ele>
        <time>2020-07-03T18:35:01Z</time>
      </trkpt>
      <trkpt lat="46.60365" lon="0.34767">
        <ele>70.3</ele>
        <time>2020-07-03T18:35:02Z</time>
      </trkpt>
      <trkpt lat="46.60361" lon="0.3476">
        <ele>70.3</ele>
        <time>2020-07-03T18:35:03Z</time>
      </trkpt>
      <trkpt lat="46.60357" lon="0.34754">
        <ele>70.2</ele>
        <time>2020-07-03T18:35:04Z</time>
      </trkpt>
      <trkpt lat="46.60352" lon="0.34747">
        <ele>70.2</ele>
        <time>2020-07-03T18:35:05Z</time>
      </trkpt>
      <trkpt lat="46.60349" lon="0.34742">
        <ele>70.2</ele>
        <time>2020-07-03T18:35:06Z</time>
      </trkpt>
      <trkpt lat="46.60344" lon="0.34736">
        <ele>70.1</ele>
        <time>2020-07-03T18:35:07Z</time>
      </trkpt>
      <trkpt lat="46.60343" lon="0.34732">
        <ele>70.1</ele>
        <time>2020-07-03T18:35:08Z</time>
      </trkpt>
      <trkpt lat="46.60339" lon="0.34726">
        <ele>70.1</ele>
        <time>2020-07-03T18:35:09Z</time>
      </trkpt>
      <trkpt lat="46.60336" lon="0.34722">
        <ele>70.1</ele>
        <time>2020-07-03T18:35:10Z</time>
      </trkpt>
      <trkpt lat="46.60334" lon="0.34718">
        <ele>70.1</ele>
        <time>2020-07-03T18:35:11Z</time>
      </trkpt>
      <trkpt lat="46.60331" lon="0.34714">
        <ele>70.1</ele>
        <time>2020-07-03T18:35:12Z</time>
      </trkpt>
      <trkpt lat="46.60328" lon="0.34709">
        <ele>70.1</ele>
        <time>2020-07-03T18:35:13Z</time>
      </trkpt>
      <trkpt lat="46.60324" lon="0.34704">
        <ele>70.1</ele>
        <time>2020-07-03T18:35:14Z</time>
      </trkpt>
      <trkpt lat="46.60321" lon="0.34701">
        <ele>70.1</ele>
        <time>2020-07-03T18:35:15Z</time>
      </trkpt>
      <trkpt lat="46.60321" lon="0.34697">
        <ele>70.2</ele>
        <time>2020-07-03T18:35:16Z</time>
      </trkpt>
      <trkpt lat="46.60321" lon="0.34695">
        <ele>70.2</ele>
        <time>2020-07-03T18:35:17Z</time>
      </trkpt>
      <trkpt lat="46.60319" lon="0.34692">
        <ele>70.2</ele>
        <time>2020-07-03T18:35:18Z</time>
      </trkpt>
      <trkpt lat="46.60319" lon="0.34691">
        <ele>70.2</ele>
        <time>2020-07-03T18:35:19Z</time>
      </trkpt>
      <trkpt lat="46.60319" lon="0.34692">
        <ele>70.2</ele>
        <time>2020-07-03T18:35:20Z</time>
      </trkpt>
      <trkpt lat="46.60319" lon="0.34692">
        <ele>70.2</ele>
        <time>2020-07-03T18:35:21Z</time>
      </trkpt>
      <trkpt lat="46.60319" lon="0.34693">
        <ele>70.2</ele>
        <time>2020-07-03T18:35:22Z</time>
      </trkpt>
      <trkpt lat="46.6032" lon="0.34694">
        <ele>70.2</ele>
        <time>2020-07-03T18:35:23Z</time>
      </trkpt>
      <trkpt lat="46.60321" lon="0.34694">
        <ele>70.2</ele>
        <time>2020-07-03T18:35:24Z</time>
      </trkpt>
      <trkpt lat="46.60321" lon="0.34695">
        <ele>70.2</ele>
        <time>2020-07-03T18:35:25Z</time>
      </trkpt>
      <trkpt lat="46.60322" lon="0.34695">
        <ele>70.2</ele>
        <time>2020-07-03T18:35:26Z</time>
      </trkpt>
      <trkpt lat="46.60322" lon="0.34695">
        <ele>70.2</ele>
        <time>2020-07-03T18:35:27Z</time>
      </trkpt>
      <trkpt lat="46.60322" lon="0.34695">
        <ele>70.2</ele>
        <time>2020-07-03T18:35:28Z</time>
      </trkpt>
      <trkpt lat="46.60321" lon="0.34695">
        <ele>70.2</ele>
        <time>2020-07-03T18:35:29Z</time>
      </trkpt>
      <trkpt lat="46.6032" lon="0.34687">
        <ele>70.2</ele>
        <time>2020-07-03T18:35:35Z</time>
      </trkpt>
      <trkpt lat="46.6032" lon="0.34686">
        <ele>70.2</ele>
        <time>2020-07-03T18:35:36Z</time>
      </trkpt>
      <trkpt lat="46.6032" lon="0.34686">
        <ele>70.2</ele>
        <time>2020-07-03T18:35:37Z</time>
      </trkpt>
      <trkpt lat="46.6032" lon="0.34687">
        <ele>70.2</ele>
        <time>2020-07-03T18:35:38Z</time>
      </trkpt>
      <trkpt lat="46.6032" lon="0.34686">
        <ele>70.2</ele>
        <time>2020-07-03T18:35:39Z</time>
      </trkpt>
      <trkpt lat="46.60321" lon="0.34687">
        <ele>70.2</ele>
        <time>2020-07-03T18:35:40Z</time>
      </trkpt>
      <trkpt lat="46.60321" lon="0.34687">
        <ele>70.2</ele>
        <time>2020-07-03T18:35:41Z</time>
      </trkpt>
      <trkpt lat="46.6032" lon="0.34685">
        <ele>70.2</ele>
        <time>2020-07-03T18:35:42Z</time>
      </trkpt>
      <trkpt lat="46.6032" lon="0.34685">
        <ele>70.2</ele>
        <time>2020-07-03T18:35:43Z</time>
      </trkpt>
      <trkpt lat="46.60319" lon="0.34684">
        <ele>70.2</ele>
        <time>2020-07-03T18:35:44Z</time>
      </trkpt>
      <trkpt lat="46.60319" lon="0.34684">
        <ele>70.2</ele>
        <time>2020-07-03T18:35:45Z</time>
      </trkpt>
      <trkpt lat="46.60319" lon="0.34684">
        <ele>70.2</ele>
        <time>2020-07-03T18:35:46Z</time>
      </trkpt>
      <trkpt lat="46.60319" lon="0.34684">
        <ele>70.2</ele>
        <time>2020-07-03T18:35:47Z</time>
      </trkpt>
      <trkpt lat="46.60319" lon="0.34685">
        <ele>70.2</ele>
        <time>2020-07-03T18:35:48Z</time>
      </trkpt>
      <trkpt lat="46.60319" lon="0.34685">
        <ele>70.2</ele>
        <time>2020-07-03T18:35:49Z</time>
      </trkpt>
      <trkpt lat="46.60319" lon="0.34686">
        <ele>70.2</ele>
        <time>2020-07-03T18:35:50Z</time>
      </trkpt>
      <trkpt lat="46.60319" lon="0.34685">
        <ele>70.2</ele>
        <time>2020-07-03T18:35:51Z</time>
      </trkpt>
      <trkpt lat="46.60319" lon="0.34685">
        <ele>70.2</ele>
        <time>2020-07-03T18:35:52Z</time>
      </trkpt>
      <trkpt lat="46.60318" lon="0.34685">
        <ele>70.2</ele>
        <time>2020-07-03T18:35:53Z</time>
      </trkpt>
      <trkpt lat="46.60319" lon="0.34687">
        <ele>70.3</ele>
        <time>2020-07-03T18:35:54Z</time>
      </trkpt>
      <trkpt lat="46.60316" lon="0.34687">
        <ele>70.3</ele>
        <time>2020-07-03T18:36:49Z</time>
      </trkpt>
      <trkpt lat="46.60316" lon="0.34686">
        <ele>70.3</ele>
        <time>2020-07-03T18:36:50Z</time>
      </trkpt>
      <trkpt lat="46.60316" lon="0.34686">
        <ele>70.3</ele>
        <time>2020-07-03T18:36:51Z</time>
      </trkpt>
      <trkpt lat="46.60316" lon="0.34686">
        <ele>70.3</ele>
        <time>2020-07-03T18:36:52Z</time>
      </trkpt>
      <trkpt lat="46.60316" lon="0.34686">
        <ele>70.3</ele>
        <time>2020-07-03T18:36:53Z</time>
      </trkpt>
      <trkpt lat="46.60315" lon="0.34686">
        <ele>70.3</ele>
        <time>2020-07-03T18:36:54Z</time>
      </trkpt>
      <trkpt lat="46.60314" lon="0.34685">
        <ele>70.3</ele>
        <time>2020-07-03T18:36:55Z</time>
      </trkpt>
      <trkpt lat="46.60313" lon="0.34684">
        <ele>70.3</ele>
        <time>2020-07-03T18:36:56Z</time>
      </trkpt>
      <trkpt lat="46.60312" lon="0.34683">
        <ele>70.3</ele>
        <time>2020-07-03T18:36:57Z</time>
      </trkpt>
      <trkpt lat="46.60311" lon="0.34683">
        <ele>70.3</ele>
        <time>2020-07-03T18:36:58Z</time>
      </trkpt>
      <trkpt lat="46.60309" lon="0.3468">
        <ele>70.3</ele>
        <time>2020-07-03T18:36:59Z</time>
      </trkpt>
      <trkpt lat="46.60306" lon="0.34677">
        <ele>70.3</ele>
        <time>2020-07-03T18:37:00Z</time>
      </trkpt>
      <trkpt lat="46.60305" lon="0.34676">
        <ele>70.3</ele>
        <time>2020-07-03T18:37:01Z</time>
      </trkpt>
      <trkpt lat="46.60302" lon="0.34672">
        <ele>70.4</ele>
        <time>2020-07-03T18:37:02Z</time>
      </trkpt>
      <trkpt lat="46.603" lon="0.34668">
        <ele>70.4</ele>
        <time>2020-07-03T18:37:03Z</time>
      </trkpt>
      <trkpt lat="46.60297" lon="0.34664">
        <ele>70.4</ele>
        <time>2020-07-03T18:37:04Z</time>
      </trkpt>
      <trkpt lat="46.60295" lon="0.3466">
        <ele>70.4</ele>
        <time>2020-07-03T18:37:05Z</time>
      </trkpt>
      <trkpt lat="46.60292" lon="0.34655">
        <ele>70.4</ele>
        <time>2020-07-03T18:37:06Z</time>
      </trkpt>
      <trkpt lat="46.60288" lon="0.34651">
        <ele>70.5</ele>
        <time>2020-07-03T18:37:07Z</time>
      </trkpt>
      <trkpt lat="46.60285" lon="0.34647">
        <ele>70.6</ele>
        <time>2020-07-03T18:37:08Z</time>
      </trkpt>
      <trkpt lat="46.60282" lon="0.34642">
        <ele>70.7</ele>
        <time>2020-07-03T18:37:09Z</time>
      </trkpt>
      <trkpt lat="46.60279" lon="0.34638">
        <ele>70.8</ele>
        <time>2020-07-03T18:37:10Z</time>
      </trkpt>
      <trkpt lat="46.60275" lon="0.34633">
        <ele>70.9</ele>
        <time>2020-07-03T18:37:11Z</time>
      </trkpt>
      <trkpt lat="46.60272" lon="0.34628">
        <ele>71</ele>
        <time>2020-07-03T18:37:12Z</time>
      </trkpt>
      <trkpt lat="46.60268" lon="0.34622">
        <ele>71.1</ele>
        <time>2020-07-03T18:37:13Z</time>
      </trkpt>
      <trkpt lat="46.60263" lon="0.34615">
        <ele>71.2</ele>
        <time>2020-07-03T18:37:14Z</time>
      </trkpt>
      <trkpt lat="46.6026" lon="0.3461">
        <ele>71.2</ele>
        <time>2020-07-03T18:37:15Z</time>
      </trkpt>
      <trkpt lat="46.60257" lon="0.34605">
        <ele>71.3</ele>
        <time>2020-07-03T18:37:16Z</time>
      </trkpt>
      <trkpt lat="46.60253" lon="0.34599">
        <ele>71.3</ele>
        <time>2020-07-03T18:37:17Z</time>
      </trkpt>
      <trkpt lat="46.60249" lon="0.34595">
        <ele>71.4</ele>
        <time>2020-07-03T18:37:18Z</time>
      </trkpt>
      <trkpt lat="46.60245" lon="0.3459">
        <ele>71.4</ele>
        <time>2020-07-03T18:37:19Z</time>
      </trkpt>
      <trkpt lat="46.60242" lon="0.34585">
        <ele>71.4</ele>
        <time>2020-07-03T18:37:20Z</time>
      </trkpt>
      <trkpt lat="46.60238" lon="0.34581">
        <ele>71.5</ele>
        <time>2020-07-03T18:37:21Z</time>
      </trkpt>
      <trkpt lat="46.60235" lon="0.34576">
        <ele>71.5</ele>
        <time>2020-07-03T18:37:22Z</time>
      </trkpt>
      <trkpt lat="46.60232" lon="0.34572">
        <ele>71.6</ele>
        <time>2020-07-03T18:37:23Z</time>
      </trkpt>
      <trkpt lat="46.60229" lon="0.34568">
        <ele>71.6</ele>
        <time>2020-07-03T18:37:24Z</time>
      </trkpt>
      <trkpt lat="46.60226" lon="0.34563">
        <ele>71.7</ele>
        <time>2020-07-03T18:37:25Z</time>
      </trkpt>
      <trkpt lat="46.60222" lon="0.34559">
        <ele>71.8</ele>
        <time>2020-07-03T18:37:26Z</time>
      </trkpt>
      <trkpt lat="46.60219" lon="0.34554">
        <ele>71.8</ele>
        <time>2020-07-03T18:37:27Z</time>
      </trkpt>
      <trkpt lat="46.60216" lon="0.3455">
        <ele>71.9</ele>
        <time>2020-07-03T18:37:28Z</time>
      </trkpt>
      <trkpt lat="46.60212" lon="0.34545">
        <ele>72</ele>
        <time>2020-07-03T18:37:29Z</time>
      </trkpt>
      <trkpt lat="46.6021" lon="0.34541">
        <ele>72.1</ele>
        <time>2020-07-03T18:37:30Z</time>
      </trkpt>
      <trkpt lat="46.60207" lon="0.34536">
        <ele>72.2</ele>
        <time>2020-07-03T18:37:31Z</time>
      </trkpt>
      <trkpt lat="46.60204" lon="0.34531">
        <ele>72.2</ele>
        <time>2020-07-03T18:37:32Z</time>
      </trkpt>
      <trkpt lat="46.602" lon="0.34526">
        <ele>72.3</ele>
        <time>2020-07-03T18:37:33Z</time>
      </trkpt>
      <trkpt lat="46.60197" lon="0.34522">
        <ele>72.4</ele>
        <time>2020-07-03T18:37:34Z</time>
      </trkpt>
      <trkpt lat="46.60194" lon="0.34518">
        <ele>72.5</ele>
        <time>2020-07-03T18:37:35Z</time>
      </trkpt>
      <trkpt lat="46.60191" lon="0.34514">
        <ele>72.5</ele>
        <time>2020-07-03T18:37:36Z</time>
      </trkpt>
      <trkpt lat="46.60189" lon="0.34509">
        <ele>72.6</ele>
        <time>2020-07-03T18:37:37Z</time>
      </trkpt>
      <trkpt lat="46.60186" lon="0.34505">
        <ele>72.7</ele>
        <time>2020-07-03T18:37:38Z</time>
      </trkpt>
      <trkpt lat="46.60183" lon="0.34501">
        <ele>72.7</ele>
        <time>2020-07-03T18:37:39Z</time>
      </trkpt>
      <trkpt lat="46.6018" lon="0.34496">
        <ele>72.8</ele>
        <time>2020-07-03T18:37:40Z</time>
      </trkpt>
      <trkpt lat="46.60177" lon="0.34491">
        <ele>72.9</ele>
        <time>2020-07-03T18:37:41Z</time>
      </trkpt>
      <trkpt lat="46.60174" lon="0.34486">
        <ele>73</ele>
        <time>2020-07-03T18:37:42Z</time>
      </trkpt>
      <trkpt lat="46.6017" lon="0.34481">
        <ele>73.1</ele>
        <time>2020-07-03T18:37:43Z</time>
      </trkpt>
      <trkpt lat="46.60167" lon="0.34476">
        <ele>73.2</ele>
        <time>2020-07-03T18:37:44Z</time>
      </trkpt>
      <trkpt lat="46.60163" lon="0.3447">
        <ele>73.3</ele>
        <time>2020-07-03T18:37:45Z</time>
      </trkpt>
      <trkpt lat="46.6016" lon="0.34465">
        <ele>73.4</ele>
        <time>2020-07-03T18:37:46Z</time>
      </trkpt>
      <trkpt lat="46.60157" lon="0.34459">
        <ele>73.5</ele>
        <time>2020-07-03T18:37:47Z</time>
      </trkpt>
      <trkpt lat="46.60153" lon="0.34454">
        <ele>73.6</ele>
        <time>2020-07-03T18:37:48Z</time>
      </trkpt>
      <trkpt lat="46.60149" lon="0.34449">
        <ele>73.8</ele>
        <time>2020-07-03T18:37:49Z</time>
      </trkpt>
      <trkpt lat="46.60145" lon="0.34444">
        <ele>73.9</ele>
        <time>2020-07-03T18:37:50Z</time>
      </trkpt>
      <trkpt lat="46.60142" lon="0.34438">
        <ele>74</ele>
        <time>2020-07-03T18:37:51Z</time>
      </trkpt>
      <trkpt lat="46.60137" lon="0.34434">
        <ele>74.2</ele>
        <time>2020-07-03T18:37:52Z</time>
      </trkpt>
      <trkpt lat="46.60133" lon="0.34429">
        <ele>74.3</ele>
        <time>2020-07-03T18:37:53Z</time>
      </trkpt>
      <trkpt lat="46.60129" lon="0.34425">
        <ele>74.5</ele>
        <time>2020-07-03T18:37:54Z</time>
      </trkpt>
      <trkpt lat="46.60125" lon="0.34422">
        <ele>74.6</ele>
        <time>2020-07-03T18:37:55Z</time>
      </trkpt>
      <trkpt lat="46.60121" lon="0.34418">
        <ele>74.8</ele>
        <time>2020-07-03T18:37:56Z</time>
      </trkpt>
      <trkpt lat="46.60118" lon="0.34416">
        <ele>74.9</ele>
        <time>2020-07-03T18:37:57Z</time>
      </trkpt>
      <trkpt lat="46.60115" lon="0.34414">
        <ele>75</ele>
        <time>2020-07-03T18:37:58Z</time>
      </trkpt>
      <trkpt lat="46.60111" lon="0.34411">
        <ele>75.2</ele>
        <time>2020-07-03T18:37:59Z</time>
      </trkpt>
      <trkpt lat="46.60107" lon="0.34408">
        <ele>75.3</ele>
        <time>2020-07-03T18:38:00Z</time>
      </trkpt>
      <trkpt lat="46.60103" lon="0.34406">
        <ele>75.5</ele>
        <time>2020-07-03T18:38:01Z</time>
      </trkpt>
      <trkpt lat="46.60099" lon="0.34405">
        <ele>75.6</ele>
        <time>2020-07-03T18:38:02Z</time>
      </trkpt>
      <trkpt lat="46.60095" lon="0.34403">
        <ele>75.8</ele>
        <time>2020-07-03T18:38:03Z</time>
      </trkpt>
      <trkpt lat="46.60092" lon="0.344">
        <ele>75.9</ele>
        <time>2020-07-03T18:38:04Z</time>
      </trkpt>
      <trkpt lat="46.60088" lon="0.34398">
        <ele>76</ele>
        <time>2020-07-03T18:38:05Z</time>
      </trkpt>
      <trkpt lat="46.60084" lon="0.34397">
        <ele>76.2</ele>
        <time>2020-07-03T18:38:06Z</time>
      </trkpt>
      <trkpt lat="46.6008" lon="0.34395">
        <ele>76.3</ele>
        <time>2020-07-03T18:38:07Z</time>
      </trkpt>
      <trkpt lat="46.60076" lon="0.34393">
        <ele>76.5</ele>
        <time>2020-07-03T18:38:08Z</time>
      </trkpt>
      <trkpt lat="46.60073" lon="0.3439">
        <ele>76.6</ele>
        <time>2020-07-03T18:38:09Z</time>
      </trkpt>
      <trkpt lat="46.60069" lon="0.34389">
        <ele>76.7</ele>
        <time>2020-07-03T18:38:10Z</time>
      </trkpt>
      <trkpt lat="46.60066" lon="0.34388">
        <ele>76.8</ele>
        <time>2020-07-03T18:38:11Z</time>
      </trkpt>
      <trkpt lat="46.60062" lon="0.34386">
        <ele>77</ele>
        <time>2020-07-03T18:38:12Z</time>
      </trkpt>
      <trkpt lat="46.60059" lon="0.34384">
        <ele>77.1</ele>
        <time>2020-07-03T18:38:13Z</time>
      </trkpt>
      <trkpt lat="46.60055" lon="0.34382">
        <ele>77.2</ele>
        <time>2020-07-03T18:38:14Z</time>
      </trkpt>
      <trkpt lat="46.60051" lon="0.3438">
        <ele>77.4</ele>
        <time>2020-07-03T18:38:15Z</time>
      </trkpt>
      <trkpt lat="46.60048" lon="0.34379">
        <ele>77.5</ele>
        <time>2020-07-03T18:38:16Z</time>
      </trkpt>
      <trkpt lat="46.60045" lon="0.34377">
        <ele>77.6</ele>
        <time>2020-07-03T18:38:17Z</time>
      </trkpt>
      <trkpt lat="46.60042" lon="0.34375">
        <ele>77.7</ele>
        <time>2020-07-03T18:38:18Z</time>
      </trkpt>
      <trkpt lat="46.60039" lon="0.34373">
        <ele>77.8</ele>
        <time>2020-07-03T18:38:19Z</time>
      </trkpt>
      <trkpt lat="46.60037" lon="0.34372">
        <ele>78</ele>
        <time>2020-07-03T18:38:20Z</time>
      </trkpt>
      <trkpt lat="46.60034" lon="0.3437">
        <ele>78.1</ele>
        <time>2020-07-03T18:38:21Z</time>
      </trkpt>
      <trkpt lat="46.60031" lon="0.34369">
        <ele>78.2</ele>
        <time>2020-07-03T18:38:22Z</time>
      </trkpt>
      <trkpt lat="46.60028" lon="0.34367">
        <ele>78.4</ele>
        <time>2020-07-03T18:38:23Z</time>
      </trkpt>
      <trkpt lat="46.60025" lon="0.34365">
        <ele>78.5</ele>
        <time>2020-07-03T18:38:24Z</time>
      </trkpt>
      <trkpt lat="46.60022" lon="0.34363">
        <ele>78.7</ele>
        <time>2020-07-03T18:38:25Z</time>
      </trkpt>
      <trkpt lat="46.60019" lon="0.34361">
        <ele>78.9</ele>
        <time>2020-07-03T18:38:26Z</time>
      </trkpt>
      <trkpt lat="46.60016" lon="0.3436">
        <ele>79.1</ele>
        <time>2020-07-03T18:38:27Z</time>
      </trkpt>
      <trkpt lat="46.60013" lon="0.34358">
        <ele>79.3</ele>
        <time>2020-07-03T18:38:28Z</time>
      </trkpt>
      <trkpt lat="46.6001" lon="0.34357">
        <ele>79.4</ele>
        <time>2020-07-03T18:38:29Z</time>
      </trkpt>
      <trkpt lat="46.60006" lon="0.34356">
        <ele>79.5</ele>
        <time>2020-07-03T18:38:30Z</time>
      </trkpt>
      <trkpt lat="46.60003" lon="0.34355">
        <ele>79.6</ele>
        <time>2020-07-03T18:38:31Z</time>
      </trkpt>
      <trkpt lat="46.60001" lon="0.34354">
        <ele>79.7</ele>
        <time>2020-07-03T18:38:32Z</time>
      </trkpt>
      <trkpt lat="46.59998" lon="0.34353">
        <ele>79.8</ele>
        <time>2020-07-03T18:38:33Z</time>
      </trkpt>
      <trkpt lat="46.59993" lon="0.34351">
        <ele>80</ele>
        <time>2020-07-03T18:38:34Z</time>
      </trkpt>
      <trkpt lat="46.5999" lon="0.34348">
        <ele>80.2</ele>
        <time>2020-07-03T18:38:35Z</time>
      </trkpt>
      <trkpt lat="46.59986" lon="0.34345">
        <ele>80.3</ele>
        <time>2020-07-03T18:38:36Z</time>
      </trkpt>
      <trkpt lat="46.59984" lon="0.34341">
        <ele>80.4</ele>
        <time>2020-07-03T18:38:37Z</time>
      </trkpt>
      <trkpt lat="46.59979" lon="0.3434">
        <ele>80.6</ele>
        <time>2020-07-03T18:38:38Z</time>
      </trkpt>
      <trkpt lat="46.59976" lon="0.34338">
        <ele>80.7</ele>
        <time>2020-07-03T18:38:39Z</time>
      </trkpt>
      <trkpt lat="46.59971" lon="0.34336">
        <ele>80.9</ele>
        <time>2020-07-03T18:38:40Z</time>
      </trkpt>
      <trkpt lat="46.59966" lon="0.34335">
        <ele>81.1</ele>
        <time>2020-07-03T18:38:41Z</time>
      </trkpt>
      <trkpt lat="46.59961" lon="0.34333">
        <ele>81.4</ele>
        <time>2020-07-03T18:38:42Z</time>
      </trkpt>
      <trkpt lat="46.59957" lon="0.3433">
        <ele>81.4</ele>
        <time>2020-07-03T18:38:43Z</time>
      </trkpt>
      <trkpt lat="46.59953" lon="0.34328">
        <ele>81.5</ele>
        <time>2020-07-03T18:38:44Z</time>
      </trkpt>
      <trkpt lat="46.59949" lon="0.34325">
        <ele>81.5</ele>
        <time>2020-07-03T18:38:45Z</time>
      </trkpt>
      <trkpt lat="46.59944" lon="0.34324">
        <ele>81.6</ele>
        <time>2020-07-03T18:38:46Z</time>
      </trkpt>
      <trkpt lat="46.5994" lon="0.34323">
        <ele>81.7</ele>
        <time>2020-07-03T18:38:47Z</time>
      </trkpt>
      <trkpt lat="46.59936" lon="0.34322">
        <ele>81.8</ele>
        <time>2020-07-03T18:38:48Z</time>
      </trkpt>
      <trkpt lat="46.59932" lon="0.3432">
        <ele>81.9</ele>
        <time>2020-07-03T18:38:49Z</time>
      </trkpt>
      <trkpt lat="46.59928" lon="0.34318">
        <ele>82</ele>
        <time>2020-07-03T18:38:50Z</time>
      </trkpt>
      <trkpt lat="46.59923" lon="0.34317">
        <ele>82.1</ele>
        <time>2020-07-03T18:38:51Z</time>
      </trkpt>
      <trkpt lat="46.5992" lon="0.34314">
        <ele>82.1</ele>
        <time>2020-07-03T18:38:52Z</time>
      </trkpt>
      <trkpt lat="46.59917" lon="0.34313">
        <ele>82.2</ele>
        <time>2020-07-03T18:38:53Z</time>
      </trkpt>
      <trkpt lat="46.59912" lon="0.3431">
        <ele>82.4</ele>
        <time>2020-07-03T18:38:54Z</time>
      </trkpt>
      <trkpt lat="46.59908" lon="0.34307">
        <ele>82.5</ele>
        <time>2020-07-03T18:38:55Z</time>
      </trkpt>
      <trkpt lat="46.59904" lon="0.34304">
        <ele>82.6</ele>
        <time>2020-07-03T18:38:56Z</time>
      </trkpt>
      <trkpt lat="46.59899" lon="0.34303">
        <ele>82.7</ele>
        <time>2020-07-03T18:38:57Z</time>
      </trkpt>
      <trkpt lat="46.59895" lon="0.34301">
        <ele>82.8</ele>
        <time>2020-07-03T18:38:58Z</time>
      </trkpt>
      <trkpt lat="46.5989" lon="0.34299">
        <ele>82.9</ele>
        <time>2020-07-03T18:38:59Z</time>
      </trkpt>
      <trkpt lat="46.59885" lon="0.34297">
        <ele>83</ele>
        <time>2020-07-03T18:39:00Z</time>
      </trkpt>
      <trkpt lat="46.59881" lon="0.34295">
        <ele>83.1</ele>
        <time>2020-07-03T18:39:01Z</time>
      </trkpt>
      <trkpt lat="46.59877" lon="0.34294">
        <ele>83.2</ele>
        <time>2020-07-03T18:39:02Z</time>
      </trkpt>
      <trkpt lat="46.59872" lon="0.34293">
        <ele>83.3</ele>
        <time>2020-07-03T18:39:03Z</time>
      </trkpt>
      <trkpt lat="46.59867" lon="0.34289">
        <ele>83.4</ele>
        <time>2020-07-03T18:39:04Z</time>
      </trkpt>
      <trkpt lat="46.59863" lon="0.34286">
        <ele>83.6</ele>
        <time>2020-07-03T18:39:05Z</time>
      </trkpt>
      <trkpt lat="46.59859" lon="0.34284">
        <ele>83.7</ele>
        <time>2020-07-03T18:39:06Z</time>
      </trkpt>
      <trkpt lat="46.59855" lon="0.34282">
        <ele>83.8</ele>
        <time>2020-07-03T18:39:07Z</time>
      </trkpt>
      <trkpt lat="46.59851" lon="0.3428">
        <ele>83.8</ele>
        <time>2020-07-03T18:39:08Z</time>
      </trkpt>
      <trkpt lat="46.59847" lon="0.34278">
        <ele>83.9</ele>
        <time>2020-07-03T18:39:09Z</time>
      </trkpt>
      <trkpt lat="46.59843" lon="0.34275">
        <ele>84</ele>
        <time>2020-07-03T18:39:10Z</time>
      </trkpt>
      <trkpt lat="46.59838" lon="0.34273">
        <ele>84.1</ele>
        <time>2020-07-03T18:39:11Z</time>
      </trkpt>
      <trkpt lat="46.59833" lon="0.34271">
        <ele>84.2</ele>
        <time>2020-07-03T18:39:12Z</time>
      </trkpt>
      <trkpt lat="46.59829" lon="0.34268">
        <ele>84.2</ele>
        <time>2020-07-03T18:39:13Z</time>
      </trkpt>
      <trkpt lat="46.59825" lon="0.34266">
        <ele>84.3</ele>
        <time>2020-07-03T18:39:14Z</time>
      </trkpt>
      <trkpt lat="46.59821" lon="0.34263">
        <ele>84.4</ele>
        <time>2020-07-03T18:39:15Z</time>
      </trkpt>
      <trkpt lat="46.59816" lon="0.34262">
        <ele>84.5</ele>
        <time>2020-07-03T18:39:16Z</time>
      </trkpt>
      <trkpt lat="46.59811" lon="0.34259">
        <ele>84.5</ele>
        <time>2020-07-03T18:39:17Z</time>
      </trkpt>
      <trkpt lat="46.59807" lon="0.34257">
        <ele>84.6</ele>
        <time>2020-07-03T18:39:18Z</time>
      </trkpt>
      <trkpt lat="46.59802" lon="0.34256">
        <ele>84.7</ele>
        <time>2020-07-03T18:39:19Z</time>
      </trkpt>
      <trkpt lat="46.59798" lon="0.34254">
        <ele>84.8</ele>
        <time>2020-07-03T18:39:20Z</time>
      </trkpt>
      <trkpt lat="46.59793" lon="0.34252">
        <ele>84.9</ele>
        <time>2020-07-03T18:39:21Z</time>
      </trkpt>
      <trkpt lat="46.59789" lon="0.34249">
        <ele>85</ele>
        <time>2020-07-03T18:39:22Z</time>
      </trkpt>
      <trkpt lat="46.59783" lon="0.34247">
        <ele>85.1</ele>
        <time>2020-07-03T18:39:23Z</time>
      </trkpt>
      <trkpt lat="46.59778" lon="0.34243">
        <ele>85.2</ele>
        <time>2020-07-03T18:39:24Z</time>
      </trkpt>
      <trkpt lat="46.59772" lon="0.34243">
        <ele>85.3</ele>
        <time>2020-07-03T18:39:25Z</time>
      </trkpt>
      <trkpt lat="46.59767" lon="0.3424">
        <ele>85.4</ele>
        <time>2020-07-03T18:39:26Z</time>
      </trkpt>
      <trkpt lat="46.59762" lon="0.34238">
        <ele>85.5</ele>
        <time>2020-07-03T18:39:27Z</time>
      </trkpt>
      <trkpt lat="46.59758" lon="0.34237">
        <ele>85.6</ele>
        <time>2020-07-03T18:39:28Z</time>
      </trkpt>
      <trkpt lat="46.59753" lon="0.34235">
        <ele>85.7</ele>
        <time>2020-07-03T18:39:29Z</time>
      </trkpt>
      <trkpt lat="46.59748" lon="0.34232">
        <ele>85.8</ele>
        <time>2020-07-03T18:39:30Z</time>
      </trkpt>
      <trkpt lat="46.59742" lon="0.3423">
        <ele>85.8</ele>
        <time>2020-07-03T18:39:31Z</time>
      </trkpt>
      <trkpt lat="46.59737" lon="0.34228">
        <ele>85.9</ele>
        <time>2020-07-03T18:39:32Z</time>
      </trkpt>
      <trkpt lat="46.59732" lon="0.34225">
        <ele>85.9</ele>
        <time>2020-07-03T18:39:33Z</time>
      </trkpt>
      <trkpt lat="46.59727" lon="0.34222">
        <ele>86</ele>
        <time>2020-07-03T18:39:34Z</time>
      </trkpt>
      <trkpt lat="46.59722" lon="0.34219">
        <ele>86.1</ele>
        <time>2020-07-03T18:39:35Z</time>
      </trkpt>
      <trkpt lat="46.59717" lon="0.34217">
        <ele>86.2</ele>
        <time>2020-07-03T18:39:36Z</time>
      </trkpt>
      <trkpt lat="46.59712" lon="0.34214">
        <ele>86.2</ele>
        <time>2020-07-03T18:39:37Z</time>
      </trkpt>
      <trkpt lat="46.59707" lon="0.34213">
        <ele>86.3</ele>
        <time>2020-07-03T18:39:38Z</time>
      </trkpt>
      <trkpt lat="46.59703" lon="0.3421">
        <ele>86.3</ele>
        <time>2020-07-03T18:39:39Z</time>
      </trkpt>
      <trkpt lat="46.59698" lon="0.34208">
        <ele>86.3</ele>
        <time>2020-07-03T18:39:40Z</time>
      </trkpt>
      <trkpt lat="46.59693" lon="0.34206">
        <ele>86.4</ele>
        <time>2020-07-03T18:39:41Z</time>
      </trkpt>
      <trkpt lat="46.59688" lon="0.34203">
        <ele>86.4</ele>
        <time>2020-07-03T18:39:42Z</time>
      </trkpt>
      <trkpt lat="46.59684" lon="0.34201">
        <ele>86.4</ele>
        <time>2020-07-03T18:39:43Z</time>
      </trkpt>
      <trkpt lat="46.59678" lon="0.34199">
        <ele>86.4</ele>
        <time>2020-07-03T18:39:44Z</time>
      </trkpt>
      <trkpt lat="46.59673" lon="0.34197">
        <ele>86.5</ele>
        <time>2020-07-03T18:39:45Z</time>
      </trkpt>
      <trkpt lat="46.59668" lon="0.34196">
        <ele>86.6</ele>
        <time>2020-07-03T18:39:46Z</time>
      </trkpt>
      <trkpt lat="46.59663" lon="0.34194">
        <ele>86.6</ele>
        <time>2020-07-03T18:39:47Z</time>
      </trkpt>
      <trkpt lat="46.59659" lon="0.34192">
        <ele>86.7</ele>
        <time>2020-07-03T18:39:48Z</time>
      </trkpt>
      <trkpt lat="46.59655" lon="0.34191">
        <ele>86.7</ele>
        <time>2020-07-03T18:39:49Z</time>
      </trkpt>
      <trkpt lat="46.5965" lon="0.34188">
        <ele>86.7</ele>
        <time>2020-07-03T18:39:50Z</time>
      </trkpt>
      <trkpt lat="46.59645" lon="0.34186">
        <ele>86.8</ele>
        <time>2020-07-03T18:39:51Z</time>
      </trkpt>
      <trkpt lat="46.5964" lon="0.34186">
        <ele>86.9</ele>
        <time>2020-07-03T18:39:52Z</time>
      </trkpt>
      <trkpt lat="46.59634" lon="0.34184">
        <ele>86.9</ele>
        <time>2020-07-03T18:39:53Z</time>
      </trkpt>
      <trkpt lat="46.59629" lon="0.34183">
        <ele>87</ele>
        <time>2020-07-03T18:39:54Z</time>
      </trkpt>
      <trkpt lat="46.59624" lon="0.34182">
        <ele>87</ele>
        <time>2020-07-03T18:39:55Z</time>
      </trkpt>
      <trkpt lat="46.5962" lon="0.3418">
        <ele>87</ele>
        <time>2020-07-03T18:39:56Z</time>
      </trkpt>
      <trkpt lat="46.59615" lon="0.34179">
        <ele>87</ele>
        <time>2020-07-03T18:39:57Z</time>
      </trkpt>
      <trkpt lat="46.5961" lon="0.34176">
        <ele>87.1</ele>
        <time>2020-07-03T18:39:58Z</time>
      </trkpt>
      <trkpt lat="46.59606" lon="0.34173">
        <ele>87.1</ele>
        <time>2020-07-03T18:39:59Z</time>
      </trkpt>
      <trkpt lat="46.59602" lon="0.34171">
        <ele>87.1</ele>
        <time>2020-07-03T18:40:00Z</time>
      </trkpt>
      <trkpt lat="46.59598" lon="0.34169">
        <ele>87.2</ele>
        <time>2020-07-03T18:40:01Z</time>
      </trkpt>
      <trkpt lat="46.59595" lon="0.34167">
        <ele>87.2</ele>
        <time>2020-07-03T18:40:02Z</time>
      </trkpt>
      <trkpt lat="46.5959" lon="0.34164">
        <ele>87.3</ele>
        <time>2020-07-03T18:40:03Z</time>
      </trkpt>
      <trkpt lat="46.59585" lon="0.34162">
        <ele>87.3</ele>
        <time>2020-07-03T18:40:04Z</time>
      </trkpt>
      <trkpt lat="46.59581" lon="0.3416">
        <ele>87.4</ele>
        <time>2020-07-03T18:40:05Z</time>
      </trkpt>
      <trkpt lat="46.59576" lon="0.34159">
        <ele>87.4</ele>
        <time>2020-07-03T18:40:06Z</time>
      </trkpt>
      <trkpt lat="46.59572" lon="0.34157">
        <ele>87.5</ele>
        <time>2020-07-03T18:40:07Z</time>
      </trkpt>
      <trkpt lat="46.59567" lon="0.34155">
        <ele>87.6</ele>
        <time>2020-07-03T18:40:08Z</time>
      </trkpt>
      <trkpt lat="46.59562" lon="0.34153">
        <ele>87.7</ele>
        <time>2020-07-03T18:40:09Z</time>
      </trkpt>
      <trkpt lat="46.59558" lon="0.3415">
        <ele>87.7</ele>
        <time>2020-07-03T18:40:10Z</time>
      </trkpt>
      <trkpt lat="46.59553" lon="0.34147">
        <ele>87.8</ele>
        <time>2020-07-03T18:40:11Z</time>
      </trkpt>
      <trkpt lat="46.59548" lon="0.34145">
        <ele>87.8</ele>
        <time>2020-07-03T18:40:12Z</time>
      </trkpt>
      <trkpt lat="46.59544" lon="0.34143">
        <ele>87.8</ele>
        <time>2020-07-03T18:40:13Z</time>
      </trkpt>
      <trkpt lat="46.59539" lon="0.34141">
        <ele>87.9</ele>
        <time>2020-07-03T18:40:14Z</time>
      </trkpt>
      <trkpt lat="46.59534" lon="0.34138">
        <ele>87.9</ele>
        <time>2020-07-03T18:40:15Z</time>
      </trkpt>
      <trkpt lat="46.5953" lon="0.34136">
        <ele>87.8</ele>
        <time>2020-07-03T18:40:16Z</time>
      </trkpt>
      <trkpt lat="46.59525" lon="0.34134">
        <ele>87.8</ele>
        <time>2020-07-03T18:40:17Z</time>
      </trkpt>
      <trkpt lat="46.5952" lon="0.34132">
        <ele>87.8</ele>
        <time>2020-07-03T18:40:18Z</time>
      </trkpt>
      <trkpt lat="46.59515" lon="0.34129">
        <ele>87.8</ele>
        <time>2020-07-03T18:40:19Z</time>
      </trkpt>
      <trkpt lat="46.5951" lon="0.34125">
        <ele>87.8</ele>
        <time>2020-07-03T18:40:20Z</time>
      </trkpt>
      <trkpt lat="46.59503" lon="0.34123">
        <ele>87.8</ele>
        <time>2020-07-03T18:40:21Z</time>
      </trkpt>
      <trkpt lat="46.59498" lon="0.3412">
        <ele>87.7</ele>
        <time>2020-07-03T18:40:22Z</time>
      </trkpt>
      <trkpt lat="46.59493" lon="0.34118">
        <ele>87.7</ele>
        <time>2020-07-03T18:40:23Z</time>
      </trkpt>
      <trkpt lat="46.59488" lon="0.34115">
        <ele>87.6</ele>
        <time>2020-07-03T18:40:24Z</time>
      </trkpt>
      <trkpt lat="46.59483" lon="0.34111">
        <ele>87.6</ele>
        <time>2020-07-03T18:40:25Z</time>
      </trkpt>
      <trkpt lat="46.59479" lon="0.34108">
        <ele>87.5</ele>
        <time>2020-07-03T18:40:26Z</time>
      </trkpt>
      <trkpt lat="46.59474" lon="0.34104">
        <ele>87.5</ele>
        <time>2020-07-03T18:40:27Z</time>
      </trkpt>
      <trkpt lat="46.59469" lon="0.341">
        <ele>87.4</ele>
        <time>2020-07-03T18:40:28Z</time>
      </trkpt>
      <trkpt lat="46.59464" lon="0.34096">
        <ele>87.2</ele>
        <time>2020-07-03T18:40:29Z</time>
      </trkpt>
      <trkpt lat="46.59459" lon="0.34092">
        <ele>87</ele>
        <time>2020-07-03T18:40:30Z</time>
      </trkpt>
      <trkpt lat="46.59454" lon="0.34087">
        <ele>86.8</ele>
        <time>2020-07-03T18:40:31Z</time>
      </trkpt>
      <trkpt lat="46.59449" lon="0.34084">
        <ele>86.7</ele>
        <time>2020-07-03T18:40:32Z</time>
      </trkpt>
      <trkpt lat="46.59443" lon="0.3408">
        <ele>86.5</ele>
        <time>2020-07-03T18:40:33Z</time>
      </trkpt>
      <trkpt lat="46.59436" lon="0.34076">
        <ele>86.3</ele>
        <time>2020-07-03T18:40:34Z</time>
      </trkpt>
      <trkpt lat="46.59431" lon="0.34072">
        <ele>86</ele>
        <time>2020-07-03T18:40:35Z</time>
      </trkpt>
      <trkpt lat="46.59424" lon="0.34068">
        <ele>85.7</ele>
        <time>2020-07-03T18:40:36Z</time>
      </trkpt>
      <trkpt lat="46.59417" lon="0.34065">
        <ele>85.4</ele>
        <time>2020-07-03T18:40:37Z</time>
      </trkpt>
      <trkpt lat="46.59409" lon="0.34062">
        <ele>85</ele>
        <time>2020-07-03T18:40:38Z</time>
      </trkpt>
      <trkpt lat="46.59402" lon="0.3406">
        <ele>84.6</ele>
        <time>2020-07-03T18:40:39Z</time>
      </trkpt>
      <trkpt lat="46.59395" lon="0.34058">
        <ele>84.1</ele>
        <time>2020-07-03T18:40:40Z</time>
      </trkpt>
      <trkpt lat="46.59388" lon="0.34056">
        <ele>83.7</ele>
        <time>2020-07-03T18:40:41Z</time>
      </trkpt>
      <trkpt lat="46.5938" lon="0.34053">
        <ele>83.3</ele>
        <time>2020-07-03T18:40:42Z</time>
      </trkpt>
      <trkpt lat="46.59371" lon="0.3405">
        <ele>82.8</ele>
        <time>2020-07-03T18:40:43Z</time>
      </trkpt>
      <trkpt lat="46.59363" lon="0.34046">
        <ele>82.3</ele>
        <time>2020-07-03T18:40:44Z</time>
      </trkpt>
      <trkpt lat="46.59355" lon="0.34041">
        <ele>81.7</ele>
        <time>2020-07-03T18:40:45Z</time>
      </trkpt>
      <trkpt lat="46.59347" lon="0.34036">
        <ele>81.2</ele>
        <time>2020-07-03T18:40:46Z</time>
      </trkpt>
      <trkpt lat="46.5934" lon="0.34032">
        <ele>80.8</ele>
        <time>2020-07-03T18:40:47Z</time>
      </trkpt>
      <trkpt lat="46.59332" lon="0.34028">
        <ele>80.2</ele>
        <time>2020-07-03T18:40:48Z</time>
      </trkpt>
      <trkpt lat="46.59324" lon="0.34026">
        <ele>79.7</ele>
        <time>2020-07-03T18:40:49Z</time>
      </trkpt>
      <trkpt lat="46.59315" lon="0.34024">
        <ele>79.2</ele>
        <time>2020-07-03T18:40:50Z</time>
      </trkpt>
      <trkpt lat="46.59305" lon="0.34024">
        <ele>78.7</ele>
        <time>2020-07-03T18:40:51Z</time>
      </trkpt>
      <trkpt lat="46.59295" lon="0.34027">
        <ele>78.2</ele>
        <time>2020-07-03T18:40:52Z</time>
      </trkpt>
      <trkpt lat="46.59286" lon="0.34027">
        <ele>77.7</ele>
        <time>2020-07-03T18:40:53Z</time>
      </trkpt>
      <trkpt lat="46.59278" lon="0.34029">
        <ele>77.1</ele>
        <time>2020-07-03T18:40:54Z</time>
      </trkpt>
      <trkpt lat="46.5927" lon="0.3403">
        <ele>76.5</ele>
        <time>2020-07-03T18:40:55Z</time>
      </trkpt>
      <trkpt lat="46.59261" lon="0.34034">
        <ele>75.5</ele>
        <time>2020-07-03T18:40:56Z</time>
      </trkpt>
      <trkpt lat="46.59254" lon="0.34039">
        <ele>76.2</ele>
        <time>2020-07-03T18:40:57Z</time>
      </trkpt>
      <trkpt lat="46.5925" lon="0.34047">
        <ele>76.8</ele>
        <time>2020-07-03T18:40:58Z</time>
      </trkpt>
      <trkpt lat="46.59247" lon="0.34056">
        <ele>77.4</ele>
        <time>2020-07-03T18:40:59Z</time>
      </trkpt>
      <trkpt lat="46.59247" lon="0.34066">
        <ele>78</ele>
        <time>2020-07-03T18:41:00Z</time>
      </trkpt>
      <trkpt lat="46.5925" lon="0.34073">
        <ele>78.4</ele>
        <time>2020-07-03T18:41:01Z</time>
      </trkpt>
      <trkpt lat="46.59253" lon="0.34078">
        <ele>78.8</ele>
        <time>2020-07-03T18:41:02Z</time>
      </trkpt>
      <trkpt lat="46.59255" lon="0.34085">
        <ele>78.8</ele>
        <time>2020-07-03T18:41:03Z</time>
      </trkpt>
      <trkpt lat="46.59257" lon="0.34091">
        <ele>78.8</ele>
        <time>2020-07-03T18:41:04Z</time>
      </trkpt>
      <trkpt lat="46.59258" lon="0.34096">
        <ele>78.8</ele>
        <time>2020-07-03T18:41:05Z</time>
      </trkpt>
      <trkpt lat="46.5926" lon="0.34102">
        <ele>79.3</ele>
        <time>2020-07-03T18:41:06Z</time>
      </trkpt>
      <trkpt lat="46.5926" lon="0.34107">
        <ele>79.7</ele>
        <time>2020-07-03T18:41:07Z</time>
      </trkpt>
      <trkpt lat="46.59261" lon="0.34113">
        <ele>80.2</ele>
        <time>2020-07-03T18:41:08Z</time>
      </trkpt>
      <trkpt lat="46.59262" lon="0.34119">
        <ele>80.6</ele>
        <time>2020-07-03T18:41:09Z</time>
      </trkpt>
      <trkpt lat="46.59262" lon="0.34124">
        <ele>81</ele>
        <time>2020-07-03T18:41:10Z</time>
      </trkpt>
      <trkpt lat="46.59261" lon="0.34128">
        <ele>81.3</ele>
        <time>2020-07-03T18:41:11Z</time>
      </trkpt>
      <trkpt lat="46.59262" lon="0.34134">
        <ele>81.7</ele>
        <time>2020-07-03T18:41:12Z</time>
      </trkpt>
      <trkpt lat="46.59262" lon="0.34137">
        <ele>81.9</ele>
        <time>2020-07-03T18:41:13Z</time>
      </trkpt>
      <trkpt lat="46.59263" lon="0.34141">
        <ele>82.2</ele>
        <time>2020-07-03T18:41:14Z</time>
      </trkpt>
      <trkpt lat="46.59263" lon="0.34146">
        <ele>82.7</ele>
        <time>2020-07-03T18:41:15Z</time>
      </trkpt>
      <trkpt lat="46.59263" lon="0.34151">
        <ele>83.1</ele>
        <time>2020-07-03T18:41:16Z</time>
      </trkpt>
      <trkpt lat="46.59263" lon="0.34156">
        <ele>83.4</ele>
        <time>2020-07-03T18:41:17Z</time>
      </trkpt>
      <trkpt lat="46.59263" lon="0.3416">
        <ele>83.8</ele>
        <time>2020-07-03T18:41:18Z</time>
      </trkpt>
      <trkpt lat="46.59263" lon="0.34165">
        <ele>84.2</ele>
        <time>2020-07-03T18:41:19Z</time>
      </trkpt>
      <trkpt lat="46.5926" lon="0.34172">
        <ele>84.7</ele>
        <time>2020-07-03T18:41:20Z</time>
      </trkpt>
      <trkpt lat="46.5926" lon="0.34177">
        <ele>85.1</ele>
        <time>2020-07-03T18:41:21Z</time>
      </trkpt>
      <trkpt lat="46.5926" lon="0.34181">
        <ele>85.4</ele>
        <time>2020-07-03T18:41:22Z</time>
      </trkpt>
      <trkpt lat="46.59259" lon="0.34186">
        <ele>85.8</ele>
        <time>2020-07-03T18:41:23Z</time>
      </trkpt>
      <trkpt lat="46.59259" lon="0.3419">
        <ele>86.1</ele>
        <time>2020-07-03T18:41:24Z</time>
      </trkpt>
      <trkpt lat="46.59259" lon="0.34196">
        <ele>86.5</ele>
        <time>2020-07-03T18:41:25Z</time>
      </trkpt>
      <trkpt lat="46.59259" lon="0.34201">
        <ele>86.9</ele>
        <time>2020-07-03T18:41:26Z</time>
      </trkpt>
      <trkpt lat="46.59259" lon="0.34203">
        <ele>87.1</ele>
        <time>2020-07-03T18:41:27Z</time>
      </trkpt>
      <trkpt lat="46.59259" lon="0.34209">
        <ele>87.4</ele>
        <time>2020-07-03T18:41:28Z</time>
      </trkpt>
      <trkpt lat="46.59259" lon="0.34211">
        <ele>87.6</ele>
        <time>2020-07-03T18:41:29Z</time>
      </trkpt>
      <trkpt lat="46.59258" lon="0.34215">
        <ele>87.9</ele>
        <time>2020-07-03T18:41:30Z</time>
      </trkpt>
      <trkpt lat="46.59257" lon="0.3422">
        <ele>88.3</ele>
        <time>2020-07-03T18:41:31Z</time>
      </trkpt>
      <trkpt lat="46.59256" lon="0.34225">
        <ele>88.6</ele>
        <time>2020-07-03T18:41:32Z</time>
      </trkpt>
      <trkpt lat="46.59255" lon="0.3423">
        <ele>89</ele>
        <time>2020-07-03T18:41:33Z</time>
      </trkpt>
      <trkpt lat="46.59254" lon="0.34234">
        <ele>89.4</ele>
        <time>2020-07-03T18:41:34Z</time>
      </trkpt>
      <trkpt lat="46.59253" lon="0.34239">
        <ele>89.7</ele>
        <time>2020-07-03T18:41:35Z</time>
      </trkpt>
      <trkpt lat="46.59253" lon="0.34244">
        <ele>90.1</ele>
        <time>2020-07-03T18:41:36Z</time>
      </trkpt>
      <trkpt lat="46.59253" lon="0.34246">
        <ele>90.3</ele>
        <time>2020-07-03T18:41:37Z</time>
      </trkpt>
      <trkpt lat="46.59252" lon="0.34251">
        <ele>90.7</ele>
        <time>2020-07-03T18:41:38Z</time>
      </trkpt>
      <trkpt lat="46.59252" lon="0.34257">
        <ele>91.1</ele>
        <time>2020-07-03T18:41:39Z</time>
      </trkpt>
      <trkpt lat="46.5925" lon="0.34262">
        <ele>91.5</ele>
        <time>2020-07-03T18:41:40Z</time>
      </trkpt>
      <trkpt lat="46.5925" lon="0.34266">
        <ele>91.7</ele>
        <time>2020-07-03T18:41:41Z</time>
      </trkpt>
      <trkpt lat="46.5925" lon="0.34272">
        <ele>92.2</ele>
        <time>2020-07-03T18:41:42Z</time>
      </trkpt>
      <trkpt lat="46.5925" lon="0.34277">
        <ele>92.4</ele>
        <time>2020-07-03T18:41:43Z</time>
      </trkpt>
      <trkpt lat="46.5925" lon="0.34282">
        <ele>92.8</ele>
        <time>2020-07-03T18:41:44Z</time>
      </trkpt>
      <trkpt lat="46.59249" lon="0.34286">
        <ele>93.1</ele>
        <time>2020-07-03T18:41:45Z</time>
      </trkpt>
      <trkpt lat="46.59248" lon="0.34291">
        <ele>93.4</ele>
        <time>2020-07-03T18:41:46Z</time>
      </trkpt>
      <trkpt lat="46.59248" lon="0.34297">
        <ele>93.7</ele>
        <time>2020-07-03T18:41:47Z</time>
      </trkpt>
      <trkpt lat="46.59247" lon="0.34301">
        <ele>93.9</ele>
        <time>2020-07-03T18:41:48Z</time>
      </trkpt>
      <trkpt lat="46.59247" lon="0.34306">
        <ele>94.1</ele>
        <time>2020-07-03T18:41:49Z</time>
      </trkpt>
      <trkpt lat="46.59247" lon="0.34308">
        <ele>94.2</ele>
        <time>2020-07-03T18:41:50Z</time>
      </trkpt>
      <trkpt lat="46.59247" lon="0.34312">
        <ele>94.4</ele>
        <time>2020-07-03T18:41:51Z</time>
      </trkpt>
      <trkpt lat="46.59246" lon="0.34317">
        <ele>94.7</ele>
        <time>2020-07-03T18:41:52Z</time>
      </trkpt>
      <trkpt lat="46.59246" lon="0.34321">
        <ele>95</ele>
        <time>2020-07-03T18:41:53Z</time>
      </trkpt>
      <trkpt lat="46.59244" lon="0.34326">
        <ele>95.4</ele>
        <time>2020-07-03T18:41:54Z</time>
      </trkpt>
      <trkpt lat="46.59244" lon="0.34328">
        <ele>95.6</ele>
        <time>2020-07-03T18:41:55Z</time>
      </trkpt>
      <trkpt lat="46.59245" lon="0.34334">
        <ele>95.9</ele>
        <time>2020-07-03T18:41:56Z</time>
      </trkpt>
      <trkpt lat="46.59244" lon="0.34338">
        <ele>96.2</ele>
        <time>2020-07-03T18:41:57Z</time>
      </trkpt>
      <trkpt lat="46.59244" lon="0.34342">
        <ele>96.5</ele>
        <time>2020-07-03T18:41:58Z</time>
      </trkpt>
      <trkpt lat="46.59244" lon="0.34347">
        <ele>96.8</ele>
        <time>2020-07-03T18:41:59Z</time>
      </trkpt>
      <trkpt lat="46.59244" lon="0.34352">
        <ele>97.1</ele>
        <time>2020-07-03T18:42:00Z</time>
      </trkpt>
      <trkpt lat="46.59243" lon="0.34358">
        <ele>97.5</ele>
        <time>2020-07-03T18:42:01Z</time>
      </trkpt>
      <trkpt lat="46.59242" lon="0.34361">
        <ele>97.7</ele>
        <time>2020-07-03T18:42:02Z</time>
      </trkpt>
      <trkpt lat="46.59242" lon="0.34366">
        <ele>98</ele>
        <time>2020-07-03T18:42:03Z</time>
      </trkpt>
      <trkpt lat="46.59241" lon="0.34371">
        <ele>98.3</ele>
        <time>2020-07-03T18:42:04Z</time>
      </trkpt>
      <trkpt lat="46.59241" lon="0.34376">
        <ele>98.5</ele>
        <time>2020-07-03T18:42:05Z</time>
      </trkpt>
      <trkpt lat="46.59241" lon="0.34381">
        <ele>98.8</ele>
        <time>2020-07-03T18:42:06Z</time>
      </trkpt>
      <trkpt lat="46.5924" lon="0.34387">
        <ele>99.1</ele>
        <time>2020-07-03T18:42:07Z</time>
      </trkpt>
      <trkpt lat="46.59239" lon="0.34392">
        <ele>99.4</ele>
        <time>2020-07-03T18:42:08Z</time>
      </trkpt>
      <trkpt lat="46.59239" lon="0.34396">
        <ele>99.6</ele>
        <time>2020-07-03T18:42:09Z</time>
      </trkpt>
      <trkpt lat="46.59238" lon="0.34401">
        <ele>99.9</ele>
        <time>2020-07-03T18:42:10Z</time>
      </trkpt>
      <trkpt lat="46.59237" lon="0.34406">
        <ele>100.1</ele>
        <time>2020-07-03T18:42:11Z</time>
      </trkpt>
      <trkpt lat="46.59237" lon="0.34411">
        <ele>100.3</ele>
        <time>2020-07-03T18:42:12Z</time>
      </trkpt>
      <trkpt lat="46.59237" lon="0.34416">
        <ele>100.5</ele>
        <time>2020-07-03T18:42:13Z</time>
      </trkpt>
      <trkpt lat="46.59237" lon="0.3442">
        <ele>100.5</ele>
        <time>2020-07-03T18:42:14Z</time>
      </trkpt>
      <trkpt lat="46.59236" lon="0.34426">
        <ele>100.7</ele>
        <time>2020-07-03T18:42:15Z</time>
      </trkpt>
      <trkpt lat="46.59236" lon="0.34432">
        <ele>100.8</ele>
        <time>2020-07-03T18:42:16Z</time>
      </trkpt>
      <trkpt lat="46.59236" lon="0.34437">
        <ele>101</ele>
        <time>2020-07-03T18:42:17Z</time>
      </trkpt>
      <trkpt lat="46.59236" lon="0.34445">
        <ele>101.3</ele>
        <time>2020-07-03T18:42:18Z</time>
      </trkpt>
      <trkpt lat="46.59235" lon="0.3445">
        <ele>101.5</ele>
        <time>2020-07-03T18:42:19Z</time>
      </trkpt>
      <trkpt lat="46.59235" lon="0.34456">
        <ele>101.7</ele>
        <time>2020-07-03T18:42:20Z</time>
      </trkpt>
      <trkpt lat="46.59235" lon="0.34461">
        <ele>101.9</ele>
        <time>2020-07-03T18:42:21Z</time>
      </trkpt>
      <trkpt lat="46.59234" lon="0.34467">
        <ele>102.1</ele>
        <time>2020-07-03T18:42:22Z</time>
      </trkpt>
      <trkpt lat="46.59234" lon="0.34472">
        <ele>102.4</ele>
        <time>2020-07-03T18:42:23Z</time>
      </trkpt>
      <trkpt lat="46.59234" lon="0.34478">
        <ele>102.6</ele>
        <time>2020-07-03T18:42:24Z</time>
      </trkpt>
      <trkpt lat="46.59234" lon="0.34484">
        <ele>102.8</ele>
        <time>2020-07-03T18:42:25Z</time>
      </trkpt>
      <trkpt lat="46.59234" lon="0.34489">
        <ele>103</ele>
        <time>2020-07-03T18:42:26Z</time>
      </trkpt>
      <trkpt lat="46.59234" lon="0.34495">
        <ele>103.2</ele>
        <time>2020-07-03T18:42:27Z</time>
      </trkpt>
      <trkpt lat="46.59234" lon="0.345">
        <ele>103.3</ele>
        <time>2020-07-03T18:42:28Z</time>
      </trkpt>
      <trkpt lat="46.59234" lon="0.34506">
        <ele>103.4</ele>
        <time>2020-07-03T18:42:29Z</time>
      </trkpt>
      <trkpt lat="46.59233" lon="0.34513">
        <ele>103.5</ele>
        <time>2020-07-03T18:42:30Z</time>
      </trkpt>
      <trkpt lat="46.59233" lon="0.3452">
        <ele>103.7</ele>
        <time>2020-07-03T18:42:31Z</time>
      </trkpt>
      <trkpt lat="46.59233" lon="0.34527">
        <ele>103.9</ele>
        <time>2020-07-03T18:42:32Z</time>
      </trkpt>
      <trkpt lat="46.59232" lon="0.34535">
        <ele>104.1</ele>
        <time>2020-07-03T18:42:33Z</time>
      </trkpt>
      <trkpt lat="46.59232" lon="0.34543">
        <ele>104.3</ele>
        <time>2020-07-03T18:42:34Z</time>
      </trkpt>
      <trkpt lat="46.59231" lon="0.3455">
        <ele>104.5</ele>
        <time>2020-07-03T18:42:35Z</time>
      </trkpt>
      <trkpt lat="46.59231" lon="0.34558">
        <ele>104.7</ele>
        <time>2020-07-03T18:42:36Z</time>
      </trkpt>
      <trkpt lat="46.5923" lon="0.34566">
        <ele>104.9</ele>
        <time>2020-07-03T18:42:37Z</time>
      </trkpt>
      <trkpt lat="46.5923" lon="0.34571">
        <ele>105</ele>
        <time>2020-07-03T18:42:38Z</time>
      </trkpt>
      <trkpt lat="46.5923" lon="0.34579">
        <ele>105.2</ele>
        <time>2020-07-03T18:42:39Z</time>
      </trkpt>
      <trkpt lat="46.59229" lon="0.34586">
        <ele>105.4</ele>
        <time>2020-07-03T18:42:40Z</time>
      </trkpt>
      <trkpt lat="46.59229" lon="0.34594">
        <ele>105.6</ele>
        <time>2020-07-03T18:42:41Z</time>
      </trkpt>
      <trkpt lat="46.59229" lon="0.34601">
        <ele>105.7</ele>
        <time>2020-07-03T18:42:42Z</time>
      </trkpt>
      <trkpt lat="46.59229" lon="0.34612">
        <ele>105.9</ele>
        <time>2020-07-03T18:42:43Z</time>
      </trkpt>
      <trkpt lat="46.59229" lon="0.34618">
        <ele>106</ele>
        <time>2020-07-03T18:42:44Z</time>
      </trkpt>
      <trkpt lat="46.59228" lon="0.34626">
        <ele>106.2</ele>
        <time>2020-07-03T18:42:45Z</time>
      </trkpt>
      <trkpt lat="46.59228" lon="0.34633">
        <ele>106.3</ele>
        <time>2020-07-03T18:42:46Z</time>
      </trkpt>
      <trkpt lat="46.59227" lon="0.34641">
        <ele>106.9</ele>
        <time>2020-07-03T18:42:47Z</time>
      </trkpt>
      <trkpt lat="46.59227" lon="0.34649">
        <ele>107.3</ele>
        <time>2020-07-03T18:42:48Z</time>
      </trkpt>
      <trkpt lat="46.59226" lon="0.34657">
        <ele>107.8</ele>
        <time>2020-07-03T18:42:49Z</time>
      </trkpt>
      <trkpt lat="46.59226" lon="0.34664">
        <ele>108.2</ele>
        <time>2020-07-03T18:42:50Z</time>
      </trkpt>
      <trkpt lat="46.59224" lon="0.34672">
        <ele>108.2</ele>
        <time>2020-07-03T18:42:51Z</time>
      </trkpt>
      <trkpt lat="46.59224" lon="0.3468">
        <ele>108.1</ele>
        <time>2020-07-03T18:42:52Z</time>
      </trkpt>
      <trkpt lat="46.59222" lon="0.34688">
        <ele>108</ele>
        <time>2020-07-03T18:42:53Z</time>
      </trkpt>
      <trkpt lat="46.59222" lon="0.34696">
        <ele>107.9</ele>
        <time>2020-07-03T18:42:54Z</time>
      </trkpt>
      <trkpt lat="46.59221" lon="0.34703">
        <ele>108</ele>
        <time>2020-07-03T18:42:55Z</time>
      </trkpt>
      <trkpt lat="46.59221" lon="0.3471">
        <ele>108.1</ele>
        <time>2020-07-03T18:42:56Z</time>
      </trkpt>
      <trkpt lat="46.5922" lon="0.34719">
        <ele>108.2</ele>
        <time>2020-07-03T18:42:57Z</time>
      </trkpt>
      <trkpt lat="46.59219" lon="0.34726">
        <ele>108.3</ele>
        <time>2020-07-03T18:42:58Z</time>
      </trkpt>
      <trkpt lat="46.59218" lon="0.34735">
        <ele>108.5</ele>
        <time>2020-07-03T18:42:59Z</time>
      </trkpt>
      <trkpt lat="46.59218" lon="0.34744">
        <ele>108.6</ele>
        <time>2020-07-03T18:43:00Z</time>
      </trkpt>
      <trkpt lat="46.59217" lon="0.34753">
        <ele>108.8</ele>
        <time>2020-07-03T18:43:01Z</time>
      </trkpt>
      <trkpt lat="46.59216" lon="0.34761">
        <ele>109</ele>
        <time>2020-07-03T18:43:02Z</time>
      </trkpt>
      <trkpt lat="46.59216" lon="0.3477">
        <ele>109.2</ele>
        <time>2020-07-03T18:43:03Z</time>
      </trkpt>
      <trkpt lat="46.59215" lon="0.34777">
        <ele>109.3</ele>
        <time>2020-07-03T18:43:04Z</time>
      </trkpt>
      <trkpt lat="46.59214" lon="0.34785">
        <ele>109.4</ele>
        <time>2020-07-03T18:43:05Z</time>
      </trkpt>
      <trkpt lat="46.59214" lon="0.34793">
        <ele>109.6</ele>
        <time>2020-07-03T18:43:06Z</time>
      </trkpt>
      <trkpt lat="46.59213" lon="0.348">
        <ele>109.7</ele>
        <time>2020-07-03T18:43:07Z</time>
      </trkpt>
      <trkpt lat="46.59212" lon="0.34808">
        <ele>109.9</ele>
        <time>2020-07-03T18:43:08Z</time>
      </trkpt>
      <trkpt lat="46.59212" lon="0.34815">
        <ele>110</ele>
        <time>2020-07-03T18:43:09Z</time>
      </trkpt>
      <trkpt lat="46.59212" lon="0.34824">
        <ele>110.3</ele>
        <time>2020-07-03T18:43:10Z</time>
      </trkpt>
      <trkpt lat="46.59211" lon="0.34832">
        <ele>110.4</ele>
        <time>2020-07-03T18:43:11Z</time>
      </trkpt>
      <trkpt lat="46.5921" lon="0.3484">
        <ele>110.6</ele>
        <time>2020-07-03T18:43:12Z</time>
      </trkpt>
      <trkpt lat="46.59209" lon="0.34847">
        <ele>110.9</ele>
        <time>2020-07-03T18:43:13Z</time>
      </trkpt>
      <trkpt lat="46.59208" lon="0.34853">
        <ele>111.1</ele>
        <time>2020-07-03T18:43:14Z</time>
      </trkpt>
      <trkpt lat="46.59207" lon="0.34861">
        <ele>111.5</ele>
        <time>2020-07-03T18:43:15Z</time>
      </trkpt>
      <trkpt lat="46.59206" lon="0.3487">
        <ele>111.8</ele>
        <time>2020-07-03T18:43:16Z</time>
      </trkpt>
      <trkpt lat="46.59205" lon="0.34877">
        <ele>112.2</ele>
        <time>2020-07-03T18:43:17Z</time>
      </trkpt>
      <trkpt lat="46.59204" lon="0.34885">
        <ele>112.5</ele>
        <time>2020-07-03T18:43:18Z</time>
      </trkpt>
      <trkpt lat="46.59203" lon="0.34894">
        <ele>112.9</ele>
        <time>2020-07-03T18:43:19Z</time>
      </trkpt>
      <trkpt lat="46.59202" lon="0.34903">
        <ele>113.3</ele>
        <time>2020-07-03T18:43:20Z</time>
      </trkpt>
      <trkpt lat="46.59201" lon="0.34908">
        <ele>113.5</ele>
        <time>2020-07-03T18:43:21Z</time>
      </trkpt>
      <trkpt lat="46.592" lon="0.34916">
        <ele>113.9</ele>
        <time>2020-07-03T18:43:22Z</time>
      </trkpt>
      <trkpt lat="46.59199" lon="0.34923">
        <ele>114.2</ele>
        <time>2020-07-03T18:43:23Z</time>
      </trkpt>
      <trkpt lat="46.59198" lon="0.3493">
        <ele>114.6</ele>
        <time>2020-07-03T18:43:24Z</time>
      </trkpt>
      <trkpt lat="46.59197" lon="0.34938">
        <ele>114.8</ele>
        <time>2020-07-03T18:43:25Z</time>
      </trkpt>
      <trkpt lat="46.59197" lon="0.34946">
        <ele>114.7</ele>
        <time>2020-07-03T18:43:26Z</time>
      </trkpt>
      <trkpt lat="46.59196" lon="0.34954">
        <ele>114.6</ele>
        <time>2020-07-03T18:43:27Z</time>
      </trkpt>
      <trkpt lat="46.59195" lon="0.34963">
        <ele>114.8</ele>
        <time>2020-07-03T18:43:28Z</time>
      </trkpt>
      <trkpt lat="46.59194" lon="0.34971">
        <ele>115</ele>
        <time>2020-07-03T18:43:29Z</time>
      </trkpt>
      <trkpt lat="46.59193" lon="0.34978">
        <ele>115.2</ele>
        <time>2020-07-03T18:43:30Z</time>
      </trkpt>
      <trkpt lat="46.59191" lon="0.34983">
        <ele>115.4</ele>
        <time>2020-07-03T18:43:31Z</time>
      </trkpt>
      <trkpt lat="46.5919" lon="0.34988">
        <ele>115.5</ele>
        <time>2020-07-03T18:43:32Z</time>
      </trkpt>
      <trkpt lat="46.5919" lon="0.34992">
        <ele>115.7</ele>
        <time>2020-07-03T18:43:33Z</time>
      </trkpt>
      <trkpt lat="46.5919" lon="0.34998">
        <ele>115.8</ele>
        <time>2020-07-03T18:43:34Z</time>
      </trkpt>
      <trkpt lat="46.5919" lon="0.34999">
        <ele>115.9</ele>
        <time>2020-07-03T18:43:35Z</time>
      </trkpt>
      <trkpt lat="46.59188" lon="0.35003">
        <ele>116</ele>
        <time>2020-07-03T18:43:36Z</time>
      </trkpt>
      <trkpt lat="46.59188" lon="0.35004">
        <ele>116.1</ele>
        <time>2020-07-03T18:43:37Z</time>
      </trkpt>
      <trkpt lat="46.59188" lon="0.35009">
        <ele>116.2</ele>
        <time>2020-07-03T18:43:38Z</time>
      </trkpt>
      <trkpt lat="46.59188" lon="0.3501">
        <ele>116.2</ele>
        <time>2020-07-03T18:43:39Z</time>
      </trkpt>
      <trkpt lat="46.59187" lon="0.35013">
        <ele>116.3</ele>
        <time>2020-07-03T18:43:40Z</time>
      </trkpt>
      <trkpt lat="46.59186" lon="0.35016">
        <ele>116.4</ele>
        <time>2020-07-03T18:43:41Z</time>
      </trkpt>
      <trkpt lat="46.59186" lon="0.35022">
        <ele>116.6</ele>
        <time>2020-07-03T18:43:42Z</time>
      </trkpt>
      <trkpt lat="46.59187" lon="0.35026">
        <ele>116.7</ele>
        <time>2020-07-03T18:43:43Z</time>
      </trkpt>
      <trkpt lat="46.59185" lon="0.3503">
        <ele>116.8</ele>
        <time>2020-07-03T18:43:44Z</time>
      </trkpt>
      <trkpt lat="46.59184" lon="0.35034">
        <ele>116.9</ele>
        <time>2020-07-03T18:43:45Z</time>
      </trkpt>
      <trkpt lat="46.59183" lon="0.35035">
        <ele>116.9</ele>
        <time>2020-07-03T18:43:46Z</time>
      </trkpt>
      <trkpt lat="46.59181" lon="0.35041">
        <ele>117</ele>
        <time>2020-07-03T18:43:47Z</time>
      </trkpt>
      <trkpt lat="46.59179" lon="0.35046">
        <ele>117.3</ele>
        <time>2020-07-03T18:43:48Z</time>
      </trkpt>
      <trkpt lat="46.59178" lon="0.3505">
        <ele>117.4</ele>
        <time>2020-07-03T18:43:49Z</time>
      </trkpt>
      <trkpt lat="46.59176" lon="0.35053">
        <ele>117.5</ele>
        <time>2020-07-03T18:43:50Z</time>
      </trkpt>
      <trkpt lat="46.59175" lon="0.35058">
        <ele>117.6</ele>
        <time>2020-07-03T18:43:51Z</time>
      </trkpt>
      <trkpt lat="46.59174" lon="0.35063">
        <ele>117.8</ele>
        <time>2020-07-03T18:43:52Z</time>
      </trkpt>
      <trkpt lat="46.59173" lon="0.35065">
        <ele>117.8</ele>
        <time>2020-07-03T18:43:53Z</time>
      </trkpt>
      <trkpt lat="46.59172" lon="0.3507">
        <ele>118</ele>
        <time>2020-07-03T18:43:54Z</time>
      </trkpt>
      <trkpt lat="46.59171" lon="0.35075">
        <ele>118.1</ele>
        <time>2020-07-03T18:43:55Z</time>
      </trkpt>
      <trkpt lat="46.59169" lon="0.35082">
        <ele>118.3</ele>
        <time>2020-07-03T18:43:56Z</time>
      </trkpt>
      <trkpt lat="46.59166" lon="0.35087">
        <ele>118.4</ele>
        <time>2020-07-03T18:43:57Z</time>
      </trkpt>
      <trkpt lat="46.59164" lon="0.35093">
        <ele>118.6</ele>
        <time>2020-07-03T18:43:58Z</time>
      </trkpt>
      <trkpt lat="46.5916" lon="0.35099">
        <ele>118.8</ele>
        <time>2020-07-03T18:43:59Z</time>
      </trkpt>
      <trkpt lat="46.59157" lon="0.35105">
        <ele>118.9</ele>
        <time>2020-07-03T18:44:00Z</time>
      </trkpt>
      <trkpt lat="46.59154" lon="0.35111">
        <ele>119.1</ele>
        <time>2020-07-03T18:44:01Z</time>
      </trkpt>
      <trkpt lat="46.59151" lon="0.35118">
        <ele>119.3</ele>
        <time>2020-07-03T18:44:02Z</time>
      </trkpt>
      <trkpt lat="46.59148" lon="0.35124">
        <ele>119.4</ele>
        <time>2020-07-03T18:44:03Z</time>
      </trkpt>
      <trkpt lat="46.59145" lon="0.3513">
        <ele>119.6</ele>
        <time>2020-07-03T18:44:04Z</time>
      </trkpt>
      <trkpt lat="46.59142" lon="0.35138">
        <ele>119.8</ele>
        <time>2020-07-03T18:44:05Z</time>
      </trkpt>
      <trkpt lat="46.5914" lon="0.35145">
        <ele>119.9</ele>
        <time>2020-07-03T18:44:06Z</time>
      </trkpt>
      <trkpt lat="46.59137" lon="0.3515">
        <ele>120.2</ele>
        <time>2020-07-03T18:44:07Z</time>
      </trkpt>
      <trkpt lat="46.59134" lon="0.35156">
        <ele>120.3</ele>
        <time>2020-07-03T18:44:08Z</time>
      </trkpt>
      <trkpt lat="46.59132" lon="0.35161">
        <ele>120.4</ele>
        <time>2020-07-03T18:44:09Z</time>
      </trkpt>
      <trkpt lat="46.59129" lon="0.35167">
        <ele>120.5</ele>
        <time>2020-07-03T18:44:10Z</time>
      </trkpt>
      <trkpt lat="46.59126" lon="0.35173">
        <ele>120.6</ele>
        <time>2020-07-03T18:44:11Z</time>
      </trkpt>
      <trkpt lat="46.59123" lon="0.35179">
        <ele>120.7</ele>
        <time>2020-07-03T18:44:12Z</time>
      </trkpt>
      <trkpt lat="46.59121" lon="0.35187">
        <ele>120.8</ele>
        <time>2020-07-03T18:44:13Z</time>
      </trkpt>
      <trkpt lat="46.59119" lon="0.35194">
        <ele>121</ele>
        <time>2020-07-03T18:44:14Z</time>
      </trkpt>
      <trkpt lat="46.59116" lon="0.35201">
        <ele>121.1</ele>
        <time>2020-07-03T18:44:15Z</time>
      </trkpt>
      <trkpt lat="46.59114" lon="0.35208">
        <ele>121.2</ele>
        <time>2020-07-03T18:44:16Z</time>
      </trkpt>
      <trkpt lat="46.59111" lon="0.35214">
        <ele>121.3</ele>
        <time>2020-07-03T18:44:17Z</time>
      </trkpt>
      <trkpt lat="46.59108" lon="0.35221">
        <ele>121.3</ele>
        <time>2020-07-03T18:44:18Z</time>
      </trkpt>
      <trkpt lat="46.59105" lon="0.35228">
        <ele>121.4</ele>
        <time>2020-07-03T18:44:19Z</time>
      </trkpt>
      <trkpt lat="46.59103" lon="0.35234">
        <ele>121.5</ele>
        <time>2020-07-03T18:44:20Z</time>
      </trkpt>
      <trkpt lat="46.591" lon="0.3524">
        <ele>121.7</ele>
        <time>2020-07-03T18:44:21Z</time>
      </trkpt>
      <trkpt lat="46.59097" lon="0.35247">
        <ele>121.9</ele>
        <time>2020-07-03T18:44:22Z</time>
      </trkpt>
      <trkpt lat="46.59093" lon="0.35255">
        <ele>122.1</ele>
        <time>2020-07-03T18:44:23Z</time>
      </trkpt>
      <trkpt lat="46.59089" lon="0.35263">
        <ele>122.2</ele>
        <time>2020-07-03T18:44:24Z</time>
      </trkpt>
      <trkpt lat="46.59085" lon="0.35272">
        <ele>122.4</ele>
        <time>2020-07-03T18:44:25Z</time>
      </trkpt>
      <trkpt lat="46.59082" lon="0.3528">
        <ele>122.5</ele>
        <time>2020-07-03T18:44:26Z</time>
      </trkpt>
      <trkpt lat="46.59079" lon="0.35286">
        <ele>122.6</ele>
        <time>2020-07-03T18:44:27Z</time>
      </trkpt>
      <trkpt lat="46.59075" lon="0.35293">
        <ele>122.7</ele>
        <time>2020-07-03T18:44:28Z</time>
      </trkpt>
      <trkpt lat="46.59071" lon="0.353">
        <ele>122.9</ele>
        <time>2020-07-03T18:44:29Z</time>
      </trkpt>
      <trkpt lat="46.59067" lon="0.35307">
        <ele>123</ele>
        <time>2020-07-03T18:44:30Z</time>
      </trkpt>
      <trkpt lat="46.59064" lon="0.35315">
        <ele>123</ele>
        <time>2020-07-03T18:44:31Z</time>
      </trkpt>
      <trkpt lat="46.59061" lon="0.35322">
        <ele>123.1</ele>
        <time>2020-07-03T18:44:32Z</time>
      </trkpt>
      <trkpt lat="46.59057" lon="0.35333">
        <ele>123.2</ele>
        <time>2020-07-03T18:44:33Z</time>
      </trkpt>
      <trkpt lat="46.59053" lon="0.35341">
        <ele>123.3</ele>
        <time>2020-07-03T18:44:34Z</time>
      </trkpt>
      <trkpt lat="46.59049" lon="0.35348">
        <ele>123.4</ele>
        <time>2020-07-03T18:44:35Z</time>
      </trkpt>
      <trkpt lat="46.59046" lon="0.35357">
        <ele>123.5</ele>
        <time>2020-07-03T18:44:36Z</time>
      </trkpt>
      <trkpt lat="46.59042" lon="0.35366">
        <ele>123.5</ele>
        <time>2020-07-03T18:44:37Z</time>
      </trkpt>
      <trkpt lat="46.59039" lon="0.35374">
        <ele>123.6</ele>
        <time>2020-07-03T18:44:38Z</time>
      </trkpt>
      <trkpt lat="46.59035" lon="0.35381">
        <ele>123.7</ele>
        <time>2020-07-03T18:44:39Z</time>
      </trkpt>
      <trkpt lat="46.59031" lon="0.35389">
        <ele>123.7</ele>
        <time>2020-07-03T18:44:40Z</time>
      </trkpt>
      <trkpt lat="46.59028" lon="0.35397">
        <ele>123.8</ele>
        <time>2020-07-03T18:44:41Z</time>
      </trkpt>
      <trkpt lat="46.59024" lon="0.35405">
        <ele>123.8</ele>
        <time>2020-07-03T18:44:42Z</time>
      </trkpt>
      <trkpt lat="46.59021" lon="0.35412">
        <ele>123.9</ele>
        <time>2020-07-03T18:44:43Z</time>
      </trkpt>
      <trkpt lat="46.59017" lon="0.3542">
        <ele>123.9</ele>
        <time>2020-07-03T18:44:44Z</time>
      </trkpt>
      <trkpt lat="46.59013" lon="0.35428">
        <ele>123.9</ele>
        <time>2020-07-03T18:44:45Z</time>
      </trkpt>
      <trkpt lat="46.5901" lon="0.35436">
        <ele>123.9</ele>
        <time>2020-07-03T18:44:46Z</time>
      </trkpt>
      <trkpt lat="46.59006" lon="0.35443">
        <ele>123.9</ele>
        <time>2020-07-03T18:44:47Z</time>
      </trkpt>
      <trkpt lat="46.59003" lon="0.3545">
        <ele>123.9</ele>
        <time>2020-07-03T18:44:48Z</time>
      </trkpt>
      <trkpt lat="46.58999" lon="0.35456">
        <ele>124</ele>
        <time>2020-07-03T18:44:49Z</time>
      </trkpt>
      <trkpt lat="46.58997" lon="0.35462">
        <ele>124</ele>
        <time>2020-07-03T18:44:50Z</time>
      </trkpt>
      <trkpt lat="46.58993" lon="0.3547">
        <ele>124.1</ele>
        <time>2020-07-03T18:44:51Z</time>
      </trkpt>
      <trkpt lat="46.58991" lon="0.35477">
        <ele>124.1</ele>
        <time>2020-07-03T18:44:52Z</time>
      </trkpt>
      <trkpt lat="46.58989" lon="0.35482">
        <ele>124.2</ele>
        <time>2020-07-03T18:44:53Z</time>
      </trkpt>
      <trkpt lat="46.58986" lon="0.3549">
        <ele>124.2</ele>
        <time>2020-07-03T18:44:54Z</time>
      </trkpt>
      <trkpt lat="46.58984" lon="0.35498">
        <ele>124.2</ele>
        <time>2020-07-03T18:44:55Z</time>
      </trkpt>
      <trkpt lat="46.58982" lon="0.35506">
        <ele>124.3</ele>
        <time>2020-07-03T18:44:56Z</time>
      </trkpt>
      <trkpt lat="46.5898" lon="0.35513">
        <ele>124.4</ele>
        <time>2020-07-03T18:44:57Z</time>
      </trkpt>
      <trkpt lat="46.58977" lon="0.35523">
        <ele>124.5</ele>
        <time>2020-07-03T18:44:58Z</time>
      </trkpt>
      <trkpt lat="46.58974" lon="0.35531">
        <ele>124.6</ele>
        <time>2020-07-03T18:44:59Z</time>
      </trkpt>
      <trkpt lat="46.58972" lon="0.3554">
        <ele>124.7</ele>
        <time>2020-07-03T18:45:00Z</time>
      </trkpt>
      <trkpt lat="46.58971" lon="0.3555">
        <ele>124.6</ele>
        <time>2020-07-03T18:45:01Z</time>
      </trkpt>
      <trkpt lat="46.5897" lon="0.35558">
        <ele>124.4</ele>
        <time>2020-07-03T18:45:02Z</time>
      </trkpt>
      <trkpt lat="46.5897" lon="0.35564">
        <ele>124.3</ele>
        <time>2020-07-03T18:45:03Z</time>
      </trkpt>
      <trkpt lat="46.58969" lon="0.35571">
        <ele>124.2</ele>
        <time>2020-07-03T18:45:04Z</time>
      </trkpt>
      <trkpt lat="46.58968" lon="0.35577">
        <ele>124.1</ele>
        <time>2020-07-03T18:45:05Z</time>
      </trkpt>
      <trkpt lat="46.58968" lon="0.35584">
        <ele>124</ele>
        <time>2020-07-03T18:45:06Z</time>
      </trkpt>
      <trkpt lat="46.58967" lon="0.35594">
        <ele>123.8</ele>
        <time>2020-07-03T18:45:07Z</time>
      </trkpt>
      <trkpt lat="46.58967" lon="0.35601">
        <ele>123.6</ele>
        <time>2020-07-03T18:45:08Z</time>
      </trkpt>
      <trkpt lat="46.58967" lon="0.3561">
        <ele>123.5</ele>
        <time>2020-07-03T18:45:09Z</time>
      </trkpt>
      <trkpt lat="46.58968" lon="0.35619">
        <ele>123.4</ele>
        <time>2020-07-03T18:45:10Z</time>
      </trkpt>
      <trkpt lat="46.58969" lon="0.35628">
        <ele>123.3</ele>
        <time>2020-07-03T18:45:11Z</time>
      </trkpt>
      <trkpt lat="46.58969" lon="0.35635">
        <ele>123.2</ele>
        <time>2020-07-03T18:45:12Z</time>
      </trkpt>
      <trkpt lat="46.58968" lon="0.35646">
        <ele>123.1</ele>
        <time>2020-07-03T18:45:13Z</time>
      </trkpt>
      <trkpt lat="46.58968" lon="0.35654">
        <ele>123</ele>
        <time>2020-07-03T18:45:14Z</time>
      </trkpt>
      <trkpt lat="46.58967" lon="0.35664">
        <ele>123</ele>
        <time>2020-07-03T18:45:15Z</time>
      </trkpt>
      <trkpt lat="46.58965" lon="0.35674">
        <ele>122.9</ele>
        <time>2020-07-03T18:45:16Z</time>
      </trkpt>
      <trkpt lat="46.58964" lon="0.35681">
        <ele>122.9</ele>
        <time>2020-07-03T18:45:17Z</time>
      </trkpt>
      <trkpt lat="46.58963" lon="0.35689">
        <ele>122.9</ele>
        <time>2020-07-03T18:45:18Z</time>
      </trkpt>
      <trkpt lat="46.58962" lon="0.35697">
        <ele>122.9</ele>
        <time>2020-07-03T18:45:19Z</time>
      </trkpt>
      <trkpt lat="46.58962" lon="0.35705">
        <ele>122.9</ele>
        <time>2020-07-03T18:45:20Z</time>
      </trkpt>
      <trkpt lat="46.58961" lon="0.35713">
        <ele>122.9</ele>
        <time>2020-07-03T18:45:21Z</time>
      </trkpt>
      <trkpt lat="46.58961" lon="0.35722">
        <ele>122.9</ele>
        <time>2020-07-03T18:45:22Z</time>
      </trkpt>
      <trkpt lat="46.5896" lon="0.35733">
        <ele>123</ele>
        <time>2020-07-03T18:45:23Z</time>
      </trkpt>
      <trkpt lat="46.58959" lon="0.35742">
        <ele>123.1</ele>
        <time>2020-07-03T18:45:24Z</time>
      </trkpt>
      <trkpt lat="46.58957" lon="0.35751">
        <ele>123.1</ele>
        <time>2020-07-03T18:45:25Z</time>
      </trkpt>
      <trkpt lat="46.58955" lon="0.3576">
        <ele>122.9</ele>
        <time>2020-07-03T18:45:26Z</time>
      </trkpt>
      <trkpt lat="46.58954" lon="0.35769">
        <ele>122.8</ele>
        <time>2020-07-03T18:45:27Z</time>
      </trkpt>
      <trkpt lat="46.58953" lon="0.35779">
        <ele>122.7</ele>
        <time>2020-07-03T18:45:28Z</time>
      </trkpt>
      <trkpt lat="46.58952" lon="0.35789">
        <ele>122.7</ele>
        <time>2020-07-03T18:45:29Z</time>
      </trkpt>
      <trkpt lat="46.58951" lon="0.35799">
        <ele>122.7</ele>
        <time>2020-07-03T18:45:30Z</time>
      </trkpt>
      <trkpt lat="46.5895" lon="0.35808">
        <ele>122.7</ele>
        <time>2020-07-03T18:45:31Z</time>
      </trkpt>
      <trkpt lat="46.5895" lon="0.35819">
        <ele>122.7</ele>
        <time>2020-07-03T18:45:32Z</time>
      </trkpt>
      <trkpt lat="46.58949" lon="0.35828">
        <ele>122.7</ele>
        <time>2020-07-03T18:45:33Z</time>
      </trkpt>
      <trkpt lat="46.58948" lon="0.35838">
        <ele>122.8</ele>
        <time>2020-07-03T18:45:34Z</time>
      </trkpt>
      <trkpt lat="46.58947" lon="0.35848">
        <ele>122.8</ele>
        <time>2020-07-03T18:45:35Z</time>
      </trkpt>
      <trkpt lat="46.58946" lon="0.35858">
        <ele>122.9</ele>
        <time>2020-07-03T18:45:36Z</time>
      </trkpt>
      <trkpt lat="46.58945" lon="0.35867">
        <ele>122.8</ele>
        <time>2020-07-03T18:45:37Z</time>
      </trkpt>
      <trkpt lat="46.58944" lon="0.35876">
        <ele>122.8</ele>
        <time>2020-07-03T18:45:38Z</time>
      </trkpt>
      <trkpt lat="46.58943" lon="0.35884">
        <ele>122.7</ele>
        <time>2020-07-03T18:45:39Z</time>
      </trkpt>
      <trkpt lat="46.58942" lon="0.35893">
        <ele>122.7</ele>
        <time>2020-07-03T18:45:40Z</time>
      </trkpt>
      <trkpt lat="46.58941" lon="0.35902">
        <ele>122.6</ele>
        <time>2020-07-03T18:45:41Z</time>
      </trkpt>
      <trkpt lat="46.58941" lon="0.35911">
        <ele>122.6</ele>
        <time>2020-07-03T18:45:42Z</time>
      </trkpt>
      <trkpt lat="46.5894" lon="0.3592">
        <ele>122.5</ele>
        <time>2020-07-03T18:45:43Z</time>
      </trkpt>
      <trkpt lat="46.5894" lon="0.35929">
        <ele>122.5</ele>
        <time>2020-07-03T18:45:44Z</time>
      </trkpt>
      <trkpt lat="46.58939" lon="0.35938">
        <ele>122.5</ele>
        <time>2020-07-03T18:45:45Z</time>
      </trkpt>
      <trkpt lat="46.58938" lon="0.35946">
        <ele>122.4</ele>
        <time>2020-07-03T18:45:46Z</time>
      </trkpt>
      <trkpt lat="46.58937" lon="0.35955">
        <ele>122.4</ele>
        <time>2020-07-03T18:45:47Z</time>
      </trkpt>
      <trkpt lat="46.58937" lon="0.35961">
        <ele>122.4</ele>
        <time>2020-07-03T18:45:48Z</time>
      </trkpt>
      <trkpt lat="46.58935" lon="0.35969">
        <ele>122.4</ele>
        <time>2020-07-03T18:45:49Z</time>
      </trkpt>
      <trkpt lat="46.58935" lon="0.35977">
        <ele>122.4</ele>
        <time>2020-07-03T18:45:50Z</time>
      </trkpt>
      <trkpt lat="46.58934" lon="0.35983">
        <ele>122.5</ele>
        <time>2020-07-03T18:45:51Z</time>
      </trkpt>
      <trkpt lat="46.58934" lon="0.35988">
        <ele>122.5</ele>
        <time>2020-07-03T18:45:52Z</time>
      </trkpt>
      <trkpt lat="46.58932" lon="0.35995">
        <ele>122.4</ele>
        <time>2020-07-03T18:45:53Z</time>
      </trkpt>
      <trkpt lat="46.58929" lon="0.36005">
        <ele>122.3</ele>
        <time>2020-07-03T18:45:54Z</time>
      </trkpt>
      <trkpt lat="46.58927" lon="0.36014">
        <ele>122.3</ele>
        <time>2020-07-03T18:45:55Z</time>
      </trkpt>
      <trkpt lat="46.58924" lon="0.3602">
        <ele>122.2</ele>
        <time>2020-07-03T18:45:56Z</time>
      </trkpt>
      <trkpt lat="46.58921" lon="0.3603">
        <ele>122.2</ele>
        <time>2020-07-03T18:45:57Z</time>
      </trkpt>
      <trkpt lat="46.58919" lon="0.36037">
        <ele>122.1</ele>
        <time>2020-07-03T18:45:58Z</time>
      </trkpt>
      <trkpt lat="46.58916" lon="0.36044">
        <ele>122</ele>
        <time>2020-07-03T18:45:59Z</time>
      </trkpt>
      <trkpt lat="46.58913" lon="0.36051">
        <ele>122</ele>
        <time>2020-07-03T18:46:00Z</time>
      </trkpt>
      <trkpt lat="46.5891" lon="0.36059">
        <ele>121.9</ele>
        <time>2020-07-03T18:46:01Z</time>
      </trkpt>
      <trkpt lat="46.58907" lon="0.36065">
        <ele>121.9</ele>
        <time>2020-07-03T18:46:02Z</time>
      </trkpt>
      <trkpt lat="46.58904" lon="0.36073">
        <ele>121.9</ele>
        <time>2020-07-03T18:46:03Z</time>
      </trkpt>
      <trkpt lat="46.589" lon="0.3608">
        <ele>121.9</ele>
        <time>2020-07-03T18:46:04Z</time>
      </trkpt>
      <trkpt lat="46.58896" lon="0.3609">
        <ele>122</ele>
        <time>2020-07-03T18:46:05Z</time>
      </trkpt>
      <trkpt lat="46.58893" lon="0.36098">
        <ele>122.1</ele>
        <time>2020-07-03T18:46:06Z</time>
      </trkpt>
      <trkpt lat="46.58889" lon="0.36107">
        <ele>122.3</ele>
        <time>2020-07-03T18:46:07Z</time>
      </trkpt>
      <trkpt lat="46.58887" lon="0.36114">
        <ele>122.5</ele>
        <time>2020-07-03T18:46:08Z</time>
      </trkpt>
      <trkpt lat="46.58884" lon="0.36122">
        <ele>123.4</ele>
        <time>2020-07-03T18:46:09Z</time>
      </trkpt>
      <trkpt lat="46.58882" lon="0.3613">
        <ele>123.4</ele>
        <time>2020-07-03T18:46:10Z</time>
      </trkpt>
      <trkpt lat="46.5888" lon="0.36137">
        <ele>123.2</ele>
        <time>2020-07-03T18:46:11Z</time>
      </trkpt>
      <trkpt lat="46.58877" lon="0.36143">
        <ele>123.1</ele>
        <time>2020-07-03T18:46:12Z</time>
      </trkpt>
      <trkpt lat="46.58874" lon="0.3615">
        <ele>123</ele>
        <time>2020-07-03T18:46:13Z</time>
      </trkpt>
      <trkpt lat="46.58871" lon="0.36159">
        <ele>122.9</ele>
        <time>2020-07-03T18:46:14Z</time>
      </trkpt>
      <trkpt lat="46.58868" lon="0.36167">
        <ele>122.8</ele>
        <time>2020-07-03T18:46:15Z</time>
      </trkpt>
      <trkpt lat="46.58865" lon="0.36175">
        <ele>122.7</ele>
        <time>2020-07-03T18:46:16Z</time>
      </trkpt>
      <trkpt lat="46.58862" lon="0.36181">
        <ele>122.6</ele>
        <time>2020-07-03T18:46:17Z</time>
      </trkpt>
      <trkpt lat="46.58859" lon="0.36188">
        <ele>122.5</ele>
        <time>2020-07-03T18:46:18Z</time>
      </trkpt>
      <trkpt lat="46.58856" lon="0.36196">
        <ele>122.5</ele>
        <time>2020-07-03T18:46:19Z</time>
      </trkpt>
      <trkpt lat="46.58853" lon="0.36205">
        <ele>122.4</ele>
        <time>2020-07-03T18:46:20Z</time>
      </trkpt>
      <trkpt lat="46.58851" lon="0.36213">
        <ele>122.4</ele>
        <time>2020-07-03T18:46:21Z</time>
      </trkpt>
      <trkpt lat="46.58849" lon="0.36222">
        <ele>122.4</ele>
        <time>2020-07-03T18:46:22Z</time>
      </trkpt>
      <trkpt lat="46.58846" lon="0.36229">
        <ele>122.3</ele>
        <time>2020-07-03T18:46:23Z</time>
      </trkpt>
      <trkpt lat="46.58843" lon="0.36239">
        <ele>122.2</ele>
        <time>2020-07-03T18:46:24Z</time>
      </trkpt>
      <trkpt lat="46.5884" lon="0.36247">
        <ele>122.1</ele>
        <time>2020-07-03T18:46:25Z</time>
      </trkpt>
      <trkpt lat="46.58835" lon="0.36256">
        <ele>121.9</ele>
        <time>2020-07-03T18:46:26Z</time>
      </trkpt>
      <trkpt lat="46.58832" lon="0.36263">
        <ele>121.8</ele>
        <time>2020-07-03T18:46:27Z</time>
      </trkpt>
      <trkpt lat="46.58829" lon="0.3627">
        <ele>121.7</ele>
        <time>2020-07-03T18:46:28Z</time>
      </trkpt>
      <trkpt lat="46.58826" lon="0.36279">
        <ele>121.5</ele>
        <time>2020-07-03T18:46:29Z</time>
      </trkpt>
      <trkpt lat="46.58822" lon="0.36288">
        <ele>121.4</ele>
        <time>2020-07-03T18:46:30Z</time>
      </trkpt>
      <trkpt lat="46.58819" lon="0.36296">
        <ele>121.2</ele>
        <time>2020-07-03T18:46:31Z</time>
      </trkpt>
      <trkpt lat="46.58816" lon="0.36304">
        <ele>121.1</ele>
        <time>2020-07-03T18:46:32Z</time>
      </trkpt>
      <trkpt lat="46.58813" lon="0.36313">
        <ele>120.9</ele>
        <time>2020-07-03T18:46:33Z</time>
      </trkpt>
      <trkpt lat="46.5881" lon="0.36323">
        <ele>120.8</ele>
        <time>2020-07-03T18:46:34Z</time>
      </trkpt>
      <trkpt lat="46.58806" lon="0.36332">
        <ele>120.6</ele>
        <time>2020-07-03T18:46:35Z</time>
      </trkpt>
      <trkpt lat="46.58802" lon="0.36339">
        <ele>120.6</ele>
        <time>2020-07-03T18:46:36Z</time>
      </trkpt>
      <trkpt lat="46.58799" lon="0.36349">
        <ele>120.5</ele>
        <time>2020-07-03T18:46:37Z</time>
      </trkpt>
      <trkpt lat="46.58794" lon="0.36358">
        <ele>120.4</ele>
        <time>2020-07-03T18:46:38Z</time>
      </trkpt>
      <trkpt lat="46.58791" lon="0.36367">
        <ele>120.3</ele>
        <time>2020-07-03T18:46:39Z</time>
      </trkpt>
      <trkpt lat="46.58786" lon="0.36377">
        <ele>120.1</ele>
        <time>2020-07-03T18:46:40Z</time>
      </trkpt>
      <trkpt lat="46.58781" lon="0.36386">
        <ele>120</ele>
        <time>2020-07-03T18:46:41Z</time>
      </trkpt>
      <trkpt lat="46.58778" lon="0.36396">
        <ele>119.8</ele>
        <time>2020-07-03T18:46:42Z</time>
      </trkpt>
      <trkpt lat="46.58774" lon="0.36405">
        <ele>119.7</ele>
        <time>2020-07-03T18:46:43Z</time>
      </trkpt>
      <trkpt lat="46.58771" lon="0.36413">
        <ele>119.6</ele>
        <time>2020-07-03T18:46:44Z</time>
      </trkpt>
      <trkpt lat="46.58766" lon="0.3642">
        <ele>119.6</ele>
        <time>2020-07-03T18:46:45Z</time>
      </trkpt>
      <trkpt lat="46.58762" lon="0.36428">
        <ele>119.5</ele>
        <time>2020-07-03T18:46:46Z</time>
      </trkpt>
      <trkpt lat="46.58758" lon="0.36433">
        <ele>119.5</ele>
        <time>2020-07-03T18:46:47Z</time>
      </trkpt>
      <trkpt lat="46.58753" lon="0.36438">
        <ele>119.4</ele>
        <time>2020-07-03T18:46:48Z</time>
      </trkpt>
      <trkpt lat="46.58748" lon="0.36442">
        <ele>119.4</ele>
        <time>2020-07-03T18:46:49Z</time>
      </trkpt>
      <trkpt lat="46.58745" lon="0.36446">
        <ele>119.3</ele>
        <time>2020-07-03T18:46:50Z</time>
      </trkpt>
      <trkpt lat="46.58741" lon="0.3645">
        <ele>119.3</ele>
        <time>2020-07-03T18:46:51Z</time>
      </trkpt>
      <trkpt lat="46.58737" lon="0.36455">
        <ele>119.2</ele>
        <time>2020-07-03T18:46:52Z</time>
      </trkpt>
      <trkpt lat="46.58732" lon="0.36458">
        <ele>119.1</ele>
        <time>2020-07-03T18:46:53Z</time>
      </trkpt>
      <trkpt lat="46.58728" lon="0.36463">
        <ele>119</ele>
        <time>2020-07-03T18:46:54Z</time>
      </trkpt>
      <trkpt lat="46.58723" lon="0.36468">
        <ele>119</ele>
        <time>2020-07-03T18:46:55Z</time>
      </trkpt>
      <trkpt lat="46.58719" lon="0.36473">
        <ele>118.9</ele>
        <time>2020-07-03T18:46:56Z</time>
      </trkpt>
      <trkpt lat="46.58715" lon="0.36479">
        <ele>118.8</ele>
        <time>2020-07-03T18:46:57Z</time>
      </trkpt>
      <trkpt lat="46.58711" lon="0.36485">
        <ele>118.7</ele>
        <time>2020-07-03T18:46:58Z</time>
      </trkpt>
      <trkpt lat="46.58706" lon="0.3649">
        <ele>118.5</ele>
        <time>2020-07-03T18:46:59Z</time>
      </trkpt>
      <trkpt lat="46.58701" lon="0.36495">
        <ele>118.4</ele>
        <time>2020-07-03T18:47:00Z</time>
      </trkpt>
      <trkpt lat="46.58695" lon="0.365">
        <ele>118.3</ele>
        <time>2020-07-03T18:47:01Z</time>
      </trkpt>
      <trkpt lat="46.5869" lon="0.36504">
        <ele>118.2</ele>
        <time>2020-07-03T18:47:02Z</time>
      </trkpt>
      <trkpt lat="46.58685" lon="0.36509">
        <ele>118.1</ele>
        <time>2020-07-03T18:47:03Z</time>
      </trkpt>
      <trkpt lat="46.58681" lon="0.36516">
        <ele>118.1</ele>
        <time>2020-07-03T18:47:04Z</time>
      </trkpt>
      <trkpt lat="46.58676" lon="0.36522">
        <ele>118</ele>
        <time>2020-07-03T18:47:05Z</time>
      </trkpt>
      <trkpt lat="46.58672" lon="0.36529">
        <ele>117.9</ele>
        <time>2020-07-03T18:47:06Z</time>
      </trkpt>
      <trkpt lat="46.58666" lon="0.36535">
        <ele>117.8</ele>
        <time>2020-07-03T18:47:07Z</time>
      </trkpt>
      <trkpt lat="46.58661" lon="0.3654">
        <ele>117.8</ele>
        <time>2020-07-03T18:47:08Z</time>
      </trkpt>
      <trkpt lat="46.58656" lon="0.36545">
        <ele>117.7</ele>
        <time>2020-07-03T18:47:09Z</time>
      </trkpt>
      <trkpt lat="46.58652" lon="0.36551">
        <ele>117.6</ele>
        <time>2020-07-03T18:47:10Z</time>
      </trkpt>
      <trkpt lat="46.58647" lon="0.36556">
        <ele>117.5</ele>
        <time>2020-07-03T18:47:11Z</time>
      </trkpt>
      <trkpt lat="46.58642" lon="0.3656">
        <ele>117.4</ele>
        <time>2020-07-03T18:47:12Z</time>
      </trkpt>
      <trkpt lat="46.58637" lon="0.36565">
        <ele>117.3</ele>
        <time>2020-07-03T18:47:13Z</time>
      </trkpt>
      <trkpt lat="46.58631" lon="0.36569">
        <ele>117.1</ele>
        <time>2020-07-03T18:47:14Z</time>
      </trkpt>
      <trkpt lat="46.58625" lon="0.36567">
        <ele>116.9</ele>
        <time>2020-07-03T18:47:15Z</time>
      </trkpt>
      <trkpt lat="46.58619" lon="0.3657">
        <ele>116.9</ele>
        <time>2020-07-03T18:47:16Z</time>
      </trkpt>
      <trkpt lat="46.58614" lon="0.36572">
        <ele>116.8</ele>
        <time>2020-07-03T18:47:17Z</time>
      </trkpt>
      <trkpt lat="46.58609" lon="0.36575">
        <ele>116.7</ele>
        <time>2020-07-03T18:47:18Z</time>
      </trkpt>
      <trkpt lat="46.58604" lon="0.36578">
        <ele>116.7</ele>
        <time>2020-07-03T18:47:19Z</time>
      </trkpt>
      <trkpt lat="46.58599" lon="0.36581">
        <ele>116.6</ele>
        <time>2020-07-03T18:47:20Z</time>
      </trkpt>
      <trkpt lat="46.58593" lon="0.36584">
        <ele>116.6</ele>
        <time>2020-07-03T18:47:21Z</time>
      </trkpt>
      <trkpt lat="46.58588" lon="0.36587">
        <ele>116.5</ele>
        <time>2020-07-03T18:47:22Z</time>
      </trkpt>
      <trkpt lat="46.58583" lon="0.36589">
        <ele>116.5</ele>
        <time>2020-07-03T18:47:23Z</time>
      </trkpt>
      <trkpt lat="46.58578" lon="0.36591">
        <ele>116.5</ele>
        <time>2020-07-03T18:47:24Z</time>
      </trkpt>
      <trkpt lat="46.58573" lon="0.36593">
        <ele>116.4</ele>
        <time>2020-07-03T18:47:25Z</time>
      </trkpt>
      <trkpt lat="46.58568" lon="0.36595">
        <ele>116.3</ele>
        <time>2020-07-03T18:47:26Z</time>
      </trkpt>
      <trkpt lat="46.58562" lon="0.36599">
        <ele>116.2</ele>
        <time>2020-07-03T18:47:27Z</time>
      </trkpt>
      <trkpt lat="46.58556" lon="0.36601">
        <ele>116</ele>
        <time>2020-07-03T18:47:28Z</time>
      </trkpt>
      <trkpt lat="46.5855" lon="0.36604">
        <ele>115.9</ele>
        <time>2020-07-03T18:47:29Z</time>
      </trkpt>
      <trkpt lat="46.58545" lon="0.36607">
        <ele>115.7</ele>
        <time>2020-07-03T18:47:30Z</time>
      </trkpt>
      <trkpt lat="46.58539" lon="0.3661">
        <ele>115.6</ele>
        <time>2020-07-03T18:47:31Z</time>
      </trkpt>
      <trkpt lat="46.58533" lon="0.36612">
        <ele>115.4</ele>
        <time>2020-07-03T18:47:32Z</time>
      </trkpt>
      <trkpt lat="46.58527" lon="0.36614">
        <ele>115.2</ele>
        <time>2020-07-03T18:47:33Z</time>
      </trkpt>
      <trkpt lat="46.58521" lon="0.36617">
        <ele>115</ele>
        <time>2020-07-03T18:47:34Z</time>
      </trkpt>
      <trkpt lat="46.58516" lon="0.3662">
        <ele>114.8</ele>
        <time>2020-07-03T18:47:35Z</time>
      </trkpt>
      <trkpt lat="46.5851" lon="0.36623">
        <ele>114.6</ele>
        <time>2020-07-03T18:47:36Z</time>
      </trkpt>
      <trkpt lat="46.58504" lon="0.36625">
        <ele>114.5</ele>
        <time>2020-07-03T18:47:37Z</time>
      </trkpt>
      <trkpt lat="46.58498" lon="0.36627">
        <ele>114.4</ele>
        <time>2020-07-03T18:47:38Z</time>
      </trkpt>
      <trkpt lat="46.58492" lon="0.3663">
        <ele>114.2</ele>
        <time>2020-07-03T18:47:39Z</time>
      </trkpt>
      <trkpt lat="46.58487" lon="0.36633">
        <ele>114.2</ele>
        <time>2020-07-03T18:47:40Z</time>
      </trkpt>
      <trkpt lat="46.58481" lon="0.36635">
        <ele>114.1</ele>
        <time>2020-07-03T18:47:41Z</time>
      </trkpt>
      <trkpt lat="46.58475" lon="0.36638">
        <ele>114</ele>
        <time>2020-07-03T18:47:42Z</time>
      </trkpt>
      <trkpt lat="46.58469" lon="0.3664">
        <ele>113.9</ele>
        <time>2020-07-03T18:47:43Z</time>
      </trkpt>
      <trkpt lat="46.58463" lon="0.36641">
        <ele>113.7</ele>
        <time>2020-07-03T18:47:44Z</time>
      </trkpt>
      <trkpt lat="46.58457" lon="0.36644">
        <ele>113.5</ele>
        <time>2020-07-03T18:47:45Z</time>
      </trkpt>
      <trkpt lat="46.58453" lon="0.36647">
        <ele>113.3</ele>
        <time>2020-07-03T18:47:46Z</time>
      </trkpt>
      <trkpt lat="46.58448" lon="0.36648">
        <ele>113.2</ele>
        <time>2020-07-03T18:47:47Z</time>
      </trkpt>
      <trkpt lat="46.58445" lon="0.36648">
        <ele>113</ele>
        <time>2020-07-03T18:47:48Z</time>
      </trkpt>
      <trkpt lat="46.58442" lon="0.36649">
        <ele>112.9</ele>
        <time>2020-07-03T18:47:49Z</time>
      </trkpt>
      <trkpt lat="46.58441" lon="0.36649">
        <ele>113</ele>
        <time>2020-07-03T18:47:50Z</time>
      </trkpt>
      <trkpt lat="46.5844" lon="0.36648">
        <ele>113</ele>
        <time>2020-07-03T18:47:51Z</time>
      </trkpt>
      <trkpt lat="46.58439" lon="0.36648">
        <ele>113</ele>
        <time>2020-07-03T18:47:52Z</time>
      </trkpt>
      <trkpt lat="46.58438" lon="0.36649">
        <ele>113</ele>
        <time>2020-07-03T18:47:53Z</time>
      </trkpt>
      <trkpt lat="46.58438" lon="0.3665">
        <ele>113</ele>
        <time>2020-07-03T18:47:54Z</time>
      </trkpt>
      <trkpt lat="46.58439" lon="0.36649">
        <ele>113</ele>
        <time>2020-07-03T18:47:55Z</time>
      </trkpt>
      <trkpt lat="46.58439" lon="0.36649">
        <ele>113</ele>
        <time>2020-07-03T18:47:56Z</time>
      </trkpt>
      <trkpt lat="46.5844" lon="0.36648">
        <ele>113</ele>
        <time>2020-07-03T18:47:57Z</time>
      </trkpt>
      <trkpt lat="46.58441" lon="0.36647">
        <ele>113</ele>
        <time>2020-07-03T18:47:58Z</time>
      </trkpt>
      <trkpt lat="46.58442" lon="0.36646">
        <ele>113</ele>
        <time>2020-07-03T18:47:59Z</time>
      </trkpt>
      <trkpt lat="46.58443" lon="0.36645">
        <ele>113</ele>
        <time>2020-07-03T18:48:00Z</time>
      </trkpt>
      <trkpt lat="46.58444" lon="0.36644">
        <ele>113</ele>
        <time>2020-07-03T18:48:01Z</time>
      </trkpt>
      <trkpt lat="46.58444" lon="0.36644">
        <ele>113.1</ele>
        <time>2020-07-03T18:48:02Z</time>
      </trkpt>
      <trkpt lat="46.58445" lon="0.36643">
        <ele>113.1</ele>
        <time>2020-07-03T18:48:03Z</time>
      </trkpt>
      <trkpt lat="46.58446" lon="0.36642">
        <ele>113.1</ele>
        <time>2020-07-03T18:48:04Z</time>
      </trkpt>
      <trkpt lat="46.58447" lon="0.36641">
        <ele>113.1</ele>
        <time>2020-07-03T18:48:05Z</time>
      </trkpt>
      <trkpt lat="46.58448" lon="0.3664">
        <ele>113.1</ele>
        <time>2020-07-03T18:53:14Z</time>
      </trkpt>
      <trkpt lat="46.58449" lon="0.36639">
        <ele>113.1</ele>
        <time>2020-07-03T18:53:15Z</time>
      </trkpt>
      <trkpt lat="46.58452" lon="0.36636">
        <ele>113.4</ele>
        <time>2020-07-03T18:53:16Z</time>
      </trkpt>
      <trkpt lat="46.58453" lon="0.36634">
        <ele>113.5</ele>
        <time>2020-07-03T18:53:17Z</time>
      </trkpt>
      <trkpt lat="46.58455" lon="0.3663">
        <ele>113.6</ele>
        <time>2020-07-03T18:53:18Z</time>
      </trkpt>
      <trkpt lat="46.58456" lon="0.36626">
        <ele>113.7</ele>
        <time>2020-07-03T18:53:19Z</time>
      </trkpt>
      <trkpt lat="46.58457" lon="0.36623">
        <ele>113.8</ele>
        <time>2020-07-03T18:53:20Z</time>
      </trkpt>
      <trkpt lat="46.58457" lon="0.36623">
        <ele>113.7</ele>
        <time>2020-07-03T18:53:21Z</time>
      </trkpt>
      <trkpt lat="46.58457" lon="0.36623">
        <ele>113.7</ele>
        <time>2020-07-03T18:53:22Z</time>
      </trkpt>
      <trkpt lat="46.58457" lon="0.36623">
        <ele>113.8</ele>
        <time>2020-07-03T18:53:23Z</time>
      </trkpt>
      <trkpt lat="46.58458" lon="0.36622">
        <ele>113.8</ele>
        <time>2020-07-03T18:53:24Z</time>
      </trkpt>
      <trkpt lat="46.5846" lon="0.36618">
        <ele>113.8</ele>
        <time>2020-07-03T18:53:25Z</time>
      </trkpt>
      <trkpt lat="46.58461" lon="0.36616">
        <ele>113.8</ele>
        <time>2020-07-03T18:53:26Z</time>
      </trkpt>
      <trkpt lat="46.58465" lon="0.36612">
        <ele>113.8</ele>
        <time>2020-07-03T18:53:27Z</time>
      </trkpt>
      <trkpt lat="46.58468" lon="0.36608">
        <ele>113.5</ele>
        <time>2020-07-03T18:53:28Z</time>
      </trkpt>
      <trkpt lat="46.58469" lon="0.36604">
        <ele>113.4</ele>
        <time>2020-07-03T18:53:29Z</time>
      </trkpt>
      <trkpt lat="46.58471" lon="0.366">
        <ele>113.3</ele>
        <time>2020-07-03T18:53:30Z</time>
      </trkpt>
      <trkpt lat="46.58472" lon="0.36594">
        <ele>113.2</ele>
        <time>2020-07-03T18:53:31Z</time>
      </trkpt>
      <trkpt lat="46.58472" lon="0.36589">
        <ele>113.1</ele>
        <time>2020-07-03T18:53:32Z</time>
      </trkpt>
      <trkpt lat="46.58473" lon="0.36584">
        <ele>113</ele>
        <time>2020-07-03T18:53:33Z</time>
      </trkpt>
      <trkpt lat="46.58473" lon="0.36579">
        <ele>113</ele>
        <time>2020-07-03T18:53:34Z</time>
      </trkpt>
      <trkpt lat="46.58474" lon="0.36575">
        <ele>112.9</ele>
        <time>2020-07-03T18:53:35Z</time>
      </trkpt>
      <trkpt lat="46.58474" lon="0.36568">
        <ele>112.8</ele>
        <time>2020-07-03T18:53:36Z</time>
      </trkpt>
      <trkpt lat="46.58475" lon="0.36563">
        <ele>112.7</ele>
        <time>2020-07-03T18:53:37Z</time>
      </trkpt>
      <trkpt lat="46.58475" lon="0.36558">
        <ele>112.6</ele>
        <time>2020-07-03T18:53:38Z</time>
      </trkpt>
      <trkpt lat="46.58475" lon="0.36553">
        <ele>112.5</ele>
        <time>2020-07-03T18:53:39Z</time>
      </trkpt>
      <trkpt lat="46.58476" lon="0.36548">
        <ele>112.4</ele>
        <time>2020-07-03T18:53:40Z</time>
      </trkpt>
      <trkpt lat="46.58476" lon="0.36542">
        <ele>112.4</ele>
        <time>2020-07-03T18:53:41Z</time>
      </trkpt>
      <trkpt lat="46.58477" lon="0.36537">
        <ele>112.3</ele>
        <time>2020-07-03T18:53:42Z</time>
      </trkpt>
      <trkpt lat="46.58476" lon="0.36532">
        <ele>112.2</ele>
        <time>2020-07-03T18:53:43Z</time>
      </trkpt>
      <trkpt lat="46.58477" lon="0.36529">
        <ele>112.1</ele>
        <time>2020-07-03T18:53:44Z</time>
      </trkpt>
      <trkpt lat="46.58477" lon="0.36528">
        <ele>112.1</ele>
        <time>2020-07-03T18:53:45Z</time>
      </trkpt>
      <trkpt lat="46.58478" lon="0.36529">
        <ele>112.1</ele>
        <time>2020-07-03T18:53:46Z</time>
      </trkpt>
      <trkpt lat="46.58478" lon="0.3653">
        <ele>112.1</ele>
        <time>2020-07-03T18:53:47Z</time>
      </trkpt>
      <trkpt lat="46.58478" lon="0.36529">
        <ele>112.1</ele>
        <time>2020-07-03T18:53:48Z</time>
      </trkpt>
      <trkpt lat="46.58477" lon="0.36529">
        <ele>112.1</ele>
        <time>2020-07-03T18:53:49Z</time>
      </trkpt>
      <trkpt lat="46.58476" lon="0.36529">
        <ele>112.1</ele>
        <time>2020-07-03T18:53:50Z</time>
      </trkpt>
      <trkpt lat="46.58476" lon="0.36528">
        <ele>112.1</ele>
        <time>2020-07-03T18:53:51Z</time>
      </trkpt>
      <trkpt lat="46.58476" lon="0.36528">
        <ele>112.1</ele>
        <time>2020-07-03T18:53:52Z</time>
      </trkpt>
      <trkpt lat="46.58477" lon="0.36528">
        <ele>112.1</ele>
        <time>2020-07-03T18:53:53Z</time>
      </trkpt>
      <trkpt lat="46.58477" lon="0.36527">
        <ele>112.1</ele>
        <time>2020-07-03T18:53:54Z</time>
      </trkpt>
      <trkpt lat="46.58477" lon="0.36524">
        <ele>112</ele>
        <time>2020-07-03T18:53:55Z</time>
      </trkpt>
      <trkpt lat="46.58476" lon="0.3652">
        <ele>112</ele>
        <time>2020-07-03T18:53:56Z</time>
      </trkpt>
      <trkpt lat="46.58472" lon="0.36514">
        <ele>111.8</ele>
        <time>2020-07-03T18:53:57Z</time>
      </trkpt>
      <trkpt lat="46.58469" lon="0.36508">
        <ele>111.7</ele>
        <time>2020-07-03T18:53:58Z</time>
      </trkpt>
      <trkpt lat="46.58466" lon="0.36502">
        <ele>111.6</ele>
        <time>2020-07-03T18:53:59Z</time>
      </trkpt>
      <trkpt lat="46.58463" lon="0.36496">
        <ele>111.3</ele>
        <time>2020-07-03T18:54:00Z</time>
      </trkpt>
      <trkpt lat="46.58461" lon="0.36489">
        <ele>111.2</ele>
        <time>2020-07-03T18:54:01Z</time>
      </trkpt>
      <trkpt lat="46.58458" lon="0.36481">
        <ele>111</ele>
        <time>2020-07-03T18:54:02Z</time>
      </trkpt>
      <trkpt lat="46.58455" lon="0.36473">
        <ele>110.8</ele>
        <time>2020-07-03T18:54:03Z</time>
      </trkpt>
      <trkpt lat="46.58452" lon="0.36465">
        <ele>110.6</ele>
        <time>2020-07-03T18:54:04Z</time>
      </trkpt>
      <trkpt lat="46.58449" lon="0.36459">
        <ele>110.4</ele>
        <time>2020-07-03T18:54:05Z</time>
      </trkpt>
      <trkpt lat="46.58446" lon="0.36452">
        <ele>110.2</ele>
        <time>2020-07-03T18:54:06Z</time>
      </trkpt>
      <trkpt lat="46.58444" lon="0.36442">
        <ele>109.9</ele>
        <time>2020-07-03T18:54:07Z</time>
      </trkpt>
      <trkpt lat="46.58441" lon="0.36435">
        <ele>109.6</ele>
        <time>2020-07-03T18:54:08Z</time>
      </trkpt>
      <trkpt lat="46.58438" lon="0.36427">
        <ele>109.4</ele>
        <time>2020-07-03T18:54:09Z</time>
      </trkpt>
      <trkpt lat="46.58435" lon="0.36419">
        <ele>109.2</ele>
        <time>2020-07-03T18:54:10Z</time>
      </trkpt>
      <trkpt lat="46.58433" lon="0.36411">
        <ele>108.9</ele>
        <time>2020-07-03T18:54:11Z</time>
      </trkpt>
      <trkpt lat="46.5843" lon="0.36403">
        <ele>108.7</ele>
        <time>2020-07-03T18:54:12Z</time>
      </trkpt>
      <trkpt lat="46.58427" lon="0.36396">
        <ele>108.5</ele>
        <time>2020-07-03T18:54:13Z</time>
      </trkpt>
      <trkpt lat="46.58425" lon="0.36387">
        <ele>108.3</ele>
        <time>2020-07-03T18:54:14Z</time>
      </trkpt>
      <trkpt lat="46.58422" lon="0.36377">
        <ele>108.1</ele>
        <time>2020-07-03T18:54:15Z</time>
      </trkpt>
      <trkpt lat="46.5842" lon="0.36367">
        <ele>107.9</ele>
        <time>2020-07-03T18:54:16Z</time>
      </trkpt>
      <trkpt lat="46.58417" lon="0.36358">
        <ele>107.7</ele>
        <time>2020-07-03T18:54:17Z</time>
      </trkpt>
      <trkpt lat="46.58413" lon="0.36348">
        <ele>107.5</ele>
        <time>2020-07-03T18:54:18Z</time>
      </trkpt>
      <trkpt lat="46.58409" lon="0.36338">
        <ele>107.3</ele>
        <time>2020-07-03T18:54:19Z</time>
      </trkpt>
      <trkpt lat="46.58405" lon="0.36329">
        <ele>107</ele>
        <time>2020-07-03T18:54:20Z</time>
      </trkpt>
      <trkpt lat="46.58401" lon="0.3632">
        <ele>106.8</ele>
        <time>2020-07-03T18:54:21Z</time>
      </trkpt>
      <trkpt lat="46.58396" lon="0.36312">
        <ele>106.5</ele>
        <time>2020-07-03T18:54:22Z</time>
      </trkpt>
      <trkpt lat="46.58393" lon="0.36304">
        <ele>106.3</ele>
        <time>2020-07-03T18:54:23Z</time>
      </trkpt>
      <trkpt lat="46.58389" lon="0.36295">
        <ele>105.9</ele>
        <time>2020-07-03T18:54:24Z</time>
      </trkpt>
      <trkpt lat="46.58386" lon="0.36286">
        <ele>105.6</ele>
        <time>2020-07-03T18:54:25Z</time>
      </trkpt>
      <trkpt lat="46.58383" lon="0.36276">
        <ele>105.3</ele>
        <time>2020-07-03T18:54:26Z</time>
      </trkpt>
      <trkpt lat="46.5838" lon="0.36267">
        <ele>105</ele>
        <time>2020-07-03T18:54:27Z</time>
      </trkpt>
      <trkpt lat="46.58377" lon="0.36259">
        <ele>104.7</ele>
        <time>2020-07-03T18:54:28Z</time>
      </trkpt>
      <trkpt lat="46.58372" lon="0.36251">
        <ele>104.4</ele>
        <time>2020-07-03T18:54:29Z</time>
      </trkpt>
      <trkpt lat="46.58368" lon="0.36244">
        <ele>104.1</ele>
        <time>2020-07-03T18:54:30Z</time>
      </trkpt>
      <trkpt lat="46.58364" lon="0.36238">
        <ele>103.9</ele>
        <time>2020-07-03T18:54:31Z</time>
      </trkpt>
      <trkpt lat="46.58361" lon="0.36234">
        <ele>103.7</ele>
        <time>2020-07-03T18:54:32Z</time>
      </trkpt>
      <trkpt lat="46.58357" lon="0.36228">
        <ele>103.2</ele>
        <time>2020-07-03T18:54:33Z</time>
      </trkpt>
      <trkpt lat="46.58355" lon="0.36222">
        <ele>103</ele>
        <time>2020-07-03T18:54:34Z</time>
      </trkpt>
      <trkpt lat="46.58351" lon="0.36217">
        <ele>102.9</ele>
        <time>2020-07-03T18:54:35Z</time>
      </trkpt>
      <trkpt lat="46.58347" lon="0.36213">
        <ele>102.8</ele>
        <time>2020-07-03T18:54:36Z</time>
      </trkpt>
      <trkpt lat="46.58344" lon="0.36208">
        <ele>102.6</ele>
        <time>2020-07-03T18:54:37Z</time>
      </trkpt>
      <trkpt lat="46.5834" lon="0.36202">
        <ele>102.5</ele>
        <time>2020-07-03T18:54:38Z</time>
      </trkpt>
      <trkpt lat="46.58336" lon="0.36194">
        <ele>102.2</ele>
        <time>2020-07-03T18:54:39Z</time>
      </trkpt>
      <trkpt lat="46.58331" lon="0.36189">
        <ele>101.8</ele>
        <time>2020-07-03T18:54:40Z</time>
      </trkpt>
      <trkpt lat="46.58326" lon="0.36183">
        <ele>101.4</ele>
        <time>2020-07-03T18:54:41Z</time>
      </trkpt>
      <trkpt lat="46.58321" lon="0.36176">
        <ele>101</ele>
        <time>2020-07-03T18:54:42Z</time>
      </trkpt>
      <trkpt lat="46.58315" lon="0.36169">
        <ele>100.6</ele>
        <time>2020-07-03T18:54:43Z</time>
      </trkpt>
      <trkpt lat="46.5831" lon="0.36161">
        <ele>100.1</ele>
        <time>2020-07-03T18:54:44Z</time>
      </trkpt>
      <trkpt lat="46.58305" lon="0.36155">
        <ele>99.7</ele>
        <time>2020-07-03T18:54:45Z</time>
      </trkpt>
      <trkpt lat="46.583" lon="0.36148">
        <ele>99.3</ele>
        <time>2020-07-03T18:54:46Z</time>
      </trkpt>
      <trkpt lat="46.58294" lon="0.36139">
        <ele>98.9</ele>
        <time>2020-07-03T18:54:47Z</time>
      </trkpt>
      <trkpt lat="46.58289" lon="0.36131">
        <ele>98.6</ele>
        <time>2020-07-03T18:54:48Z</time>
      </trkpt>
      <trkpt lat="46.58287" lon="0.36121">
        <ele>98.3</ele>
        <time>2020-07-03T18:54:49Z</time>
      </trkpt>
      <trkpt lat="46.58286" lon="0.36111">
        <ele>98.1</ele>
        <time>2020-07-03T18:54:50Z</time>
      </trkpt>
      <trkpt lat="46.58284" lon="0.36103">
        <ele>97.9</ele>
        <time>2020-07-03T18:54:51Z</time>
      </trkpt>
      <trkpt lat="46.58283" lon="0.36094">
        <ele>97.8</ele>
        <time>2020-07-03T18:54:52Z</time>
      </trkpt>
      <trkpt lat="46.58282" lon="0.36086">
        <ele>97.6</ele>
        <time>2020-07-03T18:54:53Z</time>
      </trkpt>
      <trkpt lat="46.58281" lon="0.36079">
        <ele>97.5</ele>
        <time>2020-07-03T18:54:54Z</time>
      </trkpt>
      <trkpt lat="46.58279" lon="0.36072">
        <ele>97.5</ele>
        <time>2020-07-03T18:54:55Z</time>
      </trkpt>
      <trkpt lat="46.58276" lon="0.36066">
        <ele>97.6</ele>
        <time>2020-07-03T18:54:56Z</time>
      </trkpt>
      <trkpt lat="46.58272" lon="0.36062">
        <ele>97.6</ele>
        <time>2020-07-03T18:54:57Z</time>
      </trkpt>
      <trkpt lat="46.58267" lon="0.36061">
        <ele>97.7</ele>
        <time>2020-07-03T18:54:58Z</time>
      </trkpt>
      <trkpt lat="46.58263" lon="0.3606">
        <ele>97.7</ele>
        <time>2020-07-03T18:54:59Z</time>
      </trkpt>
      <trkpt lat="46.58259" lon="0.36061">
        <ele>98</ele>
        <time>2020-07-03T18:55:00Z</time>
      </trkpt>
      <trkpt lat="46.58254" lon="0.36062">
        <ele>98.2</ele>
        <time>2020-07-03T18:55:01Z</time>
      </trkpt>
      <trkpt lat="46.58248" lon="0.36063">
        <ele>98.4</ele>
        <time>2020-07-03T18:55:02Z</time>
      </trkpt>
      <trkpt lat="46.58243" lon="0.36064">
        <ele>98.6</ele>
        <time>2020-07-03T18:55:03Z</time>
      </trkpt>
      <trkpt lat="46.58237" lon="0.36064">
        <ele>98.8</ele>
        <time>2020-07-03T18:55:04Z</time>
      </trkpt>
      <trkpt lat="46.58231" lon="0.36065">
        <ele>99.2</ele>
        <time>2020-07-03T18:55:05Z</time>
      </trkpt>
      <trkpt lat="46.58226" lon="0.36065">
        <ele>99.5</ele>
        <time>2020-07-03T18:55:06Z</time>
      </trkpt>
      <trkpt lat="46.5822" lon="0.36064">
        <ele>99.8</ele>
        <time>2020-07-03T18:55:07Z</time>
      </trkpt>
      <trkpt lat="46.58215" lon="0.3606">
        <ele>100.1</ele>
        <time>2020-07-03T18:55:08Z</time>
      </trkpt>
      <trkpt lat="46.58209" lon="0.36057">
        <ele>100.5</ele>
        <time>2020-07-03T18:55:09Z</time>
      </trkpt>
      <trkpt lat="46.58204" lon="0.36052">
        <ele>100.8</ele>
        <time>2020-07-03T18:55:10Z</time>
      </trkpt>
      <trkpt lat="46.582" lon="0.36046">
        <ele>101</ele>
        <time>2020-07-03T18:55:11Z</time>
      </trkpt>
      <trkpt lat="46.58195" lon="0.3604">
        <ele>101.4</ele>
        <time>2020-07-03T18:55:12Z</time>
      </trkpt>
      <trkpt lat="46.58191" lon="0.36033">
        <ele>101.7</ele>
        <time>2020-07-03T18:55:13Z</time>
      </trkpt>
      <trkpt lat="46.58189" lon="0.36025">
        <ele>102</ele>
        <time>2020-07-03T18:55:14Z</time>
      </trkpt>
      <trkpt lat="46.58188" lon="0.36018">
        <ele>102.2</ele>
        <time>2020-07-03T18:55:15Z</time>
      </trkpt>
      <trkpt lat="46.58187" lon="0.3601">
        <ele>102.3</ele>
        <time>2020-07-03T18:55:16Z</time>
      </trkpt>
      <trkpt lat="46.58186" lon="0.36003">
        <ele>102.7</ele>
        <time>2020-07-03T18:55:17Z</time>
      </trkpt>
      <trkpt lat="46.58186" lon="0.35996">
        <ele>103.2</ele>
        <time>2020-07-03T18:55:18Z</time>
      </trkpt>
      <trkpt lat="46.58186" lon="0.3599">
        <ele>103.6</ele>
        <time>2020-07-03T18:55:19Z</time>
      </trkpt>
      <trkpt lat="46.58186" lon="0.35983">
        <ele>104</ele>
        <time>2020-07-03T18:55:20Z</time>
      </trkpt>
      <trkpt lat="46.58187" lon="0.35976">
        <ele>104.4</ele>
        <time>2020-07-03T18:55:21Z</time>
      </trkpt>
      <trkpt lat="46.58187" lon="0.3597">
        <ele>104.7</ele>
        <time>2020-07-03T18:55:22Z</time>
      </trkpt>
      <trkpt lat="46.58188" lon="0.35964">
        <ele>105.1</ele>
        <time>2020-07-03T18:55:23Z</time>
      </trkpt>
      <trkpt lat="46.58188" lon="0.35959">
        <ele>105.4</ele>
        <time>2020-07-03T18:55:24Z</time>
      </trkpt>
      <trkpt lat="46.58188" lon="0.35953">
        <ele>105.7</ele>
        <time>2020-07-03T18:55:25Z</time>
      </trkpt>
      <trkpt lat="46.58188" lon="0.35949">
        <ele>106</ele>
        <time>2020-07-03T18:55:26Z</time>
      </trkpt>
      <trkpt lat="46.58187" lon="0.35944">
        <ele>106.2</ele>
        <time>2020-07-03T18:55:27Z</time>
      </trkpt>
      <trkpt lat="46.58188" lon="0.3594">
        <ele>106.5</ele>
        <time>2020-07-03T18:55:28Z</time>
      </trkpt>
      <trkpt lat="46.58188" lon="0.35935">
        <ele>106.7</ele>
        <time>2020-07-03T18:55:29Z</time>
      </trkpt>
      <trkpt lat="46.58188" lon="0.3593">
        <ele>106.9</ele>
        <time>2020-07-03T18:55:30Z</time>
      </trkpt>
      <trkpt lat="46.58188" lon="0.35925">
        <ele>107</ele>
        <time>2020-07-03T18:55:31Z</time>
      </trkpt>
      <trkpt lat="46.58188" lon="0.35924">
        <ele>107.1</ele>
        <time>2020-07-03T18:55:32Z</time>
      </trkpt>
      <trkpt lat="46.58188" lon="0.3592">
        <ele>107.2</ele>
        <time>2020-07-03T18:55:33Z</time>
      </trkpt>
      <trkpt lat="46.58188" lon="0.35918">
        <ele>107.3</ele>
        <time>2020-07-03T18:55:34Z</time>
      </trkpt>
      <trkpt lat="46.58187" lon="0.35915">
        <ele>107.4</ele>
        <time>2020-07-03T18:55:35Z</time>
      </trkpt>
      <trkpt lat="46.58188" lon="0.3591">
        <ele>107.6</ele>
        <time>2020-07-03T18:55:36Z</time>
      </trkpt>
      <trkpt lat="46.58189" lon="0.35905">
        <ele>107.8</ele>
        <time>2020-07-03T18:55:37Z</time>
      </trkpt>
      <trkpt lat="46.58189" lon="0.35899">
        <ele>108</ele>
        <time>2020-07-03T18:55:38Z</time>
      </trkpt>
      <trkpt lat="46.58189" lon="0.35894">
        <ele>108.2</ele>
        <time>2020-07-03T18:55:39Z</time>
      </trkpt>
      <trkpt lat="46.58189" lon="0.35888">
        <ele>108.4</ele>
        <time>2020-07-03T18:55:40Z</time>
      </trkpt>
      <trkpt lat="46.5819" lon="0.35881">
        <ele>108.7</ele>
        <time>2020-07-03T18:55:41Z</time>
      </trkpt>
      <trkpt lat="46.5819" lon="0.35876">
        <ele>108.9</ele>
        <time>2020-07-03T18:55:42Z</time>
      </trkpt>
      <trkpt lat="46.5819" lon="0.35872">
        <ele>109.1</ele>
        <time>2020-07-03T18:55:43Z</time>
      </trkpt>
      <trkpt lat="46.5819" lon="0.35869">
        <ele>109.2</ele>
        <time>2020-07-03T18:55:44Z</time>
      </trkpt>
      <trkpt lat="46.5819" lon="0.35863">
        <ele>109.5</ele>
        <time>2020-07-03T18:55:45Z</time>
      </trkpt>
      <trkpt lat="46.5819" lon="0.35861">
        <ele>109.6</ele>
        <time>2020-07-03T18:55:46Z</time>
      </trkpt>
      <trkpt lat="46.58191" lon="0.35855">
        <ele>109.8</ele>
        <time>2020-07-03T18:55:47Z</time>
      </trkpt>
      <trkpt lat="46.58191" lon="0.35851">
        <ele>110.1</ele>
        <time>2020-07-03T18:55:48Z</time>
      </trkpt>
      <trkpt lat="46.58192" lon="0.35846">
        <ele>110.2</ele>
        <time>2020-07-03T18:55:49Z</time>
      </trkpt>
      <trkpt lat="46.58192" lon="0.35841">
        <ele>110.4</ele>
        <time>2020-07-03T18:55:50Z</time>
      </trkpt>
      <trkpt lat="46.58192" lon="0.35836">
        <ele>110.5</ele>
        <time>2020-07-03T18:55:51Z</time>
      </trkpt>
      <trkpt lat="46.58192" lon="0.35835">
        <ele>110.6</ele>
        <time>2020-07-03T18:55:52Z</time>
      </trkpt>
      <trkpt lat="46.58192" lon="0.3583">
        <ele>110.7</ele>
        <time>2020-07-03T18:55:53Z</time>
      </trkpt>
      <trkpt lat="46.58192" lon="0.35826">
        <ele>110.8</ele>
        <time>2020-07-03T18:55:54Z</time>
      </trkpt>
      <trkpt lat="46.58192" lon="0.3582">
        <ele>111</ele>
        <time>2020-07-03T18:55:55Z</time>
      </trkpt>
      <trkpt lat="46.58192" lon="0.35818">
        <ele>111</ele>
        <time>2020-07-03T18:55:56Z</time>
      </trkpt>
      <trkpt lat="46.58192" lon="0.35813">
        <ele>111.2</ele>
        <time>2020-07-03T18:55:57Z</time>
      </trkpt>
      <trkpt lat="46.58191" lon="0.35807">
        <ele>111.3</ele>
        <time>2020-07-03T18:55:58Z</time>
      </trkpt>
      <trkpt lat="46.58191" lon="0.35805">
        <ele>111.4</ele>
        <time>2020-07-03T18:55:59Z</time>
      </trkpt>
      <trkpt lat="46.58191" lon="0.35801">
        <ele>111.5</ele>
        <time>2020-07-03T18:56:00Z</time>
      </trkpt>
      <trkpt lat="46.58191" lon="0.35796">
        <ele>111.6</ele>
        <time>2020-07-03T18:56:01Z</time>
      </trkpt>
      <trkpt lat="46.58191" lon="0.35792">
        <ele>111.7</ele>
        <time>2020-07-03T18:56:02Z</time>
      </trkpt>
      <trkpt lat="46.58192" lon="0.35788">
        <ele>111.8</ele>
        <time>2020-07-03T18:56:03Z</time>
      </trkpt>
      <trkpt lat="46.58191" lon="0.35783">
        <ele>111.9</ele>
        <time>2020-07-03T18:56:04Z</time>
      </trkpt>
      <trkpt lat="46.58192" lon="0.35778">
        <ele>112</ele>
        <time>2020-07-03T18:56:05Z</time>
      </trkpt>
      <trkpt lat="46.58192" lon="0.35775">
        <ele>112</ele>
        <time>2020-07-03T18:56:06Z</time>
      </trkpt>
      <trkpt lat="46.58192" lon="0.3577">
        <ele>112.1</ele>
        <time>2020-07-03T18:56:07Z</time>
      </trkpt>
      <trkpt lat="46.58192" lon="0.35765">
        <ele>112.2</ele>
        <time>2020-07-03T18:56:08Z</time>
      </trkpt>
      <trkpt lat="46.58192" lon="0.35759">
        <ele>112.3</ele>
        <time>2020-07-03T18:56:09Z</time>
      </trkpt>
      <trkpt lat="46.58192" lon="0.35754">
        <ele>112.3</ele>
        <time>2020-07-03T18:56:10Z</time>
      </trkpt>
      <trkpt lat="46.58193" lon="0.35747">
        <ele>112.4</ele>
        <time>2020-07-03T18:56:11Z</time>
      </trkpt>
      <trkpt lat="46.58193" lon="0.35742">
        <ele>112.5</ele>
        <time>2020-07-03T18:56:12Z</time>
      </trkpt>
      <trkpt lat="46.58194" lon="0.35736">
        <ele>112.6</ele>
        <time>2020-07-03T18:56:13Z</time>
      </trkpt>
      <trkpt lat="46.58194" lon="0.35731">
        <ele>112.6</ele>
        <time>2020-07-03T18:56:14Z</time>
      </trkpt>
      <trkpt lat="46.58194" lon="0.35725">
        <ele>112.7</ele>
        <time>2020-07-03T18:56:15Z</time>
      </trkpt>
      <trkpt lat="46.58195" lon="0.35721">
        <ele>112.7</ele>
        <time>2020-07-03T18:56:16Z</time>
      </trkpt>
      <trkpt lat="46.58195" lon="0.35715">
        <ele>112.8</ele>
        <time>2020-07-03T18:56:17Z</time>
      </trkpt>
      <trkpt lat="46.58196" lon="0.35709">
        <ele>112.9</ele>
        <time>2020-07-03T18:56:18Z</time>
      </trkpt>
      <trkpt lat="46.58197" lon="0.35704">
        <ele>113</ele>
        <time>2020-07-03T18:56:19Z</time>
      </trkpt>
      <trkpt lat="46.58197" lon="0.35699">
        <ele>113</ele>
        <time>2020-07-03T18:56:20Z</time>
      </trkpt>
      <trkpt lat="46.58198" lon="0.35693">
        <ele>113.1</ele>
        <time>2020-07-03T18:56:21Z</time>
      </trkpt>
      <trkpt lat="46.58198" lon="0.35686">
        <ele>113.2</ele>
        <time>2020-07-03T18:56:22Z</time>
      </trkpt>
      <trkpt lat="46.58198" lon="0.35681">
        <ele>113.3</ele>
        <time>2020-07-03T18:56:23Z</time>
      </trkpt>
      <trkpt lat="46.58198" lon="0.35675">
        <ele>113.4</ele>
        <time>2020-07-03T18:56:24Z</time>
      </trkpt>
      <trkpt lat="46.58199" lon="0.35668">
        <ele>113.4</ele>
        <time>2020-07-03T18:56:25Z</time>
      </trkpt>
      <trkpt lat="46.58199" lon="0.35661">
        <ele>113.5</ele>
        <time>2020-07-03T18:56:26Z</time>
      </trkpt>
      <trkpt lat="46.58199" lon="0.35654">
        <ele>113.6</ele>
        <time>2020-07-03T18:56:27Z</time>
      </trkpt>
      <trkpt lat="46.58199" lon="0.35647">
        <ele>113.7</ele>
        <time>2020-07-03T18:56:28Z</time>
      </trkpt>
      <trkpt lat="46.58199" lon="0.35641">
        <ele>113.8</ele>
        <time>2020-07-03T18:56:29Z</time>
      </trkpt>
      <trkpt lat="46.58198" lon="0.35634">
        <ele>113.9</ele>
        <time>2020-07-03T18:56:30Z</time>
      </trkpt>
      <trkpt lat="46.58199" lon="0.35629">
        <ele>114</ele>
        <time>2020-07-03T18:56:31Z</time>
      </trkpt>
      <trkpt lat="46.58199" lon="0.35623">
        <ele>114.1</ele>
        <time>2020-07-03T18:56:32Z</time>
      </trkpt>
      <trkpt lat="46.582" lon="0.35618">
        <ele>114.2</ele>
        <time>2020-07-03T18:56:33Z</time>
      </trkpt>
      <trkpt lat="46.582" lon="0.35612">
        <ele>114.3</ele>
        <time>2020-07-03T18:56:34Z</time>
      </trkpt>
      <trkpt lat="46.582" lon="0.35606">
        <ele>114.4</ele>
        <time>2020-07-03T18:56:35Z</time>
      </trkpt>
      <trkpt lat="46.58199" lon="0.35601">
        <ele>114.4</ele>
        <time>2020-07-03T18:56:36Z</time>
      </trkpt>
      <trkpt lat="46.58199" lon="0.35595">
        <ele>114.5</ele>
        <time>2020-07-03T18:56:37Z</time>
      </trkpt>
      <trkpt lat="46.58199" lon="0.35591">
        <ele>114.5</ele>
        <time>2020-07-03T18:56:38Z</time>
      </trkpt>
      <trkpt lat="46.58199" lon="0.35583">
        <ele>114.6</ele>
        <time>2020-07-03T18:56:39Z</time>
      </trkpt>
      <trkpt lat="46.58199" lon="0.35577">
        <ele>114.7</ele>
        <time>2020-07-03T18:56:40Z</time>
      </trkpt>
      <trkpt lat="46.58199" lon="0.35575">
        <ele>114.7</ele>
        <time>2020-07-03T18:56:41Z</time>
      </trkpt>
      <trkpt lat="46.58196" lon="0.35574">
        <ele>114.7</ele>
        <time>2020-07-03T18:56:42Z</time>
      </trkpt>
      <trkpt lat="46.58192" lon="0.35574">
        <ele>114.7</ele>
        <time>2020-07-03T18:56:43Z</time>
      </trkpt>
      <trkpt lat="46.58187" lon="0.35573">
        <ele>114.7</ele>
        <time>2020-07-03T18:56:44Z</time>
      </trkpt>
      <trkpt lat="46.58182" lon="0.35572">
        <ele>114.7</ele>
        <time>2020-07-03T18:56:45Z</time>
      </trkpt>
      <trkpt lat="46.58177" lon="0.35572">
        <ele>114.8</ele>
        <time>2020-07-03T18:56:46Z</time>
      </trkpt>
      <trkpt lat="46.58173" lon="0.35571">
        <ele>114.8</ele>
        <time>2020-07-03T18:56:47Z</time>
      </trkpt>
      <trkpt lat="46.58168" lon="0.35572">
        <ele>114.8</ele>
        <time>2020-07-03T18:56:48Z</time>
      </trkpt>
      <trkpt lat="46.58163" lon="0.35571">
        <ele>114.9</ele>
        <time>2020-07-03T18:56:49Z</time>
      </trkpt>
      <trkpt lat="46.58158" lon="0.35569">
        <ele>115</ele>
        <time>2020-07-03T18:56:50Z</time>
      </trkpt>
      <trkpt lat="46.58153" lon="0.35568">
        <ele>115</ele>
        <time>2020-07-03T18:56:51Z</time>
      </trkpt>
      <trkpt lat="46.5815" lon="0.35568">
        <ele>115</ele>
        <time>2020-07-03T18:56:52Z</time>
      </trkpt>
      <trkpt lat="46.58147" lon="0.35567">
        <ele>115</ele>
        <time>2020-07-03T18:56:53Z</time>
      </trkpt>
      <trkpt lat="46.58141" lon="0.35567">
        <ele>115.1</ele>
        <time>2020-07-03T18:56:54Z</time>
      </trkpt>
      <trkpt lat="46.58137" lon="0.35566">
        <ele>115.1</ele>
        <time>2020-07-03T18:56:55Z</time>
      </trkpt>
      <trkpt lat="46.58132" lon="0.35565">
        <ele>115.1</ele>
        <time>2020-07-03T18:56:56Z</time>
      </trkpt>
      <trkpt lat="46.58125" lon="0.35565">
        <ele>115.1</ele>
        <time>2020-07-03T18:56:57Z</time>
      </trkpt>
      <trkpt lat="46.5812" lon="0.35565">
        <ele>115.1</ele>
        <time>2020-07-03T18:56:58Z</time>
      </trkpt>
      <trkpt lat="46.58113" lon="0.35567">
        <ele>115.2</ele>
        <time>2020-07-03T18:56:59Z</time>
      </trkpt>
      <trkpt lat="46.58108" lon="0.35566">
        <ele>115.2</ele>
        <time>2020-07-03T18:57:00Z</time>
      </trkpt>
      <trkpt lat="46.58102" lon="0.35566">
        <ele>115.3</ele>
        <time>2020-07-03T18:57:01Z</time>
      </trkpt>
      <trkpt lat="46.58096" lon="0.35565">
        <ele>115.3</ele>
        <time>2020-07-03T18:57:02Z</time>
      </trkpt>
      <trkpt lat="46.58091" lon="0.35563">
        <ele>115.3</ele>
        <time>2020-07-03T18:57:03Z</time>
      </trkpt>
      <trkpt lat="46.58085" lon="0.35561">
        <ele>115.4</ele>
        <time>2020-07-03T18:57:04Z</time>
      </trkpt>
      <trkpt lat="46.58079" lon="0.3556">
        <ele>115.4</ele>
        <time>2020-07-03T18:57:05Z</time>
      </trkpt>
      <trkpt lat="46.58072" lon="0.35559">
        <ele>115.4</ele>
        <time>2020-07-03T18:57:06Z</time>
      </trkpt>
      <trkpt lat="46.58065" lon="0.35558">
        <ele>115.3</ele>
        <time>2020-07-03T18:57:07Z</time>
      </trkpt>
      <trkpt lat="46.58058" lon="0.35557">
        <ele>115.1</ele>
        <time>2020-07-03T18:57:08Z</time>
      </trkpt>
      <trkpt lat="46.58053" lon="0.35556">
        <ele>115.1</ele>
        <time>2020-07-03T18:57:09Z</time>
      </trkpt>
      <trkpt lat="46.58047" lon="0.35557">
        <ele>115</ele>
        <time>2020-07-03T18:57:10Z</time>
      </trkpt>
      <trkpt lat="46.5804" lon="0.35557">
        <ele>114.8</ele>
        <time>2020-07-03T18:57:11Z</time>
      </trkpt>
      <trkpt lat="46.58033" lon="0.35555">
        <ele>114.6</ele>
        <time>2020-07-03T18:57:12Z</time>
      </trkpt>
      <trkpt lat="46.58027" lon="0.35549">
        <ele>114.3</ele>
        <time>2020-07-03T18:57:13Z</time>
      </trkpt>
      <trkpt lat="46.5802" lon="0.35542">
        <ele>113.8</ele>
        <time>2020-07-03T18:57:14Z</time>
      </trkpt>
      <trkpt lat="46.58014" lon="0.35532">
        <ele>113.4</ele>
        <time>2020-07-03T18:57:15Z</time>
      </trkpt>
      <trkpt lat="46.58009" lon="0.35522">
        <ele>112.6</ele>
        <time>2020-07-03T18:57:16Z</time>
      </trkpt>
      <trkpt lat="46.58002" lon="0.35515">
        <ele>112</ele>
        <time>2020-07-03T18:57:17Z</time>
      </trkpt>
      <trkpt lat="46.57993" lon="0.3551">
        <ele>111.2</ele>
        <time>2020-07-03T18:57:18Z</time>
      </trkpt>
      <trkpt lat="46.57984" lon="0.35507">
        <ele>110.4</ele>
        <time>2020-07-03T18:57:19Z</time>
      </trkpt>
      <trkpt lat="46.57973" lon="0.35506">
        <ele>109.7</ele>
        <time>2020-07-03T18:57:20Z</time>
      </trkpt>
      <trkpt lat="46.57963" lon="0.35505">
        <ele>108.9</ele>
        <time>2020-07-03T18:57:21Z</time>
      </trkpt>
      <trkpt lat="46.57952" lon="0.35504">
        <ele>108.1</ele>
        <time>2020-07-03T18:57:22Z</time>
      </trkpt>
      <trkpt lat="46.5794" lon="0.35503">
        <ele>107.3</ele>
        <time>2020-07-03T18:57:23Z</time>
      </trkpt>
      <trkpt lat="46.57929" lon="0.35502">
        <ele>106.5</ele>
        <time>2020-07-03T18:57:24Z</time>
      </trkpt>
      <trkpt lat="46.57917" lon="0.355">
        <ele>105.8</ele>
        <time>2020-07-03T18:57:25Z</time>
      </trkpt>
      <trkpt lat="46.57906" lon="0.35499">
        <ele>104.9</ele>
        <time>2020-07-03T18:57:26Z</time>
      </trkpt>
      <trkpt lat="46.57894" lon="0.35497">
        <ele>104.1</ele>
        <time>2020-07-03T18:57:27Z</time>
      </trkpt>
      <trkpt lat="46.57881" lon="0.35496">
        <ele>103.2</ele>
        <time>2020-07-03T18:57:28Z</time>
      </trkpt>
      <trkpt lat="46.57869" lon="0.35494">
        <ele>102.3</ele>
        <time>2020-07-03T18:57:29Z</time>
      </trkpt>
      <trkpt lat="46.57856" lon="0.3549">
        <ele>101.4</ele>
        <time>2020-07-03T18:57:30Z</time>
      </trkpt>
      <trkpt lat="46.57843" lon="0.35486">
        <ele>100.5</ele>
        <time>2020-07-03T18:57:31Z</time>
      </trkpt>
      <trkpt lat="46.57832" lon="0.35481">
        <ele>99.6</ele>
        <time>2020-07-03T18:57:32Z</time>
      </trkpt>
      <trkpt lat="46.5782" lon="0.35476">
        <ele>98.7</ele>
        <time>2020-07-03T18:57:33Z</time>
      </trkpt>
      <trkpt lat="46.57808" lon="0.3547">
        <ele>97.8</ele>
        <time>2020-07-03T18:57:34Z</time>
      </trkpt>
      <trkpt lat="46.57795" lon="0.35466">
        <ele>96.8</ele>
        <time>2020-07-03T18:57:35Z</time>
      </trkpt>
      <trkpt lat="46.57784" lon="0.35461">
        <ele>96</ele>
        <time>2020-07-03T18:57:36Z</time>
      </trkpt>
      <trkpt lat="46.57772" lon="0.35456">
        <ele>95.1</ele>
        <time>2020-07-03T18:57:37Z</time>
      </trkpt>
      <trkpt lat="46.5776" lon="0.35451">
        <ele>94.3</ele>
        <time>2020-07-03T18:57:38Z</time>
      </trkpt>
      <trkpt lat="46.57751" lon="0.35443">
        <ele>93.5</ele>
        <time>2020-07-03T18:57:39Z</time>
      </trkpt>
      <trkpt lat="46.5774" lon="0.35437">
        <ele>92.7</ele>
        <time>2020-07-03T18:57:40Z</time>
      </trkpt>
      <trkpt lat="46.57731" lon="0.35431">
        <ele>91.9</ele>
        <time>2020-07-03T18:57:41Z</time>
      </trkpt>
      <trkpt lat="46.57724" lon="0.35422">
        <ele>91.1</ele>
        <time>2020-07-03T18:57:42Z</time>
      </trkpt>
      <trkpt lat="46.57718" lon="0.35411">
        <ele>90.3</ele>
        <time>2020-07-03T18:57:43Z</time>
      </trkpt>
      <trkpt lat="46.57715" lon="0.35397">
        <ele>89.5</ele>
        <time>2020-07-03T18:57:44Z</time>
      </trkpt>
      <trkpt lat="46.57715" lon="0.35382">
        <ele>89</ele>
        <time>2020-07-03T18:57:45Z</time>
      </trkpt>
      <trkpt lat="46.57715" lon="0.35366">
        <ele>88.5</ele>
        <time>2020-07-03T18:57:46Z</time>
      </trkpt>
      <trkpt lat="46.57718" lon="0.3535">
        <ele>88</ele>
        <time>2020-07-03T18:57:47Z</time>
      </trkpt>
      <trkpt lat="46.57721" lon="0.35334">
        <ele>87</ele>
        <time>2020-07-03T18:57:48Z</time>
      </trkpt>
      <trkpt lat="46.57727" lon="0.35318">
        <ele>86.1</ele>
        <time>2020-07-03T18:57:49Z</time>
      </trkpt>
      <trkpt lat="46.57729" lon="0.35302">
        <ele>85.1</ele>
        <time>2020-07-03T18:57:50Z</time>
      </trkpt>
      <trkpt lat="46.57734" lon="0.35286">
        <ele>84.1</ele>
        <time>2020-07-03T18:57:51Z</time>
      </trkpt>
      <trkpt lat="46.57738" lon="0.3527">
        <ele>83.2</ele>
        <time>2020-07-03T18:57:52Z</time>
      </trkpt>
      <trkpt lat="46.57741" lon="0.35255">
        <ele>82.4</ele>
        <time>2020-07-03T18:57:53Z</time>
      </trkpt>
      <trkpt lat="46.57745" lon="0.35241">
        <ele>81.8</ele>
        <time>2020-07-03T18:57:54Z</time>
      </trkpt>
      <trkpt lat="46.57747" lon="0.35228">
        <ele>81.2</ele>
        <time>2020-07-03T18:57:55Z</time>
      </trkpt>
      <trkpt lat="46.57749" lon="0.35217">
        <ele>80.8</ele>
        <time>2020-07-03T18:57:56Z</time>
      </trkpt>
      <trkpt lat="46.5775" lon="0.35208">
        <ele>80.5</ele>
        <time>2020-07-03T18:57:57Z</time>
      </trkpt>
      <trkpt lat="46.57749" lon="0.35201">
        <ele>80.4</ele>
        <time>2020-07-03T18:57:58Z</time>
      </trkpt>
      <trkpt lat="46.5775" lon="0.35194">
        <ele>80.2</ele>
        <time>2020-07-03T18:57:59Z</time>
      </trkpt>
      <trkpt lat="46.57751" lon="0.35189">
        <ele>80.3</ele>
        <time>2020-07-03T18:58:00Z</time>
      </trkpt>
      <trkpt lat="46.57753" lon="0.35184">
        <ele>80.3</ele>
        <time>2020-07-03T18:58:01Z</time>
      </trkpt>
      <trkpt lat="46.57755" lon="0.35179">
        <ele>80.3</ele>
        <time>2020-07-03T18:58:02Z</time>
      </trkpt>
      <trkpt lat="46.57757" lon="0.35174">
        <ele>80.3</ele>
        <time>2020-07-03T18:58:03Z</time>
      </trkpt>
      <trkpt lat="46.57759" lon="0.35169">
        <ele>80.3</ele>
        <time>2020-07-03T18:58:04Z</time>
      </trkpt>
      <trkpt lat="46.57761" lon="0.35164">
        <ele>80.4</ele>
        <time>2020-07-03T18:58:05Z</time>
      </trkpt>
      <trkpt lat="46.57764" lon="0.35159">
        <ele>80.4</ele>
        <time>2020-07-03T18:58:06Z</time>
      </trkpt>
      <trkpt lat="46.57767" lon="0.35154">
        <ele>80.4</ele>
        <time>2020-07-03T18:58:07Z</time>
      </trkpt>
      <trkpt lat="46.5777" lon="0.3515">
        <ele>80.4</ele>
        <time>2020-07-03T18:58:08Z</time>
      </trkpt>
      <trkpt lat="46.57775" lon="0.35146">
        <ele>80.4</ele>
        <time>2020-07-03T18:58:09Z</time>
      </trkpt>
      <trkpt lat="46.57779" lon="0.35142">
        <ele>80.4</ele>
        <time>2020-07-03T18:58:10Z</time>
      </trkpt>
      <trkpt lat="46.57783" lon="0.35137">
        <ele>80.4</ele>
        <time>2020-07-03T18:58:11Z</time>
      </trkpt>
      <trkpt lat="46.57787" lon="0.35133">
        <ele>80.4</ele>
        <time>2020-07-03T18:58:12Z</time>
      </trkpt>
      <trkpt lat="46.57791" lon="0.35128">
        <ele>80.4</ele>
        <time>2020-07-03T18:58:13Z</time>
      </trkpt>
      <trkpt lat="46.57795" lon="0.35124">
        <ele>80.3</ele>
        <time>2020-07-03T18:58:14Z</time>
      </trkpt>
      <trkpt lat="46.57799" lon="0.35119">
        <ele>80.2</ele>
        <time>2020-07-03T18:58:15Z</time>
      </trkpt>
      <trkpt lat="46.57803" lon="0.35113">
        <ele>80.1</ele>
        <time>2020-07-03T18:58:16Z</time>
      </trkpt>
      <trkpt lat="46.57808" lon="0.35107">
        <ele>80.1</ele>
        <time>2020-07-03T18:58:17Z</time>
      </trkpt>
      <trkpt lat="46.57812" lon="0.35101">
        <ele>80.1</ele>
        <time>2020-07-03T18:58:18Z</time>
      </trkpt>
      <trkpt lat="46.57817" lon="0.35095">
        <ele>80.2</ele>
        <time>2020-07-03T18:58:19Z</time>
      </trkpt>
      <trkpt lat="46.57821" lon="0.35088">
        <ele>80.3</ele>
        <time>2020-07-03T18:58:20Z</time>
      </trkpt>
      <trkpt lat="46.57826" lon="0.35082">
        <ele>80.5</ele>
        <time>2020-07-03T18:58:21Z</time>
      </trkpt>
      <trkpt lat="46.57831" lon="0.35075">
        <ele>80.8</ele>
        <time>2020-07-03T18:58:22Z</time>
      </trkpt>
      <trkpt lat="46.57837" lon="0.35069">
        <ele>81.1</ele>
        <time>2020-07-03T18:58:23Z</time>
      </trkpt>
      <trkpt lat="46.57841" lon="0.35062">
        <ele>81.3</ele>
        <time>2020-07-03T18:58:24Z</time>
      </trkpt>
      <trkpt lat="46.57845" lon="0.35055">
        <ele>81.6</ele>
        <time>2020-07-03T18:58:25Z</time>
      </trkpt>
      <trkpt lat="46.57849" lon="0.35048">
        <ele>81.8</ele>
        <time>2020-07-03T18:58:26Z</time>
      </trkpt>
      <trkpt lat="46.57853" lon="0.35042">
        <ele>82.1</ele>
        <time>2020-07-03T18:58:27Z</time>
      </trkpt>
      <trkpt lat="46.57858" lon="0.35035">
        <ele>82.3</ele>
        <time>2020-07-03T18:58:28Z</time>
      </trkpt>
      <trkpt lat="46.57862" lon="0.3503">
        <ele>82.6</ele>
        <time>2020-07-03T18:58:29Z</time>
      </trkpt>
      <trkpt lat="46.57866" lon="0.35025">
        <ele>82.9</ele>
        <time>2020-07-03T18:58:30Z</time>
      </trkpt>
      <trkpt lat="46.5787" lon="0.3502">
        <ele>83.2</ele>
        <time>2020-07-03T18:58:31Z</time>
      </trkpt>
      <trkpt lat="46.57874" lon="0.35014">
        <ele>83.5</ele>
        <time>2020-07-03T18:58:32Z</time>
      </trkpt>
      <trkpt lat="46.57877" lon="0.35011">
        <ele>83.8</ele>
        <time>2020-07-03T18:58:33Z</time>
      </trkpt>
      <trkpt lat="46.5788" lon="0.35008">
        <ele>84</ele>
        <time>2020-07-03T18:58:34Z</time>
      </trkpt>
      <trkpt lat="46.57883" lon="0.35004">
        <ele>84.3</ele>
        <time>2020-07-03T18:58:35Z</time>
      </trkpt>
      <trkpt lat="46.57887" lon="0.34999">
        <ele>84.6</ele>
        <time>2020-07-03T18:58:36Z</time>
      </trkpt>
      <trkpt lat="46.5789" lon="0.34995">
        <ele>84.9</ele>
        <time>2020-07-03T18:58:37Z</time>
      </trkpt>
      <trkpt lat="46.57893" lon="0.34991">
        <ele>85.1</ele>
        <time>2020-07-03T18:58:38Z</time>
      </trkpt>
      <trkpt lat="46.57896" lon="0.34987">
        <ele>85.3</ele>
        <time>2020-07-03T18:58:39Z</time>
      </trkpt>
      <trkpt lat="46.57899" lon="0.34983">
        <ele>85.5</ele>
        <time>2020-07-03T18:58:40Z</time>
      </trkpt>
      <trkpt lat="46.57902" lon="0.34977">
        <ele>85.8</ele>
        <time>2020-07-03T18:58:41Z</time>
      </trkpt>
      <trkpt lat="46.57905" lon="0.34971">
        <ele>86.1</ele>
        <time>2020-07-03T18:58:42Z</time>
      </trkpt>
      <trkpt lat="46.5791" lon="0.34969">
        <ele>86.3</ele>
        <time>2020-07-03T18:58:44Z</time>
      </trkpt>
      <trkpt lat="46.57912" lon="0.34967">
        <ele>86.5</ele>
        <time>2020-07-03T18:58:45Z</time>
      </trkpt>
      <trkpt lat="46.57915" lon="0.34964">
        <ele>86.7</ele>
        <time>2020-07-03T18:58:46Z</time>
      </trkpt>
      <trkpt lat="46.57918" lon="0.34961">
        <ele>86.9</ele>
        <time>2020-07-03T18:58:47Z</time>
      </trkpt>
      <trkpt lat="46.57923" lon="0.34958">
        <ele>87.3</ele>
        <time>2020-07-03T18:58:48Z</time>
      </trkpt>
      <trkpt lat="46.57927" lon="0.34954">
        <ele>87.5</ele>
        <time>2020-07-03T18:58:49Z</time>
      </trkpt>
      <trkpt lat="46.57931" lon="0.3495">
        <ele>87.7</ele>
        <time>2020-07-03T18:58:50Z</time>
      </trkpt>
      <trkpt lat="46.57934" lon="0.34946">
        <ele>87.9</ele>
        <time>2020-07-03T18:58:51Z</time>
      </trkpt>
      <trkpt lat="46.57937" lon="0.34944">
        <ele>88</ele>
        <time>2020-07-03T18:58:52Z</time>
      </trkpt>
      <trkpt lat="46.5794" lon="0.34942">
        <ele>88.1</ele>
        <time>2020-07-03T18:58:53Z</time>
      </trkpt>
      <trkpt lat="46.57942" lon="0.34938">
        <ele>88.2</ele>
        <time>2020-07-03T18:58:54Z</time>
      </trkpt>
      <trkpt lat="46.57945" lon="0.34934">
        <ele>88.2</ele>
        <time>2020-07-03T18:58:55Z</time>
      </trkpt>
      <trkpt lat="46.57947" lon="0.34931">
        <ele>88.3</ele>
        <time>2020-07-03T18:58:56Z</time>
      </trkpt>
      <trkpt lat="46.5795" lon="0.34926">
        <ele>88.4</ele>
        <time>2020-07-03T18:58:57Z</time>
      </trkpt>
      <trkpt lat="46.57953" lon="0.3492">
        <ele>88.5</ele>
        <time>2020-07-03T18:58:58Z</time>
      </trkpt>
      <trkpt lat="46.57955" lon="0.34914">
        <ele>88.6</ele>
        <time>2020-07-03T18:58:59Z</time>
      </trkpt>
      <trkpt lat="46.57958" lon="0.34907">
        <ele>88.7</ele>
        <time>2020-07-03T18:59:00Z</time>
      </trkpt>
      <trkpt lat="46.5796" lon="0.349">
        <ele>88.9</ele>
        <time>2020-07-03T18:59:01Z</time>
      </trkpt>
      <trkpt lat="46.57964" lon="0.34892">
        <ele>89</ele>
        <time>2020-07-03T18:59:02Z</time>
      </trkpt>
      <trkpt lat="46.57965" lon="0.34883">
        <ele>89.1</ele>
        <time>2020-07-03T18:59:03Z</time>
      </trkpt>
      <trkpt lat="46.57967" lon="0.34876">
        <ele>89.2</ele>
        <time>2020-07-03T18:59:04Z</time>
      </trkpt>
      <trkpt lat="46.5797" lon="0.34869">
        <ele>89.3</ele>
        <time>2020-07-03T18:59:05Z</time>
      </trkpt>
      <trkpt lat="46.57972" lon="0.34861">
        <ele>89.5</ele>
        <time>2020-07-03T18:59:06Z</time>
      </trkpt>
      <trkpt lat="46.57974" lon="0.34852">
        <ele>89.8</ele>
        <time>2020-07-03T18:59:07Z</time>
      </trkpt>
      <trkpt lat="46.57976" lon="0.34845">
        <ele>90.1</ele>
        <time>2020-07-03T18:59:08Z</time>
      </trkpt>
      <trkpt lat="46.57977" lon="0.34837">
        <ele>90.4</ele>
        <time>2020-07-03T18:59:09Z</time>
      </trkpt>
      <trkpt lat="46.57978" lon="0.34831">
        <ele>90.6</ele>
        <time>2020-07-03T18:59:10Z</time>
      </trkpt>
      <trkpt lat="46.57979" lon="0.34824">
        <ele>90.9</ele>
        <time>2020-07-03T18:59:11Z</time>
      </trkpt>
      <trkpt lat="46.5798" lon="0.34816">
        <ele>91.3</ele>
        <time>2020-07-03T18:59:12Z</time>
      </trkpt>
      <trkpt lat="46.57981" lon="0.3481">
        <ele>91.6</ele>
        <time>2020-07-03T18:59:13Z</time>
      </trkpt>
      <trkpt lat="46.57981" lon="0.34803">
        <ele>91.7</ele>
        <time>2020-07-03T18:59:14Z</time>
      </trkpt>
      <trkpt lat="46.57983" lon="0.34796">
        <ele>91.7</ele>
        <time>2020-07-03T18:59:15Z</time>
      </trkpt>
      <trkpt lat="46.57984" lon="0.34791">
        <ele>91.7</ele>
        <time>2020-07-03T18:59:16Z</time>
      </trkpt>
      <trkpt lat="46.57984" lon="0.34786">
        <ele>91.8</ele>
        <time>2020-07-03T18:59:17Z</time>
      </trkpt>
      <trkpt lat="46.57984" lon="0.34781">
        <ele>91.9</ele>
        <time>2020-07-03T18:59:18Z</time>
      </trkpt>
      <trkpt lat="46.57984" lon="0.34775">
        <ele>92</ele>
        <time>2020-07-03T18:59:19Z</time>
      </trkpt>
      <trkpt lat="46.57987" lon="0.34771">
        <ele>92.2</ele>
        <time>2020-07-03T18:59:20Z</time>
      </trkpt>
      <trkpt lat="46.57988" lon="0.34767">
        <ele>92.3</ele>
        <time>2020-07-03T18:59:21Z</time>
      </trkpt>
      <trkpt lat="46.57989" lon="0.34762">
        <ele>92.5</ele>
        <time>2020-07-03T18:59:22Z</time>
      </trkpt>
      <trkpt lat="46.5799" lon="0.34756">
        <ele>92.7</ele>
        <time>2020-07-03T18:59:23Z</time>
      </trkpt>
      <trkpt lat="46.57991" lon="0.34749">
        <ele>92.9</ele>
        <time>2020-07-03T18:59:24Z</time>
      </trkpt>
      <trkpt lat="46.57992" lon="0.34744">
        <ele>93.1</ele>
        <time>2020-07-03T18:59:25Z</time>
      </trkpt>
      <trkpt lat="46.57993" lon="0.34738">
        <ele>93.3</ele>
        <time>2020-07-03T18:59:26Z</time>
      </trkpt>
      <trkpt lat="46.57995" lon="0.3473">
        <ele>93.6</ele>
        <time>2020-07-03T18:59:27Z</time>
      </trkpt>
      <trkpt lat="46.57997" lon="0.34725">
        <ele>93.8</ele>
        <time>2020-07-03T18:59:28Z</time>
      </trkpt>
      <trkpt lat="46.58" lon="0.34721">
        <ele>94.1</ele>
        <time>2020-07-03T18:59:29Z</time>
      </trkpt>
      <trkpt lat="46.58001" lon="0.34719">
        <ele>94.2</ele>
        <time>2020-07-03T18:59:30Z</time>
      </trkpt>
      <trkpt lat="46.58003" lon="0.34714">
        <ele>94.4</ele>
        <time>2020-07-03T18:59:31Z</time>
      </trkpt>
      <trkpt lat="46.58004" lon="0.34709">
        <ele>94.7</ele>
        <time>2020-07-03T18:59:32Z</time>
      </trkpt>
      <trkpt lat="46.58006" lon="0.34704">
        <ele>95</ele>
        <time>2020-07-03T18:59:33Z</time>
      </trkpt>
      <trkpt lat="46.58009" lon="0.34698">
        <ele>95.3</ele>
        <time>2020-07-03T18:59:34Z</time>
      </trkpt>
      <trkpt lat="46.58011" lon="0.34695">
        <ele>95.6</ele>
        <time>2020-07-03T18:59:35Z</time>
      </trkpt>
      <trkpt lat="46.58013" lon="0.34691">
        <ele>95.8</ele>
        <time>2020-07-03T18:59:36Z</time>
      </trkpt>
      <trkpt lat="46.58016" lon="0.34689">
        <ele>96</ele>
        <time>2020-07-03T18:59:37Z</time>
      </trkpt>
      <trkpt lat="46.58019" lon="0.34687">
        <ele>96.3</ele>
        <time>2020-07-03T18:59:38Z</time>
      </trkpt>
      <trkpt lat="46.5802" lon="0.34685">
        <ele>96.4</ele>
        <time>2020-07-03T18:59:39Z</time>
      </trkpt>
      <trkpt lat="46.5802" lon="0.34681">
        <ele>96.7</ele>
        <time>2020-07-03T18:59:40Z</time>
      </trkpt>
      <trkpt lat="46.58021" lon="0.34675">
        <ele>97</ele>
        <time>2020-07-03T18:59:41Z</time>
      </trkpt>
      <trkpt lat="46.58021" lon="0.34673">
        <ele>97</ele>
        <time>2020-07-03T18:59:42Z</time>
      </trkpt>
      <trkpt lat="46.58022" lon="0.34669">
        <ele>97.2</ele>
        <time>2020-07-03T18:59:43Z</time>
      </trkpt>
      <trkpt lat="46.58023" lon="0.34668">
        <ele>97.3</ele>
        <time>2020-07-03T18:59:44Z</time>
      </trkpt>
      <trkpt lat="46.58025" lon="0.34663">
        <ele>97.5</ele>
        <time>2020-07-03T18:59:45Z</time>
      </trkpt>
      <trkpt lat="46.58026" lon="0.34661">
        <ele>97.6</ele>
        <time>2020-07-03T18:59:46Z</time>
      </trkpt>
      <trkpt lat="46.58029" lon="0.34657">
        <ele>97.8</ele>
        <time>2020-07-03T18:59:47Z</time>
      </trkpt>
      <trkpt lat="46.58032" lon="0.34652">
        <ele>98.1</ele>
        <time>2020-07-03T18:59:48Z</time>
      </trkpt>
      <trkpt lat="46.58034" lon="0.34648">
        <ele>98.3</ele>
        <time>2020-07-03T18:59:49Z</time>
      </trkpt>
      <trkpt lat="46.58037" lon="0.34644">
        <ele>98.5</ele>
        <time>2020-07-03T18:59:50Z</time>
      </trkpt>
      <trkpt lat="46.5804" lon="0.3464">
        <ele>98.7</ele>
        <time>2020-07-03T18:59:51Z</time>
      </trkpt>
      <trkpt lat="46.58042" lon="0.34635">
        <ele>99</ele>
        <time>2020-07-03T18:59:52Z</time>
      </trkpt>
      <trkpt lat="46.58044" lon="0.34632">
        <ele>99.2</ele>
        <time>2020-07-03T18:59:53Z</time>
      </trkpt>
      <trkpt lat="46.58046" lon="0.34629">
        <ele>99.3</ele>
        <time>2020-07-03T18:59:54Z</time>
      </trkpt>
      <trkpt lat="46.58047" lon="0.34625">
        <ele>99.5</ele>
        <time>2020-07-03T18:59:55Z</time>
      </trkpt>
      <trkpt lat="46.58049" lon="0.34621">
        <ele>99.7</ele>
        <time>2020-07-03T18:59:56Z</time>
      </trkpt>
      <trkpt lat="46.58051" lon="0.34617">
        <ele>99.9</ele>
        <time>2020-07-03T18:59:57Z</time>
      </trkpt>
      <trkpt lat="46.58054" lon="0.34614">
        <ele>100.1</ele>
        <time>2020-07-03T18:59:58Z</time>
      </trkpt>
      <trkpt lat="46.58055" lon="0.34612">
        <ele>100.2</ele>
        <time>2020-07-03T18:59:59Z</time>
      </trkpt>
      <trkpt lat="46.58058" lon="0.34609">
        <ele>100.4</ele>
        <time>2020-07-03T19:00:00Z</time>
      </trkpt>
      <trkpt lat="46.5806" lon="0.34607">
        <ele>100.6</ele>
        <time>2020-07-03T19:00:01Z</time>
      </trkpt>
      <trkpt lat="46.58063" lon="0.34604">
        <ele>100.8</ele>
        <time>2020-07-03T19:00:02Z</time>
      </trkpt>
      <trkpt lat="46.58065" lon="0.34601">
        <ele>101</ele>
        <time>2020-07-03T19:00:03Z</time>
      </trkpt>
      <trkpt lat="46.58067" lon="0.34597">
        <ele>101.2</ele>
        <time>2020-07-03T19:00:04Z</time>
      </trkpt>
      <trkpt lat="46.5807" lon="0.34593">
        <ele>101.4</ele>
        <time>2020-07-03T19:00:05Z</time>
      </trkpt>
      <trkpt lat="46.58072" lon="0.34589">
        <ele>101.6</ele>
        <time>2020-07-03T19:00:06Z</time>
      </trkpt>
      <trkpt lat="46.58074" lon="0.34584">
        <ele>101.9</ele>
        <time>2020-07-03T19:00:07Z</time>
      </trkpt>
      <trkpt lat="46.58076" lon="0.3458">
        <ele>102.1</ele>
        <time>2020-07-03T19:00:08Z</time>
      </trkpt>
      <trkpt lat="46.58076" lon="0.34578">
        <ele>102.2</ele>
        <time>2020-07-03T19:00:09Z</time>
      </trkpt>
      <trkpt lat="46.58079" lon="0.34575">
        <ele>102.4</ele>
        <time>2020-07-03T19:00:10Z</time>
      </trkpt>
      <trkpt lat="46.5808" lon="0.34574">
        <ele>102.5</ele>
        <time>2020-07-03T19:00:11Z</time>
      </trkpt>
      <trkpt lat="46.58083" lon="0.34571">
        <ele>102.7</ele>
        <time>2020-07-03T19:00:12Z</time>
      </trkpt>
      <trkpt lat="46.58086" lon="0.34568">
        <ele>103</ele>
        <time>2020-07-03T19:00:13Z</time>
      </trkpt>
      <trkpt lat="46.58088" lon="0.34565">
        <ele>103.2</ele>
        <time>2020-07-03T19:00:14Z</time>
      </trkpt>
      <trkpt lat="46.5809" lon="0.34562">
        <ele>103.4</ele>
        <time>2020-07-03T19:00:15Z</time>
      </trkpt>
      <trkpt lat="46.58094" lon="0.34555">
        <ele>103.8</ele>
        <time>2020-07-03T19:00:16Z</time>
      </trkpt>
      <trkpt lat="46.58095" lon="0.3455">
        <ele>104</ele>
        <time>2020-07-03T19:00:17Z</time>
      </trkpt>
      <trkpt lat="46.58097" lon="0.34545">
        <ele>104.3</ele>
        <time>2020-07-03T19:00:18Z</time>
      </trkpt>
      <trkpt lat="46.58099" lon="0.34541">
        <ele>104.4</ele>
        <time>2020-07-03T19:00:19Z</time>
      </trkpt>
      <trkpt lat="46.58101" lon="0.34537">
        <ele>104.6</ele>
        <time>2020-07-03T19:00:20Z</time>
      </trkpt>
      <trkpt lat="46.58102" lon="0.34532">
        <ele>104.8</ele>
        <time>2020-07-03T19:00:21Z</time>
      </trkpt>
      <trkpt lat="46.58104" lon="0.34528">
        <ele>105</ele>
        <time>2020-07-03T19:00:22Z</time>
      </trkpt>
      <trkpt lat="46.58105" lon="0.34524">
        <ele>105.2</ele>
        <time>2020-07-03T19:00:23Z</time>
      </trkpt>
      <trkpt lat="46.58106" lon="0.3452">
        <ele>105.4</ele>
        <time>2020-07-03T19:00:24Z</time>
      </trkpt>
      <trkpt lat="46.58107" lon="0.34516">
        <ele>105.6</ele>
        <time>2020-07-03T19:00:25Z</time>
      </trkpt>
      <trkpt lat="46.58109" lon="0.34512">
        <ele>105.7</ele>
        <time>2020-07-03T19:00:26Z</time>
      </trkpt>
      <trkpt lat="46.58109" lon="0.34508">
        <ele>106</ele>
        <time>2020-07-03T19:00:27Z</time>
      </trkpt>
      <trkpt lat="46.58111" lon="0.34503">
        <ele>106.2</ele>
        <time>2020-07-03T19:00:28Z</time>
      </trkpt>
      <trkpt lat="46.58112" lon="0.34498">
        <ele>106.4</ele>
        <time>2020-07-03T19:00:29Z</time>
      </trkpt>
      <trkpt lat="46.58113" lon="0.34494">
        <ele>106.6</ele>
        <time>2020-07-03T19:00:30Z</time>
      </trkpt>
      <trkpt lat="46.58114" lon="0.3449">
        <ele>106.8</ele>
        <time>2020-07-03T19:00:31Z</time>
      </trkpt>
      <trkpt lat="46.58115" lon="0.34485">
        <ele>107</ele>
        <time>2020-07-03T19:00:32Z</time>
      </trkpt>
      <trkpt lat="46.58115" lon="0.34483">
        <ele>107</ele>
        <time>2020-07-03T19:00:33Z</time>
      </trkpt>
      <trkpt lat="46.58116" lon="0.34479">
        <ele>107.1</ele>
        <time>2020-07-03T19:00:34Z</time>
      </trkpt>
      <trkpt lat="46.58116" lon="0.34474">
        <ele>107.3</ele>
        <time>2020-07-03T19:00:35Z</time>
      </trkpt>
      <trkpt lat="46.58118" lon="0.34468">
        <ele>107.5</ele>
        <time>2020-07-03T19:00:36Z</time>
      </trkpt>
      <trkpt lat="46.58119" lon="0.34463">
        <ele>107.6</ele>
        <time>2020-07-03T19:00:37Z</time>
      </trkpt>
      <trkpt lat="46.5812" lon="0.34458">
        <ele>107.8</ele>
        <time>2020-07-03T19:00:38Z</time>
      </trkpt>
      <trkpt lat="46.5812" lon="0.34452">
        <ele>108</ele>
        <time>2020-07-03T19:00:39Z</time>
      </trkpt>
      <trkpt lat="46.5812" lon="0.34445">
        <ele>108.2</ele>
        <time>2020-07-03T19:00:40Z</time>
      </trkpt>
      <trkpt lat="46.58121" lon="0.3444">
        <ele>108.4</ele>
        <time>2020-07-03T19:00:41Z</time>
      </trkpt>
      <trkpt lat="46.58122" lon="0.34434">
        <ele>108.6</ele>
        <time>2020-07-03T19:00:42Z</time>
      </trkpt>
      <trkpt lat="46.58124" lon="0.34429">
        <ele>108.8</ele>
        <time>2020-07-03T19:00:43Z</time>
      </trkpt>
      <trkpt lat="46.58125" lon="0.34425">
        <ele>109</ele>
        <time>2020-07-03T19:00:44Z</time>
      </trkpt>
      <trkpt lat="46.58126" lon="0.34419">
        <ele>109.2</ele>
        <time>2020-07-03T19:00:45Z</time>
      </trkpt>
      <trkpt lat="46.58127" lon="0.34413">
        <ele>109.4</ele>
        <time>2020-07-03T19:00:46Z</time>
      </trkpt>
      <trkpt lat="46.58128" lon="0.34407">
        <ele>109.6</ele>
        <time>2020-07-03T19:00:47Z</time>
      </trkpt>
      <trkpt lat="46.58129" lon="0.34401">
        <ele>109.8</ele>
        <time>2020-07-03T19:00:48Z</time>
      </trkpt>
      <trkpt lat="46.5813" lon="0.34393">
        <ele>110</ele>
        <time>2020-07-03T19:00:49Z</time>
      </trkpt>
      <trkpt lat="46.58132" lon="0.34386">
        <ele>110.2</ele>
        <time>2020-07-03T19:00:50Z</time>
      </trkpt>
      <trkpt lat="46.58134" lon="0.34379">
        <ele>110.4</ele>
        <time>2020-07-03T19:00:51Z</time>
      </trkpt>
      <trkpt lat="46.58137" lon="0.34373">
        <ele>110.6</ele>
        <time>2020-07-03T19:00:52Z</time>
      </trkpt>
      <trkpt lat="46.58138" lon="0.34367">
        <ele>110.7</ele>
        <time>2020-07-03T19:00:53Z</time>
      </trkpt>
      <trkpt lat="46.58139" lon="0.34362">
        <ele>110.8</ele>
        <time>2020-07-03T19:00:54Z</time>
      </trkpt>
      <trkpt lat="46.58141" lon="0.34356">
        <ele>111</ele>
        <time>2020-07-03T19:00:55Z</time>
      </trkpt>
      <trkpt lat="46.58142" lon="0.34351">
        <ele>111.2</ele>
        <time>2020-07-03T19:00:56Z</time>
      </trkpt>
      <trkpt lat="46.58144" lon="0.34345">
        <ele>111.4</ele>
        <time>2020-07-03T19:00:57Z</time>
      </trkpt>
      <trkpt lat="46.58146" lon="0.34338">
        <ele>111.6</ele>
        <time>2020-07-03T19:00:58Z</time>
      </trkpt>
      <trkpt lat="46.58147" lon="0.34333">
        <ele>111.8</ele>
        <time>2020-07-03T19:00:59Z</time>
      </trkpt>
      <trkpt lat="46.5815" lon="0.34328">
        <ele>112</ele>
        <time>2020-07-03T19:01:00Z</time>
      </trkpt>
      <trkpt lat="46.58153" lon="0.34323">
        <ele>112.2</ele>
        <time>2020-07-03T19:01:01Z</time>
      </trkpt>
      <trkpt lat="46.58154" lon="0.34317">
        <ele>112.4</ele>
        <time>2020-07-03T19:01:02Z</time>
      </trkpt>
      <trkpt lat="46.58154" lon="0.34311">
        <ele>112.6</ele>
        <time>2020-07-03T19:01:03Z</time>
      </trkpt>
      <trkpt lat="46.58155" lon="0.34305">
        <ele>112.8</ele>
        <time>2020-07-03T19:01:04Z</time>
      </trkpt>
      <trkpt lat="46.58157" lon="0.343">
        <ele>113</ele>
        <time>2020-07-03T19:01:05Z</time>
      </trkpt>
      <trkpt lat="46.58156" lon="0.34295">
        <ele>113.2</ele>
        <time>2020-07-03T19:01:06Z</time>
      </trkpt>
      <trkpt lat="46.58157" lon="0.3429">
        <ele>113.4</ele>
        <time>2020-07-03T19:01:07Z</time>
      </trkpt>
      <trkpt lat="46.58158" lon="0.34285">
        <ele>113.7</ele>
        <time>2020-07-03T19:01:08Z</time>
      </trkpt>
      <trkpt lat="46.58157" lon="0.3428">
        <ele>113.9</ele>
        <time>2020-07-03T19:01:09Z</time>
      </trkpt>
      <trkpt lat="46.58156" lon="0.34277">
        <ele>114</ele>
        <time>2020-07-03T19:01:10Z</time>
      </trkpt>
      <trkpt lat="46.58154" lon="0.34274">
        <ele>114.1</ele>
        <time>2020-07-03T19:01:11Z</time>
      </trkpt>
      <trkpt lat="46.58153" lon="0.34269">
        <ele>114.3</ele>
        <time>2020-07-03T19:01:12Z</time>
      </trkpt>
      <trkpt lat="46.58153" lon="0.34263">
        <ele>114.5</ele>
        <time>2020-07-03T19:01:13Z</time>
      </trkpt>
      <trkpt lat="46.58153" lon="0.34257">
        <ele>114.6</ele>
        <time>2020-07-03T19:01:14Z</time>
      </trkpt>
      <trkpt lat="46.58153" lon="0.3425">
        <ele>114.7</ele>
        <time>2020-07-03T19:01:15Z</time>
      </trkpt>
      <trkpt lat="46.58153" lon="0.34244">
        <ele>114.8</ele>
        <time>2020-07-03T19:01:16Z</time>
      </trkpt>
      <trkpt lat="46.58153" lon="0.34239">
        <ele>114.9</ele>
        <time>2020-07-03T19:01:17Z</time>
      </trkpt>
      <trkpt lat="46.58153" lon="0.34234">
        <ele>115.1</ele>
        <time>2020-07-03T19:01:18Z</time>
      </trkpt>
      <trkpt lat="46.58153" lon="0.34229">
        <ele>115.1</ele>
        <time>2020-07-03T19:01:19Z</time>
      </trkpt>
      <trkpt lat="46.58152" lon="0.34223">
        <ele>115.2</ele>
        <time>2020-07-03T19:01:20Z</time>
      </trkpt>
      <trkpt lat="46.58152" lon="0.34217">
        <ele>115.5</ele>
        <time>2020-07-03T19:01:21Z</time>
      </trkpt>
      <trkpt lat="46.58152" lon="0.34213">
        <ele>115.6</ele>
        <time>2020-07-03T19:01:22Z</time>
      </trkpt>
      <trkpt lat="46.58151" lon="0.34208">
        <ele>115.8</ele>
        <time>2020-07-03T19:01:23Z</time>
      </trkpt>
      <trkpt lat="46.58151" lon="0.34203">
        <ele>115.9</ele>
        <time>2020-07-03T19:01:24Z</time>
      </trkpt>
      <trkpt lat="46.58153" lon="0.342">
        <ele>116</ele>
        <time>2020-07-03T19:01:25Z</time>
      </trkpt>
      <trkpt lat="46.58155" lon="0.34197">
        <ele>116.1</ele>
        <time>2020-07-03T19:01:26Z</time>
      </trkpt>
      <trkpt lat="46.58156" lon="0.34192">
        <ele>116.1</ele>
        <time>2020-07-03T19:01:27Z</time>
      </trkpt>
      <trkpt lat="46.58159" lon="0.34187">
        <ele>116.3</ele>
        <time>2020-07-03T19:01:28Z</time>
      </trkpt>
      <trkpt lat="46.5816" lon="0.34181">
        <ele>116.4</ele>
        <time>2020-07-03T19:01:29Z</time>
      </trkpt>
      <trkpt lat="46.58162" lon="0.34174">
        <ele>116.6</ele>
        <time>2020-07-03T19:01:30Z</time>
      </trkpt>
      <trkpt lat="46.58164" lon="0.34168">
        <ele>116.7</ele>
        <time>2020-07-03T19:01:31Z</time>
      </trkpt>
      <trkpt lat="46.58165" lon="0.34163">
        <ele>116.8</ele>
        <time>2020-07-03T19:01:32Z</time>
      </trkpt>
      <trkpt lat="46.58166" lon="0.34158">
        <ele>116.9</ele>
        <time>2020-07-03T19:01:33Z</time>
      </trkpt>
      <trkpt lat="46.58168" lon="0.34153">
        <ele>117.1</ele>
        <time>2020-07-03T19:01:34Z</time>
      </trkpt>
      <trkpt lat="46.5817" lon="0.34148">
        <ele>117.3</ele>
        <time>2020-07-03T19:01:35Z</time>
      </trkpt>
      <trkpt lat="46.58172" lon="0.34143">
        <ele>117.5</ele>
        <time>2020-07-03T19:01:36Z</time>
      </trkpt>
      <trkpt lat="46.58173" lon="0.34138">
        <ele>117.7</ele>
        <time>2020-07-03T19:01:37Z</time>
      </trkpt>
      <trkpt lat="46.58172" lon="0.34134">
        <ele>117.9</ele>
        <time>2020-07-03T19:01:38Z</time>
      </trkpt>
      <trkpt lat="46.58172" lon="0.34131">
        <ele>118.1</ele>
        <time>2020-07-03T19:01:39Z</time>
      </trkpt>
      <trkpt lat="46.5817" lon="0.3413">
        <ele>118.1</ele>
        <time>2020-07-03T19:01:40Z</time>
      </trkpt>
      <trkpt lat="46.58168" lon="0.34128">
        <ele>118.1</ele>
        <time>2020-07-03T19:01:41Z</time>
      </trkpt>
      <trkpt lat="46.58167" lon="0.34127">
        <ele>118.1</ele>
        <time>2020-07-03T19:01:42Z</time>
      </trkpt>
      <trkpt lat="46.58163" lon="0.34126">
        <ele>118.1</ele>
        <time>2020-07-03T19:01:43Z</time>
      </trkpt>
      <trkpt lat="46.58162" lon="0.34126">
        <ele>118</ele>
        <time>2020-07-03T19:01:44Z</time>
      </trkpt>
      <trkpt lat="46.58159" lon="0.34125">
        <ele>118</ele>
        <time>2020-07-03T19:01:45Z</time>
      </trkpt>
      <trkpt lat="46.58154" lon="0.34123">
        <ele>117.9</ele>
        <time>2020-07-03T19:01:46Z</time>
      </trkpt>
      <trkpt lat="46.58149" lon="0.34121">
        <ele>117.9</ele>
        <time>2020-07-03T19:01:47Z</time>
      </trkpt>
      <trkpt lat="46.58143" lon="0.34119">
        <ele>117.8</ele>
        <time>2020-07-03T19:01:48Z</time>
      </trkpt>
      <trkpt lat="46.58139" lon="0.34116">
        <ele>117.8</ele>
        <time>2020-07-03T19:01:49Z</time>
      </trkpt>
      <trkpt lat="46.58133" lon="0.34115">
        <ele>117.7</ele>
        <time>2020-07-03T19:01:50Z</time>
      </trkpt>
      <trkpt lat="46.58128" lon="0.34112">
        <ele>117.7</ele>
        <time>2020-07-03T19:01:51Z</time>
      </trkpt>
      <trkpt lat="46.58123" lon="0.34108">
        <ele>117.6</ele>
        <time>2020-07-03T19:01:52Z</time>
      </trkpt>
      <trkpt lat="46.58118" lon="0.34105">
        <ele>117.6</ele>
        <time>2020-07-03T19:01:53Z</time>
      </trkpt>
      <trkpt lat="46.58114" lon="0.34101">
        <ele>117.6</ele>
        <time>2020-07-03T19:01:54Z</time>
      </trkpt>
      <trkpt lat="46.5811" lon="0.34098">
        <ele>117.6</ele>
        <time>2020-07-03T19:01:55Z</time>
      </trkpt>
      <trkpt lat="46.58107" lon="0.34095">
        <ele>117.6</ele>
        <time>2020-07-03T19:01:56Z</time>
      </trkpt>
      <trkpt lat="46.58102" lon="0.34092">
        <ele>117.6</ele>
        <time>2020-07-03T19:01:57Z</time>
      </trkpt>
      <trkpt lat="46.58098" lon="0.34091">
        <ele>117.6</ele>
        <time>2020-07-03T19:01:58Z</time>
      </trkpt>
      <trkpt lat="46.58094" lon="0.34089">
        <ele>117.7</ele>
        <time>2020-07-03T19:01:59Z</time>
      </trkpt>
      <trkpt lat="46.5809" lon="0.34085">
        <ele>117.9</ele>
        <time>2020-07-03T19:02:00Z</time>
      </trkpt>
      <trkpt lat="46.58087" lon="0.34081">
        <ele>118</ele>
        <time>2020-07-03T19:02:01Z</time>
      </trkpt>
      <trkpt lat="46.58084" lon="0.34076">
        <ele>118.2</ele>
        <time>2020-07-03T19:02:02Z</time>
      </trkpt>
      <trkpt lat="46.58081" lon="0.34075">
        <ele>118.3</ele>
        <time>2020-07-03T19:02:03Z</time>
      </trkpt>
      <trkpt lat="46.58077" lon="0.34074">
        <ele>118.5</ele>
        <time>2020-07-03T19:02:04Z</time>
      </trkpt>
      <trkpt lat="46.58074" lon="0.34072">
        <ele>118.6</ele>
        <time>2020-07-03T19:02:05Z</time>
      </trkpt>
      <trkpt lat="46.58071" lon="0.34069">
        <ele>118.7</ele>
        <time>2020-07-03T19:02:06Z</time>
      </trkpt>
      <trkpt lat="46.58067" lon="0.34065">
        <ele>118.9</ele>
        <time>2020-07-03T19:02:07Z</time>
      </trkpt>
      <trkpt lat="46.58061" lon="0.34063">
        <ele>119.1</ele>
        <time>2020-07-03T19:02:08Z</time>
      </trkpt>
      <trkpt lat="46.58057" lon="0.34061">
        <ele>119.2</ele>
        <time>2020-07-03T19:02:09Z</time>
      </trkpt>
      <trkpt lat="46.58055" lon="0.34058">
        <ele>119.1</ele>
        <time>2020-07-03T19:02:10Z</time>
      </trkpt>
      <trkpt lat="46.58052" lon="0.34055">
        <ele>118.8</ele>
        <time>2020-07-03T19:02:11Z</time>
      </trkpt>
      <trkpt lat="46.5805" lon="0.34052">
        <ele>118.4</ele>
        <time>2020-07-03T19:02:12Z</time>
      </trkpt>
      <trkpt lat="46.58049" lon="0.34051">
        <ele>118.4</ele>
        <time>2020-07-03T19:02:13Z</time>
      </trkpt>
      <trkpt lat="46.58048" lon="0.34049">
        <ele>118.4</ele>
        <time>2020-07-03T19:02:14Z</time>
      </trkpt>
      <trkpt lat="46.58048" lon="0.34048">
        <ele>118.4</ele>
        <time>2020-07-03T19:02:15Z</time>
      </trkpt>
      <trkpt lat="46.58047" lon="0.34047">
        <ele>118.4</ele>
        <time>2020-07-03T19:02:16Z</time>
      </trkpt>
      <trkpt lat="46.58045" lon="0.34045">
        <ele>118.4</ele>
        <time>2020-07-03T19:02:17Z</time>
      </trkpt>
      <trkpt lat="46.58044" lon="0.34044">
        <ele>118.4</ele>
        <time>2020-07-03T19:02:18Z</time>
      </trkpt>
      <trkpt lat="46.58043" lon="0.34043">
        <ele>118.4</ele>
        <time>2020-07-03T19:02:19Z</time>
      </trkpt>
      <trkpt lat="46.58041" lon="0.34042">
        <ele>118.4</ele>
        <time>2020-07-03T19:02:20Z</time>
      </trkpt>
      <trkpt lat="46.5804" lon="0.3404">
        <ele>118.4</ele>
        <time>2020-07-03T19:02:21Z</time>
      </trkpt>
      <trkpt lat="46.58039" lon="0.34039">
        <ele>118.4</ele>
        <time>2020-07-03T19:02:22Z</time>
      </trkpt>
      <trkpt lat="46.58037" lon="0.34037">
        <ele>118.4</ele>
        <time>2020-07-03T19:02:23Z</time>
      </trkpt>
      <trkpt lat="46.58036" lon="0.34035">
        <ele>118.4</ele>
        <time>2020-07-03T19:02:24Z</time>
      </trkpt>
      <trkpt lat="46.58035" lon="0.34033">
        <ele>118.4</ele>
        <time>2020-07-03T19:02:25Z</time>
      </trkpt>
      <trkpt lat="46.58036" lon="0.34031">
        <ele>118.4</ele>
        <time>2020-07-03T19:02:26Z</time>
      </trkpt>
      <trkpt lat="46.58037" lon="0.3403">
        <ele>118.4</ele>
        <time>2020-07-03T19:02:27Z</time>
      </trkpt>
      <trkpt lat="46.58038" lon="0.34027">
        <ele>118.4</ele>
        <time>2020-07-03T19:02:28Z</time>
      </trkpt>
      <trkpt lat="46.5804" lon="0.34024">
        <ele>118.4</ele>
        <time>2020-07-03T19:02:29Z</time>
      </trkpt>
      <trkpt lat="46.58041" lon="0.34023">
        <ele>118.4</ele>
        <time>2020-07-03T19:02:30Z</time>
      </trkpt>
      <trkpt lat="46.58042" lon="0.34021">
        <ele>118.4</ele>
        <time>2020-07-03T19:02:31Z</time>
      </trkpt>
      <trkpt lat="46.58042" lon="0.34022">
        <ele>118.4</ele>
        <time>2020-07-03T19:02:32Z</time>
      </trkpt>
      <trkpt lat="46.58042" lon="0.34022">
        <ele>118.4</ele>
        <time>2020-07-03T19:02:33Z</time>
      </trkpt>
      <trkpt lat="46.58042" lon="0.34022">
        <ele>118.4</ele>
        <time>2020-07-03T19:02:34Z</time>
      </trkpt>
      <trkpt lat="46.58042" lon="0.34022">
        <ele>118.4</ele>
        <time>2020-07-03T19:02:35Z</time>
      </trkpt>
      <trkpt lat="46.58042" lon="0.34021">
        <ele>118.4</ele>
        <time>2020-07-03T19:02:36Z</time>
      </trkpt>
      <trkpt lat="46.58042" lon="0.34021">
        <ele>118.4</ele>
        <time>2020-07-03T19:02:37Z</time>
      </trkpt>
      <trkpt lat="46.58043" lon="0.3402">
        <ele>118.4</ele>
        <time>2020-07-03T19:02:38Z</time>
      </trkpt>
      <trkpt lat="46.58043" lon="0.3402">
        <ele>118.4</ele>
        <time>2020-07-03T19:02:39Z</time>
      </trkpt>
      <trkpt lat="46.58043" lon="0.3402">
        <ele>118.4</ele>
        <time>2020-07-03T19:02:40Z</time>
      </trkpt>
      <trkpt lat="46.58043" lon="0.3402">
        <ele>118.4</ele>
        <time>2020-07-03T19:02:41Z</time>
      </trkpt>
      <trkpt lat="46.58051" lon="0.34025">
        <ele>118.4</ele>
        <time>2020-07-03T19:48:30Z</time>
      </trkpt>
      <trkpt lat="46.58051" lon="0.34026">
        <ele>118.4</ele>
        <time>2020-07-03T19:48:31Z</time>
      </trkpt>
      <trkpt lat="46.58052" lon="0.34027">
        <ele>118.4</ele>
        <time>2020-07-03T19:48:32Z</time>
      </trkpt>
      <trkpt lat="46.58052" lon="0.34028">
        <ele>118.4</ele>
        <time>2020-07-03T19:48:33Z</time>
      </trkpt>
      <trkpt lat="46.58052" lon="0.34031">
        <ele>118.4</ele>
        <time>2020-07-03T19:48:34Z</time>
      </trkpt>
      <trkpt lat="46.58052" lon="0.34032">
        <ele>118.4</ele>
        <time>2020-07-03T19:48:35Z</time>
      </trkpt>
      <trkpt lat="46.58052" lon="0.34033">
        <ele>118.4</ele>
        <time>2020-07-03T19:48:36Z</time>
      </trkpt>
      <trkpt lat="46.58052" lon="0.34035">
        <ele>118.4</ele>
        <time>2020-07-03T19:48:37Z</time>
      </trkpt>
      <trkpt lat="46.58052" lon="0.34037">
        <ele>118.4</ele>
        <time>2020-07-03T19:48:38Z</time>
      </trkpt>
      <trkpt lat="46.58052" lon="0.3404">
        <ele>118.4</ele>
        <time>2020-07-03T19:48:39Z</time>
      </trkpt>
      <trkpt lat="46.58052" lon="0.34042">
        <ele>118.4</ele>
        <time>2020-07-03T19:48:40Z</time>
      </trkpt>
      <trkpt lat="46.58052" lon="0.34045">
        <ele>118.4</ele>
        <time>2020-07-03T19:48:41Z</time>
      </trkpt>
      <trkpt lat="46.58052" lon="0.34047">
        <ele>118.4</ele>
        <time>2020-07-03T19:48:42Z</time>
      </trkpt>
      <trkpt lat="46.58051" lon="0.34049">
        <ele>118.4</ele>
        <time>2020-07-03T19:48:43Z</time>
      </trkpt>
      <trkpt lat="46.58051" lon="0.34049">
        <ele>118.6</ele>
        <time>2020-07-03T19:48:44Z</time>
      </trkpt>
      <trkpt lat="46.58052" lon="0.3405">
        <ele>118.6</ele>
        <time>2020-07-03T19:48:45Z</time>
      </trkpt>
      <trkpt lat="46.58052" lon="0.34051">
        <ele>118.6</ele>
        <time>2020-07-03T19:48:46Z</time>
      </trkpt>
      <trkpt lat="46.58052" lon="0.34051">
        <ele>118.6</ele>
        <time>2020-07-03T19:48:47Z</time>
      </trkpt>
      <trkpt lat="46.58053" lon="0.34052">
        <ele>118.7</ele>
        <time>2020-07-03T19:48:48Z</time>
      </trkpt>
      <trkpt lat="46.58054" lon="0.34056">
        <ele>118.8</ele>
        <time>2020-07-03T19:48:49Z</time>
      </trkpt>
      <trkpt lat="46.58054" lon="0.34056">
        <ele>118.8</ele>
        <time>2020-07-03T19:48:50Z</time>
      </trkpt>
      <trkpt lat="46.58054" lon="0.34057">
        <ele>118.8</ele>
        <time>2020-07-03T19:48:51Z</time>
      </trkpt>
      <trkpt lat="46.58055" lon="0.34058">
        <ele>118.9</ele>
        <time>2020-07-03T19:48:52Z</time>
      </trkpt>
      <trkpt lat="46.58054" lon="0.34059">
        <ele>118.9</ele>
        <time>2020-07-03T19:48:53Z</time>
      </trkpt>
      <trkpt lat="46.58054" lon="0.3406">
        <ele>118.9</ele>
        <time>2020-07-03T19:48:54Z</time>
      </trkpt>
      <trkpt lat="46.58054" lon="0.3406">
        <ele>118.9</ele>
        <time>2020-07-03T19:48:55Z</time>
      </trkpt>
      <trkpt lat="46.58054" lon="0.34061">
        <ele>118.9</ele>
        <time>2020-07-03T19:48:56Z</time>
      </trkpt>
      <trkpt lat="46.58054" lon="0.34061">
        <ele>118.9</ele>
        <time>2020-07-03T19:48:57Z</time>
      </trkpt>
      <trkpt lat="46.58054" lon="0.34061">
        <ele>119</ele>
        <time>2020-07-03T19:48:58Z</time>
      </trkpt>
      <trkpt lat="46.58053" lon="0.34061">
        <ele>119</ele>
        <time>2020-07-03T19:48:59Z</time>
      </trkpt>
      <trkpt lat="46.58053" lon="0.34061">
        <ele>119</ele>
        <time>2020-07-03T19:49:00Z</time>
      </trkpt>
      <trkpt lat="46.58053" lon="0.34062">
        <ele>119</ele>
        <time>2020-07-03T19:49:01Z</time>
      </trkpt>
      <trkpt lat="46.58053" lon="0.34061">
        <ele>119</ele>
        <time>2020-07-03T19:49:02Z</time>
      </trkpt>
      <trkpt lat="46.58053" lon="0.34061">
        <ele>119</ele>
        <time>2020-07-03T19:49:03Z</time>
      </trkpt>
      <trkpt lat="46.58053" lon="0.34061">
        <ele>119</ele>
        <time>2020-07-03T19:49:04Z</time>
      </trkpt>
      <trkpt lat="46.58053" lon="0.34062">
        <ele>119</ele>
        <time>2020-07-03T19:49:05Z</time>
      </trkpt>
      <trkpt lat="46.58053" lon="0.34062">
        <ele>119.1</ele>
        <time>2020-07-03T19:49:06Z</time>
      </trkpt>
      <trkpt lat="46.58053" lon="0.34062">
        <ele>119.1</ele>
        <time>2020-07-03T19:49:07Z</time>
      </trkpt>
      <trkpt lat="46.58053" lon="0.34061">
        <ele>119.1</ele>
        <time>2020-07-03T19:49:08Z</time>
      </trkpt>
      <trkpt lat="46.58054" lon="0.34061">
        <ele>119.1</ele>
        <time>2020-07-03T19:49:09Z</time>
      </trkpt>
      <trkpt lat="46.58054" lon="0.34061">
        <ele>119.1</ele>
        <time>2020-07-03T19:49:10Z</time>
      </trkpt>
      <trkpt lat="46.58055" lon="0.34061">
        <ele>119.2</ele>
        <time>2020-07-03T19:49:11Z</time>
      </trkpt>
      <trkpt lat="46.58056" lon="0.3406">
        <ele>119.2</ele>
        <time>2020-07-03T19:49:12Z</time>
      </trkpt>
      <trkpt lat="46.58056" lon="0.3406">
        <ele>119.2</ele>
        <time>2020-07-03T19:49:13Z</time>
      </trkpt>
      <trkpt lat="46.58059" lon="0.34061">
        <ele>119.2</ele>
        <time>2020-07-03T19:49:14Z</time>
      </trkpt>
      <trkpt lat="46.5806" lon="0.34061">
        <ele>119.1</ele>
        <time>2020-07-03T19:49:15Z</time>
      </trkpt>
      <trkpt lat="46.5806" lon="0.34062">
        <ele>119.1</ele>
        <time>2020-07-03T19:49:16Z</time>
      </trkpt>
      <trkpt lat="46.58062" lon="0.34062">
        <ele>119.1</ele>
        <time>2020-07-03T19:49:17Z</time>
      </trkpt>
      <trkpt lat="46.58063" lon="0.34064">
        <ele>119.1</ele>
        <time>2020-07-03T19:49:18Z</time>
      </trkpt>
      <trkpt lat="46.58066" lon="0.34065">
        <ele>119</ele>
        <time>2020-07-03T19:49:19Z</time>
      </trkpt>
      <trkpt lat="46.58067" lon="0.34065">
        <ele>119</ele>
        <time>2020-07-03T19:49:20Z</time>
      </trkpt>
      <trkpt lat="46.5807" lon="0.34067">
        <ele>118.9</ele>
        <time>2020-07-03T19:49:21Z</time>
      </trkpt>
      <trkpt lat="46.58071" lon="0.34068">
        <ele>118.8</ele>
        <time>2020-07-03T19:49:22Z</time>
      </trkpt>
      <trkpt lat="46.58073" lon="0.3407">
        <ele>118.8</ele>
        <time>2020-07-03T19:49:23Z</time>
      </trkpt>
      <trkpt lat="46.58074" lon="0.34071">
        <ele>118.7</ele>
        <time>2020-07-03T19:49:24Z</time>
      </trkpt>
      <trkpt lat="46.58075" lon="0.34072">
        <ele>118.7</ele>
        <time>2020-07-03T19:49:25Z</time>
      </trkpt>
      <trkpt lat="46.58076" lon="0.34073">
        <ele>118.7</ele>
        <time>2020-07-03T19:49:26Z</time>
      </trkpt>
      <trkpt lat="46.58076" lon="0.34075">
        <ele>118.6</ele>
        <time>2020-07-03T19:49:27Z</time>
      </trkpt>
      <trkpt lat="46.58077" lon="0.34077">
        <ele>118.6</ele>
        <time>2020-07-03T19:49:28Z</time>
      </trkpt>
      <trkpt lat="46.58077" lon="0.34078">
        <ele>118.6</ele>
        <time>2020-07-03T19:49:29Z</time>
      </trkpt>
      <trkpt lat="46.58079" lon="0.34083">
        <ele>118.4</ele>
        <time>2020-07-03T19:49:30Z</time>
      </trkpt>
      <trkpt lat="46.5808" lon="0.34085">
        <ele>118.4</ele>
        <time>2020-07-03T19:49:31Z</time>
      </trkpt>
      <trkpt lat="46.58082" lon="0.34089">
        <ele>118.3</ele>
        <time>2020-07-03T19:49:32Z</time>
      </trkpt>
      <trkpt lat="46.58083" lon="0.34091">
        <ele>118.2</ele>
        <time>2020-07-03T19:49:33Z</time>
      </trkpt>
      <trkpt lat="46.58084" lon="0.34094">
        <ele>118.2</ele>
        <time>2020-07-03T19:49:34Z</time>
      </trkpt>
      <trkpt lat="46.58085" lon="0.34095">
        <ele>118.1</ele>
        <time>2020-07-03T19:49:35Z</time>
      </trkpt>
      <trkpt lat="46.58085" lon="0.34096">
        <ele>118.1</ele>
        <time>2020-07-03T19:49:36Z</time>
      </trkpt>
      <trkpt lat="46.58086" lon="0.34096">
        <ele>118.1</ele>
        <time>2020-07-03T19:49:37Z</time>
      </trkpt>
      <trkpt lat="46.58086" lon="0.34095">
        <ele>118</ele>
        <time>2020-07-03T19:49:38Z</time>
      </trkpt>
      <trkpt lat="46.58086" lon="0.34095">
        <ele>118</ele>
        <time>2020-07-03T19:49:39Z</time>
      </trkpt>
      <trkpt lat="46.58087" lon="0.34094">
        <ele>118</ele>
        <time>2020-07-03T19:49:40Z</time>
      </trkpt>
      <trkpt lat="46.58087" lon="0.34094">
        <ele>118</ele>
        <time>2020-07-03T19:49:41Z</time>
      </trkpt>
      <trkpt lat="46.58088" lon="0.34093">
        <ele>118</ele>
        <time>2020-07-03T19:49:42Z</time>
      </trkpt>
      <trkpt lat="46.58089" lon="0.34093">
        <ele>117.9</ele>
        <time>2020-07-03T19:49:43Z</time>
      </trkpt>
      <trkpt lat="46.5809" lon="0.34092">
        <ele>117.9</ele>
        <time>2020-07-03T19:49:44Z</time>
      </trkpt>
      <trkpt lat="46.58091" lon="0.34091">
        <ele>117.9</ele>
        <time>2020-07-03T19:49:45Z</time>
      </trkpt>
      <trkpt lat="46.58091" lon="0.34091">
        <ele>117.9</ele>
        <time>2020-07-03T19:49:46Z</time>
      </trkpt>
      <trkpt lat="46.58092" lon="0.3409">
        <ele>117.8</ele>
        <time>2020-07-03T19:49:47Z</time>
      </trkpt>
      <trkpt lat="46.58092" lon="0.3409">
        <ele>117.8</ele>
        <time>2020-07-03T19:49:48Z</time>
      </trkpt>
      <trkpt lat="46.58094" lon="0.3409">
        <ele>117.8</ele>
        <time>2020-07-03T19:49:49Z</time>
      </trkpt>
      <trkpt lat="46.58094" lon="0.34091">
        <ele>117.8</ele>
        <time>2020-07-03T19:49:50Z</time>
      </trkpt>
      <trkpt lat="46.58095" lon="0.34091">
        <ele>117.8</ele>
        <time>2020-07-03T19:49:51Z</time>
      </trkpt>
      <trkpt lat="46.58095" lon="0.34091">
        <ele>117.8</ele>
        <time>2020-07-03T19:49:52Z</time>
      </trkpt>
      <trkpt lat="46.58095" lon="0.34092">
        <ele>117.7</ele>
        <time>2020-07-03T19:49:53Z</time>
      </trkpt>
      <trkpt lat="46.58096" lon="0.34092">
        <ele>117.7</ele>
        <time>2020-07-03T19:49:54Z</time>
      </trkpt>
      <trkpt lat="46.58097" lon="0.34092">
        <ele>117.7</ele>
        <time>2020-07-03T19:49:55Z</time>
      </trkpt>
      <trkpt lat="46.58098" lon="0.34092">
        <ele>117.6</ele>
        <time>2020-07-03T19:49:56Z</time>
      </trkpt>
      <trkpt lat="46.581" lon="0.34091">
        <ele>117.6</ele>
        <time>2020-07-03T19:49:57Z</time>
      </trkpt>
      <trkpt lat="46.58101" lon="0.34091">
        <ele>117.6</ele>
        <time>2020-07-03T19:49:58Z</time>
      </trkpt>
      <trkpt lat="46.58102" lon="0.34092">
        <ele>117.6</ele>
        <time>2020-07-03T19:49:59Z</time>
      </trkpt>
      <trkpt lat="46.58103" lon="0.34092">
        <ele>117.6</ele>
        <time>2020-07-03T19:50:00Z</time>
      </trkpt>
      <trkpt lat="46.58104" lon="0.34093">
        <ele>117.6</ele>
        <time>2020-07-03T19:50:01Z</time>
      </trkpt>
      <trkpt lat="46.58107" lon="0.34094">
        <ele>117.6</ele>
        <time>2020-07-03T19:50:02Z</time>
      </trkpt>
      <trkpt lat="46.58109" lon="0.34094">
        <ele>117.6</ele>
        <time>2020-07-03T19:50:03Z</time>
      </trkpt>
      <trkpt lat="46.5811" lon="0.34095">
        <ele>117.6</ele>
        <time>2020-07-03T19:50:04Z</time>
      </trkpt>
      <trkpt lat="46.58111" lon="0.34095">
        <ele>117.6</ele>
        <time>2020-07-03T19:50:05Z</time>
      </trkpt>
      <trkpt lat="46.58113" lon="0.34094">
        <ele>117.6</ele>
        <time>2020-07-03T19:50:06Z</time>
      </trkpt>
      <trkpt lat="46.58114" lon="0.34094">
        <ele>117.6</ele>
        <time>2020-07-03T19:50:07Z</time>
      </trkpt>
      <trkpt lat="46.58117" lon="0.34096">
        <ele>117.6</ele>
        <time>2020-07-03T19:50:08Z</time>
      </trkpt>
      <trkpt lat="46.58118" lon="0.34097">
        <ele>117.6</ele>
        <time>2020-07-03T19:50:09Z</time>
      </trkpt>
      <trkpt lat="46.58121" lon="0.34099">
        <ele>117.6</ele>
        <time>2020-07-03T19:50:10Z</time>
      </trkpt>
      <trkpt lat="46.58121" lon="0.341">
        <ele>117.6</ele>
        <time>2020-07-03T19:50:11Z</time>
      </trkpt>
      <trkpt lat="46.58124" lon="0.34103">
        <ele>117.6</ele>
        <time>2020-07-03T19:50:12Z</time>
      </trkpt>
      <trkpt lat="46.58125" lon="0.34105">
        <ele>117.6</ele>
        <time>2020-07-03T19:50:13Z</time>
      </trkpt>
      <trkpt lat="46.58126" lon="0.34108">
        <ele>117.7</ele>
        <time>2020-07-03T19:50:14Z</time>
      </trkpt>
      <trkpt lat="46.58127" lon="0.34109">
        <ele>117.7</ele>
        <time>2020-07-03T19:50:15Z</time>
      </trkpt>
      <trkpt lat="46.58129" lon="0.34113">
        <ele>117.7</ele>
        <time>2020-07-03T19:50:16Z</time>
      </trkpt>
      <trkpt lat="46.5813" lon="0.34115">
        <ele>117.7</ele>
        <time>2020-07-03T19:50:17Z</time>
      </trkpt>
      <trkpt lat="46.58132" lon="0.34117">
        <ele>117.7</ele>
        <time>2020-07-03T19:50:18Z</time>
      </trkpt>
      <trkpt lat="46.58134" lon="0.34117">
        <ele>117.8</ele>
        <time>2020-07-03T19:50:19Z</time>
      </trkpt>
      <trkpt lat="46.58135" lon="0.34117">
        <ele>117.8</ele>
        <time>2020-07-03T19:50:20Z</time>
      </trkpt>
      <trkpt lat="46.58136" lon="0.34118">
        <ele>117.8</ele>
        <time>2020-07-03T19:50:21Z</time>
      </trkpt>
      <trkpt lat="46.58137" lon="0.34118">
        <ele>117.8</ele>
        <time>2020-07-03T19:50:22Z</time>
      </trkpt>
      <trkpt lat="46.58137" lon="0.34118">
        <ele>117.8</ele>
        <time>2020-07-03T19:50:23Z</time>
      </trkpt>
      <trkpt lat="46.58137" lon="0.34118">
        <ele>117.8</ele>
        <time>2020-07-03T19:50:24Z</time>
      </trkpt>
      <trkpt lat="46.58138" lon="0.34117">
        <ele>117.8</ele>
        <time>2020-07-03T19:50:25Z</time>
      </trkpt>
      <trkpt lat="46.58138" lon="0.34117">
        <ele>117.8</ele>
        <time>2020-07-03T19:50:26Z</time>
      </trkpt>
      <trkpt lat="46.5814" lon="0.34118">
        <ele>117.8</ele>
        <time>2020-07-03T19:50:27Z</time>
      </trkpt>
      <trkpt lat="46.58141" lon="0.34118">
        <ele>117.8</ele>
        <time>2020-07-03T19:50:28Z</time>
      </trkpt>
      <trkpt lat="46.58142" lon="0.34119">
        <ele>117.8</ele>
        <time>2020-07-03T19:50:29Z</time>
      </trkpt>
      <trkpt lat="46.58142" lon="0.3412">
        <ele>117.9</ele>
        <time>2020-07-03T19:50:30Z</time>
      </trkpt>
      <trkpt lat="46.58145" lon="0.34119">
        <ele>117.9</ele>
        <time>2020-07-03T19:50:31Z</time>
      </trkpt>
      <trkpt lat="46.58146" lon="0.34119">
        <ele>117.9</ele>
        <time>2020-07-03T19:50:32Z</time>
      </trkpt>
      <trkpt lat="46.58147" lon="0.34119">
        <ele>117.9</ele>
        <time>2020-07-03T19:50:33Z</time>
      </trkpt>
      <trkpt lat="46.5815" lon="0.3412">
        <ele>117.9</ele>
        <time>2020-07-03T19:50:34Z</time>
      </trkpt>
      <trkpt lat="46.58151" lon="0.3412">
        <ele>118</ele>
        <time>2020-07-03T19:50:35Z</time>
      </trkpt>
      <trkpt lat="46.58156" lon="0.34128">
        <ele>118</ele>
        <time>2020-07-03T19:50:36Z</time>
      </trkpt>
      <trkpt lat="46.58159" lon="0.34132">
        <ele>118</ele>
        <time>2020-07-03T19:50:37Z</time>
      </trkpt>
      <trkpt lat="46.58161" lon="0.34136">
        <ele>118</ele>
        <time>2020-07-03T19:50:38Z</time>
      </trkpt>
      <trkpt lat="46.58163" lon="0.34138">
        <ele>118.1</ele>
        <time>2020-07-03T19:50:39Z</time>
      </trkpt>
      <trkpt lat="46.58164" lon="0.34138">
        <ele>118.1</ele>
        <time>2020-07-03T19:50:40Z</time>
      </trkpt>
      <trkpt lat="46.58164" lon="0.34138">
        <ele>118.1</ele>
        <time>2020-07-03T19:50:41Z</time>
      </trkpt>
      <trkpt lat="46.58166" lon="0.34138">
        <ele>118.1</ele>
        <time>2020-07-03T19:50:42Z</time>
      </trkpt>
      <trkpt lat="46.58167" lon="0.34137">
        <ele>118.2</ele>
        <time>2020-07-03T19:50:43Z</time>
      </trkpt>
      <trkpt lat="46.58168" lon="0.34138">
        <ele>118.2</ele>
        <time>2020-07-03T19:50:44Z</time>
      </trkpt>
      <trkpt lat="46.58168" lon="0.34137">
        <ele>118.2</ele>
        <time>2020-07-03T19:50:45Z</time>
      </trkpt>
      <trkpt lat="46.58169" lon="0.34136">
        <ele>118.2</ele>
        <time>2020-07-03T19:50:46Z</time>
      </trkpt>
      <trkpt lat="46.5817" lon="0.34135">
        <ele>118.2</ele>
        <time>2020-07-03T19:50:47Z</time>
      </trkpt>
      <trkpt lat="46.5817" lon="0.34135">
        <ele>118.2</ele>
        <time>2020-07-03T19:50:48Z</time>
      </trkpt>
      <trkpt lat="46.58171" lon="0.34134">
        <ele>118.2</ele>
        <time>2020-07-03T19:50:49Z</time>
      </trkpt>
      <trkpt lat="46.58173" lon="0.34134">
        <ele>118.2</ele>
        <time>2020-07-03T19:50:50Z</time>
      </trkpt>
      <trkpt lat="46.58174" lon="0.34135">
        <ele>118.2</ele>
        <time>2020-07-03T19:50:51Z</time>
      </trkpt>
      <trkpt lat="46.58174" lon="0.34135">
        <ele>118.2</ele>
        <time>2020-07-03T19:50:52Z</time>
      </trkpt>
      <trkpt lat="46.58175" lon="0.34136">
        <ele>118.3</ele>
        <time>2020-07-03T19:50:53Z</time>
      </trkpt>
      <trkpt lat="46.58175" lon="0.34136">
        <ele>118.3</ele>
        <time>2020-07-03T19:50:54Z</time>
      </trkpt>
      <trkpt lat="46.58176" lon="0.34136">
        <ele>118.3</ele>
        <time>2020-07-03T19:50:55Z</time>
      </trkpt>
      <trkpt lat="46.58177" lon="0.34136">
        <ele>118.3</ele>
        <time>2020-07-03T19:50:56Z</time>
      </trkpt>
      <trkpt lat="46.58179" lon="0.34135">
        <ele>118.4</ele>
        <time>2020-07-03T19:50:57Z</time>
      </trkpt>
      <trkpt lat="46.5818" lon="0.34134">
        <ele>118.4</ele>
        <time>2020-07-03T19:50:58Z</time>
      </trkpt>
      <trkpt lat="46.58181" lon="0.34134">
        <ele>118.4</ele>
        <time>2020-07-03T19:50:59Z</time>
      </trkpt>
      <trkpt lat="46.58181" lon="0.34134">
        <ele>118.4</ele>
        <time>2020-07-03T19:51:00Z</time>
      </trkpt>
      <trkpt lat="46.58182" lon="0.34133">
        <ele>118.4</ele>
        <time>2020-07-03T19:51:01Z</time>
      </trkpt>
      <trkpt lat="46.58182" lon="0.34133">
        <ele>118.4</ele>
        <time>2020-07-03T19:51:02Z</time>
      </trkpt>
      <trkpt lat="46.58184" lon="0.34133">
        <ele>118.4</ele>
        <time>2020-07-03T19:51:03Z</time>
      </trkpt>
      <trkpt lat="46.58184" lon="0.34132">
        <ele>118.4</ele>
        <time>2020-07-03T19:51:04Z</time>
      </trkpt>
      <trkpt lat="46.58184" lon="0.34131">
        <ele>118.5</ele>
        <time>2020-07-03T19:51:05Z</time>
      </trkpt>
      <trkpt lat="46.58183" lon="0.34131">
        <ele>118.5</ele>
        <time>2020-07-03T19:51:06Z</time>
      </trkpt>
      <trkpt lat="46.58183" lon="0.34132">
        <ele>118.5</ele>
        <time>2020-07-03T19:51:07Z</time>
      </trkpt>
      <trkpt lat="46.58184" lon="0.34132">
        <ele>118.5</ele>
        <time>2020-07-03T19:51:08Z</time>
      </trkpt>
      <trkpt lat="46.58185" lon="0.34131">
        <ele>118.5</ele>
        <time>2020-07-03T19:51:09Z</time>
      </trkpt>
      <trkpt lat="46.58186" lon="0.34131">
        <ele>118.5</ele>
        <time>2020-07-03T19:51:10Z</time>
      </trkpt>
      <trkpt lat="46.58188" lon="0.34131">
        <ele>118.6</ele>
        <time>2020-07-03T19:51:11Z</time>
      </trkpt>
      <trkpt lat="46.58189" lon="0.34132">
        <ele>118.6</ele>
        <time>2020-07-03T19:51:12Z</time>
      </trkpt>
      <trkpt lat="46.58191" lon="0.34132">
        <ele>118.6</ele>
        <time>2020-07-03T19:51:13Z</time>
      </trkpt>
      <trkpt lat="46.58192" lon="0.34133">
        <ele>118.7</ele>
        <time>2020-07-03T19:51:14Z</time>
      </trkpt>
      <trkpt lat="46.58193" lon="0.34133">
        <ele>118.7</ele>
        <time>2020-07-03T19:51:15Z</time>
      </trkpt>
      <trkpt lat="46.58193" lon="0.34132">
        <ele>118.7</ele>
        <time>2020-07-03T19:51:16Z</time>
      </trkpt>
      <trkpt lat="46.58194" lon="0.34132">
        <ele>118.7</ele>
        <time>2020-07-03T19:51:17Z</time>
      </trkpt>
      <trkpt lat="46.58195" lon="0.34132">
        <ele>118.7</ele>
        <time>2020-07-03T19:51:18Z</time>
      </trkpt>
      <trkpt lat="46.58196" lon="0.34132">
        <ele>118.7</ele>
        <time>2020-07-03T19:51:19Z</time>
      </trkpt>
      <trkpt lat="46.58196" lon="0.34131">
        <ele>118.7</ele>
        <time>2020-07-03T19:51:20Z</time>
      </trkpt>
      <trkpt lat="46.58196" lon="0.34131">
        <ele>118.7</ele>
        <time>2020-07-03T19:51:21Z</time>
      </trkpt>
      <trkpt lat="46.58196" lon="0.34131">
        <ele>118.7</ele>
        <time>2020-07-03T19:51:22Z</time>
      </trkpt>
      <trkpt lat="46.58196" lon="0.34131">
        <ele>118.8</ele>
        <time>2020-07-03T19:51:23Z</time>
      </trkpt>
      <trkpt lat="46.58196" lon="0.34131">
        <ele>118.8</ele>
        <time>2020-07-03T19:51:24Z</time>
      </trkpt>
      <trkpt lat="46.58197" lon="0.34131">
        <ele>118.8</ele>
        <time>2020-07-03T19:51:25Z</time>
      </trkpt>
      <trkpt lat="46.58198" lon="0.34131">
        <ele>118.8</ele>
        <time>2020-07-03T19:51:26Z</time>
      </trkpt>
      <trkpt lat="46.58199" lon="0.34132">
        <ele>118.8</ele>
        <time>2020-07-03T19:51:27Z</time>
      </trkpt>
      <trkpt lat="46.582" lon="0.34132">
        <ele>118.8</ele>
        <time>2020-07-03T19:51:28Z</time>
      </trkpt>
      <trkpt lat="46.58201" lon="0.34132">
        <ele>118.9</ele>
        <time>2020-07-03T19:51:29Z</time>
      </trkpt>
      <trkpt lat="46.58202" lon="0.34133">
        <ele>118.9</ele>
        <time>2020-07-03T19:51:30Z</time>
      </trkpt>
      <trkpt lat="46.58203" lon="0.34133">
        <ele>118.9</ele>
        <time>2020-07-03T19:51:31Z</time>
      </trkpt>
      <trkpt lat="46.58207" lon="0.34136">
        <ele>119</ele>
        <time>2020-07-03T19:51:32Z</time>
      </trkpt>
      <trkpt lat="46.58208" lon="0.34137">
        <ele>119</ele>
        <time>2020-07-03T19:51:33Z</time>
      </trkpt>
      <trkpt lat="46.58211" lon="0.34137">
        <ele>119.1</ele>
        <time>2020-07-03T19:51:34Z</time>
      </trkpt>
      <trkpt lat="46.58212" lon="0.34138">
        <ele>119.1</ele>
        <time>2020-07-03T19:51:35Z</time>
      </trkpt>
      <trkpt lat="46.58216" lon="0.34138">
        <ele>119.1</ele>
        <time>2020-07-03T19:51:36Z</time>
      </trkpt>
      <trkpt lat="46.58218" lon="0.34137">
        <ele>119.2</ele>
        <time>2020-07-03T19:51:37Z</time>
      </trkpt>
      <trkpt lat="46.5822" lon="0.34137">
        <ele>119.2</ele>
        <time>2020-07-03T19:51:38Z</time>
      </trkpt>
      <trkpt lat="46.58222" lon="0.34136">
        <ele>119.2</ele>
        <time>2020-07-03T19:51:39Z</time>
      </trkpt>
      <trkpt lat="46.58223" lon="0.34139">
        <ele>119.3</ele>
        <time>2020-07-03T19:51:40Z</time>
      </trkpt>
      <trkpt lat="46.58227" lon="0.34143">
        <ele>119.3</ele>
        <time>2020-07-03T19:51:41Z</time>
      </trkpt>
      <trkpt lat="46.58228" lon="0.34144">
        <ele>119.3</ele>
        <time>2020-07-03T19:51:42Z</time>
      </trkpt>
      <trkpt lat="46.58229" lon="0.34145">
        <ele>119.3</ele>
        <time>2020-07-03T19:51:43Z</time>
      </trkpt>
      <trkpt lat="46.58229" lon="0.34144">
        <ele>119.3</ele>
        <time>2020-07-03T19:51:44Z</time>
      </trkpt>
      <trkpt lat="46.58229" lon="0.34141">
        <ele>119.3</ele>
        <time>2020-07-03T19:51:45Z</time>
      </trkpt>
      <trkpt lat="46.58229" lon="0.3414">
        <ele>119.4</ele>
        <time>2020-07-03T19:51:46Z</time>
      </trkpt>
      <trkpt lat="46.5823" lon="0.34139">
        <ele>119.4</ele>
        <time>2020-07-03T19:51:47Z</time>
      </trkpt>
      <trkpt lat="46.58231" lon="0.34139">
        <ele>119.4</ele>
        <time>2020-07-03T19:51:48Z</time>
      </trkpt>
      <trkpt lat="46.58232" lon="0.34138">
        <ele>119.4</ele>
        <time>2020-07-03T19:51:49Z</time>
      </trkpt>
      <trkpt lat="46.58233" lon="0.34138">
        <ele>119.4</ele>
        <time>2020-07-03T19:51:50Z</time>
      </trkpt>
      <trkpt lat="46.58234" lon="0.34138">
        <ele>119.4</ele>
        <time>2020-07-03T19:51:51Z</time>
      </trkpt>
      <trkpt lat="46.58235" lon="0.34138">
        <ele>119.4</ele>
        <time>2020-07-03T19:51:52Z</time>
      </trkpt>
      <trkpt lat="46.58236" lon="0.34138">
        <ele>119.5</ele>
        <time>2020-07-03T19:51:53Z</time>
      </trkpt>
      <trkpt lat="46.58237" lon="0.34138">
        <ele>119.4</ele>
        <time>2020-07-03T19:51:54Z</time>
      </trkpt>
      <trkpt lat="46.58237" lon="0.34138">
        <ele>119.4</ele>
        <time>2020-07-03T19:51:55Z</time>
      </trkpt>
      <trkpt lat="46.58238" lon="0.34139">
        <ele>119.4</ele>
        <time>2020-07-03T19:51:56Z</time>
      </trkpt>
      <trkpt lat="46.58238" lon="0.34139">
        <ele>119.4</ele>
        <time>2020-07-03T19:51:57Z</time>
      </trkpt>
      <trkpt lat="46.58239" lon="0.3414">
        <ele>119.4</ele>
        <time>2020-07-03T19:51:58Z</time>
      </trkpt>
      <trkpt lat="46.58241" lon="0.3414">
        <ele>119.4</ele>
        <time>2020-07-03T19:51:59Z</time>
      </trkpt>
      <trkpt lat="46.58241" lon="0.34141">
        <ele>119.4</ele>
        <time>2020-07-03T19:52:00Z</time>
      </trkpt>
      <trkpt lat="46.58242" lon="0.34141">
        <ele>119.4</ele>
        <time>2020-07-03T19:52:01Z</time>
      </trkpt>
      <trkpt lat="46.58242" lon="0.34141">
        <ele>119.4</ele>
        <time>2020-07-03T19:52:02Z</time>
      </trkpt>
      <trkpt lat="46.58243" lon="0.34143">
        <ele>119.3</ele>
        <time>2020-07-03T19:52:03Z</time>
      </trkpt>
      <trkpt lat="46.58244" lon="0.34144">
        <ele>119.3</ele>
        <time>2020-07-03T19:52:04Z</time>
      </trkpt>
      <trkpt lat="46.58245" lon="0.34145">
        <ele>119.3</ele>
        <time>2020-07-03T19:52:05Z</time>
      </trkpt>
      <trkpt lat="46.58247" lon="0.34147">
        <ele>119.3</ele>
        <time>2020-07-03T19:52:06Z</time>
      </trkpt>
      <trkpt lat="46.58249" lon="0.3415">
        <ele>119.2</ele>
        <time>2020-07-03T19:52:07Z</time>
      </trkpt>
      <trkpt lat="46.5825" lon="0.34151">
        <ele>119.2</ele>
        <time>2020-07-03T19:52:08Z</time>
      </trkpt>
      <trkpt lat="46.58253" lon="0.34152">
        <ele>119.2</ele>
        <time>2020-07-03T19:52:09Z</time>
      </trkpt>
      <trkpt lat="46.58257" lon="0.34154">
        <ele>119.1</ele>
        <time>2020-07-03T19:52:10Z</time>
      </trkpt>
      <trkpt lat="46.5826" lon="0.34154">
        <ele>119.1</ele>
        <time>2020-07-03T19:52:11Z</time>
      </trkpt>
      <trkpt lat="46.58263" lon="0.34155">
        <ele>119</ele>
        <time>2020-07-03T19:52:12Z</time>
      </trkpt>
      <trkpt lat="46.58263" lon="0.34156">
        <ele>119</ele>
        <time>2020-07-03T19:52:13Z</time>
      </trkpt>
      <trkpt lat="46.58266" lon="0.3416">
        <ele>118.9</ele>
        <time>2020-07-03T19:52:14Z</time>
      </trkpt>
      <trkpt lat="46.58269" lon="0.34161">
        <ele>118.9</ele>
        <time>2020-07-03T19:52:15Z</time>
      </trkpt>
      <trkpt lat="46.5827" lon="0.34161">
        <ele>118.8</ele>
        <time>2020-07-03T19:52:16Z</time>
      </trkpt>
      <trkpt lat="46.58271" lon="0.34161">
        <ele>118.8</ele>
        <time>2020-07-03T19:52:17Z</time>
      </trkpt>
      <trkpt lat="46.58272" lon="0.34161">
        <ele>118.8</ele>
        <time>2020-07-03T19:52:18Z</time>
      </trkpt>
      <trkpt lat="46.58272" lon="0.34162">
        <ele>118.8</ele>
        <time>2020-07-03T19:52:19Z</time>
      </trkpt>
      <trkpt lat="46.58273" lon="0.34162">
        <ele>118.8</ele>
        <time>2020-07-03T19:52:20Z</time>
      </trkpt>
      <trkpt lat="46.58275" lon="0.34161">
        <ele>118.8</ele>
        <time>2020-07-03T19:52:21Z</time>
      </trkpt>
      <trkpt lat="46.58275" lon="0.34162">
        <ele>118.7</ele>
        <time>2020-07-03T19:52:22Z</time>
      </trkpt>
      <trkpt lat="46.58276" lon="0.34163">
        <ele>118.7</ele>
        <time>2020-07-03T19:52:23Z</time>
      </trkpt>
      <trkpt lat="46.58276" lon="0.34164">
        <ele>118.7</ele>
        <time>2020-07-03T19:52:24Z</time>
      </trkpt>
      <trkpt lat="46.58278" lon="0.34167">
        <ele>118.7</ele>
        <time>2020-07-03T19:52:25Z</time>
      </trkpt>
      <trkpt lat="46.58278" lon="0.34168">
        <ele>118.7</ele>
        <time>2020-07-03T19:52:26Z</time>
      </trkpt>
      <trkpt lat="46.5828" lon="0.34171">
        <ele>118.6</ele>
        <time>2020-07-03T19:52:27Z</time>
      </trkpt>
      <trkpt lat="46.5828" lon="0.34172">
        <ele>118.6</ele>
        <time>2020-07-03T19:52:28Z</time>
      </trkpt>
      <trkpt lat="46.58281" lon="0.34173">
        <ele>118.6</ele>
        <time>2020-07-03T19:52:29Z</time>
      </trkpt>
      <trkpt lat="46.58281" lon="0.34175">
        <ele>118.6</ele>
        <time>2020-07-03T19:52:30Z</time>
      </trkpt>
      <trkpt lat="46.58282" lon="0.34176">
        <ele>118.6</ele>
        <time>2020-07-03T19:52:31Z</time>
      </trkpt>
      <trkpt lat="46.58281" lon="0.34179">
        <ele>118.6</ele>
        <time>2020-07-03T19:52:32Z</time>
      </trkpt>
      <trkpt lat="46.58282" lon="0.3418">
        <ele>118.5</ele>
        <time>2020-07-03T19:52:33Z</time>
      </trkpt>
      <trkpt lat="46.58283" lon="0.34181">
        <ele>118.5</ele>
        <time>2020-07-03T19:52:34Z</time>
      </trkpt>
      <trkpt lat="46.58284" lon="0.34182">
        <ele>118.5</ele>
        <time>2020-07-03T19:52:35Z</time>
      </trkpt>
      <trkpt lat="46.58285" lon="0.34183">
        <ele>118.5</ele>
        <time>2020-07-03T19:52:36Z</time>
      </trkpt>
      <trkpt lat="46.58286" lon="0.34185">
        <ele>118.5</ele>
        <time>2020-07-03T19:52:37Z</time>
      </trkpt>
      <trkpt lat="46.58286" lon="0.34186">
        <ele>118.5</ele>
        <time>2020-07-03T19:52:38Z</time>
      </trkpt>
      <trkpt lat="46.58287" lon="0.34186">
        <ele>118.5</ele>
        <time>2020-07-03T19:52:39Z</time>
      </trkpt>
      <trkpt lat="46.58289" lon="0.34187">
        <ele>118.5</ele>
        <time>2020-07-03T19:52:40Z</time>
      </trkpt>
      <trkpt lat="46.5829" lon="0.34187">
        <ele>118.5</ele>
        <time>2020-07-03T19:52:41Z</time>
      </trkpt>
      <trkpt lat="46.58291" lon="0.34187">
        <ele>118.5</ele>
        <time>2020-07-03T19:52:42Z</time>
      </trkpt>
      <trkpt lat="46.58292" lon="0.34187">
        <ele>118.5</ele>
        <time>2020-07-03T19:52:43Z</time>
      </trkpt>
      <trkpt lat="46.58293" lon="0.34188">
        <ele>118.5</ele>
        <time>2020-07-03T19:52:44Z</time>
      </trkpt>
      <trkpt lat="46.58296" lon="0.34188">
        <ele>118.5</ele>
        <time>2020-07-03T19:52:45Z</time>
      </trkpt>
      <trkpt lat="46.58297" lon="0.34187">
        <ele>118.5</ele>
        <time>2020-07-03T19:52:46Z</time>
      </trkpt>
      <trkpt lat="46.58298" lon="0.34187">
        <ele>118.5</ele>
        <time>2020-07-03T19:52:47Z</time>
      </trkpt>
      <trkpt lat="46.58302" lon="0.34186">
        <ele>118.4</ele>
        <time>2020-07-03T19:52:48Z</time>
      </trkpt>
      <trkpt lat="46.58302" lon="0.34186">
        <ele>118.4</ele>
        <time>2020-07-03T19:52:49Z</time>
      </trkpt>
      <trkpt lat="46.58304" lon="0.34187">
        <ele>118.4</ele>
        <time>2020-07-03T19:52:50Z</time>
      </trkpt>
      <trkpt lat="46.58306" lon="0.34187">
        <ele>118.4</ele>
        <time>2020-07-03T19:52:51Z</time>
      </trkpt>
      <trkpt lat="46.58309" lon="0.34185">
        <ele>118.3</ele>
        <time>2020-07-03T19:52:52Z</time>
      </trkpt>
      <trkpt lat="46.5831" lon="0.34185">
        <ele>118.3</ele>
        <time>2020-07-03T19:52:53Z</time>
      </trkpt>
      <trkpt lat="46.58311" lon="0.34184">
        <ele>118.3</ele>
        <time>2020-07-03T19:52:54Z</time>
      </trkpt>
      <trkpt lat="46.58312" lon="0.34183">
        <ele>118.3</ele>
        <time>2020-07-03T19:52:55Z</time>
      </trkpt>
      <trkpt lat="46.58314" lon="0.34182">
        <ele>118.3</ele>
        <time>2020-07-03T19:52:56Z</time>
      </trkpt>
      <trkpt lat="46.58315" lon="0.34181">
        <ele>118.3</ele>
        <time>2020-07-03T19:52:57Z</time>
      </trkpt>
      <trkpt lat="46.58314" lon="0.34181">
        <ele>118.2</ele>
        <time>2020-07-03T19:52:58Z</time>
      </trkpt>
      <trkpt lat="46.58314" lon="0.3418">
        <ele>118.2</ele>
        <time>2020-07-03T19:52:59Z</time>
      </trkpt>
      <trkpt lat="46.58314" lon="0.3418">
        <ele>118.2</ele>
        <time>2020-07-03T19:53:00Z</time>
      </trkpt>
      <trkpt lat="46.58313" lon="0.34179">
        <ele>118.2</ele>
        <time>2020-07-03T19:53:01Z</time>
      </trkpt>
      <trkpt lat="46.58313" lon="0.34179">
        <ele>118.2</ele>
        <time>2020-07-03T19:53:02Z</time>
      </trkpt>
      <trkpt lat="46.58312" lon="0.34179">
        <ele>118.2</ele>
        <time>2020-07-03T19:53:03Z</time>
      </trkpt>
      <trkpt lat="46.58312" lon="0.34179">
        <ele>118.2</ele>
        <time>2020-07-03T19:53:04Z</time>
      </trkpt>
      <trkpt lat="46.58313" lon="0.34179">
        <ele>118.2</ele>
        <time>2020-07-03T19:53:05Z</time>
      </trkpt>
      <trkpt lat="46.58313" lon="0.34179">
        <ele>118.2</ele>
        <time>2020-07-03T19:53:06Z</time>
      </trkpt>
      <trkpt lat="46.58314" lon="0.34179">
        <ele>118.2</ele>
        <time>2020-07-03T19:53:07Z</time>
      </trkpt>
      <trkpt lat="46.58315" lon="0.34179">
        <ele>118.2</ele>
        <time>2020-07-03T19:53:08Z</time>
      </trkpt>
      <trkpt lat="46.58315" lon="0.34179">
        <ele>118.2</ele>
        <time>2020-07-03T19:53:09Z</time>
      </trkpt>
      <trkpt lat="46.58316" lon="0.34178">
        <ele>118.2</ele>
        <time>2020-07-03T19:53:10Z</time>
      </trkpt>
      <trkpt lat="46.58317" lon="0.34178">
        <ele>118.1</ele>
        <time>2020-07-03T19:53:11Z</time>
      </trkpt>
      <trkpt lat="46.58317" lon="0.34178">
        <ele>118.1</ele>
        <time>2020-07-03T19:53:12Z</time>
      </trkpt>
      <trkpt lat="46.58319" lon="0.34178">
        <ele>118.1</ele>
        <time>2020-07-03T19:53:13Z</time>
      </trkpt>
      <trkpt lat="46.58321" lon="0.34178">
        <ele>118.1</ele>
        <time>2020-07-03T19:53:14Z</time>
      </trkpt>
      <trkpt lat="46.58322" lon="0.34178">
        <ele>118.1</ele>
        <time>2020-07-03T19:53:15Z</time>
      </trkpt>
      <trkpt lat="46.58322" lon="0.34179">
        <ele>118</ele>
        <time>2020-07-03T19:53:16Z</time>
      </trkpt>
      <trkpt lat="46.58322" lon="0.34179">
        <ele>118</ele>
        <time>2020-07-03T19:53:17Z</time>
      </trkpt>
      <trkpt lat="46.58322" lon="0.3418">
        <ele>118</ele>
        <time>2020-07-03T19:53:18Z</time>
      </trkpt>
      <trkpt lat="46.58323" lon="0.34179">
        <ele>118</ele>
        <time>2020-07-03T19:53:19Z</time>
      </trkpt>
      <trkpt lat="46.58324" lon="0.34179">
        <ele>118</ele>
        <time>2020-07-03T19:53:20Z</time>
      </trkpt>
      <trkpt lat="46.58324" lon="0.34179">
        <ele>118</ele>
        <time>2020-07-03T19:53:21Z</time>
      </trkpt>
      <trkpt lat="46.58324" lon="0.34179">
        <ele>118</ele>
        <time>2020-07-03T19:53:22Z</time>
      </trkpt>
      <trkpt lat="46.58324" lon="0.34179">
        <ele>118</ele>
        <time>2020-07-03T19:53:23Z</time>
      </trkpt>
      <trkpt lat="46.58324" lon="0.3418">
        <ele>118</ele>
        <time>2020-07-03T19:53:24Z</time>
      </trkpt>
      <trkpt lat="46.58324" lon="0.3418">
        <ele>118</ele>
        <time>2020-07-03T19:53:25Z</time>
      </trkpt>
      <trkpt lat="46.58323" lon="0.3418">
        <ele>118</ele>
        <time>2020-07-03T19:53:26Z</time>
      </trkpt>
      <trkpt lat="46.58323" lon="0.3418">
        <ele>118</ele>
        <time>2020-07-03T19:53:27Z</time>
      </trkpt>
      <trkpt lat="46.58323" lon="0.3418">
        <ele>118</ele>
        <time>2020-07-03T19:53:28Z</time>
      </trkpt>
      <trkpt lat="46.58324" lon="0.3418">
        <ele>117.9</ele>
        <time>2020-07-03T19:53:29Z</time>
      </trkpt>
      <trkpt lat="46.58324" lon="0.34181">
        <ele>117.9</ele>
        <time>2020-07-03T19:53:30Z</time>
      </trkpt>
      <trkpt lat="46.58324" lon="0.34181">
        <ele>117.9</ele>
        <time>2020-07-03T19:53:31Z</time>
      </trkpt>
      <trkpt lat="46.58324" lon="0.34181">
        <ele>117.9</ele>
        <time>2020-07-03T19:53:32Z</time>
      </trkpt>
      <trkpt lat="46.58324" lon="0.34181">
        <ele>117.9</ele>
        <time>2020-07-03T19:53:33Z</time>
      </trkpt>
      <trkpt lat="46.58323" lon="0.34181">
        <ele>117.9</ele>
        <time>2020-07-03T19:53:34Z</time>
      </trkpt>
      <trkpt lat="46.58323" lon="0.34181">
        <ele>117.9</ele>
        <time>2020-07-03T19:53:35Z</time>
      </trkpt>
      <trkpt lat="46.58323" lon="0.34181">
        <ele>117.9</ele>
        <time>2020-07-03T19:53:36Z</time>
      </trkpt>
      <trkpt lat="46.58323" lon="0.34181">
        <ele>117.9</ele>
        <time>2020-07-03T19:53:37Z</time>
      </trkpt>
      <trkpt lat="46.58322" lon="0.34181">
        <ele>117.9</ele>
        <time>2020-07-03T19:53:38Z</time>
      </trkpt>
      <trkpt lat="46.58322" lon="0.34181">
        <ele>117.9</ele>
        <time>2020-07-03T19:53:39Z</time>
      </trkpt>
      <trkpt lat="46.58322" lon="0.34181">
        <ele>117.9</ele>
        <time>2020-07-03T19:53:40Z</time>
      </trkpt>
      <trkpt lat="46.58321" lon="0.3418">
        <ele>117.9</ele>
        <time>2020-07-03T19:53:41Z</time>
      </trkpt>
      <trkpt lat="46.5832" lon="0.3418">
        <ele>117.9</ele>
        <time>2020-07-03T19:53:42Z</time>
      </trkpt>
      <trkpt lat="46.58335" lon="0.34171">
        <ele>117.8</ele>
        <time>2020-07-03T19:54:22Z</time>
      </trkpt>
      <trkpt lat="46.58334" lon="0.34171">
        <ele>117.4</ele>
        <time>2020-07-03T19:54:23Z</time>
      </trkpt>
      <trkpt lat="46.58334" lon="0.34171">
        <ele>117.8</ele>
        <time>2020-07-03T19:54:24Z</time>
      </trkpt>
      <trkpt lat="46.58334" lon="0.34171">
        <ele>117.8</ele>
        <time>2020-07-03T19:54:25Z</time>
      </trkpt>
      <trkpt lat="46.58335" lon="0.34171">
        <ele>117.4</ele>
        <time>2020-07-03T19:54:26Z</time>
      </trkpt>
      <trkpt lat="46.58335" lon="0.34171">
        <ele>117.4</ele>
        <time>2020-07-03T19:54:27Z</time>
      </trkpt>
      <trkpt lat="46.58335" lon="0.34171">
        <ele>117.4</ele>
        <time>2020-07-03T19:54:28Z</time>
      </trkpt>
      <trkpt lat="46.58335" lon="0.34171">
        <ele>117.4</ele>
        <time>2020-07-03T19:54:29Z</time>
      </trkpt>
      <trkpt lat="46.58336" lon="0.34171">
        <ele>117.4</ele>
        <time>2020-07-03T19:54:30Z</time>
      </trkpt>
      <trkpt lat="46.58336" lon="0.34171">
        <ele>117.4</ele>
        <time>2020-07-03T19:54:31Z</time>
      </trkpt>
      <trkpt lat="46.58336" lon="0.34171">
        <ele>117.4</ele>
        <time>2020-07-03T19:54:32Z</time>
      </trkpt>
      <trkpt lat="46.58336" lon="0.34171">
        <ele>117.4</ele>
        <time>2020-07-03T19:54:33Z</time>
      </trkpt>
      <trkpt lat="46.58336" lon="0.34171">
        <ele>117.4</ele>
        <time>2020-07-03T19:54:34Z</time>
      </trkpt>
      <trkpt lat="46.58336" lon="0.34171">
        <ele>117.4</ele>
        <time>2020-07-03T19:54:35Z</time>
      </trkpt>
      <trkpt lat="46.58336" lon="0.34171">
        <ele>117.4</ele>
        <time>2020-07-03T19:54:36Z</time>
      </trkpt>
      <trkpt lat="46.58336" lon="0.34171">
        <ele>117.4</ele>
        <time>2020-07-03T19:54:37Z</time>
      </trkpt>
      <trkpt lat="46.58336" lon="0.34171">
        <ele>117.4</ele>
        <time>2020-07-03T19:54:38Z</time>
      </trkpt>
      <trkpt lat="46.58336" lon="0.34171">
        <ele>117.4</ele>
        <time>2020-07-03T19:54:39Z</time>
      </trkpt>
      <trkpt lat="46.58336" lon="0.34171">
        <ele>117.4</ele>
        <time>2020-07-03T19:54:40Z</time>
      </trkpt>
      <trkpt lat="46.58336" lon="0.34171">
        <ele>117.4</ele>
        <time>2020-07-03T19:54:41Z</time>
      </trkpt>
      <trkpt lat="46.58336" lon="0.34171">
        <ele>117.4</ele>
        <time>2020-07-03T19:55:14Z</time>
      </trkpt>
      <trkpt lat="46.58336" lon="0.34171">
        <ele>117.4</ele>
        <time>2020-07-03T19:55:15Z</time>
      </trkpt>
      <trkpt lat="46.58336" lon="0.34171">
        <ele>117.4</ele>
        <time>2020-07-03T19:55:16Z</time>
      </trkpt>
      <trkpt lat="46.58335" lon="0.34171">
        <ele>117.4</ele>
        <time>2020-07-03T19:55:17Z</time>
      </trkpt>
      <trkpt lat="46.58335" lon="0.34171">
        <ele>117.4</ele>
        <time>2020-07-03T19:55:18Z</time>
      </trkpt>
      <trkpt lat="46.58335" lon="0.34171">
        <ele>117.4</ele>
        <time>2020-07-03T19:55:19Z</time>
      </trkpt>
      <trkpt lat="46.58335" lon="0.34171">
        <ele>117.4</ele>
        <time>2020-07-03T19:55:20Z</time>
      </trkpt>
      <trkpt lat="46.58335" lon="0.34171">
        <ele>117.4</ele>
        <time>2020-07-03T19:55:21Z</time>
      </trkpt>
      <trkpt lat="46.58335" lon="0.34171">
        <ele>117.4</ele>
        <time>2020-07-03T19:55:22Z</time>
      </trkpt>
      <trkpt lat="46.58335" lon="0.34172">
        <ele>117.4</ele>
        <time>2020-07-03T19:55:23Z</time>
      </trkpt>
      <trkpt lat="46.58335" lon="0.34172">
        <ele>117.8</ele>
        <time>2020-07-03T19:55:24Z</time>
      </trkpt>
      <trkpt lat="46.58335" lon="0.34172">
        <ele>117.8</ele>
        <time>2020-07-03T19:55:25Z</time>
      </trkpt>
      <trkpt lat="46.58335" lon="0.34172">
        <ele>117.8</ele>
        <time>2020-07-03T19:55:36Z</time>
      </trkpt>
      <trkpt lat="46.58335" lon="0.34172">
        <ele>117.8</ele>
        <time>2020-07-03T19:55:37Z</time>
      </trkpt>
      <trkpt lat="46.58334" lon="0.34172">
        <ele>117.8</ele>
        <time>2020-07-03T19:55:38Z</time>
      </trkpt>
      <trkpt lat="46.58334" lon="0.34172">
        <ele>117.8</ele>
        <time>2020-07-03T19:55:39Z</time>
      </trkpt>
      <trkpt lat="46.58334" lon="0.34172">
        <ele>117.8</ele>
        <time>2020-07-03T19:55:40Z</time>
      </trkpt>
      <trkpt lat="46.58334" lon="0.34172">
        <ele>117.8</ele>
        <time>2020-07-03T19:55:41Z</time>
      </trkpt>
      <trkpt lat="46.58334" lon="0.34172">
        <ele>117.8</ele>
        <time>2020-07-03T19:55:42Z</time>
      </trkpt>
      <trkpt lat="46.58334" lon="0.34172">
        <ele>117.8</ele>
        <time>2020-07-03T19:55:43Z</time>
      </trkpt>
      <trkpt lat="46.58334" lon="0.34172">
        <ele>117.8</ele>
        <time>2020-07-03T19:55:44Z</time>
      </trkpt>
      <trkpt lat="46.58334" lon="0.34172">
        <ele>117.8</ele>
        <time>2020-07-03T19:55:45Z</time>
      </trkpt>
      <trkpt lat="46.58334" lon="0.34172">
        <ele>117.8</ele>
        <time>2020-07-03T19:55:46Z</time>
      </trkpt>
      <trkpt lat="46.58334" lon="0.34172">
        <ele>117.8</ele>
        <time>2020-07-03T19:55:47Z</time>
      </trkpt>
      <trkpt lat="46.58334" lon="0.34172">
        <ele>117.8</ele>
        <time>2020-07-03T19:55:48Z</time>
      </trkpt>
      <trkpt lat="46.58334" lon="0.34172">
        <ele>117.8</ele>
        <time>2020-07-03T19:55:49Z</time>
      </trkpt>
      <trkpt lat="46.58333" lon="0.34172">
        <ele>117.8</ele>
        <time>2020-07-03T19:55:50Z</time>
      </trkpt>
      <trkpt lat="46.58333" lon="0.34173">
        <ele>117.8</ele>
        <time>2020-07-03T19:58:00Z</time>
      </trkpt>
      <trkpt lat="46.58333" lon="0.34173">
        <ele>117.8</ele>
        <time>2020-07-03T19:58:01Z</time>
      </trkpt>
      <trkpt lat="46.58333" lon="0.34173">
        <ele>117.8</ele>
        <time>2020-07-03T19:58:02Z</time>
      </trkpt>
      <trkpt lat="46.58333" lon="0.34173">
        <ele>117.8</ele>
        <time>2020-07-03T19:58:03Z</time>
      </trkpt>
      <trkpt lat="46.58333" lon="0.34173">
        <ele>117.8</ele>
        <time>2020-07-03T19:58:04Z</time>
      </trkpt>
      <trkpt lat="46.58333" lon="0.34173">
        <ele>117.8</ele>
        <time>2020-07-03T19:58:05Z</time>
      </trkpt>
      <trkpt lat="46.58333" lon="0.34173">
        <ele>117.8</ele>
        <time>2020-07-03T19:58:06Z</time>
      </trkpt>
      <trkpt lat="46.58333" lon="0.34173">
        <ele>117.8</ele>
        <time>2020-07-03T19:58:07Z</time>
      </trkpt>
      <trkpt lat="46.58333" lon="0.34173">
        <ele>117.8</ele>
        <time>2020-07-03T19:58:08Z</time>
      </trkpt>
      <trkpt lat="46.58333" lon="0.34173">
        <ele>117.8</ele>
        <time>2020-07-03T19:58:09Z</time>
      </trkpt>
      <trkpt lat="46.58333" lon="0.34173">
        <ele>117.8</ele>
        <time>2020-07-03T19:58:10Z</time>
      </trkpt>
      <trkpt lat="46.58332" lon="0.34173">
        <ele>117.8</ele>
        <time>2020-07-03T19:58:11Z</time>
      </trkpt>
      <trkpt lat="46.58332" lon="0.34173">
        <ele>117.8</ele>
        <time>2020-07-03T19:58:12Z</time>
      </trkpt>
      <trkpt lat="46.58332" lon="0.34173">
        <ele>117.8</ele>
        <time>2020-07-03T19:58:13Z</time>
      </trkpt>
      <trkpt lat="46.58332" lon="0.34173">
        <ele>117.8</ele>
        <time>2020-07-03T20:07:53Z</time>
      </trkpt>
      <trkpt lat="46.58332" lon="0.34173">
        <ele>117.8</ele>
        <time>2020-07-03T20:07:54Z</time>
      </trkpt>
      <trkpt lat="46.58332" lon="0.34173">
        <ele>117.8</ele>
        <time>2020-07-03T20:07:55Z</time>
      </trkpt>
      <trkpt lat="46.58332" lon="0.34173">
        <ele>117.8</ele>
        <time>2020-07-03T20:07:56Z</time>
      </trkpt>
      <trkpt lat="46.58332" lon="0.34173">
        <ele>117.8</ele>
        <time>2020-07-03T20:07:57Z</time>
      </trkpt>
      <trkpt lat="46.58333" lon="0.34172">
        <ele>117.8</ele>
        <time>2020-07-03T20:07:58Z</time>
      </trkpt>
      <trkpt lat="46.58334" lon="0.3417">
        <ele>117.4</ele>
        <time>2020-07-03T20:07:59Z</time>
      </trkpt>
      <trkpt lat="46.58334" lon="0.34169">
        <ele>117.4</ele>
        <time>2020-07-03T20:08:00Z</time>
      </trkpt>
      <trkpt lat="46.58334" lon="0.34166">
        <ele>117.4</ele>
        <time>2020-07-03T20:08:01Z</time>
      </trkpt>
      <trkpt lat="46.58335" lon="0.34164">
        <ele>117.4</ele>
        <time>2020-07-03T20:08:02Z</time>
      </trkpt>
      <trkpt lat="46.58335" lon="0.34162">
        <ele>117.3</ele>
        <time>2020-07-03T20:08:03Z</time>
      </trkpt>
      <trkpt lat="46.58336" lon="0.34161">
        <ele>117.3</ele>
        <time>2020-07-03T20:08:04Z</time>
      </trkpt>
      <trkpt lat="46.58336" lon="0.34159">
        <ele>117.3</ele>
        <time>2020-07-03T20:08:05Z</time>
      </trkpt>
      <trkpt lat="46.58336" lon="0.34159">
        <ele>117.3</ele>
        <time>2020-07-03T20:08:06Z</time>
      </trkpt>
      <trkpt lat="46.58336" lon="0.34157">
        <ele>117.3</ele>
        <time>2020-07-03T20:08:07Z</time>
      </trkpt>
      <trkpt lat="46.58336" lon="0.34156">
        <ele>117.3</ele>
        <time>2020-07-03T20:08:08Z</time>
      </trkpt>
      <trkpt lat="46.58337" lon="0.34154">
        <ele>117.3</ele>
        <time>2020-07-03T20:08:09Z</time>
      </trkpt>
      <trkpt lat="46.58337" lon="0.34152">
        <ele>117.3</ele>
        <time>2020-07-03T20:08:10Z</time>
      </trkpt>
      <trkpt lat="46.58338" lon="0.3415">
        <ele>117.2</ele>
        <time>2020-07-03T20:08:11Z</time>
      </trkpt>
      <trkpt lat="46.58338" lon="0.3415">
        <ele>117.2</ele>
        <time>2020-07-03T20:08:12Z</time>
      </trkpt>
      <trkpt lat="46.58338" lon="0.34149">
        <ele>117.2</ele>
        <time>2020-07-03T20:08:13Z</time>
      </trkpt>
      <trkpt lat="46.58338" lon="0.34149">
        <ele>117.2</ele>
        <time>2020-07-03T20:08:14Z</time>
      </trkpt>
      <trkpt lat="46.58338" lon="0.34149">
        <ele>117.2</ele>
        <time>2020-07-03T20:08:15Z</time>
      </trkpt>
      <trkpt lat="46.58338" lon="0.34148">
        <ele>117.2</ele>
        <time>2020-07-03T20:08:16Z</time>
      </trkpt>
      <trkpt lat="46.58338" lon="0.34148">
        <ele>117.2</ele>
        <time>2020-07-03T20:08:17Z</time>
      </trkpt>
      <trkpt lat="46.58338" lon="0.34147">
        <ele>117.2</ele>
        <time>2020-07-03T20:08:18Z</time>
      </trkpt>
      <trkpt lat="46.58338" lon="0.34147">
        <ele>117.2</ele>
        <time>2020-07-03T20:08:19Z</time>
      </trkpt>
      <trkpt lat="46.58335" lon="0.34154">
        <ele>117.1</ele>
        <time>2020-07-03T20:08:20Z</time>
      </trkpt>
      <trkpt lat="46.58331" lon="0.34162">
        <ele>117.1</ele>
        <time>2020-07-03T20:11:42Z</time>
      </trkpt>
      <trkpt lat="46.58326" lon="0.34169">
        <ele>117.6</ele>
        <time>2020-07-03T20:11:43Z</time>
      </trkpt>
      <trkpt lat="46.58322" lon="0.34177">
        <ele>118.2</ele>
        <time>2020-07-03T20:11:44Z</time>
      </trkpt>
      <trkpt lat="46.58321" lon="0.34181">
        <ele>118.3</ele>
        <time>2020-07-03T20:11:45Z</time>
      </trkpt>
      <trkpt lat="46.58321" lon="0.34182">
        <ele>118.3</ele>
        <time>2020-07-03T20:11:46Z</time>
      </trkpt>
      <trkpt lat="46.58321" lon="0.34185">
        <ele>118.3</ele>
        <time>2020-07-03T20:11:47Z</time>
      </trkpt>
      <trkpt lat="46.58322" lon="0.34186">
        <ele>118.4</ele>
        <time>2020-07-03T20:11:48Z</time>
      </trkpt>
      <trkpt lat="46.58323" lon="0.34187">
        <ele>118.4</ele>
        <time>2020-07-03T20:11:49Z</time>
      </trkpt>
      <trkpt lat="46.58323" lon="0.34189">
        <ele>118.4</ele>
        <time>2020-07-03T20:11:50Z</time>
      </trkpt>
      <trkpt lat="46.58323" lon="0.34191">
        <ele>118.4</ele>
        <time>2020-07-03T20:11:51Z</time>
      </trkpt>
      <trkpt lat="46.58322" lon="0.34192">
        <ele>118.4</ele>
        <time>2020-07-03T20:11:52Z</time>
      </trkpt>
      <trkpt lat="46.58322" lon="0.34193">
        <ele>118.4</ele>
        <time>2020-07-03T20:11:53Z</time>
      </trkpt>
      <trkpt lat="46.58322" lon="0.34193">
        <ele>118.4</ele>
        <time>2020-07-03T20:11:54Z</time>
      </trkpt>
      <trkpt lat="46.58322" lon="0.34193">
        <ele>118.4</ele>
        <time>2020-07-03T20:11:55Z</time>
      </trkpt>
      <trkpt lat="46.58322" lon="0.34193">
        <ele>118.4</ele>
        <time>2020-07-03T20:11:56Z</time>
      </trkpt>
      <trkpt lat="46.58322" lon="0.34193">
        <ele>118.4</ele>
        <time>2020-07-03T20:11:57Z</time>
      </trkpt>
      <trkpt lat="46.58322" lon="0.34194">
        <ele>118.4</ele>
        <time>2020-07-03T20:11:58Z</time>
      </trkpt>
      <trkpt lat="46.58322" lon="0.34195">
        <ele>118.4</ele>
        <time>2020-07-03T20:11:59Z</time>
      </trkpt>
      <trkpt lat="46.58323" lon="0.34191">
        <ele>118.4</ele>
        <time>2020-07-03T20:12:00Z</time>
      </trkpt>
      <trkpt lat="46.58323" lon="0.34191">
        <ele>118.4</ele>
        <time>2020-07-03T20:12:01Z</time>
      </trkpt>
      <trkpt lat="46.58323" lon="0.34191">
        <ele>118.4</ele>
        <time>2020-07-03T20:12:02Z</time>
      </trkpt>
      <trkpt lat="46.58324" lon="0.3419">
        <ele>118.3</ele>
        <time>2020-07-03T20:12:03Z</time>
      </trkpt>
      <trkpt lat="46.58325" lon="0.34188">
        <ele>118.3</ele>
        <time>2020-07-03T20:12:04Z</time>
      </trkpt>
      <trkpt lat="46.58325" lon="0.34186">
        <ele>118.3</ele>
        <time>2020-07-03T20:12:05Z</time>
      </trkpt>
      <trkpt lat="46.58325" lon="0.34185">
        <ele>118.3</ele>
        <time>2020-07-03T20:12:06Z</time>
      </trkpt>
      <trkpt lat="46.58325" lon="0.34184">
        <ele>118.3</ele>
        <time>2020-07-03T20:12:07Z</time>
      </trkpt>
      <trkpt lat="46.58326" lon="0.34183">
        <ele>118.3</ele>
        <time>2020-07-03T20:12:08Z</time>
      </trkpt>
      <trkpt lat="46.58327" lon="0.3418">
        <ele>118.3</ele>
        <time>2020-07-03T20:12:09Z</time>
      </trkpt>
      <trkpt lat="46.58327" lon="0.34177">
        <ele>118.3</ele>
        <time>2020-07-03T20:12:10Z</time>
      </trkpt>
      <trkpt lat="46.58328" lon="0.34175">
        <ele>118.2</ele>
        <time>2020-07-03T20:12:11Z</time>
      </trkpt>
      <trkpt lat="46.58329" lon="0.34172">
        <ele>117.8</ele>
        <time>2020-07-03T20:12:12Z</time>
      </trkpt>
      <trkpt lat="46.58329" lon="0.34169">
        <ele>117.6</ele>
        <time>2020-07-03T20:12:13Z</time>
      </trkpt>
      <trkpt lat="46.5833" lon="0.34167">
        <ele>117.4</ele>
        <time>2020-07-03T20:12:14Z</time>
      </trkpt>
      <trkpt lat="46.5833" lon="0.34164">
        <ele>117.2</ele>
        <time>2020-07-03T20:12:15Z</time>
      </trkpt>
      <trkpt lat="46.58331" lon="0.34161">
        <ele>117.1</ele>
        <time>2020-07-03T20:12:16Z</time>
      </trkpt>
      <trkpt lat="46.58332" lon="0.34159">
        <ele>116.9</ele>
        <time>2020-07-03T20:12:17Z</time>
      </trkpt>
      <trkpt lat="46.58332" lon="0.34156">
        <ele>116.9</ele>
        <time>2020-07-03T20:12:18Z</time>
      </trkpt>
      <trkpt lat="46.58333" lon="0.34153">
        <ele>116.8</ele>
        <time>2020-07-03T20:25:42Z</time>
      </trkpt>
      <trkpt lat="46.58334" lon="0.34151">
        <ele>116.7</ele>
        <time>2020-07-03T20:25:43Z</time>
      </trkpt>
      <trkpt lat="46.58334" lon="0.34148">
        <ele>116.7</ele>
        <time>2020-07-03T20:25:44Z</time>
      </trkpt>
      <trkpt lat="46.58333" lon="0.34147">
        <ele>116.6</ele>
        <time>2020-07-03T20:25:45Z</time>
      </trkpt>
      <trkpt lat="46.58332" lon="0.34145">
        <ele>116.3</ele>
        <time>2020-07-03T20:25:46Z</time>
      </trkpt>
      <trkpt lat="46.58329" lon="0.34141">
        <ele>116.3</ele>
        <time>2020-07-03T20:25:47Z</time>
      </trkpt>
      <trkpt lat="46.58329" lon="0.34141">
        <ele>116.3</ele>
        <time>2020-07-03T20:25:48Z</time>
      </trkpt>
      <trkpt lat="46.58327" lon="0.34139">
        <ele>116.3</ele>
        <time>2020-07-03T20:25:49Z</time>
      </trkpt>
      <trkpt lat="46.58327" lon="0.34137">
        <ele>116.3</ele>
        <time>2020-07-03T20:25:50Z</time>
      </trkpt>
      <trkpt lat="46.58327" lon="0.34134">
        <ele>116.3</ele>
        <time>2020-07-03T20:25:51Z</time>
      </trkpt>
      <trkpt lat="46.58326" lon="0.34133">
        <ele>116.3</ele>
        <time>2020-07-03T20:25:52Z</time>
      </trkpt>
      <trkpt lat="46.58326" lon="0.34132">
        <ele>116.3</ele>
        <time>2020-07-03T20:25:53Z</time>
      </trkpt>
      <trkpt lat="46.58326" lon="0.34131">
        <ele>116.3</ele>
        <time>2020-07-03T20:25:54Z</time>
      </trkpt>
      <trkpt lat="46.58325" lon="0.3413">
        <ele>116.3</ele>
        <time>2020-07-03T20:25:55Z</time>
      </trkpt>
      <trkpt lat="46.58325" lon="0.3413">
        <ele>116.3</ele>
        <time>2020-07-03T20:25:56Z</time>
      </trkpt>
      <trkpt lat="46.58325" lon="0.34129">
        <ele>116.3</ele>
        <time>2020-07-03T20:25:57Z</time>
      </trkpt>
      <trkpt lat="46.58325" lon="0.34128">
        <ele>116.3</ele>
        <time>2020-07-03T20:25:58Z</time>
      </trkpt>
      <trkpt lat="46.58324" lon="0.34127">
        <ele>116.3</ele>
        <time>2020-07-03T20:25:59Z</time>
      </trkpt>
      <trkpt lat="46.58324" lon="0.34126">
        <ele>116.3</ele>
        <time>2020-07-03T20:26:00Z</time>
      </trkpt>
      <trkpt lat="46.58325" lon="0.34127">
        <ele>116.3</ele>
        <time>2020-07-03T20:26:01Z</time>
      </trkpt>
      <trkpt lat="46.58326" lon="0.34129">
        <ele>116.3</ele>
        <time>2020-07-03T20:26:02Z</time>
      </trkpt>
      <trkpt lat="46.58326" lon="0.34132">
        <ele>116.3</ele>
        <time>2020-07-03T20:26:03Z</time>
      </trkpt>
      <trkpt lat="46.58327" lon="0.34133">
        <ele>116.3</ele>
        <time>2020-07-03T20:26:04Z</time>
      </trkpt>
      <trkpt lat="46.58328" lon="0.34134">
        <ele>116.3</ele>
        <time>2020-07-03T20:26:05Z</time>
      </trkpt>
      <trkpt lat="46.58329" lon="0.34136">
        <ele>116.3</ele>
        <time>2020-07-03T20:26:06Z</time>
      </trkpt>
      <trkpt lat="46.5833" lon="0.34137">
        <ele>116.3</ele>
        <time>2020-07-03T20:26:07Z</time>
      </trkpt>
      <trkpt lat="46.58332" lon="0.34139">
        <ele>116.3</ele>
        <time>2020-07-03T20:26:08Z</time>
      </trkpt>
      <trkpt lat="46.58333" lon="0.34138">
        <ele>116.3</ele>
        <time>2020-07-03T20:26:09Z</time>
      </trkpt>
      <trkpt lat="46.58333" lon="0.34137">
        <ele>116.3</ele>
        <time>2020-07-03T20:26:10Z</time>
      </trkpt>
      <trkpt lat="46.58333" lon="0.34136">
        <ele>116.3</ele>
        <time>2020-07-03T20:26:11Z</time>
      </trkpt>
      <trkpt lat="46.58333" lon="0.34136">
        <ele>116.3</ele>
        <time>2020-07-03T20:26:12Z</time>
      </trkpt>
      <trkpt lat="46.58334" lon="0.34135">
        <ele>116.3</ele>
        <time>2020-07-03T20:26:13Z</time>
      </trkpt>
      <trkpt lat="46.58334" lon="0.34134">
        <ele>116.3</ele>
        <time>2020-07-03T20:26:14Z</time>
      </trkpt>
      <trkpt lat="46.58334" lon="0.34133">
        <ele>116.3</ele>
        <time>2020-07-03T20:26:15Z</time>
      </trkpt>
      <trkpt lat="46.58334" lon="0.34132">
        <ele>116.3</ele>
        <time>2020-07-03T20:26:16Z</time>
      </trkpt>
      <trkpt lat="46.58334" lon="0.34131">
        <ele>116.3</ele>
        <time>2020-07-03T20:26:17Z</time>
      </trkpt>
      <trkpt lat="46.58335" lon="0.3413">
        <ele>116.3</ele>
        <time>2020-07-03T20:26:18Z</time>
      </trkpt>
      <trkpt lat="46.58335" lon="0.34129">
        <ele>116.3</ele>
        <time>2020-07-03T20:26:19Z</time>
      </trkpt>
      <trkpt lat="46.58335" lon="0.34128">
        <ele>116.3</ele>
        <time>2020-07-03T20:31:57Z</time>
      </trkpt>
      <trkpt lat="46.58335" lon="0.34128">
        <ele>116.3</ele>
        <time>2020-07-03T20:31:58Z</time>
      </trkpt>
      <trkpt lat="46.58336" lon="0.34127">
        <ele>116.3</ele>
        <time>2020-07-03T20:31:59Z</time>
      </trkpt>
      <trkpt lat="46.58336" lon="0.34126">
        <ele>116.3</ele>
        <time>2020-07-03T20:32:00Z</time>
      </trkpt>
      <trkpt lat="46.58336" lon="0.34125">
        <ele>116.3</ele>
        <time>2020-07-03T20:32:01Z</time>
      </trkpt>
      <trkpt lat="46.58336" lon="0.34124">
        <ele>116.3</ele>
        <time>2020-07-03T20:32:02Z</time>
      </trkpt>
      <trkpt lat="46.58336" lon="0.34123">
        <ele>116.3</ele>
        <time>2020-07-03T20:32:03Z</time>
      </trkpt>
      <trkpt lat="46.58337" lon="0.34122">
        <ele>116.3</ele>
        <time>2020-07-03T20:32:04Z</time>
      </trkpt>
      <trkpt lat="46.58338" lon="0.34124">
        <ele>116.3</ele>
        <time>2020-07-03T20:32:05Z</time>
      </trkpt>
      <trkpt lat="46.58338" lon="0.34126">
        <ele>116.3</ele>
        <time>2020-07-03T20:32:06Z</time>
      </trkpt>
      <trkpt lat="46.58338" lon="0.34126">
        <ele>116.3</ele>
        <time>2020-07-03T20:32:07Z</time>
      </trkpt>
      <trkpt lat="46.58339" lon="0.34127">
        <ele>116.3</ele>
        <time>2020-07-03T20:32:08Z</time>
      </trkpt>
      <trkpt lat="46.5834" lon="0.34128">
        <ele>116.3</ele>
        <time>2020-07-03T20:32:09Z</time>
      </trkpt>
      <trkpt lat="46.5834" lon="0.3413">
        <ele>116.3</ele>
        <time>2020-07-03T20:32:10Z</time>
      </trkpt>
      <trkpt lat="46.58341" lon="0.34132">
        <ele>116.3</ele>
        <time>2020-07-03T20:32:11Z</time>
      </trkpt>
      <trkpt lat="46.58342" lon="0.34133">
        <ele>116.3</ele>
        <time>2020-07-03T20:32:12Z</time>
      </trkpt>
      <trkpt lat="46.58343" lon="0.34134">
        <ele>116.3</ele>
        <time>2020-07-03T20:32:13Z</time>
      </trkpt>
      <trkpt lat="46.58344" lon="0.34135">
        <ele>116.3</ele>
        <time>2020-07-03T20:32:14Z</time>
      </trkpt>
      <trkpt lat="46.58345" lon="0.34136">
        <ele>116.3</ele>
        <time>2020-07-03T20:32:15Z</time>
      </trkpt>
      <trkpt lat="46.58346" lon="0.34137">
        <ele>116.3</ele>
        <time>2020-07-03T20:32:16Z</time>
      </trkpt>
      <trkpt lat="46.58346" lon="0.34138">
        <ele>116.3</ele>
        <time>2020-07-03T20:32:17Z</time>
      </trkpt>
      <trkpt lat="46.58347" lon="0.34139">
        <ele>116.3</ele>
        <time>2020-07-03T20:32:18Z</time>
      </trkpt>
      <trkpt lat="46.58336" lon="0.34121">
        <ele>116.3</ele>
        <time>2020-07-03T20:46:42Z</time>
      </trkpt>
      <trkpt lat="46.58336" lon="0.34122">
        <ele>116.3</ele>
        <time>2020-07-03T20:46:43Z</time>
      </trkpt>
      <trkpt lat="46.58336" lon="0.34121">
        <ele>116.3</ele>
        <time>2020-07-03T20:46:44Z</time>
      </trkpt>
      <trkpt lat="46.58336" lon="0.34121">
        <ele>116.3</ele>
        <time>2020-07-03T20:46:45Z</time>
      </trkpt>
      <trkpt lat="46.58335" lon="0.34121">
        <ele>116.3</ele>
        <time>2020-07-03T20:46:46Z</time>
      </trkpt>
      <trkpt lat="46.58335" lon="0.34121">
        <ele>116.3</ele>
        <time>2020-07-03T20:46:47Z</time>
      </trkpt>
      <trkpt lat="46.58335" lon="0.34121">
        <ele>116.3</ele>
        <time>2020-07-03T20:46:48Z</time>
      </trkpt>
      <trkpt lat="46.58335" lon="0.34122">
        <ele>116.3</ele>
        <time>2020-07-03T20:46:49Z</time>
      </trkpt>
      <trkpt lat="46.58335" lon="0.34123">
        <ele>116.4</ele>
        <time>2020-07-03T20:46:50Z</time>
      </trkpt>
      <trkpt lat="46.58334" lon="0.34123">
        <ele>116.4</ele>
        <time>2020-07-03T20:46:51Z</time>
      </trkpt>
      <trkpt lat="46.58334" lon="0.34124">
        <ele>116.4</ele>
        <time>2020-07-03T20:46:52Z</time>
      </trkpt>
      <trkpt lat="46.58334" lon="0.34124">
        <ele>116.4</ele>
        <time>2020-07-03T20:46:53Z</time>
      </trkpt>
      <trkpt lat="46.58334" lon="0.34124">
        <ele>116.4</ele>
        <time>2020-07-03T20:46:54Z</time>
      </trkpt>
      <trkpt lat="46.58334" lon="0.34123">
        <ele>116.4</ele>
        <time>2020-07-03T20:46:55Z</time>
      </trkpt>
      <trkpt lat="46.58334" lon="0.34123">
        <ele>116.4</ele>
        <time>2020-07-03T20:46:56Z</time>
      </trkpt>
      <trkpt lat="46.58334" lon="0.34123">
        <ele>116.4</ele>
        <time>2020-07-03T20:46:57Z</time>
      </trkpt>
      <trkpt lat="46.58333" lon="0.34123">
        <ele>116.4</ele>
        <time>2020-07-03T20:46:58Z</time>
      </trkpt>
      <trkpt lat="46.58333" lon="0.34122">
        <ele>116.4</ele>
        <time>2020-07-03T20:46:59Z</time>
      </trkpt>
      <trkpt lat="46.58333" lon="0.34122">
        <ele>116.4</ele>
        <time>2020-07-03T20:47:00Z</time>
      </trkpt>
      <trkpt lat="46.58333" lon="0.34121">
        <ele>116.4</ele>
        <time>2020-07-03T20:47:01Z</time>
      </trkpt>
      <trkpt lat="46.58334" lon="0.3412">
        <ele>116.4</ele>
        <time>2020-07-03T20:47:02Z</time>
      </trkpt>
      <trkpt lat="46.58335" lon="0.34119">
        <ele>116.5</ele>
        <time>2020-07-03T20:47:03Z</time>
      </trkpt>
      <trkpt lat="46.58335" lon="0.34119">
        <ele>116.5</ele>
        <time>2020-07-03T20:47:04Z</time>
      </trkpt>
      <trkpt lat="46.58336" lon="0.34119">
        <ele>116.5</ele>
        <time>2020-07-03T20:47:05Z</time>
      </trkpt>
      <trkpt lat="46.58335" lon="0.34119">
        <ele>116.5</ele>
        <time>2020-07-03T20:47:06Z</time>
      </trkpt>
      <trkpt lat="46.58334" lon="0.3412">
        <ele>116.5</ele>
        <time>2020-07-03T20:47:07Z</time>
      </trkpt>
      <trkpt lat="46.58334" lon="0.3412">
        <ele>116.5</ele>
        <time>2020-07-03T20:47:08Z</time>
      </trkpt>
      <trkpt lat="46.58334" lon="0.3412">
        <ele>116.5</ele>
        <time>2020-07-03T20:47:09Z</time>
      </trkpt>
      <trkpt lat="46.58334" lon="0.34119">
        <ele>116.5</ele>
        <time>2020-07-03T20:47:10Z</time>
      </trkpt>
      <trkpt lat="46.58334" lon="0.34119">
        <ele>116.5</ele>
        <time>2020-07-03T20:47:11Z</time>
      </trkpt>
      <trkpt lat="46.58333" lon="0.34118">
        <ele>116.5</ele>
        <time>2020-07-03T20:47:12Z</time>
      </trkpt>
      <trkpt lat="46.58333" lon="0.34117">
        <ele>116.5</ele>
        <time>2020-07-03T20:47:13Z</time>
      </trkpt>
      <trkpt lat="46.58332" lon="0.34116">
        <ele>117</ele>
        <time>2020-07-03T20:47:14Z</time>
      </trkpt>
      <trkpt lat="46.58332" lon="0.34115">
        <ele>117</ele>
        <time>2020-07-03T20:47:15Z</time>
      </trkpt>
      <trkpt lat="46.58331" lon="0.34115">
        <ele>117</ele>
        <time>2020-07-03T20:47:16Z</time>
      </trkpt>
      <trkpt lat="46.58331" lon="0.34115">
        <ele>117</ele>
        <time>2020-07-03T20:47:17Z</time>
      </trkpt>
      <trkpt lat="46.58331" lon="0.34115">
        <ele>117</ele>
        <time>2020-07-03T20:47:18Z</time>
      </trkpt>
      <trkpt lat="46.5833" lon="0.34114">
        <ele>117</ele>
        <time>2020-07-03T20:47:19Z</time>
      </trkpt>
      <trkpt lat="46.5833" lon="0.34113">
        <ele>117</ele>
        <time>2020-07-03T20:47:20Z</time>
      </trkpt>
      <trkpt lat="46.5833" lon="0.34112">
        <ele>117</ele>
        <time>2020-07-03T20:47:21Z</time>
      </trkpt>
      <trkpt lat="46.5833" lon="0.34112">
        <ele>117</ele>
        <time>2020-07-03T20:47:22Z</time>
      </trkpt>
      <trkpt lat="46.5833" lon="0.34112">
        <ele>117</ele>
        <time>2020-07-03T20:47:23Z</time>
      </trkpt>
      <trkpt lat="46.5833" lon="0.34112">
        <ele>117</ele>
        <time>2020-07-03T20:47:24Z</time>
      </trkpt>
      <trkpt lat="46.5833" lon="0.34112">
        <ele>117</ele>
        <time>2020-07-03T20:47:25Z</time>
      </trkpt>
      <trkpt lat="46.5833" lon="0.34112">
        <ele>117</ele>
        <time>2020-07-03T20:47:26Z</time>
      </trkpt>
      <trkpt lat="46.58322" lon="0.34107">
        <ele>117</ele>
        <time>2020-07-03T20:49:26Z</time>
      </trkpt>
      <trkpt lat="46.58321" lon="0.34106">
        <ele>117.1</ele>
        <time>2020-07-03T20:49:27Z</time>
      </trkpt>
      <trkpt lat="46.58321" lon="0.34106">
        <ele>117.1</ele>
        <time>2020-07-03T20:49:28Z</time>
      </trkpt>
      <trkpt lat="46.58321" lon="0.34106">
        <ele>117.1</ele>
        <time>2020-07-03T20:49:29Z</time>
      </trkpt>
      <trkpt lat="46.58321" lon="0.34106">
        <ele>117.1</ele>
        <time>2020-07-03T20:49:30Z</time>
      </trkpt>
      <trkpt lat="46.58321" lon="0.34106">
        <ele>117.1</ele>
        <time>2020-07-03T20:49:31Z</time>
      </trkpt>
      <trkpt lat="46.58321" lon="0.34106">
        <ele>117.1</ele>
        <time>2020-07-03T20:49:32Z</time>
      </trkpt>
      <trkpt lat="46.58321" lon="0.34105">
        <ele>117.1</ele>
        <time>2020-07-03T20:49:33Z</time>
      </trkpt>
      <trkpt lat="46.58321" lon="0.34105">
        <ele>117.1</ele>
        <time>2020-07-03T20:49:34Z</time>
      </trkpt>
      <trkpt lat="46.58321" lon="0.34105">
        <ele>117.1</ele>
        <time>2020-07-03T20:49:35Z</time>
      </trkpt>
      <trkpt lat="46.58321" lon="0.34105">
        <ele>117.1</ele>
        <time>2020-07-03T20:49:36Z</time>
      </trkpt>
      <trkpt lat="46.58322" lon="0.34105">
        <ele>117.1</ele>
        <time>2020-07-03T20:49:37Z</time>
      </trkpt>
      <trkpt lat="46.58322" lon="0.34105">
        <ele>117.1</ele>
        <time>2020-07-03T20:49:38Z</time>
      </trkpt>
      <trkpt lat="46.58323" lon="0.34106">
        <ele>117.1</ele>
        <time>2020-07-03T20:49:39Z</time>
      </trkpt>
      <trkpt lat="46.58323" lon="0.34106">
        <ele>117.1</ele>
        <time>2020-07-03T20:49:40Z</time>
      </trkpt>
      <trkpt lat="46.58323" lon="0.34106">
        <ele>117.1</ele>
        <time>2020-07-03T20:49:41Z</time>
      </trkpt>
      <trkpt lat="46.58324" lon="0.34105">
        <ele>117.1</ele>
        <time>2020-07-03T20:49:42Z</time>
      </trkpt>
      <trkpt lat="46.58324" lon="0.34105">
        <ele>117.1</ele>
        <time>2020-07-03T20:49:43Z</time>
      </trkpt>
      <trkpt lat="46.5832" lon="0.34103">
        <ele>117.1</ele>
        <time>2020-07-03T20:50:19Z</time>
      </trkpt>
      <trkpt lat="46.58319" lon="0.34102">
        <ele>117.1</ele>
        <time>2020-07-03T20:50:20Z</time>
      </trkpt>
      <trkpt lat="46.58319" lon="0.34102">
        <ele>117.1</ele>
        <time>2020-07-03T20:50:21Z</time>
      </trkpt>
      <trkpt lat="46.58319" lon="0.34102">
        <ele>117.1</ele>
        <time>2020-07-03T20:50:22Z</time>
      </trkpt>
      <trkpt lat="46.58319" lon="0.34101">
        <ele>117.1</ele>
        <time>2020-07-03T20:50:23Z</time>
      </trkpt>
      <trkpt lat="46.58319" lon="0.341">
        <ele>117.1</ele>
        <time>2020-07-03T20:50:24Z</time>
      </trkpt>
      <trkpt lat="46.58319" lon="0.341">
        <ele>117.1</ele>
        <time>2020-07-03T20:50:25Z</time>
      </trkpt>
      <trkpt lat="46.58319" lon="0.341">
        <ele>117.1</ele>
        <time>2020-07-03T20:50:26Z</time>
      </trkpt>
      <trkpt lat="46.58319" lon="0.34099">
        <ele>117.1</ele>
        <time>2020-07-03T20:50:27Z</time>
      </trkpt>
      <trkpt lat="46.58319" lon="0.34099">
        <ele>117.1</ele>
        <time>2020-07-03T20:50:28Z</time>
      </trkpt>
      <trkpt lat="46.58319" lon="0.34099">
        <ele>117.1</ele>
        <time>2020-07-03T20:50:29Z</time>
      </trkpt>
      <trkpt lat="46.58319" lon="0.34099">
        <ele>117.1</ele>
        <time>2020-07-03T20:50:30Z</time>
      </trkpt>
      <trkpt lat="46.5832" lon="0.34099">
        <ele>117.1</ele>
        <time>2020-07-03T20:50:31Z</time>
      </trkpt>
      <trkpt lat="46.58335" lon="0.34119">
        <ele>116.3</ele>
        <time>2020-07-03T20:52:40Z</time>
      </trkpt>
      <trkpt lat="46.58336" lon="0.34118">
        <ele>116.3</ele>
        <time>2020-07-03T20:52:41Z</time>
      </trkpt>
      <trkpt lat="46.58336" lon="0.34118">
        <ele>116.3</ele>
        <time>2020-07-03T20:52:42Z</time>
      </trkpt>
      <trkpt lat="46.58336" lon="0.34118">
        <ele>116.3</ele>
        <time>2020-07-03T20:52:43Z</time>
      </trkpt>
      <trkpt lat="46.58336" lon="0.34118">
        <ele>116.3</ele>
        <time>2020-07-03T20:52:44Z</time>
      </trkpt>
      <trkpt lat="46.58336" lon="0.34118">
        <ele>116.3</ele>
        <time>2020-07-03T20:52:45Z</time>
      </trkpt>
      <trkpt lat="46.58336" lon="0.34118">
        <ele>116.3</ele>
        <time>2020-07-03T20:52:46Z</time>
      </trkpt>
      <trkpt lat="46.58335" lon="0.34118">
        <ele>116.3</ele>
        <time>2020-07-03T20:52:47Z</time>
      </trkpt>
      <trkpt lat="46.58335" lon="0.34118">
        <ele>116.3</ele>
        <time>2020-07-03T20:52:48Z</time>
      </trkpt>
      <trkpt lat="46.58335" lon="0.34118">
        <ele>116.3</ele>
        <time>2020-07-03T20:52:49Z</time>
      </trkpt>
      <trkpt lat="46.58335" lon="0.34118">
        <ele>116.3</ele>
        <time>2020-07-03T20:52:50Z</time>
      </trkpt>
      <trkpt lat="46.58335" lon="0.34118">
        <ele>116.3</ele>
        <time>2020-07-03T20:52:51Z</time>
      </trkpt>
      <trkpt lat="46.58335" lon="0.34118">
        <ele>116.3</ele>
        <time>2020-07-03T20:52:52Z</time>
      </trkpt>
      <trkpt lat="46.58333" lon="0.34127">
        <ele>116.3</ele>
        <time>2020-07-03T20:53:08Z</time>
      </trkpt>
      <trkpt lat="46.58333" lon="0.34128">
        <ele>116.3</ele>
        <time>2020-07-03T20:53:09Z</time>
      </trkpt>
      <trkpt lat="46.58334" lon="0.3413">
        <ele>116.3</ele>
        <time>2020-07-03T20:53:10Z</time>
      </trkpt>
      <trkpt lat="46.58334" lon="0.34132">
        <ele>116.3</ele>
        <time>2020-07-03T20:53:11Z</time>
      </trkpt>
      <trkpt lat="46.58335" lon="0.34133">
        <ele>116.3</ele>
        <time>2020-07-03T20:53:12Z</time>
      </trkpt>
      <trkpt lat="46.58335" lon="0.34134">
        <ele>116.3</ele>
        <time>2020-07-03T20:53:13Z</time>
      </trkpt>
      <trkpt lat="46.58335" lon="0.34134">
        <ele>116.3</ele>
        <time>2020-07-03T20:53:14Z</time>
      </trkpt>
      <trkpt lat="46.58334" lon="0.34132">
        <ele>116.3</ele>
        <time>2020-07-03T20:53:15Z</time>
      </trkpt>
      <trkpt lat="46.58334" lon="0.3413">
        <ele>116.3</ele>
        <time>2020-07-03T20:53:16Z</time>
      </trkpt>
      <trkpt lat="46.58334" lon="0.3413">
        <ele>116.3</ele>
        <time>2020-07-03T20:53:17Z</time>
      </trkpt>
      <trkpt lat="46.58334" lon="0.3413">
        <ele>116.3</ele>
        <time>2020-07-03T20:53:18Z</time>
      </trkpt>
      <trkpt lat="46.58334" lon="0.3413">
        <ele>116.3</ele>
        <time>2020-07-03T20:53:19Z</time>
      </trkpt>
      <trkpt lat="46.58334" lon="0.3413">
        <ele>116.3</ele>
        <time>2020-07-03T20:53:20Z</time>
      </trkpt>
      <trkpt lat="46.58334" lon="0.3413">
        <ele>116.3</ele>
        <time>2020-07-03T20:53:21Z</time>
      </trkpt>
      <trkpt lat="46.58334" lon="0.3413">
        <ele>116.3</ele>
        <time>2020-07-03T20:53:22Z</time>
      </trkpt>
      <trkpt lat="46.58334" lon="0.3413">
        <ele>116.3</ele>
        <time>2020-07-03T20:53:23Z</time>
      </trkpt>
      <trkpt lat="46.58334" lon="0.3413">
        <ele>116.3</ele>
        <time>2020-07-03T20:53:24Z</time>
      </trkpt>
      <trkpt lat="46.58334" lon="0.3413">
        <ele>116.3</ele>
        <time>2020-07-03T20:53:25Z</time>
      </trkpt>
      <trkpt lat="46.58334" lon="0.3413">
        <ele>116.3</ele>
        <time>2020-07-03T20:53:26Z</time>
      </trkpt>
      <trkpt lat="46.58334" lon="0.3413">
        <ele>116.3</ele>
        <time>2020-07-03T20:53:27Z</time>
      </trkpt>
      <trkpt lat="46.58334" lon="0.3413">
        <ele>116.3</ele>
        <time>2020-07-03T20:53:28Z</time>
      </trkpt>
      <trkpt lat="46.58334" lon="0.34129">
        <ele>116.3</ele>
        <time>2020-07-03T21:02:42Z</time>
      </trkpt>
      <trkpt lat="46.58334" lon="0.34128">
        <ele>116.3</ele>
        <time>2020-07-03T21:02:43Z</time>
      </trkpt>
      <trkpt lat="46.58334" lon="0.34128">
        <ele>116.3</ele>
        <time>2020-07-03T21:02:44Z</time>
      </trkpt>
      <trkpt lat="46.58335" lon="0.34128">
        <ele>116.3</ele>
        <time>2020-07-03T21:02:45Z</time>
      </trkpt>
      <trkpt lat="46.58335" lon="0.34128">
        <ele>116.3</ele>
        <time>2020-07-03T21:02:46Z</time>
      </trkpt>
      <trkpt lat="46.58335" lon="0.34128">
        <ele>116.3</ele>
        <time>2020-07-03T21:02:47Z</time>
      </trkpt>
      <trkpt lat="46.58335" lon="0.34128">
        <ele>116.3</ele>
        <time>2020-07-03T21:02:48Z</time>
      </trkpt>
      <trkpt lat="46.58335" lon="0.34128">
        <ele>116.3</ele>
        <time>2020-07-03T21:02:49Z</time>
      </trkpt>
      <trkpt lat="46.58336" lon="0.34128">
        <ele>116.3</ele>
        <time>2020-07-03T21:02:50Z</time>
      </trkpt>
      <trkpt lat="46.58336" lon="0.34128">
        <ele>116.3</ele>
        <time>2020-07-03T21:02:51Z</time>
      </trkpt>
      <trkpt lat="46.58336" lon="0.34128">
        <ele>116.3</ele>
        <time>2020-07-03T21:02:52Z</time>
      </trkpt>
      <trkpt lat="46.58336" lon="0.34128">
        <ele>116.3</ele>
        <time>2020-07-03T21:02:53Z</time>
      </trkpt>
      <trkpt lat="46.58336" lon="0.34128">
        <ele>116.3</ele>
        <time>2020-07-03T21:02:54Z</time>
      </trkpt>
      <trkpt lat="46.58333" lon="0.34125">
        <ele>116.3</ele>
        <time>2020-07-03T21:03:13Z</time>
      </trkpt>
      <trkpt lat="46.58331" lon="0.34126">
        <ele>116.3</ele>
        <time>2020-07-03T21:03:14Z</time>
      </trkpt>
      <trkpt lat="46.5833" lon="0.34125">
        <ele>116.3</ele>
        <time>2020-07-03T21:03:15Z</time>
      </trkpt>
      <trkpt lat="46.58329" lon="0.34124">
        <ele>116.3</ele>
        <time>2020-07-03T21:03:16Z</time>
      </trkpt>
      <trkpt lat="46.58329" lon="0.34123">
        <ele>116.3</ele>
        <time>2020-07-03T21:03:17Z</time>
      </trkpt>
      <trkpt lat="46.58328" lon="0.34122">
        <ele>116.3</ele>
        <time>2020-07-03T21:03:18Z</time>
      </trkpt>
      <trkpt lat="46.58328" lon="0.3412">
        <ele>116.3</ele>
        <time>2020-07-03T21:03:19Z</time>
      </trkpt>
      <trkpt lat="46.58326" lon="0.34118">
        <ele>116.3</ele>
        <time>2020-07-03T21:03:20Z</time>
      </trkpt>
      <trkpt lat="46.58325" lon="0.34118">
        <ele>116.3</ele>
        <time>2020-07-03T21:03:21Z</time>
      </trkpt>
      <trkpt lat="46.58325" lon="0.34118">
        <ele>116.3</ele>
        <time>2020-07-03T21:03:22Z</time>
      </trkpt>
      <trkpt lat="46.58325" lon="0.34119">
        <ele>116.3</ele>
        <time>2020-07-03T21:03:23Z</time>
      </trkpt>
      <trkpt lat="46.58325" lon="0.34119">
        <ele>116.3</ele>
        <time>2020-07-03T21:03:24Z</time>
      </trkpt>
      <trkpt lat="46.58325" lon="0.34119">
        <ele>116.3</ele>
        <time>2020-07-03T21:03:25Z</time>
      </trkpt>
      <trkpt lat="46.58325" lon="0.34119">
        <ele>116.3</ele>
        <time>2020-07-03T21:03:26Z</time>
      </trkpt>
      <trkpt lat="46.58325" lon="0.34119">
        <ele>116.3</ele>
        <time>2020-07-03T21:03:27Z</time>
      </trkpt>
      <trkpt lat="46.58325" lon="0.34119">
        <ele>116.3</ele>
        <time>2020-07-03T21:03:28Z</time>
      </trkpt>
      <trkpt lat="46.58325" lon="0.34119">
        <ele>116.3</ele>
        <time>2020-07-03T21:03:29Z</time>
      </trkpt>
      <trkpt lat="46.58325" lon="0.34119">
        <ele>116.3</ele>
        <time>2020-07-03T21:03:30Z</time>
      </trkpt>
      <trkpt lat="46.58325" lon="0.34119">
        <ele>116.3</ele>
        <time>2020-07-03T21:03:31Z</time>
      </trkpt>
      <trkpt lat="46.58325" lon="0.3412">
        <ele>116.3</ele>
        <time>2020-07-03T21:03:32Z</time>
      </trkpt>
      <trkpt lat="46.5833" lon="0.34128">
        <ele>116.3</ele>
        <time>2020-07-03T21:04:03Z</time>
      </trkpt>
      <trkpt lat="46.58331" lon="0.34129">
        <ele>116.3</ele>
        <time>2020-07-03T21:04:04Z</time>
      </trkpt>
      <trkpt lat="46.58332" lon="0.3413">
        <ele>116.3</ele>
        <time>2020-07-03T21:04:05Z</time>
      </trkpt>
      <trkpt lat="46.58332" lon="0.3413">
        <ele>116.3</ele>
        <time>2020-07-03T21:04:06Z</time>
      </trkpt>
      <trkpt lat="46.58332" lon="0.34131">
        <ele>116.3</ele>
        <time>2020-07-03T21:04:07Z</time>
      </trkpt>
      <trkpt lat="46.58333" lon="0.34131">
        <ele>116.3</ele>
        <time>2020-07-03T21:04:08Z</time>
      </trkpt>
      <trkpt lat="46.58333" lon="0.34131">
        <ele>116.3</ele>
        <time>2020-07-03T21:04:09Z</time>
      </trkpt>
      <trkpt lat="46.58333" lon="0.34131">
        <ele>116.3</ele>
        <time>2020-07-03T21:04:10Z</time>
      </trkpt>
      <trkpt lat="46.58333" lon="0.34131">
        <ele>116.3</ele>
        <time>2020-07-03T21:04:11Z</time>
      </trkpt>
      <trkpt lat="46.58333" lon="0.34131">
        <ele>116.3</ele>
        <time>2020-07-03T21:04:12Z</time>
      </trkpt>
      <trkpt lat="46.58333" lon="0.34131">
        <ele>116.3</ele>
        <time>2020-07-03T21:04:13Z</time>
      </trkpt>
      <trkpt lat="46.58333" lon="0.34132">
        <ele>116.3</ele>
        <time>2020-07-03T21:04:14Z</time>
      </trkpt>
      <trkpt lat="46.58333" lon="0.34132">
        <ele>116.3</ele>
        <time>2020-07-03T21:04:15Z</time>
      </trkpt>
      <trkpt lat="46.58333" lon="0.34133">
        <ele>116.3</ele>
        <time>2020-07-03T21:04:16Z</time>
      </trkpt>
      <trkpt lat="46.58334" lon="0.34134">
        <ele>116.3</ele>
        <time>2020-07-03T21:04:17Z</time>
      </trkpt>
      <trkpt lat="46.58334" lon="0.34134">
        <ele>116.3</ele>
        <time>2020-07-03T21:04:18Z</time>
      </trkpt>
      <trkpt lat="46.58334" lon="0.34134">
        <ele>116.3</ele>
        <time>2020-07-03T21:04:19Z</time>
      </trkpt>
      <trkpt lat="46.58334" lon="0.34134">
        <ele>116.3</ele>
        <time>2020-07-03T21:04:20Z</time>
      </trkpt>
      <trkpt lat="46.58334" lon="0.34135">
        <ele>116.3</ele>
        <time>2020-07-03T21:04:21Z</time>
      </trkpt>
      <trkpt lat="46.58334" lon="0.34135">
        <ele>116.3</ele>
        <time>2020-07-03T21:04:22Z</time>
      </trkpt>
      <trkpt lat="46.58334" lon="0.34135">
        <ele>116.3</ele>
        <time>2020-07-03T21:04:23Z</time>
      </trkpt>
      <trkpt lat="46.58334" lon="0.34135">
        <ele>116.3</ele>
        <time>2020-07-03T21:04:24Z</time>
      </trkpt>
      <trkpt lat="46.58335" lon="0.34134">
        <ele>116.3</ele>
        <time>2020-07-03T21:04:25Z</time>
      </trkpt>
      <trkpt lat="46.58335" lon="0.34134">
        <ele>116.3</ele>
        <time>2020-07-03T21:04:26Z</time>
      </trkpt>
      <trkpt lat="46.58335" lon="0.34134">
        <ele>116.3</ele>
        <time>2020-07-03T21:04:27Z</time>
      </trkpt>
      <trkpt lat="46.58335" lon="0.34134">
        <ele>116.3</ele>
        <time>2020-07-03T21:04:28Z</time>
      </trkpt>
      <trkpt lat="46.58335" lon="0.34134">
        <ele>116.3</ele>
        <time>2020-07-03T21:04:29Z</time>
      </trkpt>
      <trkpt lat="46.58335" lon="0.34134">
        <ele>116.3</ele>
        <time>2020-07-03T21:04:30Z</time>
      </trkpt>
      <trkpt lat="46.58335" lon="0.34134">
        <ele>116.3</ele>
        <time>2020-07-03T21:04:31Z</time>
      </trkpt>
      <trkpt lat="46.58335" lon="0.34135">
        <ele>116.3</ele>
        <time>2020-07-03T21:04:32Z</time>
      </trkpt>
      <trkpt lat="46.58338" lon="0.3413">
        <ele>116.3</ele>
        <time>2020-07-03T21:10:56Z</time>
      </trkpt>
      <trkpt lat="46.58339" lon="0.34129">
        <ele>116.3</ele>
        <time>2020-07-03T21:10:57Z</time>
      </trkpt>
      <trkpt lat="46.58339" lon="0.34129">
        <ele>116.3</ele>
        <time>2020-07-03T21:10:58Z</time>
      </trkpt>
      <trkpt lat="46.58339" lon="0.34129">
        <ele>116.3</ele>
        <time>2020-07-03T21:10:59Z</time>
      </trkpt>
      <trkpt lat="46.58339" lon="0.34129">
        <ele>116.3</ele>
        <time>2020-07-03T21:11:00Z</time>
      </trkpt>
      <trkpt lat="46.58339" lon="0.34129">
        <ele>116.3</ele>
        <time>2020-07-03T21:11:01Z</time>
      </trkpt>
      <trkpt lat="46.58339" lon="0.34129">
        <ele>116.3</ele>
        <time>2020-07-03T21:11:02Z</time>
      </trkpt>
      <trkpt lat="46.58339" lon="0.34129">
        <ele>116.3</ele>
        <time>2020-07-03T21:11:03Z</time>
      </trkpt>
      <trkpt lat="46.58339" lon="0.34129">
        <ele>116.3</ele>
        <time>2020-07-03T21:11:04Z</time>
      </trkpt>
      <trkpt lat="46.58339" lon="0.34129">
        <ele>116.3</ele>
        <time>2020-07-03T21:11:05Z</time>
      </trkpt>
      <trkpt lat="46.58339" lon="0.34129">
        <ele>116.3</ele>
        <time>2020-07-03T21:11:06Z</time>
      </trkpt>
      <trkpt lat="46.58339" lon="0.34129">
        <ele>116.3</ele>
        <time>2020-07-03T21:11:07Z</time>
      </trkpt>
      <trkpt lat="46.58339" lon="0.34129">
        <ele>116.3</ele>
        <time>2020-07-03T21:11:08Z</time>
      </trkpt>
      <trkpt lat="46.5834" lon="0.34131">
        <ele>116.3</ele>
        <time>2020-07-03T21:23:43Z</time>
      </trkpt>
      <trkpt lat="46.5834" lon="0.34132">
        <ele>116.3</ele>
        <time>2020-07-03T21:23:44Z</time>
      </trkpt>
      <trkpt lat="46.5834" lon="0.34131">
        <ele>116.3</ele>
        <time>2020-07-03T21:23:45Z</time>
      </trkpt>
      <trkpt lat="46.5834" lon="0.34129">
        <ele>116.3</ele>
        <time>2020-07-03T21:23:46Z</time>
      </trkpt>
      <trkpt lat="46.5834" lon="0.34128">
        <ele>116.3</ele>
        <time>2020-07-03T21:23:47Z</time>
      </trkpt>
      <trkpt lat="46.58339" lon="0.34128">
        <ele>116.3</ele>
        <time>2020-07-03T21:23:48Z</time>
      </trkpt>
      <trkpt lat="46.58339" lon="0.34128">
        <ele>116.3</ele>
        <time>2020-07-03T21:23:49Z</time>
      </trkpt>
      <trkpt lat="46.58339" lon="0.34128">
        <ele>116.3</ele>
        <time>2020-07-03T21:23:50Z</time>
      </trkpt>
      <trkpt lat="46.58339" lon="0.34127">
        <ele>116.3</ele>
        <time>2020-07-03T21:23:51Z</time>
      </trkpt>
      <trkpt lat="46.58339" lon="0.34127">
        <ele>116.3</ele>
        <time>2020-07-03T21:23:52Z</time>
      </trkpt>
      <trkpt lat="46.58339" lon="0.34127">
        <ele>116.3</ele>
        <time>2020-07-03T21:23:53Z</time>
      </trkpt>
      <trkpt lat="46.58339" lon="0.34127">
        <ele>116.3</ele>
        <time>2020-07-03T21:23:54Z</time>
      </trkpt>
      <trkpt lat="46.58339" lon="0.34128">
        <ele>116.3</ele>
        <time>2020-07-03T21:23:55Z</time>
      </trkpt>
      <trkpt lat="46.58339" lon="0.34127">
        <ele>116.3</ele>
        <time>2020-07-03T21:23:56Z</time>
      </trkpt>
      <trkpt lat="46.58339" lon="0.34126">
        <ele>116.3</ele>
        <time>2020-07-03T21:23:57Z</time>
      </trkpt>
      <trkpt lat="46.58339" lon="0.34126">
        <ele>116.3</ele>
        <time>2020-07-03T21:23:58Z</time>
      </trkpt>
      <trkpt lat="46.58339" lon="0.34127">
        <ele>116.3</ele>
        <time>2020-07-03T21:23:59Z</time>
      </trkpt>
      <trkpt lat="46.58339" lon="0.34127">
        <ele>116.3</ele>
        <time>2020-07-03T21:24:00Z</time>
      </trkpt>
      <trkpt lat="46.58339" lon="0.34127">
        <ele>116.3</ele>
        <time>2020-07-03T21:24:01Z</time>
      </trkpt>
      <trkpt lat="46.58339" lon="0.34126">
        <ele>116.3</ele>
        <time>2020-07-03T21:24:02Z</time>
      </trkpt>
      <trkpt lat="46.58339" lon="0.34126">
        <ele>116.3</ele>
        <time>2020-07-03T21:24:03Z</time>
      </trkpt>
      <trkpt lat="46.58339" lon="0.34126">
        <ele>116.3</ele>
        <time>2020-07-03T21:24:04Z</time>
      </trkpt>
      <trkpt lat="46.58339" lon="0.34127">
        <ele>116.3</ele>
        <time>2020-07-03T21:24:05Z</time>
      </trkpt>
      <trkpt lat="46.58339" lon="0.34127">
        <ele>116.3</ele>
        <time>2020-07-03T21:24:06Z</time>
      </trkpt>
      <trkpt lat="46.58334" lon="0.34144">
        <ele>116.3</ele>
        <time>2020-07-03T21:41:57Z</time>
      </trkpt>
      <trkpt lat="46.58333" lon="0.34143">
        <ele>116.3</ele>
        <time>2020-07-03T21:41:58Z</time>
      </trkpt>
      <trkpt lat="46.58333" lon="0.34148">
        <ele>116.3</ele>
        <time>2020-07-03T21:41:59Z</time>
      </trkpt>
      <trkpt lat="46.58332" lon="0.34146">
        <ele>116.3</ele>
        <time>2020-07-03T21:42:00Z</time>
      </trkpt>
      <trkpt lat="46.58332" lon="0.34143">
        <ele>116.3</ele>
        <time>2020-07-03T21:42:01Z</time>
      </trkpt>
      <trkpt lat="46.58336" lon="0.34143">
        <ele>116.3</ele>
        <time>2020-07-03T21:42:02Z</time>
      </trkpt>
      <trkpt lat="46.58337" lon="0.34143">
        <ele>116.3</ele>
        <time>2020-07-03T21:42:03Z</time>
      </trkpt>
      <trkpt lat="46.58336" lon="0.34143">
        <ele>116.3</ele>
        <time>2020-07-03T21:42:04Z</time>
      </trkpt>
      <trkpt lat="46.58335" lon="0.34142">
        <ele>116.3</ele>
        <time>2020-07-03T21:42:05Z</time>
      </trkpt>
      <trkpt lat="46.58335" lon="0.34141">
        <ele>116.3</ele>
        <time>2020-07-03T21:42:06Z</time>
      </trkpt>
      <trkpt lat="46.58335" lon="0.34141">
        <ele>116.3</ele>
        <time>2020-07-03T21:42:07Z</time>
      </trkpt>
      <trkpt lat="46.58335" lon="0.34141">
        <ele>116.3</ele>
        <time>2020-07-03T21:42:08Z</time>
      </trkpt>
      <trkpt lat="46.58335" lon="0.34141">
        <ele>116.3</ele>
        <time>2020-07-03T21:42:09Z</time>
      </trkpt>
      <trkpt lat="46.58335" lon="0.34141">
        <ele>116.3</ele>
        <time>2020-07-03T21:42:10Z</time>
      </trkpt>
      <trkpt lat="46.58334" lon="0.3414">
        <ele>116.3</ele>
        <time>2020-07-03T21:42:11Z</time>
      </trkpt>
      <trkpt lat="46.58334" lon="0.3414">
        <ele>116.3</ele>
        <time>2020-07-03T21:42:12Z</time>
      </trkpt>
      <trkpt lat="46.58334" lon="0.3414">
        <ele>116.3</ele>
        <time>2020-07-03T21:42:13Z</time>
      </trkpt>
      <trkpt lat="46.58335" lon="0.3414">
        <ele>116.3</ele>
        <time>2020-07-03T21:42:14Z</time>
      </trkpt>
      <trkpt lat="46.58335" lon="0.34139">
        <ele>116.3</ele>
        <time>2020-07-03T21:42:15Z</time>
      </trkpt>
      <trkpt lat="46.58335" lon="0.34139">
        <ele>116.3</ele>
        <time>2020-07-03T21:42:16Z</time>
      </trkpt>
      <trkpt lat="46.58335" lon="0.34139">
        <ele>116.3</ele>
        <time>2020-07-03T21:42:17Z</time>
      </trkpt>
      <trkpt lat="46.58335" lon="0.34138">
        <ele>116.3</ele>
        <time>2020-07-03T21:42:18Z</time>
      </trkpt>
      <trkpt lat="46.58335" lon="0.34138">
        <ele>116.3</ele>
        <time>2020-07-03T21:42:19Z</time>
      </trkpt>
      <trkpt lat="46.58335" lon="0.34138">
        <ele>116.1</ele>
        <time>2020-07-03T21:42:20Z</time>
      </trkpt>
      <trkpt lat="46.58335" lon="0.34137">
        <ele>116.1</ele>
        <time>2020-07-03T21:42:21Z</time>
      </trkpt>
      <trkpt lat="46.58336" lon="0.34136">
        <ele>116.1</ele>
        <time>2020-07-03T21:42:22Z</time>
      </trkpt>
      <trkpt lat="46.58336" lon="0.34135">
        <ele>116.1</ele>
        <time>2020-07-03T21:42:23Z</time>
      </trkpt>
      <trkpt lat="46.58337" lon="0.34134">
        <ele>116.1</ele>
        <time>2020-07-03T21:42:24Z</time>
      </trkpt>
      <trkpt lat="46.58337" lon="0.34134">
        <ele>116.1</ele>
        <time>2020-07-03T21:42:25Z</time>
      </trkpt>
      <trkpt lat="46.58336" lon="0.34134">
        <ele>116.1</ele>
        <time>2020-07-03T21:42:26Z</time>
      </trkpt>
      <trkpt lat="46.58336" lon="0.34134">
        <ele>116</ele>
        <time>2020-07-03T21:42:27Z</time>
      </trkpt>
      <trkpt lat="46.58336" lon="0.34133">
        <ele>116</ele>
        <time>2020-07-03T21:42:28Z</time>
      </trkpt>
      <trkpt lat="46.58336" lon="0.34133">
        <ele>116</ele>
        <time>2020-07-03T21:42:29Z</time>
      </trkpt>
      <trkpt lat="46.58336" lon="0.34133">
        <ele>116</ele>
        <time>2020-07-03T21:42:30Z</time>
      </trkpt>
      <trkpt lat="46.58336" lon="0.34132">
        <ele>116</ele>
        <time>2020-07-03T21:42:31Z</time>
      </trkpt>
      <trkpt lat="46.58336" lon="0.34132">
        <ele>116</ele>
        <time>2020-07-03T21:42:32Z</time>
      </trkpt>
      <trkpt lat="46.58336" lon="0.34131">
        <ele>116</ele>
        <time>2020-07-03T21:42:33Z</time>
      </trkpt>
      <trkpt lat="46.58337" lon="0.3413">
        <ele>116</ele>
        <time>2020-07-03T21:42:34Z</time>
      </trkpt>
      <trkpt lat="46.58337" lon="0.3413">
        <ele>116</ele>
        <time>2020-07-03T21:42:35Z</time>
      </trkpt>
      <trkpt lat="46.58337" lon="0.34129">
        <ele>116</ele>
        <time>2020-07-03T21:42:36Z</time>
      </trkpt>
      <trkpt lat="46.58337" lon="0.34129">
        <ele>116</ele>
        <time>2020-07-03T21:42:37Z</time>
      </trkpt>
      <trkpt lat="46.58336" lon="0.34129">
        <ele>116</ele>
        <time>2020-07-03T21:42:38Z</time>
      </trkpt>
      <trkpt lat="46.58336" lon="0.34129">
        <ele>116</ele>
        <time>2020-07-03T21:42:39Z</time>
      </trkpt>
      <trkpt lat="46.58337" lon="0.34128">
        <ele>116</ele>
        <time>2020-07-03T21:42:40Z</time>
      </trkpt>
      <trkpt lat="46.58337" lon="0.34127">
        <ele>115.9</ele>
        <time>2020-07-03T21:42:41Z</time>
      </trkpt>
      <trkpt lat="46.58337" lon="0.34127">
        <ele>115.9</ele>
        <time>2020-07-03T21:42:42Z</time>
      </trkpt>
      <trkpt lat="46.58338" lon="0.34127">
        <ele>115.9</ele>
        <time>2020-07-03T21:42:43Z</time>
      </trkpt>
      <trkpt lat="46.58338" lon="0.34126">
        <ele>115.9</ele>
        <time>2020-07-03T21:42:44Z</time>
      </trkpt>
      <trkpt lat="46.58338" lon="0.34126">
        <ele>115.9</ele>
        <time>2020-07-03T21:42:45Z</time>
      </trkpt>
      <trkpt lat="46.58338" lon="0.34126">
        <ele>115.9</ele>
        <time>2020-07-03T21:42:46Z</time>
      </trkpt>
      <trkpt lat="46.58338" lon="0.34126">
        <ele>115.9</ele>
        <time>2020-07-03T21:42:47Z</time>
      </trkpt>
      <trkpt lat="46.58338" lon="0.34126">
        <ele>115.9</ele>
        <time>2020-07-03T21:42:48Z</time>
      </trkpt>
      <trkpt lat="46.58338" lon="0.34126">
        <ele>115.9</ele>
        <time>2020-07-03T21:42:49Z</time>
      </trkpt>
      <trkpt lat="46.58338" lon="0.34126">
        <ele>115.9</ele>
        <time>2020-07-03T21:42:50Z</time>
      </trkpt>
      <trkpt lat="46.58338" lon="0.34126">
        <ele>115.9</ele>
        <time>2020-07-03T21:42:51Z</time>
      </trkpt>
      <trkpt lat="46.58338" lon="0.34126">
        <ele>115.9</ele>
        <time>2020-07-03T21:42:52Z</time>
      </trkpt>
      <trkpt lat="46.58338" lon="0.34126">
        <ele>115.9</ele>
        <time>2020-07-03T21:42:53Z</time>
      </trkpt>
      <trkpt lat="46.58338" lon="0.34126">
        <ele>115.9</ele>
        <time>2020-07-03T21:42:54Z</time>
      </trkpt>
      <trkpt lat="46.58338" lon="0.34126">
        <ele>115.9</ele>
        <time>2020-07-03T21:42:55Z</time>
      </trkpt>
      <trkpt lat="46.58338" lon="0.34125">
        <ele>115.9</ele>
        <time>2020-07-03T21:42:56Z</time>
      </trkpt>
      <trkpt lat="46.58338" lon="0.34125">
        <ele>115.9</ele>
        <time>2020-07-03T21:42:57Z</time>
      </trkpt>
      <trkpt lat="46.58347" lon="0.34111">
        <ele>115.7</ele>
        <time>2020-07-03T21:45:31Z</time>
      </trkpt>
      <trkpt lat="46.58348" lon="0.34111">
        <ele>115.7</ele>
        <time>2020-07-03T21:45:32Z</time>
      </trkpt>
      <trkpt lat="46.58348" lon="0.34111">
        <ele>115.7</ele>
        <time>2020-07-03T21:45:33Z</time>
      </trkpt>
      <trkpt lat="46.58346" lon="0.34111">
        <ele>115.6</ele>
        <time>2020-07-03T21:45:34Z</time>
      </trkpt>
      <trkpt lat="46.58346" lon="0.3411">
        <ele>115.6</ele>
        <time>2020-07-03T21:45:35Z</time>
      </trkpt>
      <trkpt lat="46.58346" lon="0.3411">
        <ele>115.6</ele>
        <time>2020-07-03T21:45:36Z</time>
      </trkpt>
      <trkpt lat="46.58346" lon="0.3411">
        <ele>115.6</ele>
        <time>2020-07-03T21:45:37Z</time>
      </trkpt>
      <trkpt lat="46.58346" lon="0.3411">
        <ele>115.6</ele>
        <time>2020-07-03T21:45:38Z</time>
      </trkpt>
      <trkpt lat="46.58345" lon="0.3411">
        <ele>115.6</ele>
        <time>2020-07-03T21:45:39Z</time>
      </trkpt>
      <trkpt lat="46.58345" lon="0.34111">
        <ele>115.6</ele>
        <time>2020-07-03T21:45:40Z</time>
      </trkpt>
      <trkpt lat="46.58345" lon="0.34112">
        <ele>115.6</ele>
        <time>2020-07-03T21:45:41Z</time>
      </trkpt>
      <trkpt lat="46.58344" lon="0.34112">
        <ele>115.6</ele>
        <time>2020-07-03T21:45:42Z</time>
      </trkpt>
      <trkpt lat="46.58344" lon="0.34112">
        <ele>115.6</ele>
        <time>2020-07-03T21:45:43Z</time>
      </trkpt>
      <trkpt lat="46.58344" lon="0.34113">
        <ele>115.6</ele>
        <time>2020-07-03T21:45:44Z</time>
      </trkpt>
      <trkpt lat="46.58344" lon="0.34113">
        <ele>115.6</ele>
        <time>2020-07-03T21:45:45Z</time>
      </trkpt>
      <trkpt lat="46.58344" lon="0.34113">
        <ele>115.6</ele>
        <time>2020-07-03T21:45:46Z</time>
      </trkpt>
      <trkpt lat="46.58344" lon="0.34113">
        <ele>115.6</ele>
        <time>2020-07-03T21:45:47Z</time>
      </trkpt>
      <trkpt lat="46.58344" lon="0.34113">
        <ele>115.5</ele>
        <time>2020-07-03T21:45:48Z</time>
      </trkpt>
      <trkpt lat="46.58344" lon="0.34113">
        <ele>115.5</ele>
        <time>2020-07-03T21:45:49Z</time>
      </trkpt>
      <trkpt lat="46.58343" lon="0.34112">
        <ele>115.5</ele>
        <time>2020-07-03T21:45:50Z</time>
      </trkpt>
      <trkpt lat="46.58344" lon="0.34112">
        <ele>115.5</ele>
        <time>2020-07-03T21:45:51Z</time>
      </trkpt>
      <trkpt lat="46.58345" lon="0.34108">
        <ele>115.5</ele>
        <time>2020-07-03T21:46:37Z</time>
      </trkpt>
      <trkpt lat="46.58345" lon="0.34107">
        <ele>115.5</ele>
        <time>2020-07-03T21:46:38Z</time>
      </trkpt>
      <trkpt lat="46.58345" lon="0.34107">
        <ele>115.5</ele>
        <time>2020-07-03T21:46:39Z</time>
      </trkpt>
      <trkpt lat="46.58345" lon="0.34107">
        <ele>115.5</ele>
        <time>2020-07-03T21:46:40Z</time>
      </trkpt>
      <trkpt lat="46.58345" lon="0.34107">
        <ele>115.5</ele>
        <time>2020-07-03T21:46:41Z</time>
      </trkpt>
      <trkpt lat="46.58345" lon="0.34107">
        <ele>115.5</ele>
        <time>2020-07-03T21:46:42Z</time>
      </trkpt>
      <trkpt lat="46.58345" lon="0.34107">
        <ele>115.5</ele>
        <time>2020-07-03T21:46:43Z</time>
      </trkpt>
      <trkpt lat="46.58346" lon="0.34106">
        <ele>115.4</ele>
        <time>2020-07-03T21:46:44Z</time>
      </trkpt>
      <trkpt lat="46.58346" lon="0.34106">
        <ele>115.4</ele>
        <time>2020-07-03T21:46:45Z</time>
      </trkpt>
      <trkpt lat="46.58345" lon="0.34106">
        <ele>115.4</ele>
        <time>2020-07-03T21:46:46Z</time>
      </trkpt>
      <trkpt lat="46.58346" lon="0.34106">
        <ele>115.4</ele>
        <time>2020-07-03T21:46:47Z</time>
      </trkpt>
      <trkpt lat="46.58346" lon="0.34105">
        <ele>115.4</ele>
        <time>2020-07-03T21:46:48Z</time>
      </trkpt>
      <trkpt lat="46.58346" lon="0.34105">
        <ele>115.4</ele>
        <time>2020-07-03T21:46:49Z</time>
      </trkpt>
      <trkpt lat="46.58346" lon="0.34105">
        <ele>115.4</ele>
        <time>2020-07-03T21:46:50Z</time>
      </trkpt>
      <trkpt lat="46.58346" lon="0.34104">
        <ele>115.4</ele>
        <time>2020-07-03T21:46:51Z</time>
      </trkpt>
      <trkpt lat="46.58346" lon="0.34104">
        <ele>115.4</ele>
        <time>2020-07-03T21:46:52Z</time>
      </trkpt>
      <trkpt lat="46.58346" lon="0.34103">
        <ele>115.4</ele>
        <time>2020-07-03T21:46:53Z</time>
      </trkpt>
      <trkpt lat="46.58346" lon="0.34103">
        <ele>115.4</ele>
        <time>2020-07-03T21:46:54Z</time>
      </trkpt>
      <trkpt lat="46.58346" lon="0.34102">
        <ele>115.4</ele>
        <time>2020-07-03T21:46:55Z</time>
      </trkpt>
      <trkpt lat="46.58345" lon="0.34102">
        <ele>115.4</ele>
        <time>2020-07-03T21:46:56Z</time>
      </trkpt>
      <trkpt lat="46.58345" lon="0.34101">
        <ele>115.3</ele>
        <time>2020-07-03T21:46:57Z</time>
      </trkpt>
      <trkpt lat="46.58345" lon="0.341">
        <ele>115.3</ele>
        <time>2020-07-03T21:46:58Z</time>
      </trkpt>
      <trkpt lat="46.58345" lon="0.341">
        <ele>115.3</ele>
        <time>2020-07-03T21:46:59Z</time>
      </trkpt>
      <trkpt lat="46.58345" lon="0.34099">
        <ele>115.3</ele>
        <time>2020-07-03T21:47:00Z</time>
      </trkpt>
      <trkpt lat="46.58345" lon="0.34099">
        <ele>115.3</ele>
        <time>2020-07-03T21:47:01Z</time>
      </trkpt>
      <trkpt lat="46.58345" lon="0.34098">
        <ele>115.3</ele>
        <time>2020-07-03T21:47:02Z</time>
      </trkpt>
      <trkpt lat="46.58345" lon="0.34098">
        <ele>115.3</ele>
        <time>2020-07-03T21:47:03Z</time>
      </trkpt>
      <trkpt lat="46.58344" lon="0.34099">
        <ele>115.3</ele>
        <time>2020-07-03T21:47:04Z</time>
      </trkpt>
      <trkpt lat="46.58344" lon="0.341">
        <ele>115.3</ele>
        <time>2020-07-03T21:47:05Z</time>
      </trkpt>
      <trkpt lat="46.58344" lon="0.34101">
        <ele>115.3</ele>
        <time>2020-07-03T21:47:06Z</time>
      </trkpt>
      <trkpt lat="46.58344" lon="0.34102">
        <ele>115.2</ele>
        <time>2020-07-03T21:47:07Z</time>
      </trkpt>
      <trkpt lat="46.58343" lon="0.34101">
        <ele>115.2</ele>
        <time>2020-07-03T21:47:08Z</time>
      </trkpt>
      <trkpt lat="46.58343" lon="0.341">
        <ele>115.2</ele>
        <time>2020-07-03T21:47:09Z</time>
      </trkpt>
      <trkpt lat="46.58343" lon="0.341">
        <ele>115.2</ele>
        <time>2020-07-03T21:47:10Z</time>
      </trkpt>
      <trkpt lat="46.58343" lon="0.341">
        <ele>115.2</ele>
        <time>2020-07-03T21:47:11Z</time>
      </trkpt>
      <trkpt lat="46.58343" lon="0.341">
        <ele>115.2</ele>
        <time>2020-07-03T21:47:12Z</time>
      </trkpt>
      <trkpt lat="46.58344" lon="0.341">
        <ele>115.2</ele>
        <time>2020-07-03T21:47:13Z</time>
      </trkpt>
      <trkpt lat="46.58345" lon="0.34099">
        <ele>115.2</ele>
        <time>2020-07-03T21:47:14Z</time>
      </trkpt>
      <trkpt lat="46.58346" lon="0.34099">
        <ele>115.1</ele>
        <time>2020-07-03T21:47:15Z</time>
      </trkpt>
      <trkpt lat="46.58347" lon="0.34099">
        <ele>115.1</ele>
        <time>2020-07-03T21:47:16Z</time>
      </trkpt>
      <trkpt lat="46.58348" lon="0.34099">
        <ele>115.1</ele>
        <time>2020-07-03T21:47:17Z</time>
      </trkpt>
      <trkpt lat="46.58349" lon="0.341">
        <ele>115.1</ele>
        <time>2020-07-03T21:47:18Z</time>
      </trkpt>
      <trkpt lat="46.5835" lon="0.341">
        <ele>115</ele>
        <time>2020-07-03T21:47:19Z</time>
      </trkpt>
      <trkpt lat="46.58351" lon="0.341">
        <ele>115</ele>
        <time>2020-07-03T21:47:20Z</time>
      </trkpt>
      <trkpt lat="46.58351" lon="0.34101">
        <ele>115</ele>
        <time>2020-07-03T21:47:21Z</time>
      </trkpt>
      <trkpt lat="46.5835" lon="0.341">
        <ele>115</ele>
        <time>2020-07-03T21:47:22Z</time>
      </trkpt>
      <trkpt lat="46.5835" lon="0.34099">
        <ele>115</ele>
        <time>2020-07-03T21:47:23Z</time>
      </trkpt>
      <trkpt lat="46.5835" lon="0.34098">
        <ele>115</ele>
        <time>2020-07-03T21:47:24Z</time>
      </trkpt>
      <trkpt lat="46.5835" lon="0.34098">
        <ele>115</ele>
        <time>2020-07-03T21:47:25Z</time>
      </trkpt>
      <trkpt lat="46.58351" lon="0.34097">
        <ele>115</ele>
        <time>2020-07-03T21:47:26Z</time>
      </trkpt>
      <trkpt lat="46.58351" lon="0.34097">
        <ele>115</ele>
        <time>2020-07-03T21:47:27Z</time>
      </trkpt>
      <trkpt lat="46.5835" lon="0.34097">
        <ele>115</ele>
        <time>2020-07-03T21:47:28Z</time>
      </trkpt>
      <trkpt lat="46.5835" lon="0.34098">
        <ele>115</ele>
        <time>2020-07-03T21:47:29Z</time>
      </trkpt>
      <trkpt lat="46.5835" lon="0.34099">
        <ele>114.9</ele>
        <time>2020-07-03T21:47:30Z</time>
      </trkpt>
      <trkpt lat="46.5835" lon="0.34098">
        <ele>114.9</ele>
        <time>2020-07-03T21:47:31Z</time>
      </trkpt>
      <trkpt lat="46.5835" lon="0.34098">
        <ele>114.9</ele>
        <time>2020-07-03T21:47:32Z</time>
      </trkpt>
      <trkpt lat="46.5835" lon="0.34098">
        <ele>114.9</ele>
        <time>2020-07-03T21:47:33Z</time>
      </trkpt>
      <trkpt lat="46.5835" lon="0.34099">
        <ele>114.9</ele>
        <time>2020-07-03T21:47:34Z</time>
      </trkpt>
      <trkpt lat="46.5835" lon="0.34099">
        <ele>114.9</ele>
        <time>2020-07-03T21:47:35Z</time>
      </trkpt>
      <trkpt lat="46.5835" lon="0.34099">
        <ele>114.9</ele>
        <time>2020-07-03T21:47:36Z</time>
      </trkpt>
      <trkpt lat="46.58349" lon="0.341">
        <ele>114.9</ele>
        <time>2020-07-03T21:47:37Z</time>
      </trkpt>
      <trkpt lat="46.58348" lon="0.34101">
        <ele>114.9</ele>
        <time>2020-07-03T21:47:38Z</time>
      </trkpt>
      <trkpt lat="46.58348" lon="0.34101">
        <ele>114.9</ele>
        <time>2020-07-03T21:47:39Z</time>
      </trkpt>
      <trkpt lat="46.58349" lon="0.34101">
        <ele>114.9</ele>
        <time>2020-07-03T21:47:40Z</time>
      </trkpt>
      <trkpt lat="46.58348" lon="0.34102">
        <ele>114.8</ele>
        <time>2020-07-03T21:47:41Z</time>
      </trkpt>
      <trkpt lat="46.58348" lon="0.34103">
        <ele>114.8</ele>
        <time>2020-07-03T21:47:42Z</time>
      </trkpt>
      <trkpt lat="46.58348" lon="0.34103">
        <ele>114.8</ele>
        <time>2020-07-03T21:47:43Z</time>
      </trkpt>
      <trkpt lat="46.58348" lon="0.34103">
        <ele>114.8</ele>
        <time>2020-07-03T21:47:44Z</time>
      </trkpt>
      <trkpt lat="46.58348" lon="0.34103">
        <ele>114.8</ele>
        <time>2020-07-03T21:47:45Z</time>
      </trkpt>
      <trkpt lat="46.58348" lon="0.34103">
        <ele>114.8</ele>
        <time>2020-07-03T21:47:46Z</time>
      </trkpt>
      <trkpt lat="46.58347" lon="0.34104">
        <ele>114.8</ele>
        <time>2020-07-03T21:47:47Z</time>
      </trkpt>
      <trkpt lat="46.58347" lon="0.34105">
        <ele>114.8</ele>
        <time>2020-07-03T21:47:48Z</time>
      </trkpt>
      <trkpt lat="46.58342" lon="0.34107">
        <ele>114.6</ele>
        <time>2020-07-03T21:50:46Z</time>
      </trkpt>
      <trkpt lat="46.58342" lon="0.34107">
        <ele>114.6</ele>
        <time>2020-07-03T21:50:47Z</time>
      </trkpt>
      <trkpt lat="46.58343" lon="0.34106">
        <ele>114.6</ele>
        <time>2020-07-03T21:50:48Z</time>
      </trkpt>
      <trkpt lat="46.58343" lon="0.34105">
        <ele>114.6</ele>
        <time>2020-07-03T21:50:49Z</time>
      </trkpt>
      <trkpt lat="46.58344" lon="0.34105">
        <ele>114.6</ele>
        <time>2020-07-03T21:50:50Z</time>
      </trkpt>
      <trkpt lat="46.58344" lon="0.34105">
        <ele>114.6</ele>
        <time>2020-07-03T21:50:51Z</time>
      </trkpt>
      <trkpt lat="46.58344" lon="0.34104">
        <ele>114.6</ele>
        <time>2020-07-03T21:50:52Z</time>
      </trkpt>
      <trkpt lat="46.58345" lon="0.34103">
        <ele>114.5</ele>
        <time>2020-07-03T21:50:53Z</time>
      </trkpt>
      <trkpt lat="46.58346" lon="0.34102">
        <ele>114.5</ele>
        <time>2020-07-03T21:50:54Z</time>
      </trkpt>
      <trkpt lat="46.58346" lon="0.34102">
        <ele>114.5</ele>
        <time>2020-07-03T21:50:55Z</time>
      </trkpt>
      <trkpt lat="46.58347" lon="0.34101">
        <ele>114.5</ele>
        <time>2020-07-03T21:50:56Z</time>
      </trkpt>
      <trkpt lat="46.58347" lon="0.34101">
        <ele>114.5</ele>
        <time>2020-07-03T21:50:57Z</time>
      </trkpt>
      <trkpt lat="46.58347" lon="0.34101">
        <ele>114.5</ele>
        <time>2020-07-03T21:50:58Z</time>
      </trkpt>
      <trkpt lat="46.58347" lon="0.34101">
        <ele>114.5</ele>
        <time>2020-07-03T21:50:59Z</time>
      </trkpt>
      <trkpt lat="46.58347" lon="0.341">
        <ele>114.5</ele>
        <time>2020-07-03T21:51:00Z</time>
      </trkpt>
      <trkpt lat="46.58347" lon="0.341">
        <ele>114.5</ele>
        <time>2020-07-03T21:51:01Z</time>
      </trkpt>
      <trkpt lat="46.58347" lon="0.34099">
        <ele>114.5</ele>
        <time>2020-07-03T21:51:02Z</time>
      </trkpt>
      <trkpt lat="46.58347" lon="0.34099">
        <ele>114.5</ele>
        <time>2020-07-03T21:51:03Z</time>
      </trkpt>
      <trkpt lat="46.58348" lon="0.34099">
        <ele>114.4</ele>
        <time>2020-07-03T21:51:04Z</time>
      </trkpt>
      <trkpt lat="46.58348" lon="0.34099">
        <ele>114.4</ele>
        <time>2020-07-03T21:51:05Z</time>
      </trkpt>
      <trkpt lat="46.58348" lon="0.34099">
        <ele>114.4</ele>
        <time>2020-07-03T21:51:06Z</time>
      </trkpt>
      <trkpt lat="46.58349" lon="0.34098">
        <ele>114.4</ele>
        <time>2020-07-03T21:51:07Z</time>
      </trkpt>
      <trkpt lat="46.58349" lon="0.34098">
        <ele>114.4</ele>
        <time>2020-07-03T21:51:08Z</time>
      </trkpt>
      <trkpt lat="46.58349" lon="0.34098">
        <ele>114.4</ele>
        <time>2020-07-03T21:51:09Z</time>
      </trkpt>
      <trkpt lat="46.58349" lon="0.34098">
        <ele>114.4</ele>
        <time>2020-07-03T21:51:10Z</time>
      </trkpt>
      <trkpt lat="46.58349" lon="0.34098">
        <ele>114.4</ele>
        <time>2020-07-03T21:51:11Z</time>
      </trkpt>
      <trkpt lat="46.58349" lon="0.34099">
        <ele>114.4</ele>
        <time>2020-07-03T21:51:12Z</time>
      </trkpt>
      <trkpt lat="46.58349" lon="0.34099">
        <ele>114.4</ele>
        <time>2020-07-03T21:51:13Z</time>
      </trkpt>
      <trkpt lat="46.58349" lon="0.34099">
        <ele>114.4</ele>
        <time>2020-07-03T21:51:14Z</time>
      </trkpt>
      <trkpt lat="46.58349" lon="0.34099">
        <ele>114.4</ele>
        <time>2020-07-03T21:51:15Z</time>
      </trkpt>
      <trkpt lat="46.58349" lon="0.34099">
        <ele>114.4</ele>
        <time>2020-07-03T21:51:16Z</time>
      </trkpt>
      <trkpt lat="46.58349" lon="0.34099">
        <ele>114.3</ele>
        <time>2020-07-03T21:51:17Z</time>
      </trkpt>
      <trkpt lat="46.58349" lon="0.34099">
        <ele>114.3</ele>
        <time>2020-07-03T21:51:18Z</time>
      </trkpt>
      <trkpt lat="46.58349" lon="0.34099">
        <ele>114.3</ele>
        <time>2020-07-03T21:51:19Z</time>
      </trkpt>
      <trkpt lat="46.58349" lon="0.34099">
        <ele>114.3</ele>
        <time>2020-07-03T21:51:20Z</time>
      </trkpt>
      <trkpt lat="46.58349" lon="0.34099">
        <ele>114.3</ele>
        <time>2020-07-03T21:51:21Z</time>
      </trkpt>
      <trkpt lat="46.58348" lon="0.34101">
        <ele>114.3</ele>
        <time>2020-07-03T21:53:52Z</time>
      </trkpt>
      <trkpt lat="46.58349" lon="0.34099">
        <ele>114.3</ele>
        <time>2020-07-03T21:53:53Z</time>
      </trkpt>
      <trkpt lat="46.58349" lon="0.34099">
        <ele>114.3</ele>
        <time>2020-07-03T21:53:54Z</time>
      </trkpt>
      <trkpt lat="46.5835" lon="0.34098">
        <ele>114.2</ele>
        <time>2020-07-03T21:53:55Z</time>
      </trkpt>
      <trkpt lat="46.5835" lon="0.34097">
        <ele>114.2</ele>
        <time>2020-07-03T21:53:56Z</time>
      </trkpt>
      <trkpt lat="46.58351" lon="0.34095">
        <ele>114.2</ele>
        <time>2020-07-03T21:53:57Z</time>
      </trkpt>
      <trkpt lat="46.58351" lon="0.34094">
        <ele>114.2</ele>
        <time>2020-07-03T21:53:58Z</time>
      </trkpt>
      <trkpt lat="46.58352" lon="0.34094">
        <ele>114.2</ele>
        <time>2020-07-03T21:53:59Z</time>
      </trkpt>
      <trkpt lat="46.58352" lon="0.34094">
        <ele>114.2</ele>
        <time>2020-07-03T21:54:00Z</time>
      </trkpt>
      <trkpt lat="46.58352" lon="0.34093">
        <ele>114.1</ele>
        <time>2020-07-03T21:54:01Z</time>
      </trkpt>
      <trkpt lat="46.58353" lon="0.34092">
        <ele>114.1</ele>
        <time>2020-07-03T21:54:02Z</time>
      </trkpt>
      <trkpt lat="46.58353" lon="0.34092">
        <ele>114.1</ele>
        <time>2020-07-03T21:54:03Z</time>
      </trkpt>
      <trkpt lat="46.58353" lon="0.34091">
        <ele>114.1</ele>
        <time>2020-07-03T21:54:04Z</time>
      </trkpt>
      <trkpt lat="46.58354" lon="0.3409">
        <ele>114.1</ele>
        <time>2020-07-03T21:54:05Z</time>
      </trkpt>
      <trkpt lat="46.58354" lon="0.3409">
        <ele>114.1</ele>
        <time>2020-07-03T21:54:06Z</time>
      </trkpt>
      <trkpt lat="46.58355" lon="0.34088">
        <ele>114</ele>
        <time>2020-07-03T21:54:07Z</time>
      </trkpt>
      <trkpt lat="46.58356" lon="0.34085">
        <ele>114</ele>
        <time>2020-07-03T21:54:08Z</time>
      </trkpt>
      <trkpt lat="46.58356" lon="0.34084">
        <ele>114</ele>
        <time>2020-07-03T21:54:09Z</time>
      </trkpt>
      <trkpt lat="46.58357" lon="0.34082">
        <ele>113.9</ele>
        <time>2020-07-03T21:54:10Z</time>
      </trkpt>
      <trkpt lat="46.58357" lon="0.34082">
        <ele>113.9</ele>
        <time>2020-07-03T21:54:11Z</time>
      </trkpt>
      <trkpt lat="46.58358" lon="0.34081">
        <ele>113.9</ele>
        <time>2020-07-03T21:54:12Z</time>
      </trkpt>
      <trkpt lat="46.58358" lon="0.34081">
        <ele>113.9</ele>
        <time>2020-07-03T21:54:13Z</time>
      </trkpt>
      <trkpt lat="46.58358" lon="0.3408">
        <ele>113.9</ele>
        <time>2020-07-03T21:54:14Z</time>
      </trkpt>
      <trkpt lat="46.58358" lon="0.3408">
        <ele>113.9</ele>
        <time>2020-07-03T21:54:15Z</time>
      </trkpt>
      <trkpt lat="46.58359" lon="0.34079">
        <ele>113.9</ele>
        <time>2020-07-03T21:54:16Z</time>
      </trkpt>
      <trkpt lat="46.58359" lon="0.34078">
        <ele>113.8</ele>
        <time>2020-07-03T21:54:17Z</time>
      </trkpt>
      <trkpt lat="46.58359" lon="0.34078">
        <ele>113.8</ele>
        <time>2020-07-03T21:54:18Z</time>
      </trkpt>
      <trkpt lat="46.58359" lon="0.34077">
        <ele>113.8</ele>
        <time>2020-07-03T21:54:19Z</time>
      </trkpt>
      <trkpt lat="46.58359" lon="0.34078">
        <ele>113.8</ele>
        <time>2020-07-03T21:54:20Z</time>
      </trkpt>
      <trkpt lat="46.58358" lon="0.34081">
        <ele>113.7</ele>
        <time>2020-07-03T21:54:21Z</time>
      </trkpt>
      <trkpt lat="46.58358" lon="0.34081">
        <ele>113.7</ele>
        <time>2020-07-03T21:54:22Z</time>
      </trkpt>
      <trkpt lat="46.58358" lon="0.34081">
        <ele>113.7</ele>
        <time>2020-07-03T21:54:23Z</time>
      </trkpt>
      <trkpt lat="46.58359" lon="0.3408">
        <ele>113.7</ele>
        <time>2020-07-03T21:54:24Z</time>
      </trkpt>
      <trkpt lat="46.58359" lon="0.3408">
        <ele>113.7</ele>
        <time>2020-07-03T21:54:25Z</time>
      </trkpt>
      <trkpt lat="46.5836" lon="0.3408">
        <ele>113.7</ele>
        <time>2020-07-03T21:54:26Z</time>
      </trkpt>
      <trkpt lat="46.58359" lon="0.3408">
        <ele>113.7</ele>
        <time>2020-07-03T21:54:27Z</time>
      </trkpt>
      <trkpt lat="46.58359" lon="0.34081">
        <ele>113.7</ele>
        <time>2020-07-03T21:54:28Z</time>
      </trkpt>
      <trkpt lat="46.58359" lon="0.34081">
        <ele>113.7</ele>
        <time>2020-07-03T21:54:29Z</time>
      </trkpt>
      <trkpt lat="46.58359" lon="0.34081">
        <ele>113.6</ele>
        <time>2020-07-03T21:54:30Z</time>
      </trkpt>
      <trkpt lat="46.58359" lon="0.34081">
        <ele>113.6</ele>
        <time>2020-07-03T21:54:31Z</time>
      </trkpt>
      <trkpt lat="46.58367" lon="0.34084">
        <ele>113.5</ele>
        <time>2020-07-03T21:57:29Z</time>
      </trkpt>
      <trkpt lat="46.58367" lon="0.34083">
        <ele>113.5</ele>
        <time>2020-07-03T21:57:30Z</time>
      </trkpt>
      <trkpt lat="46.58368" lon="0.34083">
        <ele>113.4</ele>
        <time>2020-07-03T21:57:31Z</time>
      </trkpt>
      <trkpt lat="46.58368" lon="0.34082">
        <ele>113.4</ele>
        <time>2020-07-03T21:57:32Z</time>
      </trkpt>
      <trkpt lat="46.58369" lon="0.34082">
        <ele>113.4</ele>
        <time>2020-07-03T21:57:33Z</time>
      </trkpt>
      <trkpt lat="46.58369" lon="0.34081">
        <ele>113.4</ele>
        <time>2020-07-03T21:57:34Z</time>
      </trkpt>
      <trkpt lat="46.58369" lon="0.34081">
        <ele>113.4</ele>
        <time>2020-07-03T21:57:35Z</time>
      </trkpt>
      <trkpt lat="46.58368" lon="0.34081">
        <ele>113.4</ele>
        <time>2020-07-03T21:57:36Z</time>
      </trkpt>
      <trkpt lat="46.58368" lon="0.34081">
        <ele>113.4</ele>
        <time>2020-07-03T21:57:37Z</time>
      </trkpt>
      <trkpt lat="46.58368" lon="0.3408">
        <ele>113.3</ele>
        <time>2020-07-03T21:57:38Z</time>
      </trkpt>
      <trkpt lat="46.58368" lon="0.3408">
        <ele>113.3</ele>
        <time>2020-07-03T21:57:39Z</time>
      </trkpt>
      <trkpt lat="46.58367" lon="0.3408">
        <ele>113.3</ele>
        <time>2020-07-03T21:57:40Z</time>
      </trkpt>
      <trkpt lat="46.58368" lon="0.34081">
        <ele>113.3</ele>
        <time>2020-07-03T21:57:41Z</time>
      </trkpt>
      <trkpt lat="46.58368" lon="0.34082">
        <ele>113.3</ele>
        <time>2020-07-03T21:57:42Z</time>
      </trkpt>
      <trkpt lat="46.58368" lon="0.34082">
        <ele>113.3</ele>
        <time>2020-07-03T21:57:43Z</time>
      </trkpt>
      <trkpt lat="46.58369" lon="0.34081">
        <ele>113.3</ele>
        <time>2020-07-03T21:57:44Z</time>
      </trkpt>
      <trkpt lat="46.58371" lon="0.3408">
        <ele>113.2</ele>
        <time>2020-07-03T21:57:45Z</time>
      </trkpt>
      <trkpt lat="46.58373" lon="0.3408">
        <ele>113.1</ele>
        <time>2020-07-03T21:57:46Z</time>
      </trkpt>
      <trkpt lat="46.58374" lon="0.34079">
        <ele>113.1</ele>
        <time>2020-07-03T21:57:47Z</time>
      </trkpt>
      <trkpt lat="46.58375" lon="0.34079">
        <ele>113</ele>
        <time>2020-07-03T21:57:48Z</time>
      </trkpt>
      <trkpt lat="46.58377" lon="0.34078">
        <ele>113</ele>
        <time>2020-07-03T21:57:49Z</time>
      </trkpt>
      <trkpt lat="46.58377" lon="0.34078">
        <ele>113</ele>
        <time>2020-07-03T21:57:50Z</time>
      </trkpt>
      <trkpt lat="46.58377" lon="0.34078">
        <ele>113</ele>
        <time>2020-07-03T21:57:51Z</time>
      </trkpt>
      <trkpt lat="46.58377" lon="0.34078">
        <ele>113</ele>
        <time>2020-07-03T21:57:52Z</time>
      </trkpt>
      <trkpt lat="46.58377" lon="0.34078">
        <ele>113</ele>
        <time>2020-07-03T21:57:53Z</time>
      </trkpt>
      <trkpt lat="46.58377" lon="0.34078">
        <ele>113</ele>
        <time>2020-07-03T21:57:54Z</time>
      </trkpt>
      <trkpt lat="46.58377" lon="0.34078">
        <ele>113</ele>
        <time>2020-07-03T21:57:55Z</time>
      </trkpt>
      <trkpt lat="46.58377" lon="0.34078">
        <ele>113</ele>
        <time>2020-07-03T21:57:56Z</time>
      </trkpt>
      <trkpt lat="46.58378" lon="0.34079">
        <ele>113</ele>
        <time>2020-07-03T21:57:57Z</time>
      </trkpt>
      <trkpt lat="46.58378" lon="0.3408">
        <ele>112.9</ele>
        <time>2020-07-03T21:57:58Z</time>
      </trkpt>
      <trkpt lat="46.58378" lon="0.34079">
        <ele>112.9</ele>
        <time>2020-07-03T21:57:59Z</time>
      </trkpt>
      <trkpt lat="46.58378" lon="0.34079">
        <ele>112.9</ele>
        <time>2020-07-03T21:58:00Z</time>
      </trkpt>
      <trkpt lat="46.58339" lon="0.3413">
        <ele>116.1</ele>
        <time>2020-07-03T21:59:49Z</time>
      </trkpt>
      <trkpt lat="46.58338" lon="0.34131">
        <ele>116.1</ele>
        <time>2020-07-03T21:59:50Z</time>
      </trkpt>
      <trkpt lat="46.58338" lon="0.34132">
        <ele>116.1</ele>
        <time>2020-07-03T21:59:51Z</time>
      </trkpt>
      <trkpt lat="46.58338" lon="0.34132">
        <ele>116.1</ele>
        <time>2020-07-03T21:59:52Z</time>
      </trkpt>
      <trkpt lat="46.58338" lon="0.34131">
        <ele>116.1</ele>
        <time>2020-07-03T21:59:53Z</time>
      </trkpt>
      <trkpt lat="46.58338" lon="0.34131">
        <ele>116.1</ele>
        <time>2020-07-03T21:59:54Z</time>
      </trkpt>
      <trkpt lat="46.58337" lon="0.3413">
        <ele>116.1</ele>
        <time>2020-07-03T21:59:55Z</time>
      </trkpt>
      <trkpt lat="46.58337" lon="0.34129">
        <ele>116.1</ele>
        <time>2020-07-03T21:59:56Z</time>
      </trkpt>
      <trkpt lat="46.58337" lon="0.34129">
        <ele>116.1</ele>
        <time>2020-07-03T21:59:57Z</time>
      </trkpt>
      <trkpt lat="46.58337" lon="0.34129">
        <ele>116.1</ele>
        <time>2020-07-03T21:59:58Z</time>
      </trkpt>
      <trkpt lat="46.58337" lon="0.34129">
        <ele>116.1</ele>
        <time>2020-07-03T21:59:59Z</time>
      </trkpt>
      <trkpt lat="46.58337" lon="0.34129">
        <ele>116.1</ele>
        <time>2020-07-03T22:00:00Z</time>
      </trkpt>
      <trkpt lat="46.58337" lon="0.34128">
        <ele>116.1</ele>
        <time>2020-07-03T22:00:01Z</time>
      </trkpt>
      <trkpt lat="46.58337" lon="0.34129">
        <ele>116.1</ele>
        <time>2020-07-03T22:00:02Z</time>
      </trkpt>
      <trkpt lat="46.58337" lon="0.34129">
        <ele>116.1</ele>
        <time>2020-07-03T22:00:03Z</time>
      </trkpt>
      <trkpt lat="46.58336" lon="0.34129">
        <ele>116.1</ele>
        <time>2020-07-03T22:00:04Z</time>
      </trkpt>
      <trkpt lat="46.58323" lon="0.3413">
        <ele>117</ele>
        <time>2020-07-03T22:06:44Z</time>
      </trkpt>
      <trkpt lat="46.58322" lon="0.34129">
        <ele>117</ele>
        <time>2020-07-03T22:06:45Z</time>
      </trkpt>
      <trkpt lat="46.58322" lon="0.3413">
        <ele>117</ele>
        <time>2020-07-03T22:06:46Z</time>
      </trkpt>
      <trkpt lat="46.58322" lon="0.3413">
        <ele>117</ele>
        <time>2020-07-03T22:06:47Z</time>
      </trkpt>
      <trkpt lat="46.58321" lon="0.34129">
        <ele>117</ele>
        <time>2020-07-03T22:06:48Z</time>
      </trkpt>
      <trkpt lat="46.58321" lon="0.34129">
        <ele>117</ele>
        <time>2020-07-03T22:06:49Z</time>
      </trkpt>
      <trkpt lat="46.58321" lon="0.34128">
        <ele>117</ele>
        <time>2020-07-03T22:06:50Z</time>
      </trkpt>
      <trkpt lat="46.58321" lon="0.34128">
        <ele>117.1</ele>
        <time>2020-07-03T22:06:51Z</time>
      </trkpt>
      <trkpt lat="46.58321" lon="0.34128">
        <ele>117.1</ele>
        <time>2020-07-03T22:06:52Z</time>
      </trkpt>
      <trkpt lat="46.58321" lon="0.34128">
        <ele>117.1</ele>
        <time>2020-07-03T22:06:53Z</time>
      </trkpt>
      <trkpt lat="46.58321" lon="0.34128">
        <ele>117.1</ele>
        <time>2020-07-03T22:06:54Z</time>
      </trkpt>
      <trkpt lat="46.58322" lon="0.34129">
        <ele>117.1</ele>
        <time>2020-07-03T22:06:55Z</time>
      </trkpt>
      <trkpt lat="46.58322" lon="0.34131">
        <ele>117.1</ele>
        <time>2020-07-03T22:06:56Z</time>
      </trkpt>
      <trkpt lat="46.58323" lon="0.34132">
        <ele>117.1</ele>
        <time>2020-07-03T22:06:57Z</time>
      </trkpt>
      <trkpt lat="46.58323" lon="0.34133">
        <ele>117.1</ele>
        <time>2020-07-03T22:06:58Z</time>
      </trkpt>
      <trkpt lat="46.58323" lon="0.34134">
        <ele>117.2</ele>
        <time>2020-07-03T22:06:59Z</time>
      </trkpt>
      <trkpt lat="46.58324" lon="0.34138">
        <ele>117.3</ele>
        <time>2020-07-03T22:07:05Z</time>
      </trkpt>
      <trkpt lat="46.58324" lon="0.34138">
        <ele>117.3</ele>
        <time>2020-07-03T22:07:06Z</time>
      </trkpt>
      <trkpt lat="46.58324" lon="0.34139">
        <ele>117.3</ele>
        <time>2020-07-03T22:07:07Z</time>
      </trkpt>
      <trkpt lat="46.58324" lon="0.34137">
        <ele>117.3</ele>
        <time>2020-07-03T22:07:08Z</time>
      </trkpt>
      <trkpt lat="46.58324" lon="0.34137">
        <ele>117.3</ele>
        <time>2020-07-03T22:07:09Z</time>
      </trkpt>
      <trkpt lat="46.58324" lon="0.34137">
        <ele>117.3</ele>
        <time>2020-07-03T22:07:10Z</time>
      </trkpt>
      <trkpt lat="46.58324" lon="0.34137">
        <ele>117.3</ele>
        <time>2020-07-03T22:07:11Z</time>
      </trkpt>
      <trkpt lat="46.58324" lon="0.34137">
        <ele>117.3</ele>
        <time>2020-07-03T22:07:12Z</time>
      </trkpt>
      <trkpt lat="46.58324" lon="0.34137">
        <ele>117.3</ele>
        <time>2020-07-03T22:07:13Z</time>
      </trkpt>
      <trkpt lat="46.58324" lon="0.34138">
        <ele>117.3</ele>
        <time>2020-07-03T22:07:14Z</time>
      </trkpt>
      <trkpt lat="46.58324" lon="0.34137">
        <ele>117.3</ele>
        <time>2020-07-03T22:07:15Z</time>
      </trkpt>
      <trkpt lat="46.58324" lon="0.34137">
        <ele>117.3</ele>
        <time>2020-07-03T22:07:16Z</time>
      </trkpt>
      <trkpt lat="46.58324" lon="0.34136">
        <ele>117.3</ele>
        <time>2020-07-03T22:07:17Z</time>
      </trkpt>
      <trkpt lat="46.58324" lon="0.34136">
        <ele>117.3</ele>
        <time>2020-07-03T22:07:18Z</time>
      </trkpt>
      <trkpt lat="46.58324" lon="0.34135">
        <ele>117.3</ele>
        <time>2020-07-03T22:07:19Z</time>
      </trkpt>
      <trkpt lat="46.58325" lon="0.34135">
        <ele>117.3</ele>
        <time>2020-07-03T22:07:20Z</time>
      </trkpt>
      <trkpt lat="46.58325" lon="0.34136">
        <ele>117.3</ele>
        <time>2020-07-03T22:07:21Z</time>
      </trkpt>
      <trkpt lat="46.58324" lon="0.34137">
        <ele>117.3</ele>
        <time>2020-07-03T22:07:22Z</time>
      </trkpt>
      <trkpt lat="46.58324" lon="0.34137">
        <ele>117.3</ele>
        <time>2020-07-03T22:07:23Z</time>
      </trkpt>
      <trkpt lat="46.58323" lon="0.34138">
        <ele>117.3</ele>
        <time>2020-07-03T22:07:24Z</time>
      </trkpt>
      <trkpt lat="46.58323" lon="0.34139">
        <ele>117.4</ele>
        <time>2020-07-03T22:07:25Z</time>
      </trkpt>
      <trkpt lat="46.58322" lon="0.3414">
        <ele>117.4</ele>
        <time>2020-07-03T22:07:26Z</time>
      </trkpt>
      <trkpt lat="46.58322" lon="0.3414">
        <ele>117.4</ele>
        <time>2020-07-03T22:07:27Z</time>
      </trkpt>
      <trkpt lat="46.58321" lon="0.34141">
        <ele>117.4</ele>
        <time>2020-07-03T22:07:28Z</time>
      </trkpt>
      <trkpt lat="46.58321" lon="0.34142">
        <ele>117.4</ele>
        <time>2020-07-03T22:07:51Z</time>
      </trkpt>
      <trkpt lat="46.5832" lon="0.34143">
        <ele>117.4</ele>
        <time>2020-07-03T22:07:52Z</time>
      </trkpt>
      <trkpt lat="46.5832" lon="0.34143">
        <ele>117.5</ele>
        <time>2020-07-03T22:07:53Z</time>
      </trkpt>
      <trkpt lat="46.58318" lon="0.34149">
        <ele>117.6</ele>
        <time>2020-07-03T22:07:54Z</time>
      </trkpt>
      <trkpt lat="46.58317" lon="0.34155">
        <ele>117.7</ele>
        <time>2020-07-03T22:07:55Z</time>
      </trkpt>
      <trkpt lat="46.58316" lon="0.34161">
        <ele>117.8</ele>
        <time>2020-07-03T22:07:56Z</time>
      </trkpt>
      <trkpt lat="46.58313" lon="0.34167">
        <ele>117.9</ele>
        <time>2020-07-03T22:07:57Z</time>
      </trkpt>
      <trkpt lat="46.58311" lon="0.34172">
        <ele>118</ele>
        <time>2020-07-03T22:07:58Z</time>
      </trkpt>
      <trkpt lat="46.5831" lon="0.34176">
        <ele>118.1</ele>
        <time>2020-07-03T22:07:59Z</time>
      </trkpt>
      <trkpt lat="46.58309" lon="0.3418">
        <ele>118.1</ele>
        <time>2020-07-03T22:08:00Z</time>
      </trkpt>
      <trkpt lat="46.58307" lon="0.34184">
        <ele>118.4</ele>
        <time>2020-07-03T22:08:01Z</time>
      </trkpt>
      <trkpt lat="46.58306" lon="0.34185">
        <ele>118.4</ele>
        <time>2020-07-03T22:08:02Z</time>
      </trkpt>
      <trkpt lat="46.58303" lon="0.34187">
        <ele>118.4</ele>
        <time>2020-07-03T22:08:03Z</time>
      </trkpt>
      <trkpt lat="46.58301" lon="0.34184">
        <ele>118.5</ele>
        <time>2020-07-03T22:08:04Z</time>
      </trkpt>
      <trkpt lat="46.583" lon="0.34183">
        <ele>118.5</ele>
        <time>2020-07-03T22:08:05Z</time>
      </trkpt>
      <trkpt lat="46.58296" lon="0.34181">
        <ele>118.5</ele>
        <time>2020-07-03T22:08:06Z</time>
      </trkpt>
      <trkpt lat="46.5829" lon="0.3418">
        <ele>118.5</ele>
        <time>2020-07-03T22:08:07Z</time>
      </trkpt>
      <trkpt lat="46.58285" lon="0.34179">
        <ele>118.5</ele>
        <time>2020-07-03T22:08:08Z</time>
      </trkpt>
      <trkpt lat="46.58279" lon="0.34178">
        <ele>118.6</ele>
        <time>2020-07-03T22:08:09Z</time>
      </trkpt>
      <trkpt lat="46.58275" lon="0.34175">
        <ele>118.7</ele>
        <time>2020-07-03T22:08:10Z</time>
      </trkpt>
      <trkpt lat="46.58273" lon="0.3417">
        <ele>118.7</ele>
        <time>2020-07-03T22:08:11Z</time>
      </trkpt>
      <trkpt lat="46.5827" lon="0.34166">
        <ele>118.8</ele>
        <time>2020-07-03T22:08:12Z</time>
      </trkpt>
      <trkpt lat="46.58266" lon="0.34164">
        <ele>118.9</ele>
        <time>2020-07-03T22:08:13Z</time>
      </trkpt>
      <trkpt lat="46.58262" lon="0.34162">
        <ele>119</ele>
        <time>2020-07-03T22:08:14Z</time>
      </trkpt>
      <trkpt lat="46.58258" lon="0.34159">
        <ele>119</ele>
        <time>2020-07-03T22:08:15Z</time>
      </trkpt>
      <trkpt lat="46.58255" lon="0.34158">
        <ele>119.1</ele>
        <time>2020-07-03T22:08:16Z</time>
      </trkpt>
      <trkpt lat="46.58251" lon="0.34155">
        <ele>119.2</ele>
        <time>2020-07-03T22:08:17Z</time>
      </trkpt>
      <trkpt lat="46.58247" lon="0.34154">
        <ele>119.2</ele>
        <time>2020-07-03T22:08:18Z</time>
      </trkpt>
      <trkpt lat="46.58245" lon="0.34152">
        <ele>119.3</ele>
        <time>2020-07-03T22:08:19Z</time>
      </trkpt>
      <trkpt lat="46.58241" lon="0.34148">
        <ele>119.5</ele>
        <time>2020-07-03T22:08:20Z</time>
      </trkpt>
      <trkpt lat="46.58239" lon="0.34146">
        <ele>119.5</ele>
        <time>2020-07-03T22:08:21Z</time>
      </trkpt>
      <trkpt lat="46.58235" lon="0.34145">
        <ele>119.5</ele>
        <time>2020-07-03T22:08:22Z</time>
      </trkpt>
      <trkpt lat="46.58234" lon="0.34146">
        <ele>119.5</ele>
        <time>2020-07-03T22:08:23Z</time>
      </trkpt>
      <trkpt lat="46.5823" lon="0.34146">
        <ele>119.4</ele>
        <time>2020-07-03T22:08:24Z</time>
      </trkpt>
      <trkpt lat="46.58229" lon="0.34146">
        <ele>119.4</ele>
        <time>2020-07-03T22:08:25Z</time>
      </trkpt>
      <trkpt lat="46.58225" lon="0.34146">
        <ele>119.3</ele>
        <time>2020-07-03T22:08:26Z</time>
      </trkpt>
      <trkpt lat="46.58221" lon="0.34146">
        <ele>119.3</ele>
        <time>2020-07-03T22:08:27Z</time>
      </trkpt>
      <trkpt lat="46.58217" lon="0.34146">
        <ele>119.2</ele>
        <time>2020-07-03T22:08:28Z</time>
      </trkpt>
      <trkpt lat="46.58212" lon="0.34146">
        <ele>119.1</ele>
        <time>2020-07-03T22:08:29Z</time>
      </trkpt>
      <trkpt lat="46.58208" lon="0.34146">
        <ele>119</ele>
        <time>2020-07-03T22:08:30Z</time>
      </trkpt>
      <trkpt lat="46.58205" lon="0.34145">
        <ele>119</ele>
        <time>2020-07-03T22:08:31Z</time>
      </trkpt>
      <trkpt lat="46.582" lon="0.34145">
        <ele>118.8</ele>
        <time>2020-07-03T22:08:32Z</time>
      </trkpt>
      <trkpt lat="46.58195" lon="0.34144">
        <ele>118.7</ele>
        <time>2020-07-03T22:08:33Z</time>
      </trkpt>
      <trkpt lat="46.5819" lon="0.34143">
        <ele>118.6</ele>
        <time>2020-07-03T22:08:34Z</time>
      </trkpt>
      <trkpt lat="46.58185" lon="0.34143">
        <ele>118.5</ele>
        <time>2020-07-03T22:08:35Z</time>
      </trkpt>
      <trkpt lat="46.5818" lon="0.34143">
        <ele>118.4</ele>
        <time>2020-07-03T22:08:36Z</time>
      </trkpt>
      <trkpt lat="46.58176" lon="0.34143">
        <ele>118.3</ele>
        <time>2020-07-03T22:08:37Z</time>
      </trkpt>
      <trkpt lat="46.58172" lon="0.34143">
        <ele>118.3</ele>
        <time>2020-07-03T22:08:38Z</time>
      </trkpt>
      <trkpt lat="46.58169" lon="0.34143">
        <ele>118.2</ele>
        <time>2020-07-03T22:08:39Z</time>
      </trkpt>
      <trkpt lat="46.58166" lon="0.34142">
        <ele>117.5</ele>
        <time>2020-07-03T22:08:40Z</time>
      </trkpt>
      <trkpt lat="46.58164" lon="0.34142">
        <ele>117.4</ele>
        <time>2020-07-03T22:08:41Z</time>
      </trkpt>
      <trkpt lat="46.58162" lon="0.34144">
        <ele>117.3</ele>
        <time>2020-07-03T22:08:42Z</time>
      </trkpt>
      <trkpt lat="46.58161" lon="0.34145">
        <ele>117.2</ele>
        <time>2020-07-03T22:08:43Z</time>
      </trkpt>
      <trkpt lat="46.5816" lon="0.34149">
        <ele>117.1</ele>
        <time>2020-07-03T22:08:44Z</time>
      </trkpt>
      <trkpt lat="46.58159" lon="0.34156">
        <ele>116.9</ele>
        <time>2020-07-03T22:08:45Z</time>
      </trkpt>
      <trkpt lat="46.58159" lon="0.34162">
        <ele>116.8</ele>
        <time>2020-07-03T22:08:46Z</time>
      </trkpt>
      <trkpt lat="46.58159" lon="0.34167">
        <ele>116.7</ele>
        <time>2020-07-03T22:08:47Z</time>
      </trkpt>
      <trkpt lat="46.58159" lon="0.34173">
        <ele>116.6</ele>
        <time>2020-07-03T22:08:48Z</time>
      </trkpt>
      <trkpt lat="46.58157" lon="0.34177">
        <ele>116.5</ele>
        <time>2020-07-03T22:08:49Z</time>
      </trkpt>
      <trkpt lat="46.58157" lon="0.34179">
        <ele>116.4</ele>
        <time>2020-07-03T22:08:50Z</time>
      </trkpt>
      <trkpt lat="46.58156" lon="0.34182">
        <ele>116.4</ele>
        <time>2020-07-03T22:08:51Z</time>
      </trkpt>
      <trkpt lat="46.58156" lon="0.34186">
        <ele>116.3</ele>
        <time>2020-07-03T22:08:52Z</time>
      </trkpt>
      <trkpt lat="46.58156" lon="0.34187">
        <ele>116.3</ele>
        <time>2020-07-03T22:08:53Z</time>
      </trkpt>
      <trkpt lat="46.58155" lon="0.3419">
        <ele>116.2</ele>
        <time>2020-07-03T22:08:54Z</time>
      </trkpt>
      <trkpt lat="46.58156" lon="0.34191">
        <ele>116.2</ele>
        <time>2020-07-03T22:08:55Z</time>
      </trkpt>
      <trkpt lat="46.58156" lon="0.34192">
        <ele>116.2</ele>
        <time>2020-07-03T22:08:56Z</time>
      </trkpt>
      <trkpt lat="46.58157" lon="0.34197">
        <ele>116.1</ele>
        <time>2020-07-03T22:08:57Z</time>
      </trkpt>
      <trkpt lat="46.58159" lon="0.34201">
        <ele>116</ele>
        <time>2020-07-03T22:08:58Z</time>
      </trkpt>
      <trkpt lat="46.5816" lon="0.34205">
        <ele>115.9</ele>
        <time>2020-07-03T22:08:59Z</time>
      </trkpt>
      <trkpt lat="46.5816" lon="0.3421">
        <ele>115.8</ele>
        <time>2020-07-03T22:09:00Z</time>
      </trkpt>
      <trkpt lat="46.58161" lon="0.34215">
        <ele>115.2</ele>
        <time>2020-07-03T22:09:01Z</time>
      </trkpt>
      <trkpt lat="46.58161" lon="0.3422">
        <ele>115.2</ele>
        <time>2020-07-03T22:09:02Z</time>
      </trkpt>
      <trkpt lat="46.58163" lon="0.34226">
        <ele>115.2</ele>
        <time>2020-07-03T22:09:03Z</time>
      </trkpt>
      <trkpt lat="46.58164" lon="0.34234">
        <ele>115</ele>
        <time>2020-07-03T22:09:04Z</time>
      </trkpt>
      <trkpt lat="46.58165" lon="0.34239">
        <ele>114.9</ele>
        <time>2020-07-03T22:09:05Z</time>
      </trkpt>
      <trkpt lat="46.58165" lon="0.34244">
        <ele>114.9</ele>
        <time>2020-07-03T22:09:06Z</time>
      </trkpt>
      <trkpt lat="46.58165" lon="0.34248">
        <ele>114.8</ele>
        <time>2020-07-03T22:09:07Z</time>
      </trkpt>
      <trkpt lat="46.58165" lon="0.34253">
        <ele>114.7</ele>
        <time>2020-07-03T22:09:08Z</time>
      </trkpt>
      <trkpt lat="46.58165" lon="0.34258">
        <ele>114.6</ele>
        <time>2020-07-03T22:09:09Z</time>
      </trkpt>
      <trkpt lat="46.58165" lon="0.34263">
        <ele>114.5</ele>
        <time>2020-07-03T22:09:10Z</time>
      </trkpt>
      <trkpt lat="46.58167" lon="0.3427">
        <ele>114.4</ele>
        <time>2020-07-03T22:09:11Z</time>
      </trkpt>
      <trkpt lat="46.58168" lon="0.34275">
        <ele>114.4</ele>
        <time>2020-07-03T22:09:12Z</time>
      </trkpt>
      <trkpt lat="46.5817" lon="0.34282">
        <ele>114.1</ele>
        <time>2020-07-03T22:09:13Z</time>
      </trkpt>
      <trkpt lat="46.58171" lon="0.34288">
        <ele>113.9</ele>
        <time>2020-07-03T22:09:14Z</time>
      </trkpt>
      <trkpt lat="46.58172" lon="0.34295">
        <ele>113.6</ele>
        <time>2020-07-03T22:09:15Z</time>
      </trkpt>
      <trkpt lat="46.58171" lon="0.34302">
        <ele>113.3</ele>
        <time>2020-07-03T22:09:16Z</time>
      </trkpt>
      <trkpt lat="46.58171" lon="0.34311">
        <ele>112.9</ele>
        <time>2020-07-03T22:09:17Z</time>
      </trkpt>
      <trkpt lat="46.5817" lon="0.3432">
        <ele>112.6</ele>
        <time>2020-07-03T22:09:18Z</time>
      </trkpt>
      <trkpt lat="46.58168" lon="0.34331">
        <ele>112.2</ele>
        <time>2020-07-03T22:09:19Z</time>
      </trkpt>
      <trkpt lat="46.58165" lon="0.34345">
        <ele>111.7</ele>
        <time>2020-07-03T22:09:20Z</time>
      </trkpt>
      <trkpt lat="46.58162" lon="0.34356">
        <ele>111.4</ele>
        <time>2020-07-03T22:09:21Z</time>
      </trkpt>
      <trkpt lat="46.58157" lon="0.34367">
        <ele>111</ele>
        <time>2020-07-03T22:09:22Z</time>
      </trkpt>
      <trkpt lat="46.58153" lon="0.34379">
        <ele>110.6</ele>
        <time>2020-07-03T22:09:23Z</time>
      </trkpt>
      <trkpt lat="46.5815" lon="0.34389">
        <ele>110.4</ele>
        <time>2020-07-03T22:09:24Z</time>
      </trkpt>
      <trkpt lat="46.58144" lon="0.34399">
        <ele>110.1</ele>
        <time>2020-07-03T22:09:25Z</time>
      </trkpt>
      <trkpt lat="46.5814" lon="0.3441">
        <ele>109.8</ele>
        <time>2020-07-03T22:09:26Z</time>
      </trkpt>
      <trkpt lat="46.58137" lon="0.34421">
        <ele>109.4</ele>
        <time>2020-07-03T22:09:27Z</time>
      </trkpt>
      <trkpt lat="46.58134" lon="0.34431">
        <ele>109</ele>
        <time>2020-07-03T22:09:28Z</time>
      </trkpt>
      <trkpt lat="46.58131" lon="0.34441">
        <ele>108.6</ele>
        <time>2020-07-03T22:09:29Z</time>
      </trkpt>
      <trkpt lat="46.58128" lon="0.34453">
        <ele>108.1</ele>
        <time>2020-07-03T22:09:30Z</time>
      </trkpt>
      <trkpt lat="46.58126" lon="0.34464">
        <ele>107.8</ele>
        <time>2020-07-03T22:09:31Z</time>
      </trkpt>
      <trkpt lat="46.58122" lon="0.34474">
        <ele>107.4</ele>
        <time>2020-07-03T22:09:32Z</time>
      </trkpt>
      <trkpt lat="46.58119" lon="0.34484">
        <ele>107.1</ele>
        <time>2020-07-03T22:09:33Z</time>
      </trkpt>
      <trkpt lat="46.58115" lon="0.34491">
        <ele>106.6</ele>
        <time>2020-07-03T22:09:34Z</time>
      </trkpt>
      <trkpt lat="46.58113" lon="0.34498">
        <ele>106.3</ele>
        <time>2020-07-03T22:09:35Z</time>
      </trkpt>
      <trkpt lat="46.58111" lon="0.34506">
        <ele>105.9</ele>
        <time>2020-07-03T22:09:36Z</time>
      </trkpt>
      <trkpt lat="46.58109" lon="0.34516">
        <ele>105.5</ele>
        <time>2020-07-03T22:09:37Z</time>
      </trkpt>
      <trkpt lat="46.58106" lon="0.34526">
        <ele>105</ele>
        <time>2020-07-03T22:09:38Z</time>
      </trkpt>
      <trkpt lat="46.58102" lon="0.34535">
        <ele>104.6</ele>
        <time>2020-07-03T22:09:39Z</time>
      </trkpt>
      <trkpt lat="46.58099" lon="0.34542">
        <ele>104.3</ele>
        <time>2020-07-03T22:09:40Z</time>
      </trkpt>
      <trkpt lat="46.58095" lon="0.34549">
        <ele>104</ele>
        <time>2020-07-03T22:09:41Z</time>
      </trkpt>
      <trkpt lat="46.5809" lon="0.34556">
        <ele>103.6</ele>
        <time>2020-07-03T22:09:42Z</time>
      </trkpt>
      <trkpt lat="46.58084" lon="0.34564">
        <ele>103.1</ele>
        <time>2020-07-03T22:09:43Z</time>
      </trkpt>
      <trkpt lat="46.58079" lon="0.34571">
        <ele>102.6</ele>
        <time>2020-07-03T22:09:44Z</time>
      </trkpt>
      <trkpt lat="46.58078" lon="0.34579">
        <ele>102.2</ele>
        <time>2020-07-03T22:09:45Z</time>
      </trkpt>
      <trkpt lat="46.58075" lon="0.34584">
        <ele>101.9</ele>
        <time>2020-07-03T22:09:46Z</time>
      </trkpt>
      <trkpt lat="46.58068" lon="0.34596">
        <ele>101.2</ele>
        <time>2020-07-03T22:09:47Z</time>
      </trkpt>
      <trkpt lat="46.58062" lon="0.34606">
        <ele>100.6</ele>
        <time>2020-07-03T22:09:48Z</time>
      </trkpt>
      <trkpt lat="46.58057" lon="0.34614">
        <ele>100.2</ele>
        <time>2020-07-03T22:09:49Z</time>
      </trkpt>
      <trkpt lat="46.58052" lon="0.34621">
        <ele>99.8</ele>
        <time>2020-07-03T22:09:50Z</time>
      </trkpt>
      <trkpt lat="46.58047" lon="0.34628">
        <ele>99.4</ele>
        <time>2020-07-03T22:09:51Z</time>
      </trkpt>
      <trkpt lat="46.58042" lon="0.34635">
        <ele>99</ele>
        <time>2020-07-03T22:09:52Z</time>
      </trkpt>
      <trkpt lat="46.58038" lon="0.34641">
        <ele>98.6</ele>
        <time>2020-07-03T22:09:53Z</time>
      </trkpt>
      <trkpt lat="46.58034" lon="0.34647">
        <ele>98.3</ele>
        <time>2020-07-03T22:09:54Z</time>
      </trkpt>
      <trkpt lat="46.58031" lon="0.34653">
        <ele>98</ele>
        <time>2020-07-03T22:09:55Z</time>
      </trkpt>
      <trkpt lat="46.58028" lon="0.34658">
        <ele>97.7</ele>
        <time>2020-07-03T22:09:56Z</time>
      </trkpt>
      <trkpt lat="46.58026" lon="0.34665">
        <ele>97.4</ele>
        <time>2020-07-03T22:09:57Z</time>
      </trkpt>
      <trkpt lat="46.58023" lon="0.3467">
        <ele>97.2</ele>
        <time>2020-07-03T22:09:58Z</time>
      </trkpt>
      <trkpt lat="46.5802" lon="0.34675">
        <ele>96.9</ele>
        <time>2020-07-03T22:09:59Z</time>
      </trkpt>
      <trkpt lat="46.58016" lon="0.34682">
        <ele>96.6</ele>
        <time>2020-07-03T22:10:00Z</time>
      </trkpt>
      <trkpt lat="46.58012" lon="0.3469">
        <ele>96.1</ele>
        <time>2020-07-03T22:10:01Z</time>
      </trkpt>
      <trkpt lat="46.58007" lon="0.34697">
        <ele>95.5</ele>
        <time>2020-07-03T22:10:02Z</time>
      </trkpt>
      <trkpt lat="46.58003" lon="0.34705">
        <ele>94.9</ele>
        <time>2020-07-03T22:10:03Z</time>
      </trkpt>
      <trkpt lat="46.58" lon="0.34713">
        <ele>94.4</ele>
        <time>2020-07-03T22:10:04Z</time>
      </trkpt>
      <trkpt lat="46.57997" lon="0.34722">
        <ele>93.9</ele>
        <time>2020-07-03T22:10:05Z</time>
      </trkpt>
      <trkpt lat="46.57994" lon="0.34732">
        <ele>93.5</ele>
        <time>2020-07-03T22:10:06Z</time>
      </trkpt>
      <trkpt lat="46.57992" lon="0.34742">
        <ele>93.1</ele>
        <time>2020-07-03T22:10:07Z</time>
      </trkpt>
      <trkpt lat="46.57991" lon="0.34753">
        <ele>92.6</ele>
        <time>2020-07-03T22:10:08Z</time>
      </trkpt>
      <trkpt lat="46.57989" lon="0.34764">
        <ele>92.3</ele>
        <time>2020-07-03T22:10:09Z</time>
      </trkpt>
      <trkpt lat="46.57986" lon="0.34776">
        <ele>92</ele>
        <time>2020-07-03T22:10:10Z</time>
      </trkpt>
      <trkpt lat="46.57984" lon="0.34787">
        <ele>91.8</ele>
        <time>2020-07-03T22:10:11Z</time>
      </trkpt>
      <trkpt lat="46.57983" lon="0.34798">
        <ele>91.7</ele>
        <time>2020-07-03T22:10:12Z</time>
      </trkpt>
      <trkpt lat="46.57982" lon="0.3481">
        <ele>91.8</ele>
        <time>2020-07-03T22:10:13Z</time>
      </trkpt>
      <trkpt lat="46.5798" lon="0.34822">
        <ele>91</ele>
        <time>2020-07-03T22:10:14Z</time>
      </trkpt>
      <trkpt lat="46.57979" lon="0.34833">
        <ele>90.5</ele>
        <time>2020-07-03T22:10:15Z</time>
      </trkpt>
      <trkpt lat="46.57976" lon="0.34845">
        <ele>90.1</ele>
        <time>2020-07-03T22:10:16Z</time>
      </trkpt>
      <trkpt lat="46.57974" lon="0.34856">
        <ele>89.7</ele>
        <time>2020-07-03T22:10:17Z</time>
      </trkpt>
      <trkpt lat="46.57971" lon="0.34866">
        <ele>89.3</ele>
        <time>2020-07-03T22:10:18Z</time>
      </trkpt>
      <trkpt lat="46.57967" lon="0.34876">
        <ele>89.2</ele>
        <time>2020-07-03T22:10:19Z</time>
      </trkpt>
      <trkpt lat="46.57962" lon="0.34886">
        <ele>89</ele>
        <time>2020-07-03T22:10:20Z</time>
      </trkpt>
      <trkpt lat="46.57958" lon="0.34894">
        <ele>88.9</ele>
        <time>2020-07-03T22:10:21Z</time>
      </trkpt>
      <trkpt lat="46.57953" lon="0.34903">
        <ele>88.7</ele>
        <time>2020-07-03T22:10:22Z</time>
      </trkpt>
      <trkpt lat="46.57948" lon="0.34911">
        <ele>88.6</ele>
        <time>2020-07-03T22:10:23Z</time>
      </trkpt>
      <trkpt lat="46.57944" lon="0.34919">
        <ele>88.4</ele>
        <time>2020-07-03T22:10:24Z</time>
      </trkpt>
      <trkpt lat="46.5794" lon="0.34926">
        <ele>88.3</ele>
        <time>2020-07-03T22:10:25Z</time>
      </trkpt>
      <trkpt lat="46.57935" lon="0.34932">
        <ele>88.2</ele>
        <time>2020-07-03T22:10:26Z</time>
      </trkpt>
      <trkpt lat="46.5793" lon="0.34937">
        <ele>87.9</ele>
        <time>2020-07-03T22:10:27Z</time>
      </trkpt>
      <trkpt lat="46.57925" lon="0.34942">
        <ele>87.6</ele>
        <time>2020-07-03T22:10:28Z</time>
      </trkpt>
      <trkpt lat="46.57921" lon="0.34948">
        <ele>87.3</ele>
        <time>2020-07-03T22:10:29Z</time>
      </trkpt>
      <trkpt lat="46.57916" lon="0.34954">
        <ele>86.9</ele>
        <time>2020-07-03T22:10:30Z</time>
      </trkpt>
      <trkpt lat="46.57911" lon="0.3496">
        <ele>86.6</ele>
        <time>2020-07-03T22:10:31Z</time>
      </trkpt>
      <trkpt lat="46.57906" lon="0.34966">
        <ele>86.2</ele>
        <time>2020-07-03T22:10:32Z</time>
      </trkpt>
      <trkpt lat="46.57902" lon="0.34973">
        <ele>85.9</ele>
        <time>2020-07-03T22:10:33Z</time>
      </trkpt>
      <trkpt lat="46.57897" lon="0.34979">
        <ele>85.5</ele>
        <time>2020-07-03T22:10:34Z</time>
      </trkpt>
      <trkpt lat="46.57893" lon="0.34985">
        <ele>85.2</ele>
        <time>2020-07-03T22:10:35Z</time>
      </trkpt>
      <trkpt lat="46.57889" lon="0.34991">
        <ele>84.9</ele>
        <time>2020-07-03T22:10:36Z</time>
      </trkpt>
      <trkpt lat="46.57885" lon="0.34996">
        <ele>84.6</ele>
        <time>2020-07-03T22:10:37Z</time>
      </trkpt>
      <trkpt lat="46.57881" lon="0.35">
        <ele>84.3</ele>
        <time>2020-07-03T22:10:38Z</time>
      </trkpt>
      <trkpt lat="46.57877" lon="0.35005">
        <ele>84</ele>
        <time>2020-07-03T22:10:39Z</time>
      </trkpt>
      <trkpt lat="46.57873" lon="0.35009">
        <ele>83.7</ele>
        <time>2020-07-03T22:10:40Z</time>
      </trkpt>
      <trkpt lat="46.5787" lon="0.35014">
        <ele>83.4</ele>
        <time>2020-07-03T22:10:41Z</time>
      </trkpt>
      <trkpt lat="46.57866" lon="0.35019">
        <ele>83.1</ele>
        <time>2020-07-03T22:10:42Z</time>
      </trkpt>
      <trkpt lat="46.57863" lon="0.35025">
        <ele>82.8</ele>
        <time>2020-07-03T22:10:43Z</time>
      </trkpt>
      <trkpt lat="46.57858" lon="0.3503">
        <ele>82.5</ele>
        <time>2020-07-03T22:10:44Z</time>
      </trkpt>
      <trkpt lat="46.57854" lon="0.35035">
        <ele>82.3</ele>
        <time>2020-07-03T22:10:45Z</time>
      </trkpt>
      <trkpt lat="46.5785" lon="0.3504">
        <ele>82</ele>
        <time>2020-07-03T22:10:46Z</time>
      </trkpt>
      <trkpt lat="46.57847" lon="0.35044">
        <ele>81.9</ele>
        <time>2020-07-03T22:10:47Z</time>
      </trkpt>
      <trkpt lat="46.57845" lon="0.35048">
        <ele>81.7</ele>
        <time>2020-07-03T22:10:48Z</time>
      </trkpt>
      <trkpt lat="46.57842" lon="0.35051">
        <ele>81.6</ele>
        <time>2020-07-03T22:10:49Z</time>
      </trkpt>
      <trkpt lat="46.57839" lon="0.35054">
        <ele>81.4</ele>
        <time>2020-07-03T22:10:50Z</time>
      </trkpt>
      <trkpt lat="46.57836" lon="0.35057">
        <ele>81.2</ele>
        <time>2020-07-03T22:10:51Z</time>
      </trkpt>
      <trkpt lat="46.57833" lon="0.35061">
        <ele>81.1</ele>
        <time>2020-07-03T22:10:52Z</time>
      </trkpt>
      <trkpt lat="46.5783" lon="0.35064">
        <ele>81</ele>
        <time>2020-07-03T22:10:53Z</time>
      </trkpt>
      <trkpt lat="46.57826" lon="0.35067">
        <ele>80.8</ele>
        <time>2020-07-03T22:10:54Z</time>
      </trkpt>
      <trkpt lat="46.57822" lon="0.3507">
        <ele>80.7</ele>
        <time>2020-07-03T22:10:55Z</time>
      </trkpt>
      <trkpt lat="46.57819" lon="0.35074">
        <ele>80.6</ele>
        <time>2020-07-03T22:10:56Z</time>
      </trkpt>
      <trkpt lat="46.57815" lon="0.35078">
        <ele>80.2</ele>
        <time>2020-07-03T22:10:57Z</time>
      </trkpt>
      <trkpt lat="46.57811" lon="0.35083">
        <ele>80.2</ele>
        <time>2020-07-03T22:10:58Z</time>
      </trkpt>
      <trkpt lat="46.57808" lon="0.35089">
        <ele>80.1</ele>
        <time>2020-07-03T22:10:59Z</time>
      </trkpt>
      <trkpt lat="46.57804" lon="0.35095">
        <ele>80.1</ele>
        <time>2020-07-03T22:11:00Z</time>
      </trkpt>
      <trkpt lat="46.578" lon="0.351">
        <ele>80.1</ele>
        <time>2020-07-03T22:11:01Z</time>
      </trkpt>
      <trkpt lat="46.57796" lon="0.35105">
        <ele>80.1</ele>
        <time>2020-07-03T22:11:02Z</time>
      </trkpt>
      <trkpt lat="46.57792" lon="0.3511">
        <ele>80.2</ele>
        <time>2020-07-03T22:11:03Z</time>
      </trkpt>
      <trkpt lat="46.57788" lon="0.35114">
        <ele>80.3</ele>
        <time>2020-07-03T22:11:04Z</time>
      </trkpt>
      <trkpt lat="46.57784" lon="0.35118">
        <ele>80.4</ele>
        <time>2020-07-03T22:11:05Z</time>
      </trkpt>
      <trkpt lat="46.5778" lon="0.35123">
        <ele>80.4</ele>
        <time>2020-07-03T22:11:06Z</time>
      </trkpt>
      <trkpt lat="46.57776" lon="0.35128">
        <ele>80.4</ele>
        <time>2020-07-03T22:11:07Z</time>
      </trkpt>
      <trkpt lat="46.57772" lon="0.35134">
        <ele>80.4</ele>
        <time>2020-07-03T22:11:08Z</time>
      </trkpt>
      <trkpt lat="46.57768" lon="0.3514">
        <ele>80.4</ele>
        <time>2020-07-03T22:11:09Z</time>
      </trkpt>
      <trkpt lat="46.57764" lon="0.35146">
        <ele>80.4</ele>
        <time>2020-07-03T22:11:10Z</time>
      </trkpt>
      <trkpt lat="46.5776" lon="0.35152">
        <ele>80.4</ele>
        <time>2020-07-03T22:11:11Z</time>
      </trkpt>
      <trkpt lat="46.57756" lon="0.35158">
        <ele>80.3</ele>
        <time>2020-07-03T22:11:12Z</time>
      </trkpt>
      <trkpt lat="46.57751" lon="0.35165">
        <ele>80.3</ele>
        <time>2020-07-03T22:11:13Z</time>
      </trkpt>
      <trkpt lat="46.57747" lon="0.35171">
        <ele>80.3</ele>
        <time>2020-07-03T22:11:14Z</time>
      </trkpt>
      <trkpt lat="46.57742" lon="0.35177">
        <ele>80.3</ele>
        <time>2020-07-03T22:11:15Z</time>
      </trkpt>
      <trkpt lat="46.57738" lon="0.35183">
        <ele>80.2</ele>
        <time>2020-07-03T22:11:16Z</time>
      </trkpt>
      <trkpt lat="46.57734" lon="0.35191">
        <ele>80.1</ele>
        <time>2020-07-03T22:11:17Z</time>
      </trkpt>
      <trkpt lat="46.5773" lon="0.35198">
        <ele>79.9</ele>
        <time>2020-07-03T22:11:18Z</time>
      </trkpt>
      <trkpt lat="46.57726" lon="0.35205">
        <ele>79.8</ele>
        <time>2020-07-03T22:11:19Z</time>
      </trkpt>
      <trkpt lat="46.57721" lon="0.35212">
        <ele>79.7</ele>
        <time>2020-07-03T22:11:20Z</time>
      </trkpt>
      <trkpt lat="46.57717" lon="0.35218">
        <ele>79.5</ele>
        <time>2020-07-03T22:11:21Z</time>
      </trkpt>
      <trkpt lat="46.57713" lon="0.35225">
        <ele>79.4</ele>
        <time>2020-07-03T22:11:22Z</time>
      </trkpt>
      <trkpt lat="46.57708" lon="0.35231">
        <ele>79.4</ele>
        <time>2020-07-03T22:11:23Z</time>
      </trkpt>
      <trkpt lat="46.57703" lon="0.35236">
        <ele>79.3</ele>
        <time>2020-07-03T22:11:24Z</time>
      </trkpt>
      <trkpt lat="46.57699" lon="0.35242">
        <ele>79.3</ele>
        <time>2020-07-03T22:11:25Z</time>
      </trkpt>
      <trkpt lat="46.57694" lon="0.35248">
        <ele>79.3</ele>
        <time>2020-07-03T22:11:26Z</time>
      </trkpt>
      <trkpt lat="46.5769" lon="0.35253">
        <ele>79.3</ele>
        <time>2020-07-03T22:11:27Z</time>
      </trkpt>
      <trkpt lat="46.57686" lon="0.35259">
        <ele>79.3</ele>
        <time>2020-07-03T22:11:28Z</time>
      </trkpt>
      <trkpt lat="46.57682" lon="0.35264">
        <ele>79.3</ele>
        <time>2020-07-03T22:11:29Z</time>
      </trkpt>
      <trkpt lat="46.57678" lon="0.35269">
        <ele>79.3</ele>
        <time>2020-07-03T22:11:30Z</time>
      </trkpt>
      <trkpt lat="46.57675" lon="0.35275">
        <ele>79.3</ele>
        <time>2020-07-03T22:11:31Z</time>
      </trkpt>
      <trkpt lat="46.57671" lon="0.3528">
        <ele>79.2</ele>
        <time>2020-07-03T22:11:32Z</time>
      </trkpt>
      <trkpt lat="46.57667" lon="0.35285">
        <ele>79.2</ele>
        <time>2020-07-03T22:11:33Z</time>
      </trkpt>
      <trkpt lat="46.57664" lon="0.35289">
        <ele>79.2</ele>
        <time>2020-07-03T22:11:34Z</time>
      </trkpt>
      <trkpt lat="46.5766" lon="0.35294">
        <ele>79.2</ele>
        <time>2020-07-03T22:11:35Z</time>
      </trkpt>
      <trkpt lat="46.57657" lon="0.35298">
        <ele>79.2</ele>
        <time>2020-07-03T22:11:36Z</time>
      </trkpt>
      <trkpt lat="46.57654" lon="0.35302">
        <ele>79.3</ele>
        <time>2020-07-03T22:11:37Z</time>
      </trkpt>
      <trkpt lat="46.57651" lon="0.35306">
        <ele>79.3</ele>
        <time>2020-07-03T22:11:38Z</time>
      </trkpt>
      <trkpt lat="46.57648" lon="0.35309">
        <ele>79.3</ele>
        <time>2020-07-03T22:11:39Z</time>
      </trkpt>
      <trkpt lat="46.57646" lon="0.35312">
        <ele>79.3</ele>
        <time>2020-07-03T22:11:40Z</time>
      </trkpt>
      <trkpt lat="46.57643" lon="0.35315">
        <ele>79.3</ele>
        <time>2020-07-03T22:11:41Z</time>
      </trkpt>
      <trkpt lat="46.57641" lon="0.35318">
        <ele>79.3</ele>
        <time>2020-07-03T22:11:42Z</time>
      </trkpt>
      <trkpt lat="46.57638" lon="0.35321">
        <ele>79.3</ele>
        <time>2020-07-03T22:11:43Z</time>
      </trkpt>
      <trkpt lat="46.57636" lon="0.35325">
        <ele>79.3</ele>
        <time>2020-07-03T22:11:44Z</time>
      </trkpt>
      <trkpt lat="46.57633" lon="0.35329">
        <ele>79.3</ele>
        <time>2020-07-03T22:11:45Z</time>
      </trkpt>
      <trkpt lat="46.57629" lon="0.35333">
        <ele>79.4</ele>
        <time>2020-07-03T22:11:46Z</time>
      </trkpt>
      <trkpt lat="46.57625" lon="0.35337">
        <ele>79.5</ele>
        <time>2020-07-03T22:11:47Z</time>
      </trkpt>
      <trkpt lat="46.57621" lon="0.35341">
        <ele>79.5</ele>
        <time>2020-07-03T22:11:48Z</time>
      </trkpt>
      <trkpt lat="46.57618" lon="0.35345">
        <ele>79.6</ele>
        <time>2020-07-03T22:11:49Z</time>
      </trkpt>
      <trkpt lat="46.57614" lon="0.35349">
        <ele>79.6</ele>
        <time>2020-07-03T22:11:50Z</time>
      </trkpt>
      <trkpt lat="46.57611" lon="0.35353">
        <ele>79.7</ele>
        <time>2020-07-03T22:11:51Z</time>
      </trkpt>
      <trkpt lat="46.57607" lon="0.35358">
        <ele>79.8</ele>
        <time>2020-07-03T22:11:52Z</time>
      </trkpt>
      <trkpt lat="46.57604" lon="0.35362">
        <ele>80</ele>
        <time>2020-07-03T22:11:53Z</time>
      </trkpt>
      <trkpt lat="46.57601" lon="0.35367">
        <ele>80.1</ele>
        <time>2020-07-03T22:11:54Z</time>
      </trkpt>
      <trkpt lat="46.57598" lon="0.35371">
        <ele>80.3</ele>
        <time>2020-07-03T22:11:55Z</time>
      </trkpt>
      <trkpt lat="46.57594" lon="0.35375">
        <ele>80.4</ele>
        <time>2020-07-03T22:11:56Z</time>
      </trkpt>
      <trkpt lat="46.57591" lon="0.3538">
        <ele>80.6</ele>
        <time>2020-07-03T22:11:57Z</time>
      </trkpt>
      <trkpt lat="46.57587" lon="0.35385">
        <ele>80.8</ele>
        <time>2020-07-03T22:11:58Z</time>
      </trkpt>
      <trkpt lat="46.57585" lon="0.35393">
        <ele>81</ele>
        <time>2020-07-03T22:11:59Z</time>
      </trkpt>
      <trkpt lat="46.57582" lon="0.35399">
        <ele>81.2</ele>
        <time>2020-07-03T22:12:00Z</time>
      </trkpt>
      <trkpt lat="46.57579" lon="0.35404">
        <ele>81.4</ele>
        <time>2020-07-03T22:12:01Z</time>
      </trkpt>
      <trkpt lat="46.57575" lon="0.35409">
        <ele>81.7</ele>
        <time>2020-07-03T22:12:02Z</time>
      </trkpt>
      <trkpt lat="46.57572" lon="0.35413">
        <ele>81.9</ele>
        <time>2020-07-03T22:12:03Z</time>
      </trkpt>
      <trkpt lat="46.57568" lon="0.35418">
        <ele>82.1</ele>
        <time>2020-07-03T22:12:04Z</time>
      </trkpt>
      <trkpt lat="46.57565" lon="0.35422">
        <ele>82.3</ele>
        <time>2020-07-03T22:12:05Z</time>
      </trkpt>
      <trkpt lat="46.57562" lon="0.35426">
        <ele>82.5</ele>
        <time>2020-07-03T22:12:06Z</time>
      </trkpt>
      <trkpt lat="46.5756" lon="0.35431">
        <ele>82.8</ele>
        <time>2020-07-03T22:12:07Z</time>
      </trkpt>
      <trkpt lat="46.57557" lon="0.35434">
        <ele>83</ele>
        <time>2020-07-03T22:12:08Z</time>
      </trkpt>
      <trkpt lat="46.57553" lon="0.35438">
        <ele>83.2</ele>
        <time>2020-07-03T22:12:09Z</time>
      </trkpt>
      <trkpt lat="46.57549" lon="0.35442">
        <ele>83.4</ele>
        <time>2020-07-03T22:12:10Z</time>
      </trkpt>
      <trkpt lat="46.57546" lon="0.35445">
        <ele>83.6</ele>
        <time>2020-07-03T22:12:11Z</time>
      </trkpt>
      <trkpt lat="46.57543" lon="0.35448">
        <ele>83.8</ele>
        <time>2020-07-03T22:12:12Z</time>
      </trkpt>
      <trkpt lat="46.5754" lon="0.3545">
        <ele>83.9</ele>
        <time>2020-07-03T22:12:13Z</time>
      </trkpt>
      <trkpt lat="46.57537" lon="0.35452">
        <ele>84.3</ele>
        <time>2020-07-03T22:12:14Z</time>
      </trkpt>
      <trkpt lat="46.57534" lon="0.35453">
        <ele>84.5</ele>
        <time>2020-07-03T22:12:15Z</time>
      </trkpt>
      <trkpt lat="46.57531" lon="0.35454">
        <ele>84.7</ele>
        <time>2020-07-03T22:12:16Z</time>
      </trkpt>
      <trkpt lat="46.57527" lon="0.35456">
        <ele>84.9</ele>
        <time>2020-07-03T22:12:17Z</time>
      </trkpt>
      <trkpt lat="46.57523" lon="0.35459">
        <ele>85.2</ele>
        <time>2020-07-03T22:12:18Z</time>
      </trkpt>
      <trkpt lat="46.57518" lon="0.35461">
        <ele>85.5</ele>
        <time>2020-07-03T22:12:19Z</time>
      </trkpt>
      <trkpt lat="46.57514" lon="0.35464">
        <ele>85.8</ele>
        <time>2020-07-03T22:12:20Z</time>
      </trkpt>
      <trkpt lat="46.5751" lon="0.35466">
        <ele>86.1</ele>
        <time>2020-07-03T22:12:21Z</time>
      </trkpt>
      <trkpt lat="46.57506" lon="0.35468">
        <ele>86.3</ele>
        <time>2020-07-03T22:12:22Z</time>
      </trkpt>
      <trkpt lat="46.57502" lon="0.3547">
        <ele>86.6</ele>
        <time>2020-07-03T22:12:23Z</time>
      </trkpt>
      <trkpt lat="46.57499" lon="0.35473">
        <ele>86.8</ele>
        <time>2020-07-03T22:12:24Z</time>
      </trkpt>
      <trkpt lat="46.57496" lon="0.35476">
        <ele>87</ele>
        <time>2020-07-03T22:12:25Z</time>
      </trkpt>
      <trkpt lat="46.57492" lon="0.3548">
        <ele>87.3</ele>
        <time>2020-07-03T22:12:26Z</time>
      </trkpt>
      <trkpt lat="46.5749" lon="0.35482">
        <ele>87.4</ele>
        <time>2020-07-03T22:12:27Z</time>
      </trkpt>
      <trkpt lat="46.57486" lon="0.35484">
        <ele>87.6</ele>
        <time>2020-07-03T22:12:28Z</time>
      </trkpt>
      <trkpt lat="46.57483" lon="0.35487">
        <ele>87.8</ele>
        <time>2020-07-03T22:12:29Z</time>
      </trkpt>
      <trkpt lat="46.57482" lon="0.35488">
        <ele>87.9</ele>
        <time>2020-07-03T22:12:30Z</time>
      </trkpt>
      <trkpt lat="46.57479" lon="0.35489">
        <ele>88</ele>
        <time>2020-07-03T22:12:31Z</time>
      </trkpt>
      <trkpt lat="46.57476" lon="0.35492">
        <ele>88.2</ele>
        <time>2020-07-03T22:12:32Z</time>
      </trkpt>
      <trkpt lat="46.57472" lon="0.35495">
        <ele>88.4</ele>
        <time>2020-07-03T22:12:33Z</time>
      </trkpt>
      <trkpt lat="46.5747" lon="0.35497">
        <ele>88.5</ele>
        <time>2020-07-03T22:12:34Z</time>
      </trkpt>
      <trkpt lat="46.57466" lon="0.355">
        <ele>88.7</ele>
        <time>2020-07-03T22:12:35Z</time>
      </trkpt>
      <trkpt lat="46.57465" lon="0.35501">
        <ele>88.8</ele>
        <time>2020-07-03T22:12:36Z</time>
      </trkpt>
      <trkpt lat="46.57462" lon="0.35504">
        <ele>89</ele>
        <time>2020-07-03T22:12:37Z</time>
      </trkpt>
      <trkpt lat="46.5746" lon="0.35505">
        <ele>89.1</ele>
        <time>2020-07-03T22:12:38Z</time>
      </trkpt>
      <trkpt lat="46.57457" lon="0.35508">
        <ele>89.3</ele>
        <time>2020-07-03T22:12:39Z</time>
      </trkpt>
      <trkpt lat="46.57453" lon="0.3551">
        <ele>89.5</ele>
        <time>2020-07-03T22:12:40Z</time>
      </trkpt>
      <trkpt lat="46.57452" lon="0.35511">
        <ele>89.5</ele>
        <time>2020-07-03T22:12:41Z</time>
      </trkpt>
      <trkpt lat="46.57449" lon="0.35512">
        <ele>89.7</ele>
        <time>2020-07-03T22:12:42Z</time>
      </trkpt>
      <trkpt lat="46.57445" lon="0.35515">
        <ele>89.8</ele>
        <time>2020-07-03T22:12:43Z</time>
      </trkpt>
      <trkpt lat="46.57442" lon="0.3552">
        <ele>90</ele>
        <time>2020-07-03T22:12:44Z</time>
      </trkpt>
      <trkpt lat="46.57439" lon="0.35523">
        <ele>90.2</ele>
        <time>2020-07-03T22:12:45Z</time>
      </trkpt>
      <trkpt lat="46.57436" lon="0.35525">
        <ele>90.3</ele>
        <time>2020-07-03T22:12:46Z</time>
      </trkpt>
      <trkpt lat="46.57433" lon="0.35528">
        <ele>90.4</ele>
        <time>2020-07-03T22:12:47Z</time>
      </trkpt>
      <trkpt lat="46.57432" lon="0.3553">
        <ele>90.4</ele>
        <time>2020-07-03T22:12:48Z</time>
      </trkpt>
      <trkpt lat="46.5743" lon="0.35534">
        <ele>90.5</ele>
        <time>2020-07-03T22:12:49Z</time>
      </trkpt>
      <trkpt lat="46.57428" lon="0.35539">
        <ele>90.6</ele>
        <time>2020-07-03T22:12:50Z</time>
      </trkpt>
      <trkpt lat="46.57426" lon="0.35543">
        <ele>90.7</ele>
        <time>2020-07-03T22:12:51Z</time>
      </trkpt>
      <trkpt lat="46.57423" lon="0.35549">
        <ele>90.8</ele>
        <time>2020-07-03T22:12:52Z</time>
      </trkpt>
      <trkpt lat="46.57421" lon="0.35554">
        <ele>90.9</ele>
        <time>2020-07-03T22:12:53Z</time>
      </trkpt>
      <trkpt lat="46.57419" lon="0.35557">
        <ele>91</ele>
        <time>2020-07-03T22:12:54Z</time>
      </trkpt>
      <trkpt lat="46.57417" lon="0.35561">
        <ele>91</ele>
        <time>2020-07-03T22:12:55Z</time>
      </trkpt>
      <trkpt lat="46.57418" lon="0.35563">
        <ele>91.1</ele>
        <time>2020-07-03T22:12:56Z</time>
      </trkpt>
      <trkpt lat="46.57417" lon="0.35566">
        <ele>91.1</ele>
        <time>2020-07-03T22:12:57Z</time>
      </trkpt>
      <trkpt lat="46.57417" lon="0.35568">
        <ele>91.2</ele>
        <time>2020-07-03T22:12:58Z</time>
      </trkpt>
      <trkpt lat="46.57413" lon="0.35572">
        <ele>91.3</ele>
        <time>2020-07-03T22:12:59Z</time>
      </trkpt>
      <trkpt lat="46.57411" lon="0.35578">
        <ele>91.3</ele>
        <time>2020-07-03T22:13:00Z</time>
      </trkpt>
      <trkpt lat="46.57409" lon="0.35583">
        <ele>91.5</ele>
        <time>2020-07-03T22:13:01Z</time>
      </trkpt>
      <trkpt lat="46.57408" lon="0.35588">
        <ele>91.5</ele>
        <time>2020-07-03T22:13:02Z</time>
      </trkpt>
      <trkpt lat="46.57406" lon="0.35592">
        <ele>91.5</ele>
        <time>2020-07-03T22:13:03Z</time>
      </trkpt>
      <trkpt lat="46.57404" lon="0.35597">
        <ele>91.6</ele>
        <time>2020-07-03T22:13:04Z</time>
      </trkpt>
      <trkpt lat="46.574" lon="0.356">
        <ele>91.8</ele>
        <time>2020-07-03T22:13:05Z</time>
      </trkpt>
      <trkpt lat="46.57395" lon="0.35599">
        <ele>92.1</ele>
        <time>2020-07-03T22:13:06Z</time>
      </trkpt>
      <trkpt lat="46.57392" lon="0.35597">
        <ele>92.3</ele>
        <time>2020-07-03T22:13:07Z</time>
      </trkpt>
      <trkpt lat="46.57387" lon="0.35597">
        <ele>92.6</ele>
        <time>2020-07-03T22:13:08Z</time>
      </trkpt>
      <trkpt lat="46.57384" lon="0.35596">
        <ele>92.9</ele>
        <time>2020-07-03T22:13:09Z</time>
      </trkpt>
      <trkpt lat="46.57381" lon="0.35595">
        <ele>93.1</ele>
        <time>2020-07-03T22:13:10Z</time>
      </trkpt>
      <trkpt lat="46.57379" lon="0.35593">
        <ele>93.4</ele>
        <time>2020-07-03T22:13:11Z</time>
      </trkpt>
      <trkpt lat="46.57375" lon="0.35592">
        <ele>93.8</ele>
        <time>2020-07-03T22:13:12Z</time>
      </trkpt>
      <trkpt lat="46.57374" lon="0.35591">
        <ele>93.9</ele>
        <time>2020-07-03T22:13:13Z</time>
      </trkpt>
      <trkpt lat="46.57371" lon="0.35591">
        <ele>94.3</ele>
        <time>2020-07-03T22:13:14Z</time>
      </trkpt>
      <trkpt lat="46.57367" lon="0.35588">
        <ele>94.7</ele>
        <time>2020-07-03T22:13:15Z</time>
      </trkpt>
      <trkpt lat="46.57365" lon="0.35587">
        <ele>95</ele>
        <time>2020-07-03T22:13:16Z</time>
      </trkpt>
      <trkpt lat="46.57363" lon="0.35586">
        <ele>95.3</ele>
        <time>2020-07-03T22:13:17Z</time>
      </trkpt>
      <trkpt lat="46.57362" lon="0.35585">
        <ele>95.4</ele>
        <time>2020-07-03T22:13:18Z</time>
      </trkpt>
      <trkpt lat="46.57359" lon="0.35583">
        <ele>95.9</ele>
        <time>2020-07-03T22:13:19Z</time>
      </trkpt>
      <trkpt lat="46.57358" lon="0.35582">
        <ele>96.1</ele>
        <time>2020-07-03T22:13:20Z</time>
      </trkpt>
      <trkpt lat="46.57355" lon="0.35581">
        <ele>96.5</ele>
        <time>2020-07-03T22:13:21Z</time>
      </trkpt>
      <trkpt lat="46.57353" lon="0.35581">
        <ele>96.7</ele>
        <time>2020-07-03T22:13:22Z</time>
      </trkpt>
      <trkpt lat="46.5735" lon="0.35581">
        <ele>97.1</ele>
        <time>2020-07-03T22:13:23Z</time>
      </trkpt>
      <trkpt lat="46.57349" lon="0.35581">
        <ele>97.3</ele>
        <time>2020-07-03T22:13:24Z</time>
      </trkpt>
      <trkpt lat="46.57345" lon="0.3558">
        <ele>97.8</ele>
        <time>2020-07-03T22:13:25Z</time>
      </trkpt>
      <trkpt lat="46.57344" lon="0.35579">
        <ele>98</ele>
        <time>2020-07-03T22:13:26Z</time>
      </trkpt>
      <trkpt lat="46.57342" lon="0.35578">
        <ele>98.2</ele>
        <time>2020-07-03T22:13:27Z</time>
      </trkpt>
      <trkpt lat="46.57341" lon="0.35579">
        <ele>98.5</ele>
        <time>2020-07-03T22:13:28Z</time>
      </trkpt>
      <trkpt lat="46.57339" lon="0.35576">
        <ele>98.9</ele>
        <time>2020-07-03T22:13:29Z</time>
      </trkpt>
      <trkpt lat="46.57338" lon="0.35575">
        <ele>99</ele>
        <time>2020-07-03T22:13:30Z</time>
      </trkpt>
      <trkpt lat="46.57337" lon="0.35574">
        <ele>99.1</ele>
        <time>2020-07-03T22:13:31Z</time>
      </trkpt>
      <trkpt lat="46.57334" lon="0.35574">
        <ele>99.5</ele>
        <time>2020-07-03T22:13:32Z</time>
      </trkpt>
      <trkpt lat="46.57333" lon="0.35574">
        <ele>99.6</ele>
        <time>2020-07-03T22:13:33Z</time>
      </trkpt>
      <trkpt lat="46.5733" lon="0.35573">
        <ele>100.1</ele>
        <time>2020-07-03T22:13:34Z</time>
      </trkpt>
      <trkpt lat="46.57329" lon="0.35573">
        <ele>100.2</ele>
        <time>2020-07-03T22:13:35Z</time>
      </trkpt>
      <trkpt lat="46.57326" lon="0.35571">
        <ele>100.6</ele>
        <time>2020-07-03T22:13:36Z</time>
      </trkpt>
      <trkpt lat="46.57325" lon="0.3557">
        <ele>100.8</ele>
        <time>2020-07-03T22:13:37Z</time>
      </trkpt>
      <trkpt lat="46.57324" lon="0.35569">
        <ele>101</ele>
        <time>2020-07-03T22:13:38Z</time>
      </trkpt>
      <trkpt lat="46.57322" lon="0.35568">
        <ele>101.2</ele>
        <time>2020-07-03T22:13:39Z</time>
      </trkpt>
      <trkpt lat="46.57321" lon="0.35571">
        <ele>101.4</ele>
        <time>2020-07-03T22:13:40Z</time>
      </trkpt>
      <trkpt lat="46.57319" lon="0.35569">
        <ele>101.7</ele>
        <time>2020-07-03T22:13:41Z</time>
      </trkpt>
      <trkpt lat="46.57318" lon="0.35568">
        <ele>101.8</ele>
        <time>2020-07-03T22:13:42Z</time>
      </trkpt>
      <trkpt lat="46.57316" lon="0.35567">
        <ele>102</ele>
        <time>2020-07-03T22:13:43Z</time>
      </trkpt>
      <trkpt lat="46.57315" lon="0.35567">
        <ele>102.2</ele>
        <time>2020-07-03T22:13:44Z</time>
      </trkpt>
      <trkpt lat="46.57313" lon="0.35565">
        <ele>102.5</ele>
        <time>2020-07-03T22:13:45Z</time>
      </trkpt>
      <trkpt lat="46.5731" lon="0.35563">
        <ele>102.8</ele>
        <time>2020-07-03T22:13:46Z</time>
      </trkpt>
      <trkpt lat="46.57309" lon="0.35563">
        <ele>102.9</ele>
        <time>2020-07-03T22:13:47Z</time>
      </trkpt>
      <trkpt lat="46.57308" lon="0.35563">
        <ele>103.1</ele>
        <time>2020-07-03T22:13:48Z</time>
      </trkpt>
      <trkpt lat="46.57306" lon="0.35562">
        <ele>103.2</ele>
        <time>2020-07-03T22:13:49Z</time>
      </trkpt>
      <trkpt lat="46.57305" lon="0.35562">
        <ele>103.4</ele>
        <time>2020-07-03T22:13:50Z</time>
      </trkpt>
      <trkpt lat="46.57303" lon="0.35562">
        <ele>103.6</ele>
        <time>2020-07-03T22:13:51Z</time>
      </trkpt>
      <trkpt lat="46.573" lon="0.35561">
        <ele>103.9</ele>
        <time>2020-07-03T22:13:52Z</time>
      </trkpt>
      <trkpt lat="46.57298" lon="0.3556">
        <ele>104</ele>
        <time>2020-07-03T22:13:53Z</time>
      </trkpt>
      <trkpt lat="46.57298" lon="0.35559">
        <ele>104.1</ele>
        <time>2020-07-03T22:13:54Z</time>
      </trkpt>
      <trkpt lat="46.57296" lon="0.35558">
        <ele>104.3</ele>
        <time>2020-07-03T22:13:55Z</time>
      </trkpt>
      <trkpt lat="46.57292" lon="0.35557">
        <ele>104.6</ele>
        <time>2020-07-03T22:13:56Z</time>
      </trkpt>
      <trkpt lat="46.57291" lon="0.35557">
        <ele>104.7</ele>
        <time>2020-07-03T22:13:57Z</time>
      </trkpt>
      <trkpt lat="46.57288" lon="0.35556">
        <ele>105</ele>
        <time>2020-07-03T22:13:58Z</time>
      </trkpt>
      <trkpt lat="46.57284" lon="0.35554">
        <ele>105.3</ele>
        <time>2020-07-03T22:13:59Z</time>
      </trkpt>
      <trkpt lat="46.57284" lon="0.35553">
        <ele>105.4</ele>
        <time>2020-07-03T22:14:00Z</time>
      </trkpt>
      <trkpt lat="46.57281" lon="0.35552">
        <ele>105.6</ele>
        <time>2020-07-03T22:14:01Z</time>
      </trkpt>
      <trkpt lat="46.57277" lon="0.35551">
        <ele>105.9</ele>
        <time>2020-07-03T22:14:02Z</time>
      </trkpt>
      <trkpt lat="46.57276" lon="0.35551">
        <ele>105.9</ele>
        <time>2020-07-03T22:14:03Z</time>
      </trkpt>
      <trkpt lat="46.57273" lon="0.3555">
        <ele>106.1</ele>
        <time>2020-07-03T22:14:04Z</time>
      </trkpt>
      <trkpt lat="46.57271" lon="0.35548">
        <ele>106.3</ele>
        <time>2020-07-03T22:14:05Z</time>
      </trkpt>
      <trkpt lat="46.5727" lon="0.35549">
        <ele>106.4</ele>
        <time>2020-07-03T22:14:06Z</time>
      </trkpt>
      <trkpt lat="46.57269" lon="0.35549">
        <ele>106.5</ele>
        <time>2020-07-03T22:14:07Z</time>
      </trkpt>
      <trkpt lat="46.57265" lon="0.35548">
        <ele>106.8</ele>
        <time>2020-07-03T22:14:08Z</time>
      </trkpt>
      <trkpt lat="46.57263" lon="0.35548">
        <ele>106.9</ele>
        <time>2020-07-03T22:14:09Z</time>
      </trkpt>
      <trkpt lat="46.57261" lon="0.35547">
        <ele>107.1</ele>
        <time>2020-07-03T22:14:10Z</time>
      </trkpt>
      <trkpt lat="46.57258" lon="0.35546">
        <ele>107.3</ele>
        <time>2020-07-03T22:14:11Z</time>
      </trkpt>
      <trkpt lat="46.57255" lon="0.35545">
        <ele>107.5</ele>
        <time>2020-07-03T22:14:12Z</time>
      </trkpt>
      <trkpt lat="46.57254" lon="0.35545">
        <ele>107.5</ele>
        <time>2020-07-03T22:14:13Z</time>
      </trkpt>
      <trkpt lat="46.57251" lon="0.35544">
        <ele>107.7</ele>
        <time>2020-07-03T22:14:14Z</time>
      </trkpt>
      <trkpt lat="46.57248" lon="0.35543">
        <ele>108</ele>
        <time>2020-07-03T22:14:15Z</time>
      </trkpt>
      <trkpt lat="46.57245" lon="0.35543">
        <ele>108.1</ele>
        <time>2020-07-03T22:14:16Z</time>
      </trkpt>
      <trkpt lat="46.57241" lon="0.35541">
        <ele>108.3</ele>
        <time>2020-07-03T22:14:17Z</time>
      </trkpt>
      <trkpt lat="46.57239" lon="0.35541">
        <ele>108.4</ele>
        <time>2020-07-03T22:14:18Z</time>
      </trkpt>
      <trkpt lat="46.57238" lon="0.3554">
        <ele>108.4</ele>
        <time>2020-07-03T22:14:19Z</time>
      </trkpt>
      <trkpt lat="46.57236" lon="0.35539">
        <ele>108.5</ele>
        <time>2020-07-03T22:14:20Z</time>
      </trkpt>
      <trkpt lat="46.57232" lon="0.35538">
        <ele>108.7</ele>
        <time>2020-07-03T22:14:21Z</time>
      </trkpt>
      <trkpt lat="46.57229" lon="0.35537">
        <ele>108.8</ele>
        <time>2020-07-03T22:14:22Z</time>
      </trkpt>
      <trkpt lat="46.57228" lon="0.35537">
        <ele>108.9</ele>
        <time>2020-07-03T22:14:23Z</time>
      </trkpt>
      <trkpt lat="46.57224" lon="0.35535">
        <ele>109.1</ele>
        <time>2020-07-03T22:14:24Z</time>
      </trkpt>
      <trkpt lat="46.57223" lon="0.35534">
        <ele>109.1</ele>
        <time>2020-07-03T22:14:25Z</time>
      </trkpt>
      <trkpt lat="46.57219" lon="0.35532">
        <ele>109.3</ele>
        <time>2020-07-03T22:14:26Z</time>
      </trkpt>
      <trkpt lat="46.57218" lon="0.35531">
        <ele>109.4</ele>
        <time>2020-07-03T22:14:27Z</time>
      </trkpt>
      <trkpt lat="46.57215" lon="0.35529">
        <ele>109.5</ele>
        <time>2020-07-03T22:14:28Z</time>
      </trkpt>
      <trkpt lat="46.57212" lon="0.35527">
        <ele>109.7</ele>
        <time>2020-07-03T22:14:29Z</time>
      </trkpt>
      <trkpt lat="46.5721" lon="0.35526">
        <ele>109.7</ele>
        <time>2020-07-03T22:14:30Z</time>
      </trkpt>
      <trkpt lat="46.57208" lon="0.35524">
        <ele>109.8</ele>
        <time>2020-07-03T22:14:31Z</time>
      </trkpt>
      <trkpt lat="46.57207" lon="0.35523">
        <ele>109.9</ele>
        <time>2020-07-03T22:14:32Z</time>
      </trkpt>
      <trkpt lat="46.57204" lon="0.35521">
        <ele>110</ele>
        <time>2020-07-03T22:14:33Z</time>
      </trkpt>
      <trkpt lat="46.57203" lon="0.3552">
        <ele>110.1</ele>
        <time>2020-07-03T22:14:34Z</time>
      </trkpt>
      <trkpt lat="46.57199" lon="0.35517">
        <ele>110.2</ele>
        <time>2020-07-03T22:14:35Z</time>
      </trkpt>
      <trkpt lat="46.57198" lon="0.35515">
        <ele>110.3</ele>
        <time>2020-07-03T22:14:36Z</time>
      </trkpt>
      <trkpt lat="46.57196" lon="0.35511">
        <ele>110.4</ele>
        <time>2020-07-03T22:14:37Z</time>
      </trkpt>
      <trkpt lat="46.57193" lon="0.35509">
        <ele>110.6</ele>
        <time>2020-07-03T22:14:38Z</time>
      </trkpt>
      <trkpt lat="46.57189" lon="0.35506">
        <ele>110.7</ele>
        <time>2020-07-03T22:14:39Z</time>
      </trkpt>
      <trkpt lat="46.57188" lon="0.35505">
        <ele>110.8</ele>
        <time>2020-07-03T22:14:40Z</time>
      </trkpt>
      <trkpt lat="46.57184" lon="0.35502">
        <ele>110.9</ele>
        <time>2020-07-03T22:14:41Z</time>
      </trkpt>
      <trkpt lat="46.57181" lon="0.355">
        <ele>111.1</ele>
        <time>2020-07-03T22:14:42Z</time>
      </trkpt>
      <trkpt lat="46.57178" lon="0.35497">
        <ele>111.2</ele>
        <time>2020-07-03T22:14:43Z</time>
      </trkpt>
      <trkpt lat="46.57173" lon="0.35494">
        <ele>111.3</ele>
        <time>2020-07-03T22:14:44Z</time>
      </trkpt>
      <trkpt lat="46.57169" lon="0.35491">
        <ele>111.5</ele>
        <time>2020-07-03T22:14:45Z</time>
      </trkpt>
      <trkpt lat="46.57166" lon="0.35489">
        <ele>111.6</ele>
        <time>2020-07-03T22:14:46Z</time>
      </trkpt>
      <trkpt lat="46.57162" lon="0.35488">
        <ele>111.6</ele>
        <time>2020-07-03T22:14:47Z</time>
      </trkpt>
      <trkpt lat="46.57159" lon="0.35486">
        <ele>111.7</ele>
        <time>2020-07-03T22:14:48Z</time>
      </trkpt>
      <trkpt lat="46.57156" lon="0.35484">
        <ele>111.8</ele>
        <time>2020-07-03T22:14:49Z</time>
      </trkpt>
      <trkpt lat="46.57152" lon="0.35482">
        <ele>111.8</ele>
        <time>2020-07-03T22:14:50Z</time>
      </trkpt>
      <trkpt lat="46.57149" lon="0.3548">
        <ele>111.9</ele>
        <time>2020-07-03T22:14:51Z</time>
      </trkpt>
      <trkpt lat="46.57145" lon="0.35478">
        <ele>112</ele>
        <time>2020-07-03T22:14:52Z</time>
      </trkpt>
      <trkpt lat="46.5714" lon="0.35476">
        <ele>112.1</ele>
        <time>2020-07-03T22:14:53Z</time>
      </trkpt>
      <trkpt lat="46.57136" lon="0.35474">
        <ele>112.1</ele>
        <time>2020-07-03T22:14:54Z</time>
      </trkpt>
      <trkpt lat="46.57133" lon="0.35471">
        <ele>112.2</ele>
        <time>2020-07-03T22:14:55Z</time>
      </trkpt>
      <trkpt lat="46.57129" lon="0.35469">
        <ele>112.3</ele>
        <time>2020-07-03T22:14:56Z</time>
      </trkpt>
      <trkpt lat="46.57126" lon="0.35465">
        <ele>112.3</ele>
        <time>2020-07-03T22:14:57Z</time>
      </trkpt>
      <trkpt lat="46.57122" lon="0.35464">
        <ele>112.3</ele>
        <time>2020-07-03T22:14:58Z</time>
      </trkpt>
      <trkpt lat="46.57117" lon="0.35462">
        <ele>112.4</ele>
        <time>2020-07-03T22:14:59Z</time>
      </trkpt>
      <trkpt lat="46.57113" lon="0.35459">
        <ele>112.4</ele>
        <time>2020-07-03T22:15:00Z</time>
      </trkpt>
      <trkpt lat="46.5711" lon="0.35456">
        <ele>112.5</ele>
        <time>2020-07-03T22:15:01Z</time>
      </trkpt>
      <trkpt lat="46.57106" lon="0.35454">
        <ele>112.5</ele>
        <time>2020-07-03T22:15:02Z</time>
      </trkpt>
      <trkpt lat="46.57102" lon="0.35451">
        <ele>112.6</ele>
        <time>2020-07-03T22:15:03Z</time>
      </trkpt>
      <trkpt lat="46.57099" lon="0.3545">
        <ele>112.6</ele>
        <time>2020-07-03T22:15:04Z</time>
      </trkpt>
      <trkpt lat="46.57097" lon="0.35449">
        <ele>112.7</ele>
        <time>2020-07-03T22:15:05Z</time>
      </trkpt>
      <trkpt lat="46.57096" lon="0.35449">
        <ele>112.7</ele>
        <time>2020-07-03T22:15:06Z</time>
      </trkpt>
      <trkpt lat="46.57092" lon="0.35449">
        <ele>112.8</ele>
        <time>2020-07-03T22:15:07Z</time>
      </trkpt>
      <trkpt lat="46.57088" lon="0.35448">
        <ele>112.8</ele>
        <time>2020-07-03T22:15:08Z</time>
      </trkpt>
      <trkpt lat="46.57083" lon="0.35447">
        <ele>112.9</ele>
        <time>2020-07-03T22:15:09Z</time>
      </trkpt>
      <trkpt lat="46.57079" lon="0.35446">
        <ele>112.9</ele>
        <time>2020-07-03T22:15:10Z</time>
      </trkpt>
      <trkpt lat="46.57075" lon="0.35445">
        <ele>113</ele>
        <time>2020-07-03T22:15:11Z</time>
      </trkpt>
      <trkpt lat="46.5707" lon="0.35444">
        <ele>113.1</ele>
        <time>2020-07-03T22:15:12Z</time>
      </trkpt>
      <trkpt lat="46.57066" lon="0.35444">
        <ele>113.1</ele>
        <time>2020-07-03T22:15:13Z</time>
      </trkpt>
      <trkpt lat="46.5706" lon="0.35442">
        <ele>113.3</ele>
        <time>2020-07-03T22:15:14Z</time>
      </trkpt>
      <trkpt lat="46.57055" lon="0.35441">
        <ele>113.4</ele>
        <time>2020-07-03T22:15:15Z</time>
      </trkpt>
      <trkpt lat="46.5705" lon="0.35439">
        <ele>113.5</ele>
        <time>2020-07-03T22:15:16Z</time>
      </trkpt>
      <trkpt lat="46.57046" lon="0.35437">
        <ele>113.6</ele>
        <time>2020-07-03T22:15:17Z</time>
      </trkpt>
      <trkpt lat="46.57042" lon="0.35436">
        <ele>113.7</ele>
        <time>2020-07-03T22:15:18Z</time>
      </trkpt>
      <trkpt lat="46.57038" lon="0.35435">
        <ele>113.9</ele>
        <time>2020-07-03T22:15:19Z</time>
      </trkpt>
      <trkpt lat="46.57033" lon="0.35433">
        <ele>114</ele>
        <time>2020-07-03T22:15:20Z</time>
      </trkpt>
      <trkpt lat="46.57028" lon="0.35431">
        <ele>114.1</ele>
        <time>2020-07-03T22:15:21Z</time>
      </trkpt>
      <trkpt lat="46.57024" lon="0.35429">
        <ele>114.3</ele>
        <time>2020-07-03T22:15:22Z</time>
      </trkpt>
      <trkpt lat="46.5702" lon="0.35428">
        <ele>114.4</ele>
        <time>2020-07-03T22:15:23Z</time>
      </trkpt>
      <trkpt lat="46.57015" lon="0.35427">
        <ele>114.5</ele>
        <time>2020-07-03T22:15:24Z</time>
      </trkpt>
      <trkpt lat="46.57011" lon="0.35425">
        <ele>114.6</ele>
        <time>2020-07-03T22:15:25Z</time>
      </trkpt>
      <trkpt lat="46.57006" lon="0.35425">
        <ele>114.7</ele>
        <time>2020-07-03T22:15:26Z</time>
      </trkpt>
      <trkpt lat="46.57003" lon="0.35425">
        <ele>114.8</ele>
        <time>2020-07-03T22:15:27Z</time>
      </trkpt>
      <trkpt lat="46.57" lon="0.35424">
        <ele>115</ele>
        <time>2020-07-03T22:15:28Z</time>
      </trkpt>
      <trkpt lat="46.56995" lon="0.35423">
        <ele>115.1</ele>
        <time>2020-07-03T22:15:29Z</time>
      </trkpt>
      <trkpt lat="46.56991" lon="0.35423">
        <ele>115.3</ele>
        <time>2020-07-03T22:15:30Z</time>
      </trkpt>
      <trkpt lat="46.56987" lon="0.35422">
        <ele>115.4</ele>
        <time>2020-07-03T22:15:31Z</time>
      </trkpt>
      <trkpt lat="46.56984" lon="0.35421">
        <ele>115.5</ele>
        <time>2020-07-03T22:15:32Z</time>
      </trkpt>
      <trkpt lat="46.5698" lon="0.35418">
        <ele>115.7</ele>
        <time>2020-07-03T22:15:33Z</time>
      </trkpt>
      <trkpt lat="46.56975" lon="0.35417">
        <ele>115.8</ele>
        <time>2020-07-03T22:15:34Z</time>
      </trkpt>
      <trkpt lat="46.56971" lon="0.35416">
        <ele>115.9</ele>
        <time>2020-07-03T22:15:35Z</time>
      </trkpt>
      <trkpt lat="46.56966" lon="0.35415">
        <ele>116.1</ele>
        <time>2020-07-03T22:15:36Z</time>
      </trkpt>
      <trkpt lat="46.56962" lon="0.35412">
        <ele>116.2</ele>
        <time>2020-07-03T22:15:37Z</time>
      </trkpt>
      <trkpt lat="46.56958" lon="0.35412">
        <ele>116.3</ele>
        <time>2020-07-03T22:15:38Z</time>
      </trkpt>
      <trkpt lat="46.56954" lon="0.35411">
        <ele>116.4</ele>
        <time>2020-07-03T22:15:39Z</time>
      </trkpt>
      <trkpt lat="46.56951" lon="0.3541">
        <ele>116.5</ele>
        <time>2020-07-03T22:15:40Z</time>
      </trkpt>
      <trkpt lat="46.56949" lon="0.3541">
        <ele>116.5</ele>
        <time>2020-07-03T22:15:41Z</time>
      </trkpt>
      <trkpt lat="46.56946" lon="0.3541">
        <ele>116.6</ele>
        <time>2020-07-03T22:15:42Z</time>
      </trkpt>
      <trkpt lat="46.56941" lon="0.35408">
        <ele>116.8</ele>
        <time>2020-07-03T22:15:43Z</time>
      </trkpt>
      <trkpt lat="46.56937" lon="0.35407">
        <ele>116.9</ele>
        <time>2020-07-03T22:15:44Z</time>
      </trkpt>
      <trkpt lat="46.56932" lon="0.35406">
        <ele>117</ele>
        <time>2020-07-03T22:15:45Z</time>
      </trkpt>
      <trkpt lat="46.56927" lon="0.35405">
        <ele>117.1</ele>
        <time>2020-07-03T22:15:46Z</time>
      </trkpt>
      <trkpt lat="46.56924" lon="0.35404">
        <ele>117.2</ele>
        <time>2020-07-03T22:15:47Z</time>
      </trkpt>
      <trkpt lat="46.5692" lon="0.35403">
        <ele>117.3</ele>
        <time>2020-07-03T22:15:48Z</time>
      </trkpt>
      <trkpt lat="46.56918" lon="0.35402">
        <ele>117.3</ele>
        <time>2020-07-03T22:15:49Z</time>
      </trkpt>
      <trkpt lat="46.56915" lon="0.35402">
        <ele>117.3</ele>
        <time>2020-07-03T22:15:50Z</time>
      </trkpt>
      <trkpt lat="46.5691" lon="0.35403">
        <ele>117.3</ele>
        <time>2020-07-03T22:15:51Z</time>
      </trkpt>
      <trkpt lat="46.56906" lon="0.35406">
        <ele>117.4</ele>
        <time>2020-07-03T22:15:52Z</time>
      </trkpt>
      <trkpt lat="46.56902" lon="0.35408">
        <ele>117.4</ele>
        <time>2020-07-03T22:15:53Z</time>
      </trkpt>
      <trkpt lat="46.56898" lon="0.35412">
        <ele>117.3</ele>
        <time>2020-07-03T22:15:54Z</time>
      </trkpt>
      <trkpt lat="46.56895" lon="0.35415">
        <ele>117.3</ele>
        <time>2020-07-03T22:15:55Z</time>
      </trkpt>
      <trkpt lat="46.56892" lon="0.35418">
        <ele>117.3</ele>
        <time>2020-07-03T22:15:56Z</time>
      </trkpt>
      <trkpt lat="46.56889" lon="0.35421">
        <ele>117.2</ele>
        <time>2020-07-03T22:15:57Z</time>
      </trkpt>
      <trkpt lat="46.56886" lon="0.35424">
        <ele>117.2</ele>
        <time>2020-07-03T22:15:58Z</time>
      </trkpt>
      <trkpt lat="46.56882" lon="0.35427">
        <ele>117.2</ele>
        <time>2020-07-03T22:15:59Z</time>
      </trkpt>
      <trkpt lat="46.56879" lon="0.3543">
        <ele>117.2</ele>
        <time>2020-07-03T22:16:00Z</time>
      </trkpt>
      <trkpt lat="46.56877" lon="0.35433">
        <ele>117.1</ele>
        <time>2020-07-03T22:16:01Z</time>
      </trkpt>
      <trkpt lat="46.56875" lon="0.35438">
        <ele>117.1</ele>
        <time>2020-07-03T22:16:02Z</time>
      </trkpt>
      <trkpt lat="46.56872" lon="0.35442">
        <ele>117.1</ele>
        <time>2020-07-03T22:16:03Z</time>
      </trkpt>
      <trkpt lat="46.5687" lon="0.35445">
        <ele>117.1</ele>
        <time>2020-07-03T22:16:04Z</time>
      </trkpt>
      <trkpt lat="46.56867" lon="0.35448">
        <ele>117.1</ele>
        <time>2020-07-03T22:16:05Z</time>
      </trkpt>
      <trkpt lat="46.56864" lon="0.35452">
        <ele>117.1</ele>
        <time>2020-07-03T22:16:06Z</time>
      </trkpt>
      <trkpt lat="46.56861" lon="0.35455">
        <ele>117.1</ele>
        <time>2020-07-03T22:16:07Z</time>
      </trkpt>
      <trkpt lat="46.56859" lon="0.3546">
        <ele>117.1</ele>
        <time>2020-07-03T22:16:08Z</time>
      </trkpt>
      <trkpt lat="46.56857" lon="0.35463">
        <ele>117</ele>
        <time>2020-07-03T22:16:09Z</time>
      </trkpt>
      <trkpt lat="46.56854" lon="0.35466">
        <ele>117</ele>
        <time>2020-07-03T22:16:10Z</time>
      </trkpt>
      <trkpt lat="46.56852" lon="0.35467">
        <ele>117</ele>
        <time>2020-07-03T22:16:11Z</time>
      </trkpt>
      <trkpt lat="46.56848" lon="0.3547">
        <ele>117</ele>
        <time>2020-07-03T22:16:12Z</time>
      </trkpt>
      <trkpt lat="46.56846" lon="0.35473">
        <ele>117</ele>
        <time>2020-07-03T22:16:13Z</time>
      </trkpt>
      <trkpt lat="46.56844" lon="0.35477">
        <ele>117</ele>
        <time>2020-07-03T22:16:14Z</time>
      </trkpt>
      <trkpt lat="46.56841" lon="0.35481">
        <ele>116.9</ele>
        <time>2020-07-03T22:16:15Z</time>
      </trkpt>
      <trkpt lat="46.56839" lon="0.35486">
        <ele>116.9</ele>
        <time>2020-07-03T22:16:16Z</time>
      </trkpt>
      <trkpt lat="46.56836" lon="0.3549">
        <ele>116.9</ele>
        <time>2020-07-03T22:16:17Z</time>
      </trkpt>
      <trkpt lat="46.56833" lon="0.35493">
        <ele>116.8</ele>
        <time>2020-07-03T22:16:18Z</time>
      </trkpt>
      <trkpt lat="46.56831" lon="0.35498">
        <ele>116.8</ele>
        <time>2020-07-03T22:16:19Z</time>
      </trkpt>
      <trkpt lat="46.56831" lon="0.35499">
        <ele>116.8</ele>
        <time>2020-07-03T22:16:20Z</time>
      </trkpt>
      <trkpt lat="46.56828" lon="0.35503">
        <ele>116.8</ele>
        <time>2020-07-03T22:16:21Z</time>
      </trkpt>
      <trkpt lat="46.56828" lon="0.35505">
        <ele>116.8</ele>
        <time>2020-07-03T22:16:22Z</time>
      </trkpt>
      <trkpt lat="46.56826" lon="0.35509">
        <ele>116.8</ele>
        <time>2020-07-03T22:16:23Z</time>
      </trkpt>
      <trkpt lat="46.56825" lon="0.3551">
        <ele>116.8</ele>
        <time>2020-07-03T22:16:24Z</time>
      </trkpt>
      <trkpt lat="46.56823" lon="0.35514">
        <ele>116.8</ele>
        <time>2020-07-03T22:16:25Z</time>
      </trkpt>
      <trkpt lat="46.5682" lon="0.35515">
        <ele>116.8</ele>
        <time>2020-07-03T22:16:26Z</time>
      </trkpt>
      <trkpt lat="46.56819" lon="0.35515">
        <ele>116.8</ele>
        <time>2020-07-03T22:16:27Z</time>
      </trkpt>
      <trkpt lat="46.56816" lon="0.35522">
        <ele>116.8</ele>
        <time>2020-07-03T22:16:28Z</time>
      </trkpt>
      <trkpt lat="46.56814" lon="0.35528">
        <ele>116.8</ele>
        <time>2020-07-03T22:16:29Z</time>
      </trkpt>
      <trkpt lat="46.56812" lon="0.35533">
        <ele>116.8</ele>
        <time>2020-07-03T22:16:30Z</time>
      </trkpt>
      <trkpt lat="46.5681" lon="0.3554">
        <ele>116.7</ele>
        <time>2020-07-03T22:16:31Z</time>
      </trkpt>
      <trkpt lat="46.56809" lon="0.35545">
        <ele>116.7</ele>
        <time>2020-07-03T22:16:32Z</time>
      </trkpt>
      <trkpt lat="46.56809" lon="0.35546">
        <ele>116.7</ele>
        <time>2020-07-03T22:16:33Z</time>
      </trkpt>
      <trkpt lat="46.56808" lon="0.35548">
        <ele>116.7</ele>
        <time>2020-07-03T22:16:34Z</time>
      </trkpt>
      <trkpt lat="46.56807" lon="0.35549">
        <ele>116.7</ele>
        <time>2020-07-03T22:16:35Z</time>
      </trkpt>
      <trkpt lat="46.56807" lon="0.3555">
        <ele>116.7</ele>
        <time>2020-07-03T22:16:36Z</time>
      </trkpt>
      <trkpt lat="46.56807" lon="0.3555">
        <ele>116.7</ele>
        <time>2020-07-03T22:16:37Z</time>
      </trkpt>
      <trkpt lat="46.56808" lon="0.35551">
        <ele>116.7</ele>
        <time>2020-07-03T22:16:38Z</time>
      </trkpt>
      <trkpt lat="46.56808" lon="0.35551">
        <ele>116.7</ele>
        <time>2020-07-03T22:16:39Z</time>
      </trkpt>
      <trkpt lat="46.56809" lon="0.35551">
        <ele>116.7</ele>
        <time>2020-07-03T22:16:40Z</time>
      </trkpt>
      <trkpt lat="46.56809" lon="0.35552">
        <ele>116.7</ele>
        <time>2020-07-03T22:16:41Z</time>
      </trkpt>
      <trkpt lat="46.5681" lon="0.35552">
        <ele>116.7</ele>
        <time>2020-07-03T22:16:42Z</time>
      </trkpt>
      <trkpt lat="46.56811" lon="0.35552">
        <ele>116.7</ele>
        <time>2020-07-03T22:16:43Z</time>
      </trkpt>
      <trkpt lat="46.56811" lon="0.35553">
        <ele>116.7</ele>
        <time>2020-07-03T22:16:44Z</time>
      </trkpt>
      <trkpt lat="46.56812" lon="0.35554">
        <ele>116.7</ele>
        <time>2020-07-03T22:16:45Z</time>
      </trkpt>
      <trkpt lat="46.56812" lon="0.35555">
        <ele>116.7</ele>
        <time>2020-07-03T22:16:46Z</time>
      </trkpt>
      <trkpt lat="46.56813" lon="0.35554">
        <ele>116.7</ele>
        <time>2020-07-03T22:16:47Z</time>
      </trkpt>
      <trkpt lat="46.56814" lon="0.35556">
        <ele>116.7</ele>
        <time>2020-07-03T22:16:48Z</time>
      </trkpt>
      <trkpt lat="46.56815" lon="0.35557">
        <ele>116.7</ele>
        <time>2020-07-03T22:16:49Z</time>
      </trkpt>
      <trkpt lat="46.56815" lon="0.35557">
        <ele>116.7</ele>
        <time>2020-07-03T22:16:50Z</time>
      </trkpt>
      <trkpt lat="46.56815" lon="0.35557">
        <ele>116.7</ele>
        <time>2020-07-03T22:16:51Z</time>
      </trkpt>
      <trkpt lat="46.56815" lon="0.35557">
        <ele>116.7</ele>
        <time>2020-07-03T22:16:52Z</time>
      </trkpt>
      <trkpt lat="46.56815" lon="0.35557">
        <ele>116.7</ele>
        <time>2020-07-03T22:16:53Z</time>
      </trkpt>
      <trkpt lat="46.56815" lon="0.35557">
        <ele>116.7</ele>
        <time>2020-07-03T22:16:54Z</time>
      </trkpt>
      <trkpt lat="46.56815" lon="0.35557">
        <ele>116.7</ele>
        <time>2020-07-03T22:16:55Z</time>
      </trkpt>
    </trkseg>
  </trk>
</gpx>